<?xml version="1.0" encoding="UTF-8"?>
<gpx version="1.1" creator="https://www.youtrack.es" xsi:schemaLocation="http://www.topografix.com/GPX/1/1 http://www.topografix.com/GPX/1/1/gpx.xsd http://www.garmin.com/xmlschemas/GpxExtensions/v3 http://www.garmin.com/xmlschemas/GpxExtensionsv3.xsd http://www.garmin.com/xmlschemas/TrackPointExtension/v1 http://www.garmin.com/xmlschemas/TrackPointExtensionv1.xsd" xmlns:gpxtpx="http://www.garmin.com/xmlschemas/TrackPointExtension/v1" xmlns:gpxx="http://www.garmin.com/xmlschemas/GpxExtensions/v3" xmlns:xsi="http://www.w3.org/2001/XMLSchema-instance">
  <metadata>
    <link href="https://www.youtrack.es">
      <text>YouTrack.es</text>
    </link>
    <time>2026-05-09T02:38:58Z</time>
  </metadata>
  <trk>
    <src>https://www.youtrack.es</src>
    <link href="https://www.youtrack.es/ruta/3620-ironbike--17-full">
      <text>YouTrack.es</text>
    </link>
    <trkseg>
      <trkpt lat="44.0886770" lon="7.5934790">
        <ele>776.0</ele>
        <time>2017-07-22T14:56:07Z</time>
      </trkpt>
      <trkpt lat="44.0887250" lon="7.5934630">
        <ele>777.0</ele>
        <time>2017-07-22T15:00:48Z</time>
      </trkpt>
      <trkpt lat="44.0887390" lon="7.5934370">
        <ele>776.8</ele>
        <time>2017-07-22T15:00:49Z</time>
      </trkpt>
      <trkpt lat="44.0887410" lon="7.5934010">
        <ele>777.0</ele>
        <time>2017-07-22T15:00:50Z</time>
      </trkpt>
      <trkpt lat="44.0887360" lon="7.5933580">
        <ele>776.8</ele>
        <time>2017-07-22T15:00:51Z</time>
      </trkpt>
      <trkpt lat="44.0887200" lon="7.5933230">
        <ele>776.4</ele>
        <time>2017-07-22T15:00:52Z</time>
      </trkpt>
      <trkpt lat="44.0886980" lon="7.5932950">
        <ele>776.0</ele>
        <time>2017-07-22T15:00:53Z</time>
      </trkpt>
      <trkpt lat="44.0886650" lon="7.5932960">
        <ele>775.8</ele>
        <time>2017-07-22T15:00:54Z</time>
      </trkpt>
      <trkpt lat="44.0885810" lon="7.5933520">
        <ele>775.4</ele>
        <time>2017-07-22T15:00:56Z</time>
      </trkpt>
      <trkpt lat="44.0885330" lon="7.5933810">
        <ele>775.2</ele>
        <time>2017-07-22T15:00:57Z</time>
      </trkpt>
      <trkpt lat="44.0884800" lon="7.5934030">
        <ele>775.0</ele>
        <time>2017-07-22T15:00:58Z</time>
      </trkpt>
      <trkpt lat="44.0884240" lon="7.5934310">
        <ele>775.0</ele>
        <time>2017-07-22T15:00:59Z</time>
      </trkpt>
      <trkpt lat="44.0882550" lon="7.5935110">
        <ele>775.0</ele>
        <time>2017-07-22T15:01:02Z</time>
      </trkpt>
      <trkpt lat="44.0878360" lon="7.5936450">
        <ele>775.8</ele>
        <time>2017-07-22T15:01:09Z</time>
      </trkpt>
      <trkpt lat="44.0877720" lon="7.5936550">
        <ele>776.0</ele>
        <time>2017-07-22T15:01:10Z</time>
      </trkpt>
      <trkpt lat="44.0875700" lon="7.5936750">
        <ele>776.0</ele>
        <time>2017-07-22T15:01:13Z</time>
      </trkpt>
      <trkpt lat="44.0874380" lon="7.5937070">
        <ele>776.2</ele>
        <time>2017-07-22T15:01:15Z</time>
      </trkpt>
      <trkpt lat="44.0873720" lon="7.5937320">
        <ele>776.2</ele>
        <time>2017-07-22T15:01:16Z</time>
      </trkpt>
      <trkpt lat="44.0871590" lon="7.5937560">
        <ele>776.4</ele>
        <time>2017-07-22T15:01:19Z</time>
      </trkpt>
      <trkpt lat="44.0870030" lon="7.5937180">
        <ele>776.2</ele>
        <time>2017-07-22T15:01:21Z</time>
      </trkpt>
      <trkpt lat="44.0865810" lon="7.5935930">
        <ele>775.4</ele>
        <time>2017-07-22T15:01:26Z</time>
      </trkpt>
      <trkpt lat="44.0864920" lon="7.5935880">
        <ele>775.4</ele>
        <time>2017-07-22T15:01:27Z</time>
      </trkpt>
      <trkpt lat="44.0863220" lon="7.5936280">
        <ele>775.0</ele>
        <time>2017-07-22T15:01:29Z</time>
      </trkpt>
      <trkpt lat="44.0861050" lon="7.5937660">
        <ele>774.2</ele>
        <time>2017-07-22T15:01:32Z</time>
      </trkpt>
      <trkpt lat="44.0860360" lon="7.5938050">
        <ele>774.0</ele>
        <time>2017-07-22T15:01:33Z</time>
      </trkpt>
      <trkpt lat="44.0858870" lon="7.5938550">
        <ele>773.4</ele>
        <time>2017-07-22T15:01:35Z</time>
      </trkpt>
      <trkpt lat="44.0857090" lon="7.5938750">
        <ele>772.8</ele>
        <time>2017-07-22T15:01:37Z</time>
      </trkpt>
      <trkpt lat="44.0853440" lon="7.5938730">
        <ele>771.2</ele>
        <time>2017-07-22T15:01:41Z</time>
      </trkpt>
      <trkpt lat="44.0851680" lon="7.5938410">
        <ele>770.4</ele>
        <time>2017-07-22T15:01:43Z</time>
      </trkpt>
      <trkpt lat="44.0850780" lon="7.5938120">
        <ele>770.0</ele>
        <time>2017-07-22T15:01:44Z</time>
      </trkpt>
      <trkpt lat="44.0848000" lon="7.5937250">
        <ele>768.8</ele>
        <time>2017-07-22T15:01:47Z</time>
      </trkpt>
      <trkpt lat="44.0847060" lon="7.5936870">
        <ele>768.4</ele>
        <time>2017-07-22T15:01:48Z</time>
      </trkpt>
      <trkpt lat="44.0845360" lon="7.5936080">
        <ele>767.4</ele>
        <time>2017-07-22T15:01:50Z</time>
      </trkpt>
      <trkpt lat="44.0844540" lon="7.5935850">
        <ele>767.0</ele>
        <time>2017-07-22T15:01:51Z</time>
      </trkpt>
      <trkpt lat="44.0843690" lon="7.5935720">
        <ele>766.4</ele>
        <time>2017-07-22T15:01:52Z</time>
      </trkpt>
      <trkpt lat="44.0841250" lon="7.5935890">
        <ele>765.4</ele>
        <time>2017-07-22T15:01:55Z</time>
      </trkpt>
      <trkpt lat="44.0840490" lon="7.5936010">
        <ele>765.0</ele>
        <time>2017-07-22T15:01:56Z</time>
      </trkpt>
      <trkpt lat="44.0839020" lon="7.5936130">
        <ele>764.0</ele>
        <time>2017-07-22T15:01:58Z</time>
      </trkpt>
      <trkpt lat="44.0837780" lon="7.5935830">
        <ele>763.2</ele>
        <time>2017-07-22T15:02:00Z</time>
      </trkpt>
      <trkpt lat="44.0837260" lon="7.5935620">
        <ele>762.6</ele>
        <time>2017-07-22T15:02:01Z</time>
      </trkpt>
      <trkpt lat="44.0835640" lon="7.5934680">
        <ele>761.6</ele>
        <time>2017-07-22T15:02:04Z</time>
      </trkpt>
      <trkpt lat="44.0834510" lon="7.5934040">
        <ele>760.6</ele>
        <time>2017-07-22T15:02:06Z</time>
      </trkpt>
      <trkpt lat="44.0833650" lon="7.5933800">
        <ele>760.2</ele>
        <time>2017-07-22T15:02:07Z</time>
      </trkpt>
      <trkpt lat="44.0832850" lon="7.5933740">
        <ele>760.2</ele>
        <time>2017-07-22T15:02:08Z</time>
      </trkpt>
      <trkpt lat="44.0831380" lon="7.5934090">
        <ele>760.2</ele>
        <time>2017-07-22T15:02:10Z</time>
      </trkpt>
      <trkpt lat="44.0830700" lon="7.5934320">
        <ele>760.4</ele>
        <time>2017-07-22T15:02:11Z</time>
      </trkpt>
      <trkpt lat="44.0829330" lon="7.5934780">
        <ele>760.8</ele>
        <time>2017-07-22T15:02:13Z</time>
      </trkpt>
      <trkpt lat="44.0828580" lon="7.5934860">
        <ele>761.0</ele>
        <time>2017-07-22T15:02:14Z</time>
      </trkpt>
      <trkpt lat="44.0827800" lon="7.5934880">
        <ele>761.2</ele>
        <time>2017-07-22T15:02:15Z</time>
      </trkpt>
      <trkpt lat="44.0826980" lon="7.5934750">
        <ele>761.6</ele>
        <time>2017-07-22T15:02:16Z</time>
      </trkpt>
      <trkpt lat="44.0826200" lon="7.5934700">
        <ele>761.8</ele>
        <time>2017-07-22T15:02:17Z</time>
      </trkpt>
      <trkpt lat="44.0824770" lon="7.5934500">
        <ele>762.4</ele>
        <time>2017-07-22T15:02:19Z</time>
      </trkpt>
      <trkpt lat="44.0824040" lon="7.5934710">
        <ele>762.8</ele>
        <time>2017-07-22T15:02:20Z</time>
      </trkpt>
      <trkpt lat="44.0823340" lon="7.5935160">
        <ele>763.2</ele>
        <time>2017-07-22T15:02:21Z</time>
      </trkpt>
      <trkpt lat="44.0821990" lon="7.5936110">
        <ele>763.6</ele>
        <time>2017-07-22T15:02:23Z</time>
      </trkpt>
      <trkpt lat="44.0821430" lon="7.5936750">
        <ele>764.0</ele>
        <time>2017-07-22T15:02:24Z</time>
      </trkpt>
      <trkpt lat="44.0820890" lon="7.5937430">
        <ele>764.4</ele>
        <time>2017-07-22T15:02:25Z</time>
      </trkpt>
      <trkpt lat="44.0820020" lon="7.5939120">
        <ele>765.0</ele>
        <time>2017-07-22T15:02:27Z</time>
      </trkpt>
      <trkpt lat="44.0819610" lon="7.5939940">
        <ele>765.4</ele>
        <time>2017-07-22T15:02:28Z</time>
      </trkpt>
      <trkpt lat="44.0819180" lon="7.5940670">
        <ele>766.0</ele>
        <time>2017-07-22T15:02:29Z</time>
      </trkpt>
      <trkpt lat="44.0818060" lon="7.5942820">
        <ele>767.2</ele>
        <time>2017-07-22T15:02:32Z</time>
      </trkpt>
      <trkpt lat="44.0817700" lon="7.5943490">
        <ele>767.6</ele>
        <time>2017-07-22T15:02:33Z</time>
      </trkpt>
      <trkpt lat="44.0817020" lon="7.5944760">
        <ele>768.4</ele>
        <time>2017-07-22T15:02:35Z</time>
      </trkpt>
      <trkpt lat="44.0816230" lon="7.5946610">
        <ele>769.6</ele>
        <time>2017-07-22T15:02:38Z</time>
      </trkpt>
      <trkpt lat="44.0815990" lon="7.5947200">
        <ele>770.0</ele>
        <time>2017-07-22T15:02:39Z</time>
      </trkpt>
      <trkpt lat="44.0814770" lon="7.5949240">
        <ele>771.2</ele>
        <time>2017-07-22T15:02:43Z</time>
      </trkpt>
      <trkpt lat="44.0814110" lon="7.5950120">
        <ele>771.8</ele>
        <time>2017-07-22T15:02:45Z</time>
      </trkpt>
      <trkpt lat="44.0813810" lon="7.5950580">
        <ele>772.0</ele>
        <time>2017-07-22T15:02:46Z</time>
      </trkpt>
      <trkpt lat="44.0813470" lon="7.5951020">
        <ele>772.2</ele>
        <time>2017-07-22T15:02:47Z</time>
      </trkpt>
      <trkpt lat="44.0812330" lon="7.5952420">
        <ele>773.0</ele>
        <time>2017-07-22T15:02:50Z</time>
      </trkpt>
      <trkpt lat="44.0811990" lon="7.5952910">
        <ele>773.4</ele>
        <time>2017-07-22T15:02:51Z</time>
      </trkpt>
      <trkpt lat="44.0810390" lon="7.5954380">
        <ele>774.8</ele>
        <time>2017-07-22T15:02:55Z</time>
      </trkpt>
      <trkpt lat="44.0810000" lon="7.5954380">
        <ele>774.8</ele>
        <time>2017-07-22T15:02:56Z</time>
      </trkpt>
      <trkpt lat="44.0809900" lon="7.5953510">
        <ele>775.6</ele>
        <time>2017-07-22T15:02:58Z</time>
      </trkpt>
      <trkpt lat="44.0810140" lon="7.5953180">
        <ele>776.2</ele>
        <time>2017-07-22T15:02:59Z</time>
      </trkpt>
      <trkpt lat="44.0810870" lon="7.5952540">
        <ele>777.4</ele>
        <time>2017-07-22T15:03:02Z</time>
      </trkpt>
      <trkpt lat="44.0811600" lon="7.5951820">
        <ele>778.6</ele>
        <time>2017-07-22T15:03:05Z</time>
      </trkpt>
      <trkpt lat="44.0811980" lon="7.5951170">
        <ele>779.2</ele>
        <time>2017-07-22T15:03:07Z</time>
      </trkpt>
      <trkpt lat="44.0812100" lon="7.5950810">
        <ele>779.6</ele>
        <time>2017-07-22T15:03:08Z</time>
      </trkpt>
      <trkpt lat="44.0812580" lon="7.5949690">
        <ele>780.8</ele>
        <time>2017-07-22T15:03:11Z</time>
      </trkpt>
      <trkpt lat="44.0813280" lon="7.5948420">
        <ele>782.0</ele>
        <time>2017-07-22T15:03:15Z</time>
      </trkpt>
      <trkpt lat="44.0813530" lon="7.5947740">
        <ele>783.0</ele>
        <time>2017-07-22T15:03:17Z</time>
      </trkpt>
      <trkpt lat="44.0814130" lon="7.5946350">
        <ele>784.2</ele>
        <time>2017-07-22T15:03:21Z</time>
      </trkpt>
      <trkpt lat="44.0814290" lon="7.5945940">
        <ele>784.6</ele>
        <time>2017-07-22T15:03:22Z</time>
      </trkpt>
      <trkpt lat="44.0814550" lon="7.5944800">
        <ele>785.4</ele>
        <time>2017-07-22T15:03:25Z</time>
      </trkpt>
      <trkpt lat="44.0814630" lon="7.5943200">
        <ele>786.2</ele>
        <time>2017-07-22T15:03:29Z</time>
      </trkpt>
      <trkpt lat="44.0814690" lon="7.5942810">
        <ele>786.4</ele>
        <time>2017-07-22T15:03:30Z</time>
      </trkpt>
      <trkpt lat="44.0814890" lon="7.5940890">
        <ele>787.6</ele>
        <time>2017-07-22T15:03:35Z</time>
      </trkpt>
      <trkpt lat="44.0814940" lon="7.5939720">
        <ele>788.4</ele>
        <time>2017-07-22T15:03:38Z</time>
      </trkpt>
      <trkpt lat="44.0814960" lon="7.5939340">
        <ele>788.8</ele>
        <time>2017-07-22T15:03:39Z</time>
      </trkpt>
      <trkpt lat="44.0815070" lon="7.5938600">
        <ele>789.8</ele>
        <time>2017-07-22T15:03:41Z</time>
      </trkpt>
      <trkpt lat="44.0815340" lon="7.5937480">
        <ele>791.0</ele>
        <time>2017-07-22T15:03:44Z</time>
      </trkpt>
      <trkpt lat="44.0815410" lon="7.5937080">
        <ele>791.2</ele>
        <time>2017-07-22T15:03:45Z</time>
      </trkpt>
      <trkpt lat="44.0815600" lon="7.5936400">
        <ele>792.0</ele>
        <time>2017-07-22T15:03:47Z</time>
      </trkpt>
      <trkpt lat="44.0815920" lon="7.5935270">
        <ele>793.0</ele>
        <time>2017-07-22T15:03:50Z</time>
      </trkpt>
      <trkpt lat="44.0816410" lon="7.5933760">
        <ele>794.2</ele>
        <time>2017-07-22T15:03:54Z</time>
      </trkpt>
      <trkpt lat="44.0816830" lon="7.5932690">
        <ele>795.4</ele>
        <time>2017-07-22T15:03:57Z</time>
      </trkpt>
      <trkpt lat="44.0816830" lon="7.5931700">
        <ele>796.2</ele>
        <time>2017-07-22T15:04:00Z</time>
      </trkpt>
      <trkpt lat="44.0816690" lon="7.5931370">
        <ele>796.4</ele>
        <time>2017-07-22T15:04:01Z</time>
      </trkpt>
      <trkpt lat="44.0816350" lon="7.5931720">
        <ele>797.0</ele>
        <time>2017-07-22T15:04:03Z</time>
      </trkpt>
      <trkpt lat="44.0816230" lon="7.5932030">
        <ele>797.4</ele>
        <time>2017-07-22T15:04:04Z</time>
      </trkpt>
      <trkpt lat="44.0815920" lon="7.5932740">
        <ele>798.6</ele>
        <time>2017-07-22T15:04:06Z</time>
      </trkpt>
      <trkpt lat="44.0815340" lon="7.5933660">
        <ele>799.6</ele>
        <time>2017-07-22T15:04:09Z</time>
      </trkpt>
      <trkpt lat="44.0815130" lon="7.5933970">
        <ele>800.0</ele>
        <time>2017-07-22T15:04:10Z</time>
      </trkpt>
      <trkpt lat="44.0814520" lon="7.5934920">
        <ele>801.4</ele>
        <time>2017-07-22T15:04:13Z</time>
      </trkpt>
      <trkpt lat="44.0814230" lon="7.5935680">
        <ele>802.0</ele>
        <time>2017-07-22T15:04:15Z</time>
      </trkpt>
      <trkpt lat="44.0814030" lon="7.5936030">
        <ele>802.4</ele>
        <time>2017-07-22T15:04:16Z</time>
      </trkpt>
      <trkpt lat="44.0813380" lon="7.5937340">
        <ele>803.6</ele>
        <time>2017-07-22T15:04:20Z</time>
      </trkpt>
      <trkpt lat="44.0813170" lon="7.5938800">
        <ele>805.0</ele>
        <time>2017-07-22T15:04:24Z</time>
      </trkpt>
      <trkpt lat="44.0813140" lon="7.5939080">
        <ele>805.2</ele>
        <time>2017-07-22T15:04:25Z</time>
      </trkpt>
      <trkpt lat="44.0812180" lon="7.5939640">
        <ele>806.0</ele>
        <time>2017-07-22T15:04:30Z</time>
      </trkpt>
      <trkpt lat="44.0810210" lon="7.5940020">
        <ele>806.8</ele>
        <time>2017-07-22T15:04:37Z</time>
      </trkpt>
      <trkpt lat="44.0809630" lon="7.5940100">
        <ele>807.0</ele>
        <time>2017-07-22T15:04:39Z</time>
      </trkpt>
      <trkpt lat="44.0807690" lon="7.5940550">
        <ele>808.2</ele>
        <time>2017-07-22T15:04:46Z</time>
      </trkpt>
      <trkpt lat="44.0806650" lon="7.5941000">
        <ele>809.2</ele>
        <time>2017-07-22T15:04:50Z</time>
      </trkpt>
      <trkpt lat="44.0806230" lon="7.5940550">
        <ele>809.6</ele>
        <time>2017-07-22T15:04:52Z</time>
      </trkpt>
      <trkpt lat="44.0806070" lon="7.5940310">
        <ele>810.2</ele>
        <time>2017-07-22T15:04:53Z</time>
      </trkpt>
      <trkpt lat="44.0806200" lon="7.5939940">
        <ele>810.6</ele>
        <time>2017-07-22T15:04:54Z</time>
      </trkpt>
      <trkpt lat="44.0806380" lon="7.5939610">
        <ele>811.2</ele>
        <time>2017-07-22T15:04:55Z</time>
      </trkpt>
      <trkpt lat="44.0806590" lon="7.5939290">
        <ele>811.4</ele>
        <time>2017-07-22T15:04:56Z</time>
      </trkpt>
      <trkpt lat="44.0807510" lon="7.5938430">
        <ele>812.6</ele>
        <time>2017-07-22T15:04:59Z</time>
      </trkpt>
      <trkpt lat="44.0807860" lon="7.5938100">
        <ele>813.0</ele>
        <time>2017-07-22T15:05:00Z</time>
      </trkpt>
      <trkpt lat="44.0808520" lon="7.5937470">
        <ele>813.8</ele>
        <time>2017-07-22T15:05:02Z</time>
      </trkpt>
      <trkpt lat="44.0809450" lon="7.5936450">
        <ele>815.0</ele>
        <time>2017-07-22T15:05:05Z</time>
      </trkpt>
      <trkpt lat="44.0810220" lon="7.5935520">
        <ele>816.2</ele>
        <time>2017-07-22T15:05:08Z</time>
      </trkpt>
      <trkpt lat="44.0810970" lon="7.5934560">
        <ele>817.4</ele>
        <time>2017-07-22T15:05:11Z</time>
      </trkpt>
      <trkpt lat="44.0811720" lon="7.5933690">
        <ele>818.8</ele>
        <time>2017-07-22T15:05:14Z</time>
      </trkpt>
      <trkpt lat="44.0812280" lon="7.5933180">
        <ele>819.4</ele>
        <time>2017-07-22T15:05:16Z</time>
      </trkpt>
      <trkpt lat="44.0812560" lon="7.5932860">
        <ele>820.0</ele>
        <time>2017-07-22T15:05:17Z</time>
      </trkpt>
      <trkpt lat="44.0812660" lon="7.5931980">
        <ele>820.8</ele>
        <time>2017-07-22T15:05:20Z</time>
      </trkpt>
      <trkpt lat="44.0812370" lon="7.5931730">
        <ele>821.2</ele>
        <time>2017-07-22T15:05:21Z</time>
      </trkpt>
      <trkpt lat="44.0811660" lon="7.5931440">
        <ele>822.4</ele>
        <time>2017-07-22T15:05:24Z</time>
      </trkpt>
      <trkpt lat="44.0811100" lon="7.5931570">
        <ele>823.2</ele>
        <time>2017-07-22T15:05:26Z</time>
      </trkpt>
      <trkpt lat="44.0810800" lon="7.5931670">
        <ele>823.4</ele>
        <time>2017-07-22T15:05:27Z</time>
      </trkpt>
      <trkpt lat="44.0809610" lon="7.5932580">
        <ele>824.8</ele>
        <time>2017-07-22T15:05:30Z</time>
      </trkpt>
      <trkpt lat="44.0808940" lon="7.5932960">
        <ele>825.6</ele>
        <time>2017-07-22T15:05:32Z</time>
      </trkpt>
      <trkpt lat="44.0808630" lon="7.5933110">
        <ele>825.8</ele>
        <time>2017-07-22T15:05:33Z</time>
      </trkpt>
      <trkpt lat="44.0807710" lon="7.5933630">
        <ele>826.8</ele>
        <time>2017-07-22T15:05:36Z</time>
      </trkpt>
      <trkpt lat="44.0806960" lon="7.5934230">
        <ele>827.6</ele>
        <time>2017-07-22T15:05:38Z</time>
      </trkpt>
      <trkpt lat="44.0806610" lon="7.5934510">
        <ele>828.0</ele>
        <time>2017-07-22T15:05:39Z</time>
      </trkpt>
      <trkpt lat="44.0805980" lon="7.5934970">
        <ele>829.0</ele>
        <time>2017-07-22T15:05:41Z</time>
      </trkpt>
      <trkpt lat="44.0804960" lon="7.5935710">
        <ele>830.0</ele>
        <time>2017-07-22T15:05:44Z</time>
      </trkpt>
      <trkpt lat="44.0804630" lon="7.5935920">
        <ele>830.4</ele>
        <time>2017-07-22T15:05:45Z</time>
      </trkpt>
      <trkpt lat="44.0803660" lon="7.5936600">
        <ele>831.2</ele>
        <time>2017-07-22T15:05:48Z</time>
      </trkpt>
      <trkpt lat="44.0802400" lon="7.5937430">
        <ele>832.4</ele>
        <time>2017-07-22T15:05:52Z</time>
      </trkpt>
      <trkpt lat="44.0801800" lon="7.5937840">
        <ele>832.8</ele>
        <time>2017-07-22T15:05:54Z</time>
      </trkpt>
      <trkpt lat="44.0801200" lon="7.5938190">
        <ele>833.4</ele>
        <time>2017-07-22T15:05:56Z</time>
      </trkpt>
      <trkpt lat="44.0799970" lon="7.5938860">
        <ele>834.4</ele>
        <time>2017-07-22T15:06:00Z</time>
      </trkpt>
      <trkpt lat="44.0799340" lon="7.5939230">
        <ele>835.2</ele>
        <time>2017-07-22T15:06:02Z</time>
      </trkpt>
      <trkpt lat="44.0799090" lon="7.5939460">
        <ele>835.6</ele>
        <time>2017-07-22T15:06:03Z</time>
      </trkpt>
      <trkpt lat="44.0798230" lon="7.5940220">
        <ele>836.6</ele>
        <time>2017-07-22T15:06:06Z</time>
      </trkpt>
      <trkpt lat="44.0797960" lon="7.5940520">
        <ele>837.0</ele>
        <time>2017-07-22T15:06:07Z</time>
      </trkpt>
      <trkpt lat="44.0797470" lon="7.5941040">
        <ele>837.6</ele>
        <time>2017-07-22T15:06:09Z</time>
      </trkpt>
      <trkpt lat="44.0796640" lon="7.5942320">
        <ele>838.8</ele>
        <time>2017-07-22T15:06:13Z</time>
      </trkpt>
      <trkpt lat="44.0796480" lon="7.5942650">
        <ele>838.8</ele>
        <time>2017-07-22T15:06:14Z</time>
      </trkpt>
      <trkpt lat="44.0795500" lon="7.5944840">
        <ele>839.8</ele>
        <time>2017-07-22T15:06:20Z</time>
      </trkpt>
      <trkpt lat="44.0795350" lon="7.5945210">
        <ele>839.8</ele>
        <time>2017-07-22T15:06:21Z</time>
      </trkpt>
      <trkpt lat="44.0794230" lon="7.5946470">
        <ele>840.8</ele>
        <time>2017-07-22T15:06:26Z</time>
      </trkpt>
      <trkpt lat="44.0794060" lon="7.5946810">
        <ele>841.0</ele>
        <time>2017-07-22T15:06:27Z</time>
      </trkpt>
      <trkpt lat="44.0792790" lon="7.5948450">
        <ele>841.8</ele>
        <time>2017-07-22T15:06:33Z</time>
      </trkpt>
      <trkpt lat="44.0792540" lon="7.5948670">
        <ele>841.8</ele>
        <time>2017-07-22T15:06:34Z</time>
      </trkpt>
      <trkpt lat="44.0791040" lon="7.5950720">
        <ele>842.6</ele>
        <time>2017-07-22T15:06:42Z</time>
      </trkpt>
      <trkpt lat="44.0790600" lon="7.5951030">
        <ele>843.0</ele>
        <time>2017-07-22T15:06:44Z</time>
      </trkpt>
      <trkpt lat="44.0790050" lon="7.5950630">
        <ele>843.0</ele>
        <time>2017-07-22T15:06:46Z</time>
      </trkpt>
      <trkpt lat="44.0790320" lon="7.5949780">
        <ele>843.2</ele>
        <time>2017-07-22T15:06:48Z</time>
      </trkpt>
      <trkpt lat="44.0790940" lon="7.5948720">
        <ele>843.4</ele>
        <time>2017-07-22T15:06:51Z</time>
      </trkpt>
      <trkpt lat="44.0791280" lon="7.5948040">
        <ele>844.2</ele>
        <time>2017-07-22T15:06:53Z</time>
      </trkpt>
      <trkpt lat="44.0791460" lon="7.5947720">
        <ele>844.6</ele>
        <time>2017-07-22T15:06:54Z</time>
      </trkpt>
      <trkpt lat="44.0791790" lon="7.5947100">
        <ele>845.4</ele>
        <time>2017-07-22T15:06:56Z</time>
      </trkpt>
      <trkpt lat="44.0792560" lon="7.5945700">
        <ele>846.4</ele>
        <time>2017-07-22T15:07:01Z</time>
      </trkpt>
      <trkpt lat="44.0792740" lon="7.5945430">
        <ele>846.6</ele>
        <time>2017-07-22T15:07:02Z</time>
      </trkpt>
      <trkpt lat="44.0793200" lon="7.5944270">
        <ele>847.4</ele>
        <time>2017-07-22T15:07:06Z</time>
      </trkpt>
      <trkpt lat="44.0793060" lon="7.5943970">
        <ele>847.8</ele>
        <time>2017-07-22T15:07:07Z</time>
      </trkpt>
      <trkpt lat="44.0792980" lon="7.5943740">
        <ele>848.2</ele>
        <time>2017-07-22T15:07:08Z</time>
      </trkpt>
      <trkpt lat="44.0792750" lon="7.5943690">
        <ele>848.6</ele>
        <time>2017-07-22T15:07:09Z</time>
      </trkpt>
      <trkpt lat="44.0792230" lon="7.5944230">
        <ele>849.4</ele>
        <time>2017-07-22T15:07:11Z</time>
      </trkpt>
      <trkpt lat="44.0791920" lon="7.5944480">
        <ele>849.8</ele>
        <time>2017-07-22T15:07:12Z</time>
      </trkpt>
      <trkpt lat="44.0791340" lon="7.5945040">
        <ele>850.8</ele>
        <time>2017-07-22T15:07:14Z</time>
      </trkpt>
      <trkpt lat="44.0791050" lon="7.5945320">
        <ele>851.2</ele>
        <time>2017-07-22T15:07:15Z</time>
      </trkpt>
      <trkpt lat="44.0790470" lon="7.5945810">
        <ele>853.0</ele>
        <time>2017-07-22T15:07:17Z</time>
      </trkpt>
      <trkpt lat="44.0790210" lon="7.5946090">
        <ele>853.6</ele>
        <time>2017-07-22T15:07:18Z</time>
      </trkpt>
      <trkpt lat="44.0789960" lon="7.5946370">
        <ele>854.0</ele>
        <time>2017-07-22T15:07:19Z</time>
      </trkpt>
      <trkpt lat="44.0789250" lon="7.5947140">
        <ele>855.2</ele>
        <time>2017-07-22T15:07:22Z</time>
      </trkpt>
      <trkpt lat="44.0788230" lon="7.5948040">
        <ele>856.2</ele>
        <time>2017-07-22T15:07:26Z</time>
      </trkpt>
      <trkpt lat="44.0787950" lon="7.5948260">
        <ele>856.6</ele>
        <time>2017-07-22T15:07:27Z</time>
      </trkpt>
      <trkpt lat="44.0786890" lon="7.5949180">
        <ele>857.8</ele>
        <time>2017-07-22T15:07:31Z</time>
      </trkpt>
      <trkpt lat="44.0786390" lon="7.5949570">
        <ele>858.6</ele>
        <time>2017-07-22T15:07:33Z</time>
      </trkpt>
      <trkpt lat="44.0785900" lon="7.5949840">
        <ele>859.2</ele>
        <time>2017-07-22T15:07:35Z</time>
      </trkpt>
      <trkpt lat="44.0784760" lon="7.5950490">
        <ele>860.2</ele>
        <time>2017-07-22T15:07:39Z</time>
      </trkpt>
      <trkpt lat="44.0783900" lon="7.5950930">
        <ele>861.4</ele>
        <time>2017-07-22T15:07:42Z</time>
      </trkpt>
      <trkpt lat="44.0782930" lon="7.5950980">
        <ele>862.4</ele>
        <time>2017-07-22T15:07:45Z</time>
      </trkpt>
      <trkpt lat="44.0781060" lon="7.5950370">
        <ele>863.6</ele>
        <time>2017-07-22T15:07:51Z</time>
      </trkpt>
      <trkpt lat="44.0780790" lon="7.5950170">
        <ele>864.0</ele>
        <time>2017-07-22T15:07:52Z</time>
      </trkpt>
      <trkpt lat="44.0779760" lon="7.5949220">
        <ele>864.8</ele>
        <time>2017-07-22T15:07:56Z</time>
      </trkpt>
      <trkpt lat="44.0778950" lon="7.5948500">
        <ele>865.6</ele>
        <time>2017-07-22T15:07:59Z</time>
      </trkpt>
      <trkpt lat="44.0778410" lon="7.5948020">
        <ele>866.0</ele>
        <time>2017-07-22T15:08:01Z</time>
      </trkpt>
      <trkpt lat="44.0777590" lon="7.5947400">
        <ele>867.4</ele>
        <time>2017-07-22T15:08:04Z</time>
      </trkpt>
      <trkpt lat="44.0776760" lon="7.5946700">
        <ele>868.6</ele>
        <time>2017-07-22T15:08:07Z</time>
      </trkpt>
      <trkpt lat="44.0775900" lon="7.5946000">
        <ele>869.6</ele>
        <time>2017-07-22T15:08:10Z</time>
      </trkpt>
      <trkpt lat="44.0774850" lon="7.5945050">
        <ele>870.6</ele>
        <time>2017-07-22T15:08:14Z</time>
      </trkpt>
      <trkpt lat="44.0774290" lon="7.5944630">
        <ele>871.4</ele>
        <time>2017-07-22T15:08:16Z</time>
      </trkpt>
      <trkpt lat="44.0774000" lon="7.5944460">
        <ele>871.8</ele>
        <time>2017-07-22T15:08:17Z</time>
      </trkpt>
      <trkpt lat="44.0772860" lon="7.5943650">
        <ele>873.0</ele>
        <time>2017-07-22T15:08:21Z</time>
      </trkpt>
      <trkpt lat="44.0772310" lon="7.5943210">
        <ele>873.8</ele>
        <time>2017-07-22T15:08:23Z</time>
      </trkpt>
      <trkpt lat="44.0772000" lon="7.5943110">
        <ele>874.2</ele>
        <time>2017-07-22T15:08:24Z</time>
      </trkpt>
      <trkpt lat="44.0771140" lon="7.5942660">
        <ele>875.4</ele>
        <time>2017-07-22T15:08:27Z</time>
      </trkpt>
      <trkpt lat="44.0770880" lon="7.5942560">
        <ele>876.0</ele>
        <time>2017-07-22T15:08:28Z</time>
      </trkpt>
      <trkpt lat="44.0770580" lon="7.5942440">
        <ele>876.8</ele>
        <time>2017-07-22T15:08:29Z</time>
      </trkpt>
      <trkpt lat="44.0769720" lon="7.5942260">
        <ele>878.2</ele>
        <time>2017-07-22T15:08:32Z</time>
      </trkpt>
      <trkpt lat="44.0768760" lon="7.5942390">
        <ele>879.6</ele>
        <time>2017-07-22T15:08:35Z</time>
      </trkpt>
      <trkpt lat="44.0767850" lon="7.5942480">
        <ele>880.8</ele>
        <time>2017-07-22T15:08:38Z</time>
      </trkpt>
      <trkpt lat="44.0766870" lon="7.5942490">
        <ele>882.0</ele>
        <time>2017-07-22T15:08:41Z</time>
      </trkpt>
      <trkpt lat="44.0766200" lon="7.5942450">
        <ele>882.8</ele>
        <time>2017-07-22T15:08:43Z</time>
      </trkpt>
      <trkpt lat="44.0765850" lon="7.5942420">
        <ele>883.2</ele>
        <time>2017-07-22T15:08:44Z</time>
      </trkpt>
      <trkpt lat="44.0764910" lon="7.5942270">
        <ele>884.2</ele>
        <time>2017-07-22T15:08:47Z</time>
      </trkpt>
      <trkpt lat="44.0764070" lon="7.5942060">
        <ele>885.2</ele>
        <time>2017-07-22T15:08:50Z</time>
      </trkpt>
      <trkpt lat="44.0763220" lon="7.5941880">
        <ele>886.8</ele>
        <time>2017-07-22T15:08:53Z</time>
      </trkpt>
      <trkpt lat="44.0762370" lon="7.5941790">
        <ele>888.0</ele>
        <time>2017-07-22T15:08:56Z</time>
      </trkpt>
      <trkpt lat="44.0762050" lon="7.5941830">
        <ele>888.4</ele>
        <time>2017-07-22T15:08:57Z</time>
      </trkpt>
      <trkpt lat="44.0761500" lon="7.5941920">
        <ele>889.2</ele>
        <time>2017-07-22T15:08:59Z</time>
      </trkpt>
      <trkpt lat="44.0760620" lon="7.5942190">
        <ele>890.2</ele>
        <time>2017-07-22T15:09:02Z</time>
      </trkpt>
      <trkpt lat="44.0759740" lon="7.5942490">
        <ele>891.4</ele>
        <time>2017-07-22T15:09:05Z</time>
      </trkpt>
      <trkpt lat="44.0758610" lon="7.5942980">
        <ele>892.4</ele>
        <time>2017-07-22T15:09:09Z</time>
      </trkpt>
      <trkpt lat="44.0757780" lon="7.5943340">
        <ele>893.4</ele>
        <time>2017-07-22T15:09:12Z</time>
      </trkpt>
      <trkpt lat="44.0756630" lon="7.5943700">
        <ele>894.8</ele>
        <time>2017-07-22T15:09:16Z</time>
      </trkpt>
      <trkpt lat="44.0755870" lon="7.5944010">
        <ele>896.0</ele>
        <time>2017-07-22T15:09:19Z</time>
      </trkpt>
      <trkpt lat="44.0755140" lon="7.5944320">
        <ele>897.2</ele>
        <time>2017-07-22T15:09:22Z</time>
      </trkpt>
      <trkpt lat="44.0754510" lon="7.5944560">
        <ele>898.2</ele>
        <time>2017-07-22T15:09:25Z</time>
      </trkpt>
      <trkpt lat="44.0754310" lon="7.5944550">
        <ele>898.4</ele>
        <time>2017-07-22T15:09:26Z</time>
      </trkpt>
      <trkpt lat="44.0754100" lon="7.5944380">
        <ele>898.8</ele>
        <time>2017-07-22T15:09:27Z</time>
      </trkpt>
      <trkpt lat="44.0754480" lon="7.5943840">
        <ele>899.6</ele>
        <time>2017-07-22T15:09:29Z</time>
      </trkpt>
      <trkpt lat="44.0755340" lon="7.5943340">
        <ele>900.8</ele>
        <time>2017-07-22T15:09:32Z</time>
      </trkpt>
      <trkpt lat="44.0755650" lon="7.5943120">
        <ele>901.2</ele>
        <time>2017-07-22T15:09:33Z</time>
      </trkpt>
      <trkpt lat="44.0755940" lon="7.5942880">
        <ele>901.6</ele>
        <time>2017-07-22T15:09:34Z</time>
      </trkpt>
      <trkpt lat="44.0756220" lon="7.5942670">
        <ele>902.0</ele>
        <time>2017-07-22T15:09:35Z</time>
      </trkpt>
      <trkpt lat="44.0757160" lon="7.5941610">
        <ele>903.0</ele>
        <time>2017-07-22T15:09:39Z</time>
      </trkpt>
      <trkpt lat="44.0757870" lon="7.5940860">
        <ele>904.2</ele>
        <time>2017-07-22T15:09:42Z</time>
      </trkpt>
      <trkpt lat="44.0758550" lon="7.5940130">
        <ele>905.2</ele>
        <time>2017-07-22T15:09:45Z</time>
      </trkpt>
      <trkpt lat="44.0759760" lon="7.5939040">
        <ele>906.4</ele>
        <time>2017-07-22T15:09:50Z</time>
      </trkpt>
      <trkpt lat="44.0760710" lon="7.5938400">
        <ele>907.6</ele>
        <time>2017-07-22T15:09:54Z</time>
      </trkpt>
      <trkpt lat="44.0761070" lon="7.5938050">
        <ele>908.0</ele>
        <time>2017-07-22T15:09:56Z</time>
      </trkpt>
      <trkpt lat="44.0760850" lon="7.5937790">
        <ele>908.4</ele>
        <time>2017-07-22T15:09:57Z</time>
      </trkpt>
      <trkpt lat="44.0760570" lon="7.5937760">
        <ele>908.6</ele>
        <time>2017-07-22T15:09:58Z</time>
      </trkpt>
      <trkpt lat="44.0760140" lon="7.5938120">
        <ele>909.2</ele>
        <time>2017-07-22T15:10:00Z</time>
      </trkpt>
      <trkpt lat="44.0759700" lon="7.5938420">
        <ele>909.8</ele>
        <time>2017-07-22T15:10:02Z</time>
      </trkpt>
      <trkpt lat="44.0759050" lon="7.5938810">
        <ele>910.6</ele>
        <time>2017-07-22T15:10:05Z</time>
      </trkpt>
      <trkpt lat="44.0758820" lon="7.5938920">
        <ele>911.2</ele>
        <time>2017-07-22T15:10:06Z</time>
      </trkpt>
      <trkpt lat="44.0757750" lon="7.5939400">
        <ele>912.2</ele>
        <time>2017-07-22T15:10:10Z</time>
      </trkpt>
      <trkpt lat="44.0756950" lon="7.5939850">
        <ele>913.0</ele>
        <time>2017-07-22T15:10:13Z</time>
      </trkpt>
      <trkpt lat="44.0756680" lon="7.5940000">
        <ele>913.4</ele>
        <time>2017-07-22T15:10:14Z</time>
      </trkpt>
      <trkpt lat="44.0755240" lon="7.5940700">
        <ele>914.6</ele>
        <time>2017-07-22T15:10:19Z</time>
      </trkpt>
      <trkpt lat="44.0754380" lon="7.5940950">
        <ele>915.2</ele>
        <time>2017-07-22T15:10:22Z</time>
      </trkpt>
      <trkpt lat="44.0753850" lon="7.5941100">
        <ele>915.8</ele>
        <time>2017-07-22T15:10:24Z</time>
      </trkpt>
      <trkpt lat="44.0752790" lon="7.5940790">
        <ele>916.6</ele>
        <time>2017-07-22T15:10:28Z</time>
      </trkpt>
      <trkpt lat="44.0752310" lon="7.5940490">
        <ele>917.0</ele>
        <time>2017-07-22T15:10:30Z</time>
      </trkpt>
      <trkpt lat="44.0751410" lon="7.5939750">
        <ele>917.8</ele>
        <time>2017-07-22T15:10:34Z</time>
      </trkpt>
      <trkpt lat="44.0751030" lon="7.5939220">
        <ele>918.2</ele>
        <time>2017-07-22T15:10:36Z</time>
      </trkpt>
      <trkpt lat="44.0750440" lon="7.5937390">
        <ele>919.6</ele>
        <time>2017-07-22T15:10:41Z</time>
      </trkpt>
      <trkpt lat="44.0750210" lon="7.5935840">
        <ele>920.8</ele>
        <time>2017-07-22T15:10:45Z</time>
      </trkpt>
      <trkpt lat="44.0749930" lon="7.5934390">
        <ele>922.2</ele>
        <time>2017-07-22T15:10:49Z</time>
      </trkpt>
      <trkpt lat="44.0749840" lon="7.5934060">
        <ele>922.6</ele>
        <time>2017-07-22T15:10:50Z</time>
      </trkpt>
      <trkpt lat="44.0749380" lon="7.5933210">
        <ele>923.6</ele>
        <time>2017-07-22T15:10:53Z</time>
      </trkpt>
      <trkpt lat="44.0749220" lon="7.5932540">
        <ele>924.8</ele>
        <time>2017-07-22T15:10:55Z</time>
      </trkpt>
      <trkpt lat="44.0749400" lon="7.5931860">
        <ele>925.4</ele>
        <time>2017-07-22T15:10:57Z</time>
      </trkpt>
      <trkpt lat="44.0749700" lon="7.5931840">
        <ele>925.8</ele>
        <time>2017-07-22T15:10:58Z</time>
      </trkpt>
      <trkpt lat="44.0750270" lon="7.5932700">
        <ele>926.8</ele>
        <time>2017-07-22T15:11:01Z</time>
      </trkpt>
      <trkpt lat="44.0750420" lon="7.5933070">
        <ele>927.2</ele>
        <time>2017-07-22T15:11:02Z</time>
      </trkpt>
      <trkpt lat="44.0750710" lon="7.5933850">
        <ele>928.0</ele>
        <time>2017-07-22T15:11:04Z</time>
      </trkpt>
      <trkpt lat="44.0751150" lon="7.5935020">
        <ele>929.0</ele>
        <time>2017-07-22T15:11:07Z</time>
      </trkpt>
      <trkpt lat="44.0751440" lon="7.5935760">
        <ele>929.6</ele>
        <time>2017-07-22T15:11:09Z</time>
      </trkpt>
      <trkpt lat="44.0751750" lon="7.5936470">
        <ele>930.2</ele>
        <time>2017-07-22T15:11:11Z</time>
      </trkpt>
      <trkpt lat="44.0752170" lon="7.5937260">
        <ele>931.2</ele>
        <time>2017-07-22T15:11:14Z</time>
      </trkpt>
      <trkpt lat="44.0752420" lon="7.5937230">
        <ele>931.6</ele>
        <time>2017-07-22T15:11:15Z</time>
      </trkpt>
      <trkpt lat="44.0752750" lon="7.5936700">
        <ele>932.4</ele>
        <time>2017-07-22T15:11:18Z</time>
      </trkpt>
      <trkpt lat="44.0752270" lon="7.5935480">
        <ele>933.4</ele>
        <time>2017-07-22T15:11:22Z</time>
      </trkpt>
      <trkpt lat="44.0752150" lon="7.5935130">
        <ele>933.8</ele>
        <time>2017-07-22T15:11:23Z</time>
      </trkpt>
      <trkpt lat="44.0751770" lon="7.5933650">
        <ele>934.8</ele>
        <time>2017-07-22T15:11:27Z</time>
      </trkpt>
      <trkpt lat="44.0751560" lon="7.5932440">
        <ele>935.6</ele>
        <time>2017-07-22T15:11:30Z</time>
      </trkpt>
      <trkpt lat="44.0751460" lon="7.5931660">
        <ele>936.0</ele>
        <time>2017-07-22T15:11:32Z</time>
      </trkpt>
      <trkpt lat="44.0751120" lon="7.5930020">
        <ele>937.2</ele>
        <time>2017-07-22T15:11:36Z</time>
      </trkpt>
      <trkpt lat="44.0750900" lon="7.5929230">
        <ele>937.4</ele>
        <time>2017-07-22T15:11:38Z</time>
      </trkpt>
      <trkpt lat="44.0750470" lon="7.5927830">
        <ele>938.4</ele>
        <time>2017-07-22T15:11:42Z</time>
      </trkpt>
      <trkpt lat="44.0749950" lon="7.5926020">
        <ele>939.4</ele>
        <time>2017-07-22T15:11:47Z</time>
      </trkpt>
      <trkpt lat="44.0749280" lon="7.5923740">
        <ele>940.6</ele>
        <time>2017-07-22T15:11:54Z</time>
      </trkpt>
      <trkpt lat="44.0749190" lon="7.5923390">
        <ele>940.8</ele>
        <time>2017-07-22T15:11:55Z</time>
      </trkpt>
      <trkpt lat="44.0748930" lon="7.5922360">
        <ele>941.8</ele>
        <time>2017-07-22T15:11:58Z</time>
      </trkpt>
      <trkpt lat="44.0748870" lon="7.5921620">
        <ele>942.2</ele>
        <time>2017-07-22T15:12:00Z</time>
      </trkpt>
      <trkpt lat="44.0748800" lon="7.5920480">
        <ele>942.8</ele>
        <time>2017-07-22T15:12:03Z</time>
      </trkpt>
      <trkpt lat="44.0748880" lon="7.5918620">
        <ele>944.0</ele>
        <time>2017-07-22T15:12:08Z</time>
      </trkpt>
      <trkpt lat="44.0748770" lon="7.5917110">
        <ele>944.8</ele>
        <time>2017-07-22T15:12:12Z</time>
      </trkpt>
      <trkpt lat="44.0748750" lon="7.5916760">
        <ele>945.0</ele>
        <time>2017-07-22T15:12:13Z</time>
      </trkpt>
      <trkpt lat="44.0748650" lon="7.5914960">
        <ele>946.0</ele>
        <time>2017-07-22T15:12:18Z</time>
      </trkpt>
      <trkpt lat="44.0748600" lon="7.5913860">
        <ele>946.8</ele>
        <time>2017-07-22T15:12:21Z</time>
      </trkpt>
      <trkpt lat="44.0748520" lon="7.5913120">
        <ele>947.2</ele>
        <time>2017-07-22T15:12:23Z</time>
      </trkpt>
      <trkpt lat="44.0748010" lon="7.5910890">
        <ele>948.2</ele>
        <time>2017-07-22T15:12:29Z</time>
      </trkpt>
      <trkpt lat="44.0747550" lon="7.5909980">
        <ele>949.4</ele>
        <time>2017-07-22T15:12:32Z</time>
      </trkpt>
      <trkpt lat="44.0746880" lon="7.5908880">
        <ele>950.6</ele>
        <time>2017-07-22T15:12:36Z</time>
      </trkpt>
      <trkpt lat="44.0746680" lon="7.5908630">
        <ele>950.6</ele>
        <time>2017-07-22T15:12:37Z</time>
      </trkpt>
      <trkpt lat="44.0746030" lon="7.5906710">
        <ele>951.6</ele>
        <time>2017-07-22T15:12:43Z</time>
      </trkpt>
      <trkpt lat="44.0746800" lon="7.5906580">
        <ele>952.0</ele>
        <time>2017-07-22T15:12:46Z</time>
      </trkpt>
      <trkpt lat="44.0747400" lon="7.5907480">
        <ele>952.4</ele>
        <time>2017-07-22T15:12:49Z</time>
      </trkpt>
      <trkpt lat="44.0747610" lon="7.5907770">
        <ele>952.8</ele>
        <time>2017-07-22T15:12:50Z</time>
      </trkpt>
      <trkpt lat="44.0748280" lon="7.5908990">
        <ele>954.6</ele>
        <time>2017-07-22T15:12:54Z</time>
      </trkpt>
      <trkpt lat="44.0748700" lon="7.5909200">
        <ele>955.0</ele>
        <time>2017-07-22T15:12:56Z</time>
      </trkpt>
      <trkpt lat="44.0748810" lon="7.5908790">
        <ele>955.2</ele>
        <time>2017-07-22T15:12:57Z</time>
      </trkpt>
      <trkpt lat="44.0748570" lon="7.5907710">
        <ele>955.8</ele>
        <time>2017-07-22T15:13:00Z</time>
      </trkpt>
      <trkpt lat="44.0747980" lon="7.5906610">
        <ele>956.6</ele>
        <time>2017-07-22T15:13:03Z</time>
      </trkpt>
      <trkpt lat="44.0747760" lon="7.5906250">
        <ele>956.8</ele>
        <time>2017-07-22T15:13:04Z</time>
      </trkpt>
      <trkpt lat="44.0747570" lon="7.5905900">
        <ele>957.0</ele>
        <time>2017-07-22T15:13:05Z</time>
      </trkpt>
      <trkpt lat="44.0746940" lon="7.5904530">
        <ele>958.2</ele>
        <time>2017-07-22T15:13:09Z</time>
      </trkpt>
      <trkpt lat="44.0746650" lon="7.5903870">
        <ele>959.0</ele>
        <time>2017-07-22T15:13:11Z</time>
      </trkpt>
      <trkpt lat="44.0746490" lon="7.5903530">
        <ele>959.4</ele>
        <time>2017-07-22T15:13:12Z</time>
      </trkpt>
      <trkpt lat="44.0745840" lon="7.5902170">
        <ele>960.6</ele>
        <time>2017-07-22T15:13:16Z</time>
      </trkpt>
      <trkpt lat="44.0745390" lon="7.5901210">
        <ele>961.8</ele>
        <time>2017-07-22T15:13:19Z</time>
      </trkpt>
      <trkpt lat="44.0744790" lon="7.5899910">
        <ele>963.0</ele>
        <time>2017-07-22T15:13:23Z</time>
      </trkpt>
      <trkpt lat="44.0744210" lon="7.5898630">
        <ele>964.2</ele>
        <time>2017-07-22T15:13:27Z</time>
      </trkpt>
      <trkpt lat="44.0743690" lon="7.5897430">
        <ele>965.4</ele>
        <time>2017-07-22T15:13:31Z</time>
      </trkpt>
      <trkpt lat="44.0743300" lon="7.5896430">
        <ele>966.6</ele>
        <time>2017-07-22T15:13:34Z</time>
      </trkpt>
      <trkpt lat="44.0742980" lon="7.5895430">
        <ele>967.6</ele>
        <time>2017-07-22T15:13:37Z</time>
      </trkpt>
      <trkpt lat="44.0742520" lon="7.5894140">
        <ele>968.8</ele>
        <time>2017-07-22T15:13:41Z</time>
      </trkpt>
      <trkpt lat="44.0742370" lon="7.5893510">
        <ele>969.8</ele>
        <time>2017-07-22T15:13:43Z</time>
      </trkpt>
      <trkpt lat="44.0742190" lon="7.5892020">
        <ele>971.0</ele>
        <time>2017-07-22T15:13:47Z</time>
      </trkpt>
      <trkpt lat="44.0742150" lon="7.5891630">
        <ele>971.4</ele>
        <time>2017-07-22T15:13:48Z</time>
      </trkpt>
      <trkpt lat="44.0742180" lon="7.5890520">
        <ele>972.4</ele>
        <time>2017-07-22T15:13:51Z</time>
      </trkpt>
      <trkpt lat="44.0742250" lon="7.5889220">
        <ele>973.8</ele>
        <time>2017-07-22T15:13:55Z</time>
      </trkpt>
      <trkpt lat="44.0742310" lon="7.5888440">
        <ele>974.4</ele>
        <time>2017-07-22T15:13:57Z</time>
      </trkpt>
      <trkpt lat="44.0742320" lon="7.5887720">
        <ele>974.8</ele>
        <time>2017-07-22T15:13:59Z</time>
      </trkpt>
      <trkpt lat="44.0742370" lon="7.5886000">
        <ele>975.8</ele>
        <time>2017-07-22T15:14:04Z</time>
      </trkpt>
      <trkpt lat="44.0742300" lon="7.5885350">
        <ele>976.4</ele>
        <time>2017-07-22T15:14:06Z</time>
      </trkpt>
      <trkpt lat="44.0742400" lon="7.5884590">
        <ele>976.8</ele>
        <time>2017-07-22T15:14:09Z</time>
      </trkpt>
      <trkpt lat="44.0742670" lon="7.5884660">
        <ele>977.0</ele>
        <time>2017-07-22T15:14:10Z</time>
      </trkpt>
      <trkpt lat="44.0742850" lon="7.5884940">
        <ele>977.0</ele>
        <time>2017-07-22T15:14:11Z</time>
      </trkpt>
      <trkpt lat="44.0742990" lon="7.5886230">
        <ele>977.4</ele>
        <time>2017-07-22T15:14:14Z</time>
      </trkpt>
      <trkpt lat="44.0743100" lon="7.5887040">
        <ele>977.8</ele>
        <time>2017-07-22T15:14:16Z</time>
      </trkpt>
      <trkpt lat="44.0743130" lon="7.5887410">
        <ele>978.0</ele>
        <time>2017-07-22T15:14:17Z</time>
      </trkpt>
      <trkpt lat="44.0743210" lon="7.5888610">
        <ele>979.0</ele>
        <time>2017-07-22T15:14:20Z</time>
      </trkpt>
      <trkpt lat="44.0743280" lon="7.5888950">
        <ele>979.2</ele>
        <time>2017-07-22T15:14:21Z</time>
      </trkpt>
      <trkpt lat="44.0743360" lon="7.5890370">
        <ele>980.6</ele>
        <time>2017-07-22T15:14:25Z</time>
      </trkpt>
      <trkpt lat="44.0743400" lon="7.5890760">
        <ele>980.8</ele>
        <time>2017-07-22T15:14:26Z</time>
      </trkpt>
      <trkpt lat="44.0743670" lon="7.5890960">
        <ele>981.0</ele>
        <time>2017-07-22T15:14:27Z</time>
      </trkpt>
      <trkpt lat="44.0744030" lon="7.5890610">
        <ele>981.4</ele>
        <time>2017-07-22T15:14:29Z</time>
      </trkpt>
      <trkpt lat="44.0744140" lon="7.5890330">
        <ele>982.0</ele>
        <time>2017-07-22T15:14:30Z</time>
      </trkpt>
      <trkpt lat="44.0744110" lon="7.5889580">
        <ele>982.6</ele>
        <time>2017-07-22T15:14:32Z</time>
      </trkpt>
      <trkpt lat="44.0744080" lon="7.5889210">
        <ele>983.0</ele>
        <time>2017-07-22T15:14:33Z</time>
      </trkpt>
      <trkpt lat="44.0744080" lon="7.5888840">
        <ele>983.2</ele>
        <time>2017-07-22T15:14:34Z</time>
      </trkpt>
      <trkpt lat="44.0743780" lon="7.5887400">
        <ele>984.6</ele>
        <time>2017-07-22T15:14:38Z</time>
      </trkpt>
      <trkpt lat="44.0743720" lon="7.5886750">
        <ele>985.2</ele>
        <time>2017-07-22T15:14:40Z</time>
      </trkpt>
      <trkpt lat="44.0743720" lon="7.5886370">
        <ele>985.6</ele>
        <time>2017-07-22T15:14:41Z</time>
      </trkpt>
      <trkpt lat="44.0743860" lon="7.5884370">
        <ele>986.8</ele>
        <time>2017-07-22T15:14:46Z</time>
      </trkpt>
      <trkpt lat="44.0744020" lon="7.5883190">
        <ele>987.6</ele>
        <time>2017-07-22T15:14:49Z</time>
      </trkpt>
      <trkpt lat="44.0744140" lon="7.5882470">
        <ele>988.0</ele>
        <time>2017-07-22T15:14:51Z</time>
      </trkpt>
      <trkpt lat="44.0744250" lon="7.5881530">
        <ele>989.0</ele>
        <time>2017-07-22T15:14:54Z</time>
      </trkpt>
      <trkpt lat="44.0744430" lon="7.5880580">
        <ele>989.8</ele>
        <time>2017-07-22T15:14:57Z</time>
      </trkpt>
      <trkpt lat="44.0744590" lon="7.5880430">
        <ele>990.2</ele>
        <time>2017-07-22T15:14:58Z</time>
      </trkpt>
      <trkpt lat="44.0744900" lon="7.5881030">
        <ele>990.8</ele>
        <time>2017-07-22T15:15:00Z</time>
      </trkpt>
      <trkpt lat="44.0744880" lon="7.5881770">
        <ele>991.4</ele>
        <time>2017-07-22T15:15:02Z</time>
      </trkpt>
      <trkpt lat="44.0744790" lon="7.5882520">
        <ele>992.0</ele>
        <time>2017-07-22T15:15:04Z</time>
      </trkpt>
      <trkpt lat="44.0744670" lon="7.5883640">
        <ele>992.6</ele>
        <time>2017-07-22T15:15:07Z</time>
      </trkpt>
      <trkpt lat="44.0744490" lon="7.5884970">
        <ele>993.6</ele>
        <time>2017-07-22T15:15:11Z</time>
      </trkpt>
      <trkpt lat="44.0744710" lon="7.5885570">
        <ele>994.2</ele>
        <time>2017-07-22T15:15:13Z</time>
      </trkpt>
      <trkpt lat="44.0745220" lon="7.5885210">
        <ele>994.6</ele>
        <time>2017-07-22T15:15:15Z</time>
      </trkpt>
      <trkpt lat="44.0745290" lon="7.5884810">
        <ele>994.8</ele>
        <time>2017-07-22T15:15:16Z</time>
      </trkpt>
      <trkpt lat="44.0745400" lon="7.5883720">
        <ele>995.8</ele>
        <time>2017-07-22T15:15:19Z</time>
      </trkpt>
      <trkpt lat="44.0745430" lon="7.5883320">
        <ele>996.2</ele>
        <time>2017-07-22T15:15:20Z</time>
      </trkpt>
      <trkpt lat="44.0745610" lon="7.5882260">
        <ele>997.0</ele>
        <time>2017-07-22T15:15:23Z</time>
      </trkpt>
      <trkpt lat="44.0745740" lon="7.5880870">
        <ele>997.8</ele>
        <time>2017-07-22T15:15:27Z</time>
      </trkpt>
      <trkpt lat="44.0745750" lon="7.5880550">
        <ele>998.0</ele>
        <time>2017-07-22T15:15:28Z</time>
      </trkpt>
      <trkpt lat="44.0745790" lon="7.5878710">
        <ele>999.2</ele>
        <time>2017-07-22T15:15:33Z</time>
      </trkpt>
      <trkpt lat="44.0745760" lon="7.5878000">
        <ele>999.6</ele>
        <time>2017-07-22T15:15:35Z</time>
      </trkpt>
      <trkpt lat="44.0745960" lon="7.5876580">
        <ele>1000.2</ele>
        <time>2017-07-22T15:15:39Z</time>
      </trkpt>
      <trkpt lat="44.0746450" lon="7.5875770">
        <ele>1000.8</ele>
        <time>2017-07-22T15:15:42Z</time>
      </trkpt>
      <trkpt lat="44.0746910" lon="7.5875310">
        <ele>1001.2</ele>
        <time>2017-07-22T15:15:44Z</time>
      </trkpt>
      <trkpt lat="44.0747480" lon="7.5874600">
        <ele>1001.8</ele>
        <time>2017-07-22T15:15:47Z</time>
      </trkpt>
      <trkpt lat="44.0748140" lon="7.5874050">
        <ele>1002.2</ele>
        <time>2017-07-22T15:15:50Z</time>
      </trkpt>
      <trkpt lat="44.0748850" lon="7.5873040">
        <ele>1003.4</ele>
        <time>2017-07-22T15:15:54Z</time>
      </trkpt>
      <trkpt lat="44.0749170" lon="7.5872480">
        <ele>1003.8</ele>
        <time>2017-07-22T15:15:56Z</time>
      </trkpt>
      <trkpt lat="44.0749620" lon="7.5871560">
        <ele>1004.6</ele>
        <time>2017-07-22T15:15:59Z</time>
      </trkpt>
      <trkpt lat="44.0749940" lon="7.5870270">
        <ele>1005.6</ele>
        <time>2017-07-22T15:16:03Z</time>
      </trkpt>
      <trkpt lat="44.0750240" lon="7.5869310">
        <ele>1006.8</ele>
        <time>2017-07-22T15:16:06Z</time>
      </trkpt>
      <trkpt lat="44.0750590" lon="7.5867830">
        <ele>1007.8</ele>
        <time>2017-07-22T15:16:10Z</time>
      </trkpt>
      <trkpt lat="44.0750640" lon="7.5865890">
        <ele>1009.0</ele>
        <time>2017-07-22T15:16:15Z</time>
      </trkpt>
      <trkpt lat="44.0750520" lon="7.5865460">
        <ele>1009.2</ele>
        <time>2017-07-22T15:16:16Z</time>
      </trkpt>
      <trkpt lat="44.0749850" lon="7.5863850">
        <ele>1010.0</ele>
        <time>2017-07-22T15:16:20Z</time>
      </trkpt>
      <trkpt lat="44.0749280" lon="7.5862700">
        <ele>1010.6</ele>
        <time>2017-07-22T15:16:23Z</time>
      </trkpt>
      <trkpt lat="44.0748920" lon="7.5861950">
        <ele>1011.0</ele>
        <time>2017-07-22T15:16:25Z</time>
      </trkpt>
      <trkpt lat="44.0748190" lon="7.5860110">
        <ele>1012.4</ele>
        <time>2017-07-22T15:16:30Z</time>
      </trkpt>
      <trkpt lat="44.0747930" lon="7.5859290">
        <ele>1013.0</ele>
        <time>2017-07-22T15:16:32Z</time>
      </trkpt>
      <trkpt lat="44.0747670" lon="7.5858090">
        <ele>1013.6</ele>
        <time>2017-07-22T15:16:35Z</time>
      </trkpt>
      <trkpt lat="44.0747400" lon="7.5856490">
        <ele>1014.6</ele>
        <time>2017-07-22T15:16:39Z</time>
      </trkpt>
      <trkpt lat="44.0747300" lon="7.5855770">
        <ele>1015.0</ele>
        <time>2017-07-22T15:16:41Z</time>
      </trkpt>
      <trkpt lat="44.0747110" lon="7.5854650">
        <ele>1016.0</ele>
        <time>2017-07-22T15:16:44Z</time>
      </trkpt>
      <trkpt lat="44.0746960" lon="7.5853700">
        <ele>1017.0</ele>
        <time>2017-07-22T15:16:47Z</time>
      </trkpt>
      <trkpt lat="44.0746960" lon="7.5853070">
        <ele>1017.8</ele>
        <time>2017-07-22T15:16:49Z</time>
      </trkpt>
      <trkpt lat="44.0747070" lon="7.5852790">
        <ele>1018.2</ele>
        <time>2017-07-22T15:16:50Z</time>
      </trkpt>
      <trkpt lat="44.0747330" lon="7.5852690">
        <ele>1018.4</ele>
        <time>2017-07-22T15:16:51Z</time>
      </trkpt>
      <trkpt lat="44.0747510" lon="7.5852820">
        <ele>1018.8</ele>
        <time>2017-07-22T15:16:52Z</time>
      </trkpt>
      <trkpt lat="44.0747820" lon="7.5853310">
        <ele>1020.0</ele>
        <time>2017-07-22T15:16:54Z</time>
      </trkpt>
      <trkpt lat="44.0748090" lon="7.5854000">
        <ele>1020.8</ele>
        <time>2017-07-22T15:16:56Z</time>
      </trkpt>
      <trkpt lat="44.0748200" lon="7.5854330">
        <ele>1021.2</ele>
        <time>2017-07-22T15:16:57Z</time>
      </trkpt>
      <trkpt lat="44.0748480" lon="7.5855380">
        <ele>1022.4</ele>
        <time>2017-07-22T15:17:00Z</time>
      </trkpt>
      <trkpt lat="44.0748670" lon="7.5856840">
        <ele>1023.8</ele>
        <time>2017-07-22T15:17:04Z</time>
      </trkpt>
      <trkpt lat="44.0749240" lon="7.5858000">
        <ele>1024.8</ele>
        <time>2017-07-22T15:17:08Z</time>
      </trkpt>
      <trkpt lat="44.0749330" lon="7.5857710">
        <ele>1025.0</ele>
        <time>2017-07-22T15:17:09Z</time>
      </trkpt>
      <trkpt lat="44.0749260" lon="7.5856400">
        <ele>1026.2</ele>
        <time>2017-07-22T15:17:14Z</time>
      </trkpt>
      <trkpt lat="44.0749260" lon="7.5856060">
        <ele>1026.6</ele>
        <time>2017-07-22T15:17:15Z</time>
      </trkpt>
      <trkpt lat="44.0749190" lon="7.5854840">
        <ele>1027.6</ele>
        <time>2017-07-22T15:17:18Z</time>
      </trkpt>
      <trkpt lat="44.0748920" lon="7.5853410">
        <ele>1028.6</ele>
        <time>2017-07-22T15:17:22Z</time>
      </trkpt>
      <trkpt lat="44.0748900" lon="7.5853070">
        <ele>1029.0</ele>
        <time>2017-07-22T15:17:23Z</time>
      </trkpt>
      <trkpt lat="44.0748930" lon="7.5851640">
        <ele>1029.8</ele>
        <time>2017-07-22T15:17:27Z</time>
      </trkpt>
      <trkpt lat="44.0748910" lon="7.5850270">
        <ele>1030.6</ele>
        <time>2017-07-22T15:17:31Z</time>
      </trkpt>
      <trkpt lat="44.0749000" lon="7.5849900">
        <ele>1030.8</ele>
        <time>2017-07-22T15:17:32Z</time>
      </trkpt>
      <trkpt lat="44.0749150" lon="7.5848070">
        <ele>1031.8</ele>
        <time>2017-07-22T15:17:37Z</time>
      </trkpt>
      <trkpt lat="44.0749140" lon="7.5847730">
        <ele>1032.0</ele>
        <time>2017-07-22T15:17:38Z</time>
      </trkpt>
      <trkpt lat="44.0749220" lon="7.5846300">
        <ele>1033.0</ele>
        <time>2017-07-22T15:17:42Z</time>
      </trkpt>
      <trkpt lat="44.0749260" lon="7.5844790">
        <ele>1033.2</ele>
        <time>2017-07-22T15:17:46Z</time>
      </trkpt>
      <trkpt lat="44.0749400" lon="7.5844120">
        <ele>1033.6</ele>
        <time>2017-07-22T15:17:48Z</time>
      </trkpt>
      <trkpt lat="44.0749670" lon="7.5843970">
        <ele>1034.0</ele>
        <time>2017-07-22T15:17:50Z</time>
      </trkpt>
      <trkpt lat="44.0749770" lon="7.5844140">
        <ele>1034.2</ele>
        <time>2017-07-22T15:17:51Z</time>
      </trkpt>
      <trkpt lat="44.0749920" lon="7.5844820">
        <ele>1034.6</ele>
        <time>2017-07-22T15:17:53Z</time>
      </trkpt>
      <trkpt lat="44.0749970" lon="7.5845530">
        <ele>1035.2</ele>
        <time>2017-07-22T15:17:55Z</time>
      </trkpt>
      <trkpt lat="44.0749910" lon="7.5846950">
        <ele>1036.4</ele>
        <time>2017-07-22T15:17:59Z</time>
      </trkpt>
      <trkpt lat="44.0749900" lon="7.5847670">
        <ele>1037.4</ele>
        <time>2017-07-22T15:18:01Z</time>
      </trkpt>
      <trkpt lat="44.0749890" lon="7.5848120">
        <ele>1037.6</ele>
        <time>2017-07-22T15:18:02Z</time>
      </trkpt>
      <trkpt lat="44.0749890" lon="7.5849310">
        <ele>1038.8</ele>
        <time>2017-07-22T15:18:05Z</time>
      </trkpt>
      <trkpt lat="44.0749860" lon="7.5850430">
        <ele>1040.0</ele>
        <time>2017-07-22T15:18:08Z</time>
      </trkpt>
      <trkpt lat="44.0749860" lon="7.5850770">
        <ele>1040.2</ele>
        <time>2017-07-22T15:18:09Z</time>
      </trkpt>
      <trkpt lat="44.0749920" lon="7.5851060">
        <ele>1040.2</ele>
        <time>2017-07-22T15:18:10Z</time>
      </trkpt>
      <trkpt lat="44.0750310" lon="7.5851320">
        <ele>1040.8</ele>
        <time>2017-07-22T15:18:12Z</time>
      </trkpt>
      <trkpt lat="44.0750650" lon="7.5850880">
        <ele>1041.2</ele>
        <time>2017-07-22T15:18:14Z</time>
      </trkpt>
      <trkpt lat="44.0750730" lon="7.5850510">
        <ele>1041.4</ele>
        <time>2017-07-22T15:18:15Z</time>
      </trkpt>
      <trkpt lat="44.0750780" lon="7.5849670">
        <ele>1042.2</ele>
        <time>2017-07-22T15:18:17Z</time>
      </trkpt>
      <trkpt lat="44.0750780" lon="7.5849240">
        <ele>1042.4</ele>
        <time>2017-07-22T15:18:18Z</time>
      </trkpt>
      <trkpt lat="44.0750830" lon="7.5848080">
        <ele>1043.2</ele>
        <time>2017-07-22T15:18:21Z</time>
      </trkpt>
      <trkpt lat="44.0750840" lon="7.5847680">
        <ele>1043.6</ele>
        <time>2017-07-22T15:18:22Z</time>
      </trkpt>
      <trkpt lat="44.0750960" lon="7.5846230">
        <ele>1044.8</ele>
        <time>2017-07-22T15:18:26Z</time>
      </trkpt>
      <trkpt lat="44.0751050" lon="7.5845540">
        <ele>1045.2</ele>
        <time>2017-07-22T15:18:28Z</time>
      </trkpt>
      <trkpt lat="44.0751090" lon="7.5844850">
        <ele>1045.8</ele>
        <time>2017-07-22T15:18:30Z</time>
      </trkpt>
      <trkpt lat="44.0751140" lon="7.5842990">
        <ele>1047.0</ele>
        <time>2017-07-22T15:18:35Z</time>
      </trkpt>
      <trkpt lat="44.0751190" lon="7.5841860">
        <ele>1047.8</ele>
        <time>2017-07-22T15:18:38Z</time>
      </trkpt>
      <trkpt lat="44.0751230" lon="7.5841490">
        <ele>1048.0</ele>
        <time>2017-07-22T15:18:39Z</time>
      </trkpt>
      <trkpt lat="44.0751100" lon="7.5839120">
        <ele>1049.2</ele>
        <time>2017-07-22T15:18:45Z</time>
      </trkpt>
      <trkpt lat="44.0750950" lon="7.5838750">
        <ele>1049.2</ele>
        <time>2017-07-22T15:18:46Z</time>
      </trkpt>
      <trkpt lat="44.0749460" lon="7.5837030">
        <ele>1050.0</ele>
        <time>2017-07-22T15:18:52Z</time>
      </trkpt>
      <trkpt lat="44.0749240" lon="7.5836780">
        <ele>1050.2</ele>
        <time>2017-07-22T15:18:53Z</time>
      </trkpt>
      <trkpt lat="44.0748490" lon="7.5834980">
        <ele>1051.4</ele>
        <time>2017-07-22T15:18:58Z</time>
      </trkpt>
      <trkpt lat="44.0748290" lon="7.5833370">
        <ele>1052.6</ele>
        <time>2017-07-22T15:19:02Z</time>
      </trkpt>
      <trkpt lat="44.0747830" lon="7.5831820">
        <ele>1053.8</ele>
        <time>2017-07-22T15:19:06Z</time>
      </trkpt>
      <trkpt lat="44.0747460" lon="7.5831220">
        <ele>1054.4</ele>
        <time>2017-07-22T15:19:08Z</time>
      </trkpt>
      <trkpt lat="44.0747230" lon="7.5831090">
        <ele>1054.8</ele>
        <time>2017-07-22T15:19:09Z</time>
      </trkpt>
      <trkpt lat="44.0746980" lon="7.5831020">
        <ele>1055.4</ele>
        <time>2017-07-22T15:19:10Z</time>
      </trkpt>
      <trkpt lat="44.0746430" lon="7.5831120">
        <ele>1056.2</ele>
        <time>2017-07-22T15:19:12Z</time>
      </trkpt>
      <trkpt lat="44.0746130" lon="7.5831260">
        <ele>1056.4</ele>
        <time>2017-07-22T15:19:13Z</time>
      </trkpt>
      <trkpt lat="44.0745530" lon="7.5831460">
        <ele>1057.0</ele>
        <time>2017-07-22T15:19:15Z</time>
      </trkpt>
      <trkpt lat="44.0745210" lon="7.5831620">
        <ele>1057.4</ele>
        <time>2017-07-22T15:19:16Z</time>
      </trkpt>
      <trkpt lat="44.0744550" lon="7.5831760">
        <ele>1058.6</ele>
        <time>2017-07-22T15:19:18Z</time>
      </trkpt>
      <trkpt lat="44.0743860" lon="7.5831690">
        <ele>1059.4</ele>
        <time>2017-07-22T15:19:20Z</time>
      </trkpt>
      <trkpt lat="44.0743530" lon="7.5831650">
        <ele>1059.6</ele>
        <time>2017-07-22T15:19:21Z</time>
      </trkpt>
      <trkpt lat="44.0742290" lon="7.5831380">
        <ele>1060.8</ele>
        <time>2017-07-22T15:19:25Z</time>
      </trkpt>
      <trkpt lat="44.0741770" lon="7.5831090">
        <ele>1061.4</ele>
        <time>2017-07-22T15:19:27Z</time>
      </trkpt>
      <trkpt lat="44.0741260" lon="7.5830820">
        <ele>1062.0</ele>
        <time>2017-07-22T15:19:29Z</time>
      </trkpt>
      <trkpt lat="44.0739890" lon="7.5830160">
        <ele>1063.2</ele>
        <time>2017-07-22T15:19:34Z</time>
      </trkpt>
      <trkpt lat="44.0739360" lon="7.5829910">
        <ele>1063.8</ele>
        <time>2017-07-22T15:19:36Z</time>
      </trkpt>
      <trkpt lat="44.0738820" lon="7.5829570">
        <ele>1064.4</ele>
        <time>2017-07-22T15:19:38Z</time>
      </trkpt>
      <trkpt lat="44.0737790" lon="7.5828900">
        <ele>1066.0</ele>
        <time>2017-07-22T15:19:42Z</time>
      </trkpt>
      <trkpt lat="44.0737030" lon="7.5828490">
        <ele>1067.0</ele>
        <time>2017-07-22T15:19:45Z</time>
      </trkpt>
      <trkpt lat="44.0736060" lon="7.5828200">
        <ele>1068.2</ele>
        <time>2017-07-22T15:19:49Z</time>
      </trkpt>
      <trkpt lat="44.0735710" lon="7.5827870">
        <ele>1068.8</ele>
        <time>2017-07-22T15:19:51Z</time>
      </trkpt>
      <trkpt lat="44.0735700" lon="7.5827200">
        <ele>1069.2</ele>
        <time>2017-07-22T15:19:53Z</time>
      </trkpt>
      <trkpt lat="44.0736330" lon="7.5826990">
        <ele>1070.4</ele>
        <time>2017-07-22T15:19:57Z</time>
      </trkpt>
      <trkpt lat="44.0737110" lon="7.5827190">
        <ele>1071.4</ele>
        <time>2017-07-22T15:20:00Z</time>
      </trkpt>
      <trkpt lat="44.0737420" lon="7.5827250">
        <ele>1071.6</ele>
        <time>2017-07-22T15:20:01Z</time>
      </trkpt>
      <trkpt lat="44.0738090" lon="7.5827340">
        <ele>1072.0</ele>
        <time>2017-07-22T15:20:03Z</time>
      </trkpt>
      <trkpt lat="44.0738770" lon="7.5827570">
        <ele>1072.6</ele>
        <time>2017-07-22T15:20:05Z</time>
      </trkpt>
      <trkpt lat="44.0739730" lon="7.5827850">
        <ele>1073.6</ele>
        <time>2017-07-22T15:20:08Z</time>
      </trkpt>
      <trkpt lat="44.0740030" lon="7.5827960">
        <ele>1074.0</ele>
        <time>2017-07-22T15:20:09Z</time>
      </trkpt>
      <trkpt lat="44.0740950" lon="7.5828220">
        <ele>1074.8</ele>
        <time>2017-07-22T15:20:12Z</time>
      </trkpt>
      <trkpt lat="44.0742080" lon="7.5828290">
        <ele>1075.6</ele>
        <time>2017-07-22T15:20:16Z</time>
      </trkpt>
      <trkpt lat="44.0742370" lon="7.5828310">
        <ele>1075.8</ele>
        <time>2017-07-22T15:20:17Z</time>
      </trkpt>
      <trkpt lat="44.0743410" lon="7.5828350">
        <ele>1077.0</ele>
        <time>2017-07-22T15:20:21Z</time>
      </trkpt>
      <trkpt lat="44.0744330" lon="7.5828210">
        <ele>1078.0</ele>
        <time>2017-07-22T15:20:25Z</time>
      </trkpt>
      <trkpt lat="44.0744560" lon="7.5828140">
        <ele>1078.2</ele>
        <time>2017-07-22T15:20:26Z</time>
      </trkpt>
      <trkpt lat="44.0745580" lon="7.5827890">
        <ele>1079.4</ele>
        <time>2017-07-22T15:20:30Z</time>
      </trkpt>
      <trkpt lat="44.0746110" lon="7.5827680">
        <ele>1079.8</ele>
        <time>2017-07-22T15:20:32Z</time>
      </trkpt>
      <trkpt lat="44.0746240" lon="7.5827420">
        <ele>1080.0</ele>
        <time>2017-07-22T15:20:33Z</time>
      </trkpt>
      <trkpt lat="44.0746150" lon="7.5826920">
        <ele>1080.6</ele>
        <time>2017-07-22T15:20:35Z</time>
      </trkpt>
      <trkpt lat="44.0745490" lon="7.5826860">
        <ele>1081.4</ele>
        <time>2017-07-22T15:20:38Z</time>
      </trkpt>
      <trkpt lat="44.0745200" lon="7.5826940">
        <ele>1081.8</ele>
        <time>2017-07-22T15:20:39Z</time>
      </trkpt>
      <trkpt lat="44.0743780" lon="7.5826980">
        <ele>1083.0</ele>
        <time>2017-07-22T15:20:44Z</time>
      </trkpt>
      <trkpt lat="44.0743180" lon="7.5826890">
        <ele>1083.6</ele>
        <time>2017-07-22T15:20:46Z</time>
      </trkpt>
      <trkpt lat="44.0742620" lon="7.5826620">
        <ele>1084.2</ele>
        <time>2017-07-22T15:20:48Z</time>
      </trkpt>
      <trkpt lat="44.0741230" lon="7.5825880">
        <ele>1085.4</ele>
        <time>2017-07-22T15:20:53Z</time>
      </trkpt>
      <trkpt lat="44.0740190" lon="7.5825250">
        <ele>1086.4</ele>
        <time>2017-07-22T15:20:57Z</time>
      </trkpt>
      <trkpt lat="44.0739290" lon="7.5824710">
        <ele>1087.6</ele>
        <time>2017-07-22T15:21:01Z</time>
      </trkpt>
      <trkpt lat="44.0738430" lon="7.5824270">
        <ele>1088.8</ele>
        <time>2017-07-22T15:21:05Z</time>
      </trkpt>
      <trkpt lat="44.0737670" lon="7.5823930">
        <ele>1089.8</ele>
        <time>2017-07-22T15:21:08Z</time>
      </trkpt>
      <trkpt lat="44.0737390" lon="7.5823780">
        <ele>1090.0</ele>
        <time>2017-07-22T15:21:09Z</time>
      </trkpt>
      <trkpt lat="44.0736300" lon="7.5823480">
        <ele>1091.2</ele>
        <time>2017-07-22T15:21:13Z</time>
      </trkpt>
      <trkpt lat="44.0735230" lon="7.5823190">
        <ele>1092.2</ele>
        <time>2017-07-22T15:21:17Z</time>
      </trkpt>
      <trkpt lat="44.0734940" lon="7.5823060">
        <ele>1092.8</ele>
        <time>2017-07-22T15:21:18Z</time>
      </trkpt>
      <trkpt lat="44.0733810" lon="7.5822540">
        <ele>1094.0</ele>
        <time>2017-07-22T15:21:22Z</time>
      </trkpt>
      <trkpt lat="44.0733270" lon="7.5822250">
        <ele>1094.4</ele>
        <time>2017-07-22T15:21:24Z</time>
      </trkpt>
      <trkpt lat="44.0732740" lon="7.5821860">
        <ele>1095.0</ele>
        <time>2017-07-22T15:21:26Z</time>
      </trkpt>
      <trkpt lat="44.0731310" lon="7.5821360">
        <ele>1096.0</ele>
        <time>2017-07-22T15:21:30Z</time>
      </trkpt>
      <trkpt lat="44.0730870" lon="7.5821420">
        <ele>1096.2</ele>
        <time>2017-07-22T15:21:31Z</time>
      </trkpt>
      <trkpt lat="44.0729580" lon="7.5821950">
        <ele>1096.8</ele>
        <time>2017-07-22T15:21:34Z</time>
      </trkpt>
      <trkpt lat="44.0728530" lon="7.5822420">
        <ele>1097.4</ele>
        <time>2017-07-22T15:21:36Z</time>
      </trkpt>
      <trkpt lat="44.0726710" lon="7.5822980">
        <ele>1098.0</ele>
        <time>2017-07-22T15:21:39Z</time>
      </trkpt>
      <trkpt lat="44.0725420" lon="7.5823340">
        <ele>1098.4</ele>
        <time>2017-07-22T15:21:41Z</time>
      </trkpt>
      <trkpt lat="44.0723440" lon="7.5823640">
        <ele>1095.0</ele>
        <time>2017-07-22T15:21:44Z</time>
      </trkpt>
      <trkpt lat="44.0722790" lon="7.5823640">
        <ele>1094.6</ele>
        <time>2017-07-22T15:21:45Z</time>
      </trkpt>
      <trkpt lat="44.0722150" lon="7.5823630">
        <ele>1093.8</ele>
        <time>2017-07-22T15:21:46Z</time>
      </trkpt>
      <trkpt lat="44.0721520" lon="7.5823530">
        <ele>1097.8</ele>
        <time>2017-07-22T15:21:47Z</time>
      </trkpt>
      <trkpt lat="44.0720330" lon="7.5823090">
        <ele>1098.2</ele>
        <time>2017-07-22T15:21:49Z</time>
      </trkpt>
      <trkpt lat="44.0719240" lon="7.5822410">
        <ele>1098.2</ele>
        <time>2017-07-22T15:21:51Z</time>
      </trkpt>
      <trkpt lat="44.0717760" lon="7.5821220">
        <ele>1098.4</ele>
        <time>2017-07-22T15:21:54Z</time>
      </trkpt>
      <trkpt lat="44.0716330" lon="7.5820070">
        <ele>1098.8</ele>
        <time>2017-07-22T15:21:57Z</time>
      </trkpt>
      <trkpt lat="44.0714430" lon="7.5818690">
        <ele>1100.0</ele>
        <time>2017-07-22T15:22:01Z</time>
      </trkpt>
      <trkpt lat="44.0713070" lon="7.5817700">
        <ele>1101.0</ele>
        <time>2017-07-22T15:22:04Z</time>
      </trkpt>
      <trkpt lat="44.0712240" lon="7.5816960">
        <ele>1102.0</ele>
        <time>2017-07-22T15:22:06Z</time>
      </trkpt>
      <trkpt lat="44.0711500" lon="7.5816160">
        <ele>1102.8</ele>
        <time>2017-07-22T15:22:08Z</time>
      </trkpt>
      <trkpt lat="44.0710780" lon="7.5815290">
        <ele>1103.2</ele>
        <time>2017-07-22T15:22:10Z</time>
      </trkpt>
      <trkpt lat="44.0709480" lon="7.5813620">
        <ele>1104.4</ele>
        <time>2017-07-22T15:22:14Z</time>
      </trkpt>
      <trkpt lat="44.0709170" lon="7.5813240">
        <ele>1104.8</ele>
        <time>2017-07-22T15:22:15Z</time>
      </trkpt>
      <trkpt lat="44.0708850" lon="7.5812820">
        <ele>1105.0</ele>
        <time>2017-07-22T15:22:16Z</time>
      </trkpt>
      <trkpt lat="44.0708280" lon="7.5811940">
        <ele>1105.4</ele>
        <time>2017-07-22T15:22:18Z</time>
      </trkpt>
      <trkpt lat="44.0707870" lon="7.5810950">
        <ele>1106.0</ele>
        <time>2017-07-22T15:22:20Z</time>
      </trkpt>
      <trkpt lat="44.0707440" lon="7.5808790">
        <ele>1106.4</ele>
        <time>2017-07-22T15:22:24Z</time>
      </trkpt>
      <trkpt lat="44.0707380" lon="7.5808320">
        <ele>1106.6</ele>
        <time>2017-07-22T15:22:25Z</time>
      </trkpt>
      <trkpt lat="44.0707020" lon="7.5805880">
        <ele>1108.0</ele>
        <time>2017-07-22T15:22:30Z</time>
      </trkpt>
      <trkpt lat="44.0706830" lon="7.5804540">
        <ele>1108.6</ele>
        <time>2017-07-22T15:22:33Z</time>
      </trkpt>
      <trkpt lat="44.0706650" lon="7.5803120">
        <ele>1109.2</ele>
        <time>2017-07-22T15:22:36Z</time>
      </trkpt>
      <trkpt lat="44.0706350" lon="7.5801270">
        <ele>1110.0</ele>
        <time>2017-07-22T15:22:40Z</time>
      </trkpt>
      <trkpt lat="44.0706290" lon="7.5800810">
        <ele>1110.2</ele>
        <time>2017-07-22T15:22:41Z</time>
      </trkpt>
      <trkpt lat="44.0705980" lon="7.5798490">
        <ele>1111.2</ele>
        <time>2017-07-22T15:22:46Z</time>
      </trkpt>
      <trkpt lat="44.0705890" lon="7.5797530">
        <ele>1111.8</ele>
        <time>2017-07-22T15:22:48Z</time>
      </trkpt>
      <trkpt lat="44.0705830" lon="7.5796530">
        <ele>1112.2</ele>
        <time>2017-07-22T15:22:50Z</time>
      </trkpt>
      <trkpt lat="44.0705670" lon="7.5794600">
        <ele>1113.4</ele>
        <time>2017-07-22T15:22:54Z</time>
      </trkpt>
      <trkpt lat="44.0705640" lon="7.5794060">
        <ele>1113.6</ele>
        <time>2017-07-22T15:22:55Z</time>
      </trkpt>
      <trkpt lat="44.0705280" lon="7.5790260">
        <ele>1114.6</ele>
        <time>2017-07-22T15:23:01Z</time>
      </trkpt>
      <trkpt lat="44.0705200" lon="7.5789570">
        <ele>1114.8</ele>
        <time>2017-07-22T15:23:02Z</time>
      </trkpt>
      <trkpt lat="44.0704800" lon="7.5785910">
        <ele>1115.2</ele>
        <time>2017-07-22T15:23:07Z</time>
      </trkpt>
      <trkpt lat="44.0704820" lon="7.5785130">
        <ele>1115.4</ele>
        <time>2017-07-22T15:23:08Z</time>
      </trkpt>
      <trkpt lat="44.0704990" lon="7.5783560">
        <ele>1115.6</ele>
        <time>2017-07-22T15:23:10Z</time>
      </trkpt>
      <trkpt lat="44.0705610" lon="7.5779910">
        <ele>1115.6</ele>
        <time>2017-07-22T15:23:15Z</time>
      </trkpt>
      <trkpt lat="44.0706610" lon="7.5777330">
        <ele>1116.2</ele>
        <time>2017-07-22T15:23:19Z</time>
      </trkpt>
      <trkpt lat="44.0707350" lon="7.5776200">
        <ele>1116.4</ele>
        <time>2017-07-22T15:23:21Z</time>
      </trkpt>
      <trkpt lat="44.0708970" lon="7.5774100">
        <ele>1116.8</ele>
        <time>2017-07-22T15:23:25Z</time>
      </trkpt>
      <trkpt lat="44.0709840" lon="7.5773230">
        <ele>1117.0</ele>
        <time>2017-07-22T15:23:27Z</time>
      </trkpt>
      <trkpt lat="44.0710310" lon="7.5772930">
        <ele>1117.0</ele>
        <time>2017-07-22T15:23:28Z</time>
      </trkpt>
      <trkpt lat="44.0712780" lon="7.5772520">
        <ele>1117.2</ele>
        <time>2017-07-22T15:23:33Z</time>
      </trkpt>
      <trkpt lat="44.0713270" lon="7.5772540">
        <ele>1117.4</ele>
        <time>2017-07-22T15:23:34Z</time>
      </trkpt>
      <trkpt lat="44.0713760" lon="7.5772500">
        <ele>1117.4</ele>
        <time>2017-07-22T15:23:35Z</time>
      </trkpt>
      <trkpt lat="44.0714770" lon="7.5772370">
        <ele>1118.0</ele>
        <time>2017-07-22T15:23:37Z</time>
      </trkpt>
      <trkpt lat="44.0715270" lon="7.5772280">
        <ele>1118.4</ele>
        <time>2017-07-22T15:23:38Z</time>
      </trkpt>
      <trkpt lat="44.0716640" lon="7.5771340">
        <ele>1119.2</ele>
        <time>2017-07-22T15:23:41Z</time>
      </trkpt>
      <trkpt lat="44.0717050" lon="7.5770790">
        <ele>1119.6</ele>
        <time>2017-07-22T15:23:42Z</time>
      </trkpt>
      <trkpt lat="44.0717370" lon="7.5770190">
        <ele>1120.2</ele>
        <time>2017-07-22T15:23:43Z</time>
      </trkpt>
      <trkpt lat="44.0717850" lon="7.5768920">
        <ele>1121.2</ele>
        <time>2017-07-22T15:23:45Z</time>
      </trkpt>
      <trkpt lat="44.0718110" lon="7.5768300">
        <ele>1121.6</ele>
        <time>2017-07-22T15:23:46Z</time>
      </trkpt>
      <trkpt lat="44.0718660" lon="7.5766460">
        <ele>1122.2</ele>
        <time>2017-07-22T15:23:49Z</time>
      </trkpt>
      <trkpt lat="44.0718510" lon="7.5765840">
        <ele>1122.6</ele>
        <time>2017-07-22T15:23:50Z</time>
      </trkpt>
      <trkpt lat="44.0717680" lon="7.5764600">
        <ele>1123.4</ele>
        <time>2017-07-22T15:23:53Z</time>
      </trkpt>
      <trkpt lat="44.0717400" lon="7.5764600">
        <ele>1123.8</ele>
        <time>2017-07-22T15:23:54Z</time>
      </trkpt>
      <trkpt lat="44.0716800" lon="7.5764890">
        <ele>1124.8</ele>
        <time>2017-07-22T15:23:56Z</time>
      </trkpt>
      <trkpt lat="44.0716410" lon="7.5764990">
        <ele>1125.2</ele>
        <time>2017-07-22T15:23:57Z</time>
      </trkpt>
      <trkpt lat="44.0714510" lon="7.5764950">
        <ele>1126.4</ele>
        <time>2017-07-22T15:24:00Z</time>
      </trkpt>
      <trkpt lat="44.0714050" lon="7.5764820">
        <ele>1126.6</ele>
        <time>2017-07-22T15:24:01Z</time>
      </trkpt>
      <trkpt lat="44.0713210" lon="7.5764630">
        <ele>1127.4</ele>
        <time>2017-07-22T15:24:03Z</time>
      </trkpt>
      <trkpt lat="44.0711990" lon="7.5764280">
        <ele>1128.6</ele>
        <time>2017-07-22T15:24:06Z</time>
      </trkpt>
      <trkpt lat="44.0711130" lon="7.5764030">
        <ele>1129.8</ele>
        <time>2017-07-22T15:24:08Z</time>
      </trkpt>
      <trkpt lat="44.0709960" lon="7.5763740">
        <ele>1131.0</ele>
        <time>2017-07-22T15:24:11Z</time>
      </trkpt>
      <trkpt lat="44.0709190" lon="7.5763630">
        <ele>1131.4</ele>
        <time>2017-07-22T15:24:13Z</time>
      </trkpt>
      <trkpt lat="44.0708100" lon="7.5763500">
        <ele>1132.4</ele>
        <time>2017-07-22T15:24:16Z</time>
      </trkpt>
      <trkpt lat="44.0707020" lon="7.5763560">
        <ele>1133.4</ele>
        <time>2017-07-22T15:24:19Z</time>
      </trkpt>
      <trkpt lat="44.0706380" lon="7.5763610">
        <ele>1134.2</ele>
        <time>2017-07-22T15:24:21Z</time>
      </trkpt>
      <trkpt lat="44.0705770" lon="7.5763690">
        <ele>1134.8</ele>
        <time>2017-07-22T15:24:23Z</time>
      </trkpt>
      <trkpt lat="44.0704900" lon="7.5763940">
        <ele>1135.8</ele>
        <time>2017-07-22T15:24:26Z</time>
      </trkpt>
      <trkpt lat="44.0704240" lon="7.5764070">
        <ele>1136.2</ele>
        <time>2017-07-22T15:24:28Z</time>
      </trkpt>
      <trkpt lat="44.0703580" lon="7.5764140">
        <ele>1136.8</ele>
        <time>2017-07-22T15:24:30Z</time>
      </trkpt>
      <trkpt lat="44.0702990" lon="7.5764110">
        <ele>1137.8</ele>
        <time>2017-07-22T15:24:32Z</time>
      </trkpt>
      <trkpt lat="44.0702030" lon="7.5764280">
        <ele>1138.6</ele>
        <time>2017-07-22T15:24:35Z</time>
      </trkpt>
      <trkpt lat="44.0701410" lon="7.5764430">
        <ele>1139.0</ele>
        <time>2017-07-22T15:24:37Z</time>
      </trkpt>
      <trkpt lat="44.0700160" lon="7.5764710">
        <ele>1140.4</ele>
        <time>2017-07-22T15:24:41Z</time>
      </trkpt>
      <trkpt lat="44.0699840" lon="7.5764710">
        <ele>1140.6</ele>
        <time>2017-07-22T15:24:42Z</time>
      </trkpt>
      <trkpt lat="44.0698870" lon="7.5764420">
        <ele>1141.4</ele>
        <time>2017-07-22T15:24:45Z</time>
      </trkpt>
      <trkpt lat="44.0698320" lon="7.5763970">
        <ele>1142.0</ele>
        <time>2017-07-22T15:24:47Z</time>
      </trkpt>
      <trkpt lat="44.0697850" lon="7.5763460">
        <ele>1142.8</ele>
        <time>2017-07-22T15:24:49Z</time>
      </trkpt>
      <trkpt lat="44.0696530" lon="7.5762150">
        <ele>1144.0</ele>
        <time>2017-07-22T15:24:54Z</time>
      </trkpt>
      <trkpt lat="44.0695410" lon="7.5761850">
        <ele>1145.0</ele>
        <time>2017-07-22T15:24:57Z</time>
      </trkpt>
      <trkpt lat="44.0695030" lon="7.5762070">
        <ele>1145.4</ele>
        <time>2017-07-22T15:24:58Z</time>
      </trkpt>
      <trkpt lat="44.0694320" lon="7.5762930">
        <ele>1146.2</ele>
        <time>2017-07-22T15:25:00Z</time>
      </trkpt>
      <trkpt lat="44.0693720" lon="7.5763950">
        <ele>1146.8</ele>
        <time>2017-07-22T15:25:02Z</time>
      </trkpt>
      <trkpt lat="44.0693130" lon="7.5764800">
        <ele>1147.2</ele>
        <time>2017-07-22T15:25:04Z</time>
      </trkpt>
      <trkpt lat="44.0692130" lon="7.5765910">
        <ele>1148.0</ele>
        <time>2017-07-22T15:25:07Z</time>
      </trkpt>
      <trkpt lat="44.0691820" lon="7.5766170">
        <ele>1148.4</ele>
        <time>2017-07-22T15:25:08Z</time>
      </trkpt>
      <trkpt lat="44.0690600" lon="7.5767220">
        <ele>1149.4</ele>
        <time>2017-07-22T15:25:12Z</time>
      </trkpt>
      <trkpt lat="44.0690080" lon="7.5767900">
        <ele>1150.0</ele>
        <time>2017-07-22T15:25:14Z</time>
      </trkpt>
      <trkpt lat="44.0689380" lon="7.5768880">
        <ele>1150.6</ele>
        <time>2017-07-22T15:25:17Z</time>
      </trkpt>
      <trkpt lat="44.0688600" lon="7.5769790">
        <ele>1152.0</ele>
        <time>2017-07-22T15:25:20Z</time>
      </trkpt>
      <trkpt lat="44.0687860" lon="7.5770520">
        <ele>1152.8</ele>
        <time>2017-07-22T15:25:23Z</time>
      </trkpt>
      <trkpt lat="44.0687640" lon="7.5770790">
        <ele>1153.2</ele>
        <time>2017-07-22T15:25:24Z</time>
      </trkpt>
      <trkpt lat="44.0686950" lon="7.5771670">
        <ele>1154.2</ele>
        <time>2017-07-22T15:25:27Z</time>
      </trkpt>
      <trkpt lat="44.0686690" lon="7.5771930">
        <ele>1154.4</ele>
        <time>2017-07-22T15:25:28Z</time>
      </trkpt>
      <trkpt lat="44.0685680" lon="7.5772730">
        <ele>1155.4</ele>
        <time>2017-07-22T15:25:32Z</time>
      </trkpt>
      <trkpt lat="44.0685200" lon="7.5773130">
        <ele>1156.0</ele>
        <time>2017-07-22T15:25:34Z</time>
      </trkpt>
      <trkpt lat="44.0684700" lon="7.5773490">
        <ele>1156.4</ele>
        <time>2017-07-22T15:25:36Z</time>
      </trkpt>
      <trkpt lat="44.0683710" lon="7.5773960">
        <ele>1157.6</ele>
        <time>2017-07-22T15:25:40Z</time>
      </trkpt>
      <trkpt lat="44.0683470" lon="7.5774040">
        <ele>1157.8</ele>
        <time>2017-07-22T15:25:41Z</time>
      </trkpt>
      <trkpt lat="44.0682900" lon="7.5774130">
        <ele>1158.6</ele>
        <time>2017-07-22T15:25:43Z</time>
      </trkpt>
      <trkpt lat="44.0681760" lon="7.5774330">
        <ele>1159.8</ele>
        <time>2017-07-22T15:25:47Z</time>
      </trkpt>
      <trkpt lat="44.0680710" lon="7.5774680">
        <ele>1160.8</ele>
        <time>2017-07-22T15:25:51Z</time>
      </trkpt>
      <trkpt lat="44.0679880" lon="7.5775330">
        <ele>1161.4</ele>
        <time>2017-07-22T15:25:54Z</time>
      </trkpt>
      <trkpt lat="44.0679360" lon="7.5775920">
        <ele>1162.0</ele>
        <time>2017-07-22T15:25:56Z</time>
      </trkpt>
      <trkpt lat="44.0678180" lon="7.5777110">
        <ele>1163.0</ele>
        <time>2017-07-22T15:26:00Z</time>
      </trkpt>
      <trkpt lat="44.0677940" lon="7.5777390">
        <ele>1163.0</ele>
        <time>2017-07-22T15:26:01Z</time>
      </trkpt>
      <trkpt lat="44.0677230" lon="7.5777880">
        <ele>1164.0</ele>
        <time>2017-07-22T15:26:04Z</time>
      </trkpt>
      <trkpt lat="44.0676940" lon="7.5777760">
        <ele>1164.2</ele>
        <time>2017-07-22T15:26:05Z</time>
      </trkpt>
      <trkpt lat="44.0676940" lon="7.5777260">
        <ele>1164.8</ele>
        <time>2017-07-22T15:26:07Z</time>
      </trkpt>
      <trkpt lat="44.0677060" lon="7.5776980">
        <ele>1165.0</ele>
        <time>2017-07-22T15:26:08Z</time>
      </trkpt>
      <trkpt lat="44.0677400" lon="7.5776440">
        <ele>1165.4</ele>
        <time>2017-07-22T15:26:10Z</time>
      </trkpt>
      <trkpt lat="44.0678050" lon="7.5775630">
        <ele>1166.2</ele>
        <time>2017-07-22T15:26:13Z</time>
      </trkpt>
      <trkpt lat="44.0678400" lon="7.5775080">
        <ele>1166.8</ele>
        <time>2017-07-22T15:26:15Z</time>
      </trkpt>
      <trkpt lat="44.0679100" lon="7.5773960">
        <ele>1168.0</ele>
        <time>2017-07-22T15:26:19Z</time>
      </trkpt>
      <trkpt lat="44.0679830" lon="7.5772880">
        <ele>1169.2</ele>
        <time>2017-07-22T15:26:23Z</time>
      </trkpt>
      <trkpt lat="44.0680400" lon="7.5772110">
        <ele>1170.4</ele>
        <time>2017-07-22T15:26:26Z</time>
      </trkpt>
      <trkpt lat="44.0680610" lon="7.5771880">
        <ele>1170.6</ele>
        <time>2017-07-22T15:26:27Z</time>
      </trkpt>
      <trkpt lat="44.0681340" lon="7.5771140">
        <ele>1171.4</ele>
        <time>2017-07-22T15:26:30Z</time>
      </trkpt>
      <trkpt lat="44.0681970" lon="7.5770270">
        <ele>1172.6</ele>
        <time>2017-07-22T15:26:33Z</time>
      </trkpt>
      <trkpt lat="44.0682930" lon="7.5769170">
        <ele>1174.0</ele>
        <time>2017-07-22T15:26:37Z</time>
      </trkpt>
      <trkpt lat="44.0683690" lon="7.5768130">
        <ele>1175.4</ele>
        <time>2017-07-22T15:26:41Z</time>
      </trkpt>
      <trkpt lat="44.0684340" lon="7.5767090">
        <ele>1176.6</ele>
        <time>2017-07-22T15:26:45Z</time>
      </trkpt>
      <trkpt lat="44.0684820" lon="7.5766260">
        <ele>1177.8</ele>
        <time>2017-07-22T15:26:48Z</time>
      </trkpt>
      <trkpt lat="44.0685370" lon="7.5765040">
        <ele>1179.0</ele>
        <time>2017-07-22T15:26:52Z</time>
      </trkpt>
      <trkpt lat="44.0685950" lon="7.5763850">
        <ele>1180.4</ele>
        <time>2017-07-22T15:26:56Z</time>
      </trkpt>
      <trkpt lat="44.0686320" lon="7.5762790">
        <ele>1181.4</ele>
        <time>2017-07-22T15:26:59Z</time>
      </trkpt>
      <trkpt lat="44.0686760" lon="7.5761950">
        <ele>1182.4</ele>
        <time>2017-07-22T15:27:02Z</time>
      </trkpt>
      <trkpt lat="44.0686870" lon="7.5761680">
        <ele>1182.6</ele>
        <time>2017-07-22T15:27:03Z</time>
      </trkpt>
      <trkpt lat="44.0687350" lon="7.5760820">
        <ele>1183.6</ele>
        <time>2017-07-22T15:27:06Z</time>
      </trkpt>
      <trkpt lat="44.0687930" lon="7.5760040">
        <ele>1184.6</ele>
        <time>2017-07-22T15:27:09Z</time>
      </trkpt>
      <trkpt lat="44.0688090" lon="7.5759800">
        <ele>1185.0</ele>
        <time>2017-07-22T15:27:10Z</time>
      </trkpt>
      <trkpt lat="44.0688770" lon="7.5758840">
        <ele>1186.0</ele>
        <time>2017-07-22T15:27:14Z</time>
      </trkpt>
      <trkpt lat="44.0688920" lon="7.5758580">
        <ele>1186.2</ele>
        <time>2017-07-22T15:27:15Z</time>
      </trkpt>
      <trkpt lat="44.0689310" lon="7.5757660">
        <ele>1187.2</ele>
        <time>2017-07-22T15:27:18Z</time>
      </trkpt>
      <trkpt lat="44.0689760" lon="7.5756350">
        <ele>1188.4</ele>
        <time>2017-07-22T15:27:22Z</time>
      </trkpt>
      <trkpt lat="44.0690290" lon="7.5755110">
        <ele>1189.8</ele>
        <time>2017-07-22T15:27:26Z</time>
      </trkpt>
      <trkpt lat="44.0690600" lon="7.5754010">
        <ele>1190.4</ele>
        <time>2017-07-22T15:27:29Z</time>
      </trkpt>
      <trkpt lat="44.0690810" lon="7.5753310">
        <ele>1191.0</ele>
        <time>2017-07-22T15:27:31Z</time>
      </trkpt>
      <trkpt lat="44.0691150" lon="7.5752000">
        <ele>1192.2</ele>
        <time>2017-07-22T15:27:35Z</time>
      </trkpt>
      <trkpt lat="44.0691710" lon="7.5750620">
        <ele>1193.4</ele>
        <time>2017-07-22T15:27:39Z</time>
      </trkpt>
      <trkpt lat="44.0691790" lon="7.5750240">
        <ele>1193.6</ele>
        <time>2017-07-22T15:27:40Z</time>
      </trkpt>
      <trkpt lat="44.0691750" lon="7.5749930">
        <ele>1193.8</ele>
        <time>2017-07-22T15:27:41Z</time>
      </trkpt>
      <trkpt lat="44.0691370" lon="7.5749950">
        <ele>1194.6</ele>
        <time>2017-07-22T15:27:43Z</time>
      </trkpt>
      <trkpt lat="44.0691070" lon="7.5750240">
        <ele>1195.0</ele>
        <time>2017-07-22T15:27:44Z</time>
      </trkpt>
      <trkpt lat="44.0690830" lon="7.5750530">
        <ele>1195.2</ele>
        <time>2017-07-22T15:27:45Z</time>
      </trkpt>
      <trkpt lat="44.0690190" lon="7.5751460">
        <ele>1196.0</ele>
        <time>2017-07-22T15:27:48Z</time>
      </trkpt>
      <trkpt lat="44.0689860" lon="7.5751890">
        <ele>1196.8</ele>
        <time>2017-07-22T15:27:50Z</time>
      </trkpt>
      <trkpt lat="44.0689520" lon="7.5752420">
        <ele>1197.2</ele>
        <time>2017-07-22T15:27:52Z</time>
      </trkpt>
      <trkpt lat="44.0688910" lon="7.5753530">
        <ele>1198.4</ele>
        <time>2017-07-22T15:27:56Z</time>
      </trkpt>
      <trkpt lat="44.0688570" lon="7.5754100">
        <ele>1199.0</ele>
        <time>2017-07-22T15:27:58Z</time>
      </trkpt>
      <trkpt lat="44.0688390" lon="7.5754370">
        <ele>1199.4</ele>
        <time>2017-07-22T15:27:59Z</time>
      </trkpt>
      <trkpt lat="44.0687560" lon="7.5755120">
        <ele>1200.6</ele>
        <time>2017-07-22T15:28:03Z</time>
      </trkpt>
      <trkpt lat="44.0687380" lon="7.5755310">
        <ele>1200.8</ele>
        <time>2017-07-22T15:28:04Z</time>
      </trkpt>
      <trkpt lat="44.0686760" lon="7.5755790">
        <ele>1202.2</ele>
        <time>2017-07-22T15:28:07Z</time>
      </trkpt>
      <trkpt lat="44.0685860" lon="7.5756380">
        <ele>1203.4</ele>
        <time>2017-07-22T15:28:11Z</time>
      </trkpt>
      <trkpt lat="44.0685660" lon="7.5756470">
        <ele>1203.6</ele>
        <time>2017-07-22T15:28:12Z</time>
      </trkpt>
      <trkpt lat="44.0684730" lon="7.5756940">
        <ele>1204.6</ele>
        <time>2017-07-22T15:28:16Z</time>
      </trkpt>
      <trkpt lat="44.0684470" lon="7.5757100">
        <ele>1204.8</ele>
        <time>2017-07-22T15:28:17Z</time>
      </trkpt>
      <trkpt lat="44.0683800" lon="7.5757630">
        <ele>1205.8</ele>
        <time>2017-07-22T15:28:20Z</time>
      </trkpt>
      <trkpt lat="44.0683160" lon="7.5758200">
        <ele>1206.6</ele>
        <time>2017-07-22T15:28:23Z</time>
      </trkpt>
      <trkpt lat="44.0682690" lon="7.5758660">
        <ele>1207.0</ele>
        <time>2017-07-22T15:28:25Z</time>
      </trkpt>
      <trkpt lat="44.0681800" lon="7.5759550">
        <ele>1208.2</ele>
        <time>2017-07-22T15:28:29Z</time>
      </trkpt>
      <trkpt lat="44.0681590" lon="7.5759790">
        <ele>1208.4</ele>
        <time>2017-07-22T15:28:30Z</time>
      </trkpt>
      <trkpt lat="44.0681370" lon="7.5759870">
        <ele>1209.0</ele>
        <time>2017-07-22T15:28:31Z</time>
      </trkpt>
      <trkpt lat="44.0681170" lon="7.5759910">
        <ele>1209.4</ele>
        <time>2017-07-22T15:28:32Z</time>
      </trkpt>
      <trkpt lat="44.0681440" lon="7.5759740">
        <ele>1210.4</ele>
        <time>2017-07-22T15:28:37Z</time>
      </trkpt>
      <trkpt lat="44.0681640" lon="7.5759690">
        <ele>1210.4</ele>
        <time>2017-07-22T15:28:38Z</time>
      </trkpt>
      <trkpt lat="44.0682040" lon="7.5759310">
        <ele>1210.4</ele>
        <time>2017-07-22T15:28:40Z</time>
      </trkpt>
      <trkpt lat="44.0682230" lon="7.5759060">
        <ele>1210.4</ele>
        <time>2017-07-22T15:28:41Z</time>
      </trkpt>
      <trkpt lat="44.0683310" lon="7.5756730">
        <ele>1211.4</ele>
        <time>2017-07-22T15:28:47Z</time>
      </trkpt>
      <trkpt lat="44.0683450" lon="7.5756410">
        <ele>1211.4</ele>
        <time>2017-07-22T15:28:48Z</time>
      </trkpt>
      <trkpt lat="44.0684270" lon="7.5754830">
        <ele>1212.6</ele>
        <time>2017-07-22T15:28:53Z</time>
      </trkpt>
      <trkpt lat="44.0684650" lon="7.5754220">
        <ele>1213.6</ele>
        <time>2017-07-22T15:28:55Z</time>
      </trkpt>
      <trkpt lat="44.0685050" lon="7.5753340">
        <ele>1215.0</ele>
        <time>2017-07-22T15:28:58Z</time>
      </trkpt>
      <trkpt lat="44.0685420" lon="7.5752230">
        <ele>1216.2</ele>
        <time>2017-07-22T15:29:01Z</time>
      </trkpt>
      <trkpt lat="44.0685520" lon="7.5751900">
        <ele>1216.6</ele>
        <time>2017-07-22T15:29:02Z</time>
      </trkpt>
      <trkpt lat="44.0685710" lon="7.5751220">
        <ele>1217.2</ele>
        <time>2017-07-22T15:29:04Z</time>
      </trkpt>
      <trkpt lat="44.0686150" lon="7.5750230">
        <ele>1218.6</ele>
        <time>2017-07-22T15:29:07Z</time>
      </trkpt>
      <trkpt lat="44.0686550" lon="7.5749270">
        <ele>1219.8</ele>
        <time>2017-07-22T15:29:10Z</time>
      </trkpt>
      <trkpt lat="44.0687070" lon="7.5747860">
        <ele>1221.0</ele>
        <time>2017-07-22T15:29:14Z</time>
      </trkpt>
      <trkpt lat="44.0687440" lon="7.5746830">
        <ele>1222.0</ele>
        <time>2017-07-22T15:29:17Z</time>
      </trkpt>
      <trkpt lat="44.0687570" lon="7.5746540">
        <ele>1222.4</ele>
        <time>2017-07-22T15:29:18Z</time>
      </trkpt>
      <trkpt lat="44.0687850" lon="7.5745950">
        <ele>1223.6</ele>
        <time>2017-07-22T15:29:20Z</time>
      </trkpt>
      <trkpt lat="44.0688140" lon="7.5745000">
        <ele>1224.8</ele>
        <time>2017-07-22T15:29:23Z</time>
      </trkpt>
      <trkpt lat="44.0688220" lon="7.5744690">
        <ele>1225.0</ele>
        <time>2017-07-22T15:29:24Z</time>
      </trkpt>
      <trkpt lat="44.0688620" lon="7.5743950">
        <ele>1226.2</ele>
        <time>2017-07-22T15:29:27Z</time>
      </trkpt>
      <trkpt lat="44.0689160" lon="7.5743070">
        <ele>1227.0</ele>
        <time>2017-07-22T15:29:30Z</time>
      </trkpt>
      <trkpt lat="44.0689240" lon="7.5742810">
        <ele>1227.4</ele>
        <time>2017-07-22T15:29:31Z</time>
      </trkpt>
      <trkpt lat="44.0688880" lon="7.5742670">
        <ele>1229.0</ele>
        <time>2017-07-22T15:29:36Z</time>
      </trkpt>
      <trkpt lat="44.0687200" lon="7.5744400">
        <ele>1230.0</ele>
        <time>2017-07-22T15:29:44Z</time>
      </trkpt>
      <trkpt lat="44.0686060" lon="7.5745800">
        <ele>1231.2</ele>
        <time>2017-07-22T15:29:50Z</time>
      </trkpt>
      <trkpt lat="44.0685600" lon="7.5746130">
        <ele>1231.8</ele>
        <time>2017-07-22T15:29:52Z</time>
      </trkpt>
      <trkpt lat="44.0685140" lon="7.5746520">
        <ele>1232.4</ele>
        <time>2017-07-22T15:29:54Z</time>
      </trkpt>
      <trkpt lat="44.0684550" lon="7.5747100">
        <ele>1233.4</ele>
        <time>2017-07-22T15:29:57Z</time>
      </trkpt>
      <trkpt lat="44.0684130" lon="7.5747390">
        <ele>1234.2</ele>
        <time>2017-07-22T15:29:59Z</time>
      </trkpt>
      <trkpt lat="44.0683930" lon="7.5747530">
        <ele>1234.6</ele>
        <time>2017-07-22T15:30:00Z</time>
      </trkpt>
      <trkpt lat="44.0683300" lon="7.5747870">
        <ele>1235.8</ele>
        <time>2017-07-22T15:30:03Z</time>
      </trkpt>
      <trkpt lat="44.0682690" lon="7.5748370">
        <ele>1237.0</ele>
        <time>2017-07-22T15:30:06Z</time>
      </trkpt>
      <trkpt lat="44.0682460" lon="7.5748490">
        <ele>1237.8</ele>
        <time>2017-07-22T15:30:07Z</time>
      </trkpt>
      <trkpt lat="44.0682230" lon="7.5748680">
        <ele>1238.2</ele>
        <time>2017-07-22T15:30:08Z</time>
      </trkpt>
      <trkpt lat="44.0681370" lon="7.5749310">
        <ele>1239.4</ele>
        <time>2017-07-22T15:30:12Z</time>
      </trkpt>
      <trkpt lat="44.0680510" lon="7.5750070">
        <ele>1240.6</ele>
        <time>2017-07-22T15:30:16Z</time>
      </trkpt>
      <trkpt lat="44.0680000" lon="7.5750580">
        <ele>1241.4</ele>
        <time>2017-07-22T15:30:19Z</time>
      </trkpt>
      <trkpt lat="44.0679880" lon="7.5750790">
        <ele>1241.6</ele>
        <time>2017-07-22T15:30:20Z</time>
      </trkpt>
      <trkpt lat="44.0679330" lon="7.5751350">
        <ele>1242.8</ele>
        <time>2017-07-22T15:30:23Z</time>
      </trkpt>
      <trkpt lat="44.0678930" lon="7.5751750">
        <ele>1243.2</ele>
        <time>2017-07-22T15:30:25Z</time>
      </trkpt>
      <trkpt lat="44.0678540" lon="7.5751920">
        <ele>1243.8</ele>
        <time>2017-07-22T15:30:27Z</time>
      </trkpt>
      <trkpt lat="44.0678430" lon="7.5751880">
        <ele>1244.0</ele>
        <time>2017-07-22T15:30:28Z</time>
      </trkpt>
      <trkpt lat="44.0678440" lon="7.5751790">
        <ele>1244.2</ele>
        <time>2017-07-22T15:30:29Z</time>
      </trkpt>
      <trkpt lat="44.0678530" lon="7.5751650">
        <ele>1244.4</ele>
        <time>2017-07-22T15:30:30Z</time>
      </trkpt>
      <trkpt lat="44.0678780" lon="7.5751300">
        <ele>1245.0</ele>
        <time>2017-07-22T15:30:32Z</time>
      </trkpt>
      <trkpt lat="44.0679340" lon="7.5750690">
        <ele>1245.8</ele>
        <time>2017-07-22T15:30:35Z</time>
      </trkpt>
      <trkpt lat="44.0679750" lon="7.5750190">
        <ele>1246.2</ele>
        <time>2017-07-22T15:30:37Z</time>
      </trkpt>
      <trkpt lat="44.0680460" lon="7.5749100">
        <ele>1247.2</ele>
        <time>2017-07-22T15:30:41Z</time>
      </trkpt>
      <trkpt lat="44.0680650" lon="7.5748630">
        <ele>1247.4</ele>
        <time>2017-07-22T15:30:42Z</time>
      </trkpt>
      <trkpt lat="44.0681110" lon="7.5746900">
        <ele>1248.4</ele>
        <time>2017-07-22T15:30:46Z</time>
      </trkpt>
      <trkpt lat="44.0681250" lon="7.5746100">
        <ele>1249.0</ele>
        <time>2017-07-22T15:30:48Z</time>
      </trkpt>
      <trkpt lat="44.0681530" lon="7.5744970">
        <ele>1249.6</ele>
        <time>2017-07-22T15:30:51Z</time>
      </trkpt>
      <trkpt lat="44.0681930" lon="7.5743500">
        <ele>1250.8</ele>
        <time>2017-07-22T15:30:55Z</time>
      </trkpt>
      <trkpt lat="44.0682300" lon="7.5742260">
        <ele>1252.0</ele>
        <time>2017-07-22T15:30:59Z</time>
      </trkpt>
      <trkpt lat="44.0682540" lon="7.5741630">
        <ele>1252.4</ele>
        <time>2017-07-22T15:31:01Z</time>
      </trkpt>
      <trkpt lat="44.0682850" lon="7.5740640">
        <ele>1253.4</ele>
        <time>2017-07-22T15:31:04Z</time>
      </trkpt>
      <trkpt lat="44.0683350" lon="7.5739450">
        <ele>1254.6</ele>
        <time>2017-07-22T15:31:08Z</time>
      </trkpt>
      <trkpt lat="44.0683870" lon="7.5738280">
        <ele>1255.6</ele>
        <time>2017-07-22T15:31:12Z</time>
      </trkpt>
      <trkpt lat="44.0684110" lon="7.5737510">
        <ele>1256.2</ele>
        <time>2017-07-22T15:31:14Z</time>
      </trkpt>
      <trkpt lat="44.0684340" lon="7.5736790">
        <ele>1256.8</ele>
        <time>2017-07-22T15:31:16Z</time>
      </trkpt>
      <trkpt lat="44.0684890" lon="7.5735440">
        <ele>1258.2</ele>
        <time>2017-07-22T15:31:20Z</time>
      </trkpt>
      <trkpt lat="44.0685170" lon="7.5734790">
        <ele>1258.8</ele>
        <time>2017-07-22T15:31:22Z</time>
      </trkpt>
      <trkpt lat="44.0685540" lon="7.5734100">
        <ele>1259.4</ele>
        <time>2017-07-22T15:31:24Z</time>
      </trkpt>
      <trkpt lat="44.0686270" lon="7.5733070">
        <ele>1260.6</ele>
        <time>2017-07-22T15:31:28Z</time>
      </trkpt>
      <trkpt lat="44.0686840" lon="7.5732370">
        <ele>1261.6</ele>
        <time>2017-07-22T15:31:31Z</time>
      </trkpt>
      <trkpt lat="44.0687500" lon="7.5731140">
        <ele>1262.6</ele>
        <time>2017-07-22T15:31:35Z</time>
      </trkpt>
      <trkpt lat="44.0687640" lon="7.5730840">
        <ele>1263.0</ele>
        <time>2017-07-22T15:31:36Z</time>
      </trkpt>
      <trkpt lat="44.0688350" lon="7.5729610">
        <ele>1264.2</ele>
        <time>2017-07-22T15:31:40Z</time>
      </trkpt>
      <trkpt lat="44.0688700" lon="7.5729070">
        <ele>1264.8</ele>
        <time>2017-07-22T15:31:42Z</time>
      </trkpt>
      <trkpt lat="44.0689210" lon="7.5728600">
        <ele>1265.4</ele>
        <time>2017-07-22T15:31:44Z</time>
      </trkpt>
      <trkpt lat="44.0690280" lon="7.5728110">
        <ele>1266.2</ele>
        <time>2017-07-22T15:31:47Z</time>
      </trkpt>
      <trkpt lat="44.0690590" lon="7.5728020">
        <ele>1266.4</ele>
        <time>2017-07-22T15:31:48Z</time>
      </trkpt>
      <trkpt lat="44.0692080" lon="7.5727760">
        <ele>1267.6</ele>
        <time>2017-07-22T15:31:53Z</time>
      </trkpt>
      <trkpt lat="44.0692370" lon="7.5727780">
        <ele>1267.8</ele>
        <time>2017-07-22T15:31:54Z</time>
      </trkpt>
      <trkpt lat="44.0693620" lon="7.5727870">
        <ele>1268.6</ele>
        <time>2017-07-22T15:31:58Z</time>
      </trkpt>
      <trkpt lat="44.0694810" lon="7.5727800">
        <ele>1269.6</ele>
        <time>2017-07-22T15:32:02Z</time>
      </trkpt>
      <trkpt lat="44.0695070" lon="7.5727790">
        <ele>1269.8</ele>
        <time>2017-07-22T15:32:03Z</time>
      </trkpt>
      <trkpt lat="44.0696140" lon="7.5727720">
        <ele>1271.0</ele>
        <time>2017-07-22T15:32:07Z</time>
      </trkpt>
      <trkpt lat="44.0697230" lon="7.5727750">
        <ele>1271.8</ele>
        <time>2017-07-22T15:32:11Z</time>
      </trkpt>
      <trkpt lat="44.0697770" lon="7.5727920">
        <ele>1272.0</ele>
        <time>2017-07-22T15:32:13Z</time>
      </trkpt>
      <trkpt lat="44.0699040" lon="7.5728280">
        <ele>1273.0</ele>
        <time>2017-07-22T15:32:18Z</time>
      </trkpt>
      <trkpt lat="44.0699640" lon="7.5728670">
        <ele>1273.6</ele>
        <time>2017-07-22T15:32:20Z</time>
      </trkpt>
      <trkpt lat="44.0700570" lon="7.5729290">
        <ele>1274.4</ele>
        <time>2017-07-22T15:32:23Z</time>
      </trkpt>
      <trkpt lat="44.0701630" lon="7.5729680">
        <ele>1275.2</ele>
        <time>2017-07-22T15:32:27Z</time>
      </trkpt>
      <trkpt lat="44.0701890" lon="7.5729610">
        <ele>1275.4</ele>
        <time>2017-07-22T15:32:28Z</time>
      </trkpt>
      <trkpt lat="44.0703320" lon="7.5728820">
        <ele>1276.4</ele>
        <time>2017-07-22T15:32:33Z</time>
      </trkpt>
      <trkpt lat="44.0704810" lon="7.5726480">
        <ele>1277.6</ele>
        <time>2017-07-22T15:32:39Z</time>
      </trkpt>
      <trkpt lat="44.0705010" lon="7.5726120">
        <ele>1277.8</ele>
        <time>2017-07-22T15:32:40Z</time>
      </trkpt>
      <trkpt lat="44.0705510" lon="7.5724450">
        <ele>1278.8</ele>
        <time>2017-07-22T15:32:44Z</time>
      </trkpt>
      <trkpt lat="44.0705690" lon="7.5723600">
        <ele>1279.0</ele>
        <time>2017-07-22T15:32:46Z</time>
      </trkpt>
      <trkpt lat="44.0706270" lon="7.5722000">
        <ele>1279.8</ele>
        <time>2017-07-22T15:32:50Z</time>
      </trkpt>
      <trkpt lat="44.0706620" lon="7.5721170">
        <ele>1280.4</ele>
        <time>2017-07-22T15:32:52Z</time>
      </trkpt>
      <trkpt lat="44.0706950" lon="7.5719890">
        <ele>1281.0</ele>
        <time>2017-07-22T15:32:55Z</time>
      </trkpt>
      <trkpt lat="44.0707330" lon="7.5718120">
        <ele>1281.8</ele>
        <time>2017-07-22T15:32:59Z</time>
      </trkpt>
      <trkpt lat="44.0707410" lon="7.5717660">
        <ele>1282.2</ele>
        <time>2017-07-22T15:33:00Z</time>
      </trkpt>
      <trkpt lat="44.0707890" lon="7.5715980">
        <ele>1283.2</ele>
        <time>2017-07-22T15:33:04Z</time>
      </trkpt>
      <trkpt lat="44.0708360" lon="7.5715270">
        <ele>1283.8</ele>
        <time>2017-07-22T15:33:06Z</time>
      </trkpt>
      <trkpt lat="44.0708810" lon="7.5714600">
        <ele>1284.4</ele>
        <time>2017-07-22T15:33:08Z</time>
      </trkpt>
      <trkpt lat="44.0709920" lon="7.5713550">
        <ele>1285.4</ele>
        <time>2017-07-22T15:33:12Z</time>
      </trkpt>
      <trkpt lat="44.0710230" lon="7.5713430">
        <ele>1285.6</ele>
        <time>2017-07-22T15:33:13Z</time>
      </trkpt>
      <trkpt lat="44.0711440" lon="7.5713270">
        <ele>1286.6</ele>
        <time>2017-07-22T15:33:17Z</time>
      </trkpt>
      <trkpt lat="44.0712130" lon="7.5713720">
        <ele>1287.2</ele>
        <time>2017-07-22T15:33:19Z</time>
      </trkpt>
      <trkpt lat="44.0712750" lon="7.5714250">
        <ele>1287.8</ele>
        <time>2017-07-22T15:33:21Z</time>
      </trkpt>
      <trkpt lat="44.0713900" lon="7.5714720">
        <ele>1288.6</ele>
        <time>2017-07-22T15:33:25Z</time>
      </trkpt>
      <trkpt lat="44.0714170" lon="7.5714710">
        <ele>1289.0</ele>
        <time>2017-07-22T15:33:26Z</time>
      </trkpt>
      <trkpt lat="44.0715230" lon="7.5713720">
        <ele>1289.8</ele>
        <time>2017-07-22T15:33:30Z</time>
      </trkpt>
      <trkpt lat="44.0715700" lon="7.5713090">
        <ele>1290.0</ele>
        <time>2017-07-22T15:33:32Z</time>
      </trkpt>
      <trkpt lat="44.0716520" lon="7.5711960">
        <ele>1291.0</ele>
        <time>2017-07-22T15:33:36Z</time>
      </trkpt>
      <trkpt lat="44.0716890" lon="7.5711580">
        <ele>1291.4</ele>
        <time>2017-07-22T15:33:38Z</time>
      </trkpt>
      <trkpt lat="44.0717690" lon="7.5711610">
        <ele>1292.4</ele>
        <time>2017-07-22T15:33:41Z</time>
      </trkpt>
      <trkpt lat="44.0718680" lon="7.5711840">
        <ele>1293.4</ele>
        <time>2017-07-22T15:33:44Z</time>
      </trkpt>
      <trkpt lat="44.0720580" lon="7.5712510">
        <ele>1294.8</ele>
        <time>2017-07-22T15:33:49Z</time>
      </trkpt>
      <trkpt lat="44.0720920" lon="7.5712780">
        <ele>1295.0</ele>
        <time>2017-07-22T15:33:50Z</time>
      </trkpt>
      <trkpt lat="44.0721970" lon="7.5713550">
        <ele>1295.8</ele>
        <time>2017-07-22T15:33:53Z</time>
      </trkpt>
      <trkpt lat="44.0722980" lon="7.5714330">
        <ele>1296.6</ele>
        <time>2017-07-22T15:33:56Z</time>
      </trkpt>
      <trkpt lat="44.0723550" lon="7.5714610">
        <ele>1297.2</ele>
        <time>2017-07-22T15:33:58Z</time>
      </trkpt>
      <trkpt lat="44.0724630" lon="7.5714680">
        <ele>1298.0</ele>
        <time>2017-07-22T15:34:02Z</time>
      </trkpt>
      <trkpt lat="44.0724870" lon="7.5714600">
        <ele>1298.4</ele>
        <time>2017-07-22T15:34:03Z</time>
      </trkpt>
      <trkpt lat="44.0726060" lon="7.5714420">
        <ele>1299.8</ele>
        <time>2017-07-22T15:34:07Z</time>
      </trkpt>
      <trkpt lat="44.0726890" lon="7.5714080">
        <ele>1299.4</ele>
        <time>2017-07-22T15:34:10Z</time>
      </trkpt>
      <trkpt lat="44.0728940" lon="7.5712630">
        <ele>1300.8</ele>
        <time>2017-07-22T15:34:17Z</time>
      </trkpt>
      <trkpt lat="44.0730050" lon="7.5710560">
        <ele>1302.0</ele>
        <time>2017-07-22T15:34:23Z</time>
      </trkpt>
      <trkpt lat="44.0730180" lon="7.5710220">
        <ele>1302.2</ele>
        <time>2017-07-22T15:34:24Z</time>
      </trkpt>
      <trkpt lat="44.0730490" lon="7.5708780">
        <ele>1303.0</ele>
        <time>2017-07-22T15:34:28Z</time>
      </trkpt>
      <trkpt lat="44.0730670" lon="7.5707770">
        <ele>1304.6</ele>
        <time>2017-07-22T15:34:31Z</time>
      </trkpt>
      <trkpt lat="44.0730720" lon="7.5706630">
        <ele>1305.8</ele>
        <time>2017-07-22T15:34:34Z</time>
      </trkpt>
      <trkpt lat="44.0730750" lon="7.5705810">
        <ele>1306.4</ele>
        <time>2017-07-22T15:34:36Z</time>
      </trkpt>
      <trkpt lat="44.0730880" lon="7.5705070">
        <ele>1307.0</ele>
        <time>2017-07-22T15:34:38Z</time>
      </trkpt>
      <trkpt lat="44.0731220" lon="7.5704020">
        <ele>1308.2</ele>
        <time>2017-07-22T15:34:41Z</time>
      </trkpt>
      <trkpt lat="44.0731470" lon="7.5703280">
        <ele>1308.8</ele>
        <time>2017-07-22T15:34:43Z</time>
      </trkpt>
      <trkpt lat="44.0731630" lon="7.5702920">
        <ele>1309.2</ele>
        <time>2017-07-22T15:34:44Z</time>
      </trkpt>
      <trkpt lat="44.0732190" lon="7.5701410">
        <ele>1310.4</ele>
        <time>2017-07-22T15:34:48Z</time>
      </trkpt>
      <trkpt lat="44.0732690" lon="7.5699880">
        <ele>1311.6</ele>
        <time>2017-07-22T15:34:52Z</time>
      </trkpt>
      <trkpt lat="44.0732970" lon="7.5698780">
        <ele>1312.6</ele>
        <time>2017-07-22T15:34:55Z</time>
      </trkpt>
      <trkpt lat="44.0733190" lon="7.5698070">
        <ele>1313.2</ele>
        <time>2017-07-22T15:34:57Z</time>
      </trkpt>
      <trkpt lat="44.0733340" lon="7.5697380">
        <ele>1313.8</ele>
        <time>2017-07-22T15:34:59Z</time>
      </trkpt>
      <trkpt lat="44.0733400" lon="7.5696290">
        <ele>1314.8</ele>
        <time>2017-07-22T15:35:02Z</time>
      </trkpt>
      <trkpt lat="44.0733440" lon="7.5695450">
        <ele>1315.2</ele>
        <time>2017-07-22T15:35:04Z</time>
      </trkpt>
      <trkpt lat="44.0733500" lon="7.5694210">
        <ele>1316.2</ele>
        <time>2017-07-22T15:35:07Z</time>
      </trkpt>
      <trkpt lat="44.0733420" lon="7.5692850">
        <ele>1317.4</ele>
        <time>2017-07-22T15:35:11Z</time>
      </trkpt>
      <trkpt lat="44.0733400" lon="7.5691690">
        <ele>1318.4</ele>
        <time>2017-07-22T15:35:15Z</time>
      </trkpt>
      <trkpt lat="44.0733470" lon="7.5690460">
        <ele>1319.4</ele>
        <time>2017-07-22T15:35:18Z</time>
      </trkpt>
      <trkpt lat="44.0733470" lon="7.5689980">
        <ele>1320.0</ele>
        <time>2017-07-22T15:35:19Z</time>
      </trkpt>
      <trkpt lat="44.0733670" lon="7.5688270">
        <ele>1321.0</ele>
        <time>2017-07-22T15:35:23Z</time>
      </trkpt>
      <trkpt lat="44.0733790" lon="7.5687260">
        <ele>1322.0</ele>
        <time>2017-07-22T15:35:26Z</time>
      </trkpt>
      <trkpt lat="44.0733820" lon="7.5687030">
        <ele>1322.2</ele>
        <time>2017-07-22T15:35:27Z</time>
      </trkpt>
      <trkpt lat="44.0734370" lon="7.5686000">
        <ele>1323.2</ele>
        <time>2017-07-22T15:35:30Z</time>
      </trkpt>
      <trkpt lat="44.0734880" lon="7.5685320">
        <ele>1323.8</ele>
        <time>2017-07-22T15:35:32Z</time>
      </trkpt>
      <trkpt lat="44.0735390" lon="7.5684870">
        <ele>1324.4</ele>
        <time>2017-07-22T15:35:34Z</time>
      </trkpt>
      <trkpt lat="44.0736410" lon="7.5683920">
        <ele>1325.6</ele>
        <time>2017-07-22T15:35:38Z</time>
      </trkpt>
      <trkpt lat="44.0737300" lon="7.5682690">
        <ele>1326.8</ele>
        <time>2017-07-22T15:35:42Z</time>
      </trkpt>
      <trkpt lat="44.0737810" lon="7.5681840">
        <ele>1328.2</ele>
        <time>2017-07-22T15:35:45Z</time>
      </trkpt>
      <trkpt lat="44.0738190" lon="7.5681060">
        <ele>1329.2</ele>
        <time>2017-07-22T15:35:48Z</time>
      </trkpt>
      <trkpt lat="44.0738820" lon="7.5679920">
        <ele>1330.6</ele>
        <time>2017-07-22T15:35:52Z</time>
      </trkpt>
      <trkpt lat="44.0739240" lon="7.5679120">
        <ele>1331.6</ele>
        <time>2017-07-22T15:35:55Z</time>
      </trkpt>
      <trkpt lat="44.0739720" lon="7.5678210">
        <ele>1333.0</ele>
        <time>2017-07-22T15:35:59Z</time>
      </trkpt>
      <trkpt lat="44.0740060" lon="7.5677190">
        <ele>1334.2</ele>
        <time>2017-07-22T15:36:03Z</time>
      </trkpt>
      <trkpt lat="44.0740480" lon="7.5676390">
        <ele>1335.2</ele>
        <time>2017-07-22T15:36:06Z</time>
      </trkpt>
      <trkpt lat="44.0740560" lon="7.5676190">
        <ele>1335.8</ele>
        <time>2017-07-22T15:36:07Z</time>
      </trkpt>
      <trkpt lat="44.0740980" lon="7.5675400">
        <ele>1337.0</ele>
        <time>2017-07-22T15:36:11Z</time>
      </trkpt>
      <trkpt lat="44.0741260" lon="7.5674950">
        <ele>1337.6</ele>
        <time>2017-07-22T15:36:13Z</time>
      </trkpt>
      <trkpt lat="44.0741630" lon="7.5674220">
        <ele>1338.4</ele>
        <time>2017-07-22T15:36:16Z</time>
      </trkpt>
      <trkpt lat="44.0741960" lon="7.5673180">
        <ele>1339.4</ele>
        <time>2017-07-22T15:36:20Z</time>
      </trkpt>
      <trkpt lat="44.0742420" lon="7.5672180">
        <ele>1340.4</ele>
        <time>2017-07-22T15:36:24Z</time>
      </trkpt>
      <trkpt lat="44.0742900" lon="7.5671170">
        <ele>1341.4</ele>
        <time>2017-07-22T15:36:27Z</time>
      </trkpt>
      <trkpt lat="44.0743470" lon="7.5670080">
        <ele>1342.8</ele>
        <time>2017-07-22T15:36:31Z</time>
      </trkpt>
      <trkpt lat="44.0743940" lon="7.5669230">
        <ele>1343.4</ele>
        <time>2017-07-22T15:36:34Z</time>
      </trkpt>
      <trkpt lat="44.0744050" lon="7.5668950">
        <ele>1343.8</ele>
        <time>2017-07-22T15:36:35Z</time>
      </trkpt>
      <trkpt lat="44.0744480" lon="7.5667870">
        <ele>1345.0</ele>
        <time>2017-07-22T15:36:39Z</time>
      </trkpt>
      <trkpt lat="44.0744970" lon="7.5666790">
        <ele>1346.0</ele>
        <time>2017-07-22T15:36:43Z</time>
      </trkpt>
      <trkpt lat="44.0745220" lon="7.5666200">
        <ele>1346.6</ele>
        <time>2017-07-22T15:36:45Z</time>
      </trkpt>
      <trkpt lat="44.0745290" lon="7.5665860">
        <ele>1346.8</ele>
        <time>2017-07-22T15:36:46Z</time>
      </trkpt>
      <trkpt lat="44.0745340" lon="7.5665530">
        <ele>1347.2</ele>
        <time>2017-07-22T15:36:47Z</time>
      </trkpt>
      <trkpt lat="44.0745440" lon="7.5664920">
        <ele>1347.6</ele>
        <time>2017-07-22T15:36:49Z</time>
      </trkpt>
      <trkpt lat="44.0745620" lon="7.5664100">
        <ele>1348.4</ele>
        <time>2017-07-22T15:36:52Z</time>
      </trkpt>
      <trkpt lat="44.0745790" lon="7.5663540">
        <ele>1349.0</ele>
        <time>2017-07-22T15:36:54Z</time>
      </trkpt>
      <trkpt lat="44.0745890" lon="7.5662920">
        <ele>1349.8</ele>
        <time>2017-07-22T15:36:56Z</time>
      </trkpt>
      <trkpt lat="44.0746090" lon="7.5661740">
        <ele>1350.8</ele>
        <time>2017-07-22T15:37:00Z</time>
      </trkpt>
      <trkpt lat="44.0746150" lon="7.5661120">
        <ele>1351.2</ele>
        <time>2017-07-22T15:37:02Z</time>
      </trkpt>
      <trkpt lat="44.0746230" lon="7.5660170">
        <ele>1352.0</ele>
        <time>2017-07-22T15:37:05Z</time>
      </trkpt>
      <trkpt lat="44.0746350" lon="7.5658840">
        <ele>1353.0</ele>
        <time>2017-07-22T15:37:09Z</time>
      </trkpt>
      <trkpt lat="44.0746240" lon="7.5658680">
        <ele>1353.2</ele>
        <time>2017-07-22T15:37:10Z</time>
      </trkpt>
      <trkpt lat="44.0745880" lon="7.5659240">
        <ele>1354.0</ele>
        <time>2017-07-22T15:37:13Z</time>
      </trkpt>
      <trkpt lat="44.0745790" lon="7.5659530">
        <ele>1354.2</ele>
        <time>2017-07-22T15:37:14Z</time>
      </trkpt>
      <trkpt lat="44.0745720" lon="7.5659850">
        <ele>1354.4</ele>
        <time>2017-07-22T15:37:15Z</time>
      </trkpt>
      <trkpt lat="44.0745410" lon="7.5661070">
        <ele>1355.4</ele>
        <time>2017-07-22T15:37:19Z</time>
      </trkpt>
      <trkpt lat="44.0745270" lon="7.5661310">
        <ele>1355.6</ele>
        <time>2017-07-22T15:37:20Z</time>
      </trkpt>
      <trkpt lat="44.0744840" lon="7.5662000">
        <ele>1356.6</ele>
        <time>2017-07-22T15:37:23Z</time>
      </trkpt>
      <trkpt lat="44.0744020" lon="7.5663080">
        <ele>1357.8</ele>
        <time>2017-07-22T15:37:28Z</time>
      </trkpt>
      <trkpt lat="44.0743370" lon="7.5663750">
        <ele>1359.0</ele>
        <time>2017-07-22T15:37:32Z</time>
      </trkpt>
      <trkpt lat="44.0742670" lon="7.5664530">
        <ele>1360.0</ele>
        <time>2017-07-22T15:37:36Z</time>
      </trkpt>
      <trkpt lat="44.0742050" lon="7.5665340">
        <ele>1361.2</ele>
        <time>2017-07-22T15:37:40Z</time>
      </trkpt>
      <trkpt lat="44.0741710" lon="7.5665700">
        <ele>1361.6</ele>
        <time>2017-07-22T15:37:42Z</time>
      </trkpt>
      <trkpt lat="44.0741540" lon="7.5665900">
        <ele>1362.4</ele>
        <time>2017-07-22T15:37:43Z</time>
      </trkpt>
      <trkpt lat="44.0740750" lon="7.5666700">
        <ele>1363.4</ele>
        <time>2017-07-22T15:37:47Z</time>
      </trkpt>
      <trkpt lat="44.0740610" lon="7.5666880">
        <ele>1363.8</ele>
        <time>2017-07-22T15:37:48Z</time>
      </trkpt>
      <trkpt lat="44.0740450" lon="7.5667090">
        <ele>1364.0</ele>
        <time>2017-07-22T15:37:49Z</time>
      </trkpt>
      <trkpt lat="44.0740140" lon="7.5667510">
        <ele>1364.4</ele>
        <time>2017-07-22T15:37:51Z</time>
      </trkpt>
      <trkpt lat="44.0739420" lon="7.5668230">
        <ele>1365.6</ele>
        <time>2017-07-22T15:37:55Z</time>
      </trkpt>
      <trkpt lat="44.0738640" lon="7.5669310">
        <ele>1366.8</ele>
        <time>2017-07-22T15:38:00Z</time>
      </trkpt>
      <trkpt lat="44.0738460" lon="7.5669540">
        <ele>1367.0</ele>
        <time>2017-07-22T15:38:01Z</time>
      </trkpt>
      <trkpt lat="44.0738030" lon="7.5670220">
        <ele>1368.0</ele>
        <time>2017-07-22T15:38:04Z</time>
      </trkpt>
      <trkpt lat="44.0737590" lon="7.5670820">
        <ele>1369.0</ele>
        <time>2017-07-22T15:38:07Z</time>
      </trkpt>
      <trkpt lat="44.0737460" lon="7.5670990">
        <ele>1369.4</ele>
        <time>2017-07-22T15:38:08Z</time>
      </trkpt>
      <trkpt lat="44.0737020" lon="7.5671540">
        <ele>1370.2</ele>
        <time>2017-07-22T15:38:11Z</time>
      </trkpt>
      <trkpt lat="44.0736250" lon="7.5672300">
        <ele>1371.2</ele>
        <time>2017-07-22T15:38:15Z</time>
      </trkpt>
      <trkpt lat="44.0736030" lon="7.5672460">
        <ele>1371.2</ele>
        <time>2017-07-22T15:38:16Z</time>
      </trkpt>
      <trkpt lat="44.0735360" lon="7.5673220">
        <ele>1372.4</ele>
        <time>2017-07-22T15:38:20Z</time>
      </trkpt>
      <trkpt lat="44.0735000" lon="7.5673460">
        <ele>1372.8</ele>
        <time>2017-07-22T15:38:22Z</time>
      </trkpt>
      <trkpt lat="44.0734620" lon="7.5673560">
        <ele>1373.4</ele>
        <time>2017-07-22T15:38:24Z</time>
      </trkpt>
      <trkpt lat="44.0733890" lon="7.5673520">
        <ele>1374.6</ele>
        <time>2017-07-22T15:38:28Z</time>
      </trkpt>
      <trkpt lat="44.0733290" lon="7.5672970">
        <ele>1375.8</ele>
        <time>2017-07-22T15:38:32Z</time>
      </trkpt>
      <trkpt lat="44.0733030" lon="7.5672620">
        <ele>1376.2</ele>
        <time>2017-07-22T15:38:34Z</time>
      </trkpt>
      <trkpt lat="44.0732770" lon="7.5672430">
        <ele>1376.8</ele>
        <time>2017-07-22T15:38:36Z</time>
      </trkpt>
      <trkpt lat="44.0732160" lon="7.5672230">
        <ele>1377.8</ele>
        <time>2017-07-22T15:38:40Z</time>
      </trkpt>
      <trkpt lat="44.0731930" lon="7.5672280">
        <ele>1378.0</ele>
        <time>2017-07-22T15:38:41Z</time>
      </trkpt>
      <trkpt lat="44.0731170" lon="7.5672520">
        <ele>1378.8</ele>
        <time>2017-07-22T15:38:44Z</time>
      </trkpt>
      <trkpt lat="44.0730440" lon="7.5672630">
        <ele>1379.4</ele>
        <time>2017-07-22T15:38:47Z</time>
      </trkpt>
      <trkpt lat="44.0730040" lon="7.5672760">
        <ele>1380.0</ele>
        <time>2017-07-22T15:38:49Z</time>
      </trkpt>
      <trkpt lat="44.0729270" lon="7.5673000">
        <ele>1380.8</ele>
        <time>2017-07-22T15:38:52Z</time>
      </trkpt>
      <trkpt lat="44.0728670" lon="7.5673260">
        <ele>1381.2</ele>
        <time>2017-07-22T15:38:54Z</time>
      </trkpt>
      <trkpt lat="44.0727710" lon="7.5673740">
        <ele>1382.2</ele>
        <time>2017-07-22T15:38:58Z</time>
      </trkpt>
      <trkpt lat="44.0727520" lon="7.5673880">
        <ele>1382.6</ele>
        <time>2017-07-22T15:38:59Z</time>
      </trkpt>
      <trkpt lat="44.0726560" lon="7.5674430">
        <ele>1383.4</ele>
        <time>2017-07-22T15:39:03Z</time>
      </trkpt>
      <trkpt lat="44.0725820" lon="7.5674910">
        <ele>1384.0</ele>
        <time>2017-07-22T15:39:06Z</time>
      </trkpt>
      <trkpt lat="44.0725390" lon="7.5675340">
        <ele>1384.6</ele>
        <time>2017-07-22T15:39:08Z</time>
      </trkpt>
      <trkpt lat="44.0724610" lon="7.5676330">
        <ele>1385.6</ele>
        <time>2017-07-22T15:39:12Z</time>
      </trkpt>
      <trkpt lat="44.0724430" lon="7.5676600">
        <ele>1385.8</ele>
        <time>2017-07-22T15:39:13Z</time>
      </trkpt>
      <trkpt lat="44.0723550" lon="7.5678040">
        <ele>1386.6</ele>
        <time>2017-07-22T15:39:18Z</time>
      </trkpt>
      <trkpt lat="44.0723390" lon="7.5678310">
        <ele>1387.2</ele>
        <time>2017-07-22T15:39:19Z</time>
      </trkpt>
      <trkpt lat="44.0722410" lon="7.5679550">
        <ele>1388.2</ele>
        <time>2017-07-22T15:39:24Z</time>
      </trkpt>
      <trkpt lat="44.0722190" lon="7.5679730">
        <ele>1388.4</ele>
        <time>2017-07-22T15:39:25Z</time>
      </trkpt>
      <trkpt lat="44.0721430" lon="7.5680260">
        <ele>1389.4</ele>
        <time>2017-07-22T15:39:29Z</time>
      </trkpt>
      <trkpt lat="44.0721060" lon="7.5680550">
        <ele>1389.8</ele>
        <time>2017-07-22T15:39:31Z</time>
      </trkpt>
      <trkpt lat="44.0720450" lon="7.5680820">
        <ele>1390.6</ele>
        <time>2017-07-22T15:39:34Z</time>
      </trkpt>
      <trkpt lat="44.0719580" lon="7.5681220">
        <ele>1391.6</ele>
        <time>2017-07-22T15:39:39Z</time>
      </trkpt>
      <trkpt lat="44.0719440" lon="7.5681280">
        <ele>1392.0</ele>
        <time>2017-07-22T15:39:40Z</time>
      </trkpt>
      <trkpt lat="44.0718780" lon="7.5681710">
        <ele>1393.0</ele>
        <time>2017-07-22T15:39:44Z</time>
      </trkpt>
      <trkpt lat="44.0718380" lon="7.5681960">
        <ele>1393.6</ele>
        <time>2017-07-22T15:39:46Z</time>
      </trkpt>
      <trkpt lat="44.0717750" lon="7.5682300">
        <ele>1394.2</ele>
        <time>2017-07-22T15:39:49Z</time>
      </trkpt>
      <trkpt lat="44.0717070" lon="7.5682690">
        <ele>1394.8</ele>
        <time>2017-07-22T15:39:52Z</time>
      </trkpt>
      <trkpt lat="44.0716860" lon="7.5682800">
        <ele>1395.2</ele>
        <time>2017-07-22T15:39:53Z</time>
      </trkpt>
      <trkpt lat="44.0715660" lon="7.5683340">
        <ele>1396.4</ele>
        <time>2017-07-22T15:39:58Z</time>
      </trkpt>
      <trkpt lat="44.0715410" lon="7.5683490">
        <ele>1396.6</ele>
        <time>2017-07-22T15:39:59Z</time>
      </trkpt>
      <trkpt lat="44.0714520" lon="7.5684060">
        <ele>1397.4</ele>
        <time>2017-07-22T15:40:03Z</time>
      </trkpt>
      <trkpt lat="44.0713970" lon="7.5684660">
        <ele>1398.2</ele>
        <time>2017-07-22T15:40:06Z</time>
      </trkpt>
      <trkpt lat="44.0713820" lon="7.5684700">
        <ele>1398.6</ele>
        <time>2017-07-22T15:40:07Z</time>
      </trkpt>
      <trkpt lat="44.0712970" lon="7.5684970">
        <ele>1399.8</ele>
        <time>2017-07-22T15:40:11Z</time>
      </trkpt>
      <trkpt lat="44.0711540" lon="7.5685370">
        <ele>1401.0</ele>
        <time>2017-07-22T15:40:17Z</time>
      </trkpt>
      <trkpt lat="44.0710340" lon="7.5685410">
        <ele>1402.2</ele>
        <time>2017-07-22T15:40:23Z</time>
      </trkpt>
      <trkpt lat="44.0710110" lon="7.5685440">
        <ele>1402.6</ele>
        <time>2017-07-22T15:40:24Z</time>
      </trkpt>
      <trkpt lat="44.0709270" lon="7.5685850">
        <ele>1403.4</ele>
        <time>2017-07-22T15:40:27Z</time>
      </trkpt>
      <trkpt lat="44.0708210" lon="7.5686140">
        <ele>1404.8</ele>
        <time>2017-07-22T15:40:31Z</time>
      </trkpt>
      <trkpt lat="44.0706800" lon="7.5686840">
        <ele>1406.0</ele>
        <time>2017-07-22T15:40:37Z</time>
      </trkpt>
      <trkpt lat="44.0705850" lon="7.5687540">
        <ele>1407.0</ele>
        <time>2017-07-22T15:40:41Z</time>
      </trkpt>
      <trkpt lat="44.0705600" lon="7.5687500">
        <ele>1407.2</ele>
        <time>2017-07-22T15:40:42Z</time>
      </trkpt>
      <trkpt lat="44.0705870" lon="7.5687230">
        <ele>1407.6</ele>
        <time>2017-07-22T15:40:45Z</time>
      </trkpt>
      <trkpt lat="44.0706420" lon="7.5686920">
        <ele>1407.8</ele>
        <time>2017-07-22T15:40:48Z</time>
      </trkpt>
      <trkpt lat="44.0706580" lon="7.5686770">
        <ele>1407.6</ele>
        <time>2017-07-22T15:40:49Z</time>
      </trkpt>
      <trkpt lat="44.0707620" lon="7.5685630">
        <ele>1408.0</ele>
        <time>2017-07-22T15:40:55Z</time>
      </trkpt>
      <trkpt lat="44.0707810" lon="7.5685400">
        <ele>1408.0</ele>
        <time>2017-07-22T15:40:56Z</time>
      </trkpt>
      <trkpt lat="44.0708910" lon="7.5684480">
        <ele>1409.2</ele>
        <time>2017-07-22T15:41:02Z</time>
      </trkpt>
      <trkpt lat="44.0709440" lon="7.5683930">
        <ele>1410.2</ele>
        <time>2017-07-22T15:41:05Z</time>
      </trkpt>
      <trkpt lat="44.0709940" lon="7.5683320">
        <ele>1411.4</ele>
        <time>2017-07-22T15:41:08Z</time>
      </trkpt>
      <trkpt lat="44.0710100" lon="7.5683100">
        <ele>1411.8</ele>
        <time>2017-07-22T15:41:09Z</time>
      </trkpt>
      <trkpt lat="44.0710470" lon="7.5682750">
        <ele>1412.6</ele>
        <time>2017-07-22T15:41:11Z</time>
      </trkpt>
      <trkpt lat="44.0711130" lon="7.5682340">
        <ele>1413.8</ele>
        <time>2017-07-22T15:41:14Z</time>
      </trkpt>
      <trkpt lat="44.0711790" lon="7.5681840">
        <ele>1414.8</ele>
        <time>2017-07-22T15:41:17Z</time>
      </trkpt>
      <trkpt lat="44.0711980" lon="7.5681700">
        <ele>1415.0</ele>
        <time>2017-07-22T15:41:18Z</time>
      </trkpt>
      <trkpt lat="44.0712370" lon="7.5681540">
        <ele>1416.0</ele>
        <time>2017-07-22T15:41:20Z</time>
      </trkpt>
      <trkpt lat="44.0713100" lon="7.5680900">
        <ele>1417.2</ele>
        <time>2017-07-22T15:41:24Z</time>
      </trkpt>
      <trkpt lat="44.0713760" lon="7.5679900">
        <ele>1418.2</ele>
        <time>2017-07-22T15:41:28Z</time>
      </trkpt>
      <trkpt lat="44.0714250" lon="7.5679220">
        <ele>1419.2</ele>
        <time>2017-07-22T15:41:31Z</time>
      </trkpt>
      <trkpt lat="44.0714430" lon="7.5678960">
        <ele>1419.4</ele>
        <time>2017-07-22T15:41:32Z</time>
      </trkpt>
      <trkpt lat="44.0715110" lon="7.5677950">
        <ele>1420.6</ele>
        <time>2017-07-22T15:41:36Z</time>
      </trkpt>
      <trkpt lat="44.0715280" lon="7.5677760">
        <ele>1420.8</ele>
        <time>2017-07-22T15:41:37Z</time>
      </trkpt>
      <trkpt lat="44.0715820" lon="7.5676830">
        <ele>1421.8</ele>
        <time>2017-07-22T15:41:41Z</time>
      </trkpt>
      <trkpt lat="44.0716140" lon="7.5676310">
        <ele>1422.8</ele>
        <time>2017-07-22T15:41:43Z</time>
      </trkpt>
      <trkpt lat="44.0716890" lon="7.5675130">
        <ele>1424.2</ele>
        <time>2017-07-22T15:41:48Z</time>
      </trkpt>
      <trkpt lat="44.0717170" lon="7.5674390">
        <ele>1425.4</ele>
        <time>2017-07-22T15:41:51Z</time>
      </trkpt>
      <trkpt lat="44.0717220" lon="7.5674190">
        <ele>1425.6</ele>
        <time>2017-07-22T15:41:52Z</time>
      </trkpt>
      <trkpt lat="44.0717420" lon="7.5673490">
        <ele>1426.4</ele>
        <time>2017-07-22T15:41:55Z</time>
      </trkpt>
      <trkpt lat="44.0717700" lon="7.5672460">
        <ele>1427.4</ele>
        <time>2017-07-22T15:41:59Z</time>
      </trkpt>
      <trkpt lat="44.0717760" lon="7.5672210">
        <ele>1427.8</ele>
        <time>2017-07-22T15:42:00Z</time>
      </trkpt>
      <trkpt lat="44.0717860" lon="7.5671380">
        <ele>1428.8</ele>
        <time>2017-07-22T15:42:03Z</time>
      </trkpt>
      <trkpt lat="44.0718110" lon="7.5670230">
        <ele>1430.2</ele>
        <time>2017-07-22T15:42:07Z</time>
      </trkpt>
      <trkpt lat="44.0718400" lon="7.5669180">
        <ele>1431.4</ele>
        <time>2017-07-22T15:42:11Z</time>
      </trkpt>
      <trkpt lat="44.0718560" lon="7.5668780">
        <ele>1431.8</ele>
        <time>2017-07-22T15:42:13Z</time>
      </trkpt>
      <trkpt lat="44.0718890" lon="7.5668030">
        <ele>1432.6</ele>
        <time>2017-07-22T15:42:16Z</time>
      </trkpt>
      <trkpt lat="44.0719240" lon="7.5667350">
        <ele>1433.4</ele>
        <time>2017-07-22T15:42:19Z</time>
      </trkpt>
      <trkpt lat="44.0719430" lon="7.5667000">
        <ele>1433.8</ele>
        <time>2017-07-22T15:42:21Z</time>
      </trkpt>
      <trkpt lat="44.0719730" lon="7.5666630">
        <ele>1434.6</ele>
        <time>2017-07-22T15:42:24Z</time>
      </trkpt>
      <trkpt lat="44.0719980" lon="7.5666290">
        <ele>1435.0</ele>
        <time>2017-07-22T15:42:26Z</time>
      </trkpt>
      <trkpt lat="44.0720710" lon="7.5665510">
        <ele>1436.0</ele>
        <time>2017-07-22T15:42:30Z</time>
      </trkpt>
      <trkpt lat="44.0720880" lon="7.5665330">
        <ele>1436.4</ele>
        <time>2017-07-22T15:42:31Z</time>
      </trkpt>
      <trkpt lat="44.0721310" lon="7.5664710">
        <ele>1437.2</ele>
        <time>2017-07-22T15:42:34Z</time>
      </trkpt>
      <trkpt lat="44.0721910" lon="7.5663920">
        <ele>1438.2</ele>
        <time>2017-07-22T15:42:38Z</time>
      </trkpt>
      <trkpt lat="44.0722060" lon="7.5663710">
        <ele>1438.6</ele>
        <time>2017-07-22T15:42:39Z</time>
      </trkpt>
      <trkpt lat="44.0722680" lon="7.5663000">
        <ele>1439.4</ele>
        <time>2017-07-22T15:42:43Z</time>
      </trkpt>
      <trkpt lat="44.0722840" lon="7.5662810">
        <ele>1439.8</ele>
        <time>2017-07-22T15:42:44Z</time>
      </trkpt>
      <trkpt lat="44.0723010" lon="7.5662620">
        <ele>1440.2</ele>
        <time>2017-07-22T15:42:45Z</time>
      </trkpt>
      <trkpt lat="44.0723580" lon="7.5662040">
        <ele>1441.0</ele>
        <time>2017-07-22T15:42:49Z</time>
      </trkpt>
      <trkpt lat="44.0723950" lon="7.5661340">
        <ele>1441.8</ele>
        <time>2017-07-22T15:42:52Z</time>
      </trkpt>
      <trkpt lat="44.0724080" lon="7.5661080">
        <ele>1442.0</ele>
        <time>2017-07-22T15:42:53Z</time>
      </trkpt>
      <trkpt lat="44.0724670" lon="7.5660170">
        <ele>1443.2</ele>
        <time>2017-07-22T15:42:57Z</time>
      </trkpt>
      <trkpt lat="44.0725030" lon="7.5659760">
        <ele>1443.8</ele>
        <time>2017-07-22T15:42:59Z</time>
      </trkpt>
      <trkpt lat="44.0725360" lon="7.5659290">
        <ele>1444.4</ele>
        <time>2017-07-22T15:43:01Z</time>
      </trkpt>
      <trkpt lat="44.0726000" lon="7.5658080">
        <ele>1445.6</ele>
        <time>2017-07-22T15:43:06Z</time>
      </trkpt>
      <trkpt lat="44.0726100" lon="7.5657850">
        <ele>1445.6</ele>
        <time>2017-07-22T15:43:07Z</time>
      </trkpt>
      <trkpt lat="44.0726440" lon="7.5657160">
        <ele>1446.6</ele>
        <time>2017-07-22T15:43:10Z</time>
      </trkpt>
      <trkpt lat="44.0726850" lon="7.5656500">
        <ele>1447.4</ele>
        <time>2017-07-22T15:43:13Z</time>
      </trkpt>
      <trkpt lat="44.0727010" lon="7.5656310">
        <ele>1447.6</ele>
        <time>2017-07-22T15:43:14Z</time>
      </trkpt>
      <trkpt lat="44.0727550" lon="7.5655370">
        <ele>1448.8</ele>
        <time>2017-07-22T15:43:19Z</time>
      </trkpt>
      <trkpt lat="44.0727980" lon="7.5654630">
        <ele>1449.8</ele>
        <time>2017-07-22T15:43:22Z</time>
      </trkpt>
      <trkpt lat="44.0728540" lon="7.5653780">
        <ele>1451.0</ele>
        <time>2017-07-22T15:43:26Z</time>
      </trkpt>
      <trkpt lat="44.0729100" lon="7.5652770">
        <ele>1451.8</ele>
        <time>2017-07-22T15:43:30Z</time>
      </trkpt>
      <trkpt lat="44.0729240" lon="7.5652570">
        <ele>1452.0</ele>
        <time>2017-07-22T15:43:31Z</time>
      </trkpt>
      <trkpt lat="44.0729850" lon="7.5651530">
        <ele>1453.2</ele>
        <time>2017-07-22T15:43:36Z</time>
      </trkpt>
      <trkpt lat="44.0730000" lon="7.5651270">
        <ele>1453.4</ele>
        <time>2017-07-22T15:43:37Z</time>
      </trkpt>
      <trkpt lat="44.0730310" lon="7.5650550">
        <ele>1454.4</ele>
        <time>2017-07-22T15:43:40Z</time>
      </trkpt>
      <trkpt lat="44.0730820" lon="7.5649650">
        <ele>1455.4</ele>
        <time>2017-07-22T15:43:44Z</time>
      </trkpt>
      <trkpt lat="44.0731260" lon="7.5648800">
        <ele>1456.4</ele>
        <time>2017-07-22T15:43:48Z</time>
      </trkpt>
      <trkpt lat="44.0731730" lon="7.5648160">
        <ele>1457.2</ele>
        <time>2017-07-22T15:43:51Z</time>
      </trkpt>
      <trkpt lat="44.0731840" lon="7.5647970">
        <ele>1457.4</ele>
        <time>2017-07-22T15:43:52Z</time>
      </trkpt>
      <trkpt lat="44.0732400" lon="7.5646920">
        <ele>1458.6</ele>
        <time>2017-07-22T15:43:57Z</time>
      </trkpt>
      <trkpt lat="44.0732730" lon="7.5646210">
        <ele>1459.2</ele>
        <time>2017-07-22T15:44:00Z</time>
      </trkpt>
      <trkpt lat="44.0732950" lon="7.5645650">
        <ele>1459.6</ele>
        <time>2017-07-22T15:44:02Z</time>
      </trkpt>
      <trkpt lat="44.0733140" lon="7.5644850">
        <ele>1460.2</ele>
        <time>2017-07-22T15:44:05Z</time>
      </trkpt>
      <trkpt lat="44.0733150" lon="7.5644340">
        <ele>1460.8</ele>
        <time>2017-07-22T15:44:07Z</time>
      </trkpt>
      <trkpt lat="44.0733150" lon="7.5643520">
        <ele>1461.8</ele>
        <time>2017-07-22T15:44:10Z</time>
      </trkpt>
      <trkpt lat="44.0733260" lon="7.5642880">
        <ele>1462.2</ele>
        <time>2017-07-22T15:44:12Z</time>
      </trkpt>
      <trkpt lat="44.0733470" lon="7.5642010">
        <ele>1463.0</ele>
        <time>2017-07-22T15:44:15Z</time>
      </trkpt>
      <trkpt lat="44.0733740" lon="7.5641050">
        <ele>1464.0</ele>
        <time>2017-07-22T15:44:19Z</time>
      </trkpt>
      <trkpt lat="44.0733890" lon="7.5640570">
        <ele>1464.4</ele>
        <time>2017-07-22T15:44:21Z</time>
      </trkpt>
      <trkpt lat="44.0734100" lon="7.5639770">
        <ele>1465.0</ele>
        <time>2017-07-22T15:44:24Z</time>
      </trkpt>
      <trkpt lat="44.0734270" lon="7.5638630">
        <ele>1466.0</ele>
        <time>2017-07-22T15:44:28Z</time>
      </trkpt>
      <trkpt lat="44.0734260" lon="7.5638140">
        <ele>1466.4</ele>
        <time>2017-07-22T15:44:30Z</time>
      </trkpt>
      <trkpt lat="44.0734230" lon="7.5637690">
        <ele>1467.0</ele>
        <time>2017-07-22T15:44:32Z</time>
      </trkpt>
      <trkpt lat="44.0734390" lon="7.5636620">
        <ele>1468.0</ele>
        <time>2017-07-22T15:44:36Z</time>
      </trkpt>
      <trkpt lat="44.0734470" lon="7.5636400">
        <ele>1468.4</ele>
        <time>2017-07-22T15:44:37Z</time>
      </trkpt>
      <trkpt lat="44.0734730" lon="7.5635620">
        <ele>1469.4</ele>
        <time>2017-07-22T15:44:41Z</time>
      </trkpt>
      <trkpt lat="44.0734920" lon="7.5635240">
        <ele>1469.8</ele>
        <time>2017-07-22T15:44:43Z</time>
      </trkpt>
      <trkpt lat="44.0735280" lon="7.5634760">
        <ele>1470.6</ele>
        <time>2017-07-22T15:44:46Z</time>
      </trkpt>
      <trkpt lat="44.0735940" lon="7.5634190">
        <ele>1471.8</ele>
        <time>2017-07-22T15:44:50Z</time>
      </trkpt>
      <trkpt lat="44.0736500" lon="7.5633900">
        <ele>1472.8</ele>
        <time>2017-07-22T15:44:54Z</time>
      </trkpt>
      <trkpt lat="44.0738190" lon="7.5633610">
        <ele>1474.4</ele>
        <time>2017-07-22T15:45:03Z</time>
      </trkpt>
      <trkpt lat="44.0739140" lon="7.5633150">
        <ele>1474.6</ele>
        <time>2017-07-22T15:45:07Z</time>
      </trkpt>
      <trkpt lat="44.0739800" lon="7.5632460">
        <ele>1475.0</ele>
        <time>2017-07-22T15:45:11Z</time>
      </trkpt>
      <trkpt lat="44.0740260" lon="7.5631850">
        <ele>1475.6</ele>
        <time>2017-07-22T15:45:14Z</time>
      </trkpt>
      <trkpt lat="44.0741040" lon="7.5631140">
        <ele>1476.2</ele>
        <time>2017-07-22T15:45:18Z</time>
      </trkpt>
      <trkpt lat="44.0741420" lon="7.5630530">
        <ele>1477.2</ele>
        <time>2017-07-22T15:45:21Z</time>
      </trkpt>
      <trkpt lat="44.0741570" lon="7.5630380">
        <ele>1477.6</ele>
        <time>2017-07-22T15:45:22Z</time>
      </trkpt>
      <trkpt lat="44.0741920" lon="7.5629760">
        <ele>1478.8</ele>
        <time>2017-07-22T15:45:25Z</time>
      </trkpt>
      <trkpt lat="44.0742280" lon="7.5629010">
        <ele>1479.8</ele>
        <time>2017-07-22T15:45:28Z</time>
      </trkpt>
      <trkpt lat="44.0742410" lon="7.5628770">
        <ele>1480.0</ele>
        <time>2017-07-22T15:45:29Z</time>
      </trkpt>
      <trkpt lat="44.0742760" lon="7.5628240">
        <ele>1480.8</ele>
        <time>2017-07-22T15:45:32Z</time>
      </trkpt>
      <trkpt lat="44.0743450" lon="7.5627380">
        <ele>1481.8</ele>
        <time>2017-07-22T15:45:36Z</time>
      </trkpt>
      <trkpt lat="44.0744000" lon="7.5626560">
        <ele>1483.0</ele>
        <time>2017-07-22T15:45:40Z</time>
      </trkpt>
      <trkpt lat="44.0744270" lon="7.5626120">
        <ele>1483.4</ele>
        <time>2017-07-22T15:45:42Z</time>
      </trkpt>
      <trkpt lat="44.0744620" lon="7.5625740">
        <ele>1484.0</ele>
        <time>2017-07-22T15:45:44Z</time>
      </trkpt>
      <trkpt lat="44.0745240" lon="7.5624970">
        <ele>1485.0</ele>
        <time>2017-07-22T15:45:48Z</time>
      </trkpt>
      <trkpt lat="44.0745360" lon="7.5624800">
        <ele>1485.4</ele>
        <time>2017-07-22T15:45:49Z</time>
      </trkpt>
      <trkpt lat="44.0745750" lon="7.5624320">
        <ele>1486.0</ele>
        <time>2017-07-22T15:45:52Z</time>
      </trkpt>
      <trkpt lat="44.0746310" lon="7.5623560">
        <ele>1487.2</ele>
        <time>2017-07-22T15:45:56Z</time>
      </trkpt>
      <trkpt lat="44.0746960" lon="7.5622610">
        <ele>1488.2</ele>
        <time>2017-07-22T15:46:01Z</time>
      </trkpt>
      <trkpt lat="44.0747280" lon="7.5622110">
        <ele>1488.6</ele>
        <time>2017-07-22T15:46:03Z</time>
      </trkpt>
      <trkpt lat="44.0747640" lon="7.5621370">
        <ele>1489.4</ele>
        <time>2017-07-22T15:46:06Z</time>
      </trkpt>
      <trkpt lat="44.0748040" lon="7.5620490">
        <ele>1490.4</ele>
        <time>2017-07-22T15:46:10Z</time>
      </trkpt>
      <trkpt lat="44.0748150" lon="7.5620260">
        <ele>1490.8</ele>
        <time>2017-07-22T15:46:11Z</time>
      </trkpt>
      <trkpt lat="44.0748570" lon="7.5619660">
        <ele>1491.6</ele>
        <time>2017-07-22T15:46:14Z</time>
      </trkpt>
      <trkpt lat="44.0749230" lon="7.5619100">
        <ele>1492.4</ele>
        <time>2017-07-22T15:46:18Z</time>
      </trkpt>
      <trkpt lat="44.0749630" lon="7.5619080">
        <ele>1492.8</ele>
        <time>2017-07-22T15:46:20Z</time>
      </trkpt>
      <trkpt lat="44.0750320" lon="7.5619030">
        <ele>1493.8</ele>
        <time>2017-07-22T15:46:24Z</time>
      </trkpt>
      <trkpt lat="44.0750490" lon="7.5619050">
        <ele>1493.8</ele>
        <time>2017-07-22T15:46:25Z</time>
      </trkpt>
      <trkpt lat="44.0751080" lon="7.5618980">
        <ele>1495.0</ele>
        <time>2017-07-22T15:46:29Z</time>
      </trkpt>
      <trkpt lat="44.0751470" lon="7.5618900">
        <ele>1495.4</ele>
        <time>2017-07-22T15:46:31Z</time>
      </trkpt>
      <trkpt lat="44.0751620" lon="7.5618870">
        <ele>1496.0</ele>
        <time>2017-07-22T15:46:32Z</time>
      </trkpt>
      <trkpt lat="44.0752210" lon="7.5618620">
        <ele>1497.0</ele>
        <time>2017-07-22T15:46:36Z</time>
      </trkpt>
      <trkpt lat="44.0752420" lon="7.5618630">
        <ele>1497.4</ele>
        <time>2017-07-22T15:46:37Z</time>
      </trkpt>
      <trkpt lat="44.0753180" lon="7.5618460">
        <ele>1498.2</ele>
        <time>2017-07-22T15:46:41Z</time>
      </trkpt>
      <trkpt lat="44.0754010" lon="7.5617810">
        <ele>1499.4</ele>
        <time>2017-07-22T15:46:47Z</time>
      </trkpt>
      <trkpt lat="44.0754540" lon="7.5617770">
        <ele>1499.6</ele>
        <time>2017-07-22T15:46:50Z</time>
      </trkpt>
      <trkpt lat="44.0755000" lon="7.5617900">
        <ele>1499.8</ele>
        <time>2017-07-22T15:46:52Z</time>
      </trkpt>
      <trkpt lat="44.0755730" lon="7.5618030">
        <ele>1500.6</ele>
        <time>2017-07-22T15:46:56Z</time>
      </trkpt>
      <trkpt lat="44.0756410" lon="7.5618250">
        <ele>1501.0</ele>
        <time>2017-07-22T15:47:00Z</time>
      </trkpt>
      <trkpt lat="44.0757090" lon="7.5618430">
        <ele>1501.6</ele>
        <time>2017-07-22T15:47:03Z</time>
      </trkpt>
      <trkpt lat="44.0757720" lon="7.5618600">
        <ele>1502.8</ele>
        <time>2017-07-22T15:47:07Z</time>
      </trkpt>
      <trkpt lat="44.0757920" lon="7.5618690">
        <ele>1503.0</ele>
        <time>2017-07-22T15:47:08Z</time>
      </trkpt>
      <trkpt lat="44.0758820" lon="7.5619270">
        <ele>1503.8</ele>
        <time>2017-07-22T15:47:14Z</time>
      </trkpt>
      <trkpt lat="44.0759420" lon="7.5619660">
        <ele>1505.0</ele>
        <time>2017-07-22T15:47:18Z</time>
      </trkpt>
      <trkpt lat="44.0759940" lon="7.5619970">
        <ele>1505.6</ele>
        <time>2017-07-22T15:47:21Z</time>
      </trkpt>
      <trkpt lat="44.0760110" lon="7.5620060">
        <ele>1506.0</ele>
        <time>2017-07-22T15:47:22Z</time>
      </trkpt>
      <trkpt lat="44.0760280" lon="7.5620120">
        <ele>1506.4</ele>
        <time>2017-07-22T15:47:23Z</time>
      </trkpt>
      <trkpt lat="44.0760560" lon="7.5620190">
        <ele>1507.2</ele>
        <time>2017-07-22T15:47:25Z</time>
      </trkpt>
      <trkpt lat="44.0760900" lon="7.5620380">
        <ele>1508.0</ele>
        <time>2017-07-22T15:47:27Z</time>
      </trkpt>
      <trkpt lat="44.0761090" lon="7.5620500">
        <ele>1508.4</ele>
        <time>2017-07-22T15:47:28Z</time>
      </trkpt>
      <trkpt lat="44.0761590" lon="7.5620610">
        <ele>1509.8</ele>
        <time>2017-07-22T15:47:31Z</time>
      </trkpt>
      <trkpt lat="44.0762130" lon="7.5620780">
        <ele>1511.0</ele>
        <time>2017-07-22T15:47:34Z</time>
      </trkpt>
      <trkpt lat="44.0762360" lon="7.5620920">
        <ele>1511.4</ele>
        <time>2017-07-22T15:47:35Z</time>
      </trkpt>
      <trkpt lat="44.0762800" lon="7.5621210">
        <ele>1512.2</ele>
        <time>2017-07-22T15:47:37Z</time>
      </trkpt>
      <trkpt lat="44.0763200" lon="7.5621400">
        <ele>1512.8</ele>
        <time>2017-07-22T15:47:39Z</time>
      </trkpt>
      <trkpt lat="44.0763460" lon="7.5621520">
        <ele>1513.2</ele>
        <time>2017-07-22T15:47:40Z</time>
      </trkpt>
      <trkpt lat="44.0763990" lon="7.5621780">
        <ele>1513.8</ele>
        <time>2017-07-22T15:47:42Z</time>
      </trkpt>
      <trkpt lat="44.0764460" lon="7.5621930">
        <ele>1514.8</ele>
        <time>2017-07-22T15:47:44Z</time>
      </trkpt>
      <trkpt lat="44.0765220" lon="7.5622040">
        <ele>1516.0</ele>
        <time>2017-07-22T15:47:48Z</time>
      </trkpt>
      <trkpt lat="44.0765410" lon="7.5622040">
        <ele>1516.2</ele>
        <time>2017-07-22T15:47:49Z</time>
      </trkpt>
      <trkpt lat="44.0766080" lon="7.5622070">
        <ele>1517.4</ele>
        <time>2017-07-22T15:47:52Z</time>
      </trkpt>
      <trkpt lat="44.0766860" lon="7.5622110">
        <ele>1518.6</ele>
        <time>2017-07-22T15:47:56Z</time>
      </trkpt>
      <trkpt lat="44.0767100" lon="7.5622070">
        <ele>1518.8</ele>
        <time>2017-07-22T15:47:57Z</time>
      </trkpt>
      <trkpt lat="44.0767650" lon="7.5621880">
        <ele>1519.6</ele>
        <time>2017-07-22T15:48:00Z</time>
      </trkpt>
      <trkpt lat="44.0768410" lon="7.5621540">
        <ele>1521.0</ele>
        <time>2017-07-22T15:48:05Z</time>
      </trkpt>
      <trkpt lat="44.0768960" lon="7.5621230">
        <ele>1522.2</ele>
        <time>2017-07-22T15:48:09Z</time>
      </trkpt>
      <trkpt lat="44.0769720" lon="7.5620980">
        <ele>1523.4</ele>
        <time>2017-07-22T15:48:13Z</time>
      </trkpt>
      <trkpt lat="44.0770510" lon="7.5621150">
        <ele>1524.6</ele>
        <time>2017-07-22T15:48:17Z</time>
      </trkpt>
      <trkpt lat="44.0772580" lon="7.5621450">
        <ele>1525.8</ele>
        <time>2017-07-22T15:48:27Z</time>
      </trkpt>
      <trkpt lat="44.0774100" lon="7.5621040">
        <ele>1526.8</ele>
        <time>2017-07-22T15:48:34Z</time>
      </trkpt>
      <trkpt lat="44.0775230" lon="7.5620510">
        <ele>1528.0</ele>
        <time>2017-07-22T15:48:40Z</time>
      </trkpt>
      <trkpt lat="44.0775620" lon="7.5620000">
        <ele>1528.6</ele>
        <time>2017-07-22T15:48:43Z</time>
      </trkpt>
      <trkpt lat="44.0775910" lon="7.5619770">
        <ele>1529.4</ele>
        <time>2017-07-22T15:48:45Z</time>
      </trkpt>
      <trkpt lat="44.0776300" lon="7.5619730">
        <ele>1530.2</ele>
        <time>2017-07-22T15:48:47Z</time>
      </trkpt>
      <trkpt lat="44.0776490" lon="7.5619680">
        <ele>1530.6</ele>
        <time>2017-07-22T15:48:48Z</time>
      </trkpt>
      <trkpt lat="44.0777020" lon="7.5619430">
        <ele>1531.6</ele>
        <time>2017-07-22T15:48:51Z</time>
      </trkpt>
      <trkpt lat="44.0777450" lon="7.5619180">
        <ele>1532.8</ele>
        <time>2017-07-22T15:48:54Z</time>
      </trkpt>
      <trkpt lat="44.0777820" lon="7.5618860">
        <ele>1534.0</ele>
        <time>2017-07-22T15:48:57Z</time>
      </trkpt>
      <trkpt lat="44.0778350" lon="7.5618510">
        <ele>1535.2</ele>
        <time>2017-07-22T15:49:01Z</time>
      </trkpt>
      <trkpt lat="44.0778710" lon="7.5618120">
        <ele>1536.2</ele>
        <time>2017-07-22T15:49:04Z</time>
      </trkpt>
      <trkpt lat="44.0779340" lon="7.5617330">
        <ele>1537.6</ele>
        <time>2017-07-22T15:49:09Z</time>
      </trkpt>
      <trkpt lat="44.0779760" lon="7.5616800">
        <ele>1538.6</ele>
        <time>2017-07-22T15:49:12Z</time>
      </trkpt>
      <trkpt lat="44.0780420" lon="7.5616050">
        <ele>1540.0</ele>
        <time>2017-07-22T15:49:17Z</time>
      </trkpt>
      <trkpt lat="44.0780960" lon="7.5615660">
        <ele>1541.0</ele>
        <time>2017-07-22T15:49:20Z</time>
      </trkpt>
      <trkpt lat="44.0781110" lon="7.5615540">
        <ele>1541.2</ele>
        <time>2017-07-22T15:49:21Z</time>
      </trkpt>
      <trkpt lat="44.0781960" lon="7.5614750">
        <ele>1542.4</ele>
        <time>2017-07-22T15:49:26Z</time>
      </trkpt>
      <trkpt lat="44.0782240" lon="7.5614470">
        <ele>1543.0</ele>
        <time>2017-07-22T15:49:28Z</time>
      </trkpt>
      <trkpt lat="44.0782580" lon="7.5614160">
        <ele>1543.4</ele>
        <time>2017-07-22T15:49:30Z</time>
      </trkpt>
      <trkpt lat="44.0783340" lon="7.5613240">
        <ele>1544.8</ele>
        <time>2017-07-22T15:49:35Z</time>
      </trkpt>
      <trkpt lat="44.0783490" lon="7.5613130">
        <ele>1545.0</ele>
        <time>2017-07-22T15:49:36Z</time>
      </trkpt>
      <trkpt lat="44.0783610" lon="7.5612950">
        <ele>1545.2</ele>
        <time>2017-07-22T15:49:37Z</time>
      </trkpt>
      <trkpt lat="44.0784060" lon="7.5612200">
        <ele>1546.0</ele>
        <time>2017-07-22T15:49:40Z</time>
      </trkpt>
      <trkpt lat="44.0784630" lon="7.5611490">
        <ele>1546.6</ele>
        <time>2017-07-22T15:49:43Z</time>
      </trkpt>
      <trkpt lat="44.0784850" lon="7.5611280">
        <ele>1547.0</ele>
        <time>2017-07-22T15:49:44Z</time>
      </trkpt>
      <trkpt lat="44.0785590" lon="7.5610730">
        <ele>1548.4</ele>
        <time>2017-07-22T15:49:49Z</time>
      </trkpt>
      <trkpt lat="44.0785670" lon="7.5610670">
        <ele>1547.0</ele>
        <time>2017-07-22T15:49:50Z</time>
      </trkpt>
      <trkpt lat="44.0786040" lon="7.5610260">
        <ele>1548.2</ele>
        <time>2017-07-22T15:49:53Z</time>
      </trkpt>
      <trkpt lat="44.0786450" lon="7.5609900">
        <ele>1548.8</ele>
        <time>2017-07-22T15:49:56Z</time>
      </trkpt>
      <trkpt lat="44.0787050" lon="7.5608830">
        <ele>1549.4</ele>
        <time>2017-07-22T15:50:00Z</time>
      </trkpt>
      <trkpt lat="44.0787300" lon="7.5608450">
        <ele>1549.6</ele>
        <time>2017-07-22T15:50:02Z</time>
      </trkpt>
      <trkpt lat="44.0787830" lon="7.5607580">
        <ele>1550.6</ele>
        <time>2017-07-22T15:50:07Z</time>
      </trkpt>
      <trkpt lat="44.0788080" lon="7.5607200">
        <ele>1551.8</ele>
        <time>2017-07-22T15:50:09Z</time>
      </trkpt>
      <trkpt lat="44.0788290" lon="7.5606560">
        <ele>1553.2</ele>
        <time>2017-07-22T15:50:12Z</time>
      </trkpt>
      <trkpt lat="44.0788540" lon="7.5605950">
        <ele>1554.2</ele>
        <time>2017-07-22T15:50:15Z</time>
      </trkpt>
      <trkpt lat="44.0788700" lon="7.5605580">
        <ele>1554.8</ele>
        <time>2017-07-22T15:50:17Z</time>
      </trkpt>
      <trkpt lat="44.0792290" lon="7.5600210">
        <ele>1564.4</ele>
        <time>2017-07-22T15:50:51Z</time>
      </trkpt>
      <trkpt lat="44.0792760" lon="7.5599450">
        <ele>1565.2</ele>
        <time>2017-07-22T15:50:54Z</time>
      </trkpt>
      <trkpt lat="44.0793030" lon="7.5598890">
        <ele>1565.4</ele>
        <time>2017-07-22T15:50:56Z</time>
      </trkpt>
      <trkpt lat="44.0793610" lon="7.5597450">
        <ele>1566.2</ele>
        <time>2017-07-22T15:51:01Z</time>
      </trkpt>
      <trkpt lat="44.0793780" lon="7.5596680">
        <ele>1566.6</ele>
        <time>2017-07-22T15:51:04Z</time>
      </trkpt>
      <trkpt lat="44.0794020" lon="7.5595770">
        <ele>1567.6</ele>
        <time>2017-07-22T15:51:08Z</time>
      </trkpt>
      <trkpt lat="44.0794120" lon="7.5595560">
        <ele>1568.0</ele>
        <time>2017-07-22T15:51:09Z</time>
      </trkpt>
      <trkpt lat="44.0794270" lon="7.5595120">
        <ele>1568.8</ele>
        <time>2017-07-22T15:51:11Z</time>
      </trkpt>
      <trkpt lat="44.0794550" lon="7.5594710">
        <ele>1570.0</ele>
        <time>2017-07-22T15:51:14Z</time>
      </trkpt>
      <trkpt lat="44.0794700" lon="7.5594630">
        <ele>1570.2</ele>
        <time>2017-07-22T15:51:15Z</time>
      </trkpt>
      <trkpt lat="44.0795090" lon="7.5594300">
        <ele>1571.2</ele>
        <time>2017-07-22T15:51:18Z</time>
      </trkpt>
      <trkpt lat="44.0795550" lon="7.5594030">
        <ele>1572.4</ele>
        <time>2017-07-22T15:51:21Z</time>
      </trkpt>
      <trkpt lat="44.0795930" lon="7.5593820">
        <ele>1573.2</ele>
        <time>2017-07-22T15:51:24Z</time>
      </trkpt>
      <trkpt lat="44.0796040" lon="7.5593750">
        <ele>1573.6</ele>
        <time>2017-07-22T15:51:25Z</time>
      </trkpt>
      <trkpt lat="44.0796530" lon="7.5593260">
        <ele>1574.8</ele>
        <time>2017-07-22T15:51:29Z</time>
      </trkpt>
      <trkpt lat="44.0796830" lon="7.5593020">
        <ele>1575.4</ele>
        <time>2017-07-22T15:51:31Z</time>
      </trkpt>
      <trkpt lat="44.0797210" lon="7.5592590">
        <ele>1576.2</ele>
        <time>2017-07-22T15:51:34Z</time>
      </trkpt>
      <trkpt lat="44.0797740" lon="7.5592080">
        <ele>1577.0</ele>
        <time>2017-07-22T15:51:38Z</time>
      </trkpt>
      <trkpt lat="44.0797910" lon="7.5591870">
        <ele>1577.4</ele>
        <time>2017-07-22T15:51:39Z</time>
      </trkpt>
      <trkpt lat="44.0798630" lon="7.5590910">
        <ele>1578.8</ele>
        <time>2017-07-22T15:51:44Z</time>
      </trkpt>
      <trkpt lat="44.0798760" lon="7.5590730">
        <ele>1579.0</ele>
        <time>2017-07-22T15:51:45Z</time>
      </trkpt>
      <trkpt lat="44.0799100" lon="7.5590360">
        <ele>1579.8</ele>
        <time>2017-07-22T15:51:48Z</time>
      </trkpt>
      <trkpt lat="44.0799300" lon="7.5590100">
        <ele>1580.2</ele>
        <time>2017-07-22T15:51:50Z</time>
      </trkpt>
      <trkpt lat="44.0799720" lon="7.5589880">
        <ele>1580.8</ele>
        <time>2017-07-22T15:51:53Z</time>
      </trkpt>
      <trkpt lat="44.0800150" lon="7.5589620">
        <ele>1581.6</ele>
        <time>2017-07-22T15:51:56Z</time>
      </trkpt>
      <trkpt lat="44.0800430" lon="7.5589410">
        <ele>1582.0</ele>
        <time>2017-07-22T15:51:58Z</time>
      </trkpt>
      <trkpt lat="44.0801140" lon="7.5589040">
        <ele>1583.0</ele>
        <time>2017-07-22T15:52:03Z</time>
      </trkpt>
      <trkpt lat="44.0801880" lon="7.5588520">
        <ele>1584.2</ele>
        <time>2017-07-22T15:52:08Z</time>
      </trkpt>
      <trkpt lat="44.0802170" lon="7.5588360">
        <ele>1584.6</ele>
        <time>2017-07-22T15:52:10Z</time>
      </trkpt>
      <trkpt lat="44.0802620" lon="7.5588060">
        <ele>1585.4</ele>
        <time>2017-07-22T15:52:13Z</time>
      </trkpt>
      <trkpt lat="44.0803180" lon="7.5587590">
        <ele>1586.4</ele>
        <time>2017-07-22T15:52:17Z</time>
      </trkpt>
      <trkpt lat="44.0803810" lon="7.5587200">
        <ele>1587.4</ele>
        <time>2017-07-22T15:52:22Z</time>
      </trkpt>
      <trkpt lat="44.0804130" lon="7.5587070">
        <ele>1588.0</ele>
        <time>2017-07-22T15:52:24Z</time>
      </trkpt>
      <trkpt lat="44.0804270" lon="7.5586980">
        <ele>1588.4</ele>
        <time>2017-07-22T15:52:25Z</time>
      </trkpt>
      <trkpt lat="44.0804410" lon="7.5586900">
        <ele>1588.6</ele>
        <time>2017-07-22T15:52:26Z</time>
      </trkpt>
      <trkpt lat="44.0805170" lon="7.5586630">
        <ele>1589.8</ele>
        <time>2017-07-22T15:52:31Z</time>
      </trkpt>
      <trkpt lat="44.0805500" lon="7.5586430">
        <ele>1590.6</ele>
        <time>2017-07-22T15:52:33Z</time>
      </trkpt>
      <trkpt lat="44.0805780" lon="7.5586170">
        <ele>1591.0</ele>
        <time>2017-07-22T15:52:35Z</time>
      </trkpt>
      <trkpt lat="44.0806680" lon="7.5585210">
        <ele>1592.0</ele>
        <time>2017-07-22T15:52:40Z</time>
      </trkpt>
      <trkpt lat="44.0807430" lon="7.5584020">
        <ele>1593.2</ele>
        <time>2017-07-22T15:52:46Z</time>
      </trkpt>
      <trkpt lat="44.0807580" lon="7.5583850">
        <ele>1593.4</ele>
        <time>2017-07-22T15:52:47Z</time>
      </trkpt>
      <trkpt lat="44.0808000" lon="7.5582940">
        <ele>1594.4</ele>
        <time>2017-07-22T15:52:51Z</time>
      </trkpt>
      <trkpt lat="44.0808420" lon="7.5581800">
        <ele>1595.6</ele>
        <time>2017-07-22T15:52:56Z</time>
      </trkpt>
      <trkpt lat="44.0808810" lon="7.5580920">
        <ele>1596.8</ele>
        <time>2017-07-22T15:53:01Z</time>
      </trkpt>
      <trkpt lat="44.0808920" lon="7.5580000">
        <ele>1597.4</ele>
        <time>2017-07-22T15:53:06Z</time>
      </trkpt>
      <trkpt lat="44.0809060" lon="7.5579180">
        <ele>1597.4</ele>
        <time>2017-07-22T15:53:10Z</time>
      </trkpt>
      <trkpt lat="44.0809360" lon="7.5578440">
        <ele>1597.8</ele>
        <time>2017-07-22T15:53:15Z</time>
      </trkpt>
      <trkpt lat="44.0809540" lon="7.5577990">
        <ele>1598.2</ele>
        <time>2017-07-22T15:53:18Z</time>
      </trkpt>
      <trkpt lat="44.0809650" lon="7.5577620">
        <ele>1598.8</ele>
        <time>2017-07-22T15:53:20Z</time>
      </trkpt>
      <trkpt lat="44.0809930" lon="7.5577130">
        <ele>1599.4</ele>
        <time>2017-07-22T15:53:23Z</time>
      </trkpt>
      <trkpt lat="44.0810170" lon="7.5576730">
        <ele>1600.0</ele>
        <time>2017-07-22T15:53:25Z</time>
      </trkpt>
      <trkpt lat="44.0810410" lon="7.5576390">
        <ele>1600.8</ele>
        <time>2017-07-22T15:53:27Z</time>
      </trkpt>
      <trkpt lat="44.0810560" lon="7.5576240">
        <ele>1601.2</ele>
        <time>2017-07-22T15:53:28Z</time>
      </trkpt>
      <trkpt lat="44.0811050" lon="7.5575890">
        <ele>1602.2</ele>
        <time>2017-07-22T15:53:31Z</time>
      </trkpt>
      <trkpt lat="44.0811510" lon="7.5575650">
        <ele>1603.4</ele>
        <time>2017-07-22T15:53:34Z</time>
      </trkpt>
      <trkpt lat="44.0811670" lon="7.5575580">
        <ele>1603.6</ele>
        <time>2017-07-22T15:53:35Z</time>
      </trkpt>
      <trkpt lat="44.0812080" lon="7.5575480">
        <ele>1604.4</ele>
        <time>2017-07-22T15:53:38Z</time>
      </trkpt>
      <trkpt lat="44.0812700" lon="7.5575550">
        <ele>1605.6</ele>
        <time>2017-07-22T15:53:42Z</time>
      </trkpt>
      <trkpt lat="44.0813190" lon="7.5575760">
        <ele>1606.8</ele>
        <time>2017-07-22T15:53:45Z</time>
      </trkpt>
      <trkpt lat="44.0813680" lon="7.5575830">
        <ele>1607.6</ele>
        <time>2017-07-22T15:53:49Z</time>
      </trkpt>
      <trkpt lat="44.0813830" lon="7.5575820">
        <ele>1608.0</ele>
        <time>2017-07-22T15:53:50Z</time>
      </trkpt>
      <trkpt lat="44.0814440" lon="7.5575780">
        <ele>1609.0</ele>
        <time>2017-07-22T15:53:54Z</time>
      </trkpt>
      <trkpt lat="44.0814960" lon="7.5575680">
        <ele>1609.8</ele>
        <time>2017-07-22T15:53:57Z</time>
      </trkpt>
      <trkpt lat="44.0815160" lon="7.5575580">
        <ele>1610.2</ele>
        <time>2017-07-22T15:53:58Z</time>
      </trkpt>
      <trkpt lat="44.0816080" lon="7.5575040">
        <ele>1611.2</ele>
        <time>2017-07-22T15:54:03Z</time>
      </trkpt>
      <trkpt lat="44.0816250" lon="7.5574950">
        <ele>1611.6</ele>
        <time>2017-07-22T15:54:04Z</time>
      </trkpt>
      <trkpt lat="44.0816890" lon="7.5574510">
        <ele>1612.6</ele>
        <time>2017-07-22T15:54:08Z</time>
      </trkpt>
      <trkpt lat="44.0817700" lon="7.5574000">
        <ele>1614.0</ele>
        <time>2017-07-22T15:54:13Z</time>
      </trkpt>
      <trkpt lat="44.0818330" lon="7.5573440">
        <ele>1615.0</ele>
        <time>2017-07-22T15:54:17Z</time>
      </trkpt>
      <trkpt lat="44.0818850" lon="7.5572830">
        <ele>1615.8</ele>
        <time>2017-07-22T15:54:20Z</time>
      </trkpt>
      <trkpt lat="44.0819120" lon="7.5572520">
        <ele>1616.2</ele>
        <time>2017-07-22T15:54:22Z</time>
      </trkpt>
      <trkpt lat="44.0819660" lon="7.5571700">
        <ele>1617.2</ele>
        <time>2017-07-22T15:54:27Z</time>
      </trkpt>
      <trkpt lat="44.0820350" lon="7.5570940">
        <ele>1618.6</ele>
        <time>2017-07-22T15:54:32Z</time>
      </trkpt>
      <trkpt lat="44.0820460" lon="7.5570770">
        <ele>1618.8</ele>
        <time>2017-07-22T15:54:33Z</time>
      </trkpt>
      <trkpt lat="44.0820790" lon="7.5570240">
        <ele>1619.6</ele>
        <time>2017-07-22T15:54:36Z</time>
      </trkpt>
      <trkpt lat="44.0821320" lon="7.5569390">
        <ele>1620.8</ele>
        <time>2017-07-22T15:54:41Z</time>
      </trkpt>
      <trkpt lat="44.0821410" lon="7.5569190">
        <ele>1621.0</ele>
        <time>2017-07-22T15:54:42Z</time>
      </trkpt>
      <trkpt lat="44.0821810" lon="7.5568260">
        <ele>1622.0</ele>
        <time>2017-07-22T15:54:47Z</time>
      </trkpt>
      <trkpt lat="44.0822110" lon="7.5567460">
        <ele>1622.6</ele>
        <time>2017-07-22T15:54:51Z</time>
      </trkpt>
      <trkpt lat="44.0822210" lon="7.5567070">
        <ele>1623.0</ele>
        <time>2017-07-22T15:54:53Z</time>
      </trkpt>
      <trkpt lat="44.0822450" lon="7.5566080">
        <ele>1624.2</ele>
        <time>2017-07-22T15:54:58Z</time>
      </trkpt>
      <trkpt lat="44.0822480" lon="7.5565860">
        <ele>1624.4</ele>
        <time>2017-07-22T15:54:59Z</time>
      </trkpt>
      <trkpt lat="44.0822490" lon="7.5564900">
        <ele>1625.2</ele>
        <time>2017-07-22T15:55:04Z</time>
      </trkpt>
      <trkpt lat="44.0822450" lon="7.5564330">
        <ele>1625.8</ele>
        <time>2017-07-22T15:55:07Z</time>
      </trkpt>
      <trkpt lat="44.0822470" lon="7.5563730">
        <ele>1626.4</ele>
        <time>2017-07-22T15:55:10Z</time>
      </trkpt>
      <trkpt lat="44.0822500" lon="7.5563010">
        <ele>1627.4</ele>
        <time>2017-07-22T15:55:14Z</time>
      </trkpt>
      <trkpt lat="44.0822510" lon="7.5562840">
        <ele>1627.6</ele>
        <time>2017-07-22T15:55:15Z</time>
      </trkpt>
      <trkpt lat="44.0822450" lon="7.5561900">
        <ele>1628.8</ele>
        <time>2017-07-22T15:55:20Z</time>
      </trkpt>
      <trkpt lat="44.0822500" lon="7.5561450">
        <ele>1629.0</ele>
        <time>2017-07-22T15:55:22Z</time>
      </trkpt>
      <trkpt lat="44.0822740" lon="7.5560560">
        <ele>1629.8</ele>
        <time>2017-07-22T15:55:26Z</time>
      </trkpt>
      <trkpt lat="44.0822920" lon="7.5559630">
        <ele>1630.8</ele>
        <time>2017-07-22T15:55:30Z</time>
      </trkpt>
      <trkpt lat="44.0823320" lon="7.5558380">
        <ele>1632.0</ele>
        <time>2017-07-22T15:55:36Z</time>
      </trkpt>
      <trkpt lat="44.0823390" lon="7.5558000">
        <ele>1632.6</ele>
        <time>2017-07-22T15:55:38Z</time>
      </trkpt>
      <trkpt lat="44.0823610" lon="7.5557450">
        <ele>1633.0</ele>
        <time>2017-07-22T15:55:41Z</time>
      </trkpt>
      <trkpt lat="44.0823750" lon="7.5556810">
        <ele>1634.0</ele>
        <time>2017-07-22T15:55:44Z</time>
      </trkpt>
      <trkpt lat="44.0823830" lon="7.5556680">
        <ele>1634.2</ele>
        <time>2017-07-22T15:55:45Z</time>
      </trkpt>
      <trkpt lat="44.0824390" lon="7.5555810">
        <ele>1635.4</ele>
        <time>2017-07-22T15:55:50Z</time>
      </trkpt>
      <trkpt lat="44.0824630" lon="7.5555300">
        <ele>1636.2</ele>
        <time>2017-07-22T15:55:53Z</time>
      </trkpt>
      <trkpt lat="44.0824680" lon="7.5555120">
        <ele>1636.4</ele>
        <time>2017-07-22T15:55:54Z</time>
      </trkpt>
      <trkpt lat="44.0824830" lon="7.5554750">
        <ele>1637.0</ele>
        <time>2017-07-22T15:55:56Z</time>
      </trkpt>
      <trkpt lat="44.0824940" lon="7.5554440">
        <ele>1637.4</ele>
        <time>2017-07-22T15:55:58Z</time>
      </trkpt>
      <trkpt lat="44.0825190" lon="7.5553850">
        <ele>1638.4</ele>
        <time>2017-07-22T15:56:02Z</time>
      </trkpt>
      <trkpt lat="44.0825300" lon="7.5553700">
        <ele>1638.6</ele>
        <time>2017-07-22T15:56:03Z</time>
      </trkpt>
      <trkpt lat="44.0825680" lon="7.5552840">
        <ele>1639.8</ele>
        <time>2017-07-22T15:56:08Z</time>
      </trkpt>
      <trkpt lat="44.0825850" lon="7.5552340">
        <ele>1640.4</ele>
        <time>2017-07-22T15:56:11Z</time>
      </trkpt>
      <trkpt lat="44.0825880" lon="7.5551830">
        <ele>1641.0</ele>
        <time>2017-07-22T15:56:14Z</time>
      </trkpt>
      <trkpt lat="44.0825990" lon="7.5551250">
        <ele>1641.6</ele>
        <time>2017-07-22T15:56:17Z</time>
      </trkpt>
      <trkpt lat="44.0826140" lon="7.5550730">
        <ele>1642.2</ele>
        <time>2017-07-22T15:56:20Z</time>
      </trkpt>
      <trkpt lat="44.0826420" lon="7.5549990">
        <ele>1642.8</ele>
        <time>2017-07-22T15:56:24Z</time>
      </trkpt>
      <trkpt lat="44.0826610" lon="7.5549500">
        <ele>1643.4</ele>
        <time>2017-07-22T15:56:27Z</time>
      </trkpt>
      <trkpt lat="44.0826790" lon="7.5548820">
        <ele>1644.0</ele>
        <time>2017-07-22T15:56:30Z</time>
      </trkpt>
      <trkpt lat="44.0826740" lon="7.5548430">
        <ele>1644.6</ele>
        <time>2017-07-22T15:56:32Z</time>
      </trkpt>
      <trkpt lat="44.0826640" lon="7.5548290">
        <ele>1644.8</ele>
        <time>2017-07-22T15:56:33Z</time>
      </trkpt>
      <trkpt lat="44.0826360" lon="7.5548270">
        <ele>1645.2</ele>
        <time>2017-07-22T15:56:35Z</time>
      </trkpt>
      <trkpt lat="44.0826220" lon="7.5548730">
        <ele>1645.8</ele>
        <time>2017-07-22T15:56:37Z</time>
      </trkpt>
      <trkpt lat="44.0826120" lon="7.5548960">
        <ele>1646.0</ele>
        <time>2017-07-22T15:56:38Z</time>
      </trkpt>
      <trkpt lat="44.0825910" lon="7.5549340">
        <ele>1646.4</ele>
        <time>2017-07-22T15:56:40Z</time>
      </trkpt>
      <trkpt lat="44.0825620" lon="7.5549760">
        <ele>1646.8</ele>
        <time>2017-07-22T15:56:42Z</time>
      </trkpt>
      <trkpt lat="44.0825320" lon="7.5550200">
        <ele>1647.4</ele>
        <time>2017-07-22T15:56:45Z</time>
      </trkpt>
      <trkpt lat="44.0825170" lon="7.5550300">
        <ele>1647.4</ele>
        <time>2017-07-22T15:56:46Z</time>
      </trkpt>
      <trkpt lat="44.0825080" lon="7.5550430">
        <ele>1647.8</ele>
        <time>2017-07-22T15:56:47Z</time>
      </trkpt>
      <trkpt lat="44.0824830" lon="7.5550720">
        <ele>1648.2</ele>
        <time>2017-07-22T15:56:49Z</time>
      </trkpt>
      <trkpt lat="44.0824370" lon="7.5551180">
        <ele>1648.8</ele>
        <time>2017-07-22T15:56:52Z</time>
      </trkpt>
      <trkpt lat="44.0823610" lon="7.5551870">
        <ele>1650.4</ele>
        <time>2017-07-22T15:56:57Z</time>
      </trkpt>
      <trkpt lat="44.0823450" lon="7.5552070">
        <ele>1650.6</ele>
        <time>2017-07-22T15:56:58Z</time>
      </trkpt>
      <trkpt lat="44.0822870" lon="7.5552460">
        <ele>1651.6</ele>
        <time>2017-07-22T15:57:02Z</time>
      </trkpt>
      <trkpt lat="44.0822560" lon="7.5552700">
        <ele>1652.0</ele>
        <time>2017-07-22T15:57:04Z</time>
      </trkpt>
      <trkpt lat="44.0822050" lon="7.5553110">
        <ele>1652.6</ele>
        <time>2017-07-22T15:57:07Z</time>
      </trkpt>
      <trkpt lat="44.0821630" lon="7.5553520">
        <ele>1653.6</ele>
        <time>2017-07-22T15:57:11Z</time>
      </trkpt>
      <trkpt lat="44.0820930" lon="7.5554040">
        <ele>1655.0</ele>
        <time>2017-07-22T15:57:16Z</time>
      </trkpt>
      <trkpt lat="44.0820810" lon="7.5554060">
        <ele>1655.2</ele>
        <time>2017-07-22T15:57:17Z</time>
      </trkpt>
      <trkpt lat="44.0820270" lon="7.5554370">
        <ele>1656.2</ele>
        <time>2017-07-22T15:57:21Z</time>
      </trkpt>
      <trkpt lat="44.0819720" lon="7.5554680">
        <ele>1657.0</ele>
        <time>2017-07-22T15:57:25Z</time>
      </trkpt>
      <trkpt lat="44.0819470" lon="7.5554890">
        <ele>1657.2</ele>
        <time>2017-07-22T15:57:27Z</time>
      </trkpt>
      <trkpt lat="44.0818840" lon="7.5555360">
        <ele>1658.4</ele>
        <time>2017-07-22T15:57:32Z</time>
      </trkpt>
      <trkpt lat="44.0817970" lon="7.5555900">
        <ele>1659.6</ele>
        <time>2017-07-22T15:57:38Z</time>
      </trkpt>
      <trkpt lat="44.0817480" lon="7.5556240">
        <ele>1660.6</ele>
        <time>2017-07-22T15:57:42Z</time>
      </trkpt>
      <trkpt lat="44.0816980" lon="7.5556430">
        <ele>1661.4</ele>
        <time>2017-07-22T15:57:45Z</time>
      </trkpt>
      <trkpt lat="44.0816670" lon="7.5556620">
        <ele>1661.6</ele>
        <time>2017-07-22T15:57:47Z</time>
      </trkpt>
      <trkpt lat="44.0816090" lon="7.5556970">
        <ele>1662.8</ele>
        <time>2017-07-22T15:57:51Z</time>
      </trkpt>
      <trkpt lat="44.0815730" lon="7.5557090">
        <ele>1663.2</ele>
        <time>2017-07-22T15:57:53Z</time>
      </trkpt>
      <trkpt lat="44.0815250" lon="7.5557240">
        <ele>1664.0</ele>
        <time>2017-07-22T15:57:56Z</time>
      </trkpt>
      <trkpt lat="44.0814600" lon="7.5557310">
        <ele>1665.0</ele>
        <time>2017-07-22T15:58:00Z</time>
      </trkpt>
      <trkpt lat="44.0814430" lon="7.5557360">
        <ele>1665.2</ele>
        <time>2017-07-22T15:58:01Z</time>
      </trkpt>
      <trkpt lat="44.0813360" lon="7.5557590">
        <ele>1666.4</ele>
        <time>2017-07-22T15:58:07Z</time>
      </trkpt>
      <trkpt lat="44.0813150" lon="7.5557680">
        <ele>1666.6</ele>
        <time>2017-07-22T15:58:08Z</time>
      </trkpt>
      <trkpt lat="44.0812860" lon="7.5557690">
        <ele>1667.4</ele>
        <time>2017-07-22T15:58:10Z</time>
      </trkpt>
      <trkpt lat="44.0811980" lon="7.5557810">
        <ele>1668.4</ele>
        <time>2017-07-22T15:58:15Z</time>
      </trkpt>
      <trkpt lat="44.0811120" lon="7.5557770">
        <ele>1669.6</ele>
        <time>2017-07-22T15:58:20Z</time>
      </trkpt>
      <trkpt lat="44.0810300" lon="7.5557710">
        <ele>1670.6</ele>
        <time>2017-07-22T15:58:25Z</time>
      </trkpt>
      <trkpt lat="44.0810090" lon="7.5557750">
        <ele>1670.8</ele>
        <time>2017-07-22T15:58:26Z</time>
      </trkpt>
      <trkpt lat="44.0809070" lon="7.5557720">
        <ele>1671.6</ele>
        <time>2017-07-22T15:58:31Z</time>
      </trkpt>
      <trkpt lat="44.0808870" lon="7.5557720">
        <ele>1671.8</ele>
        <time>2017-07-22T15:58:32Z</time>
      </trkpt>
      <trkpt lat="44.0808300" lon="7.5557850">
        <ele>1672.8</ele>
        <time>2017-07-22T15:58:35Z</time>
      </trkpt>
      <trkpt lat="44.0807780" lon="7.5557730">
        <ele>1673.4</ele>
        <time>2017-07-22T15:58:38Z</time>
      </trkpt>
      <trkpt lat="44.0807460" lon="7.5557590">
        <ele>1673.8</ele>
        <time>2017-07-22T15:58:40Z</time>
      </trkpt>
      <trkpt lat="44.0806730" lon="7.5557310">
        <ele>1675.0</ele>
        <time>2017-07-22T15:58:45Z</time>
      </trkpt>
      <trkpt lat="44.0806070" lon="7.5557190">
        <ele>1676.2</ele>
        <time>2017-07-22T15:58:50Z</time>
      </trkpt>
      <trkpt lat="44.0805520" lon="7.5557070">
        <ele>1676.6</ele>
        <time>2017-07-22T15:58:53Z</time>
      </trkpt>
      <trkpt lat="44.0805030" lon="7.5557080">
        <ele>1677.2</ele>
        <time>2017-07-22T15:58:56Z</time>
      </trkpt>
      <trkpt lat="44.0804350" lon="7.5557090">
        <ele>1678.2</ele>
        <time>2017-07-22T15:59:00Z</time>
      </trkpt>
      <trkpt lat="44.0804170" lon="7.5557060">
        <ele>1678.6</ele>
        <time>2017-07-22T15:59:01Z</time>
      </trkpt>
      <trkpt lat="44.0802980" lon="7.5557000">
        <ele>1679.6</ele>
        <time>2017-07-22T15:59:08Z</time>
      </trkpt>
      <trkpt lat="44.0802830" lon="7.5557080">
        <ele>1679.8</ele>
        <time>2017-07-22T15:59:09Z</time>
      </trkpt>
      <trkpt lat="44.0802310" lon="7.5557350">
        <ele>1680.8</ele>
        <time>2017-07-22T15:59:13Z</time>
      </trkpt>
      <trkpt lat="44.0802050" lon="7.5557280">
        <ele>1681.0</ele>
        <time>2017-07-22T15:59:15Z</time>
      </trkpt>
      <trkpt lat="44.0801920" lon="7.5557280">
        <ele>1681.4</ele>
        <time>2017-07-22T15:59:16Z</time>
      </trkpt>
      <trkpt lat="44.0801620" lon="7.5557280">
        <ele>1682.0</ele>
        <time>2017-07-22T15:59:18Z</time>
      </trkpt>
      <trkpt lat="44.0801010" lon="7.5557210">
        <ele>1682.8</ele>
        <time>2017-07-22T15:59:22Z</time>
      </trkpt>
      <trkpt lat="44.0800870" lon="7.5557210">
        <ele>1683.0</ele>
        <time>2017-07-22T15:59:23Z</time>
      </trkpt>
      <trkpt lat="44.0800170" lon="7.5557200">
        <ele>1684.2</ele>
        <time>2017-07-22T15:59:28Z</time>
      </trkpt>
      <trkpt lat="44.0799940" lon="7.5557190">
        <ele>1684.0</ele>
        <time>2017-07-22T15:59:29Z</time>
      </trkpt>
      <trkpt lat="44.0798960" lon="7.5556970">
        <ele>1684.2</ele>
        <time>2017-07-22T15:59:35Z</time>
      </trkpt>
      <trkpt lat="44.0798150" lon="7.5556830">
        <ele>1685.2</ele>
        <time>2017-07-22T15:59:41Z</time>
      </trkpt>
      <trkpt lat="44.0797780" lon="7.5556730">
        <ele>1685.8</ele>
        <time>2017-07-22T15:59:44Z</time>
      </trkpt>
      <trkpt lat="44.0797610" lon="7.5556780">
        <ele>1686.0</ele>
        <time>2017-07-22T15:59:45Z</time>
      </trkpt>
      <trkpt lat="44.0797280" lon="7.5556790">
        <ele>1686.4</ele>
        <time>2017-07-22T15:59:47Z</time>
      </trkpt>
      <trkpt lat="44.0796390" lon="7.5556910">
        <ele>1687.4</ele>
        <time>2017-07-22T15:59:53Z</time>
      </trkpt>
      <trkpt lat="44.0795450" lon="7.5556810">
        <ele>1688.4</ele>
        <time>2017-07-22T15:59:58Z</time>
      </trkpt>
      <trkpt lat="44.0795070" lon="7.5556740">
        <ele>1689.0</ele>
        <time>2017-07-22T16:00:00Z</time>
      </trkpt>
      <trkpt lat="44.0794700" lon="7.5556790">
        <ele>1689.6</ele>
        <time>2017-07-22T16:00:02Z</time>
      </trkpt>
      <trkpt lat="44.0794170" lon="7.5556960">
        <ele>1690.8</ele>
        <time>2017-07-22T16:00:05Z</time>
      </trkpt>
      <trkpt lat="44.0793820" lon="7.5556980">
        <ele>1691.6</ele>
        <time>2017-07-22T16:00:07Z</time>
      </trkpt>
      <trkpt lat="44.0793460" lon="7.5557120">
        <ele>1692.6</ele>
        <time>2017-07-22T16:00:09Z</time>
      </trkpt>
      <trkpt lat="44.0792920" lon="7.5557140">
        <ele>1693.8</ele>
        <time>2017-07-22T16:00:13Z</time>
      </trkpt>
      <trkpt lat="44.0792440" lon="7.5557190">
        <ele>1694.8</ele>
        <time>2017-07-22T16:00:16Z</time>
      </trkpt>
      <trkpt lat="44.0792090" lon="7.5557230">
        <ele>1695.2</ele>
        <time>2017-07-22T16:00:18Z</time>
      </trkpt>
      <trkpt lat="44.0791600" lon="7.5557300">
        <ele>1696.0</ele>
        <time>2017-07-22T16:00:21Z</time>
      </trkpt>
      <trkpt lat="44.0790780" lon="7.5557680">
        <ele>1697.0</ele>
        <time>2017-07-22T16:00:25Z</time>
      </trkpt>
      <trkpt lat="44.0789790" lon="7.5558170">
        <ele>1698.2</ele>
        <time>2017-07-22T16:00:31Z</time>
      </trkpt>
      <trkpt lat="44.0789480" lon="7.5558360">
        <ele>1699.0</ele>
        <time>2017-07-22T16:00:33Z</time>
      </trkpt>
      <trkpt lat="44.0789310" lon="7.5558450">
        <ele>1699.4</ele>
        <time>2017-07-22T16:00:34Z</time>
      </trkpt>
      <trkpt lat="44.0788800" lon="7.5558840">
        <ele>1699.8</ele>
        <time>2017-07-22T16:00:37Z</time>
      </trkpt>
      <trkpt lat="44.0788390" lon="7.5559110">
        <ele>1700.2</ele>
        <time>2017-07-22T16:00:39Z</time>
      </trkpt>
      <trkpt lat="44.0788220" lon="7.5559120">
        <ele>1700.4</ele>
        <time>2017-07-22T16:00:40Z</time>
      </trkpt>
      <trkpt lat="44.0787890" lon="7.5558540">
        <ele>1700.8</ele>
        <time>2017-07-22T16:00:43Z</time>
      </trkpt>
      <trkpt lat="44.0788190" lon="7.5558040">
        <ele>1701.4</ele>
        <time>2017-07-22T16:00:46Z</time>
      </trkpt>
      <trkpt lat="44.0788330" lon="7.5557930">
        <ele>1701.4</ele>
        <time>2017-07-22T16:00:47Z</time>
      </trkpt>
      <trkpt lat="44.0788960" lon="7.5557630">
        <ele>1702.4</ele>
        <time>2017-07-22T16:00:52Z</time>
      </trkpt>
      <trkpt lat="44.0789060" lon="7.5557540">
        <ele>1702.6</ele>
        <time>2017-07-22T16:00:53Z</time>
      </trkpt>
      <trkpt lat="44.0789440" lon="7.5557190">
        <ele>1703.4</ele>
        <time>2017-07-22T16:00:56Z</time>
      </trkpt>
      <trkpt lat="44.0789550" lon="7.5557050">
        <ele>1703.8</ele>
        <time>2017-07-22T16:00:57Z</time>
      </trkpt>
      <trkpt lat="44.0790160" lon="7.5556390">
        <ele>1705.0</ele>
        <time>2017-07-22T16:01:02Z</time>
      </trkpt>
      <trkpt lat="44.0790810" lon="7.5555760">
        <ele>1706.0</ele>
        <time>2017-07-22T16:01:08Z</time>
      </trkpt>
      <trkpt lat="44.0790960" lon="7.5555480">
        <ele>1706.4</ele>
        <time>2017-07-22T16:01:10Z</time>
      </trkpt>
      <trkpt lat="44.0792280" lon="7.5554270">
        <ele>1707.8</ele>
        <time>2017-07-22T16:01:23Z</time>
      </trkpt>
      <trkpt lat="44.0792600" lon="7.5553910">
        <ele>1708.0</ele>
        <time>2017-07-22T16:01:26Z</time>
      </trkpt>
      <trkpt lat="44.0792830" lon="7.5553700">
        <ele>1708.2</ele>
        <time>2017-07-22T16:01:28Z</time>
      </trkpt>
      <trkpt lat="44.0793500" lon="7.5553050">
        <ele>1708.8</ele>
        <time>2017-07-22T16:01:33Z</time>
      </trkpt>
      <trkpt lat="44.0793910" lon="7.5552630">
        <ele>1709.2</ele>
        <time>2017-07-22T16:01:36Z</time>
      </trkpt>
      <trkpt lat="44.0794460" lon="7.5552190">
        <ele>1709.8</ele>
        <time>2017-07-22T16:01:39Z</time>
      </trkpt>
      <trkpt lat="44.0794760" lon="7.5551830">
        <ele>1710.4</ele>
        <time>2017-07-22T16:01:41Z</time>
      </trkpt>
      <trkpt lat="44.0795290" lon="7.5551420">
        <ele>1711.8</ele>
        <time>2017-07-22T16:01:44Z</time>
      </trkpt>
      <trkpt lat="44.0795600" lon="7.5551160">
        <ele>1712.6</ele>
        <time>2017-07-22T16:01:46Z</time>
      </trkpt>
      <trkpt lat="44.0795770" lon="7.5551040">
        <ele>1713.0</ele>
        <time>2017-07-22T16:01:47Z</time>
      </trkpt>
      <trkpt lat="44.0796260" lon="7.5550750">
        <ele>1714.0</ele>
        <time>2017-07-22T16:01:50Z</time>
      </trkpt>
      <trkpt lat="44.0796970" lon="7.5550570">
        <ele>1715.0</ele>
        <time>2017-07-22T16:01:54Z</time>
      </trkpt>
      <trkpt lat="44.0797120" lon="7.5550470">
        <ele>1715.4</ele>
        <time>2017-07-22T16:01:55Z</time>
      </trkpt>
      <trkpt lat="44.0797450" lon="7.5550320">
        <ele>1716.0</ele>
        <time>2017-07-22T16:01:57Z</time>
      </trkpt>
      <trkpt lat="44.0798320" lon="7.5549770">
        <ele>1717.4</ele>
        <time>2017-07-22T16:02:02Z</time>
      </trkpt>
      <trkpt lat="44.0798450" lon="7.5549630">
        <ele>1717.6</ele>
        <time>2017-07-22T16:02:03Z</time>
      </trkpt>
      <trkpt lat="44.0799020" lon="7.5549090">
        <ele>1718.4</ele>
        <time>2017-07-22T16:02:07Z</time>
      </trkpt>
      <trkpt lat="44.0799600" lon="7.5548730">
        <ele>1719.4</ele>
        <time>2017-07-22T16:02:11Z</time>
      </trkpt>
      <trkpt lat="44.0800540" lon="7.5548230">
        <ele>1720.8</ele>
        <time>2017-07-22T16:02:17Z</time>
      </trkpt>
      <trkpt lat="44.0800730" lon="7.5548120">
        <ele>1721.0</ele>
        <time>2017-07-22T16:02:18Z</time>
      </trkpt>
      <trkpt lat="44.0801400" lon="7.5547740">
        <ele>1721.8</ele>
        <time>2017-07-22T16:02:22Z</time>
      </trkpt>
      <trkpt lat="44.0802220" lon="7.5547490">
        <ele>1722.6</ele>
        <time>2017-07-22T16:02:27Z</time>
      </trkpt>
      <trkpt lat="44.0802540" lon="7.5547360">
        <ele>1722.8</ele>
        <time>2017-07-22T16:02:29Z</time>
      </trkpt>
      <trkpt lat="44.0803090" lon="7.5547000">
        <ele>1724.0</ele>
        <time>2017-07-22T16:02:33Z</time>
      </trkpt>
      <trkpt lat="44.0803530" lon="7.5546790">
        <ele>1724.8</ele>
        <time>2017-07-22T16:02:36Z</time>
      </trkpt>
      <trkpt lat="44.0803680" lon="7.5546720">
        <ele>1725.0</ele>
        <time>2017-07-22T16:02:37Z</time>
      </trkpt>
      <trkpt lat="44.0804470" lon="7.5546170">
        <ele>1726.0</ele>
        <time>2017-07-22T16:02:42Z</time>
      </trkpt>
      <trkpt lat="44.0804950" lon="7.5545830">
        <ele>1726.6</ele>
        <time>2017-07-22T16:02:45Z</time>
      </trkpt>
      <trkpt lat="44.0805430" lon="7.5545530">
        <ele>1727.2</ele>
        <time>2017-07-22T16:02:48Z</time>
      </trkpt>
      <trkpt lat="44.0806160" lon="7.5545020">
        <ele>1728.4</ele>
        <time>2017-07-22T16:02:53Z</time>
      </trkpt>
      <trkpt lat="44.0806310" lon="7.5544910">
        <ele>1728.6</ele>
        <time>2017-07-22T16:02:54Z</time>
      </trkpt>
      <trkpt lat="44.0807020" lon="7.5544360">
        <ele>1729.6</ele>
        <time>2017-07-22T16:02:58Z</time>
      </trkpt>
      <trkpt lat="44.0807610" lon="7.5543610">
        <ele>1730.4</ele>
        <time>2017-07-22T16:03:02Z</time>
      </trkpt>
      <trkpt lat="44.0807760" lon="7.5543500">
        <ele>1730.6</ele>
        <time>2017-07-22T16:03:03Z</time>
      </trkpt>
      <trkpt lat="44.0808440" lon="7.5542610">
        <ele>1731.8</ele>
        <time>2017-07-22T16:03:08Z</time>
      </trkpt>
      <trkpt lat="44.0808720" lon="7.5542200">
        <ele>1732.2</ele>
        <time>2017-07-22T16:03:10Z</time>
      </trkpt>
      <trkpt lat="44.0809200" lon="7.5541480">
        <ele>1733.0</ele>
        <time>2017-07-22T16:03:14Z</time>
      </trkpt>
      <trkpt lat="44.0809700" lon="7.5540730">
        <ele>1734.0</ele>
        <time>2017-07-22T16:03:18Z</time>
      </trkpt>
      <trkpt lat="44.0810140" lon="7.5539940">
        <ele>1735.2</ele>
        <time>2017-07-22T16:03:22Z</time>
      </trkpt>
      <trkpt lat="44.0810570" lon="7.5539180">
        <ele>1736.0</ele>
        <time>2017-07-22T16:03:26Z</time>
      </trkpt>
      <trkpt lat="44.0810740" lon="7.5538710">
        <ele>1736.4</ele>
        <time>2017-07-22T16:03:28Z</time>
      </trkpt>
      <trkpt lat="44.0811120" lon="7.5537780">
        <ele>1737.4</ele>
        <time>2017-07-22T16:03:32Z</time>
      </trkpt>
      <trkpt lat="44.0811190" lon="7.5537550">
        <ele>1737.6</ele>
        <time>2017-07-22T16:03:33Z</time>
      </trkpt>
      <trkpt lat="44.0811610" lon="7.5536360">
        <ele>1738.8</ele>
        <time>2017-07-22T16:03:38Z</time>
      </trkpt>
      <trkpt lat="44.0811870" lon="7.5535690">
        <ele>1739.6</ele>
        <time>2017-07-22T16:03:41Z</time>
      </trkpt>
      <trkpt lat="44.0812070" lon="7.5535260">
        <ele>1740.0</ele>
        <time>2017-07-22T16:03:43Z</time>
      </trkpt>
      <trkpt lat="44.0812330" lon="7.5534610">
        <ele>1741.0</ele>
        <time>2017-07-22T16:03:46Z</time>
      </trkpt>
      <trkpt lat="44.0812700" lon="7.5533490">
        <ele>1742.2</ele>
        <time>2017-07-22T16:03:51Z</time>
      </trkpt>
      <trkpt lat="44.0813040" lon="7.5532690">
        <ele>1743.2</ele>
        <time>2017-07-22T16:03:55Z</time>
      </trkpt>
      <trkpt lat="44.0813240" lon="7.5532220">
        <ele>1743.6</ele>
        <time>2017-07-22T16:03:57Z</time>
      </trkpt>
      <trkpt lat="44.0813470" lon="7.5531550">
        <ele>1744.2</ele>
        <time>2017-07-22T16:04:00Z</time>
      </trkpt>
      <trkpt lat="44.0813730" lon="7.5531000">
        <ele>1745.0</ele>
        <time>2017-07-22T16:04:03Z</time>
      </trkpt>
      <trkpt lat="44.0813900" lon="7.5530600">
        <ele>1745.4</ele>
        <time>2017-07-22T16:04:05Z</time>
      </trkpt>
      <trkpt lat="44.0814130" lon="7.5529730">
        <ele>1746.6</ele>
        <time>2017-07-22T16:04:09Z</time>
      </trkpt>
      <trkpt lat="44.0814280" lon="7.5529380">
        <ele>1747.2</ele>
        <time>2017-07-22T16:04:11Z</time>
      </trkpt>
      <trkpt lat="44.0814440" lon="7.5529010">
        <ele>1747.8</ele>
        <time>2017-07-22T16:04:13Z</time>
      </trkpt>
      <trkpt lat="44.0815030" lon="7.5528150">
        <ele>1748.8</ele>
        <time>2017-07-22T16:04:18Z</time>
      </trkpt>
      <trkpt lat="44.0815170" lon="7.5528020">
        <ele>1749.2</ele>
        <time>2017-07-22T16:04:19Z</time>
      </trkpt>
      <trkpt lat="44.0815630" lon="7.5527610">
        <ele>1750.0</ele>
        <time>2017-07-22T16:04:22Z</time>
      </trkpt>
      <trkpt lat="44.0816200" lon="7.5526760">
        <ele>1751.0</ele>
        <time>2017-07-22T16:04:27Z</time>
      </trkpt>
      <trkpt lat="44.0816790" lon="7.5526100">
        <ele>1752.0</ele>
        <time>2017-07-22T16:04:32Z</time>
      </trkpt>
      <trkpt lat="44.0817160" lon="7.5525570">
        <ele>1753.0</ele>
        <time>2017-07-22T16:04:35Z</time>
      </trkpt>
      <trkpt lat="44.0817270" lon="7.5525300">
        <ele>1753.2</ele>
        <time>2017-07-22T16:04:36Z</time>
      </trkpt>
      <trkpt lat="44.0818040" lon="7.5524160">
        <ele>1754.4</ele>
        <time>2017-07-22T16:04:42Z</time>
      </trkpt>
      <trkpt lat="44.0818560" lon="7.5523300">
        <ele>1755.2</ele>
        <time>2017-07-22T16:04:46Z</time>
      </trkpt>
      <trkpt lat="44.0818680" lon="7.5523090">
        <ele>1755.6</ele>
        <time>2017-07-22T16:04:47Z</time>
      </trkpt>
      <trkpt lat="44.0819270" lon="7.5522100">
        <ele>1756.6</ele>
        <time>2017-07-22T16:04:52Z</time>
      </trkpt>
      <trkpt lat="44.0819760" lon="7.5521310">
        <ele>1757.6</ele>
        <time>2017-07-22T16:04:56Z</time>
      </trkpt>
      <trkpt lat="44.0819840" lon="7.5521080">
        <ele>1758.0</ele>
        <time>2017-07-22T16:04:57Z</time>
      </trkpt>
      <trkpt lat="44.0820350" lon="7.5520170">
        <ele>1759.2</ele>
        <time>2017-07-22T16:05:02Z</time>
      </trkpt>
      <trkpt lat="44.0821320" lon="7.5519290">
        <ele>1760.2</ele>
        <time>2017-07-22T16:05:08Z</time>
      </trkpt>
      <trkpt lat="44.0821470" lon="7.5519120">
        <ele>1760.4</ele>
        <time>2017-07-22T16:05:09Z</time>
      </trkpt>
      <trkpt lat="44.0822090" lon="7.5518450">
        <ele>1761.2</ele>
        <time>2017-07-22T16:05:13Z</time>
      </trkpt>
      <trkpt lat="44.0822680" lon="7.5517760">
        <ele>1762.0</ele>
        <time>2017-07-22T16:05:17Z</time>
      </trkpt>
      <trkpt lat="44.0823020" lon="7.5517440">
        <ele>1762.6</ele>
        <time>2017-07-22T16:05:19Z</time>
      </trkpt>
      <trkpt lat="44.0823460" lon="7.5516810">
        <ele>1763.6</ele>
        <time>2017-07-22T16:05:22Z</time>
      </trkpt>
      <trkpt lat="44.0824010" lon="7.5516010">
        <ele>1764.4</ele>
        <time>2017-07-22T16:05:26Z</time>
      </trkpt>
      <trkpt lat="44.0824130" lon="7.5515790">
        <ele>1764.8</ele>
        <time>2017-07-22T16:05:27Z</time>
      </trkpt>
      <trkpt lat="44.0824870" lon="7.5514750">
        <ele>1766.0</ele>
        <time>2017-07-22T16:05:33Z</time>
      </trkpt>
      <trkpt lat="44.0825780" lon="7.5513930">
        <ele>1767.2</ele>
        <time>2017-07-22T16:05:39Z</time>
      </trkpt>
      <trkpt lat="44.0825910" lon="7.5513750">
        <ele>1767.4</ele>
        <time>2017-07-22T16:05:40Z</time>
      </trkpt>
      <trkpt lat="44.0826390" lon="7.5513330">
        <ele>1768.2</ele>
        <time>2017-07-22T16:05:43Z</time>
      </trkpt>
      <trkpt lat="44.0826510" lon="7.5513190">
        <ele>1768.4</ele>
        <time>2017-07-22T16:05:44Z</time>
      </trkpt>
      <trkpt lat="44.0826790" lon="7.5512810">
        <ele>1769.0</ele>
        <time>2017-07-22T16:05:46Z</time>
      </trkpt>
      <trkpt lat="44.0827070" lon="7.5512500">
        <ele>1769.2</ele>
        <time>2017-07-22T16:05:48Z</time>
      </trkpt>
      <trkpt lat="44.0827320" lon="7.5512110">
        <ele>1769.6</ele>
        <time>2017-07-22T16:05:50Z</time>
      </trkpt>
      <trkpt lat="44.0827680" lon="7.5511480">
        <ele>1770.2</ele>
        <time>2017-07-22T16:05:53Z</time>
      </trkpt>
      <trkpt lat="44.0827900" lon="7.5511110">
        <ele>1770.6</ele>
        <time>2017-07-22T16:05:55Z</time>
      </trkpt>
      <trkpt lat="44.0828190" lon="7.5510520">
        <ele>1771.4</ele>
        <time>2017-07-22T16:05:58Z</time>
      </trkpt>
      <trkpt lat="44.0828290" lon="7.5510320">
        <ele>1771.4</ele>
        <time>2017-07-22T16:05:59Z</time>
      </trkpt>
      <trkpt lat="44.0828900" lon="7.5509670">
        <ele>1772.4</ele>
        <time>2017-07-22T16:06:03Z</time>
      </trkpt>
      <trkpt lat="44.0829160" lon="7.5509310">
        <ele>1772.8</ele>
        <time>2017-07-22T16:06:05Z</time>
      </trkpt>
      <trkpt lat="44.0829560" lon="7.5508770">
        <ele>1773.4</ele>
        <time>2017-07-22T16:06:08Z</time>
      </trkpt>
      <trkpt lat="44.0830030" lon="7.5508160">
        <ele>1774.6</ele>
        <time>2017-07-22T16:06:12Z</time>
      </trkpt>
      <trkpt lat="44.0830630" lon="7.5507260">
        <ele>1775.6</ele>
        <time>2017-07-22T16:06:17Z</time>
      </trkpt>
      <trkpt lat="44.0830870" lon="7.5506960">
        <ele>1776.0</ele>
        <time>2017-07-22T16:06:19Z</time>
      </trkpt>
      <trkpt lat="44.0831210" lon="7.5506650">
        <ele>1776.8</ele>
        <time>2017-07-22T16:06:22Z</time>
      </trkpt>
      <trkpt lat="44.0831910" lon="7.5505860">
        <ele>1777.4</ele>
        <time>2017-07-22T16:06:26Z</time>
      </trkpt>
      <trkpt lat="44.0832200" lon="7.5505350">
        <ele>1777.8</ele>
        <time>2017-07-22T16:06:28Z</time>
      </trkpt>
      <trkpt lat="44.0832950" lon="7.5504180">
        <ele>1779.0</ele>
        <time>2017-07-22T16:06:33Z</time>
      </trkpt>
      <trkpt lat="44.0833330" lon="7.5503530">
        <ele>1779.6</ele>
        <time>2017-07-22T16:06:36Z</time>
      </trkpt>
      <trkpt lat="44.0833620" lon="7.5503150">
        <ele>1780.0</ele>
        <time>2017-07-22T16:06:38Z</time>
      </trkpt>
      <trkpt lat="44.0834040" lon="7.5502310">
        <ele>1781.0</ele>
        <time>2017-07-22T16:06:42Z</time>
      </trkpt>
      <trkpt lat="44.0834140" lon="7.5502100">
        <ele>1781.2</ele>
        <time>2017-07-22T16:06:43Z</time>
      </trkpt>
      <trkpt lat="44.0834650" lon="7.5501150">
        <ele>1782.0</ele>
        <time>2017-07-22T16:06:47Z</time>
      </trkpt>
      <trkpt lat="44.0835030" lon="7.5500550">
        <ele>1782.6</ele>
        <time>2017-07-22T16:06:50Z</time>
      </trkpt>
      <trkpt lat="44.0835260" lon="7.5500220">
        <ele>1783.0</ele>
        <time>2017-07-22T16:06:52Z</time>
      </trkpt>
      <trkpt lat="44.0835850" lon="7.5499700">
        <ele>1784.0</ele>
        <time>2017-07-22T16:06:56Z</time>
      </trkpt>
      <trkpt lat="44.0836000" lon="7.5499570">
        <ele>1784.2</ele>
        <time>2017-07-22T16:06:57Z</time>
      </trkpt>
      <trkpt lat="44.0836380" lon="7.5499350">
        <ele>1784.6</ele>
        <time>2017-07-22T16:06:59Z</time>
      </trkpt>
      <trkpt lat="44.0836760" lon="7.5499260">
        <ele>1785.2</ele>
        <time>2017-07-22T16:07:01Z</time>
      </trkpt>
      <trkpt lat="44.0836950" lon="7.5499170">
        <ele>1785.4</ele>
        <time>2017-07-22T16:07:02Z</time>
      </trkpt>
      <trkpt lat="44.0837800" lon="7.5498650">
        <ele>1786.4</ele>
        <time>2017-07-22T16:07:07Z</time>
      </trkpt>
      <trkpt lat="44.0838240" lon="7.5498250">
        <ele>1787.0</ele>
        <time>2017-07-22T16:07:10Z</time>
      </trkpt>
      <trkpt lat="44.0838560" lon="7.5497980">
        <ele>1787.4</ele>
        <time>2017-07-22T16:07:12Z</time>
      </trkpt>
      <trkpt lat="44.0839280" lon="7.5497220">
        <ele>1788.6</ele>
        <time>2017-07-22T16:07:17Z</time>
      </trkpt>
      <trkpt lat="44.0839420" lon="7.5497090">
        <ele>1788.8</ele>
        <time>2017-07-22T16:07:18Z</time>
      </trkpt>
      <trkpt lat="44.0839820" lon="7.5496730">
        <ele>1789.6</ele>
        <time>2017-07-22T16:07:21Z</time>
      </trkpt>
      <trkpt lat="44.0840570" lon="7.5496670">
        <ele>1790.6</ele>
        <time>2017-07-22T16:07:25Z</time>
      </trkpt>
      <trkpt lat="44.0840780" lon="7.5496780">
        <ele>1790.8</ele>
        <time>2017-07-22T16:07:26Z</time>
      </trkpt>
      <trkpt lat="44.0841460" lon="7.5496990">
        <ele>1791.4</ele>
        <time>2017-07-22T16:07:29Z</time>
      </trkpt>
      <trkpt lat="44.0841870" lon="7.5497170">
        <ele>1791.8</ele>
        <time>2017-07-22T16:07:31Z</time>
      </trkpt>
      <trkpt lat="44.0842040" lon="7.5497240">
        <ele>1792.0</ele>
        <time>2017-07-22T16:07:32Z</time>
      </trkpt>
      <trkpt lat="44.0842900" lon="7.5497640">
        <ele>1792.8</ele>
        <time>2017-07-22T16:07:37Z</time>
      </trkpt>
      <trkpt lat="44.0843090" lon="7.5497670">
        <ele>1793.0</ele>
        <time>2017-07-22T16:07:38Z</time>
      </trkpt>
      <trkpt lat="44.0843810" lon="7.5497680">
        <ele>1793.6</ele>
        <time>2017-07-22T16:07:42Z</time>
      </trkpt>
      <trkpt lat="44.0844130" lon="7.5497780">
        <ele>1794.2</ele>
        <time>2017-07-22T16:07:44Z</time>
      </trkpt>
      <trkpt lat="44.0845050" lon="7.5497950">
        <ele>1795.2</ele>
        <time>2017-07-22T16:07:49Z</time>
      </trkpt>
      <trkpt lat="44.0845580" lon="7.5498100">
        <ele>1795.8</ele>
        <time>2017-07-22T16:07:52Z</time>
      </trkpt>
      <trkpt lat="44.0846080" lon="7.5498230">
        <ele>1796.2</ele>
        <time>2017-07-22T16:07:55Z</time>
      </trkpt>
      <trkpt lat="44.0846920" lon="7.5498440">
        <ele>1797.4</ele>
        <time>2017-07-22T16:08:00Z</time>
      </trkpt>
      <trkpt lat="44.0847760" lon="7.5498800">
        <ele>1798.4</ele>
        <time>2017-07-22T16:08:05Z</time>
      </trkpt>
      <trkpt lat="44.0848210" lon="7.5499010">
        <ele>1799.0</ele>
        <time>2017-07-22T16:08:08Z</time>
      </trkpt>
      <trkpt lat="44.0848380" lon="7.5499040">
        <ele>1799.4</ele>
        <time>2017-07-22T16:08:09Z</time>
      </trkpt>
      <trkpt lat="44.0849490" lon="7.5499070">
        <ele>1800.6</ele>
        <time>2017-07-22T16:08:15Z</time>
      </trkpt>
      <trkpt lat="44.0849870" lon="7.5498970">
        <ele>1800.8</ele>
        <time>2017-07-22T16:08:17Z</time>
      </trkpt>
      <trkpt lat="44.0850410" lon="7.5498900">
        <ele>1801.6</ele>
        <time>2017-07-22T16:08:20Z</time>
      </trkpt>
      <trkpt lat="44.0851260" lon="7.5498780">
        <ele>1802.4</ele>
        <time>2017-07-22T16:08:25Z</time>
      </trkpt>
      <trkpt lat="44.0851620" lon="7.5498660">
        <ele>1802.8</ele>
        <time>2017-07-22T16:08:27Z</time>
      </trkpt>
      <trkpt lat="44.0852420" lon="7.5498440">
        <ele>1803.6</ele>
        <time>2017-07-22T16:08:32Z</time>
      </trkpt>
      <trkpt lat="44.0852580" lon="7.5498370">
        <ele>1804.2</ele>
        <time>2017-07-22T16:08:33Z</time>
      </trkpt>
      <trkpt lat="44.0853360" lon="7.5497680">
        <ele>1805.4</ele>
        <time>2017-07-22T16:08:39Z</time>
      </trkpt>
      <trkpt lat="44.0854330" lon="7.5497160">
        <ele>1806.4</ele>
        <time>2017-07-22T16:08:45Z</time>
      </trkpt>
      <trkpt lat="44.0854580" lon="7.5496900">
        <ele>1807.0</ele>
        <time>2017-07-22T16:08:47Z</time>
      </trkpt>
      <trkpt lat="44.0855000" lon="7.5496660">
        <ele>1807.6</ele>
        <time>2017-07-22T16:08:50Z</time>
      </trkpt>
      <trkpt lat="44.0855390" lon="7.5496450">
        <ele>1808.4</ele>
        <time>2017-07-22T16:08:53Z</time>
      </trkpt>
      <trkpt lat="44.0855650" lon="7.5496320">
        <ele>1808.8</ele>
        <time>2017-07-22T16:08:55Z</time>
      </trkpt>
      <trkpt lat="44.0856250" lon="7.5495860">
        <ele>1810.2</ele>
        <time>2017-07-22T16:08:59Z</time>
      </trkpt>
      <trkpt lat="44.0856870" lon="7.5495660">
        <ele>1811.0</ele>
        <time>2017-07-22T16:09:02Z</time>
      </trkpt>
      <trkpt lat="44.0857230" lon="7.5495580">
        <ele>1811.4</ele>
        <time>2017-07-22T16:09:04Z</time>
      </trkpt>
      <trkpt lat="44.0858280" lon="7.5495470">
        <ele>1812.6</ele>
        <time>2017-07-22T16:09:10Z</time>
      </trkpt>
      <trkpt lat="44.0859490" lon="7.5495390">
        <ele>1813.6</ele>
        <time>2017-07-22T16:09:16Z</time>
      </trkpt>
      <trkpt lat="44.0859830" lon="7.5495350">
        <ele>1814.0</ele>
        <time>2017-07-22T16:09:18Z</time>
      </trkpt>
      <trkpt lat="44.0860340" lon="7.5495290">
        <ele>1815.0</ele>
        <time>2017-07-22T16:09:21Z</time>
      </trkpt>
      <trkpt lat="44.0860930" lon="7.5495240">
        <ele>1815.6</ele>
        <time>2017-07-22T16:09:24Z</time>
      </trkpt>
      <trkpt lat="44.0861500" lon="7.5495290">
        <ele>1816.0</ele>
        <time>2017-07-22T16:09:27Z</time>
      </trkpt>
      <trkpt lat="44.0862370" lon="7.5495320">
        <ele>1817.0</ele>
        <time>2017-07-22T16:09:32Z</time>
      </trkpt>
      <trkpt lat="44.0862540" lon="7.5495300">
        <ele>1817.2</ele>
        <time>2017-07-22T16:09:33Z</time>
      </trkpt>
      <trkpt lat="44.0863380" lon="7.5495510">
        <ele>1818.2</ele>
        <time>2017-07-22T16:09:38Z</time>
      </trkpt>
      <trkpt lat="44.0863520" lon="7.5495540">
        <ele>1818.4</ele>
        <time>2017-07-22T16:09:39Z</time>
      </trkpt>
      <trkpt lat="44.0864160" lon="7.5495770">
        <ele>1819.4</ele>
        <time>2017-07-22T16:09:43Z</time>
      </trkpt>
      <trkpt lat="44.0864690" lon="7.5496010">
        <ele>1820.4</ele>
        <time>2017-07-22T16:09:46Z</time>
      </trkpt>
      <trkpt lat="44.0864860" lon="7.5496070">
        <ele>1820.6</ele>
        <time>2017-07-22T16:09:47Z</time>
      </trkpt>
      <trkpt lat="44.0865770" lon="7.5496730">
        <ele>1821.8</ele>
        <time>2017-07-22T16:09:53Z</time>
      </trkpt>
      <trkpt lat="44.0866700" lon="7.5497440">
        <ele>1822.8</ele>
        <time>2017-07-22T16:09:59Z</time>
      </trkpt>
      <trkpt lat="44.0867570" lon="7.5498370">
        <ele>1824.0</ele>
        <time>2017-07-22T16:10:05Z</time>
      </trkpt>
      <trkpt lat="44.0868040" lon="7.5498770">
        <ele>1824.8</ele>
        <time>2017-07-22T16:10:08Z</time>
      </trkpt>
      <trkpt lat="44.0868330" lon="7.5498930">
        <ele>1825.2</ele>
        <time>2017-07-22T16:10:10Z</time>
      </trkpt>
      <trkpt lat="44.0868860" lon="7.5498900">
        <ele>1826.0</ele>
        <time>2017-07-22T16:10:13Z</time>
      </trkpt>
      <trkpt lat="44.0869040" lon="7.5498750">
        <ele>1826.2</ele>
        <time>2017-07-22T16:10:14Z</time>
      </trkpt>
      <trkpt lat="44.0869220" lon="7.5498550">
        <ele>1826.4</ele>
        <time>2017-07-22T16:10:15Z</time>
      </trkpt>
      <trkpt lat="44.0869700" lon="7.5497170">
        <ele>1827.4</ele>
        <time>2017-07-22T16:10:19Z</time>
      </trkpt>
      <trkpt lat="44.0869780" lon="7.5496670">
        <ele>1827.6</ele>
        <time>2017-07-22T16:10:20Z</time>
      </trkpt>
      <trkpt lat="44.0869870" lon="7.5494450">
        <ele>1828.2</ele>
        <time>2017-07-22T16:10:24Z</time>
      </trkpt>
      <trkpt lat="44.0869900" lon="7.5493830">
        <ele>1828.4</ele>
        <time>2017-07-22T16:10:25Z</time>
      </trkpt>
      <trkpt lat="44.0870040" lon="7.5492610">
        <ele>1828.6</ele>
        <time>2017-07-22T16:10:27Z</time>
      </trkpt>
      <trkpt lat="44.0870240" lon="7.5489220">
        <ele>1829.4</ele>
        <time>2017-07-22T16:10:32Z</time>
      </trkpt>
      <trkpt lat="44.0870280" lon="7.5487760">
        <ele>1829.8</ele>
        <time>2017-07-22T16:10:34Z</time>
      </trkpt>
      <trkpt lat="44.0870280" lon="7.5486340">
        <ele>1830.0</ele>
        <time>2017-07-22T16:10:36Z</time>
      </trkpt>
      <trkpt lat="44.0870170" lon="7.5485310">
        <ele>1830.0</ele>
        <time>2017-07-22T16:10:38Z</time>
      </trkpt>
      <trkpt lat="44.0869790" lon="7.5484130">
        <ele>1831.0</ele>
        <time>2017-07-22T16:10:42Z</time>
      </trkpt>
      <trkpt lat="44.0869720" lon="7.5483890">
        <ele>1831.2</ele>
        <time>2017-07-22T16:10:43Z</time>
      </trkpt>
      <trkpt lat="44.0869400" lon="7.5482700">
        <ele>1832.0</ele>
        <time>2017-07-22T16:10:48Z</time>
      </trkpt>
      <trkpt lat="44.0869290" lon="7.5482160">
        <ele>1832.2</ele>
        <time>2017-07-22T16:10:50Z</time>
      </trkpt>
      <trkpt lat="44.0868920" lon="7.5481000">
        <ele>1833.2</ele>
        <time>2017-07-22T16:10:55Z</time>
      </trkpt>
      <trkpt lat="44.0868860" lon="7.5480760">
        <ele>1833.2</ele>
        <time>2017-07-22T16:10:56Z</time>
      </trkpt>
      <trkpt lat="44.0868530" lon="7.5479840">
        <ele>1834.4</ele>
        <time>2017-07-22T16:11:00Z</time>
      </trkpt>
      <trkpt lat="44.0868380" lon="7.5479110">
        <ele>1834.6</ele>
        <time>2017-07-22T16:11:03Z</time>
      </trkpt>
      <trkpt lat="44.0868260" lon="7.5478450">
        <ele>1835.6</ele>
        <time>2017-07-22T16:11:06Z</time>
      </trkpt>
      <trkpt lat="44.0868110" lon="7.5477190">
        <ele>1836.4</ele>
        <time>2017-07-22T16:11:11Z</time>
      </trkpt>
      <trkpt lat="44.0868090" lon="7.5476950">
        <ele>1836.8</ele>
        <time>2017-07-22T16:11:12Z</time>
      </trkpt>
      <trkpt lat="44.0867820" lon="7.5475570">
        <ele>1838.0</ele>
        <time>2017-07-22T16:11:17Z</time>
      </trkpt>
      <trkpt lat="44.0867770" lon="7.5475320">
        <ele>1838.0</ele>
        <time>2017-07-22T16:11:18Z</time>
      </trkpt>
      <trkpt lat="44.0867470" lon="7.5474450">
        <ele>1839.2</ele>
        <time>2017-07-22T16:11:22Z</time>
      </trkpt>
      <trkpt lat="44.0867170" lon="7.5473900">
        <ele>1839.8</ele>
        <time>2017-07-22T16:11:25Z</time>
      </trkpt>
      <trkpt lat="44.0867020" lon="7.5473410">
        <ele>1840.2</ele>
        <time>2017-07-22T16:11:27Z</time>
      </trkpt>
      <trkpt lat="44.0866650" lon="7.5472140">
        <ele>1841.2</ele>
        <time>2017-07-22T16:11:32Z</time>
      </trkpt>
      <trkpt lat="44.0866530" lon="7.5470920">
        <ele>1842.4</ele>
        <time>2017-07-22T16:11:37Z</time>
      </trkpt>
      <trkpt lat="44.0866480" lon="7.5470160">
        <ele>1843.0</ele>
        <time>2017-07-22T16:11:40Z</time>
      </trkpt>
      <trkpt lat="44.0866390" lon="7.5469690">
        <ele>1843.6</ele>
        <time>2017-07-22T16:11:42Z</time>
      </trkpt>
      <trkpt lat="44.0866280" lon="7.5468730">
        <ele>1844.6</ele>
        <time>2017-07-22T16:11:46Z</time>
      </trkpt>
      <trkpt lat="44.0866230" lon="7.5468450">
        <ele>1844.8</ele>
        <time>2017-07-22T16:11:47Z</time>
      </trkpt>
      <trkpt lat="44.0866200" lon="7.5467440">
        <ele>1845.6</ele>
        <time>2017-07-22T16:11:51Z</time>
      </trkpt>
      <trkpt lat="44.0866130" lon="7.5466670">
        <ele>1846.4</ele>
        <time>2017-07-22T16:11:54Z</time>
      </trkpt>
      <trkpt lat="44.0866130" lon="7.5466160">
        <ele>1846.8</ele>
        <time>2017-07-22T16:11:56Z</time>
      </trkpt>
      <trkpt lat="44.0866280" lon="7.5465130">
        <ele>1848.0</ele>
        <time>2017-07-22T16:12:00Z</time>
      </trkpt>
      <trkpt lat="44.0866350" lon="7.5464910">
        <ele>1848.0</ele>
        <time>2017-07-22T16:12:01Z</time>
      </trkpt>
      <trkpt lat="44.0866820" lon="7.5463870">
        <ele>1849.0</ele>
        <time>2017-07-22T16:12:06Z</time>
      </trkpt>
      <trkpt lat="44.0866980" lon="7.5463410">
        <ele>1849.6</ele>
        <time>2017-07-22T16:12:08Z</time>
      </trkpt>
      <trkpt lat="44.0867120" lon="7.5462970">
        <ele>1850.2</ele>
        <time>2017-07-22T16:12:10Z</time>
      </trkpt>
      <trkpt lat="44.0867290" lon="7.5461780">
        <ele>1851.4</ele>
        <time>2017-07-22T16:12:15Z</time>
      </trkpt>
      <trkpt lat="44.0866950" lon="7.5460530">
        <ele>1852.6</ele>
        <time>2017-07-22T16:12:21Z</time>
      </trkpt>
      <trkpt lat="44.0866500" lon="7.5459010">
        <ele>1853.8</ele>
        <time>2017-07-22T16:12:27Z</time>
      </trkpt>
      <trkpt lat="44.0866440" lon="7.5458710">
        <ele>1853.8</ele>
        <time>2017-07-22T16:12:28Z</time>
      </trkpt>
      <trkpt lat="44.0866210" lon="7.5457450">
        <ele>1854.8</ele>
        <time>2017-07-22T16:12:32Z</time>
      </trkpt>
      <trkpt lat="44.0866150" lon="7.5456390">
        <ele>1855.6</ele>
        <time>2017-07-22T16:12:35Z</time>
      </trkpt>
      <trkpt lat="44.0866130" lon="7.5456090">
        <ele>1856.0</ele>
        <time>2017-07-22T16:12:36Z</time>
      </trkpt>
      <trkpt lat="44.0866010" lon="7.5454900">
        <ele>1857.0</ele>
        <time>2017-07-22T16:12:40Z</time>
      </trkpt>
      <trkpt lat="44.0866010" lon="7.5453950">
        <ele>1857.8</ele>
        <time>2017-07-22T16:12:43Z</time>
      </trkpt>
      <trkpt lat="44.0866030" lon="7.5453600">
        <ele>1858.0</ele>
        <time>2017-07-22T16:12:44Z</time>
      </trkpt>
      <trkpt lat="44.0866080" lon="7.5452200">
        <ele>1858.6</ele>
        <time>2017-07-22T16:12:48Z</time>
      </trkpt>
      <trkpt lat="44.0865980" lon="7.5451220">
        <ele>1859.0</ele>
        <time>2017-07-22T16:12:51Z</time>
      </trkpt>
      <trkpt lat="44.0865490" lon="7.5450640">
        <ele>1859.6</ele>
        <time>2017-07-22T16:12:54Z</time>
      </trkpt>
      <trkpt lat="44.0865270" lon="7.5450630">
        <ele>1859.8</ele>
        <time>2017-07-22T16:12:55Z</time>
      </trkpt>
      <trkpt lat="44.0864840" lon="7.5450920">
        <ele>1860.0</ele>
        <time>2017-07-22T16:12:57Z</time>
      </trkpt>
      <trkpt lat="44.0864650" lon="7.5451170">
        <ele>1860.4</ele>
        <time>2017-07-22T16:12:58Z</time>
      </trkpt>
      <trkpt lat="44.0864600" lon="7.5452180">
        <ele>1861.0</ele>
        <time>2017-07-22T16:13:01Z</time>
      </trkpt>
      <trkpt lat="44.0864680" lon="7.5452520">
        <ele>1861.2</ele>
        <time>2017-07-22T16:13:02Z</time>
      </trkpt>
      <trkpt lat="44.0865180" lon="7.5454300">
        <ele>1861.6</ele>
        <time>2017-07-22T16:13:07Z</time>
      </trkpt>
      <trkpt lat="44.0865100" lon="7.5456350">
        <ele>1862.2</ele>
        <time>2017-07-22T16:13:12Z</time>
      </trkpt>
      <trkpt lat="44.0865080" lon="7.5456730">
        <ele>1862.4</ele>
        <time>2017-07-22T16:13:13Z</time>
      </trkpt>
      <trkpt lat="44.0865230" lon="7.5458510">
        <ele>1863.4</ele>
        <time>2017-07-22T16:13:18Z</time>
      </trkpt>
      <trkpt lat="44.0865170" lon="7.5460190">
        <ele>1864.4</ele>
        <time>2017-07-22T16:13:23Z</time>
      </trkpt>
      <trkpt lat="44.0865020" lon="7.5461180">
        <ele>1864.8</ele>
        <time>2017-07-22T16:13:26Z</time>
      </trkpt>
      <trkpt lat="44.0864550" lon="7.5462040">
        <ele>1865.6</ele>
        <time>2017-07-22T16:13:29Z</time>
      </trkpt>
      <trkpt lat="44.0864220" lon="7.5462580">
        <ele>1866.0</ele>
        <time>2017-07-22T16:13:31Z</time>
      </trkpt>
      <trkpt lat="44.0863790" lon="7.5463390">
        <ele>1866.8</ele>
        <time>2017-07-22T16:13:34Z</time>
      </trkpt>
      <trkpt lat="44.0863480" lon="7.5464290">
        <ele>1867.4</ele>
        <time>2017-07-22T16:13:37Z</time>
      </trkpt>
      <trkpt lat="44.0863430" lon="7.5465420">
        <ele>1868.2</ele>
        <time>2017-07-22T16:13:40Z</time>
      </trkpt>
      <trkpt lat="44.0863420" lon="7.5466610">
        <ele>1869.0</ele>
        <time>2017-07-22T16:13:43Z</time>
      </trkpt>
      <trkpt lat="44.0863430" lon="7.5467370">
        <ele>1869.2</ele>
        <time>2017-07-22T16:13:45Z</time>
      </trkpt>
      <trkpt lat="44.0863280" lon="7.5469150">
        <ele>1870.4</ele>
        <time>2017-07-22T16:13:50Z</time>
      </trkpt>
      <trkpt lat="44.0862750" lon="7.5469960">
        <ele>1870.8</ele>
        <time>2017-07-22T16:13:53Z</time>
      </trkpt>
      <trkpt lat="44.0862260" lon="7.5469850">
        <ele>1871.0</ele>
        <time>2017-07-22T16:13:55Z</time>
      </trkpt>
      <trkpt lat="44.0862000" lon="7.5469140">
        <ele>1871.6</ele>
        <time>2017-07-22T16:13:57Z</time>
      </trkpt>
      <trkpt lat="44.0861990" lon="7.5468730">
        <ele>1871.8</ele>
        <time>2017-07-22T16:13:58Z</time>
      </trkpt>
      <trkpt lat="44.0862450" lon="7.5467110">
        <ele>1872.2</ele>
        <time>2017-07-22T16:14:02Z</time>
      </trkpt>
      <trkpt lat="44.0862700" lon="7.5465870">
        <ele>1872.6</ele>
        <time>2017-07-22T16:14:05Z</time>
      </trkpt>
      <trkpt lat="44.0862800" lon="7.5464400">
        <ele>1873.6</ele>
        <time>2017-07-22T16:14:09Z</time>
      </trkpt>
      <trkpt lat="44.0862970" lon="7.5462260">
        <ele>1874.6</ele>
        <time>2017-07-22T16:14:15Z</time>
      </trkpt>
      <trkpt lat="44.0863100" lon="7.5461580">
        <ele>1875.2</ele>
        <time>2017-07-22T16:14:17Z</time>
      </trkpt>
      <trkpt lat="44.0863230" lon="7.5460560">
        <ele>1875.8</ele>
        <time>2017-07-22T16:14:20Z</time>
      </trkpt>
      <trkpt lat="44.0863250" lon="7.5459510">
        <ele>1876.4</ele>
        <time>2017-07-22T16:14:23Z</time>
      </trkpt>
      <trkpt lat="44.0863250" lon="7.5458800">
        <ele>1876.8</ele>
        <time>2017-07-22T16:14:25Z</time>
      </trkpt>
      <trkpt lat="44.0863220" lon="7.5457080">
        <ele>1878.0</ele>
        <time>2017-07-22T16:14:30Z</time>
      </trkpt>
      <trkpt lat="44.0863200" lon="7.5456740">
        <ele>1878.0</ele>
        <time>2017-07-22T16:14:31Z</time>
      </trkpt>
      <trkpt lat="44.0863100" lon="7.5455550">
        <ele>1879.0</ele>
        <time>2017-07-22T16:14:35Z</time>
      </trkpt>
      <trkpt lat="44.0863000" lon="7.5454940">
        <ele>1879.4</ele>
        <time>2017-07-22T16:14:37Z</time>
      </trkpt>
      <trkpt lat="44.0862790" lon="7.5453830">
        <ele>1880.0</ele>
        <time>2017-07-22T16:14:41Z</time>
      </trkpt>
      <trkpt lat="44.0862700" lon="7.5453190">
        <ele>1880.2</ele>
        <time>2017-07-22T16:14:43Z</time>
      </trkpt>
      <trkpt lat="44.0862400" lon="7.5452080">
        <ele>1880.6</ele>
        <time>2017-07-22T16:14:47Z</time>
      </trkpt>
      <trkpt lat="44.0862230" lon="7.5451870">
        <ele>1880.8</ele>
        <time>2017-07-22T16:14:48Z</time>
      </trkpt>
      <trkpt lat="44.0861100" lon="7.5451170">
        <ele>1881.2</ele>
        <time>2017-07-22T16:14:53Z</time>
      </trkpt>
      <trkpt lat="44.0860840" lon="7.5451040">
        <ele>1881.2</ele>
        <time>2017-07-22T16:14:54Z</time>
      </trkpt>
      <trkpt lat="44.0860110" lon="7.5450390">
        <ele>1881.6</ele>
        <time>2017-07-22T16:14:57Z</time>
      </trkpt>
      <trkpt lat="44.0859860" lon="7.5449490">
        <ele>1881.8</ele>
        <time>2017-07-22T16:14:59Z</time>
      </trkpt>
      <trkpt lat="44.0859790" lon="7.5448430">
        <ele>1882.2</ele>
        <time>2017-07-22T16:15:01Z</time>
      </trkpt>
      <trkpt lat="44.0860010" lon="7.5446790">
        <ele>1882.8</ele>
        <time>2017-07-22T16:15:04Z</time>
      </trkpt>
      <trkpt lat="44.0860120" lon="7.5446260">
        <ele>1883.0</ele>
        <time>2017-07-22T16:15:05Z</time>
      </trkpt>
      <trkpt lat="44.0860230" lon="7.5445750">
        <ele>1883.4</ele>
        <time>2017-07-22T16:15:06Z</time>
      </trkpt>
      <trkpt lat="44.0860350" lon="7.5443650">
        <ele>1883.8</ele>
        <time>2017-07-22T16:15:10Z</time>
      </trkpt>
      <trkpt lat="44.0859750" lon="7.5442000">
        <ele>1884.4</ele>
        <time>2017-07-22T16:15:14Z</time>
      </trkpt>
      <trkpt lat="44.0859410" lon="7.5441360">
        <ele>1884.6</ele>
        <time>2017-07-22T16:15:16Z</time>
      </trkpt>
      <trkpt lat="44.0858300" lon="7.5439420">
        <ele>1885.6</ele>
        <time>2017-07-22T16:15:22Z</time>
      </trkpt>
      <trkpt lat="44.0858000" lon="7.5438740">
        <ele>1886.0</ele>
        <time>2017-07-22T16:15:24Z</time>
      </trkpt>
      <trkpt lat="44.0857670" lon="7.5438020">
        <ele>1886.6</ele>
        <time>2017-07-22T16:15:26Z</time>
      </trkpt>
      <trkpt lat="44.0857020" lon="7.5436680">
        <ele>1887.6</ele>
        <time>2017-07-22T16:15:30Z</time>
      </trkpt>
      <trkpt lat="44.0856700" lon="7.5436010">
        <ele>1888.0</ele>
        <time>2017-07-22T16:15:32Z</time>
      </trkpt>
      <trkpt lat="44.0856240" lon="7.5434930">
        <ele>1888.8</ele>
        <time>2017-07-22T16:15:35Z</time>
      </trkpt>
      <trkpt lat="44.0856050" lon="7.5433860">
        <ele>1889.8</ele>
        <time>2017-07-22T16:15:38Z</time>
      </trkpt>
      <trkpt lat="44.0856050" lon="7.5433540">
        <ele>1890.2</ele>
        <time>2017-07-22T16:15:39Z</time>
      </trkpt>
      <trkpt lat="44.0855980" lon="7.5432500">
        <ele>1890.8</ele>
        <time>2017-07-22T16:15:42Z</time>
      </trkpt>
      <trkpt lat="44.0856080" lon="7.5431800">
        <ele>1891.6</ele>
        <time>2017-07-22T16:15:44Z</time>
      </trkpt>
      <trkpt lat="44.0856130" lon="7.5431460">
        <ele>1891.8</ele>
        <time>2017-07-22T16:15:45Z</time>
      </trkpt>
      <trkpt lat="44.0856210" lon="7.5430260">
        <ele>1893.0</ele>
        <time>2017-07-22T16:15:49Z</time>
      </trkpt>
      <trkpt lat="44.0856230" lon="7.5430000">
        <ele>1893.4</ele>
        <time>2017-07-22T16:15:50Z</time>
      </trkpt>
      <trkpt lat="44.0856180" lon="7.5429490">
        <ele>1894.0</ele>
        <time>2017-07-22T16:15:52Z</time>
      </trkpt>
      <trkpt lat="44.0856170" lon="7.5428330">
        <ele>1894.8</ele>
        <time>2017-07-22T16:15:56Z</time>
      </trkpt>
      <trkpt lat="44.0856250" lon="7.5427730">
        <ele>1895.4</ele>
        <time>2017-07-22T16:15:58Z</time>
      </trkpt>
      <trkpt lat="44.0856300" lon="7.5426600">
        <ele>1896.4</ele>
        <time>2017-07-22T16:16:02Z</time>
      </trkpt>
      <trkpt lat="44.0856280" lon="7.5425780">
        <ele>1897.2</ele>
        <time>2017-07-22T16:16:05Z</time>
      </trkpt>
      <trkpt lat="44.0856260" lon="7.5425190">
        <ele>1897.8</ele>
        <time>2017-07-22T16:16:07Z</time>
      </trkpt>
      <trkpt lat="44.0856340" lon="7.5423490">
        <ele>1898.8</ele>
        <time>2017-07-22T16:16:12Z</time>
      </trkpt>
      <trkpt lat="44.0856320" lon="7.5423170">
        <ele>1899.0</ele>
        <time>2017-07-22T16:16:13Z</time>
      </trkpt>
      <trkpt lat="44.0856120" lon="7.5421990">
        <ele>1899.8</ele>
        <time>2017-07-22T16:16:17Z</time>
      </trkpt>
      <trkpt lat="44.0856030" lon="7.5421170">
        <ele>1900.6</ele>
        <time>2017-07-22T16:16:20Z</time>
      </trkpt>
      <trkpt lat="44.0855900" lon="7.5420630">
        <ele>1901.0</ele>
        <time>2017-07-22T16:16:22Z</time>
      </trkpt>
      <trkpt lat="44.0855530" lon="7.5419830">
        <ele>1901.6</ele>
        <time>2017-07-22T16:16:25Z</time>
      </trkpt>
      <trkpt lat="44.0855300" lon="7.5419300">
        <ele>1902.0</ele>
        <time>2017-07-22T16:16:27Z</time>
      </trkpt>
      <trkpt lat="44.0854900" lon="7.5417930">
        <ele>1902.8</ele>
        <time>2017-07-22T16:16:32Z</time>
      </trkpt>
      <trkpt lat="44.0854730" lon="7.5417400">
        <ele>1903.2</ele>
        <time>2017-07-22T16:16:34Z</time>
      </trkpt>
      <trkpt lat="44.0854290" lon="7.5415940">
        <ele>1904.4</ele>
        <time>2017-07-22T16:16:39Z</time>
      </trkpt>
      <trkpt lat="44.0854200" lon="7.5415660">
        <ele>1904.6</ele>
        <time>2017-07-22T16:16:40Z</time>
      </trkpt>
      <trkpt lat="44.0853660" lon="7.5413970">
        <ele>1905.4</ele>
        <time>2017-07-22T16:16:46Z</time>
      </trkpt>
      <trkpt lat="44.0853500" lon="7.5413400">
        <ele>1905.8</ele>
        <time>2017-07-22T16:16:48Z</time>
      </trkpt>
      <trkpt lat="44.0853130" lon="7.5411950">
        <ele>1906.6</ele>
        <time>2017-07-22T16:16:53Z</time>
      </trkpt>
      <trkpt lat="44.0853030" lon="7.5411320">
        <ele>1907.0</ele>
        <time>2017-07-22T16:16:55Z</time>
      </trkpt>
      <trkpt lat="44.0853100" lon="7.5410130">
        <ele>1907.8</ele>
        <time>2017-07-22T16:16:58Z</time>
      </trkpt>
      <trkpt lat="44.0853320" lon="7.5409330">
        <ele>1907.8</ele>
        <time>2017-07-22T16:17:00Z</time>
      </trkpt>
      <trkpt lat="44.0854160" lon="7.5408240">
        <ele>1908.8</ele>
        <time>2017-07-22T16:17:04Z</time>
      </trkpt>
      <trkpt lat="44.0854440" lon="7.5408080">
        <ele>1909.0</ele>
        <time>2017-07-22T16:17:05Z</time>
      </trkpt>
      <trkpt lat="44.0855300" lon="7.5406740">
        <ele>1909.6</ele>
        <time>2017-07-22T16:17:09Z</time>
      </trkpt>
      <trkpt lat="44.0855450" lon="7.5405770">
        <ele>1910.0</ele>
        <time>2017-07-22T16:17:11Z</time>
      </trkpt>
      <trkpt lat="44.0855610" lon="7.5404240">
        <ele>1910.4</ele>
        <time>2017-07-22T16:17:14Z</time>
      </trkpt>
      <trkpt lat="44.0855760" lon="7.5403120">
        <ele>1910.8</ele>
        <time>2017-07-22T16:17:16Z</time>
      </trkpt>
      <trkpt lat="44.0856170" lon="7.5401340">
        <ele>1911.2</ele>
        <time>2017-07-22T16:17:19Z</time>
      </trkpt>
      <trkpt lat="44.0856330" lon="7.5400710">
        <ele>1911.4</ele>
        <time>2017-07-22T16:17:20Z</time>
      </trkpt>
      <trkpt lat="44.0856850" lon="7.5398720">
        <ele>1912.0</ele>
        <time>2017-07-22T16:17:23Z</time>
      </trkpt>
      <trkpt lat="44.0857020" lon="7.5397390">
        <ele>1912.2</ele>
        <time>2017-07-22T16:17:25Z</time>
      </trkpt>
      <trkpt lat="44.0856990" lon="7.5396680">
        <ele>1912.4</ele>
        <time>2017-07-22T16:17:26Z</time>
      </trkpt>
      <trkpt lat="44.0856920" lon="7.5395900">
        <ele>1912.4</ele>
        <time>2017-07-22T16:17:27Z</time>
      </trkpt>
      <trkpt lat="44.0856890" lon="7.5394290">
        <ele>1912.4</ele>
        <time>2017-07-22T16:17:29Z</time>
      </trkpt>
      <trkpt lat="44.0857030" lon="7.5393470">
        <ele>1912.2</ele>
        <time>2017-07-22T16:17:30Z</time>
      </trkpt>
      <trkpt lat="44.0857760" lon="7.5390980">
        <ele>1912.4</ele>
        <time>2017-07-22T16:17:33Z</time>
      </trkpt>
      <trkpt lat="44.0857850" lon="7.5389990">
        <ele>1912.4</ele>
        <time>2017-07-22T16:17:34Z</time>
      </trkpt>
      <trkpt lat="44.0857510" lon="7.5385650">
        <ele>1912.0</ele>
        <time>2017-07-22T16:17:38Z</time>
      </trkpt>
      <trkpt lat="44.0857290" lon="7.5384500">
        <ele>1911.6</ele>
        <time>2017-07-22T16:17:39Z</time>
      </trkpt>
      <trkpt lat="44.0856890" lon="7.5382300">
        <ele>1911.2</ele>
        <time>2017-07-22T16:17:41Z</time>
      </trkpt>
      <trkpt lat="44.0856960" lon="7.5381260">
        <ele>1911.0</ele>
        <time>2017-07-22T16:17:42Z</time>
      </trkpt>
      <trkpt lat="44.0857330" lon="7.5380360">
        <ele>1910.6</ele>
        <time>2017-07-22T16:17:43Z</time>
      </trkpt>
      <trkpt lat="44.0858570" lon="7.5379030">
        <ele>1909.8</ele>
        <time>2017-07-22T16:17:45Z</time>
      </trkpt>
      <trkpt lat="44.0859330" lon="7.5378490">
        <ele>1909.0</ele>
        <time>2017-07-22T16:17:46Z</time>
      </trkpt>
      <trkpt lat="44.0860150" lon="7.5377930">
        <ele>1908.6</ele>
        <time>2017-07-22T16:17:47Z</time>
      </trkpt>
      <trkpt lat="44.0861010" lon="7.5377620">
        <ele>1908.2</ele>
        <time>2017-07-22T16:17:48Z</time>
      </trkpt>
      <trkpt lat="44.0861920" lon="7.5377560">
        <ele>1907.8</ele>
        <time>2017-07-22T16:17:49Z</time>
      </trkpt>
      <trkpt lat="44.0863770" lon="7.5377090">
        <ele>1907.2</ele>
        <time>2017-07-22T16:17:51Z</time>
      </trkpt>
      <trkpt lat="44.0864680" lon="7.5376710">
        <ele>1906.8</ele>
        <time>2017-07-22T16:17:52Z</time>
      </trkpt>
      <trkpt lat="44.0865620" lon="7.5376470">
        <ele>1906.2</ele>
        <time>2017-07-22T16:17:53Z</time>
      </trkpt>
      <trkpt lat="44.0866560" lon="7.5376480">
        <ele>1905.8</ele>
        <time>2017-07-22T16:17:54Z</time>
      </trkpt>
      <trkpt lat="44.0867510" lon="7.5376660">
        <ele>1905.4</ele>
        <time>2017-07-22T16:17:55Z</time>
      </trkpt>
      <trkpt lat="44.0869400" lon="7.5376740">
        <ele>1904.4</ele>
        <time>2017-07-22T16:17:57Z</time>
      </trkpt>
      <trkpt lat="44.0870320" lon="7.5377020">
        <ele>1903.8</ele>
        <time>2017-07-22T16:17:58Z</time>
      </trkpt>
      <trkpt lat="44.0871160" lon="7.5377560">
        <ele>1903.2</ele>
        <time>2017-07-22T16:17:59Z</time>
      </trkpt>
      <trkpt lat="44.0872560" lon="7.5378410">
        <ele>1902.2</ele>
        <time>2017-07-22T16:18:01Z</time>
      </trkpt>
      <trkpt lat="44.0873900" lon="7.5378310">
        <ele>1901.2</ele>
        <time>2017-07-22T16:18:03Z</time>
      </trkpt>
      <trkpt lat="44.0874650" lon="7.5377990">
        <ele>1900.8</ele>
        <time>2017-07-22T16:18:04Z</time>
      </trkpt>
      <trkpt lat="44.0875440" lon="7.5377650">
        <ele>1900.0</ele>
        <time>2017-07-22T16:18:05Z</time>
      </trkpt>
      <trkpt lat="44.0878000" lon="7.5376340">
        <ele>1898.6</ele>
        <time>2017-07-22T16:18:08Z</time>
      </trkpt>
      <trkpt lat="44.0878740" lon="7.5375770">
        <ele>1897.2</ele>
        <time>2017-07-22T16:18:09Z</time>
      </trkpt>
      <trkpt lat="44.0879310" lon="7.5374990">
        <ele>1896.2</ele>
        <time>2017-07-22T16:18:10Z</time>
      </trkpt>
      <trkpt lat="44.0879740" lon="7.5374050">
        <ele>1895.6</ele>
        <time>2017-07-22T16:18:11Z</time>
      </trkpt>
      <trkpt lat="44.0880090" lon="7.5372960">
        <ele>1894.8</ele>
        <time>2017-07-22T16:18:12Z</time>
      </trkpt>
      <trkpt lat="44.0880400" lon="7.5371770">
        <ele>1894.2</ele>
        <time>2017-07-22T16:18:13Z</time>
      </trkpt>
      <trkpt lat="44.0880760" lon="7.5370610">
        <ele>1893.6</ele>
        <time>2017-07-22T16:18:14Z</time>
      </trkpt>
      <trkpt lat="44.0881120" lon="7.5369400">
        <ele>1892.4</ele>
        <time>2017-07-22T16:18:15Z</time>
      </trkpt>
      <trkpt lat="44.0881840" lon="7.5366920">
        <ele>1891.0</ele>
        <time>2017-07-22T16:18:17Z</time>
      </trkpt>
      <trkpt lat="44.0882530" lon="7.5364400">
        <ele>1889.6</ele>
        <time>2017-07-22T16:18:19Z</time>
      </trkpt>
      <trkpt lat="44.0883030" lon="7.5361870">
        <ele>1888.0</ele>
        <time>2017-07-22T16:18:21Z</time>
      </trkpt>
      <trkpt lat="44.0883370" lon="7.5360820">
        <ele>1887.2</ele>
        <time>2017-07-22T16:18:22Z</time>
      </trkpt>
      <trkpt lat="44.0883780" lon="7.5359950">
        <ele>1886.6</ele>
        <time>2017-07-22T16:18:23Z</time>
      </trkpt>
      <trkpt lat="44.0884320" lon="7.5359320">
        <ele>1885.8</ele>
        <time>2017-07-22T16:18:24Z</time>
      </trkpt>
      <trkpt lat="44.0884930" lon="7.5358910">
        <ele>1885.2</ele>
        <time>2017-07-22T16:18:25Z</time>
      </trkpt>
      <trkpt lat="44.0886290" lon="7.5358890">
        <ele>1884.0</ele>
        <time>2017-07-22T16:18:27Z</time>
      </trkpt>
      <trkpt lat="44.0887800" lon="7.5360110">
        <ele>1882.8</ele>
        <time>2017-07-22T16:18:30Z</time>
      </trkpt>
      <trkpt lat="44.0888160" lon="7.5360430">
        <ele>1882.4</ele>
        <time>2017-07-22T16:18:31Z</time>
      </trkpt>
      <trkpt lat="44.0888900" lon="7.5361000">
        <ele>1881.8</ele>
        <time>2017-07-22T16:18:33Z</time>
      </trkpt>
      <trkpt lat="44.0889270" lon="7.5361220">
        <ele>1881.4</ele>
        <time>2017-07-22T16:18:34Z</time>
      </trkpt>
      <trkpt lat="44.0889620" lon="7.5361370">
        <ele>1881.4</ele>
        <time>2017-07-22T16:18:35Z</time>
      </trkpt>
      <trkpt lat="44.0890620" lon="7.5362020">
        <ele>1881.0</ele>
        <time>2017-07-22T16:18:38Z</time>
      </trkpt>
      <trkpt lat="44.0891200" lon="7.5362600">
        <ele>1880.8</ele>
        <time>2017-07-22T16:18:40Z</time>
      </trkpt>
      <trkpt lat="44.0891470" lon="7.5362840">
        <ele>1881.0</ele>
        <time>2017-07-22T16:18:41Z</time>
      </trkpt>
      <trkpt lat="44.0891790" lon="7.5362960">
        <ele>1881.2</ele>
        <time>2017-07-22T16:18:42Z</time>
      </trkpt>
      <trkpt lat="44.0892420" lon="7.5363250">
        <ele>1881.2</ele>
        <time>2017-07-22T16:18:44Z</time>
      </trkpt>
      <trkpt lat="44.0892720" lon="7.5363410">
        <ele>1881.6</ele>
        <time>2017-07-22T16:18:45Z</time>
      </trkpt>
      <trkpt lat="44.0893920" lon="7.5364520">
        <ele>1881.8</ele>
        <time>2017-07-22T16:18:49Z</time>
      </trkpt>
      <trkpt lat="44.0894180" lon="7.5364910">
        <ele>1881.8</ele>
        <time>2017-07-22T16:18:50Z</time>
      </trkpt>
      <trkpt lat="44.0894730" lon="7.5365490">
        <ele>1882.2</ele>
        <time>2017-07-22T16:18:52Z</time>
      </trkpt>
      <trkpt lat="44.0895300" lon="7.5365120">
        <ele>1882.4</ele>
        <time>2017-07-22T16:18:54Z</time>
      </trkpt>
      <trkpt lat="44.0895280" lon="7.5363890">
        <ele>1882.4</ele>
        <time>2017-07-22T16:18:57Z</time>
      </trkpt>
      <trkpt lat="44.0894740" lon="7.5363400">
        <ele>1883.0</ele>
        <time>2017-07-22T16:18:59Z</time>
      </trkpt>
      <trkpt lat="44.0894080" lon="7.5363140">
        <ele>1883.0</ele>
        <time>2017-07-22T16:19:01Z</time>
      </trkpt>
      <trkpt lat="44.0892340" lon="7.5362160">
        <ele>1884.2</ele>
        <time>2017-07-22T16:19:07Z</time>
      </trkpt>
      <trkpt lat="44.0892070" lon="7.5361970">
        <ele>1884.2</ele>
        <time>2017-07-22T16:19:08Z</time>
      </trkpt>
      <trkpt lat="44.0890550" lon="7.5360330">
        <ele>1885.0</ele>
        <time>2017-07-22T16:19:15Z</time>
      </trkpt>
      <trkpt lat="44.0890380" lon="7.5360040">
        <ele>1885.2</ele>
        <time>2017-07-22T16:19:16Z</time>
      </trkpt>
      <trkpt lat="44.0889930" lon="7.5359210">
        <ele>1885.8</ele>
        <time>2017-07-22T16:19:19Z</time>
      </trkpt>
      <trkpt lat="44.0889740" lon="7.5358990">
        <ele>1886.0</ele>
        <time>2017-07-22T16:19:20Z</time>
      </trkpt>
      <trkpt lat="44.0889530" lon="7.5358790">
        <ele>1886.2</ele>
        <time>2017-07-22T16:19:21Z</time>
      </trkpt>
      <trkpt lat="44.0888390" lon="7.5358210">
        <ele>1887.4</ele>
        <time>2017-07-22T16:19:26Z</time>
      </trkpt>
      <trkpt lat="44.0888190" lon="7.5358060">
        <ele>1887.6</ele>
        <time>2017-07-22T16:19:27Z</time>
      </trkpt>
      <trkpt lat="44.0887340" lon="7.5357270">
        <ele>1888.2</ele>
        <time>2017-07-22T16:19:31Z</time>
      </trkpt>
      <trkpt lat="44.0887250" lon="7.5356900">
        <ele>1888.4</ele>
        <time>2017-07-22T16:19:32Z</time>
      </trkpt>
      <trkpt lat="44.0887630" lon="7.5356200">
        <ele>1888.8</ele>
        <time>2017-07-22T16:19:35Z</time>
      </trkpt>
      <trkpt lat="44.0888380" lon="7.5356420">
        <ele>1889.4</ele>
        <time>2017-07-22T16:19:38Z</time>
      </trkpt>
      <trkpt lat="44.0888850" lon="7.5356870">
        <ele>1889.8</ele>
        <time>2017-07-22T16:19:40Z</time>
      </trkpt>
      <trkpt lat="44.0889240" lon="7.5357410">
        <ele>1890.2</ele>
        <time>2017-07-22T16:19:42Z</time>
      </trkpt>
      <trkpt lat="44.0889670" lon="7.5357930">
        <ele>1890.6</ele>
        <time>2017-07-22T16:19:44Z</time>
      </trkpt>
      <trkpt lat="44.0890380" lon="7.5358530">
        <ele>1891.2</ele>
        <time>2017-07-22T16:19:47Z</time>
      </trkpt>
      <trkpt lat="44.0890840" lon="7.5358900">
        <ele>1891.8</ele>
        <time>2017-07-22T16:19:49Z</time>
      </trkpt>
      <trkpt lat="44.0891690" lon="7.5359360">
        <ele>1892.4</ele>
        <time>2017-07-22T16:19:53Z</time>
      </trkpt>
      <trkpt lat="44.0892190" lon="7.5359640">
        <ele>1893.0</ele>
        <time>2017-07-22T16:19:55Z</time>
      </trkpt>
      <trkpt lat="44.0893800" lon="7.5360560">
        <ele>1894.2</ele>
        <time>2017-07-22T16:20:01Z</time>
      </trkpt>
      <trkpt lat="44.0894050" lon="7.5360760">
        <ele>1894.2</ele>
        <time>2017-07-22T16:20:02Z</time>
      </trkpt>
      <trkpt lat="44.0895110" lon="7.5361270">
        <ele>1895.2</ele>
        <time>2017-07-22T16:20:06Z</time>
      </trkpt>
      <trkpt lat="44.0895600" lon="7.5361560">
        <ele>1895.6</ele>
        <time>2017-07-22T16:20:08Z</time>
      </trkpt>
      <trkpt lat="44.0896320" lon="7.5362090">
        <ele>1896.4</ele>
        <time>2017-07-22T16:20:11Z</time>
      </trkpt>
      <trkpt lat="44.0897290" lon="7.5362630">
        <ele>1897.0</ele>
        <time>2017-07-22T16:20:15Z</time>
      </trkpt>
      <trkpt lat="44.0897750" lon="7.5362880">
        <ele>1897.4</ele>
        <time>2017-07-22T16:20:17Z</time>
      </trkpt>
      <trkpt lat="44.0898960" lon="7.5363420">
        <ele>1898.4</ele>
        <time>2017-07-22T16:20:22Z</time>
      </trkpt>
      <trkpt lat="44.0899220" lon="7.5363420">
        <ele>1898.6</ele>
        <time>2017-07-22T16:20:23Z</time>
      </trkpt>
      <trkpt lat="44.0899930" lon="7.5362890">
        <ele>1899.0</ele>
        <time>2017-07-22T16:20:26Z</time>
      </trkpt>
      <trkpt lat="44.0900340" lon="7.5362050">
        <ele>1899.8</ele>
        <time>2017-07-22T16:20:29Z</time>
      </trkpt>
      <trkpt lat="44.0900890" lon="7.5361260">
        <ele>1900.0</ele>
        <time>2017-07-22T16:20:32Z</time>
      </trkpt>
      <trkpt lat="44.0901860" lon="7.5360390">
        <ele>1901.0</ele>
        <time>2017-07-22T16:20:36Z</time>
      </trkpt>
      <trkpt lat="44.0902660" lon="7.5359750">
        <ele>1901.4</ele>
        <time>2017-07-22T16:20:39Z</time>
      </trkpt>
      <trkpt lat="44.0903200" lon="7.5359280">
        <ele>1902.0</ele>
        <time>2017-07-22T16:20:41Z</time>
      </trkpt>
      <trkpt lat="44.0904630" lon="7.5358440">
        <ele>1902.6</ele>
        <time>2017-07-22T16:20:46Z</time>
      </trkpt>
      <trkpt lat="44.0905680" lon="7.5358440">
        <ele>1903.0</ele>
        <time>2017-07-22T16:20:49Z</time>
      </trkpt>
      <trkpt lat="44.0906350" lon="7.5358720">
        <ele>1903.4</ele>
        <time>2017-07-22T16:20:51Z</time>
      </trkpt>
      <trkpt lat="44.0907720" lon="7.5359860">
        <ele>1904.0</ele>
        <time>2017-07-22T16:20:56Z</time>
      </trkpt>
      <trkpt lat="44.0909170" lon="7.5360370">
        <ele>1905.2</ele>
        <time>2017-07-22T16:21:01Z</time>
      </trkpt>
      <trkpt lat="44.0909480" lon="7.5360520">
        <ele>1905.6</ele>
        <time>2017-07-22T16:21:02Z</time>
      </trkpt>
      <trkpt lat="44.0910580" lon="7.5361370">
        <ele>1906.4</ele>
        <time>2017-07-22T16:21:06Z</time>
      </trkpt>
      <trkpt lat="44.0911300" lon="7.5362190">
        <ele>1907.0</ele>
        <time>2017-07-22T16:21:09Z</time>
      </trkpt>
      <trkpt lat="44.0911960" lon="7.5363090">
        <ele>1907.4</ele>
        <time>2017-07-22T16:21:12Z</time>
      </trkpt>
      <trkpt lat="44.0913000" lon="7.5364110">
        <ele>1908.0</ele>
        <time>2017-07-22T16:21:16Z</time>
      </trkpt>
      <trkpt lat="44.0913580" lon="7.5364150">
        <ele>1908.6</ele>
        <time>2017-07-22T16:21:18Z</time>
      </trkpt>
      <trkpt lat="44.0914100" lon="7.5363680">
        <ele>1909.0</ele>
        <time>2017-07-22T16:21:20Z</time>
      </trkpt>
      <trkpt lat="44.0914500" lon="7.5363170">
        <ele>1909.2</ele>
        <time>2017-07-22T16:21:22Z</time>
      </trkpt>
      <trkpt lat="44.0914690" lon="7.5362950">
        <ele>1909.6</ele>
        <time>2017-07-22T16:21:23Z</time>
      </trkpt>
      <trkpt lat="44.0915250" lon="7.5362340">
        <ele>1910.6</ele>
        <time>2017-07-22T16:21:26Z</time>
      </trkpt>
      <trkpt lat="44.0915640" lon="7.5361930">
        <ele>1910.8</ele>
        <time>2017-07-22T16:21:28Z</time>
      </trkpt>
      <trkpt lat="44.0916520" lon="7.5360880">
        <ele>1912.0</ele>
        <time>2017-07-22T16:21:33Z</time>
      </trkpt>
      <trkpt lat="44.0917130" lon="7.5360200">
        <ele>1912.4</ele>
        <time>2017-07-22T16:21:36Z</time>
      </trkpt>
      <trkpt lat="44.0917970" lon="7.5359440">
        <ele>1913.2</ele>
        <time>2017-07-22T16:21:40Z</time>
      </trkpt>
      <trkpt lat="44.0918610" lon="7.5358910">
        <ele>1913.8</ele>
        <time>2017-07-22T16:21:43Z</time>
      </trkpt>
      <trkpt lat="44.0919290" lon="7.5358510">
        <ele>1914.4</ele>
        <time>2017-07-22T16:21:46Z</time>
      </trkpt>
      <trkpt lat="44.0920190" lon="7.5358020">
        <ele>1915.6</ele>
        <time>2017-07-22T16:21:50Z</time>
      </trkpt>
      <trkpt lat="44.0920860" lon="7.5357620">
        <ele>1916.0</ele>
        <time>2017-07-22T16:21:53Z</time>
      </trkpt>
      <trkpt lat="44.0921260" lon="7.5357270">
        <ele>1916.6</ele>
        <time>2017-07-22T16:21:55Z</time>
      </trkpt>
      <trkpt lat="44.0922030" lon="7.5356500">
        <ele>1917.4</ele>
        <time>2017-07-22T16:21:59Z</time>
      </trkpt>
      <trkpt lat="44.0922230" lon="7.5356330">
        <ele>1917.6</ele>
        <time>2017-07-22T16:22:00Z</time>
      </trkpt>
      <trkpt lat="44.0923010" lon="7.5355610">
        <ele>1918.8</ele>
        <time>2017-07-22T16:22:04Z</time>
      </trkpt>
      <trkpt lat="44.0923670" lon="7.5355110">
        <ele>1919.2</ele>
        <time>2017-07-22T16:22:07Z</time>
      </trkpt>
      <trkpt lat="44.0924350" lon="7.5354660">
        <ele>1919.8</ele>
        <time>2017-07-22T16:22:10Z</time>
      </trkpt>
      <trkpt lat="44.0925680" lon="7.5353750">
        <ele>1921.2</ele>
        <time>2017-07-22T16:22:16Z</time>
      </trkpt>
      <trkpt lat="44.0925890" lon="7.5353620">
        <ele>1921.4</ele>
        <time>2017-07-22T16:22:17Z</time>
      </trkpt>
      <trkpt lat="44.0926890" lon="7.5353140">
        <ele>1922.2</ele>
        <time>2017-07-22T16:22:21Z</time>
      </trkpt>
      <trkpt lat="44.0927640" lon="7.5352870">
        <ele>1922.8</ele>
        <time>2017-07-22T16:22:24Z</time>
      </trkpt>
      <trkpt lat="44.0928150" lon="7.5352750">
        <ele>1923.4</ele>
        <time>2017-07-22T16:22:26Z</time>
      </trkpt>
      <trkpt lat="44.0929640" lon="7.5352560">
        <ele>1924.6</ele>
        <time>2017-07-22T16:22:32Z</time>
      </trkpt>
      <trkpt lat="44.0930730" lon="7.5352310">
        <ele>1925.8</ele>
        <time>2017-07-22T16:22:36Z</time>
      </trkpt>
      <trkpt lat="44.0931220" lon="7.5352200">
        <ele>1926.2</ele>
        <time>2017-07-22T16:22:38Z</time>
      </trkpt>
      <trkpt lat="44.0931920" lon="7.5351990">
        <ele>1927.0</ele>
        <time>2017-07-22T16:22:41Z</time>
      </trkpt>
      <trkpt lat="44.0932590" lon="7.5351550">
        <ele>1927.8</ele>
        <time>2017-07-22T16:22:44Z</time>
      </trkpt>
      <trkpt lat="44.0933020" lon="7.5351180">
        <ele>1928.2</ele>
        <time>2017-07-22T16:22:46Z</time>
      </trkpt>
      <trkpt lat="44.0933730" lon="7.5350280">
        <ele>1928.8</ele>
        <time>2017-07-22T16:22:50Z</time>
      </trkpt>
      <trkpt lat="44.0934050" lon="7.5349820">
        <ele>1929.2</ele>
        <time>2017-07-22T16:22:52Z</time>
      </trkpt>
      <trkpt lat="44.0935070" lon="7.5348700">
        <ele>1930.0</ele>
        <time>2017-07-22T16:22:57Z</time>
      </trkpt>
      <trkpt lat="44.0935270" lon="7.5348520">
        <ele>1930.4</ele>
        <time>2017-07-22T16:22:58Z</time>
      </trkpt>
      <trkpt lat="44.0936360" lon="7.5347830">
        <ele>1931.2</ele>
        <time>2017-07-22T16:23:03Z</time>
      </trkpt>
      <trkpt lat="44.0936580" lon="7.5347730">
        <ele>1931.4</ele>
        <time>2017-07-22T16:23:04Z</time>
      </trkpt>
      <trkpt lat="44.0937620" lon="7.5346970">
        <ele>1932.6</ele>
        <time>2017-07-22T16:23:09Z</time>
      </trkpt>
      <trkpt lat="44.0938020" lon="7.5346630">
        <ele>1933.4</ele>
        <time>2017-07-22T16:23:11Z</time>
      </trkpt>
      <trkpt lat="44.0938390" lon="7.5346240">
        <ele>1933.8</ele>
        <time>2017-07-22T16:23:13Z</time>
      </trkpt>
      <trkpt lat="44.0938880" lon="7.5345110">
        <ele>1934.6</ele>
        <time>2017-07-22T16:23:17Z</time>
      </trkpt>
      <trkpt lat="44.0938930" lon="7.5344790">
        <ele>1935.0</ele>
        <time>2017-07-22T16:23:18Z</time>
      </trkpt>
      <trkpt lat="44.0939090" lon="7.5343080">
        <ele>1936.2</ele>
        <time>2017-07-22T16:23:23Z</time>
      </trkpt>
      <trkpt lat="44.0939050" lon="7.5342680">
        <ele>1936.4</ele>
        <time>2017-07-22T16:23:24Z</time>
      </trkpt>
      <trkpt lat="44.0939100" lon="7.5340980">
        <ele>1937.2</ele>
        <time>2017-07-22T16:23:28Z</time>
      </trkpt>
      <trkpt lat="44.0939220" lon="7.5340460">
        <ele>1937.4</ele>
        <time>2017-07-22T16:23:29Z</time>
      </trkpt>
      <trkpt lat="44.0939380" lon="7.5339920">
        <ele>1937.6</ele>
        <time>2017-07-22T16:23:30Z</time>
      </trkpt>
      <trkpt lat="44.0940490" lon="7.5337820">
        <ele>1938.2</ele>
        <time>2017-07-22T16:23:34Z</time>
      </trkpt>
      <trkpt lat="44.0941160" lon="7.5336810">
        <ele>1938.6</ele>
        <time>2017-07-22T16:23:36Z</time>
      </trkpt>
      <trkpt lat="44.0942470" lon="7.5335520">
        <ele>1938.8</ele>
        <time>2017-07-22T16:23:39Z</time>
      </trkpt>
      <trkpt lat="44.0943380" lon="7.5334570">
        <ele>1939.2</ele>
        <time>2017-07-22T16:23:41Z</time>
      </trkpt>
      <trkpt lat="44.0944940" lon="7.5333290">
        <ele>1939.2</ele>
        <time>2017-07-22T16:23:44Z</time>
      </trkpt>
      <trkpt lat="44.0945480" lon="7.5332830">
        <ele>1939.4</ele>
        <time>2017-07-22T16:23:45Z</time>
      </trkpt>
      <trkpt lat="44.0947740" lon="7.5331050">
        <ele>1939.0</ele>
        <time>2017-07-22T16:23:49Z</time>
      </trkpt>
      <trkpt lat="44.0948320" lon="7.5330640">
        <ele>1939.0</ele>
        <time>2017-07-22T16:23:50Z</time>
      </trkpt>
      <trkpt lat="44.0950130" lon="7.5329260">
        <ele>1938.8</ele>
        <time>2017-07-22T16:23:53Z</time>
      </trkpt>
      <trkpt lat="44.0951090" lon="7.5327870">
        <ele>1938.4</ele>
        <time>2017-07-22T16:23:55Z</time>
      </trkpt>
      <trkpt lat="44.0951540" lon="7.5327130">
        <ele>1938.2</ele>
        <time>2017-07-22T16:23:56Z</time>
      </trkpt>
      <trkpt lat="44.0952530" lon="7.5325750">
        <ele>1938.0</ele>
        <time>2017-07-22T16:23:58Z</time>
      </trkpt>
      <trkpt lat="44.0953680" lon="7.5324530">
        <ele>1937.6</ele>
        <time>2017-07-22T16:24:00Z</time>
      </trkpt>
      <trkpt lat="44.0955670" lon="7.5322910">
        <ele>1937.0</ele>
        <time>2017-07-22T16:24:03Z</time>
      </trkpt>
      <trkpt lat="44.0957020" lon="7.5321790">
        <ele>1936.6</ele>
        <time>2017-07-22T16:24:05Z</time>
      </trkpt>
      <trkpt lat="44.0959170" lon="7.5320140">
        <ele>1936.0</ele>
        <time>2017-07-22T16:24:08Z</time>
      </trkpt>
      <trkpt lat="44.0961370" lon="7.5318480">
        <ele>1935.2</ele>
        <time>2017-07-22T16:24:11Z</time>
      </trkpt>
      <trkpt lat="44.0962900" lon="7.5317570">
        <ele>1934.8</ele>
        <time>2017-07-22T16:24:13Z</time>
      </trkpt>
      <trkpt lat="44.0964790" lon="7.5316180">
        <ele>1933.6</ele>
        <time>2017-07-22T16:24:16Z</time>
      </trkpt>
      <trkpt lat="44.0965270" lon="7.5313900">
        <ele>1933.2</ele>
        <time>2017-07-22T16:24:19Z</time>
      </trkpt>
      <trkpt lat="44.0965420" lon="7.5312170">
        <ele>1932.6</ele>
        <time>2017-07-22T16:24:21Z</time>
      </trkpt>
      <trkpt lat="44.0965510" lon="7.5311250">
        <ele>1932.4</ele>
        <time>2017-07-22T16:24:22Z</time>
      </trkpt>
      <trkpt lat="44.0965840" lon="7.5308340">
        <ele>1931.4</ele>
        <time>2017-07-22T16:24:25Z</time>
      </trkpt>
      <trkpt lat="44.0966040" lon="7.5307370">
        <ele>1931.4</ele>
        <time>2017-07-22T16:24:26Z</time>
      </trkpt>
      <trkpt lat="44.0966450" lon="7.5304290">
        <ele>1930.4</ele>
        <time>2017-07-22T16:24:29Z</time>
      </trkpt>
      <trkpt lat="44.0966440" lon="7.5303250">
        <ele>1930.0</ele>
        <time>2017-07-22T16:24:30Z</time>
      </trkpt>
      <trkpt lat="44.0966450" lon="7.5301180">
        <ele>1929.6</ele>
        <time>2017-07-22T16:24:32Z</time>
      </trkpt>
      <trkpt lat="44.0966590" lon="7.5300180">
        <ele>1929.0</ele>
        <time>2017-07-22T16:24:33Z</time>
      </trkpt>
      <trkpt lat="44.0967280" lon="7.5298360">
        <ele>1928.0</ele>
        <time>2017-07-22T16:24:35Z</time>
      </trkpt>
      <trkpt lat="44.0967810" lon="7.5297600">
        <ele>1927.6</ele>
        <time>2017-07-22T16:24:36Z</time>
      </trkpt>
      <trkpt lat="44.0969120" lon="7.5296620">
        <ele>1926.8</ele>
        <time>2017-07-22T16:24:38Z</time>
      </trkpt>
      <trkpt lat="44.0969830" lon="7.5296350">
        <ele>1926.4</ele>
        <time>2017-07-22T16:24:39Z</time>
      </trkpt>
      <trkpt lat="44.0971370" lon="7.5296220">
        <ele>1925.6</ele>
        <time>2017-07-22T16:24:41Z</time>
      </trkpt>
      <trkpt lat="44.0972890" lon="7.5296140">
        <ele>1924.6</ele>
        <time>2017-07-22T16:24:43Z</time>
      </trkpt>
      <trkpt lat="44.0975020" lon="7.5295490">
        <ele>1923.8</ele>
        <time>2017-07-22T16:24:46Z</time>
      </trkpt>
      <trkpt lat="44.0975650" lon="7.5295130">
        <ele>1923.6</ele>
        <time>2017-07-22T16:24:47Z</time>
      </trkpt>
      <trkpt lat="44.0976290" lon="7.5294730">
        <ele>1923.4</ele>
        <time>2017-07-22T16:24:48Z</time>
      </trkpt>
      <trkpt lat="44.0978120" lon="7.5293070">
        <ele>1922.4</ele>
        <time>2017-07-22T16:24:51Z</time>
      </trkpt>
      <trkpt lat="44.0978700" lon="7.5292420">
        <ele>1922.4</ele>
        <time>2017-07-22T16:24:52Z</time>
      </trkpt>
      <trkpt lat="44.0979940" lon="7.5291170">
        <ele>1922.0</ele>
        <time>2017-07-22T16:24:54Z</time>
      </trkpt>
      <trkpt lat="44.0982590" lon="7.5289290">
        <ele>1921.8</ele>
        <time>2017-07-22T16:24:58Z</time>
      </trkpt>
      <trkpt lat="44.0984470" lon="7.5288170">
        <ele>1921.4</ele>
        <time>2017-07-22T16:25:01Z</time>
      </trkpt>
      <trkpt lat="44.0985030" lon="7.5287620">
        <ele>1921.4</ele>
        <time>2017-07-22T16:25:02Z</time>
      </trkpt>
      <trkpt lat="44.0986150" lon="7.5286750">
        <ele>1921.4</ele>
        <time>2017-07-22T16:25:04Z</time>
      </trkpt>
      <trkpt lat="44.0987180" lon="7.5286050">
        <ele>1921.2</ele>
        <time>2017-07-22T16:25:06Z</time>
      </trkpt>
      <trkpt lat="44.0987540" lon="7.5283950">
        <ele>1921.0</ele>
        <time>2017-07-22T16:25:09Z</time>
      </trkpt>
      <trkpt lat="44.0988270" lon="7.5279340">
        <ele>1920.8</ele>
        <time>2017-07-22T16:25:14Z</time>
      </trkpt>
      <trkpt lat="44.0989800" lon="7.5274800">
        <ele>1920.6</ele>
        <time>2017-07-22T16:25:19Z</time>
      </trkpt>
      <trkpt lat="44.0990210" lon="7.5274060">
        <ele>1920.6</ele>
        <time>2017-07-22T16:25:20Z</time>
      </trkpt>
      <trkpt lat="44.0991190" lon="7.5273310">
        <ele>1920.8</ele>
        <time>2017-07-22T16:25:22Z</time>
      </trkpt>
      <trkpt lat="44.0992230" lon="7.5273550">
        <ele>1920.4</ele>
        <time>2017-07-22T16:25:24Z</time>
      </trkpt>
      <trkpt lat="44.0993410" lon="7.5273200">
        <ele>1920.2</ele>
        <time>2017-07-22T16:25:26Z</time>
      </trkpt>
      <trkpt lat="44.0993580" lon="7.5272610">
        <ele>1920.4</ele>
        <time>2017-07-22T16:25:27Z</time>
      </trkpt>
      <trkpt lat="44.0993690" lon="7.5271220">
        <ele>1920.4</ele>
        <time>2017-07-22T16:25:29Z</time>
      </trkpt>
      <trkpt lat="44.0993850" lon="7.5270450">
        <ele>1920.4</ele>
        <time>2017-07-22T16:25:30Z</time>
      </trkpt>
      <trkpt lat="44.0994100" lon="7.5269670">
        <ele>1920.2</ele>
        <time>2017-07-22T16:25:31Z</time>
      </trkpt>
      <trkpt lat="44.0995800" lon="7.5267000">
        <ele>1919.8</ele>
        <time>2017-07-22T16:25:35Z</time>
      </trkpt>
      <trkpt lat="44.0996320" lon="7.5266440">
        <ele>1920.0</ele>
        <time>2017-07-22T16:25:36Z</time>
      </trkpt>
      <trkpt lat="44.0998060" lon="7.5264980">
        <ele>1919.2</ele>
        <time>2017-07-22T16:25:39Z</time>
      </trkpt>
      <trkpt lat="44.0998940" lon="7.5265050">
        <ele>1919.0</ele>
        <time>2017-07-22T16:25:40Z</time>
      </trkpt>
      <trkpt lat="44.1000400" lon="7.5264500">
        <ele>1918.2</ele>
        <time>2017-07-22T16:25:43Z</time>
      </trkpt>
      <trkpt lat="44.1000410" lon="7.5264080">
        <ele>1917.8</ele>
        <time>2017-07-22T16:25:44Z</time>
      </trkpt>
      <trkpt lat="44.1000200" lon="7.5263000">
        <ele>1917.6</ele>
        <time>2017-07-22T16:25:46Z</time>
      </trkpt>
      <trkpt lat="44.1000040" lon="7.5260820">
        <ele>1917.2</ele>
        <time>2017-07-22T16:25:49Z</time>
      </trkpt>
      <trkpt lat="44.1000000" lon="7.5260000">
        <ele>1917.0</ele>
        <time>2017-07-22T16:25:50Z</time>
      </trkpt>
      <trkpt lat="44.1000020" lon="7.5259130">
        <ele>1916.6</ele>
        <time>2017-07-22T16:25:51Z</time>
      </trkpt>
      <trkpt lat="44.1000130" lon="7.5258220">
        <ele>1916.4</ele>
        <time>2017-07-22T16:25:52Z</time>
      </trkpt>
      <trkpt lat="44.1000710" lon="7.5256520">
        <ele>1916.0</ele>
        <time>2017-07-22T16:25:54Z</time>
      </trkpt>
      <trkpt lat="44.1001790" lon="7.5254120">
        <ele>1915.6</ele>
        <time>2017-07-22T16:25:57Z</time>
      </trkpt>
      <trkpt lat="44.1002220" lon="7.5252390">
        <ele>1914.8</ele>
        <time>2017-07-22T16:25:59Z</time>
      </trkpt>
      <trkpt lat="44.1002390" lon="7.5251510">
        <ele>1914.6</ele>
        <time>2017-07-22T16:26:00Z</time>
      </trkpt>
      <trkpt lat="44.1003620" lon="7.5247030">
        <ele>1914.0</ele>
        <time>2017-07-22T16:26:05Z</time>
      </trkpt>
      <trkpt lat="44.1004760" lon="7.5244400">
        <ele>1913.6</ele>
        <time>2017-07-22T16:26:08Z</time>
      </trkpt>
      <trkpt lat="44.1006170" lon="7.5241950">
        <ele>1913.0</ele>
        <time>2017-07-22T16:26:11Z</time>
      </trkpt>
      <trkpt lat="44.1008150" lon="7.5238600">
        <ele>1912.4</ele>
        <time>2017-07-22T16:26:15Z</time>
      </trkpt>
      <trkpt lat="44.1008650" lon="7.5236610">
        <ele>1912.0</ele>
        <time>2017-07-22T16:26:18Z</time>
      </trkpt>
      <trkpt lat="44.1009390" lon="7.5232550">
        <ele>1911.4</ele>
        <time>2017-07-22T16:26:22Z</time>
      </trkpt>
      <trkpt lat="44.1009590" lon="7.5231510">
        <ele>1911.4</ele>
        <time>2017-07-22T16:26:23Z</time>
      </trkpt>
      <trkpt lat="44.1009830" lon="7.5229330">
        <ele>1911.0</ele>
        <time>2017-07-22T16:26:25Z</time>
      </trkpt>
      <trkpt lat="44.1009820" lon="7.5228220">
        <ele>1911.0</ele>
        <time>2017-07-22T16:26:26Z</time>
      </trkpt>
      <trkpt lat="44.1009700" lon="7.5224900">
        <ele>1910.6</ele>
        <time>2017-07-22T16:26:29Z</time>
      </trkpt>
      <trkpt lat="44.1009920" lon="7.5223880">
        <ele>1910.4</ele>
        <time>2017-07-22T16:26:30Z</time>
      </trkpt>
      <trkpt lat="44.1010310" lon="7.5223120">
        <ele>1910.2</ele>
        <time>2017-07-22T16:26:31Z</time>
      </trkpt>
      <trkpt lat="44.1010790" lon="7.5222580">
        <ele>1910.2</ele>
        <time>2017-07-22T16:26:32Z</time>
      </trkpt>
      <trkpt lat="44.1012550" lon="7.5221690">
        <ele>1910.2</ele>
        <time>2017-07-22T16:26:35Z</time>
      </trkpt>
      <trkpt lat="44.1014040" lon="7.5221450">
        <ele>1909.8</ele>
        <time>2017-07-22T16:26:37Z</time>
      </trkpt>
      <trkpt lat="44.1014790" lon="7.5221220">
        <ele>1909.4</ele>
        <time>2017-07-22T16:26:38Z</time>
      </trkpt>
      <trkpt lat="44.1015540" lon="7.5221040">
        <ele>1909.4</ele>
        <time>2017-07-22T16:26:39Z</time>
      </trkpt>
      <trkpt lat="44.1017120" lon="7.5220850">
        <ele>1909.2</ele>
        <time>2017-07-22T16:26:41Z</time>
      </trkpt>
      <trkpt lat="44.1018320" lon="7.5219890">
        <ele>1909.0</ele>
        <time>2017-07-22T16:26:43Z</time>
      </trkpt>
      <trkpt lat="44.1018920" lon="7.5218250">
        <ele>1908.6</ele>
        <time>2017-07-22T16:26:45Z</time>
      </trkpt>
      <trkpt lat="44.1019330" lon="7.5217450">
        <ele>1908.4</ele>
        <time>2017-07-22T16:26:46Z</time>
      </trkpt>
      <trkpt lat="44.1019810" lon="7.5216660">
        <ele>1908.0</ele>
        <time>2017-07-22T16:26:47Z</time>
      </trkpt>
      <trkpt lat="44.1021140" lon="7.5214140">
        <ele>1907.6</ele>
        <time>2017-07-22T16:26:50Z</time>
      </trkpt>
      <trkpt lat="44.1021650" lon="7.5213370">
        <ele>1907.6</ele>
        <time>2017-07-22T16:26:51Z</time>
      </trkpt>
      <trkpt lat="44.1022960" lon="7.5212110">
        <ele>1907.6</ele>
        <time>2017-07-22T16:26:53Z</time>
      </trkpt>
      <trkpt lat="44.1025200" lon="7.5210420">
        <ele>1907.0</ele>
        <time>2017-07-22T16:26:56Z</time>
      </trkpt>
      <trkpt lat="44.1025890" lon="7.5209710">
        <ele>1907.0</ele>
        <time>2017-07-22T16:26:57Z</time>
      </trkpt>
      <trkpt lat="44.1026570" lon="7.5208990">
        <ele>1906.8</ele>
        <time>2017-07-22T16:26:58Z</time>
      </trkpt>
      <trkpt lat="44.1029080" lon="7.5205860">
        <ele>1905.8</ele>
        <time>2017-07-22T16:27:02Z</time>
      </trkpt>
      <trkpt lat="44.1030110" lon="7.5204190">
        <ele>1905.8</ele>
        <time>2017-07-22T16:27:04Z</time>
      </trkpt>
      <trkpt lat="44.1030670" lon="7.5203530">
        <ele>1905.6</ele>
        <time>2017-07-22T16:27:05Z</time>
      </trkpt>
      <trkpt lat="44.1031810" lon="7.5202930">
        <ele>1905.6</ele>
        <time>2017-07-22T16:27:07Z</time>
      </trkpt>
      <trkpt lat="44.1033220" lon="7.5204030">
        <ele>1905.4</ele>
        <time>2017-07-22T16:27:09Z</time>
      </trkpt>
      <trkpt lat="44.1034440" lon="7.5205960">
        <ele>1904.8</ele>
        <time>2017-07-22T16:27:11Z</time>
      </trkpt>
      <trkpt lat="44.1034920" lon="7.5207020">
        <ele>1904.6</ele>
        <time>2017-07-22T16:27:12Z</time>
      </trkpt>
      <trkpt lat="44.1036840" lon="7.5209150">
        <ele>1904.0</ele>
        <time>2017-07-22T16:27:15Z</time>
      </trkpt>
      <trkpt lat="44.1037610" lon="7.5209580">
        <ele>1903.8</ele>
        <time>2017-07-22T16:27:16Z</time>
      </trkpt>
      <trkpt lat="44.1039990" lon="7.5210490">
        <ele>1903.2</ele>
        <time>2017-07-22T16:27:19Z</time>
      </trkpt>
      <trkpt lat="44.1043050" lon="7.5211680">
        <ele>1902.6</ele>
        <time>2017-07-22T16:27:23Z</time>
      </trkpt>
      <trkpt lat="44.1044560" lon="7.5212310">
        <ele>1902.0</ele>
        <time>2017-07-22T16:27:25Z</time>
      </trkpt>
      <trkpt lat="44.1045260" lon="7.5212750">
        <ele>1901.8</ele>
        <time>2017-07-22T16:27:26Z</time>
      </trkpt>
      <trkpt lat="44.1045940" lon="7.5213210">
        <ele>1901.6</ele>
        <time>2017-07-22T16:27:27Z</time>
      </trkpt>
      <trkpt lat="44.1048030" lon="7.5214990">
        <ele>1901.4</ele>
        <time>2017-07-22T16:27:30Z</time>
      </trkpt>
      <trkpt lat="44.1049410" lon="7.5216480">
        <ele>1901.0</ele>
        <time>2017-07-22T16:27:32Z</time>
      </trkpt>
      <trkpt lat="44.1051440" lon="7.5218610">
        <ele>1900.2</ele>
        <time>2017-07-22T16:27:35Z</time>
      </trkpt>
      <trkpt lat="44.1055580" lon="7.5222380">
        <ele>1899.2</ele>
        <time>2017-07-22T16:27:41Z</time>
      </trkpt>
      <trkpt lat="44.1056130" lon="7.5223200">
        <ele>1899.0</ele>
        <time>2017-07-22T16:27:42Z</time>
      </trkpt>
      <trkpt lat="44.1057310" lon="7.5226120">
        <ele>1899.0</ele>
        <time>2017-07-22T16:27:45Z</time>
      </trkpt>
      <trkpt lat="44.1057650" lon="7.5227120">
        <ele>1898.6</ele>
        <time>2017-07-22T16:27:46Z</time>
      </trkpt>
      <trkpt lat="44.1058260" lon="7.5229240">
        <ele>1897.8</ele>
        <time>2017-07-22T16:27:48Z</time>
      </trkpt>
      <trkpt lat="44.1058940" lon="7.5231170">
        <ele>1897.4</ele>
        <time>2017-07-22T16:27:50Z</time>
      </trkpt>
      <trkpt lat="44.1059380" lon="7.5232050">
        <ele>1897.6</ele>
        <time>2017-07-22T16:27:51Z</time>
      </trkpt>
      <trkpt lat="44.1061580" lon="7.5235070">
        <ele>1897.0</ele>
        <time>2017-07-22T16:27:55Z</time>
      </trkpt>
      <trkpt lat="44.1062270" lon="7.5235330">
        <ele>1896.8</ele>
        <time>2017-07-22T16:27:56Z</time>
      </trkpt>
      <trkpt lat="44.1062930" lon="7.5235130">
        <ele>1896.8</ele>
        <time>2017-07-22T16:27:57Z</time>
      </trkpt>
      <trkpt lat="44.1063490" lon="7.5234630">
        <ele>1896.6</ele>
        <time>2017-07-22T16:27:58Z</time>
      </trkpt>
      <trkpt lat="44.1064560" lon="7.5233300">
        <ele>1895.8</ele>
        <time>2017-07-22T16:28:00Z</time>
      </trkpt>
      <trkpt lat="44.1065770" lon="7.5231980">
        <ele>1895.6</ele>
        <time>2017-07-22T16:28:02Z</time>
      </trkpt>
      <trkpt lat="44.1069260" lon="7.5228420">
        <ele>1894.8</ele>
        <time>2017-07-22T16:28:08Z</time>
      </trkpt>
      <trkpt lat="44.1071390" lon="7.5226010">
        <ele>1894.4</ele>
        <time>2017-07-22T16:28:12Z</time>
      </trkpt>
      <trkpt lat="44.1072360" lon="7.5224620">
        <ele>1894.2</ele>
        <time>2017-07-22T16:28:14Z</time>
      </trkpt>
      <trkpt lat="44.1075310" lon="7.5220060">
        <ele>1893.6</ele>
        <time>2017-07-22T16:28:20Z</time>
      </trkpt>
      <trkpt lat="44.1076380" lon="7.5218500">
        <ele>1893.4</ele>
        <time>2017-07-22T16:28:22Z</time>
      </trkpt>
      <trkpt lat="44.1078710" lon="7.5214350">
        <ele>1893.0</ele>
        <time>2017-07-22T16:28:27Z</time>
      </trkpt>
      <trkpt lat="44.1080150" lon="7.5212150">
        <ele>1892.6</ele>
        <time>2017-07-22T16:28:30Z</time>
      </trkpt>
      <trkpt lat="44.1081290" lon="7.5211180">
        <ele>1892.8</ele>
        <time>2017-07-22T16:28:32Z</time>
      </trkpt>
      <trkpt lat="44.1083620" lon="7.5209850">
        <ele>1893.0</ele>
        <time>2017-07-22T16:28:36Z</time>
      </trkpt>
      <trkpt lat="44.1084780" lon="7.5209630">
        <ele>1893.0</ele>
        <time>2017-07-22T16:28:38Z</time>
      </trkpt>
      <trkpt lat="44.1085890" lon="7.5209650">
        <ele>1893.0</ele>
        <time>2017-07-22T16:28:40Z</time>
      </trkpt>
      <trkpt lat="44.1087360" lon="7.5209770">
        <ele>1893.8</ele>
        <time>2017-07-22T16:28:43Z</time>
      </trkpt>
      <trkpt lat="44.1089130" lon="7.5210270">
        <ele>1894.2</ele>
        <time>2017-07-22T16:28:47Z</time>
      </trkpt>
      <trkpt lat="44.1089560" lon="7.5210470">
        <ele>1894.6</ele>
        <time>2017-07-22T16:28:48Z</time>
      </trkpt>
      <trkpt lat="44.1090010" lon="7.5210690">
        <ele>1894.8</ele>
        <time>2017-07-22T16:28:49Z</time>
      </trkpt>
      <trkpt lat="44.1090410" lon="7.5210980">
        <ele>1895.0</ele>
        <time>2017-07-22T16:28:50Z</time>
      </trkpt>
      <trkpt lat="44.1091590" lon="7.5211820">
        <ele>1895.2</ele>
        <time>2017-07-22T16:28:53Z</time>
      </trkpt>
      <trkpt lat="44.1092020" lon="7.5211870">
        <ele>1895.4</ele>
        <time>2017-07-22T16:28:54Z</time>
      </trkpt>
      <trkpt lat="44.1092430" lon="7.5211820">
        <ele>1895.6</ele>
        <time>2017-07-22T16:28:55Z</time>
      </trkpt>
      <trkpt lat="44.1093470" lon="7.5210940">
        <ele>1896.4</ele>
        <time>2017-07-22T16:28:58Z</time>
      </trkpt>
      <trkpt lat="44.1093910" lon="7.5210100">
        <ele>1896.8</ele>
        <time>2017-07-22T16:29:00Z</time>
      </trkpt>
      <trkpt lat="44.1094110" lon="7.5209580">
        <ele>1897.0</ele>
        <time>2017-07-22T16:29:01Z</time>
      </trkpt>
      <trkpt lat="44.1094270" lon="7.5209120">
        <ele>1897.2</ele>
        <time>2017-07-22T16:29:02Z</time>
      </trkpt>
      <trkpt lat="44.1094780" lon="7.5207870">
        <ele>1897.8</ele>
        <time>2017-07-22T16:29:05Z</time>
      </trkpt>
      <trkpt lat="44.1095180" lon="7.5207210">
        <ele>1898.4</ele>
        <time>2017-07-22T16:29:07Z</time>
      </trkpt>
      <trkpt lat="44.1095650" lon="7.5206650">
        <ele>1899.0</ele>
        <time>2017-07-22T16:29:09Z</time>
      </trkpt>
      <trkpt lat="44.1097130" lon="7.5205680">
        <ele>1900.2</ele>
        <time>2017-07-22T16:29:14Z</time>
      </trkpt>
      <trkpt lat="44.1099180" lon="7.5205520">
        <ele>1901.2</ele>
        <time>2017-07-22T16:29:20Z</time>
      </trkpt>
      <trkpt lat="44.1100930" lon="7.5205820">
        <ele>1902.6</ele>
        <time>2017-07-22T16:29:25Z</time>
      </trkpt>
      <trkpt lat="44.1101620" lon="7.5205840">
        <ele>1903.0</ele>
        <time>2017-07-22T16:29:27Z</time>
      </trkpt>
      <trkpt lat="44.1102530" lon="7.5205790">
        <ele>1903.6</ele>
        <time>2017-07-22T16:29:30Z</time>
      </trkpt>
      <trkpt lat="44.1103320" lon="7.5205780">
        <ele>1904.4</ele>
        <time>2017-07-22T16:29:33Z</time>
      </trkpt>
      <trkpt lat="44.1104130" lon="7.5205840">
        <ele>1904.8</ele>
        <time>2017-07-22T16:29:36Z</time>
      </trkpt>
      <trkpt lat="44.1104960" lon="7.5205980">
        <ele>1905.4</ele>
        <time>2017-07-22T16:29:39Z</time>
      </trkpt>
      <trkpt lat="44.1105740" lon="7.5206140">
        <ele>1906.0</ele>
        <time>2017-07-22T16:29:42Z</time>
      </trkpt>
      <trkpt lat="44.1107080" lon="7.5206560">
        <ele>1906.8</ele>
        <time>2017-07-22T16:29:47Z</time>
      </trkpt>
      <trkpt lat="44.1107340" lon="7.5206650">
        <ele>1907.2</ele>
        <time>2017-07-22T16:29:48Z</time>
      </trkpt>
      <trkpt lat="44.1109030" lon="7.5207020">
        <ele>1908.4</ele>
        <time>2017-07-22T16:29:54Z</time>
      </trkpt>
      <trkpt lat="44.1111110" lon="7.5207470">
        <ele>1909.6</ele>
        <time>2017-07-22T16:30:01Z</time>
      </trkpt>
      <trkpt lat="44.1113010" lon="7.5207970">
        <ele>1910.6</ele>
        <time>2017-07-22T16:30:07Z</time>
      </trkpt>
      <trkpt lat="44.1113310" lon="7.5208040">
        <ele>1910.8</ele>
        <time>2017-07-22T16:30:08Z</time>
      </trkpt>
      <trkpt lat="44.1114410" lon="7.5208290">
        <ele>1911.8</ele>
        <time>2017-07-22T16:30:12Z</time>
      </trkpt>
      <trkpt lat="44.1115200" lon="7.5208420">
        <ele>1912.2</ele>
        <time>2017-07-22T16:30:15Z</time>
      </trkpt>
      <trkpt lat="44.1116070" lon="7.5208610">
        <ele>1912.8</ele>
        <time>2017-07-22T16:30:18Z</time>
      </trkpt>
      <trkpt lat="44.1117140" lon="7.5208780">
        <ele>1913.8</ele>
        <time>2017-07-22T16:30:22Z</time>
      </trkpt>
      <trkpt lat="44.1117380" lon="7.5208830">
        <ele>1914.0</ele>
        <time>2017-07-22T16:30:23Z</time>
      </trkpt>
      <trkpt lat="44.1118730" lon="7.5209360">
        <ele>1914.8</ele>
        <time>2017-07-22T16:30:28Z</time>
      </trkpt>
      <trkpt lat="44.1119580" lon="7.5209690">
        <ele>1915.4</ele>
        <time>2017-07-22T16:30:31Z</time>
      </trkpt>
      <trkpt lat="44.1120560" lon="7.5210010">
        <ele>1916.0</ele>
        <time>2017-07-22T16:30:34Z</time>
      </trkpt>
      <trkpt lat="44.1122240" lon="7.5211050">
        <ele>1916.6</ele>
        <time>2017-07-22T16:30:39Z</time>
      </trkpt>
      <trkpt lat="44.1122860" lon="7.5211470">
        <ele>1917.0</ele>
        <time>2017-07-22T16:30:41Z</time>
      </trkpt>
      <trkpt lat="44.1123970" lon="7.5212450">
        <ele>1917.6</ele>
        <time>2017-07-22T16:30:45Z</time>
      </trkpt>
      <trkpt lat="44.1124550" lon="7.5213090">
        <ele>1918.0</ele>
        <time>2017-07-22T16:30:47Z</time>
      </trkpt>
      <trkpt lat="44.1125650" lon="7.5214350">
        <ele>1919.0</ele>
        <time>2017-07-22T16:30:51Z</time>
      </trkpt>
      <trkpt lat="44.1125920" lon="7.5214680">
        <ele>1919.2</ele>
        <time>2017-07-22T16:30:52Z</time>
      </trkpt>
      <trkpt lat="44.1127370" lon="7.5216990">
        <ele>1920.4</ele>
        <time>2017-07-22T16:30:58Z</time>
      </trkpt>
      <trkpt lat="44.1128390" lon="7.5218650">
        <ele>1921.6</ele>
        <time>2017-07-22T16:31:02Z</time>
      </trkpt>
      <trkpt lat="44.1129170" lon="7.5219830">
        <ele>1922.2</ele>
        <time>2017-07-22T16:31:05Z</time>
      </trkpt>
      <trkpt lat="44.1129650" lon="7.5221250">
        <ele>1922.8</ele>
        <time>2017-07-22T16:31:08Z</time>
      </trkpt>
      <trkpt lat="44.1129960" lon="7.5222620">
        <ele>1923.4</ele>
        <time>2017-07-22T16:31:11Z</time>
      </trkpt>
      <trkpt lat="44.1130260" lon="7.5223940">
        <ele>1924.2</ele>
        <time>2017-07-22T16:31:14Z</time>
      </trkpt>
      <trkpt lat="44.1130960" lon="7.5225300">
        <ele>1924.6</ele>
        <time>2017-07-22T16:31:18Z</time>
      </trkpt>
      <trkpt lat="44.1132640" lon="7.5226010">
        <ele>1925.2</ele>
        <time>2017-07-22T16:31:23Z</time>
      </trkpt>
      <trkpt lat="44.1134380" lon="7.5226490">
        <ele>1925.8</ele>
        <time>2017-07-22T16:31:28Z</time>
      </trkpt>
      <trkpt lat="44.1135520" lon="7.5226870">
        <ele>1926.2</ele>
        <time>2017-07-22T16:31:31Z</time>
      </trkpt>
      <trkpt lat="44.1137040" lon="7.5227540">
        <ele>1927.0</ele>
        <time>2017-07-22T16:31:35Z</time>
      </trkpt>
      <trkpt lat="44.1137400" lon="7.5227700">
        <ele>1927.2</ele>
        <time>2017-07-22T16:31:36Z</time>
      </trkpt>
      <trkpt lat="44.1139260" lon="7.5228370">
        <ele>1928.4</ele>
        <time>2017-07-22T16:31:41Z</time>
      </trkpt>
      <trkpt lat="44.1140060" lon="7.5228160">
        <ele>1928.8</ele>
        <time>2017-07-22T16:31:43Z</time>
      </trkpt>
      <trkpt lat="44.1141190" lon="7.5227710">
        <ele>1929.6</ele>
        <time>2017-07-22T16:31:46Z</time>
      </trkpt>
      <trkpt lat="44.1142490" lon="7.5226850">
        <ele>1931.0</ele>
        <time>2017-07-22T16:31:50Z</time>
      </trkpt>
      <trkpt lat="44.1144240" lon="7.5226300">
        <ele>1932.0</ele>
        <time>2017-07-22T16:31:55Z</time>
      </trkpt>
      <trkpt lat="44.1144600" lon="7.5226130">
        <ele>1932.2</ele>
        <time>2017-07-22T16:31:56Z</time>
      </trkpt>
      <trkpt lat="44.1146350" lon="7.5225200">
        <ele>1933.2</ele>
        <time>2017-07-22T16:32:01Z</time>
      </trkpt>
      <trkpt lat="44.1147890" lon="7.5224090">
        <ele>1934.2</ele>
        <time>2017-07-22T16:32:05Z</time>
      </trkpt>
      <trkpt lat="44.1148260" lon="7.5223730">
        <ele>1934.4</ele>
        <time>2017-07-22T16:32:06Z</time>
      </trkpt>
      <trkpt lat="44.1150420" lon="7.5221120">
        <ele>1935.4</ele>
        <time>2017-07-22T16:32:12Z</time>
      </trkpt>
      <trkpt lat="44.1152860" lon="7.5216630">
        <ele>1936.4</ele>
        <time>2017-07-22T16:32:20Z</time>
      </trkpt>
      <trkpt lat="44.1155310" lon="7.5212130">
        <ele>1937.6</ele>
        <time>2017-07-22T16:32:28Z</time>
      </trkpt>
      <trkpt lat="44.1157860" lon="7.5207500">
        <ele>1938.4</ele>
        <time>2017-07-22T16:32:36Z</time>
      </trkpt>
      <trkpt lat="44.1159110" lon="7.5204090">
        <ele>1938.6</ele>
        <time>2017-07-22T16:32:41Z</time>
      </trkpt>
      <trkpt lat="44.1159660" lon="7.5202600">
        <ele>1938.6</ele>
        <time>2017-07-22T16:32:43Z</time>
      </trkpt>
      <trkpt lat="44.1160910" lon="7.5199580">
        <ele>1937.6</ele>
        <time>2017-07-22T16:32:47Z</time>
      </trkpt>
      <trkpt lat="44.1161840" lon="7.5197180">
        <ele>1938.4</ele>
        <time>2017-07-22T16:32:50Z</time>
      </trkpt>
      <trkpt lat="44.1162450" lon="7.5195560">
        <ele>1937.2</ele>
        <time>2017-07-22T16:32:52Z</time>
      </trkpt>
      <trkpt lat="44.1163740" lon="7.5192350">
        <ele>1937.4</ele>
        <time>2017-07-22T16:32:56Z</time>
      </trkpt>
      <trkpt lat="44.1165930" lon="7.5186440">
        <ele>1936.8</ele>
        <time>2017-07-22T16:33:03Z</time>
      </trkpt>
      <trkpt lat="44.1166250" lon="7.5185600">
        <ele>1936.6</ele>
        <time>2017-07-22T16:33:04Z</time>
      </trkpt>
      <trkpt lat="44.1166610" lon="7.5184780">
        <ele>1936.4</ele>
        <time>2017-07-22T16:33:05Z</time>
      </trkpt>
      <trkpt lat="44.1169090" lon="7.5180150">
        <ele>1936.6</ele>
        <time>2017-07-22T16:33:11Z</time>
      </trkpt>
      <trkpt lat="44.1169670" lon="7.5179590">
        <ele>1936.6</ele>
        <time>2017-07-22T16:33:12Z</time>
      </trkpt>
      <trkpt lat="44.1172640" lon="7.5178340">
        <ele>1936.8</ele>
        <time>2017-07-22T16:33:16Z</time>
      </trkpt>
      <trkpt lat="44.1173540" lon="7.5178090">
        <ele>1936.6</ele>
        <time>2017-07-22T16:33:17Z</time>
      </trkpt>
      <trkpt lat="44.1177620" lon="7.5177210">
        <ele>1935.6</ele>
        <time>2017-07-22T16:33:21Z</time>
      </trkpt>
      <trkpt lat="44.1181270" lon="7.5176620">
        <ele>1934.4</ele>
        <time>2017-07-22T16:33:24Z</time>
      </trkpt>
      <trkpt lat="44.1183820" lon="7.5176190">
        <ele>1933.6</ele>
        <time>2017-07-22T16:33:26Z</time>
      </trkpt>
      <trkpt lat="44.1185130" lon="7.5175840">
        <ele>1933.0</ele>
        <time>2017-07-22T16:33:27Z</time>
      </trkpt>
      <trkpt lat="44.1189150" lon="7.5174690">
        <ele>1931.4</ele>
        <time>2017-07-22T16:33:30Z</time>
      </trkpt>
      <trkpt lat="44.1191770" lon="7.5173640">
        <ele>1930.0</ele>
        <time>2017-07-22T16:33:32Z</time>
      </trkpt>
      <trkpt lat="44.1193090" lon="7.5172820">
        <ele>1929.6</ele>
        <time>2017-07-22T16:33:33Z</time>
      </trkpt>
      <trkpt lat="44.1194410" lon="7.5171980">
        <ele>1928.8</ele>
        <time>2017-07-22T16:33:34Z</time>
      </trkpt>
      <trkpt lat="44.1197070" lon="7.5170220">
        <ele>1927.2</ele>
        <time>2017-07-22T16:33:36Z</time>
      </trkpt>
      <trkpt lat="44.1199760" lon="7.5168610">
        <ele>1925.8</ele>
        <time>2017-07-22T16:33:38Z</time>
      </trkpt>
      <trkpt lat="44.1201080" lon="7.5167740">
        <ele>1925.2</ele>
        <time>2017-07-22T16:33:39Z</time>
      </trkpt>
      <trkpt lat="44.1202330" lon="7.5167000">
        <ele>1924.0</ele>
        <time>2017-07-22T16:33:40Z</time>
      </trkpt>
      <trkpt lat="44.1203470" lon="7.5166250">
        <ele>1922.8</ele>
        <time>2017-07-22T16:33:41Z</time>
      </trkpt>
      <trkpt lat="44.1204430" lon="7.5165300">
        <ele>1921.6</ele>
        <time>2017-07-22T16:33:42Z</time>
      </trkpt>
      <trkpt lat="44.1205370" lon="7.5164250">
        <ele>1920.4</ele>
        <time>2017-07-22T16:33:43Z</time>
      </trkpt>
      <trkpt lat="44.1206180" lon="7.5163020">
        <ele>1919.4</ele>
        <time>2017-07-22T16:33:44Z</time>
      </trkpt>
      <trkpt lat="44.1206860" lon="7.5161620">
        <ele>1918.6</ele>
        <time>2017-07-22T16:33:45Z</time>
      </trkpt>
      <trkpt lat="44.1207320" lon="7.5160050">
        <ele>1917.4</ele>
        <time>2017-07-22T16:33:46Z</time>
      </trkpt>
      <trkpt lat="44.1207600" lon="7.5158330">
        <ele>1916.2</ele>
        <time>2017-07-22T16:33:47Z</time>
      </trkpt>
      <trkpt lat="44.1207800" lon="7.5156700">
        <ele>1913.8</ele>
        <time>2017-07-22T16:33:48Z</time>
      </trkpt>
      <trkpt lat="44.1208080" lon="7.5155220">
        <ele>1912.8</ele>
        <time>2017-07-22T16:33:49Z</time>
      </trkpt>
      <trkpt lat="44.1208420" lon="7.5153950">
        <ele>1911.6</ele>
        <time>2017-07-22T16:33:50Z</time>
      </trkpt>
      <trkpt lat="44.1208860" lon="7.5152750">
        <ele>1910.4</ele>
        <time>2017-07-22T16:33:51Z</time>
      </trkpt>
      <trkpt lat="44.1209280" lon="7.5151710">
        <ele>1909.2</ele>
        <time>2017-07-22T16:33:52Z</time>
      </trkpt>
      <trkpt lat="44.1209760" lon="7.5150720">
        <ele>1908.0</ele>
        <time>2017-07-22T16:33:53Z</time>
      </trkpt>
      <trkpt lat="44.1209970" lon="7.5150100">
        <ele>1906.8</ele>
        <time>2017-07-22T16:33:54Z</time>
      </trkpt>
      <trkpt lat="44.1210240" lon="7.5150250">
        <ele>1905.8</ele>
        <time>2017-07-22T16:33:55Z</time>
      </trkpt>
      <trkpt lat="44.1210730" lon="7.5150450">
        <ele>1904.8</ele>
        <time>2017-07-22T16:33:56Z</time>
      </trkpt>
      <trkpt lat="44.1211290" lon="7.5150460">
        <ele>1903.8</ele>
        <time>2017-07-22T16:33:57Z</time>
      </trkpt>
      <trkpt lat="44.1213680" lon="7.5151010">
        <ele>1901.8</ele>
        <time>2017-07-22T16:33:59Z</time>
      </trkpt>
      <trkpt lat="44.1216130" lon="7.5150940">
        <ele>1900.2</ele>
        <time>2017-07-22T16:34:01Z</time>
      </trkpt>
      <trkpt lat="44.1217170" lon="7.5150920">
        <ele>1899.2</ele>
        <time>2017-07-22T16:34:02Z</time>
      </trkpt>
      <trkpt lat="44.1218400" lon="7.5151230">
        <ele>1898.4</ele>
        <time>2017-07-22T16:34:03Z</time>
      </trkpt>
      <trkpt lat="44.1219420" lon="7.5152170">
        <ele>1897.4</ele>
        <time>2017-07-22T16:34:04Z</time>
      </trkpt>
      <trkpt lat="44.1220280" lon="7.5153400">
        <ele>1896.6</ele>
        <time>2017-07-22T16:34:05Z</time>
      </trkpt>
      <trkpt lat="44.1222100" lon="7.5155360">
        <ele>1895.0</ele>
        <time>2017-07-22T16:34:07Z</time>
      </trkpt>
      <trkpt lat="44.1224220" lon="7.5155810">
        <ele>1893.2</ele>
        <time>2017-07-22T16:34:09Z</time>
      </trkpt>
      <trkpt lat="44.1225140" lon="7.5155490">
        <ele>1892.4</ele>
        <time>2017-07-22T16:34:10Z</time>
      </trkpt>
      <trkpt lat="44.1225980" lon="7.5154890">
        <ele>1891.8</ele>
        <time>2017-07-22T16:34:11Z</time>
      </trkpt>
      <trkpt lat="44.1226830" lon="7.5153920">
        <ele>1890.2</ele>
        <time>2017-07-22T16:34:12Z</time>
      </trkpt>
      <trkpt lat="44.1227670" lon="7.5152850">
        <ele>1889.4</ele>
        <time>2017-07-22T16:34:13Z</time>
      </trkpt>
      <trkpt lat="44.1228520" lon="7.5151740">
        <ele>1888.6</ele>
        <time>2017-07-22T16:34:14Z</time>
      </trkpt>
      <trkpt lat="44.1230300" lon="7.5149460">
        <ele>1886.8</ele>
        <time>2017-07-22T16:34:16Z</time>
      </trkpt>
      <trkpt lat="44.1232060" lon="7.5147130">
        <ele>1885.0</ele>
        <time>2017-07-22T16:34:18Z</time>
      </trkpt>
      <trkpt lat="44.1233690" lon="7.5144990">
        <ele>1883.2</ele>
        <time>2017-07-22T16:34:20Z</time>
      </trkpt>
      <trkpt lat="44.1234070" lon="7.5144270">
        <ele>1882.0</ele>
        <time>2017-07-22T16:34:21Z</time>
      </trkpt>
      <trkpt lat="44.1234540" lon="7.5143770">
        <ele>1881.0</ele>
        <time>2017-07-22T16:34:22Z</time>
      </trkpt>
      <trkpt lat="44.1234950" lon="7.5143380">
        <ele>1880.0</ele>
        <time>2017-07-22T16:34:23Z</time>
      </trkpt>
      <trkpt lat="44.1235850" lon="7.5143050">
        <ele>1878.6</ele>
        <time>2017-07-22T16:34:25Z</time>
      </trkpt>
      <trkpt lat="44.1236010" lon="7.5143110">
        <ele>1877.8</ele>
        <time>2017-07-22T16:34:26Z</time>
      </trkpt>
      <trkpt lat="44.1236200" lon="7.5143190">
        <ele>1877.0</ele>
        <time>2017-07-22T16:34:27Z</time>
      </trkpt>
      <trkpt lat="44.1236490" lon="7.5143240">
        <ele>1876.4</ele>
        <time>2017-07-22T16:34:28Z</time>
      </trkpt>
      <trkpt lat="44.1236820" lon="7.5143260">
        <ele>1875.6</ele>
        <time>2017-07-22T16:34:29Z</time>
      </trkpt>
      <trkpt lat="44.1237520" lon="7.5143280">
        <ele>1874.0</ele>
        <time>2017-07-22T16:34:31Z</time>
      </trkpt>
      <trkpt lat="44.1237870" lon="7.5143320">
        <ele>1873.4</ele>
        <time>2017-07-22T16:34:32Z</time>
      </trkpt>
      <trkpt lat="44.1238220" lon="7.5143250">
        <ele>1872.8</ele>
        <time>2017-07-22T16:34:33Z</time>
      </trkpt>
      <trkpt lat="44.1239020" lon="7.5142860">
        <ele>1871.8</ele>
        <time>2017-07-22T16:34:35Z</time>
      </trkpt>
      <trkpt lat="44.1239630" lon="7.5142670">
        <ele>1870.4</ele>
        <time>2017-07-22T16:34:36Z</time>
      </trkpt>
      <trkpt lat="44.1241080" lon="7.5142350">
        <ele>1869.2</ele>
        <time>2017-07-22T16:34:38Z</time>
      </trkpt>
      <trkpt lat="44.1242720" lon="7.5142060">
        <ele>1868.2</ele>
        <time>2017-07-22T16:34:40Z</time>
      </trkpt>
      <trkpt lat="44.1244810" lon="7.5141740">
        <ele>1866.8</ele>
        <time>2017-07-22T16:34:42Z</time>
      </trkpt>
      <trkpt lat="44.1246960" lon="7.5141440">
        <ele>1865.8</ele>
        <time>2017-07-22T16:34:44Z</time>
      </trkpt>
      <trkpt lat="44.1248190" lon="7.5141570">
        <ele>1865.4</ele>
        <time>2017-07-22T16:34:45Z</time>
      </trkpt>
      <trkpt lat="44.1249380" lon="7.5141860">
        <ele>1864.6</ele>
        <time>2017-07-22T16:34:46Z</time>
      </trkpt>
      <trkpt lat="44.1250580" lon="7.5142210">
        <ele>1864.0</ele>
        <time>2017-07-22T16:34:47Z</time>
      </trkpt>
      <trkpt lat="44.1251770" lon="7.5142640">
        <ele>1863.4</ele>
        <time>2017-07-22T16:34:48Z</time>
      </trkpt>
      <trkpt lat="44.1252770" lon="7.5143310">
        <ele>1862.6</ele>
        <time>2017-07-22T16:34:49Z</time>
      </trkpt>
      <trkpt lat="44.1253340" lon="7.5144490">
        <ele>1862.0</ele>
        <time>2017-07-22T16:34:50Z</time>
      </trkpt>
      <trkpt lat="44.1254250" lon="7.5146940">
        <ele>1860.2</ele>
        <time>2017-07-22T16:34:52Z</time>
      </trkpt>
      <trkpt lat="44.1254720" lon="7.5148240">
        <ele>1859.4</ele>
        <time>2017-07-22T16:34:53Z</time>
      </trkpt>
      <trkpt lat="44.1255290" lon="7.5149550">
        <ele>1858.6</ele>
        <time>2017-07-22T16:34:54Z</time>
      </trkpt>
      <trkpt lat="44.1256200" lon="7.5151920">
        <ele>1857.4</ele>
        <time>2017-07-22T16:34:56Z</time>
      </trkpt>
      <trkpt lat="44.1256550" lon="7.5153000">
        <ele>1856.8</ele>
        <time>2017-07-22T16:34:57Z</time>
      </trkpt>
      <trkpt lat="44.1256950" lon="7.5153880">
        <ele>1855.8</ele>
        <time>2017-07-22T16:34:58Z</time>
      </trkpt>
      <trkpt lat="44.1258350" lon="7.5154680">
        <ele>1854.0</ele>
        <time>2017-07-22T16:35:00Z</time>
      </trkpt>
      <trkpt lat="44.1260030" lon="7.5155170">
        <ele>1852.4</ele>
        <time>2017-07-22T16:35:02Z</time>
      </trkpt>
      <trkpt lat="44.1260800" lon="7.5155760">
        <ele>1851.4</ele>
        <time>2017-07-22T16:35:03Z</time>
      </trkpt>
      <trkpt lat="44.1261540" lon="7.5156540">
        <ele>1850.4</ele>
        <time>2017-07-22T16:35:04Z</time>
      </trkpt>
      <trkpt lat="44.1262460" lon="7.5158620">
        <ele>1848.8</ele>
        <time>2017-07-22T16:35:06Z</time>
      </trkpt>
      <trkpt lat="44.1262790" lon="7.5159670">
        <ele>1848.2</ele>
        <time>2017-07-22T16:35:07Z</time>
      </trkpt>
      <trkpt lat="44.1263210" lon="7.5160420">
        <ele>1847.6</ele>
        <time>2017-07-22T16:35:08Z</time>
      </trkpt>
      <trkpt lat="44.1264250" lon="7.5161760">
        <ele>1846.8</ele>
        <time>2017-07-22T16:35:10Z</time>
      </trkpt>
      <trkpt lat="44.1264820" lon="7.5162430">
        <ele>1846.2</ele>
        <time>2017-07-22T16:35:11Z</time>
      </trkpt>
      <trkpt lat="44.1266180" lon="7.5163530">
        <ele>1844.8</ele>
        <time>2017-07-22T16:35:13Z</time>
      </trkpt>
      <trkpt lat="44.1266970" lon="7.5163900">
        <ele>1844.4</ele>
        <time>2017-07-22T16:35:14Z</time>
      </trkpt>
      <trkpt lat="44.1269440" lon="7.5164640">
        <ele>1843.2</ele>
        <time>2017-07-22T16:35:17Z</time>
      </trkpt>
      <trkpt lat="44.1270190" lon="7.5164970">
        <ele>1842.6</ele>
        <time>2017-07-22T16:35:18Z</time>
      </trkpt>
      <trkpt lat="44.1270620" lon="7.5165700">
        <ele>1841.8</ele>
        <time>2017-07-22T16:35:19Z</time>
      </trkpt>
      <trkpt lat="44.1270920" lon="7.5166510">
        <ele>1841.2</ele>
        <time>2017-07-22T16:35:20Z</time>
      </trkpt>
      <trkpt lat="44.1271200" lon="7.5167350">
        <ele>1840.4</ele>
        <time>2017-07-22T16:35:21Z</time>
      </trkpt>
      <trkpt lat="44.1271920" lon="7.5169000">
        <ele>1839.4</ele>
        <time>2017-07-22T16:35:23Z</time>
      </trkpt>
      <trkpt lat="44.1272390" lon="7.5169840">
        <ele>1838.2</ele>
        <time>2017-07-22T16:35:24Z</time>
      </trkpt>
      <trkpt lat="44.1272940" lon="7.5170660">
        <ele>1837.6</ele>
        <time>2017-07-22T16:35:25Z</time>
      </trkpt>
      <trkpt lat="44.1273510" lon="7.5171560">
        <ele>1837.2</ele>
        <time>2017-07-22T16:35:26Z</time>
      </trkpt>
      <trkpt lat="44.1274750" lon="7.5173290">
        <ele>1836.0</ele>
        <time>2017-07-22T16:35:28Z</time>
      </trkpt>
      <trkpt lat="44.1275360" lon="7.5173840">
        <ele>1835.2</ele>
        <time>2017-07-22T16:35:29Z</time>
      </trkpt>
      <trkpt lat="44.1276050" lon="7.5174160">
        <ele>1834.6</ele>
        <time>2017-07-22T16:35:30Z</time>
      </trkpt>
      <trkpt lat="44.1277610" lon="7.5174350">
        <ele>1832.8</ele>
        <time>2017-07-22T16:35:32Z</time>
      </trkpt>
      <trkpt lat="44.1279030" lon="7.5174900">
        <ele>1831.8</ele>
        <time>2017-07-22T16:35:34Z</time>
      </trkpt>
      <trkpt lat="44.1279550" lon="7.5175450">
        <ele>1831.4</ele>
        <time>2017-07-22T16:35:35Z</time>
      </trkpt>
      <trkpt lat="44.1280420" lon="7.5177150">
        <ele>1830.2</ele>
        <time>2017-07-22T16:35:37Z</time>
      </trkpt>
      <trkpt lat="44.1280610" lon="7.5178220">
        <ele>1829.8</ele>
        <time>2017-07-22T16:35:38Z</time>
      </trkpt>
      <trkpt lat="44.1280820" lon="7.5179290">
        <ele>1829.4</ele>
        <time>2017-07-22T16:35:39Z</time>
      </trkpt>
      <trkpt lat="44.1280760" lon="7.5180500">
        <ele>1829.0</ele>
        <time>2017-07-22T16:35:40Z</time>
      </trkpt>
      <trkpt lat="44.1280640" lon="7.5181770">
        <ele>1828.4</ele>
        <time>2017-07-22T16:35:41Z</time>
      </trkpt>
      <trkpt lat="44.1280380" lon="7.5183050">
        <ele>1827.6</ele>
        <time>2017-07-22T16:35:42Z</time>
      </trkpt>
      <trkpt lat="44.1279570" lon="7.5185490">
        <ele>1827.0</ele>
        <time>2017-07-22T16:35:44Z</time>
      </trkpt>
      <trkpt lat="44.1279120" lon="7.5186730">
        <ele>1826.4</ele>
        <time>2017-07-22T16:35:45Z</time>
      </trkpt>
      <trkpt lat="44.1278250" lon="7.5189300">
        <ele>1825.0</ele>
        <time>2017-07-22T16:35:47Z</time>
      </trkpt>
      <trkpt lat="44.1277930" lon="7.5190650">
        <ele>1824.0</ele>
        <time>2017-07-22T16:35:48Z</time>
      </trkpt>
      <trkpt lat="44.1277660" lon="7.5192020">
        <ele>1823.6</ele>
        <time>2017-07-22T16:35:49Z</time>
      </trkpt>
      <trkpt lat="44.1277370" lon="7.5193400">
        <ele>1822.8</ele>
        <time>2017-07-22T16:35:50Z</time>
      </trkpt>
      <trkpt lat="44.1276650" lon="7.5195850">
        <ele>1821.4</ele>
        <time>2017-07-22T16:35:52Z</time>
      </trkpt>
      <trkpt lat="44.1276550" lon="7.5196880">
        <ele>1820.8</ele>
        <time>2017-07-22T16:35:53Z</time>
      </trkpt>
      <trkpt lat="44.1276780" lon="7.5197760">
        <ele>1820.0</ele>
        <time>2017-07-22T16:35:54Z</time>
      </trkpt>
      <trkpt lat="44.1277320" lon="7.5198230">
        <ele>1819.2</ele>
        <time>2017-07-22T16:35:55Z</time>
      </trkpt>
      <trkpt lat="44.1277950" lon="7.5198320">
        <ele>1818.6</ele>
        <time>2017-07-22T16:35:56Z</time>
      </trkpt>
      <trkpt lat="44.1278740" lon="7.5198150">
        <ele>1818.0</ele>
        <time>2017-07-22T16:35:57Z</time>
      </trkpt>
      <trkpt lat="44.1279530" lon="7.5198000">
        <ele>1817.4</ele>
        <time>2017-07-22T16:35:58Z</time>
      </trkpt>
      <trkpt lat="44.1280350" lon="7.5198050">
        <ele>1816.8</ele>
        <time>2017-07-22T16:35:59Z</time>
      </trkpt>
      <trkpt lat="44.1281120" lon="7.5198470">
        <ele>1816.0</ele>
        <time>2017-07-22T16:36:00Z</time>
      </trkpt>
      <trkpt lat="44.1281790" lon="7.5199180">
        <ele>1815.2</ele>
        <time>2017-07-22T16:36:01Z</time>
      </trkpt>
      <trkpt lat="44.1282230" lon="7.5200100">
        <ele>1814.8</ele>
        <time>2017-07-22T16:36:02Z</time>
      </trkpt>
      <trkpt lat="44.1282310" lon="7.5201200">
        <ele>1814.2</ele>
        <time>2017-07-22T16:36:03Z</time>
      </trkpt>
      <trkpt lat="44.1282220" lon="7.5202330">
        <ele>1813.6</ele>
        <time>2017-07-22T16:36:04Z</time>
      </trkpt>
      <trkpt lat="44.1281600" lon="7.5204590">
        <ele>1812.4</ele>
        <time>2017-07-22T16:36:06Z</time>
      </trkpt>
      <trkpt lat="44.1281280" lon="7.5205710">
        <ele>1812.0</ele>
        <time>2017-07-22T16:36:07Z</time>
      </trkpt>
      <trkpt lat="44.1280600" lon="7.5207990">
        <ele>1811.4</ele>
        <time>2017-07-22T16:36:09Z</time>
      </trkpt>
      <trkpt lat="44.1280190" lon="7.5210300">
        <ele>1810.2</ele>
        <time>2017-07-22T16:36:11Z</time>
      </trkpt>
      <trkpt lat="44.1280140" lon="7.5212650">
        <ele>1808.8</ele>
        <time>2017-07-22T16:36:13Z</time>
      </trkpt>
      <trkpt lat="44.1280230" lon="7.5213850">
        <ele>1808.2</ele>
        <time>2017-07-22T16:36:14Z</time>
      </trkpt>
      <trkpt lat="44.1280290" lon="7.5215020">
        <ele>1807.8</ele>
        <time>2017-07-22T16:36:15Z</time>
      </trkpt>
      <trkpt lat="44.1280140" lon="7.5216210">
        <ele>1807.4</ele>
        <time>2017-07-22T16:36:16Z</time>
      </trkpt>
      <trkpt lat="44.1279570" lon="7.5218540">
        <ele>1806.6</ele>
        <time>2017-07-22T16:36:18Z</time>
      </trkpt>
      <trkpt lat="44.1278500" lon="7.5220680">
        <ele>1805.8</ele>
        <time>2017-07-22T16:36:20Z</time>
      </trkpt>
      <trkpt lat="44.1278070" lon="7.5221860">
        <ele>1805.2</ele>
        <time>2017-07-22T16:36:21Z</time>
      </trkpt>
      <trkpt lat="44.1276090" lon="7.5224840">
        <ele>1804.0</ele>
        <time>2017-07-22T16:36:24Z</time>
      </trkpt>
      <trkpt lat="44.1274530" lon="7.5226400">
        <ele>1803.0</ele>
        <time>2017-07-22T16:36:26Z</time>
      </trkpt>
      <trkpt lat="44.1272140" lon="7.5228770">
        <ele>1801.6</ele>
        <time>2017-07-22T16:36:29Z</time>
      </trkpt>
      <trkpt lat="44.1271480" lon="7.5229650">
        <ele>1801.4</ele>
        <time>2017-07-22T16:36:30Z</time>
      </trkpt>
      <trkpt lat="44.1270920" lon="7.5231890">
        <ele>1800.6</ele>
        <time>2017-07-22T16:36:32Z</time>
      </trkpt>
      <trkpt lat="44.1271130" lon="7.5232990">
        <ele>1799.8</ele>
        <time>2017-07-22T16:36:33Z</time>
      </trkpt>
      <trkpt lat="44.1271320" lon="7.5234250">
        <ele>1799.2</ele>
        <time>2017-07-22T16:36:34Z</time>
      </trkpt>
      <trkpt lat="44.1271240" lon="7.5235560">
        <ele>1798.8</ele>
        <time>2017-07-22T16:36:35Z</time>
      </trkpt>
      <trkpt lat="44.1270930" lon="7.5236800">
        <ele>1798.0</ele>
        <time>2017-07-22T16:36:36Z</time>
      </trkpt>
      <trkpt lat="44.1270530" lon="7.5238050">
        <ele>1797.6</ele>
        <time>2017-07-22T16:36:37Z</time>
      </trkpt>
      <trkpt lat="44.1269550" lon="7.5240470">
        <ele>1796.8</ele>
        <time>2017-07-22T16:36:39Z</time>
      </trkpt>
      <trkpt lat="44.1268960" lon="7.5241670">
        <ele>1796.6</ele>
        <time>2017-07-22T16:36:40Z</time>
      </trkpt>
      <trkpt lat="44.1266540" lon="7.5246380">
        <ele>1795.0</ele>
        <time>2017-07-22T16:36:44Z</time>
      </trkpt>
      <trkpt lat="44.1265940" lon="7.5247530">
        <ele>1794.8</ele>
        <time>2017-07-22T16:36:45Z</time>
      </trkpt>
      <trkpt lat="44.1264670" lon="7.5249840">
        <ele>1793.8</ele>
        <time>2017-07-22T16:36:47Z</time>
      </trkpt>
      <trkpt lat="44.1262540" lon="7.5253090">
        <ele>1793.0</ele>
        <time>2017-07-22T16:36:50Z</time>
      </trkpt>
      <trkpt lat="44.1261870" lon="7.5254270">
        <ele>1792.6</ele>
        <time>2017-07-22T16:36:51Z</time>
      </trkpt>
      <trkpt lat="44.1260940" lon="7.5256910">
        <ele>1791.6</ele>
        <time>2017-07-22T16:36:53Z</time>
      </trkpt>
      <trkpt lat="44.1260720" lon="7.5258280">
        <ele>1791.0</ele>
        <time>2017-07-22T16:36:54Z</time>
      </trkpt>
      <trkpt lat="44.1260910" lon="7.5260720">
        <ele>1790.0</ele>
        <time>2017-07-22T16:36:56Z</time>
      </trkpt>
      <trkpt lat="44.1261410" lon="7.5261790">
        <ele>1789.4</ele>
        <time>2017-07-22T16:36:57Z</time>
      </trkpt>
      <trkpt lat="44.1262240" lon="7.5262260">
        <ele>1788.8</ele>
        <time>2017-07-22T16:36:58Z</time>
      </trkpt>
      <trkpt lat="44.1263160" lon="7.5262660">
        <ele>1788.2</ele>
        <time>2017-07-22T16:36:59Z</time>
      </trkpt>
      <trkpt lat="44.1264200" lon="7.5262840">
        <ele>1786.8</ele>
        <time>2017-07-22T16:37:00Z</time>
      </trkpt>
      <trkpt lat="44.1265230" lon="7.5262940">
        <ele>1786.2</ele>
        <time>2017-07-22T16:37:01Z</time>
      </trkpt>
      <trkpt lat="44.1266300" lon="7.5263120">
        <ele>1785.6</ele>
        <time>2017-07-22T16:37:02Z</time>
      </trkpt>
      <trkpt lat="44.1268440" lon="7.5263660">
        <ele>1784.6</ele>
        <time>2017-07-22T16:37:04Z</time>
      </trkpt>
      <trkpt lat="44.1270680" lon="7.5264050">
        <ele>1783.6</ele>
        <time>2017-07-22T16:37:06Z</time>
      </trkpt>
      <trkpt lat="44.1271670" lon="7.5264310">
        <ele>1783.0</ele>
        <time>2017-07-22T16:37:07Z</time>
      </trkpt>
      <trkpt lat="44.1272650" lon="7.5264780">
        <ele>1782.4</ele>
        <time>2017-07-22T16:37:08Z</time>
      </trkpt>
      <trkpt lat="44.1274380" lon="7.5266480">
        <ele>1781.0</ele>
        <time>2017-07-22T16:37:10Z</time>
      </trkpt>
      <trkpt lat="44.1275400" lon="7.5268460">
        <ele>1779.4</ele>
        <time>2017-07-22T16:37:12Z</time>
      </trkpt>
      <trkpt lat="44.1275450" lon="7.5269620">
        <ele>1778.6</ele>
        <time>2017-07-22T16:37:13Z</time>
      </trkpt>
      <trkpt lat="44.1275610" lon="7.5270830">
        <ele>1777.8</ele>
        <time>2017-07-22T16:37:14Z</time>
      </trkpt>
      <trkpt lat="44.1276120" lon="7.5273280">
        <ele>1776.0</ele>
        <time>2017-07-22T16:37:16Z</time>
      </trkpt>
      <trkpt lat="44.1276610" lon="7.5274550">
        <ele>1775.2</ele>
        <time>2017-07-22T16:37:17Z</time>
      </trkpt>
      <trkpt lat="44.1277150" lon="7.5275710">
        <ele>1774.6</ele>
        <time>2017-07-22T16:37:18Z</time>
      </trkpt>
      <trkpt lat="44.1278430" lon="7.5277890">
        <ele>1773.2</ele>
        <time>2017-07-22T16:37:20Z</time>
      </trkpt>
      <trkpt lat="44.1279160" lon="7.5279000">
        <ele>1772.4</ele>
        <time>2017-07-22T16:37:21Z</time>
      </trkpt>
      <trkpt lat="44.1279900" lon="7.5280090">
        <ele>1771.8</ele>
        <time>2017-07-22T16:37:22Z</time>
      </trkpt>
      <trkpt lat="44.1281550" lon="7.5282100">
        <ele>1770.2</ele>
        <time>2017-07-22T16:37:24Z</time>
      </trkpt>
      <trkpt lat="44.1283160" lon="7.5284110">
        <ele>1769.6</ele>
        <time>2017-07-22T16:37:26Z</time>
      </trkpt>
      <trkpt lat="44.1283930" lon="7.5285130">
        <ele>1769.0</ele>
        <time>2017-07-22T16:37:27Z</time>
      </trkpt>
      <trkpt lat="44.1285410" lon="7.5287240">
        <ele>1767.4</ele>
        <time>2017-07-22T16:37:29Z</time>
      </trkpt>
      <trkpt lat="44.1285930" lon="7.5288470">
        <ele>1767.0</ele>
        <time>2017-07-22T16:37:30Z</time>
      </trkpt>
      <trkpt lat="44.1286440" lon="7.5289700">
        <ele>1766.8</ele>
        <time>2017-07-22T16:37:31Z</time>
      </trkpt>
      <trkpt lat="44.1286710" lon="7.5291040">
        <ele>1766.4</ele>
        <time>2017-07-22T16:37:32Z</time>
      </trkpt>
      <trkpt lat="44.1286950" lon="7.5293760">
        <ele>1765.4</ele>
        <time>2017-07-22T16:37:34Z</time>
      </trkpt>
      <trkpt lat="44.1287050" lon="7.5295100">
        <ele>1765.0</ele>
        <time>2017-07-22T16:37:35Z</time>
      </trkpt>
      <trkpt lat="44.1287760" lon="7.5299020">
        <ele>1764.0</ele>
        <time>2017-07-22T16:37:38Z</time>
      </trkpt>
      <trkpt lat="44.1288100" lon="7.5300290">
        <ele>1763.4</ele>
        <time>2017-07-22T16:37:39Z</time>
      </trkpt>
      <trkpt lat="44.1289050" lon="7.5302830">
        <ele>1762.6</ele>
        <time>2017-07-22T16:37:41Z</time>
      </trkpt>
      <trkpt lat="44.1290170" lon="7.5305240">
        <ele>1762.0</ele>
        <time>2017-07-22T16:37:43Z</time>
      </trkpt>
      <trkpt lat="44.1290750" lon="7.5306440">
        <ele>1761.6</ele>
        <time>2017-07-22T16:37:44Z</time>
      </trkpt>
      <trkpt lat="44.1291850" lon="7.5308880">
        <ele>1760.6</ele>
        <time>2017-07-22T16:37:46Z</time>
      </trkpt>
      <trkpt lat="44.1294110" lon="7.5313590">
        <ele>1759.4</ele>
        <time>2017-07-22T16:37:50Z</time>
      </trkpt>
      <trkpt lat="44.1294710" lon="7.5314740">
        <ele>1759.0</ele>
        <time>2017-07-22T16:37:51Z</time>
      </trkpt>
      <trkpt lat="44.1296120" lon="7.5316750">
        <ele>1758.4</ele>
        <time>2017-07-22T16:37:53Z</time>
      </trkpt>
      <trkpt lat="44.1297680" lon="7.5318420">
        <ele>1757.6</ele>
        <time>2017-07-22T16:37:55Z</time>
      </trkpt>
      <trkpt lat="44.1298760" lon="7.5320180">
        <ele>1757.8</ele>
        <time>2017-07-22T16:37:57Z</time>
      </trkpt>
      <trkpt lat="44.1298910" lon="7.5321290">
        <ele>1757.4</ele>
        <time>2017-07-22T16:37:58Z</time>
      </trkpt>
      <trkpt lat="44.1298930" lon="7.5324720">
        <ele>1756.4</ele>
        <time>2017-07-22T16:38:01Z</time>
      </trkpt>
      <trkpt lat="44.1298990" lon="7.5325900">
        <ele>1756.0</ele>
        <time>2017-07-22T16:38:02Z</time>
      </trkpt>
      <trkpt lat="44.1299860" lon="7.5330650">
        <ele>1755.0</ele>
        <time>2017-07-22T16:38:06Z</time>
      </trkpt>
      <trkpt lat="44.1301440" lon="7.5335170">
        <ele>1754.2</ele>
        <time>2017-07-22T16:38:10Z</time>
      </trkpt>
      <trkpt lat="44.1301810" lon="7.5336280">
        <ele>1754.0</ele>
        <time>2017-07-22T16:38:11Z</time>
      </trkpt>
      <trkpt lat="44.1303350" lon="7.5340620">
        <ele>1752.8</ele>
        <time>2017-07-22T16:38:15Z</time>
      </trkpt>
      <trkpt lat="44.1304440" lon="7.5343710">
        <ele>1752.2</ele>
        <time>2017-07-22T16:38:18Z</time>
      </trkpt>
      <trkpt lat="44.1305080" lon="7.5345840">
        <ele>1751.8</ele>
        <time>2017-07-22T16:38:20Z</time>
      </trkpt>
      <trkpt lat="44.1306160" lon="7.5348660">
        <ele>1751.4</ele>
        <time>2017-07-22T16:38:23Z</time>
      </trkpt>
      <trkpt lat="44.1306720" lon="7.5349310">
        <ele>1751.4</ele>
        <time>2017-07-22T16:38:24Z</time>
      </trkpt>
      <trkpt lat="44.1308850" lon="7.5350080">
        <ele>1751.2</ele>
        <time>2017-07-22T16:38:27Z</time>
      </trkpt>
      <trkpt lat="44.1309550" lon="7.5350230">
        <ele>1751.0</ele>
        <time>2017-07-22T16:38:28Z</time>
      </trkpt>
      <trkpt lat="44.1312180" lon="7.5351160">
        <ele>1750.8</ele>
        <time>2017-07-22T16:38:32Z</time>
      </trkpt>
      <trkpt lat="44.1312770" lon="7.5351720">
        <ele>1750.8</ele>
        <time>2017-07-22T16:38:33Z</time>
      </trkpt>
      <trkpt lat="44.1313630" lon="7.5354130">
        <ele>1751.0</ele>
        <time>2017-07-22T16:38:36Z</time>
      </trkpt>
      <trkpt lat="44.1314610" lon="7.5357260">
        <ele>1751.0</ele>
        <time>2017-07-22T16:38:40Z</time>
      </trkpt>
      <trkpt lat="44.1315470" lon="7.5358500">
        <ele>1751.2</ele>
        <time>2017-07-22T16:38:42Z</time>
      </trkpt>
      <trkpt lat="44.1317100" lon="7.5359530">
        <ele>1751.6</ele>
        <time>2017-07-22T16:38:45Z</time>
      </trkpt>
      <trkpt lat="44.1317670" lon="7.5359810">
        <ele>1751.8</ele>
        <time>2017-07-22T16:38:46Z</time>
      </trkpt>
      <trkpt lat="44.1320960" lon="7.5361320">
        <ele>1752.2</ele>
        <time>2017-07-22T16:38:52Z</time>
      </trkpt>
      <trkpt lat="44.1322650" lon="7.5361520">
        <ele>1752.6</ele>
        <time>2017-07-22T16:38:55Z</time>
      </trkpt>
      <trkpt lat="44.1323750" lon="7.5361060">
        <ele>1752.8</ele>
        <time>2017-07-22T16:38:57Z</time>
      </trkpt>
      <trkpt lat="44.1324740" lon="7.5360290">
        <ele>1753.2</ele>
        <time>2017-07-22T16:38:59Z</time>
      </trkpt>
      <trkpt lat="44.1325290" lon="7.5360020">
        <ele>1753.4</ele>
        <time>2017-07-22T16:39:00Z</time>
      </trkpt>
      <trkpt lat="44.1326340" lon="7.5359310">
        <ele>1753.6</ele>
        <time>2017-07-22T16:39:02Z</time>
      </trkpt>
      <trkpt lat="44.1327440" lon="7.5358580">
        <ele>1753.8</ele>
        <time>2017-07-22T16:39:04Z</time>
      </trkpt>
      <trkpt lat="44.1330250" lon="7.5356680">
        <ele>1754.6</ele>
        <time>2017-07-22T16:39:09Z</time>
      </trkpt>
      <trkpt lat="44.1333140" lon="7.5354790">
        <ele>1754.8</ele>
        <time>2017-07-22T16:39:14Z</time>
      </trkpt>
      <trkpt lat="44.1334350" lon="7.5353990">
        <ele>1755.0</ele>
        <time>2017-07-22T16:39:16Z</time>
      </trkpt>
      <trkpt lat="44.1337940" lon="7.5351630">
        <ele>1754.8</ele>
        <time>2017-07-22T16:39:22Z</time>
      </trkpt>
      <trkpt lat="44.1340490" lon="7.5350280">
        <ele>1755.4</ele>
        <time>2017-07-22T16:39:26Z</time>
      </trkpt>
      <trkpt lat="44.1341800" lon="7.5349890">
        <ele>1755.2</ele>
        <time>2017-07-22T16:39:28Z</time>
      </trkpt>
      <trkpt lat="44.1343140" lon="7.5349870">
        <ele>1755.2</ele>
        <time>2017-07-22T16:39:30Z</time>
      </trkpt>
      <trkpt lat="44.1344490" lon="7.5349730">
        <ele>1755.4</ele>
        <time>2017-07-22T16:39:32Z</time>
      </trkpt>
      <trkpt lat="44.1349290" lon="7.5349110">
        <ele>1755.6</ele>
        <time>2017-07-22T16:39:39Z</time>
      </trkpt>
      <trkpt lat="44.1353530" lon="7.5348500">
        <ele>1756.0</ele>
        <time>2017-07-22T16:39:45Z</time>
      </trkpt>
      <trkpt lat="44.1357650" lon="7.5346890">
        <ele>1755.8</ele>
        <time>2017-07-22T16:39:51Z</time>
      </trkpt>
      <trkpt lat="44.1358970" lon="7.5346110">
        <ele>1756.0</ele>
        <time>2017-07-22T16:39:53Z</time>
      </trkpt>
      <trkpt lat="44.1361530" lon="7.5344240">
        <ele>1756.0</ele>
        <time>2017-07-22T16:39:57Z</time>
      </trkpt>
      <trkpt lat="44.1362100" lon="7.5343620">
        <ele>1756.0</ele>
        <time>2017-07-22T16:39:58Z</time>
      </trkpt>
      <trkpt lat="44.1364200" lon="7.5340940">
        <ele>1756.0</ele>
        <time>2017-07-22T16:40:02Z</time>
      </trkpt>
      <trkpt lat="44.1367280" lon="7.5336760">
        <ele>1756.2</ele>
        <time>2017-07-22T16:40:08Z</time>
      </trkpt>
      <trkpt lat="44.1367710" lon="7.5335970">
        <ele>1756.2</ele>
        <time>2017-07-22T16:40:09Z</time>
      </trkpt>
      <trkpt lat="44.1368470" lon="7.5334350">
        <ele>1756.4</ele>
        <time>2017-07-22T16:40:11Z</time>
      </trkpt>
      <trkpt lat="44.1369900" lon="7.5331040">
        <ele>1756.4</ele>
        <time>2017-07-22T16:40:15Z</time>
      </trkpt>
      <trkpt lat="44.1370820" lon="7.5329600">
        <ele>1756.4</ele>
        <time>2017-07-22T16:40:17Z</time>
      </trkpt>
      <trkpt lat="44.1371930" lon="7.5328460">
        <ele>1756.2</ele>
        <time>2017-07-22T16:40:19Z</time>
      </trkpt>
      <trkpt lat="44.1374570" lon="7.5327500">
        <ele>1756.2</ele>
        <time>2017-07-22T16:40:23Z</time>
      </trkpt>
      <trkpt lat="44.1375210" lon="7.5327530">
        <ele>1756.2</ele>
        <time>2017-07-22T16:40:24Z</time>
      </trkpt>
      <trkpt lat="44.1375860" lon="7.5327730">
        <ele>1756.4</ele>
        <time>2017-07-22T16:40:25Z</time>
      </trkpt>
      <trkpt lat="44.1377160" lon="7.5327840">
        <ele>1756.6</ele>
        <time>2017-07-22T16:40:27Z</time>
      </trkpt>
      <trkpt lat="44.1378450" lon="7.5327800">
        <ele>1756.6</ele>
        <time>2017-07-22T16:40:29Z</time>
      </trkpt>
      <trkpt lat="44.1380420" lon="7.5327690">
        <ele>1756.4</ele>
        <time>2017-07-22T16:40:32Z</time>
      </trkpt>
      <trkpt lat="44.1381100" lon="7.5327820">
        <ele>1756.2</ele>
        <time>2017-07-22T16:40:33Z</time>
      </trkpt>
      <trkpt lat="44.1384580" lon="7.5328490">
        <ele>1756.8</ele>
        <time>2017-07-22T16:40:38Z</time>
      </trkpt>
      <trkpt lat="44.1387280" lon="7.5329490">
        <ele>1756.4</ele>
        <time>2017-07-22T16:40:42Z</time>
      </trkpt>
      <trkpt lat="44.1387990" lon="7.5329680">
        <ele>1756.2</ele>
        <time>2017-07-22T16:40:43Z</time>
      </trkpt>
      <trkpt lat="44.1391430" lon="7.5330620">
        <ele>1756.2</ele>
        <time>2017-07-22T16:40:48Z</time>
      </trkpt>
      <trkpt lat="44.1392070" lon="7.5331020">
        <ele>1756.2</ele>
        <time>2017-07-22T16:40:49Z</time>
      </trkpt>
      <trkpt lat="44.1393160" lon="7.5332120">
        <ele>1756.2</ele>
        <time>2017-07-22T16:40:51Z</time>
      </trkpt>
      <trkpt lat="44.1394150" lon="7.5333370">
        <ele>1756.2</ele>
        <time>2017-07-22T16:40:53Z</time>
      </trkpt>
      <trkpt lat="44.1395360" lon="7.5335540">
        <ele>1756.0</ele>
        <time>2017-07-22T16:40:56Z</time>
      </trkpt>
      <trkpt lat="44.1395920" lon="7.5337080">
        <ele>1755.8</ele>
        <time>2017-07-22T16:40:58Z</time>
      </trkpt>
      <trkpt lat="44.1396300" lon="7.5337790">
        <ele>1755.8</ele>
        <time>2017-07-22T16:40:59Z</time>
      </trkpt>
      <trkpt lat="44.1397650" lon="7.5340930">
        <ele>1756.2</ele>
        <time>2017-07-22T16:41:03Z</time>
      </trkpt>
      <trkpt lat="44.1398140" lon="7.5344490">
        <ele>1756.0</ele>
        <time>2017-07-22T16:41:07Z</time>
      </trkpt>
      <trkpt lat="44.1398340" lon="7.5346200">
        <ele>1756.0</ele>
        <time>2017-07-22T16:41:09Z</time>
      </trkpt>
      <trkpt lat="44.1398950" lon="7.5348640">
        <ele>1756.4</ele>
        <time>2017-07-22T16:41:12Z</time>
      </trkpt>
      <trkpt lat="44.1399540" lon="7.5352940">
        <ele>1756.6</ele>
        <time>2017-07-22T16:41:17Z</time>
      </trkpt>
      <trkpt lat="44.1400650" lon="7.5357140">
        <ele>1756.6</ele>
        <time>2017-07-22T16:41:22Z</time>
      </trkpt>
      <trkpt lat="44.1400790" lon="7.5358050">
        <ele>1756.8</ele>
        <time>2017-07-22T16:41:23Z</time>
      </trkpt>
      <trkpt lat="44.1401160" lon="7.5360720">
        <ele>1757.0</ele>
        <time>2017-07-22T16:41:26Z</time>
      </trkpt>
      <trkpt lat="44.1400910" lon="7.5363320">
        <ele>1757.2</ele>
        <time>2017-07-22T16:41:29Z</time>
      </trkpt>
      <trkpt lat="44.1400860" lon="7.5364160">
        <ele>1757.4</ele>
        <time>2017-07-22T16:41:30Z</time>
      </trkpt>
      <trkpt lat="44.1400700" lon="7.5370820">
        <ele>1757.4</ele>
        <time>2017-07-22T16:41:38Z</time>
      </trkpt>
      <trkpt lat="44.1400790" lon="7.5373290">
        <ele>1757.6</ele>
        <time>2017-07-22T16:41:41Z</time>
      </trkpt>
      <trkpt lat="44.1400990" lon="7.5375710">
        <ele>1757.6</ele>
        <time>2017-07-22T16:41:44Z</time>
      </trkpt>
      <trkpt lat="44.1401570" lon="7.5377950">
        <ele>1757.6</ele>
        <time>2017-07-22T16:41:47Z</time>
      </trkpt>
      <trkpt lat="44.1402110" lon="7.5380170">
        <ele>1757.4</ele>
        <time>2017-07-22T16:41:50Z</time>
      </trkpt>
      <trkpt lat="44.1403870" lon="7.5386290">
        <ele>1757.6</ele>
        <time>2017-07-22T16:41:58Z</time>
      </trkpt>
      <trkpt lat="44.1404200" lon="7.5386990">
        <ele>1757.4</ele>
        <time>2017-07-22T16:41:59Z</time>
      </trkpt>
      <trkpt lat="44.1405620" lon="7.5389650">
        <ele>1757.2</ele>
        <time>2017-07-22T16:42:03Z</time>
      </trkpt>
      <trkpt lat="44.1406280" lon="7.5391030">
        <ele>1757.4</ele>
        <time>2017-07-22T16:42:05Z</time>
      </trkpt>
      <trkpt lat="44.1406730" lon="7.5393550">
        <ele>1757.4</ele>
        <time>2017-07-22T16:42:08Z</time>
      </trkpt>
      <trkpt lat="44.1406780" lon="7.5394410">
        <ele>1757.6</ele>
        <time>2017-07-22T16:42:09Z</time>
      </trkpt>
      <trkpt lat="44.1406760" lon="7.5397050">
        <ele>1757.8</ele>
        <time>2017-07-22T16:42:12Z</time>
      </trkpt>
      <trkpt lat="44.1406670" lon="7.5398830">
        <ele>1757.8</ele>
        <time>2017-07-22T16:42:14Z</time>
      </trkpt>
      <trkpt lat="44.1406750" lon="7.5405150">
        <ele>1758.2</ele>
        <time>2017-07-22T16:42:21Z</time>
      </trkpt>
      <trkpt lat="44.1406850" lon="7.5406040">
        <ele>1758.2</ele>
        <time>2017-07-22T16:42:22Z</time>
      </trkpt>
      <trkpt lat="44.1407140" lon="7.5408850">
        <ele>1758.0</ele>
        <time>2017-07-22T16:42:25Z</time>
      </trkpt>
      <trkpt lat="44.1406910" lon="7.5410700">
        <ele>1758.0</ele>
        <time>2017-07-22T16:42:27Z</time>
      </trkpt>
      <trkpt lat="44.1405460" lon="7.5412370">
        <ele>1758.0</ele>
        <time>2017-07-22T16:42:30Z</time>
      </trkpt>
      <trkpt lat="44.1403680" lon="7.5412680">
        <ele>1758.0</ele>
        <time>2017-07-22T16:42:33Z</time>
      </trkpt>
      <trkpt lat="44.1403090" lon="7.5412800">
        <ele>1757.8</ele>
        <time>2017-07-22T16:42:34Z</time>
      </trkpt>
      <trkpt lat="44.1401920" lon="7.5413230">
        <ele>1758.0</ele>
        <time>2017-07-22T16:42:36Z</time>
      </trkpt>
      <trkpt lat="44.1400780" lon="7.5413990">
        <ele>1758.0</ele>
        <time>2017-07-22T16:42:38Z</time>
      </trkpt>
      <trkpt lat="44.1398370" lon="7.5415420">
        <ele>1757.8</ele>
        <time>2017-07-22T16:42:42Z</time>
      </trkpt>
      <trkpt lat="44.1397110" lon="7.5415830">
        <ele>1757.6</ele>
        <time>2017-07-22T16:42:44Z</time>
      </trkpt>
      <trkpt lat="44.1396520" lon="7.5416240">
        <ele>1757.6</ele>
        <time>2017-07-22T16:42:45Z</time>
      </trkpt>
      <trkpt lat="44.1395600" lon="7.5417530">
        <ele>1757.6</ele>
        <time>2017-07-22T16:42:47Z</time>
      </trkpt>
      <trkpt lat="44.1395560" lon="7.5420370">
        <ele>1758.0</ele>
        <time>2017-07-22T16:42:50Z</time>
      </trkpt>
      <trkpt lat="44.1396160" lon="7.5423250">
        <ele>1758.0</ele>
        <time>2017-07-22T16:42:53Z</time>
      </trkpt>
      <trkpt lat="44.1396710" lon="7.5425080">
        <ele>1758.2</ele>
        <time>2017-07-22T16:42:55Z</time>
      </trkpt>
      <trkpt lat="44.1398660" lon="7.5428360">
        <ele>1758.6</ele>
        <time>2017-07-22T16:42:59Z</time>
      </trkpt>
      <trkpt lat="44.1399120" lon="7.5429180">
        <ele>1758.4</ele>
        <time>2017-07-22T16:43:00Z</time>
      </trkpt>
      <trkpt lat="44.1401070" lon="7.5433730">
        <ele>1758.0</ele>
        <time>2017-07-22T16:43:05Z</time>
      </trkpt>
      <trkpt lat="44.1401110" lon="7.5434830">
        <ele>1758.0</ele>
        <time>2017-07-22T16:43:06Z</time>
      </trkpt>
      <trkpt lat="44.1400160" lon="7.5437560">
        <ele>1758.0</ele>
        <time>2017-07-22T16:43:09Z</time>
      </trkpt>
      <trkpt lat="44.1399080" lon="7.5438950">
        <ele>1757.8</ele>
        <time>2017-07-22T16:43:11Z</time>
      </trkpt>
      <trkpt lat="44.1398600" lon="7.5439750">
        <ele>1757.8</ele>
        <time>2017-07-22T16:43:12Z</time>
      </trkpt>
      <trkpt lat="44.1395570" lon="7.5445690">
        <ele>1758.0</ele>
        <time>2017-07-22T16:43:19Z</time>
      </trkpt>
      <trkpt lat="44.1393260" lon="7.5449660">
        <ele>1757.2</ele>
        <time>2017-07-22T16:43:24Z</time>
      </trkpt>
      <trkpt lat="44.1392700" lon="7.5450380">
        <ele>1757.2</ele>
        <time>2017-07-22T16:43:25Z</time>
      </trkpt>
      <trkpt lat="44.1390380" lon="7.5453190">
        <ele>1757.0</ele>
        <time>2017-07-22T16:43:29Z</time>
      </trkpt>
      <trkpt lat="44.1389180" lon="7.5454520">
        <ele>1757.2</ele>
        <time>2017-07-22T16:43:31Z</time>
      </trkpt>
      <trkpt lat="44.1388080" lon="7.5455990">
        <ele>1757.0</ele>
        <time>2017-07-22T16:43:33Z</time>
      </trkpt>
      <trkpt lat="44.1387550" lon="7.5457960">
        <ele>1756.6</ele>
        <time>2017-07-22T16:43:35Z</time>
      </trkpt>
      <trkpt lat="44.1387590" lon="7.5461120">
        <ele>1756.6</ele>
        <time>2017-07-22T16:43:38Z</time>
      </trkpt>
      <trkpt lat="44.1387720" lon="7.5462180">
        <ele>1756.6</ele>
        <time>2017-07-22T16:43:39Z</time>
      </trkpt>
      <trkpt lat="44.1388510" lon="7.5467500">
        <ele>1756.2</ele>
        <time>2017-07-22T16:43:44Z</time>
      </trkpt>
      <trkpt lat="44.1388950" lon="7.5469610">
        <ele>1756.0</ele>
        <time>2017-07-22T16:43:46Z</time>
      </trkpt>
      <trkpt lat="44.1389140" lon="7.5471820">
        <ele>1756.2</ele>
        <time>2017-07-22T16:43:48Z</time>
      </trkpt>
      <trkpt lat="44.1389160" lon="7.5472920">
        <ele>1756.2</ele>
        <time>2017-07-22T16:43:49Z</time>
      </trkpt>
      <trkpt lat="44.1389310" lon="7.5477240">
        <ele>1755.8</ele>
        <time>2017-07-22T16:43:53Z</time>
      </trkpt>
      <trkpt lat="44.1388990" lon="7.5478230">
        <ele>1755.8</ele>
        <time>2017-07-22T16:43:54Z</time>
      </trkpt>
      <trkpt lat="44.1387520" lon="7.5481940">
        <ele>1755.6</ele>
        <time>2017-07-22T16:43:58Z</time>
      </trkpt>
      <trkpt lat="44.1385530" lon="7.5487890">
        <ele>1755.0</ele>
        <time>2017-07-22T16:44:04Z</time>
      </trkpt>
      <trkpt lat="44.1385430" lon="7.5488930">
        <ele>1755.2</ele>
        <time>2017-07-22T16:44:05Z</time>
      </trkpt>
      <trkpt lat="44.1386060" lon="7.5490600">
        <ele>1755.0</ele>
        <time>2017-07-22T16:44:07Z</time>
      </trkpt>
      <trkpt lat="44.1387110" lon="7.5491910">
        <ele>1754.6</ele>
        <time>2017-07-22T16:44:09Z</time>
      </trkpt>
      <trkpt lat="44.1387470" lon="7.5492850">
        <ele>1754.6</ele>
        <time>2017-07-22T16:44:10Z</time>
      </trkpt>
      <trkpt lat="44.1388110" lon="7.5496030">
        <ele>1754.4</ele>
        <time>2017-07-22T16:44:13Z</time>
      </trkpt>
      <trkpt lat="44.1389650" lon="7.5498390">
        <ele>1754.2</ele>
        <time>2017-07-22T16:44:16Z</time>
      </trkpt>
      <trkpt lat="44.1390700" lon="7.5499190">
        <ele>1753.8</ele>
        <time>2017-07-22T16:44:18Z</time>
      </trkpt>
      <trkpt lat="44.1391220" lon="7.5499240">
        <ele>1754.0</ele>
        <time>2017-07-22T16:44:19Z</time>
      </trkpt>
      <trkpt lat="44.1392940" lon="7.5499260">
        <ele>1754.8</ele>
        <time>2017-07-22T16:44:23Z</time>
      </trkpt>
      <trkpt lat="44.1393330" lon="7.5499210">
        <ele>1755.0</ele>
        <time>2017-07-22T16:44:24Z</time>
      </trkpt>
      <trkpt lat="44.1393690" lon="7.5499210">
        <ele>1755.0</ele>
        <time>2017-07-22T16:44:25Z</time>
      </trkpt>
      <trkpt lat="44.1394980" lon="7.5499310">
        <ele>1755.8</ele>
        <time>2017-07-22T16:44:29Z</time>
      </trkpt>
      <trkpt lat="44.1395290" lon="7.5499310">
        <ele>1756.0</ele>
        <time>2017-07-22T16:44:30Z</time>
      </trkpt>
      <trkpt lat="44.1396720" lon="7.5499520">
        <ele>1757.2</ele>
        <time>2017-07-22T16:44:35Z</time>
      </trkpt>
      <trkpt lat="44.1397520" lon="7.5499840">
        <ele>1758.4</ele>
        <time>2017-07-22T16:44:38Z</time>
      </trkpt>
      <trkpt lat="44.1397800" lon="7.5499750">
        <ele>1758.6</ele>
        <time>2017-07-22T16:44:39Z</time>
      </trkpt>
      <trkpt lat="44.1398630" lon="7.5499640">
        <ele>1759.4</ele>
        <time>2017-07-22T16:44:42Z</time>
      </trkpt>
      <trkpt lat="44.1399690" lon="7.5499710">
        <ele>1760.4</ele>
        <time>2017-07-22T16:44:46Z</time>
      </trkpt>
      <trkpt lat="44.1399950" lon="7.5499750">
        <ele>1760.8</ele>
        <time>2017-07-22T16:44:47Z</time>
      </trkpt>
      <trkpt lat="44.1400990" lon="7.5500110">
        <ele>1761.8</ele>
        <time>2017-07-22T16:44:51Z</time>
      </trkpt>
      <trkpt lat="44.1401690" lon="7.5500530">
        <ele>1762.8</ele>
        <time>2017-07-22T16:44:54Z</time>
      </trkpt>
      <trkpt lat="44.1401930" lon="7.5500700">
        <ele>1763.2</ele>
        <time>2017-07-22T16:44:55Z</time>
      </trkpt>
      <trkpt lat="44.1402930" lon="7.5501230">
        <ele>1764.2</ele>
        <time>2017-07-22T16:44:59Z</time>
      </trkpt>
      <trkpt lat="44.1403370" lon="7.5501440">
        <ele>1765.0</ele>
        <time>2017-07-22T16:45:01Z</time>
      </trkpt>
      <trkpt lat="44.1403850" lon="7.5501700">
        <ele>1765.2</ele>
        <time>2017-07-22T16:45:03Z</time>
      </trkpt>
      <trkpt lat="44.1404910" lon="7.5502370">
        <ele>1766.4</ele>
        <time>2017-07-22T16:45:07Z</time>
      </trkpt>
      <trkpt lat="44.1405720" lon="7.5502770">
        <ele>1767.4</ele>
        <time>2017-07-22T16:45:10Z</time>
      </trkpt>
      <trkpt lat="44.1406470" lon="7.5503310">
        <ele>1768.4</ele>
        <time>2017-07-22T16:45:13Z</time>
      </trkpt>
      <trkpt lat="44.1406710" lon="7.5503540">
        <ele>1768.8</ele>
        <time>2017-07-22T16:45:14Z</time>
      </trkpt>
      <trkpt lat="44.1407790" lon="7.5504260">
        <ele>1769.8</ele>
        <time>2017-07-22T16:45:18Z</time>
      </trkpt>
      <trkpt lat="44.1408060" lon="7.5504440">
        <ele>1770.0</ele>
        <time>2017-07-22T16:45:19Z</time>
      </trkpt>
      <trkpt lat="44.1408870" lon="7.5504970">
        <ele>1770.8</ele>
        <time>2017-07-22T16:45:22Z</time>
      </trkpt>
      <trkpt lat="44.1409760" lon="7.5505770">
        <ele>1772.2</ele>
        <time>2017-07-22T16:45:26Z</time>
      </trkpt>
      <trkpt lat="44.1410720" lon="7.5506200">
        <ele>1773.4</ele>
        <time>2017-07-22T16:45:30Z</time>
      </trkpt>
      <trkpt lat="44.1411190" lon="7.5506390">
        <ele>1774.0</ele>
        <time>2017-07-22T16:45:32Z</time>
      </trkpt>
      <trkpt lat="44.1411950" lon="7.5506480">
        <ele>1774.6</ele>
        <time>2017-07-22T16:45:35Z</time>
      </trkpt>
      <trkpt lat="44.1412710" lon="7.5506260">
        <ele>1775.4</ele>
        <time>2017-07-22T16:45:38Z</time>
      </trkpt>
      <trkpt lat="44.1413230" lon="7.5506070">
        <ele>1775.8</ele>
        <time>2017-07-22T16:45:40Z</time>
      </trkpt>
      <trkpt lat="44.1414110" lon="7.5505390">
        <ele>1776.6</ele>
        <time>2017-07-22T16:45:44Z</time>
      </trkpt>
      <trkpt lat="44.1414320" lon="7.5505210">
        <ele>1777.0</ele>
        <time>2017-07-22T16:45:45Z</time>
      </trkpt>
      <trkpt lat="44.1415240" lon="7.5504820">
        <ele>1778.2</ele>
        <time>2017-07-22T16:45:49Z</time>
      </trkpt>
      <trkpt lat="44.1415470" lon="7.5504760">
        <ele>1778.6</ele>
        <time>2017-07-22T16:45:50Z</time>
      </trkpt>
      <trkpt lat="44.1416290" lon="7.5504720">
        <ele>1779.4</ele>
        <time>2017-07-22T16:45:53Z</time>
      </trkpt>
      <trkpt lat="44.1416780" lon="7.5504720">
        <ele>1779.8</ele>
        <time>2017-07-22T16:45:55Z</time>
      </trkpt>
      <trkpt lat="44.1417570" lon="7.5504550">
        <ele>1780.6</ele>
        <time>2017-07-22T16:45:58Z</time>
      </trkpt>
      <trkpt lat="44.1418360" lon="7.5504510">
        <ele>1781.2</ele>
        <time>2017-07-22T16:46:01Z</time>
      </trkpt>
      <trkpt lat="44.1418900" lon="7.5504690">
        <ele>1781.6</ele>
        <time>2017-07-22T16:46:03Z</time>
      </trkpt>
      <trkpt lat="44.1420180" lon="7.5505530">
        <ele>1782.6</ele>
        <time>2017-07-22T16:46:08Z</time>
      </trkpt>
      <trkpt lat="44.1421480" lon="7.5506080">
        <ele>1783.8</ele>
        <time>2017-07-22T16:46:13Z</time>
      </trkpt>
      <trkpt lat="44.1422620" lon="7.5506490">
        <ele>1784.8</ele>
        <time>2017-07-22T16:46:17Z</time>
      </trkpt>
      <trkpt lat="44.1423130" lon="7.5506760">
        <ele>1785.0</ele>
        <time>2017-07-22T16:46:19Z</time>
      </trkpt>
      <trkpt lat="44.1424390" lon="7.5507040">
        <ele>1785.8</ele>
        <time>2017-07-22T16:46:23Z</time>
      </trkpt>
      <trkpt lat="44.1424990" lon="7.5507080">
        <ele>1786.2</ele>
        <time>2017-07-22T16:46:25Z</time>
      </trkpt>
      <trkpt lat="44.1426550" lon="7.5506830">
        <ele>1787.2</ele>
        <time>2017-07-22T16:46:30Z</time>
      </trkpt>
      <trkpt lat="44.1426810" lon="7.5506730">
        <ele>1787.4</ele>
        <time>2017-07-22T16:46:31Z</time>
      </trkpt>
      <trkpt lat="44.1428290" lon="7.5506690">
        <ele>1788.4</ele>
        <time>2017-07-22T16:46:36Z</time>
      </trkpt>
      <trkpt lat="44.1429470" lon="7.5506690">
        <ele>1789.6</ele>
        <time>2017-07-22T16:46:40Z</time>
      </trkpt>
      <trkpt lat="44.1430030" lon="7.5506590">
        <ele>1790.0</ele>
        <time>2017-07-22T16:46:42Z</time>
      </trkpt>
      <trkpt lat="44.1430550" lon="7.5506760">
        <ele>1790.6</ele>
        <time>2017-07-22T16:46:44Z</time>
      </trkpt>
      <trkpt lat="44.1430760" lon="7.5507000">
        <ele>1790.8</ele>
        <time>2017-07-22T16:46:45Z</time>
      </trkpt>
      <trkpt lat="44.1431050" lon="7.5507280">
        <ele>1791.0</ele>
        <time>2017-07-22T16:46:46Z</time>
      </trkpt>
      <trkpt lat="44.1432030" lon="7.5509340">
        <ele>1792.0</ele>
        <time>2017-07-22T16:46:51Z</time>
      </trkpt>
      <trkpt lat="44.1432890" lon="7.5510990">
        <ele>1793.0</ele>
        <time>2017-07-22T16:46:55Z</time>
      </trkpt>
      <trkpt lat="44.1433490" lon="7.5511630">
        <ele>1793.4</ele>
        <time>2017-07-22T16:46:57Z</time>
      </trkpt>
      <trkpt lat="44.1434430" lon="7.5512380">
        <ele>1794.0</ele>
        <time>2017-07-22T16:47:00Z</time>
      </trkpt>
      <trkpt lat="44.1435490" lon="7.5512890">
        <ele>1794.4</ele>
        <time>2017-07-22T16:47:03Z</time>
      </trkpt>
      <trkpt lat="44.1436560" lon="7.5513370">
        <ele>1795.0</ele>
        <time>2017-07-22T16:47:06Z</time>
      </trkpt>
      <trkpt lat="44.1437820" lon="7.5514810">
        <ele>1795.8</ele>
        <time>2017-07-22T16:47:10Z</time>
      </trkpt>
      <trkpt lat="44.1438100" lon="7.5515280">
        <ele>1796.0</ele>
        <time>2017-07-22T16:47:11Z</time>
      </trkpt>
      <trkpt lat="44.1438470" lon="7.5516350">
        <ele>1796.2</ele>
        <time>2017-07-22T16:47:13Z</time>
      </trkpt>
      <trkpt lat="44.1438720" lon="7.5517500">
        <ele>1796.8</ele>
        <time>2017-07-22T16:47:15Z</time>
      </trkpt>
      <trkpt lat="44.1438830" lon="7.5518040">
        <ele>1797.0</ele>
        <time>2017-07-22T16:47:16Z</time>
      </trkpt>
      <trkpt lat="44.1439120" lon="7.5519080">
        <ele>1797.4</ele>
        <time>2017-07-22T16:47:18Z</time>
      </trkpt>
      <trkpt lat="44.1439930" lon="7.5521070">
        <ele>1797.8</ele>
        <time>2017-07-22T16:47:22Z</time>
      </trkpt>
      <trkpt lat="44.1440190" lon="7.5521510">
        <ele>1798.0</ele>
        <time>2017-07-22T16:47:23Z</time>
      </trkpt>
      <trkpt lat="44.1440610" lon="7.5522520">
        <ele>1798.4</ele>
        <time>2017-07-22T16:47:25Z</time>
      </trkpt>
      <trkpt lat="44.1440800" lon="7.5523040">
        <ele>1798.4</ele>
        <time>2017-07-22T16:47:26Z</time>
      </trkpt>
      <trkpt lat="44.1441270" lon="7.5524010">
        <ele>1798.6</ele>
        <time>2017-07-22T16:47:28Z</time>
      </trkpt>
      <trkpt lat="44.1441550" lon="7.5524410">
        <ele>1799.0</ele>
        <time>2017-07-22T16:47:29Z</time>
      </trkpt>
      <trkpt lat="44.1442620" lon="7.5525360">
        <ele>1799.4</ele>
        <time>2017-07-22T16:47:32Z</time>
      </trkpt>
      <trkpt lat="44.1443010" lon="7.5525700">
        <ele>1799.6</ele>
        <time>2017-07-22T16:47:33Z</time>
      </trkpt>
      <trkpt lat="44.1443330" lon="7.5526130">
        <ele>1799.8</ele>
        <time>2017-07-22T16:47:34Z</time>
      </trkpt>
      <trkpt lat="44.1443740" lon="7.5527910">
        <ele>1800.2</ele>
        <time>2017-07-22T16:47:37Z</time>
      </trkpt>
      <trkpt lat="44.1443710" lon="7.5529160">
        <ele>1800.6</ele>
        <time>2017-07-22T16:47:39Z</time>
      </trkpt>
      <trkpt lat="44.1443720" lon="7.5529790">
        <ele>1800.6</ele>
        <time>2017-07-22T16:47:40Z</time>
      </trkpt>
      <trkpt lat="44.1443800" lon="7.5530400">
        <ele>1800.8</ele>
        <time>2017-07-22T16:47:41Z</time>
      </trkpt>
      <trkpt lat="44.1443960" lon="7.5531020">
        <ele>1801.0</ele>
        <time>2017-07-22T16:47:42Z</time>
      </trkpt>
      <trkpt lat="44.1445320" lon="7.5532800">
        <ele>1801.4</ele>
        <time>2017-07-22T16:47:46Z</time>
      </trkpt>
      <trkpt lat="44.1445750" lon="7.5533130">
        <ele>1802.0</ele>
        <time>2017-07-22T16:47:47Z</time>
      </trkpt>
      <trkpt lat="44.1446660" lon="7.5533730">
        <ele>1802.6</ele>
        <time>2017-07-22T16:47:49Z</time>
      </trkpt>
      <trkpt lat="44.1447870" lon="7.5535060">
        <ele>1802.4</ele>
        <time>2017-07-22T16:47:52Z</time>
      </trkpt>
      <trkpt lat="44.1448410" lon="7.5537220">
        <ele>1802.6</ele>
        <time>2017-07-22T16:47:55Z</time>
      </trkpt>
      <trkpt lat="44.1448460" lon="7.5537980">
        <ele>1802.6</ele>
        <time>2017-07-22T16:47:56Z</time>
      </trkpt>
      <trkpt lat="44.1448130" lon="7.5540280">
        <ele>1802.8</ele>
        <time>2017-07-22T16:47:59Z</time>
      </trkpt>
      <trkpt lat="44.1447900" lon="7.5541920">
        <ele>1803.0</ele>
        <time>2017-07-22T16:48:01Z</time>
      </trkpt>
      <trkpt lat="44.1448320" lon="7.5543510">
        <ele>1803.2</ele>
        <time>2017-07-22T16:48:03Z</time>
      </trkpt>
      <trkpt lat="44.1448420" lon="7.5546890">
        <ele>1803.8</ele>
        <time>2017-07-22T16:48:07Z</time>
      </trkpt>
      <trkpt lat="44.1448250" lon="7.5552500">
        <ele>1804.2</ele>
        <time>2017-07-22T16:48:13Z</time>
      </trkpt>
      <trkpt lat="44.1448540" lon="7.5555210">
        <ele>1804.0</ele>
        <time>2017-07-22T16:48:16Z</time>
      </trkpt>
      <trkpt lat="44.1449060" lon="7.5555840">
        <ele>1804.2</ele>
        <time>2017-07-22T16:48:17Z</time>
      </trkpt>
      <trkpt lat="44.1451130" lon="7.5556550">
        <ele>1804.2</ele>
        <time>2017-07-22T16:48:20Z</time>
      </trkpt>
      <trkpt lat="44.1452390" lon="7.5557170">
        <ele>1804.0</ele>
        <time>2017-07-22T16:48:22Z</time>
      </trkpt>
      <trkpt lat="44.1453540" lon="7.5558020">
        <ele>1804.0</ele>
        <time>2017-07-22T16:48:24Z</time>
      </trkpt>
      <trkpt lat="44.1454100" lon="7.5558520">
        <ele>1804.0</ele>
        <time>2017-07-22T16:48:25Z</time>
      </trkpt>
      <trkpt lat="44.1455190" lon="7.5559720">
        <ele>1804.0</ele>
        <time>2017-07-22T16:48:27Z</time>
      </trkpt>
      <trkpt lat="44.1456530" lon="7.5561940">
        <ele>1804.2</ele>
        <time>2017-07-22T16:48:30Z</time>
      </trkpt>
      <trkpt lat="44.1458500" lon="7.5562430">
        <ele>1804.2</ele>
        <time>2017-07-22T16:48:33Z</time>
      </trkpt>
      <trkpt lat="44.1459180" lon="7.5562350">
        <ele>1804.2</ele>
        <time>2017-07-22T16:48:34Z</time>
      </trkpt>
      <trkpt lat="44.1460400" lon="7.5562580">
        <ele>1804.6</ele>
        <time>2017-07-22T16:48:36Z</time>
      </trkpt>
      <trkpt lat="44.1461510" lon="7.5563130">
        <ele>1804.6</ele>
        <time>2017-07-22T16:48:38Z</time>
      </trkpt>
      <trkpt lat="44.1462540" lon="7.5563940">
        <ele>1804.8</ele>
        <time>2017-07-22T16:48:40Z</time>
      </trkpt>
      <trkpt lat="44.1462910" lon="7.5564680">
        <ele>1805.0</ele>
        <time>2017-07-22T16:48:41Z</time>
      </trkpt>
      <trkpt lat="44.1463190" lon="7.5565440">
        <ele>1805.2</ele>
        <time>2017-07-22T16:48:42Z</time>
      </trkpt>
      <trkpt lat="44.1463350" lon="7.5566220">
        <ele>1805.4</ele>
        <time>2017-07-22T16:48:43Z</time>
      </trkpt>
      <trkpt lat="44.1463750" lon="7.5567590">
        <ele>1806.0</ele>
        <time>2017-07-22T16:48:45Z</time>
      </trkpt>
      <trkpt lat="44.1464160" lon="7.5567950">
        <ele>1806.2</ele>
        <time>2017-07-22T16:48:46Z</time>
      </trkpt>
      <trkpt lat="44.1465080" lon="7.5568230">
        <ele>1806.4</ele>
        <time>2017-07-22T16:48:48Z</time>
      </trkpt>
      <trkpt lat="44.1465530" lon="7.5568310">
        <ele>1806.6</ele>
        <time>2017-07-22T16:48:49Z</time>
      </trkpt>
      <trkpt lat="44.1466860" lon="7.5568530">
        <ele>1807.6</ele>
        <time>2017-07-22T16:48:52Z</time>
      </trkpt>
      <trkpt lat="44.1467640" lon="7.5568550">
        <ele>1808.0</ele>
        <time>2017-07-22T16:48:54Z</time>
      </trkpt>
      <trkpt lat="44.1468820" lon="7.5568540">
        <ele>1808.8</ele>
        <time>2017-07-22T16:48:57Z</time>
      </trkpt>
      <trkpt lat="44.1469830" lon="7.5569160">
        <ele>1810.0</ele>
        <time>2017-07-22T16:49:00Z</time>
      </trkpt>
      <trkpt lat="44.1470840" lon="7.5569940">
        <ele>1811.4</ele>
        <time>2017-07-22T16:49:03Z</time>
      </trkpt>
      <trkpt lat="44.1471330" lon="7.5570780">
        <ele>1812.2</ele>
        <time>2017-07-22T16:49:05Z</time>
      </trkpt>
      <trkpt lat="44.1471600" lon="7.5571140">
        <ele>1812.6</ele>
        <time>2017-07-22T16:49:06Z</time>
      </trkpt>
      <trkpt lat="44.1472430" lon="7.5572170">
        <ele>1814.0</ele>
        <time>2017-07-22T16:49:09Z</time>
      </trkpt>
      <trkpt lat="44.1472960" lon="7.5572860">
        <ele>1814.6</ele>
        <time>2017-07-22T16:49:11Z</time>
      </trkpt>
      <trkpt lat="44.1473420" lon="7.5573790">
        <ele>1815.2</ele>
        <time>2017-07-22T16:49:13Z</time>
      </trkpt>
      <trkpt lat="44.1473920" lon="7.5574950">
        <ele>1815.8</ele>
        <time>2017-07-22T16:49:15Z</time>
      </trkpt>
      <trkpt lat="44.1474210" lon="7.5575540">
        <ele>1816.0</ele>
        <time>2017-07-22T16:49:16Z</time>
      </trkpt>
      <trkpt lat="44.1475270" lon="7.5578390">
        <ele>1816.2</ele>
        <time>2017-07-22T16:49:20Z</time>
      </trkpt>
      <trkpt lat="44.1475570" lon="7.5579160">
        <ele>1816.0</ele>
        <time>2017-07-22T16:49:21Z</time>
      </trkpt>
      <trkpt lat="44.1477040" lon="7.5582380">
        <ele>1815.8</ele>
        <time>2017-07-22T16:49:25Z</time>
      </trkpt>
      <trkpt lat="44.1477630" lon="7.5583030">
        <ele>1816.0</ele>
        <time>2017-07-22T16:49:26Z</time>
      </trkpt>
      <trkpt lat="44.1478700" lon="7.5584370">
        <ele>1816.0</ele>
        <time>2017-07-22T16:49:28Z</time>
      </trkpt>
      <trkpt lat="44.1480450" lon="7.5586050">
        <ele>1815.6</ele>
        <time>2017-07-22T16:49:31Z</time>
      </trkpt>
      <trkpt lat="44.1481140" lon="7.5586450">
        <ele>1815.6</ele>
        <time>2017-07-22T16:49:32Z</time>
      </trkpt>
      <trkpt lat="44.1482730" lon="7.5586640">
        <ele>1815.4</ele>
        <time>2017-07-22T16:49:34Z</time>
      </trkpt>
      <trkpt lat="44.1484300" lon="7.5586530">
        <ele>1815.0</ele>
        <time>2017-07-22T16:49:36Z</time>
      </trkpt>
      <trkpt lat="44.1485860" lon="7.5586880">
        <ele>1814.8</ele>
        <time>2017-07-22T16:49:38Z</time>
      </trkpt>
      <trkpt lat="44.1486640" lon="7.5587200">
        <ele>1814.8</ele>
        <time>2017-07-22T16:49:39Z</time>
      </trkpt>
      <trkpt lat="44.1489000" lon="7.5588620">
        <ele>1814.2</ele>
        <time>2017-07-22T16:49:42Z</time>
      </trkpt>
      <trkpt lat="44.1489840" lon="7.5589170">
        <ele>1813.8</ele>
        <time>2017-07-22T16:49:43Z</time>
      </trkpt>
      <trkpt lat="44.1493200" lon="7.5591580">
        <ele>1812.8</ele>
        <time>2017-07-22T16:49:47Z</time>
      </trkpt>
      <trkpt lat="44.1493870" lon="7.5592490">
        <ele>1812.6</ele>
        <time>2017-07-22T16:49:48Z</time>
      </trkpt>
      <trkpt lat="44.1494870" lon="7.5595510">
        <ele>1811.8</ele>
        <time>2017-07-22T16:49:51Z</time>
      </trkpt>
      <trkpt lat="44.1494740" lon="7.5597850">
        <ele>1811.4</ele>
        <time>2017-07-22T16:49:53Z</time>
      </trkpt>
      <trkpt lat="44.1494570" lon="7.5599040">
        <ele>1811.2</ele>
        <time>2017-07-22T16:49:54Z</time>
      </trkpt>
      <trkpt lat="44.1494420" lon="7.5600180">
        <ele>1810.4</ele>
        <time>2017-07-22T16:49:55Z</time>
      </trkpt>
      <trkpt lat="44.1493990" lon="7.5603750">
        <ele>1809.6</ele>
        <time>2017-07-22T16:49:58Z</time>
      </trkpt>
      <trkpt lat="44.1493780" lon="7.5604960">
        <ele>1809.2</ele>
        <time>2017-07-22T16:49:59Z</time>
      </trkpt>
      <trkpt lat="44.1493150" lon="7.5607390">
        <ele>1808.8</ele>
        <time>2017-07-22T16:50:01Z</time>
      </trkpt>
      <trkpt lat="44.1492310" lon="7.5609250">
        <ele>1808.0</ele>
        <time>2017-07-22T16:50:03Z</time>
      </trkpt>
      <trkpt lat="44.1491670" lon="7.5609740">
        <ele>1807.6</ele>
        <time>2017-07-22T16:50:04Z</time>
      </trkpt>
      <trkpt lat="44.1491030" lon="7.5610320">
        <ele>1806.8</ele>
        <time>2017-07-22T16:50:05Z</time>
      </trkpt>
      <trkpt lat="44.1489580" lon="7.5611260">
        <ele>1805.4</ele>
        <time>2017-07-22T16:50:07Z</time>
      </trkpt>
      <trkpt lat="44.1488980" lon="7.5611610">
        <ele>1805.0</ele>
        <time>2017-07-22T16:50:08Z</time>
      </trkpt>
      <trkpt lat="44.1488710" lon="7.5612070">
        <ele>1804.4</ele>
        <time>2017-07-22T16:50:09Z</time>
      </trkpt>
      <trkpt lat="44.1488650" lon="7.5612690">
        <ele>1803.8</ele>
        <time>2017-07-22T16:50:10Z</time>
      </trkpt>
      <trkpt lat="44.1488990" lon="7.5613280">
        <ele>1803.2</ele>
        <time>2017-07-22T16:50:11Z</time>
      </trkpt>
      <trkpt lat="44.1489550" lon="7.5613710">
        <ele>1802.6</ele>
        <time>2017-07-22T16:50:12Z</time>
      </trkpt>
      <trkpt lat="44.1490200" lon="7.5614030">
        <ele>1801.2</ele>
        <time>2017-07-22T16:50:13Z</time>
      </trkpt>
      <trkpt lat="44.1490920" lon="7.5614430">
        <ele>1800.4</ele>
        <time>2017-07-22T16:50:14Z</time>
      </trkpt>
      <trkpt lat="44.1491680" lon="7.5614950">
        <ele>1799.8</ele>
        <time>2017-07-22T16:50:15Z</time>
      </trkpt>
      <trkpt lat="44.1493320" lon="7.5615860">
        <ele>1798.4</ele>
        <time>2017-07-22T16:50:17Z</time>
      </trkpt>
      <trkpt lat="44.1494950" lon="7.5617160">
        <ele>1797.0</ele>
        <time>2017-07-22T16:50:19Z</time>
      </trkpt>
      <trkpt lat="44.1496520" lon="7.5618810">
        <ele>1795.4</ele>
        <time>2017-07-22T16:50:21Z</time>
      </trkpt>
      <trkpt lat="44.1498050" lon="7.5620470">
        <ele>1793.8</ele>
        <time>2017-07-22T16:50:23Z</time>
      </trkpt>
      <trkpt lat="44.1498700" lon="7.5621360">
        <ele>1793.0</ele>
        <time>2017-07-22T16:50:24Z</time>
      </trkpt>
      <trkpt lat="44.1499120" lon="7.5622550">
        <ele>1792.2</ele>
        <time>2017-07-22T16:50:25Z</time>
      </trkpt>
      <trkpt lat="44.1499510" lon="7.5623720">
        <ele>1791.2</ele>
        <time>2017-07-22T16:50:26Z</time>
      </trkpt>
      <trkpt lat="44.1499840" lon="7.5624840">
        <ele>1790.4</ele>
        <time>2017-07-22T16:50:27Z</time>
      </trkpt>
      <trkpt lat="44.1500040" lon="7.5626000">
        <ele>1789.6</ele>
        <time>2017-07-22T16:50:28Z</time>
      </trkpt>
      <trkpt lat="44.1500100" lon="7.5628130">
        <ele>1788.6</ele>
        <time>2017-07-22T16:50:30Z</time>
      </trkpt>
      <trkpt lat="44.1500270" lon="7.5629140">
        <ele>1788.0</ele>
        <time>2017-07-22T16:50:31Z</time>
      </trkpt>
      <trkpt lat="44.1500580" lon="7.5629960">
        <ele>1787.4</ele>
        <time>2017-07-22T16:50:32Z</time>
      </trkpt>
      <trkpt lat="44.1501080" lon="7.5630540">
        <ele>1787.0</ele>
        <time>2017-07-22T16:50:33Z</time>
      </trkpt>
      <trkpt lat="44.1501840" lon="7.5631750">
        <ele>1786.4</ele>
        <time>2017-07-22T16:50:35Z</time>
      </trkpt>
      <trkpt lat="44.1502130" lon="7.5632470">
        <ele>1786.0</ele>
        <time>2017-07-22T16:50:36Z</time>
      </trkpt>
      <trkpt lat="44.1502450" lon="7.5633800">
        <ele>1785.6</ele>
        <time>2017-07-22T16:50:38Z</time>
      </trkpt>
      <trkpt lat="44.1502750" lon="7.5635130">
        <ele>1785.6</ele>
        <time>2017-07-22T16:50:40Z</time>
      </trkpt>
      <trkpt lat="44.1502960" lon="7.5635750">
        <ele>1785.6</ele>
        <time>2017-07-22T16:50:41Z</time>
      </trkpt>
      <trkpt lat="44.1503340" lon="7.5637020">
        <ele>1785.4</ele>
        <time>2017-07-22T16:50:43Z</time>
      </trkpt>
      <trkpt lat="44.1503520" lon="7.5637680">
        <ele>1785.4</ele>
        <time>2017-07-22T16:50:44Z</time>
      </trkpt>
      <trkpt lat="44.1503870" lon="7.5639000">
        <ele>1785.6</ele>
        <time>2017-07-22T16:50:46Z</time>
      </trkpt>
      <trkpt lat="44.1504230" lon="7.5640160">
        <ele>1785.6</ele>
        <time>2017-07-22T16:50:48Z</time>
      </trkpt>
      <trkpt lat="44.1504700" lon="7.5641150">
        <ele>1786.0</ele>
        <time>2017-07-22T16:50:50Z</time>
      </trkpt>
      <trkpt lat="44.1505280" lon="7.5642030">
        <ele>1786.4</ele>
        <time>2017-07-22T16:50:52Z</time>
      </trkpt>
      <trkpt lat="44.1505610" lon="7.5642380">
        <ele>1786.4</ele>
        <time>2017-07-22T16:50:53Z</time>
      </trkpt>
      <trkpt lat="44.1506250" lon="7.5643740">
        <ele>1787.0</ele>
        <time>2017-07-22T16:50:56Z</time>
      </trkpt>
      <trkpt lat="44.1506650" lon="7.5644630">
        <ele>1787.4</ele>
        <time>2017-07-22T16:50:58Z</time>
      </trkpt>
      <trkpt lat="44.1507420" lon="7.5646660">
        <ele>1788.6</ele>
        <time>2017-07-22T16:51:03Z</time>
      </trkpt>
      <trkpt lat="44.1507840" lon="7.5648920">
        <ele>1789.8</ele>
        <time>2017-07-22T16:51:08Z</time>
      </trkpt>
      <trkpt lat="44.1507880" lon="7.5649380">
        <ele>1790.2</ele>
        <time>2017-07-22T16:51:09Z</time>
      </trkpt>
      <trkpt lat="44.1508040" lon="7.5650180">
        <ele>1790.8</ele>
        <time>2017-07-22T16:51:11Z</time>
      </trkpt>
      <trkpt lat="44.1508430" lon="7.5652000">
        <ele>1792.0</ele>
        <time>2017-07-22T16:51:15Z</time>
      </trkpt>
      <trkpt lat="44.1508510" lon="7.5653940">
        <ele>1793.2</ele>
        <time>2017-07-22T16:51:19Z</time>
      </trkpt>
      <trkpt lat="44.1508440" lon="7.5654400">
        <ele>1793.4</ele>
        <time>2017-07-22T16:51:20Z</time>
      </trkpt>
      <trkpt lat="44.1508390" lon="7.5655310">
        <ele>1794.2</ele>
        <time>2017-07-22T16:51:22Z</time>
      </trkpt>
      <trkpt lat="44.1508520" lon="7.5657060">
        <ele>1795.2</ele>
        <time>2017-07-22T16:51:26Z</time>
      </trkpt>
      <trkpt lat="44.1508540" lon="7.5657480">
        <ele>1795.6</ele>
        <time>2017-07-22T16:51:27Z</time>
      </trkpt>
      <trkpt lat="44.1508700" lon="7.5658750">
        <ele>1796.4</ele>
        <time>2017-07-22T16:51:30Z</time>
      </trkpt>
      <trkpt lat="44.1508870" lon="7.5660510">
        <ele>1797.4</ele>
        <time>2017-07-22T16:51:34Z</time>
      </trkpt>
      <trkpt lat="44.1509290" lon="7.5662150">
        <ele>1798.6</ele>
        <time>2017-07-22T16:51:38Z</time>
      </trkpt>
      <trkpt lat="44.1509410" lon="7.5663000">
        <ele>1799.0</ele>
        <time>2017-07-22T16:51:40Z</time>
      </trkpt>
      <trkpt lat="44.1509660" lon="7.5664240">
        <ele>1799.8</ele>
        <time>2017-07-22T16:51:43Z</time>
      </trkpt>
      <trkpt lat="44.1510190" lon="7.5666270">
        <ele>1800.8</ele>
        <time>2017-07-22T16:51:48Z</time>
      </trkpt>
      <trkpt lat="44.1510590" lon="7.5667830">
        <ele>1802.0</ele>
        <time>2017-07-22T16:51:52Z</time>
      </trkpt>
      <trkpt lat="44.1510610" lon="7.5668660">
        <ele>1802.6</ele>
        <time>2017-07-22T16:51:54Z</time>
      </trkpt>
      <trkpt lat="44.1510360" lon="7.5669450">
        <ele>1803.0</ele>
        <time>2017-07-22T16:51:56Z</time>
      </trkpt>
      <trkpt lat="44.1509900" lon="7.5670880">
        <ele>1803.8</ele>
        <time>2017-07-22T16:51:59Z</time>
      </trkpt>
      <trkpt lat="44.1509630" lon="7.5671860">
        <ele>1804.2</ele>
        <time>2017-07-22T16:52:01Z</time>
      </trkpt>
      <trkpt lat="44.1509800" lon="7.5672930">
        <ele>1804.8</ele>
        <time>2017-07-22T16:52:03Z</time>
      </trkpt>
      <trkpt lat="44.1510220" lon="7.5673220">
        <ele>1805.0</ele>
        <time>2017-07-22T16:52:04Z</time>
      </trkpt>
      <trkpt lat="44.1510570" lon="7.5673570">
        <ele>1805.2</ele>
        <time>2017-07-22T16:52:05Z</time>
      </trkpt>
      <trkpt lat="44.1511970" lon="7.5674470">
        <ele>1805.8</ele>
        <time>2017-07-22T16:52:08Z</time>
      </trkpt>
      <trkpt lat="44.1512480" lon="7.5674790">
        <ele>1806.0</ele>
        <time>2017-07-22T16:52:09Z</time>
      </trkpt>
      <trkpt lat="44.1514150" lon="7.5675530">
        <ele>1806.4</ele>
        <time>2017-07-22T16:52:12Z</time>
      </trkpt>
      <trkpt lat="44.1515440" lon="7.5675700">
        <ele>1807.0</ele>
        <time>2017-07-22T16:52:14Z</time>
      </trkpt>
      <trkpt lat="44.1516110" lon="7.5675690">
        <ele>1807.0</ele>
        <time>2017-07-22T16:52:15Z</time>
      </trkpt>
      <trkpt lat="44.1518630" lon="7.5674530">
        <ele>1807.2</ele>
        <time>2017-07-22T16:52:19Z</time>
      </trkpt>
      <trkpt lat="44.1519820" lon="7.5673970">
        <ele>1807.6</ele>
        <time>2017-07-22T16:52:21Z</time>
      </trkpt>
      <trkpt lat="44.1522900" lon="7.5672790">
        <ele>1807.8</ele>
        <time>2017-07-22T16:52:26Z</time>
      </trkpt>
      <trkpt lat="44.1525390" lon="7.5671300">
        <ele>1807.6</ele>
        <time>2017-07-22T16:52:31Z</time>
      </trkpt>
      <trkpt lat="44.1525820" lon="7.5671090">
        <ele>1807.2</ele>
        <time>2017-07-22T16:52:32Z</time>
      </trkpt>
      <trkpt lat="44.1526710" lon="7.5671250">
        <ele>1807.0</ele>
        <time>2017-07-22T16:52:34Z</time>
      </trkpt>
      <trkpt lat="44.1528000" lon="7.5672800">
        <ele>1806.8</ele>
        <time>2017-07-22T16:52:37Z</time>
      </trkpt>
      <trkpt lat="44.1528810" lon="7.5675340">
        <ele>1806.6</ele>
        <time>2017-07-22T16:52:40Z</time>
      </trkpt>
      <trkpt lat="44.1528920" lon="7.5676300">
        <ele>1806.4</ele>
        <time>2017-07-22T16:52:41Z</time>
      </trkpt>
      <trkpt lat="44.1528840" lon="7.5677300">
        <ele>1806.4</ele>
        <time>2017-07-22T16:52:42Z</time>
      </trkpt>
      <trkpt lat="44.1528480" lon="7.5679250">
        <ele>1805.8</ele>
        <time>2017-07-22T16:52:44Z</time>
      </trkpt>
      <trkpt lat="44.1527060" lon="7.5685400">
        <ele>1806.6</ele>
        <time>2017-07-22T16:52:50Z</time>
      </trkpt>
      <trkpt lat="44.1524680" lon="7.5691050">
        <ele>1806.8</ele>
        <time>2017-07-22T16:52:56Z</time>
      </trkpt>
      <trkpt lat="44.1522780" lon="7.5694270">
        <ele>1806.6</ele>
        <time>2017-07-22T16:53:00Z</time>
      </trkpt>
      <trkpt lat="44.1522330" lon="7.5697470">
        <ele>1806.2</ele>
        <time>2017-07-22T16:53:03Z</time>
      </trkpt>
      <trkpt lat="44.1521870" lon="7.5699600">
        <ele>1806.2</ele>
        <time>2017-07-22T16:53:05Z</time>
      </trkpt>
      <trkpt lat="44.1520960" lon="7.5702650">
        <ele>1805.8</ele>
        <time>2017-07-22T16:53:08Z</time>
      </trkpt>
      <trkpt lat="44.1518770" lon="7.5708620">
        <ele>1805.4</ele>
        <time>2017-07-22T16:53:14Z</time>
      </trkpt>
      <trkpt lat="44.1517770" lon="7.5711640">
        <ele>1805.2</ele>
        <time>2017-07-22T16:53:17Z</time>
      </trkpt>
      <trkpt lat="44.1516090" lon="7.5716520">
        <ele>1805.0</ele>
        <time>2017-07-22T16:53:22Z</time>
      </trkpt>
      <trkpt lat="44.1515780" lon="7.5717560">
        <ele>1804.8</ele>
        <time>2017-07-22T16:53:23Z</time>
      </trkpt>
      <trkpt lat="44.1515070" lon="7.5720900">
        <ele>1804.0</ele>
        <time>2017-07-22T16:53:26Z</time>
      </trkpt>
      <trkpt lat="44.1515070" lon="7.5722080">
        <ele>1803.8</ele>
        <time>2017-07-22T16:53:27Z</time>
      </trkpt>
      <trkpt lat="44.1515980" lon="7.5725290">
        <ele>1803.0</ele>
        <time>2017-07-22T16:53:30Z</time>
      </trkpt>
      <trkpt lat="44.1516470" lon="7.5726130">
        <ele>1802.8</ele>
        <time>2017-07-22T16:53:31Z</time>
      </trkpt>
      <trkpt lat="44.1517670" lon="7.5727460">
        <ele>1802.6</ele>
        <time>2017-07-22T16:53:33Z</time>
      </trkpt>
      <trkpt lat="44.1519450" lon="7.5729500">
        <ele>1801.6</ele>
        <time>2017-07-22T16:53:36Z</time>
      </trkpt>
      <trkpt lat="44.1521300" lon="7.5731580">
        <ele>1800.2</ele>
        <time>2017-07-22T16:53:39Z</time>
      </trkpt>
      <trkpt lat="44.1521940" lon="7.5732220">
        <ele>1799.8</ele>
        <time>2017-07-22T16:53:40Z</time>
      </trkpt>
      <trkpt lat="44.1523220" lon="7.5733460">
        <ele>1799.4</ele>
        <time>2017-07-22T16:53:42Z</time>
      </trkpt>
      <trkpt lat="44.1523780" lon="7.5734150">
        <ele>1799.0</ele>
        <time>2017-07-22T16:53:43Z</time>
      </trkpt>
      <trkpt lat="44.1524790" lon="7.5735560">
        <ele>1798.4</ele>
        <time>2017-07-22T16:53:45Z</time>
      </trkpt>
      <trkpt lat="44.1525300" lon="7.5736220">
        <ele>1798.0</ele>
        <time>2017-07-22T16:53:46Z</time>
      </trkpt>
      <trkpt lat="44.1526390" lon="7.5737450">
        <ele>1797.6</ele>
        <time>2017-07-22T16:53:48Z</time>
      </trkpt>
      <trkpt lat="44.1528120" lon="7.5739120">
        <ele>1797.2</ele>
        <time>2017-07-22T16:53:51Z</time>
      </trkpt>
      <trkpt lat="44.1528690" lon="7.5739690">
        <ele>1797.0</ele>
        <time>2017-07-22T16:53:52Z</time>
      </trkpt>
      <trkpt lat="44.1529230" lon="7.5740290">
        <ele>1797.0</ele>
        <time>2017-07-22T16:53:53Z</time>
      </trkpt>
      <trkpt lat="44.1530790" lon="7.5742200">
        <ele>1796.4</ele>
        <time>2017-07-22T16:53:56Z</time>
      </trkpt>
      <trkpt lat="44.1532370" lon="7.5744060">
        <ele>1795.8</ele>
        <time>2017-07-22T16:53:59Z</time>
      </trkpt>
      <trkpt lat="44.1532880" lon="7.5744700">
        <ele>1795.6</ele>
        <time>2017-07-22T16:54:00Z</time>
      </trkpt>
      <trkpt lat="44.1533790" lon="7.5746050">
        <ele>1795.8</ele>
        <time>2017-07-22T16:54:02Z</time>
      </trkpt>
      <trkpt lat="44.1534200" lon="7.5746730">
        <ele>1796.0</ele>
        <time>2017-07-22T16:54:03Z</time>
      </trkpt>
      <trkpt lat="44.1535100" lon="7.5749050">
        <ele>1796.2</ele>
        <time>2017-07-22T16:54:06Z</time>
      </trkpt>
      <trkpt lat="44.1537450" lon="7.5756060">
        <ele>1796.2</ele>
        <time>2017-07-22T16:54:15Z</time>
      </trkpt>
      <trkpt lat="44.1537700" lon="7.5756850">
        <ele>1796.2</ele>
        <time>2017-07-22T16:54:16Z</time>
      </trkpt>
      <trkpt lat="44.1538070" lon="7.5758450">
        <ele>1796.6</ele>
        <time>2017-07-22T16:54:18Z</time>
      </trkpt>
      <trkpt lat="44.1538090" lon="7.5760100">
        <ele>1796.6</ele>
        <time>2017-07-22T16:54:20Z</time>
      </trkpt>
      <trkpt lat="44.1537590" lon="7.5762620">
        <ele>1796.8</ele>
        <time>2017-07-22T16:54:23Z</time>
      </trkpt>
      <trkpt lat="44.1536990" lon="7.5764260">
        <ele>1797.6</ele>
        <time>2017-07-22T16:54:25Z</time>
      </trkpt>
      <trkpt lat="44.1535880" lon="7.5765580">
        <ele>1798.0</ele>
        <time>2017-07-22T16:54:27Z</time>
      </trkpt>
      <trkpt lat="44.1535310" lon="7.5766330">
        <ele>1798.0</ele>
        <time>2017-07-22T16:54:28Z</time>
      </trkpt>
      <trkpt lat="44.1533740" lon="7.5769000">
        <ele>1798.6</ele>
        <time>2017-07-22T16:54:31Z</time>
      </trkpt>
      <trkpt lat="44.1533120" lon="7.5769810">
        <ele>1798.6</ele>
        <time>2017-07-22T16:54:32Z</time>
      </trkpt>
      <trkpt lat="44.1529690" lon="7.5773490">
        <ele>1799.2</ele>
        <time>2017-07-22T16:54:37Z</time>
      </trkpt>
      <trkpt lat="44.1529020" lon="7.5774270">
        <ele>1799.2</ele>
        <time>2017-07-22T16:54:38Z</time>
      </trkpt>
      <trkpt lat="44.1526880" lon="7.5777860">
        <ele>1799.4</ele>
        <time>2017-07-22T16:54:42Z</time>
      </trkpt>
      <trkpt lat="44.1525240" lon="7.5782140">
        <ele>1799.4</ele>
        <time>2017-07-22T16:54:46Z</time>
      </trkpt>
      <trkpt lat="44.1523880" lon="7.5787430">
        <ele>1798.8</ele>
        <time>2017-07-22T16:54:51Z</time>
      </trkpt>
      <trkpt lat="44.1523520" lon="7.5790170">
        <ele>1798.6</ele>
        <time>2017-07-22T16:54:54Z</time>
      </trkpt>
      <trkpt lat="44.1523510" lon="7.5790970">
        <ele>1798.6</ele>
        <time>2017-07-22T16:54:55Z</time>
      </trkpt>
      <trkpt lat="44.1523650" lon="7.5792970">
        <ele>1799.0</ele>
        <time>2017-07-22T16:54:58Z</time>
      </trkpt>
      <trkpt lat="44.1523680" lon="7.5793590">
        <ele>1799.2</ele>
        <time>2017-07-22T16:54:59Z</time>
      </trkpt>
      <trkpt lat="44.1523760" lon="7.5794200">
        <ele>1799.2</ele>
        <time>2017-07-22T16:55:00Z</time>
      </trkpt>
      <trkpt lat="44.1524220" lon="7.5796430">
        <ele>1799.4</ele>
        <time>2017-07-22T16:55:04Z</time>
      </trkpt>
      <trkpt lat="44.1524260" lon="7.5797000">
        <ele>1799.4</ele>
        <time>2017-07-22T16:55:05Z</time>
      </trkpt>
      <trkpt lat="44.1524150" lon="7.5798650">
        <ele>1799.6</ele>
        <time>2017-07-22T16:55:08Z</time>
      </trkpt>
      <trkpt lat="44.1524220" lon="7.5799710">
        <ele>1799.8</ele>
        <time>2017-07-22T16:55:10Z</time>
      </trkpt>
      <trkpt lat="44.1524360" lon="7.5800700">
        <ele>1800.6</ele>
        <time>2017-07-22T16:55:12Z</time>
      </trkpt>
      <trkpt lat="44.1524680" lon="7.5801590">
        <ele>1801.0</ele>
        <time>2017-07-22T16:55:14Z</time>
      </trkpt>
      <trkpt lat="44.1525200" lon="7.5803480">
        <ele>1801.6</ele>
        <time>2017-07-22T16:55:18Z</time>
      </trkpt>
      <trkpt lat="44.1525350" lon="7.5804420">
        <ele>1801.8</ele>
        <time>2017-07-22T16:55:20Z</time>
      </trkpt>
      <trkpt lat="44.1526150" lon="7.5807210">
        <ele>1802.6</ele>
        <time>2017-07-22T16:55:26Z</time>
      </trkpt>
      <trkpt lat="44.1526380" lon="7.5807660">
        <ele>1802.8</ele>
        <time>2017-07-22T16:55:27Z</time>
      </trkpt>
      <trkpt lat="44.1526980" lon="7.5809050">
        <ele>1801.6</ele>
        <time>2017-07-22T16:55:30Z</time>
      </trkpt>
      <trkpt lat="44.1527340" lon="7.5809920">
        <ele>1799.6</ele>
        <time>2017-07-22T16:55:32Z</time>
      </trkpt>
      <trkpt lat="44.1527570" lon="7.5810290">
        <ele>1800.8</ele>
        <time>2017-07-22T16:55:33Z</time>
      </trkpt>
      <trkpt lat="44.1527820" lon="7.5810660">
        <ele>1800.0</ele>
        <time>2017-07-22T16:55:34Z</time>
      </trkpt>
      <trkpt lat="44.1528080" lon="7.5811080">
        <ele>1800.4</ele>
        <time>2017-07-22T16:55:35Z</time>
      </trkpt>
      <trkpt lat="44.1528290" lon="7.5811530">
        <ele>1799.6</ele>
        <time>2017-07-22T16:55:36Z</time>
      </trkpt>
      <trkpt lat="44.1528490" lon="7.5811870">
        <ele>1801.0</ele>
        <time>2017-07-22T16:55:37Z</time>
      </trkpt>
      <trkpt lat="44.1528700" lon="7.5812190">
        <ele>1801.6</ele>
        <time>2017-07-22T16:55:38Z</time>
      </trkpt>
      <trkpt lat="44.1528910" lon="7.5812540">
        <ele>1802.6</ele>
        <time>2017-07-22T16:55:39Z</time>
      </trkpt>
      <trkpt lat="44.1529140" lon="7.5812880">
        <ele>1802.4</ele>
        <time>2017-07-22T16:55:40Z</time>
      </trkpt>
      <trkpt lat="44.1530150" lon="7.5813900">
        <ele>1802.6</ele>
        <time>2017-07-22T16:55:44Z</time>
      </trkpt>
      <trkpt lat="44.1530810" lon="7.5815860">
        <ele>1803.0</ele>
        <time>2017-07-22T16:55:49Z</time>
      </trkpt>
      <trkpt lat="44.1531110" lon="7.5818000">
        <ele>1803.6</ele>
        <time>2017-07-22T16:55:54Z</time>
      </trkpt>
      <trkpt lat="44.1531220" lon="7.5818410">
        <ele>1804.0</ele>
        <time>2017-07-22T16:55:55Z</time>
      </trkpt>
      <trkpt lat="44.1531630" lon="7.5819630">
        <ele>1804.8</ele>
        <time>2017-07-22T16:55:58Z</time>
      </trkpt>
      <trkpt lat="44.1532220" lon="7.5821230">
        <ele>1805.4</ele>
        <time>2017-07-22T16:56:02Z</time>
      </trkpt>
      <trkpt lat="44.1532510" lon="7.5822020">
        <ele>1806.0</ele>
        <time>2017-07-22T16:56:04Z</time>
      </trkpt>
      <trkpt lat="44.1533140" lon="7.5823530">
        <ele>1806.6</ele>
        <time>2017-07-22T16:56:08Z</time>
      </trkpt>
      <trkpt lat="44.1533450" lon="7.5824300">
        <ele>1807.0</ele>
        <time>2017-07-22T16:56:10Z</time>
      </trkpt>
      <trkpt lat="44.1533830" lon="7.5825480">
        <ele>1808.0</ele>
        <time>2017-07-22T16:56:13Z</time>
      </trkpt>
      <trkpt lat="44.1533870" lon="7.5825910">
        <ele>1808.4</ele>
        <time>2017-07-22T16:56:14Z</time>
      </trkpt>
      <trkpt lat="44.1533560" lon="7.5827090">
        <ele>1809.2</ele>
        <time>2017-07-22T16:56:17Z</time>
      </trkpt>
      <trkpt lat="44.1533400" lon="7.5827450">
        <ele>1809.4</ele>
        <time>2017-07-22T16:56:18Z</time>
      </trkpt>
      <trkpt lat="44.1532840" lon="7.5828470">
        <ele>1810.2</ele>
        <time>2017-07-22T16:56:21Z</time>
      </trkpt>
      <trkpt lat="44.1532200" lon="7.5829360">
        <ele>1811.0</ele>
        <time>2017-07-22T16:56:24Z</time>
      </trkpt>
      <trkpt lat="44.1532010" lon="7.5829710">
        <ele>1811.4</ele>
        <time>2017-07-22T16:56:25Z</time>
      </trkpt>
      <trkpt lat="44.1531340" lon="7.5831720">
        <ele>1812.4</ele>
        <time>2017-07-22T16:56:30Z</time>
      </trkpt>
      <trkpt lat="44.1531240" lon="7.5832150">
        <ele>1812.6</ele>
        <time>2017-07-22T16:56:31Z</time>
      </trkpt>
      <trkpt lat="44.1530970" lon="7.5833390">
        <ele>1813.6</ele>
        <time>2017-07-22T16:56:34Z</time>
      </trkpt>
      <trkpt lat="44.1530550" lon="7.5835060">
        <ele>1814.8</ele>
        <time>2017-07-22T16:56:38Z</time>
      </trkpt>
      <trkpt lat="44.1530180" lon="7.5836370">
        <ele>1813.6</ele>
        <time>2017-07-22T16:56:41Z</time>
      </trkpt>
      <trkpt lat="44.1529970" lon="7.5837780">
        <ele>1814.0</ele>
        <time>2017-07-22T16:56:44Z</time>
      </trkpt>
      <trkpt lat="44.1529960" lon="7.5838260">
        <ele>1816.0</ele>
        <time>2017-07-22T16:56:45Z</time>
      </trkpt>
      <trkpt lat="44.1529860" lon="7.5841040">
        <ele>1816.8</ele>
        <time>2017-07-22T16:56:51Z</time>
      </trkpt>
      <trkpt lat="44.1529720" lon="7.5841950">
        <ele>1817.2</ele>
        <time>2017-07-22T16:56:53Z</time>
      </trkpt>
      <trkpt lat="44.1529500" lon="7.5843680">
        <ele>1817.6</ele>
        <time>2017-07-22T16:56:57Z</time>
      </trkpt>
      <trkpt lat="44.1529230" lon="7.5845920">
        <ele>1818.6</ele>
        <time>2017-07-22T16:57:02Z</time>
      </trkpt>
      <trkpt lat="44.1529340" lon="7.5846870">
        <ele>1819.2</ele>
        <time>2017-07-22T16:57:04Z</time>
      </trkpt>
      <trkpt lat="44.1529560" lon="7.5847810">
        <ele>1819.8</ele>
        <time>2017-07-22T16:57:06Z</time>
      </trkpt>
      <trkpt lat="44.1529980" lon="7.5849630">
        <ele>1820.8</ele>
        <time>2017-07-22T16:57:10Z</time>
      </trkpt>
      <trkpt lat="44.1530080" lon="7.5850080">
        <ele>1821.0</ele>
        <time>2017-07-22T16:57:11Z</time>
      </trkpt>
      <trkpt lat="44.1530990" lon="7.5852600">
        <ele>1822.0</ele>
        <time>2017-07-22T16:57:17Z</time>
      </trkpt>
      <trkpt lat="44.1531160" lon="7.5853030">
        <ele>1822.4</ele>
        <time>2017-07-22T16:57:18Z</time>
      </trkpt>
      <trkpt lat="44.1531560" lon="7.5854400">
        <ele>1823.2</ele>
        <time>2017-07-22T16:57:21Z</time>
      </trkpt>
      <trkpt lat="44.1532080" lon="7.5856650">
        <ele>1824.2</ele>
        <time>2017-07-22T16:57:26Z</time>
      </trkpt>
      <trkpt lat="44.1532950" lon="7.5860200">
        <ele>1825.2</ele>
        <time>2017-07-22T16:57:34Z</time>
      </trkpt>
      <trkpt lat="44.1533080" lon="7.5860640">
        <ele>1825.4</ele>
        <time>2017-07-22T16:57:35Z</time>
      </trkpt>
      <trkpt lat="44.1533860" lon="7.5863170">
        <ele>1825.8</ele>
        <time>2017-07-22T16:57:41Z</time>
      </trkpt>
      <trkpt lat="44.1535070" lon="7.5866510">
        <ele>1826.0</ele>
        <time>2017-07-22T16:57:49Z</time>
      </trkpt>
      <trkpt lat="44.1535430" lon="7.5867890">
        <ele>1826.4</ele>
        <time>2017-07-22T16:57:52Z</time>
      </trkpt>
      <trkpt lat="44.1535900" lon="7.5870810">
        <ele>1827.2</ele>
        <time>2017-07-22T16:57:58Z</time>
      </trkpt>
      <trkpt lat="44.1536060" lon="7.5871840">
        <ele>1827.6</ele>
        <time>2017-07-22T16:58:00Z</time>
      </trkpt>
      <trkpt lat="44.1537040" lon="7.5875180">
        <ele>1828.6</ele>
        <time>2017-07-22T16:58:07Z</time>
      </trkpt>
      <trkpt lat="44.1537920" lon="7.5878050">
        <ele>1829.6</ele>
        <time>2017-07-22T16:58:13Z</time>
      </trkpt>
      <trkpt lat="44.1537980" lon="7.5878570">
        <ele>1829.8</ele>
        <time>2017-07-22T16:58:14Z</time>
      </trkpt>
      <trkpt lat="44.1538380" lon="7.5881010">
        <ele>1830.8</ele>
        <time>2017-07-22T16:58:19Z</time>
      </trkpt>
      <trkpt lat="44.1538410" lon="7.5881520">
        <ele>1831.2</ele>
        <time>2017-07-22T16:58:20Z</time>
      </trkpt>
      <trkpt lat="44.1539040" lon="7.5884090">
        <ele>1832.2</ele>
        <time>2017-07-22T16:58:25Z</time>
      </trkpt>
      <trkpt lat="44.1540000" lon="7.5886450">
        <ele>1833.2</ele>
        <time>2017-07-22T16:58:30Z</time>
      </trkpt>
      <trkpt lat="44.1540210" lon="7.5889750">
        <ele>1834.2</ele>
        <time>2017-07-22T16:58:36Z</time>
      </trkpt>
      <trkpt lat="44.1540200" lon="7.5890370">
        <ele>1834.4</ele>
        <time>2017-07-22T16:58:37Z</time>
      </trkpt>
      <trkpt lat="44.1540460" lon="7.5892620">
        <ele>1834.8</ele>
        <time>2017-07-22T16:58:40Z</time>
      </trkpt>
      <trkpt lat="44.1540630" lon="7.5893470">
        <ele>1835.0</ele>
        <time>2017-07-22T16:58:41Z</time>
      </trkpt>
      <trkpt lat="44.1541630" lon="7.5897400">
        <ele>1835.0</ele>
        <time>2017-07-22T16:58:45Z</time>
      </trkpt>
      <trkpt lat="44.1541980" lon="7.5899300">
        <ele>1835.0</ele>
        <time>2017-07-22T16:58:47Z</time>
      </trkpt>
      <trkpt lat="44.1541850" lon="7.5900270">
        <ele>1835.0</ele>
        <time>2017-07-22T16:58:48Z</time>
      </trkpt>
      <trkpt lat="44.1542150" lon="7.5903070">
        <ele>1833.6</ele>
        <time>2017-07-22T16:58:51Z</time>
      </trkpt>
      <trkpt lat="44.1542740" lon="7.5905030">
        <ele>1833.0</ele>
        <time>2017-07-22T16:58:53Z</time>
      </trkpt>
      <trkpt lat="44.1542750" lon="7.5906150">
        <ele>1832.8</ele>
        <time>2017-07-22T16:58:54Z</time>
      </trkpt>
      <trkpt lat="44.1543480" lon="7.5909130">
        <ele>1831.8</ele>
        <time>2017-07-22T16:58:57Z</time>
      </trkpt>
      <trkpt lat="44.1545670" lon="7.5911010">
        <ele>1831.0</ele>
        <time>2017-07-22T16:59:00Z</time>
      </trkpt>
      <trkpt lat="44.1546480" lon="7.5911690">
        <ele>1830.8</ele>
        <time>2017-07-22T16:59:01Z</time>
      </trkpt>
      <trkpt lat="44.1547220" lon="7.5912520">
        <ele>1829.6</ele>
        <time>2017-07-22T16:59:02Z</time>
      </trkpt>
      <trkpt lat="44.1547860" lon="7.5913470">
        <ele>1829.2</ele>
        <time>2017-07-22T16:59:03Z</time>
      </trkpt>
      <trkpt lat="44.1548750" lon="7.5915610">
        <ele>1828.4</ele>
        <time>2017-07-22T16:59:05Z</time>
      </trkpt>
      <trkpt lat="44.1549060" lon="7.5916690">
        <ele>1828.0</ele>
        <time>2017-07-22T16:59:06Z</time>
      </trkpt>
      <trkpt lat="44.1549430" lon="7.5917660">
        <ele>1827.4</ele>
        <time>2017-07-22T16:59:07Z</time>
      </trkpt>
      <trkpt lat="44.1550370" lon="7.5919030">
        <ele>1827.2</ele>
        <time>2017-07-22T16:59:09Z</time>
      </trkpt>
      <trkpt lat="44.1551480" lon="7.5919290">
        <ele>1826.2</ele>
        <time>2017-07-22T16:59:11Z</time>
      </trkpt>
      <trkpt lat="44.1552000" lon="7.5919190">
        <ele>1825.8</ele>
        <time>2017-07-22T16:59:12Z</time>
      </trkpt>
      <trkpt lat="44.1553340" lon="7.5918530">
        <ele>1825.2</ele>
        <time>2017-07-22T16:59:15Z</time>
      </trkpt>
      <trkpt lat="44.1553730" lon="7.5918300">
        <ele>1825.0</ele>
        <time>2017-07-22T16:59:16Z</time>
      </trkpt>
      <trkpt lat="44.1555650" lon="7.5917890">
        <ele>1824.8</ele>
        <time>2017-07-22T16:59:21Z</time>
      </trkpt>
      <trkpt lat="44.1557040" lon="7.5918960">
        <ele>1825.0</ele>
        <time>2017-07-22T16:59:26Z</time>
      </trkpt>
      <trkpt lat="44.1558080" lon="7.5919700">
        <ele>1825.8</ele>
        <time>2017-07-22T16:59:30Z</time>
      </trkpt>
      <trkpt lat="44.1558670" lon="7.5919790">
        <ele>1825.8</ele>
        <time>2017-07-22T16:59:32Z</time>
      </trkpt>
      <trkpt lat="44.1559590" lon="7.5919610">
        <ele>1826.0</ele>
        <time>2017-07-22T16:59:35Z</time>
      </trkpt>
      <trkpt lat="44.1560090" lon="7.5919680">
        <ele>1826.6</ele>
        <time>2017-07-22T16:59:37Z</time>
      </trkpt>
      <trkpt lat="44.1560560" lon="7.5919840">
        <ele>1827.2</ele>
        <time>2017-07-22T16:59:39Z</time>
      </trkpt>
      <trkpt lat="44.1561580" lon="7.5920080">
        <ele>1827.8</ele>
        <time>2017-07-22T16:59:43Z</time>
      </trkpt>
      <trkpt lat="44.1561820" lon="7.5920090">
        <ele>1828.2</ele>
        <time>2017-07-22T16:59:44Z</time>
      </trkpt>
      <trkpt lat="44.1562780" lon="7.5920260">
        <ele>1829.4</ele>
        <time>2017-07-22T16:59:48Z</time>
      </trkpt>
      <trkpt lat="44.1563300" lon="7.5920330">
        <ele>1830.4</ele>
        <time>2017-07-22T16:59:50Z</time>
      </trkpt>
      <trkpt lat="44.1563550" lon="7.5920320">
        <ele>1830.4</ele>
        <time>2017-07-22T16:59:51Z</time>
      </trkpt>
      <trkpt lat="44.1564240" lon="7.5920140">
        <ele>1831.4</ele>
        <time>2017-07-22T16:59:54Z</time>
      </trkpt>
      <trkpt lat="44.1564430" lon="7.5919970">
        <ele>1831.4</ele>
        <time>2017-07-22T16:59:55Z</time>
      </trkpt>
      <trkpt lat="44.1564590" lon="7.5919740">
        <ele>1831.6</ele>
        <time>2017-07-22T16:59:56Z</time>
      </trkpt>
      <trkpt lat="44.1565080" lon="7.5919070">
        <ele>1832.4</ele>
        <time>2017-07-22T16:59:59Z</time>
      </trkpt>
      <trkpt lat="44.1565290" lon="7.5918890">
        <ele>1832.6</ele>
        <time>2017-07-22T17:00:00Z</time>
      </trkpt>
      <trkpt lat="44.1565960" lon="7.5918490">
        <ele>1833.4</ele>
        <time>2017-07-22T17:00:03Z</time>
      </trkpt>
      <trkpt lat="44.1566400" lon="7.5918240">
        <ele>1833.8</ele>
        <time>2017-07-22T17:00:05Z</time>
      </trkpt>
      <trkpt lat="44.1566590" lon="7.5918020">
        <ele>1834.0</ele>
        <time>2017-07-22T17:00:06Z</time>
      </trkpt>
      <trkpt lat="44.1567620" lon="7.5917080">
        <ele>1834.8</ele>
        <time>2017-07-22T17:00:11Z</time>
      </trkpt>
      <trkpt lat="44.1568070" lon="7.5916760">
        <ele>1835.2</ele>
        <time>2017-07-22T17:00:13Z</time>
      </trkpt>
      <trkpt lat="44.1568560" lon="7.5916490">
        <ele>1836.2</ele>
        <time>2017-07-22T17:00:15Z</time>
      </trkpt>
      <trkpt lat="44.1569550" lon="7.5916000">
        <ele>1837.2</ele>
        <time>2017-07-22T17:00:19Z</time>
      </trkpt>
      <trkpt lat="44.1570060" lon="7.5915820">
        <ele>1837.6</ele>
        <time>2017-07-22T17:00:21Z</time>
      </trkpt>
      <trkpt lat="44.1570620" lon="7.5915760">
        <ele>1838.4</ele>
        <time>2017-07-22T17:00:23Z</time>
      </trkpt>
      <trkpt lat="44.1571670" lon="7.5915770">
        <ele>1839.2</ele>
        <time>2017-07-22T17:00:27Z</time>
      </trkpt>
      <trkpt lat="44.1572200" lon="7.5915940">
        <ele>1839.6</ele>
        <time>2017-07-22T17:00:29Z</time>
      </trkpt>
      <trkpt lat="44.1572460" lon="7.5915930">
        <ele>1839.8</ele>
        <time>2017-07-22T17:00:30Z</time>
      </trkpt>
      <trkpt lat="44.1573030" lon="7.5915890">
        <ele>1840.2</ele>
        <time>2017-07-22T17:00:32Z</time>
      </trkpt>
      <trkpt lat="44.1573820" lon="7.5915710">
        <ele>1840.8</ele>
        <time>2017-07-22T17:00:35Z</time>
      </trkpt>
      <trkpt lat="44.1574810" lon="7.5915260">
        <ele>1841.2</ele>
        <time>2017-07-22T17:00:39Z</time>
      </trkpt>
      <trkpt lat="44.1576020" lon="7.5914470">
        <ele>1841.8</ele>
        <time>2017-07-22T17:00:44Z</time>
      </trkpt>
      <trkpt lat="44.1576470" lon="7.5914050">
        <ele>1842.0</ele>
        <time>2017-07-22T17:00:46Z</time>
      </trkpt>
      <trkpt lat="44.1577630" lon="7.5913360">
        <ele>1843.0</ele>
        <time>2017-07-22T17:00:51Z</time>
      </trkpt>
      <trkpt lat="44.1577920" lon="7.5913290">
        <ele>1843.0</ele>
        <time>2017-07-22T17:00:52Z</time>
      </trkpt>
      <trkpt lat="44.1579130" lon="7.5912420">
        <ele>1844.0</ele>
        <time>2017-07-22T17:00:57Z</time>
      </trkpt>
      <trkpt lat="44.1579320" lon="7.5912220">
        <ele>1844.2</ele>
        <time>2017-07-22T17:00:58Z</time>
      </trkpt>
      <trkpt lat="44.1580260" lon="7.5911420">
        <ele>1845.0</ele>
        <time>2017-07-22T17:01:02Z</time>
      </trkpt>
      <trkpt lat="44.1581090" lon="7.5910940">
        <ele>1845.8</ele>
        <time>2017-07-22T17:01:05Z</time>
      </trkpt>
      <trkpt lat="44.1581380" lon="7.5910850">
        <ele>1846.2</ele>
        <time>2017-07-22T17:01:06Z</time>
      </trkpt>
      <trkpt lat="44.1582830" lon="7.5910570">
        <ele>1847.4</ele>
        <time>2017-07-22T17:01:11Z</time>
      </trkpt>
      <trkpt lat="44.1583650" lon="7.5910440">
        <ele>1848.4</ele>
        <time>2017-07-22T17:01:14Z</time>
      </trkpt>
      <trkpt lat="44.1584750" lon="7.5910250">
        <ele>1849.4</ele>
        <time>2017-07-22T17:01:18Z</time>
      </trkpt>
      <trkpt lat="44.1585590" lon="7.5910210">
        <ele>1850.4</ele>
        <time>2017-07-22T17:01:21Z</time>
      </trkpt>
      <trkpt lat="44.1585850" lon="7.5910180">
        <ele>1850.8</ele>
        <time>2017-07-22T17:01:22Z</time>
      </trkpt>
      <trkpt lat="44.1586970" lon="7.5909990">
        <ele>1852.2</ele>
        <time>2017-07-22T17:01:26Z</time>
      </trkpt>
      <trkpt lat="44.1587480" lon="7.5910080">
        <ele>1852.6</ele>
        <time>2017-07-22T17:01:28Z</time>
      </trkpt>
      <trkpt lat="44.1587740" lon="7.5909990">
        <ele>1852.8</ele>
        <time>2017-07-22T17:01:29Z</time>
      </trkpt>
      <trkpt lat="44.1588260" lon="7.5909720">
        <ele>1853.6</ele>
        <time>2017-07-22T17:01:31Z</time>
      </trkpt>
      <trkpt lat="44.1588770" lon="7.5909410">
        <ele>1854.2</ele>
        <time>2017-07-22T17:01:33Z</time>
      </trkpt>
      <trkpt lat="44.1589280" lon="7.5909060">
        <ele>1854.6</ele>
        <time>2017-07-22T17:01:35Z</time>
      </trkpt>
      <trkpt lat="44.1590290" lon="7.5908370">
        <ele>1855.8</ele>
        <time>2017-07-22T17:01:39Z</time>
      </trkpt>
      <trkpt lat="44.1591190" lon="7.5907520">
        <ele>1856.8</ele>
        <time>2017-07-22T17:01:43Z</time>
      </trkpt>
      <trkpt lat="44.1592060" lon="7.5906620">
        <ele>1858.0</ele>
        <time>2017-07-22T17:01:47Z</time>
      </trkpt>
      <trkpt lat="44.1592850" lon="7.5905500">
        <ele>1859.2</ele>
        <time>2017-07-22T17:01:51Z</time>
      </trkpt>
      <trkpt lat="44.1593240" lon="7.5904980">
        <ele>1860.0</ele>
        <time>2017-07-22T17:01:53Z</time>
      </trkpt>
      <trkpt lat="44.1593450" lon="7.5904750">
        <ele>1860.2</ele>
        <time>2017-07-22T17:01:54Z</time>
      </trkpt>
      <trkpt lat="44.1594180" lon="7.5904100">
        <ele>1861.6</ele>
        <time>2017-07-22T17:01:57Z</time>
      </trkpt>
      <trkpt lat="44.1594750" lon="7.5904070">
        <ele>1863.0</ele>
        <time>2017-07-22T17:01:59Z</time>
      </trkpt>
      <trkpt lat="44.1595320" lon="7.5904430">
        <ele>1864.6</ele>
        <time>2017-07-22T17:02:01Z</time>
      </trkpt>
      <trkpt lat="44.1596110" lon="7.5905050">
        <ele>1865.8</ele>
        <time>2017-07-22T17:02:04Z</time>
      </trkpt>
      <trkpt lat="44.1596330" lon="7.5905230">
        <ele>1866.4</ele>
        <time>2017-07-22T17:02:05Z</time>
      </trkpt>
      <trkpt lat="44.1596780" lon="7.5905590">
        <ele>1867.2</ele>
        <time>2017-07-22T17:02:07Z</time>
      </trkpt>
      <trkpt lat="44.1597730" lon="7.5906440">
        <ele>1868.4</ele>
        <time>2017-07-22T17:02:11Z</time>
      </trkpt>
      <trkpt lat="44.1597960" lon="7.5906710">
        <ele>1868.8</ele>
        <time>2017-07-22T17:02:12Z</time>
      </trkpt>
      <trkpt lat="44.1598350" lon="7.5907250">
        <ele>1870.0</ele>
        <time>2017-07-22T17:02:14Z</time>
      </trkpt>
      <trkpt lat="44.1598550" lon="7.5908180">
        <ele>1870.8</ele>
        <time>2017-07-22T17:02:17Z</time>
      </trkpt>
      <trkpt lat="44.1598500" lon="7.5908500">
        <ele>1871.2</ele>
        <time>2017-07-22T17:02:18Z</time>
      </trkpt>
      <trkpt lat="44.1598010" lon="7.5909320">
        <ele>1872.2</ele>
        <time>2017-07-22T17:02:21Z</time>
      </trkpt>
      <trkpt lat="44.1597350" lon="7.5910130">
        <ele>1873.4</ele>
        <time>2017-07-22T17:02:24Z</time>
      </trkpt>
      <trkpt lat="44.1596730" lon="7.5910770">
        <ele>1874.6</ele>
        <time>2017-07-22T17:02:27Z</time>
      </trkpt>
      <trkpt lat="44.1596100" lon="7.5911130">
        <ele>1875.6</ele>
        <time>2017-07-22T17:02:30Z</time>
      </trkpt>
      <trkpt lat="44.1595390" lon="7.5911350">
        <ele>1876.6</ele>
        <time>2017-07-22T17:02:33Z</time>
      </trkpt>
      <trkpt lat="44.1595160" lon="7.5911430">
        <ele>1877.0</ele>
        <time>2017-07-22T17:02:34Z</time>
      </trkpt>
      <trkpt lat="44.1594530" lon="7.5911760">
        <ele>1878.0</ele>
        <time>2017-07-22T17:02:37Z</time>
      </trkpt>
      <trkpt lat="44.1593810" lon="7.5912050">
        <ele>1879.0</ele>
        <time>2017-07-22T17:02:40Z</time>
      </trkpt>
      <trkpt lat="44.1593540" lon="7.5912180">
        <ele>1879.4</ele>
        <time>2017-07-22T17:02:41Z</time>
      </trkpt>
      <trkpt lat="44.1592080" lon="7.5913450">
        <ele>1880.2</ele>
        <time>2017-07-22T17:02:46Z</time>
      </trkpt>
      <trkpt lat="44.1590280" lon="7.5915710">
        <ele>1879.8</ele>
        <time>2017-07-22T17:02:51Z</time>
      </trkpt>
      <trkpt lat="44.1589460" lon="7.5917100">
        <ele>1879.8</ele>
        <time>2017-07-22T17:02:53Z</time>
      </trkpt>
      <trkpt lat="44.1588750" lon="7.5919160">
        <ele>1879.4</ele>
        <time>2017-07-22T17:02:55Z</time>
      </trkpt>
      <trkpt lat="44.1588590" lon="7.5920400">
        <ele>1879.2</ele>
        <time>2017-07-22T17:02:56Z</time>
      </trkpt>
      <trkpt lat="44.1588520" lon="7.5922940">
        <ele>1878.8</ele>
        <time>2017-07-22T17:02:58Z</time>
      </trkpt>
      <trkpt lat="44.1588610" lon="7.5925550">
        <ele>1877.8</ele>
        <time>2017-07-22T17:03:00Z</time>
      </trkpt>
      <trkpt lat="44.1588790" lon="7.5926880">
        <ele>1877.0</ele>
        <time>2017-07-22T17:03:01Z</time>
      </trkpt>
      <trkpt lat="44.1589040" lon="7.5928160">
        <ele>1875.4</ele>
        <time>2017-07-22T17:03:02Z</time>
      </trkpt>
      <trkpt lat="44.1589660" lon="7.5930050">
        <ele>1874.2</ele>
        <time>2017-07-22T17:03:04Z</time>
      </trkpt>
      <trkpt lat="44.1590090" lon="7.5930520">
        <ele>1873.6</ele>
        <time>2017-07-22T17:03:05Z</time>
      </trkpt>
      <trkpt lat="44.1590590" lon="7.5930680">
        <ele>1873.0</ele>
        <time>2017-07-22T17:03:06Z</time>
      </trkpt>
      <trkpt lat="44.1591590" lon="7.5930300">
        <ele>1871.8</ele>
        <time>2017-07-22T17:03:08Z</time>
      </trkpt>
      <trkpt lat="44.1592130" lon="7.5930000">
        <ele>1870.8</ele>
        <time>2017-07-22T17:03:09Z</time>
      </trkpt>
      <trkpt lat="44.1592740" lon="7.5929680">
        <ele>1870.2</ele>
        <time>2017-07-22T17:03:10Z</time>
      </trkpt>
      <trkpt lat="44.1593440" lon="7.5929480">
        <ele>1869.6</ele>
        <time>2017-07-22T17:03:11Z</time>
      </trkpt>
      <trkpt lat="44.1594230" lon="7.5929380">
        <ele>1869.2</ele>
        <time>2017-07-22T17:03:12Z</time>
      </trkpt>
      <trkpt lat="44.1595020" lon="7.5929310">
        <ele>1868.6</ele>
        <time>2017-07-22T17:03:13Z</time>
      </trkpt>
      <trkpt lat="44.1596460" lon="7.5929110">
        <ele>1866.6</ele>
        <time>2017-07-22T17:03:15Z</time>
      </trkpt>
      <trkpt lat="44.1597080" lon="7.5929010">
        <ele>1865.4</ele>
        <time>2017-07-22T17:03:16Z</time>
      </trkpt>
      <trkpt lat="44.1597680" lon="7.5928750">
        <ele>1864.4</ele>
        <time>2017-07-22T17:03:17Z</time>
      </trkpt>
      <trkpt lat="44.1598230" lon="7.5928270">
        <ele>1863.4</ele>
        <time>2017-07-22T17:03:18Z</time>
      </trkpt>
      <trkpt lat="44.1598680" lon="7.5927530">
        <ele>1862.2</ele>
        <time>2017-07-22T17:03:19Z</time>
      </trkpt>
      <trkpt lat="44.1599060" lon="7.5926640">
        <ele>1861.2</ele>
        <time>2017-07-22T17:03:20Z</time>
      </trkpt>
      <trkpt lat="44.1599570" lon="7.5924700">
        <ele>1859.4</ele>
        <time>2017-07-22T17:03:22Z</time>
      </trkpt>
      <trkpt lat="44.1599790" lon="7.5923700">
        <ele>1858.4</ele>
        <time>2017-07-22T17:03:23Z</time>
      </trkpt>
      <trkpt lat="44.1599990" lon="7.5922640">
        <ele>1857.2</ele>
        <time>2017-07-22T17:03:24Z</time>
      </trkpt>
      <trkpt lat="44.1600230" lon="7.5921610">
        <ele>1855.8</ele>
        <time>2017-07-22T17:03:25Z</time>
      </trkpt>
      <trkpt lat="44.1600500" lon="7.5920650">
        <ele>1853.6</ele>
        <time>2017-07-22T17:03:26Z</time>
      </trkpt>
      <trkpt lat="44.1600820" lon="7.5919770">
        <ele>1852.2</ele>
        <time>2017-07-22T17:03:27Z</time>
      </trkpt>
      <trkpt lat="44.1601200" lon="7.5919020">
        <ele>1850.6</ele>
        <time>2017-07-22T17:03:28Z</time>
      </trkpt>
      <trkpt lat="44.1601670" lon="7.5918430">
        <ele>1849.2</ele>
        <time>2017-07-22T17:03:29Z</time>
      </trkpt>
      <trkpt lat="44.1602230" lon="7.5917990">
        <ele>1847.6</ele>
        <time>2017-07-22T17:03:30Z</time>
      </trkpt>
      <trkpt lat="44.1602860" lon="7.5917700">
        <ele>1846.0</ele>
        <time>2017-07-22T17:03:31Z</time>
      </trkpt>
      <trkpt lat="44.1603460" lon="7.5917530">
        <ele>1844.6</ele>
        <time>2017-07-22T17:03:32Z</time>
      </trkpt>
      <trkpt lat="44.1603940" lon="7.5917520">
        <ele>1843.2</ele>
        <time>2017-07-22T17:03:33Z</time>
      </trkpt>
      <trkpt lat="44.1604340" lon="7.5917620">
        <ele>1841.6</ele>
        <time>2017-07-22T17:03:34Z</time>
      </trkpt>
      <trkpt lat="44.1604670" lon="7.5917740">
        <ele>1840.4</ele>
        <time>2017-07-22T17:03:35Z</time>
      </trkpt>
      <trkpt lat="44.1604950" lon="7.5917920">
        <ele>1839.0</ele>
        <time>2017-07-22T17:03:36Z</time>
      </trkpt>
      <trkpt lat="44.1605200" lon="7.5918200">
        <ele>1838.0</ele>
        <time>2017-07-22T17:03:37Z</time>
      </trkpt>
      <trkpt lat="44.1605470" lon="7.5918700">
        <ele>1836.8</ele>
        <time>2017-07-22T17:03:38Z</time>
      </trkpt>
      <trkpt lat="44.1605800" lon="7.5919180">
        <ele>1835.4</ele>
        <time>2017-07-22T17:03:39Z</time>
      </trkpt>
      <trkpt lat="44.1606180" lon="7.5919530">
        <ele>1834.4</ele>
        <time>2017-07-22T17:03:40Z</time>
      </trkpt>
      <trkpt lat="44.1606720" lon="7.5919840">
        <ele>1833.4</ele>
        <time>2017-07-22T17:03:41Z</time>
      </trkpt>
      <trkpt lat="44.1607360" lon="7.5920170">
        <ele>1832.2</ele>
        <time>2017-07-22T17:03:42Z</time>
      </trkpt>
      <trkpt lat="44.1608730" lon="7.5920780">
        <ele>1830.4</ele>
        <time>2017-07-22T17:03:44Z</time>
      </trkpt>
      <trkpt lat="44.1609450" lon="7.5921050">
        <ele>1829.4</ele>
        <time>2017-07-22T17:03:45Z</time>
      </trkpt>
      <trkpt lat="44.1610160" lon="7.5921280">
        <ele>1828.0</ele>
        <time>2017-07-22T17:03:46Z</time>
      </trkpt>
      <trkpt lat="44.1610830" lon="7.5921390">
        <ele>1826.8</ele>
        <time>2017-07-22T17:03:47Z</time>
      </trkpt>
      <trkpt lat="44.1611470" lon="7.5921390">
        <ele>1825.4</ele>
        <time>2017-07-22T17:03:48Z</time>
      </trkpt>
      <trkpt lat="44.1612090" lon="7.5921320">
        <ele>1824.4</ele>
        <time>2017-07-22T17:03:49Z</time>
      </trkpt>
      <trkpt lat="44.1612740" lon="7.5921160">
        <ele>1822.2</ele>
        <time>2017-07-22T17:03:50Z</time>
      </trkpt>
      <trkpt lat="44.1613320" lon="7.5920750">
        <ele>1820.6</ele>
        <time>2017-07-22T17:03:51Z</time>
      </trkpt>
      <trkpt lat="44.1613790" lon="7.5920130">
        <ele>1819.2</ele>
        <time>2017-07-22T17:03:52Z</time>
      </trkpt>
      <trkpt lat="44.1614320" lon="7.5919420">
        <ele>1817.6</ele>
        <time>2017-07-22T17:03:53Z</time>
      </trkpt>
      <trkpt lat="44.1614990" lon="7.5918790">
        <ele>1816.2</ele>
        <time>2017-07-22T17:03:54Z</time>
      </trkpt>
      <trkpt lat="44.1615740" lon="7.5918210">
        <ele>1814.8</ele>
        <time>2017-07-22T17:03:55Z</time>
      </trkpt>
      <trkpt lat="44.1616470" lon="7.5917690">
        <ele>1813.8</ele>
        <time>2017-07-22T17:03:56Z</time>
      </trkpt>
      <trkpt lat="44.1617160" lon="7.5917260">
        <ele>1812.6</ele>
        <time>2017-07-22T17:03:57Z</time>
      </trkpt>
      <trkpt lat="44.1617850" lon="7.5917010">
        <ele>1811.0</ele>
        <time>2017-07-22T17:03:58Z</time>
      </trkpt>
      <trkpt lat="44.1618540" lon="7.5916970">
        <ele>1809.6</ele>
        <time>2017-07-22T17:03:59Z</time>
      </trkpt>
      <trkpt lat="44.1619190" lon="7.5917150">
        <ele>1808.0</ele>
        <time>2017-07-22T17:04:00Z</time>
      </trkpt>
      <trkpt lat="44.1619830" lon="7.5917510">
        <ele>1806.6</ele>
        <time>2017-07-22T17:04:01Z</time>
      </trkpt>
      <trkpt lat="44.1620470" lon="7.5918090">
        <ele>1805.4</ele>
        <time>2017-07-22T17:04:02Z</time>
      </trkpt>
      <trkpt lat="44.1621110" lon="7.5918800">
        <ele>1804.4</ele>
        <time>2017-07-22T17:04:03Z</time>
      </trkpt>
      <trkpt lat="44.1621810" lon="7.5919630">
        <ele>1803.4</ele>
        <time>2017-07-22T17:04:04Z</time>
      </trkpt>
      <trkpt lat="44.1622550" lon="7.5920370">
        <ele>1802.2</ele>
        <time>2017-07-22T17:04:05Z</time>
      </trkpt>
      <trkpt lat="44.1623230" lon="7.5920950">
        <ele>1801.0</ele>
        <time>2017-07-22T17:04:06Z</time>
      </trkpt>
      <trkpt lat="44.1623920" lon="7.5921330">
        <ele>1799.4</ele>
        <time>2017-07-22T17:04:07Z</time>
      </trkpt>
      <trkpt lat="44.1624680" lon="7.5921420">
        <ele>1798.2</ele>
        <time>2017-07-22T17:04:08Z</time>
      </trkpt>
      <trkpt lat="44.1625510" lon="7.5921200">
        <ele>1796.8</ele>
        <time>2017-07-22T17:04:09Z</time>
      </trkpt>
      <trkpt lat="44.1626360" lon="7.5920840">
        <ele>1795.6</ele>
        <time>2017-07-22T17:04:10Z</time>
      </trkpt>
      <trkpt lat="44.1627170" lon="7.5920490">
        <ele>1794.2</ele>
        <time>2017-07-22T17:04:11Z</time>
      </trkpt>
      <trkpt lat="44.1627940" lon="7.5920230">
        <ele>1793.0</ele>
        <time>2017-07-22T17:04:12Z</time>
      </trkpt>
      <trkpt lat="44.1628740" lon="7.5920190">
        <ele>1792.0</ele>
        <time>2017-07-22T17:04:13Z</time>
      </trkpt>
      <trkpt lat="44.1629550" lon="7.5920380">
        <ele>1790.0</ele>
        <time>2017-07-22T17:04:14Z</time>
      </trkpt>
      <trkpt lat="44.1631120" lon="7.5921080">
        <ele>1788.0</ele>
        <time>2017-07-22T17:04:16Z</time>
      </trkpt>
      <trkpt lat="44.1631890" lon="7.5921510">
        <ele>1787.0</ele>
        <time>2017-07-22T17:04:17Z</time>
      </trkpt>
      <trkpt lat="44.1632660" lon="7.5922000">
        <ele>1786.2</ele>
        <time>2017-07-22T17:04:18Z</time>
      </trkpt>
      <trkpt lat="44.1633380" lon="7.5922560">
        <ele>1785.6</ele>
        <time>2017-07-22T17:04:19Z</time>
      </trkpt>
      <trkpt lat="44.1634060" lon="7.5923180">
        <ele>1785.2</ele>
        <time>2017-07-22T17:04:20Z</time>
      </trkpt>
      <trkpt lat="44.1634670" lon="7.5923810">
        <ele>1784.6</ele>
        <time>2017-07-22T17:04:21Z</time>
      </trkpt>
      <trkpt lat="44.1635250" lon="7.5924460">
        <ele>1784.0</ele>
        <time>2017-07-22T17:04:22Z</time>
      </trkpt>
      <trkpt lat="44.1636770" lon="7.5926650">
        <ele>1783.0</ele>
        <time>2017-07-22T17:04:25Z</time>
      </trkpt>
      <trkpt lat="44.1637310" lon="7.5927300">
        <ele>1782.8</ele>
        <time>2017-07-22T17:04:26Z</time>
      </trkpt>
      <trkpt lat="44.1639430" lon="7.5928620">
        <ele>1781.6</ele>
        <time>2017-07-22T17:04:30Z</time>
      </trkpt>
      <trkpt lat="44.1640390" lon="7.5928590">
        <ele>1781.0</ele>
        <time>2017-07-22T17:04:32Z</time>
      </trkpt>
      <trkpt lat="44.1640760" lon="7.5928820">
        <ele>1781.0</ele>
        <time>2017-07-22T17:04:33Z</time>
      </trkpt>
      <trkpt lat="44.1641030" lon="7.5929020">
        <ele>1780.8</ele>
        <time>2017-07-22T17:04:34Z</time>
      </trkpt>
      <trkpt lat="44.1641190" lon="7.5929170">
        <ele>1780.6</ele>
        <time>2017-07-22T17:04:35Z</time>
      </trkpt>
      <trkpt lat="44.1641230" lon="7.5929200">
        <ele>1780.6</ele>
        <time>2017-07-22T17:04:37Z</time>
      </trkpt>
      <trkpt lat="44.1641330" lon="7.5929460">
        <ele>1777.6</ele>
        <time>2017-07-22T17:04:46Z</time>
      </trkpt>
      <trkpt lat="44.1641560" lon="7.5929570">
        <ele>1777.2</ele>
        <time>2017-07-22T17:04:48Z</time>
      </trkpt>
      <trkpt lat="44.1641930" lon="7.5929740">
        <ele>1776.4</ele>
        <time>2017-07-22T17:04:50Z</time>
      </trkpt>
      <trkpt lat="44.1642210" lon="7.5929980">
        <ele>1776.2</ele>
        <time>2017-07-22T17:04:52Z</time>
      </trkpt>
      <trkpt lat="44.1642960" lon="7.5930780">
        <ele>1775.6</ele>
        <time>2017-07-22T17:04:56Z</time>
      </trkpt>
      <trkpt lat="44.1643570" lon="7.5931480">
        <ele>1775.4</ele>
        <time>2017-07-22T17:04:58Z</time>
      </trkpt>
      <trkpt lat="44.1644630" lon="7.5932620">
        <ele>1775.0</ele>
        <time>2017-07-22T17:05:01Z</time>
      </trkpt>
      <trkpt lat="44.1646430" lon="7.5933540">
        <ele>1774.6</ele>
        <time>2017-07-22T17:05:05Z</time>
      </trkpt>
      <trkpt lat="44.1646970" lon="7.5933990">
        <ele>1774.4</ele>
        <time>2017-07-22T17:05:07Z</time>
      </trkpt>
      <trkpt lat="44.1647020" lon="7.5934230">
        <ele>1774.8</ele>
        <time>2017-07-22T17:05:08Z</time>
      </trkpt>
      <trkpt lat="44.1647480" lon="7.5934610">
        <ele>1775.4</ele>
        <time>2017-07-22T17:05:12Z</time>
      </trkpt>
      <trkpt lat="44.1648400" lon="7.5935060">
        <ele>1776.6</ele>
        <time>2017-07-22T17:05:17Z</time>
      </trkpt>
      <trkpt lat="44.1649080" lon="7.5935560">
        <ele>1777.2</ele>
        <time>2017-07-22T17:05:20Z</time>
      </trkpt>
      <trkpt lat="44.1649470" lon="7.5935970">
        <ele>1777.2</ele>
        <time>2017-07-22T17:05:22Z</time>
      </trkpt>
      <trkpt lat="44.1649630" lon="7.5936170">
        <ele>1777.4</ele>
        <time>2017-07-22T17:05:23Z</time>
      </trkpt>
      <trkpt lat="44.1649810" lon="7.5936260">
        <ele>1777.6</ele>
        <time>2017-07-22T17:05:24Z</time>
      </trkpt>
      <trkpt lat="44.1649990" lon="7.5936280">
        <ele>1777.8</ele>
        <time>2017-07-22T17:05:25Z</time>
      </trkpt>
      <trkpt lat="44.1650330" lon="7.5936360">
        <ele>1777.8</ele>
        <time>2017-07-22T17:05:27Z</time>
      </trkpt>
      <trkpt lat="44.1651060" lon="7.5936820">
        <ele>1778.4</ele>
        <time>2017-07-22T17:05:32Z</time>
      </trkpt>
      <trkpt lat="44.1651340" lon="7.5937040">
        <ele>1779.0</ele>
        <time>2017-07-22T17:05:34Z</time>
      </trkpt>
      <trkpt lat="44.1651520" lon="7.5937030">
        <ele>1779.4</ele>
        <time>2017-07-22T17:05:36Z</time>
      </trkpt>
      <trkpt lat="44.1652780" lon="7.5937090">
        <ele>1780.0</ele>
        <time>2017-07-22T17:05:40Z</time>
      </trkpt>
      <trkpt lat="44.1653140" lon="7.5937250">
        <ele>1780.2</ele>
        <time>2017-07-22T17:05:41Z</time>
      </trkpt>
      <trkpt lat="44.1654590" lon="7.5937810">
        <ele>1779.8</ele>
        <time>2017-07-22T17:05:46Z</time>
      </trkpt>
      <trkpt lat="44.1655380" lon="7.5938290">
        <ele>1779.0</ele>
        <time>2017-07-22T17:05:49Z</time>
      </trkpt>
      <trkpt lat="44.1655600" lon="7.5938550">
        <ele>1778.6</ele>
        <time>2017-07-22T17:05:50Z</time>
      </trkpt>
      <trkpt lat="44.1656220" lon="7.5938900">
        <ele>1777.6</ele>
        <time>2017-07-22T17:05:52Z</time>
      </trkpt>
      <trkpt lat="44.1656980" lon="7.5938940">
        <ele>1776.6</ele>
        <time>2017-07-22T17:05:54Z</time>
      </trkpt>
      <trkpt lat="44.1657710" lon="7.5938910">
        <ele>1775.6</ele>
        <time>2017-07-22T17:05:56Z</time>
      </trkpt>
      <trkpt lat="44.1658390" lon="7.5939030">
        <ele>1774.4</ele>
        <time>2017-07-22T17:05:58Z</time>
      </trkpt>
      <trkpt lat="44.1658820" lon="7.5939120">
        <ele>1773.8</ele>
        <time>2017-07-22T17:05:59Z</time>
      </trkpt>
      <trkpt lat="44.1659330" lon="7.5939230">
        <ele>1773.4</ele>
        <time>2017-07-22T17:06:00Z</time>
      </trkpt>
      <trkpt lat="44.1660420" lon="7.5939370">
        <ele>1771.8</ele>
        <time>2017-07-22T17:06:02Z</time>
      </trkpt>
      <trkpt lat="44.1661440" lon="7.5939520">
        <ele>1770.2</ele>
        <time>2017-07-22T17:06:04Z</time>
      </trkpt>
      <trkpt lat="44.1662400" lon="7.5939970">
        <ele>1769.0</ele>
        <time>2017-07-22T17:06:06Z</time>
      </trkpt>
      <trkpt lat="44.1663440" lon="7.5940210">
        <ele>1768.0</ele>
        <time>2017-07-22T17:06:08Z</time>
      </trkpt>
      <trkpt lat="44.1664240" lon="7.5940440">
        <ele>1766.8</ele>
        <time>2017-07-22T17:06:10Z</time>
      </trkpt>
      <trkpt lat="44.1664660" lon="7.5940480">
        <ele>1766.2</ele>
        <time>2017-07-22T17:06:11Z</time>
      </trkpt>
      <trkpt lat="44.1665130" lon="7.5940430">
        <ele>1765.6</ele>
        <time>2017-07-22T17:06:12Z</time>
      </trkpt>
      <trkpt lat="44.1666090" lon="7.5940450">
        <ele>1763.6</ele>
        <time>2017-07-22T17:06:14Z</time>
      </trkpt>
      <trkpt lat="44.1666760" lon="7.5941080">
        <ele>1762.6</ele>
        <time>2017-07-22T17:06:16Z</time>
      </trkpt>
      <trkpt lat="44.1667530" lon="7.5941390">
        <ele>1761.6</ele>
        <time>2017-07-22T17:06:18Z</time>
      </trkpt>
      <trkpt lat="44.1667930" lon="7.5941560">
        <ele>1761.2</ele>
        <time>2017-07-22T17:06:19Z</time>
      </trkpt>
      <trkpt lat="44.1668330" lon="7.5941670">
        <ele>1760.6</ele>
        <time>2017-07-22T17:06:20Z</time>
      </trkpt>
      <trkpt lat="44.1669720" lon="7.5941960">
        <ele>1759.0</ele>
        <time>2017-07-22T17:06:23Z</time>
      </trkpt>
      <trkpt lat="44.1670130" lon="7.5942130">
        <ele>1758.4</ele>
        <time>2017-07-22T17:06:24Z</time>
      </trkpt>
      <trkpt lat="44.1670520" lon="7.5942320">
        <ele>1757.8</ele>
        <time>2017-07-22T17:06:25Z</time>
      </trkpt>
      <trkpt lat="44.1671720" lon="7.5942740">
        <ele>1756.8</ele>
        <time>2017-07-22T17:06:28Z</time>
      </trkpt>
      <trkpt lat="44.1672120" lon="7.5942930">
        <ele>1756.4</ele>
        <time>2017-07-22T17:06:29Z</time>
      </trkpt>
      <trkpt lat="44.1672540" lon="7.5943110">
        <ele>1755.6</ele>
        <time>2017-07-22T17:06:30Z</time>
      </trkpt>
      <trkpt lat="44.1673270" lon="7.5943600">
        <ele>1754.4</ele>
        <time>2017-07-22T17:06:32Z</time>
      </trkpt>
      <trkpt lat="44.1673590" lon="7.5943840">
        <ele>1754.0</ele>
        <time>2017-07-22T17:06:33Z</time>
      </trkpt>
      <trkpt lat="44.1674170" lon="7.5944460">
        <ele>1753.4</ele>
        <time>2017-07-22T17:06:35Z</time>
      </trkpt>
      <trkpt lat="44.1674490" lon="7.5944770">
        <ele>1753.0</ele>
        <time>2017-07-22T17:06:36Z</time>
      </trkpt>
      <trkpt lat="44.1674860" lon="7.5945000">
        <ele>1752.4</ele>
        <time>2017-07-22T17:06:37Z</time>
      </trkpt>
      <trkpt lat="44.1675220" lon="7.5944990">
        <ele>1751.6</ele>
        <time>2017-07-22T17:06:38Z</time>
      </trkpt>
      <trkpt lat="44.1675490" lon="7.5945100">
        <ele>1751.2</ele>
        <time>2017-07-22T17:06:39Z</time>
      </trkpt>
      <trkpt lat="44.1676700" lon="7.5945160">
        <ele>1750.0</ele>
        <time>2017-07-22T17:06:42Z</time>
      </trkpt>
      <trkpt lat="44.1677360" lon="7.5945150">
        <ele>1749.8</ele>
        <time>2017-07-22T17:06:43Z</time>
      </trkpt>
      <trkpt lat="44.1678040" lon="7.5945240">
        <ele>1749.2</ele>
        <time>2017-07-22T17:06:44Z</time>
      </trkpt>
      <trkpt lat="44.1678720" lon="7.5945300">
        <ele>1748.8</ele>
        <time>2017-07-22T17:06:45Z</time>
      </trkpt>
      <trkpt lat="44.1680050" lon="7.5945340">
        <ele>1747.6</ele>
        <time>2017-07-22T17:06:47Z</time>
      </trkpt>
      <trkpt lat="44.1680670" lon="7.5945450">
        <ele>1747.0</ele>
        <time>2017-07-22T17:06:48Z</time>
      </trkpt>
      <trkpt lat="44.1681270" lon="7.5945510">
        <ele>1746.4</ele>
        <time>2017-07-22T17:06:49Z</time>
      </trkpt>
      <trkpt lat="44.1682210" lon="7.5945110">
        <ele>1745.8</ele>
        <time>2017-07-22T17:06:51Z</time>
      </trkpt>
      <trkpt lat="44.1683070" lon="7.5944900">
        <ele>1745.4</ele>
        <time>2017-07-22T17:06:53Z</time>
      </trkpt>
      <trkpt lat="44.1684200" lon="7.5944940">
        <ele>1745.2</ele>
        <time>2017-07-22T17:06:55Z</time>
      </trkpt>
      <trkpt lat="44.1685410" lon="7.5944760">
        <ele>1744.8</ele>
        <time>2017-07-22T17:06:57Z</time>
      </trkpt>
      <trkpt lat="44.1686580" lon="7.5944510">
        <ele>1744.6</ele>
        <time>2017-07-22T17:06:59Z</time>
      </trkpt>
      <trkpt lat="44.1687130" lon="7.5944320">
        <ele>1744.6</ele>
        <time>2017-07-22T17:07:00Z</time>
      </trkpt>
      <trkpt lat="44.1688840" lon="7.5943600">
        <ele>1744.4</ele>
        <time>2017-07-22T17:07:03Z</time>
      </trkpt>
      <trkpt lat="44.1690010" lon="7.5943420">
        <ele>1744.6</ele>
        <time>2017-07-22T17:07:05Z</time>
      </trkpt>
      <trkpt lat="44.1690520" lon="7.5943510">
        <ele>1744.4</ele>
        <time>2017-07-22T17:07:06Z</time>
      </trkpt>
      <trkpt lat="44.1691370" lon="7.5944050">
        <ele>1744.6</ele>
        <time>2017-07-22T17:07:08Z</time>
      </trkpt>
      <trkpt lat="44.1691950" lon="7.5944800">
        <ele>1744.2</ele>
        <time>2017-07-22T17:07:10Z</time>
      </trkpt>
      <trkpt lat="44.1692390" lon="7.5945810">
        <ele>1743.6</ele>
        <time>2017-07-22T17:07:12Z</time>
      </trkpt>
      <trkpt lat="44.1692790" lon="7.5947140">
        <ele>1743.2</ele>
        <time>2017-07-22T17:07:14Z</time>
      </trkpt>
      <trkpt lat="44.1693360" lon="7.5949350">
        <ele>1741.8</ele>
        <time>2017-07-22T17:07:17Z</time>
      </trkpt>
      <trkpt lat="44.1693840" lon="7.5952510">
        <ele>1740.6</ele>
        <time>2017-07-22T17:07:20Z</time>
      </trkpt>
      <trkpt lat="44.1693820" lon="7.5953360">
        <ele>1740.2</ele>
        <time>2017-07-22T17:07:21Z</time>
      </trkpt>
      <trkpt lat="44.1693330" lon="7.5954570">
        <ele>1739.2</ele>
        <time>2017-07-22T17:07:23Z</time>
      </trkpt>
      <trkpt lat="44.1693000" lon="7.5955060">
        <ele>1738.6</ele>
        <time>2017-07-22T17:07:24Z</time>
      </trkpt>
      <trkpt lat="44.1692250" lon="7.5955670">
        <ele>1737.8</ele>
        <time>2017-07-22T17:07:26Z</time>
      </trkpt>
      <trkpt lat="44.1691510" lon="7.5956300">
        <ele>1737.0</ele>
        <time>2017-07-22T17:07:28Z</time>
      </trkpt>
      <trkpt lat="44.1691070" lon="7.5956570">
        <ele>1736.8</ele>
        <time>2017-07-22T17:07:29Z</time>
      </trkpt>
      <trkpt lat="44.1690570" lon="7.5956840">
        <ele>1736.4</ele>
        <time>2017-07-22T17:07:30Z</time>
      </trkpt>
      <trkpt lat="44.1689530" lon="7.5957500">
        <ele>1735.8</ele>
        <time>2017-07-22T17:07:32Z</time>
      </trkpt>
      <trkpt lat="44.1687040" lon="7.5959310">
        <ele>1734.8</ele>
        <time>2017-07-22T17:07:37Z</time>
      </trkpt>
      <trkpt lat="44.1686810" lon="7.5959800">
        <ele>1734.6</ele>
        <time>2017-07-22T17:07:38Z</time>
      </trkpt>
      <trkpt lat="44.1686640" lon="7.5960830">
        <ele>1734.0</ele>
        <time>2017-07-22T17:07:40Z</time>
      </trkpt>
      <trkpt lat="44.1687010" lon="7.5961810">
        <ele>1733.4</ele>
        <time>2017-07-22T17:07:42Z</time>
      </trkpt>
      <trkpt lat="44.1687330" lon="7.5962080">
        <ele>1732.8</ele>
        <time>2017-07-22T17:07:43Z</time>
      </trkpt>
      <trkpt lat="44.1688230" lon="7.5962470">
        <ele>1732.0</ele>
        <time>2017-07-22T17:07:45Z</time>
      </trkpt>
      <trkpt lat="44.1688990" lon="7.5963100">
        <ele>1731.0</ele>
        <time>2017-07-22T17:07:47Z</time>
      </trkpt>
      <trkpt lat="44.1689320" lon="7.5963120">
        <ele>1730.4</ele>
        <time>2017-07-22T17:07:48Z</time>
      </trkpt>
      <trkpt lat="44.1689630" lon="7.5962860">
        <ele>1729.4</ele>
        <time>2017-07-22T17:07:49Z</time>
      </trkpt>
      <trkpt lat="44.1689980" lon="7.5962560">
        <ele>1728.4</ele>
        <time>2017-07-22T17:07:50Z</time>
      </trkpt>
      <trkpt lat="44.1690380" lon="7.5962320">
        <ele>1727.0</ele>
        <time>2017-07-22T17:07:51Z</time>
      </trkpt>
      <trkpt lat="44.1690730" lon="7.5962270">
        <ele>1726.0</ele>
        <time>2017-07-22T17:07:52Z</time>
      </trkpt>
      <trkpt lat="44.1691210" lon="7.5962400">
        <ele>1724.8</ele>
        <time>2017-07-22T17:07:53Z</time>
      </trkpt>
      <trkpt lat="44.1691730" lon="7.5962520">
        <ele>1723.8</ele>
        <time>2017-07-22T17:07:54Z</time>
      </trkpt>
      <trkpt lat="44.1692310" lon="7.5962570">
        <ele>1723.0</ele>
        <time>2017-07-22T17:07:55Z</time>
      </trkpt>
      <trkpt lat="44.1693400" lon="7.5962730">
        <ele>1721.6</ele>
        <time>2017-07-22T17:07:57Z</time>
      </trkpt>
      <trkpt lat="44.1693770" lon="7.5963130">
        <ele>1720.6</ele>
        <time>2017-07-22T17:07:58Z</time>
      </trkpt>
      <trkpt lat="44.1694240" lon="7.5963520">
        <ele>1719.6</ele>
        <time>2017-07-22T17:07:59Z</time>
      </trkpt>
      <trkpt lat="44.1695460" lon="7.5964170">
        <ele>1717.4</ele>
        <time>2017-07-22T17:08:01Z</time>
      </trkpt>
      <trkpt lat="44.1695980" lon="7.5964640">
        <ele>1716.2</ele>
        <time>2017-07-22T17:08:02Z</time>
      </trkpt>
      <trkpt lat="44.1696480" lon="7.5965250">
        <ele>1715.0</ele>
        <time>2017-07-22T17:08:03Z</time>
      </trkpt>
      <trkpt lat="44.1697020" lon="7.5965920">
        <ele>1714.2</ele>
        <time>2017-07-22T17:08:04Z</time>
      </trkpt>
      <trkpt lat="44.1697580" lon="7.5966700">
        <ele>1713.0</ele>
        <time>2017-07-22T17:08:05Z</time>
      </trkpt>
      <trkpt lat="44.1698100" lon="7.5967600">
        <ele>1711.8</ele>
        <time>2017-07-22T17:08:06Z</time>
      </trkpt>
      <trkpt lat="44.1698600" lon="7.5968700">
        <ele>1710.8</ele>
        <time>2017-07-22T17:08:07Z</time>
      </trkpt>
      <trkpt lat="44.1698940" lon="7.5969820">
        <ele>1710.0</ele>
        <time>2017-07-22T17:08:08Z</time>
      </trkpt>
      <trkpt lat="44.1699270" lon="7.5970780">
        <ele>1709.4</ele>
        <time>2017-07-22T17:08:09Z</time>
      </trkpt>
      <trkpt lat="44.1700100" lon="7.5972090">
        <ele>1708.0</ele>
        <time>2017-07-22T17:08:11Z</time>
      </trkpt>
      <trkpt lat="44.1701330" lon="7.5972950">
        <ele>1706.4</ele>
        <time>2017-07-22T17:08:13Z</time>
      </trkpt>
      <trkpt lat="44.1701810" lon="7.5973620">
        <ele>1705.6</ele>
        <time>2017-07-22T17:08:14Z</time>
      </trkpt>
      <trkpt lat="44.1702270" lon="7.5974360">
        <ele>1704.2</ele>
        <time>2017-07-22T17:08:15Z</time>
      </trkpt>
      <trkpt lat="44.1703270" lon="7.5975880">
        <ele>1702.8</ele>
        <time>2017-07-22T17:08:17Z</time>
      </trkpt>
      <trkpt lat="44.1703930" lon="7.5976640">
        <ele>1702.2</ele>
        <time>2017-07-22T17:08:18Z</time>
      </trkpt>
      <trkpt lat="44.1704620" lon="7.5977490">
        <ele>1701.6</ele>
        <time>2017-07-22T17:08:19Z</time>
      </trkpt>
      <trkpt lat="44.1705920" lon="7.5979240">
        <ele>1700.4</ele>
        <time>2017-07-22T17:08:21Z</time>
      </trkpt>
      <trkpt lat="44.1706570" lon="7.5979810">
        <ele>1699.6</ele>
        <time>2017-07-22T17:08:22Z</time>
      </trkpt>
      <trkpt lat="44.1707200" lon="7.5980040">
        <ele>1698.4</ele>
        <time>2017-07-22T17:08:23Z</time>
      </trkpt>
      <trkpt lat="44.1707740" lon="7.5979940">
        <ele>1697.4</ele>
        <time>2017-07-22T17:08:24Z</time>
      </trkpt>
      <trkpt lat="44.1708220" lon="7.5979600">
        <ele>1696.2</ele>
        <time>2017-07-22T17:08:25Z</time>
      </trkpt>
      <trkpt lat="44.1709050" lon="7.5978760">
        <ele>1694.6</ele>
        <time>2017-07-22T17:08:27Z</time>
      </trkpt>
      <trkpt lat="44.1710300" lon="7.5978080">
        <ele>1693.4</ele>
        <time>2017-07-22T17:08:29Z</time>
      </trkpt>
      <trkpt lat="44.1711080" lon="7.5977810">
        <ele>1692.8</ele>
        <time>2017-07-22T17:08:30Z</time>
      </trkpt>
      <trkpt lat="44.1711870" lon="7.5977460">
        <ele>1691.8</ele>
        <time>2017-07-22T17:08:31Z</time>
      </trkpt>
      <trkpt lat="44.1712610" lon="7.5977060">
        <ele>1691.0</ele>
        <time>2017-07-22T17:08:32Z</time>
      </trkpt>
      <trkpt lat="44.1713370" lon="7.5976790">
        <ele>1690.4</ele>
        <time>2017-07-22T17:08:33Z</time>
      </trkpt>
      <trkpt lat="44.1714130" lon="7.5976730">
        <ele>1689.8</ele>
        <time>2017-07-22T17:08:34Z</time>
      </trkpt>
      <trkpt lat="44.1715640" lon="7.5976680">
        <ele>1688.8</ele>
        <time>2017-07-22T17:08:36Z</time>
      </trkpt>
      <trkpt lat="44.1716310" lon="7.5976770">
        <ele>1688.4</ele>
        <time>2017-07-22T17:08:37Z</time>
      </trkpt>
      <trkpt lat="44.1716980" lon="7.5976900">
        <ele>1688.0</ele>
        <time>2017-07-22T17:08:38Z</time>
      </trkpt>
      <trkpt lat="44.1717690" lon="7.5977080">
        <ele>1687.2</ele>
        <time>2017-07-22T17:08:39Z</time>
      </trkpt>
      <trkpt lat="44.1719240" lon="7.5977400">
        <ele>1686.8</ele>
        <time>2017-07-22T17:08:41Z</time>
      </trkpt>
      <trkpt lat="44.1719990" lon="7.5977400">
        <ele>1686.4</ele>
        <time>2017-07-22T17:08:42Z</time>
      </trkpt>
      <trkpt lat="44.1720680" lon="7.5977320">
        <ele>1686.2</ele>
        <time>2017-07-22T17:08:43Z</time>
      </trkpt>
      <trkpt lat="44.1722560" lon="7.5976320">
        <ele>1685.4</ele>
        <time>2017-07-22T17:08:46Z</time>
      </trkpt>
      <trkpt lat="44.1723220" lon="7.5975900">
        <ele>1685.0</ele>
        <time>2017-07-22T17:08:47Z</time>
      </trkpt>
      <trkpt lat="44.1723790" lon="7.5975220">
        <ele>1684.4</ele>
        <time>2017-07-22T17:08:48Z</time>
      </trkpt>
      <trkpt lat="44.1724330" lon="7.5974240">
        <ele>1683.8</ele>
        <time>2017-07-22T17:08:49Z</time>
      </trkpt>
      <trkpt lat="44.1725420" lon="7.5971870">
        <ele>1682.6</ele>
        <time>2017-07-22T17:08:51Z</time>
      </trkpt>
      <trkpt lat="44.1725930" lon="7.5970880">
        <ele>1682.0</ele>
        <time>2017-07-22T17:08:52Z</time>
      </trkpt>
      <trkpt lat="44.1726480" lon="7.5970170">
        <ele>1681.2</ele>
        <time>2017-07-22T17:08:53Z</time>
      </trkpt>
      <trkpt lat="44.1727520" lon="7.5969570">
        <ele>1680.8</ele>
        <time>2017-07-22T17:08:55Z</time>
      </trkpt>
      <trkpt lat="44.1729290" lon="7.5968750">
        <ele>1680.2</ele>
        <time>2017-07-22T17:08:58Z</time>
      </trkpt>
      <trkpt lat="44.1729810" lon="7.5968010">
        <ele>1680.2</ele>
        <time>2017-07-22T17:08:59Z</time>
      </trkpt>
      <trkpt lat="44.1731430" lon="7.5964510">
        <ele>1679.4</ele>
        <time>2017-07-22T17:09:02Z</time>
      </trkpt>
      <trkpt lat="44.1732090" lon="7.5963230">
        <ele>1678.2</ele>
        <time>2017-07-22T17:09:03Z</time>
      </trkpt>
      <trkpt lat="44.1733530" lon="7.5960830">
        <ele>1676.4</ele>
        <time>2017-07-22T17:09:05Z</time>
      </trkpt>
      <trkpt lat="44.1734260" lon="7.5959710">
        <ele>1675.2</ele>
        <time>2017-07-22T17:09:06Z</time>
      </trkpt>
      <trkpt lat="44.1734930" lon="7.5958640">
        <ele>1674.2</ele>
        <time>2017-07-22T17:09:07Z</time>
      </trkpt>
      <trkpt lat="44.1735600" lon="7.5957590">
        <ele>1672.8</ele>
        <time>2017-07-22T17:09:08Z</time>
      </trkpt>
      <trkpt lat="44.1736820" lon="7.5955660">
        <ele>1670.6</ele>
        <time>2017-07-22T17:09:10Z</time>
      </trkpt>
      <trkpt lat="44.1737330" lon="7.5954780">
        <ele>1669.4</ele>
        <time>2017-07-22T17:09:11Z</time>
      </trkpt>
      <trkpt lat="44.1737820" lon="7.5953860">
        <ele>1668.0</ele>
        <time>2017-07-22T17:09:12Z</time>
      </trkpt>
      <trkpt lat="44.1738330" lon="7.5952810">
        <ele>1667.0</ele>
        <time>2017-07-22T17:09:13Z</time>
      </trkpt>
      <trkpt lat="44.1738850" lon="7.5951650">
        <ele>1665.8</ele>
        <time>2017-07-22T17:09:14Z</time>
      </trkpt>
      <trkpt lat="44.1739330" lon="7.5950340">
        <ele>1664.2</ele>
        <time>2017-07-22T17:09:15Z</time>
      </trkpt>
      <trkpt lat="44.1739900" lon="7.5949000">
        <ele>1662.8</ele>
        <time>2017-07-22T17:09:16Z</time>
      </trkpt>
      <trkpt lat="44.1740560" lon="7.5947660">
        <ele>1661.4</ele>
        <time>2017-07-22T17:09:17Z</time>
      </trkpt>
      <trkpt lat="44.1741330" lon="7.5946300">
        <ele>1660.2</ele>
        <time>2017-07-22T17:09:18Z</time>
      </trkpt>
      <trkpt lat="44.1742160" lon="7.5944970">
        <ele>1658.8</ele>
        <time>2017-07-22T17:09:19Z</time>
      </trkpt>
      <trkpt lat="44.1743030" lon="7.5943700">
        <ele>1657.4</ele>
        <time>2017-07-22T17:09:20Z</time>
      </trkpt>
      <trkpt lat="44.1743880" lon="7.5942480">
        <ele>1655.6</ele>
        <time>2017-07-22T17:09:21Z</time>
      </trkpt>
      <trkpt lat="44.1744600" lon="7.5941240">
        <ele>1654.2</ele>
        <time>2017-07-22T17:09:22Z</time>
      </trkpt>
      <trkpt lat="44.1745320" lon="7.5940070">
        <ele>1652.6</ele>
        <time>2017-07-22T17:09:23Z</time>
      </trkpt>
      <trkpt lat="44.1745990" lon="7.5938940">
        <ele>1651.2</ele>
        <time>2017-07-22T17:09:24Z</time>
      </trkpt>
      <trkpt lat="44.1746580" lon="7.5937980">
        <ele>1649.6</ele>
        <time>2017-07-22T17:09:25Z</time>
      </trkpt>
      <trkpt lat="44.1747180" lon="7.5937180">
        <ele>1647.8</ele>
        <time>2017-07-22T17:09:26Z</time>
      </trkpt>
      <trkpt lat="44.1747720" lon="7.5936410">
        <ele>1644.2</ele>
        <time>2017-07-22T17:09:27Z</time>
      </trkpt>
      <trkpt lat="44.1748250" lon="7.5935600">
        <ele>1642.4</ele>
        <time>2017-07-22T17:09:28Z</time>
      </trkpt>
      <trkpt lat="44.1748780" lon="7.5934920">
        <ele>1640.6</ele>
        <time>2017-07-22T17:09:29Z</time>
      </trkpt>
      <trkpt lat="44.1749320" lon="7.5934430">
        <ele>1639.0</ele>
        <time>2017-07-22T17:09:30Z</time>
      </trkpt>
      <trkpt lat="44.1749820" lon="7.5934170">
        <ele>1637.4</ele>
        <time>2017-07-22T17:09:31Z</time>
      </trkpt>
      <trkpt lat="44.1750380" lon="7.5934240">
        <ele>1635.6</ele>
        <time>2017-07-22T17:09:32Z</time>
      </trkpt>
      <trkpt lat="44.1750840" lon="7.5934640">
        <ele>1634.2</ele>
        <time>2017-07-22T17:09:33Z</time>
      </trkpt>
      <trkpt lat="44.1751190" lon="7.5935250">
        <ele>1633.0</ele>
        <time>2017-07-22T17:09:34Z</time>
      </trkpt>
      <trkpt lat="44.1751420" lon="7.5936030">
        <ele>1631.8</ele>
        <time>2017-07-22T17:09:35Z</time>
      </trkpt>
      <trkpt lat="44.1751540" lon="7.5936860">
        <ele>1630.6</ele>
        <time>2017-07-22T17:09:36Z</time>
      </trkpt>
      <trkpt lat="44.1751490" lon="7.5937700">
        <ele>1629.2</ele>
        <time>2017-07-22T17:09:37Z</time>
      </trkpt>
      <trkpt lat="44.1751250" lon="7.5938560">
        <ele>1628.0</ele>
        <time>2017-07-22T17:09:38Z</time>
      </trkpt>
      <trkpt lat="44.1750940" lon="7.5939520">
        <ele>1626.6</ele>
        <time>2017-07-22T17:09:39Z</time>
      </trkpt>
      <trkpt lat="44.1750620" lon="7.5940530">
        <ele>1625.6</ele>
        <time>2017-07-22T17:09:40Z</time>
      </trkpt>
      <trkpt lat="44.1750260" lon="7.5941580">
        <ele>1624.4</ele>
        <time>2017-07-22T17:09:41Z</time>
      </trkpt>
      <trkpt lat="44.1749760" lon="7.5943820">
        <ele>1622.6</ele>
        <time>2017-07-22T17:09:43Z</time>
      </trkpt>
      <trkpt lat="44.1749770" lon="7.5944980">
        <ele>1621.6</ele>
        <time>2017-07-22T17:09:44Z</time>
      </trkpt>
      <trkpt lat="44.1749930" lon="7.5946120">
        <ele>1620.6</ele>
        <time>2017-07-22T17:09:45Z</time>
      </trkpt>
      <trkpt lat="44.1750540" lon="7.5948240">
        <ele>1619.0</ele>
        <time>2017-07-22T17:09:47Z</time>
      </trkpt>
      <trkpt lat="44.1751640" lon="7.5950110">
        <ele>1617.4</ele>
        <time>2017-07-22T17:09:49Z</time>
      </trkpt>
      <trkpt lat="44.1752220" lon="7.5951070">
        <ele>1616.4</ele>
        <time>2017-07-22T17:09:50Z</time>
      </trkpt>
      <trkpt lat="44.1752890" lon="7.5952030">
        <ele>1614.4</ele>
        <time>2017-07-22T17:09:51Z</time>
      </trkpt>
      <trkpt lat="44.1753710" lon="7.5952720">
        <ele>1612.8</ele>
        <time>2017-07-22T17:09:52Z</time>
      </trkpt>
      <trkpt lat="44.1754580" lon="7.5953170">
        <ele>1611.4</ele>
        <time>2017-07-22T17:09:53Z</time>
      </trkpt>
      <trkpt lat="44.1755420" lon="7.5953360">
        <ele>1609.8</ele>
        <time>2017-07-22T17:09:54Z</time>
      </trkpt>
      <trkpt lat="44.1756300" lon="7.5953440">
        <ele>1608.2</ele>
        <time>2017-07-22T17:09:55Z</time>
      </trkpt>
      <trkpt lat="44.1757190" lon="7.5953620">
        <ele>1606.8</ele>
        <time>2017-07-22T17:09:56Z</time>
      </trkpt>
      <trkpt lat="44.1758080" lon="7.5953940">
        <ele>1605.6</ele>
        <time>2017-07-22T17:09:57Z</time>
      </trkpt>
      <trkpt lat="44.1758970" lon="7.5954510">
        <ele>1604.4</ele>
        <time>2017-07-22T17:09:58Z</time>
      </trkpt>
      <trkpt lat="44.1759890" lon="7.5955240">
        <ele>1603.2</ele>
        <time>2017-07-22T17:09:59Z</time>
      </trkpt>
      <trkpt lat="44.1760730" lon="7.5955990">
        <ele>1602.0</ele>
        <time>2017-07-22T17:10:00Z</time>
      </trkpt>
      <trkpt lat="44.1761560" lon="7.5956760">
        <ele>1600.8</ele>
        <time>2017-07-22T17:10:01Z</time>
      </trkpt>
      <trkpt lat="44.1762390" lon="7.5957500">
        <ele>1599.8</ele>
        <time>2017-07-22T17:10:02Z</time>
      </trkpt>
      <trkpt lat="44.1763230" lon="7.5958220">
        <ele>1598.6</ele>
        <time>2017-07-22T17:10:03Z</time>
      </trkpt>
      <trkpt lat="44.1764050" lon="7.5958910">
        <ele>1597.6</ele>
        <time>2017-07-22T17:10:04Z</time>
      </trkpt>
      <trkpt lat="44.1764900" lon="7.5959580">
        <ele>1596.6</ele>
        <time>2017-07-22T17:10:05Z</time>
      </trkpt>
      <trkpt lat="44.1766570" lon="7.5960900">
        <ele>1595.0</ele>
        <time>2017-07-22T17:10:07Z</time>
      </trkpt>
      <trkpt lat="44.1768340" lon="7.5961980">
        <ele>1593.6</ele>
        <time>2017-07-22T17:10:09Z</time>
      </trkpt>
      <trkpt lat="44.1769930" lon="7.5962870">
        <ele>1591.8</ele>
        <time>2017-07-22T17:10:11Z</time>
      </trkpt>
      <trkpt lat="44.1770490" lon="7.5963590">
        <ele>1591.0</ele>
        <time>2017-07-22T17:10:12Z</time>
      </trkpt>
      <trkpt lat="44.1770920" lon="7.5964580">
        <ele>1590.4</ele>
        <time>2017-07-22T17:10:13Z</time>
      </trkpt>
      <trkpt lat="44.1771480" lon="7.5966950">
        <ele>1588.8</ele>
        <time>2017-07-22T17:10:15Z</time>
      </trkpt>
      <trkpt lat="44.1771490" lon="7.5969650">
        <ele>1587.6</ele>
        <time>2017-07-22T17:10:17Z</time>
      </trkpt>
      <trkpt lat="44.1771350" lon="7.5971070">
        <ele>1587.0</ele>
        <time>2017-07-22T17:10:18Z</time>
      </trkpt>
      <trkpt lat="44.1771260" lon="7.5972500">
        <ele>1586.2</ele>
        <time>2017-07-22T17:10:19Z</time>
      </trkpt>
      <trkpt lat="44.1771020" lon="7.5975120">
        <ele>1585.2</ele>
        <time>2017-07-22T17:10:21Z</time>
      </trkpt>
      <trkpt lat="44.1770990" lon="7.5977580">
        <ele>1583.4</ele>
        <time>2017-07-22T17:10:23Z</time>
      </trkpt>
      <trkpt lat="44.1771180" lon="7.5978640">
        <ele>1582.4</ele>
        <time>2017-07-22T17:10:24Z</time>
      </trkpt>
      <trkpt lat="44.1772110" lon="7.5980440">
        <ele>1581.6</ele>
        <time>2017-07-22T17:10:26Z</time>
      </trkpt>
      <trkpt lat="44.1772620" lon="7.5981060">
        <ele>1580.8</ele>
        <time>2017-07-22T17:10:27Z</time>
      </trkpt>
      <trkpt lat="44.1773370" lon="7.5981860">
        <ele>1579.2</ele>
        <time>2017-07-22T17:10:29Z</time>
      </trkpt>
      <trkpt lat="44.1773880" lon="7.5982690">
        <ele>1578.0</ele>
        <time>2017-07-22T17:10:31Z</time>
      </trkpt>
      <trkpt lat="44.1774480" lon="7.5983690">
        <ele>1577.4</ele>
        <time>2017-07-22T17:10:33Z</time>
      </trkpt>
      <trkpt lat="44.1774600" lon="7.5984220">
        <ele>1577.0</ele>
        <time>2017-07-22T17:10:34Z</time>
      </trkpt>
      <trkpt lat="44.1774270" lon="7.5985420">
        <ele>1576.6</ele>
        <time>2017-07-22T17:10:36Z</time>
      </trkpt>
      <trkpt lat="44.1773600" lon="7.5986630">
        <ele>1576.2</ele>
        <time>2017-07-22T17:10:38Z</time>
      </trkpt>
      <trkpt lat="44.1773100" lon="7.5987270">
        <ele>1575.0</ele>
        <time>2017-07-22T17:10:39Z</time>
      </trkpt>
      <trkpt lat="44.1772580" lon="7.5987930">
        <ele>1574.6</ele>
        <time>2017-07-22T17:10:40Z</time>
      </trkpt>
      <trkpt lat="44.1772270" lon="7.5988600">
        <ele>1574.0</ele>
        <time>2017-07-22T17:10:41Z</time>
      </trkpt>
      <trkpt lat="44.1772050" lon="7.5989730">
        <ele>1573.2</ele>
        <time>2017-07-22T17:10:43Z</time>
      </trkpt>
      <trkpt lat="44.1771760" lon="7.5990170">
        <ele>1572.6</ele>
        <time>2017-07-22T17:10:44Z</time>
      </trkpt>
      <trkpt lat="44.1770630" lon="7.5990670">
        <ele>1571.0</ele>
        <time>2017-07-22T17:10:46Z</time>
      </trkpt>
      <trkpt lat="44.1769100" lon="7.5992300">
        <ele>1569.8</ele>
        <time>2017-07-22T17:10:49Z</time>
      </trkpt>
      <trkpt lat="44.1768700" lon="7.5994040">
        <ele>1568.6</ele>
        <time>2017-07-22T17:10:51Z</time>
      </trkpt>
      <trkpt lat="44.1768700" lon="7.5994910">
        <ele>1568.2</ele>
        <time>2017-07-22T17:10:52Z</time>
      </trkpt>
      <trkpt lat="44.1768890" lon="7.5996560">
        <ele>1567.2</ele>
        <time>2017-07-22T17:10:54Z</time>
      </trkpt>
      <trkpt lat="44.1769060" lon="7.5997400">
        <ele>1566.6</ele>
        <time>2017-07-22T17:10:55Z</time>
      </trkpt>
      <trkpt lat="44.1769260" lon="7.5998240">
        <ele>1566.0</ele>
        <time>2017-07-22T17:10:56Z</time>
      </trkpt>
      <trkpt lat="44.1769480" lon="7.5999120">
        <ele>1565.6</ele>
        <time>2017-07-22T17:10:57Z</time>
      </trkpt>
      <trkpt lat="44.1769960" lon="7.5999870">
        <ele>1565.2</ele>
        <time>2017-07-22T17:10:58Z</time>
      </trkpt>
      <trkpt lat="44.1770390" lon="7.6000500">
        <ele>1564.8</ele>
        <time>2017-07-22T17:10:59Z</time>
      </trkpt>
      <trkpt lat="44.1770600" lon="7.6001010">
        <ele>1564.2</ele>
        <time>2017-07-22T17:11:00Z</time>
      </trkpt>
      <trkpt lat="44.1770900" lon="7.6001320">
        <ele>1563.6</ele>
        <time>2017-07-22T17:11:01Z</time>
      </trkpt>
      <trkpt lat="44.1771800" lon="7.6001860">
        <ele>1562.2</ele>
        <time>2017-07-22T17:11:03Z</time>
      </trkpt>
      <trkpt lat="44.1772770" lon="7.6002580">
        <ele>1561.6</ele>
        <time>2017-07-22T17:11:05Z</time>
      </trkpt>
      <trkpt lat="44.1773160" lon="7.6003120">
        <ele>1561.0</ele>
        <time>2017-07-22T17:11:06Z</time>
      </trkpt>
      <trkpt lat="44.1773480" lon="7.6003770">
        <ele>1560.6</ele>
        <time>2017-07-22T17:11:07Z</time>
      </trkpt>
      <trkpt lat="44.1774030" lon="7.6005270">
        <ele>1559.8</ele>
        <time>2017-07-22T17:11:09Z</time>
      </trkpt>
      <trkpt lat="44.1774570" lon="7.6006790">
        <ele>1559.0</ele>
        <time>2017-07-22T17:11:11Z</time>
      </trkpt>
      <trkpt lat="44.1774890" lon="7.6007430">
        <ele>1558.6</ele>
        <time>2017-07-22T17:11:12Z</time>
      </trkpt>
      <trkpt lat="44.1776590" lon="7.6009840">
        <ele>1557.6</ele>
        <time>2017-07-22T17:11:16Z</time>
      </trkpt>
      <trkpt lat="44.1777170" lon="7.6010450">
        <ele>1557.4</ele>
        <time>2017-07-22T17:11:17Z</time>
      </trkpt>
      <trkpt lat="44.1778780" lon="7.6011950">
        <ele>1556.8</ele>
        <time>2017-07-22T17:11:20Z</time>
      </trkpt>
      <trkpt lat="44.1779340" lon="7.6012250">
        <ele>1556.4</ele>
        <time>2017-07-22T17:11:21Z</time>
      </trkpt>
      <trkpt lat="44.1779980" lon="7.6012440">
        <ele>1555.8</ele>
        <time>2017-07-22T17:11:22Z</time>
      </trkpt>
      <trkpt lat="44.1781300" lon="7.6012770">
        <ele>1555.0</ele>
        <time>2017-07-22T17:11:24Z</time>
      </trkpt>
      <trkpt lat="44.1781930" lon="7.6013110">
        <ele>1554.6</ele>
        <time>2017-07-22T17:11:25Z</time>
      </trkpt>
      <trkpt lat="44.1783160" lon="7.6013790">
        <ele>1553.2</ele>
        <time>2017-07-22T17:11:27Z</time>
      </trkpt>
      <trkpt lat="44.1784350" lon="7.6014380">
        <ele>1552.8</ele>
        <time>2017-07-22T17:11:29Z</time>
      </trkpt>
      <trkpt lat="44.1785040" lon="7.6014240">
        <ele>1552.2</ele>
        <time>2017-07-22T17:11:30Z</time>
      </trkpt>
      <trkpt lat="44.1785710" lon="7.6013790">
        <ele>1552.0</ele>
        <time>2017-07-22T17:11:31Z</time>
      </trkpt>
      <trkpt lat="44.1786950" lon="7.6012710">
        <ele>1551.2</ele>
        <time>2017-07-22T17:11:33Z</time>
      </trkpt>
      <trkpt lat="44.1787620" lon="7.6012600">
        <ele>1550.8</ele>
        <time>2017-07-22T17:11:34Z</time>
      </trkpt>
      <trkpt lat="44.1788720" lon="7.6012760">
        <ele>1550.0</ele>
        <time>2017-07-22T17:11:36Z</time>
      </trkpt>
      <trkpt lat="44.1788960" lon="7.6012770">
        <ele>1549.6</ele>
        <time>2017-07-22T17:11:37Z</time>
      </trkpt>
      <trkpt lat="44.1789490" lon="7.6013140">
        <ele>1548.8</ele>
        <time>2017-07-22T17:11:40Z</time>
      </trkpt>
      <trkpt lat="44.1789800" lon="7.6013320">
        <ele>1548.6</ele>
        <time>2017-07-22T17:11:42Z</time>
      </trkpt>
      <trkpt lat="44.1790270" lon="7.6013600">
        <ele>1548.2</ele>
        <time>2017-07-22T17:11:44Z</time>
      </trkpt>
      <trkpt lat="44.1791490" lon="7.6014250">
        <ele>1548.0</ele>
        <time>2017-07-22T17:11:47Z</time>
      </trkpt>
      <trkpt lat="44.1791950" lon="7.6014520">
        <ele>1547.8</ele>
        <time>2017-07-22T17:11:48Z</time>
      </trkpt>
      <trkpt lat="44.1793080" lon="7.6015040">
        <ele>1547.4</ele>
        <time>2017-07-22T17:11:50Z</time>
      </trkpt>
      <trkpt lat="44.1793730" lon="7.6015260">
        <ele>1547.0</ele>
        <time>2017-07-22T17:11:51Z</time>
      </trkpt>
      <trkpt lat="44.1795820" lon="7.6015800">
        <ele>1546.8</ele>
        <time>2017-07-22T17:11:54Z</time>
      </trkpt>
      <trkpt lat="44.1796460" lon="7.6016020">
        <ele>1546.6</ele>
        <time>2017-07-22T17:11:55Z</time>
      </trkpt>
      <trkpt lat="44.1797100" lon="7.6016230">
        <ele>1546.4</ele>
        <time>2017-07-22T17:11:56Z</time>
      </trkpt>
      <trkpt lat="44.1798900" lon="7.6016830">
        <ele>1545.6</ele>
        <time>2017-07-22T17:11:59Z</time>
      </trkpt>
      <trkpt lat="44.1800460" lon="7.6017380">
        <ele>1544.4</ele>
        <time>2017-07-22T17:12:02Z</time>
      </trkpt>
      <trkpt lat="44.1801410" lon="7.6017860">
        <ele>1543.8</ele>
        <time>2017-07-22T17:12:04Z</time>
      </trkpt>
      <trkpt lat="44.1802000" lon="7.6018720">
        <ele>1543.8</ele>
        <time>2017-07-22T17:12:06Z</time>
      </trkpt>
      <trkpt lat="44.1802620" lon="7.6019870">
        <ele>1543.0</ele>
        <time>2017-07-22T17:12:08Z</time>
      </trkpt>
      <trkpt lat="44.1803060" lon="7.6020460">
        <ele>1542.4</ele>
        <time>2017-07-22T17:12:09Z</time>
      </trkpt>
      <trkpt lat="44.1803520" lon="7.6021020">
        <ele>1542.0</ele>
        <time>2017-07-22T17:12:10Z</time>
      </trkpt>
      <trkpt lat="44.1804040" lon="7.6021510">
        <ele>1541.6</ele>
        <time>2017-07-22T17:12:11Z</time>
      </trkpt>
      <trkpt lat="44.1805570" lon="7.6022700">
        <ele>1540.2</ele>
        <time>2017-07-22T17:12:14Z</time>
      </trkpt>
      <trkpt lat="44.1806030" lon="7.6023040">
        <ele>1538.2</ele>
        <time>2017-07-22T17:12:15Z</time>
      </trkpt>
      <trkpt lat="44.1806460" lon="7.6023430">
        <ele>1537.4</ele>
        <time>2017-07-22T17:12:16Z</time>
      </trkpt>
      <trkpt lat="44.1806850" lon="7.6023930">
        <ele>1536.6</ele>
        <time>2017-07-22T17:12:17Z</time>
      </trkpt>
      <trkpt lat="44.1807420" lon="7.6025030">
        <ele>1534.6</ele>
        <time>2017-07-22T17:12:19Z</time>
      </trkpt>
      <trkpt lat="44.1807720" lon="7.6026340">
        <ele>1532.8</ele>
        <time>2017-07-22T17:12:21Z</time>
      </trkpt>
      <trkpt lat="44.1807860" lon="7.6027430">
        <ele>1531.2</ele>
        <time>2017-07-22T17:12:23Z</time>
      </trkpt>
      <trkpt lat="44.1807860" lon="7.6028350">
        <ele>1529.4</ele>
        <time>2017-07-22T17:12:25Z</time>
      </trkpt>
      <trkpt lat="44.1807610" lon="7.6028950">
        <ele>1527.4</ele>
        <time>2017-07-22T17:12:27Z</time>
      </trkpt>
      <trkpt lat="44.1807440" lon="7.6029150">
        <ele>1526.4</ele>
        <time>2017-07-22T17:12:28Z</time>
      </trkpt>
      <trkpt lat="44.1807140" lon="7.6029390">
        <ele>1525.2</ele>
        <time>2017-07-22T17:12:29Z</time>
      </trkpt>
      <trkpt lat="44.1806820" lon="7.6029670">
        <ele>1524.2</ele>
        <time>2017-07-22T17:12:30Z</time>
      </trkpt>
      <trkpt lat="44.1806490" lon="7.6029980">
        <ele>1523.0</ele>
        <time>2017-07-22T17:12:31Z</time>
      </trkpt>
      <trkpt lat="44.1805750" lon="7.6030760">
        <ele>1520.6</ele>
        <time>2017-07-22T17:12:33Z</time>
      </trkpt>
      <trkpt lat="44.1805410" lon="7.6031120">
        <ele>1519.4</ele>
        <time>2017-07-22T17:12:34Z</time>
      </trkpt>
      <trkpt lat="44.1805120" lon="7.6031420">
        <ele>1518.4</ele>
        <time>2017-07-22T17:12:35Z</time>
      </trkpt>
      <trkpt lat="44.1804800" lon="7.6031730">
        <ele>1517.4</ele>
        <time>2017-07-22T17:12:36Z</time>
      </trkpt>
      <trkpt lat="44.1804580" lon="7.6032120">
        <ele>1516.4</ele>
        <time>2017-07-22T17:12:37Z</time>
      </trkpt>
      <trkpt lat="44.1804420" lon="7.6032550">
        <ele>1515.4</ele>
        <time>2017-07-22T17:12:38Z</time>
      </trkpt>
      <trkpt lat="44.1804280" lon="7.6032980">
        <ele>1513.0</ele>
        <time>2017-07-22T17:12:39Z</time>
      </trkpt>
      <trkpt lat="44.1804060" lon="7.6033390">
        <ele>1511.6</ele>
        <time>2017-07-22T17:12:40Z</time>
      </trkpt>
      <trkpt lat="44.1803820" lon="7.6033820">
        <ele>1510.4</ele>
        <time>2017-07-22T17:12:41Z</time>
      </trkpt>
      <trkpt lat="44.1803430" lon="7.6034300">
        <ele>1509.2</ele>
        <time>2017-07-22T17:12:42Z</time>
      </trkpt>
      <trkpt lat="44.1803110" lon="7.6034650">
        <ele>1507.8</ele>
        <time>2017-07-22T17:12:43Z</time>
      </trkpt>
      <trkpt lat="44.1802710" lon="7.6035140">
        <ele>1506.4</ele>
        <time>2017-07-22T17:12:44Z</time>
      </trkpt>
      <trkpt lat="44.1802320" lon="7.6035630">
        <ele>1505.0</ele>
        <time>2017-07-22T17:12:45Z</time>
      </trkpt>
      <trkpt lat="44.1801910" lon="7.6036100">
        <ele>1503.6</ele>
        <time>2017-07-22T17:12:46Z</time>
      </trkpt>
      <trkpt lat="44.1801540" lon="7.6036600">
        <ele>1502.2</ele>
        <time>2017-07-22T17:12:47Z</time>
      </trkpt>
      <trkpt lat="44.1801170" lon="7.6037060">
        <ele>1500.8</ele>
        <time>2017-07-22T17:12:48Z</time>
      </trkpt>
      <trkpt lat="44.1800770" lon="7.6037510">
        <ele>1499.8</ele>
        <time>2017-07-22T17:12:49Z</time>
      </trkpt>
      <trkpt lat="44.1799830" lon="7.6038300">
        <ele>1497.8</ele>
        <time>2017-07-22T17:12:51Z</time>
      </trkpt>
      <trkpt lat="44.1799060" lon="7.6039060">
        <ele>1496.0</ele>
        <time>2017-07-22T17:12:53Z</time>
      </trkpt>
      <trkpt lat="44.1798520" lon="7.6039780">
        <ele>1494.8</ele>
        <time>2017-07-22T17:12:55Z</time>
      </trkpt>
      <trkpt lat="44.1798150" lon="7.6040620">
        <ele>1493.6</ele>
        <time>2017-07-22T17:12:57Z</time>
      </trkpt>
      <trkpt lat="44.1797980" lon="7.6041010">
        <ele>1493.0</ele>
        <time>2017-07-22T17:12:58Z</time>
      </trkpt>
      <trkpt lat="44.1797870" lon="7.6041300">
        <ele>1492.2</ele>
        <time>2017-07-22T17:12:59Z</time>
      </trkpt>
      <trkpt lat="44.1797690" lon="7.6042060">
        <ele>1490.6</ele>
        <time>2017-07-22T17:13:01Z</time>
      </trkpt>
      <trkpt lat="44.1797210" lon="7.6042980">
        <ele>1488.8</ele>
        <time>2017-07-22T17:13:03Z</time>
      </trkpt>
      <trkpt lat="44.1796460" lon="7.6043650">
        <ele>1487.4</ele>
        <time>2017-07-22T17:13:05Z</time>
      </trkpt>
      <trkpt lat="44.1795700" lon="7.6044130">
        <ele>1486.2</ele>
        <time>2017-07-22T17:13:07Z</time>
      </trkpt>
      <trkpt lat="44.1794880" lon="7.6044970">
        <ele>1485.0</ele>
        <time>2017-07-22T17:13:09Z</time>
      </trkpt>
      <trkpt lat="44.1794410" lon="7.6045500">
        <ele>1484.4</ele>
        <time>2017-07-22T17:13:10Z</time>
      </trkpt>
      <trkpt lat="44.1793940" lon="7.6045990">
        <ele>1484.0</ele>
        <time>2017-07-22T17:13:11Z</time>
      </trkpt>
      <trkpt lat="44.1793460" lon="7.6046530">
        <ele>1483.4</ele>
        <time>2017-07-22T17:13:12Z</time>
      </trkpt>
      <trkpt lat="44.1792920" lon="7.6047250">
        <ele>1483.0</ele>
        <time>2017-07-22T17:13:13Z</time>
      </trkpt>
      <trkpt lat="44.1791710" lon="7.6049470">
        <ele>1481.8</ele>
        <time>2017-07-22T17:13:16Z</time>
      </trkpt>
      <trkpt lat="44.1791130" lon="7.6051090">
        <ele>1481.2</ele>
        <time>2017-07-22T17:13:18Z</time>
      </trkpt>
      <trkpt lat="44.1790910" lon="7.6051940">
        <ele>1480.8</ele>
        <time>2017-07-22T17:13:19Z</time>
      </trkpt>
      <trkpt lat="44.1790680" lon="7.6052840">
        <ele>1480.6</ele>
        <time>2017-07-22T17:13:20Z</time>
      </trkpt>
      <trkpt lat="44.1790570" lon="7.6053880">
        <ele>1480.2</ele>
        <time>2017-07-22T17:13:21Z</time>
      </trkpt>
      <trkpt lat="44.1790530" lon="7.6055460">
        <ele>1479.4</ele>
        <time>2017-07-22T17:13:23Z</time>
      </trkpt>
      <trkpt lat="44.1790630" lon="7.6056580">
        <ele>1478.6</ele>
        <time>2017-07-22T17:13:25Z</time>
      </trkpt>
      <trkpt lat="44.1790610" lon="7.6057070">
        <ele>1478.2</ele>
        <time>2017-07-22T17:13:26Z</time>
      </trkpt>
      <trkpt lat="44.1790710" lon="7.6058030">
        <ele>1476.6</ele>
        <time>2017-07-22T17:13:28Z</time>
      </trkpt>
      <trkpt lat="44.1790700" lon="7.6059050">
        <ele>1475.6</ele>
        <time>2017-07-22T17:13:30Z</time>
      </trkpt>
      <trkpt lat="44.1790700" lon="7.6059580">
        <ele>1475.2</ele>
        <time>2017-07-22T17:13:31Z</time>
      </trkpt>
      <trkpt lat="44.1790580" lon="7.6060630">
        <ele>1474.0</ele>
        <time>2017-07-22T17:13:33Z</time>
      </trkpt>
      <trkpt lat="44.1790740" lon="7.6062300">
        <ele>1473.0</ele>
        <time>2017-07-22T17:13:36Z</time>
      </trkpt>
      <trkpt lat="44.1790950" lon="7.6063420">
        <ele>1472.2</ele>
        <time>2017-07-22T17:13:38Z</time>
      </trkpt>
      <trkpt lat="44.1791070" lon="7.6063850">
        <ele>1471.8</ele>
        <time>2017-07-22T17:13:39Z</time>
      </trkpt>
      <trkpt lat="44.1791160" lon="7.6064790">
        <ele>1470.6</ele>
        <time>2017-07-22T17:13:41Z</time>
      </trkpt>
      <trkpt lat="44.1791050" lon="7.6065590">
        <ele>1469.4</ele>
        <time>2017-07-22T17:13:43Z</time>
      </trkpt>
      <trkpt lat="44.1791170" lon="7.6067070">
        <ele>1468.0</ele>
        <time>2017-07-22T17:13:46Z</time>
      </trkpt>
      <trkpt lat="44.1791410" lon="7.6067940">
        <ele>1467.2</ele>
        <time>2017-07-22T17:13:47Z</time>
      </trkpt>
      <trkpt lat="44.1791530" lon="7.6068790">
        <ele>1466.4</ele>
        <time>2017-07-22T17:13:48Z</time>
      </trkpt>
      <trkpt lat="44.1791390" lon="7.6070380">
        <ele>1465.4</ele>
        <time>2017-07-22T17:13:50Z</time>
      </trkpt>
      <trkpt lat="44.1791450" lon="7.6071110">
        <ele>1465.2</ele>
        <time>2017-07-22T17:13:51Z</time>
      </trkpt>
      <trkpt lat="44.1791560" lon="7.6071770">
        <ele>1464.4</ele>
        <time>2017-07-22T17:13:52Z</time>
      </trkpt>
      <trkpt lat="44.1792120" lon="7.6073150">
        <ele>1463.4</ele>
        <time>2017-07-22T17:13:55Z</time>
      </trkpt>
      <trkpt lat="44.1792330" lon="7.6073570">
        <ele>1463.2</ele>
        <time>2017-07-22T17:13:56Z</time>
      </trkpt>
      <trkpt lat="44.1793520" lon="7.6075620">
        <ele>1461.8</ele>
        <time>2017-07-22T17:14:01Z</time>
      </trkpt>
      <trkpt lat="44.1793580" lon="7.6074770">
        <ele>1460.6</ele>
        <time>2017-07-22T17:14:04Z</time>
      </trkpt>
      <trkpt lat="44.1792780" lon="7.6072690">
        <ele>1459.4</ele>
        <time>2017-07-22T17:14:07Z</time>
      </trkpt>
      <trkpt lat="44.1792570" lon="7.6071990">
        <ele>1458.8</ele>
        <time>2017-07-22T17:14:08Z</time>
      </trkpt>
      <trkpt lat="44.1792440" lon="7.6071350">
        <ele>1458.4</ele>
        <time>2017-07-22T17:14:09Z</time>
      </trkpt>
      <trkpt lat="44.1792500" lon="7.6070790">
        <ele>1458.0</ele>
        <time>2017-07-22T17:14:10Z</time>
      </trkpt>
      <trkpt lat="44.1792710" lon="7.6070290">
        <ele>1457.0</ele>
        <time>2017-07-22T17:14:11Z</time>
      </trkpt>
      <trkpt lat="44.1793090" lon="7.6069660">
        <ele>1456.4</ele>
        <time>2017-07-22T17:14:12Z</time>
      </trkpt>
      <trkpt lat="44.1793450" lon="7.6068960">
        <ele>1455.6</ele>
        <time>2017-07-22T17:14:13Z</time>
      </trkpt>
      <trkpt lat="44.1793840" lon="7.6068350">
        <ele>1455.2</ele>
        <time>2017-07-22T17:14:14Z</time>
      </trkpt>
      <trkpt lat="44.1794820" lon="7.6067480">
        <ele>1453.0</ele>
        <time>2017-07-22T17:14:16Z</time>
      </trkpt>
      <trkpt lat="44.1795420" lon="7.6067120">
        <ele>1452.2</ele>
        <time>2017-07-22T17:14:17Z</time>
      </trkpt>
      <trkpt lat="44.1796020" lon="7.6066760">
        <ele>1451.8</ele>
        <time>2017-07-22T17:14:18Z</time>
      </trkpt>
      <trkpt lat="44.1797110" lon="7.6066380">
        <ele>1450.2</ele>
        <time>2017-07-22T17:14:20Z</time>
      </trkpt>
      <trkpt lat="44.1797640" lon="7.6066310">
        <ele>1449.0</ele>
        <time>2017-07-22T17:14:21Z</time>
      </trkpt>
      <trkpt lat="44.1798030" lon="7.6066450">
        <ele>1448.0</ele>
        <time>2017-07-22T17:14:22Z</time>
      </trkpt>
      <trkpt lat="44.1798430" lon="7.6066630">
        <ele>1447.0</ele>
        <time>2017-07-22T17:14:23Z</time>
      </trkpt>
      <trkpt lat="44.1799400" lon="7.6066610">
        <ele>1445.2</ele>
        <time>2017-07-22T17:14:25Z</time>
      </trkpt>
      <trkpt lat="44.1799920" lon="7.6066510">
        <ele>1444.6</ele>
        <time>2017-07-22T17:14:26Z</time>
      </trkpt>
      <trkpt lat="44.1800390" lon="7.6066330">
        <ele>1443.8</ele>
        <time>2017-07-22T17:14:27Z</time>
      </trkpt>
      <trkpt lat="44.1801730" lon="7.6066020">
        <ele>1442.6</ele>
        <time>2017-07-22T17:14:29Z</time>
      </trkpt>
      <trkpt lat="44.1802470" lon="7.6065800">
        <ele>1441.6</ele>
        <time>2017-07-22T17:14:30Z</time>
      </trkpt>
      <trkpt lat="44.1803200" lon="7.6065420">
        <ele>1440.8</ele>
        <time>2017-07-22T17:14:31Z</time>
      </trkpt>
      <trkpt lat="44.1804620" lon="7.6064200">
        <ele>1439.0</ele>
        <time>2017-07-22T17:14:33Z</time>
      </trkpt>
      <trkpt lat="44.1805220" lon="7.6063520">
        <ele>1438.0</ele>
        <time>2017-07-22T17:14:34Z</time>
      </trkpt>
      <trkpt lat="44.1805610" lon="7.6062840">
        <ele>1436.8</ele>
        <time>2017-07-22T17:14:35Z</time>
      </trkpt>
      <trkpt lat="44.1805950" lon="7.6062250">
        <ele>1435.6</ele>
        <time>2017-07-22T17:14:36Z</time>
      </trkpt>
      <trkpt lat="44.1806350" lon="7.6061960">
        <ele>1434.6</ele>
        <time>2017-07-22T17:14:37Z</time>
      </trkpt>
      <trkpt lat="44.1806730" lon="7.6061950">
        <ele>1433.8</ele>
        <time>2017-07-22T17:14:38Z</time>
      </trkpt>
      <trkpt lat="44.1807120" lon="7.6062060">
        <ele>1433.0</ele>
        <time>2017-07-22T17:14:39Z</time>
      </trkpt>
      <trkpt lat="44.1807540" lon="7.6062150">
        <ele>1431.4</ele>
        <time>2017-07-22T17:14:40Z</time>
      </trkpt>
      <trkpt lat="44.1808030" lon="7.6062060">
        <ele>1430.4</ele>
        <time>2017-07-22T17:14:41Z</time>
      </trkpt>
      <trkpt lat="44.1808560" lon="7.6061820">
        <ele>1429.6</ele>
        <time>2017-07-22T17:14:42Z</time>
      </trkpt>
      <trkpt lat="44.1809090" lon="7.6061560">
        <ele>1428.6</ele>
        <time>2017-07-22T17:14:43Z</time>
      </trkpt>
      <trkpt lat="44.1810140" lon="7.6061130">
        <ele>1426.4</ele>
        <time>2017-07-22T17:14:45Z</time>
      </trkpt>
      <trkpt lat="44.1810600" lon="7.6060720">
        <ele>1425.4</ele>
        <time>2017-07-22T17:14:46Z</time>
      </trkpt>
      <trkpt lat="44.1810940" lon="7.6060260">
        <ele>1424.4</ele>
        <time>2017-07-22T17:14:47Z</time>
      </trkpt>
      <trkpt lat="44.1811130" lon="7.6059720">
        <ele>1423.2</ele>
        <time>2017-07-22T17:14:48Z</time>
      </trkpt>
      <trkpt lat="44.1811300" lon="7.6059160">
        <ele>1422.2</ele>
        <time>2017-07-22T17:14:49Z</time>
      </trkpt>
      <trkpt lat="44.1811500" lon="7.6058610">
        <ele>1421.0</ele>
        <time>2017-07-22T17:14:50Z</time>
      </trkpt>
      <trkpt lat="44.1811770" lon="7.6058140">
        <ele>1420.0</ele>
        <time>2017-07-22T17:14:51Z</time>
      </trkpt>
      <trkpt lat="44.1812160" lon="7.6057790">
        <ele>1418.8</ele>
        <time>2017-07-22T17:14:52Z</time>
      </trkpt>
      <trkpt lat="44.1812620" lon="7.6057190">
        <ele>1417.6</ele>
        <time>2017-07-22T17:14:53Z</time>
      </trkpt>
      <trkpt lat="44.1813100" lon="7.6056490">
        <ele>1416.6</ele>
        <time>2017-07-22T17:14:54Z</time>
      </trkpt>
      <trkpt lat="44.1813580" lon="7.6055790">
        <ele>1415.6</ele>
        <time>2017-07-22T17:14:55Z</time>
      </trkpt>
      <trkpt lat="44.1814630" lon="7.6054850">
        <ele>1413.4</ele>
        <time>2017-07-22T17:14:57Z</time>
      </trkpt>
      <trkpt lat="44.1815060" lon="7.6054650">
        <ele>1412.2</ele>
        <time>2017-07-22T17:14:58Z</time>
      </trkpt>
      <trkpt lat="44.1815410" lon="7.6054690">
        <ele>1411.0</ele>
        <time>2017-07-22T17:14:59Z</time>
      </trkpt>
      <trkpt lat="44.1815560" lon="7.6055060">
        <ele>1410.0</ele>
        <time>2017-07-22T17:15:00Z</time>
      </trkpt>
      <trkpt lat="44.1815650" lon="7.6055560">
        <ele>1409.0</ele>
        <time>2017-07-22T17:15:01Z</time>
      </trkpt>
      <trkpt lat="44.1815720" lon="7.6056020">
        <ele>1407.8</ele>
        <time>2017-07-22T17:15:02Z</time>
      </trkpt>
      <trkpt lat="44.1815890" lon="7.6056340">
        <ele>1406.8</ele>
        <time>2017-07-22T17:15:03Z</time>
      </trkpt>
      <trkpt lat="44.1816170" lon="7.6056280">
        <ele>1405.0</ele>
        <time>2017-07-22T17:15:04Z</time>
      </trkpt>
      <trkpt lat="44.1816530" lon="7.6055910">
        <ele>1404.0</ele>
        <time>2017-07-22T17:15:05Z</time>
      </trkpt>
      <trkpt lat="44.1817000" lon="7.6055290">
        <ele>1403.0</ele>
        <time>2017-07-22T17:15:06Z</time>
      </trkpt>
      <trkpt lat="44.1817600" lon="7.6054550">
        <ele>1402.2</ele>
        <time>2017-07-22T17:15:07Z</time>
      </trkpt>
      <trkpt lat="44.1818230" lon="7.6053770">
        <ele>1401.2</ele>
        <time>2017-07-22T17:15:08Z</time>
      </trkpt>
      <trkpt lat="44.1819530" lon="7.6051880">
        <ele>1400.0</ele>
        <time>2017-07-22T17:15:10Z</time>
      </trkpt>
      <trkpt lat="44.1820940" lon="7.6050170">
        <ele>1397.6</ele>
        <time>2017-07-22T17:15:12Z</time>
      </trkpt>
      <trkpt lat="44.1822510" lon="7.6048670">
        <ele>1395.4</ele>
        <time>2017-07-22T17:15:14Z</time>
      </trkpt>
      <trkpt lat="44.1823360" lon="7.6047930">
        <ele>1394.4</ele>
        <time>2017-07-22T17:15:15Z</time>
      </trkpt>
      <trkpt lat="44.1825260" lon="7.6046560">
        <ele>1392.6</ele>
        <time>2017-07-22T17:15:17Z</time>
      </trkpt>
      <trkpt lat="44.1826220" lon="7.6045840">
        <ele>1391.6</ele>
        <time>2017-07-22T17:15:18Z</time>
      </trkpt>
      <trkpt lat="44.1827180" lon="7.6045020">
        <ele>1390.4</ele>
        <time>2017-07-22T17:15:19Z</time>
      </trkpt>
      <trkpt lat="44.1828960" lon="7.6043170">
        <ele>1388.2</ele>
        <time>2017-07-22T17:15:21Z</time>
      </trkpt>
      <trkpt lat="44.1829770" lon="7.6042050">
        <ele>1387.4</ele>
        <time>2017-07-22T17:15:22Z</time>
      </trkpt>
      <trkpt lat="44.1830530" lon="7.6040790">
        <ele>1386.2</ele>
        <time>2017-07-22T17:15:23Z</time>
      </trkpt>
      <trkpt lat="44.1831290" lon="7.6039460">
        <ele>1385.0</ele>
        <time>2017-07-22T17:15:24Z</time>
      </trkpt>
      <trkpt lat="44.1832030" lon="7.6038170">
        <ele>1384.0</ele>
        <time>2017-07-22T17:15:25Z</time>
      </trkpt>
      <trkpt lat="44.1832750" lon="7.6036950">
        <ele>1382.6</ele>
        <time>2017-07-22T17:15:26Z</time>
      </trkpt>
      <trkpt lat="44.1833430" lon="7.6035830">
        <ele>1381.6</ele>
        <time>2017-07-22T17:15:27Z</time>
      </trkpt>
      <trkpt lat="44.1834040" lon="7.6034850">
        <ele>1378.8</ele>
        <time>2017-07-22T17:15:28Z</time>
      </trkpt>
      <trkpt lat="44.1834540" lon="7.6033950">
        <ele>1377.4</ele>
        <time>2017-07-22T17:15:29Z</time>
      </trkpt>
      <trkpt lat="44.1834990" lon="7.6033160">
        <ele>1376.0</ele>
        <time>2017-07-22T17:15:30Z</time>
      </trkpt>
      <trkpt lat="44.1835420" lon="7.6032470">
        <ele>1374.6</ele>
        <time>2017-07-22T17:15:31Z</time>
      </trkpt>
      <trkpt lat="44.1835870" lon="7.6032060">
        <ele>1373.2</ele>
        <time>2017-07-22T17:15:32Z</time>
      </trkpt>
      <trkpt lat="44.1836280" lon="7.6031910">
        <ele>1372.0</ele>
        <time>2017-07-22T17:15:33Z</time>
      </trkpt>
      <trkpt lat="44.1836580" lon="7.6032010">
        <ele>1370.8</ele>
        <time>2017-07-22T17:15:34Z</time>
      </trkpt>
      <trkpt lat="44.1836840" lon="7.6032850">
        <ele>1369.8</ele>
        <time>2017-07-22T17:15:35Z</time>
      </trkpt>
      <trkpt lat="44.1836940" lon="7.6033850">
        <ele>1368.8</ele>
        <time>2017-07-22T17:15:36Z</time>
      </trkpt>
      <trkpt lat="44.1836960" lon="7.6036240">
        <ele>1367.2</ele>
        <time>2017-07-22T17:15:38Z</time>
      </trkpt>
      <trkpt lat="44.1837060" lon="7.6038610">
        <ele>1365.8</ele>
        <time>2017-07-22T17:15:40Z</time>
      </trkpt>
      <trkpt lat="44.1837100" lon="7.6041100">
        <ele>1364.0</ele>
        <time>2017-07-22T17:15:42Z</time>
      </trkpt>
      <trkpt lat="44.1836990" lon="7.6042400">
        <ele>1363.4</ele>
        <time>2017-07-22T17:15:43Z</time>
      </trkpt>
      <trkpt lat="44.1836870" lon="7.6043730">
        <ele>1362.6</ele>
        <time>2017-07-22T17:15:44Z</time>
      </trkpt>
      <trkpt lat="44.1836620" lon="7.6046520">
        <ele>1361.2</ele>
        <time>2017-07-22T17:15:46Z</time>
      </trkpt>
      <trkpt lat="44.1836390" lon="7.6049160">
        <ele>1359.6</ele>
        <time>2017-07-22T17:15:48Z</time>
      </trkpt>
      <trkpt lat="44.1836350" lon="7.6051190">
        <ele>1357.6</ele>
        <time>2017-07-22T17:15:50Z</time>
      </trkpt>
      <trkpt lat="44.1837110" lon="7.6051920">
        <ele>1354.4</ele>
        <time>2017-07-22T17:15:52Z</time>
      </trkpt>
      <trkpt lat="44.1837670" lon="7.6051750">
        <ele>1353.2</ele>
        <time>2017-07-22T17:15:53Z</time>
      </trkpt>
      <trkpt lat="44.1838250" lon="7.6051360">
        <ele>1352.0</ele>
        <time>2017-07-22T17:15:54Z</time>
      </trkpt>
      <trkpt lat="44.1838910" lon="7.6050810">
        <ele>1351.2</ele>
        <time>2017-07-22T17:15:55Z</time>
      </trkpt>
      <trkpt lat="44.1839640" lon="7.6050180">
        <ele>1350.2</ele>
        <time>2017-07-22T17:15:56Z</time>
      </trkpt>
      <trkpt lat="44.1840310" lon="7.6049320">
        <ele>1349.0</ele>
        <time>2017-07-22T17:15:57Z</time>
      </trkpt>
      <trkpt lat="44.1840850" lon="7.6048390">
        <ele>1348.0</ele>
        <time>2017-07-22T17:15:58Z</time>
      </trkpt>
      <trkpt lat="44.1841410" lon="7.6046290">
        <ele>1346.2</ele>
        <time>2017-07-22T17:16:00Z</time>
      </trkpt>
      <trkpt lat="44.1841300" lon="7.6045120">
        <ele>1345.0</ele>
        <time>2017-07-22T17:16:01Z</time>
      </trkpt>
      <trkpt lat="44.1841220" lon="7.6043880">
        <ele>1344.0</ele>
        <time>2017-07-22T17:16:02Z</time>
      </trkpt>
      <trkpt lat="44.1841030" lon="7.6041330">
        <ele>1342.0</ele>
        <time>2017-07-22T17:16:04Z</time>
      </trkpt>
      <trkpt lat="44.1841080" lon="7.6040100">
        <ele>1341.2</ele>
        <time>2017-07-22T17:16:05Z</time>
      </trkpt>
      <trkpt lat="44.1841250" lon="7.6038870">
        <ele>1340.2</ele>
        <time>2017-07-22T17:16:06Z</time>
      </trkpt>
      <trkpt lat="44.1842050" lon="7.6036440">
        <ele>1338.6</ele>
        <time>2017-07-22T17:16:08Z</time>
      </trkpt>
      <trkpt lat="44.1842540" lon="7.6035180">
        <ele>1337.8</ele>
        <time>2017-07-22T17:16:09Z</time>
      </trkpt>
      <trkpt lat="44.1843070" lon="7.6033840">
        <ele>1336.8</ele>
        <time>2017-07-22T17:16:10Z</time>
      </trkpt>
      <trkpt lat="44.1843670" lon="7.6032450">
        <ele>1335.8</ele>
        <time>2017-07-22T17:16:11Z</time>
      </trkpt>
      <trkpt lat="44.1844190" lon="7.6031090">
        <ele>1334.8</ele>
        <time>2017-07-22T17:16:12Z</time>
      </trkpt>
      <trkpt lat="44.1844670" lon="7.6029840">
        <ele>1333.8</ele>
        <time>2017-07-22T17:16:13Z</time>
      </trkpt>
      <trkpt lat="44.1845120" lon="7.6028670">
        <ele>1332.8</ele>
        <time>2017-07-22T17:16:14Z</time>
      </trkpt>
      <trkpt lat="44.1845510" lon="7.6027460">
        <ele>1331.8</ele>
        <time>2017-07-22T17:16:15Z</time>
      </trkpt>
      <trkpt lat="44.1845810" lon="7.6026210">
        <ele>1329.4</ele>
        <time>2017-07-22T17:16:16Z</time>
      </trkpt>
      <trkpt lat="44.1846030" lon="7.6024930">
        <ele>1328.6</ele>
        <time>2017-07-22T17:16:17Z</time>
      </trkpt>
      <trkpt lat="44.1846140" lon="7.6023750">
        <ele>1327.4</ele>
        <time>2017-07-22T17:16:18Z</time>
      </trkpt>
      <trkpt lat="44.1846190" lon="7.6021640">
        <ele>1325.2</ele>
        <time>2017-07-22T17:16:20Z</time>
      </trkpt>
      <trkpt lat="44.1846170" lon="7.6020820">
        <ele>1324.4</ele>
        <time>2017-07-22T17:16:21Z</time>
      </trkpt>
      <trkpt lat="44.1846280" lon="7.6020190">
        <ele>1323.4</ele>
        <time>2017-07-22T17:16:22Z</time>
      </trkpt>
      <trkpt lat="44.1846920" lon="7.6019690">
        <ele>1321.6</ele>
        <time>2017-07-22T17:16:24Z</time>
      </trkpt>
      <trkpt lat="44.1847550" lon="7.6020550">
        <ele>1320.0</ele>
        <time>2017-07-22T17:16:26Z</time>
      </trkpt>
      <trkpt lat="44.1847890" lon="7.6022330">
        <ele>1319.0</ele>
        <time>2017-07-22T17:16:28Z</time>
      </trkpt>
      <trkpt lat="44.1847870" lon="7.6023380">
        <ele>1318.4</ele>
        <time>2017-07-22T17:16:29Z</time>
      </trkpt>
      <trkpt lat="44.1847790" lon="7.6024480">
        <ele>1317.4</ele>
        <time>2017-07-22T17:16:30Z</time>
      </trkpt>
      <trkpt lat="44.1847670" lon="7.6025590">
        <ele>1316.8</ele>
        <time>2017-07-22T17:16:31Z</time>
      </trkpt>
      <trkpt lat="44.1847650" lon="7.6027250">
        <ele>1316.2</ele>
        <time>2017-07-22T17:16:33Z</time>
      </trkpt>
      <trkpt lat="44.1848220" lon="7.6027620">
        <ele>1314.4</ele>
        <time>2017-07-22T17:16:35Z</time>
      </trkpt>
      <trkpt lat="44.1848790" lon="7.6026470">
        <ele>1312.6</ele>
        <time>2017-07-22T17:16:37Z</time>
      </trkpt>
      <trkpt lat="44.1849240" lon="7.6024520">
        <ele>1311.4</ele>
        <time>2017-07-22T17:16:39Z</time>
      </trkpt>
      <trkpt lat="44.1849400" lon="7.6023350">
        <ele>1310.2</ele>
        <time>2017-07-22T17:16:40Z</time>
      </trkpt>
      <trkpt lat="44.1849480" lon="7.6020820">
        <ele>1309.0</ele>
        <time>2017-07-22T17:16:42Z</time>
      </trkpt>
      <trkpt lat="44.1849170" lon="7.6018710">
        <ele>1307.4</ele>
        <time>2017-07-22T17:16:44Z</time>
      </trkpt>
      <trkpt lat="44.1848630" lon="7.6016720">
        <ele>1305.8</ele>
        <time>2017-07-22T17:16:46Z</time>
      </trkpt>
      <trkpt lat="44.1847980" lon="7.6014360">
        <ele>1304.4</ele>
        <time>2017-07-22T17:16:48Z</time>
      </trkpt>
      <trkpt lat="44.1847620" lon="7.6013080">
        <ele>1303.2</ele>
        <time>2017-07-22T17:16:49Z</time>
      </trkpt>
      <trkpt lat="44.1847250" lon="7.6011800">
        <ele>1302.0</ele>
        <time>2017-07-22T17:16:50Z</time>
      </trkpt>
      <trkpt lat="44.1846430" lon="7.6009350">
        <ele>1300.6</ele>
        <time>2017-07-22T17:16:52Z</time>
      </trkpt>
      <trkpt lat="44.1845400" lon="7.6006970">
        <ele>1298.4</ele>
        <time>2017-07-22T17:16:54Z</time>
      </trkpt>
      <trkpt lat="44.1844910" lon="7.6005860">
        <ele>1297.2</ele>
        <time>2017-07-22T17:16:55Z</time>
      </trkpt>
      <trkpt lat="44.1844070" lon="7.6003910">
        <ele>1295.4</ele>
        <time>2017-07-22T17:16:57Z</time>
      </trkpt>
      <trkpt lat="44.1843830" lon="7.6003030">
        <ele>1294.6</ele>
        <time>2017-07-22T17:16:58Z</time>
      </trkpt>
      <trkpt lat="44.1843730" lon="7.6002180">
        <ele>1293.2</ele>
        <time>2017-07-22T17:16:59Z</time>
      </trkpt>
      <trkpt lat="44.1843740" lon="7.6001280">
        <ele>1291.6</ele>
        <time>2017-07-22T17:17:00Z</time>
      </trkpt>
      <trkpt lat="44.1843840" lon="7.6000370">
        <ele>1290.6</ele>
        <time>2017-07-22T17:17:01Z</time>
      </trkpt>
      <trkpt lat="44.1844420" lon="7.5998650">
        <ele>1288.8</ele>
        <time>2017-07-22T17:17:03Z</time>
      </trkpt>
      <trkpt lat="44.1844850" lon="7.5997770">
        <ele>1286.6</ele>
        <time>2017-07-22T17:17:04Z</time>
      </trkpt>
      <trkpt lat="44.1846190" lon="7.5995700">
        <ele>1284.8</ele>
        <time>2017-07-22T17:17:06Z</time>
      </trkpt>
      <trkpt lat="44.1847620" lon="7.5993320">
        <ele>1283.0</ele>
        <time>2017-07-22T17:17:08Z</time>
      </trkpt>
      <trkpt lat="44.1848880" lon="7.5990680">
        <ele>1280.8</ele>
        <time>2017-07-22T17:17:10Z</time>
      </trkpt>
      <trkpt lat="44.1849430" lon="7.5989480">
        <ele>1279.6</ele>
        <time>2017-07-22T17:17:11Z</time>
      </trkpt>
      <trkpt lat="44.1849910" lon="7.5988290">
        <ele>1278.4</ele>
        <time>2017-07-22T17:17:12Z</time>
      </trkpt>
      <trkpt lat="44.1850320" lon="7.5987030">
        <ele>1277.2</ele>
        <time>2017-07-22T17:17:13Z</time>
      </trkpt>
      <trkpt lat="44.1850960" lon="7.5984740">
        <ele>1275.4</ele>
        <time>2017-07-22T17:17:15Z</time>
      </trkpt>
      <trkpt lat="44.1851000" lon="7.5983700">
        <ele>1274.2</ele>
        <time>2017-07-22T17:17:16Z</time>
      </trkpt>
      <trkpt lat="44.1850990" lon="7.5982710">
        <ele>1273.2</ele>
        <time>2017-07-22T17:17:17Z</time>
      </trkpt>
      <trkpt lat="44.1850900" lon="7.5981750">
        <ele>1272.0</ele>
        <time>2017-07-22T17:17:18Z</time>
      </trkpt>
      <trkpt lat="44.1850220" lon="7.5979970">
        <ele>1270.2</ele>
        <time>2017-07-22T17:17:20Z</time>
      </trkpt>
      <trkpt lat="44.1849840" lon="7.5979150">
        <ele>1269.4</ele>
        <time>2017-07-22T17:17:21Z</time>
      </trkpt>
      <trkpt lat="44.1849450" lon="7.5978360">
        <ele>1268.6</ele>
        <time>2017-07-22T17:17:22Z</time>
      </trkpt>
      <trkpt lat="44.1848980" lon="7.5976820">
        <ele>1266.4</ele>
        <time>2017-07-22T17:17:24Z</time>
      </trkpt>
      <trkpt lat="44.1849010" lon="7.5976060">
        <ele>1265.6</ele>
        <time>2017-07-22T17:17:25Z</time>
      </trkpt>
      <trkpt lat="44.1849180" lon="7.5975180">
        <ele>1264.6</ele>
        <time>2017-07-22T17:17:26Z</time>
      </trkpt>
      <trkpt lat="44.1849550" lon="7.5973220">
        <ele>1262.4</ele>
        <time>2017-07-22T17:17:28Z</time>
      </trkpt>
      <trkpt lat="44.1850040" lon="7.5971060">
        <ele>1260.8</ele>
        <time>2017-07-22T17:17:30Z</time>
      </trkpt>
      <trkpt lat="44.1850690" lon="7.5968810">
        <ele>1259.4</ele>
        <time>2017-07-22T17:17:32Z</time>
      </trkpt>
      <trkpt lat="44.1851470" lon="7.5966310">
        <ele>1258.0</ele>
        <time>2017-07-22T17:17:34Z</time>
      </trkpt>
      <trkpt lat="44.1852170" lon="7.5963430">
        <ele>1256.0</ele>
        <time>2017-07-22T17:17:36Z</time>
      </trkpt>
      <trkpt lat="44.1852560" lon="7.5961870">
        <ele>1254.8</ele>
        <time>2017-07-22T17:17:37Z</time>
      </trkpt>
      <trkpt lat="44.1853420" lon="7.5958760">
        <ele>1253.2</ele>
        <time>2017-07-22T17:17:39Z</time>
      </trkpt>
      <trkpt lat="44.1853830" lon="7.5957260">
        <ele>1252.4</ele>
        <time>2017-07-22T17:17:40Z</time>
      </trkpt>
      <trkpt lat="44.1854190" lon="7.5955970">
        <ele>1251.8</ele>
        <time>2017-07-22T17:17:41Z</time>
      </trkpt>
      <trkpt lat="44.1854480" lon="7.5954680">
        <ele>1250.6</ele>
        <time>2017-07-22T17:17:42Z</time>
      </trkpt>
      <trkpt lat="44.1854710" lon="7.5953400">
        <ele>1249.6</ele>
        <time>2017-07-22T17:17:43Z</time>
      </trkpt>
      <trkpt lat="44.1854840" lon="7.5952140">
        <ele>1248.8</ele>
        <time>2017-07-22T17:17:44Z</time>
      </trkpt>
      <trkpt lat="44.1854960" lon="7.5950950">
        <ele>1247.8</ele>
        <time>2017-07-22T17:17:45Z</time>
      </trkpt>
      <trkpt lat="44.1855520" lon="7.5948620">
        <ele>1246.0</ele>
        <time>2017-07-22T17:17:47Z</time>
      </trkpt>
      <trkpt lat="44.1856660" lon="7.5946530">
        <ele>1244.0</ele>
        <time>2017-07-22T17:17:49Z</time>
      </trkpt>
      <trkpt lat="44.1857260" lon="7.5945520">
        <ele>1243.2</ele>
        <time>2017-07-22T17:17:50Z</time>
      </trkpt>
      <trkpt lat="44.1857960" lon="7.5944550">
        <ele>1242.4</ele>
        <time>2017-07-22T17:17:51Z</time>
      </trkpt>
      <trkpt lat="44.1858660" lon="7.5943530">
        <ele>1240.8</ele>
        <time>2017-07-22T17:17:52Z</time>
      </trkpt>
      <trkpt lat="44.1859300" lon="7.5942430">
        <ele>1240.0</ele>
        <time>2017-07-22T17:17:53Z</time>
      </trkpt>
      <trkpt lat="44.1859850" lon="7.5941260">
        <ele>1239.0</ele>
        <time>2017-07-22T17:17:54Z</time>
      </trkpt>
      <trkpt lat="44.1860530" lon="7.5940020">
        <ele>1238.2</ele>
        <time>2017-07-22T17:17:55Z</time>
      </trkpt>
      <trkpt lat="44.1861160" lon="7.5938790">
        <ele>1237.6</ele>
        <time>2017-07-22T17:17:56Z</time>
      </trkpt>
      <trkpt lat="44.1862320" lon="7.5936170">
        <ele>1235.8</ele>
        <time>2017-07-22T17:17:58Z</time>
      </trkpt>
      <trkpt lat="44.1863470" lon="7.5933280">
        <ele>1233.8</ele>
        <time>2017-07-22T17:18:00Z</time>
      </trkpt>
      <trkpt lat="44.1864120" lon="7.5931760">
        <ele>1233.2</ele>
        <time>2017-07-22T17:18:01Z</time>
      </trkpt>
      <trkpt lat="44.1864880" lon="7.5930250">
        <ele>1232.2</ele>
        <time>2017-07-22T17:18:02Z</time>
      </trkpt>
      <trkpt lat="44.1866230" lon="7.5927340">
        <ele>1230.2</ele>
        <time>2017-07-22T17:18:04Z</time>
      </trkpt>
      <trkpt lat="44.1866850" lon="7.5925900">
        <ele>1229.2</ele>
        <time>2017-07-22T17:18:05Z</time>
      </trkpt>
      <trkpt lat="44.1867520" lon="7.5924520">
        <ele>1227.8</ele>
        <time>2017-07-22T17:18:06Z</time>
      </trkpt>
      <trkpt lat="44.1868170" lon="7.5923140">
        <ele>1226.4</ele>
        <time>2017-07-22T17:18:07Z</time>
      </trkpt>
      <trkpt lat="44.1868830" lon="7.5921770">
        <ele>1225.2</ele>
        <time>2017-07-22T17:18:08Z</time>
      </trkpt>
      <trkpt lat="44.1869540" lon="7.5920450">
        <ele>1224.0</ele>
        <time>2017-07-22T17:18:09Z</time>
      </trkpt>
      <trkpt lat="44.1870280" lon="7.5919100">
        <ele>1223.0</ele>
        <time>2017-07-22T17:18:10Z</time>
      </trkpt>
      <trkpt lat="44.1870950" lon="7.5917790">
        <ele>1221.8</ele>
        <time>2017-07-22T17:18:11Z</time>
      </trkpt>
      <trkpt lat="44.1871520" lon="7.5916540">
        <ele>1220.6</ele>
        <time>2017-07-22T17:18:12Z</time>
      </trkpt>
      <trkpt lat="44.1872020" lon="7.5915340">
        <ele>1219.4</ele>
        <time>2017-07-22T17:18:13Z</time>
      </trkpt>
      <trkpt lat="44.1872490" lon="7.5914090">
        <ele>1218.0</ele>
        <time>2017-07-22T17:18:14Z</time>
      </trkpt>
      <trkpt lat="44.1872850" lon="7.5912740">
        <ele>1216.8</ele>
        <time>2017-07-22T17:18:15Z</time>
      </trkpt>
      <trkpt lat="44.1873220" lon="7.5911330">
        <ele>1214.4</ele>
        <time>2017-07-22T17:18:16Z</time>
      </trkpt>
      <trkpt lat="44.1873500" lon="7.5909980">
        <ele>1213.0</ele>
        <time>2017-07-22T17:18:17Z</time>
      </trkpt>
      <trkpt lat="44.1873760" lon="7.5908780">
        <ele>1211.8</ele>
        <time>2017-07-22T17:18:18Z</time>
      </trkpt>
      <trkpt lat="44.1874030" lon="7.5907790">
        <ele>1210.6</ele>
        <time>2017-07-22T17:18:19Z</time>
      </trkpt>
      <trkpt lat="44.1874340" lon="7.5907040">
        <ele>1209.4</ele>
        <time>2017-07-22T17:18:20Z</time>
      </trkpt>
      <trkpt lat="44.1874850" lon="7.5906580">
        <ele>1208.2</ele>
        <time>2017-07-22T17:18:21Z</time>
      </trkpt>
      <trkpt lat="44.1875420" lon="7.5906470">
        <ele>1207.0</ele>
        <time>2017-07-22T17:18:22Z</time>
      </trkpt>
      <trkpt lat="44.1875750" lon="7.5906420">
        <ele>1205.8</ele>
        <time>2017-07-22T17:18:23Z</time>
      </trkpt>
      <trkpt lat="44.1875930" lon="7.5906260">
        <ele>1204.6</ele>
        <time>2017-07-22T17:18:24Z</time>
      </trkpt>
      <trkpt lat="44.1876040" lon="7.5906200">
        <ele>1203.4</ele>
        <time>2017-07-22T17:18:25Z</time>
      </trkpt>
      <trkpt lat="44.1876120" lon="7.5906120">
        <ele>1202.4</ele>
        <time>2017-07-22T17:18:26Z</time>
      </trkpt>
      <trkpt lat="44.1876180" lon="7.5906080">
        <ele>1201.2</ele>
        <time>2017-07-22T17:18:27Z</time>
      </trkpt>
      <trkpt lat="44.1876270" lon="7.5906030">
        <ele>1200.2</ele>
        <time>2017-07-22T17:18:28Z</time>
      </trkpt>
      <trkpt lat="44.1876420" lon="7.5905970">
        <ele>1199.4</ele>
        <time>2017-07-22T17:18:29Z</time>
      </trkpt>
      <trkpt lat="44.1876680" lon="7.5906000">
        <ele>1198.8</ele>
        <time>2017-07-22T17:18:30Z</time>
      </trkpt>
      <trkpt lat="44.1877390" lon="7.5905890">
        <ele>1197.0</ele>
        <time>2017-07-22T17:18:32Z</time>
      </trkpt>
      <trkpt lat="44.1878250" lon="7.5905160">
        <ele>1195.2</ele>
        <time>2017-07-22T17:18:34Z</time>
      </trkpt>
      <trkpt lat="44.1878920" lon="7.5905250">
        <ele>1193.6</ele>
        <time>2017-07-22T17:18:36Z</time>
      </trkpt>
      <trkpt lat="44.1879220" lon="7.5905470">
        <ele>1193.0</ele>
        <time>2017-07-22T17:18:37Z</time>
      </trkpt>
      <trkpt lat="44.1879460" lon="7.5905580">
        <ele>1192.2</ele>
        <time>2017-07-22T17:18:38Z</time>
      </trkpt>
      <trkpt lat="44.1880000" lon="7.5905690">
        <ele>1191.0</ele>
        <time>2017-07-22T17:18:40Z</time>
      </trkpt>
      <trkpt lat="44.1880310" lon="7.5905700">
        <ele>1190.4</ele>
        <time>2017-07-22T17:18:41Z</time>
      </trkpt>
      <trkpt lat="44.1880590" lon="7.5905670">
        <ele>1190.2</ele>
        <time>2017-07-22T17:18:42Z</time>
      </trkpt>
      <trkpt lat="44.1880890" lon="7.5905640">
        <ele>1189.4</ele>
        <time>2017-07-22T17:18:43Z</time>
      </trkpt>
      <trkpt lat="44.1882460" lon="7.5905550">
        <ele>1188.4</ele>
        <time>2017-07-22T17:18:48Z</time>
      </trkpt>
      <trkpt lat="44.1882760" lon="7.5905460">
        <ele>1187.8</ele>
        <time>2017-07-22T17:18:49Z</time>
      </trkpt>
      <trkpt lat="44.1883110" lon="7.5905290">
        <ele>1187.2</ele>
        <time>2017-07-22T17:18:50Z</time>
      </trkpt>
      <trkpt lat="44.1884750" lon="7.5904410">
        <ele>1186.2</ele>
        <time>2017-07-22T17:18:53Z</time>
      </trkpt>
      <trkpt lat="44.1885250" lon="7.5904140">
        <ele>1185.8</ele>
        <time>2017-07-22T17:18:54Z</time>
      </trkpt>
      <trkpt lat="44.1885750" lon="7.5903780">
        <ele>1185.4</ele>
        <time>2017-07-22T17:18:55Z</time>
      </trkpt>
      <trkpt lat="44.1887000" lon="7.5902980">
        <ele>1184.6</ele>
        <time>2017-07-22T17:18:57Z</time>
      </trkpt>
      <trkpt lat="44.1888180" lon="7.5902590">
        <ele>1184.0</ele>
        <time>2017-07-22T17:18:59Z</time>
      </trkpt>
      <trkpt lat="44.1889340" lon="7.5902210">
        <ele>1183.4</ele>
        <time>2017-07-22T17:19:01Z</time>
      </trkpt>
      <trkpt lat="44.1889930" lon="7.5901810">
        <ele>1182.8</ele>
        <time>2017-07-22T17:19:02Z</time>
      </trkpt>
      <trkpt lat="44.1890550" lon="7.5901310">
        <ele>1182.2</ele>
        <time>2017-07-22T17:19:03Z</time>
      </trkpt>
      <trkpt lat="44.1891200" lon="7.5900770">
        <ele>1181.2</ele>
        <time>2017-07-22T17:19:04Z</time>
      </trkpt>
      <trkpt lat="44.1891720" lon="7.5900210">
        <ele>1181.0</ele>
        <time>2017-07-22T17:19:05Z</time>
      </trkpt>
      <trkpt lat="44.1892940" lon="7.5899110">
        <ele>1180.2</ele>
        <time>2017-07-22T17:19:07Z</time>
      </trkpt>
      <trkpt lat="44.1893530" lon="7.5898550">
        <ele>1179.8</ele>
        <time>2017-07-22T17:19:08Z</time>
      </trkpt>
      <trkpt lat="44.1894080" lon="7.5897930">
        <ele>1179.4</ele>
        <time>2017-07-22T17:19:09Z</time>
      </trkpt>
      <trkpt lat="44.1896040" lon="7.5896220">
        <ele>1178.6</ele>
        <time>2017-07-22T17:19:12Z</time>
      </trkpt>
      <trkpt lat="44.1896660" lon="7.5895860">
        <ele>1178.2</ele>
        <time>2017-07-22T17:19:13Z</time>
      </trkpt>
      <trkpt lat="44.1897290" lon="7.5895480">
        <ele>1177.8</ele>
        <time>2017-07-22T17:19:14Z</time>
      </trkpt>
      <trkpt lat="44.1898380" lon="7.5894680">
        <ele>1177.2</ele>
        <time>2017-07-22T17:19:16Z</time>
      </trkpt>
      <trkpt lat="44.1899930" lon="7.5893390">
        <ele>1176.0</ele>
        <time>2017-07-22T17:19:19Z</time>
      </trkpt>
      <trkpt lat="44.1900410" lon="7.5892950">
        <ele>1175.6</ele>
        <time>2017-07-22T17:19:20Z</time>
      </trkpt>
      <trkpt lat="44.1901140" lon="7.5891820">
        <ele>1174.8</ele>
        <time>2017-07-22T17:19:23Z</time>
      </trkpt>
      <trkpt lat="44.1902020" lon="7.5890410">
        <ele>1174.8</ele>
        <time>2017-07-22T17:19:27Z</time>
      </trkpt>
      <trkpt lat="44.1902400" lon="7.5889910">
        <ele>1175.2</ele>
        <time>2017-07-22T17:19:29Z</time>
      </trkpt>
      <trkpt lat="44.1902640" lon="7.5889660">
        <ele>1175.2</ele>
        <time>2017-07-22T17:19:30Z</time>
      </trkpt>
      <trkpt lat="44.1903660" lon="7.5889250">
        <ele>1175.4</ele>
        <time>2017-07-22T17:19:33Z</time>
      </trkpt>
      <trkpt lat="44.1904100" lon="7.5889250">
        <ele>1175.4</ele>
        <time>2017-07-22T17:19:34Z</time>
      </trkpt>
      <trkpt lat="44.1905750" lon="7.5889150">
        <ele>1174.4</ele>
        <time>2017-07-22T17:19:37Z</time>
      </trkpt>
      <trkpt lat="44.1906320" lon="7.5889010">
        <ele>1173.8</ele>
        <time>2017-07-22T17:19:38Z</time>
      </trkpt>
      <trkpt lat="44.1906880" lon="7.5888880">
        <ele>1173.8</ele>
        <time>2017-07-22T17:19:39Z</time>
      </trkpt>
      <trkpt lat="44.1908450" lon="7.5888360">
        <ele>1172.0</ele>
        <time>2017-07-22T17:19:42Z</time>
      </trkpt>
      <trkpt lat="44.1909510" lon="7.5888040">
        <ele>1170.8</ele>
        <time>2017-07-22T17:19:44Z</time>
      </trkpt>
      <trkpt lat="44.1910090" lon="7.5887780">
        <ele>1170.2</ele>
        <time>2017-07-22T17:19:45Z</time>
      </trkpt>
      <trkpt lat="44.1910600" lon="7.5887460">
        <ele>1169.2</ele>
        <time>2017-07-22T17:19:46Z</time>
      </trkpt>
      <trkpt lat="44.1911520" lon="7.5886690">
        <ele>1168.2</ele>
        <time>2017-07-22T17:19:48Z</time>
      </trkpt>
      <trkpt lat="44.1912060" lon="7.5886430">
        <ele>1167.6</ele>
        <time>2017-07-22T17:19:49Z</time>
      </trkpt>
      <trkpt lat="44.1912650" lon="7.5886240">
        <ele>1166.8</ele>
        <time>2017-07-22T17:19:50Z</time>
      </trkpt>
      <trkpt lat="44.1913360" lon="7.5886060">
        <ele>1166.0</ele>
        <time>2017-07-22T17:19:51Z</time>
      </trkpt>
      <trkpt lat="44.1914100" lon="7.5885900">
        <ele>1164.6</ele>
        <time>2017-07-22T17:19:52Z</time>
      </trkpt>
      <trkpt lat="44.1914910" lon="7.5885750">
        <ele>1163.4</ele>
        <time>2017-07-22T17:19:53Z</time>
      </trkpt>
      <trkpt lat="44.1916860" lon="7.5885200">
        <ele>1161.6</ele>
        <time>2017-07-22T17:19:55Z</time>
      </trkpt>
      <trkpt lat="44.1918570" lon="7.5884640">
        <ele>1159.6</ele>
        <time>2017-07-22T17:19:57Z</time>
      </trkpt>
      <trkpt lat="44.1919160" lon="7.5884400">
        <ele>1158.4</ele>
        <time>2017-07-22T17:19:58Z</time>
      </trkpt>
      <trkpt lat="44.1920300" lon="7.5883820">
        <ele>1156.6</ele>
        <time>2017-07-22T17:20:00Z</time>
      </trkpt>
      <trkpt lat="44.1921410" lon="7.5883150">
        <ele>1155.0</ele>
        <time>2017-07-22T17:20:02Z</time>
      </trkpt>
      <trkpt lat="44.1922650" lon="7.5882510">
        <ele>1153.4</ele>
        <time>2017-07-22T17:20:04Z</time>
      </trkpt>
      <trkpt lat="44.1923360" lon="7.5882110">
        <ele>1152.4</ele>
        <time>2017-07-22T17:20:05Z</time>
      </trkpt>
      <trkpt lat="44.1924080" lon="7.5881790">
        <ele>1151.4</ele>
        <time>2017-07-22T17:20:06Z</time>
      </trkpt>
      <trkpt lat="44.1925330" lon="7.5881230">
        <ele>1149.8</ele>
        <time>2017-07-22T17:20:08Z</time>
      </trkpt>
      <trkpt lat="44.1925750" lon="7.5881180">
        <ele>1149.0</ele>
        <time>2017-07-22T17:20:09Z</time>
      </trkpt>
      <trkpt lat="44.1926040" lon="7.5880990">
        <ele>1148.2</ele>
        <time>2017-07-22T17:20:10Z</time>
      </trkpt>
      <trkpt lat="44.1926680" lon="7.5880730">
        <ele>1146.6</ele>
        <time>2017-07-22T17:20:12Z</time>
      </trkpt>
      <trkpt lat="44.1927080" lon="7.5880720">
        <ele>1145.8</ele>
        <time>2017-07-22T17:20:13Z</time>
      </trkpt>
      <trkpt lat="44.1927430" lon="7.5880530">
        <ele>1145.0</ele>
        <time>2017-07-22T17:20:14Z</time>
      </trkpt>
      <trkpt lat="44.1927470" lon="7.5880150">
        <ele>1144.4</ele>
        <time>2017-07-22T17:20:15Z</time>
      </trkpt>
      <trkpt lat="44.1927250" lon="7.5879910">
        <ele>1142.6</ele>
        <time>2017-07-22T17:20:16Z</time>
      </trkpt>
      <trkpt lat="44.1926310" lon="7.5879990">
        <ele>1141.4</ele>
        <time>2017-07-22T17:20:18Z</time>
      </trkpt>
      <trkpt lat="44.1925740" lon="7.5880140">
        <ele>1140.8</ele>
        <time>2017-07-22T17:20:19Z</time>
      </trkpt>
      <trkpt lat="44.1925130" lon="7.5880210">
        <ele>1140.2</ele>
        <time>2017-07-22T17:20:20Z</time>
      </trkpt>
      <trkpt lat="44.1923070" lon="7.5880320">
        <ele>1138.8</ele>
        <time>2017-07-22T17:20:23Z</time>
      </trkpt>
      <trkpt lat="44.1920670" lon="7.5880480">
        <ele>1137.4</ele>
        <time>2017-07-22T17:20:26Z</time>
      </trkpt>
      <trkpt lat="44.1918940" lon="7.5880220">
        <ele>1136.4</ele>
        <time>2017-07-22T17:20:28Z</time>
      </trkpt>
      <trkpt lat="44.1918040" lon="7.5880050">
        <ele>1136.0</ele>
        <time>2017-07-22T17:20:29Z</time>
      </trkpt>
      <trkpt lat="44.1916110" lon="7.5879940">
        <ele>1134.8</ele>
        <time>2017-07-22T17:20:31Z</time>
      </trkpt>
      <trkpt lat="44.1914250" lon="7.5879500">
        <ele>1133.6</ele>
        <time>2017-07-22T17:20:33Z</time>
      </trkpt>
      <trkpt lat="44.1912440" lon="7.5878760">
        <ele>1132.4</ele>
        <time>2017-07-22T17:20:35Z</time>
      </trkpt>
      <trkpt lat="44.1910680" lon="7.5877600">
        <ele>1131.0</ele>
        <time>2017-07-22T17:20:37Z</time>
      </trkpt>
      <trkpt lat="44.1909810" lon="7.5876800">
        <ele>1130.2</ele>
        <time>2017-07-22T17:20:38Z</time>
      </trkpt>
      <trkpt lat="44.1908980" lon="7.5876000">
        <ele>1129.8</ele>
        <time>2017-07-22T17:20:39Z</time>
      </trkpt>
      <trkpt lat="44.1908140" lon="7.5875100">
        <ele>1128.4</ele>
        <time>2017-07-22T17:20:40Z</time>
      </trkpt>
      <trkpt lat="44.1907160" lon="7.5873910">
        <ele>1127.0</ele>
        <time>2017-07-22T17:20:42Z</time>
      </trkpt>
      <trkpt lat="44.1906950" lon="7.5873280">
        <ele>1125.6</ele>
        <time>2017-07-22T17:20:44Z</time>
      </trkpt>
      <trkpt lat="44.1907640" lon="7.5873280">
        <ele>1124.4</ele>
        <time>2017-07-22T17:20:46Z</time>
      </trkpt>
      <trkpt lat="44.1908020" lon="7.5873310">
        <ele>1123.8</ele>
        <time>2017-07-22T17:20:47Z</time>
      </trkpt>
      <trkpt lat="44.1908790" lon="7.5873360">
        <ele>1123.0</ele>
        <time>2017-07-22T17:20:48Z</time>
      </trkpt>
      <trkpt lat="44.1910530" lon="7.5873480">
        <ele>1121.8</ele>
        <time>2017-07-22T17:20:50Z</time>
      </trkpt>
      <trkpt lat="44.1911430" lon="7.5873510">
        <ele>1121.0</ele>
        <time>2017-07-22T17:20:51Z</time>
      </trkpt>
      <trkpt lat="44.1912320" lon="7.5873440">
        <ele>1120.0</ele>
        <time>2017-07-22T17:20:52Z</time>
      </trkpt>
      <trkpt lat="44.1913180" lon="7.5873280">
        <ele>1118.8</ele>
        <time>2017-07-22T17:20:53Z</time>
      </trkpt>
      <trkpt lat="44.1914950" lon="7.5872760">
        <ele>1117.0</ele>
        <time>2017-07-22T17:20:55Z</time>
      </trkpt>
      <trkpt lat="44.1916720" lon="7.5872340">
        <ele>1115.4</ele>
        <time>2017-07-22T17:20:57Z</time>
      </trkpt>
      <trkpt lat="44.1918450" lon="7.5872270">
        <ele>1113.0</ele>
        <time>2017-07-22T17:20:59Z</time>
      </trkpt>
      <trkpt lat="44.1919350" lon="7.5872270">
        <ele>1111.6</ele>
        <time>2017-07-22T17:21:00Z</time>
      </trkpt>
      <trkpt lat="44.1920280" lon="7.5872180">
        <ele>1110.6</ele>
        <time>2017-07-22T17:21:01Z</time>
      </trkpt>
      <trkpt lat="44.1922210" lon="7.5871940">
        <ele>1109.0</ele>
        <time>2017-07-22T17:21:03Z</time>
      </trkpt>
      <trkpt lat="44.1923230" lon="7.5871780">
        <ele>1106.8</ele>
        <time>2017-07-22T17:21:04Z</time>
      </trkpt>
      <trkpt lat="44.1924210" lon="7.5871700">
        <ele>1105.8</ele>
        <time>2017-07-22T17:21:05Z</time>
      </trkpt>
      <trkpt lat="44.1925840" lon="7.5871290">
        <ele>1103.8</ele>
        <time>2017-07-22T17:21:07Z</time>
      </trkpt>
      <trkpt lat="44.1926660" lon="7.5870920">
        <ele>1102.8</ele>
        <time>2017-07-22T17:21:08Z</time>
      </trkpt>
      <trkpt lat="44.1927460" lon="7.5870450">
        <ele>1101.4</ele>
        <time>2017-07-22T17:21:09Z</time>
      </trkpt>
      <trkpt lat="44.1928280" lon="7.5869940">
        <ele>1100.4</ele>
        <time>2017-07-22T17:21:10Z</time>
      </trkpt>
      <trkpt lat="44.1929960" lon="7.5868950">
        <ele>1099.0</ele>
        <time>2017-07-22T17:21:12Z</time>
      </trkpt>
      <trkpt lat="44.1931430" lon="7.5867830">
        <ele>1097.4</ele>
        <time>2017-07-22T17:21:14Z</time>
      </trkpt>
      <trkpt lat="44.1932170" lon="7.5867250">
        <ele>1096.0</ele>
        <time>2017-07-22T17:21:15Z</time>
      </trkpt>
      <trkpt lat="44.1933430" lon="7.5865990">
        <ele>1093.8</ele>
        <time>2017-07-22T17:21:17Z</time>
      </trkpt>
      <trkpt lat="44.1933970" lon="7.5865410">
        <ele>1092.8</ele>
        <time>2017-07-22T17:21:18Z</time>
      </trkpt>
      <trkpt lat="44.1934750" lon="7.5864760">
        <ele>1091.6</ele>
        <time>2017-07-22T17:21:19Z</time>
      </trkpt>
      <trkpt lat="44.1935420" lon="7.5864030">
        <ele>1090.4</ele>
        <time>2017-07-22T17:21:20Z</time>
      </trkpt>
      <trkpt lat="44.1935880" lon="7.5863520">
        <ele>1089.8</ele>
        <time>2017-07-22T17:21:21Z</time>
      </trkpt>
      <trkpt lat="44.1936390" lon="7.5863050">
        <ele>1088.6</ele>
        <time>2017-07-22T17:21:22Z</time>
      </trkpt>
      <trkpt lat="44.1936970" lon="7.5862580">
        <ele>1087.4</ele>
        <time>2017-07-22T17:21:23Z</time>
      </trkpt>
      <trkpt lat="44.1937590" lon="7.5862070">
        <ele>1086.4</ele>
        <time>2017-07-22T17:21:24Z</time>
      </trkpt>
      <trkpt lat="44.1938890" lon="7.5861250">
        <ele>1084.8</ele>
        <time>2017-07-22T17:21:26Z</time>
      </trkpt>
      <trkpt lat="44.1940290" lon="7.5860540">
        <ele>1082.0</ele>
        <time>2017-07-22T17:21:28Z</time>
      </trkpt>
      <trkpt lat="44.1941790" lon="7.5859860">
        <ele>1080.0</ele>
        <time>2017-07-22T17:21:30Z</time>
      </trkpt>
      <trkpt lat="44.1943280" lon="7.5859110">
        <ele>1078.0</ele>
        <time>2017-07-22T17:21:32Z</time>
      </trkpt>
      <trkpt lat="44.1944000" lon="7.5858580">
        <ele>1076.4</ele>
        <time>2017-07-22T17:21:33Z</time>
      </trkpt>
      <trkpt lat="44.1945270" lon="7.5857240">
        <ele>1074.2</ele>
        <time>2017-07-22T17:21:35Z</time>
      </trkpt>
      <trkpt lat="44.1946430" lon="7.5855850">
        <ele>1072.0</ele>
        <time>2017-07-22T17:21:37Z</time>
      </trkpt>
      <trkpt lat="44.1947630" lon="7.5854790">
        <ele>1070.2</ele>
        <time>2017-07-22T17:21:39Z</time>
      </trkpt>
      <trkpt lat="44.1948350" lon="7.5854300">
        <ele>1069.6</ele>
        <time>2017-07-22T17:21:40Z</time>
      </trkpt>
      <trkpt lat="44.1949150" lon="7.5853720">
        <ele>1068.6</ele>
        <time>2017-07-22T17:21:41Z</time>
      </trkpt>
      <trkpt lat="44.1950540" lon="7.5852440">
        <ele>1066.8</ele>
        <time>2017-07-22T17:21:43Z</time>
      </trkpt>
      <trkpt lat="44.1952060" lon="7.5850950">
        <ele>1064.8</ele>
        <time>2017-07-22T17:21:45Z</time>
      </trkpt>
      <trkpt lat="44.1953800" lon="7.5849080">
        <ele>1063.0</ele>
        <time>2017-07-22T17:21:47Z</time>
      </trkpt>
      <trkpt lat="44.1954530" lon="7.5848120">
        <ele>1062.0</ele>
        <time>2017-07-22T17:21:48Z</time>
      </trkpt>
      <trkpt lat="44.1955190" lon="7.5847160">
        <ele>1061.2</ele>
        <time>2017-07-22T17:21:49Z</time>
      </trkpt>
      <trkpt lat="44.1955810" lon="7.5846170">
        <ele>1060.0</ele>
        <time>2017-07-22T17:21:50Z</time>
      </trkpt>
      <trkpt lat="44.1957000" lon="7.5844240">
        <ele>1058.4</ele>
        <time>2017-07-22T17:21:52Z</time>
      </trkpt>
      <trkpt lat="44.1957590" lon="7.5843310">
        <ele>1056.8</ele>
        <time>2017-07-22T17:21:53Z</time>
      </trkpt>
      <trkpt lat="44.1958230" lon="7.5842400">
        <ele>1055.6</ele>
        <time>2017-07-22T17:21:54Z</time>
      </trkpt>
      <trkpt lat="44.1958920" lon="7.5841490">
        <ele>1055.0</ele>
        <time>2017-07-22T17:21:55Z</time>
      </trkpt>
      <trkpt lat="44.1959630" lon="7.5840590">
        <ele>1053.8</ele>
        <time>2017-07-22T17:21:56Z</time>
      </trkpt>
      <trkpt lat="44.1961130" lon="7.5838870">
        <ele>1052.0</ele>
        <time>2017-07-22T17:21:58Z</time>
      </trkpt>
      <trkpt lat="44.1962760" lon="7.5837420">
        <ele>1050.0</ele>
        <time>2017-07-22T17:22:00Z</time>
      </trkpt>
      <trkpt lat="44.1963610" lon="7.5836720">
        <ele>1049.0</ele>
        <time>2017-07-22T17:22:01Z</time>
      </trkpt>
      <trkpt lat="44.1964510" lon="7.5836010">
        <ele>1048.0</ele>
        <time>2017-07-22T17:22:02Z</time>
      </trkpt>
      <trkpt lat="44.1966180" lon="7.5834570">
        <ele>1046.0</ele>
        <time>2017-07-22T17:22:04Z</time>
      </trkpt>
      <trkpt lat="44.1967000" lon="7.5833840">
        <ele>1044.8</ele>
        <time>2017-07-22T17:22:05Z</time>
      </trkpt>
      <trkpt lat="44.1967930" lon="7.5832910">
        <ele>1043.8</ele>
        <time>2017-07-22T17:22:06Z</time>
      </trkpt>
      <trkpt lat="44.1968780" lon="7.5831950">
        <ele>1043.2</ele>
        <time>2017-07-22T17:22:07Z</time>
      </trkpt>
      <trkpt lat="44.1969600" lon="7.5830950">
        <ele>1042.0</ele>
        <time>2017-07-22T17:22:08Z</time>
      </trkpt>
      <trkpt lat="44.1970430" lon="7.5829950">
        <ele>1040.8</ele>
        <time>2017-07-22T17:22:09Z</time>
      </trkpt>
      <trkpt lat="44.1971250" lon="7.5828930">
        <ele>1039.6</ele>
        <time>2017-07-22T17:22:10Z</time>
      </trkpt>
      <trkpt lat="44.1971940" lon="7.5828030">
        <ele>1038.4</ele>
        <time>2017-07-22T17:22:11Z</time>
      </trkpt>
      <trkpt lat="44.1972650" lon="7.5827130">
        <ele>1037.4</ele>
        <time>2017-07-22T17:22:12Z</time>
      </trkpt>
      <trkpt lat="44.1973380" lon="7.5826250">
        <ele>1036.0</ele>
        <time>2017-07-22T17:22:13Z</time>
      </trkpt>
      <trkpt lat="44.1974140" lon="7.5825340">
        <ele>1034.8</ele>
        <time>2017-07-22T17:22:14Z</time>
      </trkpt>
      <trkpt lat="44.1974930" lon="7.5824460">
        <ele>1033.6</ele>
        <time>2017-07-22T17:22:15Z</time>
      </trkpt>
      <trkpt lat="44.1976750" lon="7.5822870">
        <ele>1030.8</ele>
        <time>2017-07-22T17:22:17Z</time>
      </trkpt>
      <trkpt lat="44.1977760" lon="7.5822250">
        <ele>1029.4</ele>
        <time>2017-07-22T17:22:18Z</time>
      </trkpt>
      <trkpt lat="44.1978710" lon="7.5821680">
        <ele>1028.4</ele>
        <time>2017-07-22T17:22:19Z</time>
      </trkpt>
      <trkpt lat="44.1979640" lon="7.5821120">
        <ele>1027.0</ele>
        <time>2017-07-22T17:22:20Z</time>
      </trkpt>
      <trkpt lat="44.1981430" lon="7.5819750">
        <ele>1024.8</ele>
        <time>2017-07-22T17:22:22Z</time>
      </trkpt>
      <trkpt lat="44.1982240" lon="7.5819110">
        <ele>1024.0</ele>
        <time>2017-07-22T17:22:23Z</time>
      </trkpt>
      <trkpt lat="44.1982970" lon="7.5818660">
        <ele>1022.6</ele>
        <time>2017-07-22T17:22:24Z</time>
      </trkpt>
      <trkpt lat="44.1983660" lon="7.5818380">
        <ele>1021.4</ele>
        <time>2017-07-22T17:22:25Z</time>
      </trkpt>
      <trkpt lat="44.1984350" lon="7.5818310">
        <ele>1020.4</ele>
        <time>2017-07-22T17:22:26Z</time>
      </trkpt>
      <trkpt lat="44.1985340" lon="7.5816850">
        <ele>1018.6</ele>
        <time>2017-07-22T17:22:28Z</time>
      </trkpt>
      <trkpt lat="44.1985870" lon="7.5815910">
        <ele>1017.6</ele>
        <time>2017-07-22T17:22:29Z</time>
      </trkpt>
      <trkpt lat="44.1986450" lon="7.5814920">
        <ele>1016.6</ele>
        <time>2017-07-22T17:22:30Z</time>
      </trkpt>
      <trkpt lat="44.1987800" lon="7.5812820">
        <ele>1014.8</ele>
        <time>2017-07-22T17:22:32Z</time>
      </trkpt>
      <trkpt lat="44.1989180" lon="7.5810610">
        <ele>1013.0</ele>
        <time>2017-07-22T17:22:34Z</time>
      </trkpt>
      <trkpt lat="44.1990400" lon="7.5808480">
        <ele>1011.0</ele>
        <time>2017-07-22T17:22:36Z</time>
      </trkpt>
      <trkpt lat="44.1990970" lon="7.5807350">
        <ele>1010.0</ele>
        <time>2017-07-22T17:22:37Z</time>
      </trkpt>
      <trkpt lat="44.1991450" lon="7.5806130">
        <ele>1008.8</ele>
        <time>2017-07-22T17:22:38Z</time>
      </trkpt>
      <trkpt lat="44.1991770" lon="7.5803450">
        <ele>1007.0</ele>
        <time>2017-07-22T17:22:40Z</time>
      </trkpt>
      <trkpt lat="44.1991830" lon="7.5802150">
        <ele>1005.6</ele>
        <time>2017-07-22T17:22:41Z</time>
      </trkpt>
      <trkpt lat="44.1991980" lon="7.5800940">
        <ele>1004.8</ele>
        <time>2017-07-22T17:22:42Z</time>
      </trkpt>
      <trkpt lat="44.1992170" lon="7.5799790">
        <ele>1004.0</ele>
        <time>2017-07-22T17:22:43Z</time>
      </trkpt>
      <trkpt lat="44.1992320" lon="7.5798600">
        <ele>1003.6</ele>
        <time>2017-07-22T17:22:44Z</time>
      </trkpt>
      <trkpt lat="44.1992340" lon="7.5797400">
        <ele>1003.0</ele>
        <time>2017-07-22T17:22:45Z</time>
      </trkpt>
      <trkpt lat="44.1992540" lon="7.5794960">
        <ele>1001.6</ele>
        <time>2017-07-22T17:22:47Z</time>
      </trkpt>
      <trkpt lat="44.1992870" lon="7.5792630">
        <ele>1000.6</ele>
        <time>2017-07-22T17:22:49Z</time>
      </trkpt>
      <trkpt lat="44.1993270" lon="7.5790810">
        <ele>999.4</ele>
        <time>2017-07-22T17:22:51Z</time>
      </trkpt>
      <trkpt lat="44.1993540" lon="7.5790120">
        <ele>998.8</ele>
        <time>2017-07-22T17:22:52Z</time>
      </trkpt>
      <trkpt lat="44.1993830" lon="7.5789570">
        <ele>998.2</ele>
        <time>2017-07-22T17:22:53Z</time>
      </trkpt>
      <trkpt lat="44.1994910" lon="7.5789740">
        <ele>996.8</ele>
        <time>2017-07-22T17:22:55Z</time>
      </trkpt>
      <trkpt lat="44.1996130" lon="7.5790130">
        <ele>995.2</ele>
        <time>2017-07-22T17:22:57Z</time>
      </trkpt>
      <trkpt lat="44.1996910" lon="7.5790340">
        <ele>994.6</ele>
        <time>2017-07-22T17:22:58Z</time>
      </trkpt>
      <trkpt lat="44.1997670" lon="7.5790470">
        <ele>994.0</ele>
        <time>2017-07-22T17:22:59Z</time>
      </trkpt>
      <trkpt lat="44.1998140" lon="7.5790280">
        <ele>993.2</ele>
        <time>2017-07-22T17:23:00Z</time>
      </trkpt>
      <trkpt lat="44.1998390" lon="7.5789820">
        <ele>992.6</ele>
        <time>2017-07-22T17:23:01Z</time>
      </trkpt>
      <trkpt lat="44.1998360" lon="7.5788290">
        <ele>991.2</ele>
        <time>2017-07-22T17:23:03Z</time>
      </trkpt>
      <trkpt lat="44.1998400" lon="7.5787380">
        <ele>990.4</ele>
        <time>2017-07-22T17:23:04Z</time>
      </trkpt>
      <trkpt lat="44.1998770" lon="7.5786570">
        <ele>989.2</ele>
        <time>2017-07-22T17:23:05Z</time>
      </trkpt>
      <trkpt lat="44.1999220" lon="7.5785730">
        <ele>988.6</ele>
        <time>2017-07-22T17:23:06Z</time>
      </trkpt>
      <trkpt lat="44.1999790" lon="7.5784810">
        <ele>987.8</ele>
        <time>2017-07-22T17:23:07Z</time>
      </trkpt>
      <trkpt lat="44.2001160" lon="7.5783130">
        <ele>986.4</ele>
        <time>2017-07-22T17:23:09Z</time>
      </trkpt>
      <trkpt lat="44.2002800" lon="7.5781890">
        <ele>985.0</ele>
        <time>2017-07-22T17:23:11Z</time>
      </trkpt>
      <trkpt lat="44.2004250" lon="7.5780640">
        <ele>983.4</ele>
        <time>2017-07-22T17:23:13Z</time>
      </trkpt>
      <trkpt lat="44.2004820" lon="7.5779810">
        <ele>982.6</ele>
        <time>2017-07-22T17:23:14Z</time>
      </trkpt>
      <trkpt lat="44.2005280" lon="7.5778930">
        <ele>981.8</ele>
        <time>2017-07-22T17:23:15Z</time>
      </trkpt>
      <trkpt lat="44.2005710" lon="7.5778010">
        <ele>980.8</ele>
        <time>2017-07-22T17:23:16Z</time>
      </trkpt>
      <trkpt lat="44.2006240" lon="7.5777150">
        <ele>980.0</ele>
        <time>2017-07-22T17:23:17Z</time>
      </trkpt>
      <trkpt lat="44.2007260" lon="7.5775430">
        <ele>978.2</ele>
        <time>2017-07-22T17:23:19Z</time>
      </trkpt>
      <trkpt lat="44.2008110" lon="7.5773710">
        <ele>976.6</ele>
        <time>2017-07-22T17:23:21Z</time>
      </trkpt>
      <trkpt lat="44.2008430" lon="7.5772820">
        <ele>975.8</ele>
        <time>2017-07-22T17:23:22Z</time>
      </trkpt>
      <trkpt lat="44.2008790" lon="7.5771980">
        <ele>975.0</ele>
        <time>2017-07-22T17:23:23Z</time>
      </trkpt>
      <trkpt lat="44.2009590" lon="7.5770150">
        <ele>973.6</ele>
        <time>2017-07-22T17:23:25Z</time>
      </trkpt>
      <trkpt lat="44.2010470" lon="7.5768320">
        <ele>972.2</ele>
        <time>2017-07-22T17:23:27Z</time>
      </trkpt>
      <trkpt lat="44.2010920" lon="7.5767460">
        <ele>971.4</ele>
        <time>2017-07-22T17:23:28Z</time>
      </trkpt>
      <trkpt lat="44.2011360" lon="7.5766600">
        <ele>970.0</ele>
        <time>2017-07-22T17:23:29Z</time>
      </trkpt>
      <trkpt lat="44.2012060" lon="7.5765200">
        <ele>968.4</ele>
        <time>2017-07-22T17:23:31Z</time>
      </trkpt>
      <trkpt lat="44.2012330" lon="7.5764670">
        <ele>967.6</ele>
        <time>2017-07-22T17:23:32Z</time>
      </trkpt>
      <trkpt lat="44.2012600" lon="7.5764120">
        <ele>967.0</ele>
        <time>2017-07-22T17:23:33Z</time>
      </trkpt>
      <trkpt lat="44.2013160" lon="7.5763050">
        <ele>965.4</ele>
        <time>2017-07-22T17:23:35Z</time>
      </trkpt>
      <trkpt lat="44.2013450" lon="7.5762620">
        <ele>965.0</ele>
        <time>2017-07-22T17:23:36Z</time>
      </trkpt>
      <trkpt lat="44.2013840" lon="7.5762340">
        <ele>964.2</ele>
        <time>2017-07-22T17:23:37Z</time>
      </trkpt>
      <trkpt lat="44.2014250" lon="7.5762420">
        <ele>963.6</ele>
        <time>2017-07-22T17:23:38Z</time>
      </trkpt>
      <trkpt lat="44.2014600" lon="7.5762570">
        <ele>963.0</ele>
        <time>2017-07-22T17:23:39Z</time>
      </trkpt>
      <trkpt lat="44.2015050" lon="7.5762970">
        <ele>962.0</ele>
        <time>2017-07-22T17:23:41Z</time>
      </trkpt>
      <trkpt lat="44.2015170" lon="7.5763240">
        <ele>961.2</ele>
        <time>2017-07-22T17:23:43Z</time>
      </trkpt>
      <trkpt lat="44.2015250" lon="7.5763360">
        <ele>960.8</ele>
        <time>2017-07-22T17:23:44Z</time>
      </trkpt>
      <trkpt lat="44.2015330" lon="7.5763450">
        <ele>960.6</ele>
        <time>2017-07-22T17:23:45Z</time>
      </trkpt>
      <trkpt lat="44.2016140" lon="7.5763970">
        <ele>957.4</ele>
        <time>2017-07-22T17:24:42Z</time>
      </trkpt>
      <trkpt lat="44.2015540" lon="7.5764200">
        <ele>989.4</ele>
        <time>2017-07-23T06:01:39Z</time>
      </trkpt>
      <trkpt lat="44.2015650" lon="7.5764370">
        <ele>990.6</ele>
        <time>2017-07-23T06:02:38Z</time>
      </trkpt>
      <trkpt lat="44.2015890" lon="7.5764960">
        <ele>990.6</ele>
        <time>2017-07-23T06:02:40Z</time>
      </trkpt>
      <trkpt lat="44.2016230" lon="7.5765720">
        <ele>990.2</ele>
        <time>2017-07-23T06:02:42Z</time>
      </trkpt>
      <trkpt lat="44.2016590" lon="7.5766530">
        <ele>989.6</ele>
        <time>2017-07-23T06:02:44Z</time>
      </trkpt>
      <trkpt lat="44.2017060" lon="7.5767410">
        <ele>989.2</ele>
        <time>2017-07-23T06:02:46Z</time>
      </trkpt>
      <trkpt lat="44.2017600" lon="7.5768470">
        <ele>988.8</ele>
        <time>2017-07-23T06:02:48Z</time>
      </trkpt>
      <trkpt lat="44.2017890" lon="7.5769040">
        <ele>988.4</ele>
        <time>2017-07-23T06:02:49Z</time>
      </trkpt>
      <trkpt lat="44.2018820" lon="7.5770690">
        <ele>988.0</ele>
        <time>2017-07-23T06:02:52Z</time>
      </trkpt>
      <trkpt lat="44.2019500" lon="7.5771840">
        <ele>987.6</ele>
        <time>2017-07-23T06:02:54Z</time>
      </trkpt>
      <trkpt lat="44.2020200" lon="7.5772280">
        <ele>987.4</ele>
        <time>2017-07-23T06:02:55Z</time>
      </trkpt>
      <trkpt lat="44.2021800" lon="7.5773010">
        <ele>987.0</ele>
        <time>2017-07-23T06:02:57Z</time>
      </trkpt>
      <trkpt lat="44.2024430" lon="7.5775120">
        <ele>987.0</ele>
        <time>2017-07-23T06:03:01Z</time>
      </trkpt>
      <trkpt lat="44.2025190" lon="7.5775520">
        <ele>987.0</ele>
        <time>2017-07-23T06:03:02Z</time>
      </trkpt>
      <trkpt lat="44.2026510" lon="7.5775980">
        <ele>986.8</ele>
        <time>2017-07-23T06:03:04Z</time>
      </trkpt>
      <trkpt lat="44.2027130" lon="7.5776020">
        <ele>986.6</ele>
        <time>2017-07-23T06:03:05Z</time>
      </trkpt>
      <trkpt lat="44.2028470" lon="7.5775650">
        <ele>986.4</ele>
        <time>2017-07-23T06:03:07Z</time>
      </trkpt>
      <trkpt lat="44.2030680" lon="7.5774890">
        <ele>986.2</ele>
        <time>2017-07-23T06:03:10Z</time>
      </trkpt>
      <trkpt lat="44.2032460" lon="7.5774030">
        <ele>985.8</ele>
        <time>2017-07-23T06:03:12Z</time>
      </trkpt>
      <trkpt lat="44.2035090" lon="7.5772130">
        <ele>985.2</ele>
        <time>2017-07-23T06:03:15Z</time>
      </trkpt>
      <trkpt lat="44.2035950" lon="7.5771380">
        <ele>984.4</ele>
        <time>2017-07-23T06:03:16Z</time>
      </trkpt>
      <trkpt lat="44.2036830" lon="7.5770550">
        <ele>984.0</ele>
        <time>2017-07-23T06:03:17Z</time>
      </trkpt>
      <trkpt lat="44.2039430" lon="7.5767450">
        <ele>983.0</ele>
        <time>2017-07-23T06:03:20Z</time>
      </trkpt>
      <trkpt lat="44.2040230" lon="7.5766240">
        <ele>982.6</ele>
        <time>2017-07-23T06:03:21Z</time>
      </trkpt>
      <trkpt lat="44.2041950" lon="7.5763740">
        <ele>981.4</ele>
        <time>2017-07-23T06:03:23Z</time>
      </trkpt>
      <trkpt lat="44.2043760" lon="7.5761200">
        <ele>980.4</ele>
        <time>2017-07-23T06:03:25Z</time>
      </trkpt>
      <trkpt lat="44.2046530" lon="7.5757480">
        <ele>979.0</ele>
        <time>2017-07-23T06:03:28Z</time>
      </trkpt>
      <trkpt lat="44.2048400" lon="7.5755070">
        <ele>978.0</ele>
        <time>2017-07-23T06:03:30Z</time>
      </trkpt>
      <trkpt lat="44.2050210" lon="7.5752680">
        <ele>977.0</ele>
        <time>2017-07-23T06:03:32Z</time>
      </trkpt>
      <trkpt lat="44.2051190" lon="7.5751620">
        <ele>976.4</ele>
        <time>2017-07-23T06:03:33Z</time>
      </trkpt>
      <trkpt lat="44.2052250" lon="7.5750740">
        <ele>975.8</ele>
        <time>2017-07-23T06:03:34Z</time>
      </trkpt>
      <trkpt lat="44.2054580" lon="7.5749300">
        <ele>974.6</ele>
        <time>2017-07-23T06:03:36Z</time>
      </trkpt>
      <trkpt lat="44.2056960" lon="7.5747860">
        <ele>973.4</ele>
        <time>2017-07-23T06:03:38Z</time>
      </trkpt>
      <trkpt lat="44.2059420" lon="7.5746230">
        <ele>971.4</ele>
        <time>2017-07-23T06:03:40Z</time>
      </trkpt>
      <trkpt lat="44.2060640" lon="7.5745410">
        <ele>970.8</ele>
        <time>2017-07-23T06:03:41Z</time>
      </trkpt>
      <trkpt lat="44.2061880" lon="7.5744670">
        <ele>970.2</ele>
        <time>2017-07-23T06:03:42Z</time>
      </trkpt>
      <trkpt lat="44.2064430" lon="7.5743450">
        <ele>969.0</ele>
        <time>2017-07-23T06:03:44Z</time>
      </trkpt>
      <trkpt lat="44.2065730" lon="7.5742890">
        <ele>968.2</ele>
        <time>2017-07-23T06:03:45Z</time>
      </trkpt>
      <trkpt lat="44.2067080" lon="7.5742460">
        <ele>967.6</ele>
        <time>2017-07-23T06:03:46Z</time>
      </trkpt>
      <trkpt lat="44.2069820" lon="7.5741800">
        <ele>966.4</ele>
        <time>2017-07-23T06:03:48Z</time>
      </trkpt>
      <trkpt lat="44.2071200" lon="7.5741580">
        <ele>965.6</ele>
        <time>2017-07-23T06:03:49Z</time>
      </trkpt>
      <trkpt lat="44.2072520" lon="7.5741470">
        <ele>965.0</ele>
        <time>2017-07-23T06:03:50Z</time>
      </trkpt>
      <trkpt lat="44.2074980" lon="7.5741450">
        <ele>963.8</ele>
        <time>2017-07-23T06:03:52Z</time>
      </trkpt>
      <trkpt lat="44.2076200" lon="7.5741440">
        <ele>963.2</ele>
        <time>2017-07-23T06:03:53Z</time>
      </trkpt>
      <trkpt lat="44.2077410" lon="7.5741450">
        <ele>962.8</ele>
        <time>2017-07-23T06:03:54Z</time>
      </trkpt>
      <trkpt lat="44.2079740" lon="7.5741510">
        <ele>961.6</ele>
        <time>2017-07-23T06:03:56Z</time>
      </trkpt>
      <trkpt lat="44.2082230" lon="7.5741170">
        <ele>960.6</ele>
        <time>2017-07-23T06:03:58Z</time>
      </trkpt>
      <trkpt lat="44.2085400" lon="7.5739380">
        <ele>959.0</ele>
        <time>2017-07-23T06:04:01Z</time>
      </trkpt>
      <trkpt lat="44.2087840" lon="7.5736280">
        <ele>957.2</ele>
        <time>2017-07-23T06:04:04Z</time>
      </trkpt>
      <trkpt lat="44.2090200" lon="7.5732950">
        <ele>956.0</ele>
        <time>2017-07-23T06:04:07Z</time>
      </trkpt>
      <trkpt lat="44.2092620" lon="7.5729710">
        <ele>954.6</ele>
        <time>2017-07-23T06:04:10Z</time>
      </trkpt>
      <trkpt lat="44.2093450" lon="7.5728670">
        <ele>954.2</ele>
        <time>2017-07-23T06:04:11Z</time>
      </trkpt>
      <trkpt lat="44.2095180" lon="7.5726630">
        <ele>953.4</ele>
        <time>2017-07-23T06:04:13Z</time>
      </trkpt>
      <trkpt lat="44.2097990" lon="7.5723960">
        <ele>952.0</ele>
        <time>2017-07-23T06:04:16Z</time>
      </trkpt>
      <trkpt lat="44.2100160" lon="7.5722630">
        <ele>951.2</ele>
        <time>2017-07-23T06:04:18Z</time>
      </trkpt>
      <trkpt lat="44.2101290" lon="7.5722180">
        <ele>950.6</ele>
        <time>2017-07-23T06:04:19Z</time>
      </trkpt>
      <trkpt lat="44.2102420" lon="7.5721810">
        <ele>950.2</ele>
        <time>2017-07-23T06:04:20Z</time>
      </trkpt>
      <trkpt lat="44.2104750" lon="7.5721240">
        <ele>949.6</ele>
        <time>2017-07-23T06:04:22Z</time>
      </trkpt>
      <trkpt lat="44.2108090" lon="7.5720400">
        <ele>948.4</ele>
        <time>2017-07-23T06:04:25Z</time>
      </trkpt>
      <trkpt lat="44.2109160" lon="7.5720140">
        <ele>948.0</ele>
        <time>2017-07-23T06:04:26Z</time>
      </trkpt>
      <trkpt lat="44.2111280" lon="7.5719660">
        <ele>947.2</ele>
        <time>2017-07-23T06:04:28Z</time>
      </trkpt>
      <trkpt lat="44.2114400" lon="7.5719850">
        <ele>946.2</ele>
        <time>2017-07-23T06:04:31Z</time>
      </trkpt>
      <trkpt lat="44.2117310" lon="7.5721380">
        <ele>945.4</ele>
        <time>2017-07-23T06:04:34Z</time>
      </trkpt>
      <trkpt lat="44.2118260" lon="7.5722110">
        <ele>945.0</ele>
        <time>2017-07-23T06:04:35Z</time>
      </trkpt>
      <trkpt lat="44.2121130" lon="7.5724110">
        <ele>943.8</ele>
        <time>2017-07-23T06:04:38Z</time>
      </trkpt>
      <trkpt lat="44.2122150" lon="7.5724670">
        <ele>943.4</ele>
        <time>2017-07-23T06:04:39Z</time>
      </trkpt>
      <trkpt lat="44.2124270" lon="7.5725350">
        <ele>942.6</ele>
        <time>2017-07-23T06:04:41Z</time>
      </trkpt>
      <trkpt lat="44.2125610" lon="7.5725340">
        <ele>942.2</ele>
        <time>2017-07-23T06:04:42Z</time>
      </trkpt>
      <trkpt lat="44.2128220" lon="7.5724870">
        <ele>941.4</ele>
        <time>2017-07-23T06:04:44Z</time>
      </trkpt>
      <trkpt lat="44.2129430" lon="7.5724420">
        <ele>940.8</ele>
        <time>2017-07-23T06:04:45Z</time>
      </trkpt>
      <trkpt lat="44.2130650" lon="7.5723840">
        <ele>940.2</ele>
        <time>2017-07-23T06:04:46Z</time>
      </trkpt>
      <trkpt lat="44.2131830" lon="7.5723160">
        <ele>939.8</ele>
        <time>2017-07-23T06:04:47Z</time>
      </trkpt>
      <trkpt lat="44.2134130" lon="7.5721680">
        <ele>939.2</ele>
        <time>2017-07-23T06:04:49Z</time>
      </trkpt>
      <trkpt lat="44.2135220" lon="7.5720890">
        <ele>938.8</ele>
        <time>2017-07-23T06:04:50Z</time>
      </trkpt>
      <trkpt lat="44.2137410" lon="7.5719370">
        <ele>937.4</ele>
        <time>2017-07-23T06:04:52Z</time>
      </trkpt>
      <trkpt lat="44.2140830" lon="7.5717680">
        <ele>936.0</ele>
        <time>2017-07-23T06:04:55Z</time>
      </trkpt>
      <trkpt lat="44.2144380" lon="7.5716930">
        <ele>934.8</ele>
        <time>2017-07-23T06:04:58Z</time>
      </trkpt>
      <trkpt lat="44.2145540" lon="7.5716690">
        <ele>934.4</ele>
        <time>2017-07-23T06:04:59Z</time>
      </trkpt>
      <trkpt lat="44.2147870" lon="7.5716210">
        <ele>933.4</ele>
        <time>2017-07-23T06:05:01Z</time>
      </trkpt>
      <trkpt lat="44.2150250" lon="7.5715720">
        <ele>932.4</ele>
        <time>2017-07-23T06:05:03Z</time>
      </trkpt>
      <trkpt lat="44.2152570" lon="7.5714960">
        <ele>931.6</ele>
        <time>2017-07-23T06:05:05Z</time>
      </trkpt>
      <trkpt lat="44.2153740" lon="7.5714450">
        <ele>931.2</ele>
        <time>2017-07-23T06:05:06Z</time>
      </trkpt>
      <trkpt lat="44.2157060" lon="7.5712400">
        <ele>930.0</ele>
        <time>2017-07-23T06:05:09Z</time>
      </trkpt>
      <trkpt lat="44.2160210" lon="7.5710080">
        <ele>928.6</ele>
        <time>2017-07-23T06:05:12Z</time>
      </trkpt>
      <trkpt lat="44.2163410" lon="7.5707740">
        <ele>927.4</ele>
        <time>2017-07-23T06:05:15Z</time>
      </trkpt>
      <trkpt lat="44.2165520" lon="7.5706160">
        <ele>926.2</ele>
        <time>2017-07-23T06:05:17Z</time>
      </trkpt>
      <trkpt lat="44.2166560" lon="7.5705420">
        <ele>925.8</ele>
        <time>2017-07-23T06:05:18Z</time>
      </trkpt>
      <trkpt lat="44.2168640" lon="7.5703960">
        <ele>925.0</ele>
        <time>2017-07-23T06:05:20Z</time>
      </trkpt>
      <trkpt lat="44.2171900" lon="7.5701840">
        <ele>923.8</ele>
        <time>2017-07-23T06:05:23Z</time>
      </trkpt>
      <trkpt lat="44.2172980" lon="7.5701190">
        <ele>923.2</ele>
        <time>2017-07-23T06:05:24Z</time>
      </trkpt>
      <trkpt lat="44.2175140" lon="7.5699980">
        <ele>922.6</ele>
        <time>2017-07-23T06:05:26Z</time>
      </trkpt>
      <trkpt lat="44.2179310" lon="7.5697710">
        <ele>921.4</ele>
        <time>2017-07-23T06:05:30Z</time>
      </trkpt>
      <trkpt lat="44.2183340" lon="7.5695830">
        <ele>920.2</ele>
        <time>2017-07-23T06:05:34Z</time>
      </trkpt>
      <trkpt lat="44.2185310" lon="7.5694850">
        <ele>919.6</ele>
        <time>2017-07-23T06:05:36Z</time>
      </trkpt>
      <trkpt lat="44.2187270" lon="7.5693930">
        <ele>919.2</ele>
        <time>2017-07-23T06:05:38Z</time>
      </trkpt>
      <trkpt lat="44.2190240" lon="7.5692460">
        <ele>918.0</ele>
        <time>2017-07-23T06:05:41Z</time>
      </trkpt>
      <trkpt lat="44.2194350" lon="7.5690440">
        <ele>916.6</ele>
        <time>2017-07-23T06:05:45Z</time>
      </trkpt>
      <trkpt lat="44.2198520" lon="7.5688430">
        <ele>915.6</ele>
        <time>2017-07-23T06:05:49Z</time>
      </trkpt>
      <trkpt lat="44.2200620" lon="7.5687380">
        <ele>915.0</ele>
        <time>2017-07-23T06:05:51Z</time>
      </trkpt>
      <trkpt lat="44.2202800" lon="7.5686360">
        <ele>914.4</ele>
        <time>2017-07-23T06:05:53Z</time>
      </trkpt>
      <trkpt lat="44.2206860" lon="7.5684130">
        <ele>913.2</ele>
        <time>2017-07-23T06:05:57Z</time>
      </trkpt>
      <trkpt lat="44.2210940" lon="7.5681900">
        <ele>911.8</ele>
        <time>2017-07-23T06:06:01Z</time>
      </trkpt>
      <trkpt lat="44.2212930" lon="7.5680490">
        <ele>911.2</ele>
        <time>2017-07-23T06:06:03Z</time>
      </trkpt>
      <trkpt lat="44.2213900" lon="7.5679660">
        <ele>910.6</ele>
        <time>2017-07-23T06:06:04Z</time>
      </trkpt>
      <trkpt lat="44.2216690" lon="7.5677060">
        <ele>909.6</ele>
        <time>2017-07-23T06:06:07Z</time>
      </trkpt>
      <trkpt lat="44.2218410" lon="7.5675070">
        <ele>909.0</ele>
        <time>2017-07-23T06:06:09Z</time>
      </trkpt>
      <trkpt lat="44.2220090" lon="7.5673030">
        <ele>908.4</ele>
        <time>2017-07-23T06:06:11Z</time>
      </trkpt>
      <trkpt lat="44.2222460" lon="7.5669740">
        <ele>907.4</ele>
        <time>2017-07-23T06:06:14Z</time>
      </trkpt>
      <trkpt lat="44.2223210" lon="7.5668590">
        <ele>907.0</ele>
        <time>2017-07-23T06:06:15Z</time>
      </trkpt>
      <trkpt lat="44.2225220" lon="7.5664900">
        <ele>906.0</ele>
        <time>2017-07-23T06:06:18Z</time>
      </trkpt>
      <trkpt lat="44.2226440" lon="7.5662320">
        <ele>905.4</ele>
        <time>2017-07-23T06:06:20Z</time>
      </trkpt>
      <trkpt lat="44.2227020" lon="7.5661000">
        <ele>905.0</ele>
        <time>2017-07-23T06:06:21Z</time>
      </trkpt>
      <trkpt lat="44.2228650" lon="7.5656970">
        <ele>903.8</ele>
        <time>2017-07-23T06:06:24Z</time>
      </trkpt>
      <trkpt lat="44.2229710" lon="7.5654230">
        <ele>903.0</ele>
        <time>2017-07-23T06:06:26Z</time>
      </trkpt>
      <trkpt lat="44.2230290" lon="7.5652880">
        <ele>902.6</ele>
        <time>2017-07-23T06:06:27Z</time>
      </trkpt>
      <trkpt lat="44.2231620" lon="7.5650260">
        <ele>901.2</ele>
        <time>2017-07-23T06:06:29Z</time>
      </trkpt>
      <trkpt lat="44.2232360" lon="7.5649080">
        <ele>900.8</ele>
        <time>2017-07-23T06:06:30Z</time>
      </trkpt>
      <trkpt lat="44.2234080" lon="7.5646970">
        <ele>900.0</ele>
        <time>2017-07-23T06:06:32Z</time>
      </trkpt>
      <trkpt lat="44.2235090" lon="7.5646060">
        <ele>899.6</ele>
        <time>2017-07-23T06:06:33Z</time>
      </trkpt>
      <trkpt lat="44.2236180" lon="7.5645270">
        <ele>899.2</ele>
        <time>2017-07-23T06:06:34Z</time>
      </trkpt>
      <trkpt lat="44.2237310" lon="7.5644510">
        <ele>898.6</ele>
        <time>2017-07-23T06:06:35Z</time>
      </trkpt>
      <trkpt lat="44.2238490" lon="7.5643920">
        <ele>898.2</ele>
        <time>2017-07-23T06:06:36Z</time>
      </trkpt>
      <trkpt lat="44.2239670" lon="7.5643390">
        <ele>897.6</ele>
        <time>2017-07-23T06:06:37Z</time>
      </trkpt>
      <trkpt lat="44.2240850" lon="7.5642900">
        <ele>897.2</ele>
        <time>2017-07-23T06:06:38Z</time>
      </trkpt>
      <trkpt lat="44.2243200" lon="7.5641950">
        <ele>896.2</ele>
        <time>2017-07-23T06:06:40Z</time>
      </trkpt>
      <trkpt lat="44.2245540" lon="7.5641010">
        <ele>894.8</ele>
        <time>2017-07-23T06:06:42Z</time>
      </trkpt>
      <trkpt lat="44.2247880" lon="7.5640020">
        <ele>893.8</ele>
        <time>2017-07-23T06:06:44Z</time>
      </trkpt>
      <trkpt lat="44.2249060" lon="7.5639400">
        <ele>893.2</ele>
        <time>2017-07-23T06:06:45Z</time>
      </trkpt>
      <trkpt lat="44.2250190" lon="7.5638570">
        <ele>892.8</ele>
        <time>2017-07-23T06:06:46Z</time>
      </trkpt>
      <trkpt lat="44.2252140" lon="7.5636340">
        <ele>891.8</ele>
        <time>2017-07-23T06:06:48Z</time>
      </trkpt>
      <trkpt lat="44.2254540" lon="7.5632710">
        <ele>890.2</ele>
        <time>2017-07-23T06:06:51Z</time>
      </trkpt>
      <trkpt lat="44.2255380" lon="7.5631560">
        <ele>889.2</ele>
        <time>2017-07-23T06:06:52Z</time>
      </trkpt>
      <trkpt lat="44.2256290" lon="7.5630490">
        <ele>888.6</ele>
        <time>2017-07-23T06:06:53Z</time>
      </trkpt>
      <trkpt lat="44.2257250" lon="7.5629530">
        <ele>888.2</ele>
        <time>2017-07-23T06:06:54Z</time>
      </trkpt>
      <trkpt lat="44.2259340" lon="7.5627800">
        <ele>887.0</ele>
        <time>2017-07-23T06:06:56Z</time>
      </trkpt>
      <trkpt lat="44.2260410" lon="7.5627050">
        <ele>886.4</ele>
        <time>2017-07-23T06:06:57Z</time>
      </trkpt>
      <trkpt lat="44.2262570" lon="7.5625690">
        <ele>885.6</ele>
        <time>2017-07-23T06:06:59Z</time>
      </trkpt>
      <trkpt lat="44.2264810" lon="7.5624730">
        <ele>884.4</ele>
        <time>2017-07-23T06:07:01Z</time>
      </trkpt>
      <trkpt lat="44.2265970" lon="7.5624450">
        <ele>883.8</ele>
        <time>2017-07-23T06:07:02Z</time>
      </trkpt>
      <trkpt lat="44.2268390" lon="7.5624300">
        <ele>883.0</ele>
        <time>2017-07-23T06:07:04Z</time>
      </trkpt>
      <trkpt lat="44.2270840" lon="7.5624580">
        <ele>882.2</ele>
        <time>2017-07-23T06:07:06Z</time>
      </trkpt>
      <trkpt lat="44.2272080" lon="7.5624760">
        <ele>881.8</ele>
        <time>2017-07-23T06:07:07Z</time>
      </trkpt>
      <trkpt lat="44.2275650" lon="7.5625360">
        <ele>880.6</ele>
        <time>2017-07-23T06:07:10Z</time>
      </trkpt>
      <trkpt lat="44.2277930" lon="7.5625660">
        <ele>879.8</ele>
        <time>2017-07-23T06:07:12Z</time>
      </trkpt>
      <trkpt lat="44.2279070" lon="7.5625650">
        <ele>879.2</ele>
        <time>2017-07-23T06:07:13Z</time>
      </trkpt>
      <trkpt lat="44.2280210" lon="7.5625460">
        <ele>878.8</ele>
        <time>2017-07-23T06:07:14Z</time>
      </trkpt>
      <trkpt lat="44.2281320" lon="7.5625040">
        <ele>878.4</ele>
        <time>2017-07-23T06:07:15Z</time>
      </trkpt>
      <trkpt lat="44.2282380" lon="7.5624440">
        <ele>877.8</ele>
        <time>2017-07-23T06:07:16Z</time>
      </trkpt>
      <trkpt lat="44.2284360" lon="7.5622820">
        <ele>877.2</ele>
        <time>2017-07-23T06:07:18Z</time>
      </trkpt>
      <trkpt lat="44.2285220" lon="7.5621770">
        <ele>876.6</ele>
        <time>2017-07-23T06:07:19Z</time>
      </trkpt>
      <trkpt lat="44.2286540" lon="7.5619130">
        <ele>875.8</ele>
        <time>2017-07-23T06:07:21Z</time>
      </trkpt>
      <trkpt lat="44.2286950" lon="7.5617570">
        <ele>875.4</ele>
        <time>2017-07-23T06:07:22Z</time>
      </trkpt>
      <trkpt lat="44.2287200" lon="7.5614310">
        <ele>874.6</ele>
        <time>2017-07-23T06:07:24Z</time>
      </trkpt>
      <trkpt lat="44.2287160" lon="7.5612690">
        <ele>874.2</ele>
        <time>2017-07-23T06:07:25Z</time>
      </trkpt>
      <trkpt lat="44.2286730" lon="7.5609490">
        <ele>873.6</ele>
        <time>2017-07-23T06:07:27Z</time>
      </trkpt>
      <trkpt lat="44.2286420" lon="7.5607950">
        <ele>873.2</ele>
        <time>2017-07-23T06:07:28Z</time>
      </trkpt>
      <trkpt lat="44.2285420" lon="7.5603440">
        <ele>872.0</ele>
        <time>2017-07-23T06:07:31Z</time>
      </trkpt>
      <trkpt lat="44.2284790" lon="7.5600490">
        <ele>871.4</ele>
        <time>2017-07-23T06:07:33Z</time>
      </trkpt>
      <trkpt lat="44.2284480" lon="7.5598990">
        <ele>871.0</ele>
        <time>2017-07-23T06:07:34Z</time>
      </trkpt>
      <trkpt lat="44.2283340" lon="7.5592930">
        <ele>869.6</ele>
        <time>2017-07-23T06:07:38Z</time>
      </trkpt>
      <trkpt lat="44.2282950" lon="7.5589860">
        <ele>868.2</ele>
        <time>2017-07-23T06:07:40Z</time>
      </trkpt>
      <trkpt lat="44.2282420" lon="7.5585330">
        <ele>867.0</ele>
        <time>2017-07-23T06:07:43Z</time>
      </trkpt>
      <trkpt lat="44.2282360" lon="7.5582150">
        <ele>866.2</ele>
        <time>2017-07-23T06:07:45Z</time>
      </trkpt>
      <trkpt lat="44.2282420" lon="7.5580570">
        <ele>865.6</ele>
        <time>2017-07-23T06:07:46Z</time>
      </trkpt>
      <trkpt lat="44.2282740" lon="7.5578970">
        <ele>865.2</ele>
        <time>2017-07-23T06:07:47Z</time>
      </trkpt>
      <trkpt lat="44.2283150" lon="7.5577380">
        <ele>864.8</ele>
        <time>2017-07-23T06:07:48Z</time>
      </trkpt>
      <trkpt lat="44.2283830" lon="7.5575790">
        <ele>864.4</ele>
        <time>2017-07-23T06:07:49Z</time>
      </trkpt>
      <trkpt lat="44.2285300" lon="7.5572780">
        <ele>863.4</ele>
        <time>2017-07-23T06:07:51Z</time>
      </trkpt>
      <trkpt lat="44.2286140" lon="7.5571360">
        <ele>863.2</ele>
        <time>2017-07-23T06:07:52Z</time>
      </trkpt>
      <trkpt lat="44.2288900" lon="7.5567670">
        <ele>862.0</ele>
        <time>2017-07-23T06:07:55Z</time>
      </trkpt>
      <trkpt lat="44.2292030" lon="7.5564560">
        <ele>860.6</ele>
        <time>2017-07-23T06:07:58Z</time>
      </trkpt>
      <trkpt lat="44.2293110" lon="7.5563610">
        <ele>860.4</ele>
        <time>2017-07-23T06:07:59Z</time>
      </trkpt>
      <trkpt lat="44.2295440" lon="7.5562020">
        <ele>859.6</ele>
        <time>2017-07-23T06:08:01Z</time>
      </trkpt>
      <trkpt lat="44.2297880" lon="7.5560640">
        <ele>858.8</ele>
        <time>2017-07-23T06:08:03Z</time>
      </trkpt>
      <trkpt lat="44.2299100" lon="7.5559980">
        <ele>858.0</ele>
        <time>2017-07-23T06:08:04Z</time>
      </trkpt>
      <trkpt lat="44.2303240" lon="7.5557530">
        <ele>856.8</ele>
        <time>2017-07-23T06:08:08Z</time>
      </trkpt>
      <trkpt lat="44.2304230" lon="7.5556990">
        <ele>856.4</ele>
        <time>2017-07-23T06:08:09Z</time>
      </trkpt>
      <trkpt lat="44.2307040" lon="7.5555090">
        <ele>855.8</ele>
        <time>2017-07-23T06:08:12Z</time>
      </trkpt>
      <trkpt lat="44.2307950" lon="7.5554260">
        <ele>855.6</ele>
        <time>2017-07-23T06:08:13Z</time>
      </trkpt>
      <trkpt lat="44.2308810" lon="7.5553300">
        <ele>855.2</ele>
        <time>2017-07-23T06:08:14Z</time>
      </trkpt>
      <trkpt lat="44.2310360" lon="7.5551300">
        <ele>854.6</ele>
        <time>2017-07-23T06:08:16Z</time>
      </trkpt>
      <trkpt lat="44.2311800" lon="7.5549110">
        <ele>854.0</ele>
        <time>2017-07-23T06:08:18Z</time>
      </trkpt>
      <trkpt lat="44.2313020" lon="7.5546820">
        <ele>853.4</ele>
        <time>2017-07-23T06:08:20Z</time>
      </trkpt>
      <trkpt lat="44.2314720" lon="7.5543270">
        <ele>852.8</ele>
        <time>2017-07-23T06:08:23Z</time>
      </trkpt>
      <trkpt lat="44.2315560" lon="7.5540640">
        <ele>852.2</ele>
        <time>2017-07-23T06:08:25Z</time>
      </trkpt>
      <trkpt lat="44.2316050" lon="7.5537870">
        <ele>851.8</ele>
        <time>2017-07-23T06:08:27Z</time>
      </trkpt>
      <trkpt lat="44.2316410" lon="7.5535150">
        <ele>851.0</ele>
        <time>2017-07-23T06:08:29Z</time>
      </trkpt>
      <trkpt lat="44.2316870" lon="7.5532390">
        <ele>850.8</ele>
        <time>2017-07-23T06:08:31Z</time>
      </trkpt>
      <trkpt lat="44.2317140" lon="7.5531030">
        <ele>850.4</ele>
        <time>2017-07-23T06:08:32Z</time>
      </trkpt>
      <trkpt lat="44.2317840" lon="7.5528320">
        <ele>850.0</ele>
        <time>2017-07-23T06:08:34Z</time>
      </trkpt>
      <trkpt lat="44.2318320" lon="7.5527010">
        <ele>849.8</ele>
        <time>2017-07-23T06:08:35Z</time>
      </trkpt>
      <trkpt lat="44.2318900" lon="7.5525730">
        <ele>849.6</ele>
        <time>2017-07-23T06:08:36Z</time>
      </trkpt>
      <trkpt lat="44.2320170" lon="7.5523280">
        <ele>849.0</ele>
        <time>2017-07-23T06:08:38Z</time>
      </trkpt>
      <trkpt lat="44.2321610" lon="7.5521120">
        <ele>848.6</ele>
        <time>2017-07-23T06:08:40Z</time>
      </trkpt>
      <trkpt lat="44.2323910" lon="7.5518050">
        <ele>847.8</ele>
        <time>2017-07-23T06:08:43Z</time>
      </trkpt>
      <trkpt lat="44.2325480" lon="7.5515920">
        <ele>847.2</ele>
        <time>2017-07-23T06:08:45Z</time>
      </trkpt>
      <trkpt lat="44.2327090" lon="7.5513690">
        <ele>846.6</ele>
        <time>2017-07-23T06:08:47Z</time>
      </trkpt>
      <trkpt lat="44.2330130" lon="7.5508570">
        <ele>845.4</ele>
        <time>2017-07-23T06:08:51Z</time>
      </trkpt>
      <trkpt lat="44.2331960" lon="7.5504550">
        <ele>844.0</ele>
        <time>2017-07-23T06:08:54Z</time>
      </trkpt>
      <trkpt lat="44.2333180" lon="7.5501840">
        <ele>843.4</ele>
        <time>2017-07-23T06:08:56Z</time>
      </trkpt>
      <trkpt lat="44.2333790" lon="7.5500490">
        <ele>843.0</ele>
        <time>2017-07-23T06:08:57Z</time>
      </trkpt>
      <trkpt lat="44.2335530" lon="7.5496170">
        <ele>842.0</ele>
        <time>2017-07-23T06:09:00Z</time>
      </trkpt>
      <trkpt lat="44.2335950" lon="7.5494600">
        <ele>841.8</ele>
        <time>2017-07-23T06:09:01Z</time>
      </trkpt>
      <trkpt lat="44.2336190" lon="7.5493030">
        <ele>841.4</ele>
        <time>2017-07-23T06:09:02Z</time>
      </trkpt>
      <trkpt lat="44.2336330" lon="7.5489840">
        <ele>840.6</ele>
        <time>2017-07-23T06:09:04Z</time>
      </trkpt>
      <trkpt lat="44.2336210" lon="7.5483520">
        <ele>839.2</ele>
        <time>2017-07-23T06:09:08Z</time>
      </trkpt>
      <trkpt lat="44.2336400" lon="7.5482000">
        <ele>839.0</ele>
        <time>2017-07-23T06:09:09Z</time>
      </trkpt>
      <trkpt lat="44.2337240" lon="7.5479110">
        <ele>838.2</ele>
        <time>2017-07-23T06:09:11Z</time>
      </trkpt>
      <trkpt lat="44.2337920" lon="7.5477740">
        <ele>837.8</ele>
        <time>2017-07-23T06:09:12Z</time>
      </trkpt>
      <trkpt lat="44.2339610" lon="7.5475420">
        <ele>837.0</ele>
        <time>2017-07-23T06:09:14Z</time>
      </trkpt>
      <trkpt lat="44.2340660" lon="7.5474470">
        <ele>836.8</ele>
        <time>2017-07-23T06:09:15Z</time>
      </trkpt>
      <trkpt lat="44.2342950" lon="7.5472790">
        <ele>835.8</ele>
        <time>2017-07-23T06:09:17Z</time>
      </trkpt>
      <trkpt lat="44.2346450" lon="7.5470460">
        <ele>834.6</ele>
        <time>2017-07-23T06:09:20Z</time>
      </trkpt>
      <trkpt lat="44.2349710" lon="7.5468100">
        <ele>833.6</ele>
        <time>2017-07-23T06:09:23Z</time>
      </trkpt>
      <trkpt lat="44.2351700" lon="7.5466330">
        <ele>832.8</ele>
        <time>2017-07-23T06:09:25Z</time>
      </trkpt>
      <trkpt lat="44.2352620" lon="7.5465360">
        <ele>832.4</ele>
        <time>2017-07-23T06:09:26Z</time>
      </trkpt>
      <trkpt lat="44.2353440" lon="7.5464280">
        <ele>832.0</ele>
        <time>2017-07-23T06:09:27Z</time>
      </trkpt>
      <trkpt lat="44.2354930" lon="7.5462080">
        <ele>831.4</ele>
        <time>2017-07-23T06:09:29Z</time>
      </trkpt>
      <trkpt lat="44.2357240" lon="7.5458840">
        <ele>830.2</ele>
        <time>2017-07-23T06:09:32Z</time>
      </trkpt>
      <trkpt lat="44.2359690" lon="7.5455500">
        <ele>829.0</ele>
        <time>2017-07-23T06:09:35Z</time>
      </trkpt>
      <trkpt lat="44.2360530" lon="7.5454360">
        <ele>828.6</ele>
        <time>2017-07-23T06:09:36Z</time>
      </trkpt>
      <trkpt lat="44.2362200" lon="7.5452080">
        <ele>827.8</ele>
        <time>2017-07-23T06:09:38Z</time>
      </trkpt>
      <trkpt lat="44.2363880" lon="7.5449790">
        <ele>826.4</ele>
        <time>2017-07-23T06:09:40Z</time>
      </trkpt>
      <trkpt lat="44.2366460" lon="7.5446290">
        <ele>825.0</ele>
        <time>2017-07-23T06:09:43Z</time>
      </trkpt>
      <trkpt lat="44.2368160" lon="7.5443960">
        <ele>824.2</ele>
        <time>2017-07-23T06:09:45Z</time>
      </trkpt>
      <trkpt lat="44.2368990" lon="7.5442820">
        <ele>823.6</ele>
        <time>2017-07-23T06:09:46Z</time>
      </trkpt>
      <trkpt lat="44.2371460" lon="7.5439390">
        <ele>822.4</ele>
        <time>2017-07-23T06:09:49Z</time>
      </trkpt>
      <trkpt lat="44.2373750" lon="7.5435620">
        <ele>821.2</ele>
        <time>2017-07-23T06:09:52Z</time>
      </trkpt>
      <trkpt lat="44.2375790" lon="7.5431400">
        <ele>820.2</ele>
        <time>2017-07-23T06:09:55Z</time>
      </trkpt>
      <trkpt lat="44.2376960" lon="7.5428410">
        <ele>819.4</ele>
        <time>2017-07-23T06:09:57Z</time>
      </trkpt>
      <trkpt lat="44.2377540" lon="7.5426910">
        <ele>819.0</ele>
        <time>2017-07-23T06:09:58Z</time>
      </trkpt>
      <trkpt lat="44.2379400" lon="7.5422720">
        <ele>817.8</ele>
        <time>2017-07-23T06:10:01Z</time>
      </trkpt>
      <trkpt lat="44.2380740" lon="7.5420170">
        <ele>817.0</ele>
        <time>2017-07-23T06:10:03Z</time>
      </trkpt>
      <trkpt lat="44.2381440" lon="7.5418920">
        <ele>816.0</ele>
        <time>2017-07-23T06:10:04Z</time>
      </trkpt>
      <trkpt lat="44.2383600" lon="7.5415100">
        <ele>814.8</ele>
        <time>2017-07-23T06:10:07Z</time>
      </trkpt>
      <trkpt lat="44.2385880" lon="7.5411530">
        <ele>813.6</ele>
        <time>2017-07-23T06:10:10Z</time>
      </trkpt>
      <trkpt lat="44.2388210" lon="7.5408320">
        <ele>812.4</ele>
        <time>2017-07-23T06:10:13Z</time>
      </trkpt>
      <trkpt lat="44.2389770" lon="7.5406220">
        <ele>811.4</ele>
        <time>2017-07-23T06:10:15Z</time>
      </trkpt>
      <trkpt lat="44.2390570" lon="7.5405140">
        <ele>811.0</ele>
        <time>2017-07-23T06:10:16Z</time>
      </trkpt>
      <trkpt lat="44.2392920" lon="7.5401950">
        <ele>809.6</ele>
        <time>2017-07-23T06:10:19Z</time>
      </trkpt>
      <trkpt lat="44.2395300" lon="7.5398870">
        <ele>808.4</ele>
        <time>2017-07-23T06:10:22Z</time>
      </trkpt>
      <trkpt lat="44.2397830" lon="7.5395990">
        <ele>807.4</ele>
        <time>2017-07-23T06:10:25Z</time>
      </trkpt>
      <trkpt lat="44.2400600" lon="7.5393290">
        <ele>806.2</ele>
        <time>2017-07-23T06:10:28Z</time>
      </trkpt>
      <trkpt lat="44.2404780" lon="7.5388620">
        <ele>805.2</ele>
        <time>2017-07-23T06:10:33Z</time>
      </trkpt>
      <trkpt lat="44.2405530" lon="7.5387580">
        <ele>805.0</ele>
        <time>2017-07-23T06:10:34Z</time>
      </trkpt>
      <trkpt lat="44.2408320" lon="7.5383170">
        <ele>804.2</ele>
        <time>2017-07-23T06:10:38Z</time>
      </trkpt>
      <trkpt lat="44.2409660" lon="7.5380890">
        <ele>803.8</ele>
        <time>2017-07-23T06:10:40Z</time>
      </trkpt>
      <trkpt lat="44.2413630" lon="7.5374070">
        <ele>802.6</ele>
        <time>2017-07-23T06:10:46Z</time>
      </trkpt>
      <trkpt lat="44.2416870" lon="7.5368600">
        <ele>801.4</ele>
        <time>2017-07-23T06:10:51Z</time>
      </trkpt>
      <trkpt lat="44.2418210" lon="7.5366550">
        <ele>801.0</ele>
        <time>2017-07-23T06:10:53Z</time>
      </trkpt>
      <trkpt lat="44.2419580" lon="7.5364570">
        <ele>800.4</ele>
        <time>2017-07-23T06:10:55Z</time>
      </trkpt>
      <trkpt lat="44.2420270" lon="7.5363580">
        <ele>800.2</ele>
        <time>2017-07-23T06:10:56Z</time>
      </trkpt>
      <trkpt lat="44.2422390" lon="7.5359790">
        <ele>799.2</ele>
        <time>2017-07-23T06:11:00Z</time>
      </trkpt>
      <trkpt lat="44.2423420" lon="7.5357910">
        <ele>798.8</ele>
        <time>2017-07-23T06:11:02Z</time>
      </trkpt>
      <trkpt lat="44.2425450" lon="7.5354690">
        <ele>798.0</ele>
        <time>2017-07-23T06:11:05Z</time>
      </trkpt>
      <trkpt lat="44.2427670" lon="7.5351110">
        <ele>797.4</ele>
        <time>2017-07-23T06:11:08Z</time>
      </trkpt>
      <trkpt lat="44.2428340" lon="7.5349780">
        <ele>797.0</ele>
        <time>2017-07-23T06:11:09Z</time>
      </trkpt>
      <trkpt lat="44.2430040" lon="7.5345640">
        <ele>795.8</ele>
        <time>2017-07-23T06:11:12Z</time>
      </trkpt>
      <trkpt lat="44.2430560" lon="7.5344250">
        <ele>795.4</ele>
        <time>2017-07-23T06:11:13Z</time>
      </trkpt>
      <trkpt lat="44.2431620" lon="7.5341510">
        <ele>794.4</ele>
        <time>2017-07-23T06:11:15Z</time>
      </trkpt>
      <trkpt lat="44.2432640" lon="7.5338880">
        <ele>793.2</ele>
        <time>2017-07-23T06:11:17Z</time>
      </trkpt>
      <trkpt lat="44.2433840" lon="7.5336440">
        <ele>792.4</ele>
        <time>2017-07-23T06:11:19Z</time>
      </trkpt>
      <trkpt lat="44.2434560" lon="7.5335340">
        <ele>791.8</ele>
        <time>2017-07-23T06:11:20Z</time>
      </trkpt>
      <trkpt lat="44.2436110" lon="7.5333100">
        <ele>790.8</ele>
        <time>2017-07-23T06:11:22Z</time>
      </trkpt>
      <trkpt lat="44.2436940" lon="7.5332010">
        <ele>790.2</ele>
        <time>2017-07-23T06:11:23Z</time>
      </trkpt>
      <trkpt lat="44.2437780" lon="7.5330980">
        <ele>789.8</ele>
        <time>2017-07-23T06:11:24Z</time>
      </trkpt>
      <trkpt lat="44.2439580" lon="7.5329420">
        <ele>788.8</ele>
        <time>2017-07-23T06:11:26Z</time>
      </trkpt>
      <trkpt lat="44.2440490" lon="7.5328940">
        <ele>788.2</ele>
        <time>2017-07-23T06:11:27Z</time>
      </trkpt>
      <trkpt lat="44.2443350" lon="7.5327770">
        <ele>787.2</ele>
        <time>2017-07-23T06:11:30Z</time>
      </trkpt>
      <trkpt lat="44.2445050" lon="7.5327000">
        <ele>786.2</ele>
        <time>2017-07-23T06:11:32Z</time>
      </trkpt>
      <trkpt lat="44.2445740" lon="7.5326470">
        <ele>786.0</ele>
        <time>2017-07-23T06:11:33Z</time>
      </trkpt>
      <trkpt lat="44.2446380" lon="7.5324800">
        <ele>785.2</ele>
        <time>2017-07-23T06:11:35Z</time>
      </trkpt>
      <trkpt lat="44.2446460" lon="7.5323870">
        <ele>784.8</ele>
        <time>2017-07-23T06:11:36Z</time>
      </trkpt>
      <trkpt lat="44.2446220" lon="7.5321370">
        <ele>784.2</ele>
        <time>2017-07-23T06:11:39Z</time>
      </trkpt>
      <trkpt lat="44.2446140" lon="7.5320540">
        <ele>783.8</ele>
        <time>2017-07-23T06:11:40Z</time>
      </trkpt>
      <trkpt lat="44.2446220" lon="7.5318740">
        <ele>783.2</ele>
        <time>2017-07-23T06:11:42Z</time>
      </trkpt>
      <trkpt lat="44.2446320" lon="7.5317970">
        <ele>783.0</ele>
        <time>2017-07-23T06:11:43Z</time>
      </trkpt>
      <trkpt lat="44.2446600" lon="7.5316570">
        <ele>782.6</ele>
        <time>2017-07-23T06:11:45Z</time>
      </trkpt>
      <trkpt lat="44.2447370" lon="7.5314730">
        <ele>781.8</ele>
        <time>2017-07-23T06:11:48Z</time>
      </trkpt>
      <trkpt lat="44.2447720" lon="7.5314180">
        <ele>781.6</ele>
        <time>2017-07-23T06:11:49Z</time>
      </trkpt>
      <trkpt lat="44.2449130" lon="7.5312970">
        <ele>780.6</ele>
        <time>2017-07-23T06:11:52Z</time>
      </trkpt>
      <trkpt lat="44.2449870" lon="7.5312800">
        <ele>780.4</ele>
        <time>2017-07-23T06:11:53Z</time>
      </trkpt>
      <trkpt lat="44.2450720" lon="7.5312590">
        <ele>780.0</ele>
        <time>2017-07-23T06:11:54Z</time>
      </trkpt>
      <trkpt lat="44.2451650" lon="7.5312270">
        <ele>779.8</ele>
        <time>2017-07-23T06:11:55Z</time>
      </trkpt>
      <trkpt lat="44.2453840" lon="7.5311570">
        <ele>779.2</ele>
        <time>2017-07-23T06:11:57Z</time>
      </trkpt>
      <trkpt lat="44.2457230" lon="7.5310680">
        <ele>778.6</ele>
        <time>2017-07-23T06:12:00Z</time>
      </trkpt>
      <trkpt lat="44.2459340" lon="7.5309770">
        <ele>778.0</ele>
        <time>2017-07-23T06:12:02Z</time>
      </trkpt>
      <trkpt lat="44.2462800" lon="7.5307570">
        <ele>777.0</ele>
        <time>2017-07-23T06:12:06Z</time>
      </trkpt>
      <trkpt lat="44.2463690" lon="7.5307040">
        <ele>776.6</ele>
        <time>2017-07-23T06:12:07Z</time>
      </trkpt>
      <trkpt lat="44.2468290" lon="7.5304970">
        <ele>775.8</ele>
        <time>2017-07-23T06:12:12Z</time>
      </trkpt>
      <trkpt lat="44.2469250" lon="7.5304650">
        <ele>775.6</ele>
        <time>2017-07-23T06:12:13Z</time>
      </trkpt>
      <trkpt lat="44.2474290" lon="7.5303310">
        <ele>774.6</ele>
        <time>2017-07-23T06:12:18Z</time>
      </trkpt>
      <trkpt lat="44.2477250" lon="7.5302720">
        <ele>774.4</ele>
        <time>2017-07-23T06:12:21Z</time>
      </trkpt>
      <trkpt lat="44.2481550" lon="7.5302460">
        <ele>774.4</ele>
        <time>2017-07-23T06:12:26Z</time>
      </trkpt>
      <trkpt lat="44.2482330" lon="7.5302470">
        <ele>774.6</ele>
        <time>2017-07-23T06:12:27Z</time>
      </trkpt>
      <trkpt lat="44.2485530" lon="7.5302480">
        <ele>776.0</ele>
        <time>2017-07-23T06:12:32Z</time>
      </trkpt>
      <trkpt lat="44.2487380" lon="7.5302490">
        <ele>777.0</ele>
        <time>2017-07-23T06:12:36Z</time>
      </trkpt>
      <trkpt lat="44.2487740" lon="7.5302460">
        <ele>777.4</ele>
        <time>2017-07-23T06:12:37Z</time>
      </trkpt>
      <trkpt lat="44.2488450" lon="7.5302370">
        <ele>778.2</ele>
        <time>2017-07-23T06:12:39Z</time>
      </trkpt>
      <trkpt lat="44.2489710" lon="7.5301980">
        <ele>779.2</ele>
        <time>2017-07-23T06:12:43Z</time>
      </trkpt>
      <trkpt lat="44.2490000" lon="7.5301780">
        <ele>779.4</ele>
        <time>2017-07-23T06:12:44Z</time>
      </trkpt>
      <trkpt lat="44.2490890" lon="7.5301290">
        <ele>780.4</ele>
        <time>2017-07-23T06:12:47Z</time>
      </trkpt>
      <trkpt lat="44.2492100" lon="7.5300560">
        <ele>781.6</ele>
        <time>2017-07-23T06:12:51Z</time>
      </trkpt>
      <trkpt lat="44.2492640" lon="7.5300240">
        <ele>782.8</ele>
        <time>2017-07-23T06:12:53Z</time>
      </trkpt>
      <trkpt lat="44.2493470" lon="7.5299830">
        <ele>783.8</ele>
        <time>2017-07-23T06:12:56Z</time>
      </trkpt>
      <trkpt lat="44.2494560" lon="7.5299100">
        <ele>785.2</ele>
        <time>2017-07-23T06:13:00Z</time>
      </trkpt>
      <trkpt lat="44.2495590" lon="7.5298100">
        <ele>786.4</ele>
        <time>2017-07-23T06:13:04Z</time>
      </trkpt>
      <trkpt lat="44.2496210" lon="7.5297300">
        <ele>787.4</ele>
        <time>2017-07-23T06:13:07Z</time>
      </trkpt>
      <trkpt lat="44.2496370" lon="7.5297010">
        <ele>787.8</ele>
        <time>2017-07-23T06:13:08Z</time>
      </trkpt>
      <trkpt lat="44.2496940" lon="7.5295800">
        <ele>789.0</ele>
        <time>2017-07-23T06:13:12Z</time>
      </trkpt>
      <trkpt lat="44.2497160" lon="7.5295270">
        <ele>789.8</ele>
        <time>2017-07-23T06:13:14Z</time>
      </trkpt>
      <trkpt lat="44.2497270" lon="7.5295000">
        <ele>790.2</ele>
        <time>2017-07-23T06:13:15Z</time>
      </trkpt>
      <trkpt lat="44.2497600" lon="7.5294140">
        <ele>791.4</ele>
        <time>2017-07-23T06:13:18Z</time>
      </trkpt>
      <trkpt lat="44.2498030" lon="7.5293040">
        <ele>792.6</ele>
        <time>2017-07-23T06:13:22Z</time>
      </trkpt>
      <trkpt lat="44.2498620" lon="7.5291700">
        <ele>793.6</ele>
        <time>2017-07-23T06:13:26Z</time>
      </trkpt>
      <trkpt lat="44.2499050" lon="7.5290710">
        <ele>794.6</ele>
        <time>2017-07-23T06:13:29Z</time>
      </trkpt>
      <trkpt lat="44.2499180" lon="7.5290420">
        <ele>794.8</ele>
        <time>2017-07-23T06:13:30Z</time>
      </trkpt>
      <trkpt lat="44.2499740" lon="7.5289320">
        <ele>796.0</ele>
        <time>2017-07-23T06:13:34Z</time>
      </trkpt>
      <trkpt lat="44.2500030" lon="7.5288760">
        <ele>796.8</ele>
        <time>2017-07-23T06:13:36Z</time>
      </trkpt>
      <trkpt lat="44.2500180" lon="7.5288470">
        <ele>797.0</ele>
        <time>2017-07-23T06:13:37Z</time>
      </trkpt>
      <trkpt lat="44.2500600" lon="7.5287660">
        <ele>798.2</ele>
        <time>2017-07-23T06:13:40Z</time>
      </trkpt>
      <trkpt lat="44.2501120" lon="7.5286700">
        <ele>799.4</ele>
        <time>2017-07-23T06:13:44Z</time>
      </trkpt>
      <trkpt lat="44.2501700" lon="7.5285730">
        <ele>800.6</ele>
        <time>2017-07-23T06:13:48Z</time>
      </trkpt>
      <trkpt lat="44.2502100" lon="7.5284980">
        <ele>801.6</ele>
        <time>2017-07-23T06:13:51Z</time>
      </trkpt>
      <trkpt lat="44.2502370" lon="7.5284500">
        <ele>802.4</ele>
        <time>2017-07-23T06:13:53Z</time>
      </trkpt>
      <trkpt lat="44.2502680" lon="7.5284070">
        <ele>803.0</ele>
        <time>2017-07-23T06:13:55Z</time>
      </trkpt>
      <trkpt lat="44.2503270" lon="7.5283010">
        <ele>804.2</ele>
        <time>2017-07-23T06:13:59Z</time>
      </trkpt>
      <trkpt lat="44.2503390" lon="7.5282760">
        <ele>804.4</ele>
        <time>2017-07-23T06:14:00Z</time>
      </trkpt>
      <trkpt lat="44.2503780" lon="7.5282080">
        <ele>805.2</ele>
        <time>2017-07-23T06:14:03Z</time>
      </trkpt>
      <trkpt lat="44.2504220" lon="7.5281380">
        <ele>806.4</ele>
        <time>2017-07-23T06:14:06Z</time>
      </trkpt>
      <trkpt lat="44.2504550" lon="7.5280940">
        <ele>806.6</ele>
        <time>2017-07-23T06:14:08Z</time>
      </trkpt>
      <trkpt lat="44.2504840" lon="7.5280510">
        <ele>807.4</ele>
        <time>2017-07-23T06:14:10Z</time>
      </trkpt>
      <trkpt lat="44.2505350" lon="7.5279690">
        <ele>808.6</ele>
        <time>2017-07-23T06:14:14Z</time>
      </trkpt>
      <trkpt lat="44.2505710" lon="7.5279120">
        <ele>809.2</ele>
        <time>2017-07-23T06:14:17Z</time>
      </trkpt>
      <trkpt lat="44.2506000" lon="7.5278710">
        <ele>809.6</ele>
        <time>2017-07-23T06:14:19Z</time>
      </trkpt>
      <trkpt lat="44.2506590" lon="7.5277960">
        <ele>810.8</ele>
        <time>2017-07-23T06:14:23Z</time>
      </trkpt>
      <trkpt lat="44.2506900" lon="7.5277650">
        <ele>811.2</ele>
        <time>2017-07-23T06:14:25Z</time>
      </trkpt>
      <trkpt lat="44.2507260" lon="7.5277240">
        <ele>812.2</ele>
        <time>2017-07-23T06:14:28Z</time>
      </trkpt>
      <trkpt lat="44.2507820" lon="7.5276620">
        <ele>813.2</ele>
        <time>2017-07-23T06:14:32Z</time>
      </trkpt>
      <trkpt lat="44.2508500" lon="7.5275850">
        <ele>814.6</ele>
        <time>2017-07-23T06:14:37Z</time>
      </trkpt>
      <trkpt lat="44.2508760" lon="7.5275410">
        <ele>815.4</ele>
        <time>2017-07-23T06:14:40Z</time>
      </trkpt>
      <trkpt lat="44.2508850" lon="7.5275230">
        <ele>815.6</ele>
        <time>2017-07-23T06:14:41Z</time>
      </trkpt>
      <trkpt lat="44.2509330" lon="7.5274410">
        <ele>817.0</ele>
        <time>2017-07-23T06:14:46Z</time>
      </trkpt>
      <trkpt lat="44.2509840" lon="7.5273980">
        <ele>818.2</ele>
        <time>2017-07-23T06:14:50Z</time>
      </trkpt>
      <trkpt lat="44.2510330" lon="7.5273600">
        <ele>819.4</ele>
        <time>2017-07-23T06:14:53Z</time>
      </trkpt>
      <trkpt lat="44.2511200" lon="7.5273230">
        <ele>820.4</ele>
        <time>2017-07-23T06:14:57Z</time>
      </trkpt>
      <trkpt lat="44.2511450" lon="7.5273050">
        <ele>821.2</ele>
        <time>2017-07-23T06:14:59Z</time>
      </trkpt>
      <trkpt lat="44.2511930" lon="7.5272930">
        <ele>821.6</ele>
        <time>2017-07-23T06:15:01Z</time>
      </trkpt>
      <trkpt lat="44.2512890" lon="7.5272420">
        <ele>822.8</ele>
        <time>2017-07-23T06:15:05Z</time>
      </trkpt>
      <trkpt lat="44.2513390" lon="7.5272160">
        <ele>823.4</ele>
        <time>2017-07-23T06:15:07Z</time>
      </trkpt>
      <trkpt lat="44.2513820" lon="7.5271990">
        <ele>824.0</ele>
        <time>2017-07-23T06:15:09Z</time>
      </trkpt>
      <trkpt lat="44.2514590" lon="7.5271660">
        <ele>825.0</ele>
        <time>2017-07-23T06:15:13Z</time>
      </trkpt>
      <trkpt lat="44.2514850" lon="7.5271450">
        <ele>825.6</ele>
        <time>2017-07-23T06:15:15Z</time>
      </trkpt>
      <trkpt lat="44.2514970" lon="7.5271350">
        <ele>826.4</ele>
        <time>2017-07-23T06:15:16Z</time>
      </trkpt>
      <trkpt lat="44.2515580" lon="7.5271000">
        <ele>827.4</ele>
        <time>2017-07-23T06:15:20Z</time>
      </trkpt>
      <trkpt lat="44.2516100" lon="7.5270790">
        <ele>828.4</ele>
        <time>2017-07-23T06:15:23Z</time>
      </trkpt>
      <trkpt lat="44.2516220" lon="7.5270700">
        <ele>828.6</ele>
        <time>2017-07-23T06:15:24Z</time>
      </trkpt>
      <trkpt lat="44.2516510" lon="7.5270660">
        <ele>828.8</ele>
        <time>2017-07-23T06:15:25Z</time>
      </trkpt>
      <trkpt lat="44.2516990" lon="7.5270410">
        <ele>829.6</ele>
        <time>2017-07-23T06:15:28Z</time>
      </trkpt>
      <trkpt lat="44.2517530" lon="7.5270230">
        <ele>830.2</ele>
        <time>2017-07-23T06:15:30Z</time>
      </trkpt>
      <trkpt lat="44.2517970" lon="7.5270110">
        <ele>830.8</ele>
        <time>2017-07-23T06:15:32Z</time>
      </trkpt>
      <trkpt lat="44.2518930" lon="7.5269820">
        <ele>832.0</ele>
        <time>2017-07-23T06:15:36Z</time>
      </trkpt>
      <trkpt lat="44.2519120" lon="7.5269680">
        <ele>832.4</ele>
        <time>2017-07-23T06:15:37Z</time>
      </trkpt>
      <trkpt lat="44.2520310" lon="7.5268830">
        <ele>833.8</ele>
        <time>2017-07-23T06:15:45Z</time>
      </trkpt>
      <trkpt lat="44.2521360" lon="7.5268320">
        <ele>835.4</ele>
        <time>2017-07-23T06:15:54Z</time>
      </trkpt>
      <trkpt lat="44.2521500" lon="7.5268340">
        <ele>835.6</ele>
        <time>2017-07-23T06:15:55Z</time>
      </trkpt>
      <trkpt lat="44.2522260" lon="7.5268450">
        <ele>836.4</ele>
        <time>2017-07-23T06:15:59Z</time>
      </trkpt>
      <trkpt lat="44.2523090" lon="7.5268490">
        <ele>837.4</ele>
        <time>2017-07-23T06:16:02Z</time>
      </trkpt>
      <trkpt lat="44.2523340" lon="7.5268500">
        <ele>837.6</ele>
        <time>2017-07-23T06:16:03Z</time>
      </trkpt>
      <trkpt lat="44.2524230" lon="7.5268630">
        <ele>840.4</ele>
        <time>2017-07-23T06:16:06Z</time>
      </trkpt>
      <trkpt lat="44.2525180" lon="7.5268560">
        <ele>840.0</ele>
        <time>2017-07-23T06:16:10Z</time>
      </trkpt>
      <trkpt lat="44.2525710" lon="7.5268490">
        <ele>841.6</ele>
        <time>2017-07-23T06:16:13Z</time>
      </trkpt>
      <trkpt lat="44.2526130" lon="7.5268350">
        <ele>842.8</ele>
        <time>2017-07-23T06:16:16Z</time>
      </trkpt>
      <trkpt lat="44.2526670" lon="7.5268080">
        <ele>844.4</ele>
        <time>2017-07-23T06:16:19Z</time>
      </trkpt>
      <trkpt lat="44.2526800" lon="7.5267900">
        <ele>846.0</ele>
        <time>2017-07-23T06:16:20Z</time>
      </trkpt>
      <trkpt lat="44.2526920" lon="7.5267250">
        <ele>845.8</ele>
        <time>2017-07-23T06:16:24Z</time>
      </trkpt>
      <trkpt lat="44.2526870" lon="7.5267160">
        <ele>845.6</ele>
        <time>2017-07-23T06:16:25Z</time>
      </trkpt>
      <trkpt lat="44.2526470" lon="7.5267090">
        <ele>847.0</ele>
        <time>2017-07-23T06:16:28Z</time>
      </trkpt>
      <trkpt lat="44.2526350" lon="7.5267150">
        <ele>847.2</ele>
        <time>2017-07-23T06:16:29Z</time>
      </trkpt>
      <trkpt lat="44.2526090" lon="7.5267250">
        <ele>848.0</ele>
        <time>2017-07-23T06:16:31Z</time>
      </trkpt>
      <trkpt lat="44.2525950" lon="7.5267350">
        <ele>850.6</ele>
        <time>2017-07-23T06:16:32Z</time>
      </trkpt>
      <trkpt lat="44.2525400" lon="7.5267590">
        <ele>848.2</ele>
        <time>2017-07-23T06:16:35Z</time>
      </trkpt>
      <trkpt lat="44.2525000" lon="7.5267490">
        <ele>849.8</ele>
        <time>2017-07-23T06:16:37Z</time>
      </trkpt>
      <trkpt lat="44.2524810" lon="7.5267350">
        <ele>850.6</ele>
        <time>2017-07-23T06:16:38Z</time>
      </trkpt>
      <trkpt lat="44.2524640" lon="7.5267220">
        <ele>850.8</ele>
        <time>2017-07-23T06:16:39Z</time>
      </trkpt>
      <trkpt lat="44.2524420" lon="7.5266630">
        <ele>852.0</ele>
        <time>2017-07-23T06:16:42Z</time>
      </trkpt>
      <trkpt lat="44.2524460" lon="7.5266380">
        <ele>852.2</ele>
        <time>2017-07-23T06:16:43Z</time>
      </trkpt>
      <trkpt lat="44.2524780" lon="7.5265850">
        <ele>852.8</ele>
        <time>2017-07-23T06:16:46Z</time>
      </trkpt>
      <trkpt lat="44.2524910" lon="7.5265690">
        <ele>853.0</ele>
        <time>2017-07-23T06:16:47Z</time>
      </trkpt>
      <trkpt lat="44.2525040" lon="7.5265540">
        <ele>853.4</ele>
        <time>2017-07-23T06:16:48Z</time>
      </trkpt>
      <trkpt lat="44.2525520" lon="7.5264910">
        <ele>854.6</ele>
        <time>2017-07-23T06:16:52Z</time>
      </trkpt>
      <trkpt lat="44.2525920" lon="7.5264430">
        <ele>855.4</ele>
        <time>2017-07-23T06:16:55Z</time>
      </trkpt>
      <trkpt lat="44.2526060" lon="7.5264270">
        <ele>855.6</ele>
        <time>2017-07-23T06:16:56Z</time>
      </trkpt>
      <trkpt lat="44.2526260" lon="7.5264050">
        <ele>856.4</ele>
        <time>2017-07-23T06:16:58Z</time>
      </trkpt>
      <trkpt lat="44.2526410" lon="7.5263780">
        <ele>857.0</ele>
        <time>2017-07-23T06:17:00Z</time>
      </trkpt>
      <trkpt lat="44.2526490" lon="7.5263650">
        <ele>857.2</ele>
        <time>2017-07-23T06:17:01Z</time>
      </trkpt>
      <trkpt lat="44.2526740" lon="7.5263270">
        <ele>858.2</ele>
        <time>2017-07-23T06:17:04Z</time>
      </trkpt>
      <trkpt lat="44.2527130" lon="7.5262710">
        <ele>859.6</ele>
        <time>2017-07-23T06:17:08Z</time>
      </trkpt>
      <trkpt lat="44.2527330" lon="7.5262330">
        <ele>860.2</ele>
        <time>2017-07-23T06:17:10Z</time>
      </trkpt>
      <trkpt lat="44.2527470" lon="7.5261990">
        <ele>860.8</ele>
        <time>2017-07-23T06:17:12Z</time>
      </trkpt>
      <trkpt lat="44.2527730" lon="7.5261360">
        <ele>862.2</ele>
        <time>2017-07-23T06:17:15Z</time>
      </trkpt>
      <trkpt lat="44.2527910" lon="7.5260910">
        <ele>863.2</ele>
        <time>2017-07-23T06:17:17Z</time>
      </trkpt>
      <trkpt lat="44.2528140" lon="7.5260250">
        <ele>864.2</ele>
        <time>2017-07-23T06:17:20Z</time>
      </trkpt>
      <trkpt lat="44.2528410" lon="7.5259530">
        <ele>865.2</ele>
        <time>2017-07-23T06:17:23Z</time>
      </trkpt>
      <trkpt lat="44.2528520" lon="7.5259310">
        <ele>865.6</ele>
        <time>2017-07-23T06:17:24Z</time>
      </trkpt>
      <trkpt lat="44.2528790" lon="7.5258700">
        <ele>866.6</ele>
        <time>2017-07-23T06:17:27Z</time>
      </trkpt>
      <trkpt lat="44.2529020" lon="7.5258160">
        <ele>867.8</ele>
        <time>2017-07-23T06:17:30Z</time>
      </trkpt>
      <trkpt lat="44.2529200" lon="7.5257790">
        <ele>868.2</ele>
        <time>2017-07-23T06:17:32Z</time>
      </trkpt>
      <trkpt lat="44.2529370" lon="7.5257480">
        <ele>868.8</ele>
        <time>2017-07-23T06:17:34Z</time>
      </trkpt>
      <trkpt lat="44.2529830" lon="7.5256820">
        <ele>870.0</ele>
        <time>2017-07-23T06:17:38Z</time>
      </trkpt>
      <trkpt lat="44.2530170" lon="7.5256270">
        <ele>871.2</ele>
        <time>2017-07-23T06:17:41Z</time>
      </trkpt>
      <trkpt lat="44.2530710" lon="7.5255570">
        <ele>872.2</ele>
        <time>2017-07-23T06:17:45Z</time>
      </trkpt>
      <trkpt lat="44.2531190" lon="7.5254900">
        <ele>873.4</ele>
        <time>2017-07-23T06:17:49Z</time>
      </trkpt>
      <trkpt lat="44.2531450" lon="7.5254170">
        <ele>874.4</ele>
        <time>2017-07-23T06:17:53Z</time>
      </trkpt>
      <trkpt lat="44.2531540" lon="7.5253610">
        <ele>875.4</ele>
        <time>2017-07-23T06:17:56Z</time>
      </trkpt>
      <trkpt lat="44.2531570" lon="7.5253400">
        <ele>875.6</ele>
        <time>2017-07-23T06:17:57Z</time>
      </trkpt>
      <trkpt lat="44.2531480" lon="7.5252280">
        <ele>876.6</ele>
        <time>2017-07-23T06:18:01Z</time>
      </trkpt>
      <trkpt lat="44.2531480" lon="7.5251690">
        <ele>877.2</ele>
        <time>2017-07-23T06:18:03Z</time>
      </trkpt>
      <trkpt lat="44.2531480" lon="7.5251050">
        <ele>878.0</ele>
        <time>2017-07-23T06:18:05Z</time>
      </trkpt>
      <trkpt lat="44.2531710" lon="7.5249830">
        <ele>879.2</ele>
        <time>2017-07-23T06:18:10Z</time>
      </trkpt>
      <trkpt lat="44.2531750" lon="7.5249610">
        <ele>879.6</ele>
        <time>2017-07-23T06:18:11Z</time>
      </trkpt>
      <trkpt lat="44.2531890" lon="7.5248970">
        <ele>880.4</ele>
        <time>2017-07-23T06:18:14Z</time>
      </trkpt>
      <trkpt lat="44.2531910" lon="7.5247750">
        <ele>881.6</ele>
        <time>2017-07-23T06:18:19Z</time>
      </trkpt>
      <trkpt lat="44.2531990" lon="7.5246640">
        <ele>882.6</ele>
        <time>2017-07-23T06:18:23Z</time>
      </trkpt>
      <trkpt lat="44.2532120" lon="7.5245580">
        <ele>883.8</ele>
        <time>2017-07-23T06:18:27Z</time>
      </trkpt>
      <trkpt lat="44.2532130" lon="7.5245330">
        <ele>884.0</ele>
        <time>2017-07-23T06:18:28Z</time>
      </trkpt>
      <trkpt lat="44.2532150" lon="7.5244770">
        <ele>885.0</ele>
        <time>2017-07-23T06:18:30Z</time>
      </trkpt>
      <trkpt lat="44.2532180" lon="7.5243650">
        <ele>886.0</ele>
        <time>2017-07-23T06:18:34Z</time>
      </trkpt>
      <trkpt lat="44.2532170" lon="7.5242760">
        <ele>886.8</ele>
        <time>2017-07-23T06:18:37Z</time>
      </trkpt>
      <trkpt lat="44.2532180" lon="7.5242490">
        <ele>887.2</ele>
        <time>2017-07-23T06:18:38Z</time>
      </trkpt>
      <trkpt lat="44.2532160" lon="7.5240980">
        <ele>888.4</ele>
        <time>2017-07-23T06:18:43Z</time>
      </trkpt>
      <trkpt lat="44.2532140" lon="7.5240360">
        <ele>889.0</ele>
        <time>2017-07-23T06:18:45Z</time>
      </trkpt>
      <trkpt lat="44.2532120" lon="7.5239780">
        <ele>889.6</ele>
        <time>2017-07-23T06:18:47Z</time>
      </trkpt>
      <trkpt lat="44.2532150" lon="7.5238520">
        <ele>890.6</ele>
        <time>2017-07-23T06:18:52Z</time>
      </trkpt>
      <trkpt lat="44.2532190" lon="7.5237960">
        <ele>891.4</ele>
        <time>2017-07-23T06:18:54Z</time>
      </trkpt>
      <trkpt lat="44.2532190" lon="7.5237740">
        <ele>891.6</ele>
        <time>2017-07-23T06:18:55Z</time>
      </trkpt>
      <trkpt lat="44.2532180" lon="7.5236650">
        <ele>892.8</ele>
        <time>2017-07-23T06:18:59Z</time>
      </trkpt>
      <trkpt lat="44.2532180" lon="7.5236370">
        <ele>893.0</ele>
        <time>2017-07-23T06:19:00Z</time>
      </trkpt>
      <trkpt lat="44.2532220" lon="7.5235200">
        <ele>893.8</ele>
        <time>2017-07-23T06:19:04Z</time>
      </trkpt>
      <trkpt lat="44.2532390" lon="7.5233810">
        <ele>894.4</ele>
        <time>2017-07-23T06:19:09Z</time>
      </trkpt>
      <trkpt lat="44.2532550" lon="7.5233050">
        <ele>895.2</ele>
        <time>2017-07-23T06:19:12Z</time>
      </trkpt>
      <trkpt lat="44.2532830" lon="7.5232230">
        <ele>895.6</ele>
        <time>2017-07-23T06:19:15Z</time>
      </trkpt>
      <trkpt lat="44.2533040" lon="7.5231690">
        <ele>896.2</ele>
        <time>2017-07-23T06:19:17Z</time>
      </trkpt>
      <trkpt lat="44.2533450" lon="7.5230680">
        <ele>897.4</ele>
        <time>2017-07-23T06:19:21Z</time>
      </trkpt>
      <trkpt lat="44.2533970" lon="7.5229330">
        <ele>898.4</ele>
        <time>2017-07-23T06:19:26Z</time>
      </trkpt>
      <trkpt lat="44.2534280" lon="7.5228560">
        <ele>899.4</ele>
        <time>2017-07-23T06:19:29Z</time>
      </trkpt>
      <trkpt lat="44.2534360" lon="7.5228300">
        <ele>899.6</ele>
        <time>2017-07-23T06:19:30Z</time>
      </trkpt>
      <trkpt lat="44.2534560" lon="7.5227180">
        <ele>900.8</ele>
        <time>2017-07-23T06:19:34Z</time>
      </trkpt>
      <trkpt lat="44.2534700" lon="7.5226590">
        <ele>901.4</ele>
        <time>2017-07-23T06:19:36Z</time>
      </trkpt>
      <trkpt lat="44.2534880" lon="7.5226010">
        <ele>902.0</ele>
        <time>2017-07-23T06:19:38Z</time>
      </trkpt>
      <trkpt lat="44.2535030" lon="7.5224720">
        <ele>903.4</ele>
        <time>2017-07-23T06:19:42Z</time>
      </trkpt>
      <trkpt lat="44.2535080" lon="7.5224070">
        <ele>903.8</ele>
        <time>2017-07-23T06:19:44Z</time>
      </trkpt>
      <trkpt lat="44.2535240" lon="7.5222810">
        <ele>904.6</ele>
        <time>2017-07-23T06:19:48Z</time>
      </trkpt>
      <trkpt lat="44.2535150" lon="7.5222030">
        <ele>905.4</ele>
        <time>2017-07-23T06:19:51Z</time>
      </trkpt>
      <trkpt lat="44.2535130" lon="7.5221730">
        <ele>905.6</ele>
        <time>2017-07-23T06:19:52Z</time>
      </trkpt>
      <trkpt lat="44.2534830" lon="7.5220400">
        <ele>906.8</ele>
        <time>2017-07-23T06:19:56Z</time>
      </trkpt>
      <trkpt lat="44.2534550" lon="7.5219640">
        <ele>907.4</ele>
        <time>2017-07-23T06:19:59Z</time>
      </trkpt>
      <trkpt lat="44.2534400" lon="7.5219200">
        <ele>908.0</ele>
        <time>2017-07-23T06:20:01Z</time>
      </trkpt>
      <trkpt lat="44.2534230" lon="7.5218660">
        <ele>908.8</ele>
        <time>2017-07-23T06:20:04Z</time>
      </trkpt>
      <trkpt lat="44.2534130" lon="7.5218480">
        <ele>909.2</ele>
        <time>2017-07-23T06:20:05Z</time>
      </trkpt>
      <trkpt lat="44.2534020" lon="7.5218310">
        <ele>909.4</ele>
        <time>2017-07-23T06:20:06Z</time>
      </trkpt>
      <trkpt lat="44.2533710" lon="7.5217660">
        <ele>910.4</ele>
        <time>2017-07-23T06:20:09Z</time>
      </trkpt>
      <trkpt lat="44.2533360" lon="7.5217010">
        <ele>911.6</ele>
        <time>2017-07-23T06:20:13Z</time>
      </trkpt>
      <trkpt lat="44.2533050" lon="7.5216460">
        <ele>912.8</ele>
        <time>2017-07-23T06:20:17Z</time>
      </trkpt>
      <trkpt lat="44.2532500" lon="7.5215870">
        <ele>914.2</ele>
        <time>2017-07-23T06:20:22Z</time>
      </trkpt>
      <trkpt lat="44.2531710" lon="7.5215180">
        <ele>915.0</ele>
        <time>2017-07-23T06:20:27Z</time>
      </trkpt>
      <trkpt lat="44.2531450" lon="7.5214940">
        <ele>915.6</ele>
        <time>2017-07-23T06:20:29Z</time>
      </trkpt>
      <trkpt lat="44.2530940" lon="7.5214500">
        <ele>916.8</ele>
        <time>2017-07-23T06:20:33Z</time>
      </trkpt>
      <trkpt lat="44.2530410" lon="7.5214160">
        <ele>917.8</ele>
        <time>2017-07-23T06:20:36Z</time>
      </trkpt>
      <trkpt lat="44.2529930" lon="7.5213710">
        <ele>918.8</ele>
        <time>2017-07-23T06:20:39Z</time>
      </trkpt>
      <trkpt lat="44.2529520" lon="7.5213060">
        <ele>920.0</ele>
        <time>2017-07-23T06:20:42Z</time>
      </trkpt>
      <trkpt lat="44.2529440" lon="7.5212820">
        <ele>920.4</ele>
        <time>2017-07-23T06:20:43Z</time>
      </trkpt>
      <trkpt lat="44.2529370" lon="7.5212600">
        <ele>920.8</ele>
        <time>2017-07-23T06:20:44Z</time>
      </trkpt>
      <trkpt lat="44.2529250" lon="7.5212210">
        <ele>921.4</ele>
        <time>2017-07-23T06:20:46Z</time>
      </trkpt>
      <trkpt lat="44.2529040" lon="7.5211580">
        <ele>922.4</ele>
        <time>2017-07-23T06:20:49Z</time>
      </trkpt>
      <trkpt lat="44.2528960" lon="7.5211120">
        <ele>923.2</ele>
        <time>2017-07-23T06:20:51Z</time>
      </trkpt>
      <trkpt lat="44.2528870" lon="7.5210880">
        <ele>923.6</ele>
        <time>2017-07-23T06:20:52Z</time>
      </trkpt>
      <trkpt lat="44.2528650" lon="7.5210050">
        <ele>924.8</ele>
        <time>2017-07-23T06:20:55Z</time>
      </trkpt>
      <trkpt lat="44.2528610" lon="7.5209570">
        <ele>925.6</ele>
        <time>2017-07-23T06:20:57Z</time>
      </trkpt>
      <trkpt lat="44.2528560" lon="7.5209330">
        <ele>926.0</ele>
        <time>2017-07-23T06:20:58Z</time>
      </trkpt>
      <trkpt lat="44.2528370" lon="7.5208490">
        <ele>927.2</ele>
        <time>2017-07-23T06:21:02Z</time>
      </trkpt>
      <trkpt lat="44.2528270" lon="7.5207950">
        <ele>928.2</ele>
        <time>2017-07-23T06:21:05Z</time>
      </trkpt>
      <trkpt lat="44.2528240" lon="7.5207780">
        <ele>928.4</ele>
        <time>2017-07-23T06:21:06Z</time>
      </trkpt>
      <trkpt lat="44.2528080" lon="7.5206960">
        <ele>929.6</ele>
        <time>2017-07-23T06:21:10Z</time>
      </trkpt>
      <trkpt lat="44.2528140" lon="7.5206530">
        <ele>930.4</ele>
        <time>2017-07-23T06:21:12Z</time>
      </trkpt>
      <trkpt lat="44.2528210" lon="7.5206290">
        <ele>930.8</ele>
        <time>2017-07-23T06:21:13Z</time>
      </trkpt>
      <trkpt lat="44.2528620" lon="7.5205480">
        <ele>932.2</ele>
        <time>2017-07-23T06:21:17Z</time>
      </trkpt>
      <trkpt lat="44.2528860" lon="7.5205100">
        <ele>933.0</ele>
        <time>2017-07-23T06:21:19Z</time>
      </trkpt>
      <trkpt lat="44.2528950" lon="7.5204940">
        <ele>933.2</ele>
        <time>2017-07-23T06:21:20Z</time>
      </trkpt>
      <trkpt lat="44.2529360" lon="7.5204300">
        <ele>934.4</ele>
        <time>2017-07-23T06:21:23Z</time>
      </trkpt>
      <trkpt lat="44.2529910" lon="7.5203480">
        <ele>935.4</ele>
        <time>2017-07-23T06:21:27Z</time>
      </trkpt>
      <trkpt lat="44.2530030" lon="7.5203340">
        <ele>935.6</ele>
        <time>2017-07-23T06:21:28Z</time>
      </trkpt>
      <trkpt lat="44.2530550" lon="7.5202920">
        <ele>936.8</ele>
        <time>2017-07-23T06:21:32Z</time>
      </trkpt>
      <trkpt lat="44.2531060" lon="7.5202360">
        <ele>937.8</ele>
        <time>2017-07-23T06:21:36Z</time>
      </trkpt>
      <trkpt lat="44.2531450" lon="7.5201590">
        <ele>939.0</ele>
        <time>2017-07-23T06:21:40Z</time>
      </trkpt>
      <trkpt lat="44.2531610" lon="7.5201030">
        <ele>940.0</ele>
        <time>2017-07-23T06:21:43Z</time>
      </trkpt>
      <trkpt lat="44.2531860" lon="7.5200220">
        <ele>941.2</ele>
        <time>2017-07-23T06:21:47Z</time>
      </trkpt>
      <trkpt lat="44.2532190" lon="7.5199460">
        <ele>942.2</ele>
        <time>2017-07-23T06:21:51Z</time>
      </trkpt>
      <trkpt lat="44.2532250" lon="7.5199330">
        <ele>942.6</ele>
        <time>2017-07-23T06:21:52Z</time>
      </trkpt>
      <trkpt lat="44.2532430" lon="7.5198680">
        <ele>943.4</ele>
        <time>2017-07-23T06:21:55Z</time>
      </trkpt>
      <trkpt lat="44.2532660" lon="7.5198190">
        <ele>944.4</ele>
        <time>2017-07-23T06:21:58Z</time>
      </trkpt>
      <trkpt lat="44.2532770" lon="7.5198030">
        <ele>944.6</ele>
        <time>2017-07-23T06:21:59Z</time>
      </trkpt>
      <trkpt lat="44.2533040" lon="7.5197530">
        <ele>945.8</ele>
        <time>2017-07-23T06:22:03Z</time>
      </trkpt>
      <trkpt lat="44.2533220" lon="7.5197320">
        <ele>946.6</ele>
        <time>2017-07-23T06:22:05Z</time>
      </trkpt>
      <trkpt lat="44.2533340" lon="7.5197190">
        <ele>947.0</ele>
        <time>2017-07-23T06:22:06Z</time>
      </trkpt>
      <trkpt lat="44.2533750" lon="7.5196740">
        <ele>948.0</ele>
        <time>2017-07-23T06:22:10Z</time>
      </trkpt>
      <trkpt lat="44.2534030" lon="7.5196340">
        <ele>949.2</ele>
        <time>2017-07-23T06:22:13Z</time>
      </trkpt>
      <trkpt lat="44.2534640" lon="7.5195890">
        <ele>950.2</ele>
        <time>2017-07-23T06:22:17Z</time>
      </trkpt>
      <trkpt lat="44.2535090" lon="7.5195760">
        <ele>951.0</ele>
        <time>2017-07-23T06:22:19Z</time>
      </trkpt>
      <trkpt lat="44.2535450" lon="7.5195680">
        <ele>951.4</ele>
        <time>2017-07-23T06:22:21Z</time>
      </trkpt>
      <trkpt lat="44.2536240" lon="7.5195640">
        <ele>952.6</ele>
        <time>2017-07-23T06:22:25Z</time>
      </trkpt>
      <trkpt lat="44.2536380" lon="7.5195720">
        <ele>952.8</ele>
        <time>2017-07-23T06:22:26Z</time>
      </trkpt>
      <trkpt lat="44.2536590" lon="7.5195890">
        <ele>953.0</ele>
        <time>2017-07-23T06:22:27Z</time>
      </trkpt>
      <trkpt lat="44.2537040" lon="7.5196210">
        <ele>953.8</ele>
        <time>2017-07-23T06:22:29Z</time>
      </trkpt>
      <trkpt lat="44.2538030" lon="7.5196600">
        <ele>954.4</ele>
        <time>2017-07-23T06:22:32Z</time>
      </trkpt>
      <trkpt lat="44.2538760" lon="7.5196840">
        <ele>954.8</ele>
        <time>2017-07-23T06:22:34Z</time>
      </trkpt>
      <trkpt lat="44.2539710" lon="7.5197260">
        <ele>956.0</ele>
        <time>2017-07-23T06:22:38Z</time>
      </trkpt>
      <trkpt lat="44.2539850" lon="7.5197390">
        <ele>956.4</ele>
        <time>2017-07-23T06:22:39Z</time>
      </trkpt>
      <trkpt lat="44.2540280" lon="7.5197650">
        <ele>957.2</ele>
        <time>2017-07-23T06:22:42Z</time>
      </trkpt>
      <trkpt lat="44.2540620" lon="7.5197880">
        <ele>958.2</ele>
        <time>2017-07-23T06:22:45Z</time>
      </trkpt>
      <trkpt lat="44.2540730" lon="7.5197960">
        <ele>958.4</ele>
        <time>2017-07-23T06:22:46Z</time>
      </trkpt>
      <trkpt lat="44.2541320" lon="7.5197880">
        <ele>959.6</ele>
        <time>2017-07-23T06:22:50Z</time>
      </trkpt>
      <trkpt lat="44.2541450" lon="7.5197710">
        <ele>959.6</ele>
        <time>2017-07-23T06:22:51Z</time>
      </trkpt>
      <trkpt lat="44.2541380" lon="7.5197130">
        <ele>960.8</ele>
        <time>2017-07-23T06:22:54Z</time>
      </trkpt>
      <trkpt lat="44.2541290" lon="7.5197020">
        <ele>961.0</ele>
        <time>2017-07-23T06:22:55Z</time>
      </trkpt>
      <trkpt lat="44.2541070" lon="7.5196830">
        <ele>961.6</ele>
        <time>2017-07-23T06:22:57Z</time>
      </trkpt>
      <trkpt lat="44.2540930" lon="7.5196740">
        <ele>961.8</ele>
        <time>2017-07-23T06:22:58Z</time>
      </trkpt>
      <trkpt lat="44.2540480" lon="7.5196430">
        <ele>962.8</ele>
        <time>2017-07-23T06:23:02Z</time>
      </trkpt>
      <trkpt lat="44.2540370" lon="7.5196330">
        <ele>963.0</ele>
        <time>2017-07-23T06:23:03Z</time>
      </trkpt>
      <trkpt lat="44.2539790" lon="7.5195730">
        <ele>964.2</ele>
        <time>2017-07-23T06:23:08Z</time>
      </trkpt>
      <trkpt lat="44.2539670" lon="7.5195640">
        <ele>964.4</ele>
        <time>2017-07-23T06:23:09Z</time>
      </trkpt>
      <trkpt lat="44.2539180" lon="7.5195200">
        <ele>965.4</ele>
        <time>2017-07-23T06:23:13Z</time>
      </trkpt>
      <trkpt lat="44.2538810" lon="7.5194770">
        <ele>966.0</ele>
        <time>2017-07-23T06:23:16Z</time>
      </trkpt>
      <trkpt lat="44.2538740" lon="7.5194610">
        <ele>966.4</ele>
        <time>2017-07-23T06:23:17Z</time>
      </trkpt>
      <trkpt lat="44.2538510" lon="7.5193800">
        <ele>967.6</ele>
        <time>2017-07-23T06:23:22Z</time>
      </trkpt>
      <trkpt lat="44.2538490" lon="7.5193630">
        <ele>967.8</ele>
        <time>2017-07-23T06:23:23Z</time>
      </trkpt>
      <trkpt lat="44.2538100" lon="7.5193140">
        <ele>968.6</ele>
        <time>2017-07-23T06:23:27Z</time>
      </trkpt>
      <trkpt lat="44.2537740" lon="7.5193140">
        <ele>969.2</ele>
        <time>2017-07-23T06:23:29Z</time>
      </trkpt>
      <trkpt lat="44.2537300" lon="7.5193130">
        <ele>969.6</ele>
        <time>2017-07-23T06:23:31Z</time>
      </trkpt>
      <trkpt lat="44.2537110" lon="7.5193050">
        <ele>969.8</ele>
        <time>2017-07-23T06:23:32Z</time>
      </trkpt>
      <trkpt lat="44.2537010" lon="7.5192890">
        <ele>970.0</ele>
        <time>2017-07-23T06:23:33Z</time>
      </trkpt>
      <trkpt lat="44.2536920" lon="7.5192700">
        <ele>970.2</ele>
        <time>2017-07-23T06:23:34Z</time>
      </trkpt>
      <trkpt lat="44.2536980" lon="7.5192190">
        <ele>970.8</ele>
        <time>2017-07-23T06:23:36Z</time>
      </trkpt>
      <trkpt lat="44.2537200" lon="7.5191740">
        <ele>971.4</ele>
        <time>2017-07-23T06:23:38Z</time>
      </trkpt>
      <trkpt lat="44.2537480" lon="7.5191110">
        <ele>972.0</ele>
        <time>2017-07-23T06:23:40Z</time>
      </trkpt>
      <trkpt lat="44.2537670" lon="7.5190820">
        <ele>972.6</ele>
        <time>2017-07-23T06:23:41Z</time>
      </trkpt>
      <trkpt lat="44.2537970" lon="7.5190140">
        <ele>973.0</ele>
        <time>2017-07-23T06:23:43Z</time>
      </trkpt>
      <trkpt lat="44.2538110" lon="7.5189820">
        <ele>973.2</ele>
        <time>2017-07-23T06:23:44Z</time>
      </trkpt>
      <trkpt lat="44.2537790" lon="7.5187790">
        <ele>974.2</ele>
        <time>2017-07-23T06:23:48Z</time>
      </trkpt>
      <trkpt lat="44.2536640" lon="7.5184780">
        <ele>974.8</ele>
        <time>2017-07-23T06:23:53Z</time>
      </trkpt>
      <trkpt lat="44.2536360" lon="7.5184230">
        <ele>975.0</ele>
        <time>2017-07-23T06:23:54Z</time>
      </trkpt>
      <trkpt lat="44.2535670" lon="7.5183220">
        <ele>975.2</ele>
        <time>2017-07-23T06:23:56Z</time>
      </trkpt>
      <trkpt lat="44.2535320" lon="7.5182750">
        <ele>975.2</ele>
        <time>2017-07-23T06:23:57Z</time>
      </trkpt>
      <trkpt lat="44.2534600" lon="7.5181560">
        <ele>975.2</ele>
        <time>2017-07-23T06:23:59Z</time>
      </trkpt>
      <trkpt lat="44.2534130" lon="7.5179290">
        <ele>975.4</ele>
        <time>2017-07-23T06:24:02Z</time>
      </trkpt>
      <trkpt lat="44.2534470" lon="7.5177210">
        <ele>975.6</ele>
        <time>2017-07-23T06:24:05Z</time>
      </trkpt>
      <trkpt lat="44.2534600" lon="7.5176630">
        <ele>975.6</ele>
        <time>2017-07-23T06:24:06Z</time>
      </trkpt>
      <trkpt lat="44.2534800" lon="7.5175010">
        <ele>976.2</ele>
        <time>2017-07-23T06:24:09Z</time>
      </trkpt>
      <trkpt lat="44.2534720" lon="7.5174060">
        <ele>976.4</ele>
        <time>2017-07-23T06:24:11Z</time>
      </trkpt>
      <trkpt lat="44.2534180" lon="7.5172860">
        <ele>976.8</ele>
        <time>2017-07-23T06:24:15Z</time>
      </trkpt>
      <trkpt lat="44.2533830" lon="7.5172370">
        <ele>977.2</ele>
        <time>2017-07-23T06:24:17Z</time>
      </trkpt>
      <trkpt lat="44.2532770" lon="7.5170820">
        <ele>978.0</ele>
        <time>2017-07-23T06:24:21Z</time>
      </trkpt>
      <trkpt lat="44.2532480" lon="7.5170370">
        <ele>978.2</ele>
        <time>2017-07-23T06:24:22Z</time>
      </trkpt>
      <trkpt lat="44.2530750" lon="7.5167320">
        <ele>979.0</ele>
        <time>2017-07-23T06:24:28Z</time>
      </trkpt>
      <trkpt lat="44.2530460" lon="7.5166810">
        <ele>979.2</ele>
        <time>2017-07-23T06:24:29Z</time>
      </trkpt>
      <trkpt lat="44.2529110" lon="7.5164810">
        <ele>979.6</ele>
        <time>2017-07-23T06:24:33Z</time>
      </trkpt>
      <trkpt lat="44.2528380" lon="7.5163740">
        <ele>980.0</ele>
        <time>2017-07-23T06:24:35Z</time>
      </trkpt>
      <trkpt lat="44.2527310" lon="7.5162550">
        <ele>980.4</ele>
        <time>2017-07-23T06:24:37Z</time>
      </trkpt>
      <trkpt lat="44.2526470" lon="7.5161600">
        <ele>980.6</ele>
        <time>2017-07-23T06:24:39Z</time>
      </trkpt>
      <trkpt lat="44.2525580" lon="7.5161240">
        <ele>980.8</ele>
        <time>2017-07-23T06:24:41Z</time>
      </trkpt>
      <trkpt lat="44.2524810" lon="7.5161330">
        <ele>981.4</ele>
        <time>2017-07-23T06:24:43Z</time>
      </trkpt>
      <trkpt lat="44.2524120" lon="7.5161730">
        <ele>982.0</ele>
        <time>2017-07-23T06:24:45Z</time>
      </trkpt>
      <trkpt lat="44.2523450" lon="7.5162340">
        <ele>982.4</ele>
        <time>2017-07-23T06:24:47Z</time>
      </trkpt>
      <trkpt lat="44.2523110" lon="7.5162690">
        <ele>982.6</ele>
        <time>2017-07-23T06:24:48Z</time>
      </trkpt>
      <trkpt lat="44.2522260" lon="7.5163780">
        <ele>983.2</ele>
        <time>2017-07-23T06:24:51Z</time>
      </trkpt>
      <trkpt lat="44.2521830" lon="7.5164480">
        <ele>983.8</ele>
        <time>2017-07-23T06:24:53Z</time>
      </trkpt>
      <trkpt lat="44.2521000" lon="7.5165420">
        <ele>984.8</ele>
        <time>2017-07-23T06:24:57Z</time>
      </trkpt>
      <trkpt lat="44.2520820" lon="7.5165670">
        <ele>985.0</ele>
        <time>2017-07-23T06:24:58Z</time>
      </trkpt>
      <trkpt lat="44.2519810" lon="7.5166610">
        <ele>986.2</ele>
        <time>2017-07-23T06:25:03Z</time>
      </trkpt>
      <trkpt lat="44.2519610" lon="7.5166750">
        <ele>986.4</ele>
        <time>2017-07-23T06:25:04Z</time>
      </trkpt>
      <trkpt lat="44.2519070" lon="7.5167060">
        <ele>987.4</ele>
        <time>2017-07-23T06:25:07Z</time>
      </trkpt>
      <trkpt lat="44.2518430" lon="7.5167560">
        <ele>988.4</ele>
        <time>2017-07-23T06:25:10Z</time>
      </trkpt>
      <trkpt lat="44.2518170" lon="7.5167700">
        <ele>988.8</ele>
        <time>2017-07-23T06:25:11Z</time>
      </trkpt>
      <trkpt lat="44.2517450" lon="7.5168130">
        <ele>989.8</ele>
        <time>2017-07-23T06:25:14Z</time>
      </trkpt>
      <trkpt lat="44.2516570" lon="7.5168400">
        <ele>991.6</ele>
        <time>2017-07-23T06:25:17Z</time>
      </trkpt>
      <trkpt lat="44.2516410" lon="7.5168410">
        <ele>992.0</ele>
        <time>2017-07-23T06:25:18Z</time>
      </trkpt>
      <trkpt lat="44.2515940" lon="7.5168460">
        <ele>992.8</ele>
        <time>2017-07-23T06:25:20Z</time>
      </trkpt>
      <trkpt lat="44.2515020" lon="7.5168750">
        <ele>994.2</ele>
        <time>2017-07-23T06:25:23Z</time>
      </trkpt>
      <trkpt lat="44.2514440" lon="7.5168910">
        <ele>995.0</ele>
        <time>2017-07-23T06:25:25Z</time>
      </trkpt>
      <trkpt lat="44.2514180" lon="7.5168910">
        <ele>995.4</ele>
        <time>2017-07-23T06:25:26Z</time>
      </trkpt>
      <trkpt lat="44.2513610" lon="7.5168820">
        <ele>996.8</ele>
        <time>2017-07-23T06:25:29Z</time>
      </trkpt>
      <trkpt lat="44.2513040" lon="7.5168880">
        <ele>997.8</ele>
        <time>2017-07-23T06:25:32Z</time>
      </trkpt>
      <trkpt lat="44.2512850" lon="7.5168800">
        <ele>998.4</ele>
        <time>2017-07-23T06:25:33Z</time>
      </trkpt>
      <trkpt lat="44.2512540" lon="7.5168700">
        <ele>999.2</ele>
        <time>2017-07-23T06:25:35Z</time>
      </trkpt>
      <trkpt lat="44.2512310" lon="7.5168430">
        <ele>1000.0</ele>
        <time>2017-07-23T06:25:37Z</time>
      </trkpt>
      <trkpt lat="44.2512210" lon="7.5168280">
        <ele>1000.4</ele>
        <time>2017-07-23T06:25:38Z</time>
      </trkpt>
      <trkpt lat="44.2511960" lon="7.5167760">
        <ele>1002.0</ele>
        <time>2017-07-23T06:25:41Z</time>
      </trkpt>
      <trkpt lat="44.2511740" lon="7.5167330">
        <ele>1003.0</ele>
        <time>2017-07-23T06:25:44Z</time>
      </trkpt>
      <trkpt lat="44.2511400" lon="7.5166570">
        <ele>1004.2</ele>
        <time>2017-07-23T06:25:48Z</time>
      </trkpt>
      <trkpt lat="44.2511210" lon="7.5166310">
        <ele>1005.0</ele>
        <time>2017-07-23T06:25:50Z</time>
      </trkpt>
      <trkpt lat="44.2511090" lon="7.5166230">
        <ele>1005.4</ele>
        <time>2017-07-23T06:25:51Z</time>
      </trkpt>
      <trkpt lat="44.2510430" lon="7.5165480">
        <ele>1006.6</ele>
        <time>2017-07-23T06:25:55Z</time>
      </trkpt>
      <trkpt lat="44.2510340" lon="7.5165360">
        <ele>1006.8</ele>
        <time>2017-07-23T06:25:56Z</time>
      </trkpt>
      <trkpt lat="44.2509820" lon="7.5165170">
        <ele>1007.6</ele>
        <time>2017-07-23T06:25:59Z</time>
      </trkpt>
      <trkpt lat="44.2509090" lon="7.5165160">
        <ele>1008.6</ele>
        <time>2017-07-23T06:26:03Z</time>
      </trkpt>
      <trkpt lat="44.2508640" lon="7.5165270">
        <ele>1007.0</ele>
        <time>2017-07-23T06:26:06Z</time>
      </trkpt>
      <trkpt lat="44.2508490" lon="7.5165300">
        <ele>1008.4</ele>
        <time>2017-07-23T06:26:07Z</time>
      </trkpt>
      <trkpt lat="44.2508230" lon="7.5165400">
        <ele>1010.2</ele>
        <time>2017-07-23T06:26:09Z</time>
      </trkpt>
      <trkpt lat="44.2507990" lon="7.5165510">
        <ele>1010.8</ele>
        <time>2017-07-23T06:26:11Z</time>
      </trkpt>
      <trkpt lat="44.2507670" lon="7.5165560">
        <ele>1011.4</ele>
        <time>2017-07-23T06:26:13Z</time>
      </trkpt>
      <trkpt lat="44.2507070" lon="7.5165980">
        <ele>1012.6</ele>
        <time>2017-07-23T06:26:18Z</time>
      </trkpt>
      <trkpt lat="44.2506950" lon="7.5166040">
        <ele>1012.8</ele>
        <time>2017-07-23T06:26:19Z</time>
      </trkpt>
      <trkpt lat="44.2506810" lon="7.5166160">
        <ele>1013.2</ele>
        <time>2017-07-23T06:26:20Z</time>
      </trkpt>
      <trkpt lat="44.2506440" lon="7.5166290">
        <ele>1013.8</ele>
        <time>2017-07-23T06:26:22Z</time>
      </trkpt>
      <trkpt lat="44.2506100" lon="7.5166480">
        <ele>1014.2</ele>
        <time>2017-07-23T06:26:24Z</time>
      </trkpt>
      <trkpt lat="44.2505580" lon="7.5166850">
        <ele>1015.0</ele>
        <time>2017-07-23T06:26:27Z</time>
      </trkpt>
      <trkpt lat="44.2505090" lon="7.5167110">
        <ele>1016.2</ele>
        <time>2017-07-23T06:26:30Z</time>
      </trkpt>
      <trkpt lat="44.2504700" lon="7.5167140">
        <ele>1017.2</ele>
        <time>2017-07-23T06:26:33Z</time>
      </trkpt>
      <trkpt lat="44.2504540" lon="7.5167200">
        <ele>1017.4</ele>
        <time>2017-07-23T06:26:34Z</time>
      </trkpt>
      <trkpt lat="44.2504140" lon="7.5167310">
        <ele>1018.6</ele>
        <time>2017-07-23T06:26:37Z</time>
      </trkpt>
      <trkpt lat="44.2503900" lon="7.5167430">
        <ele>1019.2</ele>
        <time>2017-07-23T06:26:39Z</time>
      </trkpt>
      <trkpt lat="44.2503640" lon="7.5167480">
        <ele>1019.6</ele>
        <time>2017-07-23T06:26:41Z</time>
      </trkpt>
      <trkpt lat="44.2502710" lon="7.5167710">
        <ele>1021.0</ele>
        <time>2017-07-23T06:26:46Z</time>
      </trkpt>
      <trkpt lat="44.2502600" lon="7.5167780">
        <ele>1021.2</ele>
        <time>2017-07-23T06:26:47Z</time>
      </trkpt>
      <trkpt lat="44.2501960" lon="7.5167930">
        <ele>1022.2</ele>
        <time>2017-07-23T06:26:51Z</time>
      </trkpt>
      <trkpt lat="44.2501500" lon="7.5168050">
        <ele>1023.2</ele>
        <time>2017-07-23T06:26:54Z</time>
      </trkpt>
      <trkpt lat="44.2500750" lon="7.5168200">
        <ele>1024.4</ele>
        <time>2017-07-23T06:26:59Z</time>
      </trkpt>
      <trkpt lat="44.2499270" lon="7.5167970">
        <ele>1027.4</ele>
        <time>2017-07-23T06:27:12Z</time>
      </trkpt>
      <trkpt lat="44.2498480" lon="7.5168030">
        <ele>1028.6</ele>
        <time>2017-07-23T06:27:16Z</time>
      </trkpt>
      <trkpt lat="44.2497700" lon="7.5167920">
        <ele>1029.6</ele>
        <time>2017-07-23T06:27:20Z</time>
      </trkpt>
      <trkpt lat="44.2497490" lon="7.5167910">
        <ele>1029.8</ele>
        <time>2017-07-23T06:27:21Z</time>
      </trkpt>
      <trkpt lat="44.2496970" lon="7.5167880">
        <ele>1030.6</ele>
        <time>2017-07-23T06:27:24Z</time>
      </trkpt>
      <trkpt lat="44.2496660" lon="7.5167790">
        <ele>1031.2</ele>
        <time>2017-07-23T06:27:26Z</time>
      </trkpt>
      <trkpt lat="44.2496020" lon="7.5167950">
        <ele>1032.2</ele>
        <time>2017-07-23T06:27:30Z</time>
      </trkpt>
      <trkpt lat="44.2495840" lon="7.5167940">
        <ele>1032.4</ele>
        <time>2017-07-23T06:27:31Z</time>
      </trkpt>
      <trkpt lat="44.2495320" lon="7.5167860">
        <ele>1033.2</ele>
        <time>2017-07-23T06:27:34Z</time>
      </trkpt>
      <trkpt lat="44.2494650" lon="7.5167770">
        <ele>1034.2</ele>
        <time>2017-07-23T06:27:38Z</time>
      </trkpt>
      <trkpt lat="44.2494490" lon="7.5167700">
        <ele>1034.4</ele>
        <time>2017-07-23T06:27:39Z</time>
      </trkpt>
      <trkpt lat="44.2493600" lon="7.5167480">
        <ele>1035.6</ele>
        <time>2017-07-23T06:27:43Z</time>
      </trkpt>
      <trkpt lat="44.2493480" lon="7.5167450">
        <ele>1035.8</ele>
        <time>2017-07-23T06:27:44Z</time>
      </trkpt>
      <trkpt lat="44.2492950" lon="7.5167320">
        <ele>1036.6</ele>
        <time>2017-07-23T06:27:48Z</time>
      </trkpt>
      <trkpt lat="44.2492300" lon="7.5166780">
        <ele>1037.4</ele>
        <time>2017-07-23T06:27:52Z</time>
      </trkpt>
      <trkpt lat="44.2492160" lon="7.5166730">
        <ele>1037.8</ele>
        <time>2017-07-23T06:27:53Z</time>
      </trkpt>
      <trkpt lat="44.2491800" lon="7.5166830">
        <ele>1038.2</ele>
        <time>2017-07-23T06:27:55Z</time>
      </trkpt>
      <trkpt lat="44.2491290" lon="7.5167100">
        <ele>1038.6</ele>
        <time>2017-07-23T06:27:57Z</time>
      </trkpt>
      <trkpt lat="44.2491100" lon="7.5167270">
        <ele>1038.8</ele>
        <time>2017-07-23T06:27:58Z</time>
      </trkpt>
      <trkpt lat="44.2490850" lon="7.5167550">
        <ele>1039.4</ele>
        <time>2017-07-23T06:28:01Z</time>
      </trkpt>
      <trkpt lat="44.2490790" lon="7.5167560">
        <ele>1039.6</ele>
        <time>2017-07-23T06:28:02Z</time>
      </trkpt>
      <trkpt lat="44.2490770" lon="7.5167580">
        <ele>1039.8</ele>
        <time>2017-07-23T06:28:03Z</time>
      </trkpt>
      <trkpt lat="44.2490770" lon="7.5167590">
        <ele>1040.0</ele>
        <time>2017-07-23T06:28:04Z</time>
      </trkpt>
      <trkpt lat="44.2490910" lon="7.5167850">
        <ele>1041.0</ele>
        <time>2017-07-23T06:28:07Z</time>
      </trkpt>
      <trkpt lat="44.2491050" lon="7.5167990">
        <ele>1041.4</ele>
        <time>2017-07-23T06:28:09Z</time>
      </trkpt>
      <trkpt lat="44.2491380" lon="7.5168270">
        <ele>1042.0</ele>
        <time>2017-07-23T06:28:12Z</time>
      </trkpt>
      <trkpt lat="44.2491910" lon="7.5168520">
        <ele>1042.8</ele>
        <time>2017-07-23T06:28:16Z</time>
      </trkpt>
      <trkpt lat="44.2492040" lon="7.5168570">
        <ele>1043.0</ele>
        <time>2017-07-23T06:28:17Z</time>
      </trkpt>
      <trkpt lat="44.2492740" lon="7.5168880">
        <ele>1044.2</ele>
        <time>2017-07-23T06:28:22Z</time>
      </trkpt>
      <trkpt lat="44.2493000" lon="7.5168990">
        <ele>1044.6</ele>
        <time>2017-07-23T06:28:24Z</time>
      </trkpt>
      <trkpt lat="44.2493560" lon="7.5169230">
        <ele>1045.4</ele>
        <time>2017-07-23T06:28:27Z</time>
      </trkpt>
      <trkpt lat="44.2494120" lon="7.5169540">
        <ele>1046.0</ele>
        <time>2017-07-23T06:28:30Z</time>
      </trkpt>
      <trkpt lat="44.2494470" lon="7.5169740">
        <ele>1046.4</ele>
        <time>2017-07-23T06:28:32Z</time>
      </trkpt>
      <trkpt lat="44.2495100" lon="7.5170330">
        <ele>1047.2</ele>
        <time>2017-07-23T06:28:36Z</time>
      </trkpt>
      <trkpt lat="44.2495280" lon="7.5170510">
        <ele>1047.4</ele>
        <time>2017-07-23T06:28:37Z</time>
      </trkpt>
      <trkpt lat="44.2496330" lon="7.5171510">
        <ele>1048.6</ele>
        <time>2017-07-23T06:28:43Z</time>
      </trkpt>
      <trkpt lat="44.2497080" lon="7.5172210">
        <ele>1049.6</ele>
        <time>2017-07-23T06:28:48Z</time>
      </trkpt>
      <trkpt lat="44.2497220" lon="7.5172310">
        <ele>1050.0</ele>
        <time>2017-07-23T06:28:49Z</time>
      </trkpt>
      <trkpt lat="44.2497930" lon="7.5172870">
        <ele>1050.8</ele>
        <time>2017-07-23T06:28:53Z</time>
      </trkpt>
      <trkpt lat="44.2498150" lon="7.5173000">
        <ele>1051.0</ele>
        <time>2017-07-23T06:28:54Z</time>
      </trkpt>
      <trkpt lat="44.2499060" lon="7.5173490">
        <ele>1052.0</ele>
        <time>2017-07-23T06:28:58Z</time>
      </trkpt>
      <trkpt lat="44.2499890" lon="7.5173940">
        <ele>1052.6</ele>
        <time>2017-07-23T06:29:01Z</time>
      </trkpt>
      <trkpt lat="44.2500570" lon="7.5174350">
        <ele>1053.2</ele>
        <time>2017-07-23T06:29:04Z</time>
      </trkpt>
      <trkpt lat="44.2501190" lon="7.5174730">
        <ele>1054.0</ele>
        <time>2017-07-23T06:29:07Z</time>
      </trkpt>
      <trkpt lat="44.2501610" lon="7.5174980">
        <ele>1054.4</ele>
        <time>2017-07-23T06:29:09Z</time>
      </trkpt>
      <trkpt lat="44.2502620" lon="7.5175660">
        <ele>1055.4</ele>
        <time>2017-07-23T06:29:14Z</time>
      </trkpt>
      <trkpt lat="44.2503020" lon="7.5175900">
        <ele>1055.8</ele>
        <time>2017-07-23T06:29:16Z</time>
      </trkpt>
      <trkpt lat="44.2503420" lon="7.5176200">
        <ele>1056.6</ele>
        <time>2017-07-23T06:29:18Z</time>
      </trkpt>
      <trkpt lat="44.2504100" lon="7.5176890">
        <ele>1057.4</ele>
        <time>2017-07-23T06:29:22Z</time>
      </trkpt>
      <trkpt lat="44.2504270" lon="7.5177070">
        <ele>1057.6</ele>
        <time>2017-07-23T06:29:23Z</time>
      </trkpt>
      <trkpt lat="44.2505050" lon="7.5178040">
        <ele>1058.8</ele>
        <time>2017-07-23T06:29:29Z</time>
      </trkpt>
      <trkpt lat="44.2505570" lon="7.5178670">
        <ele>1059.8</ele>
        <time>2017-07-23T06:29:33Z</time>
      </trkpt>
      <trkpt lat="44.2506040" lon="7.5179130">
        <ele>1060.4</ele>
        <time>2017-07-23T06:29:36Z</time>
      </trkpt>
      <trkpt lat="44.2506370" lon="7.5179370">
        <ele>1061.0</ele>
        <time>2017-07-23T06:29:38Z</time>
      </trkpt>
      <trkpt lat="44.2507330" lon="7.5179840">
        <ele>1062.2</ele>
        <time>2017-07-23T06:29:42Z</time>
      </trkpt>
      <trkpt lat="44.2508680" lon="7.5181080">
        <ele>1063.4</ele>
        <time>2017-07-23T06:29:48Z</time>
      </trkpt>
      <trkpt lat="44.2508830" lon="7.5181680">
        <ele>1064.0</ele>
        <time>2017-07-23T06:29:50Z</time>
      </trkpt>
      <trkpt lat="44.2508790" lon="7.5181990">
        <ele>1064.2</ele>
        <time>2017-07-23T06:29:51Z</time>
      </trkpt>
      <trkpt lat="44.2508740" lon="7.5182270">
        <ele>1064.4</ele>
        <time>2017-07-23T06:29:52Z</time>
      </trkpt>
      <trkpt lat="44.2508520" lon="7.5183010">
        <ele>1065.4</ele>
        <time>2017-07-23T06:29:55Z</time>
      </trkpt>
      <trkpt lat="44.2508420" lon="7.5183210">
        <ele>1065.6</ele>
        <time>2017-07-23T06:29:56Z</time>
      </trkpt>
      <trkpt lat="44.2507950" lon="7.5183860">
        <ele>1066.8</ele>
        <time>2017-07-23T06:30:00Z</time>
      </trkpt>
      <trkpt lat="44.2507710" lon="7.5184130">
        <ele>1067.4</ele>
        <time>2017-07-23T06:30:02Z</time>
      </trkpt>
      <trkpt lat="44.2507490" lon="7.5184430">
        <ele>1068.0</ele>
        <time>2017-07-23T06:30:04Z</time>
      </trkpt>
      <trkpt lat="44.2507180" lon="7.5184800">
        <ele>1069.2</ele>
        <time>2017-07-23T06:30:07Z</time>
      </trkpt>
      <trkpt lat="44.2506730" lon="7.5185250">
        <ele>1070.6</ele>
        <time>2017-07-23T06:30:11Z</time>
      </trkpt>
      <trkpt lat="44.2506570" lon="7.5185230">
        <ele>1070.8</ele>
        <time>2017-07-23T06:30:12Z</time>
      </trkpt>
      <trkpt lat="44.2506290" lon="7.5184840">
        <ele>1071.8</ele>
        <time>2017-07-23T06:30:15Z</time>
      </trkpt>
      <trkpt lat="44.2506150" lon="7.5184150">
        <ele>1073.0</ele>
        <time>2017-07-23T06:30:19Z</time>
      </trkpt>
      <trkpt lat="44.2506040" lon="7.5183670">
        <ele>1074.0</ele>
        <time>2017-07-23T06:30:22Z</time>
      </trkpt>
      <trkpt lat="44.2506000" lon="7.5183480">
        <ele>1074.4</ele>
        <time>2017-07-23T06:30:23Z</time>
      </trkpt>
      <trkpt lat="44.2505710" lon="7.5182880">
        <ele>1075.6</ele>
        <time>2017-07-23T06:30:27Z</time>
      </trkpt>
      <trkpt lat="44.2505300" lon="7.5182680">
        <ele>1077.0</ele>
        <time>2017-07-23T06:30:30Z</time>
      </trkpt>
      <trkpt lat="44.2504760" lon="7.5182570">
        <ele>1078.4</ele>
        <time>2017-07-23T06:30:34Z</time>
      </trkpt>
      <trkpt lat="44.2504400" lon="7.5182570">
        <ele>1079.6</ele>
        <time>2017-07-23T06:30:37Z</time>
      </trkpt>
      <trkpt lat="44.2504320" lon="7.5182560">
        <ele>1079.8</ele>
        <time>2017-07-23T06:30:38Z</time>
      </trkpt>
      <trkpt lat="44.2504110" lon="7.5182640">
        <ele>1080.6</ele>
        <time>2017-07-23T06:30:40Z</time>
      </trkpt>
      <trkpt lat="44.2503790" lon="7.5182730">
        <ele>1081.6</ele>
        <time>2017-07-23T06:30:43Z</time>
      </trkpt>
      <trkpt lat="44.2503450" lon="7.5182900">
        <ele>1082.6</ele>
        <time>2017-07-23T06:30:46Z</time>
      </trkpt>
      <trkpt lat="44.2503320" lon="7.5182940">
        <ele>1082.8</ele>
        <time>2017-07-23T06:30:47Z</time>
      </trkpt>
      <trkpt lat="44.2503020" lon="7.5183100">
        <ele>1084.0</ele>
        <time>2017-07-23T06:30:51Z</time>
      </trkpt>
      <trkpt lat="44.2502820" lon="7.5183420">
        <ele>1085.4</ele>
        <time>2017-07-23T06:30:54Z</time>
      </trkpt>
      <trkpt lat="44.2502420" lon="7.5183740">
        <ele>1086.4</ele>
        <time>2017-07-23T06:30:58Z</time>
      </trkpt>
      <trkpt lat="44.2502020" lon="7.5183820">
        <ele>1087.8</ele>
        <time>2017-07-23T06:31:02Z</time>
      </trkpt>
      <trkpt lat="44.2501740" lon="7.5183940">
        <ele>1088.8</ele>
        <time>2017-07-23T06:31:05Z</time>
      </trkpt>
      <trkpt lat="44.2501380" lon="7.5184050">
        <ele>1089.6</ele>
        <time>2017-07-23T06:31:09Z</time>
      </trkpt>
      <trkpt lat="44.2501240" lon="7.5184040">
        <ele>1090.2</ele>
        <time>2017-07-23T06:31:10Z</time>
      </trkpt>
      <trkpt lat="44.2500880" lon="7.5184150">
        <ele>1091.2</ele>
        <time>2017-07-23T06:31:14Z</time>
      </trkpt>
      <trkpt lat="44.2500590" lon="7.5184190">
        <ele>1092.2</ele>
        <time>2017-07-23T06:31:17Z</time>
      </trkpt>
      <trkpt lat="44.2500140" lon="7.5184260">
        <ele>1093.6</ele>
        <time>2017-07-23T06:31:21Z</time>
      </trkpt>
      <trkpt lat="44.2496660" lon="7.5185260">
        <ele>1101.2</ele>
        <time>2017-07-23T06:31:47Z</time>
      </trkpt>
      <trkpt lat="44.2496390" lon="7.5185390">
        <ele>1101.8</ele>
        <time>2017-07-23T06:31:49Z</time>
      </trkpt>
      <trkpt lat="44.2496030" lon="7.5185410">
        <ele>1102.2</ele>
        <time>2017-07-23T06:31:52Z</time>
      </trkpt>
      <trkpt lat="44.2495460" lon="7.5185560">
        <ele>1103.2</ele>
        <time>2017-07-23T06:31:56Z</time>
      </trkpt>
      <trkpt lat="44.2495340" lon="7.5185560">
        <ele>1103.4</ele>
        <time>2017-07-23T06:31:57Z</time>
      </trkpt>
      <trkpt lat="44.2494870" lon="7.5185720">
        <ele>1104.8</ele>
        <time>2017-07-23T06:32:01Z</time>
      </trkpt>
      <trkpt lat="44.2494440" lon="7.5185850">
        <ele>1105.6</ele>
        <time>2017-07-23T06:32:04Z</time>
      </trkpt>
      <trkpt lat="44.2494330" lon="7.5185870">
        <ele>1106.2</ele>
        <time>2017-07-23T06:32:05Z</time>
      </trkpt>
      <trkpt lat="44.2493730" lon="7.5186110">
        <ele>1107.2</ele>
        <time>2017-07-23T06:32:09Z</time>
      </trkpt>
      <trkpt lat="44.2493390" lon="7.5186300">
        <ele>1107.8</ele>
        <time>2017-07-23T06:32:11Z</time>
      </trkpt>
      <trkpt lat="44.2492980" lon="7.5186740">
        <ele>1108.6</ele>
        <time>2017-07-23T06:32:14Z</time>
      </trkpt>
      <trkpt lat="44.2492310" lon="7.5187090">
        <ele>1109.4</ele>
        <time>2017-07-23T06:32:18Z</time>
      </trkpt>
      <trkpt lat="44.2492160" lon="7.5187120">
        <ele>1109.8</ele>
        <time>2017-07-23T06:32:19Z</time>
      </trkpt>
      <trkpt lat="44.2491520" lon="7.5187320">
        <ele>1110.8</ele>
        <time>2017-07-23T06:32:23Z</time>
      </trkpt>
      <trkpt lat="44.2491110" lon="7.5187560">
        <ele>1111.4</ele>
        <time>2017-07-23T06:32:26Z</time>
      </trkpt>
      <trkpt lat="44.2490890" lon="7.5187590">
        <ele>1112.0</ele>
        <time>2017-07-23T06:32:28Z</time>
      </trkpt>
      <trkpt lat="44.2490510" lon="7.5187570">
        <ele>1113.0</ele>
        <time>2017-07-23T06:32:30Z</time>
      </trkpt>
      <trkpt lat="44.2490390" lon="7.5187560">
        <ele>1113.2</ele>
        <time>2017-07-23T06:32:31Z</time>
      </trkpt>
      <trkpt lat="44.2489220" lon="7.5187630">
        <ele>1114.8</ele>
        <time>2017-07-23T06:32:37Z</time>
      </trkpt>
      <trkpt lat="44.2488050" lon="7.5187610">
        <ele>1115.8</ele>
        <time>2017-07-23T06:32:42Z</time>
      </trkpt>
      <trkpt lat="44.2486670" lon="7.5187690">
        <ele>1117.2</ele>
        <time>2017-07-23T06:32:47Z</time>
      </trkpt>
      <trkpt lat="44.2485980" lon="7.5187710">
        <ele>1117.8</ele>
        <time>2017-07-23T06:32:50Z</time>
      </trkpt>
      <trkpt lat="44.2485600" lon="7.5187620">
        <ele>1118.4</ele>
        <time>2017-07-23T06:32:52Z</time>
      </trkpt>
      <trkpt lat="44.2485100" lon="7.5187560">
        <ele>1119.6</ele>
        <time>2017-07-23T06:32:55Z</time>
      </trkpt>
      <trkpt lat="44.2484600" lon="7.5187480">
        <ele>1120.6</ele>
        <time>2017-07-23T06:32:58Z</time>
      </trkpt>
      <trkpt lat="44.2484410" lon="7.5187410">
        <ele>1120.8</ele>
        <time>2017-07-23T06:32:59Z</time>
      </trkpt>
      <trkpt lat="44.2483780" lon="7.5187290">
        <ele>1122.0</ele>
        <time>2017-07-23T06:33:03Z</time>
      </trkpt>
      <trkpt lat="44.2483440" lon="7.5187250">
        <ele>1122.6</ele>
        <time>2017-07-23T06:33:05Z</time>
      </trkpt>
      <trkpt lat="44.2483170" lon="7.5187240">
        <ele>1123.0</ele>
        <time>2017-07-23T06:33:07Z</time>
      </trkpt>
      <trkpt lat="44.2482360" lon="7.5187160">
        <ele>1124.2</ele>
        <time>2017-07-23T06:33:12Z</time>
      </trkpt>
      <trkpt lat="44.2482200" lon="7.5187100">
        <ele>1124.6</ele>
        <time>2017-07-23T06:33:13Z</time>
      </trkpt>
      <trkpt lat="44.2481670" lon="7.5186990">
        <ele>1125.4</ele>
        <time>2017-07-23T06:33:16Z</time>
      </trkpt>
      <trkpt lat="44.2481260" lon="7.5186800">
        <ele>1126.4</ele>
        <time>2017-07-23T06:33:18Z</time>
      </trkpt>
      <trkpt lat="44.2480880" lon="7.5186610">
        <ele>1127.0</ele>
        <time>2017-07-23T06:33:20Z</time>
      </trkpt>
      <trkpt lat="44.2480590" lon="7.5186510">
        <ele>1127.6</ele>
        <time>2017-07-23T06:33:22Z</time>
      </trkpt>
      <trkpt lat="44.2480160" lon="7.5186430">
        <ele>1128.8</ele>
        <time>2017-07-23T06:33:25Z</time>
      </trkpt>
      <trkpt lat="44.2479650" lon="7.5186300">
        <ele>1129.6</ele>
        <time>2017-07-23T06:33:28Z</time>
      </trkpt>
      <trkpt lat="44.2479440" lon="7.5186230">
        <ele>1130.0</ele>
        <time>2017-07-23T06:33:29Z</time>
      </trkpt>
      <trkpt lat="44.2478570" lon="7.5185950">
        <ele>1131.2</ele>
        <time>2017-07-23T06:33:33Z</time>
      </trkpt>
      <trkpt lat="44.2477960" lon="7.5185730">
        <ele>1132.2</ele>
        <time>2017-07-23T06:33:36Z</time>
      </trkpt>
      <trkpt lat="44.2477320" lon="7.5185290">
        <ele>1133.4</ele>
        <time>2017-07-23T06:33:40Z</time>
      </trkpt>
      <trkpt lat="44.2476610" lon="7.5184430">
        <ele>1134.6</ele>
        <time>2017-07-23T06:33:43Z</time>
      </trkpt>
      <trkpt lat="44.2475830" lon="7.5183590">
        <ele>1135.6</ele>
        <time>2017-07-23T06:33:47Z</time>
      </trkpt>
      <trkpt lat="44.2475290" lon="7.5182980">
        <ele>1136.4</ele>
        <time>2017-07-23T06:33:50Z</time>
      </trkpt>
      <trkpt lat="44.2475240" lon="7.5182810">
        <ele>1136.8</ele>
        <time>2017-07-23T06:33:51Z</time>
      </trkpt>
      <trkpt lat="44.2474860" lon="7.5182220">
        <ele>1137.8</ele>
        <time>2017-07-23T06:33:56Z</time>
      </trkpt>
      <trkpt lat="44.2474360" lon="7.5181620">
        <ele>1139.0</ele>
        <time>2017-07-23T06:34:00Z</time>
      </trkpt>
      <trkpt lat="44.2474160" lon="7.5181430">
        <ele>1139.4</ele>
        <time>2017-07-23T06:34:02Z</time>
      </trkpt>
      <trkpt lat="44.2474020" lon="7.5181340">
        <ele>1139.8</ele>
        <time>2017-07-23T06:34:03Z</time>
      </trkpt>
      <trkpt lat="44.2473870" lon="7.5181230">
        <ele>1140.0</ele>
        <time>2017-07-23T06:34:04Z</time>
      </trkpt>
      <trkpt lat="44.2473310" lon="7.5180710">
        <ele>1141.4</ele>
        <time>2017-07-23T06:34:08Z</time>
      </trkpt>
      <trkpt lat="44.2473160" lon="7.5180580">
        <ele>1141.6</ele>
        <time>2017-07-23T06:34:09Z</time>
      </trkpt>
      <trkpt lat="44.2472480" lon="7.5180170">
        <ele>1142.4</ele>
        <time>2017-07-23T06:34:13Z</time>
      </trkpt>
      <trkpt lat="44.2472070" lon="7.5179780">
        <ele>1143.2</ele>
        <time>2017-07-23T06:34:16Z</time>
      </trkpt>
      <trkpt lat="44.2471890" lon="7.5179680">
        <ele>1143.4</ele>
        <time>2017-07-23T06:34:17Z</time>
      </trkpt>
      <trkpt lat="44.2471500" lon="7.5179220">
        <ele>1144.0</ele>
        <time>2017-07-23T06:34:20Z</time>
      </trkpt>
      <trkpt lat="44.2471320" lon="7.5179010">
        <ele>1144.6</ele>
        <time>2017-07-23T06:34:22Z</time>
      </trkpt>
      <trkpt lat="44.2471210" lon="7.5178890">
        <ele>1144.8</ele>
        <time>2017-07-23T06:34:23Z</time>
      </trkpt>
      <trkpt lat="44.2470640" lon="7.5178350">
        <ele>1145.8</ele>
        <time>2017-07-23T06:34:27Z</time>
      </trkpt>
      <trkpt lat="44.2470330" lon="7.5178090">
        <ele>1146.8</ele>
        <time>2017-07-23T06:34:31Z</time>
      </trkpt>
      <trkpt lat="44.2470290" lon="7.5178000">
        <ele>1147.0</ele>
        <time>2017-07-23T06:34:32Z</time>
      </trkpt>
      <trkpt lat="44.2469790" lon="7.5177740">
        <ele>1148.2</ele>
        <time>2017-07-23T06:34:37Z</time>
      </trkpt>
      <trkpt lat="44.2469410" lon="7.5177570">
        <ele>1148.8</ele>
        <time>2017-07-23T06:34:40Z</time>
      </trkpt>
      <trkpt lat="44.2469110" lon="7.5177510">
        <ele>1149.4</ele>
        <time>2017-07-23T06:34:42Z</time>
      </trkpt>
      <trkpt lat="44.2468210" lon="7.5177220">
        <ele>1150.4</ele>
        <time>2017-07-23T06:34:47Z</time>
      </trkpt>
      <trkpt lat="44.2467840" lon="7.5177100">
        <ele>1151.0</ele>
        <time>2017-07-23T06:34:49Z</time>
      </trkpt>
      <trkpt lat="44.2467320" lon="7.5176870">
        <ele>1151.6</ele>
        <time>2017-07-23T06:34:52Z</time>
      </trkpt>
      <trkpt lat="44.2466790" lon="7.5176580">
        <ele>1152.4</ele>
        <time>2017-07-23T06:34:55Z</time>
      </trkpt>
      <trkpt lat="44.2466630" lon="7.5176450">
        <ele>1152.8</ele>
        <time>2017-07-23T06:34:56Z</time>
      </trkpt>
      <trkpt lat="44.2465810" lon="7.5175580">
        <ele>1153.8</ele>
        <time>2017-07-23T06:35:01Z</time>
      </trkpt>
      <trkpt lat="44.2465320" lon="7.5174860">
        <ele>1154.4</ele>
        <time>2017-07-23T06:35:04Z</time>
      </trkpt>
      <trkpt lat="44.2465010" lon="7.5174360">
        <ele>1154.8</ele>
        <time>2017-07-23T06:35:06Z</time>
      </trkpt>
      <trkpt lat="44.2464350" lon="7.5173080">
        <ele>1156.0</ele>
        <time>2017-07-23T06:35:11Z</time>
      </trkpt>
      <trkpt lat="44.2464100" lon="7.5172540">
        <ele>1156.4</ele>
        <time>2017-07-23T06:35:13Z</time>
      </trkpt>
      <trkpt lat="44.2463740" lon="7.5171760">
        <ele>1157.0</ele>
        <time>2017-07-23T06:35:16Z</time>
      </trkpt>
      <trkpt lat="44.2463390" lon="7.5170800">
        <ele>1158.0</ele>
        <time>2017-07-23T06:35:20Z</time>
      </trkpt>
      <trkpt lat="44.2463170" lon="7.5170000">
        <ele>1158.8</ele>
        <time>2017-07-23T06:35:23Z</time>
      </trkpt>
      <trkpt lat="44.2462990" lon="7.5169480">
        <ele>1159.0</ele>
        <time>2017-07-23T06:35:25Z</time>
      </trkpt>
      <trkpt lat="44.2462680" lon="7.5168140">
        <ele>1160.2</ele>
        <time>2017-07-23T06:35:30Z</time>
      </trkpt>
      <trkpt lat="44.2462660" lon="7.5167880">
        <ele>1160.4</ele>
        <time>2017-07-23T06:35:31Z</time>
      </trkpt>
      <trkpt lat="44.2462480" lon="7.5166520">
        <ele>1161.2</ele>
        <time>2017-07-23T06:35:36Z</time>
      </trkpt>
      <trkpt lat="44.2462400" lon="7.5165750">
        <ele>1162.0</ele>
        <time>2017-07-23T06:35:39Z</time>
      </trkpt>
      <trkpt lat="44.2462350" lon="7.5165250">
        <ele>1162.4</ele>
        <time>2017-07-23T06:35:41Z</time>
      </trkpt>
      <trkpt lat="44.2462160" lon="7.5164260">
        <ele>1163.4</ele>
        <time>2017-07-23T06:35:45Z</time>
      </trkpt>
      <trkpt lat="44.2462070" lon="7.5163780">
        <ele>1163.8</ele>
        <time>2017-07-23T06:35:47Z</time>
      </trkpt>
      <trkpt lat="44.2461870" lon="7.5163070">
        <ele>1164.4</ele>
        <time>2017-07-23T06:35:50Z</time>
      </trkpt>
      <trkpt lat="44.2461430" lon="7.5162010">
        <ele>1165.4</ele>
        <time>2017-07-23T06:35:55Z</time>
      </trkpt>
      <trkpt lat="44.2461300" lon="7.5161820">
        <ele>1165.6</ele>
        <time>2017-07-23T06:35:56Z</time>
      </trkpt>
      <trkpt lat="44.2460650" lon="7.5161120">
        <ele>1166.4</ele>
        <time>2017-07-23T06:36:02Z</time>
      </trkpt>
      <trkpt lat="44.2460450" lon="7.5161010">
        <ele>1166.6</ele>
        <time>2017-07-23T06:36:04Z</time>
      </trkpt>
      <trkpt lat="44.2459940" lon="7.5160890">
        <ele>1167.8</ele>
        <time>2017-07-23T06:36:08Z</time>
      </trkpt>
      <trkpt lat="44.2459660" lon="7.5160930">
        <ele>1168.2</ele>
        <time>2017-07-23T06:36:10Z</time>
      </trkpt>
      <trkpt lat="44.2459200" lon="7.5161040">
        <ele>1169.0</ele>
        <time>2017-07-23T06:36:13Z</time>
      </trkpt>
      <trkpt lat="44.2458710" lon="7.5161010">
        <ele>1169.6</ele>
        <time>2017-07-23T06:36:16Z</time>
      </trkpt>
      <trkpt lat="44.2458360" lon="7.5161040">
        <ele>1170.2</ele>
        <time>2017-07-23T06:36:18Z</time>
      </trkpt>
      <trkpt lat="44.2457820" lon="7.5160840">
        <ele>1171.2</ele>
        <time>2017-07-23T06:36:21Z</time>
      </trkpt>
      <trkpt lat="44.2457260" lon="7.5160550">
        <ele>1171.8</ele>
        <time>2017-07-23T06:36:24Z</time>
      </trkpt>
      <trkpt lat="44.2456850" lon="7.5160240">
        <ele>1172.4</ele>
        <time>2017-07-23T06:36:26Z</time>
      </trkpt>
      <trkpt lat="44.2455900" lon="7.5159330">
        <ele>1173.6</ele>
        <time>2017-07-23T06:36:30Z</time>
      </trkpt>
      <trkpt lat="44.2455680" lon="7.5159060">
        <ele>1173.8</ele>
        <time>2017-07-23T06:36:31Z</time>
      </trkpt>
      <trkpt lat="44.2454790" lon="7.5158000">
        <ele>1175.0</ele>
        <time>2017-07-23T06:36:35Z</time>
      </trkpt>
      <trkpt lat="44.2453820" lon="7.5156830">
        <ele>1175.8</ele>
        <time>2017-07-23T06:36:40Z</time>
      </trkpt>
      <trkpt lat="44.2453660" lon="7.5156550">
        <ele>1176.0</ele>
        <time>2017-07-23T06:36:41Z</time>
      </trkpt>
      <trkpt lat="44.2453100" lon="7.5155940">
        <ele>1177.0</ele>
        <time>2017-07-23T06:36:44Z</time>
      </trkpt>
      <trkpt lat="44.2452750" lon="7.5155500">
        <ele>1177.6</ele>
        <time>2017-07-23T06:36:46Z</time>
      </trkpt>
      <trkpt lat="44.2452410" lon="7.5155020">
        <ele>1178.2</ele>
        <time>2017-07-23T06:36:48Z</time>
      </trkpt>
      <trkpt lat="44.2451860" lon="7.5154100">
        <ele>1179.6</ele>
        <time>2017-07-23T06:36:52Z</time>
      </trkpt>
      <trkpt lat="44.2451730" lon="7.5153850">
        <ele>1179.6</ele>
        <time>2017-07-23T06:36:53Z</time>
      </trkpt>
      <trkpt lat="44.2451350" lon="7.5153270">
        <ele>1180.6</ele>
        <time>2017-07-23T06:36:55Z</time>
      </trkpt>
      <trkpt lat="44.2450880" lon="7.5152400">
        <ele>1181.2</ele>
        <time>2017-07-23T06:36:58Z</time>
      </trkpt>
      <trkpt lat="44.2450440" lon="7.5151650">
        <ele>1181.8</ele>
        <time>2017-07-23T06:37:00Z</time>
      </trkpt>
      <trkpt lat="44.2449590" lon="7.5149770">
        <ele>1183.0</ele>
        <time>2017-07-23T06:37:05Z</time>
      </trkpt>
      <trkpt lat="44.2448950" lon="7.5148190">
        <ele>1184.2</ele>
        <time>2017-07-23T06:37:10Z</time>
      </trkpt>
      <trkpt lat="44.2448770" lon="7.5147500">
        <ele>1184.8</ele>
        <time>2017-07-23T06:37:12Z</time>
      </trkpt>
      <trkpt lat="44.2448610" lon="7.5146920">
        <ele>1185.4</ele>
        <time>2017-07-23T06:37:14Z</time>
      </trkpt>
      <trkpt lat="44.2448330" lon="7.5145770">
        <ele>1186.4</ele>
        <time>2017-07-23T06:37:18Z</time>
      </trkpt>
      <trkpt lat="44.2448230" lon="7.5145170">
        <ele>1186.8</ele>
        <time>2017-07-23T06:37:20Z</time>
      </trkpt>
      <trkpt lat="44.2447940" lon="7.5144310">
        <ele>1187.6</ele>
        <time>2017-07-23T06:37:23Z</time>
      </trkpt>
      <trkpt lat="44.2447500" lon="7.5143250">
        <ele>1188.6</ele>
        <time>2017-07-23T06:37:27Z</time>
      </trkpt>
      <trkpt lat="44.2447370" lon="7.5142990">
        <ele>1188.6</ele>
        <time>2017-07-23T06:37:28Z</time>
      </trkpt>
      <trkpt lat="44.2446880" lon="7.5141820">
        <ele>1189.8</ele>
        <time>2017-07-23T06:37:32Z</time>
      </trkpt>
      <trkpt lat="44.2446560" lon="7.5140980">
        <ele>1190.4</ele>
        <time>2017-07-23T06:37:35Z</time>
      </trkpt>
      <trkpt lat="44.2446220" lon="7.5140260">
        <ele>1190.8</ele>
        <time>2017-07-23T06:37:38Z</time>
      </trkpt>
      <trkpt lat="44.2445760" lon="7.5139250">
        <ele>1192.0</ele>
        <time>2017-07-23T06:37:42Z</time>
      </trkpt>
      <trkpt lat="44.2445680" lon="7.5138980">
        <ele>1192.2</ele>
        <time>2017-07-23T06:37:43Z</time>
      </trkpt>
      <trkpt lat="44.2445350" lon="7.5138100">
        <ele>1193.0</ele>
        <time>2017-07-23T06:37:47Z</time>
      </trkpt>
      <trkpt lat="44.2445130" lon="7.5137620">
        <ele>1193.4</ele>
        <time>2017-07-23T06:37:49Z</time>
      </trkpt>
      <trkpt lat="44.2444600" lon="7.5136620">
        <ele>1194.2</ele>
        <time>2017-07-23T06:37:53Z</time>
      </trkpt>
      <trkpt lat="44.2444180" lon="7.5135870">
        <ele>1194.8</ele>
        <time>2017-07-23T06:37:56Z</time>
      </trkpt>
      <trkpt lat="44.2443890" lon="7.5135350">
        <ele>1195.2</ele>
        <time>2017-07-23T06:37:58Z</time>
      </trkpt>
      <trkpt lat="44.2443500" lon="7.5134380">
        <ele>1196.4</ele>
        <time>2017-07-23T06:38:02Z</time>
      </trkpt>
      <trkpt lat="44.2443440" lon="7.5134130">
        <ele>1196.6</ele>
        <time>2017-07-23T06:38:03Z</time>
      </trkpt>
      <trkpt lat="44.2443230" lon="7.5133400">
        <ele>1197.8</ele>
        <time>2017-07-23T06:38:06Z</time>
      </trkpt>
      <trkpt lat="44.2442980" lon="7.5132550">
        <ele>1198.6</ele>
        <time>2017-07-23T06:38:09Z</time>
      </trkpt>
      <trkpt lat="44.2442910" lon="7.5132260">
        <ele>1198.8</ele>
        <time>2017-07-23T06:38:10Z</time>
      </trkpt>
      <trkpt lat="44.2442560" lon="7.5130870">
        <ele>1200.0</ele>
        <time>2017-07-23T06:38:15Z</time>
      </trkpt>
      <trkpt lat="44.2442410" lon="7.5130200">
        <ele>1200.6</ele>
        <time>2017-07-23T06:38:17Z</time>
      </trkpt>
      <trkpt lat="44.2442180" lon="7.5129630">
        <ele>1201.2</ele>
        <time>2017-07-23T06:38:19Z</time>
      </trkpt>
      <trkpt lat="44.2441820" lon="7.5128560">
        <ele>1202.4</ele>
        <time>2017-07-23T06:38:23Z</time>
      </trkpt>
      <trkpt lat="44.2441780" lon="7.5128270">
        <ele>1202.6</ele>
        <time>2017-07-23T06:38:24Z</time>
      </trkpt>
      <trkpt lat="44.2441690" lon="7.5127700">
        <ele>1203.4</ele>
        <time>2017-07-23T06:38:26Z</time>
      </trkpt>
      <trkpt lat="44.2441730" lon="7.5126650">
        <ele>1205.0</ele>
        <time>2017-07-23T06:38:30Z</time>
      </trkpt>
      <trkpt lat="44.2441800" lon="7.5126410">
        <ele>1205.4</ele>
        <time>2017-07-23T06:38:31Z</time>
      </trkpt>
      <trkpt lat="44.2442020" lon="7.5125820">
        <ele>1206.2</ele>
        <time>2017-07-23T06:38:34Z</time>
      </trkpt>
      <trkpt lat="44.2442330" lon="7.5125110">
        <ele>1207.0</ele>
        <time>2017-07-23T06:38:37Z</time>
      </trkpt>
      <trkpt lat="44.2442370" lon="7.5124850">
        <ele>1207.2</ele>
        <time>2017-07-23T06:38:38Z</time>
      </trkpt>
      <trkpt lat="44.2442860" lon="7.5123740">
        <ele>1208.0</ele>
        <time>2017-07-23T06:38:43Z</time>
      </trkpt>
      <trkpt lat="44.2443050" lon="7.5123320">
        <ele>1208.6</ele>
        <time>2017-07-23T06:38:45Z</time>
      </trkpt>
      <trkpt lat="44.2443490" lon="7.5122090">
        <ele>1209.4</ele>
        <time>2017-07-23T06:38:51Z</time>
      </trkpt>
      <trkpt lat="44.2443590" lon="7.5121880">
        <ele>1209.6</ele>
        <time>2017-07-23T06:38:52Z</time>
      </trkpt>
      <trkpt lat="44.2444030" lon="7.5120980">
        <ele>1210.4</ele>
        <time>2017-07-23T06:38:57Z</time>
      </trkpt>
      <trkpt lat="44.2444300" lon="7.5120650">
        <ele>1211.0</ele>
        <time>2017-07-23T06:38:59Z</time>
      </trkpt>
      <trkpt lat="44.2444790" lon="7.5119960">
        <ele>1211.8</ele>
        <time>2017-07-23T06:39:03Z</time>
      </trkpt>
      <trkpt lat="44.2445030" lon="7.5119630">
        <ele>1212.0</ele>
        <time>2017-07-23T06:39:05Z</time>
      </trkpt>
      <trkpt lat="44.2445510" lon="7.5118550">
        <ele>1213.2</ele>
        <time>2017-07-23T06:39:10Z</time>
      </trkpt>
      <trkpt lat="44.2445610" lon="7.5117200">
        <ele>1214.4</ele>
        <time>2017-07-23T06:39:15Z</time>
      </trkpt>
      <trkpt lat="44.2445560" lon="7.5116520">
        <ele>1214.8</ele>
        <time>2017-07-23T06:39:17Z</time>
      </trkpt>
      <trkpt lat="44.2445570" lon="7.5116180">
        <ele>1215.4</ele>
        <time>2017-07-23T06:39:18Z</time>
      </trkpt>
      <trkpt lat="44.2445560" lon="7.5114900">
        <ele>1216.4</ele>
        <time>2017-07-23T06:39:22Z</time>
      </trkpt>
      <trkpt lat="44.2445670" lon="7.5114180">
        <ele>1216.8</ele>
        <time>2017-07-23T06:39:24Z</time>
      </trkpt>
      <trkpt lat="44.2445840" lon="7.5113110">
        <ele>1217.6</ele>
        <time>2017-07-23T06:39:27Z</time>
      </trkpt>
      <trkpt lat="44.2446160" lon="7.5111540">
        <ele>1218.2</ele>
        <time>2017-07-23T06:39:31Z</time>
      </trkpt>
      <trkpt lat="44.2446350" lon="7.5110660">
        <ele>1218.6</ele>
        <time>2017-07-23T06:39:33Z</time>
      </trkpt>
      <trkpt lat="44.2446420" lon="7.5108600">
        <ele>1219.4</ele>
        <time>2017-07-23T06:39:38Z</time>
      </trkpt>
      <trkpt lat="44.2446460" lon="7.5108210">
        <ele>1219.6</ele>
        <time>2017-07-23T06:39:39Z</time>
      </trkpt>
      <trkpt lat="44.2446560" lon="7.5106610">
        <ele>1220.8</ele>
        <time>2017-07-23T06:39:43Z</time>
      </trkpt>
      <trkpt lat="44.2446580" lon="7.5105910">
        <ele>1221.2</ele>
        <time>2017-07-23T06:39:45Z</time>
      </trkpt>
      <trkpt lat="44.2446630" lon="7.5104330">
        <ele>1221.8</ele>
        <time>2017-07-23T06:39:49Z</time>
      </trkpt>
      <trkpt lat="44.2446690" lon="7.5102820">
        <ele>1222.6</ele>
        <time>2017-07-23T06:39:53Z</time>
      </trkpt>
      <trkpt lat="44.2446780" lon="7.5102450">
        <ele>1222.8</ele>
        <time>2017-07-23T06:39:54Z</time>
      </trkpt>
      <trkpt lat="44.2447410" lon="7.5101120">
        <ele>1224.0</ele>
        <time>2017-07-23T06:39:59Z</time>
      </trkpt>
      <trkpt lat="44.2447840" lon="7.5099790">
        <ele>1225.0</ele>
        <time>2017-07-23T06:40:04Z</time>
      </trkpt>
      <trkpt lat="44.2447880" lon="7.5099540">
        <ele>1225.2</ele>
        <time>2017-07-23T06:40:05Z</time>
      </trkpt>
      <trkpt lat="44.2448130" lon="7.5098750">
        <ele>1226.2</ele>
        <time>2017-07-23T06:40:08Z</time>
      </trkpt>
      <trkpt lat="44.2448480" lon="7.5097340">
        <ele>1227.4</ele>
        <time>2017-07-23T06:40:13Z</time>
      </trkpt>
      <trkpt lat="44.2448670" lon="7.5095600">
        <ele>1228.4</ele>
        <time>2017-07-23T06:40:19Z</time>
      </trkpt>
      <trkpt lat="44.2448730" lon="7.5095150">
        <ele>1229.0</ele>
        <time>2017-07-23T06:40:21Z</time>
      </trkpt>
      <trkpt lat="44.2448770" lon="7.5094630">
        <ele>1229.6</ele>
        <time>2017-07-23T06:40:23Z</time>
      </trkpt>
      <trkpt lat="44.2448670" lon="7.5094080">
        <ele>1230.2</ele>
        <time>2017-07-23T06:40:25Z</time>
      </trkpt>
      <trkpt lat="44.2448480" lon="7.5093600">
        <ele>1230.6</ele>
        <time>2017-07-23T06:40:27Z</time>
      </trkpt>
      <trkpt lat="44.2447870" lon="7.5092920">
        <ele>1232.0</ele>
        <time>2017-07-23T06:40:31Z</time>
      </trkpt>
      <trkpt lat="44.2447550" lon="7.5092670">
        <ele>1232.4</ele>
        <time>2017-07-23T06:40:33Z</time>
      </trkpt>
      <trkpt lat="44.2446970" lon="7.5092310">
        <ele>1233.0</ele>
        <time>2017-07-23T06:40:36Z</time>
      </trkpt>
      <trkpt lat="44.2446010" lon="7.5091520">
        <ele>1234.0</ele>
        <time>2017-07-23T06:40:40Z</time>
      </trkpt>
      <trkpt lat="44.2445780" lon="7.5091270">
        <ele>1234.2</ele>
        <time>2017-07-23T06:40:41Z</time>
      </trkpt>
      <trkpt lat="44.2444580" lon="7.5089710">
        <ele>1235.0</ele>
        <time>2017-07-23T06:40:46Z</time>
      </trkpt>
      <trkpt lat="44.2444040" lon="7.5088670">
        <ele>1235.4</ele>
        <time>2017-07-23T06:40:48Z</time>
      </trkpt>
      <trkpt lat="44.2443180" lon="7.5087060">
        <ele>1236.2</ele>
        <time>2017-07-23T06:40:52Z</time>
      </trkpt>
      <trkpt lat="44.2442980" lon="7.5086800">
        <ele>1236.6</ele>
        <time>2017-07-23T06:40:53Z</time>
      </trkpt>
      <trkpt lat="44.2442420" lon="7.5085980">
        <ele>1237.8</ele>
        <time>2017-07-23T06:40:56Z</time>
      </trkpt>
      <trkpt lat="44.2441920" lon="7.5085130">
        <ele>1238.6</ele>
        <time>2017-07-23T06:40:59Z</time>
      </trkpt>
      <trkpt lat="44.2441790" lon="7.5084750">
        <ele>1238.8</ele>
        <time>2017-07-23T06:41:00Z</time>
      </trkpt>
      <trkpt lat="44.2441170" lon="7.5083550">
        <ele>1239.8</ele>
        <time>2017-07-23T06:41:04Z</time>
      </trkpt>
      <trkpt lat="44.2440640" lon="7.5082580">
        <ele>1241.0</ele>
        <time>2017-07-23T06:41:09Z</time>
      </trkpt>
      <trkpt lat="44.2440520" lon="7.5082390">
        <ele>1241.4</ele>
        <time>2017-07-23T06:41:10Z</time>
      </trkpt>
      <trkpt lat="44.2440130" lon="7.5081870">
        <ele>1242.0</ele>
        <time>2017-07-23T06:41:13Z</time>
      </trkpt>
      <trkpt lat="44.2439460" lon="7.5081090">
        <ele>1243.6</ele>
        <time>2017-07-23T06:41:18Z</time>
      </trkpt>
      <trkpt lat="44.2439320" lon="7.5080910">
        <ele>1243.8</ele>
        <time>2017-07-23T06:41:19Z</time>
      </trkpt>
      <trkpt lat="44.2438860" lon="7.5080240">
        <ele>1244.8</ele>
        <time>2017-07-23T06:41:23Z</time>
      </trkpt>
      <trkpt lat="44.2438490" lon="7.5079720">
        <ele>1245.2</ele>
        <time>2017-07-23T06:41:26Z</time>
      </trkpt>
      <trkpt lat="44.2438140" lon="7.5079190">
        <ele>1245.8</ele>
        <time>2017-07-23T06:41:29Z</time>
      </trkpt>
      <trkpt lat="44.2437720" lon="7.5078520">
        <ele>1246.8</ele>
        <time>2017-07-23T06:41:33Z</time>
      </trkpt>
      <trkpt lat="44.2437640" lon="7.5078400">
        <ele>1247.0</ele>
        <time>2017-07-23T06:41:34Z</time>
      </trkpt>
      <trkpt lat="44.2437020" lon="7.5077280">
        <ele>1248.0</ele>
        <time>2017-07-23T06:41:39Z</time>
      </trkpt>
      <trkpt lat="44.2436730" lon="7.5076790">
        <ele>1248.6</ele>
        <time>2017-07-23T06:41:41Z</time>
      </trkpt>
      <trkpt lat="44.2436510" lon="7.5076490">
        <ele>1249.0</ele>
        <time>2017-07-23T06:41:42Z</time>
      </trkpt>
      <trkpt lat="44.2435790" lon="7.5075400">
        <ele>1250.2</ele>
        <time>2017-07-23T06:41:47Z</time>
      </trkpt>
      <trkpt lat="44.2435060" lon="7.5074520">
        <ele>1251.4</ele>
        <time>2017-07-23T06:41:52Z</time>
      </trkpt>
      <trkpt lat="44.2434440" lon="7.5073720">
        <ele>1252.2</ele>
        <time>2017-07-23T06:41:56Z</time>
      </trkpt>
      <trkpt lat="44.2434240" lon="7.5073520">
        <ele>1252.4</ele>
        <time>2017-07-23T06:41:57Z</time>
      </trkpt>
      <trkpt lat="44.2433510" lon="7.5072440">
        <ele>1253.6</ele>
        <time>2017-07-23T06:42:02Z</time>
      </trkpt>
      <trkpt lat="44.2433230" lon="7.5072030">
        <ele>1254.2</ele>
        <time>2017-07-23T06:42:04Z</time>
      </trkpt>
      <trkpt lat="44.2432950" lon="7.5071570">
        <ele>1255.0</ele>
        <time>2017-07-23T06:42:06Z</time>
      </trkpt>
      <trkpt lat="44.2432400" lon="7.5070630">
        <ele>1256.2</ele>
        <time>2017-07-23T06:42:10Z</time>
      </trkpt>
      <trkpt lat="44.2432010" lon="7.5069700">
        <ele>1256.6</ele>
        <time>2017-07-23T06:42:13Z</time>
      </trkpt>
      <trkpt lat="44.2431620" lon="7.5068810">
        <ele>1257.4</ele>
        <time>2017-07-23T06:42:16Z</time>
      </trkpt>
      <trkpt lat="44.2431430" lon="7.5067920">
        <ele>1258.0</ele>
        <time>2017-07-23T06:42:19Z</time>
      </trkpt>
      <trkpt lat="44.2431330" lon="7.5067350">
        <ele>1258.4</ele>
        <time>2017-07-23T06:42:21Z</time>
      </trkpt>
      <trkpt lat="44.2431160" lon="7.5066280">
        <ele>1259.4</ele>
        <time>2017-07-23T06:42:25Z</time>
      </trkpt>
      <trkpt lat="44.2431140" lon="7.5065980">
        <ele>1259.6</ele>
        <time>2017-07-23T06:42:26Z</time>
      </trkpt>
      <trkpt lat="44.2431040" lon="7.5065550">
        <ele>1260.0</ele>
        <time>2017-07-23T06:42:28Z</time>
      </trkpt>
      <trkpt lat="44.2430900" lon="7.5064970">
        <ele>1260.6</ele>
        <time>2017-07-23T06:42:30Z</time>
      </trkpt>
      <trkpt lat="44.2430850" lon="7.5064700">
        <ele>1260.6</ele>
        <time>2017-07-23T06:42:31Z</time>
      </trkpt>
      <trkpt lat="44.2430350" lon="7.5063200">
        <ele>1261.2</ele>
        <time>2017-07-23T06:42:37Z</time>
      </trkpt>
      <trkpt lat="44.2429740" lon="7.5062000">
        <ele>1261.8</ele>
        <time>2017-07-23T06:42:43Z</time>
      </trkpt>
      <trkpt lat="44.2429440" lon="7.5061360">
        <ele>1262.0</ele>
        <time>2017-07-23T06:42:46Z</time>
      </trkpt>
      <trkpt lat="44.2428200" lon="7.5059510">
        <ele>1263.0</ele>
        <time>2017-07-23T06:42:54Z</time>
      </trkpt>
      <trkpt lat="44.2427260" lon="7.5057690">
        <ele>1263.8</ele>
        <time>2017-07-23T06:43:00Z</time>
      </trkpt>
      <trkpt lat="44.2426890" lon="7.5057050">
        <ele>1264.0</ele>
        <time>2017-07-23T06:43:02Z</time>
      </trkpt>
      <trkpt lat="44.2425930" lon="7.5054960">
        <ele>1264.8</ele>
        <time>2017-07-23T06:43:07Z</time>
      </trkpt>
      <trkpt lat="44.2425370" lon="7.5053380">
        <ele>1265.0</ele>
        <time>2017-07-23T06:43:10Z</time>
      </trkpt>
      <trkpt lat="44.2424940" lon="7.5052110">
        <ele>1265.6</ele>
        <time>2017-07-23T06:43:13Z</time>
      </trkpt>
      <trkpt lat="44.2424310" lon="7.5050790">
        <ele>1266.2</ele>
        <time>2017-07-23T06:43:17Z</time>
      </trkpt>
      <trkpt lat="44.2423850" lon="7.5050420">
        <ele>1266.8</ele>
        <time>2017-07-23T06:43:19Z</time>
      </trkpt>
      <trkpt lat="44.2423180" lon="7.5049880">
        <ele>1267.4</ele>
        <time>2017-07-23T06:43:22Z</time>
      </trkpt>
      <trkpt lat="44.2422670" lon="7.5048810">
        <ele>1267.6</ele>
        <time>2017-07-23T06:43:25Z</time>
      </trkpt>
      <trkpt lat="44.2422430" lon="7.5047450">
        <ele>1268.4</ele>
        <time>2017-07-23T06:43:29Z</time>
      </trkpt>
      <trkpt lat="44.2422160" lon="7.5045750">
        <ele>1269.6</ele>
        <time>2017-07-23T06:43:34Z</time>
      </trkpt>
      <trkpt lat="44.2422130" lon="7.5045140">
        <ele>1269.8</ele>
        <time>2017-07-23T06:43:36Z</time>
      </trkpt>
      <trkpt lat="44.2422170" lon="7.5043980">
        <ele>1270.8</ele>
        <time>2017-07-23T06:43:40Z</time>
      </trkpt>
      <trkpt lat="44.2422040" lon="7.5043400">
        <ele>1271.4</ele>
        <time>2017-07-23T06:43:42Z</time>
      </trkpt>
      <trkpt lat="44.2421920" lon="7.5043100">
        <ele>1271.6</ele>
        <time>2017-07-23T06:43:43Z</time>
      </trkpt>
      <trkpt lat="44.2421800" lon="7.5042810">
        <ele>1272.0</ele>
        <time>2017-07-23T06:43:44Z</time>
      </trkpt>
      <trkpt lat="44.2421090" lon="7.5042010">
        <ele>1272.8</ele>
        <time>2017-07-23T06:43:48Z</time>
      </trkpt>
      <trkpt lat="44.2420910" lon="7.5041840">
        <ele>1273.0</ele>
        <time>2017-07-23T06:43:49Z</time>
      </trkpt>
      <trkpt lat="44.2420080" lon="7.5040930">
        <ele>1274.0</ele>
        <time>2017-07-23T06:43:54Z</time>
      </trkpt>
      <trkpt lat="44.2419820" lon="7.5040500">
        <ele>1274.4</ele>
        <time>2017-07-23T06:43:56Z</time>
      </trkpt>
      <trkpt lat="44.2419400" lon="7.5039830">
        <ele>1275.2</ele>
        <time>2017-07-23T06:43:59Z</time>
      </trkpt>
      <trkpt lat="44.2418500" lon="7.5038660">
        <ele>1276.2</ele>
        <time>2017-07-23T06:44:04Z</time>
      </trkpt>
      <trkpt lat="44.2417780" lon="7.5037850">
        <ele>1277.4</ele>
        <time>2017-07-23T06:44:08Z</time>
      </trkpt>
      <trkpt lat="44.2417040" lon="7.5036950">
        <ele>1278.2</ele>
        <time>2017-07-23T06:44:12Z</time>
      </trkpt>
      <trkpt lat="44.2416740" lon="7.5036500">
        <ele>1278.6</ele>
        <time>2017-07-23T06:44:14Z</time>
      </trkpt>
      <trkpt lat="44.2415720" lon="7.5035250">
        <ele>1279.8</ele>
        <time>2017-07-23T06:44:20Z</time>
      </trkpt>
      <trkpt lat="44.2414600" lon="7.5033410">
        <ele>1281.0</ele>
        <time>2017-07-23T06:44:27Z</time>
      </trkpt>
      <trkpt lat="44.2414230" lon="7.5031920">
        <ele>1282.0</ele>
        <time>2017-07-23T06:44:31Z</time>
      </trkpt>
      <trkpt lat="44.2413740" lon="7.5030690">
        <ele>1283.2</ele>
        <time>2017-07-23T06:44:35Z</time>
      </trkpt>
      <trkpt lat="44.2413580" lon="7.5029900">
        <ele>1284.0</ele>
        <time>2017-07-23T06:44:38Z</time>
      </trkpt>
      <trkpt lat="44.2413550" lon="7.5029650">
        <ele>1284.2</ele>
        <time>2017-07-23T06:44:39Z</time>
      </trkpt>
      <trkpt lat="44.2413480" lon="7.5028370">
        <ele>1285.6</ele>
        <time>2017-07-23T06:44:44Z</time>
      </trkpt>
      <trkpt lat="44.2413480" lon="7.5028120">
        <ele>1285.8</ele>
        <time>2017-07-23T06:44:45Z</time>
      </trkpt>
      <trkpt lat="44.2413390" lon="7.5027150">
        <ele>1286.8</ele>
        <time>2017-07-23T06:44:49Z</time>
      </trkpt>
      <trkpt lat="44.2413300" lon="7.5026320">
        <ele>1288.0</ele>
        <time>2017-07-23T06:44:53Z</time>
      </trkpt>
      <trkpt lat="44.2413270" lon="7.5025470">
        <ele>1289.0</ele>
        <time>2017-07-23T06:44:57Z</time>
      </trkpt>
      <trkpt lat="44.2413200" lon="7.5024810">
        <ele>1289.6</ele>
        <time>2017-07-23T06:45:00Z</time>
      </trkpt>
      <trkpt lat="44.2413180" lon="7.5024400">
        <ele>1290.0</ele>
        <time>2017-07-23T06:45:02Z</time>
      </trkpt>
      <trkpt lat="44.2413140" lon="7.5024170">
        <ele>1290.2</ele>
        <time>2017-07-23T06:45:03Z</time>
      </trkpt>
      <trkpt lat="44.2413070" lon="7.5023760">
        <ele>1290.6</ele>
        <time>2017-07-23T06:45:05Z</time>
      </trkpt>
      <trkpt lat="44.2413080" lon="7.5023440">
        <ele>1291.4</ele>
        <time>2017-07-23T06:45:07Z</time>
      </trkpt>
      <trkpt lat="44.2413090" lon="7.5022520">
        <ele>1292.8</ele>
        <time>2017-07-23T06:45:12Z</time>
      </trkpt>
      <trkpt lat="44.2413120" lon="7.5021520">
        <ele>1293.8</ele>
        <time>2017-07-23T06:45:17Z</time>
      </trkpt>
      <trkpt lat="44.2413140" lon="7.5021350">
        <ele>1294.0</ele>
        <time>2017-07-23T06:45:18Z</time>
      </trkpt>
      <trkpt lat="44.2413160" lon="7.5021160">
        <ele>1294.6</ele>
        <time>2017-07-23T06:45:19Z</time>
      </trkpt>
      <trkpt lat="44.2413170" lon="7.5020950">
        <ele>1294.8</ele>
        <time>2017-07-23T06:45:20Z</time>
      </trkpt>
      <trkpt lat="44.2413290" lon="7.5020140">
        <ele>1295.8</ele>
        <time>2017-07-23T06:45:24Z</time>
      </trkpt>
      <trkpt lat="44.2413350" lon="7.5019930">
        <ele>1296.2</ele>
        <time>2017-07-23T06:45:25Z</time>
      </trkpt>
      <trkpt lat="44.2413510" lon="7.5019200">
        <ele>1297.0</ele>
        <time>2017-07-23T06:45:28Z</time>
      </trkpt>
      <trkpt lat="44.2413760" lon="7.5017890">
        <ele>1298.0</ele>
        <time>2017-07-23T06:45:33Z</time>
      </trkpt>
      <trkpt lat="44.2414120" lon="7.5016540">
        <ele>1299.0</ele>
        <time>2017-07-23T06:45:38Z</time>
      </trkpt>
      <trkpt lat="44.2414340" lon="7.5015510">
        <ele>1300.0</ele>
        <time>2017-07-23T06:45:42Z</time>
      </trkpt>
      <trkpt lat="44.2414430" lon="7.5015250">
        <ele>1300.2</ele>
        <time>2017-07-23T06:45:43Z</time>
      </trkpt>
      <trkpt lat="44.2414890" lon="7.5013830">
        <ele>1301.4</ele>
        <time>2017-07-23T06:45:48Z</time>
      </trkpt>
      <trkpt lat="44.2415000" lon="7.5013540">
        <ele>1301.8</ele>
        <time>2017-07-23T06:45:49Z</time>
      </trkpt>
      <trkpt lat="44.2415520" lon="7.5011760">
        <ele>1302.4</ele>
        <time>2017-07-23T06:45:54Z</time>
      </trkpt>
      <trkpt lat="44.2415610" lon="7.5011340">
        <ele>1302.4</ele>
        <time>2017-07-23T06:45:55Z</time>
      </trkpt>
      <trkpt lat="44.2416030" lon="7.5009200">
        <ele>1303.0</ele>
        <time>2017-07-23T06:46:00Z</time>
      </trkpt>
      <trkpt lat="44.2416120" lon="7.5007650">
        <ele>1303.4</ele>
        <time>2017-07-23T06:46:03Z</time>
      </trkpt>
      <trkpt lat="44.2415970" lon="7.5007030">
        <ele>1303.4</ele>
        <time>2017-07-23T06:46:04Z</time>
      </trkpt>
      <trkpt lat="44.2415800" lon="7.5006510">
        <ele>1303.4</ele>
        <time>2017-07-23T06:46:05Z</time>
      </trkpt>
      <trkpt lat="44.2415050" lon="7.5005260">
        <ele>1304.0</ele>
        <time>2017-07-23T06:46:08Z</time>
      </trkpt>
      <trkpt lat="44.2414790" lon="7.5004910">
        <ele>1304.2</ele>
        <time>2017-07-23T06:46:09Z</time>
      </trkpt>
      <trkpt lat="44.2413950" lon="7.5003880">
        <ele>1304.6</ele>
        <time>2017-07-23T06:46:12Z</time>
      </trkpt>
      <trkpt lat="44.2413290" lon="7.5002720">
        <ele>1304.6</ele>
        <time>2017-07-23T06:46:15Z</time>
      </trkpt>
      <trkpt lat="44.2412800" lon="7.5001560">
        <ele>1305.0</ele>
        <time>2017-07-23T06:46:18Z</time>
      </trkpt>
      <trkpt lat="44.2412310" lon="7.5000450">
        <ele>1305.4</ele>
        <time>2017-07-23T06:46:21Z</time>
      </trkpt>
      <trkpt lat="44.2412120" lon="7.5000040">
        <ele>1305.6</ele>
        <time>2017-07-23T06:46:22Z</time>
      </trkpt>
      <trkpt lat="44.2411040" lon="7.4998390">
        <ele>1306.6</ele>
        <time>2017-07-23T06:46:27Z</time>
      </trkpt>
      <trkpt lat="44.2410790" lon="7.4998240">
        <ele>1306.8</ele>
        <time>2017-07-23T06:46:28Z</time>
      </trkpt>
      <trkpt lat="44.2409140" lon="7.4998190">
        <ele>1307.4</ele>
        <time>2017-07-23T06:46:33Z</time>
      </trkpt>
      <trkpt lat="44.2408370" lon="7.4998250">
        <ele>1307.6</ele>
        <time>2017-07-23T06:46:35Z</time>
      </trkpt>
      <trkpt lat="44.2407120" lon="7.4998120">
        <ele>1308.0</ele>
        <time>2017-07-23T06:46:38Z</time>
      </trkpt>
      <trkpt lat="44.2405980" lon="7.4996800">
        <ele>1308.8</ele>
        <time>2017-07-23T06:46:43Z</time>
      </trkpt>
      <trkpt lat="44.2404880" lon="7.4995790">
        <ele>1309.6</ele>
        <time>2017-07-23T06:46:48Z</time>
      </trkpt>
      <trkpt lat="44.2404610" lon="7.4995660">
        <ele>1309.8</ele>
        <time>2017-07-23T06:46:49Z</time>
      </trkpt>
      <trkpt lat="44.2403050" lon="7.4995290">
        <ele>1311.0</ele>
        <time>2017-07-23T06:46:54Z</time>
      </trkpt>
      <trkpt lat="44.2402710" lon="7.4995190">
        <ele>1311.4</ele>
        <time>2017-07-23T06:46:55Z</time>
      </trkpt>
      <trkpt lat="44.2401590" lon="7.4994250">
        <ele>1312.0</ele>
        <time>2017-07-23T06:46:59Z</time>
      </trkpt>
      <trkpt lat="44.2401350" lon="7.4993780">
        <ele>1312.2</ele>
        <time>2017-07-23T06:47:00Z</time>
      </trkpt>
      <trkpt lat="44.2400200" lon="7.4991420">
        <ele>1313.4</ele>
        <time>2017-07-23T06:47:04Z</time>
      </trkpt>
      <trkpt lat="44.2399950" lon="7.4990770">
        <ele>1313.6</ele>
        <time>2017-07-23T06:47:05Z</time>
      </trkpt>
      <trkpt lat="44.2398970" lon="7.4988220">
        <ele>1314.6</ele>
        <time>2017-07-23T06:47:09Z</time>
      </trkpt>
      <trkpt lat="44.2398030" lon="7.4985580">
        <ele>1315.4</ele>
        <time>2017-07-23T06:47:13Z</time>
      </trkpt>
      <trkpt lat="44.2397860" lon="7.4984930">
        <ele>1315.6</ele>
        <time>2017-07-23T06:47:14Z</time>
      </trkpt>
      <trkpt lat="44.2397690" lon="7.4984270">
        <ele>1315.8</ele>
        <time>2017-07-23T06:47:15Z</time>
      </trkpt>
      <trkpt lat="44.2397090" lon="7.4981940">
        <ele>1316.2</ele>
        <time>2017-07-23T06:47:18Z</time>
      </trkpt>
      <trkpt lat="44.2397030" lon="7.4980330">
        <ele>1316.4</ele>
        <time>2017-07-23T06:47:20Z</time>
      </trkpt>
      <trkpt lat="44.2397400" lon="7.4978800">
        <ele>1316.4</ele>
        <time>2017-07-23T06:47:22Z</time>
      </trkpt>
      <trkpt lat="44.2398230" lon="7.4974130">
        <ele>1316.4</ele>
        <time>2017-07-23T06:47:28Z</time>
      </trkpt>
      <trkpt lat="44.2399030" lon="7.4968730">
        <ele>1316.2</ele>
        <time>2017-07-23T06:47:35Z</time>
      </trkpt>
      <trkpt lat="44.2398850" lon="7.4964880">
        <ele>1315.2</ele>
        <time>2017-07-23T06:47:39Z</time>
      </trkpt>
      <trkpt lat="44.2398130" lon="7.4960240">
        <ele>1314.2</ele>
        <time>2017-07-23T06:47:43Z</time>
      </trkpt>
      <trkpt lat="44.2397930" lon="7.4957730">
        <ele>1313.6</ele>
        <time>2017-07-23T06:47:45Z</time>
      </trkpt>
      <trkpt lat="44.2398050" lon="7.4955040">
        <ele>1312.8</ele>
        <time>2017-07-23T06:47:47Z</time>
      </trkpt>
      <trkpt lat="44.2398400" lon="7.4952240">
        <ele>1312.2</ele>
        <time>2017-07-23T06:47:49Z</time>
      </trkpt>
      <trkpt lat="44.2398620" lon="7.4950820">
        <ele>1311.6</ele>
        <time>2017-07-23T06:47:50Z</time>
      </trkpt>
      <trkpt lat="44.2399580" lon="7.4946480">
        <ele>1310.2</ele>
        <time>2017-07-23T06:47:53Z</time>
      </trkpt>
      <trkpt lat="44.2400080" lon="7.4945040">
        <ele>1309.6</ele>
        <time>2017-07-23T06:47:54Z</time>
      </trkpt>
      <trkpt lat="44.2400670" lon="7.4943630">
        <ele>1308.6</ele>
        <time>2017-07-23T06:47:55Z</time>
      </trkpt>
      <trkpt lat="44.2402120" lon="7.4940990">
        <ele>1306.8</ele>
        <time>2017-07-23T06:47:57Z</time>
      </trkpt>
      <trkpt lat="44.2403610" lon="7.4938760">
        <ele>1305.2</ele>
        <time>2017-07-23T06:47:59Z</time>
      </trkpt>
      <trkpt lat="44.2404260" lon="7.4937850">
        <ele>1304.2</ele>
        <time>2017-07-23T06:48:00Z</time>
      </trkpt>
      <trkpt lat="44.2404750" lon="7.4936980">
        <ele>1303.2</ele>
        <time>2017-07-23T06:48:01Z</time>
      </trkpt>
      <trkpt lat="44.2404990" lon="7.4936120">
        <ele>1302.0</ele>
        <time>2017-07-23T06:48:02Z</time>
      </trkpt>
      <trkpt lat="44.2404960" lon="7.4935230">
        <ele>1301.2</ele>
        <time>2017-07-23T06:48:03Z</time>
      </trkpt>
      <trkpt lat="44.2404790" lon="7.4934350">
        <ele>1300.2</ele>
        <time>2017-07-23T06:48:04Z</time>
      </trkpt>
      <trkpt lat="44.2404250" lon="7.4932740">
        <ele>1299.0</ele>
        <time>2017-07-23T06:48:06Z</time>
      </trkpt>
      <trkpt lat="44.2403900" lon="7.4931890">
        <ele>1297.4</ele>
        <time>2017-07-23T06:48:07Z</time>
      </trkpt>
      <trkpt lat="44.2403120" lon="7.4929940">
        <ele>1296.2</ele>
        <time>2017-07-23T06:48:09Z</time>
      </trkpt>
      <trkpt lat="44.2402270" lon="7.4927690">
        <ele>1294.8</ele>
        <time>2017-07-23T06:48:11Z</time>
      </trkpt>
      <trkpt lat="44.2401450" lon="7.4925510">
        <ele>1293.6</ele>
        <time>2017-07-23T06:48:13Z</time>
      </trkpt>
      <trkpt lat="44.2401150" lon="7.4924400">
        <ele>1293.0</ele>
        <time>2017-07-23T06:48:14Z</time>
      </trkpt>
      <trkpt lat="44.2401060" lon="7.4923220">
        <ele>1292.4</ele>
        <time>2017-07-23T06:48:15Z</time>
      </trkpt>
      <trkpt lat="44.2401650" lon="7.4920670">
        <ele>1291.2</ele>
        <time>2017-07-23T06:48:18Z</time>
      </trkpt>
      <trkpt lat="44.2403150" lon="7.4919920">
        <ele>1290.4</ele>
        <time>2017-07-23T06:48:21Z</time>
      </trkpt>
      <trkpt lat="44.2404360" lon="7.4919500">
        <ele>1290.2</ele>
        <time>2017-07-23T06:48:23Z</time>
      </trkpt>
      <trkpt lat="44.2405000" lon="7.4919170">
        <ele>1290.0</ele>
        <time>2017-07-23T06:48:24Z</time>
      </trkpt>
      <trkpt lat="44.2406270" lon="7.4918480">
        <ele>1289.8</ele>
        <time>2017-07-23T06:48:26Z</time>
      </trkpt>
      <trkpt lat="44.2408040" lon="7.4917000">
        <ele>1289.6</ele>
        <time>2017-07-23T06:48:29Z</time>
      </trkpt>
      <trkpt lat="44.2408510" lon="7.4916350">
        <ele>1289.4</ele>
        <time>2017-07-23T06:48:30Z</time>
      </trkpt>
      <trkpt lat="44.2409520" lon="7.4914130">
        <ele>1289.2</ele>
        <time>2017-07-23T06:48:33Z</time>
      </trkpt>
      <trkpt lat="44.2409810" lon="7.4913400">
        <ele>1289.2</ele>
        <time>2017-07-23T06:48:34Z</time>
      </trkpt>
      <trkpt lat="44.2410100" lon="7.4912670">
        <ele>1289.0</ele>
        <time>2017-07-23T06:48:35Z</time>
      </trkpt>
      <trkpt lat="44.2411530" lon="7.4908540">
        <ele>1288.0</ele>
        <time>2017-07-23T06:48:41Z</time>
      </trkpt>
      <trkpt lat="44.2411760" lon="7.4907290">
        <ele>1287.8</ele>
        <time>2017-07-23T06:48:43Z</time>
      </trkpt>
      <trkpt lat="44.2412300" lon="7.4905370">
        <ele>1288.0</ele>
        <time>2017-07-23T06:48:47Z</time>
      </trkpt>
      <trkpt lat="44.2413260" lon="7.4902790">
        <ele>1288.4</ele>
        <time>2017-07-23T06:48:54Z</time>
      </trkpt>
      <trkpt lat="44.2413490" lon="7.4902040">
        <ele>1289.2</ele>
        <time>2017-07-23T06:48:56Z</time>
      </trkpt>
      <trkpt lat="44.2414010" lon="7.4900090">
        <ele>1290.4</ele>
        <time>2017-07-23T06:49:01Z</time>
      </trkpt>
      <trkpt lat="44.2414390" lon="7.4898970">
        <ele>1291.4</ele>
        <time>2017-07-23T06:49:04Z</time>
      </trkpt>
      <trkpt lat="44.2414670" lon="7.4898170">
        <ele>1292.2</ele>
        <time>2017-07-23T06:49:06Z</time>
      </trkpt>
      <trkpt lat="44.2414900" lon="7.4897240">
        <ele>1292.8</ele>
        <time>2017-07-23T06:49:08Z</time>
      </trkpt>
      <trkpt lat="44.2415080" lon="7.4895720">
        <ele>1294.0</ele>
        <time>2017-07-23T06:49:11Z</time>
      </trkpt>
      <trkpt lat="44.2415110" lon="7.4895160">
        <ele>1294.4</ele>
        <time>2017-07-23T06:49:12Z</time>
      </trkpt>
      <trkpt lat="44.2415120" lon="7.4894070">
        <ele>1295.0</ele>
        <time>2017-07-23T06:49:14Z</time>
      </trkpt>
      <trkpt lat="44.2415440" lon="7.4892080">
        <ele>1296.2</ele>
        <time>2017-07-23T06:49:18Z</time>
      </trkpt>
      <trkpt lat="44.2416520" lon="7.4890050">
        <ele>1297.2</ele>
        <time>2017-07-23T06:49:24Z</time>
      </trkpt>
      <trkpt lat="44.2416710" lon="7.4889790">
        <ele>1297.2</ele>
        <time>2017-07-23T06:49:25Z</time>
      </trkpt>
      <trkpt lat="44.2417800" lon="7.4888230">
        <ele>1297.8</ele>
        <time>2017-07-23T06:49:31Z</time>
      </trkpt>
      <trkpt lat="44.2418630" lon="7.4887200">
        <ele>1298.4</ele>
        <time>2017-07-23T06:49:35Z</time>
      </trkpt>
      <trkpt lat="44.2419400" lon="7.4886280">
        <ele>1298.8</ele>
        <time>2017-07-23T06:49:39Z</time>
      </trkpt>
      <trkpt lat="44.2420010" lon="7.4885740">
        <ele>1299.4</ele>
        <time>2017-07-23T06:49:42Z</time>
      </trkpt>
      <trkpt lat="44.2420620" lon="7.4885230">
        <ele>1300.4</ele>
        <time>2017-07-23T06:49:45Z</time>
      </trkpt>
      <trkpt lat="44.2421260" lon="7.4884610">
        <ele>1301.2</ele>
        <time>2017-07-23T06:49:48Z</time>
      </trkpt>
      <trkpt lat="44.2421480" lon="7.4884340">
        <ele>1301.4</ele>
        <time>2017-07-23T06:49:49Z</time>
      </trkpt>
      <trkpt lat="44.2422370" lon="7.4882840">
        <ele>1302.6</ele>
        <time>2017-07-23T06:49:54Z</time>
      </trkpt>
      <trkpt lat="44.2422540" lon="7.4882510">
        <ele>1302.8</ele>
        <time>2017-07-23T06:49:55Z</time>
      </trkpt>
      <trkpt lat="44.2423160" lon="7.4881580">
        <ele>1303.6</ele>
        <time>2017-07-23T06:49:58Z</time>
      </trkpt>
      <trkpt lat="44.2424020" lon="7.4880410">
        <ele>1304.6</ele>
        <time>2017-07-23T06:50:02Z</time>
      </trkpt>
      <trkpt lat="44.2425520" lon="7.4878810">
        <ele>1305.8</ele>
        <time>2017-07-23T06:50:07Z</time>
      </trkpt>
      <trkpt lat="44.2425920" lon="7.4878520">
        <ele>1306.0</ele>
        <time>2017-07-23T06:50:08Z</time>
      </trkpt>
      <trkpt lat="44.2426330" lon="7.4878290">
        <ele>1306.2</ele>
        <time>2017-07-23T06:50:09Z</time>
      </trkpt>
      <trkpt lat="44.2427580" lon="7.4877860">
        <ele>1306.8</ele>
        <time>2017-07-23T06:50:12Z</time>
      </trkpt>
      <trkpt lat="44.2428000" lon="7.4877730">
        <ele>1307.0</ele>
        <time>2017-07-23T06:50:13Z</time>
      </trkpt>
      <trkpt lat="44.2429840" lon="7.4877410">
        <ele>1307.6</ele>
        <time>2017-07-23T06:50:17Z</time>
      </trkpt>
      <trkpt lat="44.2430820" lon="7.4877340">
        <ele>1307.6</ele>
        <time>2017-07-23T06:50:19Z</time>
      </trkpt>
      <trkpt lat="44.2431350" lon="7.4877390">
        <ele>1307.8</ele>
        <time>2017-07-23T06:50:20Z</time>
      </trkpt>
      <trkpt lat="44.2433010" lon="7.4877480">
        <ele>1308.0</ele>
        <time>2017-07-23T06:50:23Z</time>
      </trkpt>
      <trkpt lat="44.2433540" lon="7.4877480">
        <ele>1308.0</ele>
        <time>2017-07-23T06:50:24Z</time>
      </trkpt>
      <trkpt lat="44.2434030" lon="7.4877520">
        <ele>1308.2</ele>
        <time>2017-07-23T06:50:25Z</time>
      </trkpt>
      <trkpt lat="44.2435560" lon="7.4877800">
        <ele>1308.4</ele>
        <time>2017-07-23T06:50:28Z</time>
      </trkpt>
      <trkpt lat="44.2436110" lon="7.4878030">
        <ele>1308.4</ele>
        <time>2017-07-23T06:50:29Z</time>
      </trkpt>
      <trkpt lat="44.2436690" lon="7.4878360">
        <ele>1308.6</ele>
        <time>2017-07-23T06:50:30Z</time>
      </trkpt>
      <trkpt lat="44.2438580" lon="7.4879840">
        <ele>1308.6</ele>
        <time>2017-07-23T06:50:33Z</time>
      </trkpt>
      <trkpt lat="44.2440010" lon="7.4880690">
        <ele>1308.2</ele>
        <time>2017-07-23T06:50:35Z</time>
      </trkpt>
      <trkpt lat="44.2441600" lon="7.4880660">
        <ele>1308.0</ele>
        <time>2017-07-23T06:50:37Z</time>
      </trkpt>
      <trkpt lat="44.2444150" lon="7.4879690">
        <ele>1307.0</ele>
        <time>2017-07-23T06:50:40Z</time>
      </trkpt>
      <trkpt lat="44.2444970" lon="7.4879310">
        <ele>1306.8</ele>
        <time>2017-07-23T06:50:41Z</time>
      </trkpt>
      <trkpt lat="44.2448360" lon="7.4878440">
        <ele>1305.4</ele>
        <time>2017-07-23T06:50:45Z</time>
      </trkpt>
      <trkpt lat="44.2449300" lon="7.4878280">
        <ele>1305.2</ele>
        <time>2017-07-23T06:50:46Z</time>
      </trkpt>
      <trkpt lat="44.2451240" lon="7.4877780">
        <ele>1304.6</ele>
        <time>2017-07-23T06:50:48Z</time>
      </trkpt>
      <trkpt lat="44.2452230" lon="7.4877350">
        <ele>1304.0</ele>
        <time>2017-07-23T06:50:49Z</time>
      </trkpt>
      <trkpt lat="44.2453220" lon="7.4876730">
        <ele>1303.6</ele>
        <time>2017-07-23T06:50:50Z</time>
      </trkpt>
      <trkpt lat="44.2455120" lon="7.4875270">
        <ele>1303.0</ele>
        <time>2017-07-23T06:50:52Z</time>
      </trkpt>
      <trkpt lat="44.2457820" lon="7.4873140">
        <ele>1301.6</ele>
        <time>2017-07-23T06:50:55Z</time>
      </trkpt>
      <trkpt lat="44.2461590" lon="7.4870880">
        <ele>1300.0</ele>
        <time>2017-07-23T06:50:59Z</time>
      </trkpt>
      <trkpt lat="44.2462500" lon="7.4870270">
        <ele>1299.6</ele>
        <time>2017-07-23T06:51:00Z</time>
      </trkpt>
      <trkpt lat="44.2464170" lon="7.4868840">
        <ele>1299.0</ele>
        <time>2017-07-23T06:51:02Z</time>
      </trkpt>
      <trkpt lat="44.2465720" lon="7.4867380">
        <ele>1298.6</ele>
        <time>2017-07-23T06:51:04Z</time>
      </trkpt>
      <trkpt lat="44.2468300" lon="7.4865680">
        <ele>1297.8</ele>
        <time>2017-07-23T06:51:07Z</time>
      </trkpt>
      <trkpt lat="44.2469260" lon="7.4865070">
        <ele>1297.0</ele>
        <time>2017-07-23T06:51:08Z</time>
      </trkpt>
      <trkpt lat="44.2471300" lon="7.4863450">
        <ele>1296.0</ele>
        <time>2017-07-23T06:51:10Z</time>
      </trkpt>
      <trkpt lat="44.2472350" lon="7.4862380">
        <ele>1295.4</ele>
        <time>2017-07-23T06:51:11Z</time>
      </trkpt>
      <trkpt lat="44.2473210" lon="7.4861050">
        <ele>1294.4</ele>
        <time>2017-07-23T06:51:12Z</time>
      </trkpt>
      <trkpt lat="44.2474610" lon="7.4858780">
        <ele>1293.2</ele>
        <time>2017-07-23T06:51:14Z</time>
      </trkpt>
      <trkpt lat="44.2475560" lon="7.4857180">
        <ele>1292.0</ele>
        <time>2017-07-23T06:51:16Z</time>
      </trkpt>
      <trkpt lat="44.2475870" lon="7.4856480">
        <ele>1291.4</ele>
        <time>2017-07-23T06:51:17Z</time>
      </trkpt>
      <trkpt lat="44.2476010" lon="7.4855850">
        <ele>1290.6</ele>
        <time>2017-07-23T06:51:18Z</time>
      </trkpt>
      <trkpt lat="44.2475920" lon="7.4855440">
        <ele>1289.0</ele>
        <time>2017-07-23T06:51:19Z</time>
      </trkpt>
      <trkpt lat="44.2475370" lon="7.4855450">
        <ele>1287.8</ele>
        <time>2017-07-23T06:51:21Z</time>
      </trkpt>
      <trkpt lat="44.2474980" lon="7.4855800">
        <ele>1287.0</ele>
        <time>2017-07-23T06:51:22Z</time>
      </trkpt>
      <trkpt lat="44.2474590" lon="7.4856280">
        <ele>1286.6</ele>
        <time>2017-07-23T06:51:23Z</time>
      </trkpt>
      <trkpt lat="44.2473730" lon="7.4857610">
        <ele>1285.4</ele>
        <time>2017-07-23T06:51:25Z</time>
      </trkpt>
      <trkpt lat="44.2473190" lon="7.4858290">
        <ele>1285.0</ele>
        <time>2017-07-23T06:51:26Z</time>
      </trkpt>
      <trkpt lat="44.2472600" lon="7.4858910">
        <ele>1284.4</ele>
        <time>2017-07-23T06:51:27Z</time>
      </trkpt>
      <trkpt lat="44.2472030" lon="7.4859490">
        <ele>1283.8</ele>
        <time>2017-07-23T06:51:28Z</time>
      </trkpt>
      <trkpt lat="44.2471390" lon="7.4860020">
        <ele>1283.4</ele>
        <time>2017-07-23T06:51:29Z</time>
      </trkpt>
      <trkpt lat="44.2470690" lon="7.4860500">
        <ele>1283.0</ele>
        <time>2017-07-23T06:51:30Z</time>
      </trkpt>
      <trkpt lat="44.2470020" lon="7.4861010">
        <ele>1282.6</ele>
        <time>2017-07-23T06:51:31Z</time>
      </trkpt>
      <trkpt lat="44.2469300" lon="7.4861470">
        <ele>1281.8</ele>
        <time>2017-07-23T06:51:32Z</time>
      </trkpt>
      <trkpt lat="44.2467970" lon="7.4862360">
        <ele>1280.2</ele>
        <time>2017-07-23T06:51:34Z</time>
      </trkpt>
      <trkpt lat="44.2465880" lon="7.4863430">
        <ele>1278.8</ele>
        <time>2017-07-23T06:51:37Z</time>
      </trkpt>
      <trkpt lat="44.2463820" lon="7.4863870">
        <ele>1277.2</ele>
        <time>2017-07-23T06:51:39Z</time>
      </trkpt>
      <trkpt lat="44.2462570" lon="7.4864070">
        <ele>1276.4</ele>
        <time>2017-07-23T06:51:40Z</time>
      </trkpt>
      <trkpt lat="44.2461460" lon="7.4864440">
        <ele>1275.8</ele>
        <time>2017-07-23T06:51:41Z</time>
      </trkpt>
      <trkpt lat="44.2459320" lon="7.4865270">
        <ele>1273.6</ele>
        <time>2017-07-23T06:51:43Z</time>
      </trkpt>
      <trkpt lat="44.2458260" lon="7.4865830">
        <ele>1273.0</ele>
        <time>2017-07-23T06:51:44Z</time>
      </trkpt>
      <trkpt lat="44.2457110" lon="7.4866120">
        <ele>1272.2</ele>
        <time>2017-07-23T06:51:45Z</time>
      </trkpt>
      <trkpt lat="44.2454950" lon="7.4866590">
        <ele>1270.8</ele>
        <time>2017-07-23T06:51:47Z</time>
      </trkpt>
      <trkpt lat="44.2452770" lon="7.4866860">
        <ele>1269.4</ele>
        <time>2017-07-23T06:51:49Z</time>
      </trkpt>
      <trkpt lat="44.2451780" lon="7.4866890">
        <ele>1269.0</ele>
        <time>2017-07-23T06:51:50Z</time>
      </trkpt>
      <trkpt lat="44.2450900" lon="7.4866840">
        <ele>1268.4</ele>
        <time>2017-07-23T06:51:51Z</time>
      </trkpt>
      <trkpt lat="44.2449670" lon="7.4866060">
        <ele>1266.6</ele>
        <time>2017-07-23T06:51:53Z</time>
      </trkpt>
      <trkpt lat="44.2449230" lon="7.4865440">
        <ele>1265.8</ele>
        <time>2017-07-23T06:51:54Z</time>
      </trkpt>
      <trkpt lat="44.2448880" lon="7.4864740">
        <ele>1265.0</ele>
        <time>2017-07-23T06:51:55Z</time>
      </trkpt>
      <trkpt lat="44.2448050" lon="7.4861610">
        <ele>1263.4</ele>
        <time>2017-07-23T06:51:57Z</time>
      </trkpt>
      <trkpt lat="44.2447700" lon="7.4858160">
        <ele>1261.8</ele>
        <time>2017-07-23T06:51:59Z</time>
      </trkpt>
      <trkpt lat="44.2447780" lon="7.4856650">
        <ele>1261.0</ele>
        <time>2017-07-23T06:52:00Z</time>
      </trkpt>
      <trkpt lat="44.2448020" lon="7.4855160">
        <ele>1260.0</ele>
        <time>2017-07-23T06:52:01Z</time>
      </trkpt>
      <trkpt lat="44.2448720" lon="7.4852420">
        <ele>1258.2</ele>
        <time>2017-07-23T06:52:03Z</time>
      </trkpt>
      <trkpt lat="44.2449000" lon="7.4851350">
        <ele>1257.4</ele>
        <time>2017-07-23T06:52:04Z</time>
      </trkpt>
      <trkpt lat="44.2449230" lon="7.4850550">
        <ele>1256.4</ele>
        <time>2017-07-23T06:52:05Z</time>
      </trkpt>
      <trkpt lat="44.2449630" lon="7.4849420">
        <ele>1253.6</ele>
        <time>2017-07-23T06:52:07Z</time>
      </trkpt>
      <trkpt lat="44.2449940" lon="7.4849360">
        <ele>1252.4</ele>
        <time>2017-07-23T06:52:08Z</time>
      </trkpt>
      <trkpt lat="44.2450220" lon="7.4849610">
        <ele>1251.2</ele>
        <time>2017-07-23T06:52:09Z</time>
      </trkpt>
      <trkpt lat="44.2450490" lon="7.4850590">
        <ele>1249.4</ele>
        <time>2017-07-23T06:52:11Z</time>
      </trkpt>
      <trkpt lat="44.2450530" lon="7.4851340">
        <ele>1248.6</ele>
        <time>2017-07-23T06:52:12Z</time>
      </trkpt>
      <trkpt lat="44.2450580" lon="7.4852160">
        <ele>1247.4</ele>
        <time>2017-07-23T06:52:13Z</time>
      </trkpt>
      <trkpt lat="44.2450790" lon="7.4853050">
        <ele>1246.4</ele>
        <time>2017-07-23T06:52:14Z</time>
      </trkpt>
      <trkpt lat="44.2451100" lon="7.4853950">
        <ele>1245.4</ele>
        <time>2017-07-23T06:52:15Z</time>
      </trkpt>
      <trkpt lat="44.2451790" lon="7.4856030">
        <ele>1244.2</ele>
        <time>2017-07-23T06:52:17Z</time>
      </trkpt>
      <trkpt lat="44.2452290" lon="7.4856960">
        <ele>1243.4</ele>
        <time>2017-07-23T06:52:18Z</time>
      </trkpt>
      <trkpt lat="44.2452900" lon="7.4857710">
        <ele>1242.6</ele>
        <time>2017-07-23T06:52:19Z</time>
      </trkpt>
      <trkpt lat="44.2454000" lon="7.4858230">
        <ele>1241.4</ele>
        <time>2017-07-23T06:52:21Z</time>
      </trkpt>
      <trkpt lat="44.2454650" lon="7.4857980">
        <ele>1241.2</ele>
        <time>2017-07-23T06:52:22Z</time>
      </trkpt>
      <trkpt lat="44.2456210" lon="7.4857130">
        <ele>1240.0</ele>
        <time>2017-07-23T06:52:24Z</time>
      </trkpt>
      <trkpt lat="44.2457020" lon="7.4856540">
        <ele>1239.4</ele>
        <time>2017-07-23T06:52:25Z</time>
      </trkpt>
      <trkpt lat="44.2457790" lon="7.4855780">
        <ele>1238.4</ele>
        <time>2017-07-23T06:52:26Z</time>
      </trkpt>
      <trkpt lat="44.2459270" lon="7.4853800">
        <ele>1237.4</ele>
        <time>2017-07-23T06:52:28Z</time>
      </trkpt>
      <trkpt lat="44.2459920" lon="7.4852720">
        <ele>1237.0</ele>
        <time>2017-07-23T06:52:29Z</time>
      </trkpt>
      <trkpt lat="44.2460670" lon="7.4851670">
        <ele>1236.4</ele>
        <time>2017-07-23T06:52:30Z</time>
      </trkpt>
      <trkpt lat="44.2461520" lon="7.4850640">
        <ele>1235.0</ele>
        <time>2017-07-23T06:52:31Z</time>
      </trkpt>
      <trkpt lat="44.2462490" lon="7.4849610">
        <ele>1234.4</ele>
        <time>2017-07-23T06:52:32Z</time>
      </trkpt>
      <trkpt lat="44.2463530" lon="7.4848690">
        <ele>1233.8</ele>
        <time>2017-07-23T06:52:33Z</time>
      </trkpt>
      <trkpt lat="44.2465550" lon="7.4846570">
        <ele>1232.0</ele>
        <time>2017-07-23T06:52:35Z</time>
      </trkpt>
      <trkpt lat="44.2466520" lon="7.4845440">
        <ele>1231.2</ele>
        <time>2017-07-23T06:52:36Z</time>
      </trkpt>
      <trkpt lat="44.2467320" lon="7.4844120">
        <ele>1230.6</ele>
        <time>2017-07-23T06:52:37Z</time>
      </trkpt>
      <trkpt lat="44.2468840" lon="7.4841420">
        <ele>1228.8</ele>
        <time>2017-07-23T06:52:39Z</time>
      </trkpt>
      <trkpt lat="44.2469510" lon="7.4840190">
        <ele>1228.0</ele>
        <time>2017-07-23T06:52:40Z</time>
      </trkpt>
      <trkpt lat="44.2470190" lon="7.4839020">
        <ele>1227.0</ele>
        <time>2017-07-23T06:52:41Z</time>
      </trkpt>
      <trkpt lat="44.2471490" lon="7.4836610">
        <ele>1225.4</ele>
        <time>2017-07-23T06:52:43Z</time>
      </trkpt>
      <trkpt lat="44.2472250" lon="7.4835390">
        <ele>1224.6</ele>
        <time>2017-07-23T06:52:44Z</time>
      </trkpt>
      <trkpt lat="44.2473000" lon="7.4834140">
        <ele>1223.6</ele>
        <time>2017-07-23T06:52:45Z</time>
      </trkpt>
      <trkpt lat="44.2474580" lon="7.4831380">
        <ele>1221.8</ele>
        <time>2017-07-23T06:52:47Z</time>
      </trkpt>
      <trkpt lat="44.2475440" lon="7.4830060">
        <ele>1220.6</ele>
        <time>2017-07-23T06:52:48Z</time>
      </trkpt>
      <trkpt lat="44.2476400" lon="7.4828770">
        <ele>1219.2</ele>
        <time>2017-07-23T06:52:49Z</time>
      </trkpt>
      <trkpt lat="44.2477460" lon="7.4827500">
        <ele>1218.0</ele>
        <time>2017-07-23T06:52:50Z</time>
      </trkpt>
      <trkpt lat="44.2479390" lon="7.4825350">
        <ele>1216.0</ele>
        <time>2017-07-23T06:52:52Z</time>
      </trkpt>
      <trkpt lat="44.2480370" lon="7.4824470">
        <ele>1215.0</ele>
        <time>2017-07-23T06:52:53Z</time>
      </trkpt>
      <trkpt lat="44.2481350" lon="7.4823650">
        <ele>1213.8</ele>
        <time>2017-07-23T06:52:54Z</time>
      </trkpt>
      <trkpt lat="44.2482320" lon="7.4822880">
        <ele>1211.6</ele>
        <time>2017-07-23T06:52:55Z</time>
      </trkpt>
      <trkpt lat="44.2483340" lon="7.4822420">
        <ele>1210.6</ele>
        <time>2017-07-23T06:52:56Z</time>
      </trkpt>
      <trkpt lat="44.2484260" lon="7.4822150">
        <ele>1209.8</ele>
        <time>2017-07-23T06:52:57Z</time>
      </trkpt>
      <trkpt lat="44.2487160" lon="7.4822670">
        <ele>1208.0</ele>
        <time>2017-07-23T06:52:59Z</time>
      </trkpt>
      <trkpt lat="44.2488390" lon="7.4822450">
        <ele>1206.8</ele>
        <time>2017-07-23T06:53:00Z</time>
      </trkpt>
      <trkpt lat="44.2489720" lon="7.4822250">
        <ele>1205.6</ele>
        <time>2017-07-23T06:53:01Z</time>
      </trkpt>
      <trkpt lat="44.2491070" lon="7.4822020">
        <ele>1204.2</ele>
        <time>2017-07-23T06:53:02Z</time>
      </trkpt>
      <trkpt lat="44.2492270" lon="7.4821960">
        <ele>1203.2</ele>
        <time>2017-07-23T06:53:03Z</time>
      </trkpt>
      <trkpt lat="44.2493460" lon="7.4821930">
        <ele>1202.0</ele>
        <time>2017-07-23T06:53:04Z</time>
      </trkpt>
      <trkpt lat="44.2495740" lon="7.4821900">
        <ele>1200.4</ele>
        <time>2017-07-23T06:53:06Z</time>
      </trkpt>
      <trkpt lat="44.2496790" lon="7.4821900">
        <ele>1199.4</ele>
        <time>2017-07-23T06:53:07Z</time>
      </trkpt>
      <trkpt lat="44.2497800" lon="7.4822140">
        <ele>1198.4</ele>
        <time>2017-07-23T06:53:08Z</time>
      </trkpt>
      <trkpt lat="44.2498760" lon="7.4822490">
        <ele>1197.6</ele>
        <time>2017-07-23T06:53:09Z</time>
      </trkpt>
      <trkpt lat="44.2499530" lon="7.4822560">
        <ele>1196.6</ele>
        <time>2017-07-23T06:53:10Z</time>
      </trkpt>
      <trkpt lat="44.2500300" lon="7.4822430">
        <ele>1195.8</ele>
        <time>2017-07-23T06:53:11Z</time>
      </trkpt>
      <trkpt lat="44.2501660" lon="7.4822980">
        <ele>1194.2</ele>
        <time>2017-07-23T06:53:13Z</time>
      </trkpt>
      <trkpt lat="44.2502260" lon="7.4823430">
        <ele>1193.2</ele>
        <time>2017-07-23T06:53:14Z</time>
      </trkpt>
      <trkpt lat="44.2502880" lon="7.4824140">
        <ele>1192.4</ele>
        <time>2017-07-23T06:53:15Z</time>
      </trkpt>
      <trkpt lat="44.2503820" lon="7.4825450">
        <ele>1190.6</ele>
        <time>2017-07-23T06:53:17Z</time>
      </trkpt>
      <trkpt lat="44.2504050" lon="7.4826510">
        <ele>1189.6</ele>
        <time>2017-07-23T06:53:18Z</time>
      </trkpt>
      <trkpt lat="44.2504210" lon="7.4827660">
        <ele>1187.8</ele>
        <time>2017-07-23T06:53:19Z</time>
      </trkpt>
      <trkpt lat="44.2504520" lon="7.4828910">
        <ele>1186.8</ele>
        <time>2017-07-23T06:53:20Z</time>
      </trkpt>
      <trkpt lat="44.2504810" lon="7.4830040">
        <ele>1185.8</ele>
        <time>2017-07-23T06:53:21Z</time>
      </trkpt>
      <trkpt lat="44.2505550" lon="7.4832420">
        <ele>1184.2</ele>
        <time>2017-07-23T06:53:23Z</time>
      </trkpt>
      <trkpt lat="44.2506650" lon="7.4834770">
        <ele>1182.8</ele>
        <time>2017-07-23T06:53:25Z</time>
      </trkpt>
      <trkpt lat="44.2507520" lon="7.4837070">
        <ele>1181.2</ele>
        <time>2017-07-23T06:53:27Z</time>
      </trkpt>
      <trkpt lat="44.2507900" lon="7.4838310">
        <ele>1180.0</ele>
        <time>2017-07-23T06:53:28Z</time>
      </trkpt>
      <trkpt lat="44.2508250" lon="7.4839600">
        <ele>1179.0</ele>
        <time>2017-07-23T06:53:29Z</time>
      </trkpt>
      <trkpt lat="44.2508400" lon="7.4840990">
        <ele>1177.8</ele>
        <time>2017-07-23T06:53:30Z</time>
      </trkpt>
      <trkpt lat="44.2508740" lon="7.4842280">
        <ele>1176.8</ele>
        <time>2017-07-23T06:53:31Z</time>
      </trkpt>
      <trkpt lat="44.2509650" lon="7.4844670">
        <ele>1175.6</ele>
        <time>2017-07-23T06:53:33Z</time>
      </trkpt>
      <trkpt lat="44.2510630" lon="7.4846930">
        <ele>1173.8</ele>
        <time>2017-07-23T06:53:35Z</time>
      </trkpt>
      <trkpt lat="44.2511750" lon="7.4849070">
        <ele>1172.0</ele>
        <time>2017-07-23T06:53:37Z</time>
      </trkpt>
      <trkpt lat="44.2512270" lon="7.4851060">
        <ele>1170.8</ele>
        <time>2017-07-23T06:53:39Z</time>
      </trkpt>
      <trkpt lat="44.2512340" lon="7.4851980">
        <ele>1169.2</ele>
        <time>2017-07-23T06:53:41Z</time>
      </trkpt>
      <trkpt lat="44.2512580" lon="7.4852020">
        <ele>1168.4</ele>
        <time>2017-07-23T06:53:42Z</time>
      </trkpt>
      <trkpt lat="44.2513160" lon="7.4851770">
        <ele>1167.2</ele>
        <time>2017-07-23T06:53:43Z</time>
      </trkpt>
      <trkpt lat="44.2514550" lon="7.4851110">
        <ele>1166.2</ele>
        <time>2017-07-23T06:53:45Z</time>
      </trkpt>
      <trkpt lat="44.2516160" lon="7.4850280">
        <ele>1165.2</ele>
        <time>2017-07-23T06:53:47Z</time>
      </trkpt>
      <trkpt lat="44.2517020" lon="7.4849850">
        <ele>1164.8</ele>
        <time>2017-07-23T06:53:48Z</time>
      </trkpt>
      <trkpt lat="44.2518580" lon="7.4848750">
        <ele>1163.8</ele>
        <time>2017-07-23T06:53:50Z</time>
      </trkpt>
      <trkpt lat="44.2519280" lon="7.4848400">
        <ele>1163.4</ele>
        <time>2017-07-23T06:53:51Z</time>
      </trkpt>
      <trkpt lat="44.2520520" lon="7.4847990">
        <ele>1162.6</ele>
        <time>2017-07-23T06:53:53Z</time>
      </trkpt>
      <trkpt lat="44.2521040" lon="7.4848170">
        <ele>1162.2</ele>
        <time>2017-07-23T06:53:54Z</time>
      </trkpt>
      <trkpt lat="44.2521490" lon="7.4848340">
        <ele>1161.8</ele>
        <time>2017-07-23T06:53:55Z</time>
      </trkpt>
      <trkpt lat="44.2522000" lon="7.4848460">
        <ele>1161.2</ele>
        <time>2017-07-23T06:53:56Z</time>
      </trkpt>
      <trkpt lat="44.2522880" lon="7.4848130">
        <ele>1160.6</ele>
        <time>2017-07-23T06:53:58Z</time>
      </trkpt>
      <trkpt lat="44.2523760" lon="7.4847300">
        <ele>1160.4</ele>
        <time>2017-07-23T06:54:00Z</time>
      </trkpt>
      <trkpt lat="44.2524010" lon="7.4846400">
        <ele>1160.0</ele>
        <time>2017-07-23T06:54:01Z</time>
      </trkpt>
      <trkpt lat="44.2524190" lon="7.4845320">
        <ele>1159.8</ele>
        <time>2017-07-23T06:54:02Z</time>
      </trkpt>
      <trkpt lat="44.2525850" lon="7.4841410">
        <ele>1159.0</ele>
        <time>2017-07-23T06:54:06Z</time>
      </trkpt>
      <trkpt lat="44.2526470" lon="7.4840540">
        <ele>1158.6</ele>
        <time>2017-07-23T06:54:07Z</time>
      </trkpt>
      <trkpt lat="44.2528690" lon="7.4838970">
        <ele>1158.0</ele>
        <time>2017-07-23T06:54:10Z</time>
      </trkpt>
      <trkpt lat="44.2529480" lon="7.4838840">
        <ele>1157.8</ele>
        <time>2017-07-23T06:54:11Z</time>
      </trkpt>
      <trkpt lat="44.2530220" lon="7.4838750">
        <ele>1157.6</ele>
        <time>2017-07-23T06:54:12Z</time>
      </trkpt>
      <trkpt lat="44.2531000" lon="7.4838810">
        <ele>1157.2</ele>
        <time>2017-07-23T06:54:13Z</time>
      </trkpt>
      <trkpt lat="44.2532500" lon="7.4838450">
        <ele>1156.6</ele>
        <time>2017-07-23T06:54:15Z</time>
      </trkpt>
      <trkpt lat="44.2533120" lon="7.4837890">
        <ele>1156.4</ele>
        <time>2017-07-23T06:54:16Z</time>
      </trkpt>
      <trkpt lat="44.2534360" lon="7.4835820">
        <ele>1155.6</ele>
        <time>2017-07-23T06:54:19Z</time>
      </trkpt>
      <trkpt lat="44.2534680" lon="7.4835020">
        <ele>1155.4</ele>
        <time>2017-07-23T06:54:20Z</time>
      </trkpt>
      <trkpt lat="44.2535080" lon="7.4833220">
        <ele>1155.0</ele>
        <time>2017-07-23T06:54:22Z</time>
      </trkpt>
      <trkpt lat="44.2535080" lon="7.4832100">
        <ele>1154.6</ele>
        <time>2017-07-23T06:54:23Z</time>
      </trkpt>
      <trkpt lat="44.2535050" lon="7.4830950">
        <ele>1154.4</ele>
        <time>2017-07-23T06:54:24Z</time>
      </trkpt>
      <trkpt lat="44.2535320" lon="7.4828730">
        <ele>1153.8</ele>
        <time>2017-07-23T06:54:26Z</time>
      </trkpt>
      <trkpt lat="44.2535850" lon="7.4826470">
        <ele>1153.2</ele>
        <time>2017-07-23T06:54:28Z</time>
      </trkpt>
      <trkpt lat="44.2536870" lon="7.4823660">
        <ele>1152.2</ele>
        <time>2017-07-23T06:54:31Z</time>
      </trkpt>
      <trkpt lat="44.2537430" lon="7.4823120">
        <ele>1151.6</ele>
        <time>2017-07-23T06:54:32Z</time>
      </trkpt>
      <trkpt lat="44.2538000" lon="7.4822810">
        <ele>1151.2</ele>
        <time>2017-07-23T06:54:33Z</time>
      </trkpt>
      <trkpt lat="44.2539460" lon="7.4822390">
        <ele>1150.6</ele>
        <time>2017-07-23T06:54:35Z</time>
      </trkpt>
      <trkpt lat="44.2540300" lon="7.4822230">
        <ele>1150.2</ele>
        <time>2017-07-23T06:54:36Z</time>
      </trkpt>
      <trkpt lat="44.2541660" lon="7.4821500">
        <ele>1148.8</ele>
        <time>2017-07-23T06:54:38Z</time>
      </trkpt>
      <trkpt lat="44.2542190" lon="7.4820930">
        <ele>1148.2</ele>
        <time>2017-07-23T06:54:39Z</time>
      </trkpt>
      <trkpt lat="44.2542620" lon="7.4820200">
        <ele>1147.8</ele>
        <time>2017-07-23T06:54:40Z</time>
      </trkpt>
      <trkpt lat="44.2543460" lon="7.4818450">
        <ele>1147.0</ele>
        <time>2017-07-23T06:54:42Z</time>
      </trkpt>
      <trkpt lat="44.2543810" lon="7.4817530">
        <ele>1146.8</ele>
        <time>2017-07-23T06:54:43Z</time>
      </trkpt>
      <trkpt lat="44.2544170" lon="7.4816620">
        <ele>1146.6</ele>
        <time>2017-07-23T06:54:44Z</time>
      </trkpt>
      <trkpt lat="44.2544770" lon="7.4814310">
        <ele>1145.8</ele>
        <time>2017-07-23T06:54:47Z</time>
      </trkpt>
      <trkpt lat="44.2544080" lon="7.4811510">
        <ele>1145.6</ele>
        <time>2017-07-23T06:54:52Z</time>
      </trkpt>
      <trkpt lat="44.2543770" lon="7.4810990">
        <ele>1145.8</ele>
        <time>2017-07-23T06:54:53Z</time>
      </trkpt>
      <trkpt lat="44.2542830" lon="7.4809450">
        <ele>1145.8</ele>
        <time>2017-07-23T06:54:56Z</time>
      </trkpt>
      <trkpt lat="44.2542170" lon="7.4808300">
        <ele>1146.0</ele>
        <time>2017-07-23T06:54:59Z</time>
      </trkpt>
      <trkpt lat="44.2542850" lon="7.4806510">
        <ele>1146.2</ele>
        <time>2017-07-23T06:55:03Z</time>
      </trkpt>
      <trkpt lat="44.2542890" lon="7.4805900">
        <ele>1146.2</ele>
        <time>2017-07-23T06:55:04Z</time>
      </trkpt>
      <trkpt lat="44.2543120" lon="7.4804750">
        <ele>1146.6</ele>
        <time>2017-07-23T06:55:06Z</time>
      </trkpt>
      <trkpt lat="44.2542890" lon="7.4803890">
        <ele>1146.8</ele>
        <time>2017-07-23T06:55:07Z</time>
      </trkpt>
      <trkpt lat="44.2543000" lon="7.4802520">
        <ele>1146.8</ele>
        <time>2017-07-23T06:55:09Z</time>
      </trkpt>
      <trkpt lat="44.2543060" lon="7.4801840">
        <ele>1147.0</ele>
        <time>2017-07-23T06:55:10Z</time>
      </trkpt>
      <trkpt lat="44.2542890" lon="7.4801040">
        <ele>1147.0</ele>
        <time>2017-07-23T06:55:11Z</time>
      </trkpt>
      <trkpt lat="44.2542290" lon="7.4798340">
        <ele>1147.2</ele>
        <time>2017-07-23T06:55:14Z</time>
      </trkpt>
      <trkpt lat="44.2542220" lon="7.4797300">
        <ele>1147.2</ele>
        <time>2017-07-23T06:55:15Z</time>
      </trkpt>
      <trkpt lat="44.2542090" lon="7.4794010">
        <ele>1146.8</ele>
        <time>2017-07-23T06:55:18Z</time>
      </trkpt>
      <trkpt lat="44.2543280" lon="7.4791800">
        <ele>1145.6</ele>
        <time>2017-07-23T06:55:21Z</time>
      </trkpt>
      <trkpt lat="44.2545130" lon="7.4790190">
        <ele>1144.0</ele>
        <time>2017-07-23T06:55:24Z</time>
      </trkpt>
      <trkpt lat="44.2545610" lon="7.4789550">
        <ele>1143.6</ele>
        <time>2017-07-23T06:55:25Z</time>
      </trkpt>
      <trkpt lat="44.2545710" lon="7.4788780">
        <ele>1143.0</ele>
        <time>2017-07-23T06:55:26Z</time>
      </trkpt>
      <trkpt lat="44.2545920" lon="7.4787840">
        <ele>1142.6</ele>
        <time>2017-07-23T06:55:27Z</time>
      </trkpt>
      <trkpt lat="44.2545930" lon="7.4786680">
        <ele>1142.0</ele>
        <time>2017-07-23T06:55:28Z</time>
      </trkpt>
      <trkpt lat="44.2546250" lon="7.4784080">
        <ele>1140.6</ele>
        <time>2017-07-23T06:55:30Z</time>
      </trkpt>
      <trkpt lat="44.2546620" lon="7.4780840">
        <ele>1139.4</ele>
        <time>2017-07-23T06:55:32Z</time>
      </trkpt>
      <trkpt lat="44.2547630" lon="7.4777380">
        <ele>1137.6</ele>
        <time>2017-07-23T06:55:34Z</time>
      </trkpt>
      <trkpt lat="44.2549010" lon="7.4774160">
        <ele>1135.8</ele>
        <time>2017-07-23T06:55:36Z</time>
      </trkpt>
      <trkpt lat="44.2549850" lon="7.4772750">
        <ele>1134.8</ele>
        <time>2017-07-23T06:55:37Z</time>
      </trkpt>
      <trkpt lat="44.2550790" lon="7.4771360">
        <ele>1133.6</ele>
        <time>2017-07-23T06:55:38Z</time>
      </trkpt>
      <trkpt lat="44.2551760" lon="7.4770090">
        <ele>1132.4</ele>
        <time>2017-07-23T06:55:39Z</time>
      </trkpt>
      <trkpt lat="44.2552620" lon="7.4768870">
        <ele>1131.0</ele>
        <time>2017-07-23T06:55:40Z</time>
      </trkpt>
      <trkpt lat="44.2553590" lon="7.4767940">
        <ele>1130.0</ele>
        <time>2017-07-23T06:55:41Z</time>
      </trkpt>
      <trkpt lat="44.2554550" lon="7.4766750">
        <ele>1128.8</ele>
        <time>2017-07-23T06:55:42Z</time>
      </trkpt>
      <trkpt lat="44.2555320" lon="7.4765480">
        <ele>1126.4</ele>
        <time>2017-07-23T06:55:43Z</time>
      </trkpt>
      <trkpt lat="44.2556010" lon="7.4764280">
        <ele>1125.2</ele>
        <time>2017-07-23T06:55:44Z</time>
      </trkpt>
      <trkpt lat="44.2556660" lon="7.4763280">
        <ele>1123.8</ele>
        <time>2017-07-23T06:55:45Z</time>
      </trkpt>
      <trkpt lat="44.2557280" lon="7.4762510">
        <ele>1122.4</ele>
        <time>2017-07-23T06:55:46Z</time>
      </trkpt>
      <trkpt lat="44.2557910" lon="7.4761910">
        <ele>1121.0</ele>
        <time>2017-07-23T06:55:47Z</time>
      </trkpt>
      <trkpt lat="44.2558870" lon="7.4762190">
        <ele>1119.8</ele>
        <time>2017-07-23T06:55:48Z</time>
      </trkpt>
      <trkpt lat="44.2559870" lon="7.4763070">
        <ele>1118.6</ele>
        <time>2017-07-23T06:55:49Z</time>
      </trkpt>
      <trkpt lat="44.2560730" lon="7.4763510">
        <ele>1117.2</ele>
        <time>2017-07-23T06:55:50Z</time>
      </trkpt>
      <trkpt lat="44.2561340" lon="7.4763500">
        <ele>1115.8</ele>
        <time>2017-07-23T06:55:51Z</time>
      </trkpt>
      <trkpt lat="44.2561800" lon="7.4763300">
        <ele>1114.8</ele>
        <time>2017-07-23T06:55:52Z</time>
      </trkpt>
      <trkpt lat="44.2562160" lon="7.4763260">
        <ele>1113.6</ele>
        <time>2017-07-23T06:55:53Z</time>
      </trkpt>
      <trkpt lat="44.2562150" lon="7.4763170">
        <ele>1112.4</ele>
        <time>2017-07-23T06:55:54Z</time>
      </trkpt>
      <trkpt lat="44.2561700" lon="7.4762980">
        <ele>1110.0</ele>
        <time>2017-07-23T06:55:56Z</time>
      </trkpt>
      <trkpt lat="44.2561420" lon="7.4762800">
        <ele>1109.0</ele>
        <time>2017-07-23T06:55:57Z</time>
      </trkpt>
      <trkpt lat="44.2561020" lon="7.4762430">
        <ele>1108.0</ele>
        <time>2017-07-23T06:55:58Z</time>
      </trkpt>
      <trkpt lat="44.2560520" lon="7.4761920">
        <ele>1106.8</ele>
        <time>2017-07-23T06:55:59Z</time>
      </trkpt>
      <trkpt lat="44.2559950" lon="7.4761350">
        <ele>1105.8</ele>
        <time>2017-07-23T06:56:00Z</time>
      </trkpt>
      <trkpt lat="44.2559310" lon="7.4760680">
        <ele>1104.6</ele>
        <time>2017-07-23T06:56:01Z</time>
      </trkpt>
      <trkpt lat="44.2558450" lon="7.4759770">
        <ele>1103.4</ele>
        <time>2017-07-23T06:56:02Z</time>
      </trkpt>
      <trkpt lat="44.2557000" lon="7.4758200">
        <ele>1102.4</ele>
        <time>2017-07-23T06:56:03Z</time>
      </trkpt>
      <trkpt lat="44.2554510" lon="7.4755250">
        <ele>1100.6</ele>
        <time>2017-07-23T06:56:05Z</time>
      </trkpt>
      <trkpt lat="44.2553620" lon="7.4754160">
        <ele>1099.4</ele>
        <time>2017-07-23T06:56:06Z</time>
      </trkpt>
      <trkpt lat="44.2552930" lon="7.4753130">
        <ele>1097.4</ele>
        <time>2017-07-23T06:56:07Z</time>
      </trkpt>
      <trkpt lat="44.2552590" lon="7.4752170">
        <ele>1096.6</ele>
        <time>2017-07-23T06:56:08Z</time>
      </trkpt>
      <trkpt lat="44.2552520" lon="7.4751210">
        <ele>1095.8</ele>
        <time>2017-07-23T06:56:09Z</time>
      </trkpt>
      <trkpt lat="44.2552770" lon="7.4750480">
        <ele>1094.8</ele>
        <time>2017-07-23T06:56:10Z</time>
      </trkpt>
      <trkpt lat="44.2553020" lon="7.4749860">
        <ele>1094.0</ele>
        <time>2017-07-23T06:56:11Z</time>
      </trkpt>
      <trkpt lat="44.2553560" lon="7.4749440">
        <ele>1092.2</ele>
        <time>2017-07-23T06:56:13Z</time>
      </trkpt>
      <trkpt lat="44.2554220" lon="7.4749990">
        <ele>1090.8</ele>
        <time>2017-07-23T06:56:15Z</time>
      </trkpt>
      <trkpt lat="44.2555460" lon="7.4751900">
        <ele>1089.6</ele>
        <time>2017-07-23T06:56:16Z</time>
      </trkpt>
      <trkpt lat="44.2556700" lon="7.4753820">
        <ele>1088.8</ele>
        <time>2017-07-23T06:56:17Z</time>
      </trkpt>
      <trkpt lat="44.2557620" lon="7.4755090">
        <ele>1088.0</ele>
        <time>2017-07-23T06:56:18Z</time>
      </trkpt>
      <trkpt lat="44.2559270" lon="7.4757130">
        <ele>1086.4</ele>
        <time>2017-07-23T06:56:20Z</time>
      </trkpt>
      <trkpt lat="44.2560950" lon="7.4759020">
        <ele>1084.8</ele>
        <time>2017-07-23T06:56:22Z</time>
      </trkpt>
      <trkpt lat="44.2562730" lon="7.4760510">
        <ele>1083.6</ele>
        <time>2017-07-23T06:56:24Z</time>
      </trkpt>
      <trkpt lat="44.2563540" lon="7.4760910">
        <ele>1083.0</ele>
        <time>2017-07-23T06:56:25Z</time>
      </trkpt>
      <trkpt lat="44.2564270" lon="7.4761090">
        <ele>1082.2</ele>
        <time>2017-07-23T06:56:26Z</time>
      </trkpt>
      <trkpt lat="44.2566080" lon="7.4761440">
        <ele>1080.4</ele>
        <time>2017-07-23T06:56:28Z</time>
      </trkpt>
      <trkpt lat="44.2567100" lon="7.4761250">
        <ele>1079.8</ele>
        <time>2017-07-23T06:56:29Z</time>
      </trkpt>
      <trkpt lat="44.2568130" lon="7.4760310">
        <ele>1079.0</ele>
        <time>2017-07-23T06:56:30Z</time>
      </trkpt>
      <trkpt lat="44.2569260" lon="7.4759090">
        <ele>1077.4</ele>
        <time>2017-07-23T06:56:31Z</time>
      </trkpt>
      <trkpt lat="44.2570920" lon="7.4756900">
        <ele>1075.8</ele>
        <time>2017-07-23T06:56:33Z</time>
      </trkpt>
      <trkpt lat="44.2571830" lon="7.4755870">
        <ele>1075.0</ele>
        <time>2017-07-23T06:56:34Z</time>
      </trkpt>
      <trkpt lat="44.2572570" lon="7.4755170">
        <ele>1073.8</ele>
        <time>2017-07-23T06:56:35Z</time>
      </trkpt>
      <trkpt lat="44.2573950" lon="7.4754810">
        <ele>1072.0</ele>
        <time>2017-07-23T06:56:37Z</time>
      </trkpt>
      <trkpt lat="44.2575990" lon="7.4755370">
        <ele>1069.8</ele>
        <time>2017-07-23T06:56:39Z</time>
      </trkpt>
      <trkpt lat="44.2577040" lon="7.4755580">
        <ele>1068.8</ele>
        <time>2017-07-23T06:56:40Z</time>
      </trkpt>
      <trkpt lat="44.2578010" lon="7.4755370">
        <ele>1067.6</ele>
        <time>2017-07-23T06:56:41Z</time>
      </trkpt>
      <trkpt lat="44.2579000" lon="7.4754770">
        <ele>1066.6</ele>
        <time>2017-07-23T06:56:42Z</time>
      </trkpt>
      <trkpt lat="44.2580270" lon="7.4753530">
        <ele>1065.6</ele>
        <time>2017-07-23T06:56:43Z</time>
      </trkpt>
      <trkpt lat="44.2581500" lon="7.4752280">
        <ele>1064.4</ele>
        <time>2017-07-23T06:56:44Z</time>
      </trkpt>
      <trkpt lat="44.2582830" lon="7.4751090">
        <ele>1063.2</ele>
        <time>2017-07-23T06:56:45Z</time>
      </trkpt>
      <trkpt lat="44.2584130" lon="7.4750040">
        <ele>1061.8</ele>
        <time>2017-07-23T06:56:46Z</time>
      </trkpt>
      <trkpt lat="44.2585560" lon="7.4749250">
        <ele>1060.6</ele>
        <time>2017-07-23T06:56:47Z</time>
      </trkpt>
      <trkpt lat="44.2586980" lon="7.4748710">
        <ele>1059.4</ele>
        <time>2017-07-23T06:56:48Z</time>
      </trkpt>
      <trkpt lat="44.2588270" lon="7.4748030">
        <ele>1058.2</ele>
        <time>2017-07-23T06:56:49Z</time>
      </trkpt>
      <trkpt lat="44.2589450" lon="7.4747010">
        <ele>1056.8</ele>
        <time>2017-07-23T06:56:50Z</time>
      </trkpt>
      <trkpt lat="44.2590540" lon="7.4745970">
        <ele>1055.4</ele>
        <time>2017-07-23T06:56:51Z</time>
      </trkpt>
      <trkpt lat="44.2591330" lon="7.4745030">
        <ele>1054.2</ele>
        <time>2017-07-23T06:56:52Z</time>
      </trkpt>
      <trkpt lat="44.2591890" lon="7.4744590">
        <ele>1052.8</ele>
        <time>2017-07-23T06:56:53Z</time>
      </trkpt>
      <trkpt lat="44.2592340" lon="7.4744280">
        <ele>1051.4</ele>
        <time>2017-07-23T06:56:54Z</time>
      </trkpt>
      <trkpt lat="44.2592670" lon="7.4744240">
        <ele>1050.4</ele>
        <time>2017-07-23T06:56:55Z</time>
      </trkpt>
      <trkpt lat="44.2592980" lon="7.4744540">
        <ele>1048.2</ele>
        <time>2017-07-23T06:56:56Z</time>
      </trkpt>
      <trkpt lat="44.2593300" lon="7.4745150">
        <ele>1047.2</ele>
        <time>2017-07-23T06:56:57Z</time>
      </trkpt>
      <trkpt lat="44.2593820" lon="7.4747420">
        <ele>1045.2</ele>
        <time>2017-07-23T06:56:59Z</time>
      </trkpt>
      <trkpt lat="44.2594490" lon="7.4749920">
        <ele>1043.0</ele>
        <time>2017-07-23T06:57:01Z</time>
      </trkpt>
      <trkpt lat="44.2594900" lon="7.4751190">
        <ele>1042.0</ele>
        <time>2017-07-23T06:57:02Z</time>
      </trkpt>
      <trkpt lat="44.2595280" lon="7.4752440">
        <ele>1040.8</ele>
        <time>2017-07-23T06:57:03Z</time>
      </trkpt>
      <trkpt lat="44.2595600" lon="7.4753640">
        <ele>1039.8</ele>
        <time>2017-07-23T06:57:04Z</time>
      </trkpt>
      <trkpt lat="44.2596030" lon="7.4755610">
        <ele>1037.8</ele>
        <time>2017-07-23T06:57:06Z</time>
      </trkpt>
      <trkpt lat="44.2596260" lon="7.4756180">
        <ele>1037.0</ele>
        <time>2017-07-23T06:57:07Z</time>
      </trkpt>
      <trkpt lat="44.2596610" lon="7.4756770">
        <ele>1036.2</ele>
        <time>2017-07-23T06:57:08Z</time>
      </trkpt>
      <trkpt lat="44.2597340" lon="7.4757500">
        <ele>1034.4</ele>
        <time>2017-07-23T06:57:10Z</time>
      </trkpt>
      <trkpt lat="44.2597770" lon="7.4757500">
        <ele>1033.4</ele>
        <time>2017-07-23T06:57:11Z</time>
      </trkpt>
      <trkpt lat="44.2598310" lon="7.4757150">
        <ele>1032.6</ele>
        <time>2017-07-23T06:57:12Z</time>
      </trkpt>
      <trkpt lat="44.2599350" lon="7.4756120">
        <ele>1031.6</ele>
        <time>2017-07-23T06:57:13Z</time>
      </trkpt>
      <trkpt lat="44.2600330" lon="7.4755140">
        <ele>1030.8</ele>
        <time>2017-07-23T06:57:14Z</time>
      </trkpt>
      <trkpt lat="44.2601390" lon="7.4754170">
        <ele>1029.8</ele>
        <time>2017-07-23T06:57:15Z</time>
      </trkpt>
      <trkpt lat="44.2603640" lon="7.4752070">
        <ele>1028.0</ele>
        <time>2017-07-23T06:57:17Z</time>
      </trkpt>
      <trkpt lat="44.2605490" lon="7.4750420">
        <ele>1026.0</ele>
        <time>2017-07-23T06:57:19Z</time>
      </trkpt>
      <trkpt lat="44.2606180" lon="7.4749990">
        <ele>1023.8</ele>
        <time>2017-07-23T06:57:20Z</time>
      </trkpt>
      <trkpt lat="44.2607680" lon="7.4750030">
        <ele>1022.0</ele>
        <time>2017-07-23T06:57:22Z</time>
      </trkpt>
      <trkpt lat="44.2608780" lon="7.4752030">
        <ele>1020.0</ele>
        <time>2017-07-23T06:57:24Z</time>
      </trkpt>
      <trkpt lat="44.2609760" lon="7.4754090">
        <ele>1018.4</ele>
        <time>2017-07-23T06:57:26Z</time>
      </trkpt>
      <trkpt lat="44.2609980" lon="7.4754950">
        <ele>1017.6</ele>
        <time>2017-07-23T06:57:27Z</time>
      </trkpt>
      <trkpt lat="44.2610580" lon="7.4755240">
        <ele>1017.0</ele>
        <time>2017-07-23T06:57:28Z</time>
      </trkpt>
      <trkpt lat="44.2611880" lon="7.4754910">
        <ele>1015.8</ele>
        <time>2017-07-23T06:57:30Z</time>
      </trkpt>
      <trkpt lat="44.2613040" lon="7.4754040">
        <ele>1014.6</ele>
        <time>2017-07-23T06:57:32Z</time>
      </trkpt>
      <trkpt lat="44.2614860" lon="7.4752570">
        <ele>1013.4</ele>
        <time>2017-07-23T06:57:35Z</time>
      </trkpt>
      <trkpt lat="44.2615170" lon="7.4751430">
        <ele>1013.2</ele>
        <time>2017-07-23T06:57:36Z</time>
      </trkpt>
      <trkpt lat="44.2615390" lon="7.4750320">
        <ele>1012.8</ele>
        <time>2017-07-23T06:57:37Z</time>
      </trkpt>
      <trkpt lat="44.2616000" lon="7.4748510">
        <ele>1012.2</ele>
        <time>2017-07-23T06:57:39Z</time>
      </trkpt>
      <trkpt lat="44.2616920" lon="7.4746840">
        <ele>1011.6</ele>
        <time>2017-07-23T06:57:41Z</time>
      </trkpt>
      <trkpt lat="44.2617330" lon="7.4746080">
        <ele>1011.4</ele>
        <time>2017-07-23T06:57:42Z</time>
      </trkpt>
      <trkpt lat="44.2617670" lon="7.4745390">
        <ele>1011.2</ele>
        <time>2017-07-23T06:57:43Z</time>
      </trkpt>
      <trkpt lat="44.2618210" lon="7.4743970">
        <ele>1010.4</ele>
        <time>2017-07-23T06:57:45Z</time>
      </trkpt>
      <trkpt lat="44.2618570" lon="7.4743200">
        <ele>1010.0</ele>
        <time>2017-07-23T06:57:46Z</time>
      </trkpt>
      <trkpt lat="44.2619180" lon="7.4741750">
        <ele>1009.6</ele>
        <time>2017-07-23T06:57:48Z</time>
      </trkpt>
      <trkpt lat="44.2619370" lon="7.4741200">
        <ele>1009.4</ele>
        <time>2017-07-23T06:57:49Z</time>
      </trkpt>
      <trkpt lat="44.2620060" lon="7.4741880">
        <ele>1009.0</ele>
        <time>2017-07-23T06:57:50Z</time>
      </trkpt>
      <trkpt lat="44.2620820" lon="7.4742840">
        <ele>1008.8</ele>
        <time>2017-07-23T06:57:51Z</time>
      </trkpt>
      <trkpt lat="44.2622200" lon="7.4744300">
        <ele>1008.4</ele>
        <time>2017-07-23T06:57:53Z</time>
      </trkpt>
      <trkpt lat="44.2623720" lon="7.4745470">
        <ele>1008.0</ele>
        <time>2017-07-23T06:57:55Z</time>
      </trkpt>
      <trkpt lat="44.2624470" lon="7.4745850">
        <ele>1008.0</ele>
        <time>2017-07-23T06:57:56Z</time>
      </trkpt>
      <trkpt lat="44.2627370" lon="7.4747420">
        <ele>1007.4</ele>
        <time>2017-07-23T06:58:00Z</time>
      </trkpt>
      <trkpt lat="44.2627890" lon="7.4747330">
        <ele>1007.0</ele>
        <time>2017-07-23T06:58:01Z</time>
      </trkpt>
      <trkpt lat="44.2628470" lon="7.4746840">
        <ele>1006.8</ele>
        <time>2017-07-23T06:58:02Z</time>
      </trkpt>
      <trkpt lat="44.2629190" lon="7.4745340">
        <ele>1006.2</ele>
        <time>2017-07-23T06:58:04Z</time>
      </trkpt>
      <trkpt lat="44.2629220" lon="7.4744310">
        <ele>1005.8</ele>
        <time>2017-07-23T06:58:05Z</time>
      </trkpt>
      <trkpt lat="44.2629300" lon="7.4743240">
        <ele>1005.6</ele>
        <time>2017-07-23T06:58:06Z</time>
      </trkpt>
      <trkpt lat="44.2630130" lon="7.4737800">
        <ele>1005.0</ele>
        <time>2017-07-23T06:58:11Z</time>
      </trkpt>
      <trkpt lat="44.2630500" lon="7.4731510">
        <ele>1005.0</ele>
        <time>2017-07-23T06:58:16Z</time>
      </trkpt>
      <trkpt lat="44.2629990" lon="7.4725760">
        <ele>1004.8</ele>
        <time>2017-07-23T06:58:21Z</time>
      </trkpt>
      <trkpt lat="44.2629080" lon="7.4725120">
        <ele>1004.6</ele>
        <time>2017-07-23T06:58:22Z</time>
      </trkpt>
      <trkpt lat="44.2627680" lon="7.4722230">
        <ele>1004.4</ele>
        <time>2017-07-23T06:58:25Z</time>
      </trkpt>
      <trkpt lat="44.2627310" lon="7.4720020">
        <ele>1003.8</ele>
        <time>2017-07-23T06:58:27Z</time>
      </trkpt>
      <trkpt lat="44.2626860" lon="7.4719050">
        <ele>1003.6</ele>
        <time>2017-07-23T06:58:28Z</time>
      </trkpt>
      <trkpt lat="44.2626420" lon="7.4718140">
        <ele>1003.4</ele>
        <time>2017-07-23T06:58:29Z</time>
      </trkpt>
      <trkpt lat="44.2624000" lon="7.4716840">
        <ele>1002.8</ele>
        <time>2017-07-23T06:58:31Z</time>
      </trkpt>
      <trkpt lat="44.2622740" lon="7.4715840">
        <ele>1002.0</ele>
        <time>2017-07-23T06:58:32Z</time>
      </trkpt>
      <trkpt lat="44.2621790" lon="7.4714740">
        <ele>1001.6</ele>
        <time>2017-07-23T06:58:33Z</time>
      </trkpt>
      <trkpt lat="44.2621520" lon="7.4712380">
        <ele>1000.6</ele>
        <time>2017-07-23T06:58:35Z</time>
      </trkpt>
      <trkpt lat="44.2621880" lon="7.4711170">
        <ele>1000.2</ele>
        <time>2017-07-23T06:58:36Z</time>
      </trkpt>
      <trkpt lat="44.2623410" lon="7.4709610">
        <ele>999.4</ele>
        <time>2017-07-23T06:58:38Z</time>
      </trkpt>
      <trkpt lat="44.2625740" lon="7.4708820">
        <ele>998.0</ele>
        <time>2017-07-23T06:58:40Z</time>
      </trkpt>
      <trkpt lat="44.2627040" lon="7.4708510">
        <ele>997.4</ele>
        <time>2017-07-23T06:58:41Z</time>
      </trkpt>
      <trkpt lat="44.2628330" lon="7.4708320">
        <ele>996.8</ele>
        <time>2017-07-23T06:58:42Z</time>
      </trkpt>
      <trkpt lat="44.2630840" lon="7.4707960">
        <ele>995.6</ele>
        <time>2017-07-23T06:58:44Z</time>
      </trkpt>
      <trkpt lat="44.2633220" lon="7.4707220">
        <ele>994.2</ele>
        <time>2017-07-23T06:58:46Z</time>
      </trkpt>
      <trkpt lat="44.2635250" lon="7.4705310">
        <ele>992.6</ele>
        <time>2017-07-23T06:58:48Z</time>
      </trkpt>
      <trkpt lat="44.2636650" lon="7.4703190">
        <ele>991.2</ele>
        <time>2017-07-23T06:58:50Z</time>
      </trkpt>
      <trkpt lat="44.2637290" lon="7.4702350">
        <ele>990.6</ele>
        <time>2017-07-23T06:58:51Z</time>
      </trkpt>
      <trkpt lat="44.2637970" lon="7.4701680">
        <ele>989.8</ele>
        <time>2017-07-23T06:58:52Z</time>
      </trkpt>
      <trkpt lat="44.2638830" lon="7.4701150">
        <ele>988.2</ele>
        <time>2017-07-23T06:58:54Z</time>
      </trkpt>
      <trkpt lat="44.2640140" lon="7.4701770">
        <ele>986.2</ele>
        <time>2017-07-23T06:58:56Z</time>
      </trkpt>
      <trkpt lat="44.2641140" lon="7.4702410">
        <ele>985.4</ele>
        <time>2017-07-23T06:58:57Z</time>
      </trkpt>
      <trkpt lat="44.2642740" lon="7.4703940">
        <ele>984.8</ele>
        <time>2017-07-23T06:58:58Z</time>
      </trkpt>
      <trkpt lat="44.2645940" lon="7.4707000">
        <ele>983.2</ele>
        <time>2017-07-23T06:59:00Z</time>
      </trkpt>
      <trkpt lat="44.2647110" lon="7.4707570">
        <ele>982.4</ele>
        <time>2017-07-23T06:59:01Z</time>
      </trkpt>
      <trkpt lat="44.2648270" lon="7.4707820">
        <ele>981.6</ele>
        <time>2017-07-23T06:59:02Z</time>
      </trkpt>
      <trkpt lat="44.2650550" lon="7.4708080">
        <ele>980.4</ele>
        <time>2017-07-23T06:59:04Z</time>
      </trkpt>
      <trkpt lat="44.2652800" lon="7.4708140">
        <ele>979.0</ele>
        <time>2017-07-23T06:59:06Z</time>
      </trkpt>
      <trkpt lat="44.2653470" lon="7.4707470">
        <ele>978.2</ele>
        <time>2017-07-23T06:59:07Z</time>
      </trkpt>
      <trkpt lat="44.2654170" lon="7.4706450">
        <ele>977.6</ele>
        <time>2017-07-23T06:59:08Z</time>
      </trkpt>
      <trkpt lat="44.2655570" lon="7.4704170">
        <ele>976.4</ele>
        <time>2017-07-23T06:59:10Z</time>
      </trkpt>
      <trkpt lat="44.2655950" lon="7.4702670">
        <ele>975.6</ele>
        <time>2017-07-23T06:59:11Z</time>
      </trkpt>
      <trkpt lat="44.2656190" lon="7.4701010">
        <ele>974.8</ele>
        <time>2017-07-23T06:59:12Z</time>
      </trkpt>
      <trkpt lat="44.2656580" lon="7.4697650">
        <ele>973.4</ele>
        <time>2017-07-23T06:59:14Z</time>
      </trkpt>
      <trkpt lat="44.2656580" lon="7.4696020">
        <ele>972.8</ele>
        <time>2017-07-23T06:59:15Z</time>
      </trkpt>
      <trkpt lat="44.2656480" lon="7.4694360">
        <ele>972.0</ele>
        <time>2017-07-23T06:59:16Z</time>
      </trkpt>
      <trkpt lat="44.2656130" lon="7.4691160">
        <ele>970.6</ele>
        <time>2017-07-23T06:59:18Z</time>
      </trkpt>
      <trkpt lat="44.2655790" lon="7.4688110">
        <ele>968.4</ele>
        <time>2017-07-23T06:59:20Z</time>
      </trkpt>
      <trkpt lat="44.2655830" lon="7.4686690">
        <ele>967.4</ele>
        <time>2017-07-23T06:59:21Z</time>
      </trkpt>
      <trkpt lat="44.2656050" lon="7.4685420">
        <ele>966.6</ele>
        <time>2017-07-23T06:59:22Z</time>
      </trkpt>
      <trkpt lat="44.2656360" lon="7.4684190">
        <ele>965.8</ele>
        <time>2017-07-23T06:59:23Z</time>
      </trkpt>
      <trkpt lat="44.2656860" lon="7.4683180">
        <ele>965.0</ele>
        <time>2017-07-23T06:59:24Z</time>
      </trkpt>
      <trkpt lat="44.2657330" lon="7.4682120">
        <ele>964.2</ele>
        <time>2017-07-23T06:59:25Z</time>
      </trkpt>
      <trkpt lat="44.2657850" lon="7.4681190">
        <ele>963.2</ele>
        <time>2017-07-23T06:59:26Z</time>
      </trkpt>
      <trkpt lat="44.2659230" lon="7.4679680">
        <ele>961.6</ele>
        <time>2017-07-23T06:59:28Z</time>
      </trkpt>
      <trkpt lat="44.2660000" lon="7.4679030">
        <ele>960.8</ele>
        <time>2017-07-23T06:59:29Z</time>
      </trkpt>
      <trkpt lat="44.2660800" lon="7.4678450">
        <ele>959.8</ele>
        <time>2017-07-23T06:59:30Z</time>
      </trkpt>
      <trkpt lat="44.2662570" lon="7.4679510">
        <ele>958.6</ele>
        <time>2017-07-23T06:59:31Z</time>
      </trkpt>
      <trkpt lat="44.2664100" lon="7.4680100">
        <ele>957.6</ele>
        <time>2017-07-23T06:59:32Z</time>
      </trkpt>
      <trkpt lat="44.2665280" lon="7.4680130">
        <ele>956.6</ele>
        <time>2017-07-23T06:59:33Z</time>
      </trkpt>
      <trkpt lat="44.2666260" lon="7.4679890">
        <ele>955.6</ele>
        <time>2017-07-23T06:59:34Z</time>
      </trkpt>
      <trkpt lat="44.2666720" lon="7.4679780">
        <ele>954.8</ele>
        <time>2017-07-23T06:59:35Z</time>
      </trkpt>
      <trkpt lat="44.2667380" lon="7.4679450">
        <ele>953.8</ele>
        <time>2017-07-23T06:59:36Z</time>
      </trkpt>
      <trkpt lat="44.2667670" lon="7.4679530">
        <ele>952.8</ele>
        <time>2017-07-23T06:59:37Z</time>
      </trkpt>
      <trkpt lat="44.2667800" lon="7.4679950">
        <ele>951.8</ele>
        <time>2017-07-23T06:59:38Z</time>
      </trkpt>
      <trkpt lat="44.2668040" lon="7.4680300">
        <ele>951.0</ele>
        <time>2017-07-23T06:59:39Z</time>
      </trkpt>
      <trkpt lat="44.2668240" lon="7.4680600">
        <ele>950.0</ele>
        <time>2017-07-23T06:59:40Z</time>
      </trkpt>
      <trkpt lat="44.2668370" lon="7.4680490">
        <ele>948.2</ele>
        <time>2017-07-23T06:59:42Z</time>
      </trkpt>
      <trkpt lat="44.2667760" lon="7.4680710">
        <ele>944.2</ele>
        <time>2017-07-23T06:59:45Z</time>
      </trkpt>
      <trkpt lat="44.2667220" lon="7.4681140">
        <ele>943.2</ele>
        <time>2017-07-23T06:59:46Z</time>
      </trkpt>
      <trkpt lat="44.2666420" lon="7.4681690">
        <ele>942.0</ele>
        <time>2017-07-23T06:59:47Z</time>
      </trkpt>
      <trkpt lat="44.2665550" lon="7.4682280">
        <ele>941.0</ele>
        <time>2017-07-23T06:59:48Z</time>
      </trkpt>
      <trkpt lat="44.2664640" lon="7.4682850">
        <ele>940.0</ele>
        <time>2017-07-23T06:59:49Z</time>
      </trkpt>
      <trkpt lat="44.2663040" lon="7.4682820">
        <ele>938.8</ele>
        <time>2017-07-23T06:59:50Z</time>
      </trkpt>
      <trkpt lat="44.2661270" lon="7.4682620">
        <ele>937.6</ele>
        <time>2017-07-23T06:59:51Z</time>
      </trkpt>
      <trkpt lat="44.2659720" lon="7.4682770">
        <ele>936.4</ele>
        <time>2017-07-23T06:59:52Z</time>
      </trkpt>
      <trkpt lat="44.2657750" lon="7.4684230">
        <ele>934.4</ele>
        <time>2017-07-23T06:59:54Z</time>
      </trkpt>
      <trkpt lat="44.2656060" lon="7.4685970">
        <ele>932.6</ele>
        <time>2017-07-23T06:59:56Z</time>
      </trkpt>
      <trkpt lat="44.2655610" lon="7.4687480">
        <ele>931.6</ele>
        <time>2017-07-23T06:59:57Z</time>
      </trkpt>
      <trkpt lat="44.2655050" lon="7.4688840">
        <ele>930.4</ele>
        <time>2017-07-23T06:59:58Z</time>
      </trkpt>
      <trkpt lat="44.2653050" lon="7.4690290">
        <ele>928.6</ele>
        <time>2017-07-23T07:00:00Z</time>
      </trkpt>
      <trkpt lat="44.2651740" lon="7.4690480">
        <ele>927.4</ele>
        <time>2017-07-23T07:00:01Z</time>
      </trkpt>
      <trkpt lat="44.2649340" lon="7.4690430">
        <ele>925.4</ele>
        <time>2017-07-23T07:00:03Z</time>
      </trkpt>
      <trkpt lat="44.2648280" lon="7.4690180">
        <ele>924.6</ele>
        <time>2017-07-23T07:00:04Z</time>
      </trkpt>
      <trkpt lat="44.2647360" lon="7.4689760">
        <ele>923.6</ele>
        <time>2017-07-23T07:00:05Z</time>
      </trkpt>
      <trkpt lat="44.2646610" lon="7.4689190">
        <ele>922.4</ele>
        <time>2017-07-23T07:00:06Z</time>
      </trkpt>
      <trkpt lat="44.2645870" lon="7.4688510">
        <ele>921.6</ele>
        <time>2017-07-23T07:00:07Z</time>
      </trkpt>
      <trkpt lat="44.2645210" lon="7.4687600">
        <ele>919.8</ele>
        <time>2017-07-23T07:00:08Z</time>
      </trkpt>
      <trkpt lat="44.2644070" lon="7.4686400">
        <ele>919.0</ele>
        <time>2017-07-23T07:00:09Z</time>
      </trkpt>
      <trkpt lat="44.2642860" lon="7.4684950">
        <ele>918.0</ele>
        <time>2017-07-23T07:00:10Z</time>
      </trkpt>
      <trkpt lat="44.2640440" lon="7.4682390">
        <ele>916.2</ele>
        <time>2017-07-23T07:00:12Z</time>
      </trkpt>
      <trkpt lat="44.2637420" lon="7.4680400">
        <ele>914.4</ele>
        <time>2017-07-23T07:00:14Z</time>
      </trkpt>
      <trkpt lat="44.2635670" lon="7.4680180">
        <ele>913.4</ele>
        <time>2017-07-23T07:00:15Z</time>
      </trkpt>
      <trkpt lat="44.2633940" lon="7.4680110">
        <ele>912.4</ele>
        <time>2017-07-23T07:00:16Z</time>
      </trkpt>
      <trkpt lat="44.2632230" lon="7.4680270">
        <ele>911.2</ele>
        <time>2017-07-23T07:00:17Z</time>
      </trkpt>
      <trkpt lat="44.2628700" lon="7.4680710">
        <ele>909.4</ele>
        <time>2017-07-23T07:00:19Z</time>
      </trkpt>
      <trkpt lat="44.2626960" lon="7.4680970">
        <ele>908.2</ele>
        <time>2017-07-23T07:00:20Z</time>
      </trkpt>
      <trkpt lat="44.2625290" lon="7.4681300">
        <ele>907.0</ele>
        <time>2017-07-23T07:00:21Z</time>
      </trkpt>
      <trkpt lat="44.2623720" lon="7.4681140">
        <ele>905.8</ele>
        <time>2017-07-23T07:00:22Z</time>
      </trkpt>
      <trkpt lat="44.2622420" lon="7.4681320">
        <ele>904.4</ele>
        <time>2017-07-23T07:00:23Z</time>
      </trkpt>
      <trkpt lat="44.2621090" lon="7.4681390">
        <ele>903.0</ele>
        <time>2017-07-23T07:00:24Z</time>
      </trkpt>
      <trkpt lat="44.2619810" lon="7.4680930">
        <ele>902.0</ele>
        <time>2017-07-23T07:00:25Z</time>
      </trkpt>
      <trkpt lat="44.2618560" lon="7.4680250">
        <ele>900.8</ele>
        <time>2017-07-23T07:00:26Z</time>
      </trkpt>
      <trkpt lat="44.2617460" lon="7.4679420">
        <ele>899.8</ele>
        <time>2017-07-23T07:00:27Z</time>
      </trkpt>
      <trkpt lat="44.2616270" lon="7.4678450">
        <ele>898.6</ele>
        <time>2017-07-23T07:00:28Z</time>
      </trkpt>
      <trkpt lat="44.2615020" lon="7.4677320">
        <ele>897.6</ele>
        <time>2017-07-23T07:00:29Z</time>
      </trkpt>
      <trkpt lat="44.2613730" lon="7.4676320">
        <ele>896.2</ele>
        <time>2017-07-23T07:00:30Z</time>
      </trkpt>
      <trkpt lat="44.2612440" lon="7.4675240">
        <ele>895.2</ele>
        <time>2017-07-23T07:00:31Z</time>
      </trkpt>
      <trkpt lat="44.2611000" lon="7.4674090">
        <ele>892.8</ele>
        <time>2017-07-23T07:00:32Z</time>
      </trkpt>
      <trkpt lat="44.2609580" lon="7.4673190">
        <ele>891.6</ele>
        <time>2017-07-23T07:00:33Z</time>
      </trkpt>
      <trkpt lat="44.2608440" lon="7.4672930">
        <ele>890.6</ele>
        <time>2017-07-23T07:00:34Z</time>
      </trkpt>
      <trkpt lat="44.2606980" lon="7.4672970">
        <ele>889.6</ele>
        <time>2017-07-23T07:00:35Z</time>
      </trkpt>
      <trkpt lat="44.2605630" lon="7.4672950">
        <ele>888.6</ele>
        <time>2017-07-23T07:00:36Z</time>
      </trkpt>
      <trkpt lat="44.2604610" lon="7.4673460">
        <ele>887.8</ele>
        <time>2017-07-23T07:00:37Z</time>
      </trkpt>
      <trkpt lat="44.2603640" lon="7.4673780">
        <ele>887.0</ele>
        <time>2017-07-23T07:00:38Z</time>
      </trkpt>
      <trkpt lat="44.2602920" lon="7.4674150">
        <ele>886.0</ele>
        <time>2017-07-23T07:00:39Z</time>
      </trkpt>
      <trkpt lat="44.2602330" lon="7.4674050">
        <ele>885.2</ele>
        <time>2017-07-23T07:00:40Z</time>
      </trkpt>
      <trkpt lat="44.2601770" lon="7.4673710">
        <ele>884.4</ele>
        <time>2017-07-23T07:00:41Z</time>
      </trkpt>
      <trkpt lat="44.2600820" lon="7.4672370">
        <ele>883.0</ele>
        <time>2017-07-23T07:00:43Z</time>
      </trkpt>
      <trkpt lat="44.2600560" lon="7.4671060">
        <ele>881.6</ele>
        <time>2017-07-23T07:00:45Z</time>
      </trkpt>
      <trkpt lat="44.2600600" lon="7.4670300">
        <ele>880.8</ele>
        <time>2017-07-23T07:00:46Z</time>
      </trkpt>
      <trkpt lat="44.2600850" lon="7.4669410">
        <ele>879.8</ele>
        <time>2017-07-23T07:00:47Z</time>
      </trkpt>
      <trkpt lat="44.2601670" lon="7.4668270">
        <ele>879.0</ele>
        <time>2017-07-23T07:00:48Z</time>
      </trkpt>
      <trkpt lat="44.2603000" lon="7.4667140">
        <ele>878.2</ele>
        <time>2017-07-23T07:00:49Z</time>
      </trkpt>
      <trkpt lat="44.2604530" lon="7.4666300">
        <ele>877.4</ele>
        <time>2017-07-23T07:00:50Z</time>
      </trkpt>
      <trkpt lat="44.2605900" lon="7.4665440">
        <ele>876.6</ele>
        <time>2017-07-23T07:00:51Z</time>
      </trkpt>
      <trkpt lat="44.2607210" lon="7.4664810">
        <ele>875.6</ele>
        <time>2017-07-23T07:00:52Z</time>
      </trkpt>
      <trkpt lat="44.2609130" lon="7.4664650">
        <ele>874.6</ele>
        <time>2017-07-23T07:00:53Z</time>
      </trkpt>
      <trkpt lat="44.2611470" lon="7.4664440">
        <ele>873.6</ele>
        <time>2017-07-23T07:00:54Z</time>
      </trkpt>
      <trkpt lat="44.2615640" lon="7.4663770">
        <ele>870.6</ele>
        <time>2017-07-23T07:00:56Z</time>
      </trkpt>
      <trkpt lat="44.2617530" lon="7.4663170">
        <ele>869.6</ele>
        <time>2017-07-23T07:00:57Z</time>
      </trkpt>
      <trkpt lat="44.2619370" lon="7.4662490">
        <ele>868.4</ele>
        <time>2017-07-23T07:00:58Z</time>
      </trkpt>
      <trkpt lat="44.2621090" lon="7.4661630">
        <ele>867.4</ele>
        <time>2017-07-23T07:00:59Z</time>
      </trkpt>
      <trkpt lat="44.2622630" lon="7.4660500">
        <ele>866.4</ele>
        <time>2017-07-23T07:01:00Z</time>
      </trkpt>
      <trkpt lat="44.2624240" lon="7.4659360">
        <ele>865.2</ele>
        <time>2017-07-23T07:01:01Z</time>
      </trkpt>
      <trkpt lat="44.2625780" lon="7.4658110">
        <ele>864.2</ele>
        <time>2017-07-23T07:01:02Z</time>
      </trkpt>
      <trkpt lat="44.2627260" lon="7.4656830">
        <ele>863.0</ele>
        <time>2017-07-23T07:01:03Z</time>
      </trkpt>
      <trkpt lat="44.2628690" lon="7.4655590">
        <ele>862.0</ele>
        <time>2017-07-23T07:01:04Z</time>
      </trkpt>
      <trkpt lat="44.2629810" lon="7.4654220">
        <ele>861.0</ele>
        <time>2017-07-23T07:01:05Z</time>
      </trkpt>
      <trkpt lat="44.2630740" lon="7.4652710">
        <ele>859.8</ele>
        <time>2017-07-23T07:01:06Z</time>
      </trkpt>
      <trkpt lat="44.2632120" lon="7.4649560">
        <ele>858.0</ele>
        <time>2017-07-23T07:01:08Z</time>
      </trkpt>
      <trkpt lat="44.2633670" lon="7.4646970">
        <ele>856.4</ele>
        <time>2017-07-23T07:01:10Z</time>
      </trkpt>
      <trkpt lat="44.2634380" lon="7.4645730">
        <ele>855.6</ele>
        <time>2017-07-23T07:01:11Z</time>
      </trkpt>
      <trkpt lat="44.2635350" lon="7.4644560">
        <ele>854.8</ele>
        <time>2017-07-23T07:01:12Z</time>
      </trkpt>
      <trkpt lat="44.2637550" lon="7.4642280">
        <ele>853.0</ele>
        <time>2017-07-23T07:01:14Z</time>
      </trkpt>
      <trkpt lat="44.2638320" lon="7.4640670">
        <ele>852.2</ele>
        <time>2017-07-23T07:01:15Z</time>
      </trkpt>
      <trkpt lat="44.2639240" lon="7.4639090">
        <ele>851.2</ele>
        <time>2017-07-23T07:01:16Z</time>
      </trkpt>
      <trkpt lat="44.2640060" lon="7.4637420">
        <ele>850.4</ele>
        <time>2017-07-23T07:01:17Z</time>
      </trkpt>
      <trkpt lat="44.2640630" lon="7.4635540">
        <ele>849.4</ele>
        <time>2017-07-23T07:01:18Z</time>
      </trkpt>
      <trkpt lat="44.2641120" lon="7.4633550">
        <ele>848.4</ele>
        <time>2017-07-23T07:01:19Z</time>
      </trkpt>
      <trkpt lat="44.2641840" lon="7.4631910">
        <ele>846.8</ele>
        <time>2017-07-23T07:01:20Z</time>
      </trkpt>
      <trkpt lat="44.2643400" lon="7.4628750">
        <ele>845.0</ele>
        <time>2017-07-23T07:01:22Z</time>
      </trkpt>
      <trkpt lat="44.2645490" lon="7.4625870">
        <ele>843.2</ele>
        <time>2017-07-23T07:01:24Z</time>
      </trkpt>
      <trkpt lat="44.2646570" lon="7.4624820">
        <ele>842.2</ele>
        <time>2017-07-23T07:01:25Z</time>
      </trkpt>
      <trkpt lat="44.2647760" lon="7.4623950">
        <ele>841.4</ele>
        <time>2017-07-23T07:01:26Z</time>
      </trkpt>
      <trkpt lat="44.2648830" lon="7.4623060">
        <ele>840.6</ele>
        <time>2017-07-23T07:01:27Z</time>
      </trkpt>
      <trkpt lat="44.2649940" lon="7.4622190">
        <ele>839.8</ele>
        <time>2017-07-23T07:01:28Z</time>
      </trkpt>
      <trkpt lat="44.2651020" lon="7.4621330">
        <ele>839.0</ele>
        <time>2017-07-23T07:01:29Z</time>
      </trkpt>
      <trkpt lat="44.2652060" lon="7.4620510">
        <ele>838.2</ele>
        <time>2017-07-23T07:01:30Z</time>
      </trkpt>
      <trkpt lat="44.2653670" lon="7.4618100">
        <ele>837.0</ele>
        <time>2017-07-23T07:01:32Z</time>
      </trkpt>
      <trkpt lat="44.2654160" lon="7.4616700">
        <ele>836.4</ele>
        <time>2017-07-23T07:01:33Z</time>
      </trkpt>
      <trkpt lat="44.2654370" lon="7.4615280">
        <ele>835.8</ele>
        <time>2017-07-23T07:01:34Z</time>
      </trkpt>
      <trkpt lat="44.2654890" lon="7.4612720">
        <ele>835.0</ele>
        <time>2017-07-23T07:01:36Z</time>
      </trkpt>
      <trkpt lat="44.2655040" lon="7.4611500">
        <ele>834.6</ele>
        <time>2017-07-23T07:01:37Z</time>
      </trkpt>
      <trkpt lat="44.2656500" lon="7.4608850">
        <ele>833.4</ele>
        <time>2017-07-23T07:01:40Z</time>
      </trkpt>
      <trkpt lat="44.2657260" lon="7.4608130">
        <ele>833.0</ele>
        <time>2017-07-23T07:01:41Z</time>
      </trkpt>
      <trkpt lat="44.2658880" lon="7.4606880">
        <ele>832.2</ele>
        <time>2017-07-23T07:01:43Z</time>
      </trkpt>
      <trkpt lat="44.2660830" lon="7.4605910">
        <ele>831.0</ele>
        <time>2017-07-23T07:01:45Z</time>
      </trkpt>
      <trkpt lat="44.2661680" lon="7.4605460">
        <ele>830.6</ele>
        <time>2017-07-23T07:01:46Z</time>
      </trkpt>
      <trkpt lat="44.2664110" lon="7.4603560">
        <ele>829.8</ele>
        <time>2017-07-23T07:01:49Z</time>
      </trkpt>
      <trkpt lat="44.2665650" lon="7.4602070">
        <ele>829.6</ele>
        <time>2017-07-23T07:01:51Z</time>
      </trkpt>
      <trkpt lat="44.2667050" lon="7.4600680">
        <ele>829.4</ele>
        <time>2017-07-23T07:01:53Z</time>
      </trkpt>
      <trkpt lat="44.2668150" lon="7.4599170">
        <ele>829.4</ele>
        <time>2017-07-23T07:01:55Z</time>
      </trkpt>
      <trkpt lat="44.2671080" lon="7.4595850">
        <ele>828.6</ele>
        <time>2017-07-23T07:01:59Z</time>
      </trkpt>
      <trkpt lat="44.2671830" lon="7.4594790">
        <ele>828.2</ele>
        <time>2017-07-23T07:02:00Z</time>
      </trkpt>
      <trkpt lat="44.2673220" lon="7.4592110">
        <ele>827.2</ele>
        <time>2017-07-23T07:02:02Z</time>
      </trkpt>
      <trkpt lat="44.2674940" lon="7.4589260">
        <ele>826.2</ele>
        <time>2017-07-23T07:02:04Z</time>
      </trkpt>
      <trkpt lat="44.2675830" lon="7.4588020">
        <ele>825.6</ele>
        <time>2017-07-23T07:02:05Z</time>
      </trkpt>
      <trkpt lat="44.2676930" lon="7.4587210">
        <ele>825.0</ele>
        <time>2017-07-23T07:02:06Z</time>
      </trkpt>
      <trkpt lat="44.2678050" lon="7.4586630">
        <ele>824.4</ele>
        <time>2017-07-23T07:02:07Z</time>
      </trkpt>
      <trkpt lat="44.2679210" lon="7.4586060">
        <ele>823.2</ele>
        <time>2017-07-23T07:02:08Z</time>
      </trkpt>
      <trkpt lat="44.2680130" lon="7.4585360">
        <ele>822.8</ele>
        <time>2017-07-23T07:02:09Z</time>
      </trkpt>
      <trkpt lat="44.2680980" lon="7.4584580">
        <ele>822.4</ele>
        <time>2017-07-23T07:02:10Z</time>
      </trkpt>
      <trkpt lat="44.2681680" lon="7.4583640">
        <ele>822.0</ele>
        <time>2017-07-23T07:02:11Z</time>
      </trkpt>
      <trkpt lat="44.2682600" lon="7.4581960">
        <ele>821.2</ele>
        <time>2017-07-23T07:02:13Z</time>
      </trkpt>
      <trkpt lat="44.2682870" lon="7.4581170">
        <ele>821.0</ele>
        <time>2017-07-23T07:02:14Z</time>
      </trkpt>
      <trkpt lat="44.2683140" lon="7.4580330">
        <ele>820.4</ele>
        <time>2017-07-23T07:02:15Z</time>
      </trkpt>
      <trkpt lat="44.2683760" lon="7.4578580">
        <ele>819.6</ele>
        <time>2017-07-23T07:02:17Z</time>
      </trkpt>
      <trkpt lat="44.2684080" lon="7.4577540">
        <ele>819.2</ele>
        <time>2017-07-23T07:02:18Z</time>
      </trkpt>
      <trkpt lat="44.2684690" lon="7.4575230">
        <ele>818.2</ele>
        <time>2017-07-23T07:02:20Z</time>
      </trkpt>
      <trkpt lat="44.2685110" lon="7.4572190">
        <ele>817.0</ele>
        <time>2017-07-23T07:02:22Z</time>
      </trkpt>
      <trkpt lat="44.2686200" lon="7.4569250">
        <ele>815.8</ele>
        <time>2017-07-23T07:02:24Z</time>
      </trkpt>
      <trkpt lat="44.2686840" lon="7.4567900">
        <ele>815.2</ele>
        <time>2017-07-23T07:02:25Z</time>
      </trkpt>
      <trkpt lat="44.2687450" lon="7.4566590">
        <ele>814.4</ele>
        <time>2017-07-23T07:02:26Z</time>
      </trkpt>
      <trkpt lat="44.2688180" lon="7.4565400">
        <ele>813.8</ele>
        <time>2017-07-23T07:02:27Z</time>
      </trkpt>
      <trkpt lat="44.2688640" lon="7.4563940">
        <ele>813.0</ele>
        <time>2017-07-23T07:02:28Z</time>
      </trkpt>
      <trkpt lat="44.2689680" lon="7.4561230">
        <ele>811.4</ele>
        <time>2017-07-23T07:02:30Z</time>
      </trkpt>
      <trkpt lat="44.2690900" lon="7.4560370">
        <ele>810.6</ele>
        <time>2017-07-23T07:02:31Z</time>
      </trkpt>
      <trkpt lat="44.2691910" lon="7.4559420">
        <ele>809.6</ele>
        <time>2017-07-23T07:02:32Z</time>
      </trkpt>
      <trkpt lat="44.2693860" lon="7.4557410">
        <ele>808.4</ele>
        <time>2017-07-23T07:02:34Z</time>
      </trkpt>
      <trkpt lat="44.2695710" lon="7.4555250">
        <ele>807.2</ele>
        <time>2017-07-23T07:02:36Z</time>
      </trkpt>
      <trkpt lat="44.2697490" lon="7.4553100">
        <ele>806.2</ele>
        <time>2017-07-23T07:02:38Z</time>
      </trkpt>
      <trkpt lat="44.2698880" lon="7.4550690">
        <ele>805.0</ele>
        <time>2017-07-23T07:02:40Z</time>
      </trkpt>
      <trkpt lat="44.2700210" lon="7.4548230">
        <ele>803.8</ele>
        <time>2017-07-23T07:02:42Z</time>
      </trkpt>
      <trkpt lat="44.2701730" lon="7.4545860">
        <ele>802.6</ele>
        <time>2017-07-23T07:02:44Z</time>
      </trkpt>
      <trkpt lat="44.2703300" lon="7.4543710">
        <ele>801.4</ele>
        <time>2017-07-23T07:02:46Z</time>
      </trkpt>
      <trkpt lat="44.2704940" lon="7.4541790">
        <ele>800.2</ele>
        <time>2017-07-23T07:02:48Z</time>
      </trkpt>
      <trkpt lat="44.2705770" lon="7.4540970">
        <ele>799.8</ele>
        <time>2017-07-23T07:02:49Z</time>
      </trkpt>
      <trkpt lat="44.2706620" lon="7.4540350">
        <ele>799.2</ele>
        <time>2017-07-23T07:02:50Z</time>
      </trkpt>
      <trkpt lat="44.2707520" lon="7.4539930">
        <ele>798.4</ele>
        <time>2017-07-23T07:02:51Z</time>
      </trkpt>
      <trkpt lat="44.2708520" lon="7.4539650">
        <ele>797.8</ele>
        <time>2017-07-23T07:02:52Z</time>
      </trkpt>
      <trkpt lat="44.2709500" lon="7.4539380">
        <ele>797.4</ele>
        <time>2017-07-23T07:02:53Z</time>
      </trkpt>
      <trkpt lat="44.2711490" lon="7.4538570">
        <ele>796.4</ele>
        <time>2017-07-23T07:02:55Z</time>
      </trkpt>
      <trkpt lat="44.2713320" lon="7.4537030">
        <ele>795.2</ele>
        <time>2017-07-23T07:02:57Z</time>
      </trkpt>
      <trkpt lat="44.2715090" lon="7.4535350">
        <ele>794.4</ele>
        <time>2017-07-23T07:02:59Z</time>
      </trkpt>
      <trkpt lat="44.2715580" lon="7.4534140">
        <ele>794.0</ele>
        <time>2017-07-23T07:03:00Z</time>
      </trkpt>
      <trkpt lat="44.2716600" lon="7.4531720">
        <ele>792.2</ele>
        <time>2017-07-23T07:03:02Z</time>
      </trkpt>
      <trkpt lat="44.2717160" lon="7.4530560">
        <ele>791.0</ele>
        <time>2017-07-23T07:03:03Z</time>
      </trkpt>
      <trkpt lat="44.2720270" lon="7.4524120">
        <ele>790.8</ele>
        <time>2017-07-23T07:03:09Z</time>
      </trkpt>
      <trkpt lat="44.2721170" lon="7.4522110">
        <ele>790.2</ele>
        <time>2017-07-23T07:03:11Z</time>
      </trkpt>
      <trkpt lat="44.2721760" lon="7.4520110">
        <ele>790.0</ele>
        <time>2017-07-23T07:03:13Z</time>
      </trkpt>
      <trkpt lat="44.2722260" lon="7.4516880">
        <ele>789.6</ele>
        <time>2017-07-23T07:03:16Z</time>
      </trkpt>
      <trkpt lat="44.2722770" lon="7.4514810">
        <ele>789.2</ele>
        <time>2017-07-23T07:03:18Z</time>
      </trkpt>
      <trkpt lat="44.2723040" lon="7.4513780">
        <ele>789.2</ele>
        <time>2017-07-23T07:03:19Z</time>
      </trkpt>
      <trkpt lat="44.2723390" lon="7.4512770">
        <ele>789.0</ele>
        <time>2017-07-23T07:03:20Z</time>
      </trkpt>
      <trkpt lat="44.2724330" lon="7.4510960">
        <ele>789.0</ele>
        <time>2017-07-23T07:03:22Z</time>
      </trkpt>
      <trkpt lat="44.2724850" lon="7.4510050">
        <ele>789.0</ele>
        <time>2017-07-23T07:03:23Z</time>
      </trkpt>
      <trkpt lat="44.2729340" lon="7.4504370">
        <ele>789.0</ele>
        <time>2017-07-23T07:03:30Z</time>
      </trkpt>
      <trkpt lat="44.2732740" lon="7.4498800">
        <ele>788.0</ele>
        <time>2017-07-23T07:03:36Z</time>
      </trkpt>
      <trkpt lat="44.2733360" lon="7.4497840">
        <ele>787.8</ele>
        <time>2017-07-23T07:03:37Z</time>
      </trkpt>
      <trkpt lat="44.2734030" lon="7.4496870">
        <ele>787.6</ele>
        <time>2017-07-23T07:03:38Z</time>
      </trkpt>
      <trkpt lat="44.2737320" lon="7.4492020">
        <ele>786.6</ele>
        <time>2017-07-23T07:03:43Z</time>
      </trkpt>
      <trkpt lat="44.2738610" lon="7.4490100">
        <ele>785.8</ele>
        <time>2017-07-23T07:03:45Z</time>
      </trkpt>
      <trkpt lat="44.2739270" lon="7.4489090">
        <ele>785.6</ele>
        <time>2017-07-23T07:03:46Z</time>
      </trkpt>
      <trkpt lat="44.2741230" lon="7.4485990">
        <ele>784.4</ele>
        <time>2017-07-23T07:03:49Z</time>
      </trkpt>
      <trkpt lat="44.2743780" lon="7.4481990">
        <ele>783.4</ele>
        <time>2017-07-23T07:03:53Z</time>
      </trkpt>
      <trkpt lat="44.2744990" lon="7.4480050">
        <ele>782.8</ele>
        <time>2017-07-23T07:03:55Z</time>
      </trkpt>
      <trkpt lat="44.2746180" lon="7.4478190">
        <ele>782.2</ele>
        <time>2017-07-23T07:03:57Z</time>
      </trkpt>
      <trkpt lat="44.2747990" lon="7.4475460">
        <ele>781.4</ele>
        <time>2017-07-23T07:04:00Z</time>
      </trkpt>
      <trkpt lat="44.2748600" lon="7.4474560">
        <ele>781.0</ele>
        <time>2017-07-23T07:04:01Z</time>
      </trkpt>
      <trkpt lat="44.2751200" lon="7.4471450">
        <ele>780.0</ele>
        <time>2017-07-23T07:04:05Z</time>
      </trkpt>
      <trkpt lat="44.2751940" lon="7.4470830">
        <ele>779.6</ele>
        <time>2017-07-23T07:04:06Z</time>
      </trkpt>
      <trkpt lat="44.2753600" lon="7.4469720">
        <ele>778.4</ele>
        <time>2017-07-23T07:04:08Z</time>
      </trkpt>
      <trkpt lat="44.2755400" lon="7.4468580">
        <ele>777.6</ele>
        <time>2017-07-23T07:04:10Z</time>
      </trkpt>
      <trkpt lat="44.2756210" lon="7.4467970">
        <ele>777.2</ele>
        <time>2017-07-23T07:04:11Z</time>
      </trkpt>
      <trkpt lat="44.2758620" lon="7.4466270">
        <ele>776.0</ele>
        <time>2017-07-23T07:04:14Z</time>
      </trkpt>
      <trkpt lat="44.2761120" lon="7.4465030">
        <ele>775.0</ele>
        <time>2017-07-23T07:04:17Z</time>
      </trkpt>
      <trkpt lat="44.2765170" lon="7.4464620">
        <ele>773.8</ele>
        <time>2017-07-23T07:04:21Z</time>
      </trkpt>
      <trkpt lat="44.2766140" lon="7.4464530">
        <ele>773.4</ele>
        <time>2017-07-23T07:04:22Z</time>
      </trkpt>
      <trkpt lat="44.2768940" lon="7.4464170">
        <ele>772.6</ele>
        <time>2017-07-23T07:04:25Z</time>
      </trkpt>
      <trkpt lat="44.2771630" lon="7.4463410">
        <ele>772.2</ele>
        <time>2017-07-23T07:04:28Z</time>
      </trkpt>
      <trkpt lat="44.2772570" lon="7.4463100">
        <ele>771.8</ele>
        <time>2017-07-23T07:04:29Z</time>
      </trkpt>
      <trkpt lat="44.2773400" lon="7.4462620">
        <ele>771.6</ele>
        <time>2017-07-23T07:04:30Z</time>
      </trkpt>
      <trkpt lat="44.2774200" lon="7.4462110">
        <ele>771.6</ele>
        <time>2017-07-23T07:04:31Z</time>
      </trkpt>
      <trkpt lat="44.2774930" lon="7.4461560">
        <ele>771.4</ele>
        <time>2017-07-23T07:04:32Z</time>
      </trkpt>
      <trkpt lat="44.2775640" lon="7.4460880">
        <ele>771.2</ele>
        <time>2017-07-23T07:04:33Z</time>
      </trkpt>
      <trkpt lat="44.2779230" lon="7.4456810">
        <ele>770.6</ele>
        <time>2017-07-23T07:04:40Z</time>
      </trkpt>
      <trkpt lat="44.2782990" lon="7.4453100">
        <ele>769.8</ele>
        <time>2017-07-23T07:04:46Z</time>
      </trkpt>
      <trkpt lat="44.2785610" lon="7.4451690">
        <ele>769.6</ele>
        <time>2017-07-23T07:04:49Z</time>
      </trkpt>
      <trkpt lat="44.2787550" lon="7.4450800">
        <ele>769.2</ele>
        <time>2017-07-23T07:04:51Z</time>
      </trkpt>
      <trkpt lat="44.2790600" lon="7.4449410">
        <ele>768.2</ele>
        <time>2017-07-23T07:04:54Z</time>
      </trkpt>
      <trkpt lat="44.2793190" lon="7.4447490">
        <ele>767.2</ele>
        <time>2017-07-23T07:04:57Z</time>
      </trkpt>
      <trkpt lat="44.2793940" lon="7.4446640">
        <ele>766.8</ele>
        <time>2017-07-23T07:04:58Z</time>
      </trkpt>
      <trkpt lat="44.2795790" lon="7.4443790">
        <ele>766.0</ele>
        <time>2017-07-23T07:05:01Z</time>
      </trkpt>
      <trkpt lat="44.2798110" lon="7.4439930">
        <ele>764.8</ele>
        <time>2017-07-23T07:05:05Z</time>
      </trkpt>
      <trkpt lat="44.2799730" lon="7.4436880">
        <ele>764.4</ele>
        <time>2017-07-23T07:05:08Z</time>
      </trkpt>
      <trkpt lat="44.2800190" lon="7.4435790">
        <ele>764.2</ele>
        <time>2017-07-23T07:05:09Z</time>
      </trkpt>
      <trkpt lat="44.2801160" lon="7.4433710">
        <ele>763.6</ele>
        <time>2017-07-23T07:05:11Z</time>
      </trkpt>
      <trkpt lat="44.2803290" lon="7.4428050">
        <ele>762.6</ele>
        <time>2017-07-23T07:05:16Z</time>
      </trkpt>
      <trkpt lat="44.2805640" lon="7.4422430">
        <ele>761.4</ele>
        <time>2017-07-23T07:05:21Z</time>
      </trkpt>
      <trkpt lat="44.2806830" lon="7.4419150">
        <ele>760.8</ele>
        <time>2017-07-23T07:05:24Z</time>
      </trkpt>
      <trkpt lat="44.2808020" lon="7.4416040">
        <ele>760.4</ele>
        <time>2017-07-23T07:05:27Z</time>
      </trkpt>
      <trkpt lat="44.2809930" lon="7.4412210">
        <ele>759.8</ele>
        <time>2017-07-23T07:05:31Z</time>
      </trkpt>
      <trkpt lat="44.2810510" lon="7.4411400">
        <ele>759.8</ele>
        <time>2017-07-23T07:05:32Z</time>
      </trkpt>
      <trkpt lat="44.2808180" lon="7.4408580">
        <ele>759.6</ele>
        <time>2017-07-23T07:05:35Z</time>
      </trkpt>
      <trkpt lat="44.2808800" lon="7.4408340">
        <ele>759.6</ele>
        <time>2017-07-23T07:05:36Z</time>
      </trkpt>
      <trkpt lat="44.2811210" lon="7.4407360">
        <ele>759.2</ele>
        <time>2017-07-23T07:05:39Z</time>
      </trkpt>
      <trkpt lat="44.2812070" lon="7.4406930">
        <ele>759.2</ele>
        <time>2017-07-23T07:05:40Z</time>
      </trkpt>
      <trkpt lat="44.2816530" lon="7.4404910">
        <ele>757.8</ele>
        <time>2017-07-23T07:05:45Z</time>
      </trkpt>
      <trkpt lat="44.2819200" lon="7.4403830">
        <ele>757.2</ele>
        <time>2017-07-23T07:05:48Z</time>
      </trkpt>
      <trkpt lat="44.2822620" lon="7.4402190">
        <ele>756.8</ele>
        <time>2017-07-23T07:05:52Z</time>
      </trkpt>
      <trkpt lat="44.2823410" lon="7.4401550">
        <ele>756.6</ele>
        <time>2017-07-23T07:05:53Z</time>
      </trkpt>
      <trkpt lat="44.2824110" lon="7.4400800">
        <ele>756.4</ele>
        <time>2017-07-23T07:05:54Z</time>
      </trkpt>
      <trkpt lat="44.2825790" lon="7.4397870">
        <ele>755.8</ele>
        <time>2017-07-23T07:05:57Z</time>
      </trkpt>
      <trkpt lat="44.2826170" lon="7.4396670">
        <ele>755.8</ele>
        <time>2017-07-23T07:05:58Z</time>
      </trkpt>
      <trkpt lat="44.2826710" lon="7.4394180">
        <ele>755.4</ele>
        <time>2017-07-23T07:06:00Z</time>
      </trkpt>
      <trkpt lat="44.2827390" lon="7.4390270">
        <ele>754.6</ele>
        <time>2017-07-23T07:06:03Z</time>
      </trkpt>
      <trkpt lat="44.2827770" lon="7.4387490">
        <ele>753.8</ele>
        <time>2017-07-23T07:06:05Z</time>
      </trkpt>
      <trkpt lat="44.2827930" lon="7.4386070">
        <ele>753.4</ele>
        <time>2017-07-23T07:06:06Z</time>
      </trkpt>
      <trkpt lat="44.2827850" lon="7.4384530">
        <ele>753.2</ele>
        <time>2017-07-23T07:06:07Z</time>
      </trkpt>
      <trkpt lat="44.2827800" lon="7.4381550">
        <ele>752.0</ele>
        <time>2017-07-23T07:06:09Z</time>
      </trkpt>
      <trkpt lat="44.2827830" lon="7.4380050">
        <ele>751.6</ele>
        <time>2017-07-23T07:06:10Z</time>
      </trkpt>
      <trkpt lat="44.2828180" lon="7.4377160">
        <ele>750.8</ele>
        <time>2017-07-23T07:06:12Z</time>
      </trkpt>
      <trkpt lat="44.2829020" lon="7.4374520">
        <ele>750.0</ele>
        <time>2017-07-23T07:06:14Z</time>
      </trkpt>
      <trkpt lat="44.2829690" lon="7.4373360">
        <ele>749.4</ele>
        <time>2017-07-23T07:06:15Z</time>
      </trkpt>
      <trkpt lat="44.2831400" lon="7.4371510">
        <ele>748.6</ele>
        <time>2017-07-23T07:06:17Z</time>
      </trkpt>
      <trkpt lat="44.2832230" lon="7.4370620">
        <ele>748.4</ele>
        <time>2017-07-23T07:06:18Z</time>
      </trkpt>
      <trkpt lat="44.2833900" lon="7.4368850">
        <ele>747.2</ele>
        <time>2017-07-23T07:06:20Z</time>
      </trkpt>
      <trkpt lat="44.2835610" lon="7.4367030">
        <ele>746.2</ele>
        <time>2017-07-23T07:06:22Z</time>
      </trkpt>
      <trkpt lat="44.2837240" lon="7.4365270">
        <ele>745.0</ele>
        <time>2017-07-23T07:06:24Z</time>
      </trkpt>
      <trkpt lat="44.2838980" lon="7.4363760">
        <ele>744.0</ele>
        <time>2017-07-23T07:06:26Z</time>
      </trkpt>
      <trkpt lat="44.2839960" lon="7.4363320">
        <ele>743.4</ele>
        <time>2017-07-23T07:06:27Z</time>
      </trkpt>
      <trkpt lat="44.2840970" lon="7.4363050">
        <ele>743.0</ele>
        <time>2017-07-23T07:06:28Z</time>
      </trkpt>
      <trkpt lat="44.2842000" lon="7.4362830">
        <ele>742.4</ele>
        <time>2017-07-23T07:06:29Z</time>
      </trkpt>
      <trkpt lat="44.2843940" lon="7.4362090">
        <ele>741.6</ele>
        <time>2017-07-23T07:06:31Z</time>
      </trkpt>
      <trkpt lat="44.2844860" lon="7.4361470">
        <ele>741.2</ele>
        <time>2017-07-23T07:06:32Z</time>
      </trkpt>
      <trkpt lat="44.2846440" lon="7.4359830">
        <ele>740.2</ele>
        <time>2017-07-23T07:06:34Z</time>
      </trkpt>
      <trkpt lat="44.2847200" lon="7.4358940">
        <ele>739.8</ele>
        <time>2017-07-23T07:06:35Z</time>
      </trkpt>
      <trkpt lat="44.2849340" lon="7.4356050">
        <ele>739.0</ele>
        <time>2017-07-23T07:06:38Z</time>
      </trkpt>
      <trkpt lat="44.2851510" lon="7.4353340">
        <ele>738.2</ele>
        <time>2017-07-23T07:06:41Z</time>
      </trkpt>
      <trkpt lat="44.2852360" lon="7.4352690">
        <ele>738.0</ele>
        <time>2017-07-23T07:06:42Z</time>
      </trkpt>
      <trkpt lat="44.2854190" lon="7.4351830">
        <ele>737.4</ele>
        <time>2017-07-23T07:06:44Z</time>
      </trkpt>
      <trkpt lat="44.2856050" lon="7.4351680">
        <ele>736.6</ele>
        <time>2017-07-23T07:06:46Z</time>
      </trkpt>
      <trkpt lat="44.2857020" lon="7.4351770">
        <ele>736.2</ele>
        <time>2017-07-23T07:06:47Z</time>
      </trkpt>
      <trkpt lat="44.2857980" lon="7.4351890">
        <ele>736.0</ele>
        <time>2017-07-23T07:06:48Z</time>
      </trkpt>
      <trkpt lat="44.2858930" lon="7.4352000">
        <ele>735.6</ele>
        <time>2017-07-23T07:06:49Z</time>
      </trkpt>
      <trkpt lat="44.2861800" lon="7.4351790">
        <ele>734.6</ele>
        <time>2017-07-23T07:06:52Z</time>
      </trkpt>
      <trkpt lat="44.2862710" lon="7.4351350">
        <ele>734.4</ele>
        <time>2017-07-23T07:06:53Z</time>
      </trkpt>
      <trkpt lat="44.2865140" lon="7.4349110">
        <ele>733.4</ele>
        <time>2017-07-23T07:06:56Z</time>
      </trkpt>
      <trkpt lat="44.2865870" lon="7.4348190">
        <ele>732.8</ele>
        <time>2017-07-23T07:06:57Z</time>
      </trkpt>
      <trkpt lat="44.2868080" lon="7.4345810">
        <ele>731.6</ele>
        <time>2017-07-23T07:07:00Z</time>
      </trkpt>
      <trkpt lat="44.2868940" lon="7.4345200">
        <ele>731.4</ele>
        <time>2017-07-23T07:07:01Z</time>
      </trkpt>
      <trkpt lat="44.2871850" lon="7.4344000">
        <ele>730.4</ele>
        <time>2017-07-23T07:07:04Z</time>
      </trkpt>
      <trkpt lat="44.2872850" lon="7.4343580">
        <ele>730.2</ele>
        <time>2017-07-23T07:07:05Z</time>
      </trkpt>
      <trkpt lat="44.2874740" lon="7.4342390">
        <ele>729.4</ele>
        <time>2017-07-23T07:07:07Z</time>
      </trkpt>
      <trkpt lat="44.2876630" lon="7.4341110">
        <ele>728.8</ele>
        <time>2017-07-23T07:07:09Z</time>
      </trkpt>
      <trkpt lat="44.2878670" lon="7.4340330">
        <ele>728.0</ele>
        <time>2017-07-23T07:07:11Z</time>
      </trkpt>
      <trkpt lat="44.2879700" lon="7.4340210">
        <ele>727.6</ele>
        <time>2017-07-23T07:07:12Z</time>
      </trkpt>
      <trkpt lat="44.2882710" lon="7.4340590">
        <ele>726.8</ele>
        <time>2017-07-23T07:07:15Z</time>
      </trkpt>
      <trkpt lat="44.2883740" lon="7.4340720">
        <ele>726.4</ele>
        <time>2017-07-23T07:07:16Z</time>
      </trkpt>
      <trkpt lat="44.2885890" lon="7.4340720">
        <ele>725.8</ele>
        <time>2017-07-23T07:07:18Z</time>
      </trkpt>
      <trkpt lat="44.2886940" lon="7.4340440">
        <ele>725.4</ele>
        <time>2017-07-23T07:07:19Z</time>
      </trkpt>
      <trkpt lat="44.2887900" lon="7.4339830">
        <ele>725.0</ele>
        <time>2017-07-23T07:07:20Z</time>
      </trkpt>
      <trkpt lat="44.2888850" lon="7.4339100">
        <ele>724.4</ele>
        <time>2017-07-23T07:07:21Z</time>
      </trkpt>
      <trkpt lat="44.2890240" lon="7.4337160">
        <ele>723.8</ele>
        <time>2017-07-23T07:07:23Z</time>
      </trkpt>
      <trkpt lat="44.2890930" lon="7.4336230">
        <ele>723.4</ele>
        <time>2017-07-23T07:07:24Z</time>
      </trkpt>
      <trkpt lat="44.2891650" lon="7.4335560">
        <ele>723.0</ele>
        <time>2017-07-23T07:07:25Z</time>
      </trkpt>
      <trkpt lat="44.2892400" lon="7.4335160">
        <ele>722.8</ele>
        <time>2017-07-23T07:07:26Z</time>
      </trkpt>
      <trkpt lat="44.2893830" lon="7.4334840">
        <ele>722.2</ele>
        <time>2017-07-23T07:07:28Z</time>
      </trkpt>
      <trkpt lat="44.2894490" lon="7.4334410">
        <ele>722.0</ele>
        <time>2017-07-23T07:07:29Z</time>
      </trkpt>
      <trkpt lat="44.2896150" lon="7.4332570">
        <ele>721.4</ele>
        <time>2017-07-23T07:07:32Z</time>
      </trkpt>
      <trkpt lat="44.2897420" lon="7.4332060">
        <ele>721.0</ele>
        <time>2017-07-23T07:07:34Z</time>
      </trkpt>
      <trkpt lat="44.2897960" lon="7.4331980">
        <ele>721.0</ele>
        <time>2017-07-23T07:07:35Z</time>
      </trkpt>
      <trkpt lat="44.2899110" lon="7.4331880">
        <ele>720.8</ele>
        <time>2017-07-23T07:07:37Z</time>
      </trkpt>
      <trkpt lat="44.2899760" lon="7.4331760">
        <ele>720.6</ele>
        <time>2017-07-23T07:07:38Z</time>
      </trkpt>
      <trkpt lat="44.2900420" lon="7.4331640">
        <ele>720.4</ele>
        <time>2017-07-23T07:07:39Z</time>
      </trkpt>
      <trkpt lat="44.2901680" lon="7.4330950">
        <ele>719.8</ele>
        <time>2017-07-23T07:07:41Z</time>
      </trkpt>
      <trkpt lat="44.2902910" lon="7.4329810">
        <ele>719.0</ele>
        <time>2017-07-23T07:07:43Z</time>
      </trkpt>
      <trkpt lat="44.2903420" lon="7.4329050">
        <ele>718.4</ele>
        <time>2017-07-23T07:07:44Z</time>
      </trkpt>
      <trkpt lat="44.2903960" lon="7.4327040">
        <ele>717.6</ele>
        <time>2017-07-23T07:07:46Z</time>
      </trkpt>
      <trkpt lat="44.2904060" lon="7.4326150">
        <ele>717.2</ele>
        <time>2017-07-23T07:07:47Z</time>
      </trkpt>
      <trkpt lat="44.2904140" lon="7.4325360">
        <ele>717.0</ele>
        <time>2017-07-23T07:07:48Z</time>
      </trkpt>
      <trkpt lat="44.2904210" lon="7.4324550">
        <ele>716.8</ele>
        <time>2017-07-23T07:07:49Z</time>
      </trkpt>
      <trkpt lat="44.2904110" lon="7.4323730">
        <ele>716.4</ele>
        <time>2017-07-23T07:07:50Z</time>
      </trkpt>
      <trkpt lat="44.2903630" lon="7.4322430">
        <ele>716.2</ele>
        <time>2017-07-23T07:07:52Z</time>
      </trkpt>
      <trkpt lat="44.2902770" lon="7.4321200">
        <ele>715.6</ele>
        <time>2017-07-23T07:07:54Z</time>
      </trkpt>
      <trkpt lat="44.2902340" lon="7.4320500">
        <ele>715.4</ele>
        <time>2017-07-23T07:07:55Z</time>
      </trkpt>
      <trkpt lat="44.2901930" lon="7.4319680">
        <ele>715.2</ele>
        <time>2017-07-23T07:07:56Z</time>
      </trkpt>
      <trkpt lat="44.2901510" lon="7.4318890">
        <ele>715.0</ele>
        <time>2017-07-23T07:07:57Z</time>
      </trkpt>
      <trkpt lat="44.2899830" lon="7.4315920">
        <ele>713.8</ele>
        <time>2017-07-23T07:08:01Z</time>
      </trkpt>
      <trkpt lat="44.2899500" lon="7.4312420">
        <ele>713.2</ele>
        <time>2017-07-23T07:08:05Z</time>
      </trkpt>
      <trkpt lat="44.2899560" lon="7.4310690">
        <ele>713.0</ele>
        <time>2017-07-23T07:08:07Z</time>
      </trkpt>
      <trkpt lat="44.2899560" lon="7.4308350">
        <ele>712.8</ele>
        <time>2017-07-23T07:08:10Z</time>
      </trkpt>
      <trkpt lat="44.2899520" lon="7.4307630">
        <ele>712.8</ele>
        <time>2017-07-23T07:08:11Z</time>
      </trkpt>
      <trkpt lat="44.2899470" lon="7.4305600">
        <ele>712.8</ele>
        <time>2017-07-23T07:08:14Z</time>
      </trkpt>
      <trkpt lat="44.2899510" lon="7.4302900">
        <ele>713.2</ele>
        <time>2017-07-23T07:08:18Z</time>
      </trkpt>
      <trkpt lat="44.2899670" lon="7.4298680">
        <ele>713.4</ele>
        <time>2017-07-23T07:08:24Z</time>
      </trkpt>
      <trkpt lat="44.2899730" lon="7.4297800">
        <ele>713.4</ele>
        <time>2017-07-23T07:08:25Z</time>
      </trkpt>
      <trkpt lat="44.2899990" lon="7.4292420">
        <ele>713.2</ele>
        <time>2017-07-23T07:08:31Z</time>
      </trkpt>
      <trkpt lat="44.2900800" lon="7.4286120">
        <ele>712.8</ele>
        <time>2017-07-23T07:08:38Z</time>
      </trkpt>
      <trkpt lat="44.2900920" lon="7.4281310">
        <ele>712.6</ele>
        <time>2017-07-23T07:08:43Z</time>
      </trkpt>
      <trkpt lat="44.2900880" lon="7.4275930">
        <ele>712.2</ele>
        <time>2017-07-23T07:08:49Z</time>
      </trkpt>
      <trkpt lat="44.2900750" lon="7.4275040">
        <ele>712.2</ele>
        <time>2017-07-23T07:08:50Z</time>
      </trkpt>
      <trkpt lat="44.2899650" lon="7.4270950">
        <ele>712.2</ele>
        <time>2017-07-23T07:08:55Z</time>
      </trkpt>
      <trkpt lat="44.2899040" lon="7.4269520">
        <ele>712.4</ele>
        <time>2017-07-23T07:08:57Z</time>
      </trkpt>
      <trkpt lat="44.2898070" lon="7.4267560">
        <ele>712.8</ele>
        <time>2017-07-23T07:09:00Z</time>
      </trkpt>
      <trkpt lat="44.2897200" lon="7.4265740">
        <ele>713.2</ele>
        <time>2017-07-23T07:09:03Z</time>
      </trkpt>
      <trkpt lat="44.2896370" lon="7.4263690">
        <ele>713.2</ele>
        <time>2017-07-23T07:09:06Z</time>
      </trkpt>
      <trkpt lat="44.2895800" lon="7.4262440">
        <ele>713.4</ele>
        <time>2017-07-23T07:09:08Z</time>
      </trkpt>
      <trkpt lat="44.2895010" lon="7.4261620">
        <ele>713.8</ele>
        <time>2017-07-23T07:09:10Z</time>
      </trkpt>
      <trkpt lat="44.2894510" lon="7.4261340">
        <ele>713.8</ele>
        <time>2017-07-23T07:09:11Z</time>
      </trkpt>
      <trkpt lat="44.2894020" lon="7.4261070">
        <ele>714.0</ele>
        <time>2017-07-23T07:09:12Z</time>
      </trkpt>
      <trkpt lat="44.2892630" lon="7.4260510">
        <ele>714.4</ele>
        <time>2017-07-23T07:09:15Z</time>
      </trkpt>
      <trkpt lat="44.2891590" lon="7.4259930">
        <ele>715.0</ele>
        <time>2017-07-23T07:09:18Z</time>
      </trkpt>
      <trkpt lat="44.2890910" lon="7.4259510">
        <ele>715.4</ele>
        <time>2017-07-23T07:09:20Z</time>
      </trkpt>
      <trkpt lat="44.2889900" lon="7.4258440">
        <ele>716.2</ele>
        <time>2017-07-23T07:09:23Z</time>
      </trkpt>
      <trkpt lat="44.2889300" lon="7.4257790">
        <ele>716.4</ele>
        <time>2017-07-23T07:09:25Z</time>
      </trkpt>
      <trkpt lat="44.2887670" lon="7.4256350">
        <ele>717.2</ele>
        <time>2017-07-23T07:09:30Z</time>
      </trkpt>
      <trkpt lat="44.2886980" lon="7.4255870">
        <ele>717.6</ele>
        <time>2017-07-23T07:09:32Z</time>
      </trkpt>
      <trkpt lat="44.2885140" lon="7.4254280">
        <ele>718.4</ele>
        <time>2017-07-23T07:09:37Z</time>
      </trkpt>
      <trkpt lat="44.2884600" lon="7.4253950">
        <ele>718.4</ele>
        <time>2017-07-23T07:09:38Z</time>
      </trkpt>
      <trkpt lat="44.2882950" lon="7.4253320">
        <ele>718.8</ele>
        <time>2017-07-23T07:09:41Z</time>
      </trkpt>
      <trkpt lat="44.2881440" lon="7.4253170">
        <ele>719.0</ele>
        <time>2017-07-23T07:09:44Z</time>
      </trkpt>
      <trkpt lat="44.2880540" lon="7.4253190">
        <ele>719.0</ele>
        <time>2017-07-23T07:09:46Z</time>
      </trkpt>
      <trkpt lat="44.2879420" lon="7.4253300">
        <ele>719.6</ele>
        <time>2017-07-23T07:09:49Z</time>
      </trkpt>
      <trkpt lat="44.2878300" lon="7.4253270">
        <ele>720.4</ele>
        <time>2017-07-23T07:09:52Z</time>
      </trkpt>
      <trkpt lat="44.2877900" lon="7.4253260">
        <ele>720.6</ele>
        <time>2017-07-23T07:09:53Z</time>
      </trkpt>
      <trkpt lat="44.2876180" lon="7.4253070">
        <ele>721.2</ele>
        <time>2017-07-23T07:09:57Z</time>
      </trkpt>
      <trkpt lat="44.2875330" lon="7.4252790">
        <ele>721.6</ele>
        <time>2017-07-23T07:09:59Z</time>
      </trkpt>
      <trkpt lat="44.2874900" lon="7.4252600">
        <ele>721.6</ele>
        <time>2017-07-23T07:10:00Z</time>
      </trkpt>
      <trkpt lat="44.2871770" lon="7.4251160">
        <ele>722.8</ele>
        <time>2017-07-23T07:10:07Z</time>
      </trkpt>
      <trkpt lat="44.2869200" lon="7.4249540">
        <ele>723.6</ele>
        <time>2017-07-23T07:10:13Z</time>
      </trkpt>
      <trkpt lat="44.2868800" lon="7.4249220">
        <ele>723.8</ele>
        <time>2017-07-23T07:10:14Z</time>
      </trkpt>
      <trkpt lat="44.2866630" lon="7.4247320">
        <ele>724.2</ele>
        <time>2017-07-23T07:10:19Z</time>
      </trkpt>
      <trkpt lat="44.2865870" lon="7.4246640">
        <ele>724.6</ele>
        <time>2017-07-23T07:10:21Z</time>
      </trkpt>
      <trkpt lat="44.2865100" lon="7.4245770">
        <ele>724.8</ele>
        <time>2017-07-23T07:10:23Z</time>
      </trkpt>
      <trkpt lat="44.2864710" lon="7.4245340">
        <ele>725.0</ele>
        <time>2017-07-23T07:10:24Z</time>
      </trkpt>
      <trkpt lat="44.2863920" lon="7.4244680">
        <ele>725.2</ele>
        <time>2017-07-23T07:10:26Z</time>
      </trkpt>
      <trkpt lat="44.2862650" lon="7.4244060">
        <ele>725.4</ele>
        <time>2017-07-23T07:10:29Z</time>
      </trkpt>
      <trkpt lat="44.2861490" lon="7.4243820">
        <ele>726.0</ele>
        <time>2017-07-23T07:10:32Z</time>
      </trkpt>
      <trkpt lat="44.2860670" lon="7.4243490">
        <ele>726.6</ele>
        <time>2017-07-23T07:10:34Z</time>
      </trkpt>
      <trkpt lat="44.2860240" lon="7.4243230">
        <ele>726.8</ele>
        <time>2017-07-23T07:10:35Z</time>
      </trkpt>
      <trkpt lat="44.2859390" lon="7.4242530">
        <ele>727.0</ele>
        <time>2017-07-23T07:10:37Z</time>
      </trkpt>
      <trkpt lat="44.2858360" lon="7.4241110">
        <ele>727.4</ele>
        <time>2017-07-23T07:10:40Z</time>
      </trkpt>
      <trkpt lat="44.2856770" lon="7.4239660">
        <ele>727.6</ele>
        <time>2017-07-23T07:10:44Z</time>
      </trkpt>
      <trkpt lat="44.2856310" lon="7.4239560">
        <ele>727.6</ele>
        <time>2017-07-23T07:10:45Z</time>
      </trkpt>
      <trkpt lat="44.2855490" lon="7.4239500">
        <ele>728.2</ele>
        <time>2017-07-23T07:10:47Z</time>
      </trkpt>
      <trkpt lat="44.2853680" lon="7.4239290">
        <ele>729.0</ele>
        <time>2017-07-23T07:10:51Z</time>
      </trkpt>
      <trkpt lat="44.2852890" lon="7.4238830">
        <ele>729.2</ele>
        <time>2017-07-23T07:10:53Z</time>
      </trkpt>
      <trkpt lat="44.2851980" lon="7.4238110">
        <ele>730.2</ele>
        <time>2017-07-23T07:10:56Z</time>
      </trkpt>
      <trkpt lat="44.2851660" lon="7.4237830">
        <ele>730.4</ele>
        <time>2017-07-23T07:10:57Z</time>
      </trkpt>
      <trkpt lat="44.2850980" lon="7.4237170">
        <ele>731.2</ele>
        <time>2017-07-23T07:10:59Z</time>
      </trkpt>
      <trkpt lat="44.2850740" lon="7.4236750">
        <ele>731.4</ele>
        <time>2017-07-23T07:11:00Z</time>
      </trkpt>
      <trkpt lat="44.2850520" lon="7.4236320">
        <ele>731.6</ele>
        <time>2017-07-23T07:11:01Z</time>
      </trkpt>
      <trkpt lat="44.2849610" lon="7.4234610">
        <ele>732.4</ele>
        <time>2017-07-23T07:11:05Z</time>
      </trkpt>
      <trkpt lat="44.2849330" lon="7.4234180">
        <ele>732.6</ele>
        <time>2017-07-23T07:11:06Z</time>
      </trkpt>
      <trkpt lat="44.2848300" lon="7.4232790">
        <ele>733.0</ele>
        <time>2017-07-23T07:11:09Z</time>
      </trkpt>
      <trkpt lat="44.2847460" lon="7.4231710">
        <ele>733.2</ele>
        <time>2017-07-23T07:11:11Z</time>
      </trkpt>
      <trkpt lat="44.2845060" lon="7.4227740">
        <ele>733.4</ele>
        <time>2017-07-23T07:11:17Z</time>
      </trkpt>
      <trkpt lat="44.2843910" lon="7.4225910">
        <ele>733.4</ele>
        <time>2017-07-23T07:11:20Z</time>
      </trkpt>
      <trkpt lat="44.2842900" lon="7.4224920">
        <ele>733.2</ele>
        <time>2017-07-23T07:11:22Z</time>
      </trkpt>
      <trkpt lat="44.2842450" lon="7.4224340">
        <ele>733.2</ele>
        <time>2017-07-23T07:11:23Z</time>
      </trkpt>
      <trkpt lat="44.2840980" lon="7.4222460">
        <ele>732.6</ele>
        <time>2017-07-23T07:11:26Z</time>
      </trkpt>
      <trkpt lat="44.2839200" lon="7.4221480">
        <ele>732.4</ele>
        <time>2017-07-23T07:11:29Z</time>
      </trkpt>
      <trkpt lat="44.2838610" lon="7.4221120">
        <ele>732.4</ele>
        <time>2017-07-23T07:11:30Z</time>
      </trkpt>
      <trkpt lat="44.2838070" lon="7.4220690">
        <ele>732.4</ele>
        <time>2017-07-23T07:11:31Z</time>
      </trkpt>
      <trkpt lat="44.2837060" lon="7.4219810">
        <ele>732.4</ele>
        <time>2017-07-23T07:11:33Z</time>
      </trkpt>
      <trkpt lat="44.2836130" lon="7.4218930">
        <ele>732.2</ele>
        <time>2017-07-23T07:11:35Z</time>
      </trkpt>
      <trkpt lat="44.2833910" lon="7.4216940">
        <ele>732.8</ele>
        <time>2017-07-23T07:11:41Z</time>
      </trkpt>
      <trkpt lat="44.2833220" lon="7.4216260">
        <ele>733.2</ele>
        <time>2017-07-23T07:11:43Z</time>
      </trkpt>
      <trkpt lat="44.2832160" lon="7.4214930">
        <ele>733.4</ele>
        <time>2017-07-23T07:11:46Z</time>
      </trkpt>
      <trkpt lat="44.2829330" lon="7.4211540">
        <ele>733.4</ele>
        <time>2017-07-23T07:11:53Z</time>
      </trkpt>
      <trkpt lat="44.2827850" lon="7.4209450">
        <ele>733.4</ele>
        <time>2017-07-23T07:11:57Z</time>
      </trkpt>
      <trkpt lat="44.2827260" lon="7.4208360">
        <ele>733.6</ele>
        <time>2017-07-23T07:11:59Z</time>
      </trkpt>
      <trkpt lat="44.2826230" lon="7.4206070">
        <ele>733.6</ele>
        <time>2017-07-23T07:12:03Z</time>
      </trkpt>
      <trkpt lat="44.2826000" lon="7.4205530">
        <ele>733.8</ele>
        <time>2017-07-23T07:12:04Z</time>
      </trkpt>
      <trkpt lat="44.2824210" lon="7.4200670">
        <ele>734.4</ele>
        <time>2017-07-23T07:12:12Z</time>
      </trkpt>
      <trkpt lat="44.2823330" lon="7.4198640">
        <ele>734.6</ele>
        <time>2017-07-23T07:12:15Z</time>
      </trkpt>
      <trkpt lat="44.2821820" lon="7.4195360">
        <ele>735.0</ele>
        <time>2017-07-23T07:12:20Z</time>
      </trkpt>
      <trkpt lat="44.2821310" lon="7.4193920">
        <ele>735.0</ele>
        <time>2017-07-23T07:12:22Z</time>
      </trkpt>
      <trkpt lat="44.2820610" lon="7.4191680">
        <ele>735.0</ele>
        <time>2017-07-23T07:12:25Z</time>
      </trkpt>
      <trkpt lat="44.2819080" lon="7.4189090">
        <ele>734.8</ele>
        <time>2017-07-23T07:12:29Z</time>
      </trkpt>
      <trkpt lat="44.2817250" lon="7.4185640">
        <ele>734.4</ele>
        <time>2017-07-23T07:12:34Z</time>
      </trkpt>
      <trkpt lat="44.2815990" lon="7.4182570">
        <ele>734.4</ele>
        <time>2017-07-23T07:12:39Z</time>
      </trkpt>
      <trkpt lat="44.2814210" lon="7.4179890">
        <ele>734.8</ele>
        <time>2017-07-23T07:12:44Z</time>
      </trkpt>
      <trkpt lat="44.2813910" lon="7.4179260">
        <ele>734.8</ele>
        <time>2017-07-23T07:12:45Z</time>
      </trkpt>
      <trkpt lat="44.2813010" lon="7.4177480">
        <ele>735.2</ele>
        <time>2017-07-23T07:12:48Z</time>
      </trkpt>
      <trkpt lat="44.2812680" lon="7.4176940">
        <ele>735.2</ele>
        <time>2017-07-23T07:12:49Z</time>
      </trkpt>
      <trkpt lat="44.2810320" lon="7.4173120">
        <ele>735.4</ele>
        <time>2017-07-23T07:12:55Z</time>
      </trkpt>
      <trkpt lat="44.2809830" lon="7.4172530">
        <ele>735.6</ele>
        <time>2017-07-23T07:12:56Z</time>
      </trkpt>
      <trkpt lat="44.2808820" lon="7.4171610">
        <ele>735.6</ele>
        <time>2017-07-23T07:12:58Z</time>
      </trkpt>
      <trkpt lat="44.2807860" lon="7.4171020">
        <ele>735.6</ele>
        <time>2017-07-23T07:13:00Z</time>
      </trkpt>
      <trkpt lat="44.2806020" lon="7.4169890">
        <ele>735.8</ele>
        <time>2017-07-23T07:13:05Z</time>
      </trkpt>
      <trkpt lat="44.2804710" lon="7.4168650">
        <ele>736.8</ele>
        <time>2017-07-23T07:13:10Z</time>
      </trkpt>
      <trkpt lat="44.2804090" lon="7.4168170">
        <ele>737.4</ele>
        <time>2017-07-23T07:13:13Z</time>
      </trkpt>
      <trkpt lat="44.2803690" lon="7.4167850">
        <ele>738.0</ele>
        <time>2017-07-23T07:13:15Z</time>
      </trkpt>
      <trkpt lat="44.2803440" lon="7.4167660">
        <ele>738.4</ele>
        <time>2017-07-23T07:13:16Z</time>
      </trkpt>
      <trkpt lat="44.2802550" lon="7.4167110">
        <ele>739.0</ele>
        <time>2017-07-23T07:13:19Z</time>
      </trkpt>
      <trkpt lat="44.2802190" lon="7.4166970">
        <ele>739.4</ele>
        <time>2017-07-23T07:13:20Z</time>
      </trkpt>
      <trkpt lat="44.2801570" lon="7.4166730">
        <ele>740.2</ele>
        <time>2017-07-23T07:13:22Z</time>
      </trkpt>
      <trkpt lat="44.2801230" lon="7.4166550">
        <ele>740.4</ele>
        <time>2017-07-23T07:13:23Z</time>
      </trkpt>
      <trkpt lat="44.2800120" lon="7.4166070">
        <ele>740.6</ele>
        <time>2017-07-23T07:13:26Z</time>
      </trkpt>
      <trkpt lat="44.2799380" lon="7.4165600">
        <ele>740.6</ele>
        <time>2017-07-23T07:13:28Z</time>
      </trkpt>
      <trkpt lat="44.2798310" lon="7.4164710">
        <ele>740.8</ele>
        <time>2017-07-23T07:13:31Z</time>
      </trkpt>
      <trkpt lat="44.2797260" lon="7.4163830">
        <ele>740.8</ele>
        <time>2017-07-23T07:13:34Z</time>
      </trkpt>
      <trkpt lat="44.2795270" lon="7.4161430">
        <ele>741.6</ele>
        <time>2017-07-23T07:13:39Z</time>
      </trkpt>
      <trkpt lat="44.2792840" lon="7.4157620">
        <ele>741.4</ele>
        <time>2017-07-23T07:13:44Z</time>
      </trkpt>
      <trkpt lat="44.2792470" lon="7.4156790">
        <ele>741.6</ele>
        <time>2017-07-23T07:13:45Z</time>
      </trkpt>
      <trkpt lat="44.2791620" lon="7.4154390">
        <ele>741.6</ele>
        <time>2017-07-23T07:13:48Z</time>
      </trkpt>
      <trkpt lat="44.2790130" lon="7.4150940">
        <ele>741.4</ele>
        <time>2017-07-23T07:13:52Z</time>
      </trkpt>
      <trkpt lat="44.2789620" lon="7.4150060">
        <ele>741.2</ele>
        <time>2017-07-23T07:13:53Z</time>
      </trkpt>
      <trkpt lat="44.2788910" lon="7.4149190">
        <ele>741.0</ele>
        <time>2017-07-23T07:13:54Z</time>
      </trkpt>
      <trkpt lat="44.2788200" lon="7.4148360">
        <ele>740.6</ele>
        <time>2017-07-23T07:13:55Z</time>
      </trkpt>
      <trkpt lat="44.2787490" lon="7.4147640">
        <ele>740.4</ele>
        <time>2017-07-23T07:13:56Z</time>
      </trkpt>
      <trkpt lat="44.2786050" lon="7.4146360">
        <ele>740.2</ele>
        <time>2017-07-23T07:13:58Z</time>
      </trkpt>
      <trkpt lat="44.2784800" lon="7.4145140">
        <ele>739.8</ele>
        <time>2017-07-23T07:14:00Z</time>
      </trkpt>
      <trkpt lat="44.2784210" lon="7.4144510">
        <ele>739.8</ele>
        <time>2017-07-23T07:14:01Z</time>
      </trkpt>
      <trkpt lat="44.2781080" lon="7.4140750">
        <ele>740.2</ele>
        <time>2017-07-23T07:14:07Z</time>
      </trkpt>
      <trkpt lat="44.2777560" lon="7.4136120">
        <ele>741.2</ele>
        <time>2017-07-23T07:14:15Z</time>
      </trkpt>
      <trkpt lat="44.2775840" lon="7.4134490">
        <ele>741.8</ele>
        <time>2017-07-23T07:14:19Z</time>
      </trkpt>
      <trkpt lat="44.2775020" lon="7.4133500">
        <ele>741.8</ele>
        <time>2017-07-23T07:14:21Z</time>
      </trkpt>
      <trkpt lat="44.2774630" lon="7.4132950">
        <ele>742.0</ele>
        <time>2017-07-23T07:14:22Z</time>
      </trkpt>
      <trkpt lat="44.2772030" lon="7.4129020">
        <ele>742.8</ele>
        <time>2017-07-23T07:14:29Z</time>
      </trkpt>
      <trkpt lat="44.2769830" lon="7.4125120">
        <ele>743.0</ele>
        <time>2017-07-23T07:14:36Z</time>
      </trkpt>
      <trkpt lat="44.2767950" lon="7.4122130">
        <ele>743.4</ele>
        <time>2017-07-23T07:14:42Z</time>
      </trkpt>
      <trkpt lat="44.2765500" lon="7.4118780">
        <ele>743.8</ele>
        <time>2017-07-23T07:14:49Z</time>
      </trkpt>
      <trkpt lat="44.2764020" lon="7.4115340">
        <ele>744.0</ele>
        <time>2017-07-23T07:14:54Z</time>
      </trkpt>
      <trkpt lat="44.2762870" lon="7.4112130">
        <ele>744.6</ele>
        <time>2017-07-23T07:14:59Z</time>
      </trkpt>
      <trkpt lat="44.2762340" lon="7.4110860">
        <ele>744.8</ele>
        <time>2017-07-23T07:15:01Z</time>
      </trkpt>
      <trkpt lat="44.2761000" lon="7.4108220">
        <ele>745.2</ele>
        <time>2017-07-23T07:15:05Z</time>
      </trkpt>
      <trkpt lat="44.2759350" lon="7.4105110">
        <ele>745.6</ele>
        <time>2017-07-23T07:15:10Z</time>
      </trkpt>
      <trkpt lat="44.2758760" lon="7.4104130">
        <ele>746.0</ele>
        <time>2017-07-23T07:15:12Z</time>
      </trkpt>
      <trkpt lat="44.2756920" lon="7.4100930">
        <ele>746.4</ele>
        <time>2017-07-23T07:15:18Z</time>
      </trkpt>
      <trkpt lat="44.2754460" lon="7.4096890">
        <ele>747.0</ele>
        <time>2017-07-23T07:15:25Z</time>
      </trkpt>
      <trkpt lat="44.2753120" lon="7.4094120">
        <ele>747.6</ele>
        <time>2017-07-23T07:15:30Z</time>
      </trkpt>
      <trkpt lat="44.2752630" lon="7.4090960">
        <ele>748.2</ele>
        <time>2017-07-23T07:15:34Z</time>
      </trkpt>
      <trkpt lat="44.2752470" lon="7.4090130">
        <ele>748.2</ele>
        <time>2017-07-23T07:15:35Z</time>
      </trkpt>
      <trkpt lat="44.2752270" lon="7.4089380">
        <ele>748.2</ele>
        <time>2017-07-23T07:15:36Z</time>
      </trkpt>
      <trkpt lat="44.2751410" lon="7.4087170">
        <ele>748.2</ele>
        <time>2017-07-23T07:15:39Z</time>
      </trkpt>
      <trkpt lat="44.2750150" lon="7.4082910">
        <ele>748.8</ele>
        <time>2017-07-23T07:15:45Z</time>
      </trkpt>
      <trkpt lat="44.2749990" lon="7.4081480">
        <ele>749.2</ele>
        <time>2017-07-23T07:15:47Z</time>
      </trkpt>
      <trkpt lat="44.2749600" lon="7.4078980">
        <ele>749.6</ele>
        <time>2017-07-23T07:15:51Z</time>
      </trkpt>
      <trkpt lat="44.2748730" lon="7.4075450">
        <ele>750.4</ele>
        <time>2017-07-23T07:15:57Z</time>
      </trkpt>
      <trkpt lat="44.2748530" lon="7.4074870">
        <ele>750.6</ele>
        <time>2017-07-23T07:15:58Z</time>
      </trkpt>
      <trkpt lat="44.2747080" lon="7.4070750">
        <ele>750.8</ele>
        <time>2017-07-23T07:16:05Z</time>
      </trkpt>
      <trkpt lat="44.2746380" lon="7.4069690">
        <ele>750.8</ele>
        <time>2017-07-23T07:16:07Z</time>
      </trkpt>
      <trkpt lat="44.2745560" lon="7.4068880">
        <ele>750.8</ele>
        <time>2017-07-23T07:16:09Z</time>
      </trkpt>
      <trkpt lat="44.2742890" lon="7.4065650">
        <ele>751.4</ele>
        <time>2017-07-23T07:16:16Z</time>
      </trkpt>
      <trkpt lat="44.2740770" lon="7.4062750">
        <ele>751.6</ele>
        <time>2017-07-23T07:16:22Z</time>
      </trkpt>
      <trkpt lat="44.2739960" lon="7.4061290">
        <ele>752.0</ele>
        <time>2017-07-23T07:16:25Z</time>
      </trkpt>
      <trkpt lat="44.2739160" lon="7.4059770">
        <ele>752.2</ele>
        <time>2017-07-23T07:16:28Z</time>
      </trkpt>
      <trkpt lat="44.2738650" lon="7.4058720">
        <ele>752.4</ele>
        <time>2017-07-23T07:16:30Z</time>
      </trkpt>
      <trkpt lat="44.2737760" lon="7.4056910">
        <ele>753.2</ele>
        <time>2017-07-23T07:16:34Z</time>
      </trkpt>
      <trkpt lat="44.2737540" lon="7.4056500">
        <ele>753.4</ele>
        <time>2017-07-23T07:16:35Z</time>
      </trkpt>
      <trkpt lat="44.2736160" lon="7.4054280">
        <ele>754.4</ele>
        <time>2017-07-23T07:16:40Z</time>
      </trkpt>
      <trkpt lat="44.2735960" lon="7.4053810">
        <ele>754.6</ele>
        <time>2017-07-23T07:16:41Z</time>
      </trkpt>
      <trkpt lat="44.2735270" lon="7.4051650">
        <ele>755.6</ele>
        <time>2017-07-23T07:16:45Z</time>
      </trkpt>
      <trkpt lat="44.2735060" lon="7.4051150">
        <ele>755.8</ele>
        <time>2017-07-23T07:16:46Z</time>
      </trkpt>
      <trkpt lat="44.2734140" lon="7.4049260">
        <ele>756.8</ele>
        <time>2017-07-23T07:16:50Z</time>
      </trkpt>
      <trkpt lat="44.2733790" lon="7.4047700">
        <ele>757.6</ele>
        <time>2017-07-23T07:16:53Z</time>
      </trkpt>
      <trkpt lat="44.2733770" lon="7.4047180">
        <ele>757.8</ele>
        <time>2017-07-23T07:16:54Z</time>
      </trkpt>
      <trkpt lat="44.2733820" lon="7.4044890">
        <ele>759.0</ele>
        <time>2017-07-23T07:16:58Z</time>
      </trkpt>
      <trkpt lat="44.2733950" lon="7.4043600">
        <ele>759.6</ele>
        <time>2017-07-23T07:17:00Z</time>
      </trkpt>
      <trkpt lat="44.2734220" lon="7.4041410">
        <ele>760.0</ele>
        <time>2017-07-23T07:17:03Z</time>
      </trkpt>
      <trkpt lat="44.2734360" lon="7.4040520">
        <ele>760.2</ele>
        <time>2017-07-23T07:17:04Z</time>
      </trkpt>
      <trkpt lat="44.2734500" lon="7.4038680">
        <ele>760.4</ele>
        <time>2017-07-23T07:17:06Z</time>
      </trkpt>
      <trkpt lat="44.2734540" lon="7.4036650">
        <ele>760.2</ele>
        <time>2017-07-23T07:17:08Z</time>
      </trkpt>
      <trkpt lat="44.2734740" lon="7.4031130">
        <ele>759.6</ele>
        <time>2017-07-23T07:17:13Z</time>
      </trkpt>
      <trkpt lat="44.2735000" lon="7.4030130">
        <ele>759.4</ele>
        <time>2017-07-23T07:17:14Z</time>
      </trkpt>
      <trkpt lat="44.2735250" lon="7.4029200">
        <ele>759.2</ele>
        <time>2017-07-23T07:17:15Z</time>
      </trkpt>
      <trkpt lat="44.2736720" lon="7.4025830">
        <ele>758.6</ele>
        <time>2017-07-23T07:17:19Z</time>
      </trkpt>
      <trkpt lat="44.2738310" lon="7.4022830">
        <ele>758.4</ele>
        <time>2017-07-23T07:17:23Z</time>
      </trkpt>
      <trkpt lat="44.2738750" lon="7.4022220">
        <ele>758.4</ele>
        <time>2017-07-23T07:17:24Z</time>
      </trkpt>
      <trkpt lat="44.2740880" lon="7.4019040">
        <ele>758.2</ele>
        <time>2017-07-23T07:17:29Z</time>
      </trkpt>
      <trkpt lat="44.2741780" lon="7.4017650">
        <ele>758.2</ele>
        <time>2017-07-23T07:17:31Z</time>
      </trkpt>
      <trkpt lat="44.2742670" lon="7.4016320">
        <ele>758.0</ele>
        <time>2017-07-23T07:17:33Z</time>
      </trkpt>
      <trkpt lat="44.2744480" lon="7.4013810">
        <ele>757.8</ele>
        <time>2017-07-23T07:17:37Z</time>
      </trkpt>
      <trkpt lat="44.2745270" lon="7.4012470">
        <ele>757.8</ele>
        <time>2017-07-23T07:17:39Z</time>
      </trkpt>
      <trkpt lat="44.2747090" lon="7.4009650">
        <ele>757.8</ele>
        <time>2017-07-23T07:17:44Z</time>
      </trkpt>
      <trkpt lat="44.2747460" lon="7.4009120">
        <ele>757.8</ele>
        <time>2017-07-23T07:17:45Z</time>
      </trkpt>
      <trkpt lat="44.2749980" lon="7.4005170">
        <ele>757.4</ele>
        <time>2017-07-23T07:17:53Z</time>
      </trkpt>
      <trkpt lat="44.2751280" lon="7.4003190">
        <ele>757.4</ele>
        <time>2017-07-23T07:17:57Z</time>
      </trkpt>
      <trkpt lat="44.2751750" lon="7.4002090">
        <ele>757.6</ele>
        <time>2017-07-23T07:17:59Z</time>
      </trkpt>
      <trkpt lat="44.2752210" lon="7.4001020">
        <ele>757.8</ele>
        <time>2017-07-23T07:18:01Z</time>
      </trkpt>
      <trkpt lat="44.2752810" lon="7.4000110">
        <ele>758.0</ele>
        <time>2017-07-23T07:18:03Z</time>
      </trkpt>
      <trkpt lat="44.2753500" lon="7.3999270">
        <ele>758.0</ele>
        <time>2017-07-23T07:18:05Z</time>
      </trkpt>
      <trkpt lat="44.2754820" lon="7.3997490">
        <ele>758.6</ele>
        <time>2017-07-23T07:18:09Z</time>
      </trkpt>
      <trkpt lat="44.2755870" lon="7.3996240">
        <ele>758.6</ele>
        <time>2017-07-23T07:18:12Z</time>
      </trkpt>
      <trkpt lat="44.2757600" lon="7.3994110">
        <ele>759.2</ele>
        <time>2017-07-23T07:18:17Z</time>
      </trkpt>
      <trkpt lat="44.2758970" lon="7.3992360">
        <ele>759.8</ele>
        <time>2017-07-23T07:18:21Z</time>
      </trkpt>
      <trkpt lat="44.2760030" lon="7.3991080">
        <ele>760.2</ele>
        <time>2017-07-23T07:18:24Z</time>
      </trkpt>
      <trkpt lat="44.2761430" lon="7.3989400">
        <ele>760.8</ele>
        <time>2017-07-23T07:18:28Z</time>
      </trkpt>
      <trkpt lat="44.2762550" lon="7.3988220">
        <ele>761.2</ele>
        <time>2017-07-23T07:18:31Z</time>
      </trkpt>
      <trkpt lat="44.2763730" lon="7.3987140">
        <ele>762.0</ele>
        <time>2017-07-23T07:18:34Z</time>
      </trkpt>
      <trkpt lat="44.2764130" lon="7.3986790">
        <ele>762.2</ele>
        <time>2017-07-23T07:18:35Z</time>
      </trkpt>
      <trkpt lat="44.2766030" lon="7.3984920">
        <ele>763.6</ele>
        <time>2017-07-23T07:18:40Z</time>
      </trkpt>
      <trkpt lat="44.2766710" lon="7.3984180">
        <ele>764.0</ele>
        <time>2017-07-23T07:18:42Z</time>
      </trkpt>
      <trkpt lat="44.2767690" lon="7.3983180">
        <ele>764.6</ele>
        <time>2017-07-23T07:18:45Z</time>
      </trkpt>
      <trkpt lat="44.2769070" lon="7.3981910">
        <ele>765.6</ele>
        <time>2017-07-23T07:18:49Z</time>
      </trkpt>
      <trkpt lat="44.2769330" lon="7.3981470">
        <ele>765.8</ele>
        <time>2017-07-23T07:18:50Z</time>
      </trkpt>
      <trkpt lat="44.2769810" lon="7.3980150">
        <ele>766.8</ele>
        <time>2017-07-23T07:18:53Z</time>
      </trkpt>
      <trkpt lat="44.2769890" lon="7.3979730">
        <ele>767.2</ele>
        <time>2017-07-23T07:18:54Z</time>
      </trkpt>
      <trkpt lat="44.2769960" lon="7.3978350">
        <ele>768.4</ele>
        <time>2017-07-23T07:18:57Z</time>
      </trkpt>
      <trkpt lat="44.2770000" lon="7.3977350">
        <ele>769.4</ele>
        <time>2017-07-23T07:18:59Z</time>
      </trkpt>
      <trkpt lat="44.2770130" lon="7.3975840">
        <ele>770.4</ele>
        <time>2017-07-23T07:19:02Z</time>
      </trkpt>
      <trkpt lat="44.2770420" lon="7.3974500">
        <ele>771.6</ele>
        <time>2017-07-23T07:19:05Z</time>
      </trkpt>
      <trkpt lat="44.2771230" lon="7.3973030">
        <ele>772.8</ele>
        <time>2017-07-23T07:19:09Z</time>
      </trkpt>
      <trkpt lat="44.2771640" lon="7.3972270">
        <ele>773.4</ele>
        <time>2017-07-23T07:19:11Z</time>
      </trkpt>
      <trkpt lat="44.2771940" lon="7.3971500">
        <ele>774.0</ele>
        <time>2017-07-23T07:19:13Z</time>
      </trkpt>
      <trkpt lat="44.2772260" lon="7.3970680">
        <ele>774.6</ele>
        <time>2017-07-23T07:19:15Z</time>
      </trkpt>
      <trkpt lat="44.2772680" lon="7.3969910">
        <ele>775.2</ele>
        <time>2017-07-23T07:19:17Z</time>
      </trkpt>
      <trkpt lat="44.2773490" lon="7.3968460">
        <ele>776.4</ele>
        <time>2017-07-23T07:19:21Z</time>
      </trkpt>
      <trkpt lat="44.2773670" lon="7.3968080">
        <ele>777.0</ele>
        <time>2017-07-23T07:19:22Z</time>
      </trkpt>
      <trkpt lat="44.2774080" lon="7.3967400">
        <ele>777.4</ele>
        <time>2017-07-23T07:19:24Z</time>
      </trkpt>
      <trkpt lat="44.2774340" lon="7.3966140">
        <ele>778.2</ele>
        <time>2017-07-23T07:19:27Z</time>
      </trkpt>
      <trkpt lat="44.2774440" lon="7.3965720">
        <ele>778.6</ele>
        <time>2017-07-23T07:19:28Z</time>
      </trkpt>
      <trkpt lat="44.2774940" lon="7.3963570">
        <ele>779.8</ele>
        <time>2017-07-23T07:19:33Z</time>
      </trkpt>
      <trkpt lat="44.2774950" lon="7.3963190">
        <ele>780.2</ele>
        <time>2017-07-23T07:19:34Z</time>
      </trkpt>
      <trkpt lat="44.2774720" lon="7.3962450">
        <ele>781.0</ele>
        <time>2017-07-23T07:19:36Z</time>
      </trkpt>
      <trkpt lat="44.2774240" lon="7.3961850">
        <ele>781.4</ele>
        <time>2017-07-23T07:19:38Z</time>
      </trkpt>
      <trkpt lat="44.2773670" lon="7.3961260">
        <ele>782.2</ele>
        <time>2017-07-23T07:19:40Z</time>
      </trkpt>
      <trkpt lat="44.2773610" lon="7.3960730">
        <ele>782.4</ele>
        <time>2017-07-23T07:19:41Z</time>
      </trkpt>
      <trkpt lat="44.2773740" lon="7.3960290">
        <ele>782.6</ele>
        <time>2017-07-23T07:19:42Z</time>
      </trkpt>
      <trkpt lat="44.2774000" lon="7.3959340">
        <ele>783.2</ele>
        <time>2017-07-23T07:19:44Z</time>
      </trkpt>
      <trkpt lat="44.2774280" lon="7.3957930">
        <ele>784.2</ele>
        <time>2017-07-23T07:19:47Z</time>
      </trkpt>
      <trkpt lat="44.2774450" lon="7.3957130">
        <ele>784.8</ele>
        <time>2017-07-23T07:19:49Z</time>
      </trkpt>
      <trkpt lat="44.2774620" lon="7.3956350">
        <ele>785.4</ele>
        <time>2017-07-23T07:19:51Z</time>
      </trkpt>
      <trkpt lat="44.2774960" lon="7.3954890">
        <ele>786.4</ele>
        <time>2017-07-23T07:19:55Z</time>
      </trkpt>
      <trkpt lat="44.2775200" lon="7.3953740">
        <ele>787.6</ele>
        <time>2017-07-23T07:19:58Z</time>
      </trkpt>
      <trkpt lat="44.2775270" lon="7.3953370">
        <ele>788.0</ele>
        <time>2017-07-23T07:19:59Z</time>
      </trkpt>
      <trkpt lat="44.2775410" lon="7.3952650">
        <ele>788.6</ele>
        <time>2017-07-23T07:20:01Z</time>
      </trkpt>
      <trkpt lat="44.2775190" lon="7.3951140">
        <ele>789.8</ele>
        <time>2017-07-23T07:20:05Z</time>
      </trkpt>
      <trkpt lat="44.2774050" lon="7.3949770">
        <ele>791.4</ele>
        <time>2017-07-23T07:20:10Z</time>
      </trkpt>
      <trkpt lat="44.2773380" lon="7.3949060">
        <ele>792.4</ele>
        <time>2017-07-23T07:20:13Z</time>
      </trkpt>
      <trkpt lat="44.2772710" lon="7.3948360">
        <ele>793.6</ele>
        <time>2017-07-23T07:20:16Z</time>
      </trkpt>
      <trkpt lat="44.2772070" lon="7.3947600">
        <ele>794.8</ele>
        <time>2017-07-23T07:20:19Z</time>
      </trkpt>
      <trkpt lat="44.2771600" lon="7.3947030">
        <ele>795.4</ele>
        <time>2017-07-23T07:20:21Z</time>
      </trkpt>
      <trkpt lat="44.2771130" lon="7.3946220">
        <ele>796.0</ele>
        <time>2017-07-23T07:20:23Z</time>
      </trkpt>
      <trkpt lat="44.2770380" lon="7.3945260">
        <ele>796.4</ele>
        <time>2017-07-23T07:20:25Z</time>
      </trkpt>
      <trkpt lat="44.2768990" lon="7.3943100">
        <ele>797.0</ele>
        <time>2017-07-23T07:20:29Z</time>
      </trkpt>
      <trkpt lat="44.2768630" lon="7.3942580">
        <ele>797.0</ele>
        <time>2017-07-23T07:20:30Z</time>
      </trkpt>
      <trkpt lat="44.2768350" lon="7.3941990">
        <ele>797.2</ele>
        <time>2017-07-23T07:20:31Z</time>
      </trkpt>
      <trkpt lat="44.2767380" lon="7.3940170">
        <ele>797.4</ele>
        <time>2017-07-23T07:20:34Z</time>
      </trkpt>
      <trkpt lat="44.2766820" lon="7.3938860">
        <ele>797.4</ele>
        <time>2017-07-23T07:20:36Z</time>
      </trkpt>
      <trkpt lat="44.2765590" lon="7.3936140">
        <ele>797.4</ele>
        <time>2017-07-23T07:20:40Z</time>
      </trkpt>
      <trkpt lat="44.2765030" lon="7.3934530">
        <ele>797.4</ele>
        <time>2017-07-23T07:20:42Z</time>
      </trkpt>
      <trkpt lat="44.2764750" lon="7.3933670">
        <ele>797.4</ele>
        <time>2017-07-23T07:20:43Z</time>
      </trkpt>
      <trkpt lat="44.2764180" lon="7.3931880">
        <ele>797.2</ele>
        <time>2017-07-23T07:20:45Z</time>
      </trkpt>
      <trkpt lat="44.2763570" lon="7.3930030">
        <ele>797.0</ele>
        <time>2017-07-23T07:20:47Z</time>
      </trkpt>
      <trkpt lat="44.2763270" lon="7.3929140">
        <ele>796.8</ele>
        <time>2017-07-23T07:20:48Z</time>
      </trkpt>
      <trkpt lat="44.2762740" lon="7.3927180">
        <ele>796.6</ele>
        <time>2017-07-23T07:20:50Z</time>
      </trkpt>
      <trkpt lat="44.2762530" lon="7.3926130">
        <ele>796.4</ele>
        <time>2017-07-23T07:20:51Z</time>
      </trkpt>
      <trkpt lat="44.2762120" lon="7.3924170">
        <ele>796.2</ele>
        <time>2017-07-23T07:20:53Z</time>
      </trkpt>
      <trkpt lat="44.2761960" lon="7.3923180">
        <ele>796.2</ele>
        <time>2017-07-23T07:20:54Z</time>
      </trkpt>
      <trkpt lat="44.2761360" lon="7.3919380">
        <ele>796.0</ele>
        <time>2017-07-23T07:20:58Z</time>
      </trkpt>
      <trkpt lat="44.2761160" lon="7.3918740">
        <ele>796.0</ele>
        <time>2017-07-23T07:20:59Z</time>
      </trkpt>
      <trkpt lat="44.2761000" lon="7.3918100">
        <ele>795.8</ele>
        <time>2017-07-23T07:21:00Z</time>
      </trkpt>
      <trkpt lat="44.2760760" lon="7.3917470">
        <ele>795.8</ele>
        <time>2017-07-23T07:21:01Z</time>
      </trkpt>
      <trkpt lat="44.2761090" lon="7.3916620">
        <ele>795.8</ele>
        <time>2017-07-23T07:21:03Z</time>
      </trkpt>
      <trkpt lat="44.2761640" lon="7.3916170">
        <ele>795.8</ele>
        <time>2017-07-23T07:21:05Z</time>
      </trkpt>
      <trkpt lat="44.2762240" lon="7.3915960">
        <ele>796.2</ele>
        <time>2017-07-23T07:21:07Z</time>
      </trkpt>
      <trkpt lat="44.2762580" lon="7.3915940">
        <ele>796.4</ele>
        <time>2017-07-23T07:21:08Z</time>
      </trkpt>
      <trkpt lat="44.2763010" lon="7.3915880">
        <ele>796.4</ele>
        <time>2017-07-23T07:21:10Z</time>
      </trkpt>
      <trkpt lat="44.2763290" lon="7.3915790">
        <ele>796.6</ele>
        <time>2017-07-23T07:21:12Z</time>
      </trkpt>
      <trkpt lat="44.2763400" lon="7.3915580">
        <ele>796.8</ele>
        <time>2017-07-23T07:21:13Z</time>
      </trkpt>
      <trkpt lat="44.2763240" lon="7.3915160">
        <ele>797.2</ele>
        <time>2017-07-23T07:21:15Z</time>
      </trkpt>
      <trkpt lat="44.2763150" lon="7.3915010">
        <ele>797.4</ele>
        <time>2017-07-23T07:21:16Z</time>
      </trkpt>
      <trkpt lat="44.2762900" lon="7.3914740">
        <ele>797.6</ele>
        <time>2017-07-23T07:21:18Z</time>
      </trkpt>
      <trkpt lat="44.2762700" lon="7.3914610">
        <ele>798.4</ele>
        <time>2017-07-23T07:21:20Z</time>
      </trkpt>
      <trkpt lat="44.2762110" lon="7.3914110">
        <ele>800.6</ele>
        <time>2017-07-23T07:21:33Z</time>
      </trkpt>
      <trkpt lat="44.2761450" lon="7.3913800">
        <ele>801.4</ele>
        <time>2017-07-23T07:21:37Z</time>
      </trkpt>
      <trkpt lat="44.2761280" lon="7.3913770">
        <ele>801.6</ele>
        <time>2017-07-23T07:21:38Z</time>
      </trkpt>
      <trkpt lat="44.2760530" lon="7.3913640">
        <ele>802.2</ele>
        <time>2017-07-23T07:21:41Z</time>
      </trkpt>
      <trkpt lat="44.2759950" lon="7.3913500">
        <ele>802.6</ele>
        <time>2017-07-23T07:21:43Z</time>
      </trkpt>
      <trkpt lat="44.2758600" lon="7.3912910">
        <ele>803.2</ele>
        <time>2017-07-23T07:21:47Z</time>
      </trkpt>
      <trkpt lat="44.2758250" lon="7.3912440">
        <ele>803.8</ele>
        <time>2017-07-23T07:21:49Z</time>
      </trkpt>
      <trkpt lat="44.2757990" lon="7.3912270">
        <ele>804.0</ele>
        <time>2017-07-23T07:21:50Z</time>
      </trkpt>
      <trkpt lat="44.2757800" lon="7.3912160">
        <ele>804.0</ele>
        <time>2017-07-23T07:21:51Z</time>
      </trkpt>
      <trkpt lat="44.2757280" lon="7.3911300">
        <ele>805.4</ele>
        <time>2017-07-23T07:21:59Z</time>
      </trkpt>
      <trkpt lat="44.2756710" lon="7.3910660">
        <ele>806.6</ele>
        <time>2017-07-23T07:22:05Z</time>
      </trkpt>
      <trkpt lat="44.2756230" lon="7.3909790">
        <ele>807.6</ele>
        <time>2017-07-23T07:22:10Z</time>
      </trkpt>
      <trkpt lat="44.2755550" lon="7.3908710">
        <ele>808.8</ele>
        <time>2017-07-23T07:22:16Z</time>
      </trkpt>
      <trkpt lat="44.2755350" lon="7.3908260">
        <ele>810.0</ele>
        <time>2017-07-23T07:22:19Z</time>
      </trkpt>
      <trkpt lat="44.2755110" lon="7.3907880">
        <ele>810.6</ele>
        <time>2017-07-23T07:22:22Z</time>
      </trkpt>
      <trkpt lat="44.2754730" lon="7.3907410">
        <ele>811.0</ele>
        <time>2017-07-23T07:22:24Z</time>
      </trkpt>
      <trkpt lat="44.2754170" lon="7.3906790">
        <ele>811.6</ele>
        <time>2017-07-23T07:22:27Z</time>
      </trkpt>
      <trkpt lat="44.2753950" lon="7.3906510">
        <ele>812.0</ele>
        <time>2017-07-23T07:22:28Z</time>
      </trkpt>
      <trkpt lat="44.2753060" lon="7.3905240">
        <ele>812.6</ele>
        <time>2017-07-23T07:22:32Z</time>
      </trkpt>
      <trkpt lat="44.2752760" lon="7.3904720">
        <ele>813.4</ele>
        <time>2017-07-23T07:22:34Z</time>
      </trkpt>
      <trkpt lat="44.2751710" lon="7.3903370">
        <ele>814.2</ele>
        <time>2017-07-23T07:22:38Z</time>
      </trkpt>
      <trkpt lat="44.2751100" lon="7.3902590">
        <ele>814.6</ele>
        <time>2017-07-23T07:22:40Z</time>
      </trkpt>
      <trkpt lat="44.2750120" lon="7.3901580">
        <ele>815.0</ele>
        <time>2017-07-23T07:22:43Z</time>
      </trkpt>
      <trkpt lat="44.2749540" lon="7.3901020">
        <ele>815.2</ele>
        <time>2017-07-23T07:22:45Z</time>
      </trkpt>
      <trkpt lat="44.2748980" lon="7.3900220">
        <ele>815.6</ele>
        <time>2017-07-23T07:22:47Z</time>
      </trkpt>
      <trkpt lat="44.2747780" lon="7.3898990">
        <ele>816.2</ele>
        <time>2017-07-23T07:22:51Z</time>
      </trkpt>
      <trkpt lat="44.2746810" lon="7.3898050">
        <ele>816.6</ele>
        <time>2017-07-23T07:22:54Z</time>
      </trkpt>
      <trkpt lat="44.2746060" lon="7.3897420">
        <ele>816.8</ele>
        <time>2017-07-23T07:22:56Z</time>
      </trkpt>
      <trkpt lat="44.2744110" lon="7.3895040">
        <ele>817.4</ele>
        <time>2017-07-23T07:23:02Z</time>
      </trkpt>
      <trkpt lat="44.2743480" lon="7.3894090">
        <ele>817.6</ele>
        <time>2017-07-23T07:23:04Z</time>
      </trkpt>
      <trkpt lat="44.2742600" lon="7.3892720">
        <ele>817.8</ele>
        <time>2017-07-23T07:23:07Z</time>
      </trkpt>
      <trkpt lat="44.2742270" lon="7.3892320">
        <ele>817.8</ele>
        <time>2017-07-23T07:23:08Z</time>
      </trkpt>
      <trkpt lat="44.2741110" lon="7.3891230">
        <ele>818.2</ele>
        <time>2017-07-23T07:23:11Z</time>
      </trkpt>
      <trkpt lat="44.2740180" lon="7.3890550">
        <ele>818.2</ele>
        <time>2017-07-23T07:23:13Z</time>
      </trkpt>
      <trkpt lat="44.2738770" lon="7.3889460">
        <ele>818.4</ele>
        <time>2017-07-23T07:23:16Z</time>
      </trkpt>
      <trkpt lat="44.2736850" lon="7.3888060">
        <ele>818.6</ele>
        <time>2017-07-23T07:23:20Z</time>
      </trkpt>
      <trkpt lat="44.2735510" lon="7.3887080">
        <ele>818.8</ele>
        <time>2017-07-23T07:23:23Z</time>
      </trkpt>
      <trkpt lat="44.2733850" lon="7.3885530">
        <ele>819.0</ele>
        <time>2017-07-23T07:23:27Z</time>
      </trkpt>
      <trkpt lat="44.2732940" lon="7.3884850">
        <ele>819.0</ele>
        <time>2017-07-23T07:23:29Z</time>
      </trkpt>
      <trkpt lat="44.2732110" lon="7.3884170">
        <ele>819.0</ele>
        <time>2017-07-23T07:23:31Z</time>
      </trkpt>
      <trkpt lat="44.2731320" lon="7.3883630">
        <ele>819.0</ele>
        <time>2017-07-23T07:23:33Z</time>
      </trkpt>
      <trkpt lat="44.2730940" lon="7.3883380">
        <ele>819.0</ele>
        <time>2017-07-23T07:23:34Z</time>
      </trkpt>
      <trkpt lat="44.2729960" lon="7.3881980">
        <ele>819.2</ele>
        <time>2017-07-23T07:23:38Z</time>
      </trkpt>
      <trkpt lat="44.2728060" lon="7.3880630">
        <ele>819.4</ele>
        <time>2017-07-23T07:23:43Z</time>
      </trkpt>
      <trkpt lat="44.2726850" lon="7.3879650">
        <ele>819.6</ele>
        <time>2017-07-23T07:23:46Z</time>
      </trkpt>
      <trkpt lat="44.2726060" lon="7.3878920">
        <ele>819.6</ele>
        <time>2017-07-23T07:23:48Z</time>
      </trkpt>
      <trkpt lat="44.2725670" lon="7.3878580">
        <ele>819.6</ele>
        <time>2017-07-23T07:23:49Z</time>
      </trkpt>
      <trkpt lat="44.2724860" lon="7.3876820">
        <ele>819.6</ele>
        <time>2017-07-23T07:23:53Z</time>
      </trkpt>
      <trkpt lat="44.2724530" lon="7.3875140">
        <ele>819.8</ele>
        <time>2017-07-23T07:23:56Z</time>
      </trkpt>
      <trkpt lat="44.2724140" lon="7.3874170">
        <ele>820.0</ele>
        <time>2017-07-23T07:23:58Z</time>
      </trkpt>
      <trkpt lat="44.2722670" lon="7.3872820">
        <ele>819.8</ele>
        <time>2017-07-23T07:24:02Z</time>
      </trkpt>
      <trkpt lat="44.2721850" lon="7.3872210">
        <ele>819.8</ele>
        <time>2017-07-23T07:24:04Z</time>
      </trkpt>
      <trkpt lat="44.2720610" lon="7.3871440">
        <ele>819.8</ele>
        <time>2017-07-23T07:24:07Z</time>
      </trkpt>
      <trkpt lat="44.2719320" lon="7.3869360">
        <ele>819.6</ele>
        <time>2017-07-23T07:24:12Z</time>
      </trkpt>
      <trkpt lat="44.2718550" lon="7.3868630">
        <ele>819.4</ele>
        <time>2017-07-23T07:24:14Z</time>
      </trkpt>
      <trkpt lat="44.2717590" lon="7.3868020">
        <ele>819.2</ele>
        <time>2017-07-23T07:24:16Z</time>
      </trkpt>
      <trkpt lat="44.2714190" lon="7.3865270">
        <ele>819.4</ele>
        <time>2017-07-23T07:24:23Z</time>
      </trkpt>
      <trkpt lat="44.2711990" lon="7.3863370">
        <ele>819.2</ele>
        <time>2017-07-23T07:24:27Z</time>
      </trkpt>
      <trkpt lat="44.2711550" lon="7.3862800">
        <ele>819.2</ele>
        <time>2017-07-23T07:24:28Z</time>
      </trkpt>
      <trkpt lat="44.2710770" lon="7.3861670">
        <ele>819.0</ele>
        <time>2017-07-23T07:24:30Z</time>
      </trkpt>
      <trkpt lat="44.2709270" lon="7.3859400">
        <ele>818.8</ele>
        <time>2017-07-23T07:24:34Z</time>
      </trkpt>
      <trkpt lat="44.2708900" lon="7.3858990">
        <ele>818.6</ele>
        <time>2017-07-23T07:24:35Z</time>
      </trkpt>
      <trkpt lat="44.2707830" lon="7.3858320">
        <ele>818.6</ele>
        <time>2017-07-23T07:24:38Z</time>
      </trkpt>
      <trkpt lat="44.2707140" lon="7.3857930">
        <ele>818.6</ele>
        <time>2017-07-23T07:24:40Z</time>
      </trkpt>
      <trkpt lat="44.2706300" lon="7.3857340">
        <ele>818.4</ele>
        <time>2017-07-23T07:24:44Z</time>
      </trkpt>
      <trkpt lat="44.2705410" lon="7.3856140">
        <ele>818.6</ele>
        <time>2017-07-23T07:24:50Z</time>
      </trkpt>
      <trkpt lat="44.2705280" lon="7.3855820">
        <ele>818.6</ele>
        <time>2017-07-23T07:24:51Z</time>
      </trkpt>
      <trkpt lat="44.2703970" lon="7.3853300">
        <ele>818.6</ele>
        <time>2017-07-23T07:24:57Z</time>
      </trkpt>
      <trkpt lat="44.2702150" lon="7.3852000">
        <ele>819.2</ele>
        <time>2017-07-23T07:25:02Z</time>
      </trkpt>
      <trkpt lat="44.2699820" lon="7.3850640">
        <ele>819.4</ele>
        <time>2017-07-23T07:25:07Z</time>
      </trkpt>
      <trkpt lat="44.2699410" lon="7.3850310">
        <ele>819.2</ele>
        <time>2017-07-23T07:25:08Z</time>
      </trkpt>
      <trkpt lat="44.2697670" lon="7.3848980">
        <ele>819.6</ele>
        <time>2017-07-23T07:25:12Z</time>
      </trkpt>
      <trkpt lat="44.2695760" lon="7.3847550">
        <ele>819.8</ele>
        <time>2017-07-23T07:25:16Z</time>
      </trkpt>
      <trkpt lat="44.2693050" lon="7.3845480">
        <ele>819.8</ele>
        <time>2017-07-23T07:25:22Z</time>
      </trkpt>
      <trkpt lat="44.2691140" lon="7.3842970">
        <ele>819.8</ele>
        <time>2017-07-23T07:25:28Z</time>
      </trkpt>
      <trkpt lat="44.2689070" lon="7.3841020">
        <ele>820.2</ele>
        <time>2017-07-23T07:25:34Z</time>
      </trkpt>
      <trkpt lat="44.2686480" lon="7.3839300">
        <ele>820.2</ele>
        <time>2017-07-23T07:25:39Z</time>
      </trkpt>
      <trkpt lat="44.2684150" lon="7.3838460">
        <ele>820.8</ele>
        <time>2017-07-23T07:25:44Z</time>
      </trkpt>
      <trkpt lat="44.2683410" lon="7.3838220">
        <ele>821.0</ele>
        <time>2017-07-23T07:25:46Z</time>
      </trkpt>
      <trkpt lat="44.2680270" lon="7.3837760">
        <ele>821.4</ele>
        <time>2017-07-23T07:25:54Z</time>
      </trkpt>
      <trkpt lat="44.2676410" lon="7.3836910">
        <ele>821.6</ele>
        <time>2017-07-23T07:26:02Z</time>
      </trkpt>
      <trkpt lat="44.2675510" lon="7.3836290">
        <ele>821.6</ele>
        <time>2017-07-23T07:26:04Z</time>
      </trkpt>
      <trkpt lat="44.2674510" lon="7.3835070">
        <ele>821.8</ele>
        <time>2017-07-23T07:26:07Z</time>
      </trkpt>
      <trkpt lat="44.2674230" lon="7.3834590">
        <ele>821.8</ele>
        <time>2017-07-23T07:26:08Z</time>
      </trkpt>
      <trkpt lat="44.2672280" lon="7.3832090">
        <ele>822.2</ele>
        <time>2017-07-23T07:26:14Z</time>
      </trkpt>
      <trkpt lat="44.2670850" lon="7.3830450">
        <ele>822.2</ele>
        <time>2017-07-23T07:26:18Z</time>
      </trkpt>
      <trkpt lat="44.2669990" lon="7.3828820">
        <ele>822.2</ele>
        <time>2017-07-23T07:26:21Z</time>
      </trkpt>
      <trkpt lat="44.2669540" lon="7.3827690">
        <ele>822.2</ele>
        <time>2017-07-23T07:26:23Z</time>
      </trkpt>
      <trkpt lat="44.2669090" lon="7.3825750">
        <ele>822.0</ele>
        <time>2017-07-23T07:26:26Z</time>
      </trkpt>
      <trkpt lat="44.2668890" lon="7.3825030">
        <ele>821.8</ele>
        <time>2017-07-23T07:26:27Z</time>
      </trkpt>
      <trkpt lat="44.2668420" lon="7.3823780">
        <ele>822.0</ele>
        <time>2017-07-23T07:26:29Z</time>
      </trkpt>
      <trkpt lat="44.2667640" lon="7.3822290">
        <ele>822.0</ele>
        <time>2017-07-23T07:26:32Z</time>
      </trkpt>
      <trkpt lat="44.2665650" lon="7.3819000">
        <ele>822.0</ele>
        <time>2017-07-23T07:26:38Z</time>
      </trkpt>
      <trkpt lat="44.2665160" lon="7.3818430">
        <ele>822.0</ele>
        <time>2017-07-23T07:26:39Z</time>
      </trkpt>
      <trkpt lat="44.2663580" lon="7.3816470">
        <ele>822.0</ele>
        <time>2017-07-23T07:26:43Z</time>
      </trkpt>
      <trkpt lat="44.2663250" lon="7.3815960">
        <ele>821.6</ele>
        <time>2017-07-23T07:26:44Z</time>
      </trkpt>
      <trkpt lat="44.2662600" lon="7.3814860">
        <ele>821.6</ele>
        <time>2017-07-23T07:26:46Z</time>
      </trkpt>
      <trkpt lat="44.2661270" lon="7.3813130">
        <ele>821.6</ele>
        <time>2017-07-23T07:26:50Z</time>
      </trkpt>
      <trkpt lat="44.2659590" lon="7.3811730">
        <ele>821.4</ele>
        <time>2017-07-23T07:26:54Z</time>
      </trkpt>
      <trkpt lat="44.2658870" lon="7.3810940">
        <ele>821.4</ele>
        <time>2017-07-23T07:26:56Z</time>
      </trkpt>
      <trkpt lat="44.2656810" lon="7.3808220">
        <ele>821.2</ele>
        <time>2017-07-23T07:27:02Z</time>
      </trkpt>
      <trkpt lat="44.2655020" lon="7.3805960">
        <ele>820.8</ele>
        <time>2017-07-23T07:27:07Z</time>
      </trkpt>
      <trkpt lat="44.2654210" lon="7.3805040">
        <ele>820.6</ele>
        <time>2017-07-23T07:27:09Z</time>
      </trkpt>
      <trkpt lat="44.2653310" lon="7.3804370">
        <ele>820.2</ele>
        <time>2017-07-23T07:27:11Z</time>
      </trkpt>
      <trkpt lat="44.2652350" lon="7.3804350">
        <ele>820.2</ele>
        <time>2017-07-23T07:27:13Z</time>
      </trkpt>
      <trkpt lat="44.2650900" lon="7.3802930">
        <ele>820.2</ele>
        <time>2017-07-23T07:27:17Z</time>
      </trkpt>
      <trkpt lat="44.2649220" lon="7.3801620">
        <ele>820.0</ele>
        <time>2017-07-23T07:27:21Z</time>
      </trkpt>
      <trkpt lat="44.2648720" lon="7.3801100">
        <ele>819.6</ele>
        <time>2017-07-23T07:27:22Z</time>
      </trkpt>
      <trkpt lat="44.2648080" lon="7.3800520">
        <ele>819.0</ele>
        <time>2017-07-23T07:27:23Z</time>
      </trkpt>
      <trkpt lat="44.2647230" lon="7.3800050">
        <ele>818.4</ele>
        <time>2017-07-23T07:27:24Z</time>
      </trkpt>
      <trkpt lat="44.2645630" lon="7.3798750">
        <ele>817.4</ele>
        <time>2017-07-23T07:27:26Z</time>
      </trkpt>
      <trkpt lat="44.2644750" lon="7.3798130">
        <ele>817.0</ele>
        <time>2017-07-23T07:27:27Z</time>
      </trkpt>
      <trkpt lat="44.2643090" lon="7.3796980">
        <ele>816.2</ele>
        <time>2017-07-23T07:27:29Z</time>
      </trkpt>
      <trkpt lat="44.2642320" lon="7.3796250">
        <ele>815.8</ele>
        <time>2017-07-23T07:27:30Z</time>
      </trkpt>
      <trkpt lat="44.2641510" lon="7.3795630">
        <ele>815.2</ele>
        <time>2017-07-23T07:27:31Z</time>
      </trkpt>
      <trkpt lat="44.2640700" lon="7.3795070">
        <ele>814.6</ele>
        <time>2017-07-23T07:27:32Z</time>
      </trkpt>
      <trkpt lat="44.2638630" lon="7.3793110">
        <ele>813.8</ele>
        <time>2017-07-23T07:27:35Z</time>
      </trkpt>
      <trkpt lat="44.2637330" lon="7.3791810">
        <ele>812.2</ele>
        <time>2017-07-23T07:27:37Z</time>
      </trkpt>
      <trkpt lat="44.2636430" lon="7.3791620">
        <ele>811.4</ele>
        <time>2017-07-23T07:27:38Z</time>
      </trkpt>
      <trkpt lat="44.2635680" lon="7.3791180">
        <ele>810.8</ele>
        <time>2017-07-23T07:27:39Z</time>
      </trkpt>
      <trkpt lat="44.2635040" lon="7.3790590">
        <ele>810.4</ele>
        <time>2017-07-23T07:27:40Z</time>
      </trkpt>
      <trkpt lat="44.2634290" lon="7.3788900">
        <ele>809.2</ele>
        <time>2017-07-23T07:27:42Z</time>
      </trkpt>
      <trkpt lat="44.2633960" lon="7.3787980">
        <ele>808.8</ele>
        <time>2017-07-23T07:27:43Z</time>
      </trkpt>
      <trkpt lat="44.2633350" lon="7.3786100">
        <ele>808.0</ele>
        <time>2017-07-23T07:27:45Z</time>
      </trkpt>
      <trkpt lat="44.2632720" lon="7.3784320">
        <ele>807.0</ele>
        <time>2017-07-23T07:27:47Z</time>
      </trkpt>
      <trkpt lat="44.2632520" lon="7.3783430">
        <ele>807.0</ele>
        <time>2017-07-23T07:27:48Z</time>
      </trkpt>
      <trkpt lat="44.2632270" lon="7.3782550">
        <ele>806.8</ele>
        <time>2017-07-23T07:27:49Z</time>
      </trkpt>
      <trkpt lat="44.2631910" lon="7.3781800">
        <ele>806.4</ele>
        <time>2017-07-23T07:27:50Z</time>
      </trkpt>
      <trkpt lat="44.2631360" lon="7.3780230">
        <ele>806.0</ele>
        <time>2017-07-23T07:27:52Z</time>
      </trkpt>
      <trkpt lat="44.2631100" lon="7.3779430">
        <ele>805.6</ele>
        <time>2017-07-23T07:27:53Z</time>
      </trkpt>
      <trkpt lat="44.2630640" lon="7.3777840">
        <ele>805.4</ele>
        <time>2017-07-23T07:27:55Z</time>
      </trkpt>
      <trkpt lat="44.2629870" lon="7.3775340">
        <ele>805.2</ele>
        <time>2017-07-23T07:27:58Z</time>
      </trkpt>
      <trkpt lat="44.2629270" lon="7.3773840">
        <ele>804.8</ele>
        <time>2017-07-23T07:28:00Z</time>
      </trkpt>
      <trkpt lat="44.2628540" lon="7.3771740">
        <ele>804.8</ele>
        <time>2017-07-23T07:28:03Z</time>
      </trkpt>
      <trkpt lat="44.2627610" lon="7.3768900">
        <ele>805.2</ele>
        <time>2017-07-23T07:28:07Z</time>
      </trkpt>
      <trkpt lat="44.2627020" lon="7.3766760">
        <ele>805.6</ele>
        <time>2017-07-23T07:28:10Z</time>
      </trkpt>
      <trkpt lat="44.2626610" lon="7.3765270">
        <ele>805.8</ele>
        <time>2017-07-23T07:28:12Z</time>
      </trkpt>
      <trkpt lat="44.2626460" lon="7.3764480">
        <ele>805.8</ele>
        <time>2017-07-23T07:28:13Z</time>
      </trkpt>
      <trkpt lat="44.2626420" lon="7.3763650">
        <ele>806.0</ele>
        <time>2017-07-23T07:28:14Z</time>
      </trkpt>
      <trkpt lat="44.2626120" lon="7.3762100">
        <ele>806.2</ele>
        <time>2017-07-23T07:28:16Z</time>
      </trkpt>
      <trkpt lat="44.2625940" lon="7.3761360">
        <ele>806.2</ele>
        <time>2017-07-23T07:28:17Z</time>
      </trkpt>
      <trkpt lat="44.2625480" lon="7.3758350">
        <ele>807.0</ele>
        <time>2017-07-23T07:28:21Z</time>
      </trkpt>
      <trkpt lat="44.2625290" lon="7.3757660">
        <ele>807.0</ele>
        <time>2017-07-23T07:28:22Z</time>
      </trkpt>
      <trkpt lat="44.2625200" lon="7.3756890">
        <ele>807.2</ele>
        <time>2017-07-23T07:28:23Z</time>
      </trkpt>
      <trkpt lat="44.2624470" lon="7.3752470">
        <ele>808.0</ele>
        <time>2017-07-23T07:28:29Z</time>
      </trkpt>
      <trkpt lat="44.2624330" lon="7.3751780">
        <ele>808.2</ele>
        <time>2017-07-23T07:28:30Z</time>
      </trkpt>
      <trkpt lat="44.2623730" lon="7.3748330">
        <ele>809.2</ele>
        <time>2017-07-23T07:28:35Z</time>
      </trkpt>
      <trkpt lat="44.2623380" lon="7.3746350">
        <ele>809.8</ele>
        <time>2017-07-23T07:28:38Z</time>
      </trkpt>
      <trkpt lat="44.2623380" lon="7.3746350">
        <ele>810.2</ele>
        <time>2017-07-23T07:28:43Z</time>
      </trkpt>
      <trkpt lat="44.2623380" lon="7.3746350">
        <ele>810.6</ele>
        <time>2017-07-23T07:28:45Z</time>
      </trkpt>
      <trkpt lat="44.2621860" lon="7.3738550">
        <ele>811.2</ele>
        <time>2017-07-23T07:28:50Z</time>
      </trkpt>
      <trkpt lat="44.2620970" lon="7.3734080">
        <ele>812.4</ele>
        <time>2017-07-23T07:28:57Z</time>
      </trkpt>
      <trkpt lat="44.2620860" lon="7.3733450">
        <ele>812.4</ele>
        <time>2017-07-23T07:28:58Z</time>
      </trkpt>
      <trkpt lat="44.2620360" lon="7.3730970">
        <ele>813.4</ele>
        <time>2017-07-23T07:29:02Z</time>
      </trkpt>
      <trkpt lat="44.2619810" lon="7.3727410">
        <ele>814.4</ele>
        <time>2017-07-23T07:29:08Z</time>
      </trkpt>
      <trkpt lat="44.2619320" lon="7.3722580">
        <ele>815.6</ele>
        <time>2017-07-23T07:29:16Z</time>
      </trkpt>
      <trkpt lat="44.2619260" lon="7.3721970">
        <ele>815.8</ele>
        <time>2017-07-23T07:29:17Z</time>
      </trkpt>
      <trkpt lat="44.2618900" lon="7.3718870">
        <ele>816.6</ele>
        <time>2017-07-23T07:29:22Z</time>
      </trkpt>
      <trkpt lat="44.2618480" lon="7.3715270">
        <ele>817.8</ele>
        <time>2017-07-23T07:29:28Z</time>
      </trkpt>
      <trkpt lat="44.2618080" lon="7.3711450">
        <ele>819.0</ele>
        <time>2017-07-23T07:29:34Z</time>
      </trkpt>
      <trkpt lat="44.2617790" lon="7.3709050">
        <ele>819.6</ele>
        <time>2017-07-23T07:29:38Z</time>
      </trkpt>
      <trkpt lat="44.2617620" lon="7.3707180">
        <ele>820.0</ele>
        <time>2017-07-23T07:29:41Z</time>
      </trkpt>
      <trkpt lat="44.2617200" lon="7.3703560">
        <ele>821.4</ele>
        <time>2017-07-23T07:29:47Z</time>
      </trkpt>
      <trkpt lat="44.2617110" lon="7.3702350">
        <ele>821.8</ele>
        <time>2017-07-23T07:29:49Z</time>
      </trkpt>
      <trkpt lat="44.2616800" lon="7.3699160">
        <ele>822.4</ele>
        <time>2017-07-23T07:29:54Z</time>
      </trkpt>
      <trkpt lat="44.2616690" lon="7.3697930">
        <ele>822.8</ele>
        <time>2017-07-23T07:29:56Z</time>
      </trkpt>
      <trkpt lat="44.2616430" lon="7.3696000">
        <ele>823.6</ele>
        <time>2017-07-23T07:29:59Z</time>
      </trkpt>
      <trkpt lat="44.2616160" lon="7.3693070">
        <ele>824.8</ele>
        <time>2017-07-23T07:30:04Z</time>
      </trkpt>
      <trkpt lat="44.2616110" lon="7.3692490">
        <ele>825.0</ele>
        <time>2017-07-23T07:30:05Z</time>
      </trkpt>
      <trkpt lat="44.2615870" lon="7.3690920">
        <ele>822.4</ele>
        <time>2017-07-23T07:30:08Z</time>
      </trkpt>
      <trkpt lat="44.2615690" lon="7.3689370">
        <ele>825.6</ele>
        <time>2017-07-23T07:30:11Z</time>
      </trkpt>
      <trkpt lat="44.2615600" lon="7.3688300">
        <ele>826.2</ele>
        <time>2017-07-23T07:30:13Z</time>
      </trkpt>
      <trkpt lat="44.2615540" lon="7.3686470">
        <ele>826.8</ele>
        <time>2017-07-23T07:30:16Z</time>
      </trkpt>
      <trkpt lat="44.2615230" lon="7.3684340">
        <ele>827.2</ele>
        <time>2017-07-23T07:30:19Z</time>
      </trkpt>
      <trkpt lat="44.2614920" lon="7.3682380">
        <ele>827.8</ele>
        <time>2017-07-23T07:30:22Z</time>
      </trkpt>
      <trkpt lat="44.2614610" lon="7.3679290">
        <ele>828.6</ele>
        <time>2017-07-23T07:30:27Z</time>
      </trkpt>
      <trkpt lat="44.2614540" lon="7.3678080">
        <ele>828.8</ele>
        <time>2017-07-23T07:30:29Z</time>
      </trkpt>
      <trkpt lat="44.2614260" lon="7.3675070">
        <ele>829.6</ele>
        <time>2017-07-23T07:30:34Z</time>
      </trkpt>
      <trkpt lat="44.2614180" lon="7.3673870">
        <ele>830.0</ele>
        <time>2017-07-23T07:30:36Z</time>
      </trkpt>
      <trkpt lat="44.2613810" lon="7.3670950">
        <ele>831.0</ele>
        <time>2017-07-23T07:30:41Z</time>
      </trkpt>
      <trkpt lat="44.2613710" lon="7.3670360">
        <ele>831.2</ele>
        <time>2017-07-23T07:30:42Z</time>
      </trkpt>
      <trkpt lat="44.2613170" lon="7.3666780">
        <ele>832.2</ele>
        <time>2017-07-23T07:30:48Z</time>
      </trkpt>
      <trkpt lat="44.2613090" lon="7.3666180">
        <ele>832.6</ele>
        <time>2017-07-23T07:30:49Z</time>
      </trkpt>
      <trkpt lat="44.2612780" lon="7.3663140">
        <ele>833.2</ele>
        <time>2017-07-23T07:30:54Z</time>
      </trkpt>
      <trkpt lat="44.2612570" lon="7.3660680">
        <ele>834.0</ele>
        <time>2017-07-23T07:30:58Z</time>
      </trkpt>
      <trkpt lat="44.2612530" lon="7.3660070">
        <ele>834.4</ele>
        <time>2017-07-23T07:30:59Z</time>
      </trkpt>
      <trkpt lat="44.2612430" lon="7.3657000">
        <ele>835.4</ele>
        <time>2017-07-23T07:31:04Z</time>
      </trkpt>
      <trkpt lat="44.2612380" lon="7.3655780">
        <ele>835.8</ele>
        <time>2017-07-23T07:31:06Z</time>
      </trkpt>
      <trkpt lat="44.2612320" lon="7.3654570">
        <ele>836.2</ele>
        <time>2017-07-23T07:31:08Z</time>
      </trkpt>
      <trkpt lat="44.2612290" lon="7.3653390">
        <ele>836.6</ele>
        <time>2017-07-23T07:31:10Z</time>
      </trkpt>
      <trkpt lat="44.2612320" lon="7.3651550">
        <ele>837.0</ele>
        <time>2017-07-23T07:31:13Z</time>
      </trkpt>
      <trkpt lat="44.2612410" lon="7.3649720">
        <ele>837.8</ele>
        <time>2017-07-23T07:31:16Z</time>
      </trkpt>
      <trkpt lat="44.2612580" lon="7.3647080">
        <ele>838.8</ele>
        <time>2017-07-23T07:31:21Z</time>
      </trkpt>
      <trkpt lat="44.2612600" lon="7.3646610">
        <ele>839.0</ele>
        <time>2017-07-23T07:31:22Z</time>
      </trkpt>
      <trkpt lat="44.2612640" lon="7.3645140">
        <ele>839.8</ele>
        <time>2017-07-23T07:31:25Z</time>
      </trkpt>
      <trkpt lat="44.2613050" lon="7.3641040">
        <ele>841.0</ele>
        <time>2017-07-23T07:31:31Z</time>
      </trkpt>
      <trkpt lat="44.2613040" lon="7.3638190">
        <ele>841.6</ele>
        <time>2017-07-23T07:31:35Z</time>
      </trkpt>
      <trkpt lat="44.2613000" lon="7.3636850">
        <ele>842.0</ele>
        <time>2017-07-23T07:31:37Z</time>
      </trkpt>
      <trkpt lat="44.2613000" lon="7.3636210">
        <ele>842.2</ele>
        <time>2017-07-23T07:31:38Z</time>
      </trkpt>
      <trkpt lat="44.2613090" lon="7.3633040">
        <ele>843.0</ele>
        <time>2017-07-23T07:31:43Z</time>
      </trkpt>
      <trkpt lat="44.2613220" lon="7.3629860">
        <ele>844.2</ele>
        <time>2017-07-23T07:31:48Z</time>
      </trkpt>
      <trkpt lat="44.2613310" lon="7.3625400">
        <ele>845.2</ele>
        <time>2017-07-23T07:31:55Z</time>
      </trkpt>
      <trkpt lat="44.2613320" lon="7.3624120">
        <ele>845.6</ele>
        <time>2017-07-23T07:31:57Z</time>
      </trkpt>
      <trkpt lat="44.2613390" lon="7.3620900">
        <ele>846.4</ele>
        <time>2017-07-23T07:32:02Z</time>
      </trkpt>
      <trkpt lat="44.2613420" lon="7.3618370">
        <ele>847.0</ele>
        <time>2017-07-23T07:32:06Z</time>
      </trkpt>
      <trkpt lat="44.2613270" lon="7.3616970">
        <ele>847.4</ele>
        <time>2017-07-23T07:32:08Z</time>
      </trkpt>
      <trkpt lat="44.2613130" lon="7.3616250">
        <ele>847.6</ele>
        <time>2017-07-23T07:32:09Z</time>
      </trkpt>
      <trkpt lat="44.2612640" lon="7.3614250">
        <ele>848.0</ele>
        <time>2017-07-23T07:32:12Z</time>
      </trkpt>
      <trkpt lat="44.2611800" lon="7.3612330">
        <ele>848.4</ele>
        <time>2017-07-23T07:32:15Z</time>
      </trkpt>
      <trkpt lat="44.2610990" lon="7.3611200">
        <ele>848.6</ele>
        <time>2017-07-23T07:32:17Z</time>
      </trkpt>
      <trkpt lat="44.2607900" lon="7.3607330">
        <ele>848.2</ele>
        <time>2017-07-23T07:32:24Z</time>
      </trkpt>
      <trkpt lat="44.2605720" lon="7.3603480">
        <ele>848.4</ele>
        <time>2017-07-23T07:32:30Z</time>
      </trkpt>
      <trkpt lat="44.2604310" lon="7.3600730">
        <ele>848.6</ele>
        <time>2017-07-23T07:32:34Z</time>
      </trkpt>
      <trkpt lat="44.2602640" lon="7.3597400">
        <ele>849.2</ele>
        <time>2017-07-23T07:32:39Z</time>
      </trkpt>
      <trkpt lat="44.2601950" lon="7.3596080">
        <ele>849.6</ele>
        <time>2017-07-23T07:32:41Z</time>
      </trkpt>
      <trkpt lat="44.2600520" lon="7.3593380">
        <ele>849.8</ele>
        <time>2017-07-23T07:32:45Z</time>
      </trkpt>
      <trkpt lat="44.2597800" lon="7.3588170">
        <ele>850.6</ele>
        <time>2017-07-23T07:32:53Z</time>
      </trkpt>
      <trkpt lat="44.2597470" lon="7.3587490">
        <ele>850.6</ele>
        <time>2017-07-23T07:32:54Z</time>
      </trkpt>
      <trkpt lat="44.2597130" lon="7.3586840">
        <ele>850.6</ele>
        <time>2017-07-23T07:32:55Z</time>
      </trkpt>
      <trkpt lat="44.2594810" lon="7.3582220">
        <ele>851.6</ele>
        <time>2017-07-23T07:33:02Z</time>
      </trkpt>
      <trkpt lat="44.2594500" lon="7.3581590">
        <ele>851.6</ele>
        <time>2017-07-23T07:33:03Z</time>
      </trkpt>
      <trkpt lat="44.2592760" lon="7.3577980">
        <ele>852.6</ele>
        <time>2017-07-23T07:33:09Z</time>
      </trkpt>
      <trkpt lat="44.2592490" lon="7.3577410">
        <ele>852.8</ele>
        <time>2017-07-23T07:33:10Z</time>
      </trkpt>
      <trkpt lat="44.2590520" lon="7.3573550">
        <ele>854.0</ele>
        <time>2017-07-23T07:33:17Z</time>
      </trkpt>
      <trkpt lat="44.2589960" lon="7.3572410">
        <ele>854.4</ele>
        <time>2017-07-23T07:33:19Z</time>
      </trkpt>
      <trkpt lat="44.2589420" lon="7.3571260">
        <ele>855.0</ele>
        <time>2017-07-23T07:33:21Z</time>
      </trkpt>
      <trkpt lat="44.2589150" lon="7.3570680">
        <ele>855.2</ele>
        <time>2017-07-23T07:33:22Z</time>
      </trkpt>
      <trkpt lat="44.2588340" lon="7.3568970">
        <ele>855.8</ele>
        <time>2017-07-23T07:33:25Z</time>
      </trkpt>
      <trkpt lat="44.2588050" lon="7.3568420">
        <ele>856.0</ele>
        <time>2017-07-23T07:33:26Z</time>
      </trkpt>
      <trkpt lat="44.2586980" lon="7.3566250">
        <ele>856.6</ele>
        <time>2017-07-23T07:33:30Z</time>
      </trkpt>
      <trkpt lat="44.2585910" lon="7.3564090">
        <ele>856.8</ele>
        <time>2017-07-23T07:33:34Z</time>
      </trkpt>
      <trkpt lat="44.2584330" lon="7.3561020">
        <ele>857.0</ele>
        <time>2017-07-23T07:33:40Z</time>
      </trkpt>
      <trkpt lat="44.2583540" lon="7.3559500">
        <ele>857.0</ele>
        <time>2017-07-23T07:33:43Z</time>
      </trkpt>
      <trkpt lat="44.2581620" lon="7.3555800">
        <ele>858.2</ele>
        <time>2017-07-23T07:33:50Z</time>
      </trkpt>
      <trkpt lat="44.2581070" lon="7.3554710">
        <ele>858.6</ele>
        <time>2017-07-23T07:33:52Z</time>
      </trkpt>
      <trkpt lat="44.2580190" lon="7.3553060">
        <ele>859.2</ele>
        <time>2017-07-23T07:33:55Z</time>
      </trkpt>
      <trkpt lat="44.2578840" lon="7.3550300">
        <ele>860.4</ele>
        <time>2017-07-23T07:34:00Z</time>
      </trkpt>
      <trkpt lat="44.2577780" lon="7.3548170">
        <ele>861.4</ele>
        <time>2017-07-23T07:34:04Z</time>
      </trkpt>
      <trkpt lat="44.2576400" lon="7.3545440">
        <ele>862.6</ele>
        <time>2017-07-23T07:34:09Z</time>
      </trkpt>
      <trkpt lat="44.2576120" lon="7.3544890">
        <ele>862.6</ele>
        <time>2017-07-23T07:34:10Z</time>
      </trkpt>
      <trkpt lat="44.2573930" lon="7.3541340">
        <ele>863.6</ele>
        <time>2017-07-23T07:34:17Z</time>
      </trkpt>
      <trkpt lat="44.2573590" lon="7.3540910">
        <ele>863.8</ele>
        <time>2017-07-23T07:34:18Z</time>
      </trkpt>
      <trkpt lat="44.2571230" lon="7.3537880">
        <ele>864.6</ele>
        <time>2017-07-23T07:34:25Z</time>
      </trkpt>
      <trkpt lat="44.2570890" lon="7.3537390">
        <ele>864.8</ele>
        <time>2017-07-23T07:34:26Z</time>
      </trkpt>
      <trkpt lat="44.2568020" lon="7.3533800">
        <ele>865.6</ele>
        <time>2017-07-23T07:34:34Z</time>
      </trkpt>
      <trkpt lat="44.2567300" lon="7.3532870">
        <ele>865.8</ele>
        <time>2017-07-23T07:34:36Z</time>
      </trkpt>
      <trkpt lat="44.2565110" lon="7.3530070">
        <ele>866.8</ele>
        <time>2017-07-23T07:34:42Z</time>
      </trkpt>
      <trkpt lat="44.2564710" lon="7.3529670">
        <ele>866.8</ele>
        <time>2017-07-23T07:34:43Z</time>
      </trkpt>
      <trkpt lat="44.2562070" lon="7.3528060">
        <ele>867.8</ele>
        <time>2017-07-23T07:34:49Z</time>
      </trkpt>
      <trkpt lat="44.2559440" lon="7.3526790">
        <ele>869.0</ele>
        <time>2017-07-23T07:34:55Z</time>
      </trkpt>
      <trkpt lat="44.2558550" lon="7.3526340">
        <ele>869.4</ele>
        <time>2017-07-23T07:34:57Z</time>
      </trkpt>
      <trkpt lat="44.2557650" lon="7.3525870">
        <ele>870.0</ele>
        <time>2017-07-23T07:34:59Z</time>
      </trkpt>
      <trkpt lat="44.2554460" lon="7.3524010">
        <ele>871.2</ele>
        <time>2017-07-23T07:35:06Z</time>
      </trkpt>
      <trkpt lat="44.2552050" lon="7.3522760">
        <ele>871.4</ele>
        <time>2017-07-23T07:35:11Z</time>
      </trkpt>
      <trkpt lat="44.2549450" lon="7.3521370">
        <ele>871.4</ele>
        <time>2017-07-23T07:35:16Z</time>
      </trkpt>
      <trkpt lat="44.2548310" lon="7.3521030">
        <ele>871.6</ele>
        <time>2017-07-23T07:35:18Z</time>
      </trkpt>
      <trkpt lat="44.2546580" lon="7.3521280">
        <ele>871.6</ele>
        <time>2017-07-23T07:35:21Z</time>
      </trkpt>
      <trkpt lat="44.2542340" lon="7.3522360">
        <ele>871.6</ele>
        <time>2017-07-23T07:35:28Z</time>
      </trkpt>
      <trkpt lat="44.2540040" lon="7.3522780">
        <ele>871.4</ele>
        <time>2017-07-23T07:35:32Z</time>
      </trkpt>
      <trkpt lat="44.2538960" lon="7.3522580">
        <ele>871.6</ele>
        <time>2017-07-23T07:35:34Z</time>
      </trkpt>
      <trkpt lat="44.2537650" lon="7.3521090">
        <ele>871.4</ele>
        <time>2017-07-23T07:35:37Z</time>
      </trkpt>
      <trkpt lat="44.2537640" lon="7.3519230">
        <ele>871.6</ele>
        <time>2017-07-23T07:35:39Z</time>
      </trkpt>
      <trkpt lat="44.2538020" lon="7.3517530">
        <ele>871.8</ele>
        <time>2017-07-23T07:35:41Z</time>
      </trkpt>
      <trkpt lat="44.2538660" lon="7.3515110">
        <ele>872.2</ele>
        <time>2017-07-23T07:35:44Z</time>
      </trkpt>
      <trkpt lat="44.2538860" lon="7.3514340">
        <ele>872.4</ele>
        <time>2017-07-23T07:35:45Z</time>
      </trkpt>
      <trkpt lat="44.2540130" lon="7.3509950">
        <ele>873.6</ele>
        <time>2017-07-23T07:35:51Z</time>
      </trkpt>
      <trkpt lat="44.2540520" lon="7.3508580">
        <ele>874.0</ele>
        <time>2017-07-23T07:35:53Z</time>
      </trkpt>
      <trkpt lat="44.2541330" lon="7.3505210">
        <ele>874.6</ele>
        <time>2017-07-23T07:35:58Z</time>
      </trkpt>
      <trkpt lat="44.2541270" lon="7.3502540">
        <ele>875.4</ele>
        <time>2017-07-23T07:36:02Z</time>
      </trkpt>
      <trkpt lat="44.2541180" lon="7.3501880">
        <ele>875.6</ele>
        <time>2017-07-23T07:36:03Z</time>
      </trkpt>
      <trkpt lat="44.2541100" lon="7.3501240">
        <ele>875.8</ele>
        <time>2017-07-23T07:36:04Z</time>
      </trkpt>
      <trkpt lat="44.2540730" lon="7.3497340">
        <ele>876.8</ele>
        <time>2017-07-23T07:36:10Z</time>
      </trkpt>
      <trkpt lat="44.2540640" lon="7.3496700">
        <ele>877.0</ele>
        <time>2017-07-23T07:36:11Z</time>
      </trkpt>
      <trkpt lat="44.2540510" lon="7.3496070">
        <ele>877.2</ele>
        <time>2017-07-23T07:36:12Z</time>
      </trkpt>
      <trkpt lat="44.2539740" lon="7.3493730">
        <ele>877.6</ele>
        <time>2017-07-23T07:36:16Z</time>
      </trkpt>
      <trkpt lat="44.2539490" lon="7.3493190">
        <ele>877.8</ele>
        <time>2017-07-23T07:36:17Z</time>
      </trkpt>
      <trkpt lat="44.2539220" lon="7.3492670">
        <ele>877.8</ele>
        <time>2017-07-23T07:36:18Z</time>
      </trkpt>
      <trkpt lat="44.2538920" lon="7.3492160">
        <ele>878.2</ele>
        <time>2017-07-23T07:36:19Z</time>
      </trkpt>
      <trkpt lat="44.2537490" lon="7.3489440">
        <ele>879.0</ele>
        <time>2017-07-23T07:36:24Z</time>
      </trkpt>
      <trkpt lat="44.2537200" lon="7.3488880">
        <ele>879.2</ele>
        <time>2017-07-23T07:36:25Z</time>
      </trkpt>
      <trkpt lat="44.2535050" lon="7.3484680">
        <ele>880.2</ele>
        <time>2017-07-23T07:36:32Z</time>
      </trkpt>
      <trkpt lat="44.2534330" lon="7.3483640">
        <ele>880.2</ele>
        <time>2017-07-23T07:36:34Z</time>
      </trkpt>
      <trkpt lat="44.2532840" lon="7.3481560">
        <ele>880.2</ele>
        <time>2017-07-23T07:36:38Z</time>
      </trkpt>
      <trkpt lat="44.2532540" lon="7.3481010">
        <ele>880.4</ele>
        <time>2017-07-23T07:36:39Z</time>
      </trkpt>
      <trkpt lat="44.2531810" lon="7.3478680">
        <ele>880.8</ele>
        <time>2017-07-23T07:36:43Z</time>
      </trkpt>
      <trkpt lat="44.2531740" lon="7.3478080">
        <ele>881.0</ele>
        <time>2017-07-23T07:36:44Z</time>
      </trkpt>
      <trkpt lat="44.2531690" lon="7.3477460">
        <ele>881.4</ele>
        <time>2017-07-23T07:36:45Z</time>
      </trkpt>
      <trkpt lat="44.2531540" lon="7.3474600">
        <ele>882.6</ele>
        <time>2017-07-23T07:36:50Z</time>
      </trkpt>
      <trkpt lat="44.2531450" lon="7.3471970">
        <ele>883.6</ele>
        <time>2017-07-23T07:36:55Z</time>
      </trkpt>
      <trkpt lat="44.2531270" lon="7.3470470">
        <ele>884.6</ele>
        <time>2017-07-23T07:36:58Z</time>
      </trkpt>
      <trkpt lat="44.2531180" lon="7.3469970">
        <ele>885.2</ele>
        <time>2017-07-23T07:36:59Z</time>
      </trkpt>
      <trkpt lat="44.2530580" lon="7.3467650">
        <ele>886.4</ele>
        <time>2017-07-23T07:37:04Z</time>
      </trkpt>
      <trkpt lat="44.2530440" lon="7.3467220">
        <ele>886.6</ele>
        <time>2017-07-23T07:37:05Z</time>
      </trkpt>
      <trkpt lat="44.2529440" lon="7.3465330">
        <ele>887.4</ele>
        <time>2017-07-23T07:37:10Z</time>
      </trkpt>
      <trkpt lat="44.2529180" lon="7.3465010">
        <ele>887.6</ele>
        <time>2017-07-23T07:37:11Z</time>
      </trkpt>
      <trkpt lat="44.2527340" lon="7.3463380">
        <ele>888.4</ele>
        <time>2017-07-23T07:37:17Z</time>
      </trkpt>
      <trkpt lat="44.2527050" lon="7.3463110">
        <ele>888.4</ele>
        <time>2017-07-23T07:37:18Z</time>
      </trkpt>
      <trkpt lat="44.2525280" lon="7.3461800">
        <ele>889.2</ele>
        <time>2017-07-23T07:37:24Z</time>
      </trkpt>
      <trkpt lat="44.2524020" lon="7.3460880">
        <ele>889.6</ele>
        <time>2017-07-23T07:37:28Z</time>
      </trkpt>
      <trkpt lat="44.2523050" lon="7.3460080">
        <ele>889.8</ele>
        <time>2017-07-23T07:37:31Z</time>
      </trkpt>
      <trkpt lat="44.2521790" lon="7.3458340">
        <ele>890.8</ele>
        <time>2017-07-23T07:37:36Z</time>
      </trkpt>
      <trkpt lat="44.2521590" lon="7.3457950">
        <ele>891.2</ele>
        <time>2017-07-23T07:37:37Z</time>
      </trkpt>
      <trkpt lat="44.2521280" lon="7.3457050">
        <ele>892.0</ele>
        <time>2017-07-23T07:37:39Z</time>
      </trkpt>
      <trkpt lat="44.2520970" lon="7.3455670">
        <ele>893.0</ele>
        <time>2017-07-23T07:37:42Z</time>
      </trkpt>
      <trkpt lat="44.2520890" lon="7.3455210">
        <ele>893.4</ele>
        <time>2017-07-23T07:37:43Z</time>
      </trkpt>
      <trkpt lat="44.2520810" lon="7.3454760">
        <ele>893.8</ele>
        <time>2017-07-23T07:37:44Z</time>
      </trkpt>
      <trkpt lat="44.2520700" lon="7.3454310">
        <ele>894.2</ele>
        <time>2017-07-23T07:37:45Z</time>
      </trkpt>
      <trkpt lat="44.2520440" lon="7.3453440">
        <ele>895.4</ele>
        <time>2017-07-23T07:37:47Z</time>
      </trkpt>
      <trkpt lat="44.2520050" lon="7.3452300">
        <ele>896.8</ele>
        <time>2017-07-23T07:37:50Z</time>
      </trkpt>
      <trkpt lat="44.2519950" lon="7.3451940">
        <ele>897.2</ele>
        <time>2017-07-23T07:37:51Z</time>
      </trkpt>
      <trkpt lat="44.2519750" lon="7.3451030">
        <ele>898.0</ele>
        <time>2017-07-23T07:37:53Z</time>
      </trkpt>
      <trkpt lat="44.2519360" lon="7.3449780">
        <ele>899.2</ele>
        <time>2017-07-23T07:37:56Z</time>
      </trkpt>
      <trkpt lat="44.2519100" lon="7.3448990">
        <ele>900.0</ele>
        <time>2017-07-23T07:37:58Z</time>
      </trkpt>
      <trkpt lat="44.2518980" lon="7.3448550">
        <ele>900.4</ele>
        <time>2017-07-23T07:37:59Z</time>
      </trkpt>
      <trkpt lat="44.2518610" lon="7.3446620">
        <ele>901.6</ele>
        <time>2017-07-23T07:38:03Z</time>
      </trkpt>
      <trkpt lat="44.2518360" lon="7.3445140">
        <ele>902.6</ele>
        <time>2017-07-23T07:38:06Z</time>
      </trkpt>
      <trkpt lat="44.2518290" lon="7.3444660">
        <ele>902.8</ele>
        <time>2017-07-23T07:38:07Z</time>
      </trkpt>
      <trkpt lat="44.2518130" lon="7.3442710">
        <ele>904.2</ele>
        <time>2017-07-23T07:38:11Z</time>
      </trkpt>
      <trkpt lat="44.2518160" lon="7.3441680">
        <ele>904.8</ele>
        <time>2017-07-23T07:38:13Z</time>
      </trkpt>
      <trkpt lat="44.2518430" lon="7.3439600">
        <ele>905.4</ele>
        <time>2017-07-23T07:38:17Z</time>
      </trkpt>
      <trkpt lat="44.2518560" lon="7.3438040">
        <ele>906.2</ele>
        <time>2017-07-23T07:38:20Z</time>
      </trkpt>
      <trkpt lat="44.2518600" lon="7.3437050">
        <ele>906.6</ele>
        <time>2017-07-23T07:38:22Z</time>
      </trkpt>
      <trkpt lat="44.2518610" lon="7.3434060">
        <ele>908.0</ele>
        <time>2017-07-23T07:38:28Z</time>
      </trkpt>
      <trkpt lat="44.2518790" lon="7.3432070">
        <ele>909.0</ele>
        <time>2017-07-23T07:38:32Z</time>
      </trkpt>
      <trkpt lat="44.2518950" lon="7.3430500">
        <ele>910.2</ele>
        <time>2017-07-23T07:38:35Z</time>
      </trkpt>
      <trkpt lat="44.2518750" lon="7.3427860">
        <ele>911.2</ele>
        <time>2017-07-23T07:38:40Z</time>
      </trkpt>
      <trkpt lat="44.2518670" lon="7.3427380">
        <ele>911.6</ele>
        <time>2017-07-23T07:38:41Z</time>
      </trkpt>
      <trkpt lat="44.2518230" lon="7.3425440">
        <ele>912.4</ele>
        <time>2017-07-23T07:38:45Z</time>
      </trkpt>
      <trkpt lat="44.2517930" lon="7.3424460">
        <ele>913.0</ele>
        <time>2017-07-23T07:38:47Z</time>
      </trkpt>
      <trkpt lat="44.2517420" lon="7.3422980">
        <ele>913.6</ele>
        <time>2017-07-23T07:38:50Z</time>
      </trkpt>
      <trkpt lat="44.2516980" lon="7.3421610">
        <ele>914.4</ele>
        <time>2017-07-23T07:38:53Z</time>
      </trkpt>
      <trkpt lat="44.2516700" lon="7.3420670">
        <ele>914.8</ele>
        <time>2017-07-23T07:38:55Z</time>
      </trkpt>
      <trkpt lat="44.2516030" lon="7.3418650">
        <ele>915.8</ele>
        <time>2017-07-23T07:38:59Z</time>
      </trkpt>
      <trkpt lat="44.2515840" lon="7.3418110">
        <ele>916.0</ele>
        <time>2017-07-23T07:39:00Z</time>
      </trkpt>
      <trkpt lat="44.2514610" lon="7.3414610">
        <ele>917.2</ele>
        <time>2017-07-23T07:39:07Z</time>
      </trkpt>
      <trkpt lat="44.2513640" lon="7.3411720">
        <ele>918.2</ele>
        <time>2017-07-23T07:39:13Z</time>
      </trkpt>
      <trkpt lat="44.2513370" lon="7.3410860">
        <ele>918.4</ele>
        <time>2017-07-23T07:39:15Z</time>
      </trkpt>
      <trkpt lat="44.2512470" lon="7.3408120">
        <ele>919.2</ele>
        <time>2017-07-23T07:39:21Z</time>
      </trkpt>
      <trkpt lat="44.2512340" lon="7.3407650">
        <ele>919.4</ele>
        <time>2017-07-23T07:39:22Z</time>
      </trkpt>
      <trkpt lat="44.2511540" lon="7.3405590">
        <ele>920.2</ele>
        <time>2017-07-23T07:39:27Z</time>
      </trkpt>
      <trkpt lat="44.2511370" lon="7.3405140">
        <ele>920.4</ele>
        <time>2017-07-23T07:39:28Z</time>
      </trkpt>
      <trkpt lat="44.2509800" lon="7.3402440">
        <ele>921.0</ele>
        <time>2017-07-23T07:39:35Z</time>
      </trkpt>
      <trkpt lat="44.2509240" lon="7.3401660">
        <ele>921.4</ele>
        <time>2017-07-23T07:39:37Z</time>
      </trkpt>
      <trkpt lat="44.2507670" lon="7.3399370">
        <ele>922.2</ele>
        <time>2017-07-23T07:39:43Z</time>
      </trkpt>
      <trkpt lat="44.2507400" lon="7.3398980">
        <ele>922.4</ele>
        <time>2017-07-23T07:39:44Z</time>
      </trkpt>
      <trkpt lat="44.2505880" lon="7.3396600">
        <ele>923.2</ele>
        <time>2017-07-23T07:39:50Z</time>
      </trkpt>
      <trkpt lat="44.2505650" lon="7.3396180">
        <ele>923.6</ele>
        <time>2017-07-23T07:39:51Z</time>
      </trkpt>
      <trkpt lat="44.2504520" lon="7.3394240">
        <ele>924.4</ele>
        <time>2017-07-23T07:39:56Z</time>
      </trkpt>
      <trkpt lat="44.2504150" lon="7.3393440">
        <ele>924.6</ele>
        <time>2017-07-23T07:39:58Z</time>
      </trkpt>
      <trkpt lat="44.2503310" lon="7.3391930">
        <ele>925.8</ele>
        <time>2017-07-23T07:40:02Z</time>
      </trkpt>
      <trkpt lat="44.2502640" lon="7.3390600">
        <ele>927.0</ele>
        <time>2017-07-23T07:40:06Z</time>
      </trkpt>
      <trkpt lat="44.2502400" lon="7.3389870">
        <ele>927.6</ele>
        <time>2017-07-23T07:40:08Z</time>
      </trkpt>
      <trkpt lat="44.2502330" lon="7.3389440">
        <ele>928.0</ele>
        <time>2017-07-23T07:40:09Z</time>
      </trkpt>
      <trkpt lat="44.2502120" lon="7.3388030">
        <ele>929.0</ele>
        <time>2017-07-23T07:40:12Z</time>
      </trkpt>
      <trkpt lat="44.2501920" lon="7.3386570">
        <ele>929.6</ele>
        <time>2017-07-23T07:40:15Z</time>
      </trkpt>
      <trkpt lat="44.2501830" lon="7.3385580">
        <ele>930.2</ele>
        <time>2017-07-23T07:40:17Z</time>
      </trkpt>
      <trkpt lat="44.2501840" lon="7.3383030">
        <ele>931.4</ele>
        <time>2017-07-23T07:40:22Z</time>
      </trkpt>
      <trkpt lat="44.2501820" lon="7.3382480">
        <ele>931.6</ele>
        <time>2017-07-23T07:40:23Z</time>
      </trkpt>
      <trkpt lat="44.2501720" lon="7.3380310">
        <ele>932.4</ele>
        <time>2017-07-23T07:40:27Z</time>
      </trkpt>
      <trkpt lat="44.2501710" lon="7.3379240">
        <ele>932.8</ele>
        <time>2017-07-23T07:40:29Z</time>
      </trkpt>
      <trkpt lat="44.2501720" lon="7.3377100">
        <ele>933.6</ele>
        <time>2017-07-23T07:40:33Z</time>
      </trkpt>
      <trkpt lat="44.2501640" lon="7.3374290">
        <ele>934.2</ele>
        <time>2017-07-23T07:40:38Z</time>
      </trkpt>
      <trkpt lat="44.2501620" lon="7.3373120">
        <ele>934.6</ele>
        <time>2017-07-23T07:40:40Z</time>
      </trkpt>
      <trkpt lat="44.2501550" lon="7.3371460">
        <ele>935.2</ele>
        <time>2017-07-23T07:40:43Z</time>
      </trkpt>
      <trkpt lat="44.2501450" lon="7.3370330">
        <ele>935.2</ele>
        <time>2017-07-23T07:40:45Z</time>
      </trkpt>
      <trkpt lat="44.2501310" lon="7.3368600">
        <ele>935.8</ele>
        <time>2017-07-23T07:40:48Z</time>
      </trkpt>
      <trkpt lat="44.2501230" lon="7.3366180">
        <ele>936.4</ele>
        <time>2017-07-23T07:40:52Z</time>
      </trkpt>
      <trkpt lat="44.2501170" lon="7.3364460">
        <ele>936.8</ele>
        <time>2017-07-23T07:40:55Z</time>
      </trkpt>
      <trkpt lat="44.2501240" lon="7.3361520">
        <ele>937.8</ele>
        <time>2017-07-23T07:41:00Z</time>
      </trkpt>
      <trkpt lat="44.2501230" lon="7.3360920">
        <ele>937.8</ele>
        <time>2017-07-23T07:41:01Z</time>
      </trkpt>
      <trkpt lat="44.2500950" lon="7.3357970">
        <ele>938.6</ele>
        <time>2017-07-23T07:41:06Z</time>
      </trkpt>
      <trkpt lat="44.2500770" lon="7.3356770">
        <ele>939.0</ele>
        <time>2017-07-23T07:41:08Z</time>
      </trkpt>
      <trkpt lat="44.2500230" lon="7.3353080">
        <ele>939.8</ele>
        <time>2017-07-23T07:41:14Z</time>
      </trkpt>
      <trkpt lat="44.2500140" lon="7.3352510">
        <ele>940.0</ele>
        <time>2017-07-23T07:41:15Z</time>
      </trkpt>
      <trkpt lat="44.2499650" lon="7.3349570">
        <ele>941.2</ele>
        <time>2017-07-23T07:41:20Z</time>
      </trkpt>
      <trkpt lat="44.2499330" lon="7.3347740">
        <ele>941.6</ele>
        <time>2017-07-23T07:41:23Z</time>
      </trkpt>
      <trkpt lat="44.2499250" lon="7.3347140">
        <ele>942.2</ele>
        <time>2017-07-23T07:41:24Z</time>
      </trkpt>
      <trkpt lat="44.2498880" lon="7.3345300">
        <ele>942.8</ele>
        <time>2017-07-23T07:41:27Z</time>
      </trkpt>
      <trkpt lat="44.2498630" lon="7.3344110">
        <ele>943.2</ele>
        <time>2017-07-23T07:41:29Z</time>
      </trkpt>
      <trkpt lat="44.2498490" lon="7.3343490">
        <ele>943.2</ele>
        <time>2017-07-23T07:41:30Z</time>
      </trkpt>
      <trkpt lat="44.2498290" lon="7.3342850">
        <ele>943.4</ele>
        <time>2017-07-23T07:41:31Z</time>
      </trkpt>
      <trkpt lat="44.2497390" lon="7.3340350">
        <ele>943.8</ele>
        <time>2017-07-23T07:41:35Z</time>
      </trkpt>
      <trkpt lat="44.2495330" lon="7.3335590">
        <ele>944.0</ele>
        <time>2017-07-23T07:41:42Z</time>
      </trkpt>
      <trkpt lat="44.2493540" lon="7.3331370">
        <ele>944.2</ele>
        <time>2017-07-23T07:41:48Z</time>
      </trkpt>
      <trkpt lat="44.2492620" lon="7.3329150">
        <ele>944.2</ele>
        <time>2017-07-23T07:41:51Z</time>
      </trkpt>
      <trkpt lat="44.2491040" lon="7.3325420">
        <ele>944.2</ele>
        <time>2017-07-23T07:41:56Z</time>
      </trkpt>
      <trkpt lat="44.2490100" lon="7.3323220">
        <ele>944.4</ele>
        <time>2017-07-23T07:41:59Z</time>
      </trkpt>
      <trkpt lat="44.2488980" lon="7.3319990">
        <ele>944.4</ele>
        <time>2017-07-23T07:42:03Z</time>
      </trkpt>
      <trkpt lat="44.2488400" lon="7.3317400">
        <ele>944.6</ele>
        <time>2017-07-23T07:42:06Z</time>
      </trkpt>
      <trkpt lat="44.2486920" lon="7.3311480">
        <ele>944.8</ele>
        <time>2017-07-23T07:42:13Z</time>
      </trkpt>
      <trkpt lat="44.2486620" lon="7.3310750">
        <ele>944.8</ele>
        <time>2017-07-23T07:42:14Z</time>
      </trkpt>
      <trkpt lat="44.2485110" lon="7.3308070">
        <ele>944.4</ele>
        <time>2017-07-23T07:42:18Z</time>
      </trkpt>
      <trkpt lat="44.2482340" lon="7.3304910">
        <ele>943.8</ele>
        <time>2017-07-23T07:42:24Z</time>
      </trkpt>
      <trkpt lat="44.2481910" lon="7.3304410">
        <ele>943.8</ele>
        <time>2017-07-23T07:42:25Z</time>
      </trkpt>
      <trkpt lat="44.2479770" lon="7.3301970">
        <ele>943.8</ele>
        <time>2017-07-23T07:42:30Z</time>
      </trkpt>
      <trkpt lat="44.2476720" lon="7.3298520">
        <ele>944.2</ele>
        <time>2017-07-23T07:42:37Z</time>
      </trkpt>
      <trkpt lat="44.2474000" lon="7.3294630">
        <ele>944.2</ele>
        <time>2017-07-23T07:42:44Z</time>
      </trkpt>
      <trkpt lat="44.2472690" lon="7.3290390">
        <ele>945.2</ele>
        <time>2017-07-23T07:42:50Z</time>
      </trkpt>
      <trkpt lat="44.2472340" lon="7.3287420">
        <ele>946.4</ele>
        <time>2017-07-23T07:42:54Z</time>
      </trkpt>
      <trkpt lat="44.2471940" lon="7.3284440">
        <ele>947.2</ele>
        <time>2017-07-23T07:42:58Z</time>
      </trkpt>
      <trkpt lat="44.2471860" lon="7.3283670">
        <ele>947.4</ele>
        <time>2017-07-23T07:42:59Z</time>
      </trkpt>
      <trkpt lat="44.2471620" lon="7.3280640">
        <ele>948.6</ele>
        <time>2017-07-23T07:43:03Z</time>
      </trkpt>
      <trkpt lat="44.2471480" lon="7.3279150">
        <ele>949.0</ele>
        <time>2017-07-23T07:43:05Z</time>
      </trkpt>
      <trkpt lat="44.2471050" lon="7.3276100">
        <ele>949.6</ele>
        <time>2017-07-23T07:43:09Z</time>
      </trkpt>
      <trkpt lat="44.2470560" lon="7.3271550">
        <ele>950.6</ele>
        <time>2017-07-23T07:43:15Z</time>
      </trkpt>
      <trkpt lat="44.2469930" lon="7.3266450">
        <ele>951.8</ele>
        <time>2017-07-23T07:43:22Z</time>
      </trkpt>
      <trkpt lat="44.2469780" lon="7.3265000">
        <ele>952.0</ele>
        <time>2017-07-23T07:43:24Z</time>
      </trkpt>
      <trkpt lat="44.2469360" lon="7.3261320">
        <ele>952.8</ele>
        <time>2017-07-23T07:43:29Z</time>
      </trkpt>
      <trkpt lat="44.2469190" lon="7.3259840">
        <ele>953.2</ele>
        <time>2017-07-23T07:43:31Z</time>
      </trkpt>
      <trkpt lat="44.2468810" lon="7.3257040">
        <ele>954.0</ele>
        <time>2017-07-23T07:43:35Z</time>
      </trkpt>
      <trkpt lat="44.2468560" lon="7.3255740">
        <ele>954.2</ele>
        <time>2017-07-23T07:43:37Z</time>
      </trkpt>
      <trkpt lat="44.2467920" lon="7.3253220">
        <ele>955.0</ele>
        <time>2017-07-23T07:43:41Z</time>
      </trkpt>
      <trkpt lat="44.2467320" lon="7.3251460">
        <ele>955.4</ele>
        <time>2017-07-23T07:43:44Z</time>
      </trkpt>
      <trkpt lat="44.2466580" lon="7.3249800">
        <ele>956.0</ele>
        <time>2017-07-23T07:43:47Z</time>
      </trkpt>
      <trkpt lat="44.2465470" lon="7.3247700">
        <ele>956.4</ele>
        <time>2017-07-23T07:43:51Z</time>
      </trkpt>
      <trkpt lat="44.2462740" lon="7.3244080">
        <ele>956.2</ele>
        <time>2017-07-23T07:43:59Z</time>
      </trkpt>
      <trkpt lat="44.2462380" lon="7.3243710">
        <ele>956.0</ele>
        <time>2017-07-23T07:44:00Z</time>
      </trkpt>
      <trkpt lat="44.2460830" lon="7.3242490">
        <ele>955.8</ele>
        <time>2017-07-23T07:44:04Z</time>
      </trkpt>
      <trkpt lat="44.2457380" lon="7.3240850">
        <ele>955.8</ele>
        <time>2017-07-23T07:44:12Z</time>
      </trkpt>
      <trkpt lat="44.2453950" lon="7.3239750">
        <ele>956.0</ele>
        <time>2017-07-23T07:44:20Z</time>
      </trkpt>
      <trkpt lat="44.2451810" lon="7.3239130">
        <ele>957.0</ele>
        <time>2017-07-23T07:44:25Z</time>
      </trkpt>
      <trkpt lat="44.2450190" lon="7.3238750">
        <ele>957.6</ele>
        <time>2017-07-23T07:44:29Z</time>
      </trkpt>
      <trkpt lat="44.2449170" lon="7.3238010">
        <ele>958.2</ele>
        <time>2017-07-23T07:44:32Z</time>
      </trkpt>
      <trkpt lat="44.2448850" lon="7.3237670">
        <ele>958.6</ele>
        <time>2017-07-23T07:44:33Z</time>
      </trkpt>
      <trkpt lat="44.2448240" lon="7.3236930">
        <ele>959.6</ele>
        <time>2017-07-23T07:44:35Z</time>
      </trkpt>
      <trkpt lat="44.2447680" lon="7.3236100">
        <ele>960.6</ele>
        <time>2017-07-23T07:44:37Z</time>
      </trkpt>
      <trkpt lat="44.2446740" lon="7.3235090">
        <ele>961.8</ele>
        <time>2017-07-23T07:44:40Z</time>
      </trkpt>
      <trkpt lat="44.2445870" lon="7.3233990">
        <ele>963.0</ele>
        <time>2017-07-23T07:44:43Z</time>
      </trkpt>
      <trkpt lat="44.2445020" lon="7.3232800">
        <ele>964.0</ele>
        <time>2017-07-23T07:44:46Z</time>
      </trkpt>
      <trkpt lat="44.2442740" lon="7.3229800">
        <ele>965.0</ele>
        <time>2017-07-23T07:44:54Z</time>
      </trkpt>
      <trkpt lat="44.2440860" lon="7.3227300">
        <ele>965.2</ele>
        <time>2017-07-23T07:45:01Z</time>
      </trkpt>
      <trkpt lat="44.2439060" lon="7.3224550">
        <ele>966.0</ele>
        <time>2017-07-23T07:45:08Z</time>
      </trkpt>
      <trkpt lat="44.2436900" lon="7.3222260">
        <ele>967.2</ele>
        <time>2017-07-23T07:45:15Z</time>
      </trkpt>
      <trkpt lat="44.2436580" lon="7.3221950">
        <ele>967.4</ele>
        <time>2017-07-23T07:45:16Z</time>
      </trkpt>
      <trkpt lat="44.2434590" lon="7.3219490">
        <ele>968.2</ele>
        <time>2017-07-23T07:45:23Z</time>
      </trkpt>
      <trkpt lat="44.2434100" lon="7.3218710">
        <ele>969.4</ele>
        <time>2017-07-23T07:45:25Z</time>
      </trkpt>
      <trkpt lat="44.2432860" lon="7.3216570">
        <ele>970.6</ele>
        <time>2017-07-23T07:45:30Z</time>
      </trkpt>
      <trkpt lat="44.2432470" lon="7.3215600">
        <ele>971.4</ele>
        <time>2017-07-23T07:45:32Z</time>
      </trkpt>
      <trkpt lat="44.2432290" lon="7.3215100">
        <ele>972.0</ele>
        <time>2017-07-23T07:45:33Z</time>
      </trkpt>
      <trkpt lat="44.2431920" lon="7.3213480">
        <ele>973.2</ele>
        <time>2017-07-23T07:45:36Z</time>
      </trkpt>
      <trkpt lat="44.2431700" lon="7.3212380">
        <ele>973.8</ele>
        <time>2017-07-23T07:45:38Z</time>
      </trkpt>
      <trkpt lat="44.2431590" lon="7.3211260">
        <ele>974.4</ele>
        <time>2017-07-23T07:45:40Z</time>
      </trkpt>
      <trkpt lat="44.2431630" lon="7.3209490">
        <ele>975.8</ele>
        <time>2017-07-23T07:45:43Z</time>
      </trkpt>
      <trkpt lat="44.2431690" lon="7.3208920">
        <ele>976.0</ele>
        <time>2017-07-23T07:45:44Z</time>
      </trkpt>
      <trkpt lat="44.2431800" lon="7.3207270">
        <ele>977.0</ele>
        <time>2017-07-23T07:45:47Z</time>
      </trkpt>
      <trkpt lat="44.2431730" lon="7.3206150">
        <ele>978.0</ele>
        <time>2017-07-23T07:45:49Z</time>
      </trkpt>
      <trkpt lat="44.2431630" lon="7.3205580">
        <ele>978.2</ele>
        <time>2017-07-23T07:45:50Z</time>
      </trkpt>
      <trkpt lat="44.2431490" lon="7.3204990">
        <ele>978.6</ele>
        <time>2017-07-23T07:45:51Z</time>
      </trkpt>
      <trkpt lat="44.2430860" lon="7.3203280">
        <ele>979.6</ele>
        <time>2017-07-23T07:45:54Z</time>
      </trkpt>
      <trkpt lat="44.2430300" lon="7.3202170">
        <ele>980.0</ele>
        <time>2017-07-23T07:45:56Z</time>
      </trkpt>
      <trkpt lat="44.2429960" lon="7.3201620">
        <ele>980.2</ele>
        <time>2017-07-23T07:45:57Z</time>
      </trkpt>
      <trkpt lat="44.2429560" lon="7.3201120">
        <ele>980.4</ele>
        <time>2017-07-23T07:45:58Z</time>
      </trkpt>
      <trkpt lat="44.2427790" lon="7.3199620">
        <ele>980.2</ele>
        <time>2017-07-23T07:46:02Z</time>
      </trkpt>
      <trkpt lat="44.2426160" lon="7.3198100">
        <ele>980.2</ele>
        <time>2017-07-23T07:46:06Z</time>
      </trkpt>
      <trkpt lat="44.2425520" lon="7.3197160">
        <ele>980.2</ele>
        <time>2017-07-23T07:46:08Z</time>
      </trkpt>
      <trkpt lat="44.2424180" lon="7.3194450">
        <ele>980.8</ele>
        <time>2017-07-23T07:46:13Z</time>
      </trkpt>
      <trkpt lat="44.2423930" lon="7.3193890">
        <ele>980.8</ele>
        <time>2017-07-23T07:46:14Z</time>
      </trkpt>
      <trkpt lat="44.2422300" lon="7.3190640">
        <ele>981.8</ele>
        <time>2017-07-23T07:46:20Z</time>
      </trkpt>
      <trkpt lat="44.2421750" lon="7.3189540">
        <ele>982.0</ele>
        <time>2017-07-23T07:46:22Z</time>
      </trkpt>
      <trkpt lat="44.2419580" lon="7.3186310">
        <ele>982.6</ele>
        <time>2017-07-23T07:46:29Z</time>
      </trkpt>
      <trkpt lat="44.2418860" lon="7.3185500">
        <ele>983.0</ele>
        <time>2017-07-23T07:46:31Z</time>
      </trkpt>
      <trkpt lat="44.2417480" lon="7.3183800">
        <ele>983.8</ele>
        <time>2017-07-23T07:46:35Z</time>
      </trkpt>
      <trkpt lat="44.2416780" lon="7.3183020">
        <ele>984.0</ele>
        <time>2017-07-23T07:46:37Z</time>
      </trkpt>
      <trkpt lat="44.2415030" lon="7.3181230">
        <ele>985.0</ele>
        <time>2017-07-23T07:46:42Z</time>
      </trkpt>
      <trkpt lat="44.2414660" lon="7.3180910">
        <ele>985.4</ele>
        <time>2017-07-23T07:46:43Z</time>
      </trkpt>
      <trkpt lat="44.2413190" lon="7.3179840">
        <ele>986.2</ele>
        <time>2017-07-23T07:46:47Z</time>
      </trkpt>
      <trkpt lat="44.2411980" lon="7.3179230">
        <ele>987.0</ele>
        <time>2017-07-23T07:46:50Z</time>
      </trkpt>
      <trkpt lat="44.2409870" lon="7.3178450">
        <ele>987.4</ele>
        <time>2017-07-23T07:46:55Z</time>
      </trkpt>
      <trkpt lat="44.2409450" lon="7.3178330">
        <ele>987.4</ele>
        <time>2017-07-23T07:46:56Z</time>
      </trkpt>
      <trkpt lat="44.2406170" lon="7.3177480">
        <ele>988.4</ele>
        <time>2017-07-23T07:47:04Z</time>
      </trkpt>
      <trkpt lat="44.2404080" lon="7.3176890">
        <ele>989.6</ele>
        <time>2017-07-23T07:47:09Z</time>
      </trkpt>
      <trkpt lat="44.2402750" lon="7.3176540">
        <ele>990.4</ele>
        <time>2017-07-23T07:47:12Z</time>
      </trkpt>
      <trkpt lat="44.2402330" lon="7.3176400">
        <ele>990.8</ele>
        <time>2017-07-23T07:47:13Z</time>
      </trkpt>
      <trkpt lat="44.2400660" lon="7.3175640">
        <ele>991.6</ele>
        <time>2017-07-23T07:47:17Z</time>
      </trkpt>
      <trkpt lat="44.2400250" lon="7.3175480">
        <ele>992.0</ele>
        <time>2017-07-23T07:47:18Z</time>
      </trkpt>
      <trkpt lat="44.2399390" lon="7.3175120">
        <ele>992.8</ele>
        <time>2017-07-23T07:47:20Z</time>
      </trkpt>
      <trkpt lat="44.2398510" lon="7.3174750">
        <ele>993.2</ele>
        <time>2017-07-23T07:47:22Z</time>
      </trkpt>
      <trkpt lat="44.2397670" lon="7.3174370">
        <ele>994.4</ele>
        <time>2017-07-23T07:47:24Z</time>
      </trkpt>
      <trkpt lat="44.2397260" lon="7.3174110">
        <ele>994.6</ele>
        <time>2017-07-23T07:47:25Z</time>
      </trkpt>
      <trkpt lat="44.2396090" lon="7.3173210">
        <ele>995.6</ele>
        <time>2017-07-23T07:47:28Z</time>
      </trkpt>
      <trkpt lat="44.2394980" lon="7.3172220">
        <ele>996.8</ele>
        <time>2017-07-23T07:47:31Z</time>
      </trkpt>
      <trkpt lat="44.2394190" lon="7.3171650">
        <ele>997.4</ele>
        <time>2017-07-23T07:47:33Z</time>
      </trkpt>
      <trkpt lat="44.2393340" lon="7.3171230">
        <ele>997.4</ele>
        <time>2017-07-23T07:47:35Z</time>
      </trkpt>
      <trkpt lat="44.2392900" lon="7.3171070">
        <ele>997.4</ele>
        <time>2017-07-23T07:47:36Z</time>
      </trkpt>
      <trkpt lat="44.2391110" lon="7.3170800">
        <ele>997.8</ele>
        <time>2017-07-23T07:47:40Z</time>
      </trkpt>
      <trkpt lat="44.2389730" lon="7.3170730">
        <ele>997.8</ele>
        <time>2017-07-23T07:47:43Z</time>
      </trkpt>
      <trkpt lat="44.2387220" lon="7.3170690">
        <ele>998.4</ele>
        <time>2017-07-23T07:47:49Z</time>
      </trkpt>
      <trkpt lat="44.2385740" lon="7.3170600">
        <ele>999.0</ele>
        <time>2017-07-23T07:47:53Z</time>
      </trkpt>
      <trkpt lat="44.2384580" lon="7.3170550">
        <ele>999.6</ele>
        <time>2017-07-23T07:47:56Z</time>
      </trkpt>
      <trkpt lat="44.2383460" lon="7.3170640">
        <ele>1000.0</ele>
        <time>2017-07-23T07:47:59Z</time>
      </trkpt>
      <trkpt lat="44.2382040" lon="7.3170810">
        <ele>1001.0</ele>
        <time>2017-07-23T07:48:03Z</time>
      </trkpt>
      <trkpt lat="44.2381650" lon="7.3170870">
        <ele>1001.0</ele>
        <time>2017-07-23T07:48:04Z</time>
      </trkpt>
      <trkpt lat="44.2379460" lon="7.3171120">
        <ele>1002.0</ele>
        <time>2017-07-23T07:48:10Z</time>
      </trkpt>
      <trkpt lat="44.2377970" lon="7.3171500">
        <ele>1003.0</ele>
        <time>2017-07-23T07:48:14Z</time>
      </trkpt>
      <trkpt lat="44.2376870" lon="7.3171600">
        <ele>1004.2</ele>
        <time>2017-07-23T07:48:17Z</time>
      </trkpt>
      <trkpt lat="44.2375750" lon="7.3171790">
        <ele>1005.2</ele>
        <time>2017-07-23T07:48:20Z</time>
      </trkpt>
      <trkpt lat="44.2375370" lon="7.3171820">
        <ele>1005.6</ele>
        <time>2017-07-23T07:48:21Z</time>
      </trkpt>
      <trkpt lat="44.2374250" lon="7.3172020">
        <ele>1006.8</ele>
        <time>2017-07-23T07:48:24Z</time>
      </trkpt>
      <trkpt lat="44.2373050" lon="7.3172310">
        <ele>1007.8</ele>
        <time>2017-07-23T07:48:27Z</time>
      </trkpt>
      <trkpt lat="44.2371900" lon="7.3172480">
        <ele>1009.2</ele>
        <time>2017-07-23T07:48:30Z</time>
      </trkpt>
      <trkpt lat="44.2370120" lon="7.3172220">
        <ele>1009.8</ele>
        <time>2017-07-23T07:48:35Z</time>
      </trkpt>
      <trkpt lat="44.2369800" lon="7.3172020">
        <ele>1010.4</ele>
        <time>2017-07-23T07:48:36Z</time>
      </trkpt>
      <trkpt lat="44.2369290" lon="7.3170700">
        <ele>1011.0</ele>
        <time>2017-07-23T07:48:39Z</time>
      </trkpt>
      <trkpt lat="44.2369260" lon="7.3169650">
        <ele>1011.6</ele>
        <time>2017-07-23T07:48:41Z</time>
      </trkpt>
      <trkpt lat="44.2369460" lon="7.3168600">
        <ele>1012.2</ele>
        <time>2017-07-23T07:48:43Z</time>
      </trkpt>
      <trkpt lat="44.2369680" lon="7.3168160">
        <ele>1012.6</ele>
        <time>2017-07-23T07:48:44Z</time>
      </trkpt>
      <trkpt lat="44.2370560" lon="7.3167170">
        <ele>1013.4</ele>
        <time>2017-07-23T07:48:47Z</time>
      </trkpt>
      <trkpt lat="44.2371230" lon="7.3166660">
        <ele>1013.6</ele>
        <time>2017-07-23T07:48:49Z</time>
      </trkpt>
      <trkpt lat="44.2373320" lon="7.3165460">
        <ele>1014.8</ele>
        <time>2017-07-23T07:48:55Z</time>
      </trkpt>
      <trkpt lat="44.2375770" lon="7.3164340">
        <ele>1015.4</ele>
        <time>2017-07-23T07:49:02Z</time>
      </trkpt>
      <trkpt lat="44.2376480" lon="7.3163980">
        <ele>1015.8</ele>
        <time>2017-07-23T07:49:04Z</time>
      </trkpt>
      <trkpt lat="44.2377980" lon="7.3162740">
        <ele>1016.4</ele>
        <time>2017-07-23T07:49:09Z</time>
      </trkpt>
      <trkpt lat="44.2378010" lon="7.3161790">
        <ele>1017.0</ele>
        <time>2017-07-23T07:49:11Z</time>
      </trkpt>
      <trkpt lat="44.2377850" lon="7.3161300">
        <ele>1017.4</ele>
        <time>2017-07-23T07:49:12Z</time>
      </trkpt>
      <trkpt lat="44.2377020" lon="7.3160810">
        <ele>1017.2</ele>
        <time>2017-07-23T07:49:15Z</time>
      </trkpt>
      <trkpt lat="44.2375840" lon="7.3161120">
        <ele>1017.4</ele>
        <time>2017-07-23T07:49:18Z</time>
      </trkpt>
      <trkpt lat="44.2374760" lon="7.3161470">
        <ele>1017.4</ele>
        <time>2017-07-23T07:49:21Z</time>
      </trkpt>
      <trkpt lat="44.2372740" lon="7.3162160">
        <ele>1018.2</ele>
        <time>2017-07-23T07:49:27Z</time>
      </trkpt>
      <trkpt lat="44.2372010" lon="7.3162270">
        <ele>1018.6</ele>
        <time>2017-07-23T07:49:29Z</time>
      </trkpt>
      <trkpt lat="44.2371030" lon="7.3162660">
        <ele>1019.4</ele>
        <time>2017-07-23T07:49:32Z</time>
      </trkpt>
      <trkpt lat="44.2370040" lon="7.3163120">
        <ele>1020.4</ele>
        <time>2017-07-23T07:49:35Z</time>
      </trkpt>
      <trkpt lat="44.2367990" lon="7.3163700">
        <ele>1021.6</ele>
        <time>2017-07-23T07:49:41Z</time>
      </trkpt>
      <trkpt lat="44.2367680" lon="7.3163770">
        <ele>1021.8</ele>
        <time>2017-07-23T07:49:42Z</time>
      </trkpt>
      <trkpt lat="44.2366710" lon="7.3164060">
        <ele>1022.8</ele>
        <time>2017-07-23T07:49:45Z</time>
      </trkpt>
      <trkpt lat="44.2365750" lon="7.3164410">
        <ele>1024.0</ele>
        <time>2017-07-23T07:49:48Z</time>
      </trkpt>
      <trkpt lat="44.2365040" lon="7.3164580">
        <ele>1024.8</ele>
        <time>2017-07-23T07:49:50Z</time>
      </trkpt>
      <trkpt lat="44.2364680" lon="7.3164610">
        <ele>1025.0</ele>
        <time>2017-07-23T07:49:51Z</time>
      </trkpt>
      <trkpt lat="44.2363630" lon="7.3164840">
        <ele>1026.4</ele>
        <time>2017-07-23T07:49:54Z</time>
      </trkpt>
      <trkpt lat="44.2362560" lon="7.3164960">
        <ele>1026.8</ele>
        <time>2017-07-23T07:49:57Z</time>
      </trkpt>
      <trkpt lat="44.2360190" lon="7.3164150">
        <ele>1027.4</ele>
        <time>2017-07-23T07:50:04Z</time>
      </trkpt>
      <trkpt lat="44.2359870" lon="7.3163950">
        <ele>1027.6</ele>
        <time>2017-07-23T07:50:05Z</time>
      </trkpt>
      <trkpt lat="44.2358140" lon="7.3162380">
        <ele>1028.6</ele>
        <time>2017-07-23T07:50:11Z</time>
      </trkpt>
      <trkpt lat="44.2357860" lon="7.3162100">
        <ele>1029.0</ele>
        <time>2017-07-23T07:50:12Z</time>
      </trkpt>
      <trkpt lat="44.2357060" lon="7.3161130">
        <ele>1029.6</ele>
        <time>2017-07-23T07:50:15Z</time>
      </trkpt>
      <trkpt lat="44.2355990" lon="7.3159900">
        <ele>1030.6</ele>
        <time>2017-07-23T07:50:19Z</time>
      </trkpt>
      <trkpt lat="44.2355700" lon="7.3159610">
        <ele>1030.8</ele>
        <time>2017-07-23T07:50:20Z</time>
      </trkpt>
      <trkpt lat="44.2354000" lon="7.3157930">
        <ele>1031.8</ele>
        <time>2017-07-23T07:50:26Z</time>
      </trkpt>
      <trkpt lat="44.2352590" lon="7.3156430">
        <ele>1032.8</ele>
        <time>2017-07-23T07:50:31Z</time>
      </trkpt>
      <trkpt lat="44.2351770" lon="7.3155540">
        <ele>1033.2</ele>
        <time>2017-07-23T07:50:34Z</time>
      </trkpt>
      <trkpt lat="44.2350450" lon="7.3154020">
        <ele>1033.8</ele>
        <time>2017-07-23T07:50:39Z</time>
      </trkpt>
      <trkpt lat="44.2349330" lon="7.3152810">
        <ele>1034.6</ele>
        <time>2017-07-23T07:50:43Z</time>
      </trkpt>
      <trkpt lat="44.2349030" lon="7.3152510">
        <ele>1034.8</ele>
        <time>2017-07-23T07:50:44Z</time>
      </trkpt>
      <trkpt lat="44.2347900" lon="7.3151410">
        <ele>1036.0</ele>
        <time>2017-07-23T07:50:48Z</time>
      </trkpt>
      <trkpt lat="44.2347010" lon="7.3150570">
        <ele>1037.2</ele>
        <time>2017-07-23T07:50:51Z</time>
      </trkpt>
      <trkpt lat="44.2346070" lon="7.3149700">
        <ele>1038.2</ele>
        <time>2017-07-23T07:50:54Z</time>
      </trkpt>
      <trkpt lat="44.2345140" lon="7.3148850">
        <ele>1039.6</ele>
        <time>2017-07-23T07:50:57Z</time>
      </trkpt>
      <trkpt lat="44.2344550" lon="7.3148250">
        <ele>1040.4</ele>
        <time>2017-07-23T07:50:59Z</time>
      </trkpt>
      <trkpt lat="44.2344250" lon="7.3147910">
        <ele>1041.2</ele>
        <time>2017-07-23T07:51:00Z</time>
      </trkpt>
      <trkpt lat="44.2343010" lon="7.3146870">
        <ele>1042.2</ele>
        <time>2017-07-23T07:51:04Z</time>
      </trkpt>
      <trkpt lat="44.2342130" lon="7.3146130">
        <ele>1042.6</ele>
        <time>2017-07-23T07:51:07Z</time>
      </trkpt>
      <trkpt lat="44.2339630" lon="7.3144510">
        <ele>1043.2</ele>
        <time>2017-07-23T07:51:15Z</time>
      </trkpt>
      <trkpt lat="44.2339260" lon="7.3144310">
        <ele>1043.4</ele>
        <time>2017-07-23T07:51:16Z</time>
      </trkpt>
      <trkpt lat="44.2337320" lon="7.3143050">
        <ele>1044.0</ele>
        <time>2017-07-23T07:51:22Z</time>
      </trkpt>
      <trkpt lat="44.2336680" lon="7.3142640">
        <ele>1044.8</ele>
        <time>2017-07-23T07:51:24Z</time>
      </trkpt>
      <trkpt lat="44.2335750" lon="7.3142030">
        <ele>1045.8</ele>
        <time>2017-07-23T07:51:27Z</time>
      </trkpt>
      <trkpt lat="44.2334770" lon="7.3141450">
        <ele>1046.6</ele>
        <time>2017-07-23T07:51:30Z</time>
      </trkpt>
      <trkpt lat="44.2334460" lon="7.3141250">
        <ele>1047.0</ele>
        <time>2017-07-23T07:51:31Z</time>
      </trkpt>
      <trkpt lat="44.2332760" lon="7.3140180">
        <ele>1048.0</ele>
        <time>2017-07-23T07:51:36Z</time>
      </trkpt>
      <trkpt lat="44.2329820" lon="7.3137780">
        <ele>1048.8</ele>
        <time>2017-07-23T07:51:46Z</time>
      </trkpt>
      <trkpt lat="44.2329280" lon="7.3137010">
        <ele>1049.0</ele>
        <time>2017-07-23T07:51:48Z</time>
      </trkpt>
      <trkpt lat="44.2327810" lon="7.3134480">
        <ele>1049.6</ele>
        <time>2017-07-23T07:51:54Z</time>
      </trkpt>
      <trkpt lat="44.2326860" lon="7.3132810">
        <ele>1050.2</ele>
        <time>2017-07-23T07:51:58Z</time>
      </trkpt>
      <trkpt lat="44.2325790" lon="7.3130580">
        <ele>1051.0</ele>
        <time>2017-07-23T07:52:03Z</time>
      </trkpt>
      <trkpt lat="44.2325600" lon="7.3130130">
        <ele>1051.4</ele>
        <time>2017-07-23T07:52:04Z</time>
      </trkpt>
      <trkpt lat="44.2324900" lon="7.3128370">
        <ele>1052.6</ele>
        <time>2017-07-23T07:52:08Z</time>
      </trkpt>
      <trkpt lat="44.2324310" lon="7.3126640">
        <ele>1053.8</ele>
        <time>2017-07-23T07:52:12Z</time>
      </trkpt>
      <trkpt lat="44.2323920" lon="7.3125250">
        <ele>1055.2</ele>
        <time>2017-07-23T07:52:15Z</time>
      </trkpt>
      <trkpt lat="44.2323340" lon="7.3123490">
        <ele>1056.4</ele>
        <time>2017-07-23T07:52:19Z</time>
      </trkpt>
      <trkpt lat="44.2322710" lon="7.3121790">
        <ele>1057.6</ele>
        <time>2017-07-23T07:52:23Z</time>
      </trkpt>
      <trkpt lat="44.2322380" lon="7.3120970">
        <ele>1058.2</ele>
        <time>2017-07-23T07:52:25Z</time>
      </trkpt>
      <trkpt lat="44.2322020" lon="7.3120210">
        <ele>1058.8</ele>
        <time>2017-07-23T07:52:27Z</time>
      </trkpt>
      <trkpt lat="44.2320920" lon="7.3118540">
        <ele>1059.8</ele>
        <time>2017-07-23T07:52:32Z</time>
      </trkpt>
      <trkpt lat="44.2318960" lon="7.3116080">
        <ele>1060.8</ele>
        <time>2017-07-23T07:52:40Z</time>
      </trkpt>
      <trkpt lat="44.2318680" lon="7.3115900">
        <ele>1060.8</ele>
        <time>2017-07-23T07:52:41Z</time>
      </trkpt>
      <trkpt lat="44.2316850" lon="7.3114670">
        <ele>1061.6</ele>
        <time>2017-07-23T07:52:47Z</time>
      </trkpt>
      <trkpt lat="44.2316190" lon="7.3114330">
        <ele>1061.8</ele>
        <time>2017-07-23T07:52:49Z</time>
      </trkpt>
      <trkpt lat="44.2314700" lon="7.3113630">
        <ele>1062.6</ele>
        <time>2017-07-23T07:52:54Z</time>
      </trkpt>
      <trkpt lat="44.2314390" lon="7.3113540">
        <ele>1063.0</ele>
        <time>2017-07-23T07:52:55Z</time>
      </trkpt>
      <trkpt lat="44.2312540" lon="7.3112650">
        <ele>1064.0</ele>
        <time>2017-07-23T07:53:01Z</time>
      </trkpt>
      <trkpt lat="44.2311920" lon="7.3112350">
        <ele>1064.4</ele>
        <time>2017-07-23T07:53:03Z</time>
      </trkpt>
      <trkpt lat="44.2311050" lon="7.3111860">
        <ele>1065.0</ele>
        <time>2017-07-23T07:53:06Z</time>
      </trkpt>
      <trkpt lat="44.2310120" lon="7.3111410">
        <ele>1066.0</ele>
        <time>2017-07-23T07:53:09Z</time>
      </trkpt>
      <trkpt lat="44.2309530" lon="7.3111090">
        <ele>1066.4</ele>
        <time>2017-07-23T07:53:11Z</time>
      </trkpt>
      <trkpt lat="44.2308640" lon="7.3110570">
        <ele>1067.2</ele>
        <time>2017-07-23T07:53:14Z</time>
      </trkpt>
      <trkpt lat="44.2307180" lon="7.3109610">
        <ele>1068.4</ele>
        <time>2017-07-23T07:53:19Z</time>
      </trkpt>
      <trkpt lat="44.2306700" lon="7.3109050">
        <ele>1069.2</ele>
        <time>2017-07-23T07:53:21Z</time>
      </trkpt>
      <trkpt lat="44.2306450" lon="7.3108760">
        <ele>1069.6</ele>
        <time>2017-07-23T07:53:22Z</time>
      </trkpt>
      <trkpt lat="44.2305570" lon="7.3107360">
        <ele>1070.6</ele>
        <time>2017-07-23T07:53:26Z</time>
      </trkpt>
      <trkpt lat="44.2305190" lon="7.3106580">
        <ele>1071.0</ele>
        <time>2017-07-23T07:53:28Z</time>
      </trkpt>
      <trkpt lat="44.2304570" lon="7.3105470">
        <ele>1071.8</ele>
        <time>2017-07-23T07:53:31Z</time>
      </trkpt>
      <trkpt lat="44.2304020" lon="7.3104270">
        <ele>1073.0</ele>
        <time>2017-07-23T07:53:34Z</time>
      </trkpt>
      <trkpt lat="44.2303830" lon="7.3103790">
        <ele>1073.6</ele>
        <time>2017-07-23T07:53:35Z</time>
      </trkpt>
      <trkpt lat="44.2303410" lon="7.3102830">
        <ele>1074.2</ele>
        <time>2017-07-23T07:53:37Z</time>
      </trkpt>
      <trkpt lat="44.2302900" lon="7.3101860">
        <ele>1075.0</ele>
        <time>2017-07-23T07:53:39Z</time>
      </trkpt>
      <trkpt lat="44.2302310" lon="7.3100980">
        <ele>1075.6</ele>
        <time>2017-07-23T07:53:41Z</time>
      </trkpt>
      <trkpt lat="44.2299850" lon="7.3098240">
        <ele>1076.6</ele>
        <time>2017-07-23T07:53:48Z</time>
      </trkpt>
      <trkpt lat="44.2298380" lon="7.3096830">
        <ele>1077.6</ele>
        <time>2017-07-23T07:53:52Z</time>
      </trkpt>
      <trkpt lat="44.2297010" lon="7.3095320">
        <ele>1079.0</ele>
        <time>2017-07-23T07:53:56Z</time>
      </trkpt>
      <trkpt lat="44.2295830" lon="7.3093500">
        <ele>1080.2</ele>
        <time>2017-07-23T07:54:00Z</time>
      </trkpt>
      <trkpt lat="44.2295290" lon="7.3092530">
        <ele>1081.0</ele>
        <time>2017-07-23T07:54:02Z</time>
      </trkpt>
      <trkpt lat="44.2295060" lon="7.3092020">
        <ele>1081.4</ele>
        <time>2017-07-23T07:54:03Z</time>
      </trkpt>
      <trkpt lat="44.2294100" lon="7.3089940">
        <ele>1082.8</ele>
        <time>2017-07-23T07:54:07Z</time>
      </trkpt>
      <trkpt lat="44.2293360" lon="7.3088370">
        <ele>1083.8</ele>
        <time>2017-07-23T07:54:10Z</time>
      </trkpt>
      <trkpt lat="44.2292320" lon="7.3086330">
        <ele>1084.8</ele>
        <time>2017-07-23T07:54:14Z</time>
      </trkpt>
      <trkpt lat="44.2291350" lon="7.3084350">
        <ele>1085.6</ele>
        <time>2017-07-23T07:54:18Z</time>
      </trkpt>
      <trkpt lat="44.2291050" lon="7.3083870">
        <ele>1085.8</ele>
        <time>2017-07-23T07:54:19Z</time>
      </trkpt>
      <trkpt lat="44.2289210" lon="7.3081540">
        <ele>1085.6</ele>
        <time>2017-07-23T07:54:24Z</time>
      </trkpt>
      <trkpt lat="44.2286790" lon="7.3078880">
        <ele>1086.0</ele>
        <time>2017-07-23T07:54:30Z</time>
      </trkpt>
      <trkpt lat="44.2284750" lon="7.3076550">
        <ele>1086.8</ele>
        <time>2017-07-23T07:54:35Z</time>
      </trkpt>
      <trkpt lat="44.2283990" lon="7.3075560">
        <ele>1087.0</ele>
        <time>2017-07-23T07:54:37Z</time>
      </trkpt>
      <trkpt lat="44.2281770" lon="7.3071910">
        <ele>1087.2</ele>
        <time>2017-07-23T07:54:44Z</time>
      </trkpt>
      <trkpt lat="44.2281490" lon="7.3071440">
        <ele>1087.4</ele>
        <time>2017-07-23T07:54:45Z</time>
      </trkpt>
      <trkpt lat="44.2279980" lon="7.3068950">
        <ele>1087.6</ele>
        <time>2017-07-23T07:54:50Z</time>
      </trkpt>
      <trkpt lat="44.2279150" lon="7.3067470">
        <ele>1088.0</ele>
        <time>2017-07-23T07:54:53Z</time>
      </trkpt>
      <trkpt lat="44.2278000" lon="7.3065080">
        <ele>1088.2</ele>
        <time>2017-07-23T07:54:58Z</time>
      </trkpt>
      <trkpt lat="44.2277850" lon="7.3064550">
        <ele>1088.4</ele>
        <time>2017-07-23T07:54:59Z</time>
      </trkpt>
      <trkpt lat="44.2277560" lon="7.3063480">
        <ele>1089.0</ele>
        <time>2017-07-23T07:55:01Z</time>
      </trkpt>
      <trkpt lat="44.2277300" lon="7.3062420">
        <ele>1090.2</ele>
        <time>2017-07-23T07:55:03Z</time>
      </trkpt>
      <trkpt lat="44.2276860" lon="7.3060240">
        <ele>1091.6</ele>
        <time>2017-07-23T07:55:07Z</time>
      </trkpt>
      <trkpt lat="44.2276490" lon="7.3058740">
        <ele>1092.6</ele>
        <time>2017-07-23T07:55:10Z</time>
      </trkpt>
      <trkpt lat="44.2276130" lon="7.3057210">
        <ele>1093.8</ele>
        <time>2017-07-23T07:55:13Z</time>
      </trkpt>
      <trkpt lat="44.2276000" lon="7.3056720">
        <ele>1094.2</ele>
        <time>2017-07-23T07:55:14Z</time>
      </trkpt>
      <trkpt lat="44.2275730" lon="7.3055180">
        <ele>1095.2</ele>
        <time>2017-07-23T07:55:17Z</time>
      </trkpt>
      <trkpt lat="44.2275230" lon="7.3053180">
        <ele>1096.2</ele>
        <time>2017-07-23T07:55:21Z</time>
      </trkpt>
      <trkpt lat="44.2275080" lon="7.3052720">
        <ele>1096.4</ele>
        <time>2017-07-23T07:55:22Z</time>
      </trkpt>
      <trkpt lat="44.2274470" lon="7.3051060">
        <ele>1097.4</ele>
        <time>2017-07-23T07:55:26Z</time>
      </trkpt>
      <trkpt lat="44.2273830" lon="7.3049970">
        <ele>1097.6</ele>
        <time>2017-07-23T07:55:29Z</time>
      </trkpt>
      <trkpt lat="44.2272170" lon="7.3048080">
        <ele>1098.4</ele>
        <time>2017-07-23T07:55:35Z</time>
      </trkpt>
      <trkpt lat="44.2270840" lon="7.3046650">
        <ele>1099.6</ele>
        <time>2017-07-23T07:55:40Z</time>
      </trkpt>
      <trkpt lat="44.2270590" lon="7.3046350">
        <ele>1099.6</ele>
        <time>2017-07-23T07:55:41Z</time>
      </trkpt>
      <trkpt lat="44.2269670" lon="7.3044310">
        <ele>1100.4</ele>
        <time>2017-07-23T07:55:46Z</time>
      </trkpt>
      <trkpt lat="44.2269520" lon="7.3043400">
        <ele>1100.6</ele>
        <time>2017-07-23T07:55:48Z</time>
      </trkpt>
      <trkpt lat="44.2269730" lon="7.3041780">
        <ele>1101.8</ele>
        <time>2017-07-23T07:55:51Z</time>
      </trkpt>
      <trkpt lat="44.2269860" lon="7.3040810">
        <ele>1102.6</ele>
        <time>2017-07-23T07:55:53Z</time>
      </trkpt>
      <trkpt lat="44.2269960" lon="7.3039920">
        <ele>1103.2</ele>
        <time>2017-07-23T07:55:55Z</time>
      </trkpt>
      <trkpt lat="44.2270050" lon="7.3038610">
        <ele>1104.2</ele>
        <time>2017-07-23T07:55:58Z</time>
      </trkpt>
      <trkpt lat="44.2270210" lon="7.3036840">
        <ele>1105.4</ele>
        <time>2017-07-23T07:56:02Z</time>
      </trkpt>
      <trkpt lat="44.2270270" lon="7.3035460">
        <ele>1106.4</ele>
        <time>2017-07-23T07:56:05Z</time>
      </trkpt>
      <trkpt lat="44.2270240" lon="7.3034180">
        <ele>1107.4</ele>
        <time>2017-07-23T07:56:08Z</time>
      </trkpt>
      <trkpt lat="44.2270250" lon="7.3033740">
        <ele>1107.6</ele>
        <time>2017-07-23T07:56:09Z</time>
      </trkpt>
      <trkpt lat="44.2270140" lon="7.3032450">
        <ele>1108.6</ele>
        <time>2017-07-23T07:56:12Z</time>
      </trkpt>
      <trkpt lat="44.2269970" lon="7.3031650">
        <ele>1109.4</ele>
        <time>2017-07-23T07:56:14Z</time>
      </trkpt>
      <trkpt lat="44.2269870" lon="7.3031210">
        <ele>1109.6</ele>
        <time>2017-07-23T07:56:15Z</time>
      </trkpt>
      <trkpt lat="44.2269400" lon="7.3029500">
        <ele>1110.8</ele>
        <time>2017-07-23T07:56:19Z</time>
      </trkpt>
      <trkpt lat="44.2269150" lon="7.3028680">
        <ele>1111.2</ele>
        <time>2017-07-23T07:56:21Z</time>
      </trkpt>
      <trkpt lat="44.2268740" lon="7.3027450">
        <ele>1112.0</ele>
        <time>2017-07-23T07:56:24Z</time>
      </trkpt>
      <trkpt lat="44.2268090" lon="7.3025420">
        <ele>1113.0</ele>
        <time>2017-07-23T07:56:29Z</time>
      </trkpt>
      <trkpt lat="44.2267450" lon="7.3023220">
        <ele>1114.2</ele>
        <time>2017-07-23T07:56:34Z</time>
      </trkpt>
      <trkpt lat="44.2266870" lon="7.3021560">
        <ele>1114.8</ele>
        <time>2017-07-23T07:56:38Z</time>
      </trkpt>
      <trkpt lat="44.2266530" lon="7.3020740">
        <ele>1115.2</ele>
        <time>2017-07-23T07:56:40Z</time>
      </trkpt>
      <trkpt lat="44.2265760" lon="7.3018780">
        <ele>1116.2</ele>
        <time>2017-07-23T07:56:45Z</time>
      </trkpt>
      <trkpt lat="44.2265150" lon="7.3017290">
        <ele>1117.4</ele>
        <time>2017-07-23T07:56:49Z</time>
      </trkpt>
      <trkpt lat="44.2264340" lon="7.3016110">
        <ele>1118.4</ele>
        <time>2017-07-23T07:56:53Z</time>
      </trkpt>
      <trkpt lat="44.2263270" lon="7.3014850">
        <ele>1119.4</ele>
        <time>2017-07-23T07:56:57Z</time>
      </trkpt>
      <trkpt lat="44.2262290" lon="7.3013340">
        <ele>1120.0</ele>
        <time>2017-07-23T07:57:01Z</time>
      </trkpt>
      <trkpt lat="44.2261820" lon="7.3011590">
        <ele>1120.6</ele>
        <time>2017-07-23T07:57:05Z</time>
      </trkpt>
      <trkpt lat="44.2261810" lon="7.3011160">
        <ele>1120.8</ele>
        <time>2017-07-23T07:57:06Z</time>
      </trkpt>
      <trkpt lat="44.2261770" lon="7.3009750">
        <ele>1121.6</ele>
        <time>2017-07-23T07:57:09Z</time>
      </trkpt>
      <trkpt lat="44.2261870" lon="7.3007830">
        <ele>1122.8</ele>
        <time>2017-07-23T07:57:13Z</time>
      </trkpt>
      <trkpt lat="44.2261950" lon="7.3007370">
        <ele>1123.0</ele>
        <time>2017-07-23T07:57:14Z</time>
      </trkpt>
      <trkpt lat="44.2262270" lon="7.3006030">
        <ele>1123.8</ele>
        <time>2017-07-23T07:57:17Z</time>
      </trkpt>
      <trkpt lat="44.2262780" lon="7.3004110">
        <ele>1125.0</ele>
        <time>2017-07-23T07:57:21Z</time>
      </trkpt>
      <trkpt lat="44.2262910" lon="7.3003620">
        <ele>1125.2</ele>
        <time>2017-07-23T07:57:22Z</time>
      </trkpt>
      <trkpt lat="44.2263120" lon="7.3002670">
        <ele>1126.0</ele>
        <time>2017-07-23T07:57:24Z</time>
      </trkpt>
      <trkpt lat="44.2263250" lon="7.3000760">
        <ele>1127.2</ele>
        <time>2017-07-23T07:57:28Z</time>
      </trkpt>
      <trkpt lat="44.2263200" lon="7.3000280">
        <ele>1127.4</ele>
        <time>2017-07-23T07:57:29Z</time>
      </trkpt>
      <trkpt lat="44.2262680" lon="7.2998410">
        <ele>1128.2</ele>
        <time>2017-07-23T07:57:33Z</time>
      </trkpt>
      <trkpt lat="44.2262380" lon="7.2997560">
        <ele>1128.6</ele>
        <time>2017-07-23T07:57:35Z</time>
      </trkpt>
      <trkpt lat="44.2261860" lon="7.2996310">
        <ele>1129.2</ele>
        <time>2017-07-23T07:57:38Z</time>
      </trkpt>
      <trkpt lat="44.2261120" lon="7.2994260">
        <ele>1129.6</ele>
        <time>2017-07-23T07:57:43Z</time>
      </trkpt>
      <trkpt lat="44.2260010" lon="7.2991380">
        <ele>1130.4</ele>
        <time>2017-07-23T07:57:50Z</time>
      </trkpt>
      <trkpt lat="44.2259850" lon="7.2990980">
        <ele>1130.6</ele>
        <time>2017-07-23T07:57:51Z</time>
      </trkpt>
      <trkpt lat="44.2258230" lon="7.2988470">
        <ele>1131.0</ele>
        <time>2017-07-23T07:57:58Z</time>
      </trkpt>
      <trkpt lat="44.2257060" lon="7.2986910">
        <ele>1131.4</ele>
        <time>2017-07-23T07:58:03Z</time>
      </trkpt>
      <trkpt lat="44.2256580" lon="7.2986180">
        <ele>1131.6</ele>
        <time>2017-07-23T07:58:05Z</time>
      </trkpt>
      <trkpt lat="44.2255120" lon="7.2983830">
        <ele>1132.4</ele>
        <time>2017-07-23T07:58:12Z</time>
      </trkpt>
      <trkpt lat="44.2254930" lon="7.2983460">
        <ele>1132.6</ele>
        <time>2017-07-23T07:58:13Z</time>
      </trkpt>
      <trkpt lat="44.2253830" lon="7.2980990">
        <ele>1133.6</ele>
        <time>2017-07-23T07:58:19Z</time>
      </trkpt>
      <trkpt lat="44.2253690" lon="7.2980590">
        <ele>1133.8</ele>
        <time>2017-07-23T07:58:20Z</time>
      </trkpt>
      <trkpt lat="44.2253270" lon="7.2979230">
        <ele>1134.6</ele>
        <time>2017-07-23T07:58:23Z</time>
      </trkpt>
      <trkpt lat="44.2252850" lon="7.2977850">
        <ele>1135.8</ele>
        <time>2017-07-23T07:58:26Z</time>
      </trkpt>
      <trkpt lat="44.2252740" lon="7.2977400">
        <ele>1136.0</ele>
        <time>2017-07-23T07:58:27Z</time>
      </trkpt>
      <trkpt lat="44.2252450" lon="7.2976500">
        <ele>1136.8</ele>
        <time>2017-07-23T07:58:29Z</time>
      </trkpt>
      <trkpt lat="44.2251880" lon="7.2975160">
        <ele>1137.8</ele>
        <time>2017-07-23T07:58:32Z</time>
      </trkpt>
      <trkpt lat="44.2251250" lon="7.2974000">
        <ele>1139.0</ele>
        <time>2017-07-23T07:58:35Z</time>
      </trkpt>
      <trkpt lat="44.2250160" lon="7.2971770">
        <ele>1140.0</ele>
        <time>2017-07-23T07:58:40Z</time>
      </trkpt>
      <trkpt lat="44.2248580" lon="7.2969050">
        <ele>1141.0</ele>
        <time>2017-07-23T07:58:47Z</time>
      </trkpt>
      <trkpt lat="44.2248360" lon="7.2968640">
        <ele>1141.2</ele>
        <time>2017-07-23T07:58:48Z</time>
      </trkpt>
      <trkpt lat="44.2246920" lon="7.2966210">
        <ele>1142.4</ele>
        <time>2017-07-23T07:58:54Z</time>
      </trkpt>
      <trkpt lat="44.2246670" lon="7.2965810">
        <ele>1142.6</ele>
        <time>2017-07-23T07:58:55Z</time>
      </trkpt>
      <trkpt lat="44.2246010" lon="7.2964030">
        <ele>1143.4</ele>
        <time>2017-07-23T07:58:59Z</time>
      </trkpt>
      <trkpt lat="44.2245760" lon="7.2963140">
        <ele>1144.2</ele>
        <time>2017-07-23T07:59:01Z</time>
      </trkpt>
      <trkpt lat="44.2245640" lon="7.2962690">
        <ele>1144.8</ele>
        <time>2017-07-23T07:59:02Z</time>
      </trkpt>
      <trkpt lat="44.2245310" lon="7.2961420">
        <ele>1146.0</ele>
        <time>2017-07-23T07:59:05Z</time>
      </trkpt>
      <trkpt lat="44.2244890" lon="7.2959680">
        <ele>1147.2</ele>
        <time>2017-07-23T07:59:09Z</time>
      </trkpt>
      <trkpt lat="44.2244760" lon="7.2959300">
        <ele>1147.6</ele>
        <time>2017-07-23T07:59:10Z</time>
      </trkpt>
      <trkpt lat="44.2244630" lon="7.2958490">
        <ele>1148.2</ele>
        <time>2017-07-23T07:59:12Z</time>
      </trkpt>
      <trkpt lat="44.2244360" lon="7.2957310">
        <ele>1149.4</ele>
        <time>2017-07-23T07:59:15Z</time>
      </trkpt>
      <trkpt lat="44.2244200" lon="7.2956520">
        <ele>1150.2</ele>
        <time>2017-07-23T07:59:17Z</time>
      </trkpt>
      <trkpt lat="44.2244110" lon="7.2956140">
        <ele>1150.6</ele>
        <time>2017-07-23T07:59:18Z</time>
      </trkpt>
      <trkpt lat="44.2243880" lon="7.2954940">
        <ele>1151.8</ele>
        <time>2017-07-23T07:59:21Z</time>
      </trkpt>
      <trkpt lat="44.2243260" lon="7.2952970">
        <ele>1153.0</ele>
        <time>2017-07-23T07:59:26Z</time>
      </trkpt>
      <trkpt lat="44.2242780" lon="7.2950770">
        <ele>1154.0</ele>
        <time>2017-07-23T07:59:31Z</time>
      </trkpt>
      <trkpt lat="44.2242690" lon="7.2950320">
        <ele>1154.4</ele>
        <time>2017-07-23T07:59:32Z</time>
      </trkpt>
      <trkpt lat="44.2242530" lon="7.2948790">
        <ele>1155.2</ele>
        <time>2017-07-23T07:59:36Z</time>
      </trkpt>
      <trkpt lat="44.2242400" lon="7.2947970">
        <ele>1155.8</ele>
        <time>2017-07-23T07:59:38Z</time>
      </trkpt>
      <trkpt lat="44.2242220" lon="7.2947140">
        <ele>1156.4</ele>
        <time>2017-07-23T07:59:40Z</time>
      </trkpt>
      <trkpt lat="44.2241790" lon="7.2945500">
        <ele>1157.6</ele>
        <time>2017-07-23T07:59:44Z</time>
      </trkpt>
      <trkpt lat="44.2241680" lon="7.2944140">
        <ele>1158.8</ele>
        <time>2017-07-23T07:59:48Z</time>
      </trkpt>
      <trkpt lat="44.2241420" lon="7.2943140">
        <ele>1158.2</ele>
        <time>2017-07-23T07:59:51Z</time>
      </trkpt>
      <trkpt lat="44.2241310" lon="7.2942810">
        <ele>1160.4</ele>
        <time>2017-07-23T07:59:52Z</time>
      </trkpt>
      <trkpt lat="44.2240520" lon="7.2941630">
        <ele>1161.6</ele>
        <time>2017-07-23T07:59:56Z</time>
      </trkpt>
      <trkpt lat="44.2240070" lon="7.2940950">
        <ele>1162.4</ele>
        <time>2017-07-23T07:59:58Z</time>
      </trkpt>
      <trkpt lat="44.2239810" lon="7.2940300">
        <ele>1163.0</ele>
        <time>2017-07-23T08:00:00Z</time>
      </trkpt>
      <trkpt lat="44.2239150" lon="7.2939340">
        <ele>1163.8</ele>
        <time>2017-07-23T08:00:03Z</time>
      </trkpt>
      <trkpt lat="44.2238930" lon="7.2939020">
        <ele>1164.0</ele>
        <time>2017-07-23T08:00:04Z</time>
      </trkpt>
      <trkpt lat="44.2237590" lon="7.2937240">
        <ele>1165.0</ele>
        <time>2017-07-23T08:00:10Z</time>
      </trkpt>
      <trkpt lat="44.2236150" lon="7.2935430">
        <ele>1165.2</ele>
        <time>2017-07-23T08:00:16Z</time>
      </trkpt>
      <trkpt lat="44.2236020" lon="7.2935120">
        <ele>1166.4</ele>
        <time>2017-07-23T08:00:17Z</time>
      </trkpt>
      <trkpt lat="44.2235900" lon="7.2934860">
        <ele>1167.4</ele>
        <time>2017-07-23T08:00:18Z</time>
      </trkpt>
      <trkpt lat="44.2234940" lon="7.2933420">
        <ele>1168.4</ele>
        <time>2017-07-23T08:00:23Z</time>
      </trkpt>
      <trkpt lat="44.2234710" lon="7.2933110">
        <ele>1168.4</ele>
        <time>2017-07-23T08:00:24Z</time>
      </trkpt>
      <trkpt lat="44.2233220" lon="7.2931130">
        <ele>1168.4</ele>
        <time>2017-07-23T08:00:31Z</time>
      </trkpt>
      <trkpt lat="44.2231870" lon="7.2929050">
        <ele>1168.0</ele>
        <time>2017-07-23T08:00:38Z</time>
      </trkpt>
      <trkpt lat="44.2230720" lon="7.2926780">
        <ele>1168.4</ele>
        <time>2017-07-23T08:00:45Z</time>
      </trkpt>
      <trkpt lat="44.2229750" lon="7.2924720">
        <ele>1169.6</ele>
        <time>2017-07-23T08:00:51Z</time>
      </trkpt>
      <trkpt lat="44.2228640" lon="7.2922440">
        <ele>1171.0</ele>
        <time>2017-07-23T08:00:58Z</time>
      </trkpt>
      <trkpt lat="44.2227670" lon="7.2920520">
        <ele>1172.0</ele>
        <time>2017-07-23T08:01:03Z</time>
      </trkpt>
      <trkpt lat="44.2227380" lon="7.2919680">
        <ele>1172.4</ele>
        <time>2017-07-23T08:01:05Z</time>
      </trkpt>
      <trkpt lat="44.2227020" lon="7.2918360">
        <ele>1173.2</ele>
        <time>2017-07-23T08:01:08Z</time>
      </trkpt>
      <trkpt lat="44.2226310" lon="7.2916890">
        <ele>1174.6</ele>
        <time>2017-07-23T08:01:12Z</time>
      </trkpt>
      <trkpt lat="44.2225380" lon="7.2915600">
        <ele>1176.0</ele>
        <time>2017-07-23T08:01:16Z</time>
      </trkpt>
      <trkpt lat="44.2224680" lon="7.2914760">
        <ele>1177.0</ele>
        <time>2017-07-23T08:01:19Z</time>
      </trkpt>
      <trkpt lat="44.2224480" lon="7.2914470">
        <ele>1177.4</ele>
        <time>2017-07-23T08:01:20Z</time>
      </trkpt>
      <trkpt lat="44.2224130" lon="7.2913890">
        <ele>1178.2</ele>
        <time>2017-07-23T08:01:22Z</time>
      </trkpt>
      <trkpt lat="44.2223600" lon="7.2913020">
        <ele>1179.2</ele>
        <time>2017-07-23T08:01:25Z</time>
      </trkpt>
      <trkpt lat="44.2223350" lon="7.2912440">
        <ele>1179.8</ele>
        <time>2017-07-23T08:01:27Z</time>
      </trkpt>
      <trkpt lat="44.2222960" lon="7.2911880">
        <ele>1180.6</ele>
        <time>2017-07-23T08:01:29Z</time>
      </trkpt>
      <trkpt lat="44.2221920" lon="7.2910920">
        <ele>1181.8</ele>
        <time>2017-07-23T08:01:33Z</time>
      </trkpt>
      <trkpt lat="44.2221610" lon="7.2910710">
        <ele>1182.2</ele>
        <time>2017-07-23T08:01:34Z</time>
      </trkpt>
      <trkpt lat="44.2221000" lon="7.2910310">
        <ele>1183.0</ele>
        <time>2017-07-23T08:01:36Z</time>
      </trkpt>
      <trkpt lat="44.2220050" lon="7.2909700">
        <ele>1184.0</ele>
        <time>2017-07-23T08:01:39Z</time>
      </trkpt>
      <trkpt lat="44.2219510" lon="7.2909270">
        <ele>1184.6</ele>
        <time>2017-07-23T08:01:41Z</time>
      </trkpt>
      <trkpt lat="44.2219050" lon="7.2908720">
        <ele>1185.0</ele>
        <time>2017-07-23T08:01:43Z</time>
      </trkpt>
      <trkpt lat="44.2218110" lon="7.2907400">
        <ele>1186.0</ele>
        <time>2017-07-23T08:01:48Z</time>
      </trkpt>
      <trkpt lat="44.2217900" lon="7.2907120">
        <ele>1186.2</ele>
        <time>2017-07-23T08:01:49Z</time>
      </trkpt>
      <trkpt lat="44.2217400" lon="7.2905560">
        <ele>1187.2</ele>
        <time>2017-07-23T08:01:54Z</time>
      </trkpt>
      <trkpt lat="44.2216940" lon="7.2903510">
        <ele>1188.4</ele>
        <time>2017-07-23T08:01:59Z</time>
      </trkpt>
      <trkpt lat="44.2216870" lon="7.2903130">
        <ele>1188.6</ele>
        <time>2017-07-23T08:02:00Z</time>
      </trkpt>
      <trkpt lat="44.2216670" lon="7.2901580">
        <ele>1189.4</ele>
        <time>2017-07-23T08:02:04Z</time>
      </trkpt>
      <trkpt lat="44.2216600" lon="7.2900460">
        <ele>1190.2</ele>
        <time>2017-07-23T08:02:07Z</time>
      </trkpt>
      <trkpt lat="44.2216570" lon="7.2899670">
        <ele>1190.6</ele>
        <time>2017-07-23T08:02:09Z</time>
      </trkpt>
      <trkpt lat="44.2216540" lon="7.2898130">
        <ele>1192.0</ele>
        <time>2017-07-23T08:02:13Z</time>
      </trkpt>
      <trkpt lat="44.2216540" lon="7.2897020">
        <ele>1193.0</ele>
        <time>2017-07-23T08:02:16Z</time>
      </trkpt>
      <trkpt lat="44.2216330" lon="7.2895170">
        <ele>1194.2</ele>
        <time>2017-07-23T08:02:21Z</time>
      </trkpt>
      <trkpt lat="44.2216260" lon="7.2894770">
        <ele>1194.6</ele>
        <time>2017-07-23T08:02:22Z</time>
      </trkpt>
      <trkpt lat="44.2215510" lon="7.2892890">
        <ele>1195.0</ele>
        <time>2017-07-23T08:02:28Z</time>
      </trkpt>
      <trkpt lat="44.2214410" lon="7.2890620">
        <ele>1194.8</ele>
        <time>2017-07-23T08:02:36Z</time>
      </trkpt>
      <trkpt lat="44.2213060" lon="7.2888460">
        <ele>1194.8</ele>
        <time>2017-07-23T08:02:44Z</time>
      </trkpt>
      <trkpt lat="44.2211820" lon="7.2886960">
        <ele>1195.2</ele>
        <time>2017-07-23T08:02:50Z</time>
      </trkpt>
      <trkpt lat="44.2211230" lon="7.2886560">
        <ele>1195.6</ele>
        <time>2017-07-23T08:02:52Z</time>
      </trkpt>
      <trkpt lat="44.2209970" lon="7.2885650">
        <ele>1196.4</ele>
        <time>2017-07-23T08:02:57Z</time>
      </trkpt>
      <trkpt lat="44.2209480" lon="7.2885360">
        <ele>1196.8</ele>
        <time>2017-07-23T08:02:59Z</time>
      </trkpt>
      <trkpt lat="44.2208460" lon="7.2884700">
        <ele>1197.4</ele>
        <time>2017-07-23T08:03:03Z</time>
      </trkpt>
      <trkpt lat="44.2207210" lon="7.2883930">
        <ele>1198.2</ele>
        <time>2017-07-23T08:03:08Z</time>
      </trkpt>
      <trkpt lat="44.2206670" lon="7.2883740">
        <ele>1198.4</ele>
        <time>2017-07-23T08:03:10Z</time>
      </trkpt>
      <trkpt lat="44.2205110" lon="7.2882880">
        <ele>1199.6</ele>
        <time>2017-07-23T08:03:16Z</time>
      </trkpt>
      <trkpt lat="44.2203930" lon="7.2882210">
        <ele>1200.6</ele>
        <time>2017-07-23T08:03:21Z</time>
      </trkpt>
      <trkpt lat="44.2203500" lon="7.2881810">
        <ele>1201.0</ele>
        <time>2017-07-23T08:03:23Z</time>
      </trkpt>
      <trkpt lat="44.2202790" lon="7.2881200">
        <ele>1202.4</ele>
        <time>2017-07-23T08:03:26Z</time>
      </trkpt>
      <trkpt lat="44.2202190" lon="7.2880420">
        <ele>1203.8</ele>
        <time>2017-07-23T08:03:29Z</time>
      </trkpt>
      <trkpt lat="44.2201800" lon="7.2879910">
        <ele>1205.0</ele>
        <time>2017-07-23T08:03:31Z</time>
      </trkpt>
      <trkpt lat="44.2201640" lon="7.2879620">
        <ele>1205.6</ele>
        <time>2017-07-23T08:03:32Z</time>
      </trkpt>
      <trkpt lat="44.2201470" lon="7.2879330">
        <ele>1206.2</ele>
        <time>2017-07-23T08:03:33Z</time>
      </trkpt>
      <trkpt lat="44.2201000" lon="7.2878480">
        <ele>1207.6</ele>
        <time>2017-07-23T08:03:36Z</time>
      </trkpt>
      <trkpt lat="44.2200630" lon="7.2877450">
        <ele>1209.2</ele>
        <time>2017-07-23T08:03:39Z</time>
      </trkpt>
      <trkpt lat="44.2200360" lon="7.2876780">
        <ele>1210.2</ele>
        <time>2017-07-23T08:03:41Z</time>
      </trkpt>
      <trkpt lat="44.2199750" lon="7.2875030">
        <ele>1211.6</ele>
        <time>2017-07-23T08:03:46Z</time>
      </trkpt>
      <trkpt lat="44.2199400" lon="7.2873850">
        <ele>1212.8</ele>
        <time>2017-07-23T08:03:49Z</time>
      </trkpt>
      <trkpt lat="44.2199220" lon="7.2873100">
        <ele>1214.0</ele>
        <time>2017-07-23T08:03:51Z</time>
      </trkpt>
      <trkpt lat="44.2199050" lon="7.2871910">
        <ele>1215.2</ele>
        <time>2017-07-23T08:03:54Z</time>
      </trkpt>
      <trkpt lat="44.2199020" lon="7.2870990">
        <ele>1215.8</ele>
        <time>2017-07-23T08:03:56Z</time>
      </trkpt>
      <trkpt lat="44.2199010" lon="7.2870120">
        <ele>1216.4</ele>
        <time>2017-07-23T08:03:58Z</time>
      </trkpt>
      <trkpt lat="44.2198820" lon="7.2868360">
        <ele>1217.6</ele>
        <time>2017-07-23T08:04:02Z</time>
      </trkpt>
      <trkpt lat="44.2198730" lon="7.2866100">
        <ele>1218.8</ele>
        <time>2017-07-23T08:04:07Z</time>
      </trkpt>
      <trkpt lat="44.2198680" lon="7.2865140">
        <ele>1219.2</ele>
        <time>2017-07-23T08:04:09Z</time>
      </trkpt>
      <trkpt lat="44.2198540" lon="7.2863680">
        <ele>1219.8</ele>
        <time>2017-07-23T08:04:12Z</time>
      </trkpt>
      <trkpt lat="44.2198310" lon="7.2862290">
        <ele>1220.8</ele>
        <time>2017-07-23T08:04:15Z</time>
      </trkpt>
      <trkpt lat="44.2197170" lon="7.2860240">
        <ele>1221.0</ele>
        <time>2017-07-23T08:04:20Z</time>
      </trkpt>
      <trkpt lat="44.2194910" lon="7.2857630">
        <ele>1220.4</ele>
        <time>2017-07-23T08:04:28Z</time>
      </trkpt>
      <trkpt lat="44.2193330" lon="7.2855490">
        <ele>1220.6</ele>
        <time>2017-07-23T08:04:35Z</time>
      </trkpt>
      <trkpt lat="44.2191770" lon="7.2853030">
        <ele>1221.0</ele>
        <time>2017-07-23T08:04:42Z</time>
      </trkpt>
      <trkpt lat="44.2190270" lon="7.2850340">
        <ele>1221.6</ele>
        <time>2017-07-23T08:04:50Z</time>
      </trkpt>
      <trkpt lat="44.2189810" lon="7.2849810">
        <ele>1222.2</ele>
        <time>2017-07-23T08:04:52Z</time>
      </trkpt>
      <trkpt lat="44.2188750" lon="7.2848380">
        <ele>1223.2</ele>
        <time>2017-07-23T08:04:57Z</time>
      </trkpt>
      <trkpt lat="44.2187700" lon="7.2847030">
        <ele>1224.6</ele>
        <time>2017-07-23T08:05:02Z</time>
      </trkpt>
      <trkpt lat="44.2187550" lon="7.2846750">
        <ele>1224.8</ele>
        <time>2017-07-23T08:05:03Z</time>
      </trkpt>
      <trkpt lat="44.2186730" lon="7.2845520">
        <ele>1225.8</ele>
        <time>2017-07-23T08:05:07Z</time>
      </trkpt>
      <trkpt lat="44.2186160" lon="7.2844660">
        <ele>1226.6</ele>
        <time>2017-07-23T08:05:10Z</time>
      </trkpt>
      <trkpt lat="44.2185970" lon="7.2844350">
        <ele>1226.8</ele>
        <time>2017-07-23T08:05:11Z</time>
      </trkpt>
      <trkpt lat="44.2184500" lon="7.2842400">
        <ele>1228.0</ele>
        <time>2017-07-23T08:05:18Z</time>
      </trkpt>
      <trkpt lat="44.2184040" lon="7.2841650">
        <ele>1228.4</ele>
        <time>2017-07-23T08:05:20Z</time>
      </trkpt>
      <trkpt lat="44.2182920" lon="7.2839130">
        <ele>1229.6</ele>
        <time>2017-07-23T08:05:26Z</time>
      </trkpt>
      <trkpt lat="44.2182540" lon="7.2837880">
        <ele>1230.6</ele>
        <time>2017-07-23T08:05:29Z</time>
      </trkpt>
      <trkpt lat="44.2182110" lon="7.2836630">
        <ele>1231.6</ele>
        <time>2017-07-23T08:05:32Z</time>
      </trkpt>
      <trkpt lat="44.2181960" lon="7.2836210">
        <ele>1232.0</ele>
        <time>2017-07-23T08:05:33Z</time>
      </trkpt>
      <trkpt lat="44.2180940" lon="7.2834350">
        <ele>1232.8</ele>
        <time>2017-07-23T08:05:38Z</time>
      </trkpt>
      <trkpt lat="44.2180190" lon="7.2832900">
        <ele>1233.4</ele>
        <time>2017-07-23T08:05:42Z</time>
      </trkpt>
      <trkpt lat="44.2179530" lon="7.2831770">
        <ele>1233.8</ele>
        <time>2017-07-23T08:05:45Z</time>
      </trkpt>
      <trkpt lat="44.2178430" lon="7.2829900">
        <ele>1234.8</ele>
        <time>2017-07-23T08:05:50Z</time>
      </trkpt>
      <trkpt lat="44.2178220" lon="7.2829490">
        <ele>1235.0</ele>
        <time>2017-07-23T08:05:51Z</time>
      </trkpt>
      <trkpt lat="44.2176980" lon="7.2827370">
        <ele>1236.0</ele>
        <time>2017-07-23T08:05:57Z</time>
      </trkpt>
      <trkpt lat="44.2176750" lon="7.2827080">
        <ele>1236.2</ele>
        <time>2017-07-23T08:05:58Z</time>
      </trkpt>
      <trkpt lat="44.2175510" lon="7.2825220">
        <ele>1237.4</ele>
        <time>2017-07-23T08:06:04Z</time>
      </trkpt>
      <trkpt lat="44.2174680" lon="7.2823850">
        <ele>1238.4</ele>
        <time>2017-07-23T08:06:08Z</time>
      </trkpt>
      <trkpt lat="44.2174090" lon="7.2822940">
        <ele>1239.2</ele>
        <time>2017-07-23T08:06:11Z</time>
      </trkpt>
      <trkpt lat="44.2173680" lon="7.2822320">
        <ele>1239.6</ele>
        <time>2017-07-23T08:06:13Z</time>
      </trkpt>
      <trkpt lat="44.2172860" lon="7.2820960">
        <ele>1240.8</ele>
        <time>2017-07-23T08:06:17Z</time>
      </trkpt>
      <trkpt lat="44.2172400" lon="7.2820290">
        <ele>1241.4</ele>
        <time>2017-07-23T08:06:19Z</time>
      </trkpt>
      <trkpt lat="44.2171980" lon="7.2819690">
        <ele>1241.8</ele>
        <time>2017-07-23T08:06:21Z</time>
      </trkpt>
      <trkpt lat="44.2171350" lon="7.2818380">
        <ele>1242.8</ele>
        <time>2017-07-23T08:06:25Z</time>
      </trkpt>
      <trkpt lat="44.2171160" lon="7.2818030">
        <ele>1243.2</ele>
        <time>2017-07-23T08:06:26Z</time>
      </trkpt>
      <trkpt lat="44.2170340" lon="7.2816770">
        <ele>1244.0</ele>
        <time>2017-07-23T08:06:30Z</time>
      </trkpt>
      <trkpt lat="44.2169600" lon="7.2815440">
        <ele>1244.6</ele>
        <time>2017-07-23T08:06:34Z</time>
      </trkpt>
      <trkpt lat="44.2169180" lon="7.2814810">
        <ele>1245.0</ele>
        <time>2017-07-23T08:06:36Z</time>
      </trkpt>
      <trkpt lat="44.2168370" lon="7.2813510">
        <ele>1246.2</ele>
        <time>2017-07-23T08:06:40Z</time>
      </trkpt>
      <trkpt lat="44.2168100" lon="7.2812810">
        <ele>1246.4</ele>
        <time>2017-07-23T08:06:42Z</time>
      </trkpt>
      <trkpt lat="44.2167260" lon="7.2810980">
        <ele>1247.2</ele>
        <time>2017-07-23T08:06:48Z</time>
      </trkpt>
      <trkpt lat="44.2167080" lon="7.2810630">
        <ele>1247.2</ele>
        <time>2017-07-23T08:06:49Z</time>
      </trkpt>
      <trkpt lat="44.2166660" lon="7.2809650">
        <ele>1246.2</ele>
        <time>2017-07-23T08:06:52Z</time>
      </trkpt>
      <trkpt lat="44.2166170" lon="7.2808740">
        <ele>1248.2</ele>
        <time>2017-07-23T08:06:55Z</time>
      </trkpt>
      <trkpt lat="44.2165850" lon="7.2808160">
        <ele>1248.6</ele>
        <time>2017-07-23T08:06:57Z</time>
      </trkpt>
      <trkpt lat="44.2164650" lon="7.2806190">
        <ele>1249.4</ele>
        <time>2017-07-23T08:07:03Z</time>
      </trkpt>
      <trkpt lat="44.2164060" lon="7.2805280">
        <ele>1249.8</ele>
        <time>2017-07-23T08:07:06Z</time>
      </trkpt>
      <trkpt lat="44.2163450" lon="7.2804040">
        <ele>1250.6</ele>
        <time>2017-07-23T08:07:10Z</time>
      </trkpt>
      <trkpt lat="44.2162600" lon="7.2802420">
        <ele>1251.6</ele>
        <time>2017-07-23T08:07:15Z</time>
      </trkpt>
      <trkpt lat="44.2162420" lon="7.2802080">
        <ele>1251.8</ele>
        <time>2017-07-23T08:07:16Z</time>
      </trkpt>
      <trkpt lat="44.2161440" lon="7.2800130">
        <ele>1252.8</ele>
        <time>2017-07-23T08:07:22Z</time>
      </trkpt>
      <trkpt lat="44.2161090" lon="7.2799500">
        <ele>1253.2</ele>
        <time>2017-07-23T08:07:24Z</time>
      </trkpt>
      <trkpt lat="44.2160260" lon="7.2798420">
        <ele>1253.8</ele>
        <time>2017-07-23T08:07:28Z</time>
      </trkpt>
      <trkpt lat="44.2159350" lon="7.2797470">
        <ele>1254.4</ele>
        <time>2017-07-23T08:07:32Z</time>
      </trkpt>
      <trkpt lat="44.2158690" lon="7.2796750">
        <ele>1255.0</ele>
        <time>2017-07-23T08:07:35Z</time>
      </trkpt>
      <trkpt lat="44.2157810" lon="7.2795890">
        <ele>1255.6</ele>
        <time>2017-07-23T08:07:39Z</time>
      </trkpt>
      <trkpt lat="44.2157060" lon="7.2795270">
        <ele>1256.0</ele>
        <time>2017-07-23T08:07:42Z</time>
      </trkpt>
      <trkpt lat="44.2156120" lon="7.2794290">
        <ele>1256.6</ele>
        <time>2017-07-23T08:07:46Z</time>
      </trkpt>
      <trkpt lat="44.2155600" lon="7.2793840">
        <ele>1257.0</ele>
        <time>2017-07-23T08:07:48Z</time>
      </trkpt>
      <trkpt lat="44.2154540" lon="7.2792870">
        <ele>1258.4</ele>
        <time>2017-07-23T08:07:52Z</time>
      </trkpt>
      <trkpt lat="44.2154280" lon="7.2792630">
        <ele>1258.8</ele>
        <time>2017-07-23T08:07:53Z</time>
      </trkpt>
      <trkpt lat="44.2153790" lon="7.2792150">
        <ele>1259.8</ele>
        <time>2017-07-23T08:07:55Z</time>
      </trkpt>
      <trkpt lat="44.2152750" lon="7.2791190">
        <ele>1261.2</ele>
        <time>2017-07-23T08:07:59Z</time>
      </trkpt>
      <trkpt lat="44.2152270" lon="7.2790740">
        <ele>1262.4</ele>
        <time>2017-07-23T08:08:01Z</time>
      </trkpt>
      <trkpt lat="44.2151990" lon="7.2790530">
        <ele>1262.8</ele>
        <time>2017-07-23T08:08:02Z</time>
      </trkpt>
      <trkpt lat="44.2151500" lon="7.2790080">
        <ele>1263.4</ele>
        <time>2017-07-23T08:08:04Z</time>
      </trkpt>
      <trkpt lat="44.2150810" lon="7.2789620">
        <ele>1264.8</ele>
        <time>2017-07-23T08:08:07Z</time>
      </trkpt>
      <trkpt lat="44.2150530" lon="7.2789480">
        <ele>1265.4</ele>
        <time>2017-07-23T08:08:08Z</time>
      </trkpt>
      <trkpt lat="44.2149970" lon="7.2789190">
        <ele>1266.2</ele>
        <time>2017-07-23T08:08:10Z</time>
      </trkpt>
      <trkpt lat="44.2149160" lon="7.2788800">
        <ele>1267.4</ele>
        <time>2017-07-23T08:08:13Z</time>
      </trkpt>
      <trkpt lat="44.2148580" lon="7.2788670">
        <ele>1269.0</ele>
        <time>2017-07-23T08:08:15Z</time>
      </trkpt>
      <trkpt lat="44.2148280" lon="7.2788610">
        <ele>1269.2</ele>
        <time>2017-07-23T08:08:16Z</time>
      </trkpt>
      <trkpt lat="44.2147450" lon="7.2788440">
        <ele>1270.0</ele>
        <time>2017-07-23T08:08:19Z</time>
      </trkpt>
      <trkpt lat="44.2146070" lon="7.2788540">
        <ele>1271.0</ele>
        <time>2017-07-23T08:08:24Z</time>
      </trkpt>
      <trkpt lat="44.2145770" lon="7.2788600">
        <ele>1271.0</ele>
        <time>2017-07-23T08:08:25Z</time>
      </trkpt>
      <trkpt lat="44.2144350" lon="7.2788820">
        <ele>1271.6</ele>
        <time>2017-07-23T08:08:30Z</time>
      </trkpt>
      <trkpt lat="44.2143240" lon="7.2789020">
        <ele>1272.0</ele>
        <time>2017-07-23T08:08:34Z</time>
      </trkpt>
      <trkpt lat="44.2142690" lon="7.2789120">
        <ele>1272.4</ele>
        <time>2017-07-23T08:08:36Z</time>
      </trkpt>
      <trkpt lat="44.2141890" lon="7.2789300">
        <ele>1273.0</ele>
        <time>2017-07-23T08:08:39Z</time>
      </trkpt>
      <trkpt lat="44.2140790" lon="7.2789490">
        <ele>1273.4</ele>
        <time>2017-07-23T08:08:43Z</time>
      </trkpt>
      <trkpt lat="44.2138500" lon="7.2789690">
        <ele>1274.2</ele>
        <time>2017-07-23T08:08:51Z</time>
      </trkpt>
      <trkpt lat="44.2137850" lon="7.2789060">
        <ele>1274.8</ele>
        <time>2017-07-23T08:08:54Z</time>
      </trkpt>
      <trkpt lat="44.2137850" lon="7.2788640">
        <ele>1275.0</ele>
        <time>2017-07-23T08:08:55Z</time>
      </trkpt>
      <trkpt lat="44.2137950" lon="7.2788370">
        <ele>1275.2</ele>
        <time>2017-07-23T08:08:56Z</time>
      </trkpt>
      <trkpt lat="44.2138440" lon="7.2788130">
        <ele>1276.0</ele>
        <time>2017-07-23T08:08:58Z</time>
      </trkpt>
      <trkpt lat="44.2139100" lon="7.2788040">
        <ele>1276.4</ele>
        <time>2017-07-23T08:09:00Z</time>
      </trkpt>
      <trkpt lat="44.2139400" lon="7.2787970">
        <ele>1276.6</ele>
        <time>2017-07-23T08:09:01Z</time>
      </trkpt>
      <trkpt lat="44.2140090" lon="7.2787900">
        <ele>1277.4</ele>
        <time>2017-07-23T08:09:03Z</time>
      </trkpt>
      <trkpt lat="44.2141390" lon="7.2787790">
        <ele>1278.6</ele>
        <time>2017-07-23T08:09:07Z</time>
      </trkpt>
      <trkpt lat="44.2142340" lon="7.2787580">
        <ele>1279.2</ele>
        <time>2017-07-23T08:09:10Z</time>
      </trkpt>
      <trkpt lat="44.2142650" lon="7.2787490">
        <ele>1279.6</ele>
        <time>2017-07-23T08:09:11Z</time>
      </trkpt>
      <trkpt lat="44.2143980" lon="7.2786770">
        <ele>1280.8</ele>
        <time>2017-07-23T08:09:15Z</time>
      </trkpt>
      <trkpt lat="44.2144570" lon="7.2786370">
        <ele>1281.2</ele>
        <time>2017-07-23T08:09:17Z</time>
      </trkpt>
      <trkpt lat="44.2145180" lon="7.2785940">
        <ele>1281.8</ele>
        <time>2017-07-23T08:09:19Z</time>
      </trkpt>
      <trkpt lat="44.2146230" lon="7.2784980">
        <ele>1282.8</ele>
        <time>2017-07-23T08:09:23Z</time>
      </trkpt>
      <trkpt lat="44.2146390" lon="7.2784590">
        <ele>1283.2</ele>
        <time>2017-07-23T08:09:24Z</time>
      </trkpt>
      <trkpt lat="44.2146430" lon="7.2784130">
        <ele>1283.6</ele>
        <time>2017-07-23T08:09:25Z</time>
      </trkpt>
      <trkpt lat="44.2146360" lon="7.2783200">
        <ele>1284.6</ele>
        <time>2017-07-23T08:09:27Z</time>
      </trkpt>
      <trkpt lat="44.2146070" lon="7.2782450">
        <ele>1285.0</ele>
        <time>2017-07-23T08:09:29Z</time>
      </trkpt>
      <trkpt lat="44.2145680" lon="7.2782450">
        <ele>1285.0</ele>
        <time>2017-07-23T08:09:30Z</time>
      </trkpt>
      <trkpt lat="44.2144790" lon="7.2783160">
        <ele>1285.2</ele>
        <time>2017-07-23T08:09:32Z</time>
      </trkpt>
      <trkpt lat="44.2144090" lon="7.2783900">
        <ele>1285.6</ele>
        <time>2017-07-23T08:09:34Z</time>
      </trkpt>
      <trkpt lat="44.2143780" lon="7.2784160">
        <ele>1285.8</ele>
        <time>2017-07-23T08:09:35Z</time>
      </trkpt>
      <trkpt lat="44.2143220" lon="7.2784580">
        <ele>1285.8</ele>
        <time>2017-07-23T08:09:37Z</time>
      </trkpt>
      <trkpt lat="44.2141430" lon="7.2785100">
        <ele>1286.0</ele>
        <time>2017-07-23T08:09:42Z</time>
      </trkpt>
      <trkpt lat="44.2139270" lon="7.2784590">
        <ele>1286.4</ele>
        <time>2017-07-23T08:09:49Z</time>
      </trkpt>
      <trkpt lat="44.2138360" lon="7.2784470">
        <ele>1286.8</ele>
        <time>2017-07-23T08:09:52Z</time>
      </trkpt>
      <trkpt lat="44.2137000" lon="7.2783960">
        <ele>1287.6</ele>
        <time>2017-07-23T08:09:57Z</time>
      </trkpt>
      <trkpt lat="44.2136460" lon="7.2783660">
        <ele>1288.0</ele>
        <time>2017-07-23T08:09:59Z</time>
      </trkpt>
      <trkpt lat="44.2135080" lon="7.2783100">
        <ele>1289.0</ele>
        <time>2017-07-23T08:10:04Z</time>
      </trkpt>
      <trkpt lat="44.2133510" lon="7.2782280">
        <ele>1290.0</ele>
        <time>2017-07-23T08:10:10Z</time>
      </trkpt>
      <trkpt lat="44.2133250" lon="7.2782140">
        <ele>1290.2</ele>
        <time>2017-07-23T08:10:11Z</time>
      </trkpt>
      <trkpt lat="44.2131870" lon="7.2781610">
        <ele>1291.0</ele>
        <time>2017-07-23T08:10:16Z</time>
      </trkpt>
      <trkpt lat="44.2130790" lon="7.2781050">
        <ele>1291.8</ele>
        <time>2017-07-23T08:10:20Z</time>
      </trkpt>
      <trkpt lat="44.2130280" lon="7.2780720">
        <ele>1292.4</ele>
        <time>2017-07-23T08:10:22Z</time>
      </trkpt>
      <trkpt lat="44.2129130" lon="7.2780320">
        <ele>1292.8</ele>
        <time>2017-07-23T08:10:26Z</time>
      </trkpt>
      <trkpt lat="44.2128050" lon="7.2779840">
        <ele>1293.6</ele>
        <time>2017-07-23T08:10:30Z</time>
      </trkpt>
      <trkpt lat="44.2126730" lon="7.2779370">
        <ele>1294.6</ele>
        <time>2017-07-23T08:10:35Z</time>
      </trkpt>
      <trkpt lat="44.2125730" lon="7.2778930">
        <ele>1295.6</ele>
        <time>2017-07-23T08:10:39Z</time>
      </trkpt>
      <trkpt lat="44.2125010" lon="7.2778380">
        <ele>1296.4</ele>
        <time>2017-07-23T08:10:42Z</time>
      </trkpt>
      <trkpt lat="44.2124630" lon="7.2777860">
        <ele>1297.0</ele>
        <time>2017-07-23T08:10:44Z</time>
      </trkpt>
      <trkpt lat="44.2124110" lon="7.2776590">
        <ele>1297.8</ele>
        <time>2017-07-23T08:10:48Z</time>
      </trkpt>
      <trkpt lat="44.2124030" lon="7.2776260">
        <ele>1298.2</ele>
        <time>2017-07-23T08:10:49Z</time>
      </trkpt>
      <trkpt lat="44.2123880" lon="7.2775170">
        <ele>1299.6</ele>
        <time>2017-07-23T08:10:52Z</time>
      </trkpt>
      <trkpt lat="44.2123770" lon="7.2774440">
        <ele>1300.8</ele>
        <time>2017-07-23T08:10:54Z</time>
      </trkpt>
      <trkpt lat="44.2123620" lon="7.2773780">
        <ele>1302.0</ele>
        <time>2017-07-23T08:10:56Z</time>
      </trkpt>
      <trkpt lat="44.2123510" lon="7.2773040">
        <ele>1303.0</ele>
        <time>2017-07-23T08:10:58Z</time>
      </trkpt>
      <trkpt lat="44.2123410" lon="7.2772320">
        <ele>1304.0</ele>
        <time>2017-07-23T08:11:00Z</time>
      </trkpt>
      <trkpt lat="44.2123250" lon="7.2771550">
        <ele>1305.0</ele>
        <time>2017-07-23T08:11:02Z</time>
      </trkpt>
      <trkpt lat="44.2123190" lon="7.2770840">
        <ele>1306.4</ele>
        <time>2017-07-23T08:11:04Z</time>
      </trkpt>
      <trkpt lat="44.2123010" lon="7.2769740">
        <ele>1307.6</ele>
        <time>2017-07-23T08:11:07Z</time>
      </trkpt>
      <trkpt lat="44.2122740" lon="7.2768670">
        <ele>1308.6</ele>
        <time>2017-07-23T08:11:10Z</time>
      </trkpt>
      <trkpt lat="44.2122690" lon="7.2768340">
        <ele>1309.0</ele>
        <time>2017-07-23T08:11:11Z</time>
      </trkpt>
      <trkpt lat="44.2122640" lon="7.2767590">
        <ele>1309.8</ele>
        <time>2017-07-23T08:11:13Z</time>
      </trkpt>
      <trkpt lat="44.2122380" lon="7.2766100">
        <ele>1311.2</ele>
        <time>2017-07-23T08:11:17Z</time>
      </trkpt>
      <trkpt lat="44.2121970" lon="7.2764720">
        <ele>1312.4</ele>
        <time>2017-07-23T08:11:21Z</time>
      </trkpt>
      <trkpt lat="44.2121690" lon="7.2763070">
        <ele>1313.4</ele>
        <time>2017-07-23T08:11:25Z</time>
      </trkpt>
      <trkpt lat="44.2121390" lon="7.2761470">
        <ele>1314.6</ele>
        <time>2017-07-23T08:11:29Z</time>
      </trkpt>
      <trkpt lat="44.2121140" lon="7.2760180">
        <ele>1315.0</ele>
        <time>2017-07-23T08:11:32Z</time>
      </trkpt>
      <trkpt lat="44.2120240" lon="7.2757130">
        <ele>1315.4</ele>
        <time>2017-07-23T08:11:40Z</time>
      </trkpt>
      <trkpt lat="44.2119380" lon="7.2754960">
        <ele>1315.6</ele>
        <time>2017-07-23T08:11:46Z</time>
      </trkpt>
      <trkpt lat="44.2119210" lon="7.2754640">
        <ele>1315.6</ele>
        <time>2017-07-23T08:11:47Z</time>
      </trkpt>
      <trkpt lat="44.2117920" lon="7.2751930">
        <ele>1316.8</ele>
        <time>2017-07-23T08:11:55Z</time>
      </trkpt>
      <trkpt lat="44.2117530" lon="7.2751250">
        <ele>1317.4</ele>
        <time>2017-07-23T08:11:57Z</time>
      </trkpt>
      <trkpt lat="44.2117060" lon="7.2750660">
        <ele>1318.0</ele>
        <time>2017-07-23T08:11:59Z</time>
      </trkpt>
      <trkpt lat="44.2116100" lon="7.2750170">
        <ele>1318.4</ele>
        <time>2017-07-23T08:12:02Z</time>
      </trkpt>
      <trkpt lat="44.2113010" lon="7.2749360">
        <ele>1318.6</ele>
        <time>2017-07-23T08:12:11Z</time>
      </trkpt>
      <trkpt lat="44.2112150" lon="7.2748850">
        <ele>1319.0</ele>
        <time>2017-07-23T08:12:14Z</time>
      </trkpt>
      <trkpt lat="44.2110860" lon="7.2747480">
        <ele>1319.2</ele>
        <time>2017-07-23T08:12:19Z</time>
      </trkpt>
      <trkpt lat="44.2109030" lon="7.2745440">
        <ele>1320.0</ele>
        <time>2017-07-23T08:12:27Z</time>
      </trkpt>
      <trkpt lat="44.2106840" lon="7.2743820">
        <ele>1321.0</ele>
        <time>2017-07-23T08:12:35Z</time>
      </trkpt>
      <trkpt lat="44.2104900" lon="7.2742320">
        <ele>1322.2</ele>
        <time>2017-07-23T08:12:42Z</time>
      </trkpt>
      <trkpt lat="44.2103600" lon="7.2741140">
        <ele>1323.2</ele>
        <time>2017-07-23T08:12:47Z</time>
      </trkpt>
      <trkpt lat="44.2103350" lon="7.2740910">
        <ele>1323.4</ele>
        <time>2017-07-23T08:12:48Z</time>
      </trkpt>
      <trkpt lat="44.2102690" lon="7.2740310">
        <ele>1324.4</ele>
        <time>2017-07-23T08:12:51Z</time>
      </trkpt>
      <trkpt lat="44.2102240" lon="7.2739860">
        <ele>1325.2</ele>
        <time>2017-07-23T08:12:53Z</time>
      </trkpt>
      <trkpt lat="44.2102020" lon="7.2739650">
        <ele>1325.6</ele>
        <time>2017-07-23T08:12:54Z</time>
      </trkpt>
      <trkpt lat="44.2101200" lon="7.2739050">
        <ele>1326.6</ele>
        <time>2017-07-23T08:12:57Z</time>
      </trkpt>
      <trkpt lat="44.2100310" lon="7.2738410">
        <ele>1327.6</ele>
        <time>2017-07-23T08:13:00Z</time>
      </trkpt>
      <trkpt lat="44.2099690" lon="7.2738070">
        <ele>1328.2</ele>
        <time>2017-07-23T08:13:02Z</time>
      </trkpt>
      <trkpt lat="44.2099350" lon="7.2737860">
        <ele>1328.8</ele>
        <time>2017-07-23T08:13:03Z</time>
      </trkpt>
      <trkpt lat="44.2097470" lon="7.2736530">
        <ele>1329.6</ele>
        <time>2017-07-23T08:13:09Z</time>
      </trkpt>
      <trkpt lat="44.2096880" lon="7.2736140">
        <ele>1329.8</ele>
        <time>2017-07-23T08:13:11Z</time>
      </trkpt>
      <trkpt lat="44.2095650" lon="7.2735500">
        <ele>1331.0</ele>
        <time>2017-07-23T08:13:15Z</time>
      </trkpt>
      <trkpt lat="44.2095360" lon="7.2735310">
        <ele>1331.2</ele>
        <time>2017-07-23T08:13:16Z</time>
      </trkpt>
      <trkpt lat="44.2094580" lon="7.2734650">
        <ele>1332.2</ele>
        <time>2017-07-23T08:13:19Z</time>
      </trkpt>
      <trkpt lat="44.2093460" lon="7.2733980">
        <ele>1333.6</ele>
        <time>2017-07-23T08:13:23Z</time>
      </trkpt>
      <trkpt lat="44.2093180" lon="7.2733790">
        <ele>1334.0</ele>
        <time>2017-07-23T08:13:24Z</time>
      </trkpt>
      <trkpt lat="44.2091980" lon="7.2732660">
        <ele>1334.8</ele>
        <time>2017-07-23T08:13:29Z</time>
      </trkpt>
      <trkpt lat="44.2091530" lon="7.2732100">
        <ele>1335.0</ele>
        <time>2017-07-23T08:13:31Z</time>
      </trkpt>
      <trkpt lat="44.2089990" lon="7.2730790">
        <ele>1336.0</ele>
        <time>2017-07-23T08:13:37Z</time>
      </trkpt>
      <trkpt lat="44.2089740" lon="7.2730580">
        <ele>1336.4</ele>
        <time>2017-07-23T08:13:38Z</time>
      </trkpt>
      <trkpt lat="44.2089230" lon="7.2730040">
        <ele>1337.2</ele>
        <time>2017-07-23T08:13:40Z</time>
      </trkpt>
      <trkpt lat="44.2088510" lon="7.2729390">
        <ele>1338.4</ele>
        <time>2017-07-23T08:13:43Z</time>
      </trkpt>
      <trkpt lat="44.2087820" lon="7.2728750">
        <ele>1340.0</ele>
        <time>2017-07-23T08:13:46Z</time>
      </trkpt>
      <trkpt lat="44.2086860" lon="7.2727510">
        <ele>1341.0</ele>
        <time>2017-07-23T08:13:51Z</time>
      </trkpt>
      <trkpt lat="44.2086670" lon="7.2727240">
        <ele>1341.2</ele>
        <time>2017-07-23T08:13:52Z</time>
      </trkpt>
      <trkpt lat="44.2085960" lon="7.2726280">
        <ele>1342.2</ele>
        <time>2017-07-23T08:13:56Z</time>
      </trkpt>
      <trkpt lat="44.2085790" lon="7.2726020">
        <ele>1342.8</ele>
        <time>2017-07-23T08:13:57Z</time>
      </trkpt>
      <trkpt lat="44.2085350" lon="7.2725870">
        <ele>1343.6</ele>
        <time>2017-07-23T08:13:59Z</time>
      </trkpt>
      <trkpt lat="44.2084760" lon="7.2725300">
        <ele>1345.0</ele>
        <time>2017-07-23T08:14:02Z</time>
      </trkpt>
      <trkpt lat="44.2084080" lon="7.2724750">
        <ele>1346.2</ele>
        <time>2017-07-23T08:14:05Z</time>
      </trkpt>
      <trkpt lat="44.2083350" lon="7.2724230">
        <ele>1347.6</ele>
        <time>2017-07-23T08:14:08Z</time>
      </trkpt>
      <trkpt lat="44.2082670" lon="7.2723520">
        <ele>1348.6</ele>
        <time>2017-07-23T08:14:11Z</time>
      </trkpt>
      <trkpt lat="44.2081710" lon="7.2722330">
        <ele>1350.2</ele>
        <time>2017-07-23T08:14:15Z</time>
      </trkpt>
      <trkpt lat="44.2080740" lon="7.2721080">
        <ele>1351.2</ele>
        <time>2017-07-23T08:14:19Z</time>
      </trkpt>
      <trkpt lat="44.2080130" lon="7.2720500">
        <ele>1352.2</ele>
        <time>2017-07-23T08:14:23Z</time>
      </trkpt>
      <trkpt lat="44.2080000" lon="7.2720200">
        <ele>1352.4</ele>
        <time>2017-07-23T08:14:24Z</time>
      </trkpt>
      <trkpt lat="44.2079490" lon="7.2719230">
        <ele>1353.4</ele>
        <time>2017-07-23T08:14:28Z</time>
      </trkpt>
      <trkpt lat="44.2079270" lon="7.2719010">
        <ele>1353.6</ele>
        <time>2017-07-23T08:14:29Z</time>
      </trkpt>
      <trkpt lat="44.2078950" lon="7.2718320">
        <ele>1354.4</ele>
        <time>2017-07-23T08:14:32Z</time>
      </trkpt>
      <trkpt lat="44.2078940" lon="7.2718250">
        <ele>1354.8</ele>
        <time>2017-07-23T08:14:34Z</time>
      </trkpt>
      <trkpt lat="44.2078570" lon="7.2717350">
        <ele>1355.6</ele>
        <time>2017-07-23T08:14:37Z</time>
      </trkpt>
      <trkpt lat="44.2078380" lon="7.2716960">
        <ele>1356.6</ele>
        <time>2017-07-23T08:14:39Z</time>
      </trkpt>
      <trkpt lat="44.2078340" lon="7.2716770">
        <ele>1356.8</ele>
        <time>2017-07-23T08:14:40Z</time>
      </trkpt>
      <trkpt lat="44.2077960" lon="7.2716320">
        <ele>1357.6</ele>
        <time>2017-07-23T08:14:43Z</time>
      </trkpt>
      <trkpt lat="44.2077750" lon="7.2715840">
        <ele>1358.0</ele>
        <time>2017-07-23T08:14:45Z</time>
      </trkpt>
      <trkpt lat="44.2077660" lon="7.2715610">
        <ele>1358.2</ele>
        <time>2017-07-23T08:14:46Z</time>
      </trkpt>
      <trkpt lat="44.2076590" lon="7.2713720">
        <ele>1358.6</ele>
        <time>2017-07-23T08:14:52Z</time>
      </trkpt>
      <trkpt lat="44.2075740" lon="7.2712340">
        <ele>1359.0</ele>
        <time>2017-07-23T08:14:57Z</time>
      </trkpt>
      <trkpt lat="44.2075690" lon="7.2712060">
        <ele>1359.0</ele>
        <time>2017-07-23T08:14:58Z</time>
      </trkpt>
      <trkpt lat="44.2074960" lon="7.2710570">
        <ele>1359.2</ele>
        <time>2017-07-23T08:15:05Z</time>
      </trkpt>
      <trkpt lat="44.2074210" lon="7.2708970">
        <ele>1359.0</ele>
        <time>2017-07-23T08:15:11Z</time>
      </trkpt>
      <trkpt lat="44.2072660" lon="7.2707670">
        <ele>1359.0</ele>
        <time>2017-07-23T08:15:17Z</time>
      </trkpt>
      <trkpt lat="44.2071690" lon="7.2706430">
        <ele>1358.4</ele>
        <time>2017-07-23T08:15:22Z</time>
      </trkpt>
      <trkpt lat="44.2070380" lon="7.2705210">
        <ele>1358.8</ele>
        <time>2017-07-23T08:15:28Z</time>
      </trkpt>
      <trkpt lat="44.2068870" lon="7.2703840">
        <ele>1359.4</ele>
        <time>2017-07-23T08:15:33Z</time>
      </trkpt>
      <trkpt lat="44.2067840" lon="7.2703170">
        <ele>1360.2</ele>
        <time>2017-07-23T08:15:36Z</time>
      </trkpt>
      <trkpt lat="44.2066900" lon="7.2702380">
        <ele>1360.6</ele>
        <time>2017-07-23T08:15:39Z</time>
      </trkpt>
      <trkpt lat="44.2065620" lon="7.2701440">
        <ele>1361.2</ele>
        <time>2017-07-23T08:15:43Z</time>
      </trkpt>
      <trkpt lat="44.2064990" lon="7.2700930">
        <ele>1361.8</ele>
        <time>2017-07-23T08:15:45Z</time>
      </trkpt>
      <trkpt lat="44.2063770" lon="7.2700140">
        <ele>1362.4</ele>
        <time>2017-07-23T08:15:48Z</time>
      </trkpt>
      <trkpt lat="44.2062790" lon="7.2699460">
        <ele>1363.2</ele>
        <time>2017-07-23T08:15:51Z</time>
      </trkpt>
      <trkpt lat="44.2061840" lon="7.2698610">
        <ele>1363.4</ele>
        <time>2017-07-23T08:15:54Z</time>
      </trkpt>
      <trkpt lat="44.2059890" lon="7.2696580">
        <ele>1364.4</ele>
        <time>2017-07-23T08:16:01Z</time>
      </trkpt>
      <trkpt lat="44.2059500" lon="7.2696270">
        <ele>1364.6</ele>
        <time>2017-07-23T08:16:02Z</time>
      </trkpt>
      <trkpt lat="44.2057630" lon="7.2695480">
        <ele>1365.4</ele>
        <time>2017-07-23T08:16:08Z</time>
      </trkpt>
      <trkpt lat="44.2057400" lon="7.2695300">
        <ele>1365.6</ele>
        <time>2017-07-23T08:16:09Z</time>
      </trkpt>
      <trkpt lat="44.2057070" lon="7.2694160">
        <ele>1366.0</ele>
        <time>2017-07-23T08:16:12Z</time>
      </trkpt>
      <trkpt lat="44.2057440" lon="7.2692840">
        <ele>1366.6</ele>
        <time>2017-07-23T08:16:15Z</time>
      </trkpt>
      <trkpt lat="44.2057570" lon="7.2692420">
        <ele>1366.8</ele>
        <time>2017-07-23T08:16:16Z</time>
      </trkpt>
      <trkpt lat="44.2058120" lon="7.2690210">
        <ele>1367.8</ele>
        <time>2017-07-23T08:16:22Z</time>
      </trkpt>
      <trkpt lat="44.2057730" lon="7.2687940">
        <ele>1368.2</ele>
        <time>2017-07-23T08:16:28Z</time>
      </trkpt>
      <trkpt lat="44.2056940" lon="7.2685520">
        <ele>1368.0</ele>
        <time>2017-07-23T08:16:35Z</time>
      </trkpt>
      <trkpt lat="44.2056220" lon="7.2682960">
        <ele>1367.6</ele>
        <time>2017-07-23T08:16:43Z</time>
      </trkpt>
      <trkpt lat="44.2055630" lon="7.2681140">
        <ele>1367.8</ele>
        <time>2017-07-23T08:16:49Z</time>
      </trkpt>
      <trkpt lat="44.2055130" lon="7.2679440">
        <ele>1368.8</ele>
        <time>2017-07-23T08:16:54Z</time>
      </trkpt>
      <trkpt lat="44.2054890" lon="7.2678830">
        <ele>1368.8</ele>
        <time>2017-07-23T08:16:56Z</time>
      </trkpt>
      <trkpt lat="44.2054550" lon="7.2677180">
        <ele>1369.8</ele>
        <time>2017-07-23T08:17:01Z</time>
      </trkpt>
      <trkpt lat="44.2054390" lon="7.2676630">
        <ele>1370.8</ele>
        <time>2017-07-23T08:17:03Z</time>
      </trkpt>
      <trkpt lat="44.2054320" lon="7.2676390">
        <ele>1371.2</ele>
        <time>2017-07-23T08:17:04Z</time>
      </trkpt>
      <trkpt lat="44.2053940" lon="7.2675320">
        <ele>1372.4</ele>
        <time>2017-07-23T08:17:08Z</time>
      </trkpt>
      <trkpt lat="44.2053650" lon="7.2674840">
        <ele>1372.8</ele>
        <time>2017-07-23T08:17:10Z</time>
      </trkpt>
      <trkpt lat="44.2052260" lon="7.2674010">
        <ele>1373.2</ele>
        <time>2017-07-23T08:17:16Z</time>
      </trkpt>
      <trkpt lat="44.2051830" lon="7.2673800">
        <ele>1373.4</ele>
        <time>2017-07-23T08:17:18Z</time>
      </trkpt>
      <trkpt lat="44.2050940" lon="7.2673340">
        <ele>1373.2</ele>
        <time>2017-07-23T08:17:22Z</time>
      </trkpt>
      <trkpt lat="44.2049500" lon="7.2672510">
        <ele>1373.8</ele>
        <time>2017-07-23T08:17:29Z</time>
      </trkpt>
      <trkpt lat="44.2049160" lon="7.2672140">
        <ele>1374.4</ele>
        <time>2017-07-23T08:17:31Z</time>
      </trkpt>
      <trkpt lat="44.2048780" lon="7.2671460">
        <ele>1375.4</ele>
        <time>2017-07-23T08:17:34Z</time>
      </trkpt>
      <trkpt lat="44.2048660" lon="7.2671210">
        <ele>1375.6</ele>
        <time>2017-07-23T08:17:35Z</time>
      </trkpt>
      <trkpt lat="44.2048180" lon="7.2669980">
        <ele>1376.8</ele>
        <time>2017-07-23T08:17:40Z</time>
      </trkpt>
      <trkpt lat="44.2048090" lon="7.2669150">
        <ele>1378.0</ele>
        <time>2017-07-23T08:17:43Z</time>
      </trkpt>
      <trkpt lat="44.2048130" lon="7.2668250">
        <ele>1379.2</ele>
        <time>2017-07-23T08:17:46Z</time>
      </trkpt>
      <trkpt lat="44.2048080" lon="7.2667510">
        <ele>1380.4</ele>
        <time>2017-07-23T08:17:49Z</time>
      </trkpt>
      <trkpt lat="44.2048080" lon="7.2667280">
        <ele>1380.6</ele>
        <time>2017-07-23T08:17:50Z</time>
      </trkpt>
      <trkpt lat="44.2048050" lon="7.2666770">
        <ele>1381.6</ele>
        <time>2017-07-23T08:17:52Z</time>
      </trkpt>
      <trkpt lat="44.2048060" lon="7.2665630">
        <ele>1383.0</ele>
        <time>2017-07-23T08:17:56Z</time>
      </trkpt>
      <trkpt lat="44.2048060" lon="7.2665300">
        <ele>1383.4</ele>
        <time>2017-07-23T08:17:57Z</time>
      </trkpt>
      <trkpt lat="44.2047850" lon="7.2664490">
        <ele>1384.2</ele>
        <time>2017-07-23T08:18:00Z</time>
      </trkpt>
      <trkpt lat="44.2047800" lon="7.2663940">
        <ele>1384.8</ele>
        <time>2017-07-23T08:18:02Z</time>
      </trkpt>
      <trkpt lat="44.2047830" lon="7.2663340">
        <ele>1385.4</ele>
        <time>2017-07-23T08:18:04Z</time>
      </trkpt>
      <trkpt lat="44.2047730" lon="7.2662410">
        <ele>1386.4</ele>
        <time>2017-07-23T08:18:07Z</time>
      </trkpt>
      <trkpt lat="44.2047760" lon="7.2661830">
        <ele>1387.0</ele>
        <time>2017-07-23T08:18:09Z</time>
      </trkpt>
      <trkpt lat="44.2047810" lon="7.2660990">
        <ele>1387.6</ele>
        <time>2017-07-23T08:18:12Z</time>
      </trkpt>
      <trkpt lat="44.2047790" lon="7.2660510">
        <ele>1388.2</ele>
        <time>2017-07-23T08:18:14Z</time>
      </trkpt>
      <trkpt lat="44.2047760" lon="7.2660280">
        <ele>1388.8</ele>
        <time>2017-07-23T08:18:15Z</time>
      </trkpt>
      <trkpt lat="44.2047470" lon="7.2659310">
        <ele>1389.8</ele>
        <time>2017-07-23T08:18:19Z</time>
      </trkpt>
      <trkpt lat="44.2047440" lon="7.2659050">
        <ele>1390.0</ele>
        <time>2017-07-23T08:18:20Z</time>
      </trkpt>
      <trkpt lat="44.2047180" lon="7.2658130">
        <ele>1391.0</ele>
        <time>2017-07-23T08:18:23Z</time>
      </trkpt>
      <trkpt lat="44.2046820" lon="7.2657010">
        <ele>1392.2</ele>
        <time>2017-07-23T08:18:27Z</time>
      </trkpt>
      <trkpt lat="44.2046430" lon="7.2656260">
        <ele>1393.2</ele>
        <time>2017-07-23T08:18:30Z</time>
      </trkpt>
      <trkpt lat="44.2046180" lon="7.2655750">
        <ele>1394.0</ele>
        <time>2017-07-23T08:18:33Z</time>
      </trkpt>
      <trkpt lat="44.2046050" lon="7.2655550">
        <ele>1394.2</ele>
        <time>2017-07-23T08:18:34Z</time>
      </trkpt>
      <trkpt lat="44.2045600" lon="7.2654820">
        <ele>1395.4</ele>
        <time>2017-07-23T08:18:37Z</time>
      </trkpt>
      <trkpt lat="44.2045040" lon="7.2654270">
        <ele>1396.4</ele>
        <time>2017-07-23T08:18:40Z</time>
      </trkpt>
      <trkpt lat="44.2044140" lon="7.2653060">
        <ele>1397.4</ele>
        <time>2017-07-23T08:18:46Z</time>
      </trkpt>
      <trkpt lat="44.2043930" lon="7.2652280">
        <ele>1397.6</ele>
        <time>2017-07-23T08:18:49Z</time>
      </trkpt>
      <trkpt lat="44.2043900" lon="7.2651780">
        <ele>1398.0</ele>
        <time>2017-07-23T08:18:51Z</time>
      </trkpt>
      <trkpt lat="44.2043950" lon="7.2651530">
        <ele>1398.2</ele>
        <time>2017-07-23T08:18:52Z</time>
      </trkpt>
      <trkpt lat="44.2043820" lon="7.2650520">
        <ele>1398.4</ele>
        <time>2017-07-23T08:18:56Z</time>
      </trkpt>
      <trkpt lat="44.2043720" lon="7.2650270">
        <ele>1398.6</ele>
        <time>2017-07-23T08:18:57Z</time>
      </trkpt>
      <trkpt lat="44.2043620" lon="7.2650050">
        <ele>1398.8</ele>
        <time>2017-07-23T08:18:58Z</time>
      </trkpt>
      <trkpt lat="44.2043150" lon="7.2649040">
        <ele>1399.4</ele>
        <time>2017-07-23T08:19:02Z</time>
      </trkpt>
      <trkpt lat="44.2042360" lon="7.2647970">
        <ele>1399.2</ele>
        <time>2017-07-23T08:19:07Z</time>
      </trkpt>
      <trkpt lat="44.2041780" lon="7.2646240">
        <ele>1398.8</ele>
        <time>2017-07-23T08:19:13Z</time>
      </trkpt>
      <trkpt lat="44.2041450" lon="7.2644620">
        <ele>1399.8</ele>
        <time>2017-07-23T08:19:19Z</time>
      </trkpt>
      <trkpt lat="44.2041330" lon="7.2643530">
        <ele>1400.8</ele>
        <time>2017-07-23T08:19:23Z</time>
      </trkpt>
      <trkpt lat="44.2041270" lon="7.2642970">
        <ele>1401.8</ele>
        <time>2017-07-23T08:19:25Z</time>
      </trkpt>
      <trkpt lat="44.2041270" lon="7.2642710">
        <ele>1402.0</ele>
        <time>2017-07-23T08:19:26Z</time>
      </trkpt>
      <trkpt lat="44.2041320" lon="7.2642230">
        <ele>1403.2</ele>
        <time>2017-07-23T08:19:28Z</time>
      </trkpt>
      <trkpt lat="44.2041310" lon="7.2641020">
        <ele>1404.4</ele>
        <time>2017-07-23T08:19:32Z</time>
      </trkpt>
      <trkpt lat="44.2041040" lon="7.2639930">
        <ele>1405.8</ele>
        <time>2017-07-23T08:19:36Z</time>
      </trkpt>
      <trkpt lat="44.2040810" lon="7.2639190">
        <ele>1406.2</ele>
        <time>2017-07-23T08:19:39Z</time>
      </trkpt>
      <trkpt lat="44.2040170" lon="7.2637160">
        <ele>1406.6</ele>
        <time>2017-07-23T08:19:47Z</time>
      </trkpt>
      <trkpt lat="44.2039500" lon="7.2635580">
        <ele>1406.2</ele>
        <time>2017-07-23T08:19:53Z</time>
      </trkpt>
      <trkpt lat="44.2039280" lon="7.2634520">
        <ele>1406.8</ele>
        <time>2017-07-23T08:19:57Z</time>
      </trkpt>
      <trkpt lat="44.2039100" lon="7.2633710">
        <ele>1407.2</ele>
        <time>2017-07-23T08:20:00Z</time>
      </trkpt>
      <trkpt lat="44.2038990" lon="7.2632890">
        <ele>1408.0</ele>
        <time>2017-07-23T08:20:03Z</time>
      </trkpt>
      <trkpt lat="44.2038810" lon="7.2631740">
        <ele>1409.2</ele>
        <time>2017-07-23T08:20:07Z</time>
      </trkpt>
      <trkpt lat="44.2038790" lon="7.2631480">
        <ele>1409.6</ele>
        <time>2017-07-23T08:20:08Z</time>
      </trkpt>
      <trkpt lat="44.2038730" lon="7.2630990">
        <ele>1410.2</ele>
        <time>2017-07-23T08:20:10Z</time>
      </trkpt>
      <trkpt lat="44.2038730" lon="7.2630260">
        <ele>1411.2</ele>
        <time>2017-07-23T08:20:13Z</time>
      </trkpt>
      <trkpt lat="44.2038740" lon="7.2629720">
        <ele>1411.8</ele>
        <time>2017-07-23T08:20:15Z</time>
      </trkpt>
      <trkpt lat="44.2038750" lon="7.2629450">
        <ele>1412.4</ele>
        <time>2017-07-23T08:20:16Z</time>
      </trkpt>
      <trkpt lat="44.2038840" lon="7.2628390">
        <ele>1413.8</ele>
        <time>2017-07-23T08:20:20Z</time>
      </trkpt>
      <trkpt lat="44.2038690" lon="7.2627030">
        <ele>1414.8</ele>
        <time>2017-07-23T08:20:25Z</time>
      </trkpt>
      <trkpt lat="44.2038550" lon="7.2625540">
        <ele>1415.8</ele>
        <time>2017-07-23T08:20:31Z</time>
      </trkpt>
      <trkpt lat="44.2038370" lon="7.2624510">
        <ele>1415.8</ele>
        <time>2017-07-23T08:20:35Z</time>
      </trkpt>
      <trkpt lat="44.2038290" lon="7.2624020">
        <ele>1416.2</ele>
        <time>2017-07-23T08:20:37Z</time>
      </trkpt>
      <trkpt lat="44.2037810" lon="7.2622050">
        <ele>1417.0</ele>
        <time>2017-07-23T08:20:45Z</time>
      </trkpt>
      <trkpt lat="44.2037630" lon="7.2620510">
        <ele>1418.0</ele>
        <time>2017-07-23T08:20:51Z</time>
      </trkpt>
      <trkpt lat="44.2037350" lon="7.2618950">
        <ele>1419.4</ele>
        <time>2017-07-23T08:20:57Z</time>
      </trkpt>
      <trkpt lat="44.2037430" lon="7.2618240">
        <ele>1420.4</ele>
        <time>2017-07-23T08:21:00Z</time>
      </trkpt>
      <trkpt lat="44.2037690" lon="7.2617490">
        <ele>1421.8</ele>
        <time>2017-07-23T08:21:03Z</time>
      </trkpt>
      <trkpt lat="44.2037770" lon="7.2616830">
        <ele>1423.0</ele>
        <time>2017-07-23T08:21:05Z</time>
      </trkpt>
      <trkpt lat="44.2037770" lon="7.2615970">
        <ele>1424.0</ele>
        <time>2017-07-23T08:21:08Z</time>
      </trkpt>
      <trkpt lat="44.2037740" lon="7.2615430">
        <ele>1424.6</ele>
        <time>2017-07-23T08:21:10Z</time>
      </trkpt>
      <trkpt lat="44.2037700" lon="7.2614910">
        <ele>1425.2</ele>
        <time>2017-07-23T08:21:12Z</time>
      </trkpt>
      <trkpt lat="44.2037620" lon="7.2613860">
        <ele>1426.2</ele>
        <time>2017-07-23T08:21:16Z</time>
      </trkpt>
      <trkpt lat="44.2037540" lon="7.2613040">
        <ele>1427.0</ele>
        <time>2017-07-23T08:21:19Z</time>
      </trkpt>
      <trkpt lat="44.2037500" lon="7.2612490">
        <ele>1427.4</ele>
        <time>2017-07-23T08:21:21Z</time>
      </trkpt>
      <trkpt lat="44.2037280" lon="7.2611310">
        <ele>1427.4</ele>
        <time>2017-07-23T08:21:26Z</time>
      </trkpt>
      <trkpt lat="44.2036950" lon="7.2609710">
        <ele>1428.2</ele>
        <time>2017-07-23T08:21:33Z</time>
      </trkpt>
      <trkpt lat="44.2036990" lon="7.2609470">
        <ele>1428.4</ele>
        <time>2017-07-23T08:21:34Z</time>
      </trkpt>
      <trkpt lat="44.2037280" lon="7.2608210">
        <ele>1429.8</ele>
        <time>2017-07-23T08:21:39Z</time>
      </trkpt>
      <trkpt lat="44.2037250" lon="7.2607540">
        <ele>1431.0</ele>
        <time>2017-07-23T08:21:42Z</time>
      </trkpt>
      <trkpt lat="44.2037090" lon="7.2606840">
        <ele>1431.8</ele>
        <time>2017-07-23T08:21:45Z</time>
      </trkpt>
      <trkpt lat="44.2037090" lon="7.2606630">
        <ele>1432.0</ele>
        <time>2017-07-23T08:21:46Z</time>
      </trkpt>
      <trkpt lat="44.2037170" lon="7.2606260">
        <ele>1432.8</ele>
        <time>2017-07-23T08:21:48Z</time>
      </trkpt>
      <trkpt lat="44.2037260" lon="7.2606060">
        <ele>1433.2</ele>
        <time>2017-07-23T08:21:49Z</time>
      </trkpt>
      <trkpt lat="44.2037460" lon="7.2605670">
        <ele>1434.0</ele>
        <time>2017-07-23T08:21:51Z</time>
      </trkpt>
      <trkpt lat="44.2037550" lon="7.2605510">
        <ele>1434.6</ele>
        <time>2017-07-23T08:21:52Z</time>
      </trkpt>
      <trkpt lat="44.2037980" lon="7.2604830">
        <ele>1435.8</ele>
        <time>2017-07-23T08:21:56Z</time>
      </trkpt>
      <trkpt lat="44.2038080" lon="7.2604620">
        <ele>1436.2</ele>
        <time>2017-07-23T08:21:57Z</time>
      </trkpt>
      <trkpt lat="44.2038360" lon="7.2604210">
        <ele>1436.8</ele>
        <time>2017-07-23T08:21:59Z</time>
      </trkpt>
      <trkpt lat="44.2038740" lon="7.2603230">
        <ele>1438.0</ele>
        <time>2017-07-23T08:22:03Z</time>
      </trkpt>
      <trkpt lat="44.2038850" lon="7.2602910">
        <ele>1438.2</ele>
        <time>2017-07-23T08:22:04Z</time>
      </trkpt>
      <trkpt lat="44.2038970" lon="7.2602420">
        <ele>1438.8</ele>
        <time>2017-07-23T08:22:06Z</time>
      </trkpt>
      <trkpt lat="44.2039020" lon="7.2602270">
        <ele>1439.2</ele>
        <time>2017-07-23T08:22:07Z</time>
      </trkpt>
      <trkpt lat="44.2039090" lon="7.2601990">
        <ele>1439.4</ele>
        <time>2017-07-23T08:22:08Z</time>
      </trkpt>
      <trkpt lat="44.2039310" lon="7.2601510">
        <ele>1440.0</ele>
        <time>2017-07-23T08:22:10Z</time>
      </trkpt>
      <trkpt lat="44.2039450" lon="7.2601080">
        <ele>1440.2</ele>
        <time>2017-07-23T08:22:12Z</time>
      </trkpt>
      <trkpt lat="44.2039550" lon="7.2600620">
        <ele>1440.8</ele>
        <time>2017-07-23T08:22:14Z</time>
      </trkpt>
      <trkpt lat="44.2039700" lon="7.2600030">
        <ele>1441.4</ele>
        <time>2017-07-23T08:22:16Z</time>
      </trkpt>
      <trkpt lat="44.2039830" lon="7.2599450">
        <ele>1441.6</ele>
        <time>2017-07-23T08:22:18Z</time>
      </trkpt>
      <trkpt lat="44.2039970" lon="7.2598930">
        <ele>1442.0</ele>
        <time>2017-07-23T08:22:20Z</time>
      </trkpt>
      <trkpt lat="44.2040040" lon="7.2598290">
        <ele>1442.6</ele>
        <time>2017-07-23T08:22:22Z</time>
      </trkpt>
      <trkpt lat="44.2040070" lon="7.2597140">
        <ele>1443.6</ele>
        <time>2017-07-23T08:22:26Z</time>
      </trkpt>
      <trkpt lat="44.2040130" lon="7.2596870">
        <ele>1443.8</ele>
        <time>2017-07-23T08:22:27Z</time>
      </trkpt>
      <trkpt lat="44.2040540" lon="7.2595360">
        <ele>1444.8</ele>
        <time>2017-07-23T08:22:32Z</time>
      </trkpt>
      <trkpt lat="44.2040610" lon="7.2595050">
        <ele>1445.0</ele>
        <time>2017-07-23T08:22:33Z</time>
      </trkpt>
      <trkpt lat="44.2041110" lon="7.2593720">
        <ele>1446.2</ele>
        <time>2017-07-23T08:22:38Z</time>
      </trkpt>
      <trkpt lat="44.2041170" lon="7.2593450">
        <ele>1446.4</ele>
        <time>2017-07-23T08:22:39Z</time>
      </trkpt>
      <trkpt lat="44.2041400" lon="7.2592330">
        <ele>1447.4</ele>
        <time>2017-07-23T08:22:43Z</time>
      </trkpt>
      <trkpt lat="44.2041370" lon="7.2591370">
        <ele>1448.0</ele>
        <time>2017-07-23T08:22:46Z</time>
      </trkpt>
      <trkpt lat="44.2041000" lon="7.2589970">
        <ele>1447.8</ele>
        <time>2017-07-23T08:22:51Z</time>
      </trkpt>
      <trkpt lat="44.2040480" lon="7.2588280">
        <ele>1447.6</ele>
        <time>2017-07-23T08:22:57Z</time>
      </trkpt>
      <trkpt lat="44.2040360" lon="7.2588050">
        <ele>1447.4</ele>
        <time>2017-07-23T08:22:58Z</time>
      </trkpt>
      <trkpt lat="44.2040070" lon="7.2586340">
        <ele>1447.4</ele>
        <time>2017-07-23T08:23:04Z</time>
      </trkpt>
      <trkpt lat="44.2040030" lon="7.2584250">
        <ele>1448.2</ele>
        <time>2017-07-23T08:23:11Z</time>
      </trkpt>
      <trkpt lat="44.2040150" lon="7.2584010">
        <ele>1448.4</ele>
        <time>2017-07-23T08:23:12Z</time>
      </trkpt>
      <trkpt lat="44.2040800" lon="7.2583410">
        <ele>1449.0</ele>
        <time>2017-07-23T08:23:16Z</time>
      </trkpt>
      <trkpt lat="44.2042040" lon="7.2583510">
        <ele>1449.0</ele>
        <time>2017-07-23T08:23:21Z</time>
      </trkpt>
      <trkpt lat="44.2043200" lon="7.2585150">
        <ele>1449.4</ele>
        <time>2017-07-23T08:23:26Z</time>
      </trkpt>
      <trkpt lat="44.2044140" lon="7.2588230">
        <ele>1449.2</ele>
        <time>2017-07-23T08:23:33Z</time>
      </trkpt>
      <trkpt lat="44.2044090" lon="7.2590690">
        <ele>1450.2</ele>
        <time>2017-07-23T08:23:39Z</time>
      </trkpt>
      <trkpt lat="44.2043710" lon="7.2592060">
        <ele>1450.4</ele>
        <time>2017-07-23T08:23:42Z</time>
      </trkpt>
      <trkpt lat="44.2043510" lon="7.2592780">
        <ele>1451.2</ele>
        <time>2017-07-23T08:23:44Z</time>
      </trkpt>
      <trkpt lat="44.2043390" lon="7.2593100">
        <ele>1451.6</ele>
        <time>2017-07-23T08:23:45Z</time>
      </trkpt>
      <trkpt lat="44.2042760" lon="7.2594390">
        <ele>1453.0</ele>
        <time>2017-07-23T08:23:49Z</time>
      </trkpt>
      <trkpt lat="44.2042580" lon="7.2595280">
        <ele>1454.4</ele>
        <time>2017-07-23T08:23:52Z</time>
      </trkpt>
      <trkpt lat="44.2042530" lon="7.2595850">
        <ele>1454.8</ele>
        <time>2017-07-23T08:23:54Z</time>
      </trkpt>
      <trkpt lat="44.2042420" lon="7.2596390">
        <ele>1455.6</ele>
        <time>2017-07-23T08:23:56Z</time>
      </trkpt>
      <trkpt lat="44.2042270" lon="7.2597330">
        <ele>1456.8</ele>
        <time>2017-07-23T08:23:59Z</time>
      </trkpt>
      <trkpt lat="44.2042220" lon="7.2597930">
        <ele>1457.2</ele>
        <time>2017-07-23T08:24:01Z</time>
      </trkpt>
      <trkpt lat="44.2042150" lon="7.2598540">
        <ele>1457.8</ele>
        <time>2017-07-23T08:24:03Z</time>
      </trkpt>
      <trkpt lat="44.2042380" lon="7.2600090">
        <ele>1458.8</ele>
        <time>2017-07-23T08:24:08Z</time>
      </trkpt>
      <trkpt lat="44.2042310" lon="7.2600360">
        <ele>1459.0</ele>
        <time>2017-07-23T08:24:09Z</time>
      </trkpt>
      <trkpt lat="44.2042070" lon="7.2601550">
        <ele>1460.2</ele>
        <time>2017-07-23T08:24:14Z</time>
      </trkpt>
      <trkpt lat="44.2041940" lon="7.2602680">
        <ele>1461.2</ele>
        <time>2017-07-23T08:24:18Z</time>
      </trkpt>
      <trkpt lat="44.2041800" lon="7.2603450">
        <ele>1462.0</ele>
        <time>2017-07-23T08:24:21Z</time>
      </trkpt>
      <trkpt lat="44.2041710" lon="7.2603990">
        <ele>1462.4</ele>
        <time>2017-07-23T08:24:23Z</time>
      </trkpt>
      <trkpt lat="44.2041510" lon="7.2605500">
        <ele>1463.4</ele>
        <time>2017-07-23T08:24:28Z</time>
      </trkpt>
      <trkpt lat="44.2041480" lon="7.2606080">
        <ele>1463.4</ele>
        <time>2017-07-23T08:24:30Z</time>
      </trkpt>
      <trkpt lat="44.2041110" lon="7.2607900">
        <ele>1463.0</ele>
        <time>2017-07-23T08:24:36Z</time>
      </trkpt>
      <trkpt lat="44.2041250" lon="7.2609370">
        <ele>1462.8</ele>
        <time>2017-07-23T08:24:41Z</time>
      </trkpt>
      <trkpt lat="44.2041970" lon="7.2609480">
        <ele>1463.0</ele>
        <time>2017-07-23T08:24:45Z</time>
      </trkpt>
      <trkpt lat="44.2042110" lon="7.2609300">
        <ele>1462.8</ele>
        <time>2017-07-23T08:24:46Z</time>
      </trkpt>
      <trkpt lat="44.2042270" lon="7.2608030">
        <ele>1463.6</ele>
        <time>2017-07-23T08:24:51Z</time>
      </trkpt>
      <trkpt lat="44.2042350" lon="7.2607540">
        <ele>1464.2</ele>
        <time>2017-07-23T08:24:53Z</time>
      </trkpt>
      <trkpt lat="44.2042390" lon="7.2607300">
        <ele>1464.6</ele>
        <time>2017-07-23T08:24:54Z</time>
      </trkpt>
      <trkpt lat="44.2042540" lon="7.2606620">
        <ele>1465.4</ele>
        <time>2017-07-23T08:24:57Z</time>
      </trkpt>
      <trkpt lat="44.2042570" lon="7.2606370">
        <ele>1465.8</ele>
        <time>2017-07-23T08:24:58Z</time>
      </trkpt>
      <trkpt lat="44.2042760" lon="7.2605690">
        <ele>1467.0</ele>
        <time>2017-07-23T08:25:01Z</time>
      </trkpt>
      <trkpt lat="44.2042820" lon="7.2605280">
        <ele>1467.6</ele>
        <time>2017-07-23T08:25:03Z</time>
      </trkpt>
      <trkpt lat="44.2042900" lon="7.2605080">
        <ele>1468.2</ele>
        <time>2017-07-23T08:25:04Z</time>
      </trkpt>
      <trkpt lat="44.2043340" lon="7.2604310">
        <ele>1469.4</ele>
        <time>2017-07-23T08:25:08Z</time>
      </trkpt>
      <trkpt lat="44.2043390" lon="7.2604120">
        <ele>1469.6</ele>
        <time>2017-07-23T08:25:09Z</time>
      </trkpt>
      <trkpt lat="44.2043480" lon="7.2603690">
        <ele>1470.4</ele>
        <time>2017-07-23T08:25:11Z</time>
      </trkpt>
      <trkpt lat="44.2043850" lon="7.2602710">
        <ele>1471.4</ele>
        <time>2017-07-23T08:25:16Z</time>
      </trkpt>
      <trkpt lat="44.2044330" lon="7.2601790">
        <ele>1472.4</ele>
        <time>2017-07-23T08:25:20Z</time>
      </trkpt>
      <trkpt lat="44.2044690" lon="7.2600900">
        <ele>1473.2</ele>
        <time>2017-07-23T08:25:23Z</time>
      </trkpt>
      <trkpt lat="44.2044860" lon="7.2600390">
        <ele>1473.6</ele>
        <time>2017-07-23T08:25:25Z</time>
      </trkpt>
      <trkpt lat="44.2045180" lon="7.2599660">
        <ele>1474.8</ele>
        <time>2017-07-23T08:25:28Z</time>
      </trkpt>
      <trkpt lat="44.2045240" lon="7.2599420">
        <ele>1475.0</ele>
        <time>2017-07-23T08:25:29Z</time>
      </trkpt>
      <trkpt lat="44.2045470" lon="7.2598450">
        <ele>1475.8</ele>
        <time>2017-07-23T08:25:33Z</time>
      </trkpt>
      <trkpt lat="44.2045600" lon="7.2597900">
        <ele>1476.2</ele>
        <time>2017-07-23T08:25:35Z</time>
      </trkpt>
      <trkpt lat="44.2045860" lon="7.2597150">
        <ele>1477.0</ele>
        <time>2017-07-23T08:25:38Z</time>
      </trkpt>
      <trkpt lat="44.2046050" lon="7.2596220">
        <ele>1477.8</ele>
        <time>2017-07-23T08:25:42Z</time>
      </trkpt>
      <trkpt lat="44.2046110" lon="7.2595960">
        <ele>1478.0</ele>
        <time>2017-07-23T08:25:43Z</time>
      </trkpt>
      <trkpt lat="44.2046430" lon="7.2594530">
        <ele>1479.2</ele>
        <time>2017-07-23T08:25:49Z</time>
      </trkpt>
      <trkpt lat="44.2046770" lon="7.2593260">
        <ele>1480.4</ele>
        <time>2017-07-23T08:25:54Z</time>
      </trkpt>
      <trkpt lat="44.2046880" lon="7.2592780">
        <ele>1480.6</ele>
        <time>2017-07-23T08:25:56Z</time>
      </trkpt>
      <trkpt lat="44.2047380" lon="7.2591640">
        <ele>1481.4</ele>
        <time>2017-07-23T08:26:01Z</time>
      </trkpt>
      <trkpt lat="44.2047570" lon="7.2591200">
        <ele>1481.6</ele>
        <time>2017-07-23T08:26:03Z</time>
      </trkpt>
      <trkpt lat="44.2047950" lon="7.2590050">
        <ele>1482.4</ele>
        <time>2017-07-23T08:26:08Z</time>
      </trkpt>
      <trkpt lat="44.2047960" lon="7.2589830">
        <ele>1482.4</ele>
        <time>2017-07-23T08:26:09Z</time>
      </trkpt>
      <trkpt lat="44.2048100" lon="7.2589230">
        <ele>1483.0</ele>
        <time>2017-07-23T08:26:12Z</time>
      </trkpt>
      <trkpt lat="44.2048120" lon="7.2588800">
        <ele>1483.2</ele>
        <time>2017-07-23T08:26:14Z</time>
      </trkpt>
      <trkpt lat="44.2048080" lon="7.2588220">
        <ele>1483.4</ele>
        <time>2017-07-23T08:26:17Z</time>
      </trkpt>
      <trkpt lat="44.2048100" lon="7.2587480">
        <ele>1484.0</ele>
        <time>2017-07-23T08:26:20Z</time>
      </trkpt>
      <trkpt lat="44.2048060" lon="7.2586610">
        <ele>1484.6</ele>
        <time>2017-07-23T08:26:23Z</time>
      </trkpt>
      <trkpt lat="44.2048090" lon="7.2586300">
        <ele>1484.6</ele>
        <time>2017-07-23T08:26:24Z</time>
      </trkpt>
      <trkpt lat="44.2048010" lon="7.2585820">
        <ele>1485.0</ele>
        <time>2017-07-23T08:26:26Z</time>
      </trkpt>
      <trkpt lat="44.2047850" lon="7.2584880">
        <ele>1485.6</ele>
        <time>2017-07-23T08:26:30Z</time>
      </trkpt>
      <trkpt lat="44.2047970" lon="7.2584260">
        <ele>1486.0</ele>
        <time>2017-07-23T08:26:32Z</time>
      </trkpt>
      <trkpt lat="44.2048120" lon="7.2582930">
        <ele>1486.8</ele>
        <time>2017-07-23T08:26:37Z</time>
      </trkpt>
      <trkpt lat="44.2048130" lon="7.2582650">
        <ele>1487.0</ele>
        <time>2017-07-23T08:26:38Z</time>
      </trkpt>
      <trkpt lat="44.2048110" lon="7.2582380">
        <ele>1487.2</ele>
        <time>2017-07-23T08:26:39Z</time>
      </trkpt>
      <trkpt lat="44.2048170" lon="7.2581600">
        <ele>1487.8</ele>
        <time>2017-07-23T08:26:42Z</time>
      </trkpt>
      <trkpt lat="44.2048120" lon="7.2581130">
        <ele>1488.2</ele>
        <time>2017-07-23T08:26:44Z</time>
      </trkpt>
      <trkpt lat="44.2047980" lon="7.2579940">
        <ele>1489.0</ele>
        <time>2017-07-23T08:26:49Z</time>
      </trkpt>
      <trkpt lat="44.2048040" lon="7.2579400">
        <ele>1489.2</ele>
        <time>2017-07-23T08:26:51Z</time>
      </trkpt>
      <trkpt lat="44.2048050" lon="7.2579150">
        <ele>1489.4</ele>
        <time>2017-07-23T08:26:52Z</time>
      </trkpt>
      <trkpt lat="44.2048120" lon="7.2577850">
        <ele>1490.0</ele>
        <time>2017-07-23T08:26:57Z</time>
      </trkpt>
      <trkpt lat="44.2048180" lon="7.2577320">
        <ele>1490.4</ele>
        <time>2017-07-23T08:26:59Z</time>
      </trkpt>
      <trkpt lat="44.2048190" lon="7.2577070">
        <ele>1490.4</ele>
        <time>2017-07-23T08:27:00Z</time>
      </trkpt>
      <trkpt lat="44.2048280" lon="7.2576020">
        <ele>1491.2</ele>
        <time>2017-07-23T08:27:04Z</time>
      </trkpt>
      <trkpt lat="44.2048400" lon="7.2575210">
        <ele>1491.6</ele>
        <time>2017-07-23T08:27:07Z</time>
      </trkpt>
      <trkpt lat="44.2048370" lon="7.2573750">
        <ele>1492.2</ele>
        <time>2017-07-23T08:27:13Z</time>
      </trkpt>
      <trkpt lat="44.2048340" lon="7.2572010">
        <ele>1493.2</ele>
        <time>2017-07-23T08:27:20Z</time>
      </trkpt>
      <trkpt lat="44.2048350" lon="7.2571800">
        <ele>1493.2</ele>
        <time>2017-07-23T08:27:21Z</time>
      </trkpt>
      <trkpt lat="44.2048530" lon="7.2570220">
        <ele>1494.6</ele>
        <time>2017-07-23T08:27:27Z</time>
      </trkpt>
      <trkpt lat="44.2048560" lon="7.2568970">
        <ele>1495.6</ele>
        <time>2017-07-23T08:27:32Z</time>
      </trkpt>
      <trkpt lat="44.2048610" lon="7.2568720">
        <ele>1495.6</ele>
        <time>2017-07-23T08:27:33Z</time>
      </trkpt>
      <trkpt lat="44.2048660" lon="7.2567110">
        <ele>1496.6</ele>
        <time>2017-07-23T08:27:40Z</time>
      </trkpt>
      <trkpt lat="44.2048340" lon="7.2565150">
        <ele>1497.2</ele>
        <time>2017-07-23T08:27:48Z</time>
      </trkpt>
      <trkpt lat="44.2048230" lon="7.2564630">
        <ele>1497.6</ele>
        <time>2017-07-23T08:27:50Z</time>
      </trkpt>
      <trkpt lat="44.2047670" lon="7.2563030">
        <ele>1498.2</ele>
        <time>2017-07-23T08:27:57Z</time>
      </trkpt>
      <trkpt lat="44.2046900" lon="7.2560900">
        <ele>1498.4</ele>
        <time>2017-07-23T08:28:06Z</time>
      </trkpt>
      <trkpt lat="44.2046530" lon="7.2559230">
        <ele>1498.2</ele>
        <time>2017-07-23T08:28:13Z</time>
      </trkpt>
      <trkpt lat="44.2046200" lon="7.2557080">
        <ele>1498.6</ele>
        <time>2017-07-23T08:28:22Z</time>
      </trkpt>
      <trkpt lat="44.2046380" lon="7.2556630">
        <ele>1499.0</ele>
        <time>2017-07-23T08:28:24Z</time>
      </trkpt>
      <trkpt lat="44.2046730" lon="7.2556470">
        <ele>1499.6</ele>
        <time>2017-07-23T08:28:26Z</time>
      </trkpt>
      <trkpt lat="44.2047090" lon="7.2556670">
        <ele>1500.2</ele>
        <time>2017-07-23T08:28:28Z</time>
      </trkpt>
      <trkpt lat="44.2047420" lon="7.2557370">
        <ele>1501.2</ele>
        <time>2017-07-23T08:28:31Z</time>
      </trkpt>
      <trkpt lat="44.2047450" lon="7.2557690">
        <ele>1501.4</ele>
        <time>2017-07-23T08:28:32Z</time>
      </trkpt>
      <trkpt lat="44.2047880" lon="7.2559410">
        <ele>1502.6</ele>
        <time>2017-07-23T08:28:38Z</time>
      </trkpt>
      <trkpt lat="44.2048630" lon="7.2560610">
        <ele>1503.6</ele>
        <time>2017-07-23T08:28:43Z</time>
      </trkpt>
      <trkpt lat="44.2048880" lon="7.2561010">
        <ele>1504.0</ele>
        <time>2017-07-23T08:28:45Z</time>
      </trkpt>
      <trkpt lat="44.2049730" lon="7.2562730">
        <ele>1504.6</ele>
        <time>2017-07-23T08:28:53Z</time>
      </trkpt>
      <trkpt lat="44.2049950" lon="7.2563180">
        <ele>1504.8</ele>
        <time>2017-07-23T08:28:55Z</time>
      </trkpt>
      <trkpt lat="44.2050410" lon="7.2563960">
        <ele>1505.4</ele>
        <time>2017-07-23T08:28:59Z</time>
      </trkpt>
      <trkpt lat="44.2051150" lon="7.2565080">
        <ele>1505.8</ele>
        <time>2017-07-23T08:29:05Z</time>
      </trkpt>
      <trkpt lat="44.2051290" lon="7.2565470">
        <ele>1505.8</ele>
        <time>2017-07-23T08:29:07Z</time>
      </trkpt>
      <trkpt lat="44.2051640" lon="7.2566230">
        <ele>1506.0</ele>
        <time>2017-07-23T08:29:11Z</time>
      </trkpt>
      <trkpt lat="44.2052050" lon="7.2567490">
        <ele>1506.8</ele>
        <time>2017-07-23T08:29:17Z</time>
      </trkpt>
      <trkpt lat="44.2052110" lon="7.2567700">
        <ele>1507.2</ele>
        <time>2017-07-23T08:29:18Z</time>
      </trkpt>
      <trkpt lat="44.2052290" lon="7.2568230">
        <ele>1508.2</ele>
        <time>2017-07-23T08:29:21Z</time>
      </trkpt>
      <trkpt lat="44.2052560" lon="7.2568870">
        <ele>1509.6</ele>
        <time>2017-07-23T08:29:24Z</time>
      </trkpt>
      <trkpt lat="44.2052650" lon="7.2569080">
        <ele>1509.8</ele>
        <time>2017-07-23T08:29:25Z</time>
      </trkpt>
      <trkpt lat="44.2052960" lon="7.2569300">
        <ele>1510.6</ele>
        <time>2017-07-23T08:29:27Z</time>
      </trkpt>
      <trkpt lat="44.2053300" lon="7.2569230">
        <ele>1511.8</ele>
        <time>2017-07-23T08:29:29Z</time>
      </trkpt>
      <trkpt lat="44.2053390" lon="7.2569090">
        <ele>1512.2</ele>
        <time>2017-07-23T08:29:30Z</time>
      </trkpt>
      <trkpt lat="44.2053460" lon="7.2568650">
        <ele>1513.2</ele>
        <time>2017-07-23T08:29:32Z</time>
      </trkpt>
      <trkpt lat="44.2053510" lon="7.2568370">
        <ele>1513.4</ele>
        <time>2017-07-23T08:29:33Z</time>
      </trkpt>
      <trkpt lat="44.2053500" lon="7.2568100">
        <ele>1513.8</ele>
        <time>2017-07-23T08:29:34Z</time>
      </trkpt>
      <trkpt lat="44.2053430" lon="7.2567530">
        <ele>1514.4</ele>
        <time>2017-07-23T08:29:36Z</time>
      </trkpt>
      <trkpt lat="44.2053160" lon="7.2566670">
        <ele>1515.4</ele>
        <time>2017-07-23T08:29:39Z</time>
      </trkpt>
      <trkpt lat="44.2052830" lon="7.2565840">
        <ele>1516.2</ele>
        <time>2017-07-23T08:29:42Z</time>
      </trkpt>
      <trkpt lat="44.2052710" lon="7.2565590">
        <ele>1516.6</ele>
        <time>2017-07-23T08:29:43Z</time>
      </trkpt>
      <trkpt lat="44.2052280" lon="7.2564480">
        <ele>1517.8</ele>
        <time>2017-07-23T08:29:47Z</time>
      </trkpt>
      <trkpt lat="44.2052210" lon="7.2563900">
        <ele>1518.2</ele>
        <time>2017-07-23T08:29:49Z</time>
      </trkpt>
      <trkpt lat="44.2052010" lon="7.2563120">
        <ele>1519.0</ele>
        <time>2017-07-23T08:29:52Z</time>
      </trkpt>
      <trkpt lat="44.2051800" lon="7.2562660">
        <ele>1519.6</ele>
        <time>2017-07-23T08:29:54Z</time>
      </trkpt>
      <trkpt lat="44.2051340" lon="7.2561180">
        <ele>1519.8</ele>
        <time>2017-07-23T08:30:00Z</time>
      </trkpt>
      <trkpt lat="44.2050880" lon="7.2559450">
        <ele>1519.6</ele>
        <time>2017-07-23T08:30:07Z</time>
      </trkpt>
      <trkpt lat="44.2050440" lon="7.2557520">
        <ele>1519.6</ele>
        <time>2017-07-23T08:30:15Z</time>
      </trkpt>
      <trkpt lat="44.2050380" lon="7.2557000">
        <ele>1520.2</ele>
        <time>2017-07-23T08:30:17Z</time>
      </trkpt>
      <trkpt lat="44.2050210" lon="7.2556340">
        <ele>1521.0</ele>
        <time>2017-07-23T08:30:20Z</time>
      </trkpt>
      <trkpt lat="44.2050190" lon="7.2556080">
        <ele>1521.4</ele>
        <time>2017-07-23T08:30:21Z</time>
      </trkpt>
      <trkpt lat="44.2050200" lon="7.2555810">
        <ele>1521.8</ele>
        <time>2017-07-23T08:30:22Z</time>
      </trkpt>
      <trkpt lat="44.2050190" lon="7.2555250">
        <ele>1522.4</ele>
        <time>2017-07-23T08:30:24Z</time>
      </trkpt>
      <trkpt lat="44.2050150" lon="7.2555010">
        <ele>1522.6</ele>
        <time>2017-07-23T08:30:25Z</time>
      </trkpt>
      <trkpt lat="44.2050100" lon="7.2554040">
        <ele>1523.6</ele>
        <time>2017-07-23T08:30:29Z</time>
      </trkpt>
      <trkpt lat="44.2050130" lon="7.2553760">
        <ele>1524.0</ele>
        <time>2017-07-23T08:30:30Z</time>
      </trkpt>
      <trkpt lat="44.2050080" lon="7.2552840">
        <ele>1524.6</ele>
        <time>2017-07-23T08:30:34Z</time>
      </trkpt>
      <trkpt lat="44.2050280" lon="7.2551840">
        <ele>1525.6</ele>
        <time>2017-07-23T08:30:38Z</time>
      </trkpt>
      <trkpt lat="44.2050410" lon="7.2551300">
        <ele>1526.8</ele>
        <time>2017-07-23T08:30:40Z</time>
      </trkpt>
      <trkpt lat="44.2050540" lon="7.2550240">
        <ele>1528.0</ele>
        <time>2017-07-23T08:30:44Z</time>
      </trkpt>
      <trkpt lat="44.2050580" lon="7.2549950">
        <ele>1528.2</ele>
        <time>2017-07-23T08:30:45Z</time>
      </trkpt>
      <trkpt lat="44.2050690" lon="7.2549180">
        <ele>1529.0</ele>
        <time>2017-07-23T08:30:48Z</time>
      </trkpt>
      <trkpt lat="44.2050840" lon="7.2548740">
        <ele>1529.6</ele>
        <time>2017-07-23T08:30:50Z</time>
      </trkpt>
      <trkpt lat="44.2051020" lon="7.2548260">
        <ele>1530.2</ele>
        <time>2017-07-23T08:30:52Z</time>
      </trkpt>
      <trkpt lat="44.2051190" lon="7.2547090">
        <ele>1531.2</ele>
        <time>2017-07-23T08:30:57Z</time>
      </trkpt>
      <trkpt lat="44.2051200" lon="7.2546400">
        <ele>1532.4</ele>
        <time>2017-07-23T08:31:00Z</time>
      </trkpt>
      <trkpt lat="44.2051270" lon="7.2545480">
        <ele>1533.8</ele>
        <time>2017-07-23T08:31:04Z</time>
      </trkpt>
      <trkpt lat="44.2051340" lon="7.2544710">
        <ele>1534.4</ele>
        <time>2017-07-23T08:31:07Z</time>
      </trkpt>
      <trkpt lat="44.2051330" lon="7.2544170">
        <ele>1535.0</ele>
        <time>2017-07-23T08:31:09Z</time>
      </trkpt>
      <trkpt lat="44.2051100" lon="7.2543070">
        <ele>1536.4</ele>
        <time>2017-07-23T08:31:13Z</time>
      </trkpt>
      <trkpt lat="44.2050840" lon="7.2541740">
        <ele>1537.4</ele>
        <time>2017-07-23T08:31:18Z</time>
      </trkpt>
      <trkpt lat="44.2050790" lon="7.2541170">
        <ele>1537.8</ele>
        <time>2017-07-23T08:31:20Z</time>
      </trkpt>
      <trkpt lat="44.2050630" lon="7.2540410">
        <ele>1538.6</ele>
        <time>2017-07-23T08:31:23Z</time>
      </trkpt>
      <trkpt lat="44.2050670" lon="7.2539340">
        <ele>1539.2</ele>
        <time>2017-07-23T08:31:27Z</time>
      </trkpt>
      <trkpt lat="44.2050710" lon="7.2539050">
        <ele>1539.6</ele>
        <time>2017-07-23T08:31:28Z</time>
      </trkpt>
      <trkpt lat="44.2050720" lon="7.2537780">
        <ele>1540.0</ele>
        <time>2017-07-23T08:31:33Z</time>
      </trkpt>
      <trkpt lat="44.2050320" lon="7.2535920">
        <ele>1539.2</ele>
        <time>2017-07-23T08:31:41Z</time>
      </trkpt>
      <trkpt lat="44.2050140" lon="7.2534240">
        <ele>1539.4</ele>
        <time>2017-07-23T08:31:47Z</time>
      </trkpt>
      <trkpt lat="44.2049810" lon="7.2532380">
        <ele>1539.8</ele>
        <time>2017-07-23T08:31:54Z</time>
      </trkpt>
      <trkpt lat="44.2049630" lon="7.2530680">
        <ele>1540.4</ele>
        <time>2017-07-23T08:32:01Z</time>
      </trkpt>
      <trkpt lat="44.2049670" lon="7.2530460">
        <ele>1540.6</ele>
        <time>2017-07-23T08:32:02Z</time>
      </trkpt>
      <trkpt lat="44.2049380" lon="7.2529520">
        <ele>1541.4</ele>
        <time>2017-07-23T08:32:06Z</time>
      </trkpt>
      <trkpt lat="44.2049230" lon="7.2528910">
        <ele>1541.6</ele>
        <time>2017-07-23T08:32:09Z</time>
      </trkpt>
      <trkpt lat="44.2049160" lon="7.2528410">
        <ele>1541.6</ele>
        <time>2017-07-23T08:32:11Z</time>
      </trkpt>
      <trkpt lat="44.2049020" lon="7.2528160">
        <ele>1541.8</ele>
        <time>2017-07-23T08:32:12Z</time>
      </trkpt>
      <trkpt lat="44.2048660" lon="7.2527240">
        <ele>1542.2</ele>
        <time>2017-07-23T08:32:16Z</time>
      </trkpt>
      <trkpt lat="44.2048390" lon="7.2526670">
        <ele>1541.8</ele>
        <time>2017-07-23T08:32:19Z</time>
      </trkpt>
      <trkpt lat="44.2047930" lon="7.2525400">
        <ele>1541.8</ele>
        <time>2017-07-23T08:32:25Z</time>
      </trkpt>
      <trkpt lat="44.2047140" lon="7.2524320">
        <ele>1542.2</ele>
        <time>2017-07-23T08:32:31Z</time>
      </trkpt>
      <trkpt lat="44.2046540" lon="7.2523300">
        <ele>1542.6</ele>
        <time>2017-07-23T08:32:37Z</time>
      </trkpt>
      <trkpt lat="44.2046330" lon="7.2522940">
        <ele>1542.8</ele>
        <time>2017-07-23T08:32:39Z</time>
      </trkpt>
      <trkpt lat="44.2046060" lon="7.2522440">
        <ele>1543.2</ele>
        <time>2017-07-23T08:32:42Z</time>
      </trkpt>
      <trkpt lat="44.2045900" lon="7.2521890">
        <ele>1543.6</ele>
        <time>2017-07-23T08:32:45Z</time>
      </trkpt>
      <trkpt lat="44.2045900" lon="7.2521620">
        <ele>1543.8</ele>
        <time>2017-07-23T08:32:46Z</time>
      </trkpt>
      <trkpt lat="44.2045610" lon="7.2520930">
        <ele>1544.6</ele>
        <time>2017-07-23T08:32:50Z</time>
      </trkpt>
      <trkpt lat="44.2045450" lon="7.2520790">
        <ele>1544.8</ele>
        <time>2017-07-23T08:32:51Z</time>
      </trkpt>
      <trkpt lat="44.2044610" lon="7.2520320">
        <ele>1545.4</ele>
        <time>2017-07-23T08:32:56Z</time>
      </trkpt>
      <trkpt lat="44.2044060" lon="7.2519840">
        <ele>1545.8</ele>
        <time>2017-07-23T08:32:59Z</time>
      </trkpt>
      <trkpt lat="44.2043560" lon="7.2519220">
        <ele>1546.2</ele>
        <time>2017-07-23T08:33:02Z</time>
      </trkpt>
      <trkpt lat="44.2043000" lon="7.2517920">
        <ele>1547.0</ele>
        <time>2017-07-23T08:33:07Z</time>
      </trkpt>
      <trkpt lat="44.2042880" lon="7.2517640">
        <ele>1547.4</ele>
        <time>2017-07-23T08:33:08Z</time>
      </trkpt>
      <trkpt lat="44.2042620" lon="7.2516700">
        <ele>1548.2</ele>
        <time>2017-07-23T08:33:11Z</time>
      </trkpt>
      <trkpt lat="44.2042470" lon="7.2515620">
        <ele>1549.4</ele>
        <time>2017-07-23T08:33:14Z</time>
      </trkpt>
      <trkpt lat="44.2042430" lon="7.2514590">
        <ele>1550.6</ele>
        <time>2017-07-23T08:33:17Z</time>
      </trkpt>
      <trkpt lat="44.2042540" lon="7.2513950">
        <ele>1551.8</ele>
        <time>2017-07-23T08:33:19Z</time>
      </trkpt>
      <trkpt lat="44.2042620" lon="7.2513110">
        <ele>1553.0</ele>
        <time>2017-07-23T08:33:22Z</time>
      </trkpt>
      <trkpt lat="44.2042530" lon="7.2512300">
        <ele>1554.0</ele>
        <time>2017-07-23T08:33:25Z</time>
      </trkpt>
      <trkpt lat="44.2042640" lon="7.2511180">
        <ele>1555.8</ele>
        <time>2017-07-23T08:33:29Z</time>
      </trkpt>
      <trkpt lat="44.2042300" lon="7.2509730">
        <ele>1556.8</ele>
        <time>2017-07-23T08:33:35Z</time>
      </trkpt>
      <trkpt lat="44.2042310" lon="7.2508610">
        <ele>1558.0</ele>
        <time>2017-07-23T08:33:39Z</time>
      </trkpt>
      <trkpt lat="44.2042320" lon="7.2507570">
        <ele>1559.0</ele>
        <time>2017-07-23T08:33:43Z</time>
      </trkpt>
      <trkpt lat="44.2041700" lon="7.2505730">
        <ele>1559.8</ele>
        <time>2017-07-23T08:33:50Z</time>
      </trkpt>
      <trkpt lat="44.2040510" lon="7.2504270">
        <ele>1559.6</ele>
        <time>2017-07-23T08:33:58Z</time>
      </trkpt>
      <trkpt lat="44.2039560" lon="7.2503710">
        <ele>1559.8</ele>
        <time>2017-07-23T08:34:03Z</time>
      </trkpt>
      <trkpt lat="44.2039220" lon="7.2503070">
        <ele>1560.0</ele>
        <time>2017-07-23T08:34:06Z</time>
      </trkpt>
      <trkpt lat="44.2039130" lon="7.2502670">
        <ele>1560.2</ele>
        <time>2017-07-23T08:34:08Z</time>
      </trkpt>
      <trkpt lat="44.2039200" lon="7.2502480">
        <ele>1560.6</ele>
        <time>2017-07-23T08:34:09Z</time>
      </trkpt>
      <trkpt lat="44.2039480" lon="7.2502260">
        <ele>1561.2</ele>
        <time>2017-07-23T08:34:11Z</time>
      </trkpt>
      <trkpt lat="44.2039940" lon="7.2502240">
        <ele>1561.2</ele>
        <time>2017-07-23T08:34:13Z</time>
      </trkpt>
      <trkpt lat="44.2041200" lon="7.2503070">
        <ele>1561.6</ele>
        <time>2017-07-23T08:34:18Z</time>
      </trkpt>
      <trkpt lat="44.2041390" lon="7.2503290">
        <ele>1561.8</ele>
        <time>2017-07-23T08:34:19Z</time>
      </trkpt>
      <trkpt lat="44.2042430" lon="7.2504500">
        <ele>1562.2</ele>
        <time>2017-07-23T08:34:25Z</time>
      </trkpt>
      <trkpt lat="44.2042570" lon="7.2504740">
        <ele>1562.4</ele>
        <time>2017-07-23T08:34:26Z</time>
      </trkpt>
      <trkpt lat="44.2043140" lon="7.2505910">
        <ele>1563.2</ele>
        <time>2017-07-23T08:34:31Z</time>
      </trkpt>
      <trkpt lat="44.2043440" lon="7.2506970">
        <ele>1563.4</ele>
        <time>2017-07-23T08:34:35Z</time>
      </trkpt>
      <trkpt lat="44.2043520" lon="7.2507530">
        <ele>1563.6</ele>
        <time>2017-07-23T08:34:37Z</time>
      </trkpt>
      <trkpt lat="44.2043540" lon="7.2507800">
        <ele>1563.8</ele>
        <time>2017-07-23T08:34:38Z</time>
      </trkpt>
      <trkpt lat="44.2043750" lon="7.2508590">
        <ele>1564.2</ele>
        <time>2017-07-23T08:34:41Z</time>
      </trkpt>
      <trkpt lat="44.2043790" lon="7.2508840">
        <ele>1564.4</ele>
        <time>2017-07-23T08:34:42Z</time>
      </trkpt>
      <trkpt lat="44.2043970" lon="7.2509370">
        <ele>1564.8</ele>
        <time>2017-07-23T08:34:44Z</time>
      </trkpt>
      <trkpt lat="44.2044270" lon="7.2509660">
        <ele>1565.4</ele>
        <time>2017-07-23T08:34:46Z</time>
      </trkpt>
      <trkpt lat="44.2044490" lon="7.2509720">
        <ele>1565.6</ele>
        <time>2017-07-23T08:34:47Z</time>
      </trkpt>
      <trkpt lat="44.2045040" lon="7.2509240">
        <ele>1566.4</ele>
        <time>2017-07-23T08:34:50Z</time>
      </trkpt>
      <trkpt lat="44.2045140" lon="7.2508660">
        <ele>1566.8</ele>
        <time>2017-07-23T08:34:52Z</time>
      </trkpt>
      <trkpt lat="44.2045010" lon="7.2507810">
        <ele>1567.6</ele>
        <time>2017-07-23T08:34:55Z</time>
      </trkpt>
      <trkpt lat="44.2044730" lon="7.2506950">
        <ele>1568.2</ele>
        <time>2017-07-23T08:34:58Z</time>
      </trkpt>
      <trkpt lat="44.2044590" lon="7.2505780">
        <ele>1569.2</ele>
        <time>2017-07-23T08:35:02Z</time>
      </trkpt>
      <trkpt lat="44.2044400" lon="7.2504850">
        <ele>1570.2</ele>
        <time>2017-07-23T08:35:06Z</time>
      </trkpt>
      <trkpt lat="44.2044300" lon="7.2504600">
        <ele>1570.4</ele>
        <time>2017-07-23T08:35:07Z</time>
      </trkpt>
      <trkpt lat="44.2043800" lon="7.2503570">
        <ele>1571.2</ele>
        <time>2017-07-23T08:35:11Z</time>
      </trkpt>
      <trkpt lat="44.2043510" lon="7.2503110">
        <ele>1571.6</ele>
        <time>2017-07-23T08:35:13Z</time>
      </trkpt>
      <trkpt lat="44.2042980" lon="7.2502110">
        <ele>1572.0</ele>
        <time>2017-07-23T08:35:17Z</time>
      </trkpt>
      <trkpt lat="44.2042800" lon="7.2501610">
        <ele>1572.4</ele>
        <time>2017-07-23T08:35:19Z</time>
      </trkpt>
      <trkpt lat="44.2042090" lon="7.2500430">
        <ele>1573.6</ele>
        <time>2017-07-23T08:35:25Z</time>
      </trkpt>
      <trkpt lat="44.2041020" lon="7.2499320">
        <ele>1574.6</ele>
        <time>2017-07-23T08:35:31Z</time>
      </trkpt>
      <trkpt lat="44.2040860" lon="7.2499120">
        <ele>1574.8</ele>
        <time>2017-07-23T08:35:32Z</time>
      </trkpt>
      <trkpt lat="44.2039980" lon="7.2497830">
        <ele>1575.8</ele>
        <time>2017-07-23T08:35:38Z</time>
      </trkpt>
      <trkpt lat="44.2039610" lon="7.2497130">
        <ele>1574.0</ele>
        <time>2017-07-23T08:35:41Z</time>
      </trkpt>
      <trkpt lat="44.2039500" lon="7.2496910">
        <ele>1575.4</ele>
        <time>2017-07-23T08:35:42Z</time>
      </trkpt>
      <trkpt lat="44.2039220" lon="7.2496480">
        <ele>1577.0</ele>
        <time>2017-07-23T08:35:44Z</time>
      </trkpt>
      <trkpt lat="44.2038680" lon="7.2495570">
        <ele>1578.2</ele>
        <time>2017-07-23T08:35:48Z</time>
      </trkpt>
      <trkpt lat="44.2038460" lon="7.2494280">
        <ele>1579.4</ele>
        <time>2017-07-23T08:35:52Z</time>
      </trkpt>
      <trkpt lat="44.2038290" lon="7.2493600">
        <ele>1580.4</ele>
        <time>2017-07-23T08:35:54Z</time>
      </trkpt>
      <trkpt lat="44.2038190" lon="7.2492320">
        <ele>1581.6</ele>
        <time>2017-07-23T08:35:58Z</time>
      </trkpt>
      <trkpt lat="44.2038070" lon="7.2491770">
        <ele>1582.2</ele>
        <time>2017-07-23T08:36:00Z</time>
      </trkpt>
      <trkpt lat="44.2037740" lon="7.2491390">
        <ele>1582.6</ele>
        <time>2017-07-23T08:36:02Z</time>
      </trkpt>
      <trkpt lat="44.2036940" lon="7.2491180">
        <ele>1582.6</ele>
        <time>2017-07-23T08:36:05Z</time>
      </trkpt>
      <trkpt lat="44.2035840" lon="7.2490730">
        <ele>1584.0</ele>
        <time>2017-07-23T08:36:10Z</time>
      </trkpt>
      <trkpt lat="44.2035660" lon="7.2490550">
        <ele>1584.4</ele>
        <time>2017-07-23T08:36:11Z</time>
      </trkpt>
      <trkpt lat="44.2035040" lon="7.2489640">
        <ele>1585.4</ele>
        <time>2017-07-23T08:36:15Z</time>
      </trkpt>
      <trkpt lat="44.2034770" lon="7.2489150">
        <ele>1586.4</ele>
        <time>2017-07-23T08:36:17Z</time>
      </trkpt>
      <trkpt lat="44.2034220" lon="7.2488390">
        <ele>1587.6</ele>
        <time>2017-07-23T08:36:21Z</time>
      </trkpt>
      <trkpt lat="44.2033930" lon="7.2488030">
        <ele>1588.6</ele>
        <time>2017-07-23T08:36:23Z</time>
      </trkpt>
      <trkpt lat="44.2033860" lon="7.2487840">
        <ele>1589.2</ele>
        <time>2017-07-23T08:36:24Z</time>
      </trkpt>
      <trkpt lat="44.2033590" lon="7.2487060">
        <ele>1590.4</ele>
        <time>2017-07-23T08:36:27Z</time>
      </trkpt>
      <trkpt lat="44.2033240" lon="7.2486320">
        <ele>1591.4</ele>
        <time>2017-07-23T08:36:30Z</time>
      </trkpt>
      <trkpt lat="44.2032620" lon="7.2485010">
        <ele>1592.8</ele>
        <time>2017-07-23T08:36:35Z</time>
      </trkpt>
      <trkpt lat="44.2032450" lon="7.2484500">
        <ele>1593.6</ele>
        <time>2017-07-23T08:36:37Z</time>
      </trkpt>
      <trkpt lat="44.2032400" lon="7.2484300">
        <ele>1594.0</ele>
        <time>2017-07-23T08:36:38Z</time>
      </trkpt>
      <trkpt lat="44.2032340" lon="7.2483900">
        <ele>1594.6</ele>
        <time>2017-07-23T08:36:40Z</time>
      </trkpt>
      <trkpt lat="44.2032410" lon="7.2483700">
        <ele>1595.2</ele>
        <time>2017-07-23T08:36:41Z</time>
      </trkpt>
      <trkpt lat="44.2032580" lon="7.2483600">
        <ele>1595.4</ele>
        <time>2017-07-23T08:36:42Z</time>
      </trkpt>
      <trkpt lat="44.2033470" lon="7.2483710">
        <ele>1596.4</ele>
        <time>2017-07-23T08:36:46Z</time>
      </trkpt>
      <trkpt lat="44.2033680" lon="7.2483890">
        <ele>1596.6</ele>
        <time>2017-07-23T08:36:47Z</time>
      </trkpt>
      <trkpt lat="44.2034090" lon="7.2484630">
        <ele>1597.4</ele>
        <time>2017-07-23T08:36:50Z</time>
      </trkpt>
      <trkpt lat="44.2034400" lon="7.2485520">
        <ele>1598.4</ele>
        <time>2017-07-23T08:36:54Z</time>
      </trkpt>
      <trkpt lat="44.2034510" lon="7.2485700">
        <ele>1598.4</ele>
        <time>2017-07-23T08:36:55Z</time>
      </trkpt>
      <trkpt lat="44.2035080" lon="7.2486610">
        <ele>1598.4</ele>
        <time>2017-07-23T08:37:00Z</time>
      </trkpt>
      <trkpt lat="44.2035470" lon="7.2487790">
        <ele>1599.2</ele>
        <time>2017-07-23T08:37:05Z</time>
      </trkpt>
      <trkpt lat="44.2036530" lon="7.2488800">
        <ele>1599.6</ele>
        <time>2017-07-23T08:37:11Z</time>
      </trkpt>
      <trkpt lat="44.2036780" lon="7.2488820">
        <ele>1599.8</ele>
        <time>2017-07-23T08:37:12Z</time>
      </trkpt>
      <trkpt lat="44.2037480" lon="7.2488180">
        <ele>1600.4</ele>
        <time>2017-07-23T08:37:16Z</time>
      </trkpt>
      <trkpt lat="44.2037520" lon="7.2487800">
        <ele>1600.8</ele>
        <time>2017-07-23T08:37:17Z</time>
      </trkpt>
      <trkpt lat="44.2037230" lon="7.2487080">
        <ele>1601.2</ele>
        <time>2017-07-23T08:37:20Z</time>
      </trkpt>
      <trkpt lat="44.2036690" lon="7.2486470">
        <ele>1601.8</ele>
        <time>2017-07-23T08:37:23Z</time>
      </trkpt>
      <trkpt lat="44.2036480" lon="7.2486260">
        <ele>1601.8</ele>
        <time>2017-07-23T08:37:24Z</time>
      </trkpt>
      <trkpt lat="44.2035920" lon="7.2485690">
        <ele>1602.0</ele>
        <time>2017-07-23T08:37:27Z</time>
      </trkpt>
      <trkpt lat="44.2035660" lon="7.2485220">
        <ele>1603.0</ele>
        <time>2017-07-23T08:37:29Z</time>
      </trkpt>
      <trkpt lat="44.2035320" lon="7.2484580">
        <ele>1603.2</ele>
        <time>2017-07-23T08:37:32Z</time>
      </trkpt>
      <trkpt lat="44.2034930" lon="7.2483270">
        <ele>1604.0</ele>
        <time>2017-07-23T08:37:37Z</time>
      </trkpt>
      <trkpt lat="44.2034890" lon="7.2482970">
        <ele>1604.2</ele>
        <time>2017-07-23T08:37:38Z</time>
      </trkpt>
      <trkpt lat="44.2034700" lon="7.2480790">
        <ele>1605.0</ele>
        <time>2017-07-23T08:37:45Z</time>
      </trkpt>
      <trkpt lat="44.2034670" lon="7.2480490">
        <ele>1605.4</ele>
        <time>2017-07-23T08:37:46Z</time>
      </trkpt>
      <trkpt lat="44.2034630" lon="7.2479880">
        <ele>1606.0</ele>
        <time>2017-07-23T08:37:48Z</time>
      </trkpt>
      <trkpt lat="44.2034590" lon="7.2478360">
        <ele>1607.0</ele>
        <time>2017-07-23T08:37:53Z</time>
      </trkpt>
      <trkpt lat="44.2034590" lon="7.2478060">
        <ele>1607.2</ele>
        <time>2017-07-23T08:37:54Z</time>
      </trkpt>
      <trkpt lat="44.2034480" lon="7.2476640">
        <ele>1607.8</ele>
        <time>2017-07-23T08:37:59Z</time>
      </trkpt>
      <trkpt lat="44.2034440" lon="7.2476090">
        <ele>1608.2</ele>
        <time>2017-07-23T08:38:01Z</time>
      </trkpt>
      <trkpt lat="44.2034410" lon="7.2474940">
        <ele>1609.4</ele>
        <time>2017-07-23T08:38:05Z</time>
      </trkpt>
      <trkpt lat="44.2034420" lon="7.2474650">
        <ele>1609.6</ele>
        <time>2017-07-23T08:38:06Z</time>
      </trkpt>
      <trkpt lat="44.2034470" lon="7.2473510">
        <ele>1610.4</ele>
        <time>2017-07-23T08:38:10Z</time>
      </trkpt>
      <trkpt lat="44.2034440" lon="7.2472980">
        <ele>1610.8</ele>
        <time>2017-07-23T08:38:12Z</time>
      </trkpt>
      <trkpt lat="44.2034360" lon="7.2471870">
        <ele>1611.0</ele>
        <time>2017-07-23T08:38:17Z</time>
      </trkpt>
      <trkpt lat="44.2034280" lon="7.2471630">
        <ele>1611.0</ele>
        <time>2017-07-23T08:38:18Z</time>
      </trkpt>
      <trkpt lat="44.2034130" lon="7.2471010">
        <ele>1611.4</ele>
        <time>2017-07-23T08:38:22Z</time>
      </trkpt>
      <trkpt lat="44.2034050" lon="7.2470790">
        <ele>1611.6</ele>
        <time>2017-07-23T08:38:23Z</time>
      </trkpt>
      <trkpt lat="44.2033930" lon="7.2470380">
        <ele>1611.6</ele>
        <time>2017-07-23T08:38:25Z</time>
      </trkpt>
      <trkpt lat="44.2033900" lon="7.2470080">
        <ele>1611.6</ele>
        <time>2017-07-23T08:38:26Z</time>
      </trkpt>
      <trkpt lat="44.2034220" lon="7.2469580">
        <ele>1613.0</ele>
        <time>2017-07-23T08:38:33Z</time>
      </trkpt>
      <trkpt lat="44.2034280" lon="7.2469880">
        <ele>1613.0</ele>
        <time>2017-07-23T08:38:34Z</time>
      </trkpt>
      <trkpt lat="44.2034350" lon="7.2472140">
        <ele>1613.6</ele>
        <time>2017-07-23T08:38:41Z</time>
      </trkpt>
      <trkpt lat="44.2034340" lon="7.2472420">
        <ele>1614.0</ele>
        <time>2017-07-23T08:38:42Z</time>
      </trkpt>
      <trkpt lat="44.2034610" lon="7.2473340">
        <ele>1615.2</ele>
        <time>2017-07-23T08:38:46Z</time>
      </trkpt>
      <trkpt lat="44.2034840" lon="7.2473530">
        <ele>1615.2</ele>
        <time>2017-07-23T08:38:47Z</time>
      </trkpt>
      <trkpt lat="44.2035580" lon="7.2475150">
        <ele>1616.0</ele>
        <time>2017-07-23T08:38:54Z</time>
      </trkpt>
      <trkpt lat="44.2035630" lon="7.2475410">
        <ele>1616.2</ele>
        <time>2017-07-23T08:38:55Z</time>
      </trkpt>
      <trkpt lat="44.2036580" lon="7.2476740">
        <ele>1616.4</ele>
        <time>2017-07-23T08:39:01Z</time>
      </trkpt>
      <trkpt lat="44.2037220" lon="7.2477700">
        <ele>1617.4</ele>
        <time>2017-07-23T08:39:06Z</time>
      </trkpt>
      <trkpt lat="44.2037340" lon="7.2477910">
        <ele>1617.4</ele>
        <time>2017-07-23T08:39:07Z</time>
      </trkpt>
      <trkpt lat="44.2037790" lon="7.2479200">
        <ele>1618.0</ele>
        <time>2017-07-23T08:39:13Z</time>
      </trkpt>
      <trkpt lat="44.2038250" lon="7.2479820">
        <ele>1618.4</ele>
        <time>2017-07-23T08:39:17Z</time>
      </trkpt>
      <trkpt lat="44.2038370" lon="7.2480000">
        <ele>1618.4</ele>
        <time>2017-07-23T08:39:18Z</time>
      </trkpt>
      <trkpt lat="44.2039100" lon="7.2481560">
        <ele>1618.8</ele>
        <time>2017-07-23T08:39:25Z</time>
      </trkpt>
      <trkpt lat="44.2039730" lon="7.2483070">
        <ele>1619.6</ele>
        <time>2017-07-23T08:39:32Z</time>
      </trkpt>
      <trkpt lat="44.2039880" lon="7.2483220">
        <ele>1619.6</ele>
        <time>2017-07-23T08:39:33Z</time>
      </trkpt>
      <trkpt lat="44.2040480" lon="7.2483300">
        <ele>1620.2</ele>
        <time>2017-07-23T08:39:36Z</time>
      </trkpt>
      <trkpt lat="44.2040640" lon="7.2483050">
        <ele>1620.4</ele>
        <time>2017-07-23T08:39:37Z</time>
      </trkpt>
      <trkpt lat="44.2040740" lon="7.2482790">
        <ele>1620.6</ele>
        <time>2017-07-23T08:39:38Z</time>
      </trkpt>
      <trkpt lat="44.2040630" lon="7.2481820">
        <ele>1621.6</ele>
        <time>2017-07-23T08:39:41Z</time>
      </trkpt>
      <trkpt lat="44.2040510" lon="7.2481540">
        <ele>1621.6</ele>
        <time>2017-07-23T08:39:42Z</time>
      </trkpt>
      <trkpt lat="44.2040390" lon="7.2481270">
        <ele>1621.6</ele>
        <time>2017-07-23T08:39:43Z</time>
      </trkpt>
      <trkpt lat="44.2040130" lon="7.2480440">
        <ele>1622.8</ele>
        <time>2017-07-23T08:39:46Z</time>
      </trkpt>
      <trkpt lat="44.2039820" lon="7.2479710">
        <ele>1624.0</ele>
        <time>2017-07-23T08:39:49Z</time>
      </trkpt>
      <trkpt lat="44.2039160" lon="7.2478390">
        <ele>1625.0</ele>
        <time>2017-07-23T08:39:55Z</time>
      </trkpt>
      <trkpt lat="44.2039060" lon="7.2478160">
        <ele>1625.2</ele>
        <time>2017-07-23T08:39:56Z</time>
      </trkpt>
      <trkpt lat="44.2038620" lon="7.2476200">
        <ele>1626.0</ele>
        <time>2017-07-23T08:40:04Z</time>
      </trkpt>
      <trkpt lat="44.2038600" lon="7.2475920">
        <ele>1626.2</ele>
        <time>2017-07-23T08:40:05Z</time>
      </trkpt>
      <trkpt lat="44.2038550" lon="7.2474980">
        <ele>1627.6</ele>
        <time>2017-07-23T08:40:08Z</time>
      </trkpt>
      <trkpt lat="44.2038650" lon="7.2474370">
        <ele>1628.6</ele>
        <time>2017-07-23T08:40:10Z</time>
      </trkpt>
      <trkpt lat="44.2038710" lon="7.2474070">
        <ele>1629.0</ele>
        <time>2017-07-23T08:40:11Z</time>
      </trkpt>
      <trkpt lat="44.2038790" lon="7.2473300">
        <ele>1630.0</ele>
        <time>2017-07-23T08:40:14Z</time>
      </trkpt>
      <trkpt lat="44.2038850" lon="7.2472320">
        <ele>1631.6</ele>
        <time>2017-07-23T08:40:18Z</time>
      </trkpt>
      <trkpt lat="44.2038880" lon="7.2472080">
        <ele>1632.0</ele>
        <time>2017-07-23T08:40:19Z</time>
      </trkpt>
      <trkpt lat="44.2038930" lon="7.2471050">
        <ele>1632.8</ele>
        <time>2017-07-23T08:40:23Z</time>
      </trkpt>
      <trkpt lat="44.2038970" lon="7.2470560">
        <ele>1633.2</ele>
        <time>2017-07-23T08:40:25Z</time>
      </trkpt>
      <trkpt lat="44.2038970" lon="7.2470130">
        <ele>1634.0</ele>
        <time>2017-07-23T08:40:27Z</time>
      </trkpt>
      <trkpt lat="44.2038950" lon="7.2469660">
        <ele>1634.8</ele>
        <time>2017-07-23T08:40:29Z</time>
      </trkpt>
      <trkpt lat="44.2039030" lon="7.2469110">
        <ele>1635.4</ele>
        <time>2017-07-23T08:40:31Z</time>
      </trkpt>
      <trkpt lat="44.2039030" lon="7.2467760">
        <ele>1636.4</ele>
        <time>2017-07-23T08:40:36Z</time>
      </trkpt>
      <trkpt lat="44.2039040" lon="7.2467490">
        <ele>1636.6</ele>
        <time>2017-07-23T08:40:37Z</time>
      </trkpt>
      <trkpt lat="44.2038760" lon="7.2466300">
        <ele>1636.2</ele>
        <time>2017-07-23T08:40:42Z</time>
      </trkpt>
      <trkpt lat="44.2038630" lon="7.2466160">
        <ele>1636.2</ele>
        <time>2017-07-23T08:40:43Z</time>
      </trkpt>
      <trkpt lat="44.2038180" lon="7.2465390">
        <ele>1636.0</ele>
        <time>2017-07-23T08:40:47Z</time>
      </trkpt>
      <trkpt lat="44.2037350" lon="7.2464400">
        <ele>1636.6</ele>
        <time>2017-07-23T08:40:53Z</time>
      </trkpt>
      <trkpt lat="44.2036390" lon="7.2464450">
        <ele>1636.2</ele>
        <time>2017-07-23T08:40:57Z</time>
      </trkpt>
      <trkpt lat="44.2035040" lon="7.2464670">
        <ele>1636.4</ele>
        <time>2017-07-23T08:41:02Z</time>
      </trkpt>
      <trkpt lat="44.2033960" lon="7.2464640">
        <ele>1637.4</ele>
        <time>2017-07-23T08:41:06Z</time>
      </trkpt>
      <trkpt lat="44.2033840" lon="7.2464440">
        <ele>1638.0</ele>
        <time>2017-07-23T08:41:07Z</time>
      </trkpt>
      <trkpt lat="44.2033510" lon="7.2464110">
        <ele>1638.6</ele>
        <time>2017-07-23T08:41:09Z</time>
      </trkpt>
      <trkpt lat="44.2033310" lon="7.2463920">
        <ele>1639.0</ele>
        <time>2017-07-23T08:41:10Z</time>
      </trkpt>
      <trkpt lat="44.2032800" lon="7.2463470">
        <ele>1639.6</ele>
        <time>2017-07-23T08:41:13Z</time>
      </trkpt>
      <trkpt lat="44.2031720" lon="7.2462860">
        <ele>1641.0</ele>
        <time>2017-07-23T08:41:18Z</time>
      </trkpt>
      <trkpt lat="44.2030920" lon="7.2462020">
        <ele>1642.2</ele>
        <time>2017-07-23T08:41:23Z</time>
      </trkpt>
      <trkpt lat="44.2030590" lon="7.2461400">
        <ele>1643.4</ele>
        <time>2017-07-23T08:41:26Z</time>
      </trkpt>
      <trkpt lat="44.2030670" lon="7.2460780">
        <ele>1644.6</ele>
        <time>2017-07-23T08:41:29Z</time>
      </trkpt>
      <trkpt lat="44.2030710" lon="7.2460550">
        <ele>1645.8</ele>
        <time>2017-07-23T08:41:30Z</time>
      </trkpt>
      <trkpt lat="44.2030810" lon="7.2459930">
        <ele>1647.2</ele>
        <time>2017-07-23T08:41:33Z</time>
      </trkpt>
      <trkpt lat="44.2030970" lon="7.2459320">
        <ele>1648.6</ele>
        <time>2017-07-23T08:41:36Z</time>
      </trkpt>
      <trkpt lat="44.2031160" lon="7.2458550">
        <ele>1649.6</ele>
        <time>2017-07-23T08:41:39Z</time>
      </trkpt>
      <trkpt lat="44.2031380" lon="7.2457600">
        <ele>1650.8</ele>
        <time>2017-07-23T08:41:42Z</time>
      </trkpt>
      <trkpt lat="44.2031450" lon="7.2457230">
        <ele>1651.2</ele>
        <time>2017-07-23T08:41:43Z</time>
      </trkpt>
      <trkpt lat="44.2031410" lon="7.2456600">
        <ele>1652.0</ele>
        <time>2017-07-23T08:41:45Z</time>
      </trkpt>
      <trkpt lat="44.2031330" lon="7.2455910">
        <ele>1652.8</ele>
        <time>2017-07-23T08:41:48Z</time>
      </trkpt>
      <trkpt lat="44.2031270" lon="7.2455640">
        <ele>1653.0</ele>
        <time>2017-07-23T08:41:49Z</time>
      </trkpt>
      <trkpt lat="44.2031220" lon="7.2455000">
        <ele>1654.0</ele>
        <time>2017-07-23T08:41:52Z</time>
      </trkpt>
      <trkpt lat="44.2031280" lon="7.2454760">
        <ele>1654.4</ele>
        <time>2017-07-23T08:41:53Z</time>
      </trkpt>
      <trkpt lat="44.2031310" lon="7.2454480">
        <ele>1655.0</ele>
        <time>2017-07-23T08:41:54Z</time>
      </trkpt>
      <trkpt lat="44.2031310" lon="7.2453930">
        <ele>1655.6</ele>
        <time>2017-07-23T08:41:56Z</time>
      </trkpt>
      <trkpt lat="44.2031600" lon="7.2452630">
        <ele>1656.6</ele>
        <time>2017-07-23T08:42:00Z</time>
      </trkpt>
      <trkpt lat="44.2031640" lon="7.2452350">
        <ele>1656.8</ele>
        <time>2017-07-23T08:42:01Z</time>
      </trkpt>
      <trkpt lat="44.2031690" lon="7.2451410">
        <ele>1657.8</ele>
        <time>2017-07-23T08:42:04Z</time>
      </trkpt>
      <trkpt lat="44.2031720" lon="7.2451090">
        <ele>1657.8</ele>
        <time>2017-07-23T08:42:05Z</time>
      </trkpt>
      <trkpt lat="44.2031620" lon="7.2450750">
        <ele>1658.2</ele>
        <time>2017-07-23T08:42:06Z</time>
      </trkpt>
      <trkpt lat="44.2030900" lon="7.2449710">
        <ele>1659.0</ele>
        <time>2017-07-23T08:42:10Z</time>
      </trkpt>
      <trkpt lat="44.2030390" lon="7.2448850">
        <ele>1660.0</ele>
        <time>2017-07-23T08:42:14Z</time>
      </trkpt>
      <trkpt lat="44.2030280" lon="7.2448650">
        <ele>1660.2</ele>
        <time>2017-07-23T08:42:15Z</time>
      </trkpt>
      <trkpt lat="44.2029850" lon="7.2448230">
        <ele>1661.2</ele>
        <time>2017-07-23T08:42:18Z</time>
      </trkpt>
      <trkpt lat="44.2029830" lon="7.2447980">
        <ele>1661.4</ele>
        <time>2017-07-23T08:42:19Z</time>
      </trkpt>
      <trkpt lat="44.2029770" lon="7.2447710">
        <ele>1661.6</ele>
        <time>2017-07-23T08:42:20Z</time>
      </trkpt>
      <trkpt lat="44.2029680" lon="7.2447170">
        <ele>1662.2</ele>
        <time>2017-07-23T08:42:22Z</time>
      </trkpt>
      <trkpt lat="44.2029520" lon="7.2446430">
        <ele>1662.2</ele>
        <time>2017-07-23T08:42:25Z</time>
      </trkpt>
      <trkpt lat="44.2029540" lon="7.2446140">
        <ele>1662.4</ele>
        <time>2017-07-23T08:42:26Z</time>
      </trkpt>
      <trkpt lat="44.2029550" lon="7.2445880">
        <ele>1662.6</ele>
        <time>2017-07-23T08:42:27Z</time>
      </trkpt>
      <trkpt lat="44.2029470" lon="7.2444600">
        <ele>1662.6</ele>
        <time>2017-07-23T08:42:32Z</time>
      </trkpt>
      <trkpt lat="44.2028960" lon="7.2443130">
        <ele>1661.6</ele>
        <time>2017-07-23T08:42:39Z</time>
      </trkpt>
      <trkpt lat="44.2028870" lon="7.2442900">
        <ele>1661.2</ele>
        <time>2017-07-23T08:42:40Z</time>
      </trkpt>
      <trkpt lat="44.2028560" lon="7.2441710">
        <ele>1660.8</ele>
        <time>2017-07-23T08:42:45Z</time>
      </trkpt>
      <trkpt lat="44.2028600" lon="7.2441430">
        <ele>1661.0</ele>
        <time>2017-07-23T08:42:46Z</time>
      </trkpt>
      <trkpt lat="44.2028770" lon="7.2440110">
        <ele>1662.4</ele>
        <time>2017-07-23T08:42:52Z</time>
      </trkpt>
      <trkpt lat="44.2028790" lon="7.2439940">
        <ele>1662.8</ele>
        <time>2017-07-23T08:42:53Z</time>
      </trkpt>
      <trkpt lat="44.2028500" lon="7.2439060">
        <ele>1663.0</ele>
        <time>2017-07-23T08:42:57Z</time>
      </trkpt>
      <trkpt lat="44.2028430" lon="7.2438850">
        <ele>1663.0</ele>
        <time>2017-07-23T08:42:58Z</time>
      </trkpt>
      <trkpt lat="44.2028220" lon="7.2437920">
        <ele>1662.8</ele>
        <time>2017-07-23T08:43:02Z</time>
      </trkpt>
      <trkpt lat="44.2028130" lon="7.2437290">
        <ele>1662.8</ele>
        <time>2017-07-23T08:43:05Z</time>
      </trkpt>
      <trkpt lat="44.2027960" lon="7.2435400">
        <ele>1663.0</ele>
        <time>2017-07-23T08:43:13Z</time>
      </trkpt>
      <trkpt lat="44.2027740" lon="7.2433980">
        <ele>1663.4</ele>
        <time>2017-07-23T08:43:19Z</time>
      </trkpt>
      <trkpt lat="44.2027740" lon="7.2433570">
        <ele>1663.4</ele>
        <time>2017-07-23T08:43:21Z</time>
      </trkpt>
      <trkpt lat="44.2027870" lon="7.2432570">
        <ele>1664.4</ele>
        <time>2017-07-23T08:43:25Z</time>
      </trkpt>
      <trkpt lat="44.2027870" lon="7.2432320">
        <ele>1664.8</ele>
        <time>2017-07-23T08:43:26Z</time>
      </trkpt>
      <trkpt lat="44.2027810" lon="7.2431120">
        <ele>1665.6</ele>
        <time>2017-07-23T08:43:31Z</time>
      </trkpt>
      <trkpt lat="44.2027750" lon="7.2430910">
        <ele>1666.0</ele>
        <time>2017-07-23T08:43:32Z</time>
      </trkpt>
      <trkpt lat="44.2027760" lon="7.2430700">
        <ele>1666.0</ele>
        <time>2017-07-23T08:43:33Z</time>
      </trkpt>
      <trkpt lat="44.2027700" lon="7.2430100">
        <ele>1666.6</ele>
        <time>2017-07-23T08:43:36Z</time>
      </trkpt>
      <trkpt lat="44.2027650" lon="7.2429940">
        <ele>1667.0</ele>
        <time>2017-07-23T08:43:37Z</time>
      </trkpt>
      <trkpt lat="44.2027600" lon="7.2429260">
        <ele>1667.8</ele>
        <time>2017-07-23T08:43:40Z</time>
      </trkpt>
      <trkpt lat="44.2027580" lon="7.2428710">
        <ele>1668.8</ele>
        <time>2017-07-23T08:43:42Z</time>
      </trkpt>
      <trkpt lat="44.2027550" lon="7.2428440">
        <ele>1669.2</ele>
        <time>2017-07-23T08:43:43Z</time>
      </trkpt>
      <trkpt lat="44.2027380" lon="7.2427760">
        <ele>1669.8</ele>
        <time>2017-07-23T08:43:46Z</time>
      </trkpt>
      <trkpt lat="44.2027230" lon="7.2426900">
        <ele>1670.8</ele>
        <time>2017-07-23T08:43:49Z</time>
      </trkpt>
      <trkpt lat="44.2027120" lon="7.2426740">
        <ele>1670.8</ele>
        <time>2017-07-23T08:43:50Z</time>
      </trkpt>
      <trkpt lat="44.2026610" lon="7.2426440">
        <ele>1670.6</ele>
        <time>2017-07-23T08:43:53Z</time>
      </trkpt>
      <trkpt lat="44.2025630" lon="7.2426690">
        <ele>1670.6</ele>
        <time>2017-07-23T08:43:58Z</time>
      </trkpt>
      <trkpt lat="44.2024630" lon="7.2427310">
        <ele>1670.8</ele>
        <time>2017-07-23T08:44:04Z</time>
      </trkpt>
      <trkpt lat="44.2024430" lon="7.2427350">
        <ele>1671.0</ele>
        <time>2017-07-23T08:44:05Z</time>
      </trkpt>
      <trkpt lat="44.2023410" lon="7.2427230">
        <ele>1671.2</ele>
        <time>2017-07-23T08:44:10Z</time>
      </trkpt>
      <trkpt lat="44.2022600" lon="7.2426320">
        <ele>1671.8</ele>
        <time>2017-07-23T08:44:15Z</time>
      </trkpt>
      <trkpt lat="44.2022450" lon="7.2426090">
        <ele>1672.0</ele>
        <time>2017-07-23T08:44:16Z</time>
      </trkpt>
      <trkpt lat="44.2022000" lon="7.2425070">
        <ele>1673.0</ele>
        <time>2017-07-23T08:44:21Z</time>
      </trkpt>
      <trkpt lat="44.2020920" lon="7.2424000">
        <ele>1674.2</ele>
        <time>2017-07-23T08:44:28Z</time>
      </trkpt>
      <trkpt lat="44.2019990" lon="7.2423100">
        <ele>1675.4</ele>
        <time>2017-07-23T08:44:34Z</time>
      </trkpt>
      <trkpt lat="44.2019830" lon="7.2422980">
        <ele>1675.4</ele>
        <time>2017-07-23T08:44:35Z</time>
      </trkpt>
      <trkpt lat="44.2019120" lon="7.2422600">
        <ele>1676.0</ele>
        <time>2017-07-23T08:44:39Z</time>
      </trkpt>
      <trkpt lat="44.2018690" lon="7.2422470">
        <ele>1676.0</ele>
        <time>2017-07-23T08:44:41Z</time>
      </trkpt>
      <trkpt lat="44.2018360" lon="7.2422160">
        <ele>1676.6</ele>
        <time>2017-07-23T08:44:43Z</time>
      </trkpt>
      <trkpt lat="44.2018290" lon="7.2421390">
        <ele>1677.4</ele>
        <time>2017-07-23T08:44:46Z</time>
      </trkpt>
      <trkpt lat="44.2018410" lon="7.2421140">
        <ele>1677.8</ele>
        <time>2017-07-23T08:44:47Z</time>
      </trkpt>
      <trkpt lat="44.2018950" lon="7.2420730">
        <ele>1678.8</ele>
        <time>2017-07-23T08:44:50Z</time>
      </trkpt>
      <trkpt lat="44.2019190" lon="7.2420790">
        <ele>1679.0</ele>
        <time>2017-07-23T08:44:51Z</time>
      </trkpt>
      <trkpt lat="44.2019400" lon="7.2420840">
        <ele>1679.2</ele>
        <time>2017-07-23T08:44:52Z</time>
      </trkpt>
      <trkpt lat="44.2020240" lon="7.2421060">
        <ele>1679.6</ele>
        <time>2017-07-23T08:44:55Z</time>
      </trkpt>
      <trkpt lat="44.2020690" lon="7.2421470">
        <ele>1680.0</ele>
        <time>2017-07-23T08:44:57Z</time>
      </trkpt>
      <trkpt lat="44.2021260" lon="7.2422010">
        <ele>1680.4</ele>
        <time>2017-07-23T08:45:00Z</time>
      </trkpt>
      <trkpt lat="44.2022870" lon="7.2423300">
        <ele>1680.8</ele>
        <time>2017-07-23T08:45:07Z</time>
      </trkpt>
      <trkpt lat="44.2023770" lon="7.2424350">
        <ele>1680.8</ele>
        <time>2017-07-23T08:45:12Z</time>
      </trkpt>
      <trkpt lat="44.2024010" lon="7.2424400">
        <ele>1681.0</ele>
        <time>2017-07-23T08:45:13Z</time>
      </trkpt>
      <trkpt lat="44.2024790" lon="7.2423960">
        <ele>1681.8</ele>
        <time>2017-07-23T08:45:16Z</time>
      </trkpt>
      <trkpt lat="44.2024900" lon="7.2423650">
        <ele>1682.2</ele>
        <time>2017-07-23T08:45:17Z</time>
      </trkpt>
      <trkpt lat="44.2024690" lon="7.2422850">
        <ele>1682.8</ele>
        <time>2017-07-23T08:45:20Z</time>
      </trkpt>
      <trkpt lat="44.2024120" lon="7.2422260">
        <ele>1683.2</ele>
        <time>2017-07-23T08:45:23Z</time>
      </trkpt>
      <trkpt lat="44.2023770" lon="7.2421900">
        <ele>1683.8</ele>
        <time>2017-07-23T08:45:25Z</time>
      </trkpt>
      <trkpt lat="44.2023370" lon="7.2421640">
        <ele>1684.2</ele>
        <time>2017-07-23T08:45:27Z</time>
      </trkpt>
      <trkpt lat="44.2022890" lon="7.2421230">
        <ele>1685.0</ele>
        <time>2017-07-23T08:45:30Z</time>
      </trkpt>
      <trkpt lat="44.2022700" lon="7.2421060">
        <ele>1685.4</ele>
        <time>2017-07-23T08:45:31Z</time>
      </trkpt>
      <trkpt lat="44.2021860" lon="7.2420490">
        <ele>1686.4</ele>
        <time>2017-07-23T08:45:36Z</time>
      </trkpt>
      <trkpt lat="44.2021700" lon="7.2420380">
        <ele>1686.4</ele>
        <time>2017-07-23T08:45:37Z</time>
      </trkpt>
      <trkpt lat="44.2020960" lon="7.2419460">
        <ele>1687.4</ele>
        <time>2017-07-23T08:45:43Z</time>
      </trkpt>
      <trkpt lat="44.2020840" lon="7.2419270">
        <ele>1687.4</ele>
        <time>2017-07-23T08:45:44Z</time>
      </trkpt>
      <trkpt lat="44.2020080" lon="7.2418350">
        <ele>1688.4</ele>
        <time>2017-07-23T08:45:50Z</time>
      </trkpt>
      <trkpt lat="44.2020000" lon="7.2418170">
        <ele>1688.6</ele>
        <time>2017-07-23T08:45:51Z</time>
      </trkpt>
      <trkpt lat="44.2019870" lon="7.2417220">
        <ele>1690.0</ele>
        <time>2017-07-23T08:45:55Z</time>
      </trkpt>
      <trkpt lat="44.2019880" lon="7.2416960">
        <ele>1690.4</ele>
        <time>2017-07-23T08:45:56Z</time>
      </trkpt>
      <trkpt lat="44.2019970" lon="7.2416490">
        <ele>1691.0</ele>
        <time>2017-07-23T08:45:58Z</time>
      </trkpt>
      <trkpt lat="44.2020100" lon="7.2416020">
        <ele>1692.2</ele>
        <time>2017-07-23T08:46:00Z</time>
      </trkpt>
      <trkpt lat="44.2020180" lon="7.2415580">
        <ele>1693.2</ele>
        <time>2017-07-23T08:46:02Z</time>
      </trkpt>
      <trkpt lat="44.2020290" lon="7.2415090">
        <ele>1694.2</ele>
        <time>2017-07-23T08:46:04Z</time>
      </trkpt>
      <trkpt lat="44.2020340" lon="7.2414600">
        <ele>1695.2</ele>
        <time>2017-07-23T08:46:06Z</time>
      </trkpt>
      <trkpt lat="44.2020570" lon="7.2413990">
        <ele>1696.6</ele>
        <time>2017-07-23T08:46:09Z</time>
      </trkpt>
      <trkpt lat="44.2020600" lon="7.2413760">
        <ele>1697.0</ele>
        <time>2017-07-23T08:46:10Z</time>
      </trkpt>
      <trkpt lat="44.2020680" lon="7.2413290">
        <ele>1698.0</ele>
        <time>2017-07-23T08:46:12Z</time>
      </trkpt>
      <trkpt lat="44.2020830" lon="7.2412890">
        <ele>1698.8</ele>
        <time>2017-07-23T08:46:14Z</time>
      </trkpt>
      <trkpt lat="44.2020890" lon="7.2412710">
        <ele>1699.2</ele>
        <time>2017-07-23T08:46:15Z</time>
      </trkpt>
      <trkpt lat="44.2020970" lon="7.2412200">
        <ele>1700.0</ele>
        <time>2017-07-23T08:46:17Z</time>
      </trkpt>
      <trkpt lat="44.2021010" lon="7.2411940">
        <ele>1700.4</ele>
        <time>2017-07-23T08:46:18Z</time>
      </trkpt>
      <trkpt lat="44.2020890" lon="7.2411090">
        <ele>1701.6</ele>
        <time>2017-07-23T08:46:21Z</time>
      </trkpt>
      <trkpt lat="44.2020830" lon="7.2410520">
        <ele>1701.6</ele>
        <time>2017-07-23T08:46:23Z</time>
      </trkpt>
      <trkpt lat="44.2020820" lon="7.2409180">
        <ele>1702.6</ele>
        <time>2017-07-23T08:46:28Z</time>
      </trkpt>
      <trkpt lat="44.2020950" lon="7.2408210">
        <ele>1703.4</ele>
        <time>2017-07-23T08:46:31Z</time>
      </trkpt>
      <trkpt lat="44.2020890" lon="7.2407590">
        <ele>1703.6</ele>
        <time>2017-07-23T08:46:33Z</time>
      </trkpt>
      <trkpt lat="44.2020830" lon="7.2406480">
        <ele>1704.6</ele>
        <time>2017-07-23T08:46:37Z</time>
      </trkpt>
      <trkpt lat="44.2020730" lon="7.2405210">
        <ele>1705.8</ele>
        <time>2017-07-23T08:46:42Z</time>
      </trkpt>
      <trkpt lat="44.2020570" lon="7.2404670">
        <ele>1706.6</ele>
        <time>2017-07-23T08:46:44Z</time>
      </trkpt>
      <trkpt lat="44.2020510" lon="7.2404090">
        <ele>1707.0</ele>
        <time>2017-07-23T08:46:46Z</time>
      </trkpt>
      <trkpt lat="44.2020110" lon="7.2402720">
        <ele>1707.2</ele>
        <time>2017-07-23T08:46:51Z</time>
      </trkpt>
      <trkpt lat="44.2018950" lon="7.2401290">
        <ele>1707.4</ele>
        <time>2017-07-23T08:46:57Z</time>
      </trkpt>
      <trkpt lat="44.2018200" lon="7.2400840">
        <ele>1708.2</ele>
        <time>2017-07-23T08:47:00Z</time>
      </trkpt>
      <trkpt lat="44.2017190" lon="7.2400480">
        <ele>1707.8</ele>
        <time>2017-07-23T08:47:03Z</time>
      </trkpt>
      <trkpt lat="44.2015090" lon="7.2399130">
        <ele>1707.6</ele>
        <time>2017-07-23T08:47:09Z</time>
      </trkpt>
      <trkpt lat="44.2013780" lon="7.2396540">
        <ele>1709.0</ele>
        <time>2017-07-23T08:47:15Z</time>
      </trkpt>
      <trkpt lat="44.2013650" lon="7.2396030">
        <ele>1709.2</ele>
        <time>2017-07-23T08:47:16Z</time>
      </trkpt>
      <trkpt lat="44.2013280" lon="7.2394400">
        <ele>1710.2</ele>
        <time>2017-07-23T08:47:19Z</time>
      </trkpt>
      <trkpt lat="44.2012970" lon="7.2392830">
        <ele>1710.0</ele>
        <time>2017-07-23T08:47:22Z</time>
      </trkpt>
      <trkpt lat="44.2011850" lon="7.2389610">
        <ele>1710.2</ele>
        <time>2017-07-23T08:47:29Z</time>
      </trkpt>
      <trkpt lat="44.2011210" lon="7.2387350">
        <ele>1710.8</ele>
        <time>2017-07-23T08:47:34Z</time>
      </trkpt>
      <trkpt lat="44.2010260" lon="7.2383560">
        <ele>1711.0</ele>
        <time>2017-07-23T08:47:41Z</time>
      </trkpt>
      <trkpt lat="44.2009230" lon="7.2381960">
        <ele>1710.4</ele>
        <time>2017-07-23T08:47:45Z</time>
      </trkpt>
      <trkpt lat="44.2007590" lon="7.2379650">
        <ele>1710.8</ele>
        <time>2017-07-23T08:47:51Z</time>
      </trkpt>
      <trkpt lat="44.2006450" lon="7.2378210">
        <ele>1711.2</ele>
        <time>2017-07-23T08:47:55Z</time>
      </trkpt>
      <trkpt lat="44.2005980" lon="7.2377260">
        <ele>1711.4</ele>
        <time>2017-07-23T08:47:57Z</time>
      </trkpt>
      <trkpt lat="44.2004320" lon="7.2375110">
        <ele>1712.0</ele>
        <time>2017-07-23T08:48:03Z</time>
      </trkpt>
      <trkpt lat="44.2003370" lon="7.2373630">
        <ele>1711.8</ele>
        <time>2017-07-23T08:48:08Z</time>
      </trkpt>
      <trkpt lat="44.2003100" lon="7.2372910">
        <ele>1712.2</ele>
        <time>2017-07-23T08:48:10Z</time>
      </trkpt>
      <trkpt lat="44.2002560" lon="7.2371290">
        <ele>1713.0</ele>
        <time>2017-07-23T08:48:14Z</time>
      </trkpt>
      <trkpt lat="44.2002230" lon="7.2370450">
        <ele>1713.4</ele>
        <time>2017-07-23T08:48:16Z</time>
      </trkpt>
      <trkpt lat="44.2001720" lon="7.2368860">
        <ele>1714.4</ele>
        <time>2017-07-23T08:48:20Z</time>
      </trkpt>
      <trkpt lat="44.2001450" lon="7.2368070">
        <ele>1714.6</ele>
        <time>2017-07-23T08:48:22Z</time>
      </trkpt>
      <trkpt lat="44.2000700" lon="7.2366280">
        <ele>1715.4</ele>
        <time>2017-07-23T08:48:28Z</time>
      </trkpt>
      <trkpt lat="44.2000580" lon="7.2365970">
        <ele>1715.4</ele>
        <time>2017-07-23T08:48:29Z</time>
      </trkpt>
      <trkpt lat="44.1999920" lon="7.2363850">
        <ele>1715.6</ele>
        <time>2017-07-23T08:48:34Z</time>
      </trkpt>
      <trkpt lat="44.1999550" lon="7.2360910">
        <ele>1715.6</ele>
        <time>2017-07-23T08:48:40Z</time>
      </trkpt>
      <trkpt lat="44.1998760" lon="7.2356460">
        <ele>1716.4</ele>
        <time>2017-07-23T08:48:49Z</time>
      </trkpt>
      <trkpt lat="44.1998100" lon="7.2351850">
        <ele>1715.8</ele>
        <time>2017-07-23T08:48:58Z</time>
      </trkpt>
      <trkpt lat="44.1997220" lon="7.2349410">
        <ele>1715.0</ele>
        <time>2017-07-23T08:49:04Z</time>
      </trkpt>
      <trkpt lat="44.1995930" lon="7.2346840">
        <ele>1714.8</ele>
        <time>2017-07-23T08:49:10Z</time>
      </trkpt>
      <trkpt lat="44.1995150" lon="7.2345450">
        <ele>1714.4</ele>
        <time>2017-07-23T08:49:13Z</time>
      </trkpt>
      <trkpt lat="44.1993880" lon="7.2342770">
        <ele>1713.8</ele>
        <time>2017-07-23T08:49:19Z</time>
      </trkpt>
      <trkpt lat="44.1992000" lon="7.2339060">
        <ele>1715.2</ele>
        <time>2017-07-23T08:49:27Z</time>
      </trkpt>
      <trkpt lat="44.1991740" lon="7.2338610">
        <ele>1715.4</ele>
        <time>2017-07-23T08:49:28Z</time>
      </trkpt>
      <trkpt lat="44.1990790" lon="7.2336270">
        <ele>1716.4</ele>
        <time>2017-07-23T08:49:33Z</time>
      </trkpt>
      <trkpt lat="44.1990590" lon="7.2335820">
        <ele>1716.6</ele>
        <time>2017-07-23T08:49:34Z</time>
      </trkpt>
      <trkpt lat="44.1990250" lon="7.2334870">
        <ele>1716.8</ele>
        <time>2017-07-23T08:49:36Z</time>
      </trkpt>
      <trkpt lat="44.1989030" lon="7.2331800">
        <ele>1717.6</ele>
        <time>2017-07-23T08:49:43Z</time>
      </trkpt>
      <trkpt lat="44.1988680" lon="7.2329960">
        <ele>1718.2</ele>
        <time>2017-07-23T08:49:47Z</time>
      </trkpt>
      <trkpt lat="44.1988730" lon="7.2329570">
        <ele>1718.2</ele>
        <time>2017-07-23T08:49:48Z</time>
      </trkpt>
      <trkpt lat="44.1989150" lon="7.2328940">
        <ele>1716.6</ele>
        <time>2017-07-23T08:55:45Z</time>
      </trkpt>
      <trkpt lat="44.1989260" lon="7.2328740">
        <ele>1716.4</ele>
        <time>2017-07-23T08:55:46Z</time>
      </trkpt>
      <trkpt lat="44.1989380" lon="7.2327910">
        <ele>1716.2</ele>
        <time>2017-07-23T08:55:53Z</time>
      </trkpt>
      <trkpt lat="44.1989090" lon="7.2326840">
        <ele>1715.8</ele>
        <time>2017-07-23T08:55:56Z</time>
      </trkpt>
      <trkpt lat="44.1988440" lon="7.2325400">
        <ele>1715.8</ele>
        <time>2017-07-23T08:55:59Z</time>
      </trkpt>
      <trkpt lat="44.1988350" lon="7.2324810">
        <ele>1715.6</ele>
        <time>2017-07-23T08:56:00Z</time>
      </trkpt>
      <trkpt lat="44.1988490" lon="7.2324210">
        <ele>1715.6</ele>
        <time>2017-07-23T08:56:01Z</time>
      </trkpt>
      <trkpt lat="44.1988970" lon="7.2324250">
        <ele>1715.8</ele>
        <time>2017-07-23T08:56:03Z</time>
      </trkpt>
      <trkpt lat="44.1989200" lon="7.2324250">
        <ele>1715.8</ele>
        <time>2017-07-23T08:56:04Z</time>
      </trkpt>
      <trkpt lat="44.1989860" lon="7.2324450">
        <ele>1716.0</ele>
        <time>2017-07-23T08:56:06Z</time>
      </trkpt>
      <trkpt lat="44.1990240" lon="7.2324600">
        <ele>1715.8</ele>
        <time>2017-07-23T08:56:07Z</time>
      </trkpt>
      <trkpt lat="44.1991030" lon="7.2323800">
        <ele>1715.8</ele>
        <time>2017-07-23T08:56:10Z</time>
      </trkpt>
      <trkpt lat="44.1992170" lon="7.2323300">
        <ele>1716.4</ele>
        <time>2017-07-23T08:56:14Z</time>
      </trkpt>
      <trkpt lat="44.1993190" lon="7.2323150">
        <ele>1716.4</ele>
        <time>2017-07-23T08:56:18Z</time>
      </trkpt>
      <trkpt lat="44.1993630" lon="7.2322760">
        <ele>1717.4</ele>
        <time>2017-07-23T08:56:21Z</time>
      </trkpt>
      <trkpt lat="44.1993810" lon="7.2322640">
        <ele>1717.6</ele>
        <time>2017-07-23T08:56:22Z</time>
      </trkpt>
      <trkpt lat="44.1994040" lon="7.2322430">
        <ele>1717.8</ele>
        <time>2017-07-23T08:56:23Z</time>
      </trkpt>
      <trkpt lat="44.1994360" lon="7.2322090">
        <ele>1718.4</ele>
        <time>2017-07-23T08:56:26Z</time>
      </trkpt>
      <trkpt lat="44.1994440" lon="7.2322160">
        <ele>1718.4</ele>
        <time>2017-07-23T08:56:27Z</time>
      </trkpt>
      <trkpt lat="44.1994540" lon="7.2322240">
        <ele>1718.4</ele>
        <time>2017-07-23T08:56:28Z</time>
      </trkpt>
      <trkpt lat="44.1994840" lon="7.2322320">
        <ele>1718.4</ele>
        <time>2017-07-23T08:56:32Z</time>
      </trkpt>
      <trkpt lat="44.1995170" lon="7.2322460">
        <ele>1718.2</ele>
        <time>2017-07-23T08:56:36Z</time>
      </trkpt>
      <trkpt lat="44.1995100" lon="7.2321760">
        <ele>1719.8</ele>
        <time>2017-07-23T08:56:53Z</time>
      </trkpt>
      <trkpt lat="44.1995060" lon="7.2321570">
        <ele>1719.8</ele>
        <time>2017-07-23T08:56:54Z</time>
      </trkpt>
      <trkpt lat="44.1994770" lon="7.2319970">
        <ele>1721.0</ele>
        <time>2017-07-23T08:57:01Z</time>
      </trkpt>
      <trkpt lat="44.1994560" lon="7.2319300">
        <ele>1722.2</ele>
        <time>2017-07-23T08:57:05Z</time>
      </trkpt>
      <trkpt lat="44.1994230" lon="7.2318540">
        <ele>1722.2</ele>
        <time>2017-07-23T08:57:08Z</time>
      </trkpt>
      <trkpt lat="44.1994010" lon="7.2318000">
        <ele>1722.2</ele>
        <time>2017-07-23T08:57:10Z</time>
      </trkpt>
      <trkpt lat="44.1993360" lon="7.2316970">
        <ele>1722.2</ele>
        <time>2017-07-23T08:57:15Z</time>
      </trkpt>
      <trkpt lat="44.1992020" lon="7.2315400">
        <ele>1722.0</ele>
        <time>2017-07-23T08:57:23Z</time>
      </trkpt>
      <trkpt lat="44.1991040" lon="7.2314430">
        <ele>1722.4</ele>
        <time>2017-07-23T08:57:28Z</time>
      </trkpt>
      <trkpt lat="44.1990670" lon="7.2313480">
        <ele>1723.4</ele>
        <time>2017-07-23T08:57:33Z</time>
      </trkpt>
      <trkpt lat="44.1990610" lon="7.2313160">
        <ele>1723.8</ele>
        <time>2017-07-23T08:57:34Z</time>
      </trkpt>
      <trkpt lat="44.1990510" lon="7.2312860">
        <ele>1724.0</ele>
        <time>2017-07-23T08:57:36Z</time>
      </trkpt>
      <trkpt lat="44.1990310" lon="7.2312540">
        <ele>1724.8</ele>
        <time>2017-07-23T08:57:38Z</time>
      </trkpt>
      <trkpt lat="44.1990040" lon="7.2311910">
        <ele>1726.2</ele>
        <time>2017-07-23T08:57:41Z</time>
      </trkpt>
      <trkpt lat="44.1989860" lon="7.2311260">
        <ele>1727.4</ele>
        <time>2017-07-23T08:57:44Z</time>
      </trkpt>
      <trkpt lat="44.1989240" lon="7.2310180">
        <ele>1728.6</ele>
        <time>2017-07-23T08:57:49Z</time>
      </trkpt>
      <trkpt lat="44.1989070" lon="7.2309650">
        <ele>1729.6</ele>
        <time>2017-07-23T08:57:51Z</time>
      </trkpt>
      <trkpt lat="44.1988730" lon="7.2308900">
        <ele>1730.8</ele>
        <time>2017-07-23T08:57:55Z</time>
      </trkpt>
      <trkpt lat="44.1988700" lon="7.2308600">
        <ele>1731.4</ele>
        <time>2017-07-23T08:57:56Z</time>
      </trkpt>
      <trkpt lat="44.1988770" lon="7.2308300">
        <ele>1731.8</ele>
        <time>2017-07-23T08:57:57Z</time>
      </trkpt>
      <trkpt lat="44.1988410" lon="7.2307590">
        <ele>1733.0</ele>
        <time>2017-07-23T08:58:00Z</time>
      </trkpt>
      <trkpt lat="44.1988150" lon="7.2307090">
        <ele>1733.4</ele>
        <time>2017-07-23T08:58:02Z</time>
      </trkpt>
      <trkpt lat="44.1987840" lon="7.2306200">
        <ele>1734.6</ele>
        <time>2017-07-23T08:58:05Z</time>
      </trkpt>
      <trkpt lat="44.1987280" lon="7.2304980">
        <ele>1735.2</ele>
        <time>2017-07-23T08:58:09Z</time>
      </trkpt>
      <trkpt lat="44.1986710" lon="7.2303950">
        <ele>1735.8</ele>
        <time>2017-07-23T08:58:13Z</time>
      </trkpt>
      <trkpt lat="44.1986490" lon="7.2303550">
        <ele>1736.0</ele>
        <time>2017-07-23T08:58:15Z</time>
      </trkpt>
      <trkpt lat="44.1986630" lon="7.2301880">
        <ele>1737.0</ele>
        <time>2017-07-23T08:58:22Z</time>
      </trkpt>
      <trkpt lat="44.1986180" lon="7.2300260">
        <ele>1737.8</ele>
        <time>2017-07-23T08:58:29Z</time>
      </trkpt>
      <trkpt lat="44.1986030" lon="7.2299840">
        <ele>1738.0</ele>
        <time>2017-07-23T08:58:31Z</time>
      </trkpt>
      <trkpt lat="44.1985940" lon="7.2299720">
        <ele>1738.0</ele>
        <time>2017-07-23T08:58:32Z</time>
      </trkpt>
      <trkpt lat="44.1985600" lon="7.2299460">
        <ele>1738.2</ele>
        <time>2017-07-23T08:58:34Z</time>
      </trkpt>
      <trkpt lat="44.1985390" lon="7.2298550">
        <ele>1739.0</ele>
        <time>2017-07-23T08:58:38Z</time>
      </trkpt>
      <trkpt lat="44.1985280" lon="7.2298350">
        <ele>1739.2</ele>
        <time>2017-07-23T08:58:39Z</time>
      </trkpt>
      <trkpt lat="44.1985060" lon="7.2297110">
        <ele>1740.6</ele>
        <time>2017-07-23T08:58:44Z</time>
      </trkpt>
      <trkpt lat="44.1985100" lon="7.2296860">
        <ele>1740.8</ele>
        <time>2017-07-23T08:58:45Z</time>
      </trkpt>
      <trkpt lat="44.1985030" lon="7.2296670">
        <ele>1741.2</ele>
        <time>2017-07-23T08:58:46Z</time>
      </trkpt>
      <trkpt lat="44.1984790" lon="7.2296110">
        <ele>1741.8</ele>
        <time>2017-07-23T08:58:48Z</time>
      </trkpt>
      <trkpt lat="44.1984780" lon="7.2295820">
        <ele>1742.2</ele>
        <time>2017-07-23T08:58:49Z</time>
      </trkpt>
      <trkpt lat="44.1984780" lon="7.2295080">
        <ele>1743.0</ele>
        <time>2017-07-23T08:58:51Z</time>
      </trkpt>
      <trkpt lat="44.1984750" lon="7.2294630">
        <ele>1743.4</ele>
        <time>2017-07-23T08:58:52Z</time>
      </trkpt>
      <trkpt lat="44.1984720" lon="7.2293590">
        <ele>1744.0</ele>
        <time>2017-07-23T08:58:54Z</time>
      </trkpt>
      <trkpt lat="44.1984740" lon="7.2293010">
        <ele>1744.2</ele>
        <time>2017-07-23T08:58:55Z</time>
      </trkpt>
      <trkpt lat="44.1984520" lon="7.2291690">
        <ele>1745.0</ele>
        <time>2017-07-23T08:58:58Z</time>
      </trkpt>
      <trkpt lat="44.1984320" lon="7.2290570">
        <ele>1745.8</ele>
        <time>2017-07-23T08:59:01Z</time>
      </trkpt>
      <trkpt lat="44.1984140" lon="7.2290130">
        <ele>1746.2</ele>
        <time>2017-07-23T08:59:02Z</time>
      </trkpt>
      <trkpt lat="44.1983740" lon="7.2288820">
        <ele>1746.6</ele>
        <time>2017-07-23T08:59:05Z</time>
      </trkpt>
      <trkpt lat="44.1983170" lon="7.2287270">
        <ele>1747.0</ele>
        <time>2017-07-23T08:59:08Z</time>
      </trkpt>
      <trkpt lat="44.1982910" lon="7.2286870">
        <ele>1747.2</ele>
        <time>2017-07-23T08:59:09Z</time>
      </trkpt>
      <trkpt lat="44.1982710" lon="7.2286320">
        <ele>1747.6</ele>
        <time>2017-07-23T08:59:10Z</time>
      </trkpt>
      <trkpt lat="44.1982010" lon="7.2285050">
        <ele>1748.2</ele>
        <time>2017-07-23T08:59:13Z</time>
      </trkpt>
      <trkpt lat="44.1981010" lon="7.2283820">
        <ele>1748.4</ele>
        <time>2017-07-23T08:59:16Z</time>
      </trkpt>
      <trkpt lat="44.1979860" lon="7.2280860">
        <ele>1747.6</ele>
        <time>2017-07-23T08:59:22Z</time>
      </trkpt>
      <trkpt lat="44.1979200" lon="7.2279240">
        <ele>1747.2</ele>
        <time>2017-07-23T08:59:26Z</time>
      </trkpt>
      <trkpt lat="44.1979070" lon="7.2278800">
        <ele>1747.0</ele>
        <time>2017-07-23T08:59:27Z</time>
      </trkpt>
      <trkpt lat="44.1978010" lon="7.2276850">
        <ele>1748.4</ele>
        <time>2017-07-23T08:59:33Z</time>
      </trkpt>
      <trkpt lat="44.1977360" lon="7.2275680">
        <ele>1749.4</ele>
        <time>2017-07-23T08:59:37Z</time>
      </trkpt>
      <trkpt lat="44.1977110" lon="7.2275000">
        <ele>1749.8</ele>
        <time>2017-07-23T08:59:39Z</time>
      </trkpt>
      <trkpt lat="44.1976730" lon="7.2274230">
        <ele>1750.6</ele>
        <time>2017-07-23T08:59:41Z</time>
      </trkpt>
      <trkpt lat="44.1976310" lon="7.2273080">
        <ele>1751.8</ele>
        <time>2017-07-23T08:59:44Z</time>
      </trkpt>
      <trkpt lat="44.1975470" lon="7.2270660">
        <ele>1752.4</ele>
        <time>2017-07-23T08:59:51Z</time>
      </trkpt>
      <trkpt lat="44.1975170" lon="7.2269940">
        <ele>1753.0</ele>
        <time>2017-07-23T08:59:53Z</time>
      </trkpt>
      <trkpt lat="44.1974550" lon="7.2267900">
        <ele>1754.0</ele>
        <time>2017-07-23T08:59:59Z</time>
      </trkpt>
      <trkpt lat="44.1974400" lon="7.2267610">
        <ele>1754.2</ele>
        <time>2017-07-23T09:00:00Z</time>
      </trkpt>
      <trkpt lat="44.1973710" lon="7.2265910">
        <ele>1754.8</ele>
        <time>2017-07-23T09:00:05Z</time>
      </trkpt>
      <trkpt lat="44.1972650" lon="7.2263330">
        <ele>1755.0</ele>
        <time>2017-07-23T09:00:13Z</time>
      </trkpt>
      <trkpt lat="44.1972490" lon="7.2262490">
        <ele>1755.4</ele>
        <time>2017-07-23T09:00:16Z</time>
      </trkpt>
      <trkpt lat="44.1972040" lon="7.2261390">
        <ele>1756.0</ele>
        <time>2017-07-23T09:00:20Z</time>
      </trkpt>
      <trkpt lat="44.1971560" lon="7.2260740">
        <ele>1756.4</ele>
        <time>2017-07-23T09:00:22Z</time>
      </trkpt>
      <trkpt lat="44.1970840" lon="7.2259660">
        <ele>1756.6</ele>
        <time>2017-07-23T09:00:26Z</time>
      </trkpt>
      <trkpt lat="44.1969580" lon="7.2257930">
        <ele>1757.0</ele>
        <time>2017-07-23T09:00:33Z</time>
      </trkpt>
      <trkpt lat="44.1968740" lon="7.2256870">
        <ele>1757.4</ele>
        <time>2017-07-23T09:00:37Z</time>
      </trkpt>
      <trkpt lat="44.1968090" lon="7.2256170">
        <ele>1758.4</ele>
        <time>2017-07-23T09:00:40Z</time>
      </trkpt>
      <trkpt lat="44.1967870" lon="7.2255910">
        <ele>1758.6</ele>
        <time>2017-07-23T09:00:41Z</time>
      </trkpt>
      <trkpt lat="44.1966730" lon="7.2255050">
        <ele>1759.4</ele>
        <time>2017-07-23T09:00:45Z</time>
      </trkpt>
      <trkpt lat="44.1966400" lon="7.2254480">
        <ele>1759.6</ele>
        <time>2017-07-23T09:00:47Z</time>
      </trkpt>
      <trkpt lat="44.1965530" lon="7.2253130">
        <ele>1761.0</ele>
        <time>2017-07-23T09:00:52Z</time>
      </trkpt>
      <trkpt lat="44.1964900" lon="7.2252430">
        <ele>1762.2</ele>
        <time>2017-07-23T09:00:55Z</time>
      </trkpt>
      <trkpt lat="44.1964190" lon="7.2251630">
        <ele>1763.2</ele>
        <time>2017-07-23T09:00:59Z</time>
      </trkpt>
      <trkpt lat="44.1963290" lon="7.2251040">
        <ele>1764.6</ele>
        <time>2017-07-23T09:01:02Z</time>
      </trkpt>
      <trkpt lat="44.1962720" lon="7.2250720">
        <ele>1765.4</ele>
        <time>2017-07-23T09:01:04Z</time>
      </trkpt>
      <trkpt lat="44.1962410" lon="7.2250600">
        <ele>1765.8</ele>
        <time>2017-07-23T09:01:05Z</time>
      </trkpt>
      <trkpt lat="44.1961420" lon="7.2250670">
        <ele>1766.6</ele>
        <time>2017-07-23T09:01:08Z</time>
      </trkpt>
      <trkpt lat="44.1961070" lon="7.2250900">
        <ele>1767.0</ele>
        <time>2017-07-23T09:01:09Z</time>
      </trkpt>
      <trkpt lat="44.1959280" lon="7.2251860">
        <ele>1767.8</ele>
        <time>2017-07-23T09:01:13Z</time>
      </trkpt>
      <trkpt lat="44.1958780" lon="7.2252250">
        <ele>1768.0</ele>
        <time>2017-07-23T09:01:14Z</time>
      </trkpt>
      <trkpt lat="44.1956250" lon="7.2253990">
        <ele>1768.0</ele>
        <time>2017-07-23T09:01:18Z</time>
      </trkpt>
      <trkpt lat="44.1954090" lon="7.2255260">
        <ele>1767.4</ele>
        <time>2017-07-23T09:01:21Z</time>
      </trkpt>
      <trkpt lat="44.1952530" lon="7.2256340">
        <ele>1766.8</ele>
        <time>2017-07-23T09:01:23Z</time>
      </trkpt>
      <trkpt lat="44.1949600" lon="7.2258090">
        <ele>1766.2</ele>
        <time>2017-07-23T09:01:27Z</time>
      </trkpt>
      <trkpt lat="44.1948260" lon="7.2258340">
        <ele>1766.0</ele>
        <time>2017-07-23T09:01:29Z</time>
      </trkpt>
      <trkpt lat="44.1946550" lon="7.2257850">
        <ele>1765.8</ele>
        <time>2017-07-23T09:01:32Z</time>
      </trkpt>
      <trkpt lat="44.1946140" lon="7.2258010">
        <ele>1766.0</ele>
        <time>2017-07-23T09:01:33Z</time>
      </trkpt>
      <trkpt lat="44.1945510" lon="7.2258130">
        <ele>1766.2</ele>
        <time>2017-07-23T09:01:35Z</time>
      </trkpt>
      <trkpt lat="44.1943730" lon="7.2258930">
        <ele>1765.6</ele>
        <time>2017-07-23T09:01:40Z</time>
      </trkpt>
      <trkpt lat="44.1941980" lon="7.2259590">
        <ele>1765.0</ele>
        <time>2017-07-23T09:01:44Z</time>
      </trkpt>
      <trkpt lat="44.1941590" lon="7.2259880">
        <ele>1765.0</ele>
        <time>2017-07-23T09:01:45Z</time>
      </trkpt>
      <trkpt lat="44.1939900" lon="7.2260740">
        <ele>1764.8</ele>
        <time>2017-07-23T09:01:50Z</time>
      </trkpt>
      <trkpt lat="44.1939220" lon="7.2260730">
        <ele>1762.8</ele>
        <time>2017-07-23T09:02:05Z</time>
      </trkpt>
      <trkpt lat="44.1939080" lon="7.2260760">
        <ele>1762.6</ele>
        <time>2017-07-23T09:02:06Z</time>
      </trkpt>
      <trkpt lat="44.1938520" lon="7.2260570">
        <ele>1762.2</ele>
        <time>2017-07-23T09:02:08Z</time>
      </trkpt>
      <trkpt lat="44.1937860" lon="7.2259310">
        <ele>1762.4</ele>
        <time>2017-07-23T09:02:12Z</time>
      </trkpt>
      <trkpt lat="44.1936880" lon="7.2256610">
        <ele>1763.2</ele>
        <time>2017-07-23T09:02:19Z</time>
      </trkpt>
      <trkpt lat="44.1936520" lon="7.2255890">
        <ele>1763.8</ele>
        <time>2017-07-23T09:02:21Z</time>
      </trkpt>
      <trkpt lat="44.1935560" lon="7.2253340">
        <ele>1765.0</ele>
        <time>2017-07-23T09:02:27Z</time>
      </trkpt>
      <trkpt lat="44.1935400" lon="7.2252810">
        <ele>1765.0</ele>
        <time>2017-07-23T09:02:28Z</time>
      </trkpt>
      <trkpt lat="44.1933700" lon="7.2249020">
        <ele>1766.0</ele>
        <time>2017-07-23T09:02:36Z</time>
      </trkpt>
      <trkpt lat="44.1931560" lon="7.2246830">
        <ele>1766.6</ele>
        <time>2017-07-23T09:02:42Z</time>
      </trkpt>
      <trkpt lat="44.1930770" lon="7.2246210">
        <ele>1766.6</ele>
        <time>2017-07-23T09:02:44Z</time>
      </trkpt>
      <trkpt lat="44.1929980" lon="7.2245540">
        <ele>1767.2</ele>
        <time>2017-07-23T09:02:46Z</time>
      </trkpt>
      <trkpt lat="44.1929150" lon="7.2244900">
        <ele>1767.6</ele>
        <time>2017-07-23T09:02:48Z</time>
      </trkpt>
      <trkpt lat="44.1927850" lon="7.2244080">
        <ele>1768.0</ele>
        <time>2017-07-23T09:02:51Z</time>
      </trkpt>
      <trkpt lat="44.1927430" lon="7.2243860">
        <ele>1768.6</ele>
        <time>2017-07-23T09:02:52Z</time>
      </trkpt>
      <trkpt lat="44.1926230" lon="7.2243340">
        <ele>1769.6</ele>
        <time>2017-07-23T09:02:55Z</time>
      </trkpt>
      <trkpt lat="44.1925120" lon="7.2243150">
        <ele>1770.6</ele>
        <time>2017-07-23T09:02:58Z</time>
      </trkpt>
      <trkpt lat="44.1924640" lon="7.2242860">
        <ele>1771.0</ele>
        <time>2017-07-23T09:03:00Z</time>
      </trkpt>
      <trkpt lat="44.1924090" lon="7.2242420">
        <ele>1771.8</ele>
        <time>2017-07-23T09:03:03Z</time>
      </trkpt>
      <trkpt lat="44.1923690" lon="7.2241830">
        <ele>1772.6</ele>
        <time>2017-07-23T09:03:05Z</time>
      </trkpt>
      <trkpt lat="44.1923490" lon="7.2241440">
        <ele>1773.0</ele>
        <time>2017-07-23T09:03:06Z</time>
      </trkpt>
      <trkpt lat="44.1922290" lon="7.2239180">
        <ele>1773.4</ele>
        <time>2017-07-23T09:03:13Z</time>
      </trkpt>
      <trkpt lat="44.1921700" lon="7.2237310">
        <ele>1774.0</ele>
        <time>2017-07-23T09:03:18Z</time>
      </trkpt>
      <trkpt lat="44.1921590" lon="7.2236970">
        <ele>1774.0</ele>
        <time>2017-07-23T09:03:19Z</time>
      </trkpt>
      <trkpt lat="44.1920920" lon="7.2234700">
        <ele>1774.4</ele>
        <time>2017-07-23T09:03:26Z</time>
      </trkpt>
      <trkpt lat="44.1920850" lon="7.2233830">
        <ele>1775.0</ele>
        <time>2017-07-23T09:03:29Z</time>
      </trkpt>
      <trkpt lat="44.1920760" lon="7.2233060">
        <ele>1775.4</ele>
        <time>2017-07-23T09:03:32Z</time>
      </trkpt>
      <trkpt lat="44.1920430" lon="7.2232760">
        <ele>1775.4</ele>
        <time>2017-07-23T09:03:34Z</time>
      </trkpt>
      <trkpt lat="44.1919330" lon="7.2233100">
        <ele>1775.8</ele>
        <time>2017-07-23T09:03:39Z</time>
      </trkpt>
      <trkpt lat="44.1918640" lon="7.2233300">
        <ele>1776.2</ele>
        <time>2017-07-23T09:03:42Z</time>
      </trkpt>
      <trkpt lat="44.1918350" lon="7.2233280">
        <ele>1776.4</ele>
        <time>2017-07-23T09:03:43Z</time>
      </trkpt>
      <trkpt lat="44.1917210" lon="7.2232610">
        <ele>1777.0</ele>
        <time>2017-07-23T09:03:48Z</time>
      </trkpt>
      <trkpt lat="44.1916450" lon="7.2232380">
        <ele>1777.2</ele>
        <time>2017-07-23T09:03:51Z</time>
      </trkpt>
      <trkpt lat="44.1915950" lon="7.2232540">
        <ele>1777.6</ele>
        <time>2017-07-23T09:03:53Z</time>
      </trkpt>
      <trkpt lat="44.1915330" lon="7.2232980">
        <ele>1778.6</ele>
        <time>2017-07-23T09:03:56Z</time>
      </trkpt>
      <trkpt lat="44.1915110" lon="7.2233130">
        <ele>1778.8</ele>
        <time>2017-07-23T09:03:57Z</time>
      </trkpt>
      <trkpt lat="44.1914850" lon="7.2233220">
        <ele>1779.2</ele>
        <time>2017-07-23T09:03:58Z</time>
      </trkpt>
      <trkpt lat="44.1914210" lon="7.2233230">
        <ele>1779.6</ele>
        <time>2017-07-23T09:04:00Z</time>
      </trkpt>
      <trkpt lat="44.1913630" lon="7.2233090">
        <ele>1780.6</ele>
        <time>2017-07-23T09:04:03Z</time>
      </trkpt>
      <trkpt lat="44.1913490" lon="7.2233050">
        <ele>1781.0</ele>
        <time>2017-07-23T09:04:04Z</time>
      </trkpt>
      <trkpt lat="44.1912990" lon="7.2231620">
        <ele>1785.4</ele>
        <time>2017-07-23T09:04:20Z</time>
      </trkpt>
      <trkpt lat="44.1912880" lon="7.2231410">
        <ele>1785.6</ele>
        <time>2017-07-23T09:04:21Z</time>
      </trkpt>
      <trkpt lat="44.1912430" lon="7.2230620">
        <ele>1785.8</ele>
        <time>2017-07-23T09:04:25Z</time>
      </trkpt>
      <trkpt lat="44.1912200" lon="7.2230270">
        <ele>1785.8</ele>
        <time>2017-07-23T09:04:27Z</time>
      </trkpt>
      <trkpt lat="44.1911380" lon="7.2229680">
        <ele>1786.4</ele>
        <time>2017-07-23T09:04:33Z</time>
      </trkpt>
      <trkpt lat="44.1910390" lon="7.2229770">
        <ele>1787.4</ele>
        <time>2017-07-23T09:04:39Z</time>
      </trkpt>
      <trkpt lat="44.1910210" lon="7.2229760">
        <ele>1787.6</ele>
        <time>2017-07-23T09:04:40Z</time>
      </trkpt>
      <trkpt lat="44.1909540" lon="7.2229680">
        <ele>1788.8</ele>
        <time>2017-07-23T09:04:44Z</time>
      </trkpt>
      <trkpt lat="44.1909170" lon="7.2229630">
        <ele>1789.2</ele>
        <time>2017-07-23T09:04:46Z</time>
      </trkpt>
      <trkpt lat="44.1908510" lon="7.2229420">
        <ele>1789.8</ele>
        <time>2017-07-23T09:04:50Z</time>
      </trkpt>
      <trkpt lat="44.1908240" lon="7.2229280">
        <ele>1790.2</ele>
        <time>2017-07-23T09:04:52Z</time>
      </trkpt>
      <trkpt lat="44.1907740" lon="7.2229170">
        <ele>1791.0</ele>
        <time>2017-07-23T09:04:55Z</time>
      </trkpt>
      <trkpt lat="44.1907110" lon="7.2228970">
        <ele>1791.8</ele>
        <time>2017-07-23T09:04:59Z</time>
      </trkpt>
      <trkpt lat="44.1907020" lon="7.2228830">
        <ele>1792.0</ele>
        <time>2017-07-23T09:05:00Z</time>
      </trkpt>
      <trkpt lat="44.1906920" lon="7.2228410">
        <ele>1792.6</ele>
        <time>2017-07-23T09:05:02Z</time>
      </trkpt>
      <trkpt lat="44.1906890" lon="7.2228080">
        <ele>1792.8</ele>
        <time>2017-07-23T09:05:04Z</time>
      </trkpt>
      <trkpt lat="44.1906830" lon="7.2227790">
        <ele>1793.2</ele>
        <time>2017-07-23T09:05:06Z</time>
      </trkpt>
      <trkpt lat="44.1906670" lon="7.2227540">
        <ele>1793.6</ele>
        <time>2017-07-23T09:05:08Z</time>
      </trkpt>
      <trkpt lat="44.1906390" lon="7.2227470">
        <ele>1794.6</ele>
        <time>2017-07-23T09:05:10Z</time>
      </trkpt>
      <trkpt lat="44.1906000" lon="7.2226700">
        <ele>1798.6</ele>
        <time>2017-07-23T09:05:21Z</time>
      </trkpt>
      <trkpt lat="44.1906090" lon="7.2226360">
        <ele>1799.2</ele>
        <time>2017-07-23T09:05:23Z</time>
      </trkpt>
      <trkpt lat="44.1906080" lon="7.2226150">
        <ele>1799.6</ele>
        <time>2017-07-23T09:05:24Z</time>
      </trkpt>
      <trkpt lat="44.1905840" lon="7.2225540">
        <ele>1800.0</ele>
        <time>2017-07-23T09:05:28Z</time>
      </trkpt>
      <trkpt lat="44.1905800" lon="7.2225410">
        <ele>1800.0</ele>
        <time>2017-07-23T09:05:29Z</time>
      </trkpt>
      <trkpt lat="44.1905740" lon="7.2225040">
        <ele>1800.8</ele>
        <time>2017-07-23T09:05:32Z</time>
      </trkpt>
      <trkpt lat="44.1905650" lon="7.2224690">
        <ele>1801.8</ele>
        <time>2017-07-23T09:05:35Z</time>
      </trkpt>
      <trkpt lat="44.1905570" lon="7.2224550">
        <ele>1802.0</ele>
        <time>2017-07-23T09:05:36Z</time>
      </trkpt>
      <trkpt lat="44.1905220" lon="7.2223990">
        <ele>1802.2</ele>
        <time>2017-07-23T09:05:41Z</time>
      </trkpt>
      <trkpt lat="44.1905100" lon="7.2223140">
        <ele>1802.8</ele>
        <time>2017-07-23T09:05:52Z</time>
      </trkpt>
      <trkpt lat="44.1905000" lon="7.2222960">
        <ele>1802.6</ele>
        <time>2017-07-23T09:05:53Z</time>
      </trkpt>
      <trkpt lat="44.1904820" lon="7.2222790">
        <ele>1802.6</ele>
        <time>2017-07-23T09:05:54Z</time>
      </trkpt>
      <trkpt lat="44.1903820" lon="7.2222040">
        <ele>1802.8</ele>
        <time>2017-07-23T09:06:00Z</time>
      </trkpt>
      <trkpt lat="44.1903660" lon="7.2221930">
        <ele>1803.0</ele>
        <time>2017-07-23T09:06:01Z</time>
      </trkpt>
      <trkpt lat="44.1903360" lon="7.2221490">
        <ele>1803.2</ele>
        <time>2017-07-23T09:06:04Z</time>
      </trkpt>
      <trkpt lat="44.1903260" lon="7.2221380">
        <ele>1803.4</ele>
        <time>2017-07-23T09:06:05Z</time>
      </trkpt>
      <trkpt lat="44.1903060" lon="7.2221140">
        <ele>1803.8</ele>
        <time>2017-07-23T09:06:07Z</time>
      </trkpt>
      <trkpt lat="44.1902910" lon="7.2221070">
        <ele>1804.0</ele>
        <time>2017-07-23T09:06:08Z</time>
      </trkpt>
      <trkpt lat="44.1902630" lon="7.2220960">
        <ele>1804.4</ele>
        <time>2017-07-23T09:06:10Z</time>
      </trkpt>
      <trkpt lat="44.1901980" lon="7.2221120">
        <ele>1805.0</ele>
        <time>2017-07-23T09:06:14Z</time>
      </trkpt>
      <trkpt lat="44.1901680" lon="7.2221200">
        <ele>1805.4</ele>
        <time>2017-07-23T09:06:16Z</time>
      </trkpt>
      <trkpt lat="44.1901560" lon="7.2221270">
        <ele>1805.6</ele>
        <time>2017-07-23T09:06:17Z</time>
      </trkpt>
      <trkpt lat="44.1901140" lon="7.2221480">
        <ele>1806.4</ele>
        <time>2017-07-23T09:06:20Z</time>
      </trkpt>
      <trkpt lat="44.1900610" lon="7.2221440">
        <ele>1807.0</ele>
        <time>2017-07-23T09:06:23Z</time>
      </trkpt>
      <trkpt lat="44.1900460" lon="7.2221240">
        <ele>1807.2</ele>
        <time>2017-07-23T09:06:24Z</time>
      </trkpt>
      <trkpt lat="44.1900410" lon="7.2220980">
        <ele>1807.4</ele>
        <time>2017-07-23T09:06:25Z</time>
      </trkpt>
      <trkpt lat="44.1900380" lon="7.2220780">
        <ele>1807.4</ele>
        <time>2017-07-23T09:06:26Z</time>
      </trkpt>
      <trkpt lat="44.1900350" lon="7.2220450">
        <ele>1808.0</ele>
        <time>2017-07-23T09:06:28Z</time>
      </trkpt>
      <trkpt lat="44.1900370" lon="7.2220310">
        <ele>1808.4</ele>
        <time>2017-07-23T09:06:29Z</time>
      </trkpt>
      <trkpt lat="44.1900440" lon="7.2220180">
        <ele>1809.0</ele>
        <time>2017-07-23T09:06:30Z</time>
      </trkpt>
      <trkpt lat="44.1900710" lon="7.2220040">
        <ele>1809.4</ele>
        <time>2017-07-23T09:06:32Z</time>
      </trkpt>
      <trkpt lat="44.1900870" lon="7.2219990">
        <ele>1809.6</ele>
        <time>2017-07-23T09:06:33Z</time>
      </trkpt>
      <trkpt lat="44.1901620" lon="7.2219990">
        <ele>1810.8</ele>
        <time>2017-07-23T09:06:37Z</time>
      </trkpt>
      <trkpt lat="44.1901830" lon="7.2219970">
        <ele>1811.0</ele>
        <time>2017-07-23T09:06:38Z</time>
      </trkpt>
      <trkpt lat="44.1902480" lon="7.2219770">
        <ele>1811.6</ele>
        <time>2017-07-23T09:06:41Z</time>
      </trkpt>
      <trkpt lat="44.1902720" lon="7.2219710">
        <ele>1811.8</ele>
        <time>2017-07-23T09:06:42Z</time>
      </trkpt>
      <trkpt lat="44.1903180" lon="7.2219710">
        <ele>1812.0</ele>
        <time>2017-07-23T09:06:44Z</time>
      </trkpt>
      <trkpt lat="44.1903900" lon="7.2219550">
        <ele>1812.8</ele>
        <time>2017-07-23T09:06:48Z</time>
      </trkpt>
      <trkpt lat="44.1904170" lon="7.2219540">
        <ele>1813.6</ele>
        <time>2017-07-23T09:06:50Z</time>
      </trkpt>
      <trkpt lat="44.1904350" lon="7.2219550">
        <ele>1814.0</ele>
        <time>2017-07-23T09:06:51Z</time>
      </trkpt>
      <trkpt lat="44.1904860" lon="7.2219510">
        <ele>1815.2</ele>
        <time>2017-07-23T09:06:54Z</time>
      </trkpt>
      <trkpt lat="44.1905460" lon="7.2219450">
        <ele>1816.2</ele>
        <time>2017-07-23T09:06:57Z</time>
      </trkpt>
      <trkpt lat="44.1906220" lon="7.2219020">
        <ele>1817.4</ele>
        <time>2017-07-23T09:07:01Z</time>
      </trkpt>
      <trkpt lat="44.1906280" lon="7.2218820">
        <ele>1817.8</ele>
        <time>2017-07-23T09:07:02Z</time>
      </trkpt>
      <trkpt lat="44.1906160" lon="7.2218380">
        <ele>1818.6</ele>
        <time>2017-07-23T09:07:04Z</time>
      </trkpt>
      <trkpt lat="44.1905850" lon="7.2217880">
        <ele>1819.4</ele>
        <time>2017-07-23T09:07:07Z</time>
      </trkpt>
      <trkpt lat="44.1905700" lon="7.2217820">
        <ele>1820.0</ele>
        <time>2017-07-23T09:07:08Z</time>
      </trkpt>
      <trkpt lat="44.1905120" lon="7.2217720">
        <ele>1821.0</ele>
        <time>2017-07-23T09:07:11Z</time>
      </trkpt>
      <trkpt lat="44.1904900" lon="7.2217680">
        <ele>1821.6</ele>
        <time>2017-07-23T09:07:12Z</time>
      </trkpt>
      <trkpt lat="44.1904440" lon="7.2217610">
        <ele>1822.6</ele>
        <time>2017-07-23T09:07:14Z</time>
      </trkpt>
      <trkpt lat="44.1903840" lon="7.2217400">
        <ele>1823.8</ele>
        <time>2017-07-23T09:07:17Z</time>
      </trkpt>
      <trkpt lat="44.1903460" lon="7.2217280">
        <ele>1825.0</ele>
        <time>2017-07-23T09:07:19Z</time>
      </trkpt>
      <trkpt lat="44.1902870" lon="7.2217110">
        <ele>1826.0</ele>
        <time>2017-07-23T09:07:22Z</time>
      </trkpt>
      <trkpt lat="44.1902660" lon="7.2217080">
        <ele>1826.6</ele>
        <time>2017-07-23T09:07:23Z</time>
      </trkpt>
      <trkpt lat="44.1902340" lon="7.2217010">
        <ele>1827.2</ele>
        <time>2017-07-23T09:07:25Z</time>
      </trkpt>
      <trkpt lat="44.1901600" lon="7.2217160">
        <ele>1827.4</ele>
        <time>2017-07-23T09:07:30Z</time>
      </trkpt>
      <trkpt lat="44.1900730" lon="7.2217040">
        <ele>1828.4</ele>
        <time>2017-07-23T09:07:35Z</time>
      </trkpt>
      <trkpt lat="44.1900430" lon="7.2216940">
        <ele>1829.2</ele>
        <time>2017-07-23T09:07:37Z</time>
      </trkpt>
      <trkpt lat="44.1900150" lon="7.2216860">
        <ele>1829.6</ele>
        <time>2017-07-23T09:07:39Z</time>
      </trkpt>
      <trkpt lat="44.1899490" lon="7.2216920">
        <ele>1830.0</ele>
        <time>2017-07-23T09:07:43Z</time>
      </trkpt>
      <trkpt lat="44.1898580" lon="7.2217150">
        <ele>1830.4</ele>
        <time>2017-07-23T09:07:48Z</time>
      </trkpt>
      <trkpt lat="44.1897400" lon="7.2217340">
        <ele>1830.2</ele>
        <time>2017-07-23T09:07:54Z</time>
      </trkpt>
      <trkpt lat="44.1896250" lon="7.2217470">
        <ele>1830.4</ele>
        <time>2017-07-23T09:08:00Z</time>
      </trkpt>
      <trkpt lat="44.1895670" lon="7.2217700">
        <ele>1830.6</ele>
        <time>2017-07-23T09:08:03Z</time>
      </trkpt>
      <trkpt lat="44.1895370" lon="7.2217730">
        <ele>1830.8</ele>
        <time>2017-07-23T09:08:05Z</time>
      </trkpt>
      <trkpt lat="44.1895200" lon="7.2217450">
        <ele>1830.8</ele>
        <time>2017-07-23T09:08:07Z</time>
      </trkpt>
      <trkpt lat="44.1895170" lon="7.2217110">
        <ele>1831.6</ele>
        <time>2017-07-23T09:08:09Z</time>
      </trkpt>
      <trkpt lat="44.1895210" lon="7.2216650">
        <ele>1832.8</ele>
        <time>2017-07-23T09:08:12Z</time>
      </trkpt>
      <trkpt lat="44.1895570" lon="7.2216320">
        <ele>1834.0</ele>
        <time>2017-07-23T09:08:16Z</time>
      </trkpt>
      <trkpt lat="44.1895820" lon="7.2216160">
        <ele>1834.6</ele>
        <time>2017-07-23T09:08:18Z</time>
      </trkpt>
      <trkpt lat="44.1896130" lon="7.2216040">
        <ele>1835.2</ele>
        <time>2017-07-23T09:08:20Z</time>
      </trkpt>
      <trkpt lat="44.1896610" lon="7.2215910">
        <ele>1835.8</ele>
        <time>2017-07-23T09:08:23Z</time>
      </trkpt>
      <trkpt lat="44.1896920" lon="7.2215770">
        <ele>1836.4</ele>
        <time>2017-07-23T09:08:25Z</time>
      </trkpt>
      <trkpt lat="44.1897410" lon="7.2215550">
        <ele>1837.4</ele>
        <time>2017-07-23T09:08:28Z</time>
      </trkpt>
      <trkpt lat="44.1897990" lon="7.2215310">
        <ele>1837.6</ele>
        <time>2017-07-23T09:08:31Z</time>
      </trkpt>
      <trkpt lat="44.1898980" lon="7.2214800">
        <ele>1838.4</ele>
        <time>2017-07-23T09:08:37Z</time>
      </trkpt>
      <trkpt lat="44.1899170" lon="7.2214720">
        <ele>1838.6</ele>
        <time>2017-07-23T09:08:38Z</time>
      </trkpt>
      <trkpt lat="44.1900110" lon="7.2214140">
        <ele>1839.0</ele>
        <time>2017-07-23T09:08:44Z</time>
      </trkpt>
      <trkpt lat="44.1900360" lon="7.2213970">
        <ele>1839.8</ele>
        <time>2017-07-23T09:08:46Z</time>
      </trkpt>
      <trkpt lat="44.1901000" lon="7.2213760">
        <ele>1840.8</ele>
        <time>2017-07-23T09:08:51Z</time>
      </trkpt>
      <trkpt lat="44.1901850" lon="7.2213260">
        <ele>1841.8</ele>
        <time>2017-07-23T09:08:57Z</time>
      </trkpt>
      <trkpt lat="44.1902090" lon="7.2213140">
        <ele>1842.2</ele>
        <time>2017-07-23T09:08:59Z</time>
      </trkpt>
      <trkpt lat="44.1902560" lon="7.2212990">
        <ele>1843.2</ele>
        <time>2017-07-23T09:09:02Z</time>
      </trkpt>
      <trkpt lat="44.1902740" lon="7.2212910">
        <ele>1843.6</ele>
        <time>2017-07-23T09:09:03Z</time>
      </trkpt>
      <trkpt lat="44.1903460" lon="7.2212490">
        <ele>1844.2</ele>
        <time>2017-07-23T09:09:07Z</time>
      </trkpt>
      <trkpt lat="44.1903750" lon="7.2212460">
        <ele>1845.4</ele>
        <time>2017-07-23T09:09:09Z</time>
      </trkpt>
      <trkpt lat="44.1903910" lon="7.2212460">
        <ele>1845.6</ele>
        <time>2017-07-23T09:09:10Z</time>
      </trkpt>
      <trkpt lat="44.1904240" lon="7.2212480">
        <ele>1846.0</ele>
        <time>2017-07-23T09:09:12Z</time>
      </trkpt>
      <trkpt lat="44.1904680" lon="7.2212400">
        <ele>1846.2</ele>
        <time>2017-07-23T09:09:15Z</time>
      </trkpt>
      <trkpt lat="44.1905030" lon="7.2211980">
        <ele>1846.4</ele>
        <time>2017-07-23T09:09:17Z</time>
      </trkpt>
      <trkpt lat="44.1904810" lon="7.2211410">
        <ele>1847.6</ele>
        <time>2017-07-23T09:09:21Z</time>
      </trkpt>
      <trkpt lat="44.1904260" lon="7.2211390">
        <ele>1848.8</ele>
        <time>2017-07-23T09:09:25Z</time>
      </trkpt>
      <trkpt lat="44.1903970" lon="7.2211470">
        <ele>1849.6</ele>
        <time>2017-07-23T09:09:27Z</time>
      </trkpt>
      <trkpt lat="44.1903800" lon="7.2211490">
        <ele>1850.0</ele>
        <time>2017-07-23T09:09:28Z</time>
      </trkpt>
      <trkpt lat="44.1903190" lon="7.2211420">
        <ele>1851.6</ele>
        <time>2017-07-23T09:09:32Z</time>
      </trkpt>
      <trkpt lat="44.1903100" lon="7.2211450">
        <ele>1852.2</ele>
        <time>2017-07-23T09:09:33Z</time>
      </trkpt>
      <trkpt lat="44.1902920" lon="7.2211440">
        <ele>1852.8</ele>
        <time>2017-07-23T09:09:35Z</time>
      </trkpt>
      <trkpt lat="44.1902780" lon="7.2211390">
        <ele>1853.0</ele>
        <time>2017-07-23T09:09:36Z</time>
      </trkpt>
      <trkpt lat="44.1902510" lon="7.2211250">
        <ele>1854.0</ele>
        <time>2017-07-23T09:09:38Z</time>
      </trkpt>
      <trkpt lat="44.1902360" lon="7.2211180">
        <ele>1854.4</ele>
        <time>2017-07-23T09:09:39Z</time>
      </trkpt>
      <trkpt lat="44.1901880" lon="7.2210930">
        <ele>1855.4</ele>
        <time>2017-07-23T09:09:42Z</time>
      </trkpt>
      <trkpt lat="44.1901320" lon="7.2210800">
        <ele>1856.4</ele>
        <time>2017-07-23T09:09:46Z</time>
      </trkpt>
      <trkpt lat="44.1900460" lon="7.2210660">
        <ele>1857.4</ele>
        <time>2017-07-23T09:09:51Z</time>
      </trkpt>
      <trkpt lat="44.1900140" lon="7.2210570">
        <ele>1857.2</ele>
        <time>2017-07-23T09:09:53Z</time>
      </trkpt>
      <trkpt lat="44.1898940" lon="7.2210410">
        <ele>1856.8</ele>
        <time>2017-07-23T09:09:59Z</time>
      </trkpt>
      <trkpt lat="44.1898390" lon="7.2210370">
        <ele>1856.4</ele>
        <time>2017-07-23T09:10:02Z</time>
      </trkpt>
      <trkpt lat="44.1898290" lon="7.2210200">
        <ele>1856.4</ele>
        <time>2017-07-23T09:10:03Z</time>
      </trkpt>
      <trkpt lat="44.1898250" lon="7.2210050">
        <ele>1856.4</ele>
        <time>2017-07-23T09:10:04Z</time>
      </trkpt>
      <trkpt lat="44.1903350" lon="7.2207830">
        <ele>1869.4</ele>
        <time>2017-07-23T09:10:57Z</time>
      </trkpt>
      <trkpt lat="44.1903700" lon="7.2207490">
        <ele>1869.8</ele>
        <time>2017-07-23T09:10:59Z</time>
      </trkpt>
      <trkpt lat="44.1903550" lon="7.2206940">
        <ele>1870.6</ele>
        <time>2017-07-23T09:11:04Z</time>
      </trkpt>
      <trkpt lat="44.1903450" lon="7.2206940">
        <ele>1870.8</ele>
        <time>2017-07-23T09:11:05Z</time>
      </trkpt>
      <trkpt lat="44.1903130" lon="7.2207100">
        <ele>1871.8</ele>
        <time>2017-07-23T09:11:10Z</time>
      </trkpt>
      <trkpt lat="44.1902940" lon="7.2207160">
        <ele>1872.2</ele>
        <time>2017-07-23T09:11:12Z</time>
      </trkpt>
      <trkpt lat="44.1902490" lon="7.2207240">
        <ele>1873.0</ele>
        <time>2017-07-23T09:11:15Z</time>
      </trkpt>
      <trkpt lat="44.1902140" lon="7.2207190">
        <ele>1873.6</ele>
        <time>2017-07-23T09:11:18Z</time>
      </trkpt>
      <trkpt lat="44.1901880" lon="7.2207090">
        <ele>1874.2</ele>
        <time>2017-07-23T09:11:20Z</time>
      </trkpt>
      <trkpt lat="44.1901490" lon="7.2206890">
        <ele>1875.2</ele>
        <time>2017-07-23T09:11:23Z</time>
      </trkpt>
      <trkpt lat="44.1901370" lon="7.2206810">
        <ele>1875.4</ele>
        <time>2017-07-23T09:11:24Z</time>
      </trkpt>
      <trkpt lat="44.1900850" lon="7.2206610">
        <ele>1876.4</ele>
        <time>2017-07-23T09:11:28Z</time>
      </trkpt>
      <trkpt lat="44.1900600" lon="7.2206510">
        <ele>1876.8</ele>
        <time>2017-07-23T09:11:30Z</time>
      </trkpt>
      <trkpt lat="44.1903830" lon="7.2204800">
        <ele>1886.0</ele>
        <time>2017-07-23T09:12:12Z</time>
      </trkpt>
      <trkpt lat="44.1903970" lon="7.2204690">
        <ele>1886.0</ele>
        <time>2017-07-23T09:12:13Z</time>
      </trkpt>
      <trkpt lat="44.1904630" lon="7.2204180">
        <ele>1885.8</ele>
        <time>2017-07-23T09:12:18Z</time>
      </trkpt>
      <trkpt lat="44.1904720" lon="7.2204010">
        <ele>1885.8</ele>
        <time>2017-07-23T09:12:19Z</time>
      </trkpt>
      <trkpt lat="44.1904770" lon="7.2203840">
        <ele>1886.0</ele>
        <time>2017-07-23T09:12:20Z</time>
      </trkpt>
      <trkpt lat="44.1904790" lon="7.2203300">
        <ele>1885.6</ele>
        <time>2017-07-23T09:12:23Z</time>
      </trkpt>
      <trkpt lat="44.1904750" lon="7.2203120">
        <ele>1885.6</ele>
        <time>2017-07-23T09:12:24Z</time>
      </trkpt>
      <trkpt lat="44.1904410" lon="7.2201890">
        <ele>1885.8</ele>
        <time>2017-07-23T09:12:31Z</time>
      </trkpt>
      <trkpt lat="44.1904400" lon="7.2200990">
        <ele>1886.2</ele>
        <time>2017-07-23T09:12:36Z</time>
      </trkpt>
      <trkpt lat="44.1904460" lon="7.2200650">
        <ele>1886.6</ele>
        <time>2017-07-23T09:12:38Z</time>
      </trkpt>
      <trkpt lat="44.1904500" lon="7.2200540">
        <ele>1887.0</ele>
        <time>2017-07-23T09:12:39Z</time>
      </trkpt>
      <trkpt lat="44.1904720" lon="7.2200150">
        <ele>1888.0</ele>
        <time>2017-07-23T09:12:42Z</time>
      </trkpt>
      <trkpt lat="44.1904860" lon="7.2200080">
        <ele>1888.0</ele>
        <time>2017-07-23T09:12:43Z</time>
      </trkpt>
      <trkpt lat="44.1904990" lon="7.2200020">
        <ele>1888.4</ele>
        <time>2017-07-23T09:12:44Z</time>
      </trkpt>
      <trkpt lat="44.1905270" lon="7.2199860">
        <ele>1888.8</ele>
        <time>2017-07-23T09:12:46Z</time>
      </trkpt>
      <trkpt lat="44.1905400" lon="7.2199770">
        <ele>1889.0</ele>
        <time>2017-07-23T09:12:47Z</time>
      </trkpt>
      <trkpt lat="44.1906210" lon="7.2199330">
        <ele>1889.8</ele>
        <time>2017-07-23T09:12:52Z</time>
      </trkpt>
      <trkpt lat="44.1906360" lon="7.2199300">
        <ele>1890.0</ele>
        <time>2017-07-23T09:12:53Z</time>
      </trkpt>
      <trkpt lat="44.1906470" lon="7.2199230">
        <ele>1890.4</ele>
        <time>2017-07-23T09:12:54Z</time>
      </trkpt>
      <trkpt lat="44.1906730" lon="7.2199040">
        <ele>1891.2</ele>
        <time>2017-07-23T09:12:56Z</time>
      </trkpt>
      <trkpt lat="44.1906860" lon="7.2198960">
        <ele>1891.6</ele>
        <time>2017-07-23T09:12:57Z</time>
      </trkpt>
      <trkpt lat="44.1907140" lon="7.2198850">
        <ele>1892.0</ele>
        <time>2017-07-23T09:12:59Z</time>
      </trkpt>
      <trkpt lat="44.1907450" lon="7.2198710">
        <ele>1892.6</ele>
        <time>2017-07-23T09:13:01Z</time>
      </trkpt>
      <trkpt lat="44.1907760" lon="7.2198620">
        <ele>1893.6</ele>
        <time>2017-07-23T09:13:03Z</time>
      </trkpt>
      <trkpt lat="44.1908030" lon="7.2198460">
        <ele>1894.2</ele>
        <time>2017-07-23T09:13:05Z</time>
      </trkpt>
      <trkpt lat="44.1908410" lon="7.2198120">
        <ele>1895.2</ele>
        <time>2017-07-23T09:13:08Z</time>
      </trkpt>
      <trkpt lat="44.1908510" lon="7.2197670">
        <ele>1895.6</ele>
        <time>2017-07-23T09:13:11Z</time>
      </trkpt>
      <trkpt lat="44.1908390" lon="7.2197360">
        <ele>1896.4</ele>
        <time>2017-07-23T09:13:16Z</time>
      </trkpt>
      <trkpt lat="44.1908400" lon="7.2197300">
        <ele>1896.4</ele>
        <time>2017-07-23T09:13:17Z</time>
      </trkpt>
      <trkpt lat="44.1908370" lon="7.2197260">
        <ele>1896.4</ele>
        <time>2017-07-23T09:13:18Z</time>
      </trkpt>
      <trkpt lat="44.1907760" lon="7.2197280">
        <ele>1895.8</ele>
        <time>2017-07-23T09:13:23Z</time>
      </trkpt>
      <trkpt lat="44.1907670" lon="7.2197320">
        <ele>1895.6</ele>
        <time>2017-07-23T09:13:24Z</time>
      </trkpt>
      <trkpt lat="44.1907020" lon="7.2197380">
        <ele>1895.4</ele>
        <time>2017-07-23T09:13:36Z</time>
      </trkpt>
      <trkpt lat="44.1906710" lon="7.2197360">
        <ele>1895.2</ele>
        <time>2017-07-23T09:13:38Z</time>
      </trkpt>
      <trkpt lat="44.1906140" lon="7.2197290">
        <ele>1895.4</ele>
        <time>2017-07-23T09:13:41Z</time>
      </trkpt>
      <trkpt lat="44.1905600" lon="7.2197220">
        <ele>1896.2</ele>
        <time>2017-07-23T09:13:44Z</time>
      </trkpt>
      <trkpt lat="44.1905440" lon="7.2197210">
        <ele>1896.6</ele>
        <time>2017-07-23T09:13:45Z</time>
      </trkpt>
      <trkpt lat="44.1904830" lon="7.2197380">
        <ele>1897.4</ele>
        <time>2017-07-23T09:13:49Z</time>
      </trkpt>
      <trkpt lat="44.1904710" lon="7.2197420">
        <ele>1897.8</ele>
        <time>2017-07-23T09:13:50Z</time>
      </trkpt>
      <trkpt lat="44.1904290" lon="7.2197650">
        <ele>1898.8</ele>
        <time>2017-07-23T09:13:53Z</time>
      </trkpt>
      <trkpt lat="44.1904020" lon="7.2197780">
        <ele>1899.4</ele>
        <time>2017-07-23T09:13:55Z</time>
      </trkpt>
      <trkpt lat="44.1903870" lon="7.2197820">
        <ele>1900.4</ele>
        <time>2017-07-23T09:13:56Z</time>
      </trkpt>
      <trkpt lat="44.1903560" lon="7.2197810">
        <ele>1901.6</ele>
        <time>2017-07-23T09:13:58Z</time>
      </trkpt>
      <trkpt lat="44.1903200" lon="7.2197810">
        <ele>1902.8</ele>
        <time>2017-07-23T09:14:01Z</time>
      </trkpt>
      <trkpt lat="44.1902680" lon="7.2197930">
        <ele>1904.0</ele>
        <time>2017-07-23T09:14:05Z</time>
      </trkpt>
      <trkpt lat="44.1902150" lon="7.2198300">
        <ele>1904.6</ele>
        <time>2017-07-23T09:14:09Z</time>
      </trkpt>
      <trkpt lat="44.1901840" lon="7.2198460">
        <ele>1905.2</ele>
        <time>2017-07-23T09:14:11Z</time>
      </trkpt>
      <trkpt lat="44.1901030" lon="7.2198440">
        <ele>1905.6</ele>
        <time>2017-07-23T09:14:16Z</time>
      </trkpt>
      <trkpt lat="44.1900680" lon="7.2198490">
        <ele>1906.2</ele>
        <time>2017-07-23T09:14:19Z</time>
      </trkpt>
      <trkpt lat="44.1900340" lon="7.2198590">
        <ele>1906.6</ele>
        <time>2017-07-23T09:14:22Z</time>
      </trkpt>
      <trkpt lat="44.1900240" lon="7.2198700">
        <ele>1907.0</ele>
        <time>2017-07-23T09:14:23Z</time>
      </trkpt>
      <trkpt lat="44.1900140" lon="7.2198850">
        <ele>1907.2</ele>
        <time>2017-07-23T09:14:24Z</time>
      </trkpt>
      <trkpt lat="44.1899920" lon="7.2199030">
        <ele>1908.0</ele>
        <time>2017-07-23T09:14:26Z</time>
      </trkpt>
      <trkpt lat="44.1899840" lon="7.2199140">
        <ele>1908.4</ele>
        <time>2017-07-23T09:14:27Z</time>
      </trkpt>
      <trkpt lat="44.1899670" lon="7.2199310">
        <ele>1908.8</ele>
        <time>2017-07-23T09:14:29Z</time>
      </trkpt>
      <trkpt lat="44.1899480" lon="7.2199560">
        <ele>1909.6</ele>
        <time>2017-07-23T09:14:31Z</time>
      </trkpt>
      <trkpt lat="44.1899340" lon="7.2199800">
        <ele>1910.6</ele>
        <time>2017-07-23T09:14:33Z</time>
      </trkpt>
      <trkpt lat="44.1899160" lon="7.2199960">
        <ele>1911.0</ele>
        <time>2017-07-23T09:14:35Z</time>
      </trkpt>
      <trkpt lat="44.1898580" lon="7.2200080">
        <ele>1912.2</ele>
        <time>2017-07-23T09:14:40Z</time>
      </trkpt>
      <trkpt lat="44.1898280" lon="7.2200110">
        <ele>1913.0</ele>
        <time>2017-07-23T09:14:42Z</time>
      </trkpt>
      <trkpt lat="44.1898150" lon="7.2200090">
        <ele>1913.4</ele>
        <time>2017-07-23T09:14:43Z</time>
      </trkpt>
      <trkpt lat="44.1898010" lon="7.2200080">
        <ele>1914.0</ele>
        <time>2017-07-23T09:14:44Z</time>
      </trkpt>
      <trkpt lat="44.1897380" lon="7.2200090">
        <ele>1915.2</ele>
        <time>2017-07-23T09:14:48Z</time>
      </trkpt>
      <trkpt lat="44.1897100" lon="7.2200130">
        <ele>1915.8</ele>
        <time>2017-07-23T09:14:50Z</time>
      </trkpt>
      <trkpt lat="44.1896940" lon="7.2200190">
        <ele>1916.2</ele>
        <time>2017-07-23T09:14:51Z</time>
      </trkpt>
      <trkpt lat="44.1896250" lon="7.2200160">
        <ele>1917.2</ele>
        <time>2017-07-23T09:14:57Z</time>
      </trkpt>
      <trkpt lat="44.1896140" lon="7.2200050">
        <ele>1917.2</ele>
        <time>2017-07-23T09:14:58Z</time>
      </trkpt>
      <trkpt lat="44.1896210" lon="7.2199100">
        <ele>1917.8</ele>
        <time>2017-07-23T09:15:20Z</time>
      </trkpt>
      <trkpt lat="44.1896420" lon="7.2198940">
        <ele>1918.6</ele>
        <time>2017-07-23T09:15:22Z</time>
      </trkpt>
      <trkpt lat="44.1897110" lon="7.2198650">
        <ele>1919.2</ele>
        <time>2017-07-23T09:15:27Z</time>
      </trkpt>
      <trkpt lat="44.1897480" lon="7.2198170">
        <ele>1920.0</ele>
        <time>2017-07-23T09:15:30Z</time>
      </trkpt>
      <trkpt lat="44.1897730" lon="7.2197650">
        <ele>1921.0</ele>
        <time>2017-07-23T09:15:33Z</time>
      </trkpt>
      <trkpt lat="44.1898010" lon="7.2197230">
        <ele>1922.0</ele>
        <time>2017-07-23T09:15:36Z</time>
      </trkpt>
      <trkpt lat="44.1898620" lon="7.2195840">
        <ele>1924.8</ele>
        <time>2017-07-23T09:15:44Z</time>
      </trkpt>
      <trkpt lat="44.1898880" lon="7.2195310">
        <ele>1926.0</ele>
        <time>2017-07-23T09:15:47Z</time>
      </trkpt>
      <trkpt lat="44.1899010" lon="7.2195000">
        <ele>1926.6</ele>
        <time>2017-07-23T09:15:49Z</time>
      </trkpt>
      <trkpt lat="44.1899150" lon="7.2194650">
        <ele>1927.2</ele>
        <time>2017-07-23T09:15:51Z</time>
      </trkpt>
      <trkpt lat="44.1899280" lon="7.2194040">
        <ele>1928.4</ele>
        <time>2017-07-23T09:15:54Z</time>
      </trkpt>
      <trkpt lat="44.1899340" lon="7.2193850">
        <ele>1929.0</ele>
        <time>2017-07-23T09:15:55Z</time>
      </trkpt>
      <trkpt lat="44.1899440" lon="7.2193470">
        <ele>1930.0</ele>
        <time>2017-07-23T09:15:57Z</time>
      </trkpt>
      <trkpt lat="44.1899770" lon="7.2192960">
        <ele>1930.6</ele>
        <time>2017-07-23T09:16:01Z</time>
      </trkpt>
      <trkpt lat="44.1900060" lon="7.2192690">
        <ele>1930.8</ele>
        <time>2017-07-23T09:16:03Z</time>
      </trkpt>
      <trkpt lat="44.1900180" lon="7.2192580">
        <ele>1931.0</ele>
        <time>2017-07-23T09:16:04Z</time>
      </trkpt>
      <trkpt lat="44.1900820" lon="7.2192060">
        <ele>1931.6</ele>
        <time>2017-07-23T09:16:11Z</time>
      </trkpt>
      <trkpt lat="44.1900930" lon="7.2191990">
        <ele>1931.6</ele>
        <time>2017-07-23T09:16:12Z</time>
      </trkpt>
      <trkpt lat="44.1901740" lon="7.2191270">
        <ele>1931.8</ele>
        <time>2017-07-23T09:16:21Z</time>
      </trkpt>
      <trkpt lat="44.1901800" lon="7.2191150">
        <ele>1932.2</ele>
        <time>2017-07-23T09:16:22Z</time>
      </trkpt>
      <trkpt lat="44.1904330" lon="7.2189060">
        <ele>1934.8</ele>
        <time>2017-07-23T09:16:53Z</time>
      </trkpt>
      <trkpt lat="44.1904410" lon="7.2188990">
        <ele>1934.8</ele>
        <time>2017-07-23T09:16:54Z</time>
      </trkpt>
      <trkpt lat="44.1904610" lon="7.2188830">
        <ele>1935.0</ele>
        <time>2017-07-23T09:16:56Z</time>
      </trkpt>
      <trkpt lat="44.1905310" lon="7.2188240">
        <ele>1935.6</ele>
        <time>2017-07-23T09:17:03Z</time>
      </trkpt>
      <trkpt lat="44.1908310" lon="7.2185210">
        <ele>1943.8</ele>
        <time>2017-07-23T09:17:43Z</time>
      </trkpt>
      <trkpt lat="44.1908590" lon="7.2185040">
        <ele>1944.2</ele>
        <time>2017-07-23T09:17:45Z</time>
      </trkpt>
      <trkpt lat="44.1915240" lon="7.2183510">
        <ele>1950.8</ele>
        <time>2017-07-23T09:18:56Z</time>
      </trkpt>
      <trkpt lat="44.1915400" lon="7.2183540">
        <ele>1951.0</ele>
        <time>2017-07-23T09:18:57Z</time>
      </trkpt>
      <trkpt lat="44.1915800" lon="7.2183440">
        <ele>1951.2</ele>
        <time>2017-07-23T09:19:00Z</time>
      </trkpt>
      <trkpt lat="44.1916430" lon="7.2183360">
        <ele>1951.6</ele>
        <time>2017-07-23T09:19:04Z</time>
      </trkpt>
      <trkpt lat="44.1916760" lon="7.2183340">
        <ele>1952.0</ele>
        <time>2017-07-23T09:19:06Z</time>
      </trkpt>
      <trkpt lat="44.1917510" lon="7.2183390">
        <ele>1953.2</ele>
        <time>2017-07-23T09:19:10Z</time>
      </trkpt>
      <trkpt lat="44.1918340" lon="7.2183640">
        <ele>1954.2</ele>
        <time>2017-07-23T09:19:14Z</time>
      </trkpt>
      <trkpt lat="44.1918870" lon="7.2183910">
        <ele>1955.2</ele>
        <time>2017-07-23T09:19:17Z</time>
      </trkpt>
      <trkpt lat="44.1919060" lon="7.2183900">
        <ele>1955.4</ele>
        <time>2017-07-23T09:19:18Z</time>
      </trkpt>
      <trkpt lat="44.1919740" lon="7.2184120">
        <ele>1956.0</ele>
        <time>2017-07-23T09:19:22Z</time>
      </trkpt>
      <trkpt lat="44.1920240" lon="7.2184320">
        <ele>1956.6</ele>
        <time>2017-07-23T09:19:25Z</time>
      </trkpt>
      <trkpt lat="44.1920970" lon="7.2184890">
        <ele>1957.8</ele>
        <time>2017-07-23T09:19:29Z</time>
      </trkpt>
      <trkpt lat="44.1921120" lon="7.2185070">
        <ele>1957.8</ele>
        <time>2017-07-23T09:19:30Z</time>
      </trkpt>
      <trkpt lat="44.1921830" lon="7.2185580">
        <ele>1959.0</ele>
        <time>2017-07-23T09:19:34Z</time>
      </trkpt>
      <trkpt lat="44.1922540" lon="7.2185820">
        <ele>1959.8</ele>
        <time>2017-07-23T09:19:38Z</time>
      </trkpt>
      <trkpt lat="44.1923030" lon="7.2185780">
        <ele>1960.2</ele>
        <time>2017-07-23T09:19:40Z</time>
      </trkpt>
      <trkpt lat="44.1923900" lon="7.2185460">
        <ele>1961.6</ele>
        <time>2017-07-23T09:19:44Z</time>
      </trkpt>
      <trkpt lat="44.1924600" lon="7.2184710">
        <ele>1962.6</ele>
        <time>2017-07-23T09:19:47Z</time>
      </trkpt>
      <trkpt lat="44.1924790" lon="7.2184400">
        <ele>1963.2</ele>
        <time>2017-07-23T09:19:48Z</time>
      </trkpt>
      <trkpt lat="44.1924990" lon="7.2184230">
        <ele>1963.8</ele>
        <time>2017-07-23T09:19:49Z</time>
      </trkpt>
      <trkpt lat="44.1925740" lon="7.2184090">
        <ele>1964.4</ele>
        <time>2017-07-23T09:19:52Z</time>
      </trkpt>
      <trkpt lat="44.1926330" lon="7.2184360">
        <ele>1965.0</ele>
        <time>2017-07-23T09:19:54Z</time>
      </trkpt>
      <trkpt lat="44.1926630" lon="7.2184470">
        <ele>1965.0</ele>
        <time>2017-07-23T09:19:55Z</time>
      </trkpt>
      <trkpt lat="44.1927290" lon="7.2184630">
        <ele>1965.6</ele>
        <time>2017-07-23T09:19:57Z</time>
      </trkpt>
      <trkpt lat="44.1928050" lon="7.2184660">
        <ele>1966.0</ele>
        <time>2017-07-23T09:19:59Z</time>
      </trkpt>
      <trkpt lat="44.1929390" lon="7.2184500">
        <ele>1967.0</ele>
        <time>2017-07-23T09:20:03Z</time>
      </trkpt>
      <trkpt lat="44.1929710" lon="7.2184470">
        <ele>1967.2</ele>
        <time>2017-07-23T09:20:04Z</time>
      </trkpt>
      <trkpt lat="44.1931090" lon="7.2184280">
        <ele>1968.0</ele>
        <time>2017-07-23T09:20:09Z</time>
      </trkpt>
      <trkpt lat="44.1931380" lon="7.2184310">
        <ele>1968.4</ele>
        <time>2017-07-23T09:20:10Z</time>
      </trkpt>
      <trkpt lat="44.1932640" lon="7.2184340">
        <ele>1969.6</ele>
        <time>2017-07-23T09:20:14Z</time>
      </trkpt>
      <trkpt lat="44.1932950" lon="7.2184340">
        <ele>1969.6</ele>
        <time>2017-07-23T09:20:15Z</time>
      </trkpt>
      <trkpt lat="44.1934980" lon="7.2184140">
        <ele>1970.2</ele>
        <time>2017-07-23T09:20:22Z</time>
      </trkpt>
      <trkpt lat="44.1936440" lon="7.2184620">
        <ele>1970.4</ele>
        <time>2017-07-23T09:20:27Z</time>
      </trkpt>
      <trkpt lat="44.1936760" lon="7.2185270">
        <ele>1970.8</ele>
        <time>2017-07-23T09:20:29Z</time>
      </trkpt>
      <trkpt lat="44.1937330" lon="7.2185760">
        <ele>1971.0</ele>
        <time>2017-07-23T09:20:32Z</time>
      </trkpt>
      <trkpt lat="44.1937940" lon="7.2185450">
        <ele>1972.0</ele>
        <time>2017-07-23T09:20:35Z</time>
      </trkpt>
      <trkpt lat="44.1938290" lon="7.2185320">
        <ele>1972.4</ele>
        <time>2017-07-23T09:20:37Z</time>
      </trkpt>
      <trkpt lat="44.1938590" lon="7.2185180">
        <ele>1973.0</ele>
        <time>2017-07-23T09:20:39Z</time>
      </trkpt>
      <trkpt lat="44.1938800" lon="7.2184960">
        <ele>1973.6</ele>
        <time>2017-07-23T09:20:41Z</time>
      </trkpt>
      <trkpt lat="44.1939100" lon="7.2184750">
        <ele>1974.2</ele>
        <time>2017-07-23T09:20:43Z</time>
      </trkpt>
      <trkpt lat="44.1939630" lon="7.2184440">
        <ele>1975.2</ele>
        <time>2017-07-23T09:20:46Z</time>
      </trkpt>
      <trkpt lat="44.1940070" lon="7.2184180">
        <ele>1975.8</ele>
        <time>2017-07-23T09:20:49Z</time>
      </trkpt>
      <trkpt lat="44.1941140" lon="7.2183740">
        <ele>1976.2</ele>
        <time>2017-07-23T09:20:56Z</time>
      </trkpt>
      <trkpt lat="44.1941290" lon="7.2183760">
        <ele>1976.4</ele>
        <time>2017-07-23T09:20:57Z</time>
      </trkpt>
      <trkpt lat="44.1942140" lon="7.2183930">
        <ele>1976.2</ele>
        <time>2017-07-23T09:21:03Z</time>
      </trkpt>
      <trkpt lat="44.1943200" lon="7.2184180">
        <ele>1977.4</ele>
        <time>2017-07-23T09:21:09Z</time>
      </trkpt>
      <trkpt lat="44.1943360" lon="7.2184230">
        <ele>1977.6</ele>
        <time>2017-07-23T09:21:10Z</time>
      </trkpt>
      <trkpt lat="44.1944380" lon="7.2184660">
        <ele>1978.6</ele>
        <time>2017-07-23T09:21:17Z</time>
      </trkpt>
      <trkpt lat="44.1945040" lon="7.2184890">
        <ele>1979.4</ele>
        <time>2017-07-23T09:21:23Z</time>
      </trkpt>
      <trkpt lat="44.1945450" lon="7.2185070">
        <ele>1979.6</ele>
        <time>2017-07-23T09:21:26Z</time>
      </trkpt>
      <trkpt lat="44.1945890" lon="7.2185370">
        <ele>1980.2</ele>
        <time>2017-07-23T09:21:29Z</time>
      </trkpt>
      <trkpt lat="44.1946290" lon="7.2185600">
        <ele>1980.6</ele>
        <time>2017-07-23T09:21:32Z</time>
      </trkpt>
      <trkpt lat="44.1946880" lon="7.2185990">
        <ele>1981.6</ele>
        <time>2017-07-23T09:21:36Z</time>
      </trkpt>
      <trkpt lat="44.1947030" lon="7.2186100">
        <ele>1982.0</ele>
        <time>2017-07-23T09:21:37Z</time>
      </trkpt>
      <trkpt lat="44.1947380" lon="7.2186380">
        <ele>1983.0</ele>
        <time>2017-07-23T09:21:40Z</time>
      </trkpt>
      <trkpt lat="44.1947770" lon="7.2186660">
        <ele>1983.6</ele>
        <time>2017-07-23T09:21:43Z</time>
      </trkpt>
      <trkpt lat="44.1948020" lon="7.2186770">
        <ele>1984.2</ele>
        <time>2017-07-23T09:21:45Z</time>
      </trkpt>
      <trkpt lat="44.1948900" lon="7.2187180">
        <ele>1985.4</ele>
        <time>2017-07-23T09:21:51Z</time>
      </trkpt>
      <trkpt lat="44.1949560" lon="7.2187210">
        <ele>1986.4</ele>
        <time>2017-07-23T09:21:57Z</time>
      </trkpt>
      <trkpt lat="44.1949640" lon="7.2187230">
        <ele>1986.4</ele>
        <time>2017-07-23T09:21:58Z</time>
      </trkpt>
      <trkpt lat="44.1950930" lon="7.2187330">
        <ele>1988.6</ele>
        <time>2017-07-23T09:22:20Z</time>
      </trkpt>
      <trkpt lat="44.1951060" lon="7.2187320">
        <ele>1988.4</ele>
        <time>2017-07-23T09:22:21Z</time>
      </trkpt>
      <trkpt lat="44.1952250" lon="7.2187550">
        <ele>1988.6</ele>
        <time>2017-07-23T09:22:28Z</time>
      </trkpt>
      <trkpt lat="44.1953490" lon="7.2188400">
        <ele>1989.6</ele>
        <time>2017-07-23T09:22:36Z</time>
      </trkpt>
      <trkpt lat="44.1953790" lon="7.2188670">
        <ele>1990.0</ele>
        <time>2017-07-23T09:22:38Z</time>
      </trkpt>
      <trkpt lat="44.1954400" lon="7.2189230">
        <ele>1990.8</ele>
        <time>2017-07-23T09:22:42Z</time>
      </trkpt>
      <trkpt lat="44.1954870" lon="7.2189760">
        <ele>1991.2</ele>
        <time>2017-07-23T09:22:45Z</time>
      </trkpt>
      <trkpt lat="44.1955560" lon="7.2191020">
        <ele>1991.8</ele>
        <time>2017-07-23T09:22:51Z</time>
      </trkpt>
      <trkpt lat="44.1955770" lon="7.2191480">
        <ele>1992.2</ele>
        <time>2017-07-23T09:22:53Z</time>
      </trkpt>
      <trkpt lat="44.1956460" lon="7.2192300">
        <ele>1993.0</ele>
        <time>2017-07-23T09:22:58Z</time>
      </trkpt>
      <trkpt lat="44.1956720" lon="7.2192560">
        <ele>1993.4</ele>
        <time>2017-07-23T09:23:00Z</time>
      </trkpt>
      <trkpt lat="44.1957040" lon="7.2192750">
        <ele>1993.4</ele>
        <time>2017-07-23T09:23:02Z</time>
      </trkpt>
      <trkpt lat="44.1957630" lon="7.2193080">
        <ele>1994.2</ele>
        <time>2017-07-23T09:23:06Z</time>
      </trkpt>
      <trkpt lat="44.1957880" lon="7.2193280">
        <ele>1994.6</ele>
        <time>2017-07-23T09:23:08Z</time>
      </trkpt>
      <trkpt lat="44.1958460" lon="7.2193600">
        <ele>1995.2</ele>
        <time>2017-07-23T09:23:12Z</time>
      </trkpt>
      <trkpt lat="44.1958900" lon="7.2193830">
        <ele>1995.6</ele>
        <time>2017-07-23T09:23:15Z</time>
      </trkpt>
      <trkpt lat="44.1959580" lon="7.2194130">
        <ele>1996.2</ele>
        <time>2017-07-23T09:23:20Z</time>
      </trkpt>
      <trkpt lat="44.1959840" lon="7.2194180">
        <ele>1996.4</ele>
        <time>2017-07-23T09:23:22Z</time>
      </trkpt>
      <trkpt lat="44.1960250" lon="7.2194240">
        <ele>1997.2</ele>
        <time>2017-07-23T09:23:26Z</time>
      </trkpt>
      <trkpt lat="44.1960320" lon="7.2194280">
        <ele>1997.4</ele>
        <time>2017-07-23T09:23:27Z</time>
      </trkpt>
      <trkpt lat="44.1961250" lon="7.2195170">
        <ele>2000.6</ele>
        <time>2017-07-23T09:23:41Z</time>
      </trkpt>
      <trkpt lat="44.1961550" lon="7.2195390">
        <ele>2000.8</ele>
        <time>2017-07-23T09:23:43Z</time>
      </trkpt>
      <trkpt lat="44.1962370" lon="7.2195940">
        <ele>2001.6</ele>
        <time>2017-07-23T09:23:48Z</time>
      </trkpt>
      <trkpt lat="44.1962950" lon="7.2196360">
        <ele>2002.2</ele>
        <time>2017-07-23T09:23:52Z</time>
      </trkpt>
      <trkpt lat="44.1963210" lon="7.2196800">
        <ele>2002.8</ele>
        <time>2017-07-23T09:23:54Z</time>
      </trkpt>
      <trkpt lat="44.1963840" lon="7.2197480">
        <ele>2003.8</ele>
        <time>2017-07-23T09:23:58Z</time>
      </trkpt>
      <trkpt lat="44.1963930" lon="7.2197600">
        <ele>2004.2</ele>
        <time>2017-07-23T09:23:59Z</time>
      </trkpt>
      <trkpt lat="44.1964020" lon="7.2197900">
        <ele>2005.0</ele>
        <time>2017-07-23T09:24:01Z</time>
      </trkpt>
      <trkpt lat="44.1964240" lon="7.2198330">
        <ele>2005.4</ele>
        <time>2017-07-23T09:24:04Z</time>
      </trkpt>
      <trkpt lat="44.1964420" lon="7.2198450">
        <ele>2005.8</ele>
        <time>2017-07-23T09:24:06Z</time>
      </trkpt>
      <trkpt lat="44.1964520" lon="7.2198570">
        <ele>2006.2</ele>
        <time>2017-07-23T09:24:07Z</time>
      </trkpt>
      <trkpt lat="44.1964730" lon="7.2199420">
        <ele>2007.0</ele>
        <time>2017-07-23T09:24:11Z</time>
      </trkpt>
      <trkpt lat="44.1965040" lon="7.2199820">
        <ele>2007.2</ele>
        <time>2017-07-23T09:24:13Z</time>
      </trkpt>
      <trkpt lat="44.1965150" lon="7.2200010">
        <ele>2007.4</ele>
        <time>2017-07-23T09:24:14Z</time>
      </trkpt>
      <trkpt lat="44.1965840" lon="7.2200710">
        <ele>2008.2</ele>
        <time>2017-07-23T09:24:19Z</time>
      </trkpt>
      <trkpt lat="44.1965940" lon="7.2200830">
        <ele>2008.4</ele>
        <time>2017-07-23T09:24:20Z</time>
      </trkpt>
      <trkpt lat="44.1966720" lon="7.2201650">
        <ele>2009.4</ele>
        <time>2017-07-23T09:24:26Z</time>
      </trkpt>
      <trkpt lat="44.1966880" lon="7.2201700">
        <ele>2009.6</ele>
        <time>2017-07-23T09:24:27Z</time>
      </trkpt>
      <trkpt lat="44.1967370" lon="7.2201560">
        <ele>2010.2</ele>
        <time>2017-07-23T09:24:30Z</time>
      </trkpt>
      <trkpt lat="44.1967610" lon="7.2201360">
        <ele>2010.4</ele>
        <time>2017-07-23T09:24:32Z</time>
      </trkpt>
      <trkpt lat="44.1967540" lon="7.2200720">
        <ele>2011.6</ele>
        <time>2017-07-23T09:24:36Z</time>
      </trkpt>
      <trkpt lat="44.1967470" lon="7.2200660">
        <ele>2011.8</ele>
        <time>2017-07-23T09:24:37Z</time>
      </trkpt>
      <trkpt lat="44.1967330" lon="7.2200650">
        <ele>2011.8</ele>
        <time>2017-07-23T09:24:38Z</time>
      </trkpt>
      <trkpt lat="44.1966820" lon="7.2200640">
        <ele>2012.8</ele>
        <time>2017-07-23T09:24:42Z</time>
      </trkpt>
      <trkpt lat="44.1966390" lon="7.2200360">
        <ele>2013.2</ele>
        <time>2017-07-23T09:24:46Z</time>
      </trkpt>
      <trkpt lat="44.1966070" lon="7.2200070">
        <ele>2013.4</ele>
        <time>2017-07-23T09:24:48Z</time>
      </trkpt>
      <trkpt lat="44.1965910" lon="7.2199660">
        <ele>2013.4</ele>
        <time>2017-07-23T09:24:50Z</time>
      </trkpt>
      <trkpt lat="44.1965740" lon="7.2199040">
        <ele>2014.2</ele>
        <time>2017-07-23T09:24:53Z</time>
      </trkpt>
      <trkpt lat="44.1965760" lon="7.2198650">
        <ele>2015.2</ele>
        <time>2017-07-23T09:24:55Z</time>
      </trkpt>
      <trkpt lat="44.1965660" lon="7.2198450">
        <ele>2015.8</ele>
        <time>2017-07-23T09:24:56Z</time>
      </trkpt>
      <trkpt lat="44.1965400" lon="7.2198060">
        <ele>2016.2</ele>
        <time>2017-07-23T09:24:58Z</time>
      </trkpt>
      <trkpt lat="44.1964750" lon="7.2196610">
        <ele>2017.2</ele>
        <time>2017-07-23T09:25:03Z</time>
      </trkpt>
      <trkpt lat="44.1964540" lon="7.2196080">
        <ele>2017.6</ele>
        <time>2017-07-23T09:25:05Z</time>
      </trkpt>
      <trkpt lat="44.1964200" lon="7.2195670">
        <ele>2017.8</ele>
        <time>2017-07-23T09:25:07Z</time>
      </trkpt>
      <trkpt lat="44.1963800" lon="7.2195380">
        <ele>2018.4</ele>
        <time>2017-07-23T09:25:09Z</time>
      </trkpt>
      <trkpt lat="44.1963600" lon="7.2195270">
        <ele>2018.6</ele>
        <time>2017-07-23T09:25:10Z</time>
      </trkpt>
      <trkpt lat="44.1962550" lon="7.2194210">
        <ele>2019.0</ele>
        <time>2017-07-23T09:25:17Z</time>
      </trkpt>
      <trkpt lat="44.1962110" lon="7.2193580">
        <ele>2020.0</ele>
        <time>2017-07-23T09:25:25Z</time>
      </trkpt>
      <trkpt lat="44.1961960" lon="7.2193500">
        <ele>2020.0</ele>
        <time>2017-07-23T09:25:26Z</time>
      </trkpt>
      <trkpt lat="44.1961590" lon="7.2193020">
        <ele>2019.6</ele>
        <time>2017-07-23T09:25:29Z</time>
      </trkpt>
      <trkpt lat="44.1961290" lon="7.2192610">
        <ele>2019.6</ele>
        <time>2017-07-23T09:25:31Z</time>
      </trkpt>
      <trkpt lat="44.1960290" lon="7.2191350">
        <ele>2019.6</ele>
        <time>2017-07-23T09:25:37Z</time>
      </trkpt>
      <trkpt lat="44.1959560" lon="7.2190370">
        <ele>2020.0</ele>
        <time>2017-07-23T09:25:43Z</time>
      </trkpt>
      <trkpt lat="44.1958840" lon="7.2188830">
        <ele>2020.6</ele>
        <time>2017-07-23T09:25:51Z</time>
      </trkpt>
      <trkpt lat="44.1958600" lon="7.2188250">
        <ele>2021.0</ele>
        <time>2017-07-23T09:25:54Z</time>
      </trkpt>
      <trkpt lat="44.1958470" lon="7.2188140">
        <ele>2021.0</ele>
        <time>2017-07-23T09:25:55Z</time>
      </trkpt>
      <trkpt lat="44.1958130" lon="7.2187640">
        <ele>2021.4</ele>
        <time>2017-07-23T09:25:58Z</time>
      </trkpt>
      <trkpt lat="44.1957230" lon="7.2186970">
        <ele>2021.8</ele>
        <time>2017-07-23T09:26:04Z</time>
      </trkpt>
      <trkpt lat="44.1957100" lon="7.2186830">
        <ele>2022.0</ele>
        <time>2017-07-23T09:26:05Z</time>
      </trkpt>
      <trkpt lat="44.1956960" lon="7.2186730">
        <ele>2022.2</ele>
        <time>2017-07-23T09:26:06Z</time>
      </trkpt>
      <trkpt lat="44.1956210" lon="7.2186160">
        <ele>2023.0</ele>
        <time>2017-07-23T09:26:11Z</time>
      </trkpt>
      <trkpt lat="44.1955750" lon="7.2185840">
        <ele>2023.2</ele>
        <time>2017-07-23T09:26:14Z</time>
      </trkpt>
      <trkpt lat="44.1955310" lon="7.2185270">
        <ele>2024.0</ele>
        <time>2017-07-23T09:26:18Z</time>
      </trkpt>
      <trkpt lat="44.1955200" lon="7.2185110">
        <ele>2023.8</ele>
        <time>2017-07-23T09:26:19Z</time>
      </trkpt>
      <trkpt lat="44.1954960" lon="7.2184750">
        <ele>2024.2</ele>
        <time>2017-07-23T09:26:21Z</time>
      </trkpt>
      <trkpt lat="44.1954420" lon="7.2184130">
        <ele>2025.2</ele>
        <time>2017-07-23T09:26:25Z</time>
      </trkpt>
      <trkpt lat="44.1954160" lon="7.2183770">
        <ele>2025.4</ele>
        <time>2017-07-23T09:26:27Z</time>
      </trkpt>
      <trkpt lat="44.1953530" lon="7.2182860">
        <ele>2026.2</ele>
        <time>2017-07-23T09:26:32Z</time>
      </trkpt>
      <trkpt lat="44.1953410" lon="7.2182410">
        <ele>2026.6</ele>
        <time>2017-07-23T09:26:34Z</time>
      </trkpt>
      <trkpt lat="44.1953010" lon="7.2181660">
        <ele>2027.2</ele>
        <time>2017-07-23T09:26:38Z</time>
      </trkpt>
      <trkpt lat="44.1952650" lon="7.2181130">
        <ele>2027.8</ele>
        <time>2017-07-23T09:26:41Z</time>
      </trkpt>
      <trkpt lat="44.1952200" lon="7.2180570">
        <ele>2028.4</ele>
        <time>2017-07-23T09:26:45Z</time>
      </trkpt>
      <trkpt lat="44.1951860" lon="7.2180130">
        <ele>2029.0</ele>
        <time>2017-07-23T09:26:48Z</time>
      </trkpt>
      <trkpt lat="44.1951660" lon="7.2179850">
        <ele>2029.6</ele>
        <time>2017-07-23T09:26:50Z</time>
      </trkpt>
      <trkpt lat="44.1951170" lon="7.2179500">
        <ele>2030.0</ele>
        <time>2017-07-23T09:26:53Z</time>
      </trkpt>
      <trkpt lat="44.1950840" lon="7.2179220">
        <ele>2030.4</ele>
        <time>2017-07-23T09:26:55Z</time>
      </trkpt>
      <trkpt lat="44.1950700" lon="7.2179110">
        <ele>2030.6</ele>
        <time>2017-07-23T09:26:56Z</time>
      </trkpt>
      <trkpt lat="44.1950040" lon="7.2178460">
        <ele>2031.4</ele>
        <time>2017-07-23T09:27:01Z</time>
      </trkpt>
      <trkpt lat="44.1949980" lon="7.2178280">
        <ele>2031.6</ele>
        <time>2017-07-23T09:27:02Z</time>
      </trkpt>
      <trkpt lat="44.1949660" lon="7.2177310">
        <ele>2033.0</ele>
        <time>2017-07-23T09:27:06Z</time>
      </trkpt>
      <trkpt lat="44.1949660" lon="7.2177310">
        <ele>2034.0</ele>
        <time>2017-07-23T09:27:08Z</time>
      </trkpt>
      <trkpt lat="44.1949660" lon="7.2177310">
        <ele>2035.8</ele>
        <time>2017-07-23T09:27:10Z</time>
      </trkpt>
      <trkpt lat="44.1949660" lon="7.2177310">
        <ele>2036.8</ele>
        <time>2017-07-23T09:27:12Z</time>
      </trkpt>
      <trkpt lat="44.1949660" lon="7.2177310">
        <ele>2037.8</ele>
        <time>2017-07-23T09:27:14Z</time>
      </trkpt>
      <trkpt lat="44.1949660" lon="7.2177310">
        <ele>2039.2</ele>
        <time>2017-07-23T09:27:16Z</time>
      </trkpt>
      <trkpt lat="44.1949660" lon="7.2177310">
        <ele>2039.6</ele>
        <time>2017-07-23T09:27:17Z</time>
      </trkpt>
      <trkpt lat="44.1949660" lon="7.2177310">
        <ele>2040.2</ele>
        <time>2017-07-23T09:27:18Z</time>
      </trkpt>
      <trkpt lat="44.1949660" lon="7.2177310">
        <ele>2040.6</ele>
        <time>2017-07-23T09:27:19Z</time>
      </trkpt>
      <trkpt lat="44.1949660" lon="7.2177310">
        <ele>2041.0</ele>
        <time>2017-07-23T09:27:22Z</time>
      </trkpt>
      <trkpt lat="44.1949660" lon="7.2177310">
        <ele>2041.2</ele>
        <time>2017-07-23T09:27:23Z</time>
      </trkpt>
      <trkpt lat="44.1947090" lon="7.2172020">
        <ele>2042.2</ele>
        <time>2017-07-23T09:27:28Z</time>
      </trkpt>
      <trkpt lat="44.1946920" lon="7.2171370">
        <ele>2042.6</ele>
        <time>2017-07-23T09:27:31Z</time>
      </trkpt>
      <trkpt lat="44.1946280" lon="7.2169710">
        <ele>2043.0</ele>
        <time>2017-07-23T09:27:39Z</time>
      </trkpt>
      <trkpt lat="44.1945860" lon="7.2168770">
        <ele>2043.2</ele>
        <time>2017-07-23T09:27:44Z</time>
      </trkpt>
      <trkpt lat="44.1945770" lon="7.2168590">
        <ele>2043.2</ele>
        <time>2017-07-23T09:27:45Z</time>
      </trkpt>
      <trkpt lat="44.1945110" lon="7.2167600">
        <ele>2044.0</ele>
        <time>2017-07-23T09:27:52Z</time>
      </trkpt>
      <trkpt lat="44.1944590" lon="7.2167310">
        <ele>2044.2</ele>
        <time>2017-07-23T09:27:55Z</time>
      </trkpt>
      <trkpt lat="44.1944040" lon="7.2167200">
        <ele>2044.6</ele>
        <time>2017-07-23T09:27:58Z</time>
      </trkpt>
      <trkpt lat="44.1943330" lon="7.2167350">
        <ele>2045.4</ele>
        <time>2017-07-23T09:28:03Z</time>
      </trkpt>
      <trkpt lat="44.1943160" lon="7.2167330">
        <ele>2045.6</ele>
        <time>2017-07-23T09:28:04Z</time>
      </trkpt>
      <trkpt lat="44.1942480" lon="7.2167180">
        <ele>2046.6</ele>
        <time>2017-07-23T09:28:09Z</time>
      </trkpt>
      <trkpt lat="44.1941990" lon="7.2167170">
        <ele>2047.0</ele>
        <time>2017-07-23T09:28:12Z</time>
      </trkpt>
      <trkpt lat="44.1941440" lon="7.2167100">
        <ele>2047.8</ele>
        <time>2017-07-23T09:28:15Z</time>
      </trkpt>
      <trkpt lat="44.1941080" lon="7.2166660">
        <ele>2048.2</ele>
        <time>2017-07-23T09:28:18Z</time>
      </trkpt>
      <trkpt lat="44.1940990" lon="7.2166210">
        <ele>2049.0</ele>
        <time>2017-07-23T09:28:20Z</time>
      </trkpt>
      <trkpt lat="44.1940880" lon="7.2165620">
        <ele>2050.0</ele>
        <time>2017-07-23T09:28:23Z</time>
      </trkpt>
      <trkpt lat="44.1940870" lon="7.2164970">
        <ele>2051.2</ele>
        <time>2017-07-23T09:28:26Z</time>
      </trkpt>
      <trkpt lat="44.1940950" lon="7.2164370">
        <ele>2052.2</ele>
        <time>2017-07-23T09:28:29Z</time>
      </trkpt>
      <trkpt lat="44.1941200" lon="7.2164070">
        <ele>2053.4</ele>
        <time>2017-07-23T09:28:32Z</time>
      </trkpt>
      <trkpt lat="44.1941480" lon="7.2164100">
        <ele>2053.8</ele>
        <time>2017-07-23T09:28:34Z</time>
      </trkpt>
      <trkpt lat="44.1941830" lon="7.2164200">
        <ele>2054.4</ele>
        <time>2017-07-23T09:28:36Z</time>
      </trkpt>
      <trkpt lat="44.1941950" lon="7.2164340">
        <ele>2054.8</ele>
        <time>2017-07-23T09:28:37Z</time>
      </trkpt>
      <trkpt lat="44.1942350" lon="7.2164680">
        <ele>2055.2</ele>
        <time>2017-07-23T09:28:39Z</time>
      </trkpt>
      <trkpt lat="44.1942560" lon="7.2164820">
        <ele>2055.4</ele>
        <time>2017-07-23T09:28:40Z</time>
      </trkpt>
      <trkpt lat="44.1943420" lon="7.2165060">
        <ele>2056.4</ele>
        <time>2017-07-23T09:28:45Z</time>
      </trkpt>
      <trkpt lat="44.1943550" lon="7.2165070">
        <ele>2056.8</ele>
        <time>2017-07-23T09:28:46Z</time>
      </trkpt>
      <trkpt lat="44.1944130" lon="7.2164890">
        <ele>2057.8</ele>
        <time>2017-07-23T09:28:51Z</time>
      </trkpt>
      <trkpt lat="44.1944210" lon="7.2164740">
        <ele>2058.0</ele>
        <time>2017-07-23T09:28:52Z</time>
      </trkpt>
      <trkpt lat="44.1944280" lon="7.2164390">
        <ele>2059.2</ele>
        <time>2017-07-23T09:28:54Z</time>
      </trkpt>
      <trkpt lat="44.1944350" lon="7.2163920">
        <ele>2060.2</ele>
        <time>2017-07-23T09:28:57Z</time>
      </trkpt>
      <trkpt lat="44.1944330" lon="7.2163760">
        <ele>2060.6</ele>
        <time>2017-07-23T09:28:58Z</time>
      </trkpt>
      <trkpt lat="44.1944400" lon="7.2163390">
        <ele>2061.6</ele>
        <time>2017-07-23T09:29:00Z</time>
      </trkpt>
      <trkpt lat="44.1944460" lon="7.2163240">
        <ele>2062.2</ele>
        <time>2017-07-23T09:29:01Z</time>
      </trkpt>
      <trkpt lat="44.1944520" lon="7.2163100">
        <ele>2063.0</ele>
        <time>2017-07-23T09:29:02Z</time>
      </trkpt>
      <trkpt lat="44.1944670" lon="7.2162850">
        <ele>2064.0</ele>
        <time>2017-07-23T09:29:04Z</time>
      </trkpt>
      <trkpt lat="44.1945200" lon="7.2162340">
        <ele>2065.2</ele>
        <time>2017-07-23T09:29:09Z</time>
      </trkpt>
      <trkpt lat="44.1945370" lon="7.2162090">
        <ele>2066.2</ele>
        <time>2017-07-23T09:29:11Z</time>
      </trkpt>
      <trkpt lat="44.1945570" lon="7.2161920">
        <ele>2067.2</ele>
        <time>2017-07-23T09:29:13Z</time>
      </trkpt>
      <trkpt lat="44.1946180" lon="7.2161410">
        <ele>2068.0</ele>
        <time>2017-07-23T09:29:18Z</time>
      </trkpt>
      <trkpt lat="44.1946310" lon="7.2161300">
        <ele>2068.4</ele>
        <time>2017-07-23T09:29:19Z</time>
      </trkpt>
      <trkpt lat="44.1946540" lon="7.2160830">
        <ele>2068.6</ele>
        <time>2017-07-23T09:29:23Z</time>
      </trkpt>
      <trkpt lat="44.1946660" lon="7.2160500">
        <ele>2069.6</ele>
        <time>2017-07-23T09:29:25Z</time>
      </trkpt>
      <trkpt lat="44.1946840" lon="7.2159900">
        <ele>2070.8</ele>
        <time>2017-07-23T09:29:29Z</time>
      </trkpt>
      <trkpt lat="44.1946950" lon="7.2159590">
        <ele>2071.6</ele>
        <time>2017-07-23T09:29:31Z</time>
      </trkpt>
      <trkpt lat="44.1947030" lon="7.2159520">
        <ele>2071.8</ele>
        <time>2017-07-23T09:29:32Z</time>
      </trkpt>
      <trkpt lat="44.1947200" lon="7.2159320">
        <ele>2073.0</ele>
        <time>2017-07-23T09:29:34Z</time>
      </trkpt>
      <trkpt lat="44.1947390" lon="7.2158860">
        <ele>2074.4</ele>
        <time>2017-07-23T09:29:37Z</time>
      </trkpt>
      <trkpt lat="44.1947440" lon="7.2158720">
        <ele>2074.6</ele>
        <time>2017-07-23T09:29:38Z</time>
      </trkpt>
      <trkpt lat="44.1947630" lon="7.2158290">
        <ele>2075.6</ele>
        <time>2017-07-23T09:29:41Z</time>
      </trkpt>
      <trkpt lat="44.1947810" lon="7.2157820">
        <ele>2077.0</ele>
        <time>2017-07-23T09:29:44Z</time>
      </trkpt>
      <trkpt lat="44.1947880" lon="7.2157510">
        <ele>2077.2</ele>
        <time>2017-07-23T09:29:46Z</time>
      </trkpt>
      <trkpt lat="44.1948300" lon="7.2156640">
        <ele>2078.0</ele>
        <time>2017-07-23T09:29:53Z</time>
      </trkpt>
      <trkpt lat="44.1948240" lon="7.2156450">
        <ele>2077.8</ele>
        <time>2017-07-23T09:29:54Z</time>
      </trkpt>
      <trkpt lat="44.1947840" lon="7.2155850">
        <ele>2077.4</ele>
        <time>2017-07-23T09:29:57Z</time>
      </trkpt>
      <trkpt lat="44.1947390" lon="7.2155360">
        <ele>2077.0</ele>
        <time>2017-07-23T09:30:00Z</time>
      </trkpt>
      <trkpt lat="44.1946950" lon="7.2154730">
        <ele>2077.0</ele>
        <time>2017-07-23T09:30:03Z</time>
      </trkpt>
      <trkpt lat="44.1946790" lon="7.2154240">
        <ele>2077.0</ele>
        <time>2017-07-23T09:30:05Z</time>
      </trkpt>
      <trkpt lat="44.1947010" lon="7.2153710">
        <ele>2077.6</ele>
        <time>2017-07-23T09:30:09Z</time>
      </trkpt>
      <trkpt lat="44.1947210" lon="7.2153470">
        <ele>2077.6</ele>
        <time>2017-07-23T09:30:11Z</time>
      </trkpt>
      <trkpt lat="44.1947420" lon="7.2153310">
        <ele>2077.8</ele>
        <time>2017-07-23T09:30:13Z</time>
      </trkpt>
      <trkpt lat="44.1947610" lon="7.2153110">
        <ele>2078.2</ele>
        <time>2017-07-23T09:30:17Z</time>
      </trkpt>
      <trkpt lat="44.1947880" lon="7.2152770">
        <ele>2079.0</ele>
        <time>2017-07-23T09:30:23Z</time>
      </trkpt>
      <trkpt lat="44.1948060" lon="7.2152750">
        <ele>2079.0</ele>
        <time>2017-07-23T09:30:24Z</time>
      </trkpt>
      <trkpt lat="44.1949500" lon="7.2152750">
        <ele>2079.0</ele>
        <time>2017-07-23T09:30:30Z</time>
      </trkpt>
      <trkpt lat="44.1950320" lon="7.2152420">
        <ele>2079.4</ele>
        <time>2017-07-23T09:30:33Z</time>
      </trkpt>
      <trkpt lat="44.1950770" lon="7.2152180">
        <ele>2080.2</ele>
        <time>2017-07-23T09:30:35Z</time>
      </trkpt>
      <trkpt lat="44.1950880" lon="7.2152070">
        <ele>2080.6</ele>
        <time>2017-07-23T09:30:36Z</time>
      </trkpt>
      <trkpt lat="44.1951250" lon="7.2152240">
        <ele>2081.0</ele>
        <time>2017-07-23T09:30:48Z</time>
      </trkpt>
      <trkpt lat="44.1949930" lon="7.2151870">
        <ele>2081.0</ele>
        <time>2017-07-23T09:30:52Z</time>
      </trkpt>
      <trkpt lat="44.1947810" lon="7.2151450">
        <ele>2081.0</ele>
        <time>2017-07-23T09:30:55Z</time>
      </trkpt>
      <trkpt lat="44.1946260" lon="7.2151380">
        <ele>2081.2</ele>
        <time>2017-07-23T09:31:02Z</time>
      </trkpt>
      <trkpt lat="44.1945600" lon="7.2151520">
        <ele>2081.6</ele>
        <time>2017-07-23T09:31:06Z</time>
      </trkpt>
      <trkpt lat="44.1945230" lon="7.2151510">
        <ele>2081.8</ele>
        <time>2017-07-23T09:31:08Z</time>
      </trkpt>
      <trkpt lat="44.1944650" lon="7.2151780">
        <ele>2082.6</ele>
        <time>2017-07-23T09:31:12Z</time>
      </trkpt>
      <trkpt lat="44.1944190" lon="7.2152010">
        <ele>2083.0</ele>
        <time>2017-07-23T09:31:15Z</time>
      </trkpt>
      <trkpt lat="44.1943690" lon="7.2152610">
        <ele>2083.6</ele>
        <time>2017-07-23T09:31:19Z</time>
      </trkpt>
      <trkpt lat="44.1943450" lon="7.2152810">
        <ele>2083.8</ele>
        <time>2017-07-23T09:31:21Z</time>
      </trkpt>
      <trkpt lat="44.1943090" lon="7.2152790">
        <ele>2084.4</ele>
        <time>2017-07-23T09:31:26Z</time>
      </trkpt>
      <trkpt lat="44.1943020" lon="7.2152440">
        <ele>2084.6</ele>
        <time>2017-07-23T09:31:28Z</time>
      </trkpt>
      <trkpt lat="44.1943030" lon="7.2152270">
        <ele>2084.8</ele>
        <time>2017-07-23T09:31:29Z</time>
      </trkpt>
      <trkpt lat="44.1943170" lon="7.2152010">
        <ele>2085.2</ele>
        <time>2017-07-23T09:31:31Z</time>
      </trkpt>
      <trkpt lat="44.1943520" lon="7.2151780">
        <ele>2085.4</ele>
        <time>2017-07-23T09:31:33Z</time>
      </trkpt>
      <trkpt lat="44.1943890" lon="7.2151430">
        <ele>2086.2</ele>
        <time>2017-07-23T09:31:35Z</time>
      </trkpt>
      <trkpt lat="44.1944040" lon="7.2151270">
        <ele>2086.4</ele>
        <time>2017-07-23T09:31:36Z</time>
      </trkpt>
      <trkpt lat="44.1944650" lon="7.2150830">
        <ele>2087.0</ele>
        <time>2017-07-23T09:31:40Z</time>
      </trkpt>
      <trkpt lat="44.1944830" lon="7.2150720">
        <ele>2087.2</ele>
        <time>2017-07-23T09:31:41Z</time>
      </trkpt>
      <trkpt lat="44.1945530" lon="7.2150170">
        <ele>2088.6</ele>
        <time>2017-07-23T09:31:45Z</time>
      </trkpt>
      <trkpt lat="44.1945780" lon="7.2149920">
        <ele>2090.0</ele>
        <time>2017-07-23T09:31:47Z</time>
      </trkpt>
      <trkpt lat="44.1946030" lon="7.2149720">
        <ele>2091.0</ele>
        <time>2017-07-23T09:31:49Z</time>
      </trkpt>
      <trkpt lat="44.1946150" lon="7.2149610">
        <ele>2091.4</ele>
        <time>2017-07-23T09:31:50Z</time>
      </trkpt>
      <trkpt lat="44.1946470" lon="7.2149490">
        <ele>2092.2</ele>
        <time>2017-07-23T09:31:52Z</time>
      </trkpt>
      <trkpt lat="44.1946910" lon="7.2149140">
        <ele>2093.4</ele>
        <time>2017-07-23T09:31:55Z</time>
      </trkpt>
      <trkpt lat="44.1947060" lon="7.2149010">
        <ele>2093.6</ele>
        <time>2017-07-23T09:31:56Z</time>
      </trkpt>
      <trkpt lat="44.1947440" lon="7.2148750">
        <ele>2094.4</ele>
        <time>2017-07-23T09:31:59Z</time>
      </trkpt>
      <trkpt lat="44.1948160" lon="7.2148600">
        <ele>2095.0</ele>
        <time>2017-07-23T09:32:04Z</time>
      </trkpt>
      <trkpt lat="44.1948670" lon="7.2148390">
        <ele>2095.6</ele>
        <time>2017-07-23T09:32:07Z</time>
      </trkpt>
      <trkpt lat="44.1949620" lon="7.2148010">
        <ele>2096.6</ele>
        <time>2017-07-23T09:32:13Z</time>
      </trkpt>
      <trkpt lat="44.1949800" lon="7.2147960">
        <ele>2096.8</ele>
        <time>2017-07-23T09:32:14Z</time>
      </trkpt>
      <trkpt lat="44.1950360" lon="7.2147590">
        <ele>2097.8</ele>
        <time>2017-07-23T09:32:19Z</time>
      </trkpt>
      <trkpt lat="44.1950460" lon="7.2147550">
        <ele>2098.0</ele>
        <time>2017-07-23T09:32:20Z</time>
      </trkpt>
      <trkpt lat="44.1951080" lon="7.2147340">
        <ele>2098.8</ele>
        <time>2017-07-23T09:32:24Z</time>
      </trkpt>
      <trkpt lat="44.1951750" lon="7.2147190">
        <ele>2099.2</ele>
        <time>2017-07-23T09:32:28Z</time>
      </trkpt>
      <trkpt lat="44.1953130" lon="7.2147160">
        <ele>2099.6</ele>
        <time>2017-07-23T09:32:37Z</time>
      </trkpt>
      <trkpt lat="44.1953440" lon="7.2147180">
        <ele>2100.0</ele>
        <time>2017-07-23T09:32:39Z</time>
      </trkpt>
      <trkpt lat="44.1954200" lon="7.2147180">
        <ele>2100.6</ele>
        <time>2017-07-23T09:32:45Z</time>
      </trkpt>
      <trkpt lat="44.1954490" lon="7.2147150">
        <ele>2101.2</ele>
        <time>2017-07-23T09:32:47Z</time>
      </trkpt>
      <trkpt lat="44.1954990" lon="7.2147130">
        <ele>2102.4</ele>
        <time>2017-07-23T09:32:51Z</time>
      </trkpt>
      <trkpt lat="44.1955210" lon="7.2147150">
        <ele>2102.8</ele>
        <time>2017-07-23T09:32:52Z</time>
      </trkpt>
      <trkpt lat="44.1955820" lon="7.2147190">
        <ele>2103.6</ele>
        <time>2017-07-23T09:32:54Z</time>
      </trkpt>
      <trkpt lat="44.1956390" lon="7.2147260">
        <ele>2104.8</ele>
        <time>2017-07-23T09:32:57Z</time>
      </trkpt>
      <trkpt lat="44.1956940" lon="7.2147300">
        <ele>2105.8</ele>
        <time>2017-07-23T09:33:00Z</time>
      </trkpt>
      <trkpt lat="44.1957510" lon="7.2147510">
        <ele>2106.8</ele>
        <time>2017-07-23T09:33:03Z</time>
      </trkpt>
      <trkpt lat="44.1958050" lon="7.2147280">
        <ele>2108.0</ele>
        <time>2017-07-23T09:33:06Z</time>
      </trkpt>
      <trkpt lat="44.1958380" lon="7.2146720">
        <ele>2109.4</ele>
        <time>2017-07-23T09:33:09Z</time>
      </trkpt>
      <trkpt lat="44.1958380" lon="7.2146480">
        <ele>2111.0</ele>
        <time>2017-07-23T09:33:15Z</time>
      </trkpt>
      <trkpt lat="44.1957380" lon="7.2146260">
        <ele>2111.0</ele>
        <time>2017-07-23T09:33:21Z</time>
      </trkpt>
      <trkpt lat="44.1956910" lon="7.2146070">
        <ele>2110.8</ele>
        <time>2017-07-23T09:33:24Z</time>
      </trkpt>
      <trkpt lat="44.1955930" lon="7.2145640">
        <ele>2110.6</ele>
        <time>2017-07-23T09:33:30Z</time>
      </trkpt>
      <trkpt lat="44.1954300" lon="7.2145080">
        <ele>2110.8</ele>
        <time>2017-07-23T09:33:39Z</time>
      </trkpt>
      <trkpt lat="44.1953750" lon="7.2144810">
        <ele>2111.0</ele>
        <time>2017-07-23T09:33:43Z</time>
      </trkpt>
      <trkpt lat="44.1953630" lon="7.2144470">
        <ele>2111.2</ele>
        <time>2017-07-23T09:33:45Z</time>
      </trkpt>
      <trkpt lat="44.1953620" lon="7.2144140">
        <ele>2111.6</ele>
        <time>2017-07-23T09:33:47Z</time>
      </trkpt>
      <trkpt lat="44.1954290" lon="7.2144040">
        <ele>2114.2</ele>
        <time>2017-07-23T09:33:54Z</time>
      </trkpt>
      <trkpt lat="44.1954450" lon="7.2144010">
        <ele>2114.6</ele>
        <time>2017-07-23T09:33:55Z</time>
      </trkpt>
      <trkpt lat="44.1954990" lon="7.2143980">
        <ele>2115.4</ele>
        <time>2017-07-23T09:33:58Z</time>
      </trkpt>
      <trkpt lat="44.1955550" lon="7.2143880">
        <ele>2116.6</ele>
        <time>2017-07-23T09:34:01Z</time>
      </trkpt>
      <trkpt lat="44.1955760" lon="7.2143770">
        <ele>2117.0</ele>
        <time>2017-07-23T09:34:02Z</time>
      </trkpt>
      <trkpt lat="44.1956130" lon="7.2143670">
        <ele>2117.8</ele>
        <time>2017-07-23T09:34:04Z</time>
      </trkpt>
      <trkpt lat="44.1956690" lon="7.2143530">
        <ele>2119.0</ele>
        <time>2017-07-23T09:34:08Z</time>
      </trkpt>
      <trkpt lat="44.1956860" lon="7.2143430">
        <ele>2119.6</ele>
        <time>2017-07-23T09:34:09Z</time>
      </trkpt>
      <trkpt lat="44.1957020" lon="7.2143370">
        <ele>2120.0</ele>
        <time>2017-07-23T09:34:10Z</time>
      </trkpt>
      <trkpt lat="44.1957340" lon="7.2143200">
        <ele>2121.2</ele>
        <time>2017-07-23T09:34:12Z</time>
      </trkpt>
      <trkpt lat="44.1957790" lon="7.2143070">
        <ele>2122.2</ele>
        <time>2017-07-23T09:34:15Z</time>
      </trkpt>
      <trkpt lat="44.1958100" lon="7.2142960">
        <ele>2123.0</ele>
        <time>2017-07-23T09:34:17Z</time>
      </trkpt>
      <trkpt lat="44.1958260" lon="7.2142930">
        <ele>2123.2</ele>
        <time>2017-07-23T09:34:18Z</time>
      </trkpt>
      <trkpt lat="44.1958850" lon="7.2142630">
        <ele>2124.4</ele>
        <time>2017-07-23T09:34:22Z</time>
      </trkpt>
      <trkpt lat="44.1959000" lon="7.2142560">
        <ele>2124.8</ele>
        <time>2017-07-23T09:34:23Z</time>
      </trkpt>
      <trkpt lat="44.1959500" lon="7.2142410">
        <ele>2125.4</ele>
        <time>2017-07-23T09:34:26Z</time>
      </trkpt>
      <trkpt lat="44.1960100" lon="7.2142200">
        <ele>2126.4</ele>
        <time>2017-07-23T09:34:30Z</time>
      </trkpt>
      <trkpt lat="44.1960260" lon="7.2142100">
        <ele>2126.8</ele>
        <time>2017-07-23T09:34:31Z</time>
      </trkpt>
      <trkpt lat="44.1960870" lon="7.2141710">
        <ele>2127.4</ele>
        <time>2017-07-23T09:34:35Z</time>
      </trkpt>
      <trkpt lat="44.1961490" lon="7.2141400">
        <ele>2128.0</ele>
        <time>2017-07-23T09:34:39Z</time>
      </trkpt>
      <trkpt lat="44.1962540" lon="7.2140790">
        <ele>2128.6</ele>
        <time>2017-07-23T09:34:46Z</time>
      </trkpt>
      <trkpt lat="44.1962680" lon="7.2140730">
        <ele>2128.8</ele>
        <time>2017-07-23T09:34:47Z</time>
      </trkpt>
      <trkpt lat="44.1963440" lon="7.2140210">
        <ele>2129.6</ele>
        <time>2017-07-23T09:34:52Z</time>
      </trkpt>
      <trkpt lat="44.1963830" lon="7.2139730">
        <ele>2130.8</ele>
        <time>2017-07-23T09:34:55Z</time>
      </trkpt>
      <trkpt lat="44.1964160" lon="7.2139240">
        <ele>2132.2</ele>
        <time>2017-07-23T09:34:58Z</time>
      </trkpt>
      <trkpt lat="44.1964660" lon="7.2138550">
        <ele>2133.2</ele>
        <time>2017-07-23T09:35:02Z</time>
      </trkpt>
      <trkpt lat="44.1964780" lon="7.2138430">
        <ele>2133.4</ele>
        <time>2017-07-23T09:35:03Z</time>
      </trkpt>
      <trkpt lat="44.1965240" lon="7.2138010">
        <ele>2134.4</ele>
        <time>2017-07-23T09:35:06Z</time>
      </trkpt>
      <trkpt lat="44.1965900" lon="7.2137400">
        <ele>2135.6</ele>
        <time>2017-07-23T09:35:10Z</time>
      </trkpt>
      <trkpt lat="44.1966030" lon="7.2137190">
        <ele>2136.4</ele>
        <time>2017-07-23T09:35:11Z</time>
      </trkpt>
      <trkpt lat="44.1966140" lon="7.2136970">
        <ele>2136.8</ele>
        <time>2017-07-23T09:35:12Z</time>
      </trkpt>
      <trkpt lat="44.1966460" lon="7.2136180">
        <ele>2137.8</ele>
        <time>2017-07-23T09:35:15Z</time>
      </trkpt>
      <trkpt lat="44.1966910" lon="7.2135330">
        <ele>2139.0</ele>
        <time>2017-07-23T09:35:18Z</time>
      </trkpt>
      <trkpt lat="44.1967720" lon="7.2132990">
        <ele>2139.4</ele>
        <time>2017-07-23T09:35:25Z</time>
      </trkpt>
      <trkpt lat="44.1968480" lon="7.2130310">
        <ele>2139.4</ele>
        <time>2017-07-23T09:35:34Z</time>
      </trkpt>
      <trkpt lat="44.1969230" lon="7.2129040">
        <ele>2140.0</ele>
        <time>2017-07-23T09:35:40Z</time>
      </trkpt>
      <trkpt lat="44.1969370" lon="7.2128830">
        <ele>2140.0</ele>
        <time>2017-07-23T09:35:41Z</time>
      </trkpt>
      <trkpt lat="44.1969470" lon="7.2128640">
        <ele>2140.2</ele>
        <time>2017-07-23T09:35:42Z</time>
      </trkpt>
      <trkpt lat="44.1969760" lon="7.2127310">
        <ele>2141.0</ele>
        <time>2017-07-23T09:35:48Z</time>
      </trkpt>
      <trkpt lat="44.1969890" lon="7.2127170">
        <ele>2141.2</ele>
        <time>2017-07-23T09:35:49Z</time>
      </trkpt>
      <trkpt lat="44.1970370" lon="7.2126330">
        <ele>2141.8</ele>
        <time>2017-07-23T09:35:54Z</time>
      </trkpt>
      <trkpt lat="44.1971230" lon="7.2124970">
        <ele>2142.2</ele>
        <time>2017-07-23T09:36:02Z</time>
      </trkpt>
      <trkpt lat="44.1971440" lon="7.2124880">
        <ele>2142.4</ele>
        <time>2017-07-23T09:36:03Z</time>
      </trkpt>
      <trkpt lat="44.1972380" lon="7.2124170">
        <ele>2143.0</ele>
        <time>2017-07-23T09:36:09Z</time>
      </trkpt>
      <trkpt lat="44.1972630" lon="7.2123880">
        <ele>2143.6</ele>
        <time>2017-07-23T09:36:11Z</time>
      </trkpt>
      <trkpt lat="44.1973210" lon="7.2123260">
        <ele>2144.0</ele>
        <time>2017-07-23T09:36:17Z</time>
      </trkpt>
      <trkpt lat="44.1974270" lon="7.2122520">
        <ele>2144.2</ele>
        <time>2017-07-23T09:36:26Z</time>
      </trkpt>
      <trkpt lat="44.1974680" lon="7.2122300">
        <ele>2144.6</ele>
        <time>2017-07-23T09:36:29Z</time>
      </trkpt>
      <trkpt lat="44.1975240" lon="7.2122100">
        <ele>2145.0</ele>
        <time>2017-07-23T09:36:33Z</time>
      </trkpt>
      <trkpt lat="44.1976320" lon="7.2121240">
        <ele>2145.4</ele>
        <time>2017-07-23T09:36:41Z</time>
      </trkpt>
      <trkpt lat="44.1975870" lon="7.2120630">
        <ele>2145.8</ele>
        <time>2017-07-23T09:36:43Z</time>
      </trkpt>
      <trkpt lat="44.1975920" lon="7.2120160">
        <ele>2147.0</ele>
        <time>2017-07-23T09:36:46Z</time>
      </trkpt>
      <trkpt lat="44.1976150" lon="7.2119870">
        <ele>2148.4</ele>
        <time>2017-07-23T09:36:48Z</time>
      </trkpt>
      <trkpt lat="44.1976250" lon="7.2119730">
        <ele>2148.6</ele>
        <time>2017-07-23T09:36:49Z</time>
      </trkpt>
      <trkpt lat="44.1976470" lon="7.2119440">
        <ele>2149.6</ele>
        <time>2017-07-23T09:36:51Z</time>
      </trkpt>
      <trkpt lat="44.1976790" lon="7.2119000">
        <ele>2151.0</ele>
        <time>2017-07-23T09:36:54Z</time>
      </trkpt>
      <trkpt lat="44.1976970" lon="7.2118700">
        <ele>2152.0</ele>
        <time>2017-07-23T09:36:56Z</time>
      </trkpt>
      <trkpt lat="44.1977240" lon="7.2118400">
        <ele>2153.2</ele>
        <time>2017-07-23T09:36:58Z</time>
      </trkpt>
      <trkpt lat="44.1977640" lon="7.2117900">
        <ele>2154.6</ele>
        <time>2017-07-23T09:37:01Z</time>
      </trkpt>
      <trkpt lat="44.1977930" lon="7.2117610">
        <ele>2155.4</ele>
        <time>2017-07-23T09:37:03Z</time>
      </trkpt>
      <trkpt lat="44.1978080" lon="7.2117500">
        <ele>2155.8</ele>
        <time>2017-07-23T09:37:04Z</time>
      </trkpt>
      <trkpt lat="44.1978330" lon="7.2117300">
        <ele>2156.8</ele>
        <time>2017-07-23T09:37:06Z</time>
      </trkpt>
      <trkpt lat="44.1978430" lon="7.2117190">
        <ele>2157.2</ele>
        <time>2017-07-23T09:37:07Z</time>
      </trkpt>
      <trkpt lat="44.1978920" lon="7.2116680">
        <ele>2158.2</ele>
        <time>2017-07-23T09:37:11Z</time>
      </trkpt>
      <trkpt lat="44.1979450" lon="7.2116300">
        <ele>2159.0</ele>
        <time>2017-07-23T09:37:15Z</time>
      </trkpt>
      <trkpt lat="44.1979680" lon="7.2116450">
        <ele>2159.0</ele>
        <time>2017-07-23T09:37:16Z</time>
      </trkpt>
      <trkpt lat="44.1980260" lon="7.2117540">
        <ele>2158.4</ele>
        <time>2017-07-23T09:37:21Z</time>
      </trkpt>
      <trkpt lat="44.1980180" lon="7.2118200">
        <ele>2158.0</ele>
        <time>2017-07-23T09:37:24Z</time>
      </trkpt>
      <trkpt lat="44.1980080" lon="7.2118620">
        <ele>2157.4</ele>
        <time>2017-07-23T09:37:26Z</time>
      </trkpt>
      <trkpt lat="44.1979770" lon="7.2118960">
        <ele>2157.0</ele>
        <time>2017-07-23T09:37:28Z</time>
      </trkpt>
      <trkpt lat="44.1979030" lon="7.2119290">
        <ele>2156.6</ele>
        <time>2017-07-23T09:37:31Z</time>
      </trkpt>
      <trkpt lat="44.1978880" lon="7.2119370">
        <ele>2156.6</ele>
        <time>2017-07-23T09:37:32Z</time>
      </trkpt>
      <trkpt lat="44.1979350" lon="7.2119100">
        <ele>2156.4</ele>
        <time>2017-07-23T09:37:36Z</time>
      </trkpt>
      <trkpt lat="44.1979920" lon="7.2117830">
        <ele>2158.4</ele>
        <time>2017-07-23T09:37:42Z</time>
      </trkpt>
      <trkpt lat="44.1980170" lon="7.2116970">
        <ele>2159.4</ele>
        <time>2017-07-23T09:37:45Z</time>
      </trkpt>
      <trkpt lat="44.1980480" lon="7.2116000">
        <ele>2160.6</ele>
        <time>2017-07-23T09:37:48Z</time>
      </trkpt>
      <trkpt lat="44.1980850" lon="7.2115020">
        <ele>2162.0</ele>
        <time>2017-07-23T09:37:51Z</time>
      </trkpt>
      <trkpt lat="44.1981240" lon="7.2114000">
        <ele>2163.0</ele>
        <time>2017-07-23T09:37:54Z</time>
      </trkpt>
      <trkpt lat="44.1981840" lon="7.2112530">
        <ele>2164.2</ele>
        <time>2017-07-23T09:37:58Z</time>
      </trkpt>
      <trkpt lat="44.1982030" lon="7.2111860">
        <ele>2164.8</ele>
        <time>2017-07-23T09:38:00Z</time>
      </trkpt>
      <trkpt lat="44.1982280" lon="7.2111250">
        <ele>2165.2</ele>
        <time>2017-07-23T09:38:02Z</time>
      </trkpt>
      <trkpt lat="44.1983030" lon="7.2109740">
        <ele>2166.4</ele>
        <time>2017-07-23T09:38:07Z</time>
      </trkpt>
      <trkpt lat="44.1983200" lon="7.2109420">
        <ele>2166.6</ele>
        <time>2017-07-23T09:38:08Z</time>
      </trkpt>
      <trkpt lat="44.1983820" lon="7.2108260">
        <ele>2167.6</ele>
        <time>2017-07-23T09:38:12Z</time>
      </trkpt>
      <trkpt lat="44.1984440" lon="7.2107170">
        <ele>2168.2</ele>
        <time>2017-07-23T09:38:16Z</time>
      </trkpt>
      <trkpt lat="44.1984590" lon="7.2106840">
        <ele>2168.6</ele>
        <time>2017-07-23T09:38:17Z</time>
      </trkpt>
      <trkpt lat="44.1985400" lon="7.2104560">
        <ele>2169.8</ele>
        <time>2017-07-23T09:38:23Z</time>
      </trkpt>
      <trkpt lat="44.1985500" lon="7.2103740">
        <ele>2170.2</ele>
        <time>2017-07-23T09:38:25Z</time>
      </trkpt>
      <trkpt lat="44.1985270" lon="7.2102440">
        <ele>2170.0</ele>
        <time>2017-07-23T09:38:30Z</time>
      </trkpt>
      <trkpt lat="44.1984960" lon="7.2100820">
        <ele>2169.2</ele>
        <time>2017-07-23T09:38:37Z</time>
      </trkpt>
      <trkpt lat="44.1984920" lon="7.2100440">
        <ele>2168.6</ele>
        <time>2017-07-23T09:38:39Z</time>
      </trkpt>
      <trkpt lat="44.1984840" lon="7.2100320">
        <ele>2168.4</ele>
        <time>2017-07-23T09:38:40Z</time>
      </trkpt>
      <trkpt lat="44.1984680" lon="7.2100100">
        <ele>2167.6</ele>
        <time>2017-07-23T09:38:42Z</time>
      </trkpt>
      <trkpt lat="44.1984560" lon="7.2100040">
        <ele>2167.4</ele>
        <time>2017-07-23T09:38:43Z</time>
      </trkpt>
      <trkpt lat="44.1983950" lon="7.2099390">
        <ele>2166.4</ele>
        <time>2017-07-23T09:38:47Z</time>
      </trkpt>
      <trkpt lat="44.1983800" lon="7.2099190">
        <ele>2166.2</ele>
        <time>2017-07-23T09:38:48Z</time>
      </trkpt>
      <trkpt lat="44.1983770" lon="7.2098960">
        <ele>2165.8</ele>
        <time>2017-07-23T09:38:49Z</time>
      </trkpt>
      <trkpt lat="44.1984010" lon="7.2098620">
        <ele>2165.6</ele>
        <time>2017-07-23T09:38:51Z</time>
      </trkpt>
      <trkpt lat="44.1984460" lon="7.2098560">
        <ele>2165.4</ele>
        <time>2017-07-23T09:38:53Z</time>
      </trkpt>
      <trkpt lat="44.1984720" lon="7.2098380">
        <ele>2165.0</ele>
        <time>2017-07-23T09:38:55Z</time>
      </trkpt>
      <trkpt lat="44.1985210" lon="7.2098310">
        <ele>2165.2</ele>
        <time>2017-07-23T09:38:59Z</time>
      </trkpt>
      <trkpt lat="44.1985530" lon="7.2098320">
        <ele>2165.0</ele>
        <time>2017-07-23T09:39:01Z</time>
      </trkpt>
      <trkpt lat="44.1986430" lon="7.2098230">
        <ele>2165.4</ele>
        <time>2017-07-23T09:39:08Z</time>
      </trkpt>
      <trkpt lat="44.1987210" lon="7.2098180">
        <ele>2165.8</ele>
        <time>2017-07-23T09:39:14Z</time>
      </trkpt>
      <trkpt lat="44.1987390" lon="7.2098140">
        <ele>2166.0</ele>
        <time>2017-07-23T09:39:16Z</time>
      </trkpt>
      <trkpt lat="44.1987840" lon="7.2098170">
        <ele>2166.0</ele>
        <time>2017-07-23T09:39:19Z</time>
      </trkpt>
      <trkpt lat="44.1988760" lon="7.2098310">
        <ele>2166.6</ele>
        <time>2017-07-23T09:39:26Z</time>
      </trkpt>
      <trkpt lat="44.1988900" lon="7.2098350">
        <ele>2166.8</ele>
        <time>2017-07-23T09:39:27Z</time>
      </trkpt>
      <trkpt lat="44.1989320" lon="7.2098400">
        <ele>2167.6</ele>
        <time>2017-07-23T09:39:31Z</time>
      </trkpt>
      <trkpt lat="44.1989790" lon="7.2098340">
        <ele>2168.2</ele>
        <time>2017-07-23T09:39:34Z</time>
      </trkpt>
      <trkpt lat="44.1989940" lon="7.2098290">
        <ele>2168.8</ele>
        <time>2017-07-23T09:39:35Z</time>
      </trkpt>
      <trkpt lat="44.1989800" lon="7.2097990">
        <ele>2169.4</ele>
        <time>2017-07-23T09:39:37Z</time>
      </trkpt>
      <trkpt lat="44.1989520" lon="7.2097630">
        <ele>2170.2</ele>
        <time>2017-07-23T09:39:39Z</time>
      </trkpt>
      <trkpt lat="44.1989220" lon="7.2097350">
        <ele>2170.8</ele>
        <time>2017-07-23T09:39:40Z</time>
      </trkpt>
      <trkpt lat="44.1989090" lon="7.2097160">
        <ele>2171.2</ele>
        <time>2017-07-23T09:39:41Z</time>
      </trkpt>
      <trkpt lat="44.1989000" lon="7.2096920">
        <ele>2171.6</ele>
        <time>2017-07-23T09:39:42Z</time>
      </trkpt>
      <trkpt lat="44.1988940" lon="7.2096390">
        <ele>2172.8</ele>
        <time>2017-07-23T09:39:45Z</time>
      </trkpt>
      <trkpt lat="44.1988980" lon="7.2095840">
        <ele>2173.4</ele>
        <time>2017-07-23T09:39:48Z</time>
      </trkpt>
      <trkpt lat="44.1989010" lon="7.2095670">
        <ele>2173.8</ele>
        <time>2017-07-23T09:39:49Z</time>
      </trkpt>
      <trkpt lat="44.1989130" lon="7.2095130">
        <ele>2174.8</ele>
        <time>2017-07-23T09:39:52Z</time>
      </trkpt>
      <trkpt lat="44.1989100" lon="7.2094300">
        <ele>2176.0</ele>
        <time>2017-07-23T09:39:56Z</time>
      </trkpt>
      <trkpt lat="44.1989090" lon="7.2092470">
        <ele>2177.2</ele>
        <time>2017-07-23T09:40:04Z</time>
      </trkpt>
      <trkpt lat="44.1989040" lon="7.2091560">
        <ele>2178.2</ele>
        <time>2017-07-23T09:40:08Z</time>
      </trkpt>
      <trkpt lat="44.1988960" lon="7.2091130">
        <ele>2178.2</ele>
        <time>2017-07-23T09:40:10Z</time>
      </trkpt>
      <trkpt lat="44.1988880" lon="7.2090670">
        <ele>2178.4</ele>
        <time>2017-07-23T09:40:12Z</time>
      </trkpt>
      <trkpt lat="44.1988760" lon="7.2089700">
        <ele>2179.2</ele>
        <time>2017-07-23T09:40:16Z</time>
      </trkpt>
      <trkpt lat="44.1988690" lon="7.2089260">
        <ele>2179.2</ele>
        <time>2017-07-23T09:40:18Z</time>
      </trkpt>
      <trkpt lat="44.1988460" lon="7.2087630">
        <ele>2180.4</ele>
        <time>2017-07-23T09:40:25Z</time>
      </trkpt>
      <trkpt lat="44.1988390" lon="7.2086100">
        <ele>2180.8</ele>
        <time>2017-07-23T09:40:32Z</time>
      </trkpt>
      <trkpt lat="44.1988210" lon="7.2084150">
        <ele>2181.4</ele>
        <time>2017-07-23T09:40:40Z</time>
      </trkpt>
      <trkpt lat="44.1988220" lon="7.2083910">
        <ele>2181.6</ele>
        <time>2017-07-23T09:40:41Z</time>
      </trkpt>
      <trkpt lat="44.1988150" lon="7.2082180">
        <ele>2181.8</ele>
        <time>2017-07-23T09:40:48Z</time>
      </trkpt>
      <trkpt lat="44.1988000" lon="7.2080850">
        <ele>2182.6</ele>
        <time>2017-07-23T09:40:54Z</time>
      </trkpt>
      <trkpt lat="44.1987970" lon="7.2080590">
        <ele>2182.8</ele>
        <time>2017-07-23T09:40:55Z</time>
      </trkpt>
      <trkpt lat="44.1987960" lon="7.2079570">
        <ele>2183.6</ele>
        <time>2017-07-23T09:40:59Z</time>
      </trkpt>
      <trkpt lat="44.1987700" lon="7.2078690">
        <ele>2184.2</ele>
        <time>2017-07-23T09:41:03Z</time>
      </trkpt>
      <trkpt lat="44.1987640" lon="7.2078240">
        <ele>2184.8</ele>
        <time>2017-07-23T09:41:05Z</time>
      </trkpt>
      <trkpt lat="44.1987470" lon="7.2077070">
        <ele>2185.4</ele>
        <time>2017-07-23T09:41:10Z</time>
      </trkpt>
      <trkpt lat="44.1987370" lon="7.2076880">
        <ele>2185.8</ele>
        <time>2017-07-23T09:41:11Z</time>
      </trkpt>
      <trkpt lat="44.1987220" lon="7.2076770">
        <ele>2186.0</ele>
        <time>2017-07-23T09:41:12Z</time>
      </trkpt>
      <trkpt lat="44.1987110" lon="7.2076050">
        <ele>2186.8</ele>
        <time>2017-07-23T09:41:15Z</time>
      </trkpt>
      <trkpt lat="44.1987140" lon="7.2075990">
        <ele>2187.2</ele>
        <time>2017-07-23T09:41:16Z</time>
      </trkpt>
      <trkpt lat="44.1986940" lon="7.2074650">
        <ele>2191.4</ele>
        <time>2017-07-23T09:41:31Z</time>
      </trkpt>
      <trkpt lat="44.1986850" lon="7.2074390">
        <ele>2191.0</ele>
        <time>2017-07-23T09:41:32Z</time>
      </trkpt>
      <trkpt lat="44.1986640" lon="7.2073150">
        <ele>2190.4</ele>
        <time>2017-07-23T09:41:37Z</time>
      </trkpt>
      <trkpt lat="44.1986620" lon="7.2072900">
        <ele>2190.2</ele>
        <time>2017-07-23T09:41:38Z</time>
      </trkpt>
      <trkpt lat="44.1986700" lon="7.2071680">
        <ele>2190.0</ele>
        <time>2017-07-23T09:41:43Z</time>
      </trkpt>
      <trkpt lat="44.1986730" lon="7.2071460">
        <ele>2190.0</ele>
        <time>2017-07-23T09:41:44Z</time>
      </trkpt>
      <trkpt lat="44.1986920" lon="7.2070830">
        <ele>2191.6</ele>
        <time>2017-07-23T09:41:49Z</time>
      </trkpt>
      <trkpt lat="44.1986980" lon="7.2070650">
        <ele>2192.0</ele>
        <time>2017-07-23T09:41:50Z</time>
      </trkpt>
      <trkpt lat="44.1987250" lon="7.2069890">
        <ele>2192.0</ele>
        <time>2017-07-23T09:41:57Z</time>
      </trkpt>
      <trkpt lat="44.1987630" lon="7.2069280">
        <ele>2191.4</ele>
        <time>2017-07-23T09:42:04Z</time>
      </trkpt>
      <trkpt lat="44.1988220" lon="7.2068680">
        <ele>2191.6</ele>
        <time>2017-07-23T09:42:13Z</time>
      </trkpt>
      <trkpt lat="44.1988500" lon="7.2068140">
        <ele>2192.0</ele>
        <time>2017-07-23T09:42:19Z</time>
      </trkpt>
      <trkpt lat="44.1988720" lon="7.2067670">
        <ele>2192.4</ele>
        <time>2017-07-23T09:42:25Z</time>
      </trkpt>
      <trkpt lat="44.1988720" lon="7.2067590">
        <ele>2192.2</ele>
        <time>2017-07-23T09:42:26Z</time>
      </trkpt>
      <trkpt lat="44.1988750" lon="7.2067120">
        <ele>2192.8</ele>
        <time>2017-07-23T09:42:30Z</time>
      </trkpt>
      <trkpt lat="44.1988690" lon="7.2066490">
        <ele>2193.8</ele>
        <time>2017-07-23T09:42:35Z</time>
      </trkpt>
      <trkpt lat="44.1988660" lon="7.2065610">
        <ele>2195.0</ele>
        <time>2017-07-23T09:42:42Z</time>
      </trkpt>
      <trkpt lat="44.1988680" lon="7.2065500">
        <ele>2195.2</ele>
        <time>2017-07-23T09:42:43Z</time>
      </trkpt>
      <trkpt lat="44.1988760" lon="7.2064950">
        <ele>2196.6</ele>
        <time>2017-07-23T09:42:48Z</time>
      </trkpt>
      <trkpt lat="44.1988840" lon="7.2064560">
        <ele>2197.0</ele>
        <time>2017-07-23T09:42:51Z</time>
      </trkpt>
      <trkpt lat="44.1988980" lon="7.2063970">
        <ele>2197.6</ele>
        <time>2017-07-23T09:42:57Z</time>
      </trkpt>
      <trkpt lat="44.1989100" lon="7.2063610">
        <ele>2198.2</ele>
        <time>2017-07-23T09:43:00Z</time>
      </trkpt>
      <trkpt lat="44.1989230" lon="7.2063310">
        <ele>2198.8</ele>
        <time>2017-07-23T09:43:02Z</time>
      </trkpt>
      <trkpt lat="44.1989390" lon="7.2062880">
        <ele>2199.8</ele>
        <time>2017-07-23T09:43:06Z</time>
      </trkpt>
      <trkpt lat="44.1989510" lon="7.2062780">
        <ele>2200.4</ele>
        <time>2017-07-23T09:43:08Z</time>
      </trkpt>
      <trkpt lat="44.1989650" lon="7.2062670">
        <ele>2201.0</ele>
        <time>2017-07-23T09:43:10Z</time>
      </trkpt>
      <trkpt lat="44.1989710" lon="7.2062650">
        <ele>2201.4</ele>
        <time>2017-07-23T09:43:11Z</time>
      </trkpt>
      <trkpt lat="44.1990010" lon="7.2062420">
        <ele>2202.2</ele>
        <time>2017-07-23T09:43:14Z</time>
      </trkpt>
      <trkpt lat="44.1990120" lon="7.2062370">
        <ele>2202.6</ele>
        <time>2017-07-23T09:43:15Z</time>
      </trkpt>
      <trkpt lat="44.1990240" lon="7.2062280">
        <ele>2202.8</ele>
        <time>2017-07-23T09:43:16Z</time>
      </trkpt>
      <trkpt lat="44.1990410" lon="7.2062320">
        <ele>2203.4</ele>
        <time>2017-07-23T09:43:18Z</time>
      </trkpt>
      <trkpt lat="44.1990870" lon="7.2062220">
        <ele>2204.4</ele>
        <time>2017-07-23T09:43:23Z</time>
      </trkpt>
      <trkpt lat="44.1991430" lon="7.2062520">
        <ele>2205.4</ele>
        <time>2017-07-23T09:43:30Z</time>
      </trkpt>
      <trkpt lat="44.1991620" lon="7.2062500">
        <ele>2205.6</ele>
        <time>2017-07-23T09:43:32Z</time>
      </trkpt>
      <trkpt lat="44.1992380" lon="7.2062760">
        <ele>2205.4</ele>
        <time>2017-07-23T09:43:41Z</time>
      </trkpt>
      <trkpt lat="44.1992990" lon="7.2062450">
        <ele>2205.8</ele>
        <time>2017-07-23T09:43:52Z</time>
      </trkpt>
      <trkpt lat="44.1993090" lon="7.2062460">
        <ele>2206.0</ele>
        <time>2017-07-23T09:43:53Z</time>
      </trkpt>
      <trkpt lat="44.1993240" lon="7.2062370">
        <ele>2205.8</ele>
        <time>2017-07-23T09:43:54Z</time>
      </trkpt>
      <trkpt lat="44.1993770" lon="7.2061650">
        <ele>2206.0</ele>
        <time>2017-07-23T09:43:59Z</time>
      </trkpt>
      <trkpt lat="44.1993570" lon="7.2061130">
        <ele>2206.2</ele>
        <time>2017-07-23T09:44:02Z</time>
      </trkpt>
      <trkpt lat="44.1993270" lon="7.2060750">
        <ele>2206.2</ele>
        <time>2017-07-23T09:44:04Z</time>
      </trkpt>
      <trkpt lat="44.1993130" lon="7.2060240">
        <ele>2206.6</ele>
        <time>2017-07-23T09:44:05Z</time>
      </trkpt>
      <trkpt lat="44.1992930" lon="7.2058810">
        <ele>2207.2</ele>
        <time>2017-07-23T09:44:08Z</time>
      </trkpt>
      <trkpt lat="44.1993060" lon="7.2058290">
        <ele>2207.6</ele>
        <time>2017-07-23T09:44:10Z</time>
      </trkpt>
      <trkpt lat="44.1993180" lon="7.2057900">
        <ele>2208.4</ele>
        <time>2017-07-23T09:44:12Z</time>
      </trkpt>
      <trkpt lat="44.1993220" lon="7.2057680">
        <ele>2208.8</ele>
        <time>2017-07-23T09:44:13Z</time>
      </trkpt>
      <trkpt lat="44.1993330" lon="7.2057510">
        <ele>2209.4</ele>
        <time>2017-07-23T09:44:14Z</time>
      </trkpt>
      <trkpt lat="44.1993420" lon="7.2057260">
        <ele>2210.0</ele>
        <time>2017-07-23T09:44:15Z</time>
      </trkpt>
      <trkpt lat="44.1993700" lon="7.2056930">
        <ele>2211.2</ele>
        <time>2017-07-23T09:44:17Z</time>
      </trkpt>
      <trkpt lat="44.1993880" lon="7.2056920">
        <ele>2211.6</ele>
        <time>2017-07-23T09:44:18Z</time>
      </trkpt>
      <trkpt lat="44.1994180" lon="7.2056860">
        <ele>2212.4</ele>
        <time>2017-07-23T09:44:20Z</time>
      </trkpt>
      <trkpt lat="44.1994780" lon="7.2057110">
        <ele>2214.2</ele>
        <time>2017-07-23T09:44:24Z</time>
      </trkpt>
      <trkpt lat="44.1994960" lon="7.2057140">
        <ele>2214.4</ele>
        <time>2017-07-23T09:44:25Z</time>
      </trkpt>
      <trkpt lat="44.1995770" lon="7.2056720">
        <ele>2215.2</ele>
        <time>2017-07-23T09:44:30Z</time>
      </trkpt>
      <trkpt lat="44.1995960" lon="7.2056300">
        <ele>2215.8</ele>
        <time>2017-07-23T09:44:32Z</time>
      </trkpt>
      <trkpt lat="44.1995890" lon="7.2055720">
        <ele>2216.2</ele>
        <time>2017-07-23T09:44:35Z</time>
      </trkpt>
      <trkpt lat="44.1995900" lon="7.2055580">
        <ele>2216.6</ele>
        <time>2017-07-23T09:44:36Z</time>
      </trkpt>
      <trkpt lat="44.1995980" lon="7.2055150">
        <ele>2217.6</ele>
        <time>2017-07-23T09:44:39Z</time>
      </trkpt>
      <trkpt lat="44.1996020" lon="7.2055020">
        <ele>2218.0</ele>
        <time>2017-07-23T09:44:40Z</time>
      </trkpt>
      <trkpt lat="44.1995980" lon="7.2054380">
        <ele>2218.6</ele>
        <time>2017-07-23T09:44:43Z</time>
      </trkpt>
      <trkpt lat="44.1995980" lon="7.2054000">
        <ele>2219.2</ele>
        <time>2017-07-23T09:44:45Z</time>
      </trkpt>
      <trkpt lat="44.1996040" lon="7.2053580">
        <ele>2219.8</ele>
        <time>2017-07-23T09:44:47Z</time>
      </trkpt>
      <trkpt lat="44.1996150" lon="7.2052150">
        <ele>2221.0</ele>
        <time>2017-07-23T09:44:52Z</time>
      </trkpt>
      <trkpt lat="44.1996400" lon="7.2050750">
        <ele>2222.0</ele>
        <time>2017-07-23T09:44:57Z</time>
      </trkpt>
      <trkpt lat="44.1996450" lon="7.2050460">
        <ele>2222.2</ele>
        <time>2017-07-23T09:44:58Z</time>
      </trkpt>
      <trkpt lat="44.1996500" lon="7.2049080">
        <ele>2222.0</ele>
        <time>2017-07-23T09:45:04Z</time>
      </trkpt>
      <trkpt lat="44.1996580" lon="7.2048350">
        <ele>2222.2</ele>
        <time>2017-07-23T09:45:08Z</time>
      </trkpt>
      <trkpt lat="44.1996770" lon="7.2048450">
        <ele>2222.4</ele>
        <time>2017-07-23T09:45:10Z</time>
      </trkpt>
      <trkpt lat="44.1996880" lon="7.2048520">
        <ele>2222.6</ele>
        <time>2017-07-23T09:45:11Z</time>
      </trkpt>
      <trkpt lat="44.1997550" lon="7.2048520">
        <ele>2222.6</ele>
        <time>2017-07-23T09:45:16Z</time>
      </trkpt>
      <trkpt lat="44.1997530" lon="7.2047970">
        <ele>2223.0</ele>
        <time>2017-07-23T09:45:19Z</time>
      </trkpt>
      <trkpt lat="44.1997500" lon="7.2047740">
        <ele>2222.8</ele>
        <time>2017-07-23T09:45:20Z</time>
      </trkpt>
      <trkpt lat="44.1997580" lon="7.2047290">
        <ele>2223.4</ele>
        <time>2017-07-23T09:45:23Z</time>
      </trkpt>
      <trkpt lat="44.1997810" lon="7.2046730">
        <ele>2224.6</ele>
        <time>2017-07-23T09:45:27Z</time>
      </trkpt>
      <trkpt lat="44.1998070" lon="7.2046360">
        <ele>2226.2</ele>
        <time>2017-07-23T09:45:30Z</time>
      </trkpt>
      <trkpt lat="44.1998210" lon="7.2046040">
        <ele>2227.4</ele>
        <time>2017-07-23T09:45:32Z</time>
      </trkpt>
      <trkpt lat="44.1998360" lon="7.2045670">
        <ele>2228.4</ele>
        <time>2017-07-23T09:45:34Z</time>
      </trkpt>
      <trkpt lat="44.1998440" lon="7.2045590">
        <ele>2228.8</ele>
        <time>2017-07-23T09:45:35Z</time>
      </trkpt>
      <trkpt lat="44.1998530" lon="7.2045280">
        <ele>2229.8</ele>
        <time>2017-07-23T09:45:37Z</time>
      </trkpt>
      <trkpt lat="44.1998820" lon="7.2044780">
        <ele>2230.8</ele>
        <time>2017-07-23T09:45:40Z</time>
      </trkpt>
      <trkpt lat="44.1999150" lon="7.2044080">
        <ele>2232.0</ele>
        <time>2017-07-23T09:45:44Z</time>
      </trkpt>
      <trkpt lat="44.1999220" lon="7.2043780">
        <ele>2232.6</ele>
        <time>2017-07-23T09:45:46Z</time>
      </trkpt>
      <trkpt lat="44.1999380" lon="7.2043500">
        <ele>2233.2</ele>
        <time>2017-07-23T09:45:48Z</time>
      </trkpt>
      <trkpt lat="44.1999670" lon="7.2042900">
        <ele>2234.2</ele>
        <time>2017-07-23T09:45:52Z</time>
      </trkpt>
      <trkpt lat="44.1999780" lon="7.2042570">
        <ele>2234.8</ele>
        <time>2017-07-23T09:45:54Z</time>
      </trkpt>
      <trkpt lat="44.1999940" lon="7.2042240">
        <ele>2235.4</ele>
        <time>2017-07-23T09:45:56Z</time>
      </trkpt>
      <trkpt lat="44.2000170" lon="7.2041510">
        <ele>2236.6</ele>
        <time>2017-07-23T09:46:00Z</time>
      </trkpt>
      <trkpt lat="44.2000310" lon="7.2041180">
        <ele>2236.8</ele>
        <time>2017-07-23T09:46:02Z</time>
      </trkpt>
      <trkpt lat="44.2000470" lon="7.2040580">
        <ele>2237.6</ele>
        <time>2017-07-23T09:46:06Z</time>
      </trkpt>
      <trkpt lat="44.2000570" lon="7.2040490">
        <ele>2237.6</ele>
        <time>2017-07-23T09:46:07Z</time>
      </trkpt>
      <trkpt lat="44.2002060" lon="7.2035270">
        <ele>2248.6</ele>
        <time>2017-07-23T09:47:28Z</time>
      </trkpt>
      <trkpt lat="44.2002140" lon="7.2035430">
        <ele>2248.8</ele>
        <time>2017-07-23T09:47:29Z</time>
      </trkpt>
      <trkpt lat="44.2002220" lon="7.2035620">
        <ele>2248.8</ele>
        <time>2017-07-23T09:47:31Z</time>
      </trkpt>
      <trkpt lat="44.2002330" lon="7.2035630">
        <ele>2248.8</ele>
        <time>2017-07-23T09:47:32Z</time>
      </trkpt>
      <trkpt lat="44.2002460" lon="7.2035110">
        <ele>2249.0</ele>
        <time>2017-07-23T09:47:35Z</time>
      </trkpt>
      <trkpt lat="44.2002470" lon="7.2035030">
        <ele>2249.2</ele>
        <time>2017-07-23T09:47:36Z</time>
      </trkpt>
      <trkpt lat="44.2002490" lon="7.2034680">
        <ele>2249.6</ele>
        <time>2017-07-23T09:47:39Z</time>
      </trkpt>
      <trkpt lat="44.2002450" lon="7.2034570">
        <ele>2249.8</ele>
        <time>2017-07-23T09:47:40Z</time>
      </trkpt>
      <trkpt lat="44.2002450" lon="7.2034340">
        <ele>2250.0</ele>
        <time>2017-07-23T09:47:42Z</time>
      </trkpt>
      <trkpt lat="44.2002510" lon="7.2034000">
        <ele>2250.8</ele>
        <time>2017-07-23T09:47:46Z</time>
      </trkpt>
      <trkpt lat="44.2002580" lon="7.2033700">
        <ele>2252.0</ele>
        <time>2017-07-23T09:47:49Z</time>
      </trkpt>
      <trkpt lat="44.2002590" lon="7.2033480">
        <ele>2252.6</ele>
        <time>2017-07-23T09:47:51Z</time>
      </trkpt>
      <trkpt lat="44.2002490" lon="7.2033200">
        <ele>2253.2</ele>
        <time>2017-07-23T09:47:53Z</time>
      </trkpt>
      <trkpt lat="44.2002440" lon="7.2032980">
        <ele>2253.6</ele>
        <time>2017-07-23T09:47:55Z</time>
      </trkpt>
      <trkpt lat="44.2002310" lon="7.2032450">
        <ele>2254.4</ele>
        <time>2017-07-23T09:47:59Z</time>
      </trkpt>
      <trkpt lat="44.2002230" lon="7.2032000">
        <ele>2255.6</ele>
        <time>2017-07-23T09:48:02Z</time>
      </trkpt>
      <trkpt lat="44.2002210" lon="7.2031530">
        <ele>2256.6</ele>
        <time>2017-07-23T09:48:05Z</time>
      </trkpt>
      <trkpt lat="44.2002160" lon="7.2031410">
        <ele>2257.0</ele>
        <time>2017-07-23T09:48:06Z</time>
      </trkpt>
      <trkpt lat="44.2002340" lon="7.2031410">
        <ele>2258.0</ele>
        <time>2017-07-23T09:48:09Z</time>
      </trkpt>
      <trkpt lat="44.2002430" lon="7.2031510">
        <ele>2258.2</ele>
        <time>2017-07-23T09:48:10Z</time>
      </trkpt>
      <trkpt lat="44.2002450" lon="7.2031650">
        <ele>2258.4</ele>
        <time>2017-07-23T09:48:11Z</time>
      </trkpt>
      <trkpt lat="44.2002610" lon="7.2031930">
        <ele>2259.0</ele>
        <time>2017-07-23T09:48:14Z</time>
      </trkpt>
      <trkpt lat="44.2002850" lon="7.2032390">
        <ele>2259.2</ele>
        <time>2017-07-23T09:48:18Z</time>
      </trkpt>
      <trkpt lat="44.2003120" lon="7.2032760">
        <ele>2259.8</ele>
        <time>2017-07-23T09:48:22Z</time>
      </trkpt>
      <trkpt lat="44.2003270" lon="7.2032890">
        <ele>2260.2</ele>
        <time>2017-07-23T09:48:24Z</time>
      </trkpt>
      <trkpt lat="44.2003360" lon="7.2033040">
        <ele>2260.4</ele>
        <time>2017-07-23T09:48:26Z</time>
      </trkpt>
      <trkpt lat="44.2003550" lon="7.2033410">
        <ele>2260.8</ele>
        <time>2017-07-23T09:48:29Z</time>
      </trkpt>
      <trkpt lat="44.2003870" lon="7.2034000">
        <ele>2261.4</ele>
        <time>2017-07-23T09:48:34Z</time>
      </trkpt>
      <trkpt lat="44.2004060" lon="7.2034100">
        <ele>2261.6</ele>
        <time>2017-07-23T09:48:36Z</time>
      </trkpt>
      <trkpt lat="44.2004120" lon="7.2033460">
        <ele>2262.0</ele>
        <time>2017-07-23T09:48:40Z</time>
      </trkpt>
      <trkpt lat="44.2004160" lon="7.2033040">
        <ele>2262.4</ele>
        <time>2017-07-23T09:48:44Z</time>
      </trkpt>
      <trkpt lat="44.2004210" lon="7.2032800">
        <ele>2262.8</ele>
        <time>2017-07-23T09:48:46Z</time>
      </trkpt>
      <trkpt lat="44.2004040" lon="7.2032490">
        <ele>2263.4</ele>
        <time>2017-07-23T09:48:49Z</time>
      </trkpt>
      <trkpt lat="44.2004110" lon="7.2032110">
        <ele>2264.0</ele>
        <time>2017-07-23T09:48:53Z</time>
      </trkpt>
      <trkpt lat="44.2004060" lon="7.2031540">
        <ele>2264.6</ele>
        <time>2017-07-23T09:48:57Z</time>
      </trkpt>
      <trkpt lat="44.2004010" lon="7.2031180">
        <ele>2265.2</ele>
        <time>2017-07-23T09:49:00Z</time>
      </trkpt>
      <trkpt lat="44.2004040" lon="7.2031060">
        <ele>2265.4</ele>
        <time>2017-07-23T09:49:01Z</time>
      </trkpt>
      <trkpt lat="44.2004100" lon="7.2030940">
        <ele>2265.8</ele>
        <time>2017-07-23T09:49:03Z</time>
      </trkpt>
      <trkpt lat="44.2012530" lon="7.2035740">
        <ele>2324.0</ele>
        <time>2017-07-23T09:54:55Z</time>
      </trkpt>
      <trkpt lat="44.2012630" lon="7.2035730">
        <ele>2324.2</ele>
        <time>2017-07-23T09:54:56Z</time>
      </trkpt>
      <trkpt lat="44.2025770" lon="7.2011070">
        <ele>2415.2</ele>
        <time>2017-07-23T10:05:37Z</time>
      </trkpt>
      <trkpt lat="44.2025880" lon="7.2011090">
        <ele>2415.2</ele>
        <time>2017-07-23T10:05:38Z</time>
      </trkpt>
      <trkpt lat="44.2025950" lon="7.2011050">
        <ele>2415.6</ele>
        <time>2017-07-23T10:05:39Z</time>
      </trkpt>
      <trkpt lat="44.2026130" lon="7.2011010">
        <ele>2416.2</ele>
        <time>2017-07-23T10:05:42Z</time>
      </trkpt>
      <trkpt lat="44.2026270" lon="7.2011030">
        <ele>2416.4</ele>
        <time>2017-07-23T10:05:44Z</time>
      </trkpt>
      <trkpt lat="44.2026310" lon="7.2010840">
        <ele>2417.0</ele>
        <time>2017-07-23T10:05:46Z</time>
      </trkpt>
      <trkpt lat="44.2026150" lon="7.2010740">
        <ele>2417.2</ele>
        <time>2017-07-23T10:05:48Z</time>
      </trkpt>
      <trkpt lat="44.2025780" lon="7.2010410">
        <ele>2417.0</ele>
        <time>2017-07-23T10:05:55Z</time>
      </trkpt>
      <trkpt lat="44.2025410" lon="7.2010330">
        <ele>2418.2</ele>
        <time>2017-07-23T10:05:59Z</time>
      </trkpt>
      <trkpt lat="44.2025200" lon="7.2010080">
        <ele>2419.2</ele>
        <time>2017-07-23T10:06:02Z</time>
      </trkpt>
      <trkpt lat="44.2025130" lon="7.2010020">
        <ele>2419.6</ele>
        <time>2017-07-23T10:06:03Z</time>
      </trkpt>
      <trkpt lat="44.2024880" lon="7.2009930">
        <ele>2420.4</ele>
        <time>2017-07-23T10:06:06Z</time>
      </trkpt>
      <trkpt lat="44.2024610" lon="7.2009860">
        <ele>2421.2</ele>
        <time>2017-07-23T10:06:09Z</time>
      </trkpt>
      <trkpt lat="44.2024460" lon="7.2009800">
        <ele>2421.6</ele>
        <time>2017-07-23T10:06:11Z</time>
      </trkpt>
      <trkpt lat="44.2024250" lon="7.2009580">
        <ele>2422.8</ele>
        <time>2017-07-23T10:06:15Z</time>
      </trkpt>
      <trkpt lat="44.2024290" lon="7.2009600">
        <ele>2423.2</ele>
        <time>2017-07-23T10:06:16Z</time>
      </trkpt>
      <trkpt lat="44.2024420" lon="7.2009600">
        <ele>2424.0</ele>
        <time>2017-07-23T10:06:18Z</time>
      </trkpt>
      <trkpt lat="44.2024850" lon="7.2009590">
        <ele>2425.2</ele>
        <time>2017-07-23T10:06:22Z</time>
      </trkpt>
      <trkpt lat="44.2024960" lon="7.2009570">
        <ele>2425.6</ele>
        <time>2017-07-23T10:06:23Z</time>
      </trkpt>
      <trkpt lat="44.2025150" lon="7.2009560">
        <ele>2426.4</ele>
        <time>2017-07-23T10:06:25Z</time>
      </trkpt>
      <trkpt lat="44.2025650" lon="7.2009590">
        <ele>2427.6</ele>
        <time>2017-07-23T10:06:30Z</time>
      </trkpt>
      <trkpt lat="44.2026120" lon="7.2009490">
        <ele>2428.6</ele>
        <time>2017-07-23T10:06:35Z</time>
      </trkpt>
      <trkpt lat="44.2026220" lon="7.2009510">
        <ele>2428.8</ele>
        <time>2017-07-23T10:06:36Z</time>
      </trkpt>
      <trkpt lat="44.2026300" lon="7.2009540">
        <ele>2429.0</ele>
        <time>2017-07-23T10:06:37Z</time>
      </trkpt>
      <trkpt lat="44.2026810" lon="7.2009540">
        <ele>2429.8</ele>
        <time>2017-07-23T10:06:42Z</time>
      </trkpt>
      <trkpt lat="44.2026960" lon="7.2009460">
        <ele>2430.4</ele>
        <time>2017-07-23T10:06:44Z</time>
      </trkpt>
      <trkpt lat="44.2027320" lon="7.2009530">
        <ele>2431.2</ele>
        <time>2017-07-23T10:06:48Z</time>
      </trkpt>
      <trkpt lat="44.2027410" lon="7.2009530">
        <ele>2431.8</ele>
        <time>2017-07-23T10:06:49Z</time>
      </trkpt>
      <trkpt lat="44.2027660" lon="7.2009530">
        <ele>2432.2</ele>
        <time>2017-07-23T10:06:52Z</time>
      </trkpt>
      <trkpt lat="44.2027900" lon="7.2009590">
        <ele>2433.0</ele>
        <time>2017-07-23T10:06:55Z</time>
      </trkpt>
      <trkpt lat="44.2027970" lon="7.2009590">
        <ele>2433.4</ele>
        <time>2017-07-23T10:06:56Z</time>
      </trkpt>
      <trkpt lat="44.2028260" lon="7.2009890">
        <ele>2434.4</ele>
        <time>2017-07-23T10:07:01Z</time>
      </trkpt>
      <trkpt lat="44.2028380" lon="7.2009990">
        <ele>2434.8</ele>
        <time>2017-07-23T10:07:03Z</time>
      </trkpt>
      <trkpt lat="44.2028640" lon="7.2010090">
        <ele>2435.4</ele>
        <time>2017-07-23T10:07:07Z</time>
      </trkpt>
      <trkpt lat="44.2028720" lon="7.2010150">
        <ele>2435.6</ele>
        <time>2017-07-23T10:07:08Z</time>
      </trkpt>
      <trkpt lat="44.2028780" lon="7.2010190">
        <ele>2435.8</ele>
        <time>2017-07-23T10:07:09Z</time>
      </trkpt>
      <trkpt lat="44.2028980" lon="7.2010260">
        <ele>2436.0</ele>
        <time>2017-07-23T10:07:12Z</time>
      </trkpt>
      <trkpt lat="44.2028880" lon="7.2010060">
        <ele>2436.4</ele>
        <time>2017-07-23T10:07:14Z</time>
      </trkpt>
      <trkpt lat="44.2028830" lon="7.2009980">
        <ele>2436.6</ele>
        <time>2017-07-23T10:07:15Z</time>
      </trkpt>
      <trkpt lat="44.2028870" lon="7.2009420">
        <ele>2437.0</ele>
        <time>2017-07-23T10:07:21Z</time>
      </trkpt>
      <trkpt lat="44.2029110" lon="7.2009080">
        <ele>2436.4</ele>
        <time>2017-07-23T10:07:26Z</time>
      </trkpt>
      <trkpt lat="44.2029290" lon="7.2008930">
        <ele>2436.4</ele>
        <time>2017-07-23T10:07:27Z</time>
      </trkpt>
      <trkpt lat="44.2030040" lon="7.2008770">
        <ele>2436.2</ele>
        <time>2017-07-23T10:07:31Z</time>
      </trkpt>
      <trkpt lat="44.2029700" lon="7.2008510">
        <ele>2435.8</ele>
        <time>2017-07-23T10:07:34Z</time>
      </trkpt>
      <trkpt lat="44.2029480" lon="7.2008070">
        <ele>2435.2</ele>
        <time>2017-07-23T10:07:36Z</time>
      </trkpt>
      <trkpt lat="44.2029450" lon="7.2007760">
        <ele>2434.8</ele>
        <time>2017-07-23T10:07:37Z</time>
      </trkpt>
      <trkpt lat="44.2029290" lon="7.2006620">
        <ele>2433.8</ele>
        <time>2017-07-23T10:07:40Z</time>
      </trkpt>
      <trkpt lat="44.2029280" lon="7.2006340">
        <ele>2433.4</ele>
        <time>2017-07-23T10:07:41Z</time>
      </trkpt>
      <trkpt lat="44.2029390" lon="7.2006190">
        <ele>2433.0</ele>
        <time>2017-07-23T10:07:42Z</time>
      </trkpt>
      <trkpt lat="44.2029590" lon="7.2006140">
        <ele>2432.8</ele>
        <time>2017-07-23T10:07:44Z</time>
      </trkpt>
      <trkpt lat="44.2029730" lon="7.2006220">
        <ele>2432.6</ele>
        <time>2017-07-23T10:07:45Z</time>
      </trkpt>
      <trkpt lat="44.2029870" lon="7.2006330">
        <ele>2432.4</ele>
        <time>2017-07-23T10:07:46Z</time>
      </trkpt>
      <trkpt lat="44.2030270" lon="7.2006620">
        <ele>2431.4</ele>
        <time>2017-07-23T10:07:48Z</time>
      </trkpt>
      <trkpt lat="44.2030480" lon="7.2006760">
        <ele>2430.8</ele>
        <time>2017-07-23T10:07:49Z</time>
      </trkpt>
      <trkpt lat="44.2030680" lon="7.2006970">
        <ele>2430.2</ele>
        <time>2017-07-23T10:07:50Z</time>
      </trkpt>
      <trkpt lat="44.2031160" lon="7.2007160">
        <ele>2429.2</ele>
        <time>2017-07-23T10:07:52Z</time>
      </trkpt>
      <trkpt lat="44.2031510" lon="7.2007450">
        <ele>2428.2</ele>
        <time>2017-07-23T10:07:54Z</time>
      </trkpt>
      <trkpt lat="44.2031630" lon="7.2007490">
        <ele>2427.6</ele>
        <time>2017-07-23T10:07:55Z</time>
      </trkpt>
      <trkpt lat="44.2031280" lon="7.2006950">
        <ele>2426.4</ele>
        <time>2017-07-23T10:07:59Z</time>
      </trkpt>
      <trkpt lat="44.2031060" lon="7.2006390">
        <ele>2424.4</ele>
        <time>2017-07-23T10:08:01Z</time>
      </trkpt>
      <trkpt lat="44.2031080" lon="7.2006150">
        <ele>2423.2</ele>
        <time>2017-07-23T10:08:03Z</time>
      </trkpt>
      <trkpt lat="44.2031160" lon="7.2006120">
        <ele>2422.8</ele>
        <time>2017-07-23T10:08:04Z</time>
      </trkpt>
      <trkpt lat="44.2031270" lon="7.2006150">
        <ele>2422.4</ele>
        <time>2017-07-23T10:08:05Z</time>
      </trkpt>
      <trkpt lat="44.2031480" lon="7.2006290">
        <ele>2421.8</ele>
        <time>2017-07-23T10:08:06Z</time>
      </trkpt>
      <trkpt lat="44.2031730" lon="7.2006470">
        <ele>2421.2</ele>
        <time>2017-07-23T10:08:07Z</time>
      </trkpt>
      <trkpt lat="44.2031960" lon="7.2006610">
        <ele>2420.6</ele>
        <time>2017-07-23T10:08:08Z</time>
      </trkpt>
      <trkpt lat="44.2032300" lon="7.2006680">
        <ele>2419.6</ele>
        <time>2017-07-23T10:08:10Z</time>
      </trkpt>
      <trkpt lat="44.2032460" lon="7.2006620">
        <ele>2419.0</ele>
        <time>2017-07-23T10:08:12Z</time>
      </trkpt>
      <trkpt lat="44.2032430" lon="7.2006420">
        <ele>2417.8</ele>
        <time>2017-07-23T10:08:14Z</time>
      </trkpt>
      <trkpt lat="44.2032360" lon="7.2006010">
        <ele>2417.0</ele>
        <time>2017-07-23T10:08:15Z</time>
      </trkpt>
      <trkpt lat="44.2032090" lon="7.2005490">
        <ele>2416.4</ele>
        <time>2017-07-23T10:08:16Z</time>
      </trkpt>
      <trkpt lat="44.2032000" lon="7.2005140">
        <ele>2415.6</ele>
        <time>2017-07-23T10:08:17Z</time>
      </trkpt>
      <trkpt lat="44.2031940" lon="7.2004930">
        <ele>2415.2</ele>
        <time>2017-07-23T10:08:18Z</time>
      </trkpt>
      <trkpt lat="44.2032090" lon="7.2004770">
        <ele>2414.2</ele>
        <time>2017-07-23T10:08:20Z</time>
      </trkpt>
      <trkpt lat="44.2032520" lon="7.2004980">
        <ele>2413.0</ele>
        <time>2017-07-23T10:08:22Z</time>
      </trkpt>
      <trkpt lat="44.2033140" lon="7.2005120">
        <ele>2412.0</ele>
        <time>2017-07-23T10:08:24Z</time>
      </trkpt>
      <trkpt lat="44.2033800" lon="7.2005390">
        <ele>2410.4</ele>
        <time>2017-07-23T10:08:26Z</time>
      </trkpt>
      <trkpt lat="44.2034570" lon="7.2005660">
        <ele>2409.0</ele>
        <time>2017-07-23T10:08:28Z</time>
      </trkpt>
      <trkpt lat="44.2034900" lon="7.2005760">
        <ele>2408.4</ele>
        <time>2017-07-23T10:08:29Z</time>
      </trkpt>
      <trkpt lat="44.2035260" lon="7.2005780">
        <ele>2408.0</ele>
        <time>2017-07-23T10:08:30Z</time>
      </trkpt>
      <trkpt lat="44.2035640" lon="7.2005780">
        <ele>2407.6</ele>
        <time>2017-07-23T10:08:31Z</time>
      </trkpt>
      <trkpt lat="44.2036050" lon="7.2005770">
        <ele>2406.8</ele>
        <time>2017-07-23T10:08:32Z</time>
      </trkpt>
      <trkpt lat="44.2036890" lon="7.2005640">
        <ele>2405.6</ele>
        <time>2017-07-23T10:08:34Z</time>
      </trkpt>
      <trkpt lat="44.2037490" lon="7.2005860">
        <ele>2404.4</ele>
        <time>2017-07-23T10:08:36Z</time>
      </trkpt>
      <trkpt lat="44.2038140" lon="7.2006070">
        <ele>2403.2</ele>
        <time>2017-07-23T10:08:38Z</time>
      </trkpt>
      <trkpt lat="44.2038710" lon="7.2006390">
        <ele>2401.8</ele>
        <time>2017-07-23T10:08:40Z</time>
      </trkpt>
      <trkpt lat="44.2038650" lon="7.2006670">
        <ele>2401.2</ele>
        <time>2017-07-23T10:08:41Z</time>
      </trkpt>
      <trkpt lat="44.2038850" lon="7.2006830">
        <ele>2400.6</ele>
        <time>2017-07-23T10:08:42Z</time>
      </trkpt>
      <trkpt lat="44.2039510" lon="7.2006810">
        <ele>2399.4</ele>
        <time>2017-07-23T10:08:44Z</time>
      </trkpt>
      <trkpt lat="44.2040170" lon="7.2006820">
        <ele>2398.0</ele>
        <time>2017-07-23T10:08:46Z</time>
      </trkpt>
      <trkpt lat="44.2040460" lon="7.2006870">
        <ele>2397.2</ele>
        <time>2017-07-23T10:08:47Z</time>
      </trkpt>
      <trkpt lat="44.2040700" lon="7.2006910">
        <ele>2396.4</ele>
        <time>2017-07-23T10:08:48Z</time>
      </trkpt>
      <trkpt lat="44.2040850" lon="7.2006860">
        <ele>2394.6</ele>
        <time>2017-07-23T10:08:49Z</time>
      </trkpt>
      <trkpt lat="44.2040400" lon="7.2007660">
        <ele>2388.0</ele>
        <time>2017-07-23T10:08:58Z</time>
      </trkpt>
      <trkpt lat="44.2040640" lon="7.2007710">
        <ele>2386.6</ele>
        <time>2017-07-23T10:09:00Z</time>
      </trkpt>
      <trkpt lat="44.2040930" lon="7.2007700">
        <ele>2384.6</ele>
        <time>2017-07-23T10:09:04Z</time>
      </trkpt>
      <trkpt lat="44.2041230" lon="7.2007680">
        <ele>2384.2</ele>
        <time>2017-07-23T10:09:05Z</time>
      </trkpt>
      <trkpt lat="44.2042070" lon="7.2007750">
        <ele>2383.2</ele>
        <time>2017-07-23T10:09:07Z</time>
      </trkpt>
      <trkpt lat="44.2042560" lon="7.2007690">
        <ele>2383.0</ele>
        <time>2017-07-23T10:09:08Z</time>
      </trkpt>
      <trkpt lat="44.2043040" lon="7.2007480">
        <ele>2382.4</ele>
        <time>2017-07-23T10:09:09Z</time>
      </trkpt>
      <trkpt lat="44.2043450" lon="7.2007190">
        <ele>2382.0</ele>
        <time>2017-07-23T10:09:10Z</time>
      </trkpt>
      <trkpt lat="44.2044720" lon="7.2006300">
        <ele>2380.6</ele>
        <time>2017-07-23T10:09:13Z</time>
      </trkpt>
      <trkpt lat="44.2045130" lon="7.2005970">
        <ele>2380.4</ele>
        <time>2017-07-23T10:09:14Z</time>
      </trkpt>
      <trkpt lat="44.2046360" lon="7.2004260">
        <ele>2380.0</ele>
        <time>2017-07-23T10:09:18Z</time>
      </trkpt>
      <trkpt lat="44.2046600" lon="7.2003920">
        <ele>2379.6</ele>
        <time>2017-07-23T10:09:19Z</time>
      </trkpt>
      <trkpt lat="44.2046810" lon="7.2003600">
        <ele>2379.2</ele>
        <time>2017-07-23T10:09:20Z</time>
      </trkpt>
      <trkpt lat="44.2047660" lon="7.2001810">
        <ele>2378.0</ele>
        <time>2017-07-23T10:09:25Z</time>
      </trkpt>
      <trkpt lat="44.2047990" lon="7.2000630">
        <ele>2376.8</ele>
        <time>2017-07-23T10:09:28Z</time>
      </trkpt>
      <trkpt lat="44.2048080" lon="7.2000310">
        <ele>2376.6</ele>
        <time>2017-07-23T10:09:29Z</time>
      </trkpt>
      <trkpt lat="44.2048510" lon="7.1999590">
        <ele>2374.0</ele>
        <time>2017-07-23T10:09:36Z</time>
      </trkpt>
      <trkpt lat="44.2048540" lon="7.1999200">
        <ele>2372.4</ele>
        <time>2017-07-23T10:09:38Z</time>
      </trkpt>
      <trkpt lat="44.2048460" lon="7.1999080">
        <ele>2371.4</ele>
        <time>2017-07-23T10:09:39Z</time>
      </trkpt>
      <trkpt lat="44.2048370" lon="7.1999080">
        <ele>2370.4</ele>
        <time>2017-07-23T10:09:40Z</time>
      </trkpt>
      <trkpt lat="44.2048110" lon="7.1998770">
        <ele>2365.4</ele>
        <time>2017-07-23T10:09:49Z</time>
      </trkpt>
      <trkpt lat="44.2048050" lon="7.1998590">
        <ele>2365.0</ele>
        <time>2017-07-23T10:09:50Z</time>
      </trkpt>
      <trkpt lat="44.2047790" lon="7.1998210">
        <ele>2363.0</ele>
        <time>2017-07-23T10:09:54Z</time>
      </trkpt>
      <trkpt lat="44.2047660" lon="7.1997910">
        <ele>2361.6</ele>
        <time>2017-07-23T10:09:56Z</time>
      </trkpt>
      <trkpt lat="44.2047560" lon="7.1997710">
        <ele>2360.6</ele>
        <time>2017-07-23T10:09:58Z</time>
      </trkpt>
      <trkpt lat="44.2047360" lon="7.1997290">
        <ele>2357.8</ele>
        <time>2017-07-23T10:10:03Z</time>
      </trkpt>
      <trkpt lat="44.2047270" lon="7.1997070">
        <ele>2357.2</ele>
        <time>2017-07-23T10:10:04Z</time>
      </trkpt>
      <trkpt lat="44.2047200" lon="7.1996920">
        <ele>2356.8</ele>
        <time>2017-07-23T10:10:05Z</time>
      </trkpt>
      <trkpt lat="44.2046970" lon="7.1996420">
        <ele>2353.4</ele>
        <time>2017-07-23T10:10:13Z</time>
      </trkpt>
      <trkpt lat="44.2046880" lon="7.1996120">
        <ele>2353.0</ele>
        <time>2017-07-23T10:10:14Z</time>
      </trkpt>
      <trkpt lat="44.2046790" lon="7.1995780">
        <ele>2352.2</ele>
        <time>2017-07-23T10:10:16Z</time>
      </trkpt>
      <trkpt lat="44.2046660" lon="7.1995080">
        <ele>2351.0</ele>
        <time>2017-07-23T10:10:21Z</time>
      </trkpt>
      <trkpt lat="44.2046880" lon="7.1993700">
        <ele>2350.2</ele>
        <time>2017-07-23T10:10:27Z</time>
      </trkpt>
      <trkpt lat="44.2047340" lon="7.1992780">
        <ele>2350.4</ele>
        <time>2017-07-23T10:10:33Z</time>
      </trkpt>
      <trkpt lat="44.2047130" lon="7.1992950">
        <ele>2349.8</ele>
        <time>2017-07-23T10:10:35Z</time>
      </trkpt>
      <trkpt lat="44.2046800" lon="7.1993170">
        <ele>2347.4</ele>
        <time>2017-07-23T10:10:41Z</time>
      </trkpt>
      <trkpt lat="44.2046370" lon="7.1993340">
        <ele>2346.4</ele>
        <time>2017-07-23T10:10:43Z</time>
      </trkpt>
      <trkpt lat="44.2046060" lon="7.1993310">
        <ele>2345.0</ele>
        <time>2017-07-23T10:10:45Z</time>
      </trkpt>
      <trkpt lat="44.2045840" lon="7.1993270">
        <ele>2344.4</ele>
        <time>2017-07-23T10:10:46Z</time>
      </trkpt>
      <trkpt lat="44.2045340" lon="7.1993250">
        <ele>2343.6</ele>
        <time>2017-07-23T10:10:48Z</time>
      </trkpt>
      <trkpt lat="44.2045070" lon="7.1993230">
        <ele>2342.6</ele>
        <time>2017-07-23T10:10:49Z</time>
      </trkpt>
      <trkpt lat="44.2044800" lon="7.1993090">
        <ele>2342.2</ele>
        <time>2017-07-23T10:10:50Z</time>
      </trkpt>
      <trkpt lat="44.2044190" lon="7.1992980">
        <ele>2341.6</ele>
        <time>2017-07-23T10:10:52Z</time>
      </trkpt>
      <trkpt lat="44.2043710" lon="7.1992880">
        <ele>2340.4</ele>
        <time>2017-07-23T10:10:54Z</time>
      </trkpt>
      <trkpt lat="44.2043480" lon="7.1992860">
        <ele>2339.8</ele>
        <time>2017-07-23T10:10:55Z</time>
      </trkpt>
      <trkpt lat="44.2043220" lon="7.1992730">
        <ele>2339.0</ele>
        <time>2017-07-23T10:10:57Z</time>
      </trkpt>
      <trkpt lat="44.2043260" lon="7.1992540">
        <ele>2338.6</ele>
        <time>2017-07-23T10:10:58Z</time>
      </trkpt>
      <trkpt lat="44.2043380" lon="7.1992380">
        <ele>2338.4</ele>
        <time>2017-07-23T10:10:59Z</time>
      </trkpt>
      <trkpt lat="44.2044280" lon="7.1991450">
        <ele>2338.2</ele>
        <time>2017-07-23T10:11:04Z</time>
      </trkpt>
      <trkpt lat="44.2045320" lon="7.1990170">
        <ele>2338.2</ele>
        <time>2017-07-23T10:11:10Z</time>
      </trkpt>
      <trkpt lat="44.2045420" lon="7.1990000">
        <ele>2338.2</ele>
        <time>2017-07-23T10:11:11Z</time>
      </trkpt>
      <trkpt lat="44.2045430" lon="7.1989870">
        <ele>2338.0</ele>
        <time>2017-07-23T10:11:12Z</time>
      </trkpt>
      <trkpt lat="44.2045210" lon="7.1989930">
        <ele>2337.4</ele>
        <time>2017-07-23T10:11:13Z</time>
      </trkpt>
      <trkpt lat="44.2044940" lon="7.1990010">
        <ele>2336.8</ele>
        <time>2017-07-23T10:11:14Z</time>
      </trkpt>
      <trkpt lat="44.2044510" lon="7.1989980">
        <ele>2335.8</ele>
        <time>2017-07-23T10:11:16Z</time>
      </trkpt>
      <trkpt lat="44.2044290" lon="7.1989810">
        <ele>2334.6</ele>
        <time>2017-07-23T10:11:18Z</time>
      </trkpt>
      <trkpt lat="44.2044690" lon="7.1989290">
        <ele>2333.4</ele>
        <time>2017-07-23T10:11:21Z</time>
      </trkpt>
      <trkpt lat="44.2044990" lon="7.1988950">
        <ele>2333.0</ele>
        <time>2017-07-23T10:11:22Z</time>
      </trkpt>
      <trkpt lat="44.2045640" lon="7.1988330">
        <ele>2332.4</ele>
        <time>2017-07-23T10:11:24Z</time>
      </trkpt>
      <trkpt lat="44.2046010" lon="7.1988090">
        <ele>2332.0</ele>
        <time>2017-07-23T10:11:25Z</time>
      </trkpt>
      <trkpt lat="44.2046370" lon="7.1987810">
        <ele>2331.8</ele>
        <time>2017-07-23T10:11:26Z</time>
      </trkpt>
      <trkpt lat="44.2047090" lon="7.1987200">
        <ele>2331.2</ele>
        <time>2017-07-23T10:11:28Z</time>
      </trkpt>
      <trkpt lat="44.2048030" lon="7.1986190">
        <ele>2330.0</ele>
        <time>2017-07-23T10:11:31Z</time>
      </trkpt>
      <trkpt lat="44.2048390" lon="7.1985890">
        <ele>2329.6</ele>
        <time>2017-07-23T10:11:32Z</time>
      </trkpt>
      <trkpt lat="44.2049130" lon="7.1985320">
        <ele>2328.8</ele>
        <time>2017-07-23T10:11:34Z</time>
      </trkpt>
      <trkpt lat="44.2049860" lon="7.1984710">
        <ele>2327.6</ele>
        <time>2017-07-23T10:11:36Z</time>
      </trkpt>
      <trkpt lat="44.2050270" lon="7.1984390">
        <ele>2326.6</ele>
        <time>2017-07-23T10:11:37Z</time>
      </trkpt>
      <trkpt lat="44.2050950" lon="7.1983700">
        <ele>2325.0</ele>
        <time>2017-07-23T10:11:39Z</time>
      </trkpt>
      <trkpt lat="44.2051500" lon="7.1983040">
        <ele>2323.6</ele>
        <time>2017-07-23T10:11:41Z</time>
      </trkpt>
      <trkpt lat="44.2051730" lon="7.1982730">
        <ele>2322.8</ele>
        <time>2017-07-23T10:11:42Z</time>
      </trkpt>
      <trkpt lat="44.2051960" lon="7.1982450">
        <ele>2322.2</ele>
        <time>2017-07-23T10:11:43Z</time>
      </trkpt>
      <trkpt lat="44.2052470" lon="7.1981990">
        <ele>2321.0</ele>
        <time>2017-07-23T10:11:45Z</time>
      </trkpt>
      <trkpt lat="44.2052960" lon="7.1981660">
        <ele>2319.4</ele>
        <time>2017-07-23T10:11:47Z</time>
      </trkpt>
      <trkpt lat="44.2053150" lon="7.1981550">
        <ele>2318.4</ele>
        <time>2017-07-23T10:11:48Z</time>
      </trkpt>
      <trkpt lat="44.2053230" lon="7.1981420">
        <ele>2317.6</ele>
        <time>2017-07-23T10:11:49Z</time>
      </trkpt>
      <trkpt lat="44.2052970" lon="7.1981490">
        <ele>2315.4</ele>
        <time>2017-07-23T10:11:51Z</time>
      </trkpt>
      <trkpt lat="44.2052730" lon="7.1981420">
        <ele>2314.4</ele>
        <time>2017-07-23T10:11:52Z</time>
      </trkpt>
      <trkpt lat="44.2052370" lon="7.1981350">
        <ele>2313.2</ele>
        <time>2017-07-23T10:11:53Z</time>
      </trkpt>
      <trkpt lat="44.2051950" lon="7.1981340">
        <ele>2312.2</ele>
        <time>2017-07-23T10:11:54Z</time>
      </trkpt>
      <trkpt lat="44.2051550" lon="7.1981350">
        <ele>2311.0</ele>
        <time>2017-07-23T10:11:55Z</time>
      </trkpt>
      <trkpt lat="44.2051220" lon="7.1981290">
        <ele>2309.8</ele>
        <time>2017-07-23T10:11:56Z</time>
      </trkpt>
      <trkpt lat="44.2050950" lon="7.1981240">
        <ele>2308.4</ele>
        <time>2017-07-23T10:11:57Z</time>
      </trkpt>
      <trkpt lat="44.2050750" lon="7.1981160">
        <ele>2307.2</ele>
        <time>2017-07-23T10:11:58Z</time>
      </trkpt>
      <trkpt lat="44.2050510" lon="7.1981160">
        <ele>2306.0</ele>
        <time>2017-07-23T10:11:59Z</time>
      </trkpt>
      <trkpt lat="44.2050230" lon="7.1981180">
        <ele>2304.6</ele>
        <time>2017-07-23T10:12:00Z</time>
      </trkpt>
      <trkpt lat="44.2049930" lon="7.1981190">
        <ele>2302.4</ele>
        <time>2017-07-23T10:12:01Z</time>
      </trkpt>
      <trkpt lat="44.2049710" lon="7.1981030">
        <ele>2301.4</ele>
        <time>2017-07-23T10:12:02Z</time>
      </trkpt>
      <trkpt lat="44.2049710" lon="7.1980870">
        <ele>2300.4</ele>
        <time>2017-07-23T10:12:03Z</time>
      </trkpt>
      <trkpt lat="44.2050120" lon="7.1980580">
        <ele>2298.6</ele>
        <time>2017-07-23T10:12:05Z</time>
      </trkpt>
      <trkpt lat="44.2050390" lon="7.1980430">
        <ele>2298.2</ele>
        <time>2017-07-23T10:12:06Z</time>
      </trkpt>
      <trkpt lat="44.2050720" lon="7.1980240">
        <ele>2297.6</ele>
        <time>2017-07-23T10:12:07Z</time>
      </trkpt>
      <trkpt lat="44.2051450" lon="7.1980000">
        <ele>2296.6</ele>
        <time>2017-07-23T10:12:10Z</time>
      </trkpt>
      <trkpt lat="44.2051870" lon="7.1979810">
        <ele>2296.2</ele>
        <time>2017-07-23T10:12:11Z</time>
      </trkpt>
      <trkpt lat="44.2052290" lon="7.1979560">
        <ele>2295.6</ele>
        <time>2017-07-23T10:12:12Z</time>
      </trkpt>
      <trkpt lat="44.2052770" lon="7.1979370">
        <ele>2295.0</ele>
        <time>2017-07-23T10:12:13Z</time>
      </trkpt>
      <trkpt lat="44.2054280" lon="7.1979180">
        <ele>2293.6</ele>
        <time>2017-07-23T10:12:16Z</time>
      </trkpt>
      <trkpt lat="44.2054810" lon="7.1979090">
        <ele>2293.0</ele>
        <time>2017-07-23T10:12:17Z</time>
      </trkpt>
      <trkpt lat="44.2055290" lon="7.1978920">
        <ele>2292.6</ele>
        <time>2017-07-23T10:12:18Z</time>
      </trkpt>
      <trkpt lat="44.2056500" lon="7.1978400">
        <ele>2291.0</ele>
        <time>2017-07-23T10:12:21Z</time>
      </trkpt>
      <trkpt lat="44.2056840" lon="7.1977990">
        <ele>2290.0</ele>
        <time>2017-07-23T10:12:23Z</time>
      </trkpt>
      <trkpt lat="44.2057130" lon="7.1977600">
        <ele>2287.0</ele>
        <time>2017-07-23T10:12:29Z</time>
      </trkpt>
      <trkpt lat="44.2057490" lon="7.1977150">
        <ele>2286.2</ele>
        <time>2017-07-23T10:12:31Z</time>
      </trkpt>
      <trkpt lat="44.2057710" lon="7.1976880">
        <ele>2286.0</ele>
        <time>2017-07-23T10:12:32Z</time>
      </trkpt>
      <trkpt lat="44.2058260" lon="7.1976480">
        <ele>2284.8</ele>
        <time>2017-07-23T10:12:34Z</time>
      </trkpt>
      <trkpt lat="44.2058790" lon="7.1976060">
        <ele>2284.0</ele>
        <time>2017-07-23T10:12:36Z</time>
      </trkpt>
      <trkpt lat="44.2058880" lon="7.1975960">
        <ele>2283.6</ele>
        <time>2017-07-23T10:12:37Z</time>
      </trkpt>
      <trkpt lat="44.2059090" lon="7.1975550">
        <ele>2282.6</ele>
        <time>2017-07-23T10:12:40Z</time>
      </trkpt>
      <trkpt lat="44.2059190" lon="7.1975370">
        <ele>2282.4</ele>
        <time>2017-07-23T10:12:41Z</time>
      </trkpt>
      <trkpt lat="44.2059560" lon="7.1975110">
        <ele>2273.6</ele>
        <time>2017-07-23T10:13:01Z</time>
      </trkpt>
      <trkpt lat="44.2059700" lon="7.1974950">
        <ele>2273.4</ele>
        <time>2017-07-23T10:13:02Z</time>
      </trkpt>
      <trkpt lat="44.2060390" lon="7.1974220">
        <ele>2272.4</ele>
        <time>2017-07-23T10:13:07Z</time>
      </trkpt>
      <trkpt lat="44.2060590" lon="7.1974110">
        <ele>2272.4</ele>
        <time>2017-07-23T10:13:08Z</time>
      </trkpt>
      <trkpt lat="44.2061670" lon="7.1973190">
        <ele>2272.6</ele>
        <time>2017-07-23T10:13:12Z</time>
      </trkpt>
      <trkpt lat="44.2062050" lon="7.1972740">
        <ele>2272.6</ele>
        <time>2017-07-23T10:13:13Z</time>
      </trkpt>
      <trkpt lat="44.2063310" lon="7.1971200">
        <ele>2272.0</ele>
        <time>2017-07-23T10:13:16Z</time>
      </trkpt>
      <trkpt lat="44.2064590" lon="7.1969710">
        <ele>2271.4</ele>
        <time>2017-07-23T10:13:20Z</time>
      </trkpt>
      <trkpt lat="44.2065640" lon="7.1968700">
        <ele>2270.4</ele>
        <time>2017-07-23T10:13:23Z</time>
      </trkpt>
      <trkpt lat="44.2066740" lon="7.1967970">
        <ele>2269.0</ele>
        <time>2017-07-23T10:13:26Z</time>
      </trkpt>
      <trkpt lat="44.2067160" lon="7.1967810">
        <ele>2268.4</ele>
        <time>2017-07-23T10:13:27Z</time>
      </trkpt>
      <trkpt lat="44.2067930" lon="7.1967560">
        <ele>2267.8</ele>
        <time>2017-07-23T10:13:29Z</time>
      </trkpt>
      <trkpt lat="44.2068490" lon="7.1967280">
        <ele>2266.4</ele>
        <time>2017-07-23T10:13:31Z</time>
      </trkpt>
      <trkpt lat="44.2069390" lon="7.1967000">
        <ele>2264.8</ele>
        <time>2017-07-23T10:13:34Z</time>
      </trkpt>
      <trkpt lat="44.2069720" lon="7.1966840">
        <ele>2264.4</ele>
        <time>2017-07-23T10:13:35Z</time>
      </trkpt>
      <trkpt lat="44.2070010" lon="7.1966700">
        <ele>2263.8</ele>
        <time>2017-07-23T10:13:36Z</time>
      </trkpt>
      <trkpt lat="44.2070340" lon="7.1966470">
        <ele>2261.4</ele>
        <time>2017-07-23T10:13:38Z</time>
      </trkpt>
      <trkpt lat="44.2070460" lon="7.1966340">
        <ele>2260.8</ele>
        <time>2017-07-23T10:13:39Z</time>
      </trkpt>
      <trkpt lat="44.2070610" lon="7.1966170">
        <ele>2260.2</ele>
        <time>2017-07-23T10:13:40Z</time>
      </trkpt>
      <trkpt lat="44.2070900" lon="7.1965900">
        <ele>2258.6</ele>
        <time>2017-07-23T10:13:42Z</time>
      </trkpt>
      <trkpt lat="44.2071220" lon="7.1965690">
        <ele>2257.2</ele>
        <time>2017-07-23T10:13:44Z</time>
      </trkpt>
      <trkpt lat="44.2071310" lon="7.1965610">
        <ele>2256.6</ele>
        <time>2017-07-23T10:13:45Z</time>
      </trkpt>
      <trkpt lat="44.2071800" lon="7.1965240">
        <ele>2251.8</ele>
        <time>2017-07-23T10:13:52Z</time>
      </trkpt>
      <trkpt lat="44.2072270" lon="7.1965050">
        <ele>2250.6</ele>
        <time>2017-07-23T10:13:54Z</time>
      </trkpt>
      <trkpt lat="44.2072550" lon="7.1964910">
        <ele>2249.8</ele>
        <time>2017-07-23T10:13:55Z</time>
      </trkpt>
      <trkpt lat="44.2072850" lon="7.1964750">
        <ele>2249.0</ele>
        <time>2017-07-23T10:13:56Z</time>
      </trkpt>
      <trkpt lat="44.2073910" lon="7.1964150">
        <ele>2247.4</ele>
        <time>2017-07-23T10:13:59Z</time>
      </trkpt>
      <trkpt lat="44.2074220" lon="7.1963970">
        <ele>2246.8</ele>
        <time>2017-07-23T10:14:00Z</time>
      </trkpt>
      <trkpt lat="44.2074590" lon="7.1963790">
        <ele>2246.0</ele>
        <time>2017-07-23T10:14:01Z</time>
      </trkpt>
      <trkpt lat="44.2074980" lon="7.1963510">
        <ele>2244.8</ele>
        <time>2017-07-23T10:14:02Z</time>
      </trkpt>
      <trkpt lat="44.2075780" lon="7.1962840">
        <ele>2243.4</ele>
        <time>2017-07-23T10:14:04Z</time>
      </trkpt>
      <trkpt lat="44.2076170" lon="7.1962520">
        <ele>2242.6</ele>
        <time>2017-07-23T10:14:05Z</time>
      </trkpt>
      <trkpt lat="44.2076520" lon="7.1962210">
        <ele>2241.8</ele>
        <time>2017-07-23T10:14:06Z</time>
      </trkpt>
      <trkpt lat="44.2077080" lon="7.1961480">
        <ele>2240.4</ele>
        <time>2017-07-23T10:14:08Z</time>
      </trkpt>
      <trkpt lat="44.2077420" lon="7.1960840">
        <ele>2238.4</ele>
        <time>2017-07-23T10:14:10Z</time>
      </trkpt>
      <trkpt lat="44.2077660" lon="7.1960200">
        <ele>2237.0</ele>
        <time>2017-07-23T10:14:12Z</time>
      </trkpt>
      <trkpt lat="44.2077900" lon="7.1959530">
        <ele>2235.4</ele>
        <time>2017-07-23T10:14:14Z</time>
      </trkpt>
      <trkpt lat="44.2078040" lon="7.1959000">
        <ele>2233.6</ele>
        <time>2017-07-23T10:14:16Z</time>
      </trkpt>
      <trkpt lat="44.2078140" lon="7.1958400">
        <ele>2232.2</ele>
        <time>2017-07-23T10:14:18Z</time>
      </trkpt>
      <trkpt lat="44.2078120" lon="7.1958060">
        <ele>2231.4</ele>
        <time>2017-07-23T10:14:19Z</time>
      </trkpt>
      <trkpt lat="44.2078150" lon="7.1957750">
        <ele>2230.4</ele>
        <time>2017-07-23T10:14:20Z</time>
      </trkpt>
      <trkpt lat="44.2078190" lon="7.1957550">
        <ele>2229.4</ele>
        <time>2017-07-23T10:14:21Z</time>
      </trkpt>
      <trkpt lat="44.2078240" lon="7.1957190">
        <ele>2227.6</ele>
        <time>2017-07-23T10:14:23Z</time>
      </trkpt>
      <trkpt lat="44.2078320" lon="7.1956820">
        <ele>2225.6</ele>
        <time>2017-07-23T10:14:25Z</time>
      </trkpt>
      <trkpt lat="44.2078310" lon="7.1956610">
        <ele>2223.8</ele>
        <time>2017-07-23T10:14:26Z</time>
      </trkpt>
      <trkpt lat="44.2078230" lon="7.1956350">
        <ele>2222.0</ele>
        <time>2017-07-23T10:14:28Z</time>
      </trkpt>
      <trkpt lat="44.2078260" lon="7.1955840">
        <ele>2220.4</ele>
        <time>2017-07-23T10:14:30Z</time>
      </trkpt>
      <trkpt lat="44.2078240" lon="7.1955360">
        <ele>2218.8</ele>
        <time>2017-07-23T10:14:32Z</time>
      </trkpt>
      <trkpt lat="44.2078050" lon="7.1955230">
        <ele>2217.8</ele>
        <time>2017-07-23T10:14:33Z</time>
      </trkpt>
      <trkpt lat="44.2077830" lon="7.1955010">
        <ele>2217.2</ele>
        <time>2017-07-23T10:14:34Z</time>
      </trkpt>
      <trkpt lat="44.2077550" lon="7.1954790">
        <ele>2216.2</ele>
        <time>2017-07-23T10:14:35Z</time>
      </trkpt>
      <trkpt lat="44.2077030" lon="7.1954330">
        <ele>2214.2</ele>
        <time>2017-07-23T10:14:37Z</time>
      </trkpt>
      <trkpt lat="44.2076760" lon="7.1954030">
        <ele>2213.2</ele>
        <time>2017-07-23T10:14:38Z</time>
      </trkpt>
      <trkpt lat="44.2076450" lon="7.1953790">
        <ele>2212.2</ele>
        <time>2017-07-23T10:14:39Z</time>
      </trkpt>
      <trkpt lat="44.2075670" lon="7.1953180">
        <ele>2210.4</ele>
        <time>2017-07-23T10:14:41Z</time>
      </trkpt>
      <trkpt lat="44.2074740" lon="7.1952430">
        <ele>2208.6</ele>
        <time>2017-07-23T10:14:43Z</time>
      </trkpt>
      <trkpt lat="44.2074280" lon="7.1952150">
        <ele>2208.0</ele>
        <time>2017-07-23T10:14:44Z</time>
      </trkpt>
      <trkpt lat="44.2073910" lon="7.1951800">
        <ele>2207.0</ele>
        <time>2017-07-23T10:14:45Z</time>
      </trkpt>
      <trkpt lat="44.2073600" lon="7.1951540">
        <ele>2205.8</ele>
        <time>2017-07-23T10:14:46Z</time>
      </trkpt>
      <trkpt lat="44.2073350" lon="7.1951400">
        <ele>2204.8</ele>
        <time>2017-07-23T10:14:47Z</time>
      </trkpt>
      <trkpt lat="44.2073230" lon="7.1951190">
        <ele>2203.8</ele>
        <time>2017-07-23T10:14:48Z</time>
      </trkpt>
      <trkpt lat="44.2073270" lon="7.1951050">
        <ele>2203.2</ele>
        <time>2017-07-23T10:14:49Z</time>
      </trkpt>
      <trkpt lat="44.2073430" lon="7.1950940">
        <ele>2201.8</ele>
        <time>2017-07-23T10:14:50Z</time>
      </trkpt>
      <trkpt lat="44.2074640" lon="7.1950490">
        <ele>2200.6</ele>
        <time>2017-07-23T10:14:53Z</time>
      </trkpt>
      <trkpt lat="44.2075740" lon="7.1949920">
        <ele>2199.0</ele>
        <time>2017-07-23T10:14:56Z</time>
      </trkpt>
      <trkpt lat="44.2076070" lon="7.1949740">
        <ele>2198.6</ele>
        <time>2017-07-23T10:14:57Z</time>
      </trkpt>
      <trkpt lat="44.2076810" lon="7.1949560">
        <ele>2197.8</ele>
        <time>2017-07-23T10:14:59Z</time>
      </trkpt>
      <trkpt lat="44.2077680" lon="7.1949620">
        <ele>2196.8</ele>
        <time>2017-07-23T10:15:01Z</time>
      </trkpt>
      <trkpt lat="44.2078170" lon="7.1949720">
        <ele>2196.2</ele>
        <time>2017-07-23T10:15:02Z</time>
      </trkpt>
      <trkpt lat="44.2078650" lon="7.1949830">
        <ele>2195.6</ele>
        <time>2017-07-23T10:15:03Z</time>
      </trkpt>
      <trkpt lat="44.2079560" lon="7.1950050">
        <ele>2194.2</ele>
        <time>2017-07-23T10:15:05Z</time>
      </trkpt>
      <trkpt lat="44.2080330" lon="7.1950120">
        <ele>2192.6</ele>
        <time>2017-07-23T10:15:07Z</time>
      </trkpt>
      <trkpt lat="44.2080530" lon="7.1949870">
        <ele>2192.0</ele>
        <time>2017-07-23T10:15:08Z</time>
      </trkpt>
      <trkpt lat="44.2080660" lon="7.1949620">
        <ele>2191.4</ele>
        <time>2017-07-23T10:15:09Z</time>
      </trkpt>
      <trkpt lat="44.2080830" lon="7.1949040">
        <ele>2190.4</ele>
        <time>2017-07-23T10:15:11Z</time>
      </trkpt>
      <trkpt lat="44.2080960" lon="7.1948780">
        <ele>2189.8</ele>
        <time>2017-07-23T10:15:12Z</time>
      </trkpt>
      <trkpt lat="44.2081020" lon="7.1948250">
        <ele>2188.4</ele>
        <time>2017-07-23T10:15:14Z</time>
      </trkpt>
      <trkpt lat="44.2080620" lon="7.1948420">
        <ele>2186.2</ele>
        <time>2017-07-23T10:15:16Z</time>
      </trkpt>
      <trkpt lat="44.2080350" lon="7.1948480">
        <ele>2185.2</ele>
        <time>2017-07-23T10:15:17Z</time>
      </trkpt>
      <trkpt lat="44.2079810" lon="7.1948380">
        <ele>2183.6</ele>
        <time>2017-07-23T10:15:19Z</time>
      </trkpt>
      <trkpt lat="44.2079540" lon="7.1948280">
        <ele>2182.8</ele>
        <time>2017-07-23T10:15:20Z</time>
      </trkpt>
      <trkpt lat="44.2079260" lon="7.1948160">
        <ele>2181.8</ele>
        <time>2017-07-23T10:15:21Z</time>
      </trkpt>
      <trkpt lat="44.2078700" lon="7.1947660">
        <ele>2180.0</ele>
        <time>2017-07-23T10:15:23Z</time>
      </trkpt>
      <trkpt lat="44.2078030" lon="7.1947050">
        <ele>2178.4</ele>
        <time>2017-07-23T10:15:25Z</time>
      </trkpt>
      <trkpt lat="44.2077200" lon="7.1946420">
        <ele>2176.6</ele>
        <time>2017-07-23T10:15:27Z</time>
      </trkpt>
      <trkpt lat="44.2076350" lon="7.1945820">
        <ele>2175.0</ele>
        <time>2017-07-23T10:15:29Z</time>
      </trkpt>
      <trkpt lat="44.2075890" lon="7.1945570">
        <ele>2174.2</ele>
        <time>2017-07-23T10:15:30Z</time>
      </trkpt>
      <trkpt lat="44.2075410" lon="7.1945350">
        <ele>2173.4</ele>
        <time>2017-07-23T10:15:31Z</time>
      </trkpt>
      <trkpt lat="44.2074460" lon="7.1944860">
        <ele>2171.8</ele>
        <time>2017-07-23T10:15:33Z</time>
      </trkpt>
      <trkpt lat="44.2073560" lon="7.1944500">
        <ele>2170.0</ele>
        <time>2017-07-23T10:15:35Z</time>
      </trkpt>
      <trkpt lat="44.2073220" lon="7.1944510">
        <ele>2169.2</ele>
        <time>2017-07-23T10:15:36Z</time>
      </trkpt>
      <trkpt lat="44.2073120" lon="7.1944350">
        <ele>2168.2</ele>
        <time>2017-07-23T10:15:37Z</time>
      </trkpt>
      <trkpt lat="44.2073060" lon="7.1944200">
        <ele>2166.8</ele>
        <time>2017-07-23T10:15:38Z</time>
      </trkpt>
      <trkpt lat="44.2073250" lon="7.1944120">
        <ele>2166.4</ele>
        <time>2017-07-23T10:15:39Z</time>
      </trkpt>
      <trkpt lat="44.2073900" lon="7.1943680">
        <ele>2165.6</ele>
        <time>2017-07-23T10:15:41Z</time>
      </trkpt>
      <trkpt lat="44.2074280" lon="7.1943340">
        <ele>2165.2</ele>
        <time>2017-07-23T10:15:42Z</time>
      </trkpt>
      <trkpt lat="44.2075190" lon="7.1942620">
        <ele>2164.2</ele>
        <time>2017-07-23T10:15:44Z</time>
      </trkpt>
      <trkpt lat="44.2076160" lon="7.1941930">
        <ele>2163.0</ele>
        <time>2017-07-23T10:15:46Z</time>
      </trkpt>
      <trkpt lat="44.2077570" lon="7.1941080">
        <ele>2162.0</ele>
        <time>2017-07-23T10:15:49Z</time>
      </trkpt>
      <trkpt lat="44.2078030" lon="7.1940800">
        <ele>2161.6</ele>
        <time>2017-07-23T10:15:50Z</time>
      </trkpt>
      <trkpt lat="44.2078370" lon="7.1940510">
        <ele>2161.2</ele>
        <time>2017-07-23T10:15:51Z</time>
      </trkpt>
      <trkpt lat="44.2078930" lon="7.1939860">
        <ele>2160.4</ele>
        <time>2017-07-23T10:15:53Z</time>
      </trkpt>
      <trkpt lat="44.2079640" lon="7.1939300">
        <ele>2159.0</ele>
        <time>2017-07-23T10:15:55Z</time>
      </trkpt>
      <trkpt lat="44.2080260" lon="7.1938730">
        <ele>2158.4</ele>
        <time>2017-07-23T10:15:57Z</time>
      </trkpt>
      <trkpt lat="44.2080490" lon="7.1938560">
        <ele>2157.8</ele>
        <time>2017-07-23T10:15:58Z</time>
      </trkpt>
      <trkpt lat="44.2080920" lon="7.1938100">
        <ele>2157.0</ele>
        <time>2017-07-23T10:16:00Z</time>
      </trkpt>
      <trkpt lat="44.2081020" lon="7.1937770">
        <ele>2156.4</ele>
        <time>2017-07-23T10:16:01Z</time>
      </trkpt>
      <trkpt lat="44.2081320" lon="7.1937180">
        <ele>2155.2</ele>
        <time>2017-07-23T10:16:03Z</time>
      </trkpt>
      <trkpt lat="44.2081460" lon="7.1936900">
        <ele>2155.0</ele>
        <time>2017-07-23T10:16:04Z</time>
      </trkpt>
      <trkpt lat="44.2081380" lon="7.1936760">
        <ele>2154.4</ele>
        <time>2017-07-23T10:16:05Z</time>
      </trkpt>
      <trkpt lat="44.2081230" lon="7.1936760">
        <ele>2153.6</ele>
        <time>2017-07-23T10:16:06Z</time>
      </trkpt>
      <trkpt lat="44.2081030" lon="7.1936780">
        <ele>2152.8</ele>
        <time>2017-07-23T10:16:07Z</time>
      </trkpt>
      <trkpt lat="44.2080770" lon="7.1936770">
        <ele>2152.0</ele>
        <time>2017-07-23T10:16:08Z</time>
      </trkpt>
      <trkpt lat="44.2080130" lon="7.1936660">
        <ele>2150.6</ele>
        <time>2017-07-23T10:16:10Z</time>
      </trkpt>
      <trkpt lat="44.2079850" lon="7.1936580">
        <ele>2149.8</ele>
        <time>2017-07-23T10:16:11Z</time>
      </trkpt>
      <trkpt lat="44.2079660" lon="7.1936280">
        <ele>2149.0</ele>
        <time>2017-07-23T10:16:12Z</time>
      </trkpt>
      <trkpt lat="44.2079410" lon="7.1935610">
        <ele>2147.4</ele>
        <time>2017-07-23T10:16:14Z</time>
      </trkpt>
      <trkpt lat="44.2079170" lon="7.1935130">
        <ele>2146.0</ele>
        <time>2017-07-23T10:16:16Z</time>
      </trkpt>
      <trkpt lat="44.2078840" lon="7.1934860">
        <ele>2144.2</ele>
        <time>2017-07-23T10:16:18Z</time>
      </trkpt>
      <trkpt lat="44.2078710" lon="7.1934750">
        <ele>2143.4</ele>
        <time>2017-07-23T10:16:19Z</time>
      </trkpt>
      <trkpt lat="44.2078570" lon="7.1934580">
        <ele>2142.8</ele>
        <time>2017-07-23T10:16:20Z</time>
      </trkpt>
      <trkpt lat="44.2078410" lon="7.1934210">
        <ele>2141.0</ele>
        <time>2017-07-23T10:16:22Z</time>
      </trkpt>
      <trkpt lat="44.2078870" lon="7.1933590">
        <ele>2137.6</ele>
        <time>2017-07-23T10:16:33Z</time>
      </trkpt>
      <trkpt lat="44.2079340" lon="7.1933090">
        <ele>2137.2</ele>
        <time>2017-07-23T10:16:37Z</time>
      </trkpt>
      <trkpt lat="44.2079650" lon="7.1932920">
        <ele>2137.0</ele>
        <time>2017-07-23T10:16:39Z</time>
      </trkpt>
      <trkpt lat="44.2080750" lon="7.1932580">
        <ele>2136.4</ele>
        <time>2017-07-23T10:16:44Z</time>
      </trkpt>
      <trkpt lat="44.2080970" lon="7.1932510">
        <ele>2136.2</ele>
        <time>2017-07-23T10:16:45Z</time>
      </trkpt>
      <trkpt lat="44.2081940" lon="7.1931900">
        <ele>2135.2</ele>
        <time>2017-07-23T10:16:49Z</time>
      </trkpt>
      <trkpt lat="44.2082250" lon="7.1931740">
        <ele>2134.8</ele>
        <time>2017-07-23T10:16:50Z</time>
      </trkpt>
      <trkpt lat="44.2083320" lon="7.1931350">
        <ele>2134.0</ele>
        <time>2017-07-23T10:16:53Z</time>
      </trkpt>
      <trkpt lat="44.2083590" lon="7.1931150">
        <ele>2133.6</ele>
        <time>2017-07-23T10:16:54Z</time>
      </trkpt>
      <trkpt lat="44.2084290" lon="7.1930670">
        <ele>2132.8</ele>
        <time>2017-07-23T10:16:56Z</time>
      </trkpt>
      <trkpt lat="44.2084880" lon="7.1930250">
        <ele>2132.2</ele>
        <time>2017-07-23T10:16:58Z</time>
      </trkpt>
      <trkpt lat="44.2085300" lon="7.1930020">
        <ele>2131.4</ele>
        <time>2017-07-23T10:17:00Z</time>
      </trkpt>
      <trkpt lat="44.2085870" lon="7.1929600">
        <ele>2130.2</ele>
        <time>2017-07-23T10:17:03Z</time>
      </trkpt>
      <trkpt lat="44.2086330" lon="7.1929390">
        <ele>2129.0</ele>
        <time>2017-07-23T10:17:05Z</time>
      </trkpt>
      <trkpt lat="44.2086980" lon="7.1929200">
        <ele>2127.8</ele>
        <time>2017-07-23T10:17:07Z</time>
      </trkpt>
      <trkpt lat="44.2087410" lon="7.1929250">
        <ele>2127.0</ele>
        <time>2017-07-23T10:17:08Z</time>
      </trkpt>
      <trkpt lat="44.2087770" lon="7.1929200">
        <ele>2126.2</ele>
        <time>2017-07-23T10:17:09Z</time>
      </trkpt>
      <trkpt lat="44.2088350" lon="7.1929110">
        <ele>2125.0</ele>
        <time>2017-07-23T10:17:11Z</time>
      </trkpt>
      <trkpt lat="44.2088900" lon="7.1929110">
        <ele>2123.6</ele>
        <time>2017-07-23T10:17:13Z</time>
      </trkpt>
      <trkpt lat="44.2089140" lon="7.1929180">
        <ele>2122.4</ele>
        <time>2017-07-23T10:17:14Z</time>
      </trkpt>
      <trkpt lat="44.2089390" lon="7.1929490">
        <ele>2120.6</ele>
        <time>2017-07-23T10:17:16Z</time>
      </trkpt>
      <trkpt lat="44.2089420" lon="7.1929870">
        <ele>2118.6</ele>
        <time>2017-07-23T10:17:18Z</time>
      </trkpt>
      <trkpt lat="44.2089640" lon="7.1929820">
        <ele>2117.2</ele>
        <time>2017-07-23T10:17:20Z</time>
      </trkpt>
      <trkpt lat="44.2089850" lon="7.1929000">
        <ele>2115.6</ele>
        <time>2017-07-23T10:17:23Z</time>
      </trkpt>
      <trkpt lat="44.2089680" lon="7.1928640">
        <ele>2114.8</ele>
        <time>2017-07-23T10:17:24Z</time>
      </trkpt>
      <trkpt lat="44.2089380" lon="7.1928450">
        <ele>2113.8</ele>
        <time>2017-07-23T10:17:25Z</time>
      </trkpt>
      <trkpt lat="44.2088780" lon="7.1927990">
        <ele>2112.4</ele>
        <time>2017-07-23T10:17:27Z</time>
      </trkpt>
      <trkpt lat="44.2087900" lon="7.1927520">
        <ele>2110.6</ele>
        <time>2017-07-23T10:17:29Z</time>
      </trkpt>
      <trkpt lat="44.2087470" lon="7.1927350">
        <ele>2109.6</ele>
        <time>2017-07-23T10:17:30Z</time>
      </trkpt>
      <trkpt lat="44.2087080" lon="7.1927140">
        <ele>2108.4</ele>
        <time>2017-07-23T10:17:31Z</time>
      </trkpt>
      <trkpt lat="44.2086540" lon="7.1926790">
        <ele>2106.6</ele>
        <time>2017-07-23T10:17:33Z</time>
      </trkpt>
      <trkpt lat="44.2086380" lon="7.1926510">
        <ele>2104.8</ele>
        <time>2017-07-23T10:17:35Z</time>
      </trkpt>
      <trkpt lat="44.2086850" lon="7.1926460">
        <ele>2102.4</ele>
        <time>2017-07-23T10:17:38Z</time>
      </trkpt>
      <trkpt lat="44.2087230" lon="7.1926440">
        <ele>2101.6</ele>
        <time>2017-07-23T10:17:39Z</time>
      </trkpt>
      <trkpt lat="44.2087630" lon="7.1926470">
        <ele>2101.0</ele>
        <time>2017-07-23T10:17:40Z</time>
      </trkpt>
      <trkpt lat="44.2088430" lon="7.1926420">
        <ele>2100.0</ele>
        <time>2017-07-23T10:17:42Z</time>
      </trkpt>
      <trkpt lat="44.2088960" lon="7.1926340">
        <ele>2098.8</ele>
        <time>2017-07-23T10:17:44Z</time>
      </trkpt>
      <trkpt lat="44.2089680" lon="7.1926380">
        <ele>2097.8</ele>
        <time>2017-07-23T10:17:46Z</time>
      </trkpt>
      <trkpt lat="44.2090570" lon="7.1926290">
        <ele>2096.6</ele>
        <time>2017-07-23T10:17:48Z</time>
      </trkpt>
      <trkpt lat="44.2091880" lon="7.1926180">
        <ele>2095.6</ele>
        <time>2017-07-23T10:17:51Z</time>
      </trkpt>
      <trkpt lat="44.2092660" lon="7.1926100">
        <ele>2094.4</ele>
        <time>2017-07-23T10:17:53Z</time>
      </trkpt>
      <trkpt lat="44.2093010" lon="7.1926080">
        <ele>2093.4</ele>
        <time>2017-07-23T10:17:54Z</time>
      </trkpt>
      <trkpt lat="44.2093420" lon="7.1925970">
        <ele>2092.8</ele>
        <time>2017-07-23T10:17:55Z</time>
      </trkpt>
      <trkpt lat="44.2093970" lon="7.1925710">
        <ele>2092.2</ele>
        <time>2017-07-23T10:17:57Z</time>
      </trkpt>
      <trkpt lat="44.2094190" lon="7.1925560">
        <ele>2091.6</ele>
        <time>2017-07-23T10:17:58Z</time>
      </trkpt>
      <trkpt lat="44.2094610" lon="7.1925330">
        <ele>2090.4</ele>
        <time>2017-07-23T10:18:00Z</time>
      </trkpt>
      <trkpt lat="44.2095040" lon="7.1925130">
        <ele>2089.2</ele>
        <time>2017-07-23T10:18:02Z</time>
      </trkpt>
      <trkpt lat="44.2095810" lon="7.1924610">
        <ele>2083.6</ele>
        <time>2017-07-23T10:18:15Z</time>
      </trkpt>
      <trkpt lat="44.2096140" lon="7.1924300">
        <ele>2082.4</ele>
        <time>2017-07-23T10:18:19Z</time>
      </trkpt>
      <trkpt lat="44.2096190" lon="7.1924220">
        <ele>2082.0</ele>
        <time>2017-07-23T10:18:20Z</time>
      </trkpt>
      <trkpt lat="44.2096510" lon="7.1923600">
        <ele>2080.4</ele>
        <time>2017-07-23T10:18:27Z</time>
      </trkpt>
      <trkpt lat="44.2097120" lon="7.1922280">
        <ele>2079.2</ele>
        <time>2017-07-23T10:18:37Z</time>
      </trkpt>
      <trkpt lat="44.2097580" lon="7.1921310">
        <ele>2078.4</ele>
        <time>2017-07-23T10:18:40Z</time>
      </trkpt>
      <trkpt lat="44.2097850" lon="7.1920320">
        <ele>2078.2</ele>
        <time>2017-07-23T10:18:42Z</time>
      </trkpt>
      <trkpt lat="44.2098000" lon="7.1919070">
        <ele>2077.4</ele>
        <time>2017-07-23T10:18:44Z</time>
      </trkpt>
      <trkpt lat="44.2098120" lon="7.1918500">
        <ele>2077.0</ele>
        <time>2017-07-23T10:18:45Z</time>
      </trkpt>
      <trkpt lat="44.2098250" lon="7.1917100">
        <ele>2076.0</ele>
        <time>2017-07-23T10:18:48Z</time>
      </trkpt>
      <trkpt lat="44.2098370" lon="7.1916490">
        <ele>2075.0</ele>
        <time>2017-07-23T10:18:50Z</time>
      </trkpt>
      <trkpt lat="44.2098720" lon="7.1914970">
        <ele>2073.6</ele>
        <time>2017-07-23T10:18:53Z</time>
      </trkpt>
      <trkpt lat="44.2098760" lon="7.1914510">
        <ele>2073.0</ele>
        <time>2017-07-23T10:18:54Z</time>
      </trkpt>
      <trkpt lat="44.2098900" lon="7.1913550">
        <ele>2072.4</ele>
        <time>2017-07-23T10:18:56Z</time>
      </trkpt>
      <trkpt lat="44.2098990" lon="7.1913050">
        <ele>2071.4</ele>
        <time>2017-07-23T10:18:58Z</time>
      </trkpt>
      <trkpt lat="44.2099160" lon="7.1912910">
        <ele>2070.8</ele>
        <time>2017-07-23T10:18:59Z</time>
      </trkpt>
      <trkpt lat="44.2099170" lon="7.1911740">
        <ele>2068.4</ele>
        <time>2017-07-23T10:19:07Z</time>
      </trkpt>
      <trkpt lat="44.2099170" lon="7.1911460">
        <ele>2068.2</ele>
        <time>2017-07-23T10:19:08Z</time>
      </trkpt>
      <trkpt lat="44.2099280" lon="7.1909270">
        <ele>2067.0</ele>
        <time>2017-07-23T10:19:13Z</time>
      </trkpt>
      <trkpt lat="44.2099210" lon="7.1908080">
        <ele>2065.8</ele>
        <time>2017-07-23T10:19:15Z</time>
      </trkpt>
      <trkpt lat="44.2098990" lon="7.1907020">
        <ele>2064.6</ele>
        <time>2017-07-23T10:19:17Z</time>
      </trkpt>
      <trkpt lat="44.2098870" lon="7.1906560">
        <ele>2064.0</ele>
        <time>2017-07-23T10:19:18Z</time>
      </trkpt>
      <trkpt lat="44.2098720" lon="7.1906120">
        <ele>2063.2</ele>
        <time>2017-07-23T10:19:19Z</time>
      </trkpt>
      <trkpt lat="44.2098470" lon="7.1904830">
        <ele>2062.6</ele>
        <time>2017-07-23T10:19:23Z</time>
      </trkpt>
      <trkpt lat="44.2098410" lon="7.1902840">
        <ele>2062.0</ele>
        <time>2017-07-23T10:19:28Z</time>
      </trkpt>
      <trkpt lat="44.2098460" lon="7.1901910">
        <ele>2061.6</ele>
        <time>2017-07-23T10:19:30Z</time>
      </trkpt>
      <trkpt lat="44.2098510" lon="7.1900810">
        <ele>2061.0</ele>
        <time>2017-07-23T10:19:32Z</time>
      </trkpt>
      <trkpt lat="44.2098640" lon="7.1900670">
        <ele>2060.2</ele>
        <time>2017-07-23T10:19:34Z</time>
      </trkpt>
      <trkpt lat="44.2104100" lon="7.1900800">
        <ele>2060.4</ele>
        <time>2017-07-23T10:21:06Z</time>
      </trkpt>
      <trkpt lat="44.2104320" lon="7.1900770">
        <ele>2060.8</ele>
        <time>2017-07-23T10:21:07Z</time>
      </trkpt>
      <trkpt lat="44.2105820" lon="7.1901040">
        <ele>2062.2</ele>
        <time>2017-07-23T10:21:13Z</time>
      </trkpt>
      <trkpt lat="44.2106660" lon="7.1901280">
        <ele>2062.0</ele>
        <time>2017-07-23T10:21:15Z</time>
      </trkpt>
      <trkpt lat="44.2107190" lon="7.1902020">
        <ele>2062.0</ele>
        <time>2017-07-23T10:21:17Z</time>
      </trkpt>
      <trkpt lat="44.2107190" lon="7.1904130">
        <ele>2061.4</ele>
        <time>2017-07-23T10:21:21Z</time>
      </trkpt>
      <trkpt lat="44.2107090" lon="7.1905030">
        <ele>2061.8</ele>
        <time>2017-07-23T10:21:25Z</time>
      </trkpt>
      <trkpt lat="44.2107130" lon="7.1905110">
        <ele>2061.8</ele>
        <time>2017-07-23T10:21:26Z</time>
      </trkpt>
      <trkpt lat="44.2107380" lon="7.1905210">
        <ele>2061.4</ele>
        <time>2017-07-23T10:21:29Z</time>
      </trkpt>
      <trkpt lat="44.2107620" lon="7.1905570">
        <ele>2061.4</ele>
        <time>2017-07-23T10:21:32Z</time>
      </trkpt>
      <trkpt lat="44.2108020" lon="7.1905850">
        <ele>2061.0</ele>
        <time>2017-07-23T10:21:34Z</time>
      </trkpt>
      <trkpt lat="44.2108590" lon="7.1906530">
        <ele>2060.0</ele>
        <time>2017-07-23T10:21:38Z</time>
      </trkpt>
      <trkpt lat="44.2108710" lon="7.1906620">
        <ele>2059.8</ele>
        <time>2017-07-23T10:21:39Z</time>
      </trkpt>
      <trkpt lat="44.2109150" lon="7.1907190">
        <ele>2060.0</ele>
        <time>2017-07-23T10:21:43Z</time>
      </trkpt>
      <trkpt lat="44.2109230" lon="7.1908750">
        <ele>2053.4</ele>
        <time>2017-07-23T10:22:14Z</time>
      </trkpt>
      <trkpt lat="44.2109870" lon="7.1909720">
        <ele>2052.8</ele>
        <time>2017-07-23T10:22:18Z</time>
      </trkpt>
      <trkpt lat="44.2110190" lon="7.1909970">
        <ele>2053.2</ele>
        <time>2017-07-23T10:22:21Z</time>
      </trkpt>
      <trkpt lat="44.2110600" lon="7.1910130">
        <ele>2053.8</ele>
        <time>2017-07-23T10:22:23Z</time>
      </trkpt>
      <trkpt lat="44.2111080" lon="7.1910230">
        <ele>2054.4</ele>
        <time>2017-07-23T10:22:25Z</time>
      </trkpt>
      <trkpt lat="44.2111620" lon="7.1910280">
        <ele>2055.6</ele>
        <time>2017-07-23T10:22:27Z</time>
      </trkpt>
      <trkpt lat="44.2112010" lon="7.1910070">
        <ele>2056.4</ele>
        <time>2017-07-23T10:22:29Z</time>
      </trkpt>
      <trkpt lat="44.2112170" lon="7.1909900">
        <ele>2056.6</ele>
        <time>2017-07-23T10:22:30Z</time>
      </trkpt>
      <trkpt lat="44.2112780" lon="7.1909920">
        <ele>2057.8</ele>
        <time>2017-07-23T10:22:33Z</time>
      </trkpt>
      <trkpt lat="44.2112960" lon="7.1910050">
        <ele>2057.8</ele>
        <time>2017-07-23T10:22:34Z</time>
      </trkpt>
      <trkpt lat="44.2113200" lon="7.1910660">
        <ele>2058.4</ele>
        <time>2017-07-23T10:22:37Z</time>
      </trkpt>
      <trkpt lat="44.2113120" lon="7.1911150">
        <ele>2058.6</ele>
        <time>2017-07-23T10:22:39Z</time>
      </trkpt>
      <trkpt lat="44.2113150" lon="7.1911420">
        <ele>2059.0</ele>
        <time>2017-07-23T10:22:40Z</time>
      </trkpt>
      <trkpt lat="44.2113450" lon="7.1911800">
        <ele>2059.2</ele>
        <time>2017-07-23T10:22:43Z</time>
      </trkpt>
      <trkpt lat="44.2113890" lon="7.1912260">
        <ele>2059.8</ele>
        <time>2017-07-23T10:22:46Z</time>
      </trkpt>
      <trkpt lat="44.2114060" lon="7.1912330">
        <ele>2060.0</ele>
        <time>2017-07-23T10:22:47Z</time>
      </trkpt>
      <trkpt lat="44.2114370" lon="7.1912540">
        <ele>2060.4</ele>
        <time>2017-07-23T10:22:49Z</time>
      </trkpt>
      <trkpt lat="44.2114540" lon="7.1912670">
        <ele>2060.8</ele>
        <time>2017-07-23T10:22:50Z</time>
      </trkpt>
      <trkpt lat="44.2114930" lon="7.1912890">
        <ele>2061.2</ele>
        <time>2017-07-23T10:22:52Z</time>
      </trkpt>
      <trkpt lat="44.2115720" lon="7.1913320">
        <ele>2062.0</ele>
        <time>2017-07-23T10:22:57Z</time>
      </trkpt>
      <trkpt lat="44.2115910" lon="7.1913410">
        <ele>2062.4</ele>
        <time>2017-07-23T10:22:58Z</time>
      </trkpt>
      <trkpt lat="44.2116620" lon="7.1913260">
        <ele>2063.4</ele>
        <time>2017-07-23T10:23:02Z</time>
      </trkpt>
      <trkpt lat="44.2116980" lon="7.1913160">
        <ele>2064.0</ele>
        <time>2017-07-23T10:23:04Z</time>
      </trkpt>
      <trkpt lat="44.2117330" lon="7.1913150">
        <ele>2064.6</ele>
        <time>2017-07-23T10:23:06Z</time>
      </trkpt>
      <trkpt lat="44.2118010" lon="7.1913140">
        <ele>2065.4</ele>
        <time>2017-07-23T10:23:10Z</time>
      </trkpt>
      <trkpt lat="44.2118140" lon="7.1913140">
        <ele>2065.8</ele>
        <time>2017-07-23T10:23:11Z</time>
      </trkpt>
      <trkpt lat="44.2118410" lon="7.1913320">
        <ele>2066.2</ele>
        <time>2017-07-23T10:23:13Z</time>
      </trkpt>
      <trkpt lat="44.2118480" lon="7.1913890">
        <ele>2066.2</ele>
        <time>2017-07-23T10:23:16Z</time>
      </trkpt>
      <trkpt lat="44.2118840" lon="7.1917050">
        <ele>2072.6</ele>
        <time>2017-07-23T10:23:50Z</time>
      </trkpt>
      <trkpt lat="44.2118740" lon="7.1917340">
        <ele>2072.8</ele>
        <time>2017-07-23T10:23:52Z</time>
      </trkpt>
      <trkpt lat="44.2119950" lon="7.1918490">
        <ele>2075.0</ele>
        <time>2017-07-23T10:24:18Z</time>
      </trkpt>
      <trkpt lat="44.2120020" lon="7.1918500">
        <ele>2075.2</ele>
        <time>2017-07-23T10:24:19Z</time>
      </trkpt>
      <trkpt lat="44.2120060" lon="7.1918540">
        <ele>2075.4</ele>
        <time>2017-07-23T10:24:20Z</time>
      </trkpt>
      <trkpt lat="44.2120200" lon="7.1918630">
        <ele>2075.4</ele>
        <time>2017-07-23T10:24:22Z</time>
      </trkpt>
      <trkpt lat="44.2120410" lon="7.1918790">
        <ele>2075.6</ele>
        <time>2017-07-23T10:24:24Z</time>
      </trkpt>
      <trkpt lat="44.2120560" lon="7.1918860">
        <ele>2076.2</ele>
        <time>2017-07-23T10:24:26Z</time>
      </trkpt>
      <trkpt lat="44.2120940" lon="7.1918950">
        <ele>2077.2</ele>
        <time>2017-07-23T10:24:29Z</time>
      </trkpt>
      <trkpt lat="44.2121000" lon="7.1918970">
        <ele>2077.4</ele>
        <time>2017-07-23T10:24:30Z</time>
      </trkpt>
      <trkpt lat="44.2121300" lon="7.1919230">
        <ele>2078.2</ele>
        <time>2017-07-23T10:24:34Z</time>
      </trkpt>
      <trkpt lat="44.2121670" lon="7.1919420">
        <ele>2079.4</ele>
        <time>2017-07-23T10:24:38Z</time>
      </trkpt>
      <trkpt lat="44.2121900" lon="7.1919820">
        <ele>2080.4</ele>
        <time>2017-07-23T10:24:42Z</time>
      </trkpt>
      <trkpt lat="44.2122010" lon="7.1920100">
        <ele>2081.0</ele>
        <time>2017-07-23T10:24:44Z</time>
      </trkpt>
      <trkpt lat="44.2122140" lon="7.1920310">
        <ele>2081.6</ele>
        <time>2017-07-23T10:24:46Z</time>
      </trkpt>
      <trkpt lat="44.2122370" lon="7.1920620">
        <ele>2083.0</ele>
        <time>2017-07-23T10:24:50Z</time>
      </trkpt>
      <trkpt lat="44.2122470" lon="7.1920680">
        <ele>2083.6</ele>
        <time>2017-07-23T10:24:51Z</time>
      </trkpt>
      <trkpt lat="44.2122600" lon="7.1920620">
        <ele>2083.8</ele>
        <time>2017-07-23T10:24:52Z</time>
      </trkpt>
      <trkpt lat="44.2122690" lon="7.1920550">
        <ele>2084.2</ele>
        <time>2017-07-23T10:24:53Z</time>
      </trkpt>
      <trkpt lat="44.2123070" lon="7.1920090">
        <ele>2084.8</ele>
        <time>2017-07-23T10:24:59Z</time>
      </trkpt>
      <trkpt lat="44.2123680" lon="7.1919470">
        <ele>2086.0</ele>
        <time>2017-07-23T10:26:17Z</time>
      </trkpt>
      <trkpt lat="44.2123760" lon="7.1919370">
        <ele>2086.0</ele>
        <time>2017-07-23T10:26:18Z</time>
      </trkpt>
      <trkpt lat="44.2123870" lon="7.1919290">
        <ele>2086.0</ele>
        <time>2017-07-23T10:26:19Z</time>
      </trkpt>
      <trkpt lat="44.2124350" lon="7.1918690">
        <ele>2085.6</ele>
        <time>2017-07-23T10:26:24Z</time>
      </trkpt>
      <trkpt lat="44.2124450" lon="7.1918550">
        <ele>2085.6</ele>
        <time>2017-07-23T10:26:25Z</time>
      </trkpt>
      <trkpt lat="44.2124820" lon="7.1918180">
        <ele>2086.4</ele>
        <time>2017-07-23T10:26:29Z</time>
      </trkpt>
      <trkpt lat="44.2125150" lon="7.1917620">
        <ele>2086.8</ele>
        <time>2017-07-23T10:26:34Z</time>
      </trkpt>
      <trkpt lat="44.2125490" lon="7.1916960">
        <ele>2087.2</ele>
        <time>2017-07-23T10:26:39Z</time>
      </trkpt>
      <trkpt lat="44.2125690" lon="7.1916770">
        <ele>2087.4</ele>
        <time>2017-07-23T10:26:41Z</time>
      </trkpt>
      <trkpt lat="44.2125910" lon="7.1916500">
        <ele>2087.8</ele>
        <time>2017-07-23T10:26:44Z</time>
      </trkpt>
      <trkpt lat="44.2126090" lon="7.1916240">
        <ele>2088.4</ele>
        <time>2017-07-23T10:26:46Z</time>
      </trkpt>
      <trkpt lat="44.2126310" lon="7.1916000">
        <ele>2088.4</ele>
        <time>2017-07-23T10:26:48Z</time>
      </trkpt>
      <trkpt lat="44.2126700" lon="7.1915770">
        <ele>2089.4</ele>
        <time>2017-07-23T10:26:52Z</time>
      </trkpt>
      <trkpt lat="44.2127020" lon="7.1915370">
        <ele>2090.2</ele>
        <time>2017-07-23T10:26:56Z</time>
      </trkpt>
      <trkpt lat="44.2127100" lon="7.1914940">
        <ele>2090.6</ele>
        <time>2017-07-23T10:26:59Z</time>
      </trkpt>
      <trkpt lat="44.2127180" lon="7.1914610">
        <ele>2091.4</ele>
        <time>2017-07-23T10:27:02Z</time>
      </trkpt>
      <trkpt lat="44.2127560" lon="7.1912770">
        <ele>2095.0</ele>
        <time>2017-07-23T10:27:20Z</time>
      </trkpt>
      <trkpt lat="44.2127640" lon="7.1912130">
        <ele>2095.2</ele>
        <time>2017-07-23T10:27:22Z</time>
      </trkpt>
      <trkpt lat="44.2128650" lon="7.1910990">
        <ele>2096.2</ele>
        <time>2017-07-23T10:27:26Z</time>
      </trkpt>
      <trkpt lat="44.2129740" lon="7.1910570">
        <ele>2096.6</ele>
        <time>2017-07-23T10:27:29Z</time>
      </trkpt>
      <trkpt lat="44.2130120" lon="7.1910320">
        <ele>2096.6</ele>
        <time>2017-07-23T10:27:30Z</time>
      </trkpt>
      <trkpt lat="44.2130460" lon="7.1910290">
        <ele>2096.8</ele>
        <time>2017-07-23T10:27:31Z</time>
      </trkpt>
      <trkpt lat="44.2130920" lon="7.1910360">
        <ele>2097.0</ele>
        <time>2017-07-23T10:27:34Z</time>
      </trkpt>
      <trkpt lat="44.2131070" lon="7.1910280">
        <ele>2097.2</ele>
        <time>2017-07-23T10:27:36Z</time>
      </trkpt>
      <trkpt lat="44.2131380" lon="7.1910280">
        <ele>2098.0</ele>
        <time>2017-07-23T10:27:41Z</time>
      </trkpt>
      <trkpt lat="44.2132350" lon="7.1909660">
        <ele>2095.2</ele>
        <time>2017-07-23T10:27:58Z</time>
      </trkpt>
      <trkpt lat="44.2132480" lon="7.1909500">
        <ele>2094.8</ele>
        <time>2017-07-23T10:27:59Z</time>
      </trkpt>
      <trkpt lat="44.2132460" lon="7.1908730">
        <ele>2092.0</ele>
        <time>2017-07-23T10:28:06Z</time>
      </trkpt>
      <trkpt lat="44.2132450" lon="7.1908450">
        <ele>2091.6</ele>
        <time>2017-07-23T10:28:07Z</time>
      </trkpt>
      <trkpt lat="44.2132580" lon="7.1908290">
        <ele>2091.0</ele>
        <time>2017-07-23T10:28:08Z</time>
      </trkpt>
      <trkpt lat="44.2132950" lon="7.1907980">
        <ele>2090.4</ele>
        <time>2017-07-23T10:28:10Z</time>
      </trkpt>
      <trkpt lat="44.2133280" lon="7.1907510">
        <ele>2090.0</ele>
        <time>2017-07-23T10:28:12Z</time>
      </trkpt>
      <trkpt lat="44.2133470" lon="7.1907230">
        <ele>2089.8</ele>
        <time>2017-07-23T10:28:13Z</time>
      </trkpt>
      <trkpt lat="44.2134310" lon="7.1906620">
        <ele>2089.0</ele>
        <time>2017-07-23T10:28:16Z</time>
      </trkpt>
      <trkpt lat="44.2134640" lon="7.1906350">
        <ele>2088.6</ele>
        <time>2017-07-23T10:28:17Z</time>
      </trkpt>
      <trkpt lat="44.2135640" lon="7.1904890">
        <ele>2087.8</ele>
        <time>2017-07-23T10:28:21Z</time>
      </trkpt>
      <trkpt lat="44.2135750" lon="7.1904630">
        <ele>2087.4</ele>
        <time>2017-07-23T10:28:22Z</time>
      </trkpt>
      <trkpt lat="44.2136070" lon="7.1903850">
        <ele>2086.0</ele>
        <time>2017-07-23T10:28:26Z</time>
      </trkpt>
      <trkpt lat="44.2136300" lon="7.1903770">
        <ele>2084.8</ele>
        <time>2017-07-23T10:28:28Z</time>
      </trkpt>
      <trkpt lat="44.2136590" lon="7.1903570">
        <ele>2084.2</ele>
        <time>2017-07-23T10:28:30Z</time>
      </trkpt>
      <trkpt lat="44.2136750" lon="7.1903380">
        <ele>2083.8</ele>
        <time>2017-07-23T10:28:31Z</time>
      </trkpt>
      <trkpt lat="44.2137290" lon="7.1903010">
        <ele>2082.6</ele>
        <time>2017-07-23T10:28:33Z</time>
      </trkpt>
      <trkpt lat="44.2137510" lon="7.1902960">
        <ele>2081.8</ele>
        <time>2017-07-23T10:28:34Z</time>
      </trkpt>
      <trkpt lat="44.2137680" lon="7.1902890">
        <ele>2081.4</ele>
        <time>2017-07-23T10:28:35Z</time>
      </trkpt>
      <trkpt lat="44.2138010" lon="7.1902640">
        <ele>2080.2</ele>
        <time>2017-07-23T10:28:37Z</time>
      </trkpt>
      <trkpt lat="44.2138630" lon="7.1902710">
        <ele>2079.0</ele>
        <time>2017-07-23T10:28:39Z</time>
      </trkpt>
      <trkpt lat="44.2138800" lon="7.1902880">
        <ele>2078.4</ele>
        <time>2017-07-23T10:28:40Z</time>
      </trkpt>
      <trkpt lat="44.2138980" lon="7.1903030">
        <ele>2077.8</ele>
        <time>2017-07-23T10:28:41Z</time>
      </trkpt>
      <trkpt lat="44.2139480" lon="7.1903260">
        <ele>2076.6</ele>
        <time>2017-07-23T10:28:43Z</time>
      </trkpt>
      <trkpt lat="44.2140000" lon="7.1903390">
        <ele>2075.2</ele>
        <time>2017-07-23T10:28:45Z</time>
      </trkpt>
      <trkpt lat="44.2140350" lon="7.1903540">
        <ele>2073.8</ele>
        <time>2017-07-23T10:28:47Z</time>
      </trkpt>
      <trkpt lat="44.2140750" lon="7.1903640">
        <ele>2072.6</ele>
        <time>2017-07-23T10:28:49Z</time>
      </trkpt>
      <trkpt lat="44.2141380" lon="7.1903910">
        <ele>2070.0</ele>
        <time>2017-07-23T10:28:51Z</time>
      </trkpt>
      <trkpt lat="44.2141590" lon="7.1904080">
        <ele>2069.2</ele>
        <time>2017-07-23T10:28:52Z</time>
      </trkpt>
      <trkpt lat="44.2141850" lon="7.1904170">
        <ele>2068.4</ele>
        <time>2017-07-23T10:28:53Z</time>
      </trkpt>
      <trkpt lat="44.2142240" lon="7.1904400">
        <ele>2066.6</ele>
        <time>2017-07-23T10:28:55Z</time>
      </trkpt>
      <trkpt lat="44.2142420" lon="7.1904410">
        <ele>2066.2</ele>
        <time>2017-07-23T10:28:56Z</time>
      </trkpt>
      <trkpt lat="44.2142530" lon="7.1904260">
        <ele>2065.6</ele>
        <time>2017-07-23T10:28:57Z</time>
      </trkpt>
      <trkpt lat="44.2142370" lon="7.1903930">
        <ele>2064.4</ele>
        <time>2017-07-23T10:28:59Z</time>
      </trkpt>
      <trkpt lat="44.2142250" lon="7.1903760">
        <ele>2063.8</ele>
        <time>2017-07-23T10:29:00Z</time>
      </trkpt>
      <trkpt lat="44.2142150" lon="7.1903460">
        <ele>2063.2</ele>
        <time>2017-07-23T10:29:01Z</time>
      </trkpt>
      <trkpt lat="44.2141860" lon="7.1902760">
        <ele>2061.6</ele>
        <time>2017-07-23T10:29:03Z</time>
      </trkpt>
      <trkpt lat="44.2141780" lon="7.1902440">
        <ele>2061.0</ele>
        <time>2017-07-23T10:29:04Z</time>
      </trkpt>
      <trkpt lat="44.2141870" lon="7.1902090">
        <ele>2060.4</ele>
        <time>2017-07-23T10:29:06Z</time>
      </trkpt>
      <trkpt lat="44.2142170" lon="7.1902270">
        <ele>2059.8</ele>
        <time>2017-07-23T10:29:07Z</time>
      </trkpt>
      <trkpt lat="44.2142420" lon="7.1902460">
        <ele>2059.4</ele>
        <time>2017-07-23T10:29:08Z</time>
      </trkpt>
      <trkpt lat="44.2142760" lon="7.1902710">
        <ele>2058.8</ele>
        <time>2017-07-23T10:29:09Z</time>
      </trkpt>
      <trkpt lat="44.2143070" lon="7.1903000">
        <ele>2058.2</ele>
        <time>2017-07-23T10:29:10Z</time>
      </trkpt>
      <trkpt lat="44.2143620" lon="7.1903230">
        <ele>2056.6</ele>
        <time>2017-07-23T10:29:12Z</time>
      </trkpt>
      <trkpt lat="44.2143450" lon="7.1902910">
        <ele>2055.4</ele>
        <time>2017-07-23T10:29:14Z</time>
      </trkpt>
      <trkpt lat="44.2143280" lon="7.1902600">
        <ele>2054.0</ele>
        <time>2017-07-23T10:29:15Z</time>
      </trkpt>
      <trkpt lat="44.2143000" lon="7.1901920">
        <ele>2052.4</ele>
        <time>2017-07-23T10:29:17Z</time>
      </trkpt>
      <trkpt lat="44.2142970" lon="7.1901440">
        <ele>2051.2</ele>
        <time>2017-07-23T10:29:19Z</time>
      </trkpt>
      <trkpt lat="44.2143110" lon="7.1901500">
        <ele>2050.6</ele>
        <time>2017-07-23T10:29:20Z</time>
      </trkpt>
      <trkpt lat="44.2143390" lon="7.1901690">
        <ele>2050.0</ele>
        <time>2017-07-23T10:29:21Z</time>
      </trkpt>
      <trkpt lat="44.2144100" lon="7.1901870">
        <ele>2048.2</ele>
        <time>2017-07-23T10:29:23Z</time>
      </trkpt>
      <trkpt lat="44.2144790" lon="7.1902210">
        <ele>2046.8</ele>
        <time>2017-07-23T10:29:25Z</time>
      </trkpt>
      <trkpt lat="44.2145190" lon="7.1902690">
        <ele>2045.2</ele>
        <time>2017-07-23T10:29:27Z</time>
      </trkpt>
      <trkpt lat="44.2145290" lon="7.1902810">
        <ele>2044.4</ele>
        <time>2017-07-23T10:29:28Z</time>
      </trkpt>
      <trkpt lat="44.2145460" lon="7.1902850">
        <ele>2043.8</ele>
        <time>2017-07-23T10:29:29Z</time>
      </trkpt>
      <trkpt lat="44.2146270" lon="7.1902810">
        <ele>2040.4</ele>
        <time>2017-07-23T10:29:37Z</time>
      </trkpt>
      <trkpt lat="44.2146050" lon="7.1902390">
        <ele>2037.8</ele>
        <time>2017-07-23T10:29:42Z</time>
      </trkpt>
      <trkpt lat="44.2146010" lon="7.1901900">
        <ele>2037.0</ele>
        <time>2017-07-23T10:29:43Z</time>
      </trkpt>
      <trkpt lat="44.2145920" lon="7.1901450">
        <ele>2036.2</ele>
        <time>2017-07-23T10:29:44Z</time>
      </trkpt>
      <trkpt lat="44.2145650" lon="7.1901030">
        <ele>2035.2</ele>
        <time>2017-07-23T10:29:45Z</time>
      </trkpt>
      <trkpt lat="44.2145350" lon="7.1900670">
        <ele>2034.4</ele>
        <time>2017-07-23T10:29:46Z</time>
      </trkpt>
      <trkpt lat="44.2145150" lon="7.1900370">
        <ele>2033.8</ele>
        <time>2017-07-23T10:29:47Z</time>
      </trkpt>
      <trkpt lat="44.2144820" lon="7.1899930">
        <ele>2033.2</ele>
        <time>2017-07-23T10:29:49Z</time>
      </trkpt>
      <trkpt lat="44.2144930" lon="7.1899620">
        <ele>2032.8</ele>
        <time>2017-07-23T10:29:50Z</time>
      </trkpt>
      <trkpt lat="44.2145070" lon="7.1899460">
        <ele>2032.4</ele>
        <time>2017-07-23T10:29:51Z</time>
      </trkpt>
      <trkpt lat="44.2145320" lon="7.1899440">
        <ele>2032.0</ele>
        <time>2017-07-23T10:29:52Z</time>
      </trkpt>
      <trkpt lat="44.2146010" lon="7.1899790">
        <ele>2031.2</ele>
        <time>2017-07-23T10:29:54Z</time>
      </trkpt>
      <trkpt lat="44.2146350" lon="7.1900100">
        <ele>2031.0</ele>
        <time>2017-07-23T10:29:55Z</time>
      </trkpt>
      <trkpt lat="44.2146620" lon="7.1900280">
        <ele>2030.8</ele>
        <time>2017-07-23T10:29:56Z</time>
      </trkpt>
      <trkpt lat="44.2146860" lon="7.1900650">
        <ele>2029.6</ele>
        <time>2017-07-23T10:29:58Z</time>
      </trkpt>
      <trkpt lat="44.2147050" lon="7.1900710">
        <ele>2028.8</ele>
        <time>2017-07-23T10:29:59Z</time>
      </trkpt>
      <trkpt lat="44.2147200" lon="7.1900630">
        <ele>2028.2</ele>
        <time>2017-07-23T10:30:00Z</time>
      </trkpt>
      <trkpt lat="44.2147230" lon="7.1900230">
        <ele>2027.8</ele>
        <time>2017-07-23T10:30:02Z</time>
      </trkpt>
      <trkpt lat="44.2147240" lon="7.1900090">
        <ele>2026.8</ele>
        <time>2017-07-23T10:30:03Z</time>
      </trkpt>
      <trkpt lat="44.2147530" lon="7.1899240">
        <ele>2023.2</ele>
        <time>2017-07-23T10:30:13Z</time>
      </trkpt>
      <trkpt lat="44.2147610" lon="7.1899010">
        <ele>2023.0</ele>
        <time>2017-07-23T10:30:14Z</time>
      </trkpt>
      <trkpt lat="44.2147540" lon="7.1898680">
        <ele>2022.8</ele>
        <time>2017-07-23T10:30:15Z</time>
      </trkpt>
      <trkpt lat="44.2147500" lon="7.1898380">
        <ele>2022.2</ele>
        <time>2017-07-23T10:30:16Z</time>
      </trkpt>
      <trkpt lat="44.2147550" lon="7.1897960">
        <ele>2021.0</ele>
        <time>2017-07-23T10:30:18Z</time>
      </trkpt>
      <trkpt lat="44.2147980" lon="7.1897650">
        <ele>2018.6</ele>
        <time>2017-07-23T10:30:23Z</time>
      </trkpt>
      <trkpt lat="44.2148390" lon="7.1897610">
        <ele>2017.4</ele>
        <time>2017-07-23T10:30:25Z</time>
      </trkpt>
      <trkpt lat="44.2148750" lon="7.1897470">
        <ele>2016.2</ele>
        <time>2017-07-23T10:30:27Z</time>
      </trkpt>
      <trkpt lat="44.2148820" lon="7.1897240">
        <ele>2015.0</ele>
        <time>2017-07-23T10:30:29Z</time>
      </trkpt>
      <trkpt lat="44.2148990" lon="7.1896520">
        <ele>2014.0</ele>
        <time>2017-07-23T10:30:32Z</time>
      </trkpt>
      <trkpt lat="44.2149290" lon="7.1896140">
        <ele>2013.2</ele>
        <time>2017-07-23T10:30:34Z</time>
      </trkpt>
      <trkpt lat="44.2149370" lon="7.1896160">
        <ele>2012.6</ele>
        <time>2017-07-23T10:30:35Z</time>
      </trkpt>
      <trkpt lat="44.2149480" lon="7.1896600">
        <ele>2011.2</ele>
        <time>2017-07-23T10:30:37Z</time>
      </trkpt>
      <trkpt lat="44.2149690" lon="7.1897360">
        <ele>2010.0</ele>
        <time>2017-07-23T10:30:39Z</time>
      </trkpt>
      <trkpt lat="44.2150020" lon="7.1897680">
        <ele>2009.4</ele>
        <time>2017-07-23T10:30:40Z</time>
      </trkpt>
      <trkpt lat="44.2150230" lon="7.1898020">
        <ele>2008.8</ele>
        <time>2017-07-23T10:30:41Z</time>
      </trkpt>
      <trkpt lat="44.2150310" lon="7.1898090">
        <ele>2008.0</ele>
        <time>2017-07-23T10:30:42Z</time>
      </trkpt>
      <trkpt lat="44.2150850" lon="7.1899060">
        <ele>2002.4</ele>
        <time>2017-07-23T10:30:52Z</time>
      </trkpt>
      <trkpt lat="44.2151160" lon="7.1899500">
        <ele>2001.6</ele>
        <time>2017-07-23T10:30:54Z</time>
      </trkpt>
      <trkpt lat="44.2151410" lon="7.1899660">
        <ele>2001.0</ele>
        <time>2017-07-23T10:30:55Z</time>
      </trkpt>
      <trkpt lat="44.2152130" lon="7.1900070">
        <ele>1999.6</ele>
        <time>2017-07-23T10:30:58Z</time>
      </trkpt>
      <trkpt lat="44.2152400" lon="7.1900260">
        <ele>1999.4</ele>
        <time>2017-07-23T10:30:59Z</time>
      </trkpt>
      <trkpt lat="44.2154200" lon="7.1901590">
        <ele>1998.4</ele>
        <time>2017-07-23T10:31:04Z</time>
      </trkpt>
      <trkpt lat="44.2155600" lon="7.1902540">
        <ele>1998.0</ele>
        <time>2017-07-23T10:31:09Z</time>
      </trkpt>
      <trkpt lat="44.2156980" lon="7.1903190">
        <ele>1997.6</ele>
        <time>2017-07-23T10:31:14Z</time>
      </trkpt>
      <trkpt lat="44.2158240" lon="7.1902700">
        <ele>1996.8</ele>
        <time>2017-07-23T10:31:24Z</time>
      </trkpt>
      <trkpt lat="44.2159130" lon="7.1902340">
        <ele>1995.8</ele>
        <time>2017-07-23T10:31:27Z</time>
      </trkpt>
      <trkpt lat="44.2159700" lon="7.1901960">
        <ele>1995.6</ele>
        <time>2017-07-23T10:31:29Z</time>
      </trkpt>
      <trkpt lat="44.2160490" lon="7.1901830">
        <ele>1994.8</ele>
        <time>2017-07-23T10:31:31Z</time>
      </trkpt>
      <trkpt lat="44.2161310" lon="7.1901570">
        <ele>1993.8</ele>
        <time>2017-07-23T10:31:34Z</time>
      </trkpt>
      <trkpt lat="44.2161430" lon="7.1901340">
        <ele>1993.6</ele>
        <time>2017-07-23T10:31:35Z</time>
      </trkpt>
      <trkpt lat="44.2162280" lon="7.1900490">
        <ele>1992.4</ele>
        <time>2017-07-23T10:31:38Z</time>
      </trkpt>
      <trkpt lat="44.2163120" lon="7.1900100">
        <ele>1991.0</ele>
        <time>2017-07-23T10:31:40Z</time>
      </trkpt>
      <trkpt lat="44.2163540" lon="7.1900160">
        <ele>1989.6</ele>
        <time>2017-07-23T10:31:42Z</time>
      </trkpt>
      <trkpt lat="44.2164250" lon="7.1899790">
        <ele>1988.4</ele>
        <time>2017-07-23T10:31:45Z</time>
      </trkpt>
      <trkpt lat="44.2164290" lon="7.1899630">
        <ele>1987.8</ele>
        <time>2017-07-23T10:31:46Z</time>
      </trkpt>
      <trkpt lat="44.2164180" lon="7.1899510">
        <ele>1987.0</ele>
        <time>2017-07-23T10:31:47Z</time>
      </trkpt>
      <trkpt lat="44.2163790" lon="7.1899440">
        <ele>1984.6</ele>
        <time>2017-07-23T10:31:50Z</time>
      </trkpt>
      <trkpt lat="44.2163590" lon="7.1899210">
        <ele>1982.8</ele>
        <time>2017-07-23T10:31:52Z</time>
      </trkpt>
      <trkpt lat="44.2163880" lon="7.1899000">
        <ele>1980.8</ele>
        <time>2017-07-23T10:31:56Z</time>
      </trkpt>
      <trkpt lat="44.2164440" lon="7.1898550">
        <ele>1979.6</ele>
        <time>2017-07-23T10:31:59Z</time>
      </trkpt>
      <trkpt lat="44.2164580" lon="7.1898430">
        <ele>1979.0</ele>
        <time>2017-07-23T10:32:00Z</time>
      </trkpt>
      <trkpt lat="44.2164750" lon="7.1898470">
        <ele>1978.6</ele>
        <time>2017-07-23T10:32:01Z</time>
      </trkpt>
      <trkpt lat="44.2165010" lon="7.1898380">
        <ele>1977.0</ele>
        <time>2017-07-23T10:32:03Z</time>
      </trkpt>
      <trkpt lat="44.2165190" lon="7.1898210">
        <ele>1976.6</ele>
        <time>2017-07-23T10:32:04Z</time>
      </trkpt>
      <trkpt lat="44.2165360" lon="7.1898060">
        <ele>1976.2</ele>
        <time>2017-07-23T10:32:05Z</time>
      </trkpt>
      <trkpt lat="44.2165520" lon="7.1897960">
        <ele>1976.0</ele>
        <time>2017-07-23T10:32:06Z</time>
      </trkpt>
      <trkpt lat="44.2165850" lon="7.1897580">
        <ele>1974.6</ele>
        <time>2017-07-23T10:32:09Z</time>
      </trkpt>
      <trkpt lat="44.2165350" lon="7.1897380">
        <ele>1971.8</ele>
        <time>2017-07-23T10:32:13Z</time>
      </trkpt>
      <trkpt lat="44.2165040" lon="7.1897260">
        <ele>1970.4</ele>
        <time>2017-07-23T10:32:15Z</time>
      </trkpt>
      <trkpt lat="44.2164830" lon="7.1897190">
        <ele>1969.6</ele>
        <time>2017-07-23T10:32:16Z</time>
      </trkpt>
      <trkpt lat="44.2164770" lon="7.1897180">
        <ele>1968.6</ele>
        <time>2017-07-23T10:32:17Z</time>
      </trkpt>
      <trkpt lat="44.2164010" lon="7.1896640">
        <ele>1960.0</ele>
        <time>2017-07-23T10:32:29Z</time>
      </trkpt>
      <trkpt lat="44.2163820" lon="7.1896530">
        <ele>1959.2</ele>
        <time>2017-07-23T10:32:30Z</time>
      </trkpt>
      <trkpt lat="44.2163690" lon="7.1896300">
        <ele>1958.8</ele>
        <time>2017-07-23T10:32:31Z</time>
      </trkpt>
      <trkpt lat="44.2163350" lon="7.1896080">
        <ele>1957.8</ele>
        <time>2017-07-23T10:32:33Z</time>
      </trkpt>
      <trkpt lat="44.2163020" lon="7.1895700">
        <ele>1956.6</ele>
        <time>2017-07-23T10:32:35Z</time>
      </trkpt>
      <trkpt lat="44.2162460" lon="7.1895420">
        <ele>1955.4</ele>
        <time>2017-07-23T10:32:37Z</time>
      </trkpt>
      <trkpt lat="44.2161940" lon="7.1895280">
        <ele>1954.2</ele>
        <time>2017-07-23T10:32:39Z</time>
      </trkpt>
      <trkpt lat="44.2162240" lon="7.1894740">
        <ele>1951.8</ele>
        <time>2017-07-23T10:32:45Z</time>
      </trkpt>
      <trkpt lat="44.2162410" lon="7.1894410">
        <ele>1951.2</ele>
        <time>2017-07-23T10:32:47Z</time>
      </trkpt>
      <trkpt lat="44.2162460" lon="7.1894270">
        <ele>1950.8</ele>
        <time>2017-07-23T10:32:48Z</time>
      </trkpt>
      <trkpt lat="44.2162970" lon="7.1893590">
        <ele>1949.6</ele>
        <time>2017-07-23T10:32:51Z</time>
      </trkpt>
      <trkpt lat="44.2163200" lon="7.1893430">
        <ele>1949.4</ele>
        <time>2017-07-23T10:32:52Z</time>
      </trkpt>
      <trkpt lat="44.2163440" lon="7.1893460">
        <ele>1949.2</ele>
        <time>2017-07-23T10:32:53Z</time>
      </trkpt>
      <trkpt lat="44.2164030" lon="7.1893180">
        <ele>1948.6</ele>
        <time>2017-07-23T10:32:55Z</time>
      </trkpt>
      <trkpt lat="44.2164310" lon="7.1893030">
        <ele>1948.2</ele>
        <time>2017-07-23T10:32:56Z</time>
      </trkpt>
      <trkpt lat="44.2164860" lon="7.1892860">
        <ele>1947.6</ele>
        <time>2017-07-23T10:32:58Z</time>
      </trkpt>
      <trkpt lat="44.2165190" lon="7.1892710">
        <ele>1947.2</ele>
        <time>2017-07-23T10:33:00Z</time>
      </trkpt>
      <trkpt lat="44.2165260" lon="7.1892650">
        <ele>1946.8</ele>
        <time>2017-07-23T10:33:01Z</time>
      </trkpt>
      <trkpt lat="44.2165000" lon="7.1892460">
        <ele>1943.8</ele>
        <time>2017-07-23T10:33:08Z</time>
      </trkpt>
      <trkpt lat="44.2164820" lon="7.1892420">
        <ele>1943.4</ele>
        <time>2017-07-23T10:33:09Z</time>
      </trkpt>
      <trkpt lat="44.2164620" lon="7.1892380">
        <ele>1942.6</ele>
        <time>2017-07-23T10:33:10Z</time>
      </trkpt>
      <trkpt lat="44.2164380" lon="7.1892230">
        <ele>1941.2</ele>
        <time>2017-07-23T10:33:12Z</time>
      </trkpt>
      <trkpt lat="44.2164280" lon="7.1892080">
        <ele>1940.4</ele>
        <time>2017-07-23T10:33:13Z</time>
      </trkpt>
      <trkpt lat="44.2164630" lon="7.1891710">
        <ele>1937.4</ele>
        <time>2017-07-23T10:33:20Z</time>
      </trkpt>
      <trkpt lat="44.2164930" lon="7.1891620">
        <ele>1936.6</ele>
        <time>2017-07-23T10:33:22Z</time>
      </trkpt>
      <trkpt lat="44.2165060" lon="7.1891600">
        <ele>1936.2</ele>
        <time>2017-07-23T10:33:23Z</time>
      </trkpt>
      <trkpt lat="44.2165500" lon="7.1891430">
        <ele>1935.2</ele>
        <time>2017-07-23T10:33:28Z</time>
      </trkpt>
      <trkpt lat="44.2165740" lon="7.1891470">
        <ele>1935.2</ele>
        <time>2017-07-23T10:33:29Z</time>
      </trkpt>
      <trkpt lat="44.2166290" lon="7.1891460">
        <ele>1933.8</ele>
        <time>2017-07-23T10:33:32Z</time>
      </trkpt>
      <trkpt lat="44.2166620" lon="7.1891300">
        <ele>1933.6</ele>
        <time>2017-07-23T10:33:34Z</time>
      </trkpt>
      <trkpt lat="44.2166860" lon="7.1891210">
        <ele>1933.2</ele>
        <time>2017-07-23T10:33:36Z</time>
      </trkpt>
      <trkpt lat="44.2167210" lon="7.1890980">
        <ele>1932.4</ele>
        <time>2017-07-23T10:33:39Z</time>
      </trkpt>
      <trkpt lat="44.2167740" lon="7.1890560">
        <ele>1931.6</ele>
        <time>2017-07-23T10:33:41Z</time>
      </trkpt>
      <trkpt lat="44.2167960" lon="7.1890440">
        <ele>1931.2</ele>
        <time>2017-07-23T10:33:42Z</time>
      </trkpt>
      <trkpt lat="44.2168390" lon="7.1890200">
        <ele>1930.2</ele>
        <time>2017-07-23T10:33:45Z</time>
      </trkpt>
      <trkpt lat="44.2168650" lon="7.1889930">
        <ele>1930.0</ele>
        <time>2017-07-23T10:33:47Z</time>
      </trkpt>
      <trkpt lat="44.2169040" lon="7.1889720">
        <ele>1929.0</ele>
        <time>2017-07-23T10:33:51Z</time>
      </trkpt>
      <trkpt lat="44.2170010" lon="7.1889260">
        <ele>1924.2</ele>
        <time>2017-07-23T10:34:06Z</time>
      </trkpt>
      <trkpt lat="44.2171010" lon="7.1889240">
        <ele>1922.8</ele>
        <time>2017-07-23T10:34:11Z</time>
      </trkpt>
      <trkpt lat="44.2171610" lon="7.1889120">
        <ele>1921.8</ele>
        <time>2017-07-23T10:34:15Z</time>
      </trkpt>
      <trkpt lat="44.2172460" lon="7.1889230">
        <ele>1920.4</ele>
        <time>2017-07-23T10:34:20Z</time>
      </trkpt>
      <trkpt lat="44.2172600" lon="7.1889070">
        <ele>1920.0</ele>
        <time>2017-07-23T10:34:21Z</time>
      </trkpt>
      <trkpt lat="44.2173080" lon="7.1888950">
        <ele>1919.0</ele>
        <time>2017-07-23T10:34:23Z</time>
      </trkpt>
      <trkpt lat="44.2173280" lon="7.1888360">
        <ele>1912.4</ele>
        <time>2017-07-23T10:34:38Z</time>
      </trkpt>
      <trkpt lat="44.2173160" lon="7.1888320">
        <ele>1912.0</ele>
        <time>2017-07-23T10:34:39Z</time>
      </trkpt>
      <trkpt lat="44.2172850" lon="7.1886950">
        <ele>1908.6</ele>
        <time>2017-07-23T10:34:56Z</time>
      </trkpt>
      <trkpt lat="44.2173090" lon="7.1887020">
        <ele>1908.6</ele>
        <time>2017-07-23T10:34:57Z</time>
      </trkpt>
      <trkpt lat="44.2174370" lon="7.1886810">
        <ele>1907.4</ele>
        <time>2017-07-23T10:35:01Z</time>
      </trkpt>
      <trkpt lat="44.2174680" lon="7.1886730">
        <ele>1907.0</ele>
        <time>2017-07-23T10:35:02Z</time>
      </trkpt>
      <trkpt lat="44.2175140" lon="7.1886520">
        <ele>1906.2</ele>
        <time>2017-07-23T10:35:04Z</time>
      </trkpt>
      <trkpt lat="44.2175240" lon="7.1886820">
        <ele>1905.8</ele>
        <time>2017-07-23T10:35:05Z</time>
      </trkpt>
      <trkpt lat="44.2174840" lon="7.1887020">
        <ele>1902.6</ele>
        <time>2017-07-23T10:35:09Z</time>
      </trkpt>
      <trkpt lat="44.2174620" lon="7.1887110">
        <ele>1900.6</ele>
        <time>2017-07-23T10:35:11Z</time>
      </trkpt>
      <trkpt lat="44.2174910" lon="7.1886850">
        <ele>1898.6</ele>
        <time>2017-07-23T10:35:14Z</time>
      </trkpt>
      <trkpt lat="44.2175250" lon="7.1886790">
        <ele>1897.6</ele>
        <time>2017-07-23T10:35:15Z</time>
      </trkpt>
      <trkpt lat="44.2175610" lon="7.1886700">
        <ele>1897.0</ele>
        <time>2017-07-23T10:35:16Z</time>
      </trkpt>
      <trkpt lat="44.2176000" lon="7.1886580">
        <ele>1896.6</ele>
        <time>2017-07-23T10:35:17Z</time>
      </trkpt>
      <trkpt lat="44.2176350" lon="7.1886460">
        <ele>1896.0</ele>
        <time>2017-07-23T10:35:18Z</time>
      </trkpt>
      <trkpt lat="44.2177150" lon="7.1886320">
        <ele>1895.4</ele>
        <time>2017-07-23T10:35:20Z</time>
      </trkpt>
      <trkpt lat="44.2177950" lon="7.1885690">
        <ele>1894.0</ele>
        <time>2017-07-23T10:35:22Z</time>
      </trkpt>
      <trkpt lat="44.2178470" lon="7.1885190">
        <ele>1892.8</ele>
        <time>2017-07-23T10:35:24Z</time>
      </trkpt>
      <trkpt lat="44.2178730" lon="7.1884810">
        <ele>1891.6</ele>
        <time>2017-07-23T10:35:26Z</time>
      </trkpt>
      <trkpt lat="44.2178900" lon="7.1884840">
        <ele>1891.2</ele>
        <time>2017-07-23T10:35:27Z</time>
      </trkpt>
      <trkpt lat="44.2179210" lon="7.1884590">
        <ele>1890.4</ele>
        <time>2017-07-23T10:35:29Z</time>
      </trkpt>
      <trkpt lat="44.2179430" lon="7.1884480">
        <ele>1889.6</ele>
        <time>2017-07-23T10:35:30Z</time>
      </trkpt>
      <trkpt lat="44.2179690" lon="7.1884350">
        <ele>1889.2</ele>
        <time>2017-07-23T10:35:31Z</time>
      </trkpt>
      <trkpt lat="44.2180400" lon="7.1883900">
        <ele>1888.2</ele>
        <time>2017-07-23T10:35:33Z</time>
      </trkpt>
      <trkpt lat="44.2180530" lon="7.1883360">
        <ele>1886.8</ele>
        <time>2017-07-23T10:35:35Z</time>
      </trkpt>
      <trkpt lat="44.2179990" lon="7.1882800">
        <ele>1881.8</ele>
        <time>2017-07-23T10:35:40Z</time>
      </trkpt>
      <trkpt lat="44.2179690" lon="7.1882340">
        <ele>1880.0</ele>
        <time>2017-07-23T10:35:42Z</time>
      </trkpt>
      <trkpt lat="44.2179730" lon="7.1881810">
        <ele>1878.8</ele>
        <time>2017-07-23T10:35:44Z</time>
      </trkpt>
      <trkpt lat="44.2179820" lon="7.1881580">
        <ele>1878.4</ele>
        <time>2017-07-23T10:35:45Z</time>
      </trkpt>
      <trkpt lat="44.2179970" lon="7.1881300">
        <ele>1878.0</ele>
        <time>2017-07-23T10:35:46Z</time>
      </trkpt>
      <trkpt lat="44.2180200" lon="7.1880980">
        <ele>1877.4</ele>
        <time>2017-07-23T10:35:47Z</time>
      </trkpt>
      <trkpt lat="44.2181160" lon="7.1880530">
        <ele>1876.6</ele>
        <time>2017-07-23T10:35:49Z</time>
      </trkpt>
      <trkpt lat="44.2181740" lon="7.1880410">
        <ele>1876.4</ele>
        <time>2017-07-23T10:35:50Z</time>
      </trkpt>
      <trkpt lat="44.2182290" lon="7.1880100">
        <ele>1875.8</ele>
        <time>2017-07-23T10:35:51Z</time>
      </trkpt>
      <trkpt lat="44.2182600" lon="7.1879620">
        <ele>1875.4</ele>
        <time>2017-07-23T10:35:52Z</time>
      </trkpt>
      <trkpt lat="44.2183020" lon="7.1879270">
        <ele>1874.8</ele>
        <time>2017-07-23T10:35:53Z</time>
      </trkpt>
      <trkpt lat="44.2183350" lon="7.1878750">
        <ele>1874.2</ele>
        <time>2017-07-23T10:35:54Z</time>
      </trkpt>
      <trkpt lat="44.2184340" lon="7.1877830">
        <ele>1873.0</ele>
        <time>2017-07-23T10:35:57Z</time>
      </trkpt>
      <trkpt lat="44.2184560" lon="7.1877570">
        <ele>1872.6</ele>
        <time>2017-07-23T10:35:58Z</time>
      </trkpt>
      <trkpt lat="44.2185150" lon="7.1876980">
        <ele>1871.6</ele>
        <time>2017-07-23T10:36:00Z</time>
      </trkpt>
      <trkpt lat="44.2185690" lon="7.1876630">
        <ele>1870.6</ele>
        <time>2017-07-23T10:36:02Z</time>
      </trkpt>
      <trkpt lat="44.2185920" lon="7.1876400">
        <ele>1869.8</ele>
        <time>2017-07-23T10:36:03Z</time>
      </trkpt>
      <trkpt lat="44.2186160" lon="7.1876140">
        <ele>1869.2</ele>
        <time>2017-07-23T10:36:04Z</time>
      </trkpt>
      <trkpt lat="44.2186710" lon="7.1875520">
        <ele>1868.2</ele>
        <time>2017-07-23T10:36:06Z</time>
      </trkpt>
      <trkpt lat="44.2187010" lon="7.1875090">
        <ele>1866.8</ele>
        <time>2017-07-23T10:36:08Z</time>
      </trkpt>
      <trkpt lat="44.2187140" lon="7.1874520">
        <ele>1865.0</ele>
        <time>2017-07-23T10:36:10Z</time>
      </trkpt>
      <trkpt lat="44.2186770" lon="7.1874540">
        <ele>1864.0</ele>
        <time>2017-07-23T10:36:11Z</time>
      </trkpt>
      <trkpt lat="44.2186360" lon="7.1874430">
        <ele>1863.0</ele>
        <time>2017-07-23T10:36:12Z</time>
      </trkpt>
      <trkpt lat="44.2185970" lon="7.1874440">
        <ele>1862.0</ele>
        <time>2017-07-23T10:36:13Z</time>
      </trkpt>
      <trkpt lat="44.2185500" lon="7.1874340">
        <ele>1861.0</ele>
        <time>2017-07-23T10:36:14Z</time>
      </trkpt>
      <trkpt lat="44.2185050" lon="7.1874310">
        <ele>1860.0</ele>
        <time>2017-07-23T10:36:15Z</time>
      </trkpt>
      <trkpt lat="44.2184760" lon="7.1874400">
        <ele>1859.2</ele>
        <time>2017-07-23T10:36:16Z</time>
      </trkpt>
      <trkpt lat="44.2184650" lon="7.1874410">
        <ele>1858.4</ele>
        <time>2017-07-23T10:36:17Z</time>
      </trkpt>
      <trkpt lat="44.2184780" lon="7.1874310">
        <ele>1857.6</ele>
        <time>2017-07-23T10:36:18Z</time>
      </trkpt>
      <trkpt lat="44.2184940" lon="7.1874200">
        <ele>1856.8</ele>
        <time>2017-07-23T10:36:19Z</time>
      </trkpt>
      <trkpt lat="44.2185230" lon="7.1874060">
        <ele>1856.2</ele>
        <time>2017-07-23T10:36:20Z</time>
      </trkpt>
      <trkpt lat="44.2185870" lon="7.1873810">
        <ele>1854.8</ele>
        <time>2017-07-23T10:36:22Z</time>
      </trkpt>
      <trkpt lat="44.2186310" lon="7.1873620">
        <ele>1854.2</ele>
        <time>2017-07-23T10:36:23Z</time>
      </trkpt>
      <trkpt lat="44.2186700" lon="7.1873340">
        <ele>1853.6</ele>
        <time>2017-07-23T10:36:24Z</time>
      </trkpt>
      <trkpt lat="44.2186930" lon="7.1873040">
        <ele>1853.0</ele>
        <time>2017-07-23T10:36:25Z</time>
      </trkpt>
      <trkpt lat="44.2187240" lon="7.1872830">
        <ele>1852.6</ele>
        <time>2017-07-23T10:36:26Z</time>
      </trkpt>
      <trkpt lat="44.2187520" lon="7.1872560">
        <ele>1851.4</ele>
        <time>2017-07-23T10:36:27Z</time>
      </trkpt>
      <trkpt lat="44.2188460" lon="7.1871610">
        <ele>1850.0</ele>
        <time>2017-07-23T10:36:30Z</time>
      </trkpt>
      <trkpt lat="44.2189270" lon="7.1870760">
        <ele>1848.4</ele>
        <time>2017-07-23T10:36:32Z</time>
      </trkpt>
      <trkpt lat="44.2189660" lon="7.1870460">
        <ele>1848.0</ele>
        <time>2017-07-23T10:36:33Z</time>
      </trkpt>
      <trkpt lat="44.2190160" lon="7.1870190">
        <ele>1847.2</ele>
        <time>2017-07-23T10:36:34Z</time>
      </trkpt>
      <trkpt lat="44.2190720" lon="7.1869870">
        <ele>1846.6</ele>
        <time>2017-07-23T10:36:35Z</time>
      </trkpt>
      <trkpt lat="44.2191220" lon="7.1869470">
        <ele>1845.8</ele>
        <time>2017-07-23T10:36:36Z</time>
      </trkpt>
      <trkpt lat="44.2192330" lon="7.1868560">
        <ele>1844.2</ele>
        <time>2017-07-23T10:36:38Z</time>
      </trkpt>
      <trkpt lat="44.2192800" lon="7.1868110">
        <ele>1843.6</ele>
        <time>2017-07-23T10:36:39Z</time>
      </trkpt>
      <trkpt lat="44.2193350" lon="7.1867740">
        <ele>1842.8</ele>
        <time>2017-07-23T10:36:40Z</time>
      </trkpt>
      <trkpt lat="44.2194700" lon="7.1866750">
        <ele>1841.4</ele>
        <time>2017-07-23T10:36:43Z</time>
      </trkpt>
      <trkpt lat="44.2194990" lon="7.1866520">
        <ele>1840.6</ele>
        <time>2017-07-23T10:36:44Z</time>
      </trkpt>
      <trkpt lat="44.2195280" lon="7.1866400">
        <ele>1839.6</ele>
        <time>2017-07-23T10:36:45Z</time>
      </trkpt>
      <trkpt lat="44.2196200" lon="7.1866390">
        <ele>1838.2</ele>
        <time>2017-07-23T10:36:47Z</time>
      </trkpt>
      <trkpt lat="44.2196650" lon="7.1866360">
        <ele>1837.6</ele>
        <time>2017-07-23T10:36:48Z</time>
      </trkpt>
      <trkpt lat="44.2197000" lon="7.1866520">
        <ele>1836.6</ele>
        <time>2017-07-23T10:36:49Z</time>
      </trkpt>
      <trkpt lat="44.2197340" lon="7.1866480">
        <ele>1835.4</ele>
        <time>2017-07-23T10:36:50Z</time>
      </trkpt>
      <trkpt lat="44.2197520" lon="7.1866610">
        <ele>1833.2</ele>
        <time>2017-07-23T10:36:51Z</time>
      </trkpt>
      <trkpt lat="44.2197590" lon="7.1866440">
        <ele>1832.2</ele>
        <time>2017-07-23T10:36:52Z</time>
      </trkpt>
      <trkpt lat="44.2197500" lon="7.1866250">
        <ele>1831.2</ele>
        <time>2017-07-23T10:36:53Z</time>
      </trkpt>
      <trkpt lat="44.2197110" lon="7.1865900">
        <ele>1829.0</ele>
        <time>2017-07-23T10:36:55Z</time>
      </trkpt>
      <trkpt lat="44.2196910" lon="7.1865640">
        <ele>1827.8</ele>
        <time>2017-07-23T10:36:56Z</time>
      </trkpt>
      <trkpt lat="44.2196760" lon="7.1865420">
        <ele>1826.6</ele>
        <time>2017-07-23T10:36:57Z</time>
      </trkpt>
      <trkpt lat="44.2196670" lon="7.1865220">
        <ele>1825.4</ele>
        <time>2017-07-23T10:36:58Z</time>
      </trkpt>
      <trkpt lat="44.2196790" lon="7.1865100">
        <ele>1824.6</ele>
        <time>2017-07-23T10:36:59Z</time>
      </trkpt>
      <trkpt lat="44.2196950" lon="7.1865140">
        <ele>1823.8</ele>
        <time>2017-07-23T10:37:00Z</time>
      </trkpt>
      <trkpt lat="44.2197480" lon="7.1865250">
        <ele>1822.4</ele>
        <time>2017-07-23T10:37:02Z</time>
      </trkpt>
      <trkpt lat="44.2198400" lon="7.1865260">
        <ele>1820.4</ele>
        <time>2017-07-23T10:37:04Z</time>
      </trkpt>
      <trkpt lat="44.2198820" lon="7.1865140">
        <ele>1819.6</ele>
        <time>2017-07-23T10:37:05Z</time>
      </trkpt>
      <trkpt lat="44.2199310" lon="7.1865000">
        <ele>1818.8</ele>
        <time>2017-07-23T10:37:06Z</time>
      </trkpt>
      <trkpt lat="44.2199740" lon="7.1864780">
        <ele>1818.2</ele>
        <time>2017-07-23T10:37:07Z</time>
      </trkpt>
      <trkpt lat="44.2200090" lon="7.1864610">
        <ele>1817.2</ele>
        <time>2017-07-23T10:37:08Z</time>
      </trkpt>
      <trkpt lat="44.2200170" lon="7.1864230">
        <ele>1816.2</ele>
        <time>2017-07-23T10:37:10Z</time>
      </trkpt>
      <trkpt lat="44.2200020" lon="7.1864140">
        <ele>1815.2</ele>
        <time>2017-07-23T10:37:11Z</time>
      </trkpt>
      <trkpt lat="44.2199770" lon="7.1864000">
        <ele>1814.4</ele>
        <time>2017-07-23T10:37:12Z</time>
      </trkpt>
      <trkpt lat="44.2199430" lon="7.1863870">
        <ele>1813.4</ele>
        <time>2017-07-23T10:37:13Z</time>
      </trkpt>
      <trkpt lat="44.2199070" lon="7.1863750">
        <ele>1812.8</ele>
        <time>2017-07-23T10:37:14Z</time>
      </trkpt>
      <trkpt lat="44.2198630" lon="7.1863550">
        <ele>1811.0</ele>
        <time>2017-07-23T10:37:15Z</time>
      </trkpt>
      <trkpt lat="44.2198430" lon="7.1863420">
        <ele>1809.8</ele>
        <time>2017-07-23T10:37:16Z</time>
      </trkpt>
      <trkpt lat="44.2198280" lon="7.1863310">
        <ele>1809.0</ele>
        <time>2017-07-23T10:37:17Z</time>
      </trkpt>
      <trkpt lat="44.2198420" lon="7.1863130">
        <ele>1808.2</ele>
        <time>2017-07-23T10:37:18Z</time>
      </trkpt>
      <trkpt lat="44.2198720" lon="7.1863110">
        <ele>1807.0</ele>
        <time>2017-07-23T10:37:20Z</time>
      </trkpt>
      <trkpt lat="44.2199590" lon="7.1862880">
        <ele>1805.6</ele>
        <time>2017-07-23T10:37:23Z</time>
      </trkpt>
      <trkpt lat="44.2199940" lon="7.1862890">
        <ele>1805.0</ele>
        <time>2017-07-23T10:37:24Z</time>
      </trkpt>
      <trkpt lat="44.2200350" lon="7.1862700">
        <ele>1804.8</ele>
        <time>2017-07-23T10:37:25Z</time>
      </trkpt>
      <trkpt lat="44.2201150" lon="7.1862030">
        <ele>1804.2</ele>
        <time>2017-07-23T10:37:27Z</time>
      </trkpt>
      <trkpt lat="44.2201610" lon="7.1861610">
        <ele>1803.8</ele>
        <time>2017-07-23T10:37:28Z</time>
      </trkpt>
      <trkpt lat="44.2202130" lon="7.1861170">
        <ele>1803.0</ele>
        <time>2017-07-23T10:37:29Z</time>
      </trkpt>
      <trkpt lat="44.2202680" lon="7.1860760">
        <ele>1802.4</ele>
        <time>2017-07-23T10:37:30Z</time>
      </trkpt>
      <trkpt lat="44.2203730" lon="7.1860240">
        <ele>1802.0</ele>
        <time>2017-07-23T10:37:32Z</time>
      </trkpt>
      <trkpt lat="44.2204680" lon="7.1859960">
        <ele>1801.2</ele>
        <time>2017-07-23T10:37:34Z</time>
      </trkpt>
      <trkpt lat="44.2205080" lon="7.1859850">
        <ele>1800.8</ele>
        <time>2017-07-23T10:37:35Z</time>
      </trkpt>
      <trkpt lat="44.2205440" lon="7.1859940">
        <ele>1800.0</ele>
        <time>2017-07-23T10:37:36Z</time>
      </trkpt>
      <trkpt lat="44.2205720" lon="7.1860050">
        <ele>1799.4</ele>
        <time>2017-07-23T10:37:37Z</time>
      </trkpt>
      <trkpt lat="44.2205710" lon="7.1860070">
        <ele>1797.2</ele>
        <time>2017-07-23T10:37:39Z</time>
      </trkpt>
      <trkpt lat="44.2205540" lon="7.1859900">
        <ele>1796.4</ele>
        <time>2017-07-23T10:37:40Z</time>
      </trkpt>
      <trkpt lat="44.2205310" lon="7.1859660">
        <ele>1795.6</ele>
        <time>2017-07-23T10:37:41Z</time>
      </trkpt>
      <trkpt lat="44.2204740" lon="7.1859050">
        <ele>1793.6</ele>
        <time>2017-07-23T10:37:43Z</time>
      </trkpt>
      <trkpt lat="44.2204420" lon="7.1858760">
        <ele>1792.8</ele>
        <time>2017-07-23T10:37:44Z</time>
      </trkpt>
      <trkpt lat="44.2204110" lon="7.1858470">
        <ele>1791.8</ele>
        <time>2017-07-23T10:37:45Z</time>
      </trkpt>
      <trkpt lat="44.2203820" lon="7.1858270">
        <ele>1790.8</ele>
        <time>2017-07-23T10:37:46Z</time>
      </trkpt>
      <trkpt lat="44.2203570" lon="7.1858090">
        <ele>1789.6</ele>
        <time>2017-07-23T10:37:47Z</time>
      </trkpt>
      <trkpt lat="44.2203270" lon="7.1857910">
        <ele>1788.6</ele>
        <time>2017-07-23T10:37:48Z</time>
      </trkpt>
      <trkpt lat="44.2203050" lon="7.1857720">
        <ele>1787.8</ele>
        <time>2017-07-23T10:37:49Z</time>
      </trkpt>
      <trkpt lat="44.2202850" lon="7.1857540">
        <ele>1787.2</ele>
        <time>2017-07-23T10:37:50Z</time>
      </trkpt>
      <trkpt lat="44.2202480" lon="7.1857280">
        <ele>1786.2</ele>
        <time>2017-07-23T10:37:51Z</time>
      </trkpt>
      <trkpt lat="44.2202110" lon="7.1857140">
        <ele>1785.0</ele>
        <time>2017-07-23T10:37:52Z</time>
      </trkpt>
      <trkpt lat="44.2201710" lon="7.1857010">
        <ele>1783.8</ele>
        <time>2017-07-23T10:37:53Z</time>
      </trkpt>
      <trkpt lat="44.2200960" lon="7.1856870">
        <ele>1782.0</ele>
        <time>2017-07-23T10:37:55Z</time>
      </trkpt>
      <trkpt lat="44.2200380" lon="7.1856680">
        <ele>1780.2</ele>
        <time>2017-07-23T10:37:57Z</time>
      </trkpt>
      <trkpt lat="44.2200130" lon="7.1856620">
        <ele>1779.4</ele>
        <time>2017-07-23T10:37:58Z</time>
      </trkpt>
      <trkpt lat="44.2199880" lon="7.1856530">
        <ele>1778.4</ele>
        <time>2017-07-23T10:37:59Z</time>
      </trkpt>
      <trkpt lat="44.2199560" lon="7.1856450">
        <ele>1777.4</ele>
        <time>2017-07-23T10:38:00Z</time>
      </trkpt>
      <trkpt lat="44.2198870" lon="7.1856420">
        <ele>1775.8</ele>
        <time>2017-07-23T10:38:02Z</time>
      </trkpt>
      <trkpt lat="44.2198520" lon="7.1856330">
        <ele>1774.2</ele>
        <time>2017-07-23T10:38:03Z</time>
      </trkpt>
      <trkpt lat="44.2197900" lon="7.1856220">
        <ele>1772.6</ele>
        <time>2017-07-23T10:38:05Z</time>
      </trkpt>
      <trkpt lat="44.2197360" lon="7.1856180">
        <ele>1771.4</ele>
        <time>2017-07-23T10:38:07Z</time>
      </trkpt>
      <trkpt lat="44.2197080" lon="7.1856290">
        <ele>1770.8</ele>
        <time>2017-07-23T10:38:08Z</time>
      </trkpt>
      <trkpt lat="44.2196860" lon="7.1856250">
        <ele>1770.2</ele>
        <time>2017-07-23T10:38:09Z</time>
      </trkpt>
      <trkpt lat="44.2196260" lon="7.1856130">
        <ele>1762.0</ele>
        <time>2017-07-23T10:38:23Z</time>
      </trkpt>
      <trkpt lat="44.2196080" lon="7.1856050">
        <ele>1761.4</ele>
        <time>2017-07-23T10:38:24Z</time>
      </trkpt>
      <trkpt lat="44.2195710" lon="7.1855950">
        <ele>1760.4</ele>
        <time>2017-07-23T10:38:26Z</time>
      </trkpt>
      <trkpt lat="44.2195350" lon="7.1855830">
        <ele>1758.8</ele>
        <time>2017-07-23T10:38:28Z</time>
      </trkpt>
      <trkpt lat="44.2194990" lon="7.1855590">
        <ele>1756.8</ele>
        <time>2017-07-23T10:38:32Z</time>
      </trkpt>
      <trkpt lat="44.2194840" lon="7.1855490">
        <ele>1756.6</ele>
        <time>2017-07-23T10:38:33Z</time>
      </trkpt>
      <trkpt lat="44.2194250" lon="7.1855190">
        <ele>1755.2</ele>
        <time>2017-07-23T10:38:36Z</time>
      </trkpt>
      <trkpt lat="44.2193340" lon="7.1854730">
        <ele>1754.0</ele>
        <time>2017-07-23T10:38:39Z</time>
      </trkpt>
      <trkpt lat="44.2192660" lon="7.1854420">
        <ele>1752.8</ele>
        <time>2017-07-23T10:38:41Z</time>
      </trkpt>
      <trkpt lat="44.2192360" lon="7.1854290">
        <ele>1752.2</ele>
        <time>2017-07-23T10:38:42Z</time>
      </trkpt>
      <trkpt lat="44.2192100" lon="7.1854210">
        <ele>1751.8</ele>
        <time>2017-07-23T10:38:43Z</time>
      </trkpt>
      <trkpt lat="44.2191300" lon="7.1854190">
        <ele>1750.8</ele>
        <time>2017-07-23T10:38:46Z</time>
      </trkpt>
      <trkpt lat="44.2191040" lon="7.1854240">
        <ele>1750.8</ele>
        <time>2017-07-23T10:38:47Z</time>
      </trkpt>
      <trkpt lat="44.2190000" lon="7.1854310">
        <ele>1750.2</ele>
        <time>2017-07-23T10:38:51Z</time>
      </trkpt>
      <trkpt lat="44.2188750" lon="7.1854470">
        <ele>1749.8</ele>
        <time>2017-07-23T10:38:56Z</time>
      </trkpt>
      <trkpt lat="44.2187710" lon="7.1854510">
        <ele>1750.0</ele>
        <time>2017-07-23T10:39:01Z</time>
      </trkpt>
      <trkpt lat="44.2187180" lon="7.1851850">
        <ele>1750.8</ele>
        <time>2017-07-23T10:39:35Z</time>
      </trkpt>
      <trkpt lat="44.2187160" lon="7.1851690">
        <ele>1751.0</ele>
        <time>2017-07-23T10:39:36Z</time>
      </trkpt>
      <trkpt lat="44.2187050" lon="7.1851230">
        <ele>1752.0</ele>
        <time>2017-07-23T10:39:39Z</time>
      </trkpt>
      <trkpt lat="44.2187050" lon="7.1850690">
        <ele>1752.6</ele>
        <time>2017-07-23T10:39:42Z</time>
      </trkpt>
      <trkpt lat="44.2187100" lon="7.1850590">
        <ele>1753.0</ele>
        <time>2017-07-23T10:39:43Z</time>
      </trkpt>
      <trkpt lat="44.2187150" lon="7.1850480">
        <ele>1753.2</ele>
        <time>2017-07-23T10:39:44Z</time>
      </trkpt>
      <trkpt lat="44.2187370" lon="7.1850040">
        <ele>1754.2</ele>
        <time>2017-07-23T10:39:48Z</time>
      </trkpt>
      <trkpt lat="44.2187410" lon="7.1849960">
        <ele>1754.6</ele>
        <time>2017-07-23T10:39:49Z</time>
      </trkpt>
      <trkpt lat="44.2187500" lon="7.1849740">
        <ele>1755.4</ele>
        <time>2017-07-23T10:39:51Z</time>
      </trkpt>
      <trkpt lat="44.2187620" lon="7.1849400">
        <ele>1756.4</ele>
        <time>2017-07-23T10:39:54Z</time>
      </trkpt>
      <trkpt lat="44.2187600" lon="7.1849300">
        <ele>1756.6</ele>
        <time>2017-07-23T10:39:55Z</time>
      </trkpt>
      <trkpt lat="44.2187580" lon="7.1849210">
        <ele>1757.0</ele>
        <time>2017-07-23T10:39:56Z</time>
      </trkpt>
      <trkpt lat="44.2187550" lon="7.1849290">
        <ele>1757.8</ele>
        <time>2017-07-23T10:39:59Z</time>
      </trkpt>
      <trkpt lat="44.2195420" lon="7.1845890">
        <ele>1779.4</ele>
        <time>2017-07-23T10:41:51Z</time>
      </trkpt>
      <trkpt lat="44.2195830" lon="7.1845630">
        <ele>1779.8</ele>
        <time>2017-07-23T10:41:56Z</time>
      </trkpt>
      <trkpt lat="44.2196570" lon="7.1845470">
        <ele>1780.2</ele>
        <time>2017-07-23T10:42:02Z</time>
      </trkpt>
      <trkpt lat="44.2196690" lon="7.1845430">
        <ele>1780.4</ele>
        <time>2017-07-23T10:42:03Z</time>
      </trkpt>
      <trkpt lat="44.2196790" lon="7.1845400">
        <ele>1780.6</ele>
        <time>2017-07-23T10:42:04Z</time>
      </trkpt>
      <trkpt lat="44.2197220" lon="7.1845420">
        <ele>1781.6</ele>
        <time>2017-07-23T10:42:08Z</time>
      </trkpt>
      <trkpt lat="44.2197300" lon="7.1845390">
        <ele>1782.0</ele>
        <time>2017-07-23T10:42:09Z</time>
      </trkpt>
      <trkpt lat="44.2197850" lon="7.1845010">
        <ele>1782.0</ele>
        <time>2017-07-23T10:42:19Z</time>
      </trkpt>
      <trkpt lat="44.2198020" lon="7.1844940">
        <ele>1782.0</ele>
        <time>2017-07-23T10:42:20Z</time>
      </trkpt>
      <trkpt lat="44.2198190" lon="7.1844760">
        <ele>1782.2</ele>
        <time>2017-07-23T10:42:21Z</time>
      </trkpt>
      <trkpt lat="44.2199220" lon="7.1843840">
        <ele>1782.0</ele>
        <time>2017-07-23T10:42:24Z</time>
      </trkpt>
      <trkpt lat="44.2199720" lon="7.1843420">
        <ele>1782.0</ele>
        <time>2017-07-23T10:42:25Z</time>
      </trkpt>
      <trkpt lat="44.2201440" lon="7.1842080">
        <ele>1782.2</ele>
        <time>2017-07-23T10:42:28Z</time>
      </trkpt>
      <trkpt lat="44.2203220" lon="7.1840970">
        <ele>1782.0</ele>
        <time>2017-07-23T10:42:31Z</time>
      </trkpt>
      <trkpt lat="44.2204380" lon="7.1840640">
        <ele>1782.6</ele>
        <time>2017-07-23T10:42:33Z</time>
      </trkpt>
      <trkpt lat="44.2205910" lon="7.1839310">
        <ele>1782.6</ele>
        <time>2017-07-23T10:42:36Z</time>
      </trkpt>
      <trkpt lat="44.2207080" lon="7.1838130">
        <ele>1782.2</ele>
        <time>2017-07-23T10:42:38Z</time>
      </trkpt>
      <trkpt lat="44.2207660" lon="7.1837460">
        <ele>1781.6</ele>
        <time>2017-07-23T10:42:39Z</time>
      </trkpt>
      <trkpt lat="44.2208180" lon="7.1836700">
        <ele>1781.6</ele>
        <time>2017-07-23T10:42:40Z</time>
      </trkpt>
      <trkpt lat="44.2209150" lon="7.1834940">
        <ele>1780.8</ele>
        <time>2017-07-23T10:42:42Z</time>
      </trkpt>
      <trkpt lat="44.2209560" lon="7.1833910">
        <ele>1779.8</ele>
        <time>2017-07-23T10:42:43Z</time>
      </trkpt>
      <trkpt lat="44.2210410" lon="7.1832060">
        <ele>1778.0</ele>
        <time>2017-07-23T10:42:45Z</time>
      </trkpt>
      <trkpt lat="44.2211590" lon="7.1831140">
        <ele>1776.6</ele>
        <time>2017-07-23T10:42:47Z</time>
      </trkpt>
      <trkpt lat="44.2213150" lon="7.1830980">
        <ele>1775.4</ele>
        <time>2017-07-23T10:42:49Z</time>
      </trkpt>
      <trkpt lat="44.2214070" lon="7.1830780">
        <ele>1774.4</ele>
        <time>2017-07-23T10:42:50Z</time>
      </trkpt>
      <trkpt lat="44.2215000" lon="7.1830540">
        <ele>1772.4</ele>
        <time>2017-07-23T10:42:51Z</time>
      </trkpt>
      <trkpt lat="44.2215940" lon="7.1830330">
        <ele>1771.4</ele>
        <time>2017-07-23T10:42:52Z</time>
      </trkpt>
      <trkpt lat="44.2216940" lon="7.1830220">
        <ele>1770.4</ele>
        <time>2017-07-23T10:42:53Z</time>
      </trkpt>
      <trkpt lat="44.2217950" lon="7.1830200">
        <ele>1769.2</ele>
        <time>2017-07-23T10:42:54Z</time>
      </trkpt>
      <trkpt lat="44.2218970" lon="7.1830360">
        <ele>1767.8</ele>
        <time>2017-07-23T10:42:55Z</time>
      </trkpt>
      <trkpt lat="44.2219980" lon="7.1830640">
        <ele>1766.4</ele>
        <time>2017-07-23T10:42:56Z</time>
      </trkpt>
      <trkpt lat="44.2220940" lon="7.1830950">
        <ele>1765.0</ele>
        <time>2017-07-23T10:42:57Z</time>
      </trkpt>
      <trkpt lat="44.2221900" lon="7.1831270">
        <ele>1763.6</ele>
        <time>2017-07-23T10:42:58Z</time>
      </trkpt>
      <trkpt lat="44.2222790" lon="7.1831330">
        <ele>1762.2</ele>
        <time>2017-07-23T10:42:59Z</time>
      </trkpt>
      <trkpt lat="44.2223610" lon="7.1830920">
        <ele>1760.6</ele>
        <time>2017-07-23T10:43:00Z</time>
      </trkpt>
      <trkpt lat="44.2224400" lon="7.1830290">
        <ele>1759.4</ele>
        <time>2017-07-23T10:43:01Z</time>
      </trkpt>
      <trkpt lat="44.2225160" lon="7.1829500">
        <ele>1758.0</ele>
        <time>2017-07-23T10:43:02Z</time>
      </trkpt>
      <trkpt lat="44.2225930" lon="7.1828550">
        <ele>1756.8</ele>
        <time>2017-07-23T10:43:03Z</time>
      </trkpt>
      <trkpt lat="44.2226760" lon="7.1827520">
        <ele>1755.6</ele>
        <time>2017-07-23T10:43:04Z</time>
      </trkpt>
      <trkpt lat="44.2227630" lon="7.1826490">
        <ele>1754.2</ele>
        <time>2017-07-23T10:43:05Z</time>
      </trkpt>
      <trkpt lat="44.2228550" lon="7.1825610">
        <ele>1752.6</ele>
        <time>2017-07-23T10:43:06Z</time>
      </trkpt>
      <trkpt lat="44.2229560" lon="7.1824820">
        <ele>1751.2</ele>
        <time>2017-07-23T10:43:07Z</time>
      </trkpt>
      <trkpt lat="44.2230550" lon="7.1824290">
        <ele>1750.2</ele>
        <time>2017-07-23T10:43:08Z</time>
      </trkpt>
      <trkpt lat="44.2231510" lon="7.1824040">
        <ele>1749.4</ele>
        <time>2017-07-23T10:43:09Z</time>
      </trkpt>
      <trkpt lat="44.2233610" lon="7.1823620">
        <ele>1747.4</ele>
        <time>2017-07-23T10:43:11Z</time>
      </trkpt>
      <trkpt lat="44.2234750" lon="7.1823340">
        <ele>1746.6</ele>
        <time>2017-07-23T10:43:12Z</time>
      </trkpt>
      <trkpt lat="44.2235820" lon="7.1823160">
        <ele>1745.6</ele>
        <time>2017-07-23T10:43:13Z</time>
      </trkpt>
      <trkpt lat="44.2236890" lon="7.1823030">
        <ele>1744.4</ele>
        <time>2017-07-23T10:43:14Z</time>
      </trkpt>
      <trkpt lat="44.2237950" lon="7.1822980">
        <ele>1742.0</ele>
        <time>2017-07-23T10:43:15Z</time>
      </trkpt>
      <trkpt lat="44.2239010" lon="7.1823120">
        <ele>1740.6</ele>
        <time>2017-07-23T10:43:16Z</time>
      </trkpt>
      <trkpt lat="44.2240120" lon="7.1823380">
        <ele>1739.0</ele>
        <time>2017-07-23T10:43:17Z</time>
      </trkpt>
      <trkpt lat="44.2241180" lon="7.1823730">
        <ele>1737.2</ele>
        <time>2017-07-23T10:43:18Z</time>
      </trkpt>
      <trkpt lat="44.2242210" lon="7.1824150">
        <ele>1735.6</ele>
        <time>2017-07-23T10:43:19Z</time>
      </trkpt>
      <trkpt lat="44.2243170" lon="7.1824700">
        <ele>1733.6</ele>
        <time>2017-07-23T10:43:20Z</time>
      </trkpt>
      <trkpt lat="44.2244090" lon="7.1825530">
        <ele>1732.0</ele>
        <time>2017-07-23T10:43:21Z</time>
      </trkpt>
      <trkpt lat="44.2244980" lon="7.1826540">
        <ele>1730.2</ele>
        <time>2017-07-23T10:43:22Z</time>
      </trkpt>
      <trkpt lat="44.2245910" lon="7.1827460">
        <ele>1728.4</ele>
        <time>2017-07-23T10:43:23Z</time>
      </trkpt>
      <trkpt lat="44.2246900" lon="7.1828180">
        <ele>1726.4</ele>
        <time>2017-07-23T10:43:24Z</time>
      </trkpt>
      <trkpt lat="44.2247930" lon="7.1828790">
        <ele>1724.4</ele>
        <time>2017-07-23T10:43:25Z</time>
      </trkpt>
      <trkpt lat="44.2249050" lon="7.1829270">
        <ele>1722.4</ele>
        <time>2017-07-23T10:43:26Z</time>
      </trkpt>
      <trkpt lat="44.2250220" lon="7.1829630">
        <ele>1720.6</ele>
        <time>2017-07-23T10:43:27Z</time>
      </trkpt>
      <trkpt lat="44.2251420" lon="7.1829850">
        <ele>1718.8</ele>
        <time>2017-07-23T10:43:28Z</time>
      </trkpt>
      <trkpt lat="44.2252620" lon="7.1829800">
        <ele>1717.0</ele>
        <time>2017-07-23T10:43:29Z</time>
      </trkpt>
      <trkpt lat="44.2253800" lon="7.1829440">
        <ele>1715.2</ele>
        <time>2017-07-23T10:43:30Z</time>
      </trkpt>
      <trkpt lat="44.2254970" lon="7.1828890">
        <ele>1713.4</ele>
        <time>2017-07-23T10:43:31Z</time>
      </trkpt>
      <trkpt lat="44.2256190" lon="7.1828430">
        <ele>1712.0</ele>
        <time>2017-07-23T10:43:32Z</time>
      </trkpt>
      <trkpt lat="44.2257440" lon="7.1827990">
        <ele>1710.4</ele>
        <time>2017-07-23T10:43:33Z</time>
      </trkpt>
      <trkpt lat="44.2258730" lon="7.1827370">
        <ele>1708.8</ele>
        <time>2017-07-23T10:43:34Z</time>
      </trkpt>
      <trkpt lat="44.2259990" lon="7.1826570">
        <ele>1707.2</ele>
        <time>2017-07-23T10:43:35Z</time>
      </trkpt>
      <trkpt lat="44.2261270" lon="7.1825850">
        <ele>1705.8</ele>
        <time>2017-07-23T10:43:36Z</time>
      </trkpt>
      <trkpt lat="44.2262580" lon="7.1825490">
        <ele>1704.6</ele>
        <time>2017-07-23T10:43:37Z</time>
      </trkpt>
      <trkpt lat="44.2263940" lon="7.1825300">
        <ele>1703.6</ele>
        <time>2017-07-23T10:43:38Z</time>
      </trkpt>
      <trkpt lat="44.2265290" lon="7.1825180">
        <ele>1702.2</ele>
        <time>2017-07-23T10:43:39Z</time>
      </trkpt>
      <trkpt lat="44.2266640" lon="7.1825080">
        <ele>1699.4</ele>
        <time>2017-07-23T10:43:40Z</time>
      </trkpt>
      <trkpt lat="44.2267990" lon="7.1824830">
        <ele>1698.2</ele>
        <time>2017-07-23T10:43:41Z</time>
      </trkpt>
      <trkpt lat="44.2269330" lon="7.1824430">
        <ele>1697.0</ele>
        <time>2017-07-23T10:43:42Z</time>
      </trkpt>
      <trkpt lat="44.2270620" lon="7.1824060">
        <ele>1696.0</ele>
        <time>2017-07-23T10:43:43Z</time>
      </trkpt>
      <trkpt lat="44.2271860" lon="7.1823790">
        <ele>1694.8</ele>
        <time>2017-07-23T10:43:44Z</time>
      </trkpt>
      <trkpt lat="44.2272990" lon="7.1823760">
        <ele>1693.4</ele>
        <time>2017-07-23T10:43:45Z</time>
      </trkpt>
      <trkpt lat="44.2274080" lon="7.1823570">
        <ele>1692.4</ele>
        <time>2017-07-23T10:43:46Z</time>
      </trkpt>
      <trkpt lat="44.2275060" lon="7.1823530">
        <ele>1690.8</ele>
        <time>2017-07-23T10:43:47Z</time>
      </trkpt>
      <trkpt lat="44.2275960" lon="7.1823850">
        <ele>1689.8</ele>
        <time>2017-07-23T10:43:48Z</time>
      </trkpt>
      <trkpt lat="44.2276790" lon="7.1824310">
        <ele>1688.4</ele>
        <time>2017-07-23T10:43:49Z</time>
      </trkpt>
      <trkpt lat="44.2277630" lon="7.1824500">
        <ele>1687.4</ele>
        <time>2017-07-23T10:43:50Z</time>
      </trkpt>
      <trkpt lat="44.2278520" lon="7.1824410">
        <ele>1686.2</ele>
        <time>2017-07-23T10:43:51Z</time>
      </trkpt>
      <trkpt lat="44.2279440" lon="7.1824110">
        <ele>1685.0</ele>
        <time>2017-07-23T10:43:52Z</time>
      </trkpt>
      <trkpt lat="44.2280320" lon="7.1823600">
        <ele>1683.8</ele>
        <time>2017-07-23T10:43:53Z</time>
      </trkpt>
      <trkpt lat="44.2281120" lon="7.1822750">
        <ele>1682.8</ele>
        <time>2017-07-23T10:43:54Z</time>
      </trkpt>
      <trkpt lat="44.2283000" lon="7.1821420">
        <ele>1681.0</ele>
        <time>2017-07-23T10:43:56Z</time>
      </trkpt>
      <trkpt lat="44.2285060" lon="7.1820410">
        <ele>1679.0</ele>
        <time>2017-07-23T10:43:58Z</time>
      </trkpt>
      <trkpt lat="44.2286080" lon="7.1819970">
        <ele>1678.2</ele>
        <time>2017-07-23T10:43:59Z</time>
      </trkpt>
      <trkpt lat="44.2287090" lon="7.1819690">
        <ele>1677.0</ele>
        <time>2017-07-23T10:44:00Z</time>
      </trkpt>
      <trkpt lat="44.2288060" lon="7.1819560">
        <ele>1676.4</ele>
        <time>2017-07-23T10:44:01Z</time>
      </trkpt>
      <trkpt lat="44.2288960" lon="7.1819350">
        <ele>1675.4</ele>
        <time>2017-07-23T10:44:02Z</time>
      </trkpt>
      <trkpt lat="44.2290690" lon="7.1818360">
        <ele>1672.8</ele>
        <time>2017-07-23T10:44:04Z</time>
      </trkpt>
      <trkpt lat="44.2291620" lon="7.1817890">
        <ele>1671.8</ele>
        <time>2017-07-23T10:44:05Z</time>
      </trkpt>
      <trkpt lat="44.2292650" lon="7.1817530">
        <ele>1671.2</ele>
        <time>2017-07-23T10:44:06Z</time>
      </trkpt>
      <trkpt lat="44.2293770" lon="7.1817250">
        <ele>1670.2</ele>
        <time>2017-07-23T10:44:07Z</time>
      </trkpt>
      <trkpt lat="44.2294910" lon="7.1816780">
        <ele>1669.0</ele>
        <time>2017-07-23T10:44:08Z</time>
      </trkpt>
      <trkpt lat="44.2296030" lon="7.1816140">
        <ele>1667.6</ele>
        <time>2017-07-23T10:44:09Z</time>
      </trkpt>
      <trkpt lat="44.2297120" lon="7.1815380">
        <ele>1666.2</ele>
        <time>2017-07-23T10:44:10Z</time>
      </trkpt>
      <trkpt lat="44.2298230" lon="7.1814640">
        <ele>1665.0</ele>
        <time>2017-07-23T10:44:11Z</time>
      </trkpt>
      <trkpt lat="44.2300710" lon="7.1813630">
        <ele>1663.4</ele>
        <time>2017-07-23T10:44:13Z</time>
      </trkpt>
      <trkpt lat="44.2301970" lon="7.1813420">
        <ele>1662.2</ele>
        <time>2017-07-23T10:44:14Z</time>
      </trkpt>
      <trkpt lat="44.2303180" lon="7.1813310">
        <ele>1661.2</ele>
        <time>2017-07-23T10:44:15Z</time>
      </trkpt>
      <trkpt lat="44.2305570" lon="7.1812940">
        <ele>1659.6</ele>
        <time>2017-07-23T10:44:17Z</time>
      </trkpt>
      <trkpt lat="44.2306760" lon="7.1812670">
        <ele>1658.2</ele>
        <time>2017-07-23T10:44:18Z</time>
      </trkpt>
      <trkpt lat="44.2307930" lon="7.1812460">
        <ele>1656.8</ele>
        <time>2017-07-23T10:44:19Z</time>
      </trkpt>
      <trkpt lat="44.2309090" lon="7.1812230">
        <ele>1655.6</ele>
        <time>2017-07-23T10:44:20Z</time>
      </trkpt>
      <trkpt lat="44.2311440" lon="7.1811710">
        <ele>1654.4</ele>
        <time>2017-07-23T10:44:22Z</time>
      </trkpt>
      <trkpt lat="44.2313700" lon="7.1811300">
        <ele>1652.6</ele>
        <time>2017-07-23T10:44:24Z</time>
      </trkpt>
      <trkpt lat="44.2314790" lon="7.1811090">
        <ele>1651.6</ele>
        <time>2017-07-23T10:44:25Z</time>
      </trkpt>
      <trkpt lat="44.2316800" lon="7.1810610">
        <ele>1649.8</ele>
        <time>2017-07-23T10:44:27Z</time>
      </trkpt>
      <trkpt lat="44.2317720" lon="7.1810140">
        <ele>1648.4</ele>
        <time>2017-07-23T10:44:28Z</time>
      </trkpt>
      <trkpt lat="44.2319430" lon="7.1808780">
        <ele>1646.6</ele>
        <time>2017-07-23T10:44:30Z</time>
      </trkpt>
      <trkpt lat="44.2321110" lon="7.1807450">
        <ele>1645.0</ele>
        <time>2017-07-23T10:44:32Z</time>
      </trkpt>
      <trkpt lat="44.2322960" lon="7.1806500">
        <ele>1643.8</ele>
        <time>2017-07-23T10:44:34Z</time>
      </trkpt>
      <trkpt lat="44.2325020" lon="7.1805850">
        <ele>1642.2</ele>
        <time>2017-07-23T10:44:36Z</time>
      </trkpt>
      <trkpt lat="44.2326100" lon="7.1805420">
        <ele>1641.0</ele>
        <time>2017-07-23T10:44:37Z</time>
      </trkpt>
      <trkpt lat="44.2328200" lon="7.1804440">
        <ele>1639.6</ele>
        <time>2017-07-23T10:44:39Z</time>
      </trkpt>
      <trkpt lat="44.2330230" lon="7.1803540">
        <ele>1638.2</ele>
        <time>2017-07-23T10:44:41Z</time>
      </trkpt>
      <trkpt lat="44.2331150" lon="7.1802990">
        <ele>1637.4</ele>
        <time>2017-07-23T10:44:42Z</time>
      </trkpt>
      <trkpt lat="44.2332100" lon="7.1802310">
        <ele>1636.8</ele>
        <time>2017-07-23T10:44:43Z</time>
      </trkpt>
      <trkpt lat="44.2334030" lon="7.1801000">
        <ele>1635.6</ele>
        <time>2017-07-23T10:44:45Z</time>
      </trkpt>
      <trkpt lat="44.2334890" lon="7.1800610">
        <ele>1635.2</ele>
        <time>2017-07-23T10:44:46Z</time>
      </trkpt>
      <trkpt lat="44.2335860" lon="7.1800480">
        <ele>1634.6</ele>
        <time>2017-07-23T10:44:47Z</time>
      </trkpt>
      <trkpt lat="44.2337780" lon="7.1800700">
        <ele>1633.6</ele>
        <time>2017-07-23T10:44:49Z</time>
      </trkpt>
      <trkpt lat="44.2338760" lon="7.1800700">
        <ele>1633.2</ele>
        <time>2017-07-23T10:44:50Z</time>
      </trkpt>
      <trkpt lat="44.2340580" lon="7.1800250">
        <ele>1631.8</ele>
        <time>2017-07-23T10:44:52Z</time>
      </trkpt>
      <trkpt lat="44.2341960" lon="7.1799420">
        <ele>1630.6</ele>
        <time>2017-07-23T10:44:54Z</time>
      </trkpt>
      <trkpt lat="44.2342450" lon="7.1798890">
        <ele>1630.0</ele>
        <time>2017-07-23T10:44:55Z</time>
      </trkpt>
      <trkpt lat="44.2342740" lon="7.1798300">
        <ele>1629.4</ele>
        <time>2017-07-23T10:44:56Z</time>
      </trkpt>
      <trkpt lat="44.2342980" lon="7.1796970">
        <ele>1627.8</ele>
        <time>2017-07-23T10:44:58Z</time>
      </trkpt>
      <trkpt lat="44.2343240" lon="7.1795010">
        <ele>1626.2</ele>
        <time>2017-07-23T10:45:00Z</time>
      </trkpt>
      <trkpt lat="44.2343580" lon="7.1793800">
        <ele>1625.6</ele>
        <time>2017-07-23T10:45:01Z</time>
      </trkpt>
      <trkpt lat="44.2343950" lon="7.1792610">
        <ele>1624.6</ele>
        <time>2017-07-23T10:45:02Z</time>
      </trkpt>
      <trkpt lat="44.2344430" lon="7.1791550">
        <ele>1623.6</ele>
        <time>2017-07-23T10:45:03Z</time>
      </trkpt>
      <trkpt lat="44.2344900" lon="7.1790520">
        <ele>1622.8</ele>
        <time>2017-07-23T10:45:04Z</time>
      </trkpt>
      <trkpt lat="44.2345420" lon="7.1789660">
        <ele>1621.8</ele>
        <time>2017-07-23T10:45:05Z</time>
      </trkpt>
      <trkpt lat="44.2345960" lon="7.1788940">
        <ele>1621.0</ele>
        <time>2017-07-23T10:45:06Z</time>
      </trkpt>
      <trkpt lat="44.2346500" lon="7.1788300">
        <ele>1619.8</ele>
        <time>2017-07-23T10:45:07Z</time>
      </trkpt>
      <trkpt lat="44.2347110" lon="7.1787880">
        <ele>1619.0</ele>
        <time>2017-07-23T10:45:08Z</time>
      </trkpt>
      <trkpt lat="44.2347770" lon="7.1787730">
        <ele>1618.2</ele>
        <time>2017-07-23T10:45:09Z</time>
      </trkpt>
      <trkpt lat="44.2349160" lon="7.1786810">
        <ele>1617.0</ele>
        <time>2017-07-23T10:45:11Z</time>
      </trkpt>
      <trkpt lat="44.2349940" lon="7.1786230">
        <ele>1616.2</ele>
        <time>2017-07-23T10:45:12Z</time>
      </trkpt>
      <trkpt lat="44.2350770" lon="7.1785540">
        <ele>1615.2</ele>
        <time>2017-07-23T10:45:13Z</time>
      </trkpt>
      <trkpt lat="44.2351610" lon="7.1784900">
        <ele>1614.0</ele>
        <time>2017-07-23T10:45:14Z</time>
      </trkpt>
      <trkpt lat="44.2353230" lon="7.1783370">
        <ele>1611.2</ele>
        <time>2017-07-23T10:45:16Z</time>
      </trkpt>
      <trkpt lat="44.2353900" lon="7.1782530">
        <ele>1610.0</ele>
        <time>2017-07-23T10:45:17Z</time>
      </trkpt>
      <trkpt lat="44.2354720" lon="7.1782040">
        <ele>1608.8</ele>
        <time>2017-07-23T10:45:18Z</time>
      </trkpt>
      <trkpt lat="44.2355490" lon="7.1782050">
        <ele>1607.4</ele>
        <time>2017-07-23T10:45:19Z</time>
      </trkpt>
      <trkpt lat="44.2356200" lon="7.1782230">
        <ele>1606.2</ele>
        <time>2017-07-23T10:45:20Z</time>
      </trkpt>
      <trkpt lat="44.2356930" lon="7.1782080">
        <ele>1605.2</ele>
        <time>2017-07-23T10:45:21Z</time>
      </trkpt>
      <trkpt lat="44.2357830" lon="7.1781710">
        <ele>1604.2</ele>
        <time>2017-07-23T10:45:22Z</time>
      </trkpt>
      <trkpt lat="44.2358620" lon="7.1781320">
        <ele>1603.4</ele>
        <time>2017-07-23T10:45:23Z</time>
      </trkpt>
      <trkpt lat="44.2359430" lon="7.1780720">
        <ele>1602.0</ele>
        <time>2017-07-23T10:45:24Z</time>
      </trkpt>
      <trkpt lat="44.2360300" lon="7.1780110">
        <ele>1601.2</ele>
        <time>2017-07-23T10:45:25Z</time>
      </trkpt>
      <trkpt lat="44.2361220" lon="7.1779520">
        <ele>1600.0</ele>
        <time>2017-07-23T10:45:26Z</time>
      </trkpt>
      <trkpt lat="44.2363140" lon="7.1778610">
        <ele>1598.2</ele>
        <time>2017-07-23T10:45:28Z</time>
      </trkpt>
      <trkpt lat="44.2365300" lon="7.1777700">
        <ele>1596.2</ele>
        <time>2017-07-23T10:45:30Z</time>
      </trkpt>
      <trkpt lat="44.2366460" lon="7.1777050">
        <ele>1595.0</ele>
        <time>2017-07-23T10:45:31Z</time>
      </trkpt>
      <trkpt lat="44.2367630" lon="7.1776340">
        <ele>1593.8</ele>
        <time>2017-07-23T10:45:32Z</time>
      </trkpt>
      <trkpt lat="44.2368800" lon="7.1775540">
        <ele>1593.0</ele>
        <time>2017-07-23T10:45:33Z</time>
      </trkpt>
      <trkpt lat="44.2369990" lon="7.1774830">
        <ele>1592.0</ele>
        <time>2017-07-23T10:45:34Z</time>
      </trkpt>
      <trkpt lat="44.2371010" lon="7.1774200">
        <ele>1590.8</ele>
        <time>2017-07-23T10:45:35Z</time>
      </trkpt>
      <trkpt lat="44.2371980" lon="7.1773440">
        <ele>1589.8</ele>
        <time>2017-07-23T10:45:36Z</time>
      </trkpt>
      <trkpt lat="44.2372800" lon="7.1772470">
        <ele>1588.6</ele>
        <time>2017-07-23T10:45:37Z</time>
      </trkpt>
      <trkpt lat="44.2373530" lon="7.1771550">
        <ele>1587.8</ele>
        <time>2017-07-23T10:45:38Z</time>
      </trkpt>
      <trkpt lat="44.2374160" lon="7.1770590">
        <ele>1586.6</ele>
        <time>2017-07-23T10:45:39Z</time>
      </trkpt>
      <trkpt lat="44.2374790" lon="7.1769720">
        <ele>1583.2</ele>
        <time>2017-07-23T10:45:40Z</time>
      </trkpt>
      <trkpt lat="44.2375470" lon="7.1769120">
        <ele>1581.6</ele>
        <time>2017-07-23T10:45:41Z</time>
      </trkpt>
      <trkpt lat="44.2376150" lon="7.1768640">
        <ele>1580.2</ele>
        <time>2017-07-23T10:45:42Z</time>
      </trkpt>
      <trkpt lat="44.2376890" lon="7.1768130">
        <ele>1579.0</ele>
        <time>2017-07-23T10:45:43Z</time>
      </trkpt>
      <trkpt lat="44.2377770" lon="7.1767720">
        <ele>1578.0</ele>
        <time>2017-07-23T10:45:44Z</time>
      </trkpt>
      <trkpt lat="44.2378740" lon="7.1767420">
        <ele>1576.8</ele>
        <time>2017-07-23T10:45:45Z</time>
      </trkpt>
      <trkpt lat="44.2380590" lon="7.1767070">
        <ele>1574.6</ele>
        <time>2017-07-23T10:45:47Z</time>
      </trkpt>
      <trkpt lat="44.2382450" lon="7.1766870">
        <ele>1573.0</ele>
        <time>2017-07-23T10:45:49Z</time>
      </trkpt>
      <trkpt lat="44.2383290" lon="7.1766980">
        <ele>1572.0</ele>
        <time>2017-07-23T10:45:50Z</time>
      </trkpt>
      <trkpt lat="44.2384040" lon="7.1766940">
        <ele>1570.4</ele>
        <time>2017-07-23T10:45:51Z</time>
      </trkpt>
      <trkpt lat="44.2384750" lon="7.1766640">
        <ele>1569.0</ele>
        <time>2017-07-23T10:45:52Z</time>
      </trkpt>
      <trkpt lat="44.2385360" lon="7.1766130">
        <ele>1567.8</ele>
        <time>2017-07-23T10:45:53Z</time>
      </trkpt>
      <trkpt lat="44.2386020" lon="7.1765460">
        <ele>1566.8</ele>
        <time>2017-07-23T10:45:54Z</time>
      </trkpt>
      <trkpt lat="44.2386730" lon="7.1764850">
        <ele>1565.8</ele>
        <time>2017-07-23T10:45:55Z</time>
      </trkpt>
      <trkpt lat="44.2387510" lon="7.1764370">
        <ele>1564.6</ele>
        <time>2017-07-23T10:45:56Z</time>
      </trkpt>
      <trkpt lat="44.2388340" lon="7.1763930">
        <ele>1563.4</ele>
        <time>2017-07-23T10:45:57Z</time>
      </trkpt>
      <trkpt lat="44.2389150" lon="7.1763350">
        <ele>1562.4</ele>
        <time>2017-07-23T10:45:58Z</time>
      </trkpt>
      <trkpt lat="44.2390750" lon="7.1762040">
        <ele>1560.4</ele>
        <time>2017-07-23T10:46:00Z</time>
      </trkpt>
      <trkpt lat="44.2391560" lon="7.1761570">
        <ele>1559.2</ele>
        <time>2017-07-23T10:46:01Z</time>
      </trkpt>
      <trkpt lat="44.2392370" lon="7.1761290">
        <ele>1558.0</ele>
        <time>2017-07-23T10:46:02Z</time>
      </trkpt>
      <trkpt lat="44.2393220" lon="7.1761070">
        <ele>1556.8</ele>
        <time>2017-07-23T10:46:03Z</time>
      </trkpt>
      <trkpt lat="44.2394080" lon="7.1760800">
        <ele>1555.0</ele>
        <time>2017-07-23T10:46:04Z</time>
      </trkpt>
      <trkpt lat="44.2394900" lon="7.1760480">
        <ele>1554.0</ele>
        <time>2017-07-23T10:46:05Z</time>
      </trkpt>
      <trkpt lat="44.2395780" lon="7.1760220">
        <ele>1553.0</ele>
        <time>2017-07-23T10:46:06Z</time>
      </trkpt>
      <trkpt lat="44.2397630" lon="7.1759720">
        <ele>1551.8</ele>
        <time>2017-07-23T10:46:08Z</time>
      </trkpt>
      <trkpt lat="44.2398580" lon="7.1759350">
        <ele>1550.8</ele>
        <time>2017-07-23T10:46:09Z</time>
      </trkpt>
      <trkpt lat="44.2399550" lon="7.1758920">
        <ele>1550.0</ele>
        <time>2017-07-23T10:46:10Z</time>
      </trkpt>
      <trkpt lat="44.2401680" lon="7.1758180">
        <ele>1548.4</ele>
        <time>2017-07-23T10:46:12Z</time>
      </trkpt>
      <trkpt lat="44.2402760" lon="7.1757930">
        <ele>1547.4</ele>
        <time>2017-07-23T10:46:13Z</time>
      </trkpt>
      <trkpt lat="44.2403820" lon="7.1757630">
        <ele>1546.2</ele>
        <time>2017-07-23T10:46:14Z</time>
      </trkpt>
      <trkpt lat="44.2404860" lon="7.1757450">
        <ele>1545.0</ele>
        <time>2017-07-23T10:46:15Z</time>
      </trkpt>
      <trkpt lat="44.2405870" lon="7.1757360">
        <ele>1544.0</ele>
        <time>2017-07-23T10:46:16Z</time>
      </trkpt>
      <trkpt lat="44.2406970" lon="7.1757100">
        <ele>1543.0</ele>
        <time>2017-07-23T10:46:17Z</time>
      </trkpt>
      <trkpt lat="44.2408060" lon="7.1756820">
        <ele>1542.0</ele>
        <time>2017-07-23T10:46:18Z</time>
      </trkpt>
      <trkpt lat="44.2410290" lon="7.1755990">
        <ele>1540.6</ele>
        <time>2017-07-23T10:46:20Z</time>
      </trkpt>
      <trkpt lat="44.2412370" lon="7.1755020">
        <ele>1539.0</ele>
        <time>2017-07-23T10:46:22Z</time>
      </trkpt>
      <trkpt lat="44.2413170" lon="7.1754910">
        <ele>1538.0</ele>
        <time>2017-07-23T10:46:23Z</time>
      </trkpt>
      <trkpt lat="44.2414040" lon="7.1754840">
        <ele>1536.8</ele>
        <time>2017-07-23T10:46:24Z</time>
      </trkpt>
      <trkpt lat="44.2415030" lon="7.1754740">
        <ele>1535.8</ele>
        <time>2017-07-23T10:46:25Z</time>
      </trkpt>
      <trkpt lat="44.2416030" lon="7.1754540">
        <ele>1534.6</ele>
        <time>2017-07-23T10:46:26Z</time>
      </trkpt>
      <trkpt lat="44.2417040" lon="7.1754320">
        <ele>1533.8</ele>
        <time>2017-07-23T10:46:27Z</time>
      </trkpt>
      <trkpt lat="44.2418030" lon="7.1754260">
        <ele>1531.8</ele>
        <time>2017-07-23T10:46:28Z</time>
      </trkpt>
      <trkpt lat="44.2418980" lon="7.1753930">
        <ele>1530.6</ele>
        <time>2017-07-23T10:46:29Z</time>
      </trkpt>
      <trkpt lat="44.2419980" lon="7.1753470">
        <ele>1530.0</ele>
        <time>2017-07-23T10:46:30Z</time>
      </trkpt>
      <trkpt lat="44.2420870" lon="7.1753190">
        <ele>1529.4</ele>
        <time>2017-07-23T10:46:31Z</time>
      </trkpt>
      <trkpt lat="44.2422770" lon="7.1752780">
        <ele>1528.0</ele>
        <time>2017-07-23T10:46:33Z</time>
      </trkpt>
      <trkpt lat="44.2424590" lon="7.1752270">
        <ele>1526.4</ele>
        <time>2017-07-23T10:46:35Z</time>
      </trkpt>
      <trkpt lat="44.2426440" lon="7.1751770">
        <ele>1525.0</ele>
        <time>2017-07-23T10:46:37Z</time>
      </trkpt>
      <trkpt lat="44.2428330" lon="7.1751040">
        <ele>1524.0</ele>
        <time>2017-07-23T10:46:39Z</time>
      </trkpt>
      <trkpt lat="44.2431190" lon="7.1749500">
        <ele>1522.4</ele>
        <time>2017-07-23T10:46:42Z</time>
      </trkpt>
      <trkpt lat="44.2433150" lon="7.1748230">
        <ele>1521.2</ele>
        <time>2017-07-23T10:46:44Z</time>
      </trkpt>
      <trkpt lat="44.2434980" lon="7.1746590">
        <ele>1519.8</ele>
        <time>2017-07-23T10:46:46Z</time>
      </trkpt>
      <trkpt lat="44.2435870" lon="7.1746030">
        <ele>1519.0</ele>
        <time>2017-07-23T10:46:47Z</time>
      </trkpt>
      <trkpt lat="44.2436890" lon="7.1745450">
        <ele>1518.2</ele>
        <time>2017-07-23T10:46:48Z</time>
      </trkpt>
      <trkpt lat="44.2437780" lon="7.1745030">
        <ele>1517.4</ele>
        <time>2017-07-23T10:46:49Z</time>
      </trkpt>
      <trkpt lat="44.2438700" lon="7.1744360">
        <ele>1516.6</ele>
        <time>2017-07-23T10:46:50Z</time>
      </trkpt>
      <trkpt lat="44.2439670" lon="7.1743620">
        <ele>1515.8</ele>
        <time>2017-07-23T10:46:51Z</time>
      </trkpt>
      <trkpt lat="44.2440650" lon="7.1742830">
        <ele>1514.6</ele>
        <time>2017-07-23T10:46:52Z</time>
      </trkpt>
      <trkpt lat="44.2442700" lon="7.1741370">
        <ele>1512.8</ele>
        <time>2017-07-23T10:46:54Z</time>
      </trkpt>
      <trkpt lat="44.2443730" lon="7.1740930">
        <ele>1511.8</ele>
        <time>2017-07-23T10:46:55Z</time>
      </trkpt>
      <trkpt lat="44.2444680" lon="7.1740770">
        <ele>1511.0</ele>
        <time>2017-07-23T10:46:56Z</time>
      </trkpt>
      <trkpt lat="44.2445570" lon="7.1740810">
        <ele>1510.2</ele>
        <time>2017-07-23T10:46:57Z</time>
      </trkpt>
      <trkpt lat="44.2447430" lon="7.1740850">
        <ele>1508.6</ele>
        <time>2017-07-23T10:46:59Z</time>
      </trkpt>
      <trkpt lat="44.2448250" lon="7.1741170">
        <ele>1508.0</ele>
        <time>2017-07-23T10:47:00Z</time>
      </trkpt>
      <trkpt lat="44.2448910" lon="7.1741570">
        <ele>1507.2</ele>
        <time>2017-07-23T10:47:01Z</time>
      </trkpt>
      <trkpt lat="44.2449550" lon="7.1742250">
        <ele>1506.0</ele>
        <time>2017-07-23T10:47:02Z</time>
      </trkpt>
      <trkpt lat="44.2450250" lon="7.1742880">
        <ele>1505.0</ele>
        <time>2017-07-23T10:47:03Z</time>
      </trkpt>
      <trkpt lat="44.2451040" lon="7.1743360">
        <ele>1503.8</ele>
        <time>2017-07-23T10:47:04Z</time>
      </trkpt>
      <trkpt lat="44.2452810" lon="7.1744170">
        <ele>1501.8</ele>
        <time>2017-07-23T10:47:06Z</time>
      </trkpt>
      <trkpt lat="44.2453780" lon="7.1744550">
        <ele>1500.8</ele>
        <time>2017-07-23T10:47:07Z</time>
      </trkpt>
      <trkpt lat="44.2454800" lon="7.1744850">
        <ele>1499.6</ele>
        <time>2017-07-23T10:47:08Z</time>
      </trkpt>
      <trkpt lat="44.2456900" lon="7.1745260">
        <ele>1497.8</ele>
        <time>2017-07-23T10:47:10Z</time>
      </trkpt>
      <trkpt lat="44.2459110" lon="7.1745520">
        <ele>1495.8</ele>
        <time>2017-07-23T10:47:12Z</time>
      </trkpt>
      <trkpt lat="44.2461330" lon="7.1745980">
        <ele>1494.2</ele>
        <time>2017-07-23T10:47:14Z</time>
      </trkpt>
      <trkpt lat="44.2462410" lon="7.1746260">
        <ele>1493.4</ele>
        <time>2017-07-23T10:47:15Z</time>
      </trkpt>
      <trkpt lat="44.2463450" lon="7.1746450">
        <ele>1491.4</ele>
        <time>2017-07-23T10:47:16Z</time>
      </trkpt>
      <trkpt lat="44.2465420" lon="7.1746800">
        <ele>1490.2</ele>
        <time>2017-07-23T10:47:18Z</time>
      </trkpt>
      <trkpt lat="44.2466370" lon="7.1747060">
        <ele>1490.2</ele>
        <time>2017-07-23T10:47:19Z</time>
      </trkpt>
      <trkpt lat="44.2467400" lon="7.1747360">
        <ele>1489.2</ele>
        <time>2017-07-23T10:47:20Z</time>
      </trkpt>
      <trkpt lat="44.2469460" lon="7.1747760">
        <ele>1487.0</ele>
        <time>2017-07-23T10:47:22Z</time>
      </trkpt>
      <trkpt lat="44.2470440" lon="7.1747980">
        <ele>1486.6</ele>
        <time>2017-07-23T10:47:23Z</time>
      </trkpt>
      <trkpt lat="44.2471350" lon="7.1748160">
        <ele>1486.0</ele>
        <time>2017-07-23T10:47:24Z</time>
      </trkpt>
      <trkpt lat="44.2473030" lon="7.1748310">
        <ele>1485.0</ele>
        <time>2017-07-23T10:47:26Z</time>
      </trkpt>
      <trkpt lat="44.2473770" lon="7.1748290">
        <ele>1484.4</ele>
        <time>2017-07-23T10:47:27Z</time>
      </trkpt>
      <trkpt lat="44.2474450" lon="7.1748270">
        <ele>1483.8</ele>
        <time>2017-07-23T10:47:28Z</time>
      </trkpt>
      <trkpt lat="44.2475690" lon="7.1748430">
        <ele>1483.0</ele>
        <time>2017-07-23T10:47:30Z</time>
      </trkpt>
      <trkpt lat="44.2476280" lon="7.1748570">
        <ele>1482.6</ele>
        <time>2017-07-23T10:47:31Z</time>
      </trkpt>
      <trkpt lat="44.2477960" lon="7.1749130">
        <ele>1482.0</ele>
        <time>2017-07-23T10:47:34Z</time>
      </trkpt>
      <trkpt lat="44.2478450" lon="7.1749480">
        <ele>1481.6</ele>
        <time>2017-07-23T10:47:35Z</time>
      </trkpt>
      <trkpt lat="44.2478890" lon="7.1749950">
        <ele>1481.4</ele>
        <time>2017-07-23T10:47:36Z</time>
      </trkpt>
      <trkpt lat="44.2481240" lon="7.1751490">
        <ele>1480.4</ele>
        <time>2017-07-23T10:47:41Z</time>
      </trkpt>
      <trkpt lat="44.2484270" lon="7.1752560">
        <ele>1479.4</ele>
        <time>2017-07-23T10:47:45Z</time>
      </trkpt>
      <trkpt lat="44.2487360" lon="7.1753390">
        <ele>1478.0</ele>
        <time>2017-07-23T10:47:48Z</time>
      </trkpt>
      <trkpt lat="44.2488450" lon="7.1753690">
        <ele>1477.2</ele>
        <time>2017-07-23T10:47:49Z</time>
      </trkpt>
      <trkpt lat="44.2489500" lon="7.1754000">
        <ele>1476.8</ele>
        <time>2017-07-23T10:47:50Z</time>
      </trkpt>
      <trkpt lat="44.2491390" lon="7.1754480">
        <ele>1475.4</ele>
        <time>2017-07-23T10:47:52Z</time>
      </trkpt>
      <trkpt lat="44.2492260" lon="7.1754560">
        <ele>1474.6</ele>
        <time>2017-07-23T10:47:53Z</time>
      </trkpt>
      <trkpt lat="44.2493110" lon="7.1754500">
        <ele>1473.8</ele>
        <time>2017-07-23T10:47:54Z</time>
      </trkpt>
      <trkpt lat="44.2494690" lon="7.1754200">
        <ele>1472.6</ele>
        <time>2017-07-23T10:47:56Z</time>
      </trkpt>
      <trkpt lat="44.2495450" lon="7.1754060">
        <ele>1472.2</ele>
        <time>2017-07-23T10:47:57Z</time>
      </trkpt>
      <trkpt lat="44.2496190" lon="7.1753910">
        <ele>1471.6</ele>
        <time>2017-07-23T10:47:58Z</time>
      </trkpt>
      <trkpt lat="44.2497750" lon="7.1753680">
        <ele>1469.8</ele>
        <time>2017-07-23T10:48:00Z</time>
      </trkpt>
      <trkpt lat="44.2499500" lon="7.1753310">
        <ele>1468.6</ele>
        <time>2017-07-23T10:48:02Z</time>
      </trkpt>
      <trkpt lat="44.2501450" lon="7.1752810">
        <ele>1466.4</ele>
        <time>2017-07-23T10:48:04Z</time>
      </trkpt>
      <trkpt lat="44.2503660" lon="7.1752140">
        <ele>1464.8</ele>
        <time>2017-07-23T10:48:06Z</time>
      </trkpt>
      <trkpt lat="44.2506040" lon="7.1751250">
        <ele>1463.4</ele>
        <time>2017-07-23T10:48:08Z</time>
      </trkpt>
      <trkpt lat="44.2508290" lon="7.1750420">
        <ele>1462.0</ele>
        <time>2017-07-23T10:48:10Z</time>
      </trkpt>
      <trkpt lat="44.2509400" lon="7.1750310">
        <ele>1461.6</ele>
        <time>2017-07-23T10:48:11Z</time>
      </trkpt>
      <trkpt lat="44.2511600" lon="7.1749980">
        <ele>1460.2</ele>
        <time>2017-07-23T10:48:13Z</time>
      </trkpt>
      <trkpt lat="44.2512750" lon="7.1749690">
        <ele>1459.4</ele>
        <time>2017-07-23T10:48:14Z</time>
      </trkpt>
      <trkpt lat="44.2513980" lon="7.1749430">
        <ele>1458.8</ele>
        <time>2017-07-23T10:48:15Z</time>
      </trkpt>
      <trkpt lat="44.2515240" lon="7.1749330">
        <ele>1458.2</ele>
        <time>2017-07-23T10:48:16Z</time>
      </trkpt>
      <trkpt lat="44.2516500" lon="7.1749300">
        <ele>1457.4</ele>
        <time>2017-07-23T10:48:17Z</time>
      </trkpt>
      <trkpt lat="44.2518850" lon="7.1749200">
        <ele>1455.2</ele>
        <time>2017-07-23T10:48:19Z</time>
      </trkpt>
      <trkpt lat="44.2521050" lon="7.1749370">
        <ele>1453.4</ele>
        <time>2017-07-23T10:48:21Z</time>
      </trkpt>
      <trkpt lat="44.2523450" lon="7.1749820">
        <ele>1451.4</ele>
        <time>2017-07-23T10:48:23Z</time>
      </trkpt>
      <trkpt lat="44.2524730" lon="7.1750190">
        <ele>1450.4</ele>
        <time>2017-07-23T10:48:24Z</time>
      </trkpt>
      <trkpt lat="44.2526050" lon="7.1750700">
        <ele>1449.4</ele>
        <time>2017-07-23T10:48:25Z</time>
      </trkpt>
      <trkpt lat="44.2527400" lon="7.1751240">
        <ele>1448.4</ele>
        <time>2017-07-23T10:48:26Z</time>
      </trkpt>
      <trkpt lat="44.2528850" lon="7.1751610">
        <ele>1447.4</ele>
        <time>2017-07-23T10:48:27Z</time>
      </trkpt>
      <trkpt lat="44.2530250" lon="7.1751670">
        <ele>1444.8</ele>
        <time>2017-07-23T10:48:28Z</time>
      </trkpt>
      <trkpt lat="44.2531630" lon="7.1751640">
        <ele>1443.6</ele>
        <time>2017-07-23T10:48:29Z</time>
      </trkpt>
      <trkpt lat="44.2534380" lon="7.1751370">
        <ele>1441.6</ele>
        <time>2017-07-23T10:48:31Z</time>
      </trkpt>
      <trkpt lat="44.2536950" lon="7.1751040">
        <ele>1439.6</ele>
        <time>2017-07-23T10:48:33Z</time>
      </trkpt>
      <trkpt lat="44.2538190" lon="7.1751060">
        <ele>1438.8</ele>
        <time>2017-07-23T10:48:34Z</time>
      </trkpt>
      <trkpt lat="44.2539340" lon="7.1751520">
        <ele>1437.8</ele>
        <time>2017-07-23T10:48:35Z</time>
      </trkpt>
      <trkpt lat="44.2540430" lon="7.1752080">
        <ele>1436.6</ele>
        <time>2017-07-23T10:48:36Z</time>
      </trkpt>
      <trkpt lat="44.2541610" lon="7.1752450">
        <ele>1435.4</ele>
        <time>2017-07-23T10:48:37Z</time>
      </trkpt>
      <trkpt lat="44.2542850" lon="7.1752720">
        <ele>1434.0</ele>
        <time>2017-07-23T10:48:38Z</time>
      </trkpt>
      <trkpt lat="44.2544100" lon="7.1752950">
        <ele>1432.8</ele>
        <time>2017-07-23T10:48:39Z</time>
      </trkpt>
      <trkpt lat="44.2545390" lon="7.1753070">
        <ele>1431.4</ele>
        <time>2017-07-23T10:48:40Z</time>
      </trkpt>
      <trkpt lat="44.2546720" lon="7.1753010">
        <ele>1430.0</ele>
        <time>2017-07-23T10:48:41Z</time>
      </trkpt>
      <trkpt lat="44.2548080" lon="7.1752950">
        <ele>1428.6</ele>
        <time>2017-07-23T10:48:42Z</time>
      </trkpt>
      <trkpt lat="44.2549480" lon="7.1752870">
        <ele>1427.2</ele>
        <time>2017-07-23T10:48:43Z</time>
      </trkpt>
      <trkpt lat="44.2550900" lon="7.1752620">
        <ele>1425.6</ele>
        <time>2017-07-23T10:48:44Z</time>
      </trkpt>
      <trkpt lat="44.2552290" lon="7.1752500">
        <ele>1424.0</ele>
        <time>2017-07-23T10:48:45Z</time>
      </trkpt>
      <trkpt lat="44.2553650" lon="7.1752660">
        <ele>1422.8</ele>
        <time>2017-07-23T10:48:46Z</time>
      </trkpt>
      <trkpt lat="44.2554930" lon="7.1753190">
        <ele>1421.6</ele>
        <time>2017-07-23T10:48:47Z</time>
      </trkpt>
      <trkpt lat="44.2556080" lon="7.1753880">
        <ele>1420.2</ele>
        <time>2017-07-23T10:48:48Z</time>
      </trkpt>
      <trkpt lat="44.2557180" lon="7.1754430">
        <ele>1418.8</ele>
        <time>2017-07-23T10:48:49Z</time>
      </trkpt>
      <trkpt lat="44.2558280" lon="7.1754840">
        <ele>1417.4</ele>
        <time>2017-07-23T10:48:50Z</time>
      </trkpt>
      <trkpt lat="44.2559400" lon="7.1755030">
        <ele>1416.0</ele>
        <time>2017-07-23T10:48:51Z</time>
      </trkpt>
      <trkpt lat="44.2560520" lon="7.1754970">
        <ele>1413.6</ele>
        <time>2017-07-23T10:48:52Z</time>
      </trkpt>
      <trkpt lat="44.2561640" lon="7.1754790">
        <ele>1412.4</ele>
        <time>2017-07-23T10:48:53Z</time>
      </trkpt>
      <trkpt lat="44.2562770" lon="7.1754710">
        <ele>1411.6</ele>
        <time>2017-07-23T10:48:54Z</time>
      </trkpt>
      <trkpt lat="44.2563930" lon="7.1754870">
        <ele>1410.8</ele>
        <time>2017-07-23T10:48:55Z</time>
      </trkpt>
      <trkpt lat="44.2566150" lon="7.1756020">
        <ele>1409.2</ele>
        <time>2017-07-23T10:48:57Z</time>
      </trkpt>
      <trkpt lat="44.2566990" lon="7.1756950">
        <ele>1408.2</ele>
        <time>2017-07-23T10:48:58Z</time>
      </trkpt>
      <trkpt lat="44.2568820" lon="7.1758580">
        <ele>1406.2</ele>
        <time>2017-07-23T10:49:00Z</time>
      </trkpt>
      <trkpt lat="44.2570910" lon="7.1760100">
        <ele>1404.8</ele>
        <time>2017-07-23T10:49:02Z</time>
      </trkpt>
      <trkpt lat="44.2571990" lon="7.1760990">
        <ele>1403.8</ele>
        <time>2017-07-23T10:49:03Z</time>
      </trkpt>
      <trkpt lat="44.2573000" lon="7.1761930">
        <ele>1402.0</ele>
        <time>2017-07-23T10:49:04Z</time>
      </trkpt>
      <trkpt lat="44.2574030" lon="7.1762670">
        <ele>1400.6</ele>
        <time>2017-07-23T10:49:05Z</time>
      </trkpt>
      <trkpt lat="44.2575180" lon="7.1763100">
        <ele>1399.2</ele>
        <time>2017-07-23T10:49:06Z</time>
      </trkpt>
      <trkpt lat="44.2576360" lon="7.1763290">
        <ele>1398.0</ele>
        <time>2017-07-23T10:49:07Z</time>
      </trkpt>
      <trkpt lat="44.2577570" lon="7.1763470">
        <ele>1396.6</ele>
        <time>2017-07-23T10:49:08Z</time>
      </trkpt>
      <trkpt lat="44.2578810" lon="7.1763480">
        <ele>1395.2</ele>
        <time>2017-07-23T10:49:09Z</time>
      </trkpt>
      <trkpt lat="44.2580010" lon="7.1763540">
        <ele>1394.0</ele>
        <time>2017-07-23T10:49:10Z</time>
      </trkpt>
      <trkpt lat="44.2581130" lon="7.1763790">
        <ele>1392.6</ele>
        <time>2017-07-23T10:49:11Z</time>
      </trkpt>
      <trkpt lat="44.2582210" lon="7.1763810">
        <ele>1391.4</ele>
        <time>2017-07-23T10:49:12Z</time>
      </trkpt>
      <trkpt lat="44.2583230" lon="7.1763440">
        <ele>1390.2</ele>
        <time>2017-07-23T10:49:13Z</time>
      </trkpt>
      <trkpt lat="44.2584190" lon="7.1762880">
        <ele>1389.2</ele>
        <time>2017-07-23T10:49:14Z</time>
      </trkpt>
      <trkpt lat="44.2586150" lon="7.1761380">
        <ele>1386.8</ele>
        <time>2017-07-23T10:49:16Z</time>
      </trkpt>
      <trkpt lat="44.2587150" lon="7.1760600">
        <ele>1386.0</ele>
        <time>2017-07-23T10:49:17Z</time>
      </trkpt>
      <trkpt lat="44.2588180" lon="7.1759870">
        <ele>1385.2</ele>
        <time>2017-07-23T10:49:18Z</time>
      </trkpt>
      <trkpt lat="44.2590320" lon="7.1758600">
        <ele>1383.8</ele>
        <time>2017-07-23T10:49:20Z</time>
      </trkpt>
      <trkpt lat="44.2591470" lon="7.1758150">
        <ele>1383.0</ele>
        <time>2017-07-23T10:49:21Z</time>
      </trkpt>
      <trkpt lat="44.2592640" lon="7.1757900">
        <ele>1382.4</ele>
        <time>2017-07-23T10:49:22Z</time>
      </trkpt>
      <trkpt lat="44.2595040" lon="7.1757160">
        <ele>1380.0</ele>
        <time>2017-07-23T10:49:24Z</time>
      </trkpt>
      <trkpt lat="44.2596230" lon="7.1756610">
        <ele>1379.0</ele>
        <time>2017-07-23T10:49:25Z</time>
      </trkpt>
      <trkpt lat="44.2597400" lon="7.1756040">
        <ele>1376.6</ele>
        <time>2017-07-23T10:49:26Z</time>
      </trkpt>
      <trkpt lat="44.2599730" lon="7.1755370">
        <ele>1375.0</ele>
        <time>2017-07-23T10:49:28Z</time>
      </trkpt>
      <trkpt lat="44.2600850" lon="7.1755600">
        <ele>1375.6</ele>
        <time>2017-07-23T10:49:29Z</time>
      </trkpt>
      <trkpt lat="44.2604220" lon="7.1756400">
        <ele>1373.2</ele>
        <time>2017-07-23T10:49:32Z</time>
      </trkpt>
      <trkpt lat="44.2605430" lon="7.1756570">
        <ele>1372.4</ele>
        <time>2017-07-23T10:49:33Z</time>
      </trkpt>
      <trkpt lat="44.2606670" lon="7.1756660">
        <ele>1371.4</ele>
        <time>2017-07-23T10:49:34Z</time>
      </trkpt>
      <trkpt lat="44.2607920" lon="7.1756760">
        <ele>1370.4</ele>
        <time>2017-07-23T10:49:35Z</time>
      </trkpt>
      <trkpt lat="44.2610540" lon="7.1756780">
        <ele>1368.6</ele>
        <time>2017-07-23T10:49:37Z</time>
      </trkpt>
      <trkpt lat="44.2613240" lon="7.1756650">
        <ele>1366.6</ele>
        <time>2017-07-23T10:49:39Z</time>
      </trkpt>
      <trkpt lat="44.2614620" lon="7.1756440">
        <ele>1364.4</ele>
        <time>2017-07-23T10:49:40Z</time>
      </trkpt>
      <trkpt lat="44.2616020" lon="7.1756020">
        <ele>1363.2</ele>
        <time>2017-07-23T10:49:41Z</time>
      </trkpt>
      <trkpt lat="44.2617370" lon="7.1755460">
        <ele>1362.2</ele>
        <time>2017-07-23T10:49:42Z</time>
      </trkpt>
      <trkpt lat="44.2618690" lon="7.1754850">
        <ele>1361.0</ele>
        <time>2017-07-23T10:49:43Z</time>
      </trkpt>
      <trkpt lat="44.2620020" lon="7.1754280">
        <ele>1360.0</ele>
        <time>2017-07-23T10:49:44Z</time>
      </trkpt>
      <trkpt lat="44.2621390" lon="7.1753700">
        <ele>1359.2</ele>
        <time>2017-07-23T10:49:45Z</time>
      </trkpt>
      <trkpt lat="44.2622820" lon="7.1753210">
        <ele>1358.4</ele>
        <time>2017-07-23T10:49:46Z</time>
      </trkpt>
      <trkpt lat="44.2625680" lon="7.1751930">
        <ele>1356.4</ele>
        <time>2017-07-23T10:49:48Z</time>
      </trkpt>
      <trkpt lat="44.2627140" lon="7.1751160">
        <ele>1355.4</ele>
        <time>2017-07-23T10:49:49Z</time>
      </trkpt>
      <trkpt lat="44.2628570" lon="7.1750300">
        <ele>1354.4</ele>
        <time>2017-07-23T10:49:50Z</time>
      </trkpt>
      <trkpt lat="44.2631280" lon="7.1748590">
        <ele>1352.2</ele>
        <time>2017-07-23T10:49:52Z</time>
      </trkpt>
      <trkpt lat="44.2632640" lon="7.1747990">
        <ele>1351.2</ele>
        <time>2017-07-23T10:49:53Z</time>
      </trkpt>
      <trkpt lat="44.2635230" lon="7.1747760">
        <ele>1349.4</ele>
        <time>2017-07-23T10:49:55Z</time>
      </trkpt>
      <trkpt lat="44.2636490" lon="7.1748170">
        <ele>1348.2</ele>
        <time>2017-07-23T10:49:56Z</time>
      </trkpt>
      <trkpt lat="44.2637720" lon="7.1748680">
        <ele>1347.2</ele>
        <time>2017-07-23T10:49:57Z</time>
      </trkpt>
      <trkpt lat="44.2638950" lon="7.1748960">
        <ele>1346.0</ele>
        <time>2017-07-23T10:49:58Z</time>
      </trkpt>
      <trkpt lat="44.2640180" lon="7.1748970">
        <ele>1344.8</ele>
        <time>2017-07-23T10:49:59Z</time>
      </trkpt>
      <trkpt lat="44.2641430" lon="7.1748850">
        <ele>1343.4</ele>
        <time>2017-07-23T10:50:00Z</time>
      </trkpt>
      <trkpt lat="44.2642710" lon="7.1748850">
        <ele>1342.4</ele>
        <time>2017-07-23T10:50:01Z</time>
      </trkpt>
      <trkpt lat="44.2644000" lon="7.1748960">
        <ele>1341.4</ele>
        <time>2017-07-23T10:50:02Z</time>
      </trkpt>
      <trkpt lat="44.2645250" lon="7.1749130">
        <ele>1340.2</ele>
        <time>2017-07-23T10:50:03Z</time>
      </trkpt>
      <trkpt lat="44.2646470" lon="7.1749450">
        <ele>1337.4</ele>
        <time>2017-07-23T10:50:04Z</time>
      </trkpt>
      <trkpt lat="44.2647700" lon="7.1749910">
        <ele>1336.2</ele>
        <time>2017-07-23T10:50:05Z</time>
      </trkpt>
      <trkpt lat="44.2648930" lon="7.1750530">
        <ele>1334.8</ele>
        <time>2017-07-23T10:50:06Z</time>
      </trkpt>
      <trkpt lat="44.2650110" lon="7.1751220">
        <ele>1333.4</ele>
        <time>2017-07-23T10:50:07Z</time>
      </trkpt>
      <trkpt lat="44.2651310" lon="7.1751920">
        <ele>1331.8</ele>
        <time>2017-07-23T10:50:08Z</time>
      </trkpt>
      <trkpt lat="44.2652590" lon="7.1752510">
        <ele>1330.4</ele>
        <time>2017-07-23T10:50:09Z</time>
      </trkpt>
      <trkpt lat="44.2653930" lon="7.1753020">
        <ele>1329.0</ele>
        <time>2017-07-23T10:50:10Z</time>
      </trkpt>
      <trkpt lat="44.2655270" lon="7.1753460">
        <ele>1327.8</ele>
        <time>2017-07-23T10:50:11Z</time>
      </trkpt>
      <trkpt lat="44.2656570" lon="7.1753830">
        <ele>1326.2</ele>
        <time>2017-07-23T10:50:12Z</time>
      </trkpt>
      <trkpt lat="44.2657780" lon="7.1754080">
        <ele>1325.0</ele>
        <time>2017-07-23T10:50:13Z</time>
      </trkpt>
      <trkpt lat="44.2658930" lon="7.1754050">
        <ele>1323.8</ele>
        <time>2017-07-23T10:50:14Z</time>
      </trkpt>
      <trkpt lat="44.2659990" lon="7.1753720">
        <ele>1322.6</ele>
        <time>2017-07-23T10:50:15Z</time>
      </trkpt>
      <trkpt lat="44.2661040" lon="7.1753260">
        <ele>1321.6</ele>
        <time>2017-07-23T10:50:16Z</time>
      </trkpt>
      <trkpt lat="44.2662120" lon="7.1752830">
        <ele>1320.6</ele>
        <time>2017-07-23T10:50:17Z</time>
      </trkpt>
      <trkpt lat="44.2663180" lon="7.1752580">
        <ele>1319.8</ele>
        <time>2017-07-23T10:50:18Z</time>
      </trkpt>
      <trkpt lat="44.2665370" lon="7.1752310">
        <ele>1318.2</ele>
        <time>2017-07-23T10:50:20Z</time>
      </trkpt>
      <trkpt lat="44.2666470" lon="7.1752240">
        <ele>1317.6</ele>
        <time>2017-07-23T10:50:21Z</time>
      </trkpt>
      <trkpt lat="44.2667580" lon="7.1752110">
        <ele>1316.8</ele>
        <time>2017-07-23T10:50:22Z</time>
      </trkpt>
      <trkpt lat="44.2669680" lon="7.1752250">
        <ele>1315.4</ele>
        <time>2017-07-23T10:50:24Z</time>
      </trkpt>
      <trkpt lat="44.2670690" lon="7.1752570">
        <ele>1314.8</ele>
        <time>2017-07-23T10:50:25Z</time>
      </trkpt>
      <trkpt lat="44.2671630" lon="7.1753130">
        <ele>1314.0</ele>
        <time>2017-07-23T10:50:26Z</time>
      </trkpt>
      <trkpt lat="44.2673330" lon="7.1754740">
        <ele>1311.0</ele>
        <time>2017-07-23T10:50:28Z</time>
      </trkpt>
      <trkpt lat="44.2674200" lon="7.1755330">
        <ele>1310.0</ele>
        <time>2017-07-23T10:50:29Z</time>
      </trkpt>
      <trkpt lat="44.2675180" lon="7.1755520">
        <ele>1308.8</ele>
        <time>2017-07-23T10:50:30Z</time>
      </trkpt>
      <trkpt lat="44.2676250" lon="7.1755250">
        <ele>1307.6</ele>
        <time>2017-07-23T10:50:31Z</time>
      </trkpt>
      <trkpt lat="44.2677340" lon="7.1754710">
        <ele>1306.6</ele>
        <time>2017-07-23T10:50:32Z</time>
      </trkpt>
      <trkpt lat="44.2678440" lon="7.1754120">
        <ele>1305.6</ele>
        <time>2017-07-23T10:50:33Z</time>
      </trkpt>
      <trkpt lat="44.2679630" lon="7.1753660">
        <ele>1304.6</ele>
        <time>2017-07-23T10:50:34Z</time>
      </trkpt>
      <trkpt lat="44.2680900" lon="7.1753330">
        <ele>1303.8</ele>
        <time>2017-07-23T10:50:35Z</time>
      </trkpt>
      <trkpt lat="44.2682140" lon="7.1753130">
        <ele>1302.6</ele>
        <time>2017-07-23T10:50:36Z</time>
      </trkpt>
      <trkpt lat="44.2684560" lon="7.1752760">
        <ele>1301.2</ele>
        <time>2017-07-23T10:50:38Z</time>
      </trkpt>
      <trkpt lat="44.2685740" lon="7.1752740">
        <ele>1300.6</ele>
        <time>2017-07-23T10:50:39Z</time>
      </trkpt>
      <trkpt lat="44.2686900" lon="7.1752920">
        <ele>1300.0</ele>
        <time>2017-07-23T10:50:40Z</time>
      </trkpt>
      <trkpt lat="44.2689250" lon="7.1753450">
        <ele>1298.0</ele>
        <time>2017-07-23T10:50:42Z</time>
      </trkpt>
      <trkpt lat="44.2690470" lon="7.1753580">
        <ele>1296.8</ele>
        <time>2017-07-23T10:50:43Z</time>
      </trkpt>
      <trkpt lat="44.2691700" lon="7.1753600">
        <ele>1295.8</ele>
        <time>2017-07-23T10:50:44Z</time>
      </trkpt>
      <trkpt lat="44.2694310" lon="7.1753300">
        <ele>1293.6</ele>
        <time>2017-07-23T10:50:46Z</time>
      </trkpt>
      <trkpt lat="44.2695630" lon="7.1753000">
        <ele>1292.4</ele>
        <time>2017-07-23T10:50:47Z</time>
      </trkpt>
      <trkpt lat="44.2696990" lon="7.1752780">
        <ele>1291.2</ele>
        <time>2017-07-23T10:50:48Z</time>
      </trkpt>
      <trkpt lat="44.2698320" lon="7.1752840">
        <ele>1290.2</ele>
        <time>2017-07-23T10:50:49Z</time>
      </trkpt>
      <trkpt lat="44.2699600" lon="7.1753020">
        <ele>1289.4</ele>
        <time>2017-07-23T10:50:50Z</time>
      </trkpt>
      <trkpt lat="44.2700760" lon="7.1753120">
        <ele>1288.2</ele>
        <time>2017-07-23T10:50:51Z</time>
      </trkpt>
      <trkpt lat="44.2701950" lon="7.1752970">
        <ele>1285.4</ele>
        <time>2017-07-23T10:50:52Z</time>
      </trkpt>
      <trkpt lat="44.2703050" lon="7.1752490">
        <ele>1284.2</ele>
        <time>2017-07-23T10:50:53Z</time>
      </trkpt>
      <trkpt lat="44.2703980" lon="7.1751710">
        <ele>1283.0</ele>
        <time>2017-07-23T10:50:54Z</time>
      </trkpt>
      <trkpt lat="44.2704880" lon="7.1750790">
        <ele>1282.2</ele>
        <time>2017-07-23T10:50:55Z</time>
      </trkpt>
      <trkpt lat="44.2705730" lon="7.1749770">
        <ele>1281.4</ele>
        <time>2017-07-23T10:50:56Z</time>
      </trkpt>
      <trkpt lat="44.2707510" lon="7.1747670">
        <ele>1279.6</ele>
        <time>2017-07-23T10:50:58Z</time>
      </trkpt>
      <trkpt lat="44.2709320" lon="7.1745270">
        <ele>1277.6</ele>
        <time>2017-07-23T10:51:00Z</time>
      </trkpt>
      <trkpt lat="44.2710280" lon="7.1744000">
        <ele>1276.8</ele>
        <time>2017-07-23T10:51:01Z</time>
      </trkpt>
      <trkpt lat="44.2711320" lon="7.1742790">
        <ele>1275.6</ele>
        <time>2017-07-23T10:51:02Z</time>
      </trkpt>
      <trkpt lat="44.2712450" lon="7.1741700">
        <ele>1274.4</ele>
        <time>2017-07-23T10:51:03Z</time>
      </trkpt>
      <trkpt lat="44.2713700" lon="7.1740690">
        <ele>1273.0</ele>
        <time>2017-07-23T10:51:04Z</time>
      </trkpt>
      <trkpt lat="44.2715020" lon="7.1740090">
        <ele>1271.8</ele>
        <time>2017-07-23T10:51:05Z</time>
      </trkpt>
      <trkpt lat="44.2716370" lon="7.1739820">
        <ele>1270.6</ele>
        <time>2017-07-23T10:51:06Z</time>
      </trkpt>
      <trkpt lat="44.2717690" lon="7.1739600">
        <ele>1269.4</ele>
        <time>2017-07-23T10:51:07Z</time>
      </trkpt>
      <trkpt lat="44.2718870" lon="7.1739220">
        <ele>1268.2</ele>
        <time>2017-07-23T10:51:08Z</time>
      </trkpt>
      <trkpt lat="44.2719870" lon="7.1738580">
        <ele>1266.8</ele>
        <time>2017-07-23T10:51:09Z</time>
      </trkpt>
      <trkpt lat="44.2720770" lon="7.1737690">
        <ele>1265.6</ele>
        <time>2017-07-23T10:51:10Z</time>
      </trkpt>
      <trkpt lat="44.2721620" lon="7.1736710">
        <ele>1264.4</ele>
        <time>2017-07-23T10:51:11Z</time>
      </trkpt>
      <trkpt lat="44.2723590" lon="7.1735090">
        <ele>1262.6</ele>
        <time>2017-07-23T10:51:13Z</time>
      </trkpt>
      <trkpt lat="44.2724720" lon="7.1734700">
        <ele>1261.4</ele>
        <time>2017-07-23T10:51:14Z</time>
      </trkpt>
      <trkpt lat="44.2726910" lon="7.1734090">
        <ele>1259.2</ele>
        <time>2017-07-23T10:51:16Z</time>
      </trkpt>
      <trkpt lat="44.2729000" lon="7.1733990">
        <ele>1257.8</ele>
        <time>2017-07-23T10:51:18Z</time>
      </trkpt>
      <trkpt lat="44.2729980" lon="7.1734060">
        <ele>1257.0</ele>
        <time>2017-07-23T10:51:19Z</time>
      </trkpt>
      <trkpt lat="44.2730900" lon="7.1734050">
        <ele>1255.8</ele>
        <time>2017-07-23T10:51:20Z</time>
      </trkpt>
      <trkpt lat="44.2731790" lon="7.1733930">
        <ele>1254.8</ele>
        <time>2017-07-23T10:51:21Z</time>
      </trkpt>
      <trkpt lat="44.2732690" lon="7.1733800">
        <ele>1254.0</ele>
        <time>2017-07-23T10:51:22Z</time>
      </trkpt>
      <trkpt lat="44.2733630" lon="7.1733630">
        <ele>1253.2</ele>
        <time>2017-07-23T10:51:23Z</time>
      </trkpt>
      <trkpt lat="44.2735660" lon="7.1733350">
        <ele>1252.2</ele>
        <time>2017-07-23T10:51:25Z</time>
      </trkpt>
      <trkpt lat="44.2737820" lon="7.1733070">
        <ele>1250.4</ele>
        <time>2017-07-23T10:51:27Z</time>
      </trkpt>
      <trkpt lat="44.2740110" lon="7.1732500">
        <ele>1248.6</ele>
        <time>2017-07-23T10:51:29Z</time>
      </trkpt>
      <trkpt lat="44.2742570" lon="7.1731820">
        <ele>1246.6</ele>
        <time>2017-07-23T10:51:31Z</time>
      </trkpt>
      <trkpt lat="44.2745020" lon="7.1731360">
        <ele>1245.0</ele>
        <time>2017-07-23T10:51:33Z</time>
      </trkpt>
      <trkpt lat="44.2747600" lon="7.1730470">
        <ele>1243.2</ele>
        <time>2017-07-23T10:51:35Z</time>
      </trkpt>
      <trkpt lat="44.2750300" lon="7.1729870">
        <ele>1241.4</ele>
        <time>2017-07-23T10:51:37Z</time>
      </trkpt>
      <trkpt lat="44.2751630" lon="7.1730020">
        <ele>1240.6</ele>
        <time>2017-07-23T10:51:38Z</time>
      </trkpt>
      <trkpt lat="44.2752970" lon="7.1730090">
        <ele>1239.6</ele>
        <time>2017-07-23T10:51:39Z</time>
      </trkpt>
      <trkpt lat="44.2754250" lon="7.1730250">
        <ele>1237.8</ele>
        <time>2017-07-23T10:51:40Z</time>
      </trkpt>
      <trkpt lat="44.2755530" lon="7.1730540">
        <ele>1237.0</ele>
        <time>2017-07-23T10:51:41Z</time>
      </trkpt>
      <trkpt lat="44.2756770" lon="7.1731030">
        <ele>1235.8</ele>
        <time>2017-07-23T10:51:42Z</time>
      </trkpt>
      <trkpt lat="44.2758090" lon="7.1731410">
        <ele>1234.6</ele>
        <time>2017-07-23T10:51:43Z</time>
      </trkpt>
      <trkpt lat="44.2759460" lon="7.1731720">
        <ele>1233.2</ele>
        <time>2017-07-23T10:51:44Z</time>
      </trkpt>
      <trkpt lat="44.2760830" lon="7.1731940">
        <ele>1232.2</ele>
        <time>2017-07-23T10:51:45Z</time>
      </trkpt>
      <trkpt lat="44.2763540" lon="7.1732640">
        <ele>1230.6</ele>
        <time>2017-07-23T10:51:47Z</time>
      </trkpt>
      <trkpt lat="44.2766270" lon="7.1733230">
        <ele>1228.6</ele>
        <time>2017-07-23T10:51:49Z</time>
      </trkpt>
      <trkpt lat="44.2767630" lon="7.1733500">
        <ele>1227.4</ele>
        <time>2017-07-23T10:51:50Z</time>
      </trkpt>
      <trkpt lat="44.2769010" lon="7.1733750">
        <ele>1226.2</ele>
        <time>2017-07-23T10:51:51Z</time>
      </trkpt>
      <trkpt lat="44.2771800" lon="7.1734300">
        <ele>1224.6</ele>
        <time>2017-07-23T10:51:53Z</time>
      </trkpt>
      <trkpt lat="44.2774530" lon="7.1735110">
        <ele>1222.8</ele>
        <time>2017-07-23T10:51:55Z</time>
      </trkpt>
      <trkpt lat="44.2775780" lon="7.1735640">
        <ele>1221.8</ele>
        <time>2017-07-23T10:51:56Z</time>
      </trkpt>
      <trkpt lat="44.2776970" lon="7.1735950">
        <ele>1220.8</ele>
        <time>2017-07-23T10:51:57Z</time>
      </trkpt>
      <trkpt lat="44.2778070" lon="7.1735990">
        <ele>1219.6</ele>
        <time>2017-07-23T10:51:58Z</time>
      </trkpt>
      <trkpt lat="44.2778990" lon="7.1735770">
        <ele>1218.6</ele>
        <time>2017-07-23T10:51:59Z</time>
      </trkpt>
      <trkpt lat="44.2780920" lon="7.1735390">
        <ele>1217.0</ele>
        <time>2017-07-23T10:52:01Z</time>
      </trkpt>
      <trkpt lat="44.2782770" lon="7.1735080">
        <ele>1215.4</ele>
        <time>2017-07-23T10:52:03Z</time>
      </trkpt>
      <trkpt lat="44.2783670" lon="7.1734840">
        <ele>1214.2</ele>
        <time>2017-07-23T10:52:04Z</time>
      </trkpt>
      <trkpt lat="44.2784530" lon="7.1734390">
        <ele>1213.8</ele>
        <time>2017-07-23T10:52:05Z</time>
      </trkpt>
      <trkpt lat="44.2786100" lon="7.1733180">
        <ele>1213.0</ele>
        <time>2017-07-23T10:52:07Z</time>
      </trkpt>
      <trkpt lat="44.2788350" lon="7.1731120">
        <ele>1212.0</ele>
        <time>2017-07-23T10:52:10Z</time>
      </trkpt>
      <trkpt lat="44.2789070" lon="7.1730520">
        <ele>1211.8</ele>
        <time>2017-07-23T10:52:11Z</time>
      </trkpt>
      <trkpt lat="44.2791950" lon="7.1728060">
        <ele>1210.8</ele>
        <time>2017-07-23T10:52:15Z</time>
      </trkpt>
      <trkpt lat="44.2793940" lon="7.1725850">
        <ele>1210.0</ele>
        <time>2017-07-23T10:52:18Z</time>
      </trkpt>
      <trkpt lat="44.2794610" lon="7.1725000">
        <ele>1209.6</ele>
        <time>2017-07-23T10:52:19Z</time>
      </trkpt>
      <trkpt lat="44.2796660" lon="7.1722270">
        <ele>1208.6</ele>
        <time>2017-07-23T10:52:22Z</time>
      </trkpt>
      <trkpt lat="44.2797510" lon="7.1721370">
        <ele>1208.0</ele>
        <time>2017-07-23T10:52:23Z</time>
      </trkpt>
      <trkpt lat="44.2798500" lon="7.1720480">
        <ele>1207.4</ele>
        <time>2017-07-23T10:52:24Z</time>
      </trkpt>
      <trkpt lat="44.2800810" lon="7.1718910">
        <ele>1206.4</ele>
        <time>2017-07-23T10:52:26Z</time>
      </trkpt>
      <trkpt lat="44.2803260" lon="7.1718070">
        <ele>1204.8</ele>
        <time>2017-07-23T10:52:28Z</time>
      </trkpt>
      <trkpt lat="44.2804380" lon="7.1717560">
        <ele>1204.2</ele>
        <time>2017-07-23T10:52:29Z</time>
      </trkpt>
      <trkpt lat="44.2806430" lon="7.1716400">
        <ele>1203.4</ele>
        <time>2017-07-23T10:52:31Z</time>
      </trkpt>
      <trkpt lat="44.2807310" lon="7.1715740">
        <ele>1203.2</ele>
        <time>2017-07-23T10:52:32Z</time>
      </trkpt>
      <trkpt lat="44.2808170" lon="7.1715060">
        <ele>1203.0</ele>
        <time>2017-07-23T10:52:33Z</time>
      </trkpt>
      <trkpt lat="44.2809660" lon="7.1713740">
        <ele>1202.6</ele>
        <time>2017-07-23T10:52:35Z</time>
      </trkpt>
      <trkpt lat="44.2810300" lon="7.1713060">
        <ele>1202.2</ele>
        <time>2017-07-23T10:52:36Z</time>
      </trkpt>
      <trkpt lat="44.2810940" lon="7.1712340">
        <ele>1202.2</ele>
        <time>2017-07-23T10:52:37Z</time>
      </trkpt>
      <trkpt lat="44.2813180" lon="7.1709260">
        <ele>1201.0</ele>
        <time>2017-07-23T10:52:41Z</time>
      </trkpt>
      <trkpt lat="44.2814430" lon="7.1707750">
        <ele>1199.6</ele>
        <time>2017-07-23T10:52:43Z</time>
      </trkpt>
      <trkpt lat="44.2816200" lon="7.1706200">
        <ele>1198.4</ele>
        <time>2017-07-23T10:52:45Z</time>
      </trkpt>
      <trkpt lat="44.2818380" lon="7.1704740">
        <ele>1197.0</ele>
        <time>2017-07-23T10:52:47Z</time>
      </trkpt>
      <trkpt lat="44.2820870" lon="7.1702970">
        <ele>1195.2</ele>
        <time>2017-07-23T10:52:49Z</time>
      </trkpt>
      <trkpt lat="44.2822170" lon="7.1702190">
        <ele>1194.2</ele>
        <time>2017-07-23T10:52:50Z</time>
      </trkpt>
      <trkpt lat="44.2823520" lon="7.1701760">
        <ele>1193.0</ele>
        <time>2017-07-23T10:52:51Z</time>
      </trkpt>
      <trkpt lat="44.2824880" lon="7.1701530">
        <ele>1190.2</ele>
        <time>2017-07-23T10:52:52Z</time>
      </trkpt>
      <trkpt lat="44.2826170" lon="7.1701330">
        <ele>1189.0</ele>
        <time>2017-07-23T10:52:53Z</time>
      </trkpt>
      <trkpt lat="44.2827390" lon="7.1701090">
        <ele>1187.6</ele>
        <time>2017-07-23T10:52:54Z</time>
      </trkpt>
      <trkpt lat="44.2828640" lon="7.1701090">
        <ele>1186.4</ele>
        <time>2017-07-23T10:52:55Z</time>
      </trkpt>
      <trkpt lat="44.2829910" lon="7.1701370">
        <ele>1185.0</ele>
        <time>2017-07-23T10:52:56Z</time>
      </trkpt>
      <trkpt lat="44.2831210" lon="7.1701400">
        <ele>1183.8</ele>
        <time>2017-07-23T10:52:57Z</time>
      </trkpt>
      <trkpt lat="44.2832480" lon="7.1701100">
        <ele>1182.0</ele>
        <time>2017-07-23T10:52:58Z</time>
      </trkpt>
      <trkpt lat="44.2833560" lon="7.1700480">
        <ele>1180.4</ele>
        <time>2017-07-23T10:52:59Z</time>
      </trkpt>
      <trkpt lat="44.2834450" lon="7.1699790">
        <ele>1178.8</ele>
        <time>2017-07-23T10:53:00Z</time>
      </trkpt>
      <trkpt lat="44.2835180" lon="7.1699180">
        <ele>1177.2</ele>
        <time>2017-07-23T10:53:01Z</time>
      </trkpt>
      <trkpt lat="44.2835830" lon="7.1698880">
        <ele>1175.6</ele>
        <time>2017-07-23T10:53:02Z</time>
      </trkpt>
      <trkpt lat="44.2836510" lon="7.1698970">
        <ele>1174.0</ele>
        <time>2017-07-23T10:53:03Z</time>
      </trkpt>
      <trkpt lat="44.2837090" lon="7.1699190">
        <ele>1172.2</ele>
        <time>2017-07-23T10:53:04Z</time>
      </trkpt>
      <trkpt lat="44.2837380" lon="7.1699220">
        <ele>1170.6</ele>
        <time>2017-07-23T10:53:05Z</time>
      </trkpt>
      <trkpt lat="44.2837200" lon="7.1699240">
        <ele>1169.0</ele>
        <time>2017-07-23T10:53:06Z</time>
      </trkpt>
      <trkpt lat="44.2836950" lon="7.1699280">
        <ele>1167.4</ele>
        <time>2017-07-23T10:53:07Z</time>
      </trkpt>
      <trkpt lat="44.2836710" lon="7.1699330">
        <ele>1166.0</ele>
        <time>2017-07-23T10:53:08Z</time>
      </trkpt>
      <trkpt lat="44.2835960" lon="7.1699760">
        <ele>1164.6</ele>
        <time>2017-07-23T10:53:09Z</time>
      </trkpt>
      <trkpt lat="44.2835260" lon="7.1700330">
        <ele>1163.4</ele>
        <time>2017-07-23T10:53:10Z</time>
      </trkpt>
      <trkpt lat="44.2834690" lon="7.1700960">
        <ele>1162.2</ele>
        <time>2017-07-23T10:53:11Z</time>
      </trkpt>
      <trkpt lat="44.2834340" lon="7.1701630">
        <ele>1160.8</ele>
        <time>2017-07-23T10:53:12Z</time>
      </trkpt>
      <trkpt lat="44.2834150" lon="7.1702230">
        <ele>1159.8</ele>
        <time>2017-07-23T10:53:13Z</time>
      </trkpt>
      <trkpt lat="44.2834120" lon="7.1702670">
        <ele>1159.0</ele>
        <time>2017-07-23T10:53:14Z</time>
      </trkpt>
      <trkpt lat="44.2834250" lon="7.1703000">
        <ele>1158.0</ele>
        <time>2017-07-23T10:53:15Z</time>
      </trkpt>
      <trkpt lat="44.2834340" lon="7.1703090">
        <ele>1156.4</ele>
        <time>2017-07-23T10:53:16Z</time>
      </trkpt>
      <trkpt lat="44.2834470" lon="7.1702920">
        <ele>1155.8</ele>
        <time>2017-07-23T10:53:17Z</time>
      </trkpt>
      <trkpt lat="44.2834580" lon="7.1702600">
        <ele>1155.2</ele>
        <time>2017-07-23T10:53:18Z</time>
      </trkpt>
      <trkpt lat="44.2834730" lon="7.1702130">
        <ele>1154.6</ele>
        <time>2017-07-23T10:53:19Z</time>
      </trkpt>
      <trkpt lat="44.2834890" lon="7.1701610">
        <ele>1153.8</ele>
        <time>2017-07-23T10:53:20Z</time>
      </trkpt>
      <trkpt lat="44.2835270" lon="7.1700450">
        <ele>1152.2</ele>
        <time>2017-07-23T10:53:22Z</time>
      </trkpt>
      <trkpt lat="44.2835710" lon="7.1699310">
        <ele>1150.6</ele>
        <time>2017-07-23T10:53:24Z</time>
      </trkpt>
      <trkpt lat="44.2838450" lon="7.1698240">
        <ele>1149.0</ele>
        <time>2017-07-23T10:53:26Z</time>
      </trkpt>
      <trkpt lat="44.2842690" lon="7.1697400">
        <ele>1147.4</ele>
        <time>2017-07-23T10:53:28Z</time>
      </trkpt>
      <trkpt lat="44.2846420" lon="7.1696830">
        <ele>1145.2</ele>
        <time>2017-07-23T10:53:30Z</time>
      </trkpt>
      <trkpt lat="44.2848160" lon="7.1696340">
        <ele>1143.8</ele>
        <time>2017-07-23T10:53:31Z</time>
      </trkpt>
      <trkpt lat="44.2849720" lon="7.1695580">
        <ele>1142.6</ele>
        <time>2017-07-23T10:53:32Z</time>
      </trkpt>
      <trkpt lat="44.2851140" lon="7.1694740">
        <ele>1141.4</ele>
        <time>2017-07-23T10:53:33Z</time>
      </trkpt>
      <trkpt lat="44.2852570" lon="7.1694070">
        <ele>1140.2</ele>
        <time>2017-07-23T10:53:34Z</time>
      </trkpt>
      <trkpt lat="44.2854380" lon="7.1693820">
        <ele>1139.2</ele>
        <time>2017-07-23T10:53:35Z</time>
      </trkpt>
      <trkpt lat="44.2855950" lon="7.1693610">
        <ele>1138.2</ele>
        <time>2017-07-23T10:53:36Z</time>
      </trkpt>
      <trkpt lat="44.2858760" lon="7.1693260">
        <ele>1136.6</ele>
        <time>2017-07-23T10:53:38Z</time>
      </trkpt>
      <trkpt lat="44.2860010" lon="7.1692930">
        <ele>1135.8</ele>
        <time>2017-07-23T10:53:39Z</time>
      </trkpt>
      <trkpt lat="44.2861210" lon="7.1692390">
        <ele>1134.2</ele>
        <time>2017-07-23T10:53:40Z</time>
      </trkpt>
      <trkpt lat="44.2863590" lon="7.1691160">
        <ele>1133.0</ele>
        <time>2017-07-23T10:53:42Z</time>
      </trkpt>
      <trkpt lat="44.2864820" lon="7.1690820">
        <ele>1132.2</ele>
        <time>2017-07-23T10:53:43Z</time>
      </trkpt>
      <trkpt lat="44.2866060" lon="7.1690660">
        <ele>1131.6</ele>
        <time>2017-07-23T10:53:44Z</time>
      </trkpt>
      <trkpt lat="44.2868550" lon="7.1690440">
        <ele>1130.2</ele>
        <time>2017-07-23T10:53:46Z</time>
      </trkpt>
      <trkpt lat="44.2869840" lon="7.1690270">
        <ele>1129.2</ele>
        <time>2017-07-23T10:53:47Z</time>
      </trkpt>
      <trkpt lat="44.2871180" lon="7.1690230">
        <ele>1128.4</ele>
        <time>2017-07-23T10:53:48Z</time>
      </trkpt>
      <trkpt lat="44.2872550" lon="7.1690050">
        <ele>1127.6</ele>
        <time>2017-07-23T10:53:49Z</time>
      </trkpt>
      <trkpt lat="44.2873930" lon="7.1689770">
        <ele>1126.6</ele>
        <time>2017-07-23T10:53:50Z</time>
      </trkpt>
      <trkpt lat="44.2876640" lon="7.1689360">
        <ele>1124.8</ele>
        <time>2017-07-23T10:53:52Z</time>
      </trkpt>
      <trkpt lat="44.2879260" lon="7.1688940">
        <ele>1122.8</ele>
        <time>2017-07-23T10:53:54Z</time>
      </trkpt>
      <trkpt lat="44.2880540" lon="7.1688600">
        <ele>1121.8</ele>
        <time>2017-07-23T10:53:55Z</time>
      </trkpt>
      <trkpt lat="44.2881810" lon="7.1688090">
        <ele>1120.6</ele>
        <time>2017-07-23T10:53:56Z</time>
      </trkpt>
      <trkpt lat="44.2883040" lon="7.1687410">
        <ele>1119.2</ele>
        <time>2017-07-23T10:53:57Z</time>
      </trkpt>
      <trkpt lat="44.2884270" lon="7.1686680">
        <ele>1118.2</ele>
        <time>2017-07-23T10:53:58Z</time>
      </trkpt>
      <trkpt lat="44.2885570" lon="7.1685790">
        <ele>1117.2</ele>
        <time>2017-07-23T10:53:59Z</time>
      </trkpt>
      <trkpt lat="44.2886960" lon="7.1684980">
        <ele>1116.4</ele>
        <time>2017-07-23T10:54:00Z</time>
      </trkpt>
      <trkpt lat="44.2888310" lon="7.1684080">
        <ele>1115.2</ele>
        <time>2017-07-23T10:54:01Z</time>
      </trkpt>
      <trkpt lat="44.2889630" lon="7.1683090">
        <ele>1114.0</ele>
        <time>2017-07-23T10:54:02Z</time>
      </trkpt>
      <trkpt lat="44.2890940" lon="7.1682170">
        <ele>1112.6</ele>
        <time>2017-07-23T10:54:03Z</time>
      </trkpt>
      <trkpt lat="44.2892230" lon="7.1681270">
        <ele>1110.0</ele>
        <time>2017-07-23T10:54:04Z</time>
      </trkpt>
      <trkpt lat="44.2893400" lon="7.1680290">
        <ele>1108.8</ele>
        <time>2017-07-23T10:54:05Z</time>
      </trkpt>
      <trkpt lat="44.2894560" lon="7.1679260">
        <ele>1107.6</ele>
        <time>2017-07-23T10:54:06Z</time>
      </trkpt>
      <trkpt lat="44.2895760" lon="7.1678260">
        <ele>1106.4</ele>
        <time>2017-07-23T10:54:07Z</time>
      </trkpt>
      <trkpt lat="44.2897010" lon="7.1677470">
        <ele>1105.2</ele>
        <time>2017-07-23T10:54:08Z</time>
      </trkpt>
      <trkpt lat="44.2898280" lon="7.1676730">
        <ele>1104.0</ele>
        <time>2017-07-23T10:54:09Z</time>
      </trkpt>
      <trkpt lat="44.2899540" lon="7.1676010">
        <ele>1102.6</ele>
        <time>2017-07-23T10:54:10Z</time>
      </trkpt>
      <trkpt lat="44.2900790" lon="7.1675230">
        <ele>1101.4</ele>
        <time>2017-07-23T10:54:11Z</time>
      </trkpt>
      <trkpt lat="44.2902070" lon="7.1674390">
        <ele>1100.2</ele>
        <time>2017-07-23T10:54:12Z</time>
      </trkpt>
      <trkpt lat="44.2903390" lon="7.1673490">
        <ele>1099.0</ele>
        <time>2017-07-23T10:54:13Z</time>
      </trkpt>
      <trkpt lat="44.2904170" lon="7.1672370">
        <ele>1098.0</ele>
        <time>2017-07-23T10:54:14Z</time>
      </trkpt>
      <trkpt lat="44.2905070" lon="7.1671390">
        <ele>1097.2</ele>
        <time>2017-07-23T10:54:15Z</time>
      </trkpt>
      <trkpt lat="44.2906650" lon="7.1669430">
        <ele>1095.6</ele>
        <time>2017-07-23T10:54:17Z</time>
      </trkpt>
      <trkpt lat="44.2908160" lon="7.1667620">
        <ele>1094.6</ele>
        <time>2017-07-23T10:54:19Z</time>
      </trkpt>
      <trkpt lat="44.2909810" lon="7.1665890">
        <ele>1093.4</ele>
        <time>2017-07-23T10:54:21Z</time>
      </trkpt>
      <trkpt lat="44.2911390" lon="7.1664400">
        <ele>1092.6</ele>
        <time>2017-07-23T10:54:23Z</time>
      </trkpt>
      <trkpt lat="44.2912160" lon="7.1663660">
        <ele>1092.4</ele>
        <time>2017-07-23T10:54:24Z</time>
      </trkpt>
      <trkpt lat="44.2915160" lon="7.1660550">
        <ele>1090.6</ele>
        <time>2017-07-23T10:54:28Z</time>
      </trkpt>
      <trkpt lat="44.2915900" lon="7.1659860">
        <ele>1090.4</ele>
        <time>2017-07-23T10:54:29Z</time>
      </trkpt>
      <trkpt lat="44.2917530" lon="7.1658460">
        <ele>1089.6</ele>
        <time>2017-07-23T10:54:31Z</time>
      </trkpt>
      <trkpt lat="44.2920190" lon="7.1656530">
        <ele>1088.6</ele>
        <time>2017-07-23T10:54:34Z</time>
      </trkpt>
      <trkpt lat="44.2922010" lon="7.1655420">
        <ele>1088.0</ele>
        <time>2017-07-23T10:54:36Z</time>
      </trkpt>
      <trkpt lat="44.2922900" lon="7.1654860">
        <ele>1087.6</ele>
        <time>2017-07-23T10:54:37Z</time>
      </trkpt>
      <trkpt lat="44.2924600" lon="7.1653800">
        <ele>1086.6</ele>
        <time>2017-07-23T10:54:39Z</time>
      </trkpt>
      <trkpt lat="44.2925520" lon="7.1653520">
        <ele>1086.2</ele>
        <time>2017-07-23T10:54:40Z</time>
      </trkpt>
      <trkpt lat="44.2927150" lon="7.1652700">
        <ele>1085.6</ele>
        <time>2017-07-23T10:54:42Z</time>
      </trkpt>
      <trkpt lat="44.2927870" lon="7.1652130">
        <ele>1085.4</ele>
        <time>2017-07-23T10:54:43Z</time>
      </trkpt>
      <trkpt lat="44.2928570" lon="7.1651580">
        <ele>1085.2</ele>
        <time>2017-07-23T10:54:44Z</time>
      </trkpt>
      <trkpt lat="44.2930620" lon="7.1648600">
        <ele>1084.8</ele>
        <time>2017-07-23T10:54:48Z</time>
      </trkpt>
      <trkpt lat="44.2932030" lon="7.1645890">
        <ele>1083.6</ele>
        <time>2017-07-23T10:54:52Z</time>
      </trkpt>
      <trkpt lat="44.2933200" lon="7.1643280">
        <ele>1082.6</ele>
        <time>2017-07-23T10:54:55Z</time>
      </trkpt>
      <trkpt lat="44.2934090" lon="7.1641090">
        <ele>1081.6</ele>
        <time>2017-07-23T10:54:57Z</time>
      </trkpt>
      <trkpt lat="44.2934500" lon="7.1640070">
        <ele>1081.4</ele>
        <time>2017-07-23T10:54:58Z</time>
      </trkpt>
      <trkpt lat="44.2935250" lon="7.1637880">
        <ele>1080.4</ele>
        <time>2017-07-23T10:55:00Z</time>
      </trkpt>
      <trkpt lat="44.2935860" lon="7.1635340">
        <ele>1079.2</ele>
        <time>2017-07-23T10:55:02Z</time>
      </trkpt>
      <trkpt lat="44.2936190" lon="7.1634040">
        <ele>1078.6</ele>
        <time>2017-07-23T10:55:03Z</time>
      </trkpt>
      <trkpt lat="44.2936540" lon="7.1632760">
        <ele>1078.0</ele>
        <time>2017-07-23T10:55:04Z</time>
      </trkpt>
      <trkpt lat="44.2937660" lon="7.1628910">
        <ele>1076.6</ele>
        <time>2017-07-23T10:55:07Z</time>
      </trkpt>
      <trkpt lat="44.2938890" lon="7.1625110">
        <ele>1075.2</ele>
        <time>2017-07-23T10:55:10Z</time>
      </trkpt>
      <trkpt lat="44.2939360" lon="7.1623810">
        <ele>1074.4</ele>
        <time>2017-07-23T10:55:11Z</time>
      </trkpt>
      <trkpt lat="44.2939820" lon="7.1622530">
        <ele>1074.0</ele>
        <time>2017-07-23T10:55:12Z</time>
      </trkpt>
      <trkpt lat="44.2940870" lon="7.1619940">
        <ele>1073.0</ele>
        <time>2017-07-23T10:55:14Z</time>
      </trkpt>
      <trkpt lat="44.2942020" lon="7.1617670">
        <ele>1071.4</ele>
        <time>2017-07-23T10:55:16Z</time>
      </trkpt>
      <trkpt lat="44.2944310" lon="7.1613760">
        <ele>1070.2</ele>
        <time>2017-07-23T10:55:20Z</time>
      </trkpt>
      <trkpt lat="44.2945480" lon="7.1612070">
        <ele>1070.0</ele>
        <time>2017-07-23T10:55:22Z</time>
      </trkpt>
      <trkpt lat="44.2947580" lon="7.1608970">
        <ele>1069.6</ele>
        <time>2017-07-23T10:55:26Z</time>
      </trkpt>
      <trkpt lat="44.2948090" lon="7.1608200">
        <ele>1069.4</ele>
        <time>2017-07-23T10:55:27Z</time>
      </trkpt>
      <trkpt lat="44.2948620" lon="7.1607390">
        <ele>1069.2</ele>
        <time>2017-07-23T10:55:28Z</time>
      </trkpt>
      <trkpt lat="44.2949210" lon="7.1606640">
        <ele>1069.0</ele>
        <time>2017-07-23T10:55:29Z</time>
      </trkpt>
      <trkpt lat="44.2951060" lon="7.1604870">
        <ele>1069.0</ele>
        <time>2017-07-23T10:55:32Z</time>
      </trkpt>
      <trkpt lat="44.2952200" lon="7.1603460">
        <ele>1069.4</ele>
        <time>2017-07-23T10:55:34Z</time>
      </trkpt>
      <trkpt lat="44.2953640" lon="7.1600990">
        <ele>1069.8</ele>
        <time>2017-07-23T10:55:37Z</time>
      </trkpt>
      <trkpt lat="44.2955150" lon="7.1598440">
        <ele>1070.2</ele>
        <time>2017-07-23T10:55:40Z</time>
      </trkpt>
      <trkpt lat="44.2955730" lon="7.1597580">
        <ele>1070.0</ele>
        <time>2017-07-23T10:55:41Z</time>
      </trkpt>
      <trkpt lat="44.2956810" lon="7.1595890">
        <ele>1070.2</ele>
        <time>2017-07-23T10:55:43Z</time>
      </trkpt>
      <trkpt lat="44.2959750" lon="7.1592440">
        <ele>1069.8</ele>
        <time>2017-07-23T10:55:48Z</time>
      </trkpt>
      <trkpt lat="44.2960400" lon="7.1591830">
        <ele>1069.8</ele>
        <time>2017-07-23T10:55:49Z</time>
      </trkpt>
      <trkpt lat="44.2961770" lon="7.1590410">
        <ele>1069.4</ele>
        <time>2017-07-23T10:55:51Z</time>
      </trkpt>
      <trkpt lat="44.2962310" lon="7.1589340">
        <ele>1069.2</ele>
        <time>2017-07-23T10:55:52Z</time>
      </trkpt>
      <trkpt lat="44.2962700" lon="7.1588120">
        <ele>1068.8</ele>
        <time>2017-07-23T10:55:53Z</time>
      </trkpt>
      <trkpt lat="44.2962590" lon="7.1585220">
        <ele>1067.8</ele>
        <time>2017-07-23T10:55:55Z</time>
      </trkpt>
      <trkpt lat="44.2962070" lon="7.1582150">
        <ele>1066.0</ele>
        <time>2017-07-23T10:55:57Z</time>
      </trkpt>
      <trkpt lat="44.2961920" lon="7.1580430">
        <ele>1065.0</ele>
        <time>2017-07-23T10:55:58Z</time>
      </trkpt>
      <trkpt lat="44.2961770" lon="7.1578730">
        <ele>1063.8</ele>
        <time>2017-07-23T10:55:59Z</time>
      </trkpt>
      <trkpt lat="44.2961620" lon="7.1577110">
        <ele>1062.8</ele>
        <time>2017-07-23T10:56:00Z</time>
      </trkpt>
      <trkpt lat="44.2961420" lon="7.1575650">
        <ele>1061.6</ele>
        <time>2017-07-23T10:56:01Z</time>
      </trkpt>
      <trkpt lat="44.2961100" lon="7.1574340">
        <ele>1060.4</ele>
        <time>2017-07-23T10:56:02Z</time>
      </trkpt>
      <trkpt lat="44.2960770" lon="7.1573180">
        <ele>1059.4</ele>
        <time>2017-07-23T10:56:03Z</time>
      </trkpt>
      <trkpt lat="44.2960390" lon="7.1572200">
        <ele>1058.2</ele>
        <time>2017-07-23T10:56:04Z</time>
      </trkpt>
      <trkpt lat="44.2959960" lon="7.1571530">
        <ele>1056.2</ele>
        <time>2017-07-23T10:56:05Z</time>
      </trkpt>
      <trkpt lat="44.2959690" lon="7.1570970">
        <ele>1055.2</ele>
        <time>2017-07-23T10:56:06Z</time>
      </trkpt>
      <trkpt lat="44.2959760" lon="7.1570590">
        <ele>1054.4</ele>
        <time>2017-07-23T10:56:07Z</time>
      </trkpt>
      <trkpt lat="44.2959950" lon="7.1570220">
        <ele>1053.6</ele>
        <time>2017-07-23T10:56:08Z</time>
      </trkpt>
      <trkpt lat="44.2960230" lon="7.1570410">
        <ele>1052.8</ele>
        <time>2017-07-23T10:56:09Z</time>
      </trkpt>
      <trkpt lat="44.2960520" lon="7.1570910">
        <ele>1051.4</ele>
        <time>2017-07-23T10:56:10Z</time>
      </trkpt>
      <trkpt lat="44.2960990" lon="7.1571930">
        <ele>1050.6</ele>
        <time>2017-07-23T10:56:11Z</time>
      </trkpt>
      <trkpt lat="44.2961560" lon="7.1572930">
        <ele>1049.4</ele>
        <time>2017-07-23T10:56:12Z</time>
      </trkpt>
      <trkpt lat="44.2962110" lon="7.1573940">
        <ele>1048.4</ele>
        <time>2017-07-23T10:56:13Z</time>
      </trkpt>
      <trkpt lat="44.2962610" lon="7.1574920">
        <ele>1047.4</ele>
        <time>2017-07-23T10:56:14Z</time>
      </trkpt>
      <trkpt lat="44.2963100" lon="7.1575880">
        <ele>1046.4</ele>
        <time>2017-07-23T10:56:15Z</time>
      </trkpt>
      <trkpt lat="44.2964170" lon="7.1577660">
        <ele>1044.4</ele>
        <time>2017-07-23T10:56:17Z</time>
      </trkpt>
      <trkpt lat="44.2964730" lon="7.1578550">
        <ele>1043.4</ele>
        <time>2017-07-23T10:56:18Z</time>
      </trkpt>
      <trkpt lat="44.2965350" lon="7.1579360">
        <ele>1042.2</ele>
        <time>2017-07-23T10:56:19Z</time>
      </trkpt>
      <trkpt lat="44.2966010" lon="7.1580100">
        <ele>1041.2</ele>
        <time>2017-07-23T10:56:20Z</time>
      </trkpt>
      <trkpt lat="44.2967430" lon="7.1581470">
        <ele>1039.4</ele>
        <time>2017-07-23T10:56:22Z</time>
      </trkpt>
      <trkpt lat="44.2968690" lon="7.1582780">
        <ele>1037.2</ele>
        <time>2017-07-23T10:56:24Z</time>
      </trkpt>
      <trkpt lat="44.2969690" lon="7.1583640">
        <ele>1035.8</ele>
        <time>2017-07-23T10:56:26Z</time>
      </trkpt>
      <trkpt lat="44.2970500" lon="7.1583680">
        <ele>1034.2</ele>
        <time>2017-07-23T10:56:28Z</time>
      </trkpt>
      <trkpt lat="44.2970810" lon="7.1583750">
        <ele>1032.4</ele>
        <time>2017-07-23T10:56:29Z</time>
      </trkpt>
      <trkpt lat="44.2970720" lon="7.1582560">
        <ele>1030.2</ele>
        <time>2017-07-23T10:56:32Z</time>
      </trkpt>
      <trkpt lat="44.2970600" lon="7.1582080">
        <ele>1029.4</ele>
        <time>2017-07-23T10:56:33Z</time>
      </trkpt>
      <trkpt lat="44.2970450" lon="7.1581110">
        <ele>1028.6</ele>
        <time>2017-07-23T10:56:34Z</time>
      </trkpt>
      <trkpt lat="44.2970320" lon="7.1580080">
        <ele>1028.0</ele>
        <time>2017-07-23T10:56:35Z</time>
      </trkpt>
      <trkpt lat="44.2970130" lon="7.1577740">
        <ele>1026.6</ele>
        <time>2017-07-23T10:56:37Z</time>
      </trkpt>
      <trkpt lat="44.2970030" lon="7.1576350">
        <ele>1026.0</ele>
        <time>2017-07-23T10:56:38Z</time>
      </trkpt>
      <trkpt lat="44.2969900" lon="7.1574970">
        <ele>1025.2</ele>
        <time>2017-07-23T10:56:39Z</time>
      </trkpt>
      <trkpt lat="44.2969390" lon="7.1572220">
        <ele>1023.6</ele>
        <time>2017-07-23T10:56:41Z</time>
      </trkpt>
      <trkpt lat="44.2969080" lon="7.1570940">
        <ele>1022.8</ele>
        <time>2017-07-23T10:56:42Z</time>
      </trkpt>
      <trkpt lat="44.2968590" lon="7.1569590">
        <ele>1022.2</ele>
        <time>2017-07-23T10:56:43Z</time>
      </trkpt>
      <trkpt lat="44.2967670" lon="7.1566290">
        <ele>1020.6</ele>
        <time>2017-07-23T10:56:46Z</time>
      </trkpt>
      <trkpt lat="44.2968000" lon="7.1564730">
        <ele>1019.4</ele>
        <time>2017-07-23T10:56:48Z</time>
      </trkpt>
      <trkpt lat="44.2967800" lon="7.1564440">
        <ele>1018.6</ele>
        <time>2017-07-23T10:56:49Z</time>
      </trkpt>
      <trkpt lat="44.2967770" lon="7.1564770">
        <ele>1017.8</ele>
        <time>2017-07-23T10:56:50Z</time>
      </trkpt>
      <trkpt lat="44.2968050" lon="7.1566170">
        <ele>1016.8</ele>
        <time>2017-07-23T10:56:52Z</time>
      </trkpt>
      <trkpt lat="44.2968320" lon="7.1567040">
        <ele>1016.0</ele>
        <time>2017-07-23T10:56:53Z</time>
      </trkpt>
      <trkpt lat="44.2968650" lon="7.1567990">
        <ele>1015.6</ele>
        <time>2017-07-23T10:56:54Z</time>
      </trkpt>
      <trkpt lat="44.2969890" lon="7.1570990">
        <ele>1014.6</ele>
        <time>2017-07-23T10:56:57Z</time>
      </trkpt>
      <trkpt lat="44.2970370" lon="7.1572080">
        <ele>1014.4</ele>
        <time>2017-07-23T10:56:58Z</time>
      </trkpt>
      <trkpt lat="44.2972050" lon="7.1575780">
        <ele>1013.4</ele>
        <time>2017-07-23T10:57:01Z</time>
      </trkpt>
      <trkpt lat="44.2972590" lon="7.1576990">
        <ele>1013.0</ele>
        <time>2017-07-23T10:57:02Z</time>
      </trkpt>
      <trkpt lat="44.2973980" lon="7.1579930">
        <ele>1011.8</ele>
        <time>2017-07-23T10:57:05Z</time>
      </trkpt>
      <trkpt lat="44.2974890" lon="7.1580530">
        <ele>1011.2</ele>
        <time>2017-07-23T10:57:07Z</time>
      </trkpt>
      <trkpt lat="44.2975430" lon="7.1580240">
        <ele>1010.4</ele>
        <time>2017-07-23T10:57:08Z</time>
      </trkpt>
      <trkpt lat="44.2975570" lon="7.1579820">
        <ele>1009.8</ele>
        <time>2017-07-23T10:57:09Z</time>
      </trkpt>
      <trkpt lat="44.2975580" lon="7.1579320">
        <ele>1009.2</ele>
        <time>2017-07-23T10:57:10Z</time>
      </trkpt>
      <trkpt lat="44.2975370" lon="7.1577850">
        <ele>1008.0</ele>
        <time>2017-07-23T10:57:12Z</time>
      </trkpt>
      <trkpt lat="44.2974920" lon="7.1575960">
        <ele>1007.4</ele>
        <time>2017-07-23T10:57:14Z</time>
      </trkpt>
      <trkpt lat="44.2974370" lon="7.1573750">
        <ele>1006.8</ele>
        <time>2017-07-23T10:57:16Z</time>
      </trkpt>
      <trkpt lat="44.2973650" lon="7.1571090">
        <ele>1005.4</ele>
        <time>2017-07-23T10:57:18Z</time>
      </trkpt>
      <trkpt lat="44.2972790" lon="7.1568290">
        <ele>1004.6</ele>
        <time>2017-07-23T10:57:20Z</time>
      </trkpt>
      <trkpt lat="44.2972370" lon="7.1567100">
        <ele>1004.2</ele>
        <time>2017-07-23T10:57:21Z</time>
      </trkpt>
      <trkpt lat="44.2972040" lon="7.1566020">
        <ele>1003.6</ele>
        <time>2017-07-23T10:57:22Z</time>
      </trkpt>
      <trkpt lat="44.2972040" lon="7.1565000">
        <ele>1003.2</ele>
        <time>2017-07-23T10:57:23Z</time>
      </trkpt>
      <trkpt lat="44.2972250" lon="7.1563460">
        <ele>1002.0</ele>
        <time>2017-07-23T10:57:25Z</time>
      </trkpt>
      <trkpt lat="44.2972200" lon="7.1563120">
        <ele>1001.4</ele>
        <time>2017-07-23T10:57:26Z</time>
      </trkpt>
      <trkpt lat="44.2972470" lon="7.1563710">
        <ele>1000.2</ele>
        <time>2017-07-23T10:57:28Z</time>
      </trkpt>
      <trkpt lat="44.2972680" lon="7.1564210">
        <ele>999.6</ele>
        <time>2017-07-23T10:57:29Z</time>
      </trkpt>
      <trkpt lat="44.2973190" lon="7.1565440">
        <ele>999.0</ele>
        <time>2017-07-23T10:57:30Z</time>
      </trkpt>
      <trkpt lat="44.2973720" lon="7.1566720">
        <ele>998.4</ele>
        <time>2017-07-23T10:57:31Z</time>
      </trkpt>
      <trkpt lat="44.2974630" lon="7.1569320">
        <ele>997.0</ele>
        <time>2017-07-23T10:57:33Z</time>
      </trkpt>
      <trkpt lat="44.2975430" lon="7.1571910">
        <ele>996.0</ele>
        <time>2017-07-23T10:57:35Z</time>
      </trkpt>
      <trkpt lat="44.2975790" lon="7.1573130">
        <ele>995.4</ele>
        <time>2017-07-23T10:57:36Z</time>
      </trkpt>
      <trkpt lat="44.2976280" lon="7.1574040">
        <ele>994.8</ele>
        <time>2017-07-23T10:57:37Z</time>
      </trkpt>
      <trkpt lat="44.2977430" lon="7.1574650">
        <ele>994.0</ele>
        <time>2017-07-23T10:57:39Z</time>
      </trkpt>
      <trkpt lat="44.2977990" lon="7.1574720">
        <ele>993.2</ele>
        <time>2017-07-23T10:57:40Z</time>
      </trkpt>
      <trkpt lat="44.2978070" lon="7.1574530">
        <ele>992.0</ele>
        <time>2017-07-23T10:57:41Z</time>
      </trkpt>
      <trkpt lat="44.2978140" lon="7.1574280">
        <ele>991.4</ele>
        <time>2017-07-23T10:57:42Z</time>
      </trkpt>
      <trkpt lat="44.2978120" lon="7.1573970">
        <ele>990.8</ele>
        <time>2017-07-23T10:57:43Z</time>
      </trkpt>
      <trkpt lat="44.2977810" lon="7.1573330">
        <ele>989.4</ele>
        <time>2017-07-23T10:57:45Z</time>
      </trkpt>
      <trkpt lat="44.2977400" lon="7.1571660">
        <ele>988.2</ele>
        <time>2017-07-23T10:57:47Z</time>
      </trkpt>
      <trkpt lat="44.2977440" lon="7.1570660">
        <ele>986.8</ele>
        <time>2017-07-23T10:57:49Z</time>
      </trkpt>
      <trkpt lat="44.2977360" lon="7.1570830">
        <ele>986.2</ele>
        <time>2017-07-23T10:57:50Z</time>
      </trkpt>
      <trkpt lat="44.2977350" lon="7.1571220">
        <ele>985.6</ele>
        <time>2017-07-23T10:57:51Z</time>
      </trkpt>
      <trkpt lat="44.2977580" lon="7.1572690">
        <ele>984.6</ele>
        <time>2017-07-23T10:57:53Z</time>
      </trkpt>
      <trkpt lat="44.2978280" lon="7.1574780">
        <ele>983.6</ele>
        <time>2017-07-23T10:57:55Z</time>
      </trkpt>
      <trkpt lat="44.2978690" lon="7.1575510">
        <ele>983.0</ele>
        <time>2017-07-23T10:57:56Z</time>
      </trkpt>
      <trkpt lat="44.2979470" lon="7.1576260">
        <ele>981.6</ele>
        <time>2017-07-23T10:57:58Z</time>
      </trkpt>
      <trkpt lat="44.2979850" lon="7.1576140">
        <ele>980.8</ele>
        <time>2017-07-23T10:57:59Z</time>
      </trkpt>
      <trkpt lat="44.2979860" lon="7.1575700">
        <ele>980.0</ele>
        <time>2017-07-23T10:58:00Z</time>
      </trkpt>
      <trkpt lat="44.2979700" lon="7.1574900">
        <ele>979.4</ele>
        <time>2017-07-23T10:58:01Z</time>
      </trkpt>
      <trkpt lat="44.2979490" lon="7.1573890">
        <ele>978.8</ele>
        <time>2017-07-23T10:58:02Z</time>
      </trkpt>
      <trkpt lat="44.2978890" lon="7.1571790">
        <ele>977.6</ele>
        <time>2017-07-23T10:58:04Z</time>
      </trkpt>
      <trkpt lat="44.2978540" lon="7.1570370">
        <ele>976.4</ele>
        <time>2017-07-23T10:58:05Z</time>
      </trkpt>
      <trkpt lat="44.2978850" lon="7.1568310">
        <ele>975.0</ele>
        <time>2017-07-23T10:58:07Z</time>
      </trkpt>
      <trkpt lat="44.2978820" lon="7.1567410">
        <ele>973.8</ele>
        <time>2017-07-23T10:58:09Z</time>
      </trkpt>
      <trkpt lat="44.2978680" lon="7.1567120">
        <ele>972.2</ele>
        <time>2017-07-23T10:58:11Z</time>
      </trkpt>
      <trkpt lat="44.2978650" lon="7.1567280">
        <ele>971.2</ele>
        <time>2017-07-23T10:58:12Z</time>
      </trkpt>
      <trkpt lat="44.2978610" lon="7.1567700">
        <ele>970.6</ele>
        <time>2017-07-23T10:58:13Z</time>
      </trkpt>
      <trkpt lat="44.2979000" lon="7.1568340">
        <ele>970.0</ele>
        <time>2017-07-23T10:58:14Z</time>
      </trkpt>
      <trkpt lat="44.2979900" lon="7.1570030">
        <ele>969.0</ele>
        <time>2017-07-23T10:58:16Z</time>
      </trkpt>
      <trkpt lat="44.2980830" lon="7.1571100">
        <ele>967.6</ele>
        <time>2017-07-23T10:58:18Z</time>
      </trkpt>
      <trkpt lat="44.2980680" lon="7.1570370">
        <ele>966.0</ele>
        <time>2017-07-23T10:58:20Z</time>
      </trkpt>
      <trkpt lat="44.2980510" lon="7.1569750">
        <ele>965.4</ele>
        <time>2017-07-23T10:58:21Z</time>
      </trkpt>
      <trkpt lat="44.2980240" lon="7.1568860">
        <ele>965.0</ele>
        <time>2017-07-23T10:58:22Z</time>
      </trkpt>
      <trkpt lat="44.2979810" lon="7.1567600">
        <ele>964.4</ele>
        <time>2017-07-23T10:58:23Z</time>
      </trkpt>
      <trkpt lat="44.2979300" lon="7.1565310">
        <ele>963.8</ele>
        <time>2017-07-23T10:58:25Z</time>
      </trkpt>
      <trkpt lat="44.2979490" lon="7.1564230">
        <ele>963.2</ele>
        <time>2017-07-23T10:58:26Z</time>
      </trkpt>
      <trkpt lat="44.2979720" lon="7.1563470">
        <ele>962.6</ele>
        <time>2017-07-23T10:58:27Z</time>
      </trkpt>
      <trkpt lat="44.2979740" lon="7.1562620">
        <ele>961.0</ele>
        <time>2017-07-23T10:58:29Z</time>
      </trkpt>
      <trkpt lat="44.2979740" lon="7.1562680">
        <ele>960.6</ele>
        <time>2017-07-23T10:58:30Z</time>
      </trkpt>
      <trkpt lat="44.2979880" lon="7.1563060">
        <ele>960.2</ele>
        <time>2017-07-23T10:58:31Z</time>
      </trkpt>
      <trkpt lat="44.2980060" lon="7.1563610">
        <ele>959.8</ele>
        <time>2017-07-23T10:58:32Z</time>
      </trkpt>
      <trkpt lat="44.2980720" lon="7.1565690">
        <ele>958.8</ele>
        <time>2017-07-23T10:58:35Z</time>
      </trkpt>
      <trkpt lat="44.2981000" lon="7.1567020">
        <ele>958.2</ele>
        <time>2017-07-23T10:58:36Z</time>
      </trkpt>
      <trkpt lat="44.2981710" lon="7.1569150">
        <ele>957.6</ele>
        <time>2017-07-23T10:58:38Z</time>
      </trkpt>
      <trkpt lat="44.2982160" lon="7.1569690">
        <ele>957.2</ele>
        <time>2017-07-23T10:58:39Z</time>
      </trkpt>
      <trkpt lat="44.2982570" lon="7.1569770">
        <ele>956.8</ele>
        <time>2017-07-23T10:58:40Z</time>
      </trkpt>
      <trkpt lat="44.2983030" lon="7.1568970">
        <ele>955.8</ele>
        <time>2017-07-23T10:58:42Z</time>
      </trkpt>
      <trkpt lat="44.2982990" lon="7.1567810">
        <ele>954.8</ele>
        <time>2017-07-23T10:58:44Z</time>
      </trkpt>
      <trkpt lat="44.2982920" lon="7.1566900">
        <ele>954.2</ele>
        <time>2017-07-23T10:58:45Z</time>
      </trkpt>
      <trkpt lat="44.2982810" lon="7.1565700">
        <ele>953.8</ele>
        <time>2017-07-23T10:58:46Z</time>
      </trkpt>
      <trkpt lat="44.2982510" lon="7.1562930">
        <ele>952.6</ele>
        <time>2017-07-23T10:58:48Z</time>
      </trkpt>
      <trkpt lat="44.2982350" lon="7.1561650">
        <ele>952.0</ele>
        <time>2017-07-23T10:58:49Z</time>
      </trkpt>
      <trkpt lat="44.2982340" lon="7.1560170">
        <ele>951.4</ele>
        <time>2017-07-23T10:58:50Z</time>
      </trkpt>
      <trkpt lat="44.2982540" lon="7.1558930">
        <ele>950.8</ele>
        <time>2017-07-23T10:58:51Z</time>
      </trkpt>
      <trkpt lat="44.2982770" lon="7.1558100">
        <ele>950.0</ele>
        <time>2017-07-23T10:58:52Z</time>
      </trkpt>
      <trkpt lat="44.2982790" lon="7.1557500">
        <ele>948.6</ele>
        <time>2017-07-23T10:58:53Z</time>
      </trkpt>
      <trkpt lat="44.2982680" lon="7.1557410">
        <ele>947.8</ele>
        <time>2017-07-23T10:58:54Z</time>
      </trkpt>
      <trkpt lat="44.2982560" lon="7.1557680">
        <ele>947.0</ele>
        <time>2017-07-23T10:58:55Z</time>
      </trkpt>
      <trkpt lat="44.2982630" lon="7.1558500">
        <ele>945.6</ele>
        <time>2017-07-23T10:58:57Z</time>
      </trkpt>
      <trkpt lat="44.2983030" lon="7.1559430">
        <ele>944.4</ele>
        <time>2017-07-23T10:58:59Z</time>
      </trkpt>
      <trkpt lat="44.2984010" lon="7.1561890">
        <ele>943.0</ele>
        <time>2017-07-23T10:59:01Z</time>
      </trkpt>
      <trkpt lat="44.2985160" lon="7.1565860">
        <ele>941.4</ele>
        <time>2017-07-23T10:59:04Z</time>
      </trkpt>
      <trkpt lat="44.2985330" lon="7.1567100">
        <ele>940.8</ele>
        <time>2017-07-23T10:59:05Z</time>
      </trkpt>
      <trkpt lat="44.2985520" lon="7.1568310">
        <ele>940.2</ele>
        <time>2017-07-23T10:59:06Z</time>
      </trkpt>
      <trkpt lat="44.2985670" lon="7.1569710">
        <ele>939.2</ele>
        <time>2017-07-23T10:59:08Z</time>
      </trkpt>
      <trkpt lat="44.2985770" lon="7.1569880">
        <ele>938.6</ele>
        <time>2017-07-23T10:59:09Z</time>
      </trkpt>
      <trkpt lat="44.2986130" lon="7.1569470">
        <ele>938.0</ele>
        <time>2017-07-23T10:59:10Z</time>
      </trkpt>
      <trkpt lat="44.2987280" lon="7.1568120">
        <ele>937.2</ele>
        <time>2017-07-23T10:59:12Z</time>
      </trkpt>
      <trkpt lat="44.2988160" lon="7.1567320">
        <ele>936.8</ele>
        <time>2017-07-23T10:59:13Z</time>
      </trkpt>
      <trkpt lat="44.2990550" lon="7.1565510">
        <ele>935.6</ele>
        <time>2017-07-23T10:59:17Z</time>
      </trkpt>
      <trkpt lat="44.2991990" lon="7.1564510">
        <ele>934.6</ele>
        <time>2017-07-23T10:59:19Z</time>
      </trkpt>
      <trkpt lat="44.2992720" lon="7.1563900">
        <ele>934.2</ele>
        <time>2017-07-23T10:59:20Z</time>
      </trkpt>
      <trkpt lat="44.2994270" lon="7.1562740">
        <ele>933.4</ele>
        <time>2017-07-23T10:59:22Z</time>
      </trkpt>
      <trkpt lat="44.2996470" lon="7.1560820">
        <ele>932.2</ele>
        <time>2017-07-23T10:59:25Z</time>
      </trkpt>
      <trkpt lat="44.2997300" lon="7.1560460">
        <ele>931.6</ele>
        <time>2017-07-23T10:59:26Z</time>
      </trkpt>
      <trkpt lat="44.2998140" lon="7.1560300">
        <ele>931.2</ele>
        <time>2017-07-23T10:59:27Z</time>
      </trkpt>
      <trkpt lat="44.2999510" lon="7.1560490">
        <ele>930.2</ele>
        <time>2017-07-23T10:59:29Z</time>
      </trkpt>
      <trkpt lat="44.3000040" lon="7.1560680">
        <ele>929.4</ele>
        <time>2017-07-23T10:59:30Z</time>
      </trkpt>
      <trkpt lat="44.3000600" lon="7.1560410">
        <ele>927.8</ele>
        <time>2017-07-23T10:59:32Z</time>
      </trkpt>
      <trkpt lat="44.2999950" lon="7.1559590">
        <ele>926.6</ele>
        <time>2017-07-23T10:59:34Z</time>
      </trkpt>
      <trkpt lat="44.2999120" lon="7.1558560">
        <ele>925.2</ele>
        <time>2017-07-23T10:59:36Z</time>
      </trkpt>
      <trkpt lat="44.2998090" lon="7.1557380">
        <ele>924.0</ele>
        <time>2017-07-23T10:59:38Z</time>
      </trkpt>
      <trkpt lat="44.2997550" lon="7.1556760">
        <ele>923.2</ele>
        <time>2017-07-23T10:59:39Z</time>
      </trkpt>
      <trkpt lat="44.2996900" lon="7.1556120">
        <ele>922.6</ele>
        <time>2017-07-23T10:59:40Z</time>
      </trkpt>
      <trkpt lat="44.2995800" lon="7.1554840">
        <ele>920.4</ele>
        <time>2017-07-23T10:59:42Z</time>
      </trkpt>
      <trkpt lat="44.2994540" lon="7.1553630">
        <ele>919.2</ele>
        <time>2017-07-23T10:59:44Z</time>
      </trkpt>
      <trkpt lat="44.2993910" lon="7.1552930">
        <ele>918.6</ele>
        <time>2017-07-23T10:59:45Z</time>
      </trkpt>
      <trkpt lat="44.2993060" lon="7.1551080">
        <ele>917.8</ele>
        <time>2017-07-23T10:59:47Z</time>
      </trkpt>
      <trkpt lat="44.2992780" lon="7.1549200">
        <ele>916.8</ele>
        <time>2017-07-23T10:59:49Z</time>
      </trkpt>
      <trkpt lat="44.2992770" lon="7.1548410">
        <ele>916.4</ele>
        <time>2017-07-23T10:59:50Z</time>
      </trkpt>
      <trkpt lat="44.2992610" lon="7.1546850">
        <ele>915.0</ele>
        <time>2017-07-23T10:59:53Z</time>
      </trkpt>
      <trkpt lat="44.2992560" lon="7.1546450">
        <ele>914.6</ele>
        <time>2017-07-23T10:59:54Z</time>
      </trkpt>
      <trkpt lat="44.2992430" lon="7.1546490">
        <ele>914.2</ele>
        <time>2017-07-23T10:59:55Z</time>
      </trkpt>
      <trkpt lat="44.2992540" lon="7.1546110">
        <ele>912.2</ele>
        <time>2017-07-23T11:06:13Z</time>
      </trkpt>
      <trkpt lat="44.2992480" lon="7.1544400">
        <ele>912.8</ele>
        <time>2017-07-23T11:06:18Z</time>
      </trkpt>
      <trkpt lat="44.2992240" lon="7.1543330">
        <ele>912.6</ele>
        <time>2017-07-23T11:06:21Z</time>
      </trkpt>
      <trkpt lat="44.2991720" lon="7.1541800">
        <ele>913.0</ele>
        <time>2017-07-23T11:06:25Z</time>
      </trkpt>
      <trkpt lat="44.2991350" lon="7.1541130">
        <ele>913.2</ele>
        <time>2017-07-23T11:06:27Z</time>
      </trkpt>
      <trkpt lat="44.2990300" lon="7.1539410">
        <ele>913.8</ele>
        <time>2017-07-23T11:06:32Z</time>
      </trkpt>
      <trkpt lat="44.2990080" lon="7.1539040">
        <ele>913.8</ele>
        <time>2017-07-23T11:06:33Z</time>
      </trkpt>
      <trkpt lat="44.2989260" lon="7.1537620">
        <ele>914.4</ele>
        <time>2017-07-23T11:06:37Z</time>
      </trkpt>
      <trkpt lat="44.2988260" lon="7.1536230">
        <ele>915.0</ele>
        <time>2017-07-23T11:06:41Z</time>
      </trkpt>
      <trkpt lat="44.2987760" lon="7.1535490">
        <ele>915.4</ele>
        <time>2017-07-23T11:06:43Z</time>
      </trkpt>
      <trkpt lat="44.2986690" lon="7.1533930">
        <ele>916.4</ele>
        <time>2017-07-23T11:06:47Z</time>
      </trkpt>
      <trkpt lat="44.2986400" lon="7.1533490">
        <ele>916.4</ele>
        <time>2017-07-23T11:06:48Z</time>
      </trkpt>
      <trkpt lat="44.2985290" lon="7.1531650">
        <ele>917.4</ele>
        <time>2017-07-23T11:06:52Z</time>
      </trkpt>
      <trkpt lat="44.2984740" lon="7.1530660">
        <ele>917.8</ele>
        <time>2017-07-23T11:06:54Z</time>
      </trkpt>
      <trkpt lat="44.2982970" lon="7.1527410">
        <ele>918.4</ele>
        <time>2017-07-23T11:07:00Z</time>
      </trkpt>
      <trkpt lat="44.2982380" lon="7.1526120">
        <ele>918.6</ele>
        <time>2017-07-23T11:07:02Z</time>
      </trkpt>
      <trkpt lat="44.2981670" lon="7.1523740">
        <ele>918.6</ele>
        <time>2017-07-23T11:07:05Z</time>
      </trkpt>
      <trkpt lat="44.2980750" lon="7.1519860">
        <ele>918.2</ele>
        <time>2017-07-23T11:07:09Z</time>
      </trkpt>
      <trkpt lat="44.2980530" lon="7.1518810">
        <ele>918.0</ele>
        <time>2017-07-23T11:07:10Z</time>
      </trkpt>
      <trkpt lat="44.2979880" lon="7.1515590">
        <ele>917.6</ele>
        <time>2017-07-23T11:07:13Z</time>
      </trkpt>
      <trkpt lat="44.2979850" lon="7.1514470">
        <ele>917.6</ele>
        <time>2017-07-23T11:07:14Z</time>
      </trkpt>
      <trkpt lat="44.2979880" lon="7.1513340">
        <ele>917.4</ele>
        <time>2017-07-23T11:07:15Z</time>
      </trkpt>
      <trkpt lat="44.2979720" lon="7.1510160">
        <ele>917.0</ele>
        <time>2017-07-23T11:07:18Z</time>
      </trkpt>
      <trkpt lat="44.2979280" lon="7.1508200">
        <ele>916.4</ele>
        <time>2017-07-23T11:07:20Z</time>
      </trkpt>
      <trkpt lat="44.2977990" lon="7.1505880">
        <ele>916.0</ele>
        <time>2017-07-23T11:07:23Z</time>
      </trkpt>
      <trkpt lat="44.2977570" lon="7.1505020">
        <ele>915.8</ele>
        <time>2017-07-23T11:07:24Z</time>
      </trkpt>
      <trkpt lat="44.2977120" lon="7.1503180">
        <ele>915.4</ele>
        <time>2017-07-23T11:07:26Z</time>
      </trkpt>
      <trkpt lat="44.2976990" lon="7.1502260">
        <ele>915.2</ele>
        <time>2017-07-23T11:07:27Z</time>
      </trkpt>
      <trkpt lat="44.2976840" lon="7.1501330">
        <ele>915.0</ele>
        <time>2017-07-23T11:07:28Z</time>
      </trkpt>
      <trkpt lat="44.2976550" lon="7.1498490">
        <ele>914.4</ele>
        <time>2017-07-23T11:07:31Z</time>
      </trkpt>
      <trkpt lat="44.2976510" lon="7.1497510">
        <ele>914.4</ele>
        <time>2017-07-23T11:07:32Z</time>
      </trkpt>
      <trkpt lat="44.2976470" lon="7.1496550">
        <ele>914.2</ele>
        <time>2017-07-23T11:07:33Z</time>
      </trkpt>
      <trkpt lat="44.2976190" lon="7.1491960">
        <ele>913.4</ele>
        <time>2017-07-23T11:07:38Z</time>
      </trkpt>
      <trkpt lat="44.2976120" lon="7.1491120">
        <ele>913.0</ele>
        <time>2017-07-23T11:07:39Z</time>
      </trkpt>
      <trkpt lat="44.2976080" lon="7.1490280">
        <ele>913.0</ele>
        <time>2017-07-23T11:07:40Z</time>
      </trkpt>
      <trkpt lat="44.2975710" lon="7.1484950">
        <ele>912.0</ele>
        <time>2017-07-23T11:07:47Z</time>
      </trkpt>
      <trkpt lat="44.2975630" lon="7.1483580">
        <ele>912.0</ele>
        <time>2017-07-23T11:07:49Z</time>
      </trkpt>
      <trkpt lat="44.2975460" lon="7.1481660">
        <ele>912.2</ele>
        <time>2017-07-23T11:07:52Z</time>
      </trkpt>
      <trkpt lat="44.2975180" lon="7.1479830">
        <ele>912.2</ele>
        <time>2017-07-23T11:07:55Z</time>
      </trkpt>
      <trkpt lat="44.2974340" lon="7.1476960">
        <ele>913.4</ele>
        <time>2017-07-23T11:08:00Z</time>
      </trkpt>
      <trkpt lat="44.2973880" lon="7.1475830">
        <ele>913.8</ele>
        <time>2017-07-23T11:08:02Z</time>
      </trkpt>
      <trkpt lat="44.2973370" lon="7.1474060">
        <ele>913.8</ele>
        <time>2017-07-23T11:08:05Z</time>
      </trkpt>
      <trkpt lat="44.2973290" lon="7.1472780">
        <ele>914.6</ele>
        <time>2017-07-23T11:08:07Z</time>
      </trkpt>
      <trkpt lat="44.2973330" lon="7.1472120">
        <ele>915.0</ele>
        <time>2017-07-23T11:08:08Z</time>
      </trkpt>
      <trkpt lat="44.2973340" lon="7.1471460">
        <ele>915.4</ele>
        <time>2017-07-23T11:08:09Z</time>
      </trkpt>
      <trkpt lat="44.2973380" lon="7.1470840">
        <ele>915.6</ele>
        <time>2017-07-23T11:08:10Z</time>
      </trkpt>
      <trkpt lat="44.2973740" lon="7.1468240">
        <ele>916.2</ele>
        <time>2017-07-23T11:08:14Z</time>
      </trkpt>
      <trkpt lat="44.2974230" lon="7.1464030">
        <ele>916.6</ele>
        <time>2017-07-23T11:08:21Z</time>
      </trkpt>
      <trkpt lat="44.2974280" lon="7.1463440">
        <ele>916.8</ele>
        <time>2017-07-23T11:08:22Z</time>
      </trkpt>
      <trkpt lat="44.2974290" lon="7.1462190">
        <ele>916.8</ele>
        <time>2017-07-23T11:08:24Z</time>
      </trkpt>
      <trkpt lat="44.2974050" lon="7.1460120">
        <ele>916.8</ele>
        <time>2017-07-23T11:08:27Z</time>
      </trkpt>
      <trkpt lat="44.2973400" lon="7.1455330">
        <ele>917.2</ele>
        <time>2017-07-23T11:08:33Z</time>
      </trkpt>
      <trkpt lat="44.2973230" lon="7.1452770">
        <ele>917.4</ele>
        <time>2017-07-23T11:08:36Z</time>
      </trkpt>
      <trkpt lat="44.2973470" lon="7.1449310">
        <ele>917.2</ele>
        <time>2017-07-23T11:08:40Z</time>
      </trkpt>
      <trkpt lat="44.2974170" lon="7.1444250">
        <ele>916.8</ele>
        <time>2017-07-23T11:08:46Z</time>
      </trkpt>
      <trkpt lat="44.2974220" lon="7.1440000">
        <ele>916.4</ele>
        <time>2017-07-23T11:08:51Z</time>
      </trkpt>
      <trkpt lat="44.2974290" lon="7.1434850">
        <ele>916.6</ele>
        <time>2017-07-23T11:08:57Z</time>
      </trkpt>
      <trkpt lat="44.2975340" lon="7.1431810">
        <ele>916.6</ele>
        <time>2017-07-23T11:09:01Z</time>
      </trkpt>
      <trkpt lat="44.2976500" lon="7.1427570">
        <ele>916.2</ele>
        <time>2017-07-23T11:09:07Z</time>
      </trkpt>
      <trkpt lat="44.2976820" lon="7.1426230">
        <ele>916.4</ele>
        <time>2017-07-23T11:09:09Z</time>
      </trkpt>
      <trkpt lat="44.2977580" lon="7.1425170">
        <ele>916.6</ele>
        <time>2017-07-23T11:09:11Z</time>
      </trkpt>
      <trkpt lat="44.2978370" lon="7.1424120">
        <ele>916.8</ele>
        <time>2017-07-23T11:09:13Z</time>
      </trkpt>
      <trkpt lat="44.2978840" lon="7.1422730">
        <ele>917.0</ele>
        <time>2017-07-23T11:09:15Z</time>
      </trkpt>
      <trkpt lat="44.2979560" lon="7.1419870">
        <ele>917.2</ele>
        <time>2017-07-23T11:09:19Z</time>
      </trkpt>
      <trkpt lat="44.2979850" lon="7.1418120">
        <ele>917.2</ele>
        <time>2017-07-23T11:09:21Z</time>
      </trkpt>
      <trkpt lat="44.2979980" lon="7.1417240">
        <ele>917.2</ele>
        <time>2017-07-23T11:09:22Z</time>
      </trkpt>
      <trkpt lat="44.2979980" lon="7.1416400">
        <ele>917.4</ele>
        <time>2017-07-23T11:09:23Z</time>
      </trkpt>
      <trkpt lat="44.2979650" lon="7.1413900">
        <ele>917.2</ele>
        <time>2017-07-23T11:09:26Z</time>
      </trkpt>
      <trkpt lat="44.2979270" lon="7.1412310">
        <ele>917.0</ele>
        <time>2017-07-23T11:09:28Z</time>
      </trkpt>
      <trkpt lat="44.2978250" lon="7.1409290">
        <ele>917.6</ele>
        <time>2017-07-23T11:09:32Z</time>
      </trkpt>
      <trkpt lat="44.2977000" lon="7.1405570">
        <ele>917.8</ele>
        <time>2017-07-23T11:09:37Z</time>
      </trkpt>
      <trkpt lat="44.2976410" lon="7.1403250">
        <ele>917.8</ele>
        <time>2017-07-23T11:09:40Z</time>
      </trkpt>
      <trkpt lat="44.2976640" lon="7.1400140">
        <ele>918.2</ele>
        <time>2017-07-23T11:09:44Z</time>
      </trkpt>
      <trkpt lat="44.2976760" lon="7.1399400">
        <ele>918.2</ele>
        <time>2017-07-23T11:09:45Z</time>
      </trkpt>
      <trkpt lat="44.2977310" lon="7.1397150">
        <ele>918.0</ele>
        <time>2017-07-23T11:09:48Z</time>
      </trkpt>
      <trkpt lat="44.2977780" lon="7.1394880">
        <ele>917.8</ele>
        <time>2017-07-23T11:09:51Z</time>
      </trkpt>
      <trkpt lat="44.2977850" lon="7.1393400">
        <ele>917.8</ele>
        <time>2017-07-23T11:09:53Z</time>
      </trkpt>
      <trkpt lat="44.2977690" lon="7.1391190">
        <ele>917.6</ele>
        <time>2017-07-23T11:09:56Z</time>
      </trkpt>
      <trkpt lat="44.2977380" lon="7.1386920">
        <ele>917.8</ele>
        <time>2017-07-23T11:10:02Z</time>
      </trkpt>
      <trkpt lat="44.2977350" lon="7.1385510">
        <ele>918.2</ele>
        <time>2017-07-23T11:10:04Z</time>
      </trkpt>
      <trkpt lat="44.2977520" lon="7.1384080">
        <ele>918.2</ele>
        <time>2017-07-23T11:10:06Z</time>
      </trkpt>
      <trkpt lat="44.2978010" lon="7.1382790">
        <ele>918.0</ele>
        <time>2017-07-23T11:10:08Z</time>
      </trkpt>
      <trkpt lat="44.2978590" lon="7.1381630">
        <ele>917.4</ele>
        <time>2017-07-23T11:10:10Z</time>
      </trkpt>
      <trkpt lat="44.2979180" lon="7.1380470">
        <ele>916.2</ele>
        <time>2017-07-23T11:10:12Z</time>
      </trkpt>
      <trkpt lat="44.2980270" lon="7.1378020">
        <ele>915.8</ele>
        <time>2017-07-23T11:10:16Z</time>
      </trkpt>
      <trkpt lat="44.2980860" lon="7.1376000">
        <ele>917.8</ele>
        <time>2017-07-23T11:10:19Z</time>
      </trkpt>
      <trkpt lat="44.2981160" lon="7.1374630">
        <ele>918.8</ele>
        <time>2017-07-23T11:10:21Z</time>
      </trkpt>
      <trkpt lat="44.2981260" lon="7.1373890">
        <ele>918.8</ele>
        <time>2017-07-23T11:10:22Z</time>
      </trkpt>
      <trkpt lat="44.2981380" lon="7.1368560">
        <ele>919.6</ele>
        <time>2017-07-23T11:10:29Z</time>
      </trkpt>
      <trkpt lat="44.2981270" lon="7.1367840">
        <ele>920.2</ele>
        <time>2017-07-23T11:10:30Z</time>
      </trkpt>
      <trkpt lat="44.2980980" lon="7.1366510">
        <ele>920.6</ele>
        <time>2017-07-23T11:10:32Z</time>
      </trkpt>
      <trkpt lat="44.2980650" lon="7.1365110">
        <ele>921.0</ele>
        <time>2017-07-23T11:10:34Z</time>
      </trkpt>
      <trkpt lat="44.2980280" lon="7.1363820">
        <ele>921.2</ele>
        <time>2017-07-23T11:10:36Z</time>
      </trkpt>
      <trkpt lat="44.2979400" lon="7.1361160">
        <ele>921.8</ele>
        <time>2017-07-23T11:10:40Z</time>
      </trkpt>
      <trkpt lat="44.2978830" lon="7.1359120">
        <ele>922.2</ele>
        <time>2017-07-23T11:10:43Z</time>
      </trkpt>
      <trkpt lat="44.2978110" lon="7.1356260">
        <ele>922.8</ele>
        <time>2017-07-23T11:10:47Z</time>
      </trkpt>
      <trkpt lat="44.2977460" lon="7.1351470">
        <ele>922.6</ele>
        <time>2017-07-23T11:10:53Z</time>
      </trkpt>
      <trkpt lat="44.2977500" lon="7.1350650">
        <ele>922.6</ele>
        <time>2017-07-23T11:10:54Z</time>
      </trkpt>
      <trkpt lat="44.2978210" lon="7.1348240">
        <ele>922.4</ele>
        <time>2017-07-23T11:10:57Z</time>
      </trkpt>
      <trkpt lat="44.2979590" lon="7.1343560">
        <ele>922.4</ele>
        <time>2017-07-23T11:11:03Z</time>
      </trkpt>
      <trkpt lat="44.2981340" lon="7.1337140">
        <ele>922.2</ele>
        <time>2017-07-23T11:11:11Z</time>
      </trkpt>
      <trkpt lat="44.2982180" lon="7.1332600">
        <ele>922.4</ele>
        <time>2017-07-23T11:11:17Z</time>
      </trkpt>
      <trkpt lat="44.2982550" lon="7.1330200">
        <ele>923.4</ele>
        <time>2017-07-23T11:11:20Z</time>
      </trkpt>
      <trkpt lat="44.2982980" lon="7.1327850">
        <ele>924.0</ele>
        <time>2017-07-23T11:11:23Z</time>
      </trkpt>
      <trkpt lat="44.2983150" lon="7.1324550">
        <ele>924.4</ele>
        <time>2017-07-23T11:11:27Z</time>
      </trkpt>
      <trkpt lat="44.2983130" lon="7.1322870">
        <ele>925.0</ele>
        <time>2017-07-23T11:11:29Z</time>
      </trkpt>
      <trkpt lat="44.2983060" lon="7.1322070">
        <ele>925.6</ele>
        <time>2017-07-23T11:11:30Z</time>
      </trkpt>
      <trkpt lat="44.2982900" lon="7.1317940">
        <ele>925.8</ele>
        <time>2017-07-23T11:11:35Z</time>
      </trkpt>
      <trkpt lat="44.2983190" lon="7.1314930">
        <ele>926.8</ele>
        <time>2017-07-23T11:11:39Z</time>
      </trkpt>
      <trkpt lat="44.2983390" lon="7.1313510">
        <ele>927.2</ele>
        <time>2017-07-23T11:11:41Z</time>
      </trkpt>
      <trkpt lat="44.2983490" lon="7.1312830">
        <ele>928.0</ele>
        <time>2017-07-23T11:11:42Z</time>
      </trkpt>
      <trkpt lat="44.2983870" lon="7.1310010">
        <ele>929.2</ele>
        <time>2017-07-23T11:11:46Z</time>
      </trkpt>
      <trkpt lat="44.2984080" lon="7.1308000">
        <ele>929.8</ele>
        <time>2017-07-23T11:11:49Z</time>
      </trkpt>
      <trkpt lat="44.2984220" lon="7.1306660">
        <ele>930.2</ele>
        <time>2017-07-23T11:11:51Z</time>
      </trkpt>
      <trkpt lat="44.2984240" lon="7.1304560">
        <ele>931.0</ele>
        <time>2017-07-23T11:11:54Z</time>
      </trkpt>
      <trkpt lat="44.2984010" lon="7.1303100">
        <ele>930.6</ele>
        <time>2017-07-23T11:11:56Z</time>
      </trkpt>
      <trkpt lat="44.2983250" lon="7.1298050">
        <ele>930.6</ele>
        <time>2017-07-23T11:12:03Z</time>
      </trkpt>
      <trkpt lat="44.2983280" lon="7.1295160">
        <ele>931.4</ele>
        <time>2017-07-23T11:12:07Z</time>
      </trkpt>
      <trkpt lat="44.2983470" lon="7.1293630">
        <ele>931.2</ele>
        <time>2017-07-23T11:12:09Z</time>
      </trkpt>
      <trkpt lat="44.2983810" lon="7.1292240">
        <ele>931.4</ele>
        <time>2017-07-23T11:12:11Z</time>
      </trkpt>
      <trkpt lat="44.2984480" lon="7.1289710">
        <ele>931.6</ele>
        <time>2017-07-23T11:12:15Z</time>
      </trkpt>
      <trkpt lat="44.2984710" lon="7.1288590">
        <ele>932.4</ele>
        <time>2017-07-23T11:12:17Z</time>
      </trkpt>
      <trkpt lat="44.2984770" lon="7.1286930">
        <ele>933.4</ele>
        <time>2017-07-23T11:12:20Z</time>
      </trkpt>
      <trkpt lat="44.2984690" lon="7.1286320">
        <ele>933.8</ele>
        <time>2017-07-23T11:12:21Z</time>
      </trkpt>
      <trkpt lat="44.2984450" lon="7.1285160">
        <ele>934.4</ele>
        <time>2017-07-23T11:12:23Z</time>
      </trkpt>
      <trkpt lat="44.2984190" lon="7.1283910">
        <ele>933.4</ele>
        <time>2017-07-23T11:12:25Z</time>
      </trkpt>
      <trkpt lat="44.2984030" lon="7.1282650">
        <ele>935.2</ele>
        <time>2017-07-23T11:12:27Z</time>
      </trkpt>
      <trkpt lat="44.2983980" lon="7.1281360">
        <ele>936.4</ele>
        <time>2017-07-23T11:12:29Z</time>
      </trkpt>
      <trkpt lat="44.2984050" lon="7.1280760">
        <ele>936.2</ele>
        <time>2017-07-23T11:12:30Z</time>
      </trkpt>
      <trkpt lat="44.2984200" lon="7.1280170">
        <ele>936.4</ele>
        <time>2017-07-23T11:12:31Z</time>
      </trkpt>
      <trkpt lat="44.2984350" lon="7.1279530">
        <ele>937.6</ele>
        <time>2017-07-23T11:12:32Z</time>
      </trkpt>
      <trkpt lat="44.2984810" lon="7.1277620">
        <ele>938.4</ele>
        <time>2017-07-23T11:12:35Z</time>
      </trkpt>
      <trkpt lat="44.2984900" lon="7.1276880">
        <ele>938.6</ele>
        <time>2017-07-23T11:12:36Z</time>
      </trkpt>
      <trkpt lat="44.2985160" lon="7.1275350">
        <ele>939.0</ele>
        <time>2017-07-23T11:12:38Z</time>
      </trkpt>
      <trkpt lat="44.2985370" lon="7.1274610">
        <ele>939.2</ele>
        <time>2017-07-23T11:12:39Z</time>
      </trkpt>
      <trkpt lat="44.2986060" lon="7.1272530">
        <ele>939.6</ele>
        <time>2017-07-23T11:12:42Z</time>
      </trkpt>
      <trkpt lat="44.2986650" lon="7.1271190">
        <ele>939.6</ele>
        <time>2017-07-23T11:12:44Z</time>
      </trkpt>
      <trkpt lat="44.2987000" lon="7.1270650">
        <ele>939.8</ele>
        <time>2017-07-23T11:12:45Z</time>
      </trkpt>
      <trkpt lat="44.2988090" lon="7.1269150">
        <ele>940.2</ele>
        <time>2017-07-23T11:12:48Z</time>
      </trkpt>
      <trkpt lat="44.2988760" lon="7.1268410">
        <ele>940.8</ele>
        <time>2017-07-23T11:12:50Z</time>
      </trkpt>
      <trkpt lat="44.2990280" lon="7.1266770">
        <ele>941.6</ele>
        <time>2017-07-23T11:12:54Z</time>
      </trkpt>
      <trkpt lat="44.2990670" lon="7.1266370">
        <ele>941.8</ele>
        <time>2017-07-23T11:12:55Z</time>
      </trkpt>
      <trkpt lat="44.2993050" lon="7.1264350">
        <ele>942.8</ele>
        <time>2017-07-23T11:13:01Z</time>
      </trkpt>
      <trkpt lat="44.2993450" lon="7.1264140">
        <ele>943.0</ele>
        <time>2017-07-23T11:13:02Z</time>
      </trkpt>
      <trkpt lat="44.2994810" lon="7.1263790">
        <ele>944.2</ele>
        <time>2017-07-23T11:13:06Z</time>
      </trkpt>
      <trkpt lat="44.2995920" lon="7.1262750">
        <ele>945.4</ele>
        <time>2017-07-23T11:13:10Z</time>
      </trkpt>
      <trkpt lat="44.2996050" lon="7.1262360">
        <ele>945.6</ele>
        <time>2017-07-23T11:13:11Z</time>
      </trkpt>
      <trkpt lat="44.2996550" lon="7.1260530">
        <ele>946.4</ele>
        <time>2017-07-23T11:13:16Z</time>
      </trkpt>
      <trkpt lat="44.2996660" lon="7.1259700">
        <ele>946.6</ele>
        <time>2017-07-23T11:13:18Z</time>
      </trkpt>
      <trkpt lat="44.2997670" lon="7.1256530">
        <ele>946.4</ele>
        <time>2017-07-23T11:13:25Z</time>
      </trkpt>
      <trkpt lat="44.2998540" lon="7.1252930">
        <ele>947.4</ele>
        <time>2017-07-23T11:13:32Z</time>
      </trkpt>
      <trkpt lat="44.2998350" lon="7.1249680">
        <ele>947.0</ele>
        <time>2017-07-23T11:13:38Z</time>
      </trkpt>
      <trkpt lat="44.2996970" lon="7.1246030">
        <ele>946.4</ele>
        <time>2017-07-23T11:13:43Z</time>
      </trkpt>
      <trkpt lat="44.2995560" lon="7.1241900">
        <ele>945.6</ele>
        <time>2017-07-23T11:13:50Z</time>
      </trkpt>
      <trkpt lat="44.2995300" lon="7.1240630">
        <ele>945.2</ele>
        <time>2017-07-23T11:13:52Z</time>
      </trkpt>
      <trkpt lat="44.2994840" lon="7.1238520">
        <ele>944.4</ele>
        <time>2017-07-23T11:13:55Z</time>
      </trkpt>
      <trkpt lat="44.2994680" lon="7.1237770">
        <ele>944.2</ele>
        <time>2017-07-23T11:13:56Z</time>
      </trkpt>
      <trkpt lat="44.2994290" lon="7.1234700">
        <ele>944.4</ele>
        <time>2017-07-23T11:14:00Z</time>
      </trkpt>
      <trkpt lat="44.2994300" lon="7.1233190">
        <ele>944.4</ele>
        <time>2017-07-23T11:14:02Z</time>
      </trkpt>
      <trkpt lat="44.2994540" lon="7.1229550">
        <ele>945.8</ele>
        <time>2017-07-23T11:14:07Z</time>
      </trkpt>
      <trkpt lat="44.2994570" lon="7.1228840">
        <ele>946.2</ele>
        <time>2017-07-23T11:14:08Z</time>
      </trkpt>
      <trkpt lat="44.2994680" lon="7.1228180">
        <ele>946.6</ele>
        <time>2017-07-23T11:14:09Z</time>
      </trkpt>
      <trkpt lat="44.2994840" lon="7.1227550">
        <ele>947.0</ele>
        <time>2017-07-23T11:14:10Z</time>
      </trkpt>
      <trkpt lat="44.2995410" lon="7.1225970">
        <ele>948.2</ele>
        <time>2017-07-23T11:14:13Z</time>
      </trkpt>
      <trkpt lat="44.2996050" lon="7.1224620">
        <ele>949.4</ele>
        <time>2017-07-23T11:14:16Z</time>
      </trkpt>
      <trkpt lat="44.2996800" lon="7.1223510">
        <ele>950.0</ele>
        <time>2017-07-23T11:14:19Z</time>
      </trkpt>
      <trkpt lat="44.2997050" lon="7.1223100">
        <ele>945.6</ele>
        <time>2017-07-23T11:14:20Z</time>
      </trkpt>
      <trkpt lat="44.2997270" lon="7.1222700">
        <ele>938.2</ele>
        <time>2017-07-23T11:14:21Z</time>
      </trkpt>
      <trkpt lat="44.2997680" lon="7.1221840">
        <ele>943.2</ele>
        <time>2017-07-23T11:14:23Z</time>
      </trkpt>
      <trkpt lat="44.2997880" lon="7.1221390">
        <ele>950.8</ele>
        <time>2017-07-23T11:14:24Z</time>
      </trkpt>
      <trkpt lat="44.2998250" lon="7.1220430">
        <ele>950.8</ele>
        <time>2017-07-23T11:14:26Z</time>
      </trkpt>
      <trkpt lat="44.2999520" lon="7.1217180">
        <ele>951.0</ele>
        <time>2017-07-23T11:14:33Z</time>
      </trkpt>
      <trkpt lat="44.3000570" lon="7.1214840">
        <ele>952.0</ele>
        <time>2017-07-23T11:14:38Z</time>
      </trkpt>
      <trkpt lat="44.3001270" lon="7.1213470">
        <ele>953.2</ele>
        <time>2017-07-23T11:14:41Z</time>
      </trkpt>
      <trkpt lat="44.3001590" lon="7.1213040">
        <ele>953.6</ele>
        <time>2017-07-23T11:14:42Z</time>
      </trkpt>
      <trkpt lat="44.3002260" lon="7.1212390">
        <ele>954.4</ele>
        <time>2017-07-23T11:14:44Z</time>
      </trkpt>
      <trkpt lat="44.3003040" lon="7.1211920">
        <ele>955.2</ele>
        <time>2017-07-23T11:14:46Z</time>
      </trkpt>
      <trkpt lat="44.3003440" lon="7.1211760">
        <ele>955.8</ele>
        <time>2017-07-23T11:14:47Z</time>
      </trkpt>
      <trkpt lat="44.3003790" lon="7.1211570">
        <ele>956.0</ele>
        <time>2017-07-23T11:14:48Z</time>
      </trkpt>
      <trkpt lat="44.3004950" lon="7.1211080">
        <ele>957.0</ele>
        <time>2017-07-23T11:14:51Z</time>
      </trkpt>
      <trkpt lat="44.3005340" lon="7.1210800">
        <ele>957.4</ele>
        <time>2017-07-23T11:14:52Z</time>
      </trkpt>
      <trkpt lat="44.3005730" lon="7.1210410">
        <ele>957.8</ele>
        <time>2017-07-23T11:14:53Z</time>
      </trkpt>
      <trkpt lat="44.3006470" lon="7.1209530">
        <ele>958.6</ele>
        <time>2017-07-23T11:14:55Z</time>
      </trkpt>
      <trkpt lat="44.3007060" lon="7.1208330">
        <ele>959.2</ele>
        <time>2017-07-23T11:14:57Z</time>
      </trkpt>
      <trkpt lat="44.3008010" lon="7.1206350">
        <ele>959.8</ele>
        <time>2017-07-23T11:15:00Z</time>
      </trkpt>
      <trkpt lat="44.3009360" lon="7.1203740">
        <ele>960.4</ele>
        <time>2017-07-23T11:15:04Z</time>
      </trkpt>
      <trkpt lat="44.3009510" lon="7.1202900">
        <ele>960.6</ele>
        <time>2017-07-23T11:15:05Z</time>
      </trkpt>
      <trkpt lat="44.3009700" lon="7.1202210">
        <ele>961.0</ele>
        <time>2017-07-23T11:15:06Z</time>
      </trkpt>
      <trkpt lat="44.3009660" lon="7.1201310">
        <ele>961.2</ele>
        <time>2017-07-23T11:15:07Z</time>
      </trkpt>
      <trkpt lat="44.3009550" lon="7.1200440">
        <ele>961.4</ele>
        <time>2017-07-23T11:15:08Z</time>
      </trkpt>
      <trkpt lat="44.3009250" lon="7.1198930">
        <ele>962.0</ele>
        <time>2017-07-23T11:15:10Z</time>
      </trkpt>
      <trkpt lat="44.3008790" lon="7.1197560">
        <ele>962.4</ele>
        <time>2017-07-23T11:15:12Z</time>
      </trkpt>
      <trkpt lat="44.3008560" lon="7.1196880">
        <ele>962.4</ele>
        <time>2017-07-23T11:15:13Z</time>
      </trkpt>
      <trkpt lat="44.3008210" lon="7.1195460">
        <ele>962.8</ele>
        <time>2017-07-23T11:15:15Z</time>
      </trkpt>
      <trkpt lat="44.3008140" lon="7.1194730">
        <ele>963.0</ele>
        <time>2017-07-23T11:15:16Z</time>
      </trkpt>
      <trkpt lat="44.3008140" lon="7.1193250">
        <ele>963.4</ele>
        <time>2017-07-23T11:15:18Z</time>
      </trkpt>
      <trkpt lat="44.3008110" lon="7.1191240">
        <ele>963.6</ele>
        <time>2017-07-23T11:15:21Z</time>
      </trkpt>
      <trkpt lat="44.3007860" lon="7.1189970">
        <ele>963.6</ele>
        <time>2017-07-23T11:15:23Z</time>
      </trkpt>
      <trkpt lat="44.3007560" lon="7.1188030">
        <ele>964.2</ele>
        <time>2017-07-23T11:15:26Z</time>
      </trkpt>
      <trkpt lat="44.3007450" lon="7.1185970">
        <ele>964.4</ele>
        <time>2017-07-23T11:15:29Z</time>
      </trkpt>
      <trkpt lat="44.3007940" lon="7.1180430">
        <ele>964.6</ele>
        <time>2017-07-23T11:15:37Z</time>
      </trkpt>
      <trkpt lat="44.3008830" lon="7.1177310">
        <ele>965.0</ele>
        <time>2017-07-23T11:15:43Z</time>
      </trkpt>
      <trkpt lat="44.3009300" lon="7.1176570">
        <ele>965.2</ele>
        <time>2017-07-23T11:15:45Z</time>
      </trkpt>
      <trkpt lat="44.3010400" lon="7.1174250">
        <ele>966.0</ele>
        <time>2017-07-23T11:15:50Z</time>
      </trkpt>
      <trkpt lat="44.3011480" lon="7.1170920">
        <ele>964.8</ele>
        <time>2017-07-23T11:15:57Z</time>
      </trkpt>
      <trkpt lat="44.3011440" lon="7.1169330">
        <ele>964.0</ele>
        <time>2017-07-23T11:16:00Z</time>
      </trkpt>
      <trkpt lat="44.3011360" lon="7.1167630">
        <ele>963.4</ele>
        <time>2017-07-23T11:16:03Z</time>
      </trkpt>
      <trkpt lat="44.3011270" lon="7.1166520">
        <ele>963.0</ele>
        <time>2017-07-23T11:16:05Z</time>
      </trkpt>
      <trkpt lat="44.3011300" lon="7.1165970">
        <ele>963.0</ele>
        <time>2017-07-23T11:16:06Z</time>
      </trkpt>
      <trkpt lat="44.3011390" lon="7.1164220">
        <ele>963.2</ele>
        <time>2017-07-23T11:16:09Z</time>
      </trkpt>
      <trkpt lat="44.3011290" lon="7.1163030">
        <ele>962.8</ele>
        <time>2017-07-23T11:16:11Z</time>
      </trkpt>
      <trkpt lat="44.3011120" lon="7.1161200">
        <ele>963.2</ele>
        <time>2017-07-23T11:16:14Z</time>
      </trkpt>
      <trkpt lat="44.3010780" lon="7.1158650">
        <ele>964.0</ele>
        <time>2017-07-23T11:16:18Z</time>
      </trkpt>
      <trkpt lat="44.3010770" lon="7.1157330">
        <ele>964.6</ele>
        <time>2017-07-23T11:16:20Z</time>
      </trkpt>
      <trkpt lat="44.3010840" lon="7.1156610">
        <ele>965.0</ele>
        <time>2017-07-23T11:16:21Z</time>
      </trkpt>
      <trkpt lat="44.3010940" lon="7.1155880">
        <ele>965.4</ele>
        <time>2017-07-23T11:16:22Z</time>
      </trkpt>
      <trkpt lat="44.3011380" lon="7.1153880">
        <ele>966.6</ele>
        <time>2017-07-23T11:16:25Z</time>
      </trkpt>
      <trkpt lat="44.3011810" lon="7.1152760">
        <ele>967.4</ele>
        <time>2017-07-23T11:16:27Z</time>
      </trkpt>
      <trkpt lat="44.3012280" lon="7.1152500">
        <ele>968.0</ele>
        <time>2017-07-23T11:16:28Z</time>
      </trkpt>
      <trkpt lat="44.3013320" lon="7.1151560">
        <ele>969.4</ele>
        <time>2017-07-23T11:16:31Z</time>
      </trkpt>
      <trkpt lat="44.3014050" lon="7.1149740">
        <ele>970.4</ele>
        <time>2017-07-23T11:16:35Z</time>
      </trkpt>
      <trkpt lat="44.3014000" lon="7.1149190">
        <ele>970.6</ele>
        <time>2017-07-23T11:16:36Z</time>
      </trkpt>
      <trkpt lat="44.3013130" lon="7.1146680">
        <ele>971.4</ele>
        <time>2017-07-23T11:16:41Z</time>
      </trkpt>
      <trkpt lat="44.3012180" lon="7.1144640">
        <ele>971.6</ele>
        <time>2017-07-23T11:16:45Z</time>
      </trkpt>
      <trkpt lat="44.3011520" lon="7.1143150">
        <ele>972.4</ele>
        <time>2017-07-23T11:16:48Z</time>
      </trkpt>
      <trkpt lat="44.3011370" lon="7.1142700">
        <ele>972.6</ele>
        <time>2017-07-23T11:16:49Z</time>
      </trkpt>
      <trkpt lat="44.3010950" lon="7.1140720">
        <ele>973.8</ele>
        <time>2017-07-23T11:16:53Z</time>
      </trkpt>
      <trkpt lat="44.3011110" lon="7.1140100">
        <ele>973.8</ele>
        <time>2017-07-23T11:16:54Z</time>
      </trkpt>
      <trkpt lat="44.3011240" lon="7.1139470">
        <ele>973.6</ele>
        <time>2017-07-23T11:16:55Z</time>
      </trkpt>
      <trkpt lat="44.3011630" lon="7.1138210">
        <ele>973.4</ele>
        <time>2017-07-23T11:16:57Z</time>
      </trkpt>
      <trkpt lat="44.3012080" lon="7.1137030">
        <ele>973.0</ele>
        <time>2017-07-23T11:16:59Z</time>
      </trkpt>
      <trkpt lat="44.3012910" lon="7.1135560">
        <ele>972.8</ele>
        <time>2017-07-23T11:17:02Z</time>
      </trkpt>
      <trkpt lat="44.3013260" lon="7.1135270">
        <ele>972.8</ele>
        <time>2017-07-23T11:17:03Z</time>
      </trkpt>
      <trkpt lat="44.3014850" lon="7.1134340">
        <ele>973.0</ele>
        <time>2017-07-23T11:17:07Z</time>
      </trkpt>
      <trkpt lat="44.3015160" lon="7.1133940">
        <ele>973.0</ele>
        <time>2017-07-23T11:17:08Z</time>
      </trkpt>
      <trkpt lat="44.3015550" lon="7.1132510">
        <ele>972.8</ele>
        <time>2017-07-23T11:17:11Z</time>
      </trkpt>
      <trkpt lat="44.3015830" lon="7.1130440">
        <ele>973.8</ele>
        <time>2017-07-23T11:17:15Z</time>
      </trkpt>
      <trkpt lat="44.3016140" lon="7.1129490">
        <ele>974.0</ele>
        <time>2017-07-23T11:17:17Z</time>
      </trkpt>
      <trkpt lat="44.3017420" lon="7.1127840">
        <ele>973.8</ele>
        <time>2017-07-23T11:17:22Z</time>
      </trkpt>
      <trkpt lat="44.3019350" lon="7.1125470">
        <ele>973.6</ele>
        <time>2017-07-23T11:17:30Z</time>
      </trkpt>
      <trkpt lat="44.3020830" lon="7.1123240">
        <ele>975.0</ele>
        <time>2017-07-23T11:17:37Z</time>
      </trkpt>
      <trkpt lat="44.3021280" lon="7.1122660">
        <ele>976.0</ele>
        <time>2017-07-23T11:17:39Z</time>
      </trkpt>
      <trkpt lat="44.3022000" lon="7.1121800">
        <ele>977.2</ele>
        <time>2017-07-23T11:17:42Z</time>
      </trkpt>
      <trkpt lat="44.3022480" lon="7.1121210">
        <ele>978.4</ele>
        <time>2017-07-23T11:17:44Z</time>
      </trkpt>
      <trkpt lat="44.3022730" lon="7.1120930">
        <ele>978.6</ele>
        <time>2017-07-23T11:17:45Z</time>
      </trkpt>
      <trkpt lat="44.3023510" lon="7.1120200">
        <ele>979.4</ele>
        <time>2017-07-23T11:17:48Z</time>
      </trkpt>
      <trkpt lat="44.3024350" lon="7.1119300">
        <ele>980.4</ele>
        <time>2017-07-23T11:17:51Z</time>
      </trkpt>
      <trkpt lat="44.3024870" lon="7.1118660">
        <ele>981.4</ele>
        <time>2017-07-23T11:17:53Z</time>
      </trkpt>
      <trkpt lat="44.3025100" lon="7.1118320">
        <ele>981.8</ele>
        <time>2017-07-23T11:17:54Z</time>
      </trkpt>
      <trkpt lat="44.3026040" lon="7.1117060">
        <ele>983.2</ele>
        <time>2017-07-23T11:17:58Z</time>
      </trkpt>
      <trkpt lat="44.3027150" lon="7.1115760">
        <ele>984.2</ele>
        <time>2017-07-23T11:18:02Z</time>
      </trkpt>
      <trkpt lat="44.3027570" lon="7.1115070">
        <ele>984.2</ele>
        <time>2017-07-23T11:18:04Z</time>
      </trkpt>
      <trkpt lat="44.3029340" lon="7.1113200">
        <ele>985.2</ele>
        <time>2017-07-23T11:18:11Z</time>
      </trkpt>
      <trkpt lat="44.3030380" lon="7.1112170">
        <ele>986.6</ele>
        <time>2017-07-23T11:18:15Z</time>
      </trkpt>
      <trkpt lat="44.3031170" lon="7.1111560">
        <ele>987.8</ele>
        <time>2017-07-23T11:18:18Z</time>
      </trkpt>
      <trkpt lat="44.3032360" lon="7.1110840">
        <ele>989.2</ele>
        <time>2017-07-23T11:18:22Z</time>
      </trkpt>
      <trkpt lat="44.3033260" lon="7.1110420">
        <ele>990.2</ele>
        <time>2017-07-23T11:18:25Z</time>
      </trkpt>
      <trkpt lat="44.3033560" lon="7.1110260">
        <ele>990.6</ele>
        <time>2017-07-23T11:18:26Z</time>
      </trkpt>
      <trkpt lat="44.3034100" lon="7.1109860">
        <ele>991.6</ele>
        <time>2017-07-23T11:18:28Z</time>
      </trkpt>
      <trkpt lat="44.3034940" lon="7.1109310">
        <ele>993.0</ele>
        <time>2017-07-23T11:18:31Z</time>
      </trkpt>
      <trkpt lat="44.3035500" lon="7.1108860">
        <ele>994.0</ele>
        <time>2017-07-23T11:18:33Z</time>
      </trkpt>
      <trkpt lat="44.3035790" lon="7.1108570">
        <ele>994.4</ele>
        <time>2017-07-23T11:18:34Z</time>
      </trkpt>
      <trkpt lat="44.3036590" lon="7.1107800">
        <ele>995.6</ele>
        <time>2017-07-23T11:18:37Z</time>
      </trkpt>
      <trkpt lat="44.3037350" lon="7.1107010">
        <ele>996.8</ele>
        <time>2017-07-23T11:18:40Z</time>
      </trkpt>
      <trkpt lat="44.3038020" lon="7.1106170">
        <ele>997.8</ele>
        <time>2017-07-23T11:18:43Z</time>
      </trkpt>
      <trkpt lat="44.3038630" lon="7.1105360">
        <ele>999.0</ele>
        <time>2017-07-23T11:18:46Z</time>
      </trkpt>
      <trkpt lat="44.3039200" lon="7.1104410">
        <ele>999.6</ele>
        <time>2017-07-23T11:18:49Z</time>
      </trkpt>
      <trkpt lat="44.3040750" lon="7.1102150">
        <ele>999.2</ele>
        <time>2017-07-23T11:18:57Z</time>
      </trkpt>
      <trkpt lat="44.3042440" lon="7.1099570">
        <ele>998.2</ele>
        <time>2017-07-23T11:19:06Z</time>
      </trkpt>
      <trkpt lat="44.3043920" lon="7.1097690">
        <ele>998.6</ele>
        <time>2017-07-23T11:19:14Z</time>
      </trkpt>
      <trkpt lat="44.3045140" lon="7.1096450">
        <ele>1000.0</ele>
        <time>2017-07-23T11:19:20Z</time>
      </trkpt>
      <trkpt lat="44.3045920" lon="7.1095520">
        <ele>1000.8</ele>
        <time>2017-07-23T11:19:24Z</time>
      </trkpt>
      <trkpt lat="44.3046120" lon="7.1095290">
        <ele>1001.2</ele>
        <time>2017-07-23T11:19:25Z</time>
      </trkpt>
      <trkpt lat="44.3047380" lon="7.1094050">
        <ele>1002.4</ele>
        <time>2017-07-23T11:19:31Z</time>
      </trkpt>
      <trkpt lat="44.3047940" lon="7.1093370">
        <ele>1003.2</ele>
        <time>2017-07-23T11:19:34Z</time>
      </trkpt>
      <trkpt lat="44.3048120" lon="7.1093110">
        <ele>1003.6</ele>
        <time>2017-07-23T11:19:35Z</time>
      </trkpt>
      <trkpt lat="44.3049220" lon="7.1091300">
        <ele>1004.2</ele>
        <time>2017-07-23T11:19:42Z</time>
      </trkpt>
      <trkpt lat="44.3049370" lon="7.1091040">
        <ele>1004.6</ele>
        <time>2017-07-23T11:19:43Z</time>
      </trkpt>
      <trkpt lat="44.3050180" lon="7.1089730">
        <ele>1005.8</ele>
        <time>2017-07-23T11:19:48Z</time>
      </trkpt>
      <trkpt lat="44.3050500" lon="7.1089220">
        <ele>1006.8</ele>
        <time>2017-07-23T11:19:50Z</time>
      </trkpt>
      <trkpt lat="44.3050670" lon="7.1088970">
        <ele>1006.8</ele>
        <time>2017-07-23T11:19:51Z</time>
      </trkpt>
      <trkpt lat="44.3051920" lon="7.1086760">
        <ele>1007.4</ele>
        <time>2017-07-23T11:19:59Z</time>
      </trkpt>
      <trkpt lat="44.3052420" lon="7.1085960">
        <ele>1008.0</ele>
        <time>2017-07-23T11:20:02Z</time>
      </trkpt>
      <trkpt lat="44.3053400" lon="7.1084980">
        <ele>1009.2</ele>
        <time>2017-07-23T11:20:07Z</time>
      </trkpt>
      <trkpt lat="44.3054980" lon="7.1083410">
        <ele>1010.2</ele>
        <time>2017-07-23T11:20:15Z</time>
      </trkpt>
      <trkpt lat="44.3055150" lon="7.1083160">
        <ele>1010.4</ele>
        <time>2017-07-23T11:20:16Z</time>
      </trkpt>
      <trkpt lat="44.3056040" lon="7.1082530">
        <ele>1011.6</ele>
        <time>2017-07-23T11:20:20Z</time>
      </trkpt>
      <trkpt lat="44.3056570" lon="7.1082260">
        <ele>1012.2</ele>
        <time>2017-07-23T11:20:22Z</time>
      </trkpt>
      <trkpt lat="44.3056840" lon="7.1082150">
        <ele>1012.6</ele>
        <time>2017-07-23T11:20:23Z</time>
      </trkpt>
      <trkpt lat="44.3057600" lon="7.1081850">
        <ele>1013.8</ele>
        <time>2017-07-23T11:20:26Z</time>
      </trkpt>
      <trkpt lat="44.3058410" lon="7.1081640">
        <ele>1014.8</ele>
        <time>2017-07-23T11:20:29Z</time>
      </trkpt>
      <trkpt lat="44.3058950" lon="7.1081460">
        <ele>1016.2</ele>
        <time>2017-07-23T11:20:31Z</time>
      </trkpt>
      <trkpt lat="44.3059530" lon="7.1081210">
        <ele>1017.4</ele>
        <time>2017-07-23T11:20:33Z</time>
      </trkpt>
      <trkpt lat="44.3060340" lon="7.1080700">
        <ele>1018.6</ele>
        <time>2017-07-23T11:20:36Z</time>
      </trkpt>
      <trkpt lat="44.3060850" lon="7.1080350">
        <ele>1019.8</ele>
        <time>2017-07-23T11:20:38Z</time>
      </trkpt>
      <trkpt lat="44.3061130" lon="7.1080170">
        <ele>1020.2</ele>
        <time>2017-07-23T11:20:39Z</time>
      </trkpt>
      <trkpt lat="44.3061750" lon="7.1079800">
        <ele>1021.2</ele>
        <time>2017-07-23T11:20:41Z</time>
      </trkpt>
      <trkpt lat="44.3062910" lon="7.1078970">
        <ele>1022.4</ele>
        <time>2017-07-23T11:20:45Z</time>
      </trkpt>
      <trkpt lat="44.3063430" lon="7.1078550">
        <ele>1023.0</ele>
        <time>2017-07-23T11:20:47Z</time>
      </trkpt>
      <trkpt lat="44.3063930" lon="7.1078030">
        <ele>1023.6</ele>
        <time>2017-07-23T11:20:49Z</time>
      </trkpt>
      <trkpt lat="44.3064940" lon="7.1076440">
        <ele>1024.2</ele>
        <time>2017-07-23T11:20:54Z</time>
      </trkpt>
      <trkpt lat="44.3065120" lon="7.1076070">
        <ele>1024.8</ele>
        <time>2017-07-23T11:20:55Z</time>
      </trkpt>
      <trkpt lat="44.3066240" lon="7.1074130">
        <ele>1026.0</ele>
        <time>2017-07-23T11:21:01Z</time>
      </trkpt>
      <trkpt lat="44.3066570" lon="7.1073470">
        <ele>1026.0</ele>
        <time>2017-07-23T11:21:03Z</time>
      </trkpt>
      <trkpt lat="44.3067370" lon="7.1071830">
        <ele>1027.2</ele>
        <time>2017-07-23T11:21:08Z</time>
      </trkpt>
      <trkpt lat="44.3067730" lon="7.1071130">
        <ele>1027.8</ele>
        <time>2017-07-23T11:21:10Z</time>
      </trkpt>
      <trkpt lat="44.3068060" lon="7.1070430">
        <ele>1028.2</ele>
        <time>2017-07-23T11:21:12Z</time>
      </trkpt>
      <trkpt lat="44.3068520" lon="7.1069440">
        <ele>1029.8</ele>
        <time>2017-07-23T11:21:15Z</time>
      </trkpt>
      <trkpt lat="44.3069000" lon="7.1068500">
        <ele>1031.0</ele>
        <time>2017-07-23T11:21:18Z</time>
      </trkpt>
      <trkpt lat="44.3069260" lon="7.1067900">
        <ele>1032.2</ele>
        <time>2017-07-23T11:21:20Z</time>
      </trkpt>
      <trkpt lat="44.3069790" lon="7.1067000">
        <ele>1033.6</ele>
        <time>2017-07-23T11:21:23Z</time>
      </trkpt>
      <trkpt lat="44.3070460" lon="7.1066020">
        <ele>1034.6</ele>
        <time>2017-07-23T11:21:26Z</time>
      </trkpt>
      <trkpt lat="44.3070680" lon="7.1065650">
        <ele>1034.8</ele>
        <time>2017-07-23T11:21:27Z</time>
      </trkpt>
      <trkpt lat="44.3071450" lon="7.1064000">
        <ele>1036.0</ele>
        <time>2017-07-23T11:21:31Z</time>
      </trkpt>
      <trkpt lat="44.3071950" lon="7.1062870">
        <ele>1036.4</ele>
        <time>2017-07-23T11:21:34Z</time>
      </trkpt>
      <trkpt lat="44.3072720" lon="7.1062180">
        <ele>1037.0</ele>
        <time>2017-07-23T11:21:37Z</time>
      </trkpt>
      <trkpt lat="44.3073230" lon="7.1061770">
        <ele>1037.6</ele>
        <time>2017-07-23T11:21:39Z</time>
      </trkpt>
      <trkpt lat="44.3073780" lon="7.1061380">
        <ele>1038.2</ele>
        <time>2017-07-23T11:21:41Z</time>
      </trkpt>
      <trkpt lat="44.3075230" lon="7.1059970">
        <ele>1039.2</ele>
        <time>2017-07-23T11:21:46Z</time>
      </trkpt>
      <trkpt lat="44.3075550" lon="7.1059650">
        <ele>1039.2</ele>
        <time>2017-07-23T11:21:47Z</time>
      </trkpt>
      <trkpt lat="44.3076830" lon="7.1058100">
        <ele>1040.4</ele>
        <time>2017-07-23T11:21:52Z</time>
      </trkpt>
      <trkpt lat="44.3077330" lon="7.1057290">
        <ele>1041.0</ele>
        <time>2017-07-23T11:21:54Z</time>
      </trkpt>
      <trkpt lat="44.3077740" lon="7.1056540">
        <ele>1041.8</ele>
        <time>2017-07-23T11:21:56Z</time>
      </trkpt>
      <trkpt lat="44.3078690" lon="7.1055060">
        <ele>1041.8</ele>
        <time>2017-07-23T11:22:00Z</time>
      </trkpt>
      <trkpt lat="44.3080450" lon="7.1052820">
        <ele>1042.0</ele>
        <time>2017-07-23T11:22:07Z</time>
      </trkpt>
      <trkpt lat="44.3081550" lon="7.1051530">
        <ele>1042.8</ele>
        <time>2017-07-23T11:22:11Z</time>
      </trkpt>
      <trkpt lat="44.3082760" lon="7.1050290">
        <ele>1043.4</ele>
        <time>2017-07-23T11:22:15Z</time>
      </trkpt>
      <trkpt lat="44.3083070" lon="7.1049980">
        <ele>1041.0</ele>
        <time>2017-07-23T11:22:16Z</time>
      </trkpt>
      <trkpt lat="44.3083380" lon="7.1049630">
        <ele>1036.4</ele>
        <time>2017-07-23T11:22:17Z</time>
      </trkpt>
      <trkpt lat="44.3083680" lon="7.1049270">
        <ele>1033.2</ele>
        <time>2017-07-23T11:22:18Z</time>
      </trkpt>
      <trkpt lat="44.3083970" lon="7.1048920">
        <ele>1036.2</ele>
        <time>2017-07-23T11:22:19Z</time>
      </trkpt>
      <trkpt lat="44.3084270" lon="7.1048620">
        <ele>1041.4</ele>
        <time>2017-07-23T11:22:20Z</time>
      </trkpt>
      <trkpt lat="44.3084610" lon="7.1048340">
        <ele>1045.6</ele>
        <time>2017-07-23T11:22:21Z</time>
      </trkpt>
      <trkpt lat="44.3085340" lon="7.1047780">
        <ele>1046.0</ele>
        <time>2017-07-23T11:22:23Z</time>
      </trkpt>
      <trkpt lat="44.3086420" lon="7.1046710">
        <ele>1046.8</ele>
        <time>2017-07-23T11:22:26Z</time>
      </trkpt>
      <trkpt lat="44.3088070" lon="7.1044760">
        <ele>1047.6</ele>
        <time>2017-07-23T11:22:31Z</time>
      </trkpt>
      <trkpt lat="44.3088440" lon="7.1044390">
        <ele>1047.8</ele>
        <time>2017-07-23T11:22:32Z</time>
      </trkpt>
      <trkpt lat="44.3090540" lon="7.1042220">
        <ele>1048.6</ele>
        <time>2017-07-23T11:22:38Z</time>
      </trkpt>
      <trkpt lat="44.3091310" lon="7.1041400">
        <ele>1048.8</ele>
        <time>2017-07-23T11:22:40Z</time>
      </trkpt>
      <trkpt lat="44.3093130" lon="7.1039550">
        <ele>1049.2</ele>
        <time>2017-07-23T11:22:45Z</time>
      </trkpt>
      <trkpt lat="44.3094760" lon="7.1038550">
        <ele>1050.0</ele>
        <time>2017-07-23T11:22:49Z</time>
      </trkpt>
      <trkpt lat="44.3095140" lon="7.1038170">
        <ele>1050.0</ele>
        <time>2017-07-23T11:22:50Z</time>
      </trkpt>
      <trkpt lat="44.3095510" lon="7.1037720">
        <ele>1050.2</ele>
        <time>2017-07-23T11:22:51Z</time>
      </trkpt>
      <trkpt lat="44.3096530" lon="7.1036260">
        <ele>1050.0</ele>
        <time>2017-07-23T11:22:54Z</time>
      </trkpt>
      <trkpt lat="44.3097920" lon="7.1034420">
        <ele>1050.8</ele>
        <time>2017-07-23T11:22:58Z</time>
      </trkpt>
      <trkpt lat="44.3098540" lon="7.1033480">
        <ele>1051.0</ele>
        <time>2017-07-23T11:23:00Z</time>
      </trkpt>
      <trkpt lat="44.3099290" lon="7.1031410">
        <ele>1051.6</ele>
        <time>2017-07-23T11:23:04Z</time>
      </trkpt>
      <trkpt lat="44.3099980" lon="7.1030010">
        <ele>1052.2</ele>
        <time>2017-07-23T11:23:07Z</time>
      </trkpt>
      <trkpt lat="44.3100810" lon="7.1028840">
        <ele>1052.6</ele>
        <time>2017-07-23T11:23:10Z</time>
      </trkpt>
      <trkpt lat="44.3101620" lon="7.1027950">
        <ele>1053.2</ele>
        <time>2017-07-23T11:23:13Z</time>
      </trkpt>
      <trkpt lat="44.3102470" lon="7.1027170">
        <ele>1053.4</ele>
        <time>2017-07-23T11:23:16Z</time>
      </trkpt>
      <trkpt lat="44.3104310" lon="7.1025050">
        <ele>1053.6</ele>
        <time>2017-07-23T11:23:23Z</time>
      </trkpt>
      <trkpt lat="44.3105780" lon="7.1022110">
        <ele>1053.2</ele>
        <time>2017-07-23T11:23:31Z</time>
      </trkpt>
      <trkpt lat="44.3107180" lon="7.1020970">
        <ele>1054.0</ele>
        <time>2017-07-23T11:23:37Z</time>
      </trkpt>
      <trkpt lat="44.3107690" lon="7.1020800">
        <ele>1054.4</ele>
        <time>2017-07-23T11:23:39Z</time>
      </trkpt>
      <trkpt lat="44.3108680" lon="7.1020280">
        <ele>1055.4</ele>
        <time>2017-07-23T11:23:43Z</time>
      </trkpt>
      <trkpt lat="44.3109500" lon="7.1020080">
        <ele>1056.2</ele>
        <time>2017-07-23T11:23:46Z</time>
      </trkpt>
      <trkpt lat="44.3109740" lon="7.1019930">
        <ele>1056.6</ele>
        <time>2017-07-23T11:23:47Z</time>
      </trkpt>
      <trkpt lat="44.3110890" lon="7.1019170">
        <ele>1057.6</ele>
        <time>2017-07-23T11:23:52Z</time>
      </trkpt>
      <trkpt lat="44.3111110" lon="7.1019020">
        <ele>1057.8</ele>
        <time>2017-07-23T11:23:53Z</time>
      </trkpt>
      <trkpt lat="44.3111830" lon="7.1018580">
        <ele>1058.8</ele>
        <time>2017-07-23T11:23:56Z</time>
      </trkpt>
      <trkpt lat="44.3112850" lon="7.1018020">
        <ele>1059.8</ele>
        <time>2017-07-23T11:24:01Z</time>
      </trkpt>
      <trkpt lat="44.3113920" lon="7.1017510">
        <ele>1061.2</ele>
        <time>2017-07-23T11:24:06Z</time>
      </trkpt>
      <trkpt lat="44.3114510" lon="7.1016980">
        <ele>1061.8</ele>
        <time>2017-07-23T11:24:09Z</time>
      </trkpt>
      <trkpt lat="44.3114690" lon="7.1016830">
        <ele>1062.2</ele>
        <time>2017-07-23T11:24:10Z</time>
      </trkpt>
      <trkpt lat="44.3115840" lon="7.1015570">
        <ele>1063.4</ele>
        <time>2017-07-23T11:24:17Z</time>
      </trkpt>
      <trkpt lat="44.3116550" lon="7.1014730">
        <ele>1064.6</ele>
        <time>2017-07-23T11:24:21Z</time>
      </trkpt>
      <trkpt lat="44.3117090" lon="7.1014190">
        <ele>1065.0</ele>
        <time>2017-07-23T11:24:24Z</time>
      </trkpt>
      <trkpt lat="44.3117630" lon="7.1013620">
        <ele>1065.8</ele>
        <time>2017-07-23T11:24:27Z</time>
      </trkpt>
      <trkpt lat="44.3118100" lon="7.1013000">
        <ele>1066.8</ele>
        <time>2017-07-23T11:24:30Z</time>
      </trkpt>
      <trkpt lat="44.3118280" lon="7.1012880">
        <ele>1067.6</ele>
        <time>2017-07-23T11:24:31Z</time>
      </trkpt>
      <trkpt lat="44.3118700" lon="7.1012680">
        <ele>1068.2</ele>
        <time>2017-07-23T11:24:33Z</time>
      </trkpt>
      <trkpt lat="44.3119490" lon="7.1012430">
        <ele>1069.4</ele>
        <time>2017-07-23T11:24:37Z</time>
      </trkpt>
      <trkpt lat="44.3120720" lon="7.1012300">
        <ele>1070.6</ele>
        <time>2017-07-23T11:24:43Z</time>
      </trkpt>
      <trkpt lat="44.3121140" lon="7.1012320">
        <ele>1071.2</ele>
        <time>2017-07-23T11:24:45Z</time>
      </trkpt>
      <trkpt lat="44.3121300" lon="7.1012320">
        <ele>1071.6</ele>
        <time>2017-07-23T11:24:46Z</time>
      </trkpt>
      <trkpt lat="44.3121960" lon="7.1012260">
        <ele>1072.8</ele>
        <time>2017-07-23T11:24:49Z</time>
      </trkpt>
      <trkpt lat="44.3122760" lon="7.1012090">
        <ele>1073.8</ele>
        <time>2017-07-23T11:24:53Z</time>
      </trkpt>
      <trkpt lat="44.3123720" lon="7.1011710">
        <ele>1075.0</ele>
        <time>2017-07-23T11:24:57Z</time>
      </trkpt>
      <trkpt lat="44.3124510" lon="7.1011190">
        <ele>1075.2</ele>
        <time>2017-07-23T11:25:01Z</time>
      </trkpt>
      <trkpt lat="44.3125150" lon="7.1010080">
        <ele>1074.8</ele>
        <time>2017-07-23T11:25:06Z</time>
      </trkpt>
      <trkpt lat="44.3125520" lon="7.1008350">
        <ele>1075.0</ele>
        <time>2017-07-23T11:25:13Z</time>
      </trkpt>
      <trkpt lat="44.3125790" lon="7.1007370">
        <ele>1076.2</ele>
        <time>2017-07-23T11:25:17Z</time>
      </trkpt>
      <trkpt lat="44.3126000" lon="7.1006950">
        <ele>1077.2</ele>
        <time>2017-07-23T11:25:19Z</time>
      </trkpt>
      <trkpt lat="44.3126110" lon="7.1006760">
        <ele>1077.6</ele>
        <time>2017-07-23T11:25:20Z</time>
      </trkpt>
      <trkpt lat="44.3126530" lon="7.1006100">
        <ele>1078.6</ele>
        <time>2017-07-23T11:25:24Z</time>
      </trkpt>
      <trkpt lat="44.3126650" lon="7.1005940">
        <ele>1079.0</ele>
        <time>2017-07-23T11:25:25Z</time>
      </trkpt>
      <trkpt lat="44.3127160" lon="7.1005540">
        <ele>1080.0</ele>
        <time>2017-07-23T11:25:28Z</time>
      </trkpt>
      <trkpt lat="44.3127600" lon="7.1004990">
        <ele>1080.4</ele>
        <time>2017-07-23T11:25:31Z</time>
      </trkpt>
      <trkpt lat="44.3128470" lon="7.1003370">
        <ele>1080.6</ele>
        <time>2017-07-23T11:25:39Z</time>
      </trkpt>
      <trkpt lat="44.3128990" lon="7.1002690">
        <ele>1081.2</ele>
        <time>2017-07-23T11:25:43Z</time>
      </trkpt>
      <trkpt lat="44.3129300" lon="7.1002030">
        <ele>1082.4</ele>
        <time>2017-07-23T11:25:46Z</time>
      </trkpt>
      <trkpt lat="44.3129390" lon="7.1001820">
        <ele>1082.8</ele>
        <time>2017-07-23T11:25:47Z</time>
      </trkpt>
      <trkpt lat="44.3129620" lon="7.1001390">
        <ele>1083.6</ele>
        <time>2017-07-23T11:25:49Z</time>
      </trkpt>
      <trkpt lat="44.3130020" lon="7.0999870">
        <ele>1084.6</ele>
        <time>2017-07-23T11:25:55Z</time>
      </trkpt>
      <trkpt lat="44.3130950" lon="7.0998040">
        <ele>1084.4</ele>
        <time>2017-07-23T11:26:03Z</time>
      </trkpt>
      <trkpt lat="44.3132100" lon="7.0996410">
        <ele>1085.0</ele>
        <time>2017-07-23T11:26:11Z</time>
      </trkpt>
      <trkpt lat="44.3133600" lon="7.0994400">
        <ele>1085.6</ele>
        <time>2017-07-23T11:26:19Z</time>
      </trkpt>
      <trkpt lat="44.3133850" lon="7.0994150">
        <ele>1085.8</ele>
        <time>2017-07-23T11:26:20Z</time>
      </trkpt>
      <trkpt lat="44.3135420" lon="7.0992990">
        <ele>1086.8</ele>
        <time>2017-07-23T11:26:25Z</time>
      </trkpt>
      <trkpt lat="44.3136240" lon="7.0992590">
        <ele>1087.6</ele>
        <time>2017-07-23T11:26:27Z</time>
      </trkpt>
      <trkpt lat="44.3136720" lon="7.0992390">
        <ele>1088.0</ele>
        <time>2017-07-23T11:26:28Z</time>
      </trkpt>
      <trkpt lat="44.3137160" lon="7.0992160">
        <ele>1088.4</ele>
        <time>2017-07-23T11:26:29Z</time>
      </trkpt>
      <trkpt lat="44.3137950" lon="7.0991350">
        <ele>1089.0</ele>
        <time>2017-07-23T11:26:31Z</time>
      </trkpt>
      <trkpt lat="44.3138290" lon="7.0990790">
        <ele>1089.2</ele>
        <time>2017-07-23T11:26:32Z</time>
      </trkpt>
      <trkpt lat="44.3138580" lon="7.0990200">
        <ele>1089.2</ele>
        <time>2017-07-23T11:26:33Z</time>
      </trkpt>
      <trkpt lat="44.3139870" lon="7.0987820">
        <ele>1089.4</ele>
        <time>2017-07-23T11:26:37Z</time>
      </trkpt>
      <trkpt lat="44.3140450" lon="7.0986530">
        <ele>1089.4</ele>
        <time>2017-07-23T11:26:39Z</time>
      </trkpt>
      <trkpt lat="44.3141180" lon="7.0984370">
        <ele>1090.0</ele>
        <time>2017-07-23T11:26:42Z</time>
      </trkpt>
      <trkpt lat="44.3142240" lon="7.0981880">
        <ele>1089.4</ele>
        <time>2017-07-23T11:26:46Z</time>
      </trkpt>
      <trkpt lat="44.3143180" lon="7.0979580">
        <ele>1090.2</ele>
        <time>2017-07-23T11:26:50Z</time>
      </trkpt>
      <trkpt lat="44.3143620" lon="7.0978550">
        <ele>1090.6</ele>
        <time>2017-07-23T11:26:52Z</time>
      </trkpt>
      <trkpt lat="44.3143860" lon="7.0978090">
        <ele>1090.8</ele>
        <time>2017-07-23T11:26:53Z</time>
      </trkpt>
      <trkpt lat="44.3144110" lon="7.0977680">
        <ele>1091.2</ele>
        <time>2017-07-23T11:26:54Z</time>
      </trkpt>
      <trkpt lat="44.3145700" lon="7.0975450">
        <ele>1092.0</ele>
        <time>2017-07-23T11:27:00Z</time>
      </trkpt>
      <trkpt lat="44.3146220" lon="7.0974820">
        <ele>1092.4</ele>
        <time>2017-07-23T11:27:02Z</time>
      </trkpt>
      <trkpt lat="44.3147010" lon="7.0973370">
        <ele>1092.4</ele>
        <time>2017-07-23T11:27:06Z</time>
      </trkpt>
      <trkpt lat="44.3147780" lon="7.0970990">
        <ele>1092.6</ele>
        <time>2017-07-23T11:27:12Z</time>
      </trkpt>
      <trkpt lat="44.3148270" lon="7.0969890">
        <ele>1093.0</ele>
        <time>2017-07-23T11:27:15Z</time>
      </trkpt>
      <trkpt lat="44.3148750" lon="7.0968830">
        <ele>1093.4</ele>
        <time>2017-07-23T11:27:18Z</time>
      </trkpt>
      <trkpt lat="44.3149670" lon="7.0966620">
        <ele>1094.0</ele>
        <time>2017-07-23T11:27:24Z</time>
      </trkpt>
      <trkpt lat="44.3150440" lon="7.0964770">
        <ele>1094.6</ele>
        <time>2017-07-23T11:27:29Z</time>
      </trkpt>
      <trkpt lat="44.3150950" lon="7.0963280">
        <ele>1095.0</ele>
        <time>2017-07-23T11:27:33Z</time>
      </trkpt>
      <trkpt lat="44.3151710" lon="7.0961350">
        <ele>1095.6</ele>
        <time>2017-07-23T11:27:38Z</time>
      </trkpt>
      <trkpt lat="44.3152310" lon="7.0959440">
        <ele>1096.2</ele>
        <time>2017-07-23T11:27:43Z</time>
      </trkpt>
      <trkpt lat="44.3152460" lon="7.0959090">
        <ele>1096.6</ele>
        <time>2017-07-23T11:27:44Z</time>
      </trkpt>
      <trkpt lat="44.3153620" lon="7.0957610">
        <ele>1097.0</ele>
        <time>2017-07-23T11:27:49Z</time>
      </trkpt>
      <trkpt lat="44.3154840" lon="7.0956500">
        <ele>1097.6</ele>
        <time>2017-07-23T11:27:54Z</time>
      </trkpt>
      <trkpt lat="44.3155770" lon="7.0955410">
        <ele>1098.4</ele>
        <time>2017-07-23T11:27:58Z</time>
      </trkpt>
      <trkpt lat="44.3156630" lon="7.0954250">
        <ele>1098.8</ele>
        <time>2017-07-23T11:28:02Z</time>
      </trkpt>
      <trkpt lat="44.3157560" lon="7.0953280">
        <ele>1099.2</ele>
        <time>2017-07-23T11:28:06Z</time>
      </trkpt>
      <trkpt lat="44.3158020" lon="7.0952670">
        <ele>1099.8</ele>
        <time>2017-07-23T11:28:08Z</time>
      </trkpt>
      <trkpt lat="44.3159780" lon="7.0950230">
        <ele>1100.8</ele>
        <time>2017-07-23T11:28:15Z</time>
      </trkpt>
      <trkpt lat="44.3160030" lon="7.0949880">
        <ele>1101.0</ele>
        <time>2017-07-23T11:28:16Z</time>
      </trkpt>
      <trkpt lat="44.3161350" lon="7.0948170">
        <ele>1102.0</ele>
        <time>2017-07-23T11:28:21Z</time>
      </trkpt>
      <trkpt lat="44.3162440" lon="7.0946770">
        <ele>1102.4</ele>
        <time>2017-07-23T11:28:25Z</time>
      </trkpt>
      <trkpt lat="44.3163970" lon="7.0944600">
        <ele>1103.2</ele>
        <time>2017-07-23T11:28:31Z</time>
      </trkpt>
      <trkpt lat="44.3164380" lon="7.0943820">
        <ele>1103.4</ele>
        <time>2017-07-23T11:28:33Z</time>
      </trkpt>
      <trkpt lat="44.3165320" lon="7.0941990">
        <ele>1104.4</ele>
        <time>2017-07-23T11:28:38Z</time>
      </trkpt>
      <trkpt lat="44.3166030" lon="7.0940440">
        <ele>1105.0</ele>
        <time>2017-07-23T11:28:42Z</time>
      </trkpt>
      <trkpt lat="44.3166660" lon="7.0939480">
        <ele>1105.4</ele>
        <time>2017-07-23T11:28:45Z</time>
      </trkpt>
      <trkpt lat="44.3167400" lon="7.0938890">
        <ele>1106.8</ele>
        <time>2017-07-23T11:28:48Z</time>
      </trkpt>
      <trkpt lat="44.3167970" lon="7.0938640">
        <ele>1108.0</ele>
        <time>2017-07-23T11:28:50Z</time>
      </trkpt>
      <trkpt lat="44.3168840" lon="7.0938270">
        <ele>1109.4</ele>
        <time>2017-07-23T11:28:53Z</time>
      </trkpt>
      <trkpt lat="44.3169430" lon="7.0937940">
        <ele>1110.2</ele>
        <time>2017-07-23T11:28:55Z</time>
      </trkpt>
      <trkpt lat="44.3169710" lon="7.0937790">
        <ele>1110.6</ele>
        <time>2017-07-23T11:28:56Z</time>
      </trkpt>
      <trkpt lat="44.3170580" lon="7.0937270">
        <ele>1111.8</ele>
        <time>2017-07-23T11:28:59Z</time>
      </trkpt>
      <trkpt lat="44.3171420" lon="7.0936650">
        <ele>1112.8</ele>
        <time>2017-07-23T11:29:02Z</time>
      </trkpt>
      <trkpt lat="44.3171700" lon="7.0936470">
        <ele>1113.4</ele>
        <time>2017-07-23T11:29:03Z</time>
      </trkpt>
      <trkpt lat="44.3172650" lon="7.0935720">
        <ele>1114.6</ele>
        <time>2017-07-23T11:29:06Z</time>
      </trkpt>
      <trkpt lat="44.3173560" lon="7.0935110">
        <ele>1115.2</ele>
        <time>2017-07-23T11:29:08Z</time>
      </trkpt>
      <trkpt lat="44.3174160" lon="7.0934900">
        <ele>1115.6</ele>
        <time>2017-07-23T11:29:09Z</time>
      </trkpt>
      <trkpt lat="44.3176070" lon="7.0934420">
        <ele>1116.4</ele>
        <time>2017-07-23T11:29:12Z</time>
      </trkpt>
      <trkpt lat="44.3176700" lon="7.0934180">
        <ele>1116.6</ele>
        <time>2017-07-23T11:29:13Z</time>
      </trkpt>
      <trkpt lat="44.3178500" lon="7.0933200">
        <ele>1117.8</ele>
        <time>2017-07-23T11:29:16Z</time>
      </trkpt>
      <trkpt lat="44.3179160" lon="7.0932760">
        <ele>1117.8</ele>
        <time>2017-07-23T11:29:17Z</time>
      </trkpt>
      <trkpt lat="44.3179810" lon="7.0932250">
        <ele>1118.0</ele>
        <time>2017-07-23T11:29:18Z</time>
      </trkpt>
      <trkpt lat="44.3181150" lon="7.0931190">
        <ele>1118.4</ele>
        <time>2017-07-23T11:29:20Z</time>
      </trkpt>
      <trkpt lat="44.3181910" lon="7.0930850">
        <ele>1118.2</ele>
        <time>2017-07-23T11:29:21Z</time>
      </trkpt>
      <trkpt lat="44.3184330" lon="7.0930240">
        <ele>1118.2</ele>
        <time>2017-07-23T11:29:24Z</time>
      </trkpt>
      <trkpt lat="44.3185890" lon="7.0929830">
        <ele>1118.2</ele>
        <time>2017-07-23T11:29:26Z</time>
      </trkpt>
      <trkpt lat="44.3186590" lon="7.0929540">
        <ele>1118.0</ele>
        <time>2017-07-23T11:29:27Z</time>
      </trkpt>
      <trkpt lat="44.3187750" lon="7.0928520">
        <ele>1118.0</ele>
        <time>2017-07-23T11:29:29Z</time>
      </trkpt>
      <trkpt lat="44.3190200" lon="7.0924790">
        <ele>1117.4</ele>
        <time>2017-07-23T11:29:35Z</time>
      </trkpt>
      <trkpt lat="44.3191250" lon="7.0922470">
        <ele>1118.2</ele>
        <time>2017-07-23T11:29:39Z</time>
      </trkpt>
      <trkpt lat="44.3191830" lon="7.0921550">
        <ele>1118.2</ele>
        <time>2017-07-23T11:29:41Z</time>
      </trkpt>
      <trkpt lat="44.3193090" lon="7.0921080">
        <ele>1118.6</ele>
        <time>2017-07-23T11:29:44Z</time>
      </trkpt>
      <trkpt lat="44.3193500" lon="7.0921140">
        <ele>1118.8</ele>
        <time>2017-07-23T11:29:45Z</time>
      </trkpt>
      <trkpt lat="44.3193890" lon="7.0921140">
        <ele>1118.8</ele>
        <time>2017-07-23T11:29:46Z</time>
      </trkpt>
      <trkpt lat="44.3194520" lon="7.0920770">
        <ele>1119.0</ele>
        <time>2017-07-23T11:29:48Z</time>
      </trkpt>
      <trkpt lat="44.3195980" lon="7.0918910">
        <ele>1118.8</ele>
        <time>2017-07-23T11:29:53Z</time>
      </trkpt>
      <trkpt lat="44.3197650" lon="7.0917180">
        <ele>1119.0</ele>
        <time>2017-07-23T11:29:59Z</time>
      </trkpt>
      <trkpt lat="44.3198620" lon="7.0915660">
        <ele>1119.2</ele>
        <time>2017-07-23T11:30:04Z</time>
      </trkpt>
      <trkpt lat="44.3198800" lon="7.0915350">
        <ele>1119.2</ele>
        <time>2017-07-23T11:30:05Z</time>
      </trkpt>
      <trkpt lat="44.3199140" lon="7.0914780">
        <ele>1120.2</ele>
        <time>2017-07-23T11:30:07Z</time>
      </trkpt>
      <trkpt lat="44.3199980" lon="7.0912630">
        <ele>1121.0</ele>
        <time>2017-07-23T11:30:13Z</time>
      </trkpt>
      <trkpt lat="44.3200510" lon="7.0911080">
        <ele>1121.2</ele>
        <time>2017-07-23T11:30:17Z</time>
      </trkpt>
      <trkpt lat="44.3201030" lon="7.0910000">
        <ele>1121.8</ele>
        <time>2017-07-23T11:30:20Z</time>
      </trkpt>
      <trkpt lat="44.3202750" lon="7.0907550">
        <ele>1122.4</ele>
        <time>2017-07-23T11:30:27Z</time>
      </trkpt>
      <trkpt lat="44.3204710" lon="7.0905370">
        <ele>1122.6</ele>
        <time>2017-07-23T11:30:33Z</time>
      </trkpt>
      <trkpt lat="44.3205750" lon="7.0904440">
        <ele>1122.8</ele>
        <time>2017-07-23T11:30:36Z</time>
      </trkpt>
      <trkpt lat="44.3206740" lon="7.0903070">
        <ele>1122.8</ele>
        <time>2017-07-23T11:30:39Z</time>
      </trkpt>
      <trkpt lat="44.3209170" lon="7.0899590">
        <ele>1121.8</ele>
        <time>2017-07-23T11:30:46Z</time>
      </trkpt>
      <trkpt lat="44.3209890" lon="7.0898660">
        <ele>1122.0</ele>
        <time>2017-07-23T11:30:48Z</time>
      </trkpt>
      <trkpt lat="44.3210280" lon="7.0898220">
        <ele>1122.0</ele>
        <time>2017-07-23T11:30:49Z</time>
      </trkpt>
      <trkpt lat="44.3211030" lon="7.0897450">
        <ele>1121.8</ele>
        <time>2017-07-23T11:30:51Z</time>
      </trkpt>
      <trkpt lat="44.3211880" lon="7.0896770">
        <ele>1121.6</ele>
        <time>2017-07-23T11:30:53Z</time>
      </trkpt>
      <trkpt lat="44.3213550" lon="7.0895390">
        <ele>1122.6</ele>
        <time>2017-07-23T11:30:57Z</time>
      </trkpt>
      <trkpt lat="44.3215080" lon="7.0893860">
        <ele>1123.2</ele>
        <time>2017-07-23T11:31:01Z</time>
      </trkpt>
      <trkpt lat="44.3215420" lon="7.0893370">
        <ele>1123.4</ele>
        <time>2017-07-23T11:31:02Z</time>
      </trkpt>
      <trkpt lat="44.3216170" lon="7.0891520">
        <ele>1123.6</ele>
        <time>2017-07-23T11:31:05Z</time>
      </trkpt>
      <trkpt lat="44.3217390" lon="7.0888600">
        <ele>1123.4</ele>
        <time>2017-07-23T11:31:09Z</time>
      </trkpt>
      <trkpt lat="44.3217700" lon="7.0887770">
        <ele>1123.2</ele>
        <time>2017-07-23T11:31:10Z</time>
      </trkpt>
      <trkpt lat="44.3218150" lon="7.0884910">
        <ele>1122.8</ele>
        <time>2017-07-23T11:31:13Z</time>
      </trkpt>
      <trkpt lat="44.3218240" lon="7.0883940">
        <ele>1122.8</ele>
        <time>2017-07-23T11:31:14Z</time>
      </trkpt>
      <trkpt lat="44.3218450" lon="7.0883060">
        <ele>1122.6</ele>
        <time>2017-07-23T11:31:15Z</time>
      </trkpt>
      <trkpt lat="44.3218850" lon="7.0882290">
        <ele>1122.4</ele>
        <time>2017-07-23T11:31:16Z</time>
      </trkpt>
      <trkpt lat="44.3219400" lon="7.0881740">
        <ele>1122.0</ele>
        <time>2017-07-23T11:31:17Z</time>
      </trkpt>
      <trkpt lat="44.3220400" lon="7.0880800">
        <ele>1121.6</ele>
        <time>2017-07-23T11:31:19Z</time>
      </trkpt>
      <trkpt lat="44.3220730" lon="7.0880210">
        <ele>1121.4</ele>
        <time>2017-07-23T11:31:20Z</time>
      </trkpt>
      <trkpt lat="44.3221410" lon="7.0878910">
        <ele>1121.0</ele>
        <time>2017-07-23T11:31:22Z</time>
      </trkpt>
      <trkpt lat="44.3222230" lon="7.0877830">
        <ele>1120.8</ele>
        <time>2017-07-23T11:31:24Z</time>
      </trkpt>
      <trkpt lat="44.3224330" lon="7.0874840">
        <ele>1120.2</ele>
        <time>2017-07-23T11:31:29Z</time>
      </trkpt>
      <trkpt lat="44.3224730" lon="7.0874320">
        <ele>1120.2</ele>
        <time>2017-07-23T11:31:30Z</time>
      </trkpt>
      <trkpt lat="44.3226140" lon="7.0872620">
        <ele>1120.0</ele>
        <time>2017-07-23T11:31:34Z</time>
      </trkpt>
      <trkpt lat="44.3226430" lon="7.0872190">
        <ele>1120.2</ele>
        <time>2017-07-23T11:31:35Z</time>
      </trkpt>
      <trkpt lat="44.3226670" lon="7.0871660">
        <ele>1120.2</ele>
        <time>2017-07-23T11:31:36Z</time>
      </trkpt>
      <trkpt lat="44.3227260" lon="7.0869870">
        <ele>1120.4</ele>
        <time>2017-07-23T11:31:39Z</time>
      </trkpt>
      <trkpt lat="44.3228400" lon="7.0867200">
        <ele>1121.0</ele>
        <time>2017-07-23T11:31:44Z</time>
      </trkpt>
      <trkpt lat="44.3228770" lon="7.0866820">
        <ele>1121.0</ele>
        <time>2017-07-23T11:31:45Z</time>
      </trkpt>
      <trkpt lat="44.3230080" lon="7.0866540">
        <ele>1121.2</ele>
        <time>2017-07-23T11:31:48Z</time>
      </trkpt>
      <trkpt lat="44.3231150" lon="7.0866430">
        <ele>1121.2</ele>
        <time>2017-07-23T11:31:50Z</time>
      </trkpt>
      <trkpt lat="44.3232140" lon="7.0866050">
        <ele>1121.4</ele>
        <time>2017-07-23T11:31:52Z</time>
      </trkpt>
      <trkpt lat="44.3233570" lon="7.0864960">
        <ele>1120.8</ele>
        <time>2017-07-23T11:31:55Z</time>
      </trkpt>
      <trkpt lat="44.3234650" lon="7.0864090">
        <ele>1120.4</ele>
        <time>2017-07-23T11:31:57Z</time>
      </trkpt>
      <trkpt lat="44.3238240" lon="7.0860900">
        <ele>1119.2</ele>
        <time>2017-07-23T11:32:03Z</time>
      </trkpt>
      <trkpt lat="44.3239980" lon="7.0858620">
        <ele>1118.2</ele>
        <time>2017-07-23T11:32:06Z</time>
      </trkpt>
      <trkpt lat="44.3240590" lon="7.0857780">
        <ele>1117.2</ele>
        <time>2017-07-23T11:32:07Z</time>
      </trkpt>
      <trkpt lat="44.3241170" lon="7.0856870">
        <ele>1117.2</ele>
        <time>2017-07-23T11:32:08Z</time>
      </trkpt>
      <trkpt lat="44.3242340" lon="7.0855090">
        <ele>1116.0</ele>
        <time>2017-07-23T11:32:10Z</time>
      </trkpt>
      <trkpt lat="44.3242930" lon="7.0854390">
        <ele>1115.2</ele>
        <time>2017-07-23T11:32:11Z</time>
      </trkpt>
      <trkpt lat="44.3243500" lon="7.0853790">
        <ele>1114.8</ele>
        <time>2017-07-23T11:32:12Z</time>
      </trkpt>
      <trkpt lat="44.3244590" lon="7.0852720">
        <ele>1114.2</ele>
        <time>2017-07-23T11:32:14Z</time>
      </trkpt>
      <trkpt lat="44.3245760" lon="7.0851540">
        <ele>1113.2</ele>
        <time>2017-07-23T11:32:16Z</time>
      </trkpt>
      <trkpt lat="44.3246760" lon="7.0851220">
        <ele>1113.0</ele>
        <time>2017-07-23T11:32:17Z</time>
      </trkpt>
      <trkpt lat="44.3250320" lon="7.0850260">
        <ele>1112.0</ele>
        <time>2017-07-23T11:32:21Z</time>
      </trkpt>
      <trkpt lat="44.3251830" lon="7.0849770">
        <ele>1111.0</ele>
        <time>2017-07-23T11:32:23Z</time>
      </trkpt>
      <trkpt lat="44.3252600" lon="7.0849620">
        <ele>1110.8</ele>
        <time>2017-07-23T11:32:24Z</time>
      </trkpt>
      <trkpt lat="44.3254980" lon="7.0848750">
        <ele>1110.0</ele>
        <time>2017-07-23T11:32:27Z</time>
      </trkpt>
      <trkpt lat="44.3256580" lon="7.0848000">
        <ele>1109.6</ele>
        <time>2017-07-23T11:32:29Z</time>
      </trkpt>
      <trkpt lat="44.3257330" lon="7.0847540">
        <ele>1109.4</ele>
        <time>2017-07-23T11:32:30Z</time>
      </trkpt>
      <trkpt lat="44.3258690" lon="7.0846290">
        <ele>1108.8</ele>
        <time>2017-07-23T11:32:32Z</time>
      </trkpt>
      <trkpt lat="44.3259920" lon="7.0844980">
        <ele>1108.2</ele>
        <time>2017-07-23T11:32:34Z</time>
      </trkpt>
      <trkpt lat="44.3261920" lon="7.0842920">
        <ele>1106.6</ele>
        <time>2017-07-23T11:32:37Z</time>
      </trkpt>
      <trkpt lat="44.3263490" lon="7.0841520">
        <ele>1105.2</ele>
        <time>2017-07-23T11:32:39Z</time>
      </trkpt>
      <trkpt lat="44.3266040" lon="7.0839160">
        <ele>1104.4</ele>
        <time>2017-07-23T11:32:42Z</time>
      </trkpt>
      <trkpt lat="44.3266910" lon="7.0838220">
        <ele>1104.0</ele>
        <time>2017-07-23T11:32:43Z</time>
      </trkpt>
      <trkpt lat="44.3268640" lon="7.0836270">
        <ele>1102.6</ele>
        <time>2017-07-23T11:32:45Z</time>
      </trkpt>
      <trkpt lat="44.3270390" lon="7.0834340">
        <ele>1101.2</ele>
        <time>2017-07-23T11:32:47Z</time>
      </trkpt>
      <trkpt lat="44.3272300" lon="7.0832540">
        <ele>1099.6</ele>
        <time>2017-07-23T11:32:49Z</time>
      </trkpt>
      <trkpt lat="44.3274210" lon="7.0830990">
        <ele>1098.0</ele>
        <time>2017-07-23T11:32:51Z</time>
      </trkpt>
      <trkpt lat="44.3275120" lon="7.0830310">
        <ele>1097.4</ele>
        <time>2017-07-23T11:32:52Z</time>
      </trkpt>
      <trkpt lat="44.3275970" lon="7.0829570">
        <ele>1097.0</ele>
        <time>2017-07-23T11:32:53Z</time>
      </trkpt>
      <trkpt lat="44.3276770" lon="7.0828770">
        <ele>1096.4</ele>
        <time>2017-07-23T11:32:54Z</time>
      </trkpt>
      <trkpt lat="44.3278340" lon="7.0826960">
        <ele>1094.4</ele>
        <time>2017-07-23T11:32:56Z</time>
      </trkpt>
      <trkpt lat="44.3279060" lon="7.0825930">
        <ele>1093.2</ele>
        <time>2017-07-23T11:32:57Z</time>
      </trkpt>
      <trkpt lat="44.3279770" lon="7.0824900">
        <ele>1092.6</ele>
        <time>2017-07-23T11:32:58Z</time>
      </trkpt>
      <trkpt lat="44.3280450" lon="7.0823940">
        <ele>1091.8</ele>
        <time>2017-07-23T11:32:59Z</time>
      </trkpt>
      <trkpt lat="44.3282030" lon="7.0822220">
        <ele>1090.2</ele>
        <time>2017-07-23T11:33:01Z</time>
      </trkpt>
      <trkpt lat="44.3282840" lon="7.0821470">
        <ele>1089.4</ele>
        <time>2017-07-23T11:33:02Z</time>
      </trkpt>
      <trkpt lat="44.3283630" lon="7.0820830">
        <ele>1088.6</ele>
        <time>2017-07-23T11:33:03Z</time>
      </trkpt>
      <trkpt lat="44.3285080" lon="7.0819690">
        <ele>1087.4</ele>
        <time>2017-07-23T11:33:05Z</time>
      </trkpt>
      <trkpt lat="44.3285780" lon="7.0819210">
        <ele>1086.6</ele>
        <time>2017-07-23T11:33:06Z</time>
      </trkpt>
      <trkpt lat="44.3286470" lon="7.0818790">
        <ele>1085.8</ele>
        <time>2017-07-23T11:33:07Z</time>
      </trkpt>
      <trkpt lat="44.3288450" lon="7.0817890">
        <ele>1084.4</ele>
        <time>2017-07-23T11:33:10Z</time>
      </trkpt>
      <trkpt lat="44.3289090" lon="7.0817550">
        <ele>1084.4</ele>
        <time>2017-07-23T11:33:11Z</time>
      </trkpt>
      <trkpt lat="44.3289690" lon="7.0817080">
        <ele>1084.0</ele>
        <time>2017-07-23T11:33:12Z</time>
      </trkpt>
      <trkpt lat="44.3290570" lon="7.0815750">
        <ele>1083.4</ele>
        <time>2017-07-23T11:33:14Z</time>
      </trkpt>
      <trkpt lat="44.3291800" lon="7.0813640">
        <ele>1082.0</ele>
        <time>2017-07-23T11:33:17Z</time>
      </trkpt>
      <trkpt lat="44.3292750" lon="7.0812470">
        <ele>1080.8</ele>
        <time>2017-07-23T11:33:19Z</time>
      </trkpt>
      <trkpt lat="44.3293220" lon="7.0811980">
        <ele>1080.2</ele>
        <time>2017-07-23T11:33:20Z</time>
      </trkpt>
      <trkpt lat="44.3294080" lon="7.0811150">
        <ele>1080.0</ele>
        <time>2017-07-23T11:33:22Z</time>
      </trkpt>
      <trkpt lat="44.3294560" lon="7.0810790">
        <ele>1079.8</ele>
        <time>2017-07-23T11:33:23Z</time>
      </trkpt>
      <trkpt lat="44.3295500" lon="7.0809990">
        <ele>1079.4</ele>
        <time>2017-07-23T11:33:25Z</time>
      </trkpt>
      <trkpt lat="44.3295960" lon="7.0809540">
        <ele>1079.0</ele>
        <time>2017-07-23T11:33:26Z</time>
      </trkpt>
      <trkpt lat="44.3296420" lon="7.0809020">
        <ele>1078.8</ele>
        <time>2017-07-23T11:33:27Z</time>
      </trkpt>
      <trkpt lat="44.3296920" lon="7.0808510">
        <ele>1078.4</ele>
        <time>2017-07-23T11:33:28Z</time>
      </trkpt>
      <trkpt lat="44.3298090" lon="7.0807380">
        <ele>1077.8</ele>
        <time>2017-07-23T11:33:30Z</time>
      </trkpt>
      <trkpt lat="44.3298720" lon="7.0806750">
        <ele>1077.4</ele>
        <time>2017-07-23T11:33:31Z</time>
      </trkpt>
      <trkpt lat="44.3301340" lon="7.0803930">
        <ele>1076.2</ele>
        <time>2017-07-23T11:33:35Z</time>
      </trkpt>
      <trkpt lat="44.3301970" lon="7.0803230">
        <ele>1076.0</ele>
        <time>2017-07-23T11:33:36Z</time>
      </trkpt>
      <trkpt lat="44.3303720" lon="7.0801400">
        <ele>1074.8</ele>
        <time>2017-07-23T11:33:39Z</time>
      </trkpt>
      <trkpt lat="44.3304210" lon="7.0800870">
        <ele>1074.4</ele>
        <time>2017-07-23T11:33:40Z</time>
      </trkpt>
      <trkpt lat="44.3305100" lon="7.0799970">
        <ele>1074.0</ele>
        <time>2017-07-23T11:33:42Z</time>
      </trkpt>
      <trkpt lat="44.3305820" lon="7.0799580">
        <ele>1073.6</ele>
        <time>2017-07-23T11:33:44Z</time>
      </trkpt>
      <trkpt lat="44.3307920" lon="7.0799990">
        <ele>1074.2</ele>
        <time>2017-07-23T11:33:49Z</time>
      </trkpt>
      <trkpt lat="44.3308820" lon="7.0801120">
        <ele>1073.8</ele>
        <time>2017-07-23T11:33:51Z</time>
      </trkpt>
      <trkpt lat="44.3309600" lon="7.0802110">
        <ele>1073.6</ele>
        <time>2017-07-23T11:33:53Z</time>
      </trkpt>
      <trkpt lat="44.3309930" lon="7.0802490">
        <ele>1073.8</ele>
        <time>2017-07-23T11:33:54Z</time>
      </trkpt>
      <trkpt lat="44.3310720" lon="7.0803550">
        <ele>1074.6</ele>
        <time>2017-07-23T11:33:57Z</time>
      </trkpt>
      <trkpt lat="44.3311290" lon="7.0804340">
        <ele>1075.0</ele>
        <time>2017-07-23T11:33:59Z</time>
      </trkpt>
      <trkpt lat="44.3313690" lon="7.0807160">
        <ele>1074.4</ele>
        <time>2017-07-23T11:34:06Z</time>
      </trkpt>
      <trkpt lat="44.3314510" lon="7.0808280">
        <ele>1073.6</ele>
        <time>2017-07-23T11:34:08Z</time>
      </trkpt>
      <trkpt lat="44.3314700" lon="7.0808820">
        <ele>1073.4</ele>
        <time>2017-07-23T11:34:09Z</time>
      </trkpt>
      <trkpt lat="44.3314750" lon="7.0809250">
        <ele>1073.4</ele>
        <time>2017-07-23T11:34:10Z</time>
      </trkpt>
      <trkpt lat="44.3314540" lon="7.0809940">
        <ele>1073.2</ele>
        <time>2017-07-23T11:34:12Z</time>
      </trkpt>
      <trkpt lat="44.3314500" lon="7.0810630">
        <ele>1073.0</ele>
        <time>2017-07-23T11:34:14Z</time>
      </trkpt>
      <trkpt lat="44.3315170" lon="7.0810840">
        <ele>1072.6</ele>
        <time>2017-07-23T11:34:17Z</time>
      </trkpt>
      <trkpt lat="44.3315660" lon="7.0810210">
        <ele>1072.6</ele>
        <time>2017-07-23T11:34:19Z</time>
      </trkpt>
      <trkpt lat="44.3316410" lon="7.0809340">
        <ele>1072.6</ele>
        <time>2017-07-23T11:34:22Z</time>
      </trkpt>
      <trkpt lat="44.3316650" lon="7.0809020">
        <ele>1072.4</ele>
        <time>2017-07-23T11:34:23Z</time>
      </trkpt>
      <trkpt lat="44.3318090" lon="7.0806680">
        <ele>1071.4</ele>
        <time>2017-07-23T11:34:30Z</time>
      </trkpt>
      <trkpt lat="44.3318260" lon="7.0806330">
        <ele>1071.4</ele>
        <time>2017-07-23T11:34:31Z</time>
      </trkpt>
      <trkpt lat="44.3319080" lon="7.0804150">
        <ele>1071.4</ele>
        <time>2017-07-23T11:34:37Z</time>
      </trkpt>
      <trkpt lat="44.3319690" lon="7.0802260">
        <ele>1072.0</ele>
        <time>2017-07-23T11:34:42Z</time>
      </trkpt>
      <trkpt lat="44.3319900" lon="7.0801620">
        <ele>1072.4</ele>
        <time>2017-07-23T11:34:44Z</time>
      </trkpt>
      <trkpt lat="44.3320120" lon="7.0800470">
        <ele>1073.2</ele>
        <time>2017-07-23T11:34:48Z</time>
      </trkpt>
      <trkpt lat="44.3320370" lon="7.0799670">
        <ele>1073.6</ele>
        <time>2017-07-23T11:34:51Z</time>
      </trkpt>
      <trkpt lat="44.3320660" lon="7.0798320">
        <ele>1074.4</ele>
        <time>2017-07-23T11:34:56Z</time>
      </trkpt>
      <trkpt lat="44.3320970" lon="7.0797530">
        <ele>1074.8</ele>
        <time>2017-07-23T11:35:00Z</time>
      </trkpt>
      <trkpt lat="44.3321030" lon="7.0797620">
        <ele>1075.4</ele>
        <time>2017-07-23T11:35:02Z</time>
      </trkpt>
      <trkpt lat="44.3321010" lon="7.0797840">
        <ele>1075.6</ele>
        <time>2017-07-23T11:35:03Z</time>
      </trkpt>
      <trkpt lat="44.3320910" lon="7.0798390">
        <ele>1075.8</ele>
        <time>2017-07-23T11:35:05Z</time>
      </trkpt>
      <trkpt lat="44.3320840" lon="7.0799830">
        <ele>1077.0</ele>
        <time>2017-07-23T11:35:10Z</time>
      </trkpt>
      <trkpt lat="44.3320770" lon="7.0801710">
        <ele>1078.2</ele>
        <time>2017-07-23T11:35:17Z</time>
      </trkpt>
      <trkpt lat="44.3320750" lon="7.0801980">
        <ele>1078.4</ele>
        <time>2017-07-23T11:35:18Z</time>
      </trkpt>
      <trkpt lat="44.3320920" lon="7.0803090">
        <ele>1079.4</ele>
        <time>2017-07-23T11:35:23Z</time>
      </trkpt>
      <trkpt lat="44.3321020" lon="7.0803190">
        <ele>1079.6</ele>
        <time>2017-07-23T11:35:24Z</time>
      </trkpt>
      <trkpt lat="44.3321400" lon="7.0802920">
        <ele>1080.6</ele>
        <time>2017-07-23T11:35:27Z</time>
      </trkpt>
      <trkpt lat="44.3321470" lon="7.0802660">
        <ele>1081.0</ele>
        <time>2017-07-23T11:35:28Z</time>
      </trkpt>
      <trkpt lat="44.3321550" lon="7.0802390">
        <ele>1081.0</ele>
        <time>2017-07-23T11:35:29Z</time>
      </trkpt>
      <trkpt lat="44.3321960" lon="7.0800930">
        <ele>1081.8</ele>
        <time>2017-07-23T11:35:35Z</time>
      </trkpt>
      <trkpt lat="44.3322130" lon="7.0800470">
        <ele>1082.2</ele>
        <time>2017-07-23T11:35:37Z</time>
      </trkpt>
      <trkpt lat="44.3322520" lon="7.0798950">
        <ele>1083.0</ele>
        <time>2017-07-23T11:35:43Z</time>
      </trkpt>
      <trkpt lat="44.3322760" lon="7.0797960">
        <ele>1084.0</ele>
        <time>2017-07-23T11:35:47Z</time>
      </trkpt>
      <trkpt lat="44.3322910" lon="7.0797480">
        <ele>1084.2</ele>
        <time>2017-07-23T11:35:49Z</time>
      </trkpt>
      <trkpt lat="44.3323090" lon="7.0796390">
        <ele>1085.0</ele>
        <time>2017-07-23T11:35:53Z</time>
      </trkpt>
      <trkpt lat="44.3323300" lon="7.0795490">
        <ele>1085.8</ele>
        <time>2017-07-23T11:35:57Z</time>
      </trkpt>
      <trkpt lat="44.3323430" lon="7.0795030">
        <ele>1086.0</ele>
        <time>2017-07-23T11:35:59Z</time>
      </trkpt>
      <trkpt lat="44.3323730" lon="7.0793830">
        <ele>1087.2</ele>
        <time>2017-07-23T11:36:04Z</time>
      </trkpt>
      <trkpt lat="44.3323920" lon="7.0793440">
        <ele>1087.4</ele>
        <time>2017-07-23T11:36:06Z</time>
      </trkpt>
      <trkpt lat="44.3324190" lon="7.0793110">
        <ele>1088.2</ele>
        <time>2017-07-23T11:36:08Z</time>
      </trkpt>
      <trkpt lat="44.3324700" lon="7.0792790">
        <ele>1089.2</ele>
        <time>2017-07-23T11:36:11Z</time>
      </trkpt>
      <trkpt lat="44.3324850" lon="7.0792710">
        <ele>1089.8</ele>
        <time>2017-07-23T11:36:12Z</time>
      </trkpt>
      <trkpt lat="44.3325150" lon="7.0792510">
        <ele>1090.8</ele>
        <time>2017-07-23T11:36:14Z</time>
      </trkpt>
      <trkpt lat="44.3325470" lon="7.0792400">
        <ele>1092.0</ele>
        <time>2017-07-23T11:36:16Z</time>
      </trkpt>
      <trkpt lat="44.3325800" lon="7.0792250">
        <ele>1093.0</ele>
        <time>2017-07-23T11:36:18Z</time>
      </trkpt>
      <trkpt lat="44.3325970" lon="7.0792210">
        <ele>1093.4</ele>
        <time>2017-07-23T11:36:19Z</time>
      </trkpt>
      <trkpt lat="44.3326310" lon="7.0792180">
        <ele>1094.4</ele>
        <time>2017-07-23T11:36:21Z</time>
      </trkpt>
      <trkpt lat="44.3326660" lon="7.0792200">
        <ele>1095.4</ele>
        <time>2017-07-23T11:36:23Z</time>
      </trkpt>
      <trkpt lat="44.3326830" lon="7.0792200">
        <ele>1096.0</ele>
        <time>2017-07-23T11:36:24Z</time>
      </trkpt>
      <trkpt lat="44.3327010" lon="7.0792230">
        <ele>1096.6</ele>
        <time>2017-07-23T11:36:25Z</time>
      </trkpt>
      <trkpt lat="44.3327390" lon="7.0792260">
        <ele>1097.6</ele>
        <time>2017-07-23T11:36:27Z</time>
      </trkpt>
      <trkpt lat="44.3327770" lon="7.0792300">
        <ele>1099.0</ele>
        <time>2017-07-23T11:36:29Z</time>
      </trkpt>
      <trkpt lat="44.3328130" lon="7.0792310">
        <ele>1100.0</ele>
        <time>2017-07-23T11:36:31Z</time>
      </trkpt>
      <trkpt lat="44.3328310" lon="7.0792300">
        <ele>1101.0</ele>
        <time>2017-07-23T11:36:32Z</time>
      </trkpt>
      <trkpt lat="44.3328500" lon="7.0792300">
        <ele>1101.4</ele>
        <time>2017-07-23T11:36:33Z</time>
      </trkpt>
      <trkpt lat="44.3329050" lon="7.0792330">
        <ele>1102.2</ele>
        <time>2017-07-23T11:36:36Z</time>
      </trkpt>
      <trkpt lat="44.3329650" lon="7.0792290">
        <ele>1103.4</ele>
        <time>2017-07-23T11:36:39Z</time>
      </trkpt>
      <trkpt lat="44.3329820" lon="7.0792280">
        <ele>1103.8</ele>
        <time>2017-07-23T11:36:40Z</time>
      </trkpt>
      <trkpt lat="44.3330200" lon="7.0792320">
        <ele>1104.6</ele>
        <time>2017-07-23T11:36:42Z</time>
      </trkpt>
      <trkpt lat="44.3330760" lon="7.0792390">
        <ele>1106.0</ele>
        <time>2017-07-23T11:36:45Z</time>
      </trkpt>
      <trkpt lat="44.3331340" lon="7.0792440">
        <ele>1107.0</ele>
        <time>2017-07-23T11:36:48Z</time>
      </trkpt>
      <trkpt lat="44.3331540" lon="7.0792460">
        <ele>1107.4</ele>
        <time>2017-07-23T11:36:49Z</time>
      </trkpt>
      <trkpt lat="44.3332140" lon="7.0792480">
        <ele>1108.4</ele>
        <time>2017-07-23T11:36:52Z</time>
      </trkpt>
      <trkpt lat="44.3332870" lon="7.0792430">
        <ele>1110.0</ele>
        <time>2017-07-23T11:36:56Z</time>
      </trkpt>
      <trkpt lat="44.3333230" lon="7.0792390">
        <ele>1110.6</ele>
        <time>2017-07-23T11:36:58Z</time>
      </trkpt>
      <trkpt lat="44.3333560" lon="7.0792370">
        <ele>1111.2</ele>
        <time>2017-07-23T11:37:00Z</time>
      </trkpt>
      <trkpt lat="44.3334080" lon="7.0792340">
        <ele>1112.2</ele>
        <time>2017-07-23T11:37:03Z</time>
      </trkpt>
      <trkpt lat="44.3334780" lon="7.0792350">
        <ele>1113.2</ele>
        <time>2017-07-23T11:37:07Z</time>
      </trkpt>
      <trkpt lat="44.3334940" lon="7.0792330">
        <ele>1113.4</ele>
        <time>2017-07-23T11:37:08Z</time>
      </trkpt>
      <trkpt lat="44.3335650" lon="7.0792180">
        <ele>1114.4</ele>
        <time>2017-07-23T11:37:12Z</time>
      </trkpt>
      <trkpt lat="44.3336390" lon="7.0792190">
        <ele>1115.2</ele>
        <time>2017-07-23T11:37:16Z</time>
      </trkpt>
      <trkpt lat="44.3336560" lon="7.0792180">
        <ele>1115.4</ele>
        <time>2017-07-23T11:37:17Z</time>
      </trkpt>
      <trkpt lat="44.3337500" lon="7.0792270">
        <ele>1116.6</ele>
        <time>2017-07-23T11:37:22Z</time>
      </trkpt>
      <trkpt lat="44.3338000" lon="7.0792340">
        <ele>1117.2</ele>
        <time>2017-07-23T11:37:25Z</time>
      </trkpt>
      <trkpt lat="44.3338760" lon="7.0792650">
        <ele>1117.6</ele>
        <time>2017-07-23T11:37:29Z</time>
      </trkpt>
      <trkpt lat="44.3339390" lon="7.0792780">
        <ele>1118.4</ele>
        <time>2017-07-23T11:37:32Z</time>
      </trkpt>
      <trkpt lat="44.3339800" lon="7.0792830">
        <ele>1118.8</ele>
        <time>2017-07-23T11:37:34Z</time>
      </trkpt>
      <trkpt lat="44.3340940" lon="7.0792830">
        <ele>1120.0</ele>
        <time>2017-07-23T11:37:40Z</time>
      </trkpt>
      <trkpt lat="44.3341350" lon="7.0792820">
        <ele>1120.2</ele>
        <time>2017-07-23T11:37:42Z</time>
      </trkpt>
      <trkpt lat="44.3341740" lon="7.0792670">
        <ele>1121.0</ele>
        <time>2017-07-23T11:37:44Z</time>
      </trkpt>
      <trkpt lat="44.3342780" lon="7.0792590">
        <ele>1121.6</ele>
        <time>2017-07-23T11:37:49Z</time>
      </trkpt>
      <trkpt lat="44.3343360" lon="7.0792590">
        <ele>1122.0</ele>
        <time>2017-07-23T11:37:52Z</time>
      </trkpt>
      <trkpt lat="44.3343910" lon="7.0792560">
        <ele>1122.6</ele>
        <time>2017-07-23T11:37:55Z</time>
      </trkpt>
      <trkpt lat="44.3345310" lon="7.0792300">
        <ele>1123.2</ele>
        <time>2017-07-23T11:38:02Z</time>
      </trkpt>
      <trkpt lat="44.3345550" lon="7.0792370">
        <ele>1123.4</ele>
        <time>2017-07-23T11:38:03Z</time>
      </trkpt>
      <trkpt lat="44.3346980" lon="7.0792540">
        <ele>1124.2</ele>
        <time>2017-07-23T11:38:10Z</time>
      </trkpt>
      <trkpt lat="44.3347440" lon="7.0792370">
        <ele>1114.0</ele>
        <time>2017-07-23T11:39:57Z</time>
      </trkpt>
      <trkpt lat="44.3347560" lon="7.0792380">
        <ele>1114.2</ele>
        <time>2017-07-23T11:39:58Z</time>
      </trkpt>
      <trkpt lat="44.3347790" lon="7.0792450">
        <ele>1114.0</ele>
        <time>2017-07-23T11:40:00Z</time>
      </trkpt>
      <trkpt lat="44.3348130" lon="7.0792470">
        <ele>1114.6</ele>
        <time>2017-07-23T11:40:03Z</time>
      </trkpt>
      <trkpt lat="44.3348490" lon="7.0792500">
        <ele>1115.0</ele>
        <time>2017-07-23T11:40:05Z</time>
      </trkpt>
      <trkpt lat="44.3348670" lon="7.0792570">
        <ele>1115.4</ele>
        <time>2017-07-23T11:40:06Z</time>
      </trkpt>
      <trkpt lat="44.3349070" lon="7.0793020">
        <ele>1116.2</ele>
        <time>2017-07-23T11:40:08Z</time>
      </trkpt>
      <trkpt lat="44.3349250" lon="7.0793330">
        <ele>1116.4</ele>
        <time>2017-07-23T11:40:09Z</time>
      </trkpt>
      <trkpt lat="44.3349390" lon="7.0793630">
        <ele>1116.4</ele>
        <time>2017-07-23T11:40:10Z</time>
      </trkpt>
      <trkpt lat="44.3349460" lon="7.0794610">
        <ele>1116.8</ele>
        <time>2017-07-23T11:40:13Z</time>
      </trkpt>
      <trkpt lat="44.3349410" lon="7.0794940">
        <ele>1117.0</ele>
        <time>2017-07-23T11:40:14Z</time>
      </trkpt>
      <trkpt lat="44.3349300" lon="7.0795590">
        <ele>1117.2</ele>
        <time>2017-07-23T11:40:16Z</time>
      </trkpt>
      <trkpt lat="44.3349190" lon="7.0796260">
        <ele>1117.6</ele>
        <time>2017-07-23T11:40:18Z</time>
      </trkpt>
      <trkpt lat="44.3349350" lon="7.0797970">
        <ele>1118.2</ele>
        <time>2017-07-23T11:40:23Z</time>
      </trkpt>
      <trkpt lat="44.3349520" lon="7.0798160">
        <ele>1118.4</ele>
        <time>2017-07-23T11:40:24Z</time>
      </trkpt>
      <trkpt lat="44.3349990" lon="7.0798310">
        <ele>1118.6</ele>
        <time>2017-07-23T11:40:26Z</time>
      </trkpt>
      <trkpt lat="44.3350710" lon="7.0798160">
        <ele>1119.6</ele>
        <time>2017-07-23T11:40:29Z</time>
      </trkpt>
      <trkpt lat="44.3350930" lon="7.0798020">
        <ele>1120.0</ele>
        <time>2017-07-23T11:40:30Z</time>
      </trkpt>
      <trkpt lat="44.3351170" lon="7.0797870">
        <ele>1120.4</ele>
        <time>2017-07-23T11:40:31Z</time>
      </trkpt>
      <trkpt lat="44.3351600" lon="7.0797560">
        <ele>1121.2</ele>
        <time>2017-07-23T11:40:33Z</time>
      </trkpt>
      <trkpt lat="44.3352110" lon="7.0796990">
        <ele>1121.8</ele>
        <time>2017-07-23T11:40:36Z</time>
      </trkpt>
      <trkpt lat="44.3352300" lon="7.0796750">
        <ele>1121.8</ele>
        <time>2017-07-23T11:40:37Z</time>
      </trkpt>
      <trkpt lat="44.3352470" lon="7.0796530">
        <ele>1122.2</ele>
        <time>2017-07-23T11:40:38Z</time>
      </trkpt>
      <trkpt lat="44.3352880" lon="7.0796070">
        <ele>1123.4</ele>
        <time>2017-07-23T11:40:40Z</time>
      </trkpt>
      <trkpt lat="44.3353880" lon="7.0794890">
        <ele>1124.4</ele>
        <time>2017-07-23T11:40:45Z</time>
      </trkpt>
      <trkpt lat="44.3354880" lon="7.0793760">
        <ele>1125.2</ele>
        <time>2017-07-23T11:40:50Z</time>
      </trkpt>
      <trkpt lat="44.3355170" lon="7.0793650">
        <ele>1125.4</ele>
        <time>2017-07-23T11:40:51Z</time>
      </trkpt>
      <trkpt lat="44.3355450" lon="7.0793560">
        <ele>1125.8</ele>
        <time>2017-07-23T11:40:52Z</time>
      </trkpt>
      <trkpt lat="44.3356400" lon="7.0793050">
        <ele>1126.8</ele>
        <time>2017-07-23T11:40:56Z</time>
      </trkpt>
      <trkpt lat="44.3356650" lon="7.0792950">
        <ele>1127.0</ele>
        <time>2017-07-23T11:40:57Z</time>
      </trkpt>
      <trkpt lat="44.3357580" lon="7.0792660">
        <ele>1128.0</ele>
        <time>2017-07-23T11:41:01Z</time>
      </trkpt>
      <trkpt lat="44.3358270" lon="7.0792480">
        <ele>1129.2</ele>
        <time>2017-07-23T11:41:04Z</time>
      </trkpt>
      <trkpt lat="44.3358910" lon="7.0792480">
        <ele>1130.4</ele>
        <time>2017-07-23T11:41:07Z</time>
      </trkpt>
      <trkpt lat="44.3359770" lon="7.0792460">
        <ele>1131.6</ele>
        <time>2017-07-23T11:41:11Z</time>
      </trkpt>
      <trkpt lat="44.3360730" lon="7.0792250">
        <ele>1133.0</ele>
        <time>2017-07-23T11:41:15Z</time>
      </trkpt>
      <trkpt lat="44.3361590" lon="7.0791810">
        <ele>1133.6</ele>
        <time>2017-07-23T11:41:18Z</time>
      </trkpt>
      <trkpt lat="44.3362410" lon="7.0791350">
        <ele>1134.0</ele>
        <time>2017-07-23T11:41:20Z</time>
      </trkpt>
      <trkpt lat="44.3363990" lon="7.0790460">
        <ele>1134.2</ele>
        <time>2017-07-23T11:41:23Z</time>
      </trkpt>
      <trkpt lat="44.3365780" lon="7.0789200">
        <ele>1134.2</ele>
        <time>2017-07-23T11:41:26Z</time>
      </trkpt>
      <trkpt lat="44.3366220" lon="7.0788440">
        <ele>1134.2</ele>
        <time>2017-07-23T11:41:27Z</time>
      </trkpt>
      <trkpt lat="44.3366940" lon="7.0785840">
        <ele>1133.2</ele>
        <time>2017-07-23T11:41:30Z</time>
      </trkpt>
      <trkpt lat="44.3366870" lon="7.0784960">
        <ele>1133.0</ele>
        <time>2017-07-23T11:41:31Z</time>
      </trkpt>
      <trkpt lat="44.3366430" lon="7.0783440">
        <ele>1132.8</ele>
        <time>2017-07-23T11:41:33Z</time>
      </trkpt>
      <trkpt lat="44.3365400" lon="7.0782040">
        <ele>1132.4</ele>
        <time>2017-07-23T11:41:36Z</time>
      </trkpt>
      <trkpt lat="44.3365050" lon="7.0781680">
        <ele>1132.2</ele>
        <time>2017-07-23T11:41:37Z</time>
      </trkpt>
      <trkpt lat="44.3363390" lon="7.0780280">
        <ele>1132.2</ele>
        <time>2017-07-23T11:41:42Z</time>
      </trkpt>
      <trkpt lat="44.3362800" lon="7.0779800">
        <ele>1131.8</ele>
        <time>2017-07-23T11:41:44Z</time>
      </trkpt>
      <trkpt lat="44.3361490" lon="7.0778490">
        <ele>1132.0</ele>
        <time>2017-07-23T11:41:49Z</time>
      </trkpt>
      <trkpt lat="44.3360600" lon="7.0777270">
        <ele>1132.2</ele>
        <time>2017-07-23T11:41:53Z</time>
      </trkpt>
      <trkpt lat="44.3360620" lon="7.0776600">
        <ele>1132.4</ele>
        <time>2017-07-23T11:41:55Z</time>
      </trkpt>
      <trkpt lat="44.3361010" lon="7.0776320">
        <ele>1133.0</ele>
        <time>2017-07-23T11:41:57Z</time>
      </trkpt>
      <trkpt lat="44.3361230" lon="7.0776450">
        <ele>1133.4</ele>
        <time>2017-07-23T11:41:58Z</time>
      </trkpt>
      <trkpt lat="44.3361610" lon="7.0776930">
        <ele>1134.2</ele>
        <time>2017-07-23T11:42:00Z</time>
      </trkpt>
      <trkpt lat="44.3362290" lon="7.0777930">
        <ele>1135.0</ele>
        <time>2017-07-23T11:42:04Z</time>
      </trkpt>
      <trkpt lat="44.3362450" lon="7.0778160">
        <ele>1135.4</ele>
        <time>2017-07-23T11:42:05Z</time>
      </trkpt>
      <trkpt lat="44.3362930" lon="7.0778620">
        <ele>1136.6</ele>
        <time>2017-07-23T11:42:08Z</time>
      </trkpt>
      <trkpt lat="44.3363090" lon="7.0778730">
        <ele>1137.6</ele>
        <time>2017-07-23T11:42:09Z</time>
      </trkpt>
      <trkpt lat="44.3363440" lon="7.0778910">
        <ele>1138.6</ele>
        <time>2017-07-23T11:42:11Z</time>
      </trkpt>
      <trkpt lat="44.3363580" lon="7.0779010">
        <ele>1139.0</ele>
        <time>2017-07-23T11:42:12Z</time>
      </trkpt>
      <trkpt lat="44.3363910" lon="7.0779130">
        <ele>1140.0</ele>
        <time>2017-07-23T11:42:14Z</time>
      </trkpt>
      <trkpt lat="44.3364480" lon="7.0779330">
        <ele>1141.2</ele>
        <time>2017-07-23T11:42:17Z</time>
      </trkpt>
      <trkpt lat="44.3365040" lon="7.0779630">
        <ele>1142.4</ele>
        <time>2017-07-23T11:42:20Z</time>
      </trkpt>
      <trkpt lat="44.3366120" lon="7.0780600">
        <ele>1143.6</ele>
        <time>2017-07-23T11:42:27Z</time>
      </trkpt>
      <trkpt lat="44.3366400" lon="7.0780940">
        <ele>1143.8</ele>
        <time>2017-07-23T11:42:29Z</time>
      </trkpt>
      <trkpt lat="44.3367070" lon="7.0781570">
        <ele>1144.8</ele>
        <time>2017-07-23T11:42:33Z</time>
      </trkpt>
      <trkpt lat="44.3367670" lon="7.0782060">
        <ele>1145.4</ele>
        <time>2017-07-23T11:42:36Z</time>
      </trkpt>
      <trkpt lat="44.3368340" lon="7.0782660">
        <ele>1146.0</ele>
        <time>2017-07-23T11:42:40Z</time>
      </trkpt>
      <trkpt lat="44.3368950" lon="7.0783000">
        <ele>1147.2</ele>
        <time>2017-07-23T11:42:43Z</time>
      </trkpt>
      <trkpt lat="44.3370120" lon="7.0783850">
        <ele>1148.0</ele>
        <time>2017-07-23T11:42:51Z</time>
      </trkpt>
      <trkpt lat="44.3370270" lon="7.0783890">
        <ele>1148.4</ele>
        <time>2017-07-23T11:42:52Z</time>
      </trkpt>
      <trkpt lat="44.3371690" lon="7.0784930">
        <ele>1149.4</ele>
        <time>2017-07-23T11:43:00Z</time>
      </trkpt>
      <trkpt lat="44.3371840" lon="7.0785040">
        <ele>1149.4</ele>
        <time>2017-07-23T11:43:01Z</time>
      </trkpt>
      <trkpt lat="44.3372940" lon="7.0786190">
        <ele>1150.4</ele>
        <time>2017-07-23T11:43:08Z</time>
      </trkpt>
      <trkpt lat="44.3373030" lon="7.0786340">
        <ele>1150.8</ele>
        <time>2017-07-23T11:43:09Z</time>
      </trkpt>
      <trkpt lat="44.3373890" lon="7.0787580">
        <ele>1151.6</ele>
        <time>2017-07-23T11:43:15Z</time>
      </trkpt>
      <trkpt lat="44.3374220" lon="7.0788150">
        <ele>1152.0</ele>
        <time>2017-07-23T11:43:17Z</time>
      </trkpt>
      <trkpt lat="44.3374370" lon="7.0788280">
        <ele>1152.2</ele>
        <time>2017-07-23T11:43:18Z</time>
      </trkpt>
      <trkpt lat="44.3374810" lon="7.0788320">
        <ele>1153.6</ele>
        <time>2017-07-23T11:43:21Z</time>
      </trkpt>
      <trkpt lat="44.3375230" lon="7.0787820">
        <ele>1153.8</ele>
        <time>2017-07-23T11:43:24Z</time>
      </trkpt>
      <trkpt lat="44.3375300" lon="7.0787590">
        <ele>1154.0</ele>
        <time>2017-07-23T11:43:25Z</time>
      </trkpt>
      <trkpt lat="44.3375330" lon="7.0787350">
        <ele>1154.2</ele>
        <time>2017-07-23T11:43:26Z</time>
      </trkpt>
      <trkpt lat="44.3375360" lon="7.0786790">
        <ele>1154.6</ele>
        <time>2017-07-23T11:43:28Z</time>
      </trkpt>
      <trkpt lat="44.3375150" lon="7.0784710">
        <ele>1155.8</ele>
        <time>2017-07-23T11:43:35Z</time>
      </trkpt>
      <trkpt lat="44.3374890" lon="7.0783510">
        <ele>1157.0</ele>
        <time>2017-07-23T11:43:39Z</time>
      </trkpt>
      <trkpt lat="44.3374710" lon="7.0782630">
        <ele>1157.2</ele>
        <time>2017-07-23T11:43:42Z</time>
      </trkpt>
      <trkpt lat="44.3374480" lon="7.0780390">
        <ele>1155.8</ele>
        <time>2017-07-23T11:43:49Z</time>
      </trkpt>
      <trkpt lat="44.3374490" lon="7.0780110">
        <ele>1155.2</ele>
        <time>2017-07-23T11:43:50Z</time>
      </trkpt>
      <trkpt lat="44.3374480" lon="7.0779810">
        <ele>1154.4</ele>
        <time>2017-07-23T11:43:51Z</time>
      </trkpt>
      <trkpt lat="44.3374500" lon="7.0778030">
        <ele>1154.6</ele>
        <time>2017-07-23T11:43:56Z</time>
      </trkpt>
      <trkpt lat="44.3374520" lon="7.0777330">
        <ele>1156.8</ele>
        <time>2017-07-23T11:43:58Z</time>
      </trkpt>
      <trkpt lat="44.3374580" lon="7.0775500">
        <ele>1156.8</ele>
        <time>2017-07-23T11:44:03Z</time>
      </trkpt>
      <trkpt lat="44.3375360" lon="7.0773280">
        <ele>1157.4</ele>
        <time>2017-07-23T11:44:10Z</time>
      </trkpt>
      <trkpt lat="44.3375950" lon="7.0772070">
        <ele>1157.8</ele>
        <time>2017-07-23T11:44:14Z</time>
      </trkpt>
      <trkpt lat="44.3376400" lon="7.0771260">
        <ele>1158.2</ele>
        <time>2017-07-23T11:44:17Z</time>
      </trkpt>
      <trkpt lat="44.3376690" lon="7.0770780">
        <ele>1159.4</ele>
        <time>2017-07-23T11:44:19Z</time>
      </trkpt>
      <trkpt lat="44.3376960" lon="7.0770280">
        <ele>1160.6</ele>
        <time>2017-07-23T11:44:21Z</time>
      </trkpt>
      <trkpt lat="44.3377270" lon="7.0769800">
        <ele>1161.6</ele>
        <time>2017-07-23T11:44:23Z</time>
      </trkpt>
      <trkpt lat="44.3377620" lon="7.0769320">
        <ele>1162.6</ele>
        <time>2017-07-23T11:44:25Z</time>
      </trkpt>
      <trkpt lat="44.3377840" lon="7.0769080">
        <ele>1163.0</ele>
        <time>2017-07-23T11:44:26Z</time>
      </trkpt>
      <trkpt lat="44.3378540" lon="7.0768220">
        <ele>1164.4</ele>
        <time>2017-07-23T11:44:29Z</time>
      </trkpt>
      <trkpt lat="44.3379080" lon="7.0767610">
        <ele>1165.8</ele>
        <time>2017-07-23T11:44:31Z</time>
      </trkpt>
      <trkpt lat="44.3379640" lon="7.0766080">
        <ele>1166.8</ele>
        <time>2017-07-23T11:44:35Z</time>
      </trkpt>
      <trkpt lat="44.3379770" lon="7.0765640">
        <ele>1166.8</ele>
        <time>2017-07-23T11:44:36Z</time>
      </trkpt>
      <trkpt lat="44.3380260" lon="7.0764390">
        <ele>1166.6</ele>
        <time>2017-07-23T11:44:40Z</time>
      </trkpt>
      <trkpt lat="44.3380170" lon="7.0764230">
        <ele>1166.4</ele>
        <time>2017-07-23T11:44:41Z</time>
      </trkpt>
      <trkpt lat="44.3380080" lon="7.0763790">
        <ele>1162.8</ele>
        <time>2017-07-23T11:46:46Z</time>
      </trkpt>
      <trkpt lat="44.3380240" lon="7.0763750">
        <ele>1162.6</ele>
        <time>2017-07-23T11:46:47Z</time>
      </trkpt>
      <trkpt lat="44.3380730" lon="7.0763240">
        <ele>1162.4</ele>
        <time>2017-07-23T11:46:50Z</time>
      </trkpt>
      <trkpt lat="44.3380920" lon="7.0763000">
        <ele>1162.4</ele>
        <time>2017-07-23T11:46:51Z</time>
      </trkpt>
      <trkpt lat="44.3381830" lon="7.0761790">
        <ele>1163.8</ele>
        <time>2017-07-23T11:46:55Z</time>
      </trkpt>
      <trkpt lat="44.3382230" lon="7.0761040">
        <ele>1164.4</ele>
        <time>2017-07-23T11:46:57Z</time>
      </trkpt>
      <trkpt lat="44.3382380" lon="7.0760650">
        <ele>1165.2</ele>
        <time>2017-07-23T11:46:58Z</time>
      </trkpt>
      <trkpt lat="44.3382560" lon="7.0759880">
        <ele>1166.4</ele>
        <time>2017-07-23T11:47:00Z</time>
      </trkpt>
      <trkpt lat="44.3382100" lon="7.0759060">
        <ele>1166.6</ele>
        <time>2017-07-23T11:47:01Z</time>
      </trkpt>
      <trkpt lat="44.3381780" lon="7.0758330">
        <ele>1166.6</ele>
        <time>2017-07-23T11:47:02Z</time>
      </trkpt>
      <trkpt lat="44.3381530" lon="7.0756420">
        <ele>1167.4</ele>
        <time>2017-07-23T11:47:06Z</time>
      </trkpt>
      <trkpt lat="44.3381520" lon="7.0755930">
        <ele>1167.8</ele>
        <time>2017-07-23T11:47:07Z</time>
      </trkpt>
      <trkpt lat="44.3381330" lon="7.0754160">
        <ele>1168.6</ele>
        <time>2017-07-23T11:47:10Z</time>
      </trkpt>
      <trkpt lat="44.3381090" lon="7.0752410">
        <ele>1169.2</ele>
        <time>2017-07-23T11:47:13Z</time>
      </trkpt>
      <trkpt lat="44.3381560" lon="7.0751040">
        <ele>1169.8</ele>
        <time>2017-07-23T11:47:16Z</time>
      </trkpt>
      <trkpt lat="44.3381840" lon="7.0750630">
        <ele>1170.6</ele>
        <time>2017-07-23T11:47:18Z</time>
      </trkpt>
      <trkpt lat="44.3381990" lon="7.0750420">
        <ele>1171.0</ele>
        <time>2017-07-23T11:47:19Z</time>
      </trkpt>
      <trkpt lat="44.3382230" lon="7.0749810">
        <ele>1171.8</ele>
        <time>2017-07-23T11:47:21Z</time>
      </trkpt>
      <trkpt lat="44.3382320" lon="7.0749430">
        <ele>1172.6</ele>
        <time>2017-07-23T11:47:22Z</time>
      </trkpt>
      <trkpt lat="44.3382350" lon="7.0749020">
        <ele>1172.6</ele>
        <time>2017-07-23T11:47:23Z</time>
      </trkpt>
      <trkpt lat="44.3382410" lon="7.0748310">
        <ele>1172.8</ele>
        <time>2017-07-23T11:47:25Z</time>
      </trkpt>
      <trkpt lat="44.3382590" lon="7.0747430">
        <ele>1173.0</ele>
        <time>2017-07-23T11:47:28Z</time>
      </trkpt>
      <trkpt lat="44.3382820" lon="7.0746900">
        <ele>1173.0</ele>
        <time>2017-07-23T11:47:30Z</time>
      </trkpt>
      <trkpt lat="44.3383110" lon="7.0746620">
        <ele>1173.0</ele>
        <time>2017-07-23T11:47:32Z</time>
      </trkpt>
      <trkpt lat="44.3383460" lon="7.0746510">
        <ele>1173.6</ele>
        <time>2017-07-23T11:47:34Z</time>
      </trkpt>
      <trkpt lat="44.3383630" lon="7.0746480">
        <ele>1174.2</ele>
        <time>2017-07-23T11:47:35Z</time>
      </trkpt>
      <trkpt lat="44.3383800" lon="7.0746470">
        <ele>1174.6</ele>
        <time>2017-07-23T11:47:36Z</time>
      </trkpt>
      <trkpt lat="44.3384100" lon="7.0746520">
        <ele>1176.0</ele>
        <time>2017-07-23T11:47:38Z</time>
      </trkpt>
      <trkpt lat="44.3384450" lon="7.0746490">
        <ele>1177.2</ele>
        <time>2017-07-23T11:47:40Z</time>
      </trkpt>
      <trkpt lat="44.3384790" lon="7.0746450">
        <ele>1178.2</ele>
        <time>2017-07-23T11:47:42Z</time>
      </trkpt>
      <trkpt lat="44.3385080" lon="7.0746470">
        <ele>1179.8</ele>
        <time>2017-07-23T11:47:44Z</time>
      </trkpt>
      <trkpt lat="44.3385390" lon="7.0746520">
        <ele>1181.6</ele>
        <time>2017-07-23T11:47:46Z</time>
      </trkpt>
      <trkpt lat="44.3385660" lon="7.0746520">
        <ele>1182.8</ele>
        <time>2017-07-23T11:47:48Z</time>
      </trkpt>
      <trkpt lat="44.3385890" lon="7.0746630">
        <ele>1184.0</ele>
        <time>2017-07-23T11:47:50Z</time>
      </trkpt>
      <trkpt lat="44.3386180" lon="7.0746710">
        <ele>1185.0</ele>
        <time>2017-07-23T11:47:52Z</time>
      </trkpt>
      <trkpt lat="44.3386320" lon="7.0746750">
        <ele>1185.2</ele>
        <time>2017-07-23T11:47:53Z</time>
      </trkpt>
      <trkpt lat="44.3386790" lon="7.0746750">
        <ele>1186.4</ele>
        <time>2017-07-23T11:47:56Z</time>
      </trkpt>
      <trkpt lat="44.3387150" lon="7.0746590">
        <ele>1187.2</ele>
        <time>2017-07-23T11:47:59Z</time>
      </trkpt>
      <trkpt lat="44.3387260" lon="7.0746540">
        <ele>1187.6</ele>
        <time>2017-07-23T11:48:00Z</time>
      </trkpt>
      <trkpt lat="44.3387670" lon="7.0746110">
        <ele>1188.8</ele>
        <time>2017-07-23T11:48:04Z</time>
      </trkpt>
      <trkpt lat="44.3387840" lon="7.0745900">
        <ele>1189.2</ele>
        <time>2017-07-23T11:48:06Z</time>
      </trkpt>
      <trkpt lat="44.3387990" lon="7.0745630">
        <ele>1189.6</ele>
        <time>2017-07-23T11:48:08Z</time>
      </trkpt>
      <trkpt lat="44.3394910" lon="7.0739980">
        <ele>1207.6</ele>
        <time>2017-07-23T11:50:05Z</time>
      </trkpt>
      <trkpt lat="44.3395060" lon="7.0740140">
        <ele>1207.6</ele>
        <time>2017-07-23T11:50:06Z</time>
      </trkpt>
      <trkpt lat="44.3395230" lon="7.0740770">
        <ele>1207.4</ele>
        <time>2017-07-23T11:50:09Z</time>
      </trkpt>
      <trkpt lat="44.3395360" lon="7.0740910">
        <ele>1207.2</ele>
        <time>2017-07-23T11:50:10Z</time>
      </trkpt>
      <trkpt lat="44.3395900" lon="7.0740830">
        <ele>1207.8</ele>
        <time>2017-07-23T11:50:15Z</time>
      </trkpt>
      <trkpt lat="44.3395860" lon="7.0739800">
        <ele>1207.6</ele>
        <time>2017-07-23T11:50:20Z</time>
      </trkpt>
      <trkpt lat="44.3395850" lon="7.0739610">
        <ele>1207.6</ele>
        <time>2017-07-23T11:50:21Z</time>
      </trkpt>
      <trkpt lat="44.3396070" lon="7.0738300">
        <ele>1207.8</ele>
        <time>2017-07-23T11:50:27Z</time>
      </trkpt>
      <trkpt lat="44.3396130" lon="7.0737240">
        <ele>1208.8</ele>
        <time>2017-07-23T11:50:31Z</time>
      </trkpt>
      <trkpt lat="44.3396180" lon="7.0736420">
        <ele>1209.8</ele>
        <time>2017-07-23T11:50:34Z</time>
      </trkpt>
      <trkpt lat="44.3396250" lon="7.0735200">
        <ele>1211.0</ele>
        <time>2017-07-23T11:50:39Z</time>
      </trkpt>
      <trkpt lat="44.3396330" lon="7.0734710">
        <ele>1211.0</ele>
        <time>2017-07-23T11:50:42Z</time>
      </trkpt>
      <trkpt lat="44.3396930" lon="7.0734160">
        <ele>1211.6</ele>
        <time>2017-07-23T11:50:47Z</time>
      </trkpt>
      <trkpt lat="44.3397100" lon="7.0733880">
        <ele>1212.0</ele>
        <time>2017-07-23T11:50:49Z</time>
      </trkpt>
      <trkpt lat="44.3397240" lon="7.0733340">
        <ele>1212.4</ele>
        <time>2017-07-23T11:50:52Z</time>
      </trkpt>
      <trkpt lat="44.3397290" lon="7.0733150">
        <ele>1212.4</ele>
        <time>2017-07-23T11:50:53Z</time>
      </trkpt>
      <trkpt lat="44.3397260" lon="7.0732970">
        <ele>1212.6</ele>
        <time>2017-07-23T11:50:54Z</time>
      </trkpt>
      <trkpt lat="44.3397500" lon="7.0732240">
        <ele>1213.2</ele>
        <time>2017-07-23T11:50:58Z</time>
      </trkpt>
      <trkpt lat="44.3397580" lon="7.0732020">
        <ele>1213.2</ele>
        <time>2017-07-23T11:50:59Z</time>
      </trkpt>
      <trkpt lat="44.3398000" lon="7.0730790">
        <ele>1214.2</ele>
        <time>2017-07-23T11:51:05Z</time>
      </trkpt>
      <trkpt lat="44.3398160" lon="7.0730370">
        <ele>1214.4</ele>
        <time>2017-07-23T11:51:07Z</time>
      </trkpt>
      <trkpt lat="44.3398900" lon="7.0728960">
        <ele>1215.2</ele>
        <time>2017-07-23T11:51:15Z</time>
      </trkpt>
      <trkpt lat="44.3399010" lon="7.0728770">
        <ele>1215.6</ele>
        <time>2017-07-23T11:51:16Z</time>
      </trkpt>
      <trkpt lat="44.3399370" lon="7.0727970">
        <ele>1216.8</ele>
        <time>2017-07-23T11:51:20Z</time>
      </trkpt>
      <trkpt lat="44.3399580" lon="7.0727560">
        <ele>1218.4</ele>
        <time>2017-07-23T11:51:22Z</time>
      </trkpt>
      <trkpt lat="44.3400090" lon="7.0726770">
        <ele>1219.4</ele>
        <time>2017-07-23T11:51:26Z</time>
      </trkpt>
      <trkpt lat="44.3400620" lon="7.0725800">
        <ele>1220.6</ele>
        <time>2017-07-23T11:51:31Z</time>
      </trkpt>
      <trkpt lat="44.3400960" lon="7.0724890">
        <ele>1221.8</ele>
        <time>2017-07-23T11:51:35Z</time>
      </trkpt>
      <trkpt lat="44.3401310" lon="7.0723860">
        <ele>1222.2</ele>
        <time>2017-07-23T11:51:39Z</time>
      </trkpt>
      <trkpt lat="44.3401630" lon="7.0723010">
        <ele>1222.8</ele>
        <time>2017-07-23T11:51:42Z</time>
      </trkpt>
      <trkpt lat="44.3402370" lon="7.0721890">
        <ele>1224.2</ele>
        <time>2017-07-23T11:51:47Z</time>
      </trkpt>
      <trkpt lat="44.3402520" lon="7.0721680">
        <ele>1224.4</ele>
        <time>2017-07-23T11:51:48Z</time>
      </trkpt>
      <trkpt lat="44.3402840" lon="7.0721270">
        <ele>1225.4</ele>
        <time>2017-07-23T11:51:50Z</time>
      </trkpt>
      <trkpt lat="44.3403320" lon="7.0720660">
        <ele>1226.8</ele>
        <time>2017-07-23T11:51:53Z</time>
      </trkpt>
      <trkpt lat="44.3403570" lon="7.0720280">
        <ele>1227.8</ele>
        <time>2017-07-23T11:51:55Z</time>
      </trkpt>
      <trkpt lat="44.3404160" lon="7.0719550">
        <ele>1229.0</ele>
        <time>2017-07-23T11:51:59Z</time>
      </trkpt>
      <trkpt lat="44.3404450" lon="7.0719200">
        <ele>1229.4</ele>
        <time>2017-07-23T11:52:01Z</time>
      </trkpt>
      <trkpt lat="44.3404750" lon="7.0718830">
        <ele>1229.8</ele>
        <time>2017-07-23T11:52:03Z</time>
      </trkpt>
      <trkpt lat="44.3404890" lon="7.0718710">
        <ele>1230.2</ele>
        <time>2017-07-23T11:52:04Z</time>
      </trkpt>
      <trkpt lat="44.3405500" lon="7.0718100">
        <ele>1231.4</ele>
        <time>2017-07-23T11:52:09Z</time>
      </trkpt>
      <trkpt lat="44.3405740" lon="7.0717800">
        <ele>1232.0</ele>
        <time>2017-07-23T11:52:11Z</time>
      </trkpt>
      <trkpt lat="44.3406080" lon="7.0717420">
        <ele>1232.8</ele>
        <time>2017-07-23T11:52:14Z</time>
      </trkpt>
      <trkpt lat="44.3406510" lon="7.0716920">
        <ele>1233.8</ele>
        <time>2017-07-23T11:52:18Z</time>
      </trkpt>
      <trkpt lat="44.3406720" lon="7.0716660">
        <ele>1234.4</ele>
        <time>2017-07-23T11:52:20Z</time>
      </trkpt>
      <trkpt lat="44.3406940" lon="7.0716350">
        <ele>1235.4</ele>
        <time>2017-07-23T11:52:22Z</time>
      </trkpt>
      <trkpt lat="44.3407220" lon="7.0715980">
        <ele>1236.6</ele>
        <time>2017-07-23T11:52:25Z</time>
      </trkpt>
      <trkpt lat="44.3407510" lon="7.0715590">
        <ele>1236.6</ele>
        <time>2017-07-23T11:52:28Z</time>
      </trkpt>
      <trkpt lat="44.3407720" lon="7.0714860">
        <ele>1237.6</ele>
        <time>2017-07-23T11:52:32Z</time>
      </trkpt>
      <trkpt lat="44.3407790" lon="7.0714490">
        <ele>1238.8</ele>
        <time>2017-07-23T11:52:34Z</time>
      </trkpt>
      <trkpt lat="44.3407830" lon="7.0714360">
        <ele>1239.4</ele>
        <time>2017-07-23T11:52:35Z</time>
      </trkpt>
      <trkpt lat="44.3407060" lon="7.0707530">
        <ele>1245.0</ele>
        <time>2017-07-23T11:53:39Z</time>
      </trkpt>
      <trkpt lat="44.3407120" lon="7.0707330">
        <ele>1245.2</ele>
        <time>2017-07-23T11:53:40Z</time>
      </trkpt>
      <trkpt lat="44.3407220" lon="7.0707140">
        <ele>1245.2</ele>
        <time>2017-07-23T11:53:41Z</time>
      </trkpt>
      <trkpt lat="44.3407850" lon="7.0706600">
        <ele>1245.8</ele>
        <time>2017-07-23T11:53:46Z</time>
      </trkpt>
      <trkpt lat="44.3408020" lon="7.0706250">
        <ele>1246.2</ele>
        <time>2017-07-23T11:53:48Z</time>
      </trkpt>
      <trkpt lat="44.3408300" lon="7.0705590">
        <ele>1247.4</ele>
        <time>2017-07-23T11:53:51Z</time>
      </trkpt>
      <trkpt lat="44.3408400" lon="7.0705400">
        <ele>1247.8</ele>
        <time>2017-07-23T11:53:52Z</time>
      </trkpt>
      <trkpt lat="44.3408550" lon="7.0704890">
        <ele>1248.8</ele>
        <time>2017-07-23T11:53:54Z</time>
      </trkpt>
      <trkpt lat="44.3408670" lon="7.0704360">
        <ele>1250.2</ele>
        <time>2017-07-23T11:53:56Z</time>
      </trkpt>
      <trkpt lat="44.3408780" lon="7.0703880">
        <ele>1251.2</ele>
        <time>2017-07-23T11:53:58Z</time>
      </trkpt>
      <trkpt lat="44.3409080" lon="7.0703090">
        <ele>1252.4</ele>
        <time>2017-07-23T11:54:01Z</time>
      </trkpt>
      <trkpt lat="44.3409340" lon="7.0702120">
        <ele>1253.4</ele>
        <time>2017-07-23T11:54:04Z</time>
      </trkpt>
      <trkpt lat="44.3409460" lon="7.0701500">
        <ele>1254.6</ele>
        <time>2017-07-23T11:54:06Z</time>
      </trkpt>
      <trkpt lat="44.3409540" lon="7.0700890">
        <ele>1255.6</ele>
        <time>2017-07-23T11:54:08Z</time>
      </trkpt>
      <trkpt lat="44.3409690" lon="7.0700200">
        <ele>1256.8</ele>
        <time>2017-07-23T11:54:10Z</time>
      </trkpt>
      <trkpt lat="44.3409940" lon="7.0699430">
        <ele>1257.4</ele>
        <time>2017-07-23T11:54:12Z</time>
      </trkpt>
      <trkpt lat="44.3410150" lon="7.0698790">
        <ele>1258.0</ele>
        <time>2017-07-23T11:54:14Z</time>
      </trkpt>
      <trkpt lat="44.3410710" lon="7.0697590">
        <ele>1259.2</ele>
        <time>2017-07-23T11:54:19Z</time>
      </trkpt>
      <trkpt lat="44.3410840" lon="7.0697390">
        <ele>1259.6</ele>
        <time>2017-07-23T11:54:20Z</time>
      </trkpt>
      <trkpt lat="44.3411010" lon="7.0696940">
        <ele>1260.2</ele>
        <time>2017-07-23T11:54:22Z</time>
      </trkpt>
      <trkpt lat="44.3411230" lon="7.0696250">
        <ele>1261.2</ele>
        <time>2017-07-23T11:54:25Z</time>
      </trkpt>
      <trkpt lat="44.3411430" lon="7.0695580">
        <ele>1262.4</ele>
        <time>2017-07-23T11:54:28Z</time>
      </trkpt>
      <trkpt lat="44.3411470" lon="7.0695390">
        <ele>1262.8</ele>
        <time>2017-07-23T11:54:29Z</time>
      </trkpt>
      <trkpt lat="44.3411590" lon="7.0695070">
        <ele>1263.6</ele>
        <time>2017-07-23T11:54:31Z</time>
      </trkpt>
      <trkpt lat="44.3414540" lon="7.0689280">
        <ele>1280.0</ele>
        <time>2017-07-23T11:55:46Z</time>
      </trkpt>
      <trkpt lat="44.3414610" lon="7.0689160">
        <ele>1280.2</ele>
        <time>2017-07-23T11:55:47Z</time>
      </trkpt>
      <trkpt lat="44.3415010" lon="7.0687560">
        <ele>1282.6</ele>
        <time>2017-07-23T11:56:01Z</time>
      </trkpt>
      <trkpt lat="44.3415030" lon="7.0686950">
        <ele>1282.8</ele>
        <time>2017-07-23T11:56:04Z</time>
      </trkpt>
      <trkpt lat="44.3415330" lon="7.0686220">
        <ele>1283.6</ele>
        <time>2017-07-23T11:56:08Z</time>
      </trkpt>
      <trkpt lat="44.3415630" lon="7.0685500">
        <ele>1284.6</ele>
        <time>2017-07-23T11:56:11Z</time>
      </trkpt>
      <trkpt lat="44.3415750" lon="7.0685240">
        <ele>1284.8</ele>
        <time>2017-07-23T11:56:12Z</time>
      </trkpt>
      <trkpt lat="44.3416360" lon="7.0683610">
        <ele>1285.8</ele>
        <time>2017-07-23T11:56:19Z</time>
      </trkpt>
      <trkpt lat="44.3416740" lon="7.0682700">
        <ele>1287.0</ele>
        <time>2017-07-23T11:56:23Z</time>
      </trkpt>
      <trkpt lat="44.3417000" lon="7.0682080">
        <ele>1287.6</ele>
        <time>2017-07-23T11:56:26Z</time>
      </trkpt>
      <trkpt lat="44.3417230" lon="7.0681780">
        <ele>1288.2</ele>
        <time>2017-07-23T11:56:28Z</time>
      </trkpt>
      <trkpt lat="44.3417650" lon="7.0681170">
        <ele>1289.4</ele>
        <time>2017-07-23T11:56:32Z</time>
      </trkpt>
      <trkpt lat="44.3418020" lon="7.0680120">
        <ele>1290.4</ele>
        <time>2017-07-23T11:56:37Z</time>
      </trkpt>
      <trkpt lat="44.3418210" lon="7.0679650">
        <ele>1290.8</ele>
        <time>2017-07-23T11:56:39Z</time>
      </trkpt>
      <trkpt lat="44.3418390" lon="7.0678970">
        <ele>1291.8</ele>
        <time>2017-07-23T11:56:42Z</time>
      </trkpt>
      <trkpt lat="44.3418680" lon="7.0678070">
        <ele>1292.8</ele>
        <time>2017-07-23T11:56:46Z</time>
      </trkpt>
      <trkpt lat="44.3419060" lon="7.0677160">
        <ele>1294.0</ele>
        <time>2017-07-23T11:56:50Z</time>
      </trkpt>
      <trkpt lat="44.3419530" lon="7.0675890">
        <ele>1295.2</ele>
        <time>2017-07-23T11:56:55Z</time>
      </trkpt>
      <trkpt lat="44.3419950" lon="7.0674370">
        <ele>1296.0</ele>
        <time>2017-07-23T11:57:02Z</time>
      </trkpt>
      <trkpt lat="44.3431500" lon="7.0654040">
        <ele>1328.8</ele>
        <time>2017-07-23T12:00:50Z</time>
      </trkpt>
      <trkpt lat="44.3431620" lon="7.0653880">
        <ele>1329.0</ele>
        <time>2017-07-23T12:00:51Z</time>
      </trkpt>
      <trkpt lat="44.3432410" lon="7.0653360">
        <ele>1329.2</ele>
        <time>2017-07-23T12:00:55Z</time>
      </trkpt>
      <trkpt lat="44.3432680" lon="7.0653120">
        <ele>1328.8</ele>
        <time>2017-07-23T12:00:57Z</time>
      </trkpt>
      <trkpt lat="44.3433150" lon="7.0652920">
        <ele>1330.0</ele>
        <time>2017-07-23T12:01:00Z</time>
      </trkpt>
      <trkpt lat="44.3433720" lon="7.0652420">
        <ele>1331.4</ele>
        <time>2017-07-23T12:01:08Z</time>
      </trkpt>
      <trkpt lat="44.3434150" lon="7.0652090">
        <ele>1330.8</ele>
        <time>2017-07-23T12:01:11Z</time>
      </trkpt>
      <trkpt lat="44.3434330" lon="7.0651970">
        <ele>1330.8</ele>
        <time>2017-07-23T12:01:12Z</time>
      </trkpt>
      <trkpt lat="44.3434890" lon="7.0651780">
        <ele>1330.6</ele>
        <time>2017-07-23T12:01:15Z</time>
      </trkpt>
      <trkpt lat="44.3435670" lon="7.0651240">
        <ele>1330.6</ele>
        <time>2017-07-23T12:01:19Z</time>
      </trkpt>
      <trkpt lat="44.3437020" lon="7.0650770">
        <ele>1331.2</ele>
        <time>2017-07-23T12:01:26Z</time>
      </trkpt>
      <trkpt lat="44.3438190" lon="7.0650280">
        <ele>1333.2</ele>
        <time>2017-07-23T12:01:41Z</time>
      </trkpt>
      <trkpt lat="44.3439020" lon="7.0650170">
        <ele>1333.4</ele>
        <time>2017-07-23T12:01:46Z</time>
      </trkpt>
      <trkpt lat="44.3439270" lon="7.0650150">
        <ele>1333.6</ele>
        <time>2017-07-23T12:01:47Z</time>
      </trkpt>
      <trkpt lat="44.3440420" lon="7.0650100">
        <ele>1334.8</ele>
        <time>2017-07-23T12:01:52Z</time>
      </trkpt>
      <trkpt lat="44.3441060" lon="7.0650000">
        <ele>1335.0</ele>
        <time>2017-07-23T12:01:54Z</time>
      </trkpt>
      <trkpt lat="44.3442330" lon="7.0649970">
        <ele>1336.0</ele>
        <time>2017-07-23T12:01:58Z</time>
      </trkpt>
      <trkpt lat="44.3443190" lon="7.0650030">
        <ele>1336.8</ele>
        <time>2017-07-23T12:02:01Z</time>
      </trkpt>
      <trkpt lat="44.3443330" lon="7.0650040">
        <ele>1337.2</ele>
        <time>2017-07-23T12:02:02Z</time>
      </trkpt>
      <trkpt lat="44.3443960" lon="7.0650010">
        <ele>1338.2</ele>
        <time>2017-07-23T12:02:05Z</time>
      </trkpt>
      <trkpt lat="44.3444200" lon="7.0650030">
        <ele>1338.6</ele>
        <time>2017-07-23T12:02:06Z</time>
      </trkpt>
      <trkpt lat="44.3444710" lon="7.0650040">
        <ele>1339.6</ele>
        <time>2017-07-23T12:02:08Z</time>
      </trkpt>
      <trkpt lat="44.3445400" lon="7.0649980">
        <ele>1340.6</ele>
        <time>2017-07-23T12:02:12Z</time>
      </trkpt>
      <trkpt lat="44.3445640" lon="7.0649840">
        <ele>1340.6</ele>
        <time>2017-07-23T12:02:14Z</time>
      </trkpt>
      <trkpt lat="44.3445820" lon="7.0649760">
        <ele>1340.8</ele>
        <time>2017-07-23T12:02:15Z</time>
      </trkpt>
      <trkpt lat="44.3446390" lon="7.0649680">
        <ele>1341.4</ele>
        <time>2017-07-23T12:02:18Z</time>
      </trkpt>
      <trkpt lat="44.3446700" lon="7.0649740">
        <ele>1341.8</ele>
        <time>2017-07-23T12:02:20Z</time>
      </trkpt>
      <trkpt lat="44.3447530" lon="7.0649680">
        <ele>1342.4</ele>
        <time>2017-07-23T12:02:24Z</time>
      </trkpt>
      <trkpt lat="44.3447770" lon="7.0649560">
        <ele>1342.6</ele>
        <time>2017-07-23T12:02:25Z</time>
      </trkpt>
      <trkpt lat="44.3448490" lon="7.0649350">
        <ele>1343.2</ele>
        <time>2017-07-23T12:02:28Z</time>
      </trkpt>
      <trkpt lat="44.3449060" lon="7.0649220">
        <ele>1343.4</ele>
        <time>2017-07-23T12:02:31Z</time>
      </trkpt>
      <trkpt lat="44.3449710" lon="7.0649350">
        <ele>1344.6</ele>
        <time>2017-07-23T12:02:35Z</time>
      </trkpt>
      <trkpt lat="44.3450150" lon="7.0649220">
        <ele>1345.4</ele>
        <time>2017-07-23T12:02:37Z</time>
      </trkpt>
      <trkpt lat="44.3450590" lon="7.0649090">
        <ele>1345.8</ele>
        <time>2017-07-23T12:02:39Z</time>
      </trkpt>
      <trkpt lat="44.3451090" lon="7.0648980">
        <ele>1347.2</ele>
        <time>2017-07-23T12:02:42Z</time>
      </trkpt>
      <trkpt lat="44.3451240" lon="7.0648940">
        <ele>1347.4</ele>
        <time>2017-07-23T12:02:43Z</time>
      </trkpt>
      <trkpt lat="44.3451670" lon="7.0648900">
        <ele>1348.2</ele>
        <time>2017-07-23T12:02:46Z</time>
      </trkpt>
      <trkpt lat="44.3452100" lon="7.0648680">
        <ele>1349.2</ele>
        <time>2017-07-23T12:02:49Z</time>
      </trkpt>
      <trkpt lat="44.3452560" lon="7.0648350">
        <ele>1349.4</ele>
        <time>2017-07-23T12:02:52Z</time>
      </trkpt>
      <trkpt lat="44.3453410" lon="7.0647880">
        <ele>1350.4</ele>
        <time>2017-07-23T12:02:57Z</time>
      </trkpt>
      <trkpt lat="44.3453940" lon="7.0647480">
        <ele>1350.4</ele>
        <time>2017-07-23T12:03:00Z</time>
      </trkpt>
      <trkpt lat="44.3455020" lon="7.0647160">
        <ele>1350.6</ele>
        <time>2017-07-23T12:03:07Z</time>
      </trkpt>
      <trkpt lat="44.3456340" lon="7.0646430">
        <ele>1350.4</ele>
        <time>2017-07-23T12:03:13Z</time>
      </trkpt>
      <trkpt lat="44.3457560" lon="7.0646120">
        <ele>1351.6</ele>
        <time>2017-07-23T12:03:18Z</time>
      </trkpt>
      <trkpt lat="44.3457770" lon="7.0646130">
        <ele>1351.8</ele>
        <time>2017-07-23T12:03:19Z</time>
      </trkpt>
      <trkpt lat="44.3458430" lon="7.0646070">
        <ele>1353.0</ele>
        <time>2017-07-23T12:03:22Z</time>
      </trkpt>
      <trkpt lat="44.3458800" lon="7.0646170">
        <ele>1354.2</ele>
        <time>2017-07-23T12:03:24Z</time>
      </trkpt>
      <trkpt lat="44.3458970" lon="7.0646440">
        <ele>1355.2</ele>
        <time>2017-07-23T12:03:26Z</time>
      </trkpt>
      <trkpt lat="44.3459700" lon="7.0647560">
        <ele>1356.0</ele>
        <time>2017-07-23T12:03:30Z</time>
      </trkpt>
      <trkpt lat="44.3460670" lon="7.0648490">
        <ele>1356.6</ele>
        <time>2017-07-23T12:03:34Z</time>
      </trkpt>
      <trkpt lat="44.3461250" lon="7.0648840">
        <ele>1357.2</ele>
        <time>2017-07-23T12:03:36Z</time>
      </trkpt>
      <trkpt lat="44.3461850" lon="7.0649070">
        <ele>1357.8</ele>
        <time>2017-07-23T12:03:38Z</time>
      </trkpt>
      <trkpt lat="44.3462840" lon="7.0649280">
        <ele>1358.4</ele>
        <time>2017-07-23T12:03:41Z</time>
      </trkpt>
      <trkpt lat="44.3463300" lon="7.0648990">
        <ele>1358.6</ele>
        <time>2017-07-23T12:03:43Z</time>
      </trkpt>
      <trkpt lat="44.3463630" lon="7.0648140">
        <ele>1358.2</ele>
        <time>2017-07-23T12:03:45Z</time>
      </trkpt>
      <trkpt lat="44.3464640" lon="7.0646760">
        <ele>1357.8</ele>
        <time>2017-07-23T12:03:50Z</time>
      </trkpt>
      <trkpt lat="44.3464980" lon="7.0646580">
        <ele>1357.8</ele>
        <time>2017-07-23T12:03:51Z</time>
      </trkpt>
      <trkpt lat="44.3466860" lon="7.0645410">
        <ele>1357.8</ele>
        <time>2017-07-23T12:03:57Z</time>
      </trkpt>
      <trkpt lat="44.3467140" lon="7.0645320">
        <ele>1357.8</ele>
        <time>2017-07-23T12:03:58Z</time>
      </trkpt>
      <trkpt lat="44.3468200" lon="7.0645190">
        <ele>1358.0</ele>
        <time>2017-07-23T12:04:02Z</time>
      </trkpt>
      <trkpt lat="44.3468560" lon="7.0645200">
        <ele>1358.2</ele>
        <time>2017-07-23T12:04:04Z</time>
      </trkpt>
      <trkpt lat="44.3469610" lon="7.0645120">
        <ele>1359.0</ele>
        <time>2017-07-23T12:04:08Z</time>
      </trkpt>
      <trkpt lat="44.3470250" lon="7.0645260">
        <ele>1360.0</ele>
        <time>2017-07-23T12:04:11Z</time>
      </trkpt>
      <trkpt lat="44.3471910" lon="7.0645140">
        <ele>1360.8</ele>
        <time>2017-07-23T12:04:17Z</time>
      </trkpt>
      <trkpt lat="44.3472950" lon="7.0644600">
        <ele>1361.0</ele>
        <time>2017-07-23T12:04:21Z</time>
      </trkpt>
      <trkpt lat="44.3473750" lon="7.0644580">
        <ele>1361.0</ele>
        <time>2017-07-23T12:04:24Z</time>
      </trkpt>
      <trkpt lat="44.3474030" lon="7.0644560">
        <ele>1361.2</ele>
        <time>2017-07-23T12:04:25Z</time>
      </trkpt>
      <trkpt lat="44.3475550" lon="7.0645220">
        <ele>1362.2</ele>
        <time>2017-07-23T12:04:30Z</time>
      </trkpt>
      <trkpt lat="44.3475780" lon="7.0645550">
        <ele>1362.4</ele>
        <time>2017-07-23T12:04:31Z</time>
      </trkpt>
      <trkpt lat="44.3476160" lon="7.0646080">
        <ele>1363.2</ele>
        <time>2017-07-23T12:04:33Z</time>
      </trkpt>
      <trkpt lat="44.3476800" lon="7.0646640">
        <ele>1364.4</ele>
        <time>2017-07-23T12:04:36Z</time>
      </trkpt>
      <trkpt lat="44.3477320" lon="7.0646940">
        <ele>1365.0</ele>
        <time>2017-07-23T12:04:38Z</time>
      </trkpt>
      <trkpt lat="44.3477620" lon="7.0647120">
        <ele>1365.6</ele>
        <time>2017-07-23T12:04:40Z</time>
      </trkpt>
      <trkpt lat="44.3478550" lon="7.0647750">
        <ele>1366.4</ele>
        <time>2017-07-23T12:04:44Z</time>
      </trkpt>
      <trkpt lat="44.3479100" lon="7.0648080">
        <ele>1366.6</ele>
        <time>2017-07-23T12:04:45Z</time>
      </trkpt>
      <trkpt lat="44.3480480" lon="7.0648580">
        <ele>1367.4</ele>
        <time>2017-07-23T12:04:49Z</time>
      </trkpt>
      <trkpt lat="44.3480860" lon="7.0648500">
        <ele>1367.6</ele>
        <time>2017-07-23T12:04:50Z</time>
      </trkpt>
      <trkpt lat="44.3481150" lon="7.0648500">
        <ele>1368.0</ele>
        <time>2017-07-23T12:04:51Z</time>
      </trkpt>
      <trkpt lat="44.3481870" lon="7.0648260">
        <ele>1368.2</ele>
        <time>2017-07-23T12:04:54Z</time>
      </trkpt>
      <trkpt lat="44.3482790" lon="7.0647740">
        <ele>1368.4</ele>
        <time>2017-07-23T12:04:58Z</time>
      </trkpt>
      <trkpt lat="44.3482950" lon="7.0647470">
        <ele>1368.8</ele>
        <time>2017-07-23T12:04:59Z</time>
      </trkpt>
      <trkpt lat="44.3483410" lon="7.0645110">
        <ele>1368.8</ele>
        <time>2017-07-23T12:05:04Z</time>
      </trkpt>
      <trkpt lat="44.3483870" lon="7.0641660">
        <ele>1368.8</ele>
        <time>2017-07-23T12:05:10Z</time>
      </trkpt>
      <trkpt lat="44.3484940" lon="7.0639410">
        <ele>1368.6</ele>
        <time>2017-07-23T12:05:15Z</time>
      </trkpt>
      <trkpt lat="44.3485830" lon="7.0638310">
        <ele>1368.6</ele>
        <time>2017-07-23T12:05:18Z</time>
      </trkpt>
      <trkpt lat="44.3486820" lon="7.0636840">
        <ele>1368.4</ele>
        <time>2017-07-23T12:05:21Z</time>
      </trkpt>
      <trkpt lat="44.3487880" lon="7.0636330">
        <ele>1369.0</ele>
        <time>2017-07-23T12:05:25Z</time>
      </trkpt>
      <trkpt lat="44.3488870" lon="7.0635930">
        <ele>1369.8</ele>
        <time>2017-07-23T12:05:30Z</time>
      </trkpt>
      <trkpt lat="44.3489100" lon="7.0635810">
        <ele>1370.0</ele>
        <time>2017-07-23T12:05:31Z</time>
      </trkpt>
      <trkpt lat="44.3491010" lon="7.0634950">
        <ele>1370.2</ele>
        <time>2017-07-23T12:05:37Z</time>
      </trkpt>
      <trkpt lat="44.3492430" lon="7.0633830">
        <ele>1369.8</ele>
        <time>2017-07-23T12:05:42Z</time>
      </trkpt>
      <trkpt lat="44.3494500" lon="7.0633060">
        <ele>1370.0</ele>
        <time>2017-07-23T12:05:48Z</time>
      </trkpt>
      <trkpt lat="44.3497130" lon="7.0632110">
        <ele>1370.0</ele>
        <time>2017-07-23T12:05:55Z</time>
      </trkpt>
      <trkpt lat="44.3500460" lon="7.0630840">
        <ele>1370.4</ele>
        <time>2017-07-23T12:06:03Z</time>
      </trkpt>
      <trkpt lat="44.3501370" lon="7.0630850">
        <ele>1370.6</ele>
        <time>2017-07-23T12:06:05Z</time>
      </trkpt>
      <trkpt lat="44.3501850" lon="7.0631050">
        <ele>1371.0</ele>
        <time>2017-07-23T12:06:06Z</time>
      </trkpt>
      <trkpt lat="44.3502390" lon="7.0631210">
        <ele>1371.0</ele>
        <time>2017-07-23T12:06:07Z</time>
      </trkpt>
      <trkpt lat="44.3503490" lon="7.0631350">
        <ele>1371.4</ele>
        <time>2017-07-23T12:06:09Z</time>
      </trkpt>
      <trkpt lat="44.3504980" lon="7.0631110">
        <ele>1371.8</ele>
        <time>2017-07-23T12:06:12Z</time>
      </trkpt>
      <trkpt lat="44.3505410" lon="7.0631140">
        <ele>1372.0</ele>
        <time>2017-07-23T12:06:13Z</time>
      </trkpt>
      <trkpt lat="44.3506250" lon="7.0632200">
        <ele>1372.6</ele>
        <time>2017-07-23T12:06:16Z</time>
      </trkpt>
      <trkpt lat="44.3506720" lon="7.0633240">
        <ele>1373.0</ele>
        <time>2017-07-23T12:06:18Z</time>
      </trkpt>
      <trkpt lat="44.3507030" lon="7.0633530">
        <ele>1373.0</ele>
        <time>2017-07-23T12:06:19Z</time>
      </trkpt>
      <trkpt lat="44.3507360" lon="7.0633560">
        <ele>1373.2</ele>
        <time>2017-07-23T12:06:20Z</time>
      </trkpt>
      <trkpt lat="44.3508560" lon="7.0634130">
        <ele>1373.2</ele>
        <time>2017-07-23T12:06:23Z</time>
      </trkpt>
      <trkpt lat="44.3509040" lon="7.0634660">
        <ele>1373.2</ele>
        <time>2017-07-23T12:06:24Z</time>
      </trkpt>
      <trkpt lat="44.3509570" lon="7.0635180">
        <ele>1373.2</ele>
        <time>2017-07-23T12:06:25Z</time>
      </trkpt>
      <trkpt lat="44.3510540" lon="7.0636150">
        <ele>1372.8</ele>
        <time>2017-07-23T12:06:27Z</time>
      </trkpt>
      <trkpt lat="44.3510860" lon="7.0636860">
        <ele>1373.0</ele>
        <time>2017-07-23T12:06:28Z</time>
      </trkpt>
      <trkpt lat="44.3512330" lon="7.0637880">
        <ele>1371.8</ele>
        <time>2017-07-23T12:06:31Z</time>
      </trkpt>
      <trkpt lat="44.3512770" lon="7.0638100">
        <ele>1371.8</ele>
        <time>2017-07-23T12:06:32Z</time>
      </trkpt>
      <trkpt lat="44.3513500" lon="7.0638430">
        <ele>1371.8</ele>
        <time>2017-07-23T12:06:34Z</time>
      </trkpt>
      <trkpt lat="44.3513750" lon="7.0638360">
        <ele>1371.8</ele>
        <time>2017-07-23T12:06:35Z</time>
      </trkpt>
      <trkpt lat="44.3514530" lon="7.0637780">
        <ele>1371.8</ele>
        <time>2017-07-23T12:06:39Z</time>
      </trkpt>
      <trkpt lat="44.3513890" lon="7.0636310">
        <ele>1370.6</ele>
        <time>2017-07-23T12:06:42Z</time>
      </trkpt>
      <trkpt lat="44.3513700" lon="7.0635820">
        <ele>1370.2</ele>
        <time>2017-07-23T12:06:43Z</time>
      </trkpt>
      <trkpt lat="44.3513360" lon="7.0634940">
        <ele>1369.4</ele>
        <time>2017-07-23T12:06:45Z</time>
      </trkpt>
      <trkpt lat="44.3513220" lon="7.0634090">
        <ele>1368.6</ele>
        <time>2017-07-23T12:06:47Z</time>
      </trkpt>
      <trkpt lat="44.3513160" lon="7.0633640">
        <ele>1368.4</ele>
        <time>2017-07-23T12:06:48Z</time>
      </trkpt>
      <trkpt lat="44.3513030" lon="7.0632040">
        <ele>1367.6</ele>
        <time>2017-07-23T12:06:53Z</time>
      </trkpt>
      <trkpt lat="44.3513020" lon="7.0631550">
        <ele>1368.2</ele>
        <time>2017-07-23T12:06:55Z</time>
      </trkpt>
      <trkpt lat="44.3513030" lon="7.0631290">
        <ele>1368.2</ele>
        <time>2017-07-23T12:06:56Z</time>
      </trkpt>
      <trkpt lat="44.3513060" lon="7.0630680">
        <ele>1368.4</ele>
        <time>2017-07-23T12:06:59Z</time>
      </trkpt>
      <trkpt lat="44.3513220" lon="7.0630200">
        <ele>1368.6</ele>
        <time>2017-07-23T12:07:01Z</time>
      </trkpt>
      <trkpt lat="44.3513600" lon="7.0629280">
        <ele>1368.8</ele>
        <time>2017-07-23T12:07:05Z</time>
      </trkpt>
      <trkpt lat="44.3513690" lon="7.0629060">
        <ele>1368.8</ele>
        <time>2017-07-23T12:07:06Z</time>
      </trkpt>
      <trkpt lat="44.3513620" lon="7.0628050">
        <ele>1368.4</ele>
        <time>2017-07-23T12:07:10Z</time>
      </trkpt>
      <trkpt lat="44.3513480" lon="7.0627890">
        <ele>1368.4</ele>
        <time>2017-07-23T12:07:11Z</time>
      </trkpt>
      <trkpt lat="44.3512690" lon="7.0627970">
        <ele>1368.6</ele>
        <time>2017-07-23T12:07:15Z</time>
      </trkpt>
      <trkpt lat="44.3511800" lon="7.0627350">
        <ele>1368.8</ele>
        <time>2017-07-23T12:07:19Z</time>
      </trkpt>
      <trkpt lat="44.3511630" lon="7.0626690">
        <ele>1369.4</ele>
        <time>2017-07-23T12:07:21Z</time>
      </trkpt>
      <trkpt lat="44.3511560" lon="7.0626400">
        <ele>1369.8</ele>
        <time>2017-07-23T12:07:22Z</time>
      </trkpt>
      <trkpt lat="44.3511340" lon="7.0626000">
        <ele>1370.8</ele>
        <time>2017-07-23T12:07:24Z</time>
      </trkpt>
      <trkpt lat="44.3511220" lon="7.0625780">
        <ele>1371.4</ele>
        <time>2017-07-23T12:07:25Z</time>
      </trkpt>
      <trkpt lat="44.3511110" lon="7.0625580">
        <ele>1372.0</ele>
        <time>2017-07-23T12:07:26Z</time>
      </trkpt>
      <trkpt lat="44.3510710" lon="7.0624510">
        <ele>1373.2</ele>
        <time>2017-07-23T12:07:31Z</time>
      </trkpt>
      <trkpt lat="44.3510540" lon="7.0624150">
        <ele>1373.4</ele>
        <time>2017-07-23T12:07:33Z</time>
      </trkpt>
      <trkpt lat="44.3509660" lon="7.0622670">
        <ele>1373.8</ele>
        <time>2017-07-23T12:07:42Z</time>
      </trkpt>
      <trkpt lat="44.3509000" lon="7.0622190">
        <ele>1374.2</ele>
        <time>2017-07-23T12:07:47Z</time>
      </trkpt>
      <trkpt lat="44.3508700" lon="7.0621930">
        <ele>1374.2</ele>
        <time>2017-07-23T12:07:49Z</time>
      </trkpt>
      <trkpt lat="44.3508000" lon="7.0621370">
        <ele>1375.2</ele>
        <time>2017-07-23T12:07:54Z</time>
      </trkpt>
      <trkpt lat="44.3507720" lon="7.0621160">
        <ele>1375.8</ele>
        <time>2017-07-23T12:07:56Z</time>
      </trkpt>
      <trkpt lat="44.3507500" lon="7.0620800">
        <ele>1376.2</ele>
        <time>2017-07-23T12:07:58Z</time>
      </trkpt>
      <trkpt lat="44.3507000" lon="7.0619900">
        <ele>1377.6</ele>
        <time>2017-07-23T12:08:03Z</time>
      </trkpt>
      <trkpt lat="44.3506170" lon="7.0619190">
        <ele>1378.6</ele>
        <time>2017-07-23T12:08:08Z</time>
      </trkpt>
      <trkpt lat="44.3505600" lon="7.0618900">
        <ele>1379.4</ele>
        <time>2017-07-23T12:08:11Z</time>
      </trkpt>
      <trkpt lat="44.3505500" lon="7.0618540">
        <ele>1379.6</ele>
        <time>2017-07-23T12:08:12Z</time>
      </trkpt>
      <trkpt lat="44.3505420" lon="7.0617420">
        <ele>1380.6</ele>
        <time>2017-07-23T12:08:17Z</time>
      </trkpt>
      <trkpt lat="44.3505510" lon="7.0617270">
        <ele>1380.8</ele>
        <time>2017-07-23T12:08:18Z</time>
      </trkpt>
      <trkpt lat="44.3506130" lon="7.0616610">
        <ele>1381.8</ele>
        <time>2017-07-23T12:08:23Z</time>
      </trkpt>
      <trkpt lat="44.3506420" lon="7.0616450">
        <ele>1382.2</ele>
        <time>2017-07-23T12:08:25Z</time>
      </trkpt>
      <trkpt lat="44.3506780" lon="7.0616330">
        <ele>1383.0</ele>
        <time>2017-07-23T12:08:27Z</time>
      </trkpt>
      <trkpt lat="44.3507380" lon="7.0616000">
        <ele>1384.2</ele>
        <time>2017-07-23T12:08:31Z</time>
      </trkpt>
      <trkpt lat="44.3507570" lon="7.0615840">
        <ele>1384.6</ele>
        <time>2017-07-23T12:08:32Z</time>
      </trkpt>
      <trkpt lat="44.3507650" lon="7.0615600">
        <ele>1384.6</ele>
        <time>2017-07-23T12:08:33Z</time>
      </trkpt>
      <trkpt lat="44.3507610" lon="7.0614670">
        <ele>1385.0</ele>
        <time>2017-07-23T12:08:36Z</time>
      </trkpt>
      <trkpt lat="44.3507150" lon="7.0614220">
        <ele>1385.4</ele>
        <time>2017-07-23T12:08:39Z</time>
      </trkpt>
      <trkpt lat="44.3506990" lon="7.0614150">
        <ele>1385.8</ele>
        <time>2017-07-23T12:08:40Z</time>
      </trkpt>
      <trkpt lat="44.3506690" lon="7.0614070">
        <ele>1386.4</ele>
        <time>2017-07-23T12:08:42Z</time>
      </trkpt>
      <trkpt lat="44.3506270" lon="7.0614040">
        <ele>1387.8</ele>
        <time>2017-07-23T12:08:45Z</time>
      </trkpt>
      <trkpt lat="44.3506150" lon="7.0613980">
        <ele>1388.2</ele>
        <time>2017-07-23T12:08:46Z</time>
      </trkpt>
      <trkpt lat="44.3505900" lon="7.0613850">
        <ele>1389.2</ele>
        <time>2017-07-23T12:08:48Z</time>
      </trkpt>
      <trkpt lat="44.3505590" lon="7.0613550">
        <ele>1390.6</ele>
        <time>2017-07-23T12:08:51Z</time>
      </trkpt>
      <trkpt lat="44.3505280" lon="7.0613450">
        <ele>1391.2</ele>
        <time>2017-07-23T12:08:53Z</time>
      </trkpt>
      <trkpt lat="44.3505140" lon="7.0613380">
        <ele>1391.6</ele>
        <time>2017-07-23T12:08:54Z</time>
      </trkpt>
      <trkpt lat="44.3504360" lon="7.0613420">
        <ele>1392.8</ele>
        <time>2017-07-23T12:08:58Z</time>
      </trkpt>
      <trkpt lat="44.3503920" lon="7.0613540">
        <ele>1393.4</ele>
        <time>2017-07-23T12:09:00Z</time>
      </trkpt>
      <trkpt lat="44.3503690" lon="7.0613630">
        <ele>1393.4</ele>
        <time>2017-07-23T12:09:01Z</time>
      </trkpt>
      <trkpt lat="44.3502970" lon="7.0614020">
        <ele>1393.8</ele>
        <time>2017-07-23T12:09:04Z</time>
      </trkpt>
      <trkpt lat="44.3501960" lon="7.0614320">
        <ele>1394.2</ele>
        <time>2017-07-23T12:09:08Z</time>
      </trkpt>
      <trkpt lat="44.3500910" lon="7.0614370">
        <ele>1394.8</ele>
        <time>2017-07-23T12:09:14Z</time>
      </trkpt>
      <trkpt lat="44.3500750" lon="7.0614440">
        <ele>1395.0</ele>
        <time>2017-07-23T12:09:15Z</time>
      </trkpt>
      <trkpt lat="44.3499520" lon="7.0615310">
        <ele>1395.2</ele>
        <time>2017-07-23T12:09:21Z</time>
      </trkpt>
      <trkpt lat="44.3497800" lon="7.0615220">
        <ele>1396.0</ele>
        <time>2017-07-23T12:09:27Z</time>
      </trkpt>
      <trkpt lat="44.3497400" lon="7.0614930">
        <ele>1396.4</ele>
        <time>2017-07-23T12:09:29Z</time>
      </trkpt>
      <trkpt lat="44.3497240" lon="7.0614470">
        <ele>1396.4</ele>
        <time>2017-07-23T12:09:31Z</time>
      </trkpt>
      <trkpt lat="44.3497140" lon="7.0613800">
        <ele>1397.0</ele>
        <time>2017-07-23T12:09:34Z</time>
      </trkpt>
      <trkpt lat="44.3497160" lon="7.0613530">
        <ele>1397.0</ele>
        <time>2017-07-23T12:09:35Z</time>
      </trkpt>
      <trkpt lat="44.3497050" lon="7.0612590">
        <ele>1398.2</ele>
        <time>2017-07-23T12:09:39Z</time>
      </trkpt>
      <trkpt lat="44.3496950" lon="7.0612300">
        <ele>1398.6</ele>
        <time>2017-07-23T12:09:40Z</time>
      </trkpt>
      <trkpt lat="44.3496550" lon="7.0611530">
        <ele>1399.4</ele>
        <time>2017-07-23T12:09:43Z</time>
      </trkpt>
      <trkpt lat="44.3495770" lon="7.0610540">
        <ele>1400.0</ele>
        <time>2017-07-23T12:09:47Z</time>
      </trkpt>
      <trkpt lat="44.3495270" lon="7.0610030">
        <ele>1400.4</ele>
        <time>2017-07-23T12:09:50Z</time>
      </trkpt>
      <trkpt lat="44.3495010" lon="7.0609670">
        <ele>1400.6</ele>
        <time>2017-07-23T12:09:52Z</time>
      </trkpt>
      <trkpt lat="44.3495010" lon="7.0609350">
        <ele>1400.8</ele>
        <time>2017-07-23T12:09:53Z</time>
      </trkpt>
      <trkpt lat="44.3495180" lon="7.0608520">
        <ele>1401.4</ele>
        <time>2017-07-23T12:09:56Z</time>
      </trkpt>
      <trkpt lat="44.3495270" lon="7.0608220">
        <ele>1402.0</ele>
        <time>2017-07-23T12:09:57Z</time>
      </trkpt>
      <trkpt lat="44.3495430" lon="7.0606600">
        <ele>1402.4</ele>
        <time>2017-07-23T12:10:00Z</time>
      </trkpt>
      <trkpt lat="44.3495480" lon="7.0605870">
        <ele>1402.2</ele>
        <time>2017-07-23T12:10:01Z</time>
      </trkpt>
      <trkpt lat="44.3495930" lon="7.0602480">
        <ele>1402.0</ele>
        <time>2017-07-23T12:10:05Z</time>
      </trkpt>
      <trkpt lat="44.3496060" lon="7.0601670">
        <ele>1401.8</ele>
        <time>2017-07-23T12:10:06Z</time>
      </trkpt>
      <trkpt lat="44.3496240" lon="7.0600050">
        <ele>1402.0</ele>
        <time>2017-07-23T12:10:08Z</time>
      </trkpt>
      <trkpt lat="44.3496120" lon="7.0598560">
        <ele>1402.4</ele>
        <time>2017-07-23T12:10:10Z</time>
      </trkpt>
      <trkpt lat="44.3495890" lon="7.0597870">
        <ele>1402.4</ele>
        <time>2017-07-23T12:10:11Z</time>
      </trkpt>
      <trkpt lat="44.3495030" lon="7.0595800">
        <ele>1402.4</ele>
        <time>2017-07-23T12:10:14Z</time>
      </trkpt>
      <trkpt lat="44.3494140" lon="7.0594960">
        <ele>1402.0</ele>
        <time>2017-07-23T12:10:16Z</time>
      </trkpt>
      <trkpt lat="44.3493580" lon="7.0594670">
        <ele>1401.8</ele>
        <time>2017-07-23T12:10:17Z</time>
      </trkpt>
      <trkpt lat="44.3493010" lon="7.0594380">
        <ele>1401.8</ele>
        <time>2017-07-23T12:10:18Z</time>
      </trkpt>
      <trkpt lat="44.3492450" lon="7.0594300">
        <ele>1401.8</ele>
        <time>2017-07-23T12:10:19Z</time>
      </trkpt>
      <trkpt lat="44.3491370" lon="7.0594190">
        <ele>1401.8</ele>
        <time>2017-07-23T12:10:21Z</time>
      </trkpt>
      <trkpt lat="44.3488490" lon="7.0594060">
        <ele>1401.6</ele>
        <time>2017-07-23T12:10:27Z</time>
      </trkpt>
      <trkpt lat="44.3488040" lon="7.0594120">
        <ele>1401.6</ele>
        <time>2017-07-23T12:10:28Z</time>
      </trkpt>
      <trkpt lat="44.3487210" lon="7.0594380">
        <ele>1402.0</ele>
        <time>2017-07-23T12:10:30Z</time>
      </trkpt>
      <trkpt lat="44.3485980" lon="7.0595140">
        <ele>1402.2</ele>
        <time>2017-07-23T12:10:33Z</time>
      </trkpt>
      <trkpt lat="44.3485110" lon="7.0595450">
        <ele>1402.0</ele>
        <time>2017-07-23T12:10:35Z</time>
      </trkpt>
      <trkpt lat="44.3484440" lon="7.0594950">
        <ele>1402.0</ele>
        <time>2017-07-23T12:10:37Z</time>
      </trkpt>
      <trkpt lat="44.3484080" lon="7.0593940">
        <ele>1402.0</ele>
        <time>2017-07-23T12:10:39Z</time>
      </trkpt>
      <trkpt lat="44.3483970" lon="7.0593370">
        <ele>1402.0</ele>
        <time>2017-07-23T12:10:40Z</time>
      </trkpt>
      <trkpt lat="44.3483840" lon="7.0592780">
        <ele>1402.0</ele>
        <time>2017-07-23T12:10:41Z</time>
      </trkpt>
      <trkpt lat="44.3482340" lon="7.0589140">
        <ele>1402.2</ele>
        <time>2017-07-23T12:10:47Z</time>
      </trkpt>
      <trkpt lat="44.3481550" lon="7.0587300">
        <ele>1402.6</ele>
        <time>2017-07-23T12:10:50Z</time>
      </trkpt>
      <trkpt lat="44.3480780" lon="7.0586840">
        <ele>1402.2</ele>
        <time>2017-07-23T12:10:52Z</time>
      </trkpt>
      <trkpt lat="44.3480410" lon="7.0587230">
        <ele>1402.4</ele>
        <time>2017-07-23T12:10:53Z</time>
      </trkpt>
      <trkpt lat="44.3479430" lon="7.0589220">
        <ele>1403.6</ele>
        <time>2017-07-23T12:10:56Z</time>
      </trkpt>
      <trkpt lat="44.3479150" lon="7.0589950">
        <ele>1403.8</ele>
        <time>2017-07-23T12:10:57Z</time>
      </trkpt>
      <trkpt lat="44.3478940" lon="7.0590630">
        <ele>1404.0</ele>
        <time>2017-07-23T12:10:58Z</time>
      </trkpt>
      <trkpt lat="44.3478760" lon="7.0591220">
        <ele>1404.6</ele>
        <time>2017-07-23T12:10:59Z</time>
      </trkpt>
      <trkpt lat="44.3478060" lon="7.0593190">
        <ele>1405.6</ele>
        <time>2017-07-23T12:11:03Z</time>
      </trkpt>
      <trkpt lat="44.3477910" lon="7.0593620">
        <ele>1406.0</ele>
        <time>2017-07-23T12:11:04Z</time>
      </trkpt>
      <trkpt lat="44.3477240" lon="7.0595470">
        <ele>1407.0</ele>
        <time>2017-07-23T12:11:09Z</time>
      </trkpt>
      <trkpt lat="44.3477110" lon="7.0595850">
        <ele>1407.2</ele>
        <time>2017-07-23T12:11:10Z</time>
      </trkpt>
      <trkpt lat="44.3475800" lon="7.0599050">
        <ele>1407.4</ele>
        <time>2017-07-23T12:11:18Z</time>
      </trkpt>
      <trkpt lat="44.3474680" lon="7.0601050">
        <ele>1407.4</ele>
        <time>2017-07-23T12:11:22Z</time>
      </trkpt>
      <trkpt lat="44.3474240" lon="7.0601600">
        <ele>1407.0</ele>
        <time>2017-07-23T12:11:23Z</time>
      </trkpt>
      <trkpt lat="44.3472430" lon="7.0603730">
        <ele>1406.6</ele>
        <time>2017-07-23T12:11:26Z</time>
      </trkpt>
      <trkpt lat="44.3470830" lon="7.0605280">
        <ele>1406.4</ele>
        <time>2017-07-23T12:11:29Z</time>
      </trkpt>
      <trkpt lat="44.3468730" lon="7.0604950">
        <ele>1406.6</ele>
        <time>2017-07-23T12:11:34Z</time>
      </trkpt>
      <trkpt lat="44.3466580" lon="7.0604570">
        <ele>1405.8</ele>
        <time>2017-07-23T12:11:38Z</time>
      </trkpt>
      <trkpt lat="44.3465470" lon="7.0604310">
        <ele>1405.4</ele>
        <time>2017-07-23T12:11:40Z</time>
      </trkpt>
      <trkpt lat="44.3462080" lon="7.0603620">
        <ele>1404.8</ele>
        <time>2017-07-23T12:11:46Z</time>
      </trkpt>
      <trkpt lat="44.3461530" lon="7.0603680">
        <ele>1404.8</ele>
        <time>2017-07-23T12:11:47Z</time>
      </trkpt>
      <trkpt lat="44.3460430" lon="7.0603990">
        <ele>1404.6</ele>
        <time>2017-07-23T12:11:49Z</time>
      </trkpt>
      <trkpt lat="44.3460060" lon="7.0604410">
        <ele>1404.6</ele>
        <time>2017-07-23T12:11:50Z</time>
      </trkpt>
      <trkpt lat="44.3459730" lon="7.0604760">
        <ele>1404.8</ele>
        <time>2017-07-23T12:11:51Z</time>
      </trkpt>
      <trkpt lat="44.3458910" lon="7.0605180">
        <ele>1405.2</ele>
        <time>2017-07-23T12:11:54Z</time>
      </trkpt>
      <trkpt lat="44.3458700" lon="7.0605010">
        <ele>1405.0</ele>
        <time>2017-07-23T12:11:55Z</time>
      </trkpt>
      <trkpt lat="44.3458300" lon="7.0603590">
        <ele>1405.0</ele>
        <time>2017-07-23T12:11:58Z</time>
      </trkpt>
      <trkpt lat="44.3458010" lon="7.0603050">
        <ele>1404.8</ele>
        <time>2017-07-23T12:11:59Z</time>
      </trkpt>
      <trkpt lat="44.3457510" lon="7.0602580">
        <ele>1404.6</ele>
        <time>2017-07-23T12:12:00Z</time>
      </trkpt>
      <trkpt lat="44.3455770" lon="7.0602050">
        <ele>1404.0</ele>
        <time>2017-07-23T12:12:03Z</time>
      </trkpt>
      <trkpt lat="44.3452550" lon="7.0601540">
        <ele>1404.2</ele>
        <time>2017-07-23T12:12:08Z</time>
      </trkpt>
      <trkpt lat="44.3451900" lon="7.0601320">
        <ele>1404.2</ele>
        <time>2017-07-23T12:12:09Z</time>
      </trkpt>
      <trkpt lat="44.3450710" lon="7.0600760">
        <ele>1403.6</ele>
        <time>2017-07-23T12:12:11Z</time>
      </trkpt>
      <trkpt lat="44.3450220" lon="7.0600440">
        <ele>1403.2</ele>
        <time>2017-07-23T12:12:12Z</time>
      </trkpt>
      <trkpt lat="44.3449860" lon="7.0599960">
        <ele>1403.0</ele>
        <time>2017-07-23T12:12:13Z</time>
      </trkpt>
      <trkpt lat="44.3449480" lon="7.0598560">
        <ele>1402.4</ele>
        <time>2017-07-23T12:12:15Z</time>
      </trkpt>
      <trkpt lat="44.3449300" lon="7.0597920">
        <ele>1402.2</ele>
        <time>2017-07-23T12:12:16Z</time>
      </trkpt>
      <trkpt lat="44.3449070" lon="7.0597360">
        <ele>1402.2</ele>
        <time>2017-07-23T12:12:17Z</time>
      </trkpt>
      <trkpt lat="44.3448380" lon="7.0595960">
        <ele>1402.0</ele>
        <time>2017-07-23T12:12:20Z</time>
      </trkpt>
      <trkpt lat="44.3447680" lon="7.0594740">
        <ele>1401.4</ele>
        <time>2017-07-23T12:12:23Z</time>
      </trkpt>
      <trkpt lat="44.3447590" lon="7.0594270">
        <ele>1401.2</ele>
        <time>2017-07-23T12:12:24Z</time>
      </trkpt>
      <trkpt lat="44.3447660" lon="7.0593340">
        <ele>1401.0</ele>
        <time>2017-07-23T12:12:26Z</time>
      </trkpt>
      <trkpt lat="44.3447890" lon="7.0592150">
        <ele>1401.2</ele>
        <time>2017-07-23T12:12:29Z</time>
      </trkpt>
      <trkpt lat="44.3447970" lon="7.0591410">
        <ele>1401.6</ele>
        <time>2017-07-23T12:12:31Z</time>
      </trkpt>
      <trkpt lat="44.3447990" lon="7.0590450">
        <ele>1401.8</ele>
        <time>2017-07-23T12:12:34Z</time>
      </trkpt>
      <trkpt lat="44.3447960" lon="7.0589490">
        <ele>1401.6</ele>
        <time>2017-07-23T12:12:37Z</time>
      </trkpt>
      <trkpt lat="44.3447780" lon="7.0588200">
        <ele>1401.8</ele>
        <time>2017-07-23T12:12:41Z</time>
      </trkpt>
      <trkpt lat="44.3447630" lon="7.0587220">
        <ele>1402.0</ele>
        <time>2017-07-23T12:12:44Z</time>
      </trkpt>
      <trkpt lat="44.3447550" lon="7.0586580">
        <ele>1402.4</ele>
        <time>2017-07-23T12:12:46Z</time>
      </trkpt>
      <trkpt lat="44.3447370" lon="7.0585000">
        <ele>1403.0</ele>
        <time>2017-07-23T12:12:51Z</time>
      </trkpt>
      <trkpt lat="44.3447330" lon="7.0584370">
        <ele>1403.6</ele>
        <time>2017-07-23T12:12:53Z</time>
      </trkpt>
      <trkpt lat="44.3447230" lon="7.0582810">
        <ele>1404.8</ele>
        <time>2017-07-23T12:12:58Z</time>
      </trkpt>
      <trkpt lat="44.3447200" lon="7.0582510">
        <ele>1405.0</ele>
        <time>2017-07-23T12:12:59Z</time>
      </trkpt>
      <trkpt lat="44.3447160" lon="7.0581540">
        <ele>1406.0</ele>
        <time>2017-07-23T12:13:02Z</time>
      </trkpt>
      <trkpt lat="44.3447250" lon="7.0580020">
        <ele>1407.0</ele>
        <time>2017-07-23T12:13:07Z</time>
      </trkpt>
      <trkpt lat="44.3447600" lon="7.0577830">
        <ele>1408.2</ele>
        <time>2017-07-23T12:13:14Z</time>
      </trkpt>
      <trkpt lat="44.3447690" lon="7.0577290">
        <ele>1408.6</ele>
        <time>2017-07-23T12:13:16Z</time>
      </trkpt>
      <trkpt lat="44.3447810" lon="7.0576110">
        <ele>1409.2</ele>
        <time>2017-07-23T12:13:20Z</time>
      </trkpt>
      <trkpt lat="44.3447830" lon="7.0575200">
        <ele>1410.2</ele>
        <time>2017-07-23T12:13:23Z</time>
      </trkpt>
      <trkpt lat="44.3447870" lon="7.0574270">
        <ele>1411.4</ele>
        <time>2017-07-23T12:13:26Z</time>
      </trkpt>
      <trkpt lat="44.3447850" lon="7.0573420">
        <ele>1412.0</ele>
        <time>2017-07-23T12:13:29Z</time>
      </trkpt>
      <trkpt lat="44.3447840" lon="7.0573140">
        <ele>1412.4</ele>
        <time>2017-07-23T12:13:30Z</time>
      </trkpt>
      <trkpt lat="44.3447620" lon="7.0571920">
        <ele>1413.4</ele>
        <time>2017-07-23T12:13:34Z</time>
      </trkpt>
      <trkpt lat="44.3447310" lon="7.0571120">
        <ele>1414.0</ele>
        <time>2017-07-23T12:13:37Z</time>
      </trkpt>
      <trkpt lat="44.3446940" lon="7.0570390">
        <ele>1414.6</ele>
        <time>2017-07-23T12:13:40Z</time>
      </trkpt>
      <trkpt lat="44.3446340" lon="7.0569090">
        <ele>1415.8</ele>
        <time>2017-07-23T12:13:45Z</time>
      </trkpt>
      <trkpt lat="44.3446270" lon="7.0568800">
        <ele>1416.0</ele>
        <time>2017-07-23T12:13:46Z</time>
      </trkpt>
      <trkpt lat="44.3446300" lon="7.0568510">
        <ele>1416.4</ele>
        <time>2017-07-23T12:13:47Z</time>
      </trkpt>
      <trkpt lat="44.3446400" lon="7.0568270">
        <ele>1416.8</ele>
        <time>2017-07-23T12:13:48Z</time>
      </trkpt>
      <trkpt lat="44.3446720" lon="7.0568020">
        <ele>1417.2</ele>
        <time>2017-07-23T12:13:50Z</time>
      </trkpt>
      <trkpt lat="44.3447140" lon="7.0568070">
        <ele>1418.0</ele>
        <time>2017-07-23T12:13:52Z</time>
      </trkpt>
      <trkpt lat="44.3447490" lon="7.0568430">
        <ele>1419.0</ele>
        <time>2017-07-23T12:13:54Z</time>
      </trkpt>
      <trkpt lat="44.3447810" lon="7.0569210">
        <ele>1420.0</ele>
        <time>2017-07-23T12:13:57Z</time>
      </trkpt>
      <trkpt lat="44.3448150" lon="7.0569980">
        <ele>1420.6</ele>
        <time>2017-07-23T12:14:00Z</time>
      </trkpt>
      <trkpt lat="44.3448500" lon="7.0571160">
        <ele>1421.0</ele>
        <time>2017-07-23T12:14:04Z</time>
      </trkpt>
      <trkpt lat="44.3448850" lon="7.0572550">
        <ele>1421.2</ele>
        <time>2017-07-23T12:14:09Z</time>
      </trkpt>
      <trkpt lat="44.3449080" lon="7.0574110">
        <ele>1421.4</ele>
        <time>2017-07-23T12:14:15Z</time>
      </trkpt>
      <trkpt lat="44.3449250" lon="7.0576670">
        <ele>1422.0</ele>
        <time>2017-07-23T12:14:24Z</time>
      </trkpt>
      <trkpt lat="44.3449250" lon="7.0577200">
        <ele>1422.2</ele>
        <time>2017-07-23T12:14:26Z</time>
      </trkpt>
      <trkpt lat="44.3449630" lon="7.0578610">
        <ele>1422.6</ele>
        <time>2017-07-23T12:14:31Z</time>
      </trkpt>
      <trkpt lat="44.3450460" lon="7.0579470">
        <ele>1423.6</ele>
        <time>2017-07-23T12:14:36Z</time>
      </trkpt>
      <trkpt lat="44.3450820" lon="7.0579730">
        <ele>1424.8</ele>
        <time>2017-07-23T12:14:38Z</time>
      </trkpt>
      <trkpt lat="44.3451180" lon="7.0580020">
        <ele>1426.0</ele>
        <time>2017-07-23T12:14:40Z</time>
      </trkpt>
      <trkpt lat="44.3451580" lon="7.0580640">
        <ele>1427.2</ele>
        <time>2017-07-23T12:14:43Z</time>
      </trkpt>
      <trkpt lat="44.3451690" lon="7.0580850">
        <ele>1427.6</ele>
        <time>2017-07-23T12:14:44Z</time>
      </trkpt>
      <trkpt lat="44.3451970" lon="7.0581560">
        <ele>1428.6</ele>
        <time>2017-07-23T12:14:47Z</time>
      </trkpt>
      <trkpt lat="44.3452060" lon="7.0582340">
        <ele>1429.4</ele>
        <time>2017-07-23T12:14:50Z</time>
      </trkpt>
      <trkpt lat="44.3452140" lon="7.0582570">
        <ele>1429.6</ele>
        <time>2017-07-23T12:14:51Z</time>
      </trkpt>
      <trkpt lat="44.3452490" lon="7.0583140">
        <ele>1430.2</ele>
        <time>2017-07-23T12:14:54Z</time>
      </trkpt>
      <trkpt lat="44.3452870" lon="7.0583260">
        <ele>1430.8</ele>
        <time>2017-07-23T12:14:56Z</time>
      </trkpt>
      <trkpt lat="44.3453060" lon="7.0583310">
        <ele>1431.0</ele>
        <time>2017-07-23T12:14:57Z</time>
      </trkpt>
      <trkpt lat="44.3453510" lon="7.0583380">
        <ele>1432.0</ele>
        <time>2017-07-23T12:14:59Z</time>
      </trkpt>
      <trkpt lat="44.3453950" lon="7.0583470">
        <ele>1433.2</ele>
        <time>2017-07-23T12:15:01Z</time>
      </trkpt>
      <trkpt lat="44.3454690" lon="7.0583760">
        <ele>1434.6</ele>
        <time>2017-07-23T12:15:05Z</time>
      </trkpt>
      <trkpt lat="44.3454870" lon="7.0583900">
        <ele>1435.0</ele>
        <time>2017-07-23T12:15:06Z</time>
      </trkpt>
      <trkpt lat="44.3455230" lon="7.0584230">
        <ele>1435.6</ele>
        <time>2017-07-23T12:15:08Z</time>
      </trkpt>
      <trkpt lat="44.3455790" lon="7.0584660">
        <ele>1437.2</ele>
        <time>2017-07-23T12:15:11Z</time>
      </trkpt>
      <trkpt lat="44.3456240" lon="7.0585240">
        <ele>1438.4</ele>
        <time>2017-07-23T12:15:14Z</time>
      </trkpt>
      <trkpt lat="44.3456730" lon="7.0585810">
        <ele>1439.6</ele>
        <time>2017-07-23T12:15:17Z</time>
      </trkpt>
      <trkpt lat="44.3457270" lon="7.0586380">
        <ele>1440.8</ele>
        <time>2017-07-23T12:15:20Z</time>
      </trkpt>
      <trkpt lat="44.3457790" lon="7.0587080">
        <ele>1441.6</ele>
        <time>2017-07-23T12:15:23Z</time>
      </trkpt>
      <trkpt lat="44.3457960" lon="7.0587320">
        <ele>1442.0</ele>
        <time>2017-07-23T12:15:24Z</time>
      </trkpt>
      <trkpt lat="44.3458820" lon="7.0588470">
        <ele>1443.2</ele>
        <time>2017-07-23T12:15:29Z</time>
      </trkpt>
      <trkpt lat="44.3459010" lon="7.0588660">
        <ele>1443.4</ele>
        <time>2017-07-23T12:15:30Z</time>
      </trkpt>
      <trkpt lat="44.3459640" lon="7.0588980">
        <ele>1444.2</ele>
        <time>2017-07-23T12:15:33Z</time>
      </trkpt>
      <trkpt lat="44.3460080" lon="7.0589100">
        <ele>1444.6</ele>
        <time>2017-07-23T12:15:35Z</time>
      </trkpt>
      <trkpt lat="44.3461080" lon="7.0588710">
        <ele>1444.8</ele>
        <time>2017-07-23T12:15:40Z</time>
      </trkpt>
      <trkpt lat="44.3461700" lon="7.0587460">
        <ele>1444.8</ele>
        <time>2017-07-23T12:15:45Z</time>
      </trkpt>
      <trkpt lat="44.3462870" lon="7.0585650">
        <ele>1444.4</ele>
        <time>2017-07-23T12:15:53Z</time>
      </trkpt>
      <trkpt lat="44.3463930" lon="7.0583960">
        <ele>1445.0</ele>
        <time>2017-07-23T12:16:01Z</time>
      </trkpt>
      <trkpt lat="44.3465040" lon="7.0582560">
        <ele>1444.8</ele>
        <time>2017-07-23T12:16:08Z</time>
      </trkpt>
      <trkpt lat="44.3466070" lon="7.0581430">
        <ele>1445.0</ele>
        <time>2017-07-23T12:16:15Z</time>
      </trkpt>
      <trkpt lat="44.3466230" lon="7.0581270">
        <ele>1445.2</ele>
        <time>2017-07-23T12:16:16Z</time>
      </trkpt>
      <trkpt lat="44.3467110" lon="7.0580260">
        <ele>1446.4</ele>
        <time>2017-07-23T12:16:22Z</time>
      </trkpt>
      <trkpt lat="44.3467270" lon="7.0580120">
        <ele>1446.6</ele>
        <time>2017-07-23T12:16:23Z</time>
      </trkpt>
      <trkpt lat="44.3467910" lon="7.0579490">
        <ele>1447.6</ele>
        <time>2017-07-23T12:16:27Z</time>
      </trkpt>
      <trkpt lat="44.3468380" lon="7.0578970">
        <ele>1448.4</ele>
        <time>2017-07-23T12:16:30Z</time>
      </trkpt>
      <trkpt lat="44.3468540" lon="7.0578800">
        <ele>1448.8</ele>
        <time>2017-07-23T12:16:31Z</time>
      </trkpt>
      <trkpt lat="44.3469220" lon="7.0578120">
        <ele>1450.0</ele>
        <time>2017-07-23T12:16:35Z</time>
      </trkpt>
      <trkpt lat="44.3469350" lon="7.0577740">
        <ele>1450.6</ele>
        <time>2017-07-23T12:16:37Z</time>
      </trkpt>
      <trkpt lat="44.3469570" lon="7.0577200">
        <ele>1452.8</ele>
        <time>2017-07-23T12:17:32Z</time>
      </trkpt>
      <trkpt lat="44.3469670" lon="7.0577020">
        <ele>1452.6</ele>
        <time>2017-07-23T12:17:33Z</time>
      </trkpt>
      <trkpt lat="44.3469780" lon="7.0576870">
        <ele>1452.6</ele>
        <time>2017-07-23T12:17:34Z</time>
      </trkpt>
      <trkpt lat="44.3470240" lon="7.0576350">
        <ele>1452.4</ele>
        <time>2017-07-23T12:17:37Z</time>
      </trkpt>
      <trkpt lat="44.3470610" lon="7.0575780">
        <ele>1452.8</ele>
        <time>2017-07-23T12:17:40Z</time>
      </trkpt>
      <trkpt lat="44.3470890" lon="7.0575370">
        <ele>1453.0</ele>
        <time>2017-07-23T12:17:42Z</time>
      </trkpt>
      <trkpt lat="44.3471250" lon="7.0574750">
        <ele>1453.8</ele>
        <time>2017-07-23T12:17:45Z</time>
      </trkpt>
      <trkpt lat="44.3471740" lon="7.0573930">
        <ele>1454.6</ele>
        <time>2017-07-23T12:17:49Z</time>
      </trkpt>
      <trkpt lat="44.3471820" lon="7.0573710">
        <ele>1454.8</ele>
        <time>2017-07-23T12:17:50Z</time>
      </trkpt>
      <trkpt lat="44.3472380" lon="7.0572900">
        <ele>1455.8</ele>
        <time>2017-07-23T12:17:54Z</time>
      </trkpt>
      <trkpt lat="44.3472850" lon="7.0572410">
        <ele>1456.4</ele>
        <time>2017-07-23T12:17:57Z</time>
      </trkpt>
      <trkpt lat="44.3473330" lon="7.0572080">
        <ele>1456.8</ele>
        <time>2017-07-23T12:18:00Z</time>
      </trkpt>
      <trkpt lat="44.3474210" lon="7.0571600">
        <ele>1457.4</ele>
        <time>2017-07-23T12:18:05Z</time>
      </trkpt>
      <trkpt lat="44.3474990" lon="7.0571290">
        <ele>1457.8</ele>
        <time>2017-07-23T12:18:09Z</time>
      </trkpt>
      <trkpt lat="44.3475680" lon="7.0570670">
        <ele>1458.8</ele>
        <time>2017-07-23T12:18:13Z</time>
      </trkpt>
      <trkpt lat="44.3475820" lon="7.0570490">
        <ele>1459.0</ele>
        <time>2017-07-23T12:18:14Z</time>
      </trkpt>
      <trkpt lat="44.3476220" lon="7.0569650">
        <ele>1460.0</ele>
        <time>2017-07-23T12:18:18Z</time>
      </trkpt>
      <trkpt lat="44.3476410" lon="7.0569190">
        <ele>1460.6</ele>
        <time>2017-07-23T12:18:20Z</time>
      </trkpt>
      <trkpt lat="44.3476660" lon="7.0568520">
        <ele>1461.0</ele>
        <time>2017-07-23T12:18:23Z</time>
      </trkpt>
      <trkpt lat="44.3476930" lon="7.0567440">
        <ele>1462.4</ele>
        <time>2017-07-23T12:18:27Z</time>
      </trkpt>
      <trkpt lat="44.3477040" lon="7.0566920">
        <ele>1463.2</ele>
        <time>2017-07-23T12:18:29Z</time>
      </trkpt>
      <trkpt lat="44.3477110" lon="7.0566690">
        <ele>1463.6</ele>
        <time>2017-07-23T12:18:30Z</time>
      </trkpt>
      <trkpt lat="44.3477490" lon="7.0565260">
        <ele>1464.6</ele>
        <time>2017-07-23T12:18:36Z</time>
      </trkpt>
      <trkpt lat="44.3477550" lon="7.0565040">
        <ele>1465.0</ele>
        <time>2017-07-23T12:18:37Z</time>
      </trkpt>
      <trkpt lat="44.3477680" lon="7.0564560">
        <ele>1466.2</ele>
        <time>2017-07-23T12:18:39Z</time>
      </trkpt>
      <trkpt lat="44.3477870" lon="7.0563760">
        <ele>1467.6</ele>
        <time>2017-07-23T12:18:42Z</time>
      </trkpt>
      <trkpt lat="44.3478040" lon="7.0563290">
        <ele>1468.0</ele>
        <time>2017-07-23T12:18:44Z</time>
      </trkpt>
      <trkpt lat="44.3478280" lon="7.0562570">
        <ele>1468.6</ele>
        <time>2017-07-23T12:18:47Z</time>
      </trkpt>
      <trkpt lat="44.3478570" lon="7.0561340">
        <ele>1469.2</ele>
        <time>2017-07-23T12:18:52Z</time>
      </trkpt>
      <trkpt lat="44.3478840" lon="7.0560390">
        <ele>1469.8</ele>
        <time>2017-07-23T12:18:56Z</time>
      </trkpt>
      <trkpt lat="44.3478990" lon="7.0559730">
        <ele>1471.0</ele>
        <time>2017-07-23T12:18:59Z</time>
      </trkpt>
      <trkpt lat="44.3479050" lon="7.0559490">
        <ele>1471.6</ele>
        <time>2017-07-23T12:19:00Z</time>
      </trkpt>
      <trkpt lat="44.3479190" lon="7.0559050">
        <ele>1472.2</ele>
        <time>2017-07-23T12:19:02Z</time>
      </trkpt>
      <trkpt lat="44.3479620" lon="7.0557720">
        <ele>1473.4</ele>
        <time>2017-07-23T12:19:08Z</time>
      </trkpt>
      <trkpt lat="44.3479890" lon="7.0557070">
        <ele>1474.6</ele>
        <time>2017-07-23T12:19:11Z</time>
      </trkpt>
      <trkpt lat="44.3480270" lon="7.0556400">
        <ele>1475.8</ele>
        <time>2017-07-23T12:19:14Z</time>
      </trkpt>
      <trkpt lat="44.3480410" lon="7.0556150">
        <ele>1476.0</ele>
        <time>2017-07-23T12:19:15Z</time>
      </trkpt>
      <trkpt lat="44.3480580" lon="7.0555620">
        <ele>1476.8</ele>
        <time>2017-07-23T12:19:17Z</time>
      </trkpt>
      <trkpt lat="44.3480920" lon="7.0554910">
        <ele>1478.0</ele>
        <time>2017-07-23T12:19:20Z</time>
      </trkpt>
      <trkpt lat="44.3481130" lon="7.0554200">
        <ele>1479.2</ele>
        <time>2017-07-23T12:19:23Z</time>
      </trkpt>
      <trkpt lat="44.3481220" lon="7.0553670">
        <ele>1480.6</ele>
        <time>2017-07-23T12:19:25Z</time>
      </trkpt>
      <trkpt lat="44.3481450" lon="7.0552940">
        <ele>1481.8</ele>
        <time>2017-07-23T12:19:28Z</time>
      </trkpt>
      <trkpt lat="44.3481510" lon="7.0552710">
        <ele>1482.2</ele>
        <time>2017-07-23T12:19:29Z</time>
      </trkpt>
      <trkpt lat="44.3481590" lon="7.0552460">
        <ele>1482.6</ele>
        <time>2017-07-23T12:19:30Z</time>
      </trkpt>
      <trkpt lat="44.3481690" lon="7.0552230">
        <ele>1483.0</ele>
        <time>2017-07-23T12:19:31Z</time>
      </trkpt>
      <trkpt lat="44.3481910" lon="7.0551740">
        <ele>1484.0</ele>
        <time>2017-07-23T12:19:33Z</time>
      </trkpt>
      <trkpt lat="44.3482260" lon="7.0551030">
        <ele>1485.4</ele>
        <time>2017-07-23T12:19:36Z</time>
      </trkpt>
      <trkpt lat="44.3482480" lon="7.0550480">
        <ele>1486.0</ele>
        <time>2017-07-23T12:19:38Z</time>
      </trkpt>
      <trkpt lat="44.3482680" lon="7.0549940">
        <ele>1486.6</ele>
        <time>2017-07-23T12:19:40Z</time>
      </trkpt>
      <trkpt lat="44.3483200" lon="7.0548940">
        <ele>1487.6</ele>
        <time>2017-07-23T12:19:44Z</time>
      </trkpt>
      <trkpt lat="44.3483340" lon="7.0548720">
        <ele>1487.8</ele>
        <time>2017-07-23T12:19:45Z</time>
      </trkpt>
      <trkpt lat="44.3483850" lon="7.0547990">
        <ele>1488.8</ele>
        <time>2017-07-23T12:19:49Z</time>
      </trkpt>
      <trkpt lat="44.3484360" lon="7.0546990">
        <ele>1489.8</ele>
        <time>2017-07-23T12:19:53Z</time>
      </trkpt>
      <trkpt lat="44.3484890" lon="7.0546050">
        <ele>1490.8</ele>
        <time>2017-07-23T12:19:57Z</time>
      </trkpt>
      <trkpt lat="44.3485410" lon="7.0545310">
        <ele>1492.0</ele>
        <time>2017-07-23T12:20:01Z</time>
      </trkpt>
      <trkpt lat="44.3486600" lon="7.0545360">
        <ele>1492.0</ele>
        <time>2017-07-23T12:20:07Z</time>
      </trkpt>
      <trkpt lat="44.3487910" lon="7.0546370">
        <ele>1492.8</ele>
        <time>2017-07-23T12:20:14Z</time>
      </trkpt>
      <trkpt lat="44.3488080" lon="7.0546540">
        <ele>1493.0</ele>
        <time>2017-07-23T12:20:15Z</time>
      </trkpt>
      <trkpt lat="44.3488770" lon="7.0548130">
        <ele>1494.0</ele>
        <time>2017-07-23T12:20:22Z</time>
      </trkpt>
      <trkpt lat="44.3488930" lon="7.0549820">
        <ele>1493.4</ele>
        <time>2017-07-23T12:20:29Z</time>
      </trkpt>
      <trkpt lat="44.3489130" lon="7.0552290">
        <ele>1493.2</ele>
        <time>2017-07-23T12:20:38Z</time>
      </trkpt>
      <trkpt lat="44.3490030" lon="7.0553700">
        <ele>1494.0</ele>
        <time>2017-07-23T12:20:45Z</time>
      </trkpt>
      <trkpt lat="44.3490170" lon="7.0553850">
        <ele>1494.4</ele>
        <time>2017-07-23T12:20:46Z</time>
      </trkpt>
      <trkpt lat="44.3490550" lon="7.0554260">
        <ele>1495.4</ele>
        <time>2017-07-23T12:20:49Z</time>
      </trkpt>
      <trkpt lat="44.3490860" lon="7.0554500">
        <ele>1496.0</ele>
        <time>2017-07-23T12:20:51Z</time>
      </trkpt>
      <trkpt lat="44.3491210" lon="7.0554740">
        <ele>1496.8</ele>
        <time>2017-07-23T12:20:53Z</time>
      </trkpt>
      <trkpt lat="44.3491700" lon="7.0554950">
        <ele>1498.0</ele>
        <time>2017-07-23T12:20:56Z</time>
      </trkpt>
      <trkpt lat="44.3492450" lon="7.0555140">
        <ele>1499.2</ele>
        <time>2017-07-23T12:21:00Z</time>
      </trkpt>
      <trkpt lat="44.3492960" lon="7.0555400">
        <ele>1500.2</ele>
        <time>2017-07-23T12:21:03Z</time>
      </trkpt>
      <trkpt lat="44.3493400" lon="7.0555770">
        <ele>1501.2</ele>
        <time>2017-07-23T12:21:06Z</time>
      </trkpt>
      <trkpt lat="44.3493530" lon="7.0555900">
        <ele>1501.6</ele>
        <time>2017-07-23T12:21:07Z</time>
      </trkpt>
      <trkpt lat="44.3493960" lon="7.0556330">
        <ele>1502.6</ele>
        <time>2017-07-23T12:21:10Z</time>
      </trkpt>
      <trkpt lat="44.3494620" lon="7.0556910">
        <ele>1504.0</ele>
        <time>2017-07-23T12:21:14Z</time>
      </trkpt>
      <trkpt lat="44.3495180" lon="7.0557660">
        <ele>1505.2</ele>
        <time>2017-07-23T12:21:18Z</time>
      </trkpt>
      <trkpt lat="44.3495490" lon="7.0558260">
        <ele>1506.2</ele>
        <time>2017-07-23T12:21:21Z</time>
      </trkpt>
      <trkpt lat="44.3495610" lon="7.0558420">
        <ele>1506.4</ele>
        <time>2017-07-23T12:21:22Z</time>
      </trkpt>
      <trkpt lat="44.3496260" lon="7.0559620">
        <ele>1507.2</ele>
        <time>2017-07-23T12:21:28Z</time>
      </trkpt>
      <trkpt lat="44.3496460" lon="7.0560040">
        <ele>1507.6</ele>
        <time>2017-07-23T12:21:30Z</time>
      </trkpt>
      <trkpt lat="44.3496660" lon="7.0561710">
        <ele>1507.2</ele>
        <time>2017-07-23T12:21:37Z</time>
      </trkpt>
      <trkpt lat="44.3496460" lon="7.0563650">
        <ele>1507.8</ele>
        <time>2017-07-23T12:21:45Z</time>
      </trkpt>
      <trkpt lat="44.3496680" lon="7.0564650">
        <ele>1508.0</ele>
        <time>2017-07-23T12:21:49Z</time>
      </trkpt>
      <trkpt lat="44.3496980" lon="7.0564890">
        <ele>1508.4</ele>
        <time>2017-07-23T12:21:51Z</time>
      </trkpt>
      <trkpt lat="44.3497770" lon="7.0564980">
        <ele>1509.4</ele>
        <time>2017-07-23T12:21:56Z</time>
      </trkpt>
      <trkpt lat="44.3498050" lon="7.0564990">
        <ele>1509.6</ele>
        <time>2017-07-23T12:21:58Z</time>
      </trkpt>
      <trkpt lat="44.3498350" lon="7.0565030">
        <ele>1510.0</ele>
        <time>2017-07-23T12:22:00Z</time>
      </trkpt>
      <trkpt lat="44.3498800" lon="7.0565440">
        <ele>1510.4</ele>
        <time>2017-07-23T12:22:03Z</time>
      </trkpt>
      <trkpt lat="44.3498960" lon="7.0565600">
        <ele>1510.8</ele>
        <time>2017-07-23T12:22:04Z</time>
      </trkpt>
      <trkpt lat="44.3499460" lon="7.0566060">
        <ele>1511.4</ele>
        <time>2017-07-23T12:22:07Z</time>
      </trkpt>
      <trkpt lat="44.3500090" lon="7.0566510">
        <ele>1512.6</ele>
        <time>2017-07-23T12:22:11Z</time>
      </trkpt>
      <trkpt lat="44.3500600" lon="7.0566860">
        <ele>1514.0</ele>
        <time>2017-07-23T12:22:14Z</time>
      </trkpt>
      <trkpt lat="44.3501170" lon="7.0567210">
        <ele>1514.8</ele>
        <time>2017-07-23T12:22:18Z</time>
      </trkpt>
      <trkpt lat="44.3501350" lon="7.0567300">
        <ele>1515.2</ele>
        <time>2017-07-23T12:22:19Z</time>
      </trkpt>
      <trkpt lat="44.3502110" lon="7.0567790">
        <ele>1516.2</ele>
        <time>2017-07-23T12:22:24Z</time>
      </trkpt>
      <trkpt lat="44.3502260" lon="7.0567920">
        <ele>1516.4</ele>
        <time>2017-07-23T12:22:25Z</time>
      </trkpt>
      <trkpt lat="44.3502930" lon="7.0568150">
        <ele>1517.4</ele>
        <time>2017-07-23T12:22:29Z</time>
      </trkpt>
      <trkpt lat="44.3503280" lon="7.0568180">
        <ele>1518.0</ele>
        <time>2017-07-23T12:22:31Z</time>
      </trkpt>
      <trkpt lat="44.3503590" lon="7.0568250">
        <ele>1518.4</ele>
        <time>2017-07-23T12:22:33Z</time>
      </trkpt>
      <trkpt lat="44.3504510" lon="7.0568670">
        <ele>1519.6</ele>
        <time>2017-07-23T12:22:38Z</time>
      </trkpt>
      <trkpt lat="44.3505070" lon="7.0569870">
        <ele>1519.8</ele>
        <time>2017-07-23T12:22:43Z</time>
      </trkpt>
      <trkpt lat="44.3505290" lon="7.0570720">
        <ele>1519.4</ele>
        <time>2017-07-23T12:22:47Z</time>
      </trkpt>
      <trkpt lat="44.3505590" lon="7.0571000">
        <ele>1519.4</ele>
        <time>2017-07-23T12:22:49Z</time>
      </trkpt>
      <trkpt lat="44.3506460" lon="7.0571080">
        <ele>1520.4</ele>
        <time>2017-07-23T12:22:54Z</time>
      </trkpt>
      <trkpt lat="44.3506630" lon="7.0571060">
        <ele>1520.4</ele>
        <time>2017-07-23T12:22:55Z</time>
      </trkpt>
      <trkpt lat="44.3507150" lon="7.0571000">
        <ele>1520.6</ele>
        <time>2017-07-23T12:22:58Z</time>
      </trkpt>
      <trkpt lat="44.3507800" lon="7.0571230">
        <ele>1521.6</ele>
        <time>2017-07-23T12:23:02Z</time>
      </trkpt>
      <trkpt lat="44.3508440" lon="7.0571770">
        <ele>1523.0</ele>
        <time>2017-07-23T12:23:06Z</time>
      </trkpt>
      <trkpt lat="44.3508760" lon="7.0572090">
        <ele>1523.4</ele>
        <time>2017-07-23T12:23:08Z</time>
      </trkpt>
      <trkpt lat="44.3509280" lon="7.0572400">
        <ele>1524.2</ele>
        <time>2017-07-23T12:23:11Z</time>
      </trkpt>
      <trkpt lat="44.3509790" lon="7.0572680">
        <ele>1525.0</ele>
        <time>2017-07-23T12:23:14Z</time>
      </trkpt>
      <trkpt lat="44.3510310" lon="7.0572900">
        <ele>1525.6</ele>
        <time>2017-07-23T12:23:17Z</time>
      </trkpt>
      <trkpt lat="44.3510890" lon="7.0573470">
        <ele>1526.2</ele>
        <time>2017-07-23T12:23:21Z</time>
      </trkpt>
      <trkpt lat="44.3511660" lon="7.0574730">
        <ele>1526.6</ele>
        <time>2017-07-23T12:23:28Z</time>
      </trkpt>
      <trkpt lat="44.3512460" lon="7.0575220">
        <ele>1527.8</ele>
        <time>2017-07-23T12:23:33Z</time>
      </trkpt>
      <trkpt lat="44.3513170" lon="7.0575450">
        <ele>1529.0</ele>
        <time>2017-07-23T12:23:37Z</time>
      </trkpt>
      <trkpt lat="44.3513620" lon="7.0575700">
        <ele>1530.0</ele>
        <time>2017-07-23T12:23:40Z</time>
      </trkpt>
      <trkpt lat="44.3514290" lon="7.0576080">
        <ele>1531.2</ele>
        <time>2017-07-23T12:23:44Z</time>
      </trkpt>
      <trkpt lat="44.3514990" lon="7.0576730">
        <ele>1532.4</ele>
        <time>2017-07-23T12:23:49Z</time>
      </trkpt>
      <trkpt lat="44.3515120" lon="7.0576910">
        <ele>1532.4</ele>
        <time>2017-07-23T12:23:50Z</time>
      </trkpt>
      <trkpt lat="44.3515750" lon="7.0578600">
        <ele>1532.0</ele>
        <time>2017-07-23T12:23:57Z</time>
      </trkpt>
      <trkpt lat="44.3515840" lon="7.0580050">
        <ele>1531.2</ele>
        <time>2017-07-23T12:24:04Z</time>
      </trkpt>
      <trkpt lat="44.3515730" lon="7.0581580">
        <ele>1530.8</ele>
        <time>2017-07-23T12:24:11Z</time>
      </trkpt>
      <trkpt lat="44.3515450" lon="7.0583880">
        <ele>1531.0</ele>
        <time>2017-07-23T12:24:21Z</time>
      </trkpt>
      <trkpt lat="44.3514970" lon="7.0585460">
        <ele>1532.0</ele>
        <time>2017-07-23T12:24:28Z</time>
      </trkpt>
      <trkpt lat="44.3514980" lon="7.0585820">
        <ele>1532.4</ele>
        <time>2017-07-23T12:24:30Z</time>
      </trkpt>
      <trkpt lat="44.3515310" lon="7.0585940">
        <ele>1532.8</ele>
        <time>2017-07-23T12:24:32Z</time>
      </trkpt>
      <trkpt lat="44.3515790" lon="7.0585650">
        <ele>1533.4</ele>
        <time>2017-07-23T12:24:36Z</time>
      </trkpt>
      <trkpt lat="44.3515900" lon="7.0585510">
        <ele>1533.6</ele>
        <time>2017-07-23T12:24:37Z</time>
      </trkpt>
      <trkpt lat="44.3516200" lon="7.0584770">
        <ele>1534.2</ele>
        <time>2017-07-23T12:24:41Z</time>
      </trkpt>
      <trkpt lat="44.3516200" lon="7.0584510">
        <ele>1534.4</ele>
        <time>2017-07-23T12:24:42Z</time>
      </trkpt>
      <trkpt lat="44.3516210" lon="7.0584270">
        <ele>1534.6</ele>
        <time>2017-07-23T12:24:43Z</time>
      </trkpt>
      <trkpt lat="44.3516350" lon="7.0583670">
        <ele>1535.2</ele>
        <time>2017-07-23T12:24:46Z</time>
      </trkpt>
      <trkpt lat="44.3516410" lon="7.0583470">
        <ele>1535.4</ele>
        <time>2017-07-23T12:24:47Z</time>
      </trkpt>
      <trkpt lat="44.3516590" lon="7.0582870">
        <ele>1536.4</ele>
        <time>2017-07-23T12:24:50Z</time>
      </trkpt>
      <trkpt lat="44.3516630" lon="7.0582630">
        <ele>1536.6</ele>
        <time>2017-07-23T12:24:51Z</time>
      </trkpt>
      <trkpt lat="44.3516850" lon="7.0581200">
        <ele>1537.2</ele>
        <time>2017-07-23T12:24:57Z</time>
      </trkpt>
      <trkpt lat="44.3516950" lon="7.0580590">
        <ele>1539.0</ele>
        <time>2017-07-23T12:25:24Z</time>
      </trkpt>
      <trkpt lat="44.3517070" lon="7.0580430">
        <ele>1538.8</ele>
        <time>2017-07-23T12:25:25Z</time>
      </trkpt>
      <trkpt lat="44.3517330" lon="7.0579380">
        <ele>1538.8</ele>
        <time>2017-07-23T12:25:30Z</time>
      </trkpt>
      <trkpt lat="44.3517330" lon="7.0579160">
        <ele>1538.8</ele>
        <time>2017-07-23T12:25:31Z</time>
      </trkpt>
      <trkpt lat="44.3517420" lon="7.0577560">
        <ele>1540.0</ele>
        <time>2017-07-23T12:25:38Z</time>
      </trkpt>
      <trkpt lat="44.3517390" lon="7.0575050">
        <ele>1540.8</ele>
        <time>2017-07-23T12:25:47Z</time>
      </trkpt>
      <trkpt lat="44.3516640" lon="7.0573930">
        <ele>1541.2</ele>
        <time>2017-07-23T12:25:52Z</time>
      </trkpt>
      <trkpt lat="44.3516450" lon="7.0573780">
        <ele>1541.4</ele>
        <time>2017-07-23T12:25:53Z</time>
      </trkpt>
      <trkpt lat="44.3515570" lon="7.0573200">
        <ele>1542.0</ele>
        <time>2017-07-23T12:25:58Z</time>
      </trkpt>
      <trkpt lat="44.3515370" lon="7.0573050">
        <ele>1542.4</ele>
        <time>2017-07-23T12:25:59Z</time>
      </trkpt>
      <trkpt lat="44.3514410" lon="7.0572110">
        <ele>1543.6</ele>
        <time>2017-07-23T12:26:04Z</time>
      </trkpt>
      <trkpt lat="44.3514010" lon="7.0571600">
        <ele>1545.0</ele>
        <time>2017-07-23T12:26:07Z</time>
      </trkpt>
      <trkpt lat="44.3513500" lon="7.0571160">
        <ele>1546.2</ele>
        <time>2017-07-23T12:26:10Z</time>
      </trkpt>
      <trkpt lat="44.3513160" lon="7.0570520">
        <ele>1547.2</ele>
        <time>2017-07-23T12:26:13Z</time>
      </trkpt>
      <trkpt lat="44.3513060" lon="7.0570240">
        <ele>1547.6</ele>
        <time>2017-07-23T12:26:14Z</time>
      </trkpt>
      <trkpt lat="44.3512620" lon="7.0569470">
        <ele>1548.4</ele>
        <time>2017-07-23T12:26:18Z</time>
      </trkpt>
      <trkpt lat="44.3512500" lon="7.0569250">
        <ele>1548.6</ele>
        <time>2017-07-23T12:26:19Z</time>
      </trkpt>
      <trkpt lat="44.3512250" lon="7.0568820">
        <ele>1549.6</ele>
        <time>2017-07-23T12:26:21Z</time>
      </trkpt>
      <trkpt lat="44.3511860" lon="7.0568390">
        <ele>1551.0</ele>
        <time>2017-07-23T12:26:24Z</time>
      </trkpt>
      <trkpt lat="44.3511630" lon="7.0568180">
        <ele>1552.0</ele>
        <time>2017-07-23T12:26:26Z</time>
      </trkpt>
      <trkpt lat="44.3511280" lon="7.0567790">
        <ele>1553.2</ele>
        <time>2017-07-23T12:26:29Z</time>
      </trkpt>
      <trkpt lat="44.3510610" lon="7.0567230">
        <ele>1553.8</ele>
        <time>2017-07-23T12:26:33Z</time>
      </trkpt>
      <trkpt lat="44.3510240" lon="7.0566990">
        <ele>1554.2</ele>
        <time>2017-07-23T12:26:35Z</time>
      </trkpt>
      <trkpt lat="44.3509760" lon="7.0566100">
        <ele>1554.8</ele>
        <time>2017-07-23T12:26:39Z</time>
      </trkpt>
      <trkpt lat="44.3508870" lon="7.0564530">
        <ele>1555.2</ele>
        <time>2017-07-23T12:26:45Z</time>
      </trkpt>
      <trkpt lat="44.3507920" lon="7.0563480">
        <ele>1556.6</ele>
        <time>2017-07-23T12:26:50Z</time>
      </trkpt>
      <trkpt lat="44.3507800" lon="7.0563290">
        <ele>1556.8</ele>
        <time>2017-07-23T12:26:51Z</time>
      </trkpt>
      <trkpt lat="44.3507120" lon="7.0562390">
        <ele>1557.6</ele>
        <time>2017-07-23T12:26:55Z</time>
      </trkpt>
      <trkpt lat="44.3506800" lon="7.0561880">
        <ele>1558.4</ele>
        <time>2017-07-23T12:26:57Z</time>
      </trkpt>
      <trkpt lat="44.3506590" lon="7.0561430">
        <ele>1559.0</ele>
        <time>2017-07-23T12:26:59Z</time>
      </trkpt>
      <trkpt lat="44.3505900" lon="7.0560500">
        <ele>1560.6</ele>
        <time>2017-07-23T12:27:04Z</time>
      </trkpt>
      <trkpt lat="44.3505800" lon="7.0560270">
        <ele>1561.2</ele>
        <time>2017-07-23T12:27:05Z</time>
      </trkpt>
      <trkpt lat="44.3505730" lon="7.0560050">
        <ele>1562.0</ele>
        <time>2017-07-23T12:27:06Z</time>
      </trkpt>
      <trkpt lat="44.3505670" lon="7.0559350">
        <ele>1563.4</ele>
        <time>2017-07-23T12:27:09Z</time>
      </trkpt>
      <trkpt lat="44.3505680" lon="7.0558610">
        <ele>1564.2</ele>
        <time>2017-07-23T12:27:12Z</time>
      </trkpt>
      <trkpt lat="44.3505720" lon="7.0558320">
        <ele>1564.4</ele>
        <time>2017-07-23T12:27:13Z</time>
      </trkpt>
      <trkpt lat="44.3505800" lon="7.0557410">
        <ele>1565.6</ele>
        <time>2017-07-23T12:27:16Z</time>
      </trkpt>
      <trkpt lat="44.3505830" lon="7.0556820">
        <ele>1566.6</ele>
        <time>2017-07-23T12:27:18Z</time>
      </trkpt>
      <trkpt lat="44.3505850" lon="7.0556560">
        <ele>1567.0</ele>
        <time>2017-07-23T12:27:19Z</time>
      </trkpt>
      <trkpt lat="44.3505910" lon="7.0554980">
        <ele>1567.4</ele>
        <time>2017-07-23T12:27:26Z</time>
      </trkpt>
      <trkpt lat="44.3505790" lon="7.0554790">
        <ele>1567.8</ele>
        <time>2017-07-23T12:27:27Z</time>
      </trkpt>
      <trkpt lat="44.3504810" lon="7.0553370">
        <ele>1568.6</ele>
        <time>2017-07-23T12:27:33Z</time>
      </trkpt>
      <trkpt lat="44.3504160" lon="7.0552180">
        <ele>1568.8</ele>
        <time>2017-07-23T12:27:37Z</time>
      </trkpt>
      <trkpt lat="44.3503860" lon="7.0551350">
        <ele>1570.0</ele>
        <time>2017-07-23T12:27:40Z</time>
      </trkpt>
      <trkpt lat="44.3503370" lon="7.0549520">
        <ele>1571.2</ele>
        <time>2017-07-23T12:27:47Z</time>
      </trkpt>
      <trkpt lat="44.3503020" lon="7.0548930">
        <ele>1572.6</ele>
        <time>2017-07-23T12:27:50Z</time>
      </trkpt>
      <trkpt lat="44.3502770" lon="7.0548240">
        <ele>1573.6</ele>
        <time>2017-07-23T12:27:53Z</time>
      </trkpt>
      <trkpt lat="44.3502620" lon="7.0547730">
        <ele>1574.6</ele>
        <time>2017-07-23T12:27:55Z</time>
      </trkpt>
      <trkpt lat="44.3502420" lon="7.0546890">
        <ele>1575.8</ele>
        <time>2017-07-23T12:27:58Z</time>
      </trkpt>
      <trkpt lat="44.3502380" lon="7.0546280">
        <ele>1576.6</ele>
        <time>2017-07-23T12:28:00Z</time>
      </trkpt>
      <trkpt lat="44.3502360" lon="7.0545910">
        <ele>1577.2</ele>
        <time>2017-07-23T12:28:01Z</time>
      </trkpt>
      <trkpt lat="44.3502370" lon="7.0545290">
        <ele>1578.4</ele>
        <time>2017-07-23T12:28:03Z</time>
      </trkpt>
      <trkpt lat="44.3502500" lon="7.0544430">
        <ele>1579.2</ele>
        <time>2017-07-23T12:28:06Z</time>
      </trkpt>
      <trkpt lat="44.3502550" lon="7.0543700">
        <ele>1579.6</ele>
        <time>2017-07-23T12:28:08Z</time>
      </trkpt>
      <trkpt lat="44.3502640" lon="7.0542660">
        <ele>1580.6</ele>
        <time>2017-07-23T12:28:11Z</time>
      </trkpt>
      <trkpt lat="44.3502840" lon="7.0541780">
        <ele>1581.8</ele>
        <time>2017-07-23T12:28:14Z</time>
      </trkpt>
      <trkpt lat="44.3503280" lon="7.0541010">
        <ele>1582.8</ele>
        <time>2017-07-23T12:28:18Z</time>
      </trkpt>
      <trkpt lat="44.3503370" lon="7.0540740">
        <ele>1583.0</ele>
        <time>2017-07-23T12:28:19Z</time>
      </trkpt>
      <trkpt lat="44.3503930" lon="7.0539370">
        <ele>1583.6</ele>
        <time>2017-07-23T12:28:25Z</time>
      </trkpt>
      <trkpt lat="44.3503900" lon="7.0538240">
        <ele>1584.0</ele>
        <time>2017-07-23T12:28:29Z</time>
      </trkpt>
      <trkpt lat="44.3503880" lon="7.0537920">
        <ele>1584.2</ele>
        <time>2017-07-23T12:28:30Z</time>
      </trkpt>
      <trkpt lat="44.3503870" lon="7.0537570">
        <ele>1584.4</ele>
        <time>2017-07-23T12:28:31Z</time>
      </trkpt>
      <trkpt lat="44.3504290" lon="7.0535330">
        <ele>1583.6</ele>
        <time>2017-07-23T12:28:38Z</time>
      </trkpt>
      <trkpt lat="44.3504710" lon="7.0533400">
        <ele>1583.6</ele>
        <time>2017-07-23T12:28:45Z</time>
      </trkpt>
      <trkpt lat="44.3505030" lon="7.0532050">
        <ele>1584.0</ele>
        <time>2017-07-23T12:28:50Z</time>
      </trkpt>
      <trkpt lat="44.3504880" lon="7.0530220">
        <ele>1584.0</ele>
        <time>2017-07-23T12:28:56Z</time>
      </trkpt>
      <trkpt lat="44.3504390" lon="7.0528210">
        <ele>1584.2</ele>
        <time>2017-07-23T12:29:03Z</time>
      </trkpt>
      <trkpt lat="44.3503850" lon="7.0527390">
        <ele>1584.8</ele>
        <time>2017-07-23T12:29:07Z</time>
      </trkpt>
      <trkpt lat="44.3503570" lon="7.0526660">
        <ele>1585.0</ele>
        <time>2017-07-23T12:29:10Z</time>
      </trkpt>
      <trkpt lat="44.3503370" lon="7.0526170">
        <ele>1585.4</ele>
        <time>2017-07-23T12:29:12Z</time>
      </trkpt>
      <trkpt lat="44.3503150" lon="7.0525660">
        <ele>1585.6</ele>
        <time>2017-07-23T12:29:14Z</time>
      </trkpt>
      <trkpt lat="44.3502970" lon="7.0525200">
        <ele>1586.0</ele>
        <time>2017-07-23T12:29:16Z</time>
      </trkpt>
      <trkpt lat="44.3502770" lon="7.0524480">
        <ele>1587.4</ele>
        <time>2017-07-23T12:29:19Z</time>
      </trkpt>
      <trkpt lat="44.3502640" lon="7.0524070">
        <ele>1588.2</ele>
        <time>2017-07-23T12:29:21Z</time>
      </trkpt>
      <trkpt lat="44.3502590" lon="7.0523840">
        <ele>1588.6</ele>
        <time>2017-07-23T12:29:22Z</time>
      </trkpt>
      <trkpt lat="44.3502350" lon="7.0523120">
        <ele>1590.6</ele>
        <time>2017-07-23T12:29:25Z</time>
      </trkpt>
      <trkpt lat="44.3502220" lon="7.0522690">
        <ele>1591.6</ele>
        <time>2017-07-23T12:29:27Z</time>
      </trkpt>
      <trkpt lat="44.3502010" lon="7.0522060">
        <ele>1593.0</ele>
        <time>2017-07-23T12:29:30Z</time>
      </trkpt>
      <trkpt lat="44.3501760" lon="7.0521300">
        <ele>1594.4</ele>
        <time>2017-07-23T12:29:34Z</time>
      </trkpt>
      <trkpt lat="44.3501540" lon="7.0520740">
        <ele>1595.2</ele>
        <time>2017-07-23T12:29:37Z</time>
      </trkpt>
      <trkpt lat="44.3501480" lon="7.0520600">
        <ele>1595.4</ele>
        <time>2017-07-23T12:29:38Z</time>
      </trkpt>
      <trkpt lat="44.3501080" lon="7.0519630">
        <ele>1596.0</ele>
        <time>2017-07-23T12:29:43Z</time>
      </trkpt>
      <trkpt lat="44.3500490" lon="7.0518270">
        <ele>1596.6</ele>
        <time>2017-07-23T12:29:49Z</time>
      </trkpt>
      <trkpt lat="44.3500450" lon="7.0518030">
        <ele>1596.6</ele>
        <time>2017-07-23T12:29:50Z</time>
      </trkpt>
      <trkpt lat="44.3500220" lon="7.0516070">
        <ele>1597.6</ele>
        <time>2017-07-23T12:29:56Z</time>
      </trkpt>
      <trkpt lat="44.3500180" lon="7.0515820">
        <ele>1597.8</ele>
        <time>2017-07-23T12:29:57Z</time>
      </trkpt>
      <trkpt lat="44.3500130" lon="7.0513940">
        <ele>1598.6</ele>
        <time>2017-07-23T12:30:03Z</time>
      </trkpt>
      <trkpt lat="44.3500160" lon="7.0513650">
        <ele>1599.0</ele>
        <time>2017-07-23T12:30:04Z</time>
      </trkpt>
      <trkpt lat="44.3500190" lon="7.0513040">
        <ele>1599.8</ele>
        <time>2017-07-23T12:30:06Z</time>
      </trkpt>
      <trkpt lat="44.3499940" lon="7.0511490">
        <ele>1600.2</ele>
        <time>2017-07-23T12:30:11Z</time>
      </trkpt>
      <trkpt lat="44.3499820" lon="7.0510960">
        <ele>1601.0</ele>
        <time>2017-07-23T12:30:13Z</time>
      </trkpt>
      <trkpt lat="44.3499690" lon="7.0509530">
        <ele>1601.0</ele>
        <time>2017-07-23T12:30:18Z</time>
      </trkpt>
      <trkpt lat="44.3499710" lon="7.0507200">
        <ele>1601.8</ele>
        <time>2017-07-23T12:30:25Z</time>
      </trkpt>
      <trkpt lat="44.3499760" lon="7.0506940">
        <ele>1602.0</ele>
        <time>2017-07-23T12:30:26Z</time>
      </trkpt>
      <trkpt lat="44.3499820" lon="7.0506360">
        <ele>1602.4</ele>
        <time>2017-07-23T12:30:28Z</time>
      </trkpt>
      <trkpt lat="44.3500000" lon="7.0505520">
        <ele>1603.0</ele>
        <time>2017-07-23T12:30:31Z</time>
      </trkpt>
      <trkpt lat="44.3500110" lon="7.0504710">
        <ele>1603.6</ele>
        <time>2017-07-23T12:30:34Z</time>
      </trkpt>
      <trkpt lat="44.3500280" lon="7.0503910">
        <ele>1604.4</ele>
        <time>2017-07-23T12:30:37Z</time>
      </trkpt>
      <trkpt lat="44.3500610" lon="7.0502850">
        <ele>1605.2</ele>
        <time>2017-07-23T12:30:41Z</time>
      </trkpt>
      <trkpt lat="44.3500680" lon="7.0502590">
        <ele>1605.4</ele>
        <time>2017-07-23T12:30:42Z</time>
      </trkpt>
      <trkpt lat="44.3501040" lon="7.0501710">
        <ele>1606.6</ele>
        <time>2017-07-23T12:30:46Z</time>
      </trkpt>
      <trkpt lat="44.3501230" lon="7.0501350">
        <ele>1607.0</ele>
        <time>2017-07-23T12:30:48Z</time>
      </trkpt>
      <trkpt lat="44.3501540" lon="7.0500800">
        <ele>1607.6</ele>
        <time>2017-07-23T12:30:51Z</time>
      </trkpt>
      <trkpt lat="44.3501940" lon="7.0499780">
        <ele>1609.2</ele>
        <time>2017-07-23T12:30:56Z</time>
      </trkpt>
      <trkpt lat="44.3502030" lon="7.0499550">
        <ele>1609.6</ele>
        <time>2017-07-23T12:30:57Z</time>
      </trkpt>
      <trkpt lat="44.3502180" lon="7.0499040">
        <ele>1610.2</ele>
        <time>2017-07-23T12:30:59Z</time>
      </trkpt>
      <trkpt lat="44.3502550" lon="7.0497770">
        <ele>1611.2</ele>
        <time>2017-07-23T12:31:04Z</time>
      </trkpt>
      <trkpt lat="44.3502610" lon="7.0497510">
        <ele>1611.4</ele>
        <time>2017-07-23T12:31:05Z</time>
      </trkpt>
      <trkpt lat="44.3503010" lon="7.0495080">
        <ele>1612.4</ele>
        <time>2017-07-23T12:31:14Z</time>
      </trkpt>
      <trkpt lat="44.3503330" lon="7.0493110">
        <ele>1613.0</ele>
        <time>2017-07-23T12:31:22Z</time>
      </trkpt>
      <trkpt lat="44.3503500" lon="7.0492700">
        <ele>1613.8</ele>
        <time>2017-07-23T12:31:24Z</time>
      </trkpt>
      <trkpt lat="44.3503820" lon="7.0491730">
        <ele>1615.0</ele>
        <time>2017-07-23T12:31:28Z</time>
      </trkpt>
      <trkpt lat="44.3503990" lon="7.0490960">
        <ele>1616.4</ele>
        <time>2017-07-23T12:31:31Z</time>
      </trkpt>
      <trkpt lat="44.3504180" lon="7.0490460">
        <ele>1617.6</ele>
        <time>2017-07-23T12:31:33Z</time>
      </trkpt>
      <trkpt lat="44.3504290" lon="7.0490220">
        <ele>1618.2</ele>
        <time>2017-07-23T12:31:34Z</time>
      </trkpt>
      <trkpt lat="44.3504480" lon="7.0489820">
        <ele>1619.0</ele>
        <time>2017-07-23T12:31:36Z</time>
      </trkpt>
      <trkpt lat="44.3504710" lon="7.0489410">
        <ele>1620.2</ele>
        <time>2017-07-23T12:31:38Z</time>
      </trkpt>
      <trkpt lat="44.3504930" lon="7.0488860">
        <ele>1621.2</ele>
        <time>2017-07-23T12:31:40Z</time>
      </trkpt>
      <trkpt lat="44.3505600" lon="7.0487370">
        <ele>1622.4</ele>
        <time>2017-07-23T12:31:46Z</time>
      </trkpt>
      <trkpt lat="44.3505680" lon="7.0487110">
        <ele>1622.4</ele>
        <time>2017-07-23T12:31:47Z</time>
      </trkpt>
      <trkpt lat="44.3506140" lon="7.0485210">
        <ele>1622.2</ele>
        <time>2017-07-23T12:31:54Z</time>
      </trkpt>
      <trkpt lat="44.3506320" lon="7.0483920">
        <ele>1623.8</ele>
        <time>2017-07-23T12:31:59Z</time>
      </trkpt>
      <trkpt lat="44.3506440" lon="7.0483460">
        <ele>1624.4</ele>
        <time>2017-07-23T12:32:01Z</time>
      </trkpt>
      <trkpt lat="44.3506610" lon="7.0482980">
        <ele>1625.0</ele>
        <time>2017-07-23T12:32:03Z</time>
      </trkpt>
      <trkpt lat="44.3506750" lon="7.0482450">
        <ele>1626.0</ele>
        <time>2017-07-23T12:32:05Z</time>
      </trkpt>
      <trkpt lat="44.3506950" lon="7.0481660">
        <ele>1626.4</ele>
        <time>2017-07-23T12:32:08Z</time>
      </trkpt>
      <trkpt lat="44.3507230" lon="7.0480220">
        <ele>1627.2</ele>
        <time>2017-07-23T12:32:13Z</time>
      </trkpt>
      <trkpt lat="44.3507300" lon="7.0480010">
        <ele>1627.4</ele>
        <time>2017-07-23T12:32:14Z</time>
      </trkpt>
      <trkpt lat="44.3507500" lon="7.0479210">
        <ele>1628.2</ele>
        <time>2017-07-23T12:32:18Z</time>
      </trkpt>
      <trkpt lat="44.3507700" lon="7.0478560">
        <ele>1629.4</ele>
        <time>2017-07-23T12:32:21Z</time>
      </trkpt>
      <trkpt lat="44.3507780" lon="7.0478370">
        <ele>1629.6</ele>
        <time>2017-07-23T12:32:22Z</time>
      </trkpt>
      <trkpt lat="44.3508070" lon="7.0477690">
        <ele>1630.8</ele>
        <time>2017-07-23T12:32:25Z</time>
      </trkpt>
      <trkpt lat="44.3508330" lon="7.0476930">
        <ele>1632.0</ele>
        <time>2017-07-23T12:32:28Z</time>
      </trkpt>
      <trkpt lat="44.3508440" lon="7.0476380">
        <ele>1632.4</ele>
        <time>2017-07-23T12:32:30Z</time>
      </trkpt>
      <trkpt lat="44.3508490" lon="7.0476130">
        <ele>1633.0</ele>
        <time>2017-07-23T12:32:31Z</time>
      </trkpt>
      <trkpt lat="44.3508770" lon="7.0475200">
        <ele>1634.2</ele>
        <time>2017-07-23T12:32:35Z</time>
      </trkpt>
      <trkpt lat="44.3508900" lon="7.0474650">
        <ele>1635.6</ele>
        <time>2017-07-23T12:32:37Z</time>
      </trkpt>
      <trkpt lat="44.3509470" lon="7.0473030">
        <ele>1636.6</ele>
        <time>2017-07-23T12:32:44Z</time>
      </trkpt>
      <trkpt lat="44.3509510" lon="7.0472770">
        <ele>1636.8</ele>
        <time>2017-07-23T12:32:45Z</time>
      </trkpt>
      <trkpt lat="44.3509660" lon="7.0472310">
        <ele>1637.2</ele>
        <time>2017-07-23T12:32:48Z</time>
      </trkpt>
      <trkpt lat="44.3509890" lon="7.0472220">
        <ele>1637.4</ele>
        <time>2017-07-23T12:32:50Z</time>
      </trkpt>
      <trkpt lat="44.3509950" lon="7.0472650">
        <ele>1638.2</ele>
        <time>2017-07-23T12:32:52Z</time>
      </trkpt>
      <trkpt lat="44.3509850" lon="7.0473160">
        <ele>1638.8</ele>
        <time>2017-07-23T12:32:54Z</time>
      </trkpt>
      <trkpt lat="44.3509370" lon="7.0474640">
        <ele>1638.8</ele>
        <time>2017-07-23T12:33:00Z</time>
      </trkpt>
      <trkpt lat="44.3509370" lon="7.0475100">
        <ele>1639.4</ele>
        <time>2017-07-23T12:33:02Z</time>
      </trkpt>
      <trkpt lat="44.3509370" lon="7.0475300">
        <ele>1639.6</ele>
        <time>2017-07-23T12:33:03Z</time>
      </trkpt>
      <trkpt lat="44.3509250" lon="7.0475950">
        <ele>1639.8</ele>
        <time>2017-07-23T12:33:07Z</time>
      </trkpt>
      <trkpt lat="44.3509270" lon="7.0477270">
        <ele>1640.4</ele>
        <time>2017-07-23T12:33:12Z</time>
      </trkpt>
      <trkpt lat="44.3509190" lon="7.0477750">
        <ele>1640.8</ele>
        <time>2017-07-23T12:33:14Z</time>
      </trkpt>
      <trkpt lat="44.3508980" lon="7.0478860">
        <ele>1641.6</ele>
        <time>2017-07-23T12:33:19Z</time>
      </trkpt>
      <trkpt lat="44.3509060" lon="7.0479530">
        <ele>1642.2</ele>
        <time>2017-07-23T12:33:21Z</time>
      </trkpt>
      <trkpt lat="44.3509550" lon="7.0481200">
        <ele>1642.6</ele>
        <time>2017-07-23T12:33:27Z</time>
      </trkpt>
      <trkpt lat="44.3509540" lon="7.0481580">
        <ele>1642.8</ele>
        <time>2017-07-23T12:33:28Z</time>
      </trkpt>
      <trkpt lat="44.3509450" lon="7.0482420">
        <ele>1642.8</ele>
        <time>2017-07-23T12:33:31Z</time>
      </trkpt>
      <trkpt lat="44.3509390" lon="7.0482670">
        <ele>1642.8</ele>
        <time>2017-07-23T12:33:32Z</time>
      </trkpt>
      <trkpt lat="44.3509090" lon="7.0484380">
        <ele>1643.8</ele>
        <time>2017-07-23T12:33:38Z</time>
      </trkpt>
      <trkpt lat="44.3509110" lon="7.0484670">
        <ele>1644.2</ele>
        <time>2017-07-23T12:33:39Z</time>
      </trkpt>
      <trkpt lat="44.3509170" lon="7.0485310">
        <ele>1645.0</ele>
        <time>2017-07-23T12:33:41Z</time>
      </trkpt>
      <trkpt lat="44.3509280" lon="7.0485810">
        <ele>1646.0</ele>
        <time>2017-07-23T12:33:43Z</time>
      </trkpt>
      <trkpt lat="44.3509330" lon="7.0486620">
        <ele>1647.4</ele>
        <time>2017-07-23T12:33:46Z</time>
      </trkpt>
      <trkpt lat="44.3509320" lon="7.0487220">
        <ele>1648.4</ele>
        <time>2017-07-23T12:33:48Z</time>
      </trkpt>
      <trkpt lat="44.3509360" lon="7.0487830">
        <ele>1650.0</ele>
        <time>2017-07-23T12:33:50Z</time>
      </trkpt>
      <trkpt lat="44.3509390" lon="7.0488470">
        <ele>1651.2</ele>
        <time>2017-07-23T12:33:52Z</time>
      </trkpt>
      <trkpt lat="44.3509320" lon="7.0489230">
        <ele>1652.4</ele>
        <time>2017-07-23T12:33:55Z</time>
      </trkpt>
      <trkpt lat="44.3509260" lon="7.0489930">
        <ele>1653.8</ele>
        <time>2017-07-23T12:33:58Z</time>
      </trkpt>
      <trkpt lat="44.3509250" lon="7.0490650">
        <ele>1653.8</ele>
        <time>2017-07-23T12:34:01Z</time>
      </trkpt>
      <trkpt lat="44.3509130" lon="7.0491810">
        <ele>1655.0</ele>
        <time>2017-07-23T12:34:05Z</time>
      </trkpt>
      <trkpt lat="44.3509140" lon="7.0492410">
        <ele>1655.4</ele>
        <time>2017-07-23T12:34:07Z</time>
      </trkpt>
      <trkpt lat="44.3508920" lon="7.0493070">
        <ele>1656.2</ele>
        <time>2017-07-23T12:34:10Z</time>
      </trkpt>
      <trkpt lat="44.3508800" lon="7.0493450">
        <ele>1656.2</ele>
        <time>2017-07-23T12:34:12Z</time>
      </trkpt>
      <trkpt lat="44.3508750" lon="7.0494610">
        <ele>1657.0</ele>
        <time>2017-07-23T12:34:18Z</time>
      </trkpt>
      <trkpt lat="44.3508770" lon="7.0494880">
        <ele>1656.8</ele>
        <time>2017-07-23T12:34:19Z</time>
      </trkpt>
      <trkpt lat="44.3508840" lon="7.0497190">
        <ele>1656.2</ele>
        <time>2017-07-23T12:34:27Z</time>
      </trkpt>
      <trkpt lat="44.3508890" lon="7.0499170">
        <ele>1656.2</ele>
        <time>2017-07-23T12:34:35Z</time>
      </trkpt>
      <trkpt lat="44.3508830" lon="7.0499870">
        <ele>1654.4</ele>
        <time>2017-07-23T12:34:38Z</time>
      </trkpt>
      <trkpt lat="44.3508810" lon="7.0500390">
        <ele>1655.6</ele>
        <time>2017-07-23T12:34:40Z</time>
      </trkpt>
      <trkpt lat="44.3508800" lon="7.0500660">
        <ele>1656.8</ele>
        <time>2017-07-23T12:34:41Z</time>
      </trkpt>
      <trkpt lat="44.3508840" lon="7.0501590">
        <ele>1656.8</ele>
        <time>2017-07-23T12:34:44Z</time>
      </trkpt>
      <trkpt lat="44.3508750" lon="7.0504030">
        <ele>1656.4</ele>
        <time>2017-07-23T12:34:52Z</time>
      </trkpt>
      <trkpt lat="44.3508890" lon="7.0506330">
        <ele>1656.4</ele>
        <time>2017-07-23T12:35:00Z</time>
      </trkpt>
      <trkpt lat="44.3508970" lon="7.0506960">
        <ele>1658.0</ele>
        <time>2017-07-23T12:35:03Z</time>
      </trkpt>
      <trkpt lat="44.3508990" lon="7.0507840">
        <ele>1659.0</ele>
        <time>2017-07-23T12:35:07Z</time>
      </trkpt>
      <trkpt lat="44.3509060" lon="7.0508140">
        <ele>1659.4</ele>
        <time>2017-07-23T12:35:08Z</time>
      </trkpt>
      <trkpt lat="44.3509210" lon="7.0508840">
        <ele>1660.2</ele>
        <time>2017-07-23T12:35:10Z</time>
      </trkpt>
      <trkpt lat="44.3509510" lon="7.0509750">
        <ele>1661.2</ele>
        <time>2017-07-23T12:35:13Z</time>
      </trkpt>
      <trkpt lat="44.3509960" lon="7.0510850">
        <ele>1662.8</ele>
        <time>2017-07-23T12:35:17Z</time>
      </trkpt>
      <trkpt lat="44.3510460" lon="7.0512030">
        <ele>1664.0</ele>
        <time>2017-07-23T12:35:22Z</time>
      </trkpt>
      <trkpt lat="44.3510620" lon="7.0512500">
        <ele>1664.2</ele>
        <time>2017-07-23T12:35:24Z</time>
      </trkpt>
      <trkpt lat="44.3510940" lon="7.0513440">
        <ele>1665.0</ele>
        <time>2017-07-23T12:35:28Z</time>
      </trkpt>
      <trkpt lat="44.3511190" lon="7.0514180">
        <ele>1665.2</ele>
        <time>2017-07-23T12:35:31Z</time>
      </trkpt>
      <trkpt lat="44.3512050" lon="7.0515310">
        <ele>1666.2</ele>
        <time>2017-07-23T12:35:37Z</time>
      </trkpt>
      <trkpt lat="44.3512260" lon="7.0515760">
        <ele>1666.6</ele>
        <time>2017-07-23T12:35:39Z</time>
      </trkpt>
      <trkpt lat="44.3512550" lon="7.0516400">
        <ele>1667.2</ele>
        <time>2017-07-23T12:35:42Z</time>
      </trkpt>
      <trkpt lat="44.3512890" lon="7.0517210">
        <ele>1668.4</ele>
        <time>2017-07-23T12:35:46Z</time>
      </trkpt>
      <trkpt lat="44.3513200" lon="7.0517740">
        <ele>1669.2</ele>
        <time>2017-07-23T12:35:49Z</time>
      </trkpt>
      <trkpt lat="44.3513300" lon="7.0517910">
        <ele>1669.6</ele>
        <time>2017-07-23T12:35:50Z</time>
      </trkpt>
      <trkpt lat="44.3514080" lon="7.0519100">
        <ele>1670.6</ele>
        <time>2017-07-23T12:35:58Z</time>
      </trkpt>
      <trkpt lat="44.3514580" lon="7.0519830">
        <ele>1675.8</ele>
        <time>2017-07-23T12:36:25Z</time>
      </trkpt>
      <trkpt lat="44.3514900" lon="7.0520290">
        <ele>1676.6</ele>
        <time>2017-07-23T12:36:28Z</time>
      </trkpt>
      <trkpt lat="44.3515130" lon="7.0520730">
        <ele>1677.0</ele>
        <time>2017-07-23T12:36:30Z</time>
      </trkpt>
      <trkpt lat="44.3515230" lon="7.0521170">
        <ele>1677.2</ele>
        <time>2017-07-23T12:36:32Z</time>
      </trkpt>
      <trkpt lat="44.3515520" lon="7.0521840">
        <ele>1677.4</ele>
        <time>2017-07-23T12:36:35Z</time>
      </trkpt>
      <trkpt lat="44.3515870" lon="7.0522430">
        <ele>1678.2</ele>
        <time>2017-07-23T12:36:38Z</time>
      </trkpt>
      <trkpt lat="44.3516510" lon="7.0523520">
        <ele>1678.8</ele>
        <time>2017-07-23T12:36:43Z</time>
      </trkpt>
      <trkpt lat="44.3516830" lon="7.0523880">
        <ele>1679.2</ele>
        <time>2017-07-23T12:36:46Z</time>
      </trkpt>
      <trkpt lat="44.3517290" lon="7.0524390">
        <ele>1679.6</ele>
        <time>2017-07-23T12:36:49Z</time>
      </trkpt>
      <trkpt lat="44.3517730" lon="7.0524990">
        <ele>1680.4</ele>
        <time>2017-07-23T12:36:52Z</time>
      </trkpt>
      <trkpt lat="44.3517860" lon="7.0525510">
        <ele>1680.4</ele>
        <time>2017-07-23T12:36:55Z</time>
      </trkpt>
      <trkpt lat="44.3518370" lon="7.0527420">
        <ele>1680.8</ele>
        <time>2017-07-23T12:37:02Z</time>
      </trkpt>
      <trkpt lat="44.3518420" lon="7.0528830">
        <ele>1680.4</ele>
        <time>2017-07-23T12:37:07Z</time>
      </trkpt>
      <trkpt lat="44.3518530" lon="7.0529580">
        <ele>1681.4</ele>
        <time>2017-07-23T12:37:10Z</time>
      </trkpt>
      <trkpt lat="44.3518630" lon="7.0529830">
        <ele>1681.6</ele>
        <time>2017-07-23T12:37:11Z</time>
      </trkpt>
      <trkpt lat="44.3519050" lon="7.0531450">
        <ele>1682.6</ele>
        <time>2017-07-23T12:37:16Z</time>
      </trkpt>
      <trkpt lat="44.3519040" lon="7.0531700">
        <ele>1682.6</ele>
        <time>2017-07-23T12:37:17Z</time>
      </trkpt>
      <trkpt lat="44.3518570" lon="7.0533350">
        <ele>1682.6</ele>
        <time>2017-07-23T12:37:24Z</time>
      </trkpt>
      <trkpt lat="44.3518440" lon="7.0534360">
        <ele>1683.8</ele>
        <time>2017-07-23T12:37:28Z</time>
      </trkpt>
      <trkpt lat="44.3518450" lon="7.0534790">
        <ele>1684.4</ele>
        <time>2017-07-23T12:37:30Z</time>
      </trkpt>
      <trkpt lat="44.3518430" lon="7.0535240">
        <ele>1684.8</ele>
        <time>2017-07-23T12:37:32Z</time>
      </trkpt>
      <trkpt lat="44.3518500" lon="7.0536170">
        <ele>1686.2</ele>
        <time>2017-07-23T12:37:36Z</time>
      </trkpt>
      <trkpt lat="44.3518530" lon="7.0536450">
        <ele>1686.6</ele>
        <time>2017-07-23T12:37:37Z</time>
      </trkpt>
      <trkpt lat="44.3518520" lon="7.0536920">
        <ele>1687.4</ele>
        <time>2017-07-23T12:37:39Z</time>
      </trkpt>
      <trkpt lat="44.3518420" lon="7.0537710">
        <ele>1688.4</ele>
        <time>2017-07-23T12:37:42Z</time>
      </trkpt>
      <trkpt lat="44.3518430" lon="7.0538010">
        <ele>1688.8</ele>
        <time>2017-07-23T12:37:43Z</time>
      </trkpt>
      <trkpt lat="44.3518550" lon="7.0538800">
        <ele>1689.6</ele>
        <time>2017-07-23T12:37:46Z</time>
      </trkpt>
      <trkpt lat="44.3518850" lon="7.0539810">
        <ele>1690.8</ele>
        <time>2017-07-23T12:37:49Z</time>
      </trkpt>
      <trkpt lat="44.3519010" lon="7.0540270">
        <ele>1691.8</ele>
        <time>2017-07-23T12:37:51Z</time>
      </trkpt>
      <trkpt lat="44.3519300" lon="7.0541370">
        <ele>1693.2</ele>
        <time>2017-07-23T12:37:56Z</time>
      </trkpt>
      <trkpt lat="44.3519470" lon="7.0542010">
        <ele>1694.4</ele>
        <time>2017-07-23T12:37:59Z</time>
      </trkpt>
      <trkpt lat="44.3519790" lon="7.0543100">
        <ele>1695.4</ele>
        <time>2017-07-23T12:38:03Z</time>
      </trkpt>
      <trkpt lat="44.3520040" lon="7.0543590">
        <ele>1695.4</ele>
        <time>2017-07-23T12:38:05Z</time>
      </trkpt>
      <trkpt lat="44.3520400" lon="7.0544420">
        <ele>1696.6</ele>
        <time>2017-07-23T12:38:09Z</time>
      </trkpt>
      <trkpt lat="44.3521050" lon="7.0546580">
        <ele>1697.0</ele>
        <time>2017-07-23T12:38:18Z</time>
      </trkpt>
      <trkpt lat="44.3521500" lon="7.0547650">
        <ele>1697.6</ele>
        <time>2017-07-23T12:38:24Z</time>
      </trkpt>
      <trkpt lat="44.3521620" lon="7.0547880">
        <ele>1697.6</ele>
        <time>2017-07-23T12:38:25Z</time>
      </trkpt>
      <trkpt lat="44.3522160" lon="7.0548640">
        <ele>1698.6</ele>
        <time>2017-07-23T12:38:29Z</time>
      </trkpt>
      <trkpt lat="44.3522370" lon="7.0548970">
        <ele>1699.2</ele>
        <time>2017-07-23T12:38:31Z</time>
      </trkpt>
      <trkpt lat="44.3522460" lon="7.0549020">
        <ele>1699.6</ele>
        <time>2017-07-23T12:38:32Z</time>
      </trkpt>
      <trkpt lat="44.3522590" lon="7.0549040">
        <ele>1699.8</ele>
        <time>2017-07-23T12:38:33Z</time>
      </trkpt>
      <trkpt lat="44.3522970" lon="7.0548840">
        <ele>1700.8</ele>
        <time>2017-07-23T12:38:36Z</time>
      </trkpt>
      <trkpt lat="44.3523000" lon="7.0548390">
        <ele>1702.0</ele>
        <time>2017-07-23T12:38:39Z</time>
      </trkpt>
      <trkpt lat="44.3522830" lon="7.0548010">
        <ele>1702.2</ele>
        <time>2017-07-23T12:38:41Z</time>
      </trkpt>
      <trkpt lat="44.3522470" lon="7.0547380">
        <ele>1703.2</ele>
        <time>2017-07-23T12:38:44Z</time>
      </trkpt>
      <trkpt lat="44.3522350" lon="7.0546890">
        <ele>1704.2</ele>
        <time>2017-07-23T12:38:46Z</time>
      </trkpt>
      <trkpt lat="44.3522250" lon="7.0546710">
        <ele>1704.4</ele>
        <time>2017-07-23T12:38:47Z</time>
      </trkpt>
      <trkpt lat="44.3522000" lon="7.0545510">
        <ele>1704.6</ele>
        <time>2017-07-23T12:38:52Z</time>
      </trkpt>
      <trkpt lat="44.3521820" lon="7.0543210">
        <ele>1705.4</ele>
        <time>2017-07-23T12:38:59Z</time>
      </trkpt>
      <trkpt lat="44.3521780" lon="7.0542790">
        <ele>1705.8</ele>
        <time>2017-07-23T12:39:00Z</time>
      </trkpt>
      <trkpt lat="44.3521590" lon="7.0541560">
        <ele>1706.6</ele>
        <time>2017-07-23T12:39:04Z</time>
      </trkpt>
      <trkpt lat="44.3521470" lon="7.0540560">
        <ele>1707.2</ele>
        <time>2017-07-23T12:39:07Z</time>
      </trkpt>
      <trkpt lat="44.3521530" lon="7.0539890">
        <ele>1707.6</ele>
        <time>2017-07-23T12:39:09Z</time>
      </trkpt>
      <trkpt lat="44.3521540" lon="7.0538570">
        <ele>1709.0</ele>
        <time>2017-07-23T12:39:13Z</time>
      </trkpt>
      <trkpt lat="44.3521580" lon="7.0538250">
        <ele>1709.4</ele>
        <time>2017-07-23T12:39:14Z</time>
      </trkpt>
      <trkpt lat="44.3521650" lon="7.0537610">
        <ele>1710.0</ele>
        <time>2017-07-23T12:39:16Z</time>
      </trkpt>
      <trkpt lat="44.3521860" lon="7.0536150">
        <ele>1711.0</ele>
        <time>2017-07-23T12:39:21Z</time>
      </trkpt>
      <trkpt lat="44.3521920" lon="7.0535840">
        <ele>1711.2</ele>
        <time>2017-07-23T12:39:22Z</time>
      </trkpt>
      <trkpt lat="44.3522310" lon="7.0534410">
        <ele>1712.6</ele>
        <time>2017-07-23T12:39:27Z</time>
      </trkpt>
      <trkpt lat="44.3522460" lon="7.0533890">
        <ele>1712.8</ele>
        <time>2017-07-23T12:39:29Z</time>
      </trkpt>
      <trkpt lat="44.3522560" lon="7.0533190">
        <ele>1713.8</ele>
        <time>2017-07-23T12:39:32Z</time>
      </trkpt>
      <trkpt lat="44.3522750" lon="7.0532650">
        <ele>1714.6</ele>
        <time>2017-07-23T12:39:35Z</time>
      </trkpt>
      <trkpt lat="44.3522850" lon="7.0532480">
        <ele>1714.8</ele>
        <time>2017-07-23T12:39:36Z</time>
      </trkpt>
      <trkpt lat="44.3523020" lon="7.0530800">
        <ele>1715.0</ele>
        <time>2017-07-23T12:39:42Z</time>
      </trkpt>
      <trkpt lat="44.3523030" lon="7.0528970">
        <ele>1713.8</ele>
        <time>2017-07-23T12:39:49Z</time>
      </trkpt>
      <trkpt lat="44.3522870" lon="7.0527480">
        <ele>1712.6</ele>
        <time>2017-07-23T12:39:54Z</time>
      </trkpt>
      <trkpt lat="44.3522820" lon="7.0526950">
        <ele>1712.4</ele>
        <time>2017-07-23T12:39:56Z</time>
      </trkpt>
      <trkpt lat="44.3522600" lon="7.0525000">
        <ele>1711.6</ele>
        <time>2017-07-23T12:40:03Z</time>
      </trkpt>
      <trkpt lat="44.3522570" lon="7.0524380">
        <ele>1711.4</ele>
        <time>2017-07-23T12:40:05Z</time>
      </trkpt>
      <trkpt lat="44.3522630" lon="7.0522470">
        <ele>1712.0</ele>
        <time>2017-07-23T12:40:12Z</time>
      </trkpt>
      <trkpt lat="44.3522600" lon="7.0521340">
        <ele>1713.0</ele>
        <time>2017-07-23T12:40:16Z</time>
      </trkpt>
      <trkpt lat="44.3522500" lon="7.0520860">
        <ele>1714.0</ele>
        <time>2017-07-23T12:40:18Z</time>
      </trkpt>
      <trkpt lat="44.3522060" lon="7.0519920">
        <ele>1715.0</ele>
        <time>2017-07-23T12:40:23Z</time>
      </trkpt>
      <trkpt lat="44.3521970" lon="7.0519730">
        <ele>1715.2</ele>
        <time>2017-07-23T12:40:24Z</time>
      </trkpt>
      <trkpt lat="44.3521690" lon="7.0519190">
        <ele>1716.6</ele>
        <time>2017-07-23T12:40:27Z</time>
      </trkpt>
      <trkpt lat="44.3521550" lon="7.0518770">
        <ele>1717.8</ele>
        <time>2017-07-23T12:40:29Z</time>
      </trkpt>
      <trkpt lat="44.3521510" lon="7.0518300">
        <ele>1718.8</ele>
        <time>2017-07-23T12:40:31Z</time>
      </trkpt>
      <trkpt lat="44.3521500" lon="7.0518080">
        <ele>1719.4</ele>
        <time>2017-07-23T12:40:32Z</time>
      </trkpt>
      <trkpt lat="44.3521500" lon="7.0517550">
        <ele>1720.0</ele>
        <time>2017-07-23T12:40:34Z</time>
      </trkpt>
      <trkpt lat="44.3521590" lon="7.0517090">
        <ele>1721.0</ele>
        <time>2017-07-23T12:40:36Z</time>
      </trkpt>
      <trkpt lat="44.3521650" lon="7.0516610">
        <ele>1722.0</ele>
        <time>2017-07-23T12:40:38Z</time>
      </trkpt>
      <trkpt lat="44.3521700" lon="7.0516310">
        <ele>1722.8</ele>
        <time>2017-07-23T12:40:39Z</time>
      </trkpt>
      <trkpt lat="44.3521760" lon="7.0516050">
        <ele>1723.2</ele>
        <time>2017-07-23T12:40:40Z</time>
      </trkpt>
      <trkpt lat="44.3521820" lon="7.0514180">
        <ele>1724.4</ele>
        <time>2017-07-23T12:40:47Z</time>
      </trkpt>
      <trkpt lat="44.3521850" lon="7.0513910">
        <ele>1724.8</ele>
        <time>2017-07-23T12:40:48Z</time>
      </trkpt>
      <trkpt lat="44.3522170" lon="7.0511940">
        <ele>1724.4</ele>
        <time>2017-07-23T12:40:56Z</time>
      </trkpt>
      <trkpt lat="44.3522270" lon="7.0510380">
        <ele>1724.0</ele>
        <time>2017-07-23T12:41:02Z</time>
      </trkpt>
      <trkpt lat="44.3522290" lon="7.0509850">
        <ele>1723.4</ele>
        <time>2017-07-23T12:41:04Z</time>
      </trkpt>
      <trkpt lat="44.3522290" lon="7.0509590">
        <ele>1723.2</ele>
        <time>2017-07-23T12:41:05Z</time>
      </trkpt>
      <trkpt lat="44.3522360" lon="7.0509070">
        <ele>1723.2</ele>
        <time>2017-07-23T12:41:07Z</time>
      </trkpt>
      <trkpt lat="44.3522470" lon="7.0507360">
        <ele>1723.0</ele>
        <time>2017-07-23T12:41:14Z</time>
      </trkpt>
      <trkpt lat="44.3522460" lon="7.0505530">
        <ele>1724.0</ele>
        <time>2017-07-23T12:41:22Z</time>
      </trkpt>
      <trkpt lat="44.3522450" lon="7.0505350">
        <ele>1724.6</ele>
        <time>2017-07-23T12:41:23Z</time>
      </trkpt>
      <trkpt lat="44.3522340" lon="7.0504540">
        <ele>1726.0</ele>
        <time>2017-07-23T12:41:27Z</time>
      </trkpt>
      <trkpt lat="44.3522230" lon="7.0504170">
        <ele>1727.2</ele>
        <time>2017-07-23T12:41:29Z</time>
      </trkpt>
      <trkpt lat="44.3522140" lon="7.0503790">
        <ele>1728.0</ele>
        <time>2017-07-23T12:41:31Z</time>
      </trkpt>
      <trkpt lat="44.3522070" lon="7.0503620">
        <ele>1728.4</ele>
        <time>2017-07-23T12:41:32Z</time>
      </trkpt>
      <trkpt lat="44.3521950" lon="7.0503210">
        <ele>1729.6</ele>
        <time>2017-07-23T12:41:34Z</time>
      </trkpt>
      <trkpt lat="44.3521900" lon="7.0502730">
        <ele>1731.2</ele>
        <time>2017-07-23T12:41:37Z</time>
      </trkpt>
      <trkpt lat="44.3521920" lon="7.0502100">
        <ele>1732.4</ele>
        <time>2017-07-23T12:41:40Z</time>
      </trkpt>
      <trkpt lat="44.3521900" lon="7.0501640">
        <ele>1733.6</ele>
        <time>2017-07-23T12:41:42Z</time>
      </trkpt>
      <trkpt lat="44.3521950" lon="7.0501070">
        <ele>1735.0</ele>
        <time>2017-07-23T12:41:44Z</time>
      </trkpt>
      <trkpt lat="44.3522010" lon="7.0500830">
        <ele>1735.8</ele>
        <time>2017-07-23T12:41:45Z</time>
      </trkpt>
      <trkpt lat="44.3522080" lon="7.0500600">
        <ele>1736.4</ele>
        <time>2017-07-23T12:41:46Z</time>
      </trkpt>
      <trkpt lat="44.3522170" lon="7.0500170">
        <ele>1737.8</ele>
        <time>2017-07-23T12:41:48Z</time>
      </trkpt>
      <trkpt lat="44.3522320" lon="7.0499160">
        <ele>1738.4</ele>
        <time>2017-07-23T12:41:52Z</time>
      </trkpt>
      <trkpt lat="44.3522430" lon="7.0497410">
        <ele>1738.8</ele>
        <time>2017-07-23T12:41:59Z</time>
      </trkpt>
      <trkpt lat="44.3522310" lon="7.0495720">
        <ele>1740.0</ele>
        <time>2017-07-23T12:42:05Z</time>
      </trkpt>
      <trkpt lat="44.3522210" lon="7.0495300">
        <ele>1740.4</ele>
        <time>2017-07-23T12:42:07Z</time>
      </trkpt>
      <trkpt lat="44.3522090" lon="7.0494770">
        <ele>1741.0</ele>
        <time>2017-07-23T12:42:09Z</time>
      </trkpt>
      <trkpt lat="44.3522050" lon="7.0493880">
        <ele>1742.2</ele>
        <time>2017-07-23T12:42:13Z</time>
      </trkpt>
      <trkpt lat="44.3522100" lon="7.0493620">
        <ele>1742.6</ele>
        <time>2017-07-23T12:42:14Z</time>
      </trkpt>
      <trkpt lat="44.3522150" lon="7.0493130">
        <ele>1743.4</ele>
        <time>2017-07-23T12:42:16Z</time>
      </trkpt>
      <trkpt lat="44.3522500" lon="7.0491830">
        <ele>1744.2</ele>
        <time>2017-07-23T12:42:21Z</time>
      </trkpt>
      <trkpt lat="44.3522670" lon="7.0491320">
        <ele>1744.6</ele>
        <time>2017-07-23T12:42:23Z</time>
      </trkpt>
      <trkpt lat="44.3522950" lon="7.0490380">
        <ele>1745.6</ele>
        <time>2017-07-23T12:42:27Z</time>
      </trkpt>
      <trkpt lat="44.3523010" lon="7.0490140">
        <ele>1745.8</ele>
        <time>2017-07-23T12:42:28Z</time>
      </trkpt>
      <trkpt lat="44.3523220" lon="7.0489120">
        <ele>1746.8</ele>
        <time>2017-07-23T12:42:32Z</time>
      </trkpt>
      <trkpt lat="44.3523320" lon="7.0488890">
        <ele>1747.0</ele>
        <time>2017-07-23T12:42:33Z</time>
      </trkpt>
      <trkpt lat="44.3523920" lon="7.0487660">
        <ele>1748.2</ele>
        <time>2017-07-23T12:42:39Z</time>
      </trkpt>
      <trkpt lat="44.3524130" lon="7.0487330">
        <ele>1747.8</ele>
        <time>2017-07-23T12:42:41Z</time>
      </trkpt>
      <trkpt lat="44.3524430" lon="7.0486810">
        <ele>1747.0</ele>
        <time>2017-07-23T12:42:44Z</time>
      </trkpt>
      <trkpt lat="44.3524890" lon="7.0486020">
        <ele>1746.8</ele>
        <time>2017-07-23T12:42:48Z</time>
      </trkpt>
      <trkpt lat="44.3525130" lon="7.0485380">
        <ele>1744.0</ele>
        <time>2017-07-23T12:42:51Z</time>
      </trkpt>
      <trkpt lat="44.3525240" lon="7.0484920">
        <ele>1742.8</ele>
        <time>2017-07-23T12:42:53Z</time>
      </trkpt>
      <trkpt lat="44.3525260" lon="7.0484650">
        <ele>1745.6</ele>
        <time>2017-07-23T12:42:54Z</time>
      </trkpt>
      <trkpt lat="44.3525270" lon="7.0484110">
        <ele>1747.0</ele>
        <time>2017-07-23T12:42:56Z</time>
      </trkpt>
      <trkpt lat="44.3525330" lon="7.0483280">
        <ele>1745.6</ele>
        <time>2017-07-23T12:42:59Z</time>
      </trkpt>
      <trkpt lat="44.3525310" lon="7.0482450">
        <ele>1747.8</ele>
        <time>2017-07-23T12:43:02Z</time>
      </trkpt>
      <trkpt lat="44.3525290" lon="7.0482140">
        <ele>1749.4</ele>
        <time>2017-07-23T12:43:03Z</time>
      </trkpt>
      <trkpt lat="44.3525310" lon="7.0481870">
        <ele>1749.8</ele>
        <time>2017-07-23T12:43:04Z</time>
      </trkpt>
      <trkpt lat="44.3525390" lon="7.0480920">
        <ele>1750.6</ele>
        <time>2017-07-23T12:43:08Z</time>
      </trkpt>
      <trkpt lat="44.3525460" lon="7.0480700">
        <ele>1751.0</ele>
        <time>2017-07-23T12:43:09Z</time>
      </trkpt>
      <trkpt lat="44.3525760" lon="7.0480590">
        <ele>1752.2</ele>
        <time>2017-07-23T12:43:12Z</time>
      </trkpt>
      <trkpt lat="44.3525900" lon="7.0480880">
        <ele>1753.0</ele>
        <time>2017-07-23T12:43:14Z</time>
      </trkpt>
      <trkpt lat="44.3525910" lon="7.0481100">
        <ele>1753.0</ele>
        <time>2017-07-23T12:43:15Z</time>
      </trkpt>
      <trkpt lat="44.3525930" lon="7.0481920">
        <ele>1752.8</ele>
        <time>2017-07-23T12:43:18Z</time>
      </trkpt>
      <trkpt lat="44.3526070" lon="7.0482730">
        <ele>1752.6</ele>
        <time>2017-07-23T12:43:22Z</time>
      </trkpt>
      <trkpt lat="44.3526310" lon="7.0484870">
        <ele>1754.0</ele>
        <time>2017-07-23T12:43:29Z</time>
      </trkpt>
      <trkpt lat="44.3526290" lon="7.0486440">
        <ele>1755.2</ele>
        <time>2017-07-23T12:43:34Z</time>
      </trkpt>
      <trkpt lat="44.3526120" lon="7.0487020">
        <ele>1755.6</ele>
        <time>2017-07-23T12:43:36Z</time>
      </trkpt>
      <trkpt lat="44.3525700" lon="7.0489280">
        <ele>1755.2</ele>
        <time>2017-07-23T12:43:43Z</time>
      </trkpt>
      <trkpt lat="44.3525670" lon="7.0490600">
        <ele>1755.8</ele>
        <time>2017-07-23T12:43:48Z</time>
      </trkpt>
      <trkpt lat="44.3525680" lon="7.0491620">
        <ele>1756.8</ele>
        <time>2017-07-23T12:43:51Z</time>
      </trkpt>
      <trkpt lat="44.3525690" lon="7.0492890">
        <ele>1756.8</ele>
        <time>2017-07-23T12:43:55Z</time>
      </trkpt>
      <trkpt lat="44.3525830" lon="7.0494980">
        <ele>1756.4</ele>
        <time>2017-07-23T12:44:02Z</time>
      </trkpt>
      <trkpt lat="44.3526140" lon="7.0496370">
        <ele>1756.0</ele>
        <time>2017-07-23T12:44:08Z</time>
      </trkpt>
      <trkpt lat="44.3526350" lon="7.0498020">
        <ele>1756.0</ele>
        <time>2017-07-23T12:44:15Z</time>
      </trkpt>
      <trkpt lat="44.3526430" lon="7.0498210">
        <ele>1756.0</ele>
        <time>2017-07-23T12:44:16Z</time>
      </trkpt>
      <trkpt lat="44.3526610" lon="7.0499140">
        <ele>1756.6</ele>
        <time>2017-07-23T12:44:20Z</time>
      </trkpt>
      <trkpt lat="44.3527360" lon="7.0503680">
        <ele>1770.6</ele>
        <time>2017-07-23T12:45:51Z</time>
      </trkpt>
      <trkpt lat="44.3527480" lon="7.0503850">
        <ele>1770.8</ele>
        <time>2017-07-23T12:45:52Z</time>
      </trkpt>
      <trkpt lat="44.3527760" lon="7.0504990">
        <ele>1770.0</ele>
        <time>2017-07-23T12:45:57Z</time>
      </trkpt>
      <trkpt lat="44.3528100" lon="7.0505960">
        <ele>1769.6</ele>
        <time>2017-07-23T12:46:01Z</time>
      </trkpt>
      <trkpt lat="44.3528260" lon="7.0506630">
        <ele>1768.8</ele>
        <time>2017-07-23T12:46:04Z</time>
      </trkpt>
      <trkpt lat="44.3528360" lon="7.0507050">
        <ele>1768.4</ele>
        <time>2017-07-23T12:46:06Z</time>
      </trkpt>
      <trkpt lat="44.3528530" lon="7.0508270">
        <ele>1768.0</ele>
        <time>2017-07-23T12:46:11Z</time>
      </trkpt>
      <trkpt lat="44.3528540" lon="7.0508570">
        <ele>1768.0</ele>
        <time>2017-07-23T12:46:12Z</time>
      </trkpt>
      <trkpt lat="44.3528640" lon="7.0509300">
        <ele>1767.6</ele>
        <time>2017-07-23T12:46:15Z</time>
      </trkpt>
      <trkpt lat="44.3528640" lon="7.0510010">
        <ele>1767.8</ele>
        <time>2017-07-23T12:46:18Z</time>
      </trkpt>
      <trkpt lat="44.3528700" lon="7.0510950">
        <ele>1768.2</ele>
        <time>2017-07-23T12:46:22Z</time>
      </trkpt>
      <trkpt lat="44.3528760" lon="7.0512100">
        <ele>1768.6</ele>
        <time>2017-07-23T12:46:27Z</time>
      </trkpt>
      <trkpt lat="44.3528950" lon="7.0513680">
        <ele>1768.6</ele>
        <time>2017-07-23T12:46:33Z</time>
      </trkpt>
      <trkpt lat="44.3529040" lon="7.0514210">
        <ele>1768.6</ele>
        <time>2017-07-23T12:46:35Z</time>
      </trkpt>
      <trkpt lat="44.3529060" lon="7.0515950">
        <ele>1769.4</ele>
        <time>2017-07-23T12:46:42Z</time>
      </trkpt>
      <trkpt lat="44.3529080" lon="7.0516200">
        <ele>1769.6</ele>
        <time>2017-07-23T12:46:43Z</time>
      </trkpt>
      <trkpt lat="44.3529110" lon="7.0517870">
        <ele>1770.4</ele>
        <time>2017-07-23T12:46:50Z</time>
      </trkpt>
      <trkpt lat="44.3529140" lon="7.0518440">
        <ele>1770.4</ele>
        <time>2017-07-23T12:46:53Z</time>
      </trkpt>
      <trkpt lat="44.3529250" lon="7.0519420">
        <ele>1771.2</ele>
        <time>2017-07-23T12:46:57Z</time>
      </trkpt>
      <trkpt lat="44.3529230" lon="7.0520080">
        <ele>1771.6</ele>
        <time>2017-07-23T12:47:00Z</time>
      </trkpt>
      <trkpt lat="44.3529280" lon="7.0520720">
        <ele>1772.6</ele>
        <time>2017-07-23T12:47:03Z</time>
      </trkpt>
      <trkpt lat="44.3529380" lon="7.0520960">
        <ele>1773.0</ele>
        <time>2017-07-23T12:47:04Z</time>
      </trkpt>
      <trkpt lat="44.3529450" lon="7.0521320">
        <ele>1773.8</ele>
        <time>2017-07-23T12:47:06Z</time>
      </trkpt>
      <trkpt lat="44.3529470" lon="7.0521940">
        <ele>1775.0</ele>
        <time>2017-07-23T12:47:09Z</time>
      </trkpt>
      <trkpt lat="44.3529520" lon="7.0522140">
        <ele>1775.4</ele>
        <time>2017-07-23T12:47:10Z</time>
      </trkpt>
      <trkpt lat="44.3529620" lon="7.0522660">
        <ele>1776.2</ele>
        <time>2017-07-23T12:47:12Z</time>
      </trkpt>
      <trkpt lat="44.3529730" lon="7.0523550">
        <ele>1777.2</ele>
        <time>2017-07-23T12:47:16Z</time>
      </trkpt>
      <trkpt lat="44.3529700" lon="7.0524050">
        <ele>1777.4</ele>
        <time>2017-07-23T12:47:19Z</time>
      </trkpt>
      <trkpt lat="44.3529930" lon="7.0525000">
        <ele>1778.4</ele>
        <time>2017-07-23T12:47:24Z</time>
      </trkpt>
      <trkpt lat="44.3530110" lon="7.0525670">
        <ele>1779.4</ele>
        <time>2017-07-23T12:47:27Z</time>
      </trkpt>
      <trkpt lat="44.3530240" lon="7.0526070">
        <ele>1779.8</ele>
        <time>2017-07-23T12:47:28Z</time>
      </trkpt>
      <trkpt lat="44.3530630" lon="7.0527340">
        <ele>1780.6</ele>
        <time>2017-07-23T12:47:32Z</time>
      </trkpt>
      <trkpt lat="44.3530960" lon="7.0527940">
        <ele>1781.4</ele>
        <time>2017-07-23T12:47:35Z</time>
      </trkpt>
      <trkpt lat="44.3531100" lon="7.0528190">
        <ele>1781.6</ele>
        <time>2017-07-23T12:47:36Z</time>
      </trkpt>
      <trkpt lat="44.3531670" lon="7.0529190">
        <ele>1782.6</ele>
        <time>2017-07-23T12:47:40Z</time>
      </trkpt>
      <trkpt lat="44.3531740" lon="7.0529420">
        <ele>1783.0</ele>
        <time>2017-07-23T12:47:41Z</time>
      </trkpt>
      <trkpt lat="44.3531770" lon="7.0530610">
        <ele>1783.8</ele>
        <time>2017-07-23T12:47:46Z</time>
      </trkpt>
      <trkpt lat="44.3531790" lon="7.0531040">
        <ele>1784.2</ele>
        <time>2017-07-23T12:47:48Z</time>
      </trkpt>
      <trkpt lat="44.3531600" lon="7.0532380">
        <ele>1785.0</ele>
        <time>2017-07-23T12:47:52Z</time>
      </trkpt>
      <trkpt lat="44.3531460" lon="7.0533170">
        <ele>1785.4</ele>
        <time>2017-07-23T12:47:55Z</time>
      </trkpt>
      <trkpt lat="44.3532090" lon="7.0534640">
        <ele>1786.0</ele>
        <time>2017-07-23T12:48:01Z</time>
      </trkpt>
      <trkpt lat="44.3532230" lon="7.0534930">
        <ele>1786.2</ele>
        <time>2017-07-23T12:48:02Z</time>
      </trkpt>
      <trkpt lat="44.3533100" lon="7.0536280">
        <ele>1787.2</ele>
        <time>2017-07-23T12:48:08Z</time>
      </trkpt>
      <trkpt lat="44.3533270" lon="7.0536390">
        <ele>1787.4</ele>
        <time>2017-07-23T12:48:09Z</time>
      </trkpt>
      <trkpt lat="44.3533750" lon="7.0536930">
        <ele>1788.2</ele>
        <time>2017-07-23T12:48:12Z</time>
      </trkpt>
      <trkpt lat="44.3534240" lon="7.0537340">
        <ele>1789.6</ele>
        <time>2017-07-23T12:48:15Z</time>
      </trkpt>
      <trkpt lat="44.3534380" lon="7.0537480">
        <ele>1789.8</ele>
        <time>2017-07-23T12:48:16Z</time>
      </trkpt>
      <trkpt lat="44.3534810" lon="7.0537820">
        <ele>1790.8</ele>
        <time>2017-07-23T12:48:19Z</time>
      </trkpt>
      <trkpt lat="44.3535310" lon="7.0538120">
        <ele>1792.0</ele>
        <time>2017-07-23T12:48:22Z</time>
      </trkpt>
      <trkpt lat="44.3535460" lon="7.0538180">
        <ele>1792.2</ele>
        <time>2017-07-23T12:48:23Z</time>
      </trkpt>
      <trkpt lat="44.3536150" lon="7.0538300">
        <ele>1793.0</ele>
        <time>2017-07-23T12:48:28Z</time>
      </trkpt>
      <trkpt lat="44.3536610" lon="7.0538560">
        <ele>1794.0</ele>
        <time>2017-07-23T12:48:31Z</time>
      </trkpt>
      <trkpt lat="44.3536810" lon="7.0538630">
        <ele>1794.4</ele>
        <time>2017-07-23T12:48:32Z</time>
      </trkpt>
      <trkpt lat="44.3537450" lon="7.0538900">
        <ele>1795.6</ele>
        <time>2017-07-23T12:48:36Z</time>
      </trkpt>
      <trkpt lat="44.3537940" lon="7.0539080">
        <ele>1797.0</ele>
        <time>2017-07-23T12:48:39Z</time>
      </trkpt>
      <trkpt lat="44.3538680" lon="7.0539650">
        <ele>1798.4</ele>
        <time>2017-07-23T12:48:43Z</time>
      </trkpt>
      <trkpt lat="44.3538910" lon="7.0539920">
        <ele>1799.0</ele>
        <time>2017-07-23T12:48:45Z</time>
      </trkpt>
      <trkpt lat="44.3539090" lon="7.0540260">
        <ele>1799.4</ele>
        <time>2017-07-23T12:48:47Z</time>
      </trkpt>
      <trkpt lat="44.3539910" lon="7.0541250">
        <ele>1800.4</ele>
        <time>2017-07-23T12:48:53Z</time>
      </trkpt>
      <trkpt lat="44.3540470" lon="7.0541690">
        <ele>1801.4</ele>
        <time>2017-07-23T12:48:57Z</time>
      </trkpt>
      <trkpt lat="44.3540620" lon="7.0541840">
        <ele>1801.6</ele>
        <time>2017-07-23T12:48:58Z</time>
      </trkpt>
      <trkpt lat="44.3540960" lon="7.0542140">
        <ele>1802.2</ele>
        <time>2017-07-23T12:49:00Z</time>
      </trkpt>
      <trkpt lat="44.3541240" lon="7.0542460">
        <ele>1802.8</ele>
        <time>2017-07-23T12:49:02Z</time>
      </trkpt>
      <trkpt lat="44.3541770" lon="7.0543170">
        <ele>1804.0</ele>
        <time>2017-07-23T12:49:06Z</time>
      </trkpt>
      <trkpt lat="44.3541920" lon="7.0543370">
        <ele>1804.2</ele>
        <time>2017-07-23T12:49:07Z</time>
      </trkpt>
      <trkpt lat="44.3542750" lon="7.0544290">
        <ele>1805.2</ele>
        <time>2017-07-23T12:49:13Z</time>
      </trkpt>
      <trkpt lat="44.3542990" lon="7.0544670">
        <ele>1805.6</ele>
        <time>2017-07-23T12:49:15Z</time>
      </trkpt>
      <trkpt lat="44.3543590" lon="7.0545140">
        <ele>1806.4</ele>
        <time>2017-07-23T12:49:19Z</time>
      </trkpt>
      <trkpt lat="44.3544040" lon="7.0545380">
        <ele>1806.8</ele>
        <time>2017-07-23T12:49:21Z</time>
      </trkpt>
      <trkpt lat="44.3544890" lon="7.0545650">
        <ele>1807.8</ele>
        <time>2017-07-23T12:49:25Z</time>
      </trkpt>
      <trkpt lat="44.3545480" lon="7.0545820">
        <ele>1808.8</ele>
        <time>2017-07-23T12:49:28Z</time>
      </trkpt>
      <trkpt lat="44.3545670" lon="7.0545880">
        <ele>1809.0</ele>
        <time>2017-07-23T12:49:29Z</time>
      </trkpt>
      <trkpt lat="44.3546200" lon="7.0546470">
        <ele>1809.8</ele>
        <time>2017-07-23T12:49:33Z</time>
      </trkpt>
      <trkpt lat="44.3546600" lon="7.0547090">
        <ele>1810.4</ele>
        <time>2017-07-23T12:49:36Z</time>
      </trkpt>
      <trkpt lat="44.3547220" lon="7.0548030">
        <ele>1811.0</ele>
        <time>2017-07-23T12:49:41Z</time>
      </trkpt>
      <trkpt lat="44.3547700" lon="7.0548400">
        <ele>1811.2</ele>
        <time>2017-07-23T12:49:44Z</time>
      </trkpt>
      <trkpt lat="44.3548830" lon="7.0549000">
        <ele>1811.8</ele>
        <time>2017-07-23T12:49:51Z</time>
      </trkpt>
      <trkpt lat="44.3549480" lon="7.0549630">
        <ele>1812.0</ele>
        <time>2017-07-23T12:49:55Z</time>
      </trkpt>
      <trkpt lat="44.3549710" lon="7.0550040">
        <ele>1812.2</ele>
        <time>2017-07-23T12:49:57Z</time>
      </trkpt>
      <trkpt lat="44.3550060" lon="7.0550980">
        <ele>1813.2</ele>
        <time>2017-07-23T12:50:02Z</time>
      </trkpt>
      <trkpt lat="44.3550190" lon="7.0551590">
        <ele>1813.6</ele>
        <time>2017-07-23T12:50:05Z</time>
      </trkpt>
      <trkpt lat="44.3550370" lon="7.0552160">
        <ele>1814.2</ele>
        <time>2017-07-23T12:50:08Z</time>
      </trkpt>
      <trkpt lat="44.3550550" lon="7.0552550">
        <ele>1814.8</ele>
        <time>2017-07-23T12:50:11Z</time>
      </trkpt>
      <trkpt lat="44.3550820" lon="7.0553170">
        <ele>1815.4</ele>
        <time>2017-07-23T12:50:14Z</time>
      </trkpt>
      <trkpt lat="44.3551340" lon="7.0554120">
        <ele>1816.4</ele>
        <time>2017-07-23T12:50:18Z</time>
      </trkpt>
      <trkpt lat="44.3551670" lon="7.0554650">
        <ele>1816.8</ele>
        <time>2017-07-23T12:50:20Z</time>
      </trkpt>
      <trkpt lat="44.3552400" lon="7.0555650">
        <ele>1817.4</ele>
        <time>2017-07-23T12:50:25Z</time>
      </trkpt>
      <trkpt lat="44.3552650" lon="7.0556010">
        <ele>1818.0</ele>
        <time>2017-07-23T12:50:27Z</time>
      </trkpt>
      <trkpt lat="44.3553150" lon="7.0556750">
        <ele>1818.6</ele>
        <time>2017-07-23T12:50:31Z</time>
      </trkpt>
      <trkpt lat="44.3553470" lon="7.0557200">
        <ele>1819.2</ele>
        <time>2017-07-23T12:50:34Z</time>
      </trkpt>
      <trkpt lat="44.3554060" lon="7.0557900">
        <ele>1819.6</ele>
        <time>2017-07-23T12:50:38Z</time>
      </trkpt>
      <trkpt lat="44.3554370" lon="7.0558260">
        <ele>1820.4</ele>
        <time>2017-07-23T12:50:40Z</time>
      </trkpt>
      <trkpt lat="44.3554850" lon="7.0558950">
        <ele>1820.8</ele>
        <time>2017-07-23T12:50:44Z</time>
      </trkpt>
      <trkpt lat="44.3555050" lon="7.0559250">
        <ele>1821.0</ele>
        <time>2017-07-23T12:50:46Z</time>
      </trkpt>
      <trkpt lat="44.3555440" lon="7.0559970">
        <ele>1821.2</ele>
        <time>2017-07-23T12:50:50Z</time>
      </trkpt>
      <trkpt lat="44.3555540" lon="7.0560140">
        <ele>1821.2</ele>
        <time>2017-07-23T12:50:51Z</time>
      </trkpt>
      <trkpt lat="44.3555960" lon="7.0560730">
        <ele>1821.8</ele>
        <time>2017-07-23T12:50:55Z</time>
      </trkpt>
      <trkpt lat="44.3556070" lon="7.0560870">
        <ele>1822.0</ele>
        <time>2017-07-23T12:50:56Z</time>
      </trkpt>
      <trkpt lat="44.3557330" lon="7.0562320">
        <ele>1822.2</ele>
        <time>2017-07-23T12:54:10Z</time>
      </trkpt>
      <trkpt lat="44.3557480" lon="7.0562410">
        <ele>1822.2</ele>
        <time>2017-07-23T12:54:11Z</time>
      </trkpt>
      <trkpt lat="44.3557840" lon="7.0562740">
        <ele>1822.2</ele>
        <time>2017-07-23T12:54:13Z</time>
      </trkpt>
      <trkpt lat="44.3558280" lon="7.0563270">
        <ele>1822.4</ele>
        <time>2017-07-23T12:54:16Z</time>
      </trkpt>
      <trkpt lat="44.3558610" lon="7.0563420">
        <ele>1822.6</ele>
        <time>2017-07-23T12:54:18Z</time>
      </trkpt>
      <trkpt lat="44.3558640" lon="7.0563640">
        <ele>1822.6</ele>
        <time>2017-07-23T12:54:19Z</time>
      </trkpt>
      <trkpt lat="44.3558860" lon="7.0564530">
        <ele>1823.2</ele>
        <time>2017-07-23T12:54:23Z</time>
      </trkpt>
      <trkpt lat="44.3558980" lon="7.0564760">
        <ele>1823.2</ele>
        <time>2017-07-23T12:54:24Z</time>
      </trkpt>
      <trkpt lat="44.3559340" lon="7.0565600">
        <ele>1823.0</ele>
        <time>2017-07-23T12:54:28Z</time>
      </trkpt>
      <trkpt lat="44.3559610" lon="7.0566270">
        <ele>1823.2</ele>
        <time>2017-07-23T12:54:31Z</time>
      </trkpt>
      <trkpt lat="44.3560140" lon="7.0568060">
        <ele>1823.8</ele>
        <time>2017-07-23T12:54:39Z</time>
      </trkpt>
      <trkpt lat="44.3560320" lon="7.0569420">
        <ele>1823.2</ele>
        <time>2017-07-23T12:54:45Z</time>
      </trkpt>
      <trkpt lat="44.3560590" lon="7.0571140">
        <ele>1823.0</ele>
        <time>2017-07-23T12:54:52Z</time>
      </trkpt>
      <trkpt lat="44.3560630" lon="7.0571410">
        <ele>1823.2</ele>
        <time>2017-07-23T12:54:53Z</time>
      </trkpt>
      <trkpt lat="44.3561240" lon="7.0573370">
        <ele>1824.0</ele>
        <time>2017-07-23T12:55:01Z</time>
      </trkpt>
      <trkpt lat="44.3561340" lon="7.0574050">
        <ele>1824.2</ele>
        <time>2017-07-23T12:55:04Z</time>
      </trkpt>
      <trkpt lat="44.3561520" lon="7.0575200">
        <ele>1824.2</ele>
        <time>2017-07-23T12:55:09Z</time>
      </trkpt>
      <trkpt lat="44.3561800" lon="7.0576820">
        <ele>1824.8</ele>
        <time>2017-07-23T12:55:16Z</time>
      </trkpt>
      <trkpt lat="44.3561960" lon="7.0577640">
        <ele>1825.2</ele>
        <time>2017-07-23T12:55:19Z</time>
      </trkpt>
      <trkpt lat="44.3562380" lon="7.0578600">
        <ele>1825.4</ele>
        <time>2017-07-23T12:55:24Z</time>
      </trkpt>
      <trkpt lat="44.3562850" lon="7.0579220">
        <ele>1826.8</ele>
        <time>2017-07-23T12:55:28Z</time>
      </trkpt>
      <trkpt lat="44.3563340" lon="7.0579570">
        <ele>1827.6</ele>
        <time>2017-07-23T12:55:31Z</time>
      </trkpt>
      <trkpt lat="44.3563520" lon="7.0579750">
        <ele>1827.8</ele>
        <time>2017-07-23T12:55:32Z</time>
      </trkpt>
      <trkpt lat="44.3564080" lon="7.0580270">
        <ele>1829.0</ele>
        <time>2017-07-23T12:55:36Z</time>
      </trkpt>
      <trkpt lat="44.3564320" lon="7.0580630">
        <ele>1829.6</ele>
        <time>2017-07-23T12:55:38Z</time>
      </trkpt>
      <trkpt lat="44.3564490" lon="7.0581080">
        <ele>1830.2</ele>
        <time>2017-07-23T12:55:40Z</time>
      </trkpt>
      <trkpt lat="44.3564880" lon="7.0582320">
        <ele>1831.2</ele>
        <time>2017-07-23T12:55:45Z</time>
      </trkpt>
      <trkpt lat="44.3564990" lon="7.0582470">
        <ele>1831.4</ele>
        <time>2017-07-23T12:55:46Z</time>
      </trkpt>
      <trkpt lat="44.3565460" lon="7.0583900">
        <ele>1832.0</ele>
        <time>2017-07-23T12:55:53Z</time>
      </trkpt>
      <trkpt lat="44.3565880" lon="7.0585530">
        <ele>1831.6</ele>
        <time>2017-07-23T12:56:01Z</time>
      </trkpt>
      <trkpt lat="44.3566270" lon="7.0586800">
        <ele>1832.4</ele>
        <time>2017-07-23T12:56:07Z</time>
      </trkpt>
      <trkpt lat="44.3566360" lon="7.0587020">
        <ele>1832.4</ele>
        <time>2017-07-23T12:56:08Z</time>
      </trkpt>
      <trkpt lat="44.3566490" lon="7.0588810">
        <ele>1832.8</ele>
        <time>2017-07-23T12:56:15Z</time>
      </trkpt>
      <trkpt lat="44.3566150" lon="7.0589850">
        <ele>1833.4</ele>
        <time>2017-07-23T12:56:19Z</time>
      </trkpt>
      <trkpt lat="44.3565900" lon="7.0590130">
        <ele>1834.0</ele>
        <time>2017-07-23T12:56:21Z</time>
      </trkpt>
      <trkpt lat="44.3565900" lon="7.0590320">
        <ele>1834.2</ele>
        <time>2017-07-23T12:56:22Z</time>
      </trkpt>
      <trkpt lat="44.3566060" lon="7.0590830">
        <ele>1834.6</ele>
        <time>2017-07-23T12:56:24Z</time>
      </trkpt>
      <trkpt lat="44.3566130" lon="7.0591100">
        <ele>1835.0</ele>
        <time>2017-07-23T12:56:25Z</time>
      </trkpt>
      <trkpt lat="44.3566430" lon="7.0591580">
        <ele>1836.0</ele>
        <time>2017-07-23T12:56:28Z</time>
      </trkpt>
      <trkpt lat="44.3566580" lon="7.0591920">
        <ele>1836.8</ele>
        <time>2017-07-23T12:56:30Z</time>
      </trkpt>
      <trkpt lat="44.3566670" lon="7.0592120">
        <ele>1837.2</ele>
        <time>2017-07-23T12:56:31Z</time>
      </trkpt>
      <trkpt lat="44.3566860" lon="7.0592870">
        <ele>1838.2</ele>
        <time>2017-07-23T12:56:34Z</time>
      </trkpt>
      <trkpt lat="44.3566900" lon="7.0593590">
        <ele>1838.6</ele>
        <time>2017-07-23T12:56:37Z</time>
      </trkpt>
      <trkpt lat="44.3566920" lon="7.0595610">
        <ele>1838.4</ele>
        <time>2017-07-23T12:56:46Z</time>
      </trkpt>
      <trkpt lat="44.3566830" lon="7.0597590">
        <ele>1838.4</ele>
        <time>2017-07-23T12:56:54Z</time>
      </trkpt>
      <trkpt lat="44.3567150" lon="7.0598890">
        <ele>1839.4</ele>
        <time>2017-07-23T12:57:00Z</time>
      </trkpt>
      <trkpt lat="44.3567220" lon="7.0599350">
        <ele>1840.0</ele>
        <time>2017-07-23T12:57:02Z</time>
      </trkpt>
      <trkpt lat="44.3567310" lon="7.0599790">
        <ele>1840.6</ele>
        <time>2017-07-23T12:57:04Z</time>
      </trkpt>
      <trkpt lat="44.3567470" lon="7.0600840">
        <ele>1841.6</ele>
        <time>2017-07-23T12:57:09Z</time>
      </trkpt>
      <trkpt lat="44.3567530" lon="7.0601560">
        <ele>1842.2</ele>
        <time>2017-07-23T12:57:12Z</time>
      </trkpt>
      <trkpt lat="44.3567630" lon="7.0601970">
        <ele>1842.6</ele>
        <time>2017-07-23T12:57:14Z</time>
      </trkpt>
      <trkpt lat="44.3567690" lon="7.0602340">
        <ele>1843.0</ele>
        <time>2017-07-23T12:57:16Z</time>
      </trkpt>
      <trkpt lat="44.3567890" lon="7.0603000">
        <ele>1843.8</ele>
        <time>2017-07-23T12:57:19Z</time>
      </trkpt>
      <trkpt lat="44.3568130" lon="7.0603680">
        <ele>1844.8</ele>
        <time>2017-07-23T12:57:22Z</time>
      </trkpt>
      <trkpt lat="44.3568270" lon="7.0604190">
        <ele>1846.0</ele>
        <time>2017-07-23T12:57:24Z</time>
      </trkpt>
      <trkpt lat="44.3568380" lon="7.0604920">
        <ele>1847.4</ele>
        <time>2017-07-23T12:57:27Z</time>
      </trkpt>
      <trkpt lat="44.3568590" lon="7.0605360">
        <ele>1848.6</ele>
        <time>2017-07-23T12:57:29Z</time>
      </trkpt>
      <trkpt lat="44.3568830" lon="7.0605730">
        <ele>1849.6</ele>
        <time>2017-07-23T12:57:31Z</time>
      </trkpt>
      <trkpt lat="44.3569040" lon="7.0605980">
        <ele>1850.8</ele>
        <time>2017-07-23T12:57:33Z</time>
      </trkpt>
      <trkpt lat="44.3569250" lon="7.0606200">
        <ele>1851.8</ele>
        <time>2017-07-23T12:57:35Z</time>
      </trkpt>
      <trkpt lat="44.3569410" lon="7.0606220">
        <ele>1852.2</ele>
        <time>2017-07-23T12:57:36Z</time>
      </trkpt>
      <trkpt lat="44.3569560" lon="7.0606080">
        <ele>1852.2</ele>
        <time>2017-07-23T12:57:37Z</time>
      </trkpt>
      <trkpt lat="44.3570140" lon="7.0605430">
        <ele>1852.8</ele>
        <time>2017-07-23T12:57:42Z</time>
      </trkpt>
      <trkpt lat="44.3570640" lon="7.0604440">
        <ele>1853.0</ele>
        <time>2017-07-23T12:57:48Z</time>
      </trkpt>
      <trkpt lat="44.3570690" lon="7.0604270">
        <ele>1853.2</ele>
        <time>2017-07-23T12:57:49Z</time>
      </trkpt>
      <trkpt lat="44.3570720" lon="7.0604090">
        <ele>1853.2</ele>
        <time>2017-07-23T12:57:50Z</time>
      </trkpt>
      <trkpt lat="44.3570940" lon="7.0603690">
        <ele>1853.4</ele>
        <time>2017-07-23T12:57:53Z</time>
      </trkpt>
      <trkpt lat="44.3571030" lon="7.0603570">
        <ele>1853.6</ele>
        <time>2017-07-23T12:57:54Z</time>
      </trkpt>
      <trkpt lat="44.3571800" lon="7.0602500">
        <ele>1853.4</ele>
        <time>2017-07-23T12:58:02Z</time>
      </trkpt>
      <trkpt lat="44.3572470" lon="7.0601310">
        <ele>1853.6</ele>
        <time>2017-07-23T12:58:10Z</time>
      </trkpt>
      <trkpt lat="44.3573260" lon="7.0600190">
        <ele>1853.8</ele>
        <time>2017-07-23T12:58:18Z</time>
      </trkpt>
      <trkpt lat="44.3573760" lon="7.0599730">
        <ele>1854.4</ele>
        <time>2017-07-23T12:58:22Z</time>
      </trkpt>
      <trkpt lat="44.3574310" lon="7.0599050">
        <ele>1854.6</ele>
        <time>2017-07-23T12:58:27Z</time>
      </trkpt>
      <trkpt lat="44.3575260" lon="7.0598140">
        <ele>1855.4</ele>
        <time>2017-07-23T12:58:35Z</time>
      </trkpt>
      <trkpt lat="44.3575370" lon="7.0598060">
        <ele>1855.6</ele>
        <time>2017-07-23T12:58:36Z</time>
      </trkpt>
      <trkpt lat="44.3575970" lon="7.0597710">
        <ele>1856.6</ele>
        <time>2017-07-23T12:58:41Z</time>
      </trkpt>
      <trkpt lat="44.3576370" lon="7.0597510">
        <ele>1857.4</ele>
        <time>2017-07-23T12:58:44Z</time>
      </trkpt>
      <trkpt lat="44.3576540" lon="7.0597460">
        <ele>1857.8</ele>
        <time>2017-07-23T12:58:45Z</time>
      </trkpt>
      <trkpt lat="44.3577030" lon="7.0597120">
        <ele>1858.8</ele>
        <time>2017-07-23T12:58:49Z</time>
      </trkpt>
      <trkpt lat="44.3577160" lon="7.0597070">
        <ele>1859.0</ele>
        <time>2017-07-23T12:58:50Z</time>
      </trkpt>
      <trkpt lat="44.3577290" lon="7.0596980">
        <ele>1859.4</ele>
        <time>2017-07-23T12:58:51Z</time>
      </trkpt>
      <trkpt lat="44.3577540" lon="7.0596870">
        <ele>1860.0</ele>
        <time>2017-07-23T12:58:53Z</time>
      </trkpt>
      <trkpt lat="44.3577810" lon="7.0596840">
        <ele>1861.6</ele>
        <time>2017-07-23T12:58:55Z</time>
      </trkpt>
      <trkpt lat="44.3578080" lon="7.0596780">
        <ele>1863.0</ele>
        <time>2017-07-23T12:58:57Z</time>
      </trkpt>
      <trkpt lat="44.3578230" lon="7.0596730">
        <ele>1863.6</ele>
        <time>2017-07-23T12:58:58Z</time>
      </trkpt>
      <trkpt lat="44.3578380" lon="7.0596650">
        <ele>1864.2</ele>
        <time>2017-07-23T12:58:59Z</time>
      </trkpt>
      <trkpt lat="44.3578660" lon="7.0596570">
        <ele>1865.6</ele>
        <time>2017-07-23T12:59:01Z</time>
      </trkpt>
      <trkpt lat="44.3578950" lon="7.0596570">
        <ele>1867.2</ele>
        <time>2017-07-23T12:59:03Z</time>
      </trkpt>
      <trkpt lat="44.3579120" lon="7.0596550">
        <ele>1868.8</ele>
        <time>2017-07-23T12:59:04Z</time>
      </trkpt>
      <trkpt lat="44.3579430" lon="7.0596570">
        <ele>1870.4</ele>
        <time>2017-07-23T12:59:06Z</time>
      </trkpt>
      <trkpt lat="44.3579680" lon="7.0596630">
        <ele>1871.6</ele>
        <time>2017-07-23T12:59:08Z</time>
      </trkpt>
      <trkpt lat="44.3579810" lon="7.0596690">
        <ele>1872.2</ele>
        <time>2017-07-23T12:59:09Z</time>
      </trkpt>
      <trkpt lat="44.3579940" lon="7.0596750">
        <ele>1872.8</ele>
        <time>2017-07-23T12:59:10Z</time>
      </trkpt>
      <trkpt lat="44.3584160" lon="7.0594700">
        <ele>1889.6</ele>
        <time>2017-07-23T13:00:11Z</time>
      </trkpt>
      <trkpt lat="44.3584240" lon="7.0594550">
        <ele>1889.6</ele>
        <time>2017-07-23T13:00:12Z</time>
      </trkpt>
      <trkpt lat="44.3584680" lon="7.0593560">
        <ele>1889.6</ele>
        <time>2017-07-23T13:00:19Z</time>
      </trkpt>
      <trkpt lat="44.3585100" lon="7.0592420">
        <ele>1889.8</ele>
        <time>2017-07-23T13:00:28Z</time>
      </trkpt>
      <trkpt lat="44.3585350" lon="7.0591340">
        <ele>1890.2</ele>
        <time>2017-07-23T13:00:37Z</time>
      </trkpt>
      <trkpt lat="44.3585510" lon="7.0590920">
        <ele>1890.6</ele>
        <time>2017-07-23T13:00:41Z</time>
      </trkpt>
      <trkpt lat="44.3585610" lon="7.0590320">
        <ele>1891.0</ele>
        <time>2017-07-23T13:00:46Z</time>
      </trkpt>
      <trkpt lat="44.3585700" lon="7.0590060">
        <ele>1891.0</ele>
        <time>2017-07-23T13:00:48Z</time>
      </trkpt>
      <trkpt lat="44.3585840" lon="7.0589400">
        <ele>1890.8</ele>
        <time>2017-07-23T13:00:53Z</time>
      </trkpt>
      <trkpt lat="44.3585980" lon="7.0588310">
        <ele>1890.8</ele>
        <time>2017-07-23T13:01:01Z</time>
      </trkpt>
      <trkpt lat="44.3585990" lon="7.0587790">
        <ele>1891.6</ele>
        <time>2017-07-23T13:01:06Z</time>
      </trkpt>
      <trkpt lat="44.3586060" lon="7.0587570">
        <ele>1892.0</ele>
        <time>2017-07-23T13:01:08Z</time>
      </trkpt>
      <trkpt lat="44.3586120" lon="7.0587110">
        <ele>1892.2</ele>
        <time>2017-07-23T13:01:12Z</time>
      </trkpt>
      <trkpt lat="44.3586120" lon="7.0586650">
        <ele>1892.8</ele>
        <time>2017-07-23T13:01:15Z</time>
      </trkpt>
      <trkpt lat="44.3586120" lon="7.0586530">
        <ele>1892.8</ele>
        <time>2017-07-23T13:01:16Z</time>
      </trkpt>
      <trkpt lat="44.3586220" lon="7.0586100">
        <ele>1893.4</ele>
        <time>2017-07-23T13:01:19Z</time>
      </trkpt>
      <trkpt lat="44.3586360" lon="7.0585770">
        <ele>1893.8</ele>
        <time>2017-07-23T13:01:22Z</time>
      </trkpt>
      <trkpt lat="44.3586400" lon="7.0585650">
        <ele>1894.2</ele>
        <time>2017-07-23T13:01:23Z</time>
      </trkpt>
      <trkpt lat="44.3586480" lon="7.0585140">
        <ele>1894.8</ele>
        <time>2017-07-23T13:01:27Z</time>
      </trkpt>
      <trkpt lat="44.3586650" lon="7.0584590">
        <ele>1896.0</ele>
        <time>2017-07-23T13:01:32Z</time>
      </trkpt>
      <trkpt lat="44.3586660" lon="7.0584470">
        <ele>1896.2</ele>
        <time>2017-07-23T13:01:33Z</time>
      </trkpt>
      <trkpt lat="44.3586750" lon="7.0583840">
        <ele>1896.6</ele>
        <time>2017-07-23T13:01:38Z</time>
      </trkpt>
      <trkpt lat="44.3586910" lon="7.0583420">
        <ele>1897.0</ele>
        <time>2017-07-23T13:01:42Z</time>
      </trkpt>
      <trkpt lat="44.3589860" lon="7.0580390">
        <ele>1900.6</ele>
        <time>2017-07-23T13:02:29Z</time>
      </trkpt>
      <trkpt lat="44.3589980" lon="7.0580320">
        <ele>1900.6</ele>
        <time>2017-07-23T13:02:30Z</time>
      </trkpt>
      <trkpt lat="44.3590430" lon="7.0580170">
        <ele>1901.0</ele>
        <time>2017-07-23T13:02:34Z</time>
      </trkpt>
      <trkpt lat="44.3590680" lon="7.0580050">
        <ele>1901.0</ele>
        <time>2017-07-23T13:02:36Z</time>
      </trkpt>
      <trkpt lat="44.3591100" lon="7.0579470">
        <ele>1901.8</ele>
        <time>2017-07-23T13:02:41Z</time>
      </trkpt>
      <trkpt lat="44.3591310" lon="7.0579060">
        <ele>1902.6</ele>
        <time>2017-07-23T13:02:44Z</time>
      </trkpt>
      <trkpt lat="44.3591380" lon="7.0578950">
        <ele>1902.8</ele>
        <time>2017-07-23T13:02:45Z</time>
      </trkpt>
      <trkpt lat="44.3591670" lon="7.0578550">
        <ele>1903.4</ele>
        <time>2017-07-23T13:02:49Z</time>
      </trkpt>
      <trkpt lat="44.3591860" lon="7.0578180">
        <ele>1903.8</ele>
        <time>2017-07-23T13:02:52Z</time>
      </trkpt>
      <trkpt lat="44.3592450" lon="7.0577450">
        <ele>1904.0</ele>
        <time>2017-07-23T13:03:00Z</time>
      </trkpt>
      <trkpt lat="44.3593110" lon="7.0576990">
        <ele>1904.2</ele>
        <time>2017-07-23T13:03:08Z</time>
      </trkpt>
      <trkpt lat="44.3594070" lon="7.0576320">
        <ele>1904.6</ele>
        <time>2017-07-23T13:03:18Z</time>
      </trkpt>
      <trkpt lat="44.3594360" lon="7.0576170">
        <ele>1904.8</ele>
        <time>2017-07-23T13:03:21Z</time>
      </trkpt>
      <trkpt lat="44.3595000" lon="7.0575900">
        <ele>1905.8</ele>
        <time>2017-07-23T13:03:27Z</time>
      </trkpt>
      <trkpt lat="44.3595280" lon="7.0575750">
        <ele>1907.0</ele>
        <time>2017-07-23T13:03:30Z</time>
      </trkpt>
      <trkpt lat="44.3595790" lon="7.0575480">
        <ele>1908.2</ele>
        <time>2017-07-23T13:03:36Z</time>
      </trkpt>
      <trkpt lat="44.3596250" lon="7.0574660">
        <ele>1908.8</ele>
        <time>2017-07-23T13:03:45Z</time>
      </trkpt>
      <trkpt lat="44.3596640" lon="7.0573820">
        <ele>1908.6</ele>
        <time>2017-07-23T13:03:53Z</time>
      </trkpt>
      <trkpt lat="44.3597160" lon="7.0573210">
        <ele>1908.8</ele>
        <time>2017-07-23T13:04:01Z</time>
      </trkpt>
      <trkpt lat="44.3597710" lon="7.0572650">
        <ele>1909.0</ele>
        <time>2017-07-23T13:04:09Z</time>
      </trkpt>
      <trkpt lat="44.3598120" lon="7.0572290">
        <ele>1909.2</ele>
        <time>2017-07-23T13:04:14Z</time>
      </trkpt>
      <trkpt lat="44.3598380" lon="7.0571950">
        <ele>1909.4</ele>
        <time>2017-07-23T13:04:18Z</time>
      </trkpt>
      <trkpt lat="44.3598750" lon="7.0571570">
        <ele>1910.0</ele>
        <time>2017-07-23T13:04:30Z</time>
      </trkpt>
      <trkpt lat="44.3599050" lon="7.0571320">
        <ele>1909.6</ele>
        <time>2017-07-23T13:04:32Z</time>
      </trkpt>
      <trkpt lat="44.3600040" lon="7.0571370">
        <ele>1908.0</ele>
        <time>2017-07-23T13:04:38Z</time>
      </trkpt>
      <trkpt lat="44.3600410" lon="7.0571830">
        <ele>1908.4</ele>
        <time>2017-07-23T13:04:41Z</time>
      </trkpt>
      <trkpt lat="44.3600700" lon="7.0572430">
        <ele>1908.2</ele>
        <time>2017-07-23T13:04:44Z</time>
      </trkpt>
      <trkpt lat="44.3600810" lon="7.0572640">
        <ele>1908.4</ele>
        <time>2017-07-23T13:04:45Z</time>
      </trkpt>
      <trkpt lat="44.3601040" lon="7.0573360">
        <ele>1909.2</ele>
        <time>2017-07-23T13:04:48Z</time>
      </trkpt>
      <trkpt lat="44.3601180" lon="7.0573910">
        <ele>1909.2</ele>
        <time>2017-07-23T13:04:50Z</time>
      </trkpt>
      <trkpt lat="44.3601440" lon="7.0574940">
        <ele>1910.4</ele>
        <time>2017-07-23T13:04:54Z</time>
      </trkpt>
      <trkpt lat="44.3601490" lon="7.0575710">
        <ele>1910.0</ele>
        <time>2017-07-23T13:04:57Z</time>
      </trkpt>
      <trkpt lat="44.3601390" lon="7.0576610">
        <ele>1911.4</ele>
        <time>2017-07-23T13:05:01Z</time>
      </trkpt>
      <trkpt lat="44.3601620" lon="7.0577210">
        <ele>1911.4</ele>
        <time>2017-07-23T13:05:04Z</time>
      </trkpt>
      <trkpt lat="44.3602500" lon="7.0577210">
        <ele>1912.0</ele>
        <time>2017-07-23T13:05:10Z</time>
      </trkpt>
      <trkpt lat="44.3602630" lon="7.0577080">
        <ele>1912.0</ele>
        <time>2017-07-23T13:05:11Z</time>
      </trkpt>
      <trkpt lat="44.3603570" lon="7.0576220">
        <ele>1911.6</ele>
        <time>2017-07-23T13:05:18Z</time>
      </trkpt>
      <trkpt lat="44.3603720" lon="7.0576140">
        <ele>1911.4</ele>
        <time>2017-07-23T13:05:19Z</time>
      </trkpt>
      <trkpt lat="44.3605040" lon="7.0575890">
        <ele>1910.8</ele>
        <time>2017-07-23T13:05:27Z</time>
      </trkpt>
      <trkpt lat="44.3605970" lon="7.0576330">
        <ele>1910.6</ele>
        <time>2017-07-23T13:05:32Z</time>
      </trkpt>
      <trkpt lat="44.3607360" lon="7.0576170">
        <ele>1911.0</ele>
        <time>2017-07-23T13:05:40Z</time>
      </trkpt>
      <trkpt lat="44.3608750" lon="7.0575990">
        <ele>1911.2</ele>
        <time>2017-07-23T13:05:48Z</time>
      </trkpt>
      <trkpt lat="44.3609320" lon="7.0576860">
        <ele>1912.6</ele>
        <time>2017-07-23T13:05:53Z</time>
      </trkpt>
      <trkpt lat="44.3609390" lon="7.0577040">
        <ele>1913.0</ele>
        <time>2017-07-23T13:05:54Z</time>
      </trkpt>
      <trkpt lat="44.3609610" lon="7.0577600">
        <ele>1913.6</ele>
        <time>2017-07-23T13:05:57Z</time>
      </trkpt>
      <trkpt lat="44.3609910" lon="7.0578420">
        <ele>1914.6</ele>
        <time>2017-07-23T13:06:01Z</time>
      </trkpt>
      <trkpt lat="44.3612910" lon="7.0582190">
        <ele>1915.6</ele>
        <time>2017-07-23T13:06:47Z</time>
      </trkpt>
      <trkpt lat="44.3613000" lon="7.0582310">
        <ele>1915.4</ele>
        <time>2017-07-23T13:06:48Z</time>
      </trkpt>
      <trkpt lat="44.3613360" lon="7.0582650">
        <ele>1915.6</ele>
        <time>2017-07-23T13:06:52Z</time>
      </trkpt>
      <trkpt lat="44.3613650" lon="7.0582870">
        <ele>1915.8</ele>
        <time>2017-07-23T13:06:55Z</time>
      </trkpt>
      <trkpt lat="44.3614070" lon="7.0583310">
        <ele>1916.2</ele>
        <time>2017-07-23T13:07:00Z</time>
      </trkpt>
      <trkpt lat="44.3614320" lon="7.0583790">
        <ele>1916.8</ele>
        <time>2017-07-23T13:07:04Z</time>
      </trkpt>
      <trkpt lat="44.3614570" lon="7.0584110">
        <ele>1917.8</ele>
        <time>2017-07-23T13:07:08Z</time>
      </trkpt>
      <trkpt lat="44.3615050" lon="7.0584640">
        <ele>1918.8</ele>
        <time>2017-07-23T13:07:14Z</time>
      </trkpt>
      <trkpt lat="44.3615400" lon="7.0584850">
        <ele>1919.2</ele>
        <time>2017-07-23T13:07:18Z</time>
      </trkpt>
      <trkpt lat="44.3615840" lon="7.0585030">
        <ele>1919.4</ele>
        <time>2017-07-23T13:07:23Z</time>
      </trkpt>
      <trkpt lat="44.3616070" lon="7.0585380">
        <ele>1920.2</ele>
        <time>2017-07-23T13:07:26Z</time>
      </trkpt>
      <trkpt lat="44.3616290" lon="7.0585610">
        <ele>1921.4</ele>
        <time>2017-07-23T13:07:29Z</time>
      </trkpt>
      <trkpt lat="44.3616580" lon="7.0585850">
        <ele>1922.6</ele>
        <time>2017-07-23T13:07:33Z</time>
      </trkpt>
      <trkpt lat="44.3616710" lon="7.0586080">
        <ele>1923.0</ele>
        <time>2017-07-23T13:07:35Z</time>
      </trkpt>
      <trkpt lat="44.3616860" lon="7.0586530">
        <ele>1923.8</ele>
        <time>2017-07-23T13:07:38Z</time>
      </trkpt>
      <trkpt lat="44.3616980" lon="7.0587540">
        <ele>1924.4</ele>
        <time>2017-07-23T13:07:45Z</time>
      </trkpt>
      <trkpt lat="44.3616400" lon="7.0591160">
        <ele>1928.4</ele>
        <time>2017-07-23T13:08:17Z</time>
      </trkpt>
      <trkpt lat="44.3616460" lon="7.0591470">
        <ele>1928.8</ele>
        <time>2017-07-23T13:08:19Z</time>
      </trkpt>
      <trkpt lat="44.3616440" lon="7.0591620">
        <ele>1929.0</ele>
        <time>2017-07-23T13:08:20Z</time>
      </trkpt>
      <trkpt lat="44.3616480" lon="7.0591920">
        <ele>1929.0</ele>
        <time>2017-07-23T13:08:22Z</time>
      </trkpt>
      <trkpt lat="44.3616570" lon="7.0592210">
        <ele>1929.2</ele>
        <time>2017-07-23T13:08:25Z</time>
      </trkpt>
      <trkpt lat="44.3616610" lon="7.0592290">
        <ele>1929.4</ele>
        <time>2017-07-23T13:08:26Z</time>
      </trkpt>
      <trkpt lat="44.3616800" lon="7.0592500">
        <ele>1930.0</ele>
        <time>2017-07-23T13:08:28Z</time>
      </trkpt>
      <trkpt lat="44.3617050" lon="7.0592630">
        <ele>1930.6</ele>
        <time>2017-07-23T13:08:31Z</time>
      </trkpt>
      <trkpt lat="44.3640780" lon="7.0596320">
        <ele>1987.4</ele>
        <time>2017-07-23T13:13:54Z</time>
      </trkpt>
      <trkpt lat="44.3640890" lon="7.0596270">
        <ele>1987.6</ele>
        <time>2017-07-23T13:13:55Z</time>
      </trkpt>
      <trkpt lat="44.3641290" lon="7.0596170">
        <ele>1988.2</ele>
        <time>2017-07-23T13:13:59Z</time>
      </trkpt>
      <trkpt lat="44.3643820" lon="7.0592920">
        <ele>1983.8</ele>
        <time>2017-07-23T13:15:00Z</time>
      </trkpt>
      <trkpt lat="44.3643710" lon="7.0592470">
        <ele>1983.4</ele>
        <time>2017-07-23T13:15:02Z</time>
      </trkpt>
      <trkpt lat="44.3643340" lon="7.0591510">
        <ele>1982.6</ele>
        <time>2017-07-23T13:15:06Z</time>
      </trkpt>
      <trkpt lat="44.3642920" lon="7.0590340">
        <ele>1982.4</ele>
        <time>2017-07-23T13:15:10Z</time>
      </trkpt>
      <trkpt lat="44.3642650" lon="7.0588260">
        <ele>1982.4</ele>
        <time>2017-07-23T13:15:18Z</time>
      </trkpt>
      <trkpt lat="44.3642970" lon="7.0587140">
        <ele>1982.8</ele>
        <time>2017-07-23T13:15:25Z</time>
      </trkpt>
      <trkpt lat="44.3652500" lon="7.0585780">
        <ele>2004.8</ele>
        <time>2017-07-23T13:17:48Z</time>
      </trkpt>
      <trkpt lat="44.3652380" lon="7.0585750">
        <ele>2005.0</ele>
        <time>2017-07-23T13:17:49Z</time>
      </trkpt>
      <trkpt lat="44.3651540" lon="7.0585550">
        <ele>2005.2</ele>
        <time>2017-07-23T13:17:58Z</time>
      </trkpt>
      <trkpt lat="44.3651470" lon="7.0585490">
        <ele>2005.4</ele>
        <time>2017-07-23T13:17:59Z</time>
      </trkpt>
      <trkpt lat="44.3651130" lon="7.0585110">
        <ele>2005.8</ele>
        <time>2017-07-23T13:18:03Z</time>
      </trkpt>
      <trkpt lat="44.3650900" lon="7.0584890">
        <ele>2006.2</ele>
        <time>2017-07-23T13:18:06Z</time>
      </trkpt>
      <trkpt lat="44.3650220" lon="7.0583830">
        <ele>2006.8</ele>
        <time>2017-07-23T13:18:15Z</time>
      </trkpt>
      <trkpt lat="44.3650030" lon="7.0583560">
        <ele>2007.0</ele>
        <time>2017-07-23T13:18:18Z</time>
      </trkpt>
      <trkpt lat="44.3649780" lon="7.0582800">
        <ele>2007.2</ele>
        <time>2017-07-23T13:18:23Z</time>
      </trkpt>
      <trkpt lat="44.3649280" lon="7.0581810">
        <ele>2006.8</ele>
        <time>2017-07-23T13:18:31Z</time>
      </trkpt>
      <trkpt lat="44.3649140" lon="7.0581530">
        <ele>2007.0</ele>
        <time>2017-07-23T13:18:33Z</time>
      </trkpt>
      <trkpt lat="44.3648790" lon="7.0580440">
        <ele>2007.4</ele>
        <time>2017-07-23T13:18:42Z</time>
      </trkpt>
      <trkpt lat="44.3648430" lon="7.0579370">
        <ele>2008.0</ele>
        <time>2017-07-23T13:18:51Z</time>
      </trkpt>
      <trkpt lat="44.3648380" lon="7.0578970">
        <ele>2008.0</ele>
        <time>2017-07-23T13:18:54Z</time>
      </trkpt>
      <trkpt lat="44.3648400" lon="7.0578180">
        <ele>2008.2</ele>
        <time>2017-07-23T13:18:59Z</time>
      </trkpt>
      <trkpt lat="44.3648420" lon="7.0577760">
        <ele>2009.2</ele>
        <time>2017-07-23T13:19:02Z</time>
      </trkpt>
      <trkpt lat="44.3648350" lon="7.0577330">
        <ele>2010.2</ele>
        <time>2017-07-23T13:19:05Z</time>
      </trkpt>
      <trkpt lat="44.3648360" lon="7.0577020">
        <ele>2011.2</ele>
        <time>2017-07-23T13:19:07Z</time>
      </trkpt>
      <trkpt lat="44.3648400" lon="7.0576880">
        <ele>2011.8</ele>
        <time>2017-07-23T13:19:08Z</time>
      </trkpt>
      <trkpt lat="44.3648540" lon="7.0576630">
        <ele>2012.6</ele>
        <time>2017-07-23T13:19:10Z</time>
      </trkpt>
      <trkpt lat="44.3648730" lon="7.0576070">
        <ele>2013.8</ele>
        <time>2017-07-23T13:19:14Z</time>
      </trkpt>
      <trkpt lat="44.3648910" lon="7.0575720">
        <ele>2014.4</ele>
        <time>2017-07-23T13:19:17Z</time>
      </trkpt>
      <trkpt lat="44.3649020" lon="7.0575440">
        <ele>2014.8</ele>
        <time>2017-07-23T13:19:19Z</time>
      </trkpt>
      <trkpt lat="44.3649320" lon="7.0574830">
        <ele>2017.0</ele>
        <time>2017-07-23T13:19:27Z</time>
      </trkpt>
      <trkpt lat="44.3649400" lon="7.0574610">
        <ele>2017.2</ele>
        <time>2017-07-23T13:19:28Z</time>
      </trkpt>
      <trkpt lat="44.3649570" lon="7.0574210">
        <ele>2018.4</ele>
        <time>2017-07-23T13:19:30Z</time>
      </trkpt>
      <trkpt lat="44.3649860" lon="7.0573680">
        <ele>2019.8</ele>
        <time>2017-07-23T13:19:33Z</time>
      </trkpt>
      <trkpt lat="44.3650050" lon="7.0573040">
        <ele>2021.2</ele>
        <time>2017-07-23T13:19:36Z</time>
      </trkpt>
      <trkpt lat="44.3650120" lon="7.0572600">
        <ele>2022.2</ele>
        <time>2017-07-23T13:19:38Z</time>
      </trkpt>
      <trkpt lat="44.3650340" lon="7.0571930">
        <ele>2023.8</ele>
        <time>2017-07-23T13:19:41Z</time>
      </trkpt>
      <trkpt lat="44.3650440" lon="7.0571480">
        <ele>2024.8</ele>
        <time>2017-07-23T13:19:43Z</time>
      </trkpt>
      <trkpt lat="44.3650480" lon="7.0570990">
        <ele>2026.0</ele>
        <time>2017-07-23T13:19:45Z</time>
      </trkpt>
      <trkpt lat="44.3650460" lon="7.0570460">
        <ele>2027.0</ele>
        <time>2017-07-23T13:19:47Z</time>
      </trkpt>
      <trkpt lat="44.3650410" lon="7.0570010">
        <ele>2028.2</ele>
        <time>2017-07-23T13:19:49Z</time>
      </trkpt>
      <trkpt lat="44.3650390" lon="7.0569830">
        <ele>2028.6</ele>
        <time>2017-07-23T13:19:50Z</time>
      </trkpt>
      <trkpt lat="44.3650330" lon="7.0569450">
        <ele>2029.4</ele>
        <time>2017-07-23T13:19:52Z</time>
      </trkpt>
      <trkpt lat="44.3650180" lon="7.0569010">
        <ele>2030.6</ele>
        <time>2017-07-23T13:19:54Z</time>
      </trkpt>
      <trkpt lat="44.3649970" lon="7.0568190">
        <ele>2032.0</ele>
        <time>2017-07-23T13:19:58Z</time>
      </trkpt>
      <trkpt lat="44.3649970" lon="7.0567380">
        <ele>2033.2</ele>
        <time>2017-07-23T13:20:03Z</time>
      </trkpt>
      <trkpt lat="44.3650140" lon="7.0567050">
        <ele>2033.8</ele>
        <time>2017-07-23T13:20:05Z</time>
      </trkpt>
      <trkpt lat="44.3650290" lon="7.0567000">
        <ele>2034.2</ele>
        <time>2017-07-23T13:20:06Z</time>
      </trkpt>
      <trkpt lat="44.3650690" lon="7.0567280">
        <ele>2035.0</ele>
        <time>2017-07-23T13:20:09Z</time>
      </trkpt>
      <trkpt lat="44.3650770" lon="7.0567450">
        <ele>2035.4</ele>
        <time>2017-07-23T13:20:10Z</time>
      </trkpt>
      <trkpt lat="44.3651330" lon="7.0568330">
        <ele>2036.4</ele>
        <time>2017-07-23T13:20:15Z</time>
      </trkpt>
      <trkpt lat="44.3651460" lon="7.0568460">
        <ele>2036.6</ele>
        <time>2017-07-23T13:20:16Z</time>
      </trkpt>
      <trkpt lat="44.3651640" lon="7.0568760">
        <ele>2036.8</ele>
        <time>2017-07-23T13:20:18Z</time>
      </trkpt>
      <trkpt lat="44.3652070" lon="7.0569340">
        <ele>2037.6</ele>
        <time>2017-07-23T13:20:22Z</time>
      </trkpt>
      <trkpt lat="44.3652990" lon="7.0570430">
        <ele>2038.6</ele>
        <time>2017-07-23T13:20:28Z</time>
      </trkpt>
      <trkpt lat="44.3653130" lon="7.0570690">
        <ele>2039.2</ele>
        <time>2017-07-23T13:20:30Z</time>
      </trkpt>
      <trkpt lat="44.3653320" lon="7.0571180">
        <ele>2039.8</ele>
        <time>2017-07-23T13:20:33Z</time>
      </trkpt>
      <trkpt lat="44.3653790" lon="7.0571980">
        <ele>2041.0</ele>
        <time>2017-07-23T13:20:38Z</time>
      </trkpt>
      <trkpt lat="44.3653900" lon="7.0572120">
        <ele>2041.2</ele>
        <time>2017-07-23T13:20:39Z</time>
      </trkpt>
      <trkpt lat="44.3654220" lon="7.0572650">
        <ele>2042.2</ele>
        <time>2017-07-23T13:20:43Z</time>
      </trkpt>
      <trkpt lat="44.3656810" lon="7.0571710">
        <ele>2039.2</ele>
        <time>2017-07-23T13:21:19Z</time>
      </trkpt>
      <trkpt lat="44.3656920" lon="7.0571630">
        <ele>2039.0</ele>
        <time>2017-07-23T13:21:20Z</time>
      </trkpt>
      <trkpt lat="44.3657070" lon="7.0571460">
        <ele>2038.8</ele>
        <time>2017-07-23T13:21:22Z</time>
      </trkpt>
      <trkpt lat="44.3657380" lon="7.0571220">
        <ele>2038.0</ele>
        <time>2017-07-23T13:21:26Z</time>
      </trkpt>
      <trkpt lat="44.3657610" lon="7.0571080">
        <ele>2038.0</ele>
        <time>2017-07-23T13:21:29Z</time>
      </trkpt>
      <trkpt lat="44.3658270" lon="7.0570420">
        <ele>2039.0</ele>
        <time>2017-07-23T13:21:37Z</time>
      </trkpt>
      <trkpt lat="44.3658370" lon="7.0570350">
        <ele>2039.2</ele>
        <time>2017-07-23T13:21:38Z</time>
      </trkpt>
      <trkpt lat="44.3659140" lon="7.0569780">
        <ele>2040.0</ele>
        <time>2017-07-23T13:21:46Z</time>
      </trkpt>
      <trkpt lat="44.3659330" lon="7.0569610">
        <ele>2040.0</ele>
        <time>2017-07-23T13:21:48Z</time>
      </trkpt>
      <trkpt lat="44.3660120" lon="7.0568990">
        <ele>2040.0</ele>
        <time>2017-07-23T13:21:57Z</time>
      </trkpt>
      <trkpt lat="44.3660290" lon="7.0568910">
        <ele>2040.0</ele>
        <time>2017-07-23T13:21:59Z</time>
      </trkpt>
      <trkpt lat="44.3660770" lon="7.0568660">
        <ele>2040.0</ele>
        <time>2017-07-23T13:22:05Z</time>
      </trkpt>
      <trkpt lat="44.3661270" lon="7.0568340">
        <ele>2039.4</ele>
        <time>2017-07-23T13:22:11Z</time>
      </trkpt>
      <trkpt lat="44.3661530" lon="7.0568160">
        <ele>2039.2</ele>
        <time>2017-07-23T13:22:15Z</time>
      </trkpt>
      <trkpt lat="44.3661560" lon="7.0568060">
        <ele>2039.0</ele>
        <time>2017-07-23T13:22:16Z</time>
      </trkpt>
      <trkpt lat="44.3661740" lon="7.0567730">
        <ele>2038.4</ele>
        <time>2017-07-23T13:22:19Z</time>
      </trkpt>
      <trkpt lat="44.3661930" lon="7.0567160">
        <ele>2038.2</ele>
        <time>2017-07-23T13:22:24Z</time>
      </trkpt>
      <trkpt lat="44.3662030" lon="7.0566360">
        <ele>2038.2</ele>
        <time>2017-07-23T13:22:31Z</time>
      </trkpt>
      <trkpt lat="44.3662070" lon="7.0565830">
        <ele>2038.0</ele>
        <time>2017-07-23T13:22:35Z</time>
      </trkpt>
      <trkpt lat="44.3662010" lon="7.0565540">
        <ele>2038.0</ele>
        <time>2017-07-23T13:22:37Z</time>
      </trkpt>
      <trkpt lat="44.3661900" lon="7.0564810">
        <ele>2038.0</ele>
        <time>2017-07-23T13:22:43Z</time>
      </trkpt>
      <trkpt lat="44.3661730" lon="7.0563900">
        <ele>2039.2</ele>
        <time>2017-07-23T13:22:50Z</time>
      </trkpt>
      <trkpt lat="44.3661710" lon="7.0563770">
        <ele>2039.4</ele>
        <time>2017-07-23T13:22:51Z</time>
      </trkpt>
      <trkpt lat="44.3661530" lon="7.0562830">
        <ele>2040.2</ele>
        <time>2017-07-23T13:22:59Z</time>
      </trkpt>
      <trkpt lat="44.3661480" lon="7.0562740">
        <ele>2040.2</ele>
        <time>2017-07-23T13:23:00Z</time>
      </trkpt>
      <trkpt lat="44.3661420" lon="7.0561930">
        <ele>2041.0</ele>
        <time>2017-07-23T13:23:07Z</time>
      </trkpt>
      <trkpt lat="44.3661410" lon="7.0561820">
        <ele>2041.2</ele>
        <time>2017-07-23T13:23:08Z</time>
      </trkpt>
      <trkpt lat="44.3661390" lon="7.0561150">
        <ele>2042.2</ele>
        <time>2017-07-23T13:23:14Z</time>
      </trkpt>
      <trkpt lat="44.3661400" lon="7.0560930">
        <ele>2042.8</ele>
        <time>2017-07-23T13:23:16Z</time>
      </trkpt>
      <trkpt lat="44.3661470" lon="7.0560590">
        <ele>2043.6</ele>
        <time>2017-07-23T13:23:18Z</time>
      </trkpt>
      <trkpt lat="44.3661300" lon="7.0559930">
        <ele>2044.8</ele>
        <time>2017-07-23T13:23:21Z</time>
      </trkpt>
      <trkpt lat="44.3661330" lon="7.0559670">
        <ele>2045.6</ele>
        <time>2017-07-23T13:23:23Z</time>
      </trkpt>
      <trkpt lat="44.3661390" lon="7.0559590">
        <ele>2046.0</ele>
        <time>2017-07-23T13:23:24Z</time>
      </trkpt>
      <trkpt lat="44.3661500" lon="7.0559420">
        <ele>2046.6</ele>
        <time>2017-07-23T13:23:26Z</time>
      </trkpt>
      <trkpt lat="44.3661610" lon="7.0559100">
        <ele>2047.2</ele>
        <time>2017-07-23T13:23:29Z</time>
      </trkpt>
      <trkpt lat="44.3661620" lon="7.0559020">
        <ele>2047.4</ele>
        <time>2017-07-23T13:23:30Z</time>
      </trkpt>
      <trkpt lat="44.3661830" lon="7.0558420">
        <ele>2048.2</ele>
        <time>2017-07-23T13:23:36Z</time>
      </trkpt>
      <trkpt lat="44.3661930" lon="7.0558110">
        <ele>2048.4</ele>
        <time>2017-07-23T13:23:39Z</time>
      </trkpt>
      <trkpt lat="44.3662050" lon="7.0557700">
        <ele>2049.4</ele>
        <time>2017-07-23T13:23:44Z</time>
      </trkpt>
      <trkpt lat="44.3662140" lon="7.0557450">
        <ele>2049.6</ele>
        <time>2017-07-23T13:23:46Z</time>
      </trkpt>
      <trkpt lat="44.3662190" lon="7.0557370">
        <ele>2049.8</ele>
        <time>2017-07-23T13:23:47Z</time>
      </trkpt>
      <trkpt lat="44.3662260" lon="7.0557170">
        <ele>2050.6</ele>
        <time>2017-07-23T13:23:49Z</time>
      </trkpt>
      <trkpt lat="44.3662180" lon="7.0556730">
        <ele>2051.6</ele>
        <time>2017-07-23T13:23:52Z</time>
      </trkpt>
      <trkpt lat="44.3662210" lon="7.0556600">
        <ele>2052.0</ele>
        <time>2017-07-23T13:23:53Z</time>
      </trkpt>
      <trkpt lat="44.3662300" lon="7.0556480">
        <ele>2053.0</ele>
        <time>2017-07-23T13:23:55Z</time>
      </trkpt>
      <trkpt lat="44.3662340" lon="7.0556400">
        <ele>2053.2</ele>
        <time>2017-07-23T13:23:56Z</time>
      </trkpt>
      <trkpt lat="44.3662410" lon="7.0556210">
        <ele>2053.8</ele>
        <time>2017-07-23T13:23:58Z</time>
      </trkpt>
      <trkpt lat="44.3662520" lon="7.0556030">
        <ele>2054.4</ele>
        <time>2017-07-23T13:24:00Z</time>
      </trkpt>
      <trkpt lat="44.3662550" lon="7.0555570">
        <ele>2055.6</ele>
        <time>2017-07-23T13:24:04Z</time>
      </trkpt>
      <trkpt lat="44.3662580" lon="7.0555450">
        <ele>2056.0</ele>
        <time>2017-07-23T13:24:05Z</time>
      </trkpt>
      <trkpt lat="44.3662670" lon="7.0555050">
        <ele>2056.8</ele>
        <time>2017-07-23T13:24:08Z</time>
      </trkpt>
      <trkpt lat="44.3662700" lon="7.0554610">
        <ele>2058.0</ele>
        <time>2017-07-23T13:24:12Z</time>
      </trkpt>
      <trkpt lat="44.3662720" lon="7.0554470">
        <ele>2058.2</ele>
        <time>2017-07-23T13:24:13Z</time>
      </trkpt>
      <trkpt lat="44.3662820" lon="7.0554140">
        <ele>2059.2</ele>
        <time>2017-07-23T13:24:16Z</time>
      </trkpt>
      <trkpt lat="44.3662900" lon="7.0553740">
        <ele>2060.4</ele>
        <time>2017-07-23T13:24:19Z</time>
      </trkpt>
      <trkpt lat="44.3662950" lon="7.0553640">
        <ele>2060.6</ele>
        <time>2017-07-23T13:24:20Z</time>
      </trkpt>
      <trkpt lat="44.3663130" lon="7.0553190">
        <ele>2061.4</ele>
        <time>2017-07-23T13:24:24Z</time>
      </trkpt>
      <trkpt lat="44.3663350" lon="7.0552980">
        <ele>2062.0</ele>
        <time>2017-07-23T13:24:27Z</time>
      </trkpt>
      <trkpt lat="44.3663480" lon="7.0552720">
        <ele>2062.6</ele>
        <time>2017-07-23T13:24:29Z</time>
      </trkpt>
      <trkpt lat="44.3663860" lon="7.0552130">
        <ele>2063.6</ele>
        <time>2017-07-23T13:24:35Z</time>
      </trkpt>
      <trkpt lat="44.3663930" lon="7.0552000">
        <ele>2063.8</ele>
        <time>2017-07-23T13:24:36Z</time>
      </trkpt>
      <trkpt lat="44.3664650" lon="7.0551470">
        <ele>2062.8</ele>
        <time>2017-07-23T13:24:45Z</time>
      </trkpt>
      <trkpt lat="44.3664760" lon="7.0551500">
        <ele>2062.6</ele>
        <time>2017-07-23T13:24:46Z</time>
      </trkpt>
      <trkpt lat="44.3665220" lon="7.0551760">
        <ele>2061.4</ele>
        <time>2017-07-23T13:24:50Z</time>
      </trkpt>
      <trkpt lat="44.3665460" lon="7.0551940">
        <ele>2061.0</ele>
        <time>2017-07-23T13:24:52Z</time>
      </trkpt>
      <trkpt lat="44.3665670" lon="7.0552320">
        <ele>2060.2</ele>
        <time>2017-07-23T13:24:55Z</time>
      </trkpt>
      <trkpt lat="44.3665840" lon="7.0552620">
        <ele>2059.8</ele>
        <time>2017-07-23T13:24:58Z</time>
      </trkpt>
      <trkpt lat="44.3665880" lon="7.0552850">
        <ele>2059.6</ele>
        <time>2017-07-23T13:25:00Z</time>
      </trkpt>
      <trkpt lat="44.3665920" lon="7.0553120">
        <ele>2059.2</ele>
        <time>2017-07-23T13:25:03Z</time>
      </trkpt>
      <trkpt lat="44.3666060" lon="7.0553550">
        <ele>2058.6</ele>
        <time>2017-07-23T13:25:10Z</time>
      </trkpt>
      <trkpt lat="44.3666310" lon="7.0554040">
        <ele>2059.0</ele>
        <time>2017-07-23T13:25:14Z</time>
      </trkpt>
      <trkpt lat="44.3666550" lon="7.0554270">
        <ele>2059.4</ele>
        <time>2017-07-23T13:25:17Z</time>
      </trkpt>
      <trkpt lat="44.3667240" lon="7.0555110">
        <ele>2060.0</ele>
        <time>2017-07-23T13:25:26Z</time>
      </trkpt>
      <trkpt lat="44.3667330" lon="7.0555200">
        <ele>2060.2</ele>
        <time>2017-07-23T13:25:27Z</time>
      </trkpt>
      <trkpt lat="44.3668020" lon="7.0555660">
        <ele>2061.4</ele>
        <time>2017-07-23T13:25:34Z</time>
      </trkpt>
      <trkpt lat="44.3668250" lon="7.0555880">
        <ele>2061.4</ele>
        <time>2017-07-23T13:25:37Z</time>
      </trkpt>
      <trkpt lat="44.3669000" lon="7.0556410">
        <ele>2062.2</ele>
        <time>2017-07-23T13:25:47Z</time>
      </trkpt>
      <trkpt lat="44.3669070" lon="7.0556450">
        <ele>2062.4</ele>
        <time>2017-07-23T13:25:48Z</time>
      </trkpt>
      <trkpt lat="44.3669620" lon="7.0556620">
        <ele>2062.8</ele>
        <time>2017-07-23T13:25:55Z</time>
      </trkpt>
      <trkpt lat="44.3669840" lon="7.0556570">
        <ele>2063.0</ele>
        <time>2017-07-23T13:25:58Z</time>
      </trkpt>
      <trkpt lat="44.3670140" lon="7.0556390">
        <ele>2063.4</ele>
        <time>2017-07-23T13:26:02Z</time>
      </trkpt>
      <trkpt lat="44.3670300" lon="7.0556200">
        <ele>2063.4</ele>
        <time>2017-07-23T13:26:04Z</time>
      </trkpt>
      <trkpt lat="44.3670390" lon="7.0556160">
        <ele>2063.4</ele>
        <time>2017-07-23T13:26:05Z</time>
      </trkpt>
      <trkpt lat="44.3670660" lon="7.0556190">
        <ele>2063.8</ele>
        <time>2017-07-23T13:26:08Z</time>
      </trkpt>
      <trkpt lat="44.3671010" lon="7.0556430">
        <ele>2064.8</ele>
        <time>2017-07-23T13:26:11Z</time>
      </trkpt>
      <trkpt lat="44.3671400" lon="7.0557000">
        <ele>2065.8</ele>
        <time>2017-07-23T13:26:15Z</time>
      </trkpt>
      <trkpt lat="44.3672250" lon="7.0558250">
        <ele>2066.0</ele>
        <time>2017-07-23T13:26:24Z</time>
      </trkpt>
      <trkpt lat="44.3673060" lon="7.0558720">
        <ele>2066.6</ele>
        <time>2017-07-23T13:26:32Z</time>
      </trkpt>
      <trkpt lat="44.3673810" lon="7.0559310">
        <ele>2066.6</ele>
        <time>2017-07-23T13:26:39Z</time>
      </trkpt>
      <trkpt lat="44.3674480" lon="7.0559760">
        <ele>2066.4</ele>
        <time>2017-07-23T13:26:46Z</time>
      </trkpt>
      <trkpt lat="44.3674990" lon="7.0560240">
        <ele>2066.6</ele>
        <time>2017-07-23T13:26:52Z</time>
      </trkpt>
      <trkpt lat="44.3675240" lon="7.0560530">
        <ele>2066.8</ele>
        <time>2017-07-23T13:26:55Z</time>
      </trkpt>
      <trkpt lat="44.3675570" lon="7.0561020">
        <ele>2066.6</ele>
        <time>2017-07-23T13:27:00Z</time>
      </trkpt>
      <trkpt lat="44.3676050" lon="7.0561610">
        <ele>2067.2</ele>
        <time>2017-07-23T13:27:08Z</time>
      </trkpt>
      <trkpt lat="44.3676110" lon="7.0561720">
        <ele>2067.2</ele>
        <time>2017-07-23T13:27:09Z</time>
      </trkpt>
      <trkpt lat="44.3676350" lon="7.0561980">
        <ele>2067.4</ele>
        <time>2017-07-23T13:27:13Z</time>
      </trkpt>
      <trkpt lat="44.3676460" lon="7.0562230">
        <ele>2067.6</ele>
        <time>2017-07-23T13:27:16Z</time>
      </trkpt>
      <trkpt lat="44.3676510" lon="7.0562340">
        <ele>2067.8</ele>
        <time>2017-07-23T13:27:17Z</time>
      </trkpt>
      <trkpt lat="44.3676820" lon="7.0563210">
        <ele>2068.2</ele>
        <time>2017-07-23T13:27:24Z</time>
      </trkpt>
      <trkpt lat="44.3676910" lon="7.0563510">
        <ele>2068.6</ele>
        <time>2017-07-23T13:27:27Z</time>
      </trkpt>
      <trkpt lat="44.3676950" lon="7.0563700">
        <ele>2068.8</ele>
        <time>2017-07-23T13:27:29Z</time>
      </trkpt>
      <trkpt lat="44.3677000" lon="7.0563820">
        <ele>2069.0</ele>
        <time>2017-07-23T13:27:30Z</time>
      </trkpt>
      <trkpt lat="44.3677350" lon="7.0564770">
        <ele>2069.6</ele>
        <time>2017-07-23T13:27:40Z</time>
      </trkpt>
      <trkpt lat="44.3677470" lon="7.0565080">
        <ele>2070.0</ele>
        <time>2017-07-23T13:27:43Z</time>
      </trkpt>
      <trkpt lat="44.3677730" lon="7.0565640">
        <ele>2070.6</ele>
        <time>2017-07-23T13:27:49Z</time>
      </trkpt>
      <trkpt lat="44.3677880" lon="7.0566090">
        <ele>2071.0</ele>
        <time>2017-07-23T13:27:53Z</time>
      </trkpt>
      <trkpt lat="44.3680730" lon="7.0576070">
        <ele>2099.2</ele>
        <time>2017-07-23T13:30:15Z</time>
      </trkpt>
      <trkpt lat="44.3680590" lon="7.0576230">
        <ele>2099.0</ele>
        <time>2017-07-23T13:30:16Z</time>
      </trkpt>
      <trkpt lat="44.3680490" lon="7.0576390">
        <ele>2098.8</ele>
        <time>2017-07-23T13:30:17Z</time>
      </trkpt>
      <trkpt lat="44.3679530" lon="7.0577930">
        <ele>2098.6</ele>
        <time>2017-07-23T13:30:25Z</time>
      </trkpt>
      <trkpt lat="44.3678670" lon="7.0579360">
        <ele>2100.0</ele>
        <time>2017-07-23T13:30:33Z</time>
      </trkpt>
      <trkpt lat="44.3678540" lon="7.0579550">
        <ele>2100.2</ele>
        <time>2017-07-23T13:30:34Z</time>
      </trkpt>
      <trkpt lat="44.3677870" lon="7.0580710">
        <ele>2101.4</ele>
        <time>2017-07-23T13:30:40Z</time>
      </trkpt>
      <trkpt lat="44.3677770" lon="7.0580910">
        <ele>2101.8</ele>
        <time>2017-07-23T13:30:41Z</time>
      </trkpt>
      <trkpt lat="44.3677550" lon="7.0581490">
        <ele>2102.6</ele>
        <time>2017-07-23T13:30:44Z</time>
      </trkpt>
      <trkpt lat="44.3677140" lon="7.0582500">
        <ele>2103.4</ele>
        <time>2017-07-23T13:30:49Z</time>
      </trkpt>
      <trkpt lat="44.3677000" lon="7.0582930">
        <ele>2103.8</ele>
        <time>2017-07-23T13:30:51Z</time>
      </trkpt>
      <trkpt lat="44.3676770" lon="7.0583810">
        <ele>2104.4</ele>
        <time>2017-07-23T13:30:55Z</time>
      </trkpt>
      <trkpt lat="44.3676690" lon="7.0584250">
        <ele>2104.8</ele>
        <time>2017-07-23T13:30:57Z</time>
      </trkpt>
      <trkpt lat="44.3676680" lon="7.0585090">
        <ele>2105.8</ele>
        <time>2017-07-23T13:31:01Z</time>
      </trkpt>
      <trkpt lat="44.3676540" lon="7.0585440">
        <ele>2105.8</ele>
        <time>2017-07-23T13:31:03Z</time>
      </trkpt>
      <trkpt lat="44.3676400" lon="7.0586310">
        <ele>2106.6</ele>
        <time>2017-07-23T13:31:07Z</time>
      </trkpt>
      <trkpt lat="44.3676390" lon="7.0586950">
        <ele>2106.8</ele>
        <time>2017-07-23T13:31:10Z</time>
      </trkpt>
      <trkpt lat="44.3676600" lon="7.0587840">
        <ele>2107.6</ele>
        <time>2017-07-23T13:31:15Z</time>
      </trkpt>
      <trkpt lat="44.3676790" lon="7.0588170">
        <ele>2108.2</ele>
        <time>2017-07-23T13:31:17Z</time>
      </trkpt>
      <trkpt lat="44.3676960" lon="7.0588670">
        <ele>2109.4</ele>
        <time>2017-07-23T13:31:20Z</time>
      </trkpt>
      <trkpt lat="44.3677130" lon="7.0589120">
        <ele>2110.2</ele>
        <time>2017-07-23T13:31:23Z</time>
      </trkpt>
      <trkpt lat="44.3677200" lon="7.0589290">
        <ele>2110.6</ele>
        <time>2017-07-23T13:31:24Z</time>
      </trkpt>
      <trkpt lat="44.3677370" lon="7.0589690">
        <ele>2111.6</ele>
        <time>2017-07-23T13:31:27Z</time>
      </trkpt>
      <trkpt lat="44.3677650" lon="7.0590090">
        <ele>2112.6</ele>
        <time>2017-07-23T13:31:30Z</time>
      </trkpt>
      <trkpt lat="44.3677730" lon="7.0590210">
        <ele>2113.0</ele>
        <time>2017-07-23T13:31:31Z</time>
      </trkpt>
      <trkpt lat="44.3677780" lon="7.0590370">
        <ele>2114.0</ele>
        <time>2017-07-23T13:31:32Z</time>
      </trkpt>
      <trkpt lat="44.3677820" lon="7.0590430">
        <ele>2114.4</ele>
        <time>2017-07-23T13:31:33Z</time>
      </trkpt>
      <trkpt lat="44.3680010" lon="7.0595180">
        <ele>2116.6</ele>
        <time>2017-07-23T13:32:28Z</time>
      </trkpt>
      <trkpt lat="44.3680090" lon="7.0595400">
        <ele>2116.8</ele>
        <time>2017-07-23T13:32:29Z</time>
      </trkpt>
      <trkpt lat="44.3680220" lon="7.0595850">
        <ele>2117.2</ele>
        <time>2017-07-23T13:32:31Z</time>
      </trkpt>
      <trkpt lat="44.3680420" lon="7.0596590">
        <ele>2117.8</ele>
        <time>2017-07-23T13:32:34Z</time>
      </trkpt>
      <trkpt lat="44.3680670" lon="7.0597660">
        <ele>2119.0</ele>
        <time>2017-07-23T13:32:38Z</time>
      </trkpt>
      <trkpt lat="44.3680770" lon="7.0598360">
        <ele>2120.0</ele>
        <time>2017-07-23T13:32:41Z</time>
      </trkpt>
      <trkpt lat="44.3680770" lon="7.0598610">
        <ele>2120.2</ele>
        <time>2017-07-23T13:32:42Z</time>
      </trkpt>
      <trkpt lat="44.3680920" lon="7.0599560">
        <ele>2121.6</ele>
        <time>2017-07-23T13:32:46Z</time>
      </trkpt>
      <trkpt lat="44.3680990" lon="7.0600100">
        <ele>2122.2</ele>
        <time>2017-07-23T13:32:48Z</time>
      </trkpt>
      <trkpt lat="44.3681030" lon="7.0600660">
        <ele>2122.8</ele>
        <time>2017-07-23T13:32:50Z</time>
      </trkpt>
      <trkpt lat="44.3681060" lon="7.0603020">
        <ele>2123.6</ele>
        <time>2017-07-23T13:32:58Z</time>
      </trkpt>
      <trkpt lat="44.3681030" lon="7.0603670">
        <ele>2123.8</ele>
        <time>2017-07-23T13:33:00Z</time>
      </trkpt>
      <trkpt lat="44.3680840" lon="7.0605580">
        <ele>2124.6</ele>
        <time>2017-07-23T13:33:07Z</time>
      </trkpt>
      <trkpt lat="44.3680800" lon="7.0605860">
        <ele>2125.0</ele>
        <time>2017-07-23T13:33:08Z</time>
      </trkpt>
      <trkpt lat="44.3680500" lon="7.0607610">
        <ele>2125.8</ele>
        <time>2017-07-23T13:33:15Z</time>
      </trkpt>
      <trkpt lat="44.3680460" lon="7.0607830">
        <ele>2126.2</ele>
        <time>2017-07-23T13:33:16Z</time>
      </trkpt>
      <trkpt lat="44.3680100" lon="7.0609230">
        <ele>2127.2</ele>
        <time>2017-07-23T13:33:22Z</time>
      </trkpt>
      <trkpt lat="44.3679820" lon="7.0610510">
        <ele>2128.6</ele>
        <time>2017-07-23T13:33:27Z</time>
      </trkpt>
      <trkpt lat="44.3679650" lon="7.0611510">
        <ele>2129.8</ele>
        <time>2017-07-23T13:33:31Z</time>
      </trkpt>
      <trkpt lat="44.3679530" lon="7.0612170">
        <ele>2131.0</ele>
        <time>2017-07-23T13:33:34Z</time>
      </trkpt>
      <trkpt lat="44.3679380" lon="7.0613200">
        <ele>2132.4</ele>
        <time>2017-07-23T13:33:38Z</time>
      </trkpt>
      <trkpt lat="44.3679100" lon="7.0614120">
        <ele>2133.4</ele>
        <time>2017-07-23T13:33:42Z</time>
      </trkpt>
      <trkpt lat="44.3678890" lon="7.0614670">
        <ele>2134.2</ele>
        <time>2017-07-23T13:33:45Z</time>
      </trkpt>
      <trkpt lat="44.3678830" lon="7.0614890">
        <ele>2134.4</ele>
        <time>2017-07-23T13:33:46Z</time>
      </trkpt>
      <trkpt lat="44.3678390" lon="7.0616310">
        <ele>2135.6</ele>
        <time>2017-07-23T13:33:53Z</time>
      </trkpt>
      <trkpt lat="44.3678050" lon="7.0617300">
        <ele>2136.6</ele>
        <time>2017-07-23T13:33:58Z</time>
      </trkpt>
      <trkpt lat="44.3677800" lon="7.0617830">
        <ele>2136.8</ele>
        <time>2017-07-23T13:34:01Z</time>
      </trkpt>
      <trkpt lat="44.3677540" lon="7.0618550">
        <ele>2137.0</ele>
        <time>2017-07-23T13:34:05Z</time>
      </trkpt>
      <trkpt lat="44.3677490" lon="7.0619040">
        <ele>2137.2</ele>
        <time>2017-07-23T13:34:07Z</time>
      </trkpt>
      <trkpt lat="44.3677370" lon="7.0620270">
        <ele>2137.6</ele>
        <time>2017-07-23T13:34:12Z</time>
      </trkpt>
      <trkpt lat="44.3677340" lon="7.0620690">
        <ele>2137.8</ele>
        <time>2017-07-23T13:34:14Z</time>
      </trkpt>
      <trkpt lat="44.3677470" lon="7.0621520">
        <ele>2138.6</ele>
        <time>2017-07-23T13:34:18Z</time>
      </trkpt>
      <trkpt lat="44.3677610" lon="7.0621900">
        <ele>2139.8</ele>
        <time>2017-07-23T13:34:20Z</time>
      </trkpt>
      <trkpt lat="44.3677770" lon="7.0622260">
        <ele>2141.0</ele>
        <time>2017-07-23T13:34:22Z</time>
      </trkpt>
      <trkpt lat="44.3677980" lon="7.0622590">
        <ele>2142.2</ele>
        <time>2017-07-23T13:34:24Z</time>
      </trkpt>
      <trkpt lat="44.3678210" lon="7.0622830">
        <ele>2143.2</ele>
        <time>2017-07-23T13:34:26Z</time>
      </trkpt>
      <trkpt lat="44.3678450" lon="7.0622930">
        <ele>2144.0</ele>
        <time>2017-07-23T13:34:28Z</time>
      </trkpt>
      <trkpt lat="44.3678510" lon="7.0622820">
        <ele>2144.4</ele>
        <time>2017-07-23T13:34:29Z</time>
      </trkpt>
      <trkpt lat="44.3680690" lon="7.0621220">
        <ele>2148.2</ele>
        <time>2017-07-23T13:35:08Z</time>
      </trkpt>
      <trkpt lat="44.3680790" lon="7.0621090">
        <ele>2148.2</ele>
        <time>2017-07-23T13:35:09Z</time>
      </trkpt>
      <trkpt lat="44.3681530" lon="7.0619680">
        <ele>2148.6</ele>
        <time>2017-07-23T13:35:16Z</time>
      </trkpt>
      <trkpt lat="44.3682340" lon="7.0618640">
        <ele>2148.8</ele>
        <time>2017-07-23T13:35:22Z</time>
      </trkpt>
      <trkpt lat="44.3682460" lon="7.0618470">
        <ele>2148.6</ele>
        <time>2017-07-23T13:35:23Z</time>
      </trkpt>
      <trkpt lat="44.3683660" lon="7.0617500">
        <ele>2148.8</ele>
        <time>2017-07-23T13:35:31Z</time>
      </trkpt>
      <trkpt lat="44.3684280" lon="7.0617100">
        <ele>2149.4</ele>
        <time>2017-07-23T13:35:35Z</time>
      </trkpt>
      <trkpt lat="44.3684920" lon="7.0616870">
        <ele>2150.4</ele>
        <time>2017-07-23T13:35:39Z</time>
      </trkpt>
      <trkpt lat="44.3685530" lon="7.0616560">
        <ele>2151.4</ele>
        <time>2017-07-23T13:35:43Z</time>
      </trkpt>
      <trkpt lat="44.3685970" lon="7.0616250">
        <ele>2152.6</ele>
        <time>2017-07-23T13:35:46Z</time>
      </trkpt>
      <trkpt lat="44.3686470" lon="7.0616120">
        <ele>2153.6</ele>
        <time>2017-07-23T13:35:49Z</time>
      </trkpt>
      <trkpt lat="44.3686610" lon="7.0616020">
        <ele>2153.8</ele>
        <time>2017-07-23T13:35:50Z</time>
      </trkpt>
      <trkpt lat="44.3687130" lon="7.0615420">
        <ele>2154.8</ele>
        <time>2017-07-23T13:35:54Z</time>
      </trkpt>
      <trkpt lat="44.3687210" lon="7.0615230">
        <ele>2155.0</ele>
        <time>2017-07-23T13:35:55Z</time>
      </trkpt>
      <trkpt lat="44.3687620" lon="7.0614620">
        <ele>2156.0</ele>
        <time>2017-07-23T13:35:58Z</time>
      </trkpt>
      <trkpt lat="44.3688100" lon="7.0613770">
        <ele>2157.2</ele>
        <time>2017-07-23T13:36:02Z</time>
      </trkpt>
      <trkpt lat="44.3688440" lon="7.0613200">
        <ele>2158.2</ele>
        <time>2017-07-23T13:36:05Z</time>
      </trkpt>
      <trkpt lat="44.3688730" lon="7.0612520">
        <ele>2159.6</ele>
        <time>2017-07-23T13:36:08Z</time>
      </trkpt>
      <trkpt lat="44.3688830" lon="7.0612280">
        <ele>2159.8</ele>
        <time>2017-07-23T13:36:09Z</time>
      </trkpt>
      <trkpt lat="44.3689090" lon="7.0611620">
        <ele>2160.6</ele>
        <time>2017-07-23T13:36:12Z</time>
      </trkpt>
      <trkpt lat="44.3689170" lon="7.0610790">
        <ele>2161.6</ele>
        <time>2017-07-23T13:36:15Z</time>
      </trkpt>
      <trkpt lat="44.3689190" lon="7.0610510">
        <ele>2162.0</ele>
        <time>2017-07-23T13:36:16Z</time>
      </trkpt>
      <trkpt lat="44.3689260" lon="7.0609650">
        <ele>2162.6</ele>
        <time>2017-07-23T13:36:19Z</time>
      </trkpt>
      <trkpt lat="44.3689270" lon="7.0608810">
        <ele>2163.2</ele>
        <time>2017-07-23T13:36:22Z</time>
      </trkpt>
      <trkpt lat="44.3689120" lon="7.0607980">
        <ele>2163.8</ele>
        <time>2017-07-23T13:36:25Z</time>
      </trkpt>
      <trkpt lat="44.3688970" lon="7.0606580">
        <ele>2164.0</ele>
        <time>2017-07-23T13:36:30Z</time>
      </trkpt>
      <trkpt lat="44.3688780" lon="7.0604440">
        <ele>2165.0</ele>
        <time>2017-07-23T13:36:37Z</time>
      </trkpt>
      <trkpt lat="44.3688760" lon="7.0604120">
        <ele>2165.0</ele>
        <time>2017-07-23T13:36:38Z</time>
      </trkpt>
      <trkpt lat="44.3688840" lon="7.0601290">
        <ele>2165.2</ele>
        <time>2017-07-23T13:36:46Z</time>
      </trkpt>
      <trkpt lat="44.3688930" lon="7.0598660">
        <ele>2165.4</ele>
        <time>2017-07-23T13:36:54Z</time>
      </trkpt>
      <trkpt lat="44.3689100" lon="7.0597040">
        <ele>2166.0</ele>
        <time>2017-07-23T13:36:59Z</time>
      </trkpt>
      <trkpt lat="44.3689090" lon="7.0596750">
        <ele>2166.2</ele>
        <time>2017-07-23T13:37:00Z</time>
      </trkpt>
      <trkpt lat="44.3689320" lon="7.0594260">
        <ele>2167.2</ele>
        <time>2017-07-23T13:37:08Z</time>
      </trkpt>
      <trkpt lat="44.3689520" lon="7.0592150">
        <ele>2168.2</ele>
        <time>2017-07-23T13:37:15Z</time>
      </trkpt>
      <trkpt lat="44.3690160" lon="7.0590410">
        <ele>2169.4</ele>
        <time>2017-07-23T13:37:21Z</time>
      </trkpt>
      <trkpt lat="44.3690290" lon="7.0590170">
        <ele>2169.4</ele>
        <time>2017-07-23T13:37:22Z</time>
      </trkpt>
      <trkpt lat="44.3691430" lon="7.0588870">
        <ele>2170.0</ele>
        <time>2017-07-23T13:37:29Z</time>
      </trkpt>
      <trkpt lat="44.3692290" lon="7.0588400">
        <ele>2170.4</ele>
        <time>2017-07-23T13:37:33Z</time>
      </trkpt>
      <trkpt lat="44.3692730" lon="7.0588330">
        <ele>2170.6</ele>
        <time>2017-07-23T13:37:35Z</time>
      </trkpt>
      <trkpt lat="44.3693880" lon="7.0587660">
        <ele>2171.2</ele>
        <time>2017-07-23T13:37:41Z</time>
      </trkpt>
      <trkpt lat="44.3694330" lon="7.0587500">
        <ele>2171.4</ele>
        <time>2017-07-23T13:37:43Z</time>
      </trkpt>
      <trkpt lat="44.3695640" lon="7.0587000">
        <ele>2172.0</ele>
        <time>2017-07-23T13:37:49Z</time>
      </trkpt>
      <trkpt lat="44.3697550" lon="7.0585920">
        <ele>2172.2</ele>
        <time>2017-07-23T13:37:58Z</time>
      </trkpt>
      <trkpt lat="44.3698580" lon="7.0585420">
        <ele>2172.6</ele>
        <time>2017-07-23T13:38:03Z</time>
      </trkpt>
      <trkpt lat="44.3699540" lon="7.0585190">
        <ele>2173.2</ele>
        <time>2017-07-23T13:38:07Z</time>
      </trkpt>
      <trkpt lat="44.3699940" lon="7.0584990">
        <ele>2174.0</ele>
        <time>2017-07-23T13:38:09Z</time>
      </trkpt>
      <trkpt lat="44.3700560" lon="7.0584600">
        <ele>2175.6</ele>
        <time>2017-07-23T13:38:12Z</time>
      </trkpt>
      <trkpt lat="44.3700970" lon="7.0584460">
        <ele>2177.0</ele>
        <time>2017-07-23T13:38:14Z</time>
      </trkpt>
      <trkpt lat="44.3701170" lon="7.0584360">
        <ele>2177.8</ele>
        <time>2017-07-23T13:38:15Z</time>
      </trkpt>
      <trkpt lat="44.3701380" lon="7.0584260">
        <ele>2178.6</ele>
        <time>2017-07-23T13:38:16Z</time>
      </trkpt>
      <trkpt lat="44.3701780" lon="7.0584070">
        <ele>2180.0</ele>
        <time>2017-07-23T13:38:18Z</time>
      </trkpt>
      <trkpt lat="44.3702180" lon="7.0583820">
        <ele>2181.8</ele>
        <time>2017-07-23T13:38:20Z</time>
      </trkpt>
      <trkpt lat="44.3702600" lon="7.0583650">
        <ele>2182.8</ele>
        <time>2017-07-23T13:38:22Z</time>
      </trkpt>
      <trkpt lat="44.3702990" lon="7.0583450">
        <ele>2183.8</ele>
        <time>2017-07-23T13:38:24Z</time>
      </trkpt>
      <trkpt lat="44.3703460" lon="7.0583290">
        <ele>2185.0</ele>
        <time>2017-07-23T13:38:26Z</time>
      </trkpt>
      <trkpt lat="44.3704220" lon="7.0583010">
        <ele>2186.4</ele>
        <time>2017-07-23T13:38:29Z</time>
      </trkpt>
      <trkpt lat="44.3704840" lon="7.0582660">
        <ele>2187.4</ele>
        <time>2017-07-23T13:38:32Z</time>
      </trkpt>
      <trkpt lat="44.3705630" lon="7.0582200">
        <ele>2188.8</ele>
        <time>2017-07-23T13:38:36Z</time>
      </trkpt>
      <trkpt lat="44.3705930" lon="7.0581920">
        <ele>2189.6</ele>
        <time>2017-07-23T13:38:38Z</time>
      </trkpt>
      <trkpt lat="44.3706060" lon="7.0581740">
        <ele>2190.0</ele>
        <time>2017-07-23T13:38:39Z</time>
      </trkpt>
      <trkpt lat="44.3706580" lon="7.0581080">
        <ele>2191.2</ele>
        <time>2017-07-23T13:38:43Z</time>
      </trkpt>
      <trkpt lat="44.3706860" lon="7.0580750">
        <ele>2192.0</ele>
        <time>2017-07-23T13:38:45Z</time>
      </trkpt>
      <trkpt lat="44.3707050" lon="7.0580330">
        <ele>2192.6</ele>
        <time>2017-07-23T13:38:47Z</time>
      </trkpt>
      <trkpt lat="44.3707500" lon="7.0579500">
        <ele>2193.8</ele>
        <time>2017-07-23T13:38:51Z</time>
      </trkpt>
      <trkpt lat="44.3707600" lon="7.0579280">
        <ele>2194.2</ele>
        <time>2017-07-23T13:38:52Z</time>
      </trkpt>
      <trkpt lat="44.3707940" lon="7.0578630">
        <ele>2195.0</ele>
        <time>2017-07-23T13:38:55Z</time>
      </trkpt>
      <trkpt lat="44.3708440" lon="7.0577960">
        <ele>2196.0</ele>
        <time>2017-07-23T13:38:59Z</time>
      </trkpt>
      <trkpt lat="44.3708610" lon="7.0577560">
        <ele>2196.4</ele>
        <time>2017-07-23T13:39:01Z</time>
      </trkpt>
      <trkpt lat="44.3708920" lon="7.0577080">
        <ele>2197.2</ele>
        <time>2017-07-23T13:39:04Z</time>
      </trkpt>
      <trkpt lat="44.3709230" lon="7.0576480">
        <ele>2197.8</ele>
        <time>2017-07-23T13:39:07Z</time>
      </trkpt>
      <trkpt lat="44.3709650" lon="7.0575960">
        <ele>2198.4</ele>
        <time>2017-07-23T13:39:10Z</time>
      </trkpt>
      <trkpt lat="44.3710160" lon="7.0575400">
        <ele>2198.2</ele>
        <time>2017-07-23T13:39:14Z</time>
      </trkpt>
      <trkpt lat="44.3710440" lon="7.0575090">
        <ele>2197.2</ele>
        <time>2017-07-23T13:39:16Z</time>
      </trkpt>
      <trkpt lat="44.3710980" lon="7.0574440">
        <ele>2197.4</ele>
        <time>2017-07-23T13:39:20Z</time>
      </trkpt>
      <trkpt lat="44.3711310" lon="7.0573850">
        <ele>2197.0</ele>
        <time>2017-07-23T13:39:23Z</time>
      </trkpt>
      <trkpt lat="44.3711670" lon="7.0572760">
        <ele>2196.0</ele>
        <time>2017-07-23T13:39:27Z</time>
      </trkpt>
      <trkpt lat="44.3712080" lon="7.0572120">
        <ele>2195.0</ele>
        <time>2017-07-23T13:39:30Z</time>
      </trkpt>
      <trkpt lat="44.3712520" lon="7.0571500">
        <ele>2193.8</ele>
        <time>2017-07-23T13:39:33Z</time>
      </trkpt>
      <trkpt lat="44.3713030" lon="7.0570980">
        <ele>2193.6</ele>
        <time>2017-07-23T13:39:36Z</time>
      </trkpt>
      <trkpt lat="44.3714310" lon="7.0570220">
        <ele>2193.4</ele>
        <time>2017-07-23T13:39:43Z</time>
      </trkpt>
      <trkpt lat="44.3715450" lon="7.0569440">
        <ele>2193.8</ele>
        <time>2017-07-23T13:39:49Z</time>
      </trkpt>
      <trkpt lat="44.3717040" lon="7.0568730">
        <ele>2193.6</ele>
        <time>2017-07-23T13:39:57Z</time>
      </trkpt>
      <trkpt lat="44.3718390" lon="7.0568760">
        <ele>2193.0</ele>
        <time>2017-07-23T13:40:04Z</time>
      </trkpt>
      <trkpt lat="44.3718730" lon="7.0568820">
        <ele>2192.8</ele>
        <time>2017-07-23T13:40:06Z</time>
      </trkpt>
      <trkpt lat="44.3719690" lon="7.0568750">
        <ele>2193.8</ele>
        <time>2017-07-23T13:40:11Z</time>
      </trkpt>
      <trkpt lat="44.3719900" lon="7.0568760">
        <ele>2194.2</ele>
        <time>2017-07-23T13:40:12Z</time>
      </trkpt>
      <trkpt lat="44.3720460" lon="7.0568690">
        <ele>2195.0</ele>
        <time>2017-07-23T13:40:15Z</time>
      </trkpt>
      <trkpt lat="44.3733830" lon="7.0565490">
        <ele>2223.4</ele>
        <time>2017-07-23T13:44:00Z</time>
      </trkpt>
      <trkpt lat="44.3733770" lon="7.0565380">
        <ele>2223.8</ele>
        <time>2017-07-23T13:44:01Z</time>
      </trkpt>
      <trkpt lat="44.3733630" lon="7.0565010">
        <ele>2224.4</ele>
        <time>2017-07-23T13:44:04Z</time>
      </trkpt>
      <trkpt lat="44.3733570" lon="7.0564890">
        <ele>2224.6</ele>
        <time>2017-07-23T13:44:05Z</time>
      </trkpt>
      <trkpt lat="44.3733160" lon="7.0564290">
        <ele>2225.6</ele>
        <time>2017-07-23T13:44:10Z</time>
      </trkpt>
      <trkpt lat="44.3732970" lon="7.0564110">
        <ele>2226.0</ele>
        <time>2017-07-23T13:44:12Z</time>
      </trkpt>
      <trkpt lat="44.3732580" lon="7.0563950">
        <ele>2226.8</ele>
        <time>2017-07-23T13:44:16Z</time>
      </trkpt>
      <trkpt lat="44.3732110" lon="7.0563720">
        <ele>2227.4</ele>
        <time>2017-07-23T13:44:20Z</time>
      </trkpt>
      <trkpt lat="44.3731880" lon="7.0563600">
        <ele>2227.8</ele>
        <time>2017-07-23T13:44:22Z</time>
      </trkpt>
      <trkpt lat="44.3731790" lon="7.0563550">
        <ele>2227.8</ele>
        <time>2017-07-23T13:44:23Z</time>
      </trkpt>
      <trkpt lat="44.3731170" lon="7.0563300">
        <ele>2228.2</ele>
        <time>2017-07-23T13:44:29Z</time>
      </trkpt>
      <trkpt lat="44.3730410" lon="7.0563110">
        <ele>2228.4</ele>
        <time>2017-07-23T13:44:37Z</time>
      </trkpt>
      <trkpt lat="44.3729760" lon="7.0563120">
        <ele>2229.2</ele>
        <time>2017-07-23T13:44:44Z</time>
      </trkpt>
      <trkpt lat="44.3729670" lon="7.0563120">
        <ele>2229.2</ele>
        <time>2017-07-23T13:44:45Z</time>
      </trkpt>
      <trkpt lat="44.3729220" lon="7.0563150">
        <ele>2229.2</ele>
        <time>2017-07-23T13:44:50Z</time>
      </trkpt>
      <trkpt lat="44.3728930" lon="7.0562840">
        <ele>2229.2</ele>
        <time>2017-07-23T13:44:54Z</time>
      </trkpt>
      <trkpt lat="44.3728910" lon="7.0562730">
        <ele>2229.4</ele>
        <time>2017-07-23T13:44:55Z</time>
      </trkpt>
      <trkpt lat="44.3728910" lon="7.0562230">
        <ele>2229.2</ele>
        <time>2017-07-23T13:45:00Z</time>
      </trkpt>
      <trkpt lat="44.3732610" lon="7.0560150">
        <ele>2234.2</ele>
        <time>2017-07-23T13:45:49Z</time>
      </trkpt>
      <trkpt lat="44.3732700" lon="7.0560080">
        <ele>2234.2</ele>
        <time>2017-07-23T13:45:50Z</time>
      </trkpt>
      <trkpt lat="44.3732880" lon="7.0560050">
        <ele>2232.8</ele>
        <time>2017-07-23T13:45:52Z</time>
      </trkpt>
      <trkpt lat="44.3733050" lon="7.0559960">
        <ele>2234.2</ele>
        <time>2017-07-23T13:45:54Z</time>
      </trkpt>
      <trkpt lat="44.3733120" lon="7.0559900">
        <ele>2235.4</ele>
        <time>2017-07-23T13:45:55Z</time>
      </trkpt>
      <trkpt lat="44.3733440" lon="7.0559710">
        <ele>2236.8</ele>
        <time>2017-07-23T13:45:59Z</time>
      </trkpt>
      <trkpt lat="44.3733500" lon="7.0559700">
        <ele>2238.2</ele>
        <time>2017-07-23T13:46:00Z</time>
      </trkpt>
      <trkpt lat="44.3733580" lon="7.0559710">
        <ele>2238.4</ele>
        <time>2017-07-23T13:46:01Z</time>
      </trkpt>
      <trkpt lat="44.3733680" lon="7.0559710">
        <ele>2238.2</ele>
        <time>2017-07-23T13:46:02Z</time>
      </trkpt>
      <trkpt lat="44.3734040" lon="7.0559520">
        <ele>2238.6</ele>
        <time>2017-07-23T13:46:06Z</time>
      </trkpt>
      <trkpt lat="44.3734290" lon="7.0559360">
        <ele>2238.4</ele>
        <time>2017-07-23T13:46:09Z</time>
      </trkpt>
      <trkpt lat="44.3734970" lon="7.0559030">
        <ele>2238.0</ele>
        <time>2017-07-23T13:46:17Z</time>
      </trkpt>
      <trkpt lat="44.3735660" lon="7.0558960">
        <ele>2238.4</ele>
        <time>2017-07-23T13:46:26Z</time>
      </trkpt>
      <trkpt lat="44.3735840" lon="7.0558990">
        <ele>2239.4</ele>
        <time>2017-07-23T13:46:29Z</time>
      </trkpt>
      <trkpt lat="44.3736040" lon="7.0558990">
        <ele>2240.4</ele>
        <time>2017-07-23T13:46:32Z</time>
      </trkpt>
      <trkpt lat="44.3740280" lon="7.0560820">
        <ele>2254.2</ele>
        <time>2017-07-23T13:47:29Z</time>
      </trkpt>
      <trkpt lat="44.3740800" lon="7.0560450">
        <ele>2254.8</ele>
        <time>2017-07-23T13:47:32Z</time>
      </trkpt>
      <trkpt lat="44.3742010" lon="7.0559280">
        <ele>2254.2</ele>
        <time>2017-07-23T13:47:38Z</time>
      </trkpt>
      <trkpt lat="44.3743300" lon="7.0558590">
        <ele>2254.2</ele>
        <time>2017-07-23T13:47:43Z</time>
      </trkpt>
      <trkpt lat="44.3744370" lon="7.0558090">
        <ele>2254.4</ele>
        <time>2017-07-23T13:47:47Z</time>
      </trkpt>
      <trkpt lat="44.3746300" lon="7.0557370">
        <ele>2254.8</ele>
        <time>2017-07-23T13:47:54Z</time>
      </trkpt>
      <trkpt lat="44.3746620" lon="7.0557270">
        <ele>2254.6</ele>
        <time>2017-07-23T13:47:55Z</time>
      </trkpt>
      <trkpt lat="44.3748860" lon="7.0556460">
        <ele>2254.0</ele>
        <time>2017-07-23T13:48:03Z</time>
      </trkpt>
      <trkpt lat="44.3750970" lon="7.0555140">
        <ele>2253.6</ele>
        <time>2017-07-23T13:48:12Z</time>
      </trkpt>
      <trkpt lat="44.3752730" lon="7.0554110">
        <ele>2254.8</ele>
        <time>2017-07-23T13:48:20Z</time>
      </trkpt>
      <trkpt lat="44.3753130" lon="7.0553810">
        <ele>2255.4</ele>
        <time>2017-07-23T13:48:22Z</time>
      </trkpt>
      <trkpt lat="44.3754620" lon="7.0552540">
        <ele>2256.2</ele>
        <time>2017-07-23T13:48:29Z</time>
      </trkpt>
      <trkpt lat="44.3755120" lon="7.0552140">
        <ele>2256.4</ele>
        <time>2017-07-23T13:48:31Z</time>
      </trkpt>
      <trkpt lat="44.3756470" lon="7.0551080">
        <ele>2256.8</ele>
        <time>2017-07-23T13:48:37Z</time>
      </trkpt>
      <trkpt lat="44.3757840" lon="7.0549700">
        <ele>2257.4</ele>
        <time>2017-07-23T13:48:43Z</time>
      </trkpt>
      <trkpt lat="44.3758060" lon="7.0549480">
        <ele>2258.0</ele>
        <time>2017-07-23T13:48:44Z</time>
      </trkpt>
      <trkpt lat="44.3759670" lon="7.0547980">
        <ele>2257.6</ele>
        <time>2017-07-23T13:48:51Z</time>
      </trkpt>
      <trkpt lat="44.3761070" lon="7.0547080">
        <ele>2257.2</ele>
        <time>2017-07-23T13:48:57Z</time>
      </trkpt>
      <trkpt lat="44.3762180" lon="7.0547290">
        <ele>2257.0</ele>
        <time>2017-07-23T13:49:02Z</time>
      </trkpt>
      <trkpt lat="44.3763640" lon="7.0546880">
        <ele>2257.4</ele>
        <time>2017-07-23T13:49:09Z</time>
      </trkpt>
      <trkpt lat="44.3765060" lon="7.0546490">
        <ele>2257.0</ele>
        <time>2017-07-23T13:49:16Z</time>
      </trkpt>
      <trkpt lat="44.3766120" lon="7.0546880">
        <ele>2257.2</ele>
        <time>2017-07-23T13:49:23Z</time>
      </trkpt>
      <trkpt lat="44.3767080" lon="7.0546740">
        <ele>2257.4</ele>
        <time>2017-07-23T13:49:29Z</time>
      </trkpt>
      <trkpt lat="44.3767310" lon="7.0546600">
        <ele>2257.6</ele>
        <time>2017-07-23T13:49:31Z</time>
      </trkpt>
      <trkpt lat="44.3775970" lon="7.0563610">
        <ele>2297.4</ele>
        <time>2017-07-23T13:53:34Z</time>
      </trkpt>
      <trkpt lat="44.3775920" lon="7.0563740">
        <ele>2297.4</ele>
        <time>2017-07-23T13:53:35Z</time>
      </trkpt>
      <trkpt lat="44.3775740" lon="7.0564010">
        <ele>2297.8</ele>
        <time>2017-07-23T13:53:38Z</time>
      </trkpt>
      <trkpt lat="44.3775530" lon="7.0564120">
        <ele>2298.0</ele>
        <time>2017-07-23T13:53:41Z</time>
      </trkpt>
      <trkpt lat="44.3775460" lon="7.0564210">
        <ele>2298.2</ele>
        <time>2017-07-23T13:53:42Z</time>
      </trkpt>
      <trkpt lat="44.3775070" lon="7.0564520">
        <ele>2298.4</ele>
        <time>2017-07-23T13:53:47Z</time>
      </trkpt>
      <trkpt lat="44.3774970" lon="7.0564700">
        <ele>2298.6</ele>
        <time>2017-07-23T13:53:49Z</time>
      </trkpt>
      <trkpt lat="44.3774340" lon="7.0567640">
        <ele>2300.8</ele>
        <time>2017-07-23T13:54:19Z</time>
      </trkpt>
      <trkpt lat="44.3774600" lon="7.0567730">
        <ele>2301.6</ele>
        <time>2017-07-23T13:54:22Z</time>
      </trkpt>
      <trkpt lat="44.3774710" lon="7.0567600">
        <ele>2302.0</ele>
        <time>2017-07-23T13:54:24Z</time>
      </trkpt>
      <trkpt lat="44.3774830" lon="7.0567300">
        <ele>2302.8</ele>
        <time>2017-07-23T13:54:28Z</time>
      </trkpt>
      <trkpt lat="44.3774870" lon="7.0567190">
        <ele>2303.0</ele>
        <time>2017-07-23T13:54:29Z</time>
      </trkpt>
      <trkpt lat="44.3775110" lon="7.0566900">
        <ele>2304.0</ele>
        <time>2017-07-23T13:54:33Z</time>
      </trkpt>
      <trkpt lat="44.3775260" lon="7.0566710">
        <ele>2304.6</ele>
        <time>2017-07-23T13:54:36Z</time>
      </trkpt>
      <trkpt lat="44.3775450" lon="7.0566550">
        <ele>2305.4</ele>
        <time>2017-07-23T13:54:39Z</time>
      </trkpt>
      <trkpt lat="44.3775800" lon="7.0566330">
        <ele>2306.2</ele>
        <time>2017-07-23T13:54:44Z</time>
      </trkpt>
      <trkpt lat="44.3775870" lon="7.0566280">
        <ele>2306.6</ele>
        <time>2017-07-23T13:54:45Z</time>
      </trkpt>
      <trkpt lat="44.3776090" lon="7.0566170">
        <ele>2307.2</ele>
        <time>2017-07-23T13:54:49Z</time>
      </trkpt>
      <trkpt lat="44.3776290" lon="7.0566120">
        <ele>2307.4</ele>
        <time>2017-07-23T13:54:51Z</time>
      </trkpt>
      <trkpt lat="44.3776360" lon="7.0566080">
        <ele>2307.6</ele>
        <time>2017-07-23T13:54:52Z</time>
      </trkpt>
      <trkpt lat="44.3776590" lon="7.0565970">
        <ele>2308.2</ele>
        <time>2017-07-23T13:54:56Z</time>
      </trkpt>
      <trkpt lat="44.3776690" lon="7.0565920">
        <ele>2308.8</ele>
        <time>2017-07-23T13:54:58Z</time>
      </trkpt>
      <trkpt lat="44.3776750" lon="7.0565890">
        <ele>2308.8</ele>
        <time>2017-07-23T13:54:59Z</time>
      </trkpt>
      <trkpt lat="44.3784620" lon="7.0564040">
        <ele>2323.0</ele>
        <time>2017-07-23T14:00:37Z</time>
      </trkpt>
      <trkpt lat="44.3784670" lon="7.0563650">
        <ele>2323.0</ele>
        <time>2017-07-23T14:00:39Z</time>
      </trkpt>
      <trkpt lat="44.3784820" lon="7.0561910">
        <ele>2323.8</ele>
        <time>2017-07-23T14:00:47Z</time>
      </trkpt>
      <trkpt lat="44.3784800" lon="7.0561690">
        <ele>2324.0</ele>
        <time>2017-07-23T14:00:48Z</time>
      </trkpt>
      <trkpt lat="44.3784630" lon="7.0560730">
        <ele>2325.4</ele>
        <time>2017-07-23T14:00:52Z</time>
      </trkpt>
      <trkpt lat="44.3784650" lon="7.0560520">
        <ele>2325.6</ele>
        <time>2017-07-23T14:00:53Z</time>
      </trkpt>
      <trkpt lat="44.3784600" lon="7.0559850">
        <ele>2326.6</ele>
        <time>2017-07-23T14:00:56Z</time>
      </trkpt>
      <trkpt lat="44.3784460" lon="7.0559050">
        <ele>2327.6</ele>
        <time>2017-07-23T14:01:00Z</time>
      </trkpt>
      <trkpt lat="44.3784440" lon="7.0558820">
        <ele>2327.8</ele>
        <time>2017-07-23T14:01:01Z</time>
      </trkpt>
      <trkpt lat="44.3784590" lon="7.0557540">
        <ele>2328.6</ele>
        <time>2017-07-23T14:01:07Z</time>
      </trkpt>
      <trkpt lat="44.3784660" lon="7.0557060">
        <ele>2329.0</ele>
        <time>2017-07-23T14:01:09Z</time>
      </trkpt>
      <trkpt lat="44.3785040" lon="7.0555720">
        <ele>2329.6</ele>
        <time>2017-07-23T14:01:15Z</time>
      </trkpt>
      <trkpt lat="44.3785120" lon="7.0554580">
        <ele>2330.0</ele>
        <time>2017-07-23T14:01:20Z</time>
      </trkpt>
      <trkpt lat="44.3785170" lon="7.0554350">
        <ele>2330.0</ele>
        <time>2017-07-23T14:01:21Z</time>
      </trkpt>
      <trkpt lat="44.3785310" lon="7.0553190">
        <ele>2331.0</ele>
        <time>2017-07-23T14:01:26Z</time>
      </trkpt>
      <trkpt lat="44.3785080" lon="7.0552520">
        <ele>2331.6</ele>
        <time>2017-07-23T14:01:29Z</time>
      </trkpt>
      <trkpt lat="44.3784770" lon="7.0551900">
        <ele>2332.2</ele>
        <time>2017-07-23T14:01:32Z</time>
      </trkpt>
      <trkpt lat="44.3784530" lon="7.0551310">
        <ele>2333.2</ele>
        <time>2017-07-23T14:01:35Z</time>
      </trkpt>
      <trkpt lat="44.3784200" lon="7.0550740">
        <ele>2334.0</ele>
        <time>2017-07-23T14:01:38Z</time>
      </trkpt>
      <trkpt lat="44.3784010" lon="7.0550320">
        <ele>2334.4</ele>
        <time>2017-07-23T14:01:40Z</time>
      </trkpt>
      <trkpt lat="44.3783580" lon="7.0549410">
        <ele>2335.2</ele>
        <time>2017-07-23T14:01:45Z</time>
      </trkpt>
      <trkpt lat="44.3783300" lon="7.0549050">
        <ele>2335.6</ele>
        <time>2017-07-23T14:01:47Z</time>
      </trkpt>
      <trkpt lat="44.3782850" lon="7.0548280">
        <ele>2336.0</ele>
        <time>2017-07-23T14:01:51Z</time>
      </trkpt>
      <trkpt lat="44.3782760" lon="7.0548080">
        <ele>2336.0</ele>
        <time>2017-07-23T14:01:52Z</time>
      </trkpt>
      <trkpt lat="44.3782340" lon="7.0547390">
        <ele>2336.2</ele>
        <time>2017-07-23T14:01:56Z</time>
      </trkpt>
      <trkpt lat="44.3782030" lon="7.0547080">
        <ele>2336.6</ele>
        <time>2017-07-23T14:01:58Z</time>
      </trkpt>
      <trkpt lat="44.3781550" lon="7.0546550">
        <ele>2337.2</ele>
        <time>2017-07-23T14:02:02Z</time>
      </trkpt>
      <trkpt lat="44.3781370" lon="7.0546270">
        <ele>2337.8</ele>
        <time>2017-07-23T14:02:04Z</time>
      </trkpt>
      <trkpt lat="44.3781170" lon="7.0545730">
        <ele>2338.8</ele>
        <time>2017-07-23T14:02:07Z</time>
      </trkpt>
      <trkpt lat="44.3781150" lon="7.0545300">
        <ele>2339.6</ele>
        <time>2017-07-23T14:02:09Z</time>
      </trkpt>
      <trkpt lat="44.3781200" lon="7.0545080">
        <ele>2340.0</ele>
        <time>2017-07-23T14:02:10Z</time>
      </trkpt>
      <trkpt lat="44.3781260" lon="7.0544690">
        <ele>2341.2</ele>
        <time>2017-07-23T14:02:12Z</time>
      </trkpt>
      <trkpt lat="44.3781290" lon="7.0544300">
        <ele>2342.2</ele>
        <time>2017-07-23T14:02:14Z</time>
      </trkpt>
      <trkpt lat="44.3781240" lon="7.0544140">
        <ele>2343.0</ele>
        <time>2017-07-23T14:02:15Z</time>
      </trkpt>
      <trkpt lat="44.3781220" lon="7.0543970">
        <ele>2343.4</ele>
        <time>2017-07-23T14:02:16Z</time>
      </trkpt>
      <trkpt lat="44.3781330" lon="7.0543630">
        <ele>2344.4</ele>
        <time>2017-07-23T14:02:18Z</time>
      </trkpt>
      <trkpt lat="44.3781380" lon="7.0543320">
        <ele>2345.6</ele>
        <time>2017-07-23T14:02:20Z</time>
      </trkpt>
      <trkpt lat="44.3781450" lon="7.0543020">
        <ele>2347.2</ele>
        <time>2017-07-23T14:02:22Z</time>
      </trkpt>
      <trkpt lat="44.3781540" lon="7.0542950">
        <ele>2348.4</ele>
        <time>2017-07-23T14:02:24Z</time>
      </trkpt>
      <trkpt lat="44.3788820" lon="7.0546480">
        <ele>2382.6</ele>
        <time>2017-07-23T14:04:32Z</time>
      </trkpt>
      <trkpt lat="44.3788840" lon="7.0546630">
        <ele>2382.6</ele>
        <time>2017-07-23T14:04:33Z</time>
      </trkpt>
      <trkpt lat="44.3788860" lon="7.0546820">
        <ele>2382.4</ele>
        <time>2017-07-23T14:04:34Z</time>
      </trkpt>
      <trkpt lat="44.3789330" lon="7.0547340">
        <ele>2382.0</ele>
        <time>2017-07-23T14:04:40Z</time>
      </trkpt>
      <trkpt lat="44.3790200" lon="7.0547530">
        <ele>2381.8</ele>
        <time>2017-07-23T14:04:49Z</time>
      </trkpt>
      <trkpt lat="44.3790890" lon="7.0547720">
        <ele>2381.6</ele>
        <time>2017-07-23T14:04:57Z</time>
      </trkpt>
      <trkpt lat="44.3790960" lon="7.0547730">
        <ele>2381.6</ele>
        <time>2017-07-23T14:04:58Z</time>
      </trkpt>
      <trkpt lat="44.3791590" lon="7.0547980">
        <ele>2382.2</ele>
        <time>2017-07-23T14:05:07Z</time>
      </trkpt>
      <trkpt lat="44.3791790" lon="7.0548170">
        <ele>2382.6</ele>
        <time>2017-07-23T14:05:10Z</time>
      </trkpt>
      <trkpt lat="44.3792180" lon="7.0548420">
        <ele>2383.8</ele>
        <time>2017-07-23T14:05:15Z</time>
      </trkpt>
      <trkpt lat="44.3792250" lon="7.0548460">
        <ele>2384.0</ele>
        <time>2017-07-23T14:05:16Z</time>
      </trkpt>
      <trkpt lat="44.3792580" lon="7.0548630">
        <ele>2385.0</ele>
        <time>2017-07-23T14:05:20Z</time>
      </trkpt>
      <trkpt lat="44.3792860" lon="7.0548950">
        <ele>2386.2</ele>
        <time>2017-07-23T14:05:24Z</time>
      </trkpt>
      <trkpt lat="44.3793000" lon="7.0549160">
        <ele>2386.8</ele>
        <time>2017-07-23T14:05:26Z</time>
      </trkpt>
      <trkpt lat="44.3793070" lon="7.0549250">
        <ele>2387.2</ele>
        <time>2017-07-23T14:05:27Z</time>
      </trkpt>
      <trkpt lat="44.3793130" lon="7.0549320">
        <ele>2388.8</ele>
        <time>2017-07-23T14:05:30Z</time>
      </trkpt>
      <trkpt lat="44.3793190" lon="7.0549420">
        <ele>2389.2</ele>
        <time>2017-07-23T14:05:31Z</time>
      </trkpt>
      <trkpt lat="44.3793450" lon="7.0549580">
        <ele>2389.8</ele>
        <time>2017-07-23T14:05:33Z</time>
      </trkpt>
      <trkpt lat="44.3793980" lon="7.0550010">
        <ele>2391.2</ele>
        <time>2017-07-23T14:05:36Z</time>
      </trkpt>
      <trkpt lat="44.3795630" lon="7.0550860">
        <ele>2392.0</ele>
        <time>2017-07-23T14:05:41Z</time>
      </trkpt>
      <trkpt lat="44.3798170" lon="7.0551090">
        <ele>2391.6</ele>
        <time>2017-07-23T14:05:45Z</time>
      </trkpt>
      <trkpt lat="44.3798720" lon="7.0551300">
        <ele>2391.4</ele>
        <time>2017-07-23T14:05:46Z</time>
      </trkpt>
      <trkpt lat="44.3799470" lon="7.0551990">
        <ele>2390.6</ele>
        <time>2017-07-23T14:05:48Z</time>
      </trkpt>
      <trkpt lat="44.3799700" lon="7.0552440">
        <ele>2389.8</ele>
        <time>2017-07-23T14:05:49Z</time>
      </trkpt>
      <trkpt lat="44.3800060" lon="7.0553440">
        <ele>2389.0</ele>
        <time>2017-07-23T14:05:51Z</time>
      </trkpt>
      <trkpt lat="44.3800210" lon="7.0554060">
        <ele>2388.4</ele>
        <time>2017-07-23T14:05:52Z</time>
      </trkpt>
      <trkpt lat="44.3800540" lon="7.0555250">
        <ele>2387.0</ele>
        <time>2017-07-23T14:05:54Z</time>
      </trkpt>
      <trkpt lat="44.3800740" lon="7.0555660">
        <ele>2386.0</ele>
        <time>2017-07-23T14:05:55Z</time>
      </trkpt>
      <trkpt lat="44.3800880" lon="7.0555900">
        <ele>2385.0</ele>
        <time>2017-07-23T14:05:56Z</time>
      </trkpt>
      <trkpt lat="44.3800970" lon="7.0556040">
        <ele>2384.0</ele>
        <time>2017-07-23T14:05:57Z</time>
      </trkpt>
      <trkpt lat="44.3801040" lon="7.0556070">
        <ele>2382.4</ele>
        <time>2017-07-23T14:05:58Z</time>
      </trkpt>
      <trkpt lat="44.3801200" lon="7.0555500">
        <ele>2355.0</ele>
        <time>2017-07-23T14:07:48Z</time>
      </trkpt>
      <trkpt lat="44.3801240" lon="7.0555190">
        <ele>2354.8</ele>
        <time>2017-07-23T14:07:49Z</time>
      </trkpt>
      <trkpt lat="44.3801300" lon="7.0554860">
        <ele>2354.6</ele>
        <time>2017-07-23T14:07:50Z</time>
      </trkpt>
      <trkpt lat="44.3801880" lon="7.0553240">
        <ele>2353.8</ele>
        <time>2017-07-23T14:07:54Z</time>
      </trkpt>
      <trkpt lat="44.3802380" lon="7.0552480">
        <ele>2353.4</ele>
        <time>2017-07-23T14:07:56Z</time>
      </trkpt>
      <trkpt lat="44.3803300" lon="7.0550520">
        <ele>2353.6</ele>
        <time>2017-07-23T14:08:00Z</time>
      </trkpt>
      <trkpt lat="44.3804460" lon="7.0547820">
        <ele>2353.8</ele>
        <time>2017-07-23T14:08:05Z</time>
      </trkpt>
      <trkpt lat="44.3804710" lon="7.0547340">
        <ele>2354.0</ele>
        <time>2017-07-23T14:08:06Z</time>
      </trkpt>
      <trkpt lat="44.3805010" lon="7.0546940">
        <ele>2354.0</ele>
        <time>2017-07-23T14:08:07Z</time>
      </trkpt>
      <trkpt lat="44.3805950" lon="7.0545760">
        <ele>2354.2</ele>
        <time>2017-07-23T14:08:10Z</time>
      </trkpt>
      <trkpt lat="44.3806620" lon="7.0544950">
        <ele>2354.6</ele>
        <time>2017-07-23T14:08:12Z</time>
      </trkpt>
      <trkpt lat="44.3807010" lon="7.0544580">
        <ele>2354.6</ele>
        <time>2017-07-23T14:08:13Z</time>
      </trkpt>
      <trkpt lat="44.3807420" lon="7.0544250">
        <ele>2354.8</ele>
        <time>2017-07-23T14:08:14Z</time>
      </trkpt>
      <trkpt lat="44.3809140" lon="7.0543220">
        <ele>2355.2</ele>
        <time>2017-07-23T14:08:18Z</time>
      </trkpt>
      <trkpt lat="44.3810970" lon="7.0540990">
        <ele>2355.4</ele>
        <time>2017-07-23T14:08:23Z</time>
      </trkpt>
      <trkpt lat="44.3812350" lon="7.0540350">
        <ele>2355.6</ele>
        <time>2017-07-23T14:08:26Z</time>
      </trkpt>
      <trkpt lat="44.3813230" lon="7.0539880">
        <ele>2355.6</ele>
        <time>2017-07-23T14:08:28Z</time>
      </trkpt>
      <trkpt lat="44.3814390" lon="7.0538780">
        <ele>2355.6</ele>
        <time>2017-07-23T14:08:31Z</time>
      </trkpt>
      <trkpt lat="44.3814890" lon="7.0537420">
        <ele>2355.6</ele>
        <time>2017-07-23T14:08:33Z</time>
      </trkpt>
      <trkpt lat="44.3815020" lon="7.0535240">
        <ele>2355.6</ele>
        <time>2017-07-23T14:08:36Z</time>
      </trkpt>
      <trkpt lat="44.3815260" lon="7.0534420">
        <ele>2355.8</ele>
        <time>2017-07-23T14:08:37Z</time>
      </trkpt>
      <trkpt lat="44.3815550" lon="7.0533860">
        <ele>2356.0</ele>
        <time>2017-07-23T14:08:38Z</time>
      </trkpt>
      <trkpt lat="44.3816370" lon="7.0533510">
        <ele>2356.2</ele>
        <time>2017-07-23T14:08:40Z</time>
      </trkpt>
      <trkpt lat="44.3818100" lon="7.0533700">
        <ele>2355.4</ele>
        <time>2017-07-23T14:08:44Z</time>
      </trkpt>
      <trkpt lat="44.3818500" lon="7.0533920">
        <ele>2355.4</ele>
        <time>2017-07-23T14:08:45Z</time>
      </trkpt>
      <trkpt lat="44.3819320" lon="7.0535240">
        <ele>2355.8</ele>
        <time>2017-07-23T14:08:48Z</time>
      </trkpt>
      <trkpt lat="44.3819710" lon="7.0536350">
        <ele>2356.2</ele>
        <time>2017-07-23T14:08:50Z</time>
      </trkpt>
      <trkpt lat="44.3820220" lon="7.0537350">
        <ele>2356.6</ele>
        <time>2017-07-23T14:08:52Z</time>
      </trkpt>
      <trkpt lat="44.3820870" lon="7.0537910">
        <ele>2356.8</ele>
        <time>2017-07-23T14:08:54Z</time>
      </trkpt>
      <trkpt lat="44.3821330" lon="7.0537940">
        <ele>2357.0</ele>
        <time>2017-07-23T14:08:55Z</time>
      </trkpt>
      <trkpt lat="44.3821770" lon="7.0538000">
        <ele>2357.0</ele>
        <time>2017-07-23T14:08:56Z</time>
      </trkpt>
      <trkpt lat="44.3822210" lon="7.0537870">
        <ele>2357.0</ele>
        <time>2017-07-23T14:08:57Z</time>
      </trkpt>
      <trkpt lat="44.3822580" lon="7.0537530">
        <ele>2357.2</ele>
        <time>2017-07-23T14:08:58Z</time>
      </trkpt>
      <trkpt lat="44.3823120" lon="7.0535790">
        <ele>2357.0</ele>
        <time>2017-07-23T14:09:01Z</time>
      </trkpt>
      <trkpt lat="44.3823210" lon="7.0534250">
        <ele>2357.2</ele>
        <time>2017-07-23T14:09:03Z</time>
      </trkpt>
      <trkpt lat="44.3823360" lon="7.0533450">
        <ele>2357.2</ele>
        <time>2017-07-23T14:09:04Z</time>
      </trkpt>
      <trkpt lat="44.3823590" lon="7.0532680">
        <ele>2357.2</ele>
        <time>2017-07-23T14:09:05Z</time>
      </trkpt>
      <trkpt lat="44.3824980" lon="7.0529920">
        <ele>2356.6</ele>
        <time>2017-07-23T14:09:09Z</time>
      </trkpt>
      <trkpt lat="44.3826690" lon="7.0526740">
        <ele>2357.6</ele>
        <time>2017-07-23T14:09:13Z</time>
      </trkpt>
      <trkpt lat="44.3826960" lon="7.0525880">
        <ele>2357.4</ele>
        <time>2017-07-23T14:09:14Z</time>
      </trkpt>
      <trkpt lat="44.3827180" lon="7.0523240">
        <ele>2357.2</ele>
        <time>2017-07-23T14:09:17Z</time>
      </trkpt>
      <trkpt lat="44.3827210" lon="7.0522380">
        <ele>2357.2</ele>
        <time>2017-07-23T14:09:18Z</time>
      </trkpt>
      <trkpt lat="44.3827470" lon="7.0520010">
        <ele>2357.2</ele>
        <time>2017-07-23T14:09:21Z</time>
      </trkpt>
      <trkpt lat="44.3827520" lon="7.0518550">
        <ele>2356.8</ele>
        <time>2017-07-23T14:09:23Z</time>
      </trkpt>
      <trkpt lat="44.3827620" lon="7.0514900">
        <ele>2356.0</ele>
        <time>2017-07-23T14:09:29Z</time>
      </trkpt>
      <trkpt lat="44.3827620" lon="7.0514370">
        <ele>2355.8</ele>
        <time>2017-07-23T14:09:30Z</time>
      </trkpt>
      <trkpt lat="44.3827470" lon="7.0512390">
        <ele>2355.2</ele>
        <time>2017-07-23T14:09:34Z</time>
      </trkpt>
      <trkpt lat="44.3827400" lon="7.0511880">
        <ele>2354.6</ele>
        <time>2017-07-23T14:09:35Z</time>
      </trkpt>
      <trkpt lat="44.3827300" lon="7.0511390">
        <ele>2354.6</ele>
        <time>2017-07-23T14:09:36Z</time>
      </trkpt>
      <trkpt lat="44.3827010" lon="7.0509300">
        <ele>2354.4</ele>
        <time>2017-07-23T14:09:41Z</time>
      </trkpt>
      <trkpt lat="44.3827160" lon="7.0507700">
        <ele>2354.2</ele>
        <time>2017-07-23T14:09:45Z</time>
      </trkpt>
      <trkpt lat="44.3827310" lon="7.0506910">
        <ele>2354.4</ele>
        <time>2017-07-23T14:09:47Z</time>
      </trkpt>
      <trkpt lat="44.3827460" lon="7.0504550">
        <ele>2354.2</ele>
        <time>2017-07-23T14:09:53Z</time>
      </trkpt>
      <trkpt lat="44.3827260" lon="7.0501910">
        <ele>2354.8</ele>
        <time>2017-07-23T14:10:00Z</time>
      </trkpt>
      <trkpt lat="44.3827160" lon="7.0501550">
        <ele>2355.2</ele>
        <time>2017-07-23T14:10:01Z</time>
      </trkpt>
      <trkpt lat="44.3826870" lon="7.0500870">
        <ele>2355.8</ele>
        <time>2017-07-23T14:10:03Z</time>
      </trkpt>
      <trkpt lat="44.3826080" lon="7.0499690">
        <ele>2356.6</ele>
        <time>2017-07-23T14:10:07Z</time>
      </trkpt>
      <trkpt lat="44.3825870" lon="7.0499400">
        <ele>2356.8</ele>
        <time>2017-07-23T14:10:08Z</time>
      </trkpt>
      <trkpt lat="44.3825050" lon="7.0498440">
        <ele>2358.0</ele>
        <time>2017-07-23T14:10:12Z</time>
      </trkpt>
      <trkpt lat="44.3824680" lon="7.0498020">
        <ele>2358.4</ele>
        <time>2017-07-23T14:10:14Z</time>
      </trkpt>
      <trkpt lat="44.3823910" lon="7.0496850">
        <ele>2359.2</ele>
        <time>2017-07-23T14:10:19Z</time>
      </trkpt>
      <trkpt lat="44.3823710" lon="7.0496340">
        <ele>2359.6</ele>
        <time>2017-07-23T14:10:21Z</time>
      </trkpt>
      <trkpt lat="44.3823560" lon="7.0495770">
        <ele>2360.2</ele>
        <time>2017-07-23T14:10:23Z</time>
      </trkpt>
      <trkpt lat="44.3823140" lon="7.0494270">
        <ele>2360.8</ele>
        <time>2017-07-23T14:10:28Z</time>
      </trkpt>
      <trkpt lat="44.3822370" lon="7.0493000">
        <ele>2361.2</ele>
        <time>2017-07-23T14:10:33Z</time>
      </trkpt>
      <trkpt lat="44.3821990" lon="7.0492260">
        <ele>2361.4</ele>
        <time>2017-07-23T14:10:36Z</time>
      </trkpt>
      <trkpt lat="44.3822130" lon="7.0490820">
        <ele>2361.4</ele>
        <time>2017-07-23T14:10:40Z</time>
      </trkpt>
      <trkpt lat="44.3822370" lon="7.0490600">
        <ele>2361.4</ele>
        <time>2017-07-23T14:10:41Z</time>
      </trkpt>
      <trkpt lat="44.3822780" lon="7.0490270">
        <ele>2361.4</ele>
        <time>2017-07-23T14:10:43Z</time>
      </trkpt>
      <trkpt lat="44.3823530" lon="7.0488730">
        <ele>2362.4</ele>
        <time>2017-07-23T14:10:49Z</time>
      </trkpt>
      <trkpt lat="44.3822910" lon="7.0487180">
        <ele>2363.2</ele>
        <time>2017-07-23T14:10:54Z</time>
      </trkpt>
      <trkpt lat="44.3822670" lon="7.0486890">
        <ele>2363.4</ele>
        <time>2017-07-23T14:10:55Z</time>
      </trkpt>
      <trkpt lat="44.3821580" lon="7.0485600">
        <ele>2364.4</ele>
        <time>2017-07-23T14:11:00Z</time>
      </trkpt>
      <trkpt lat="44.3821500" lon="7.0485180">
        <ele>2364.6</ele>
        <time>2017-07-23T14:11:01Z</time>
      </trkpt>
      <trkpt lat="44.3821520" lon="7.0484110">
        <ele>2364.6</ele>
        <time>2017-07-23T14:11:03Z</time>
      </trkpt>
      <trkpt lat="44.3821570" lon="7.0483460">
        <ele>2364.6</ele>
        <time>2017-07-23T14:11:04Z</time>
      </trkpt>
      <trkpt lat="44.3821550" lon="7.0479570">
        <ele>2365.2</ele>
        <time>2017-07-23T14:11:10Z</time>
      </trkpt>
      <trkpt lat="44.3821650" lon="7.0478890">
        <ele>2365.4</ele>
        <time>2017-07-23T14:11:11Z</time>
      </trkpt>
      <trkpt lat="44.3821850" lon="7.0478240">
        <ele>2365.8</ele>
        <time>2017-07-23T14:11:12Z</time>
      </trkpt>
      <trkpt lat="44.3822250" lon="7.0477080">
        <ele>2366.4</ele>
        <time>2017-07-23T14:11:14Z</time>
      </trkpt>
      <trkpt lat="44.3822470" lon="7.0476500">
        <ele>2366.8</ele>
        <time>2017-07-23T14:11:15Z</time>
      </trkpt>
      <trkpt lat="44.3822830" lon="7.0475310">
        <ele>2367.6</ele>
        <time>2017-07-23T14:11:17Z</time>
      </trkpt>
      <trkpt lat="44.3822790" lon="7.0474040">
        <ele>2368.2</ele>
        <time>2017-07-23T14:11:19Z</time>
      </trkpt>
      <trkpt lat="44.3822530" lon="7.0472670">
        <ele>2369.4</ele>
        <time>2017-07-23T14:11:21Z</time>
      </trkpt>
      <trkpt lat="44.3822460" lon="7.0472020">
        <ele>2369.6</ele>
        <time>2017-07-23T14:11:22Z</time>
      </trkpt>
      <trkpt lat="44.3822400" lon="7.0471380">
        <ele>2370.2</ele>
        <time>2017-07-23T14:11:23Z</time>
      </trkpt>
      <trkpt lat="44.3822340" lon="7.0470050">
        <ele>2370.6</ele>
        <time>2017-07-23T14:11:25Z</time>
      </trkpt>
      <trkpt lat="44.3822350" lon="7.0468710">
        <ele>2371.4</ele>
        <time>2017-07-23T14:11:27Z</time>
      </trkpt>
      <trkpt lat="44.3822380" lon="7.0468050">
        <ele>2371.8</ele>
        <time>2017-07-23T14:11:28Z</time>
      </trkpt>
      <trkpt lat="44.3822390" lon="7.0467400">
        <ele>2372.0</ele>
        <time>2017-07-23T14:11:29Z</time>
      </trkpt>
      <trkpt lat="44.3822380" lon="7.0465290">
        <ele>2373.0</ele>
        <time>2017-07-23T14:11:32Z</time>
      </trkpt>
      <trkpt lat="44.3822580" lon="7.0463800">
        <ele>2373.2</ele>
        <time>2017-07-23T14:11:34Z</time>
      </trkpt>
      <trkpt lat="44.3822700" lon="7.0463060">
        <ele>2374.2</ele>
        <time>2017-07-23T14:11:35Z</time>
      </trkpt>
      <trkpt lat="44.3823180" lon="7.0460950">
        <ele>2375.0</ele>
        <time>2017-07-23T14:11:38Z</time>
      </trkpt>
      <trkpt lat="44.3823420" lon="7.0460300">
        <ele>2375.2</ele>
        <time>2017-07-23T14:11:39Z</time>
      </trkpt>
      <trkpt lat="44.3823830" lon="7.0459820">
        <ele>2375.6</ele>
        <time>2017-07-23T14:11:40Z</time>
      </trkpt>
      <trkpt lat="44.3824680" lon="7.0458930">
        <ele>2376.0</ele>
        <time>2017-07-23T14:11:42Z</time>
      </trkpt>
      <trkpt lat="44.3824940" lon="7.0458380">
        <ele>2375.8</ele>
        <time>2017-07-23T14:11:43Z</time>
      </trkpt>
      <trkpt lat="44.3825150" lon="7.0457810">
        <ele>2375.6</ele>
        <time>2017-07-23T14:11:44Z</time>
      </trkpt>
      <trkpt lat="44.3825810" lon="7.0455480">
        <ele>2375.8</ele>
        <time>2017-07-23T14:11:48Z</time>
      </trkpt>
      <trkpt lat="44.3826050" lon="7.0454220">
        <ele>2375.4</ele>
        <time>2017-07-23T14:11:50Z</time>
      </trkpt>
      <trkpt lat="44.3826830" lon="7.0453830">
        <ele>2375.2</ele>
        <time>2017-07-23T14:11:52Z</time>
      </trkpt>
      <trkpt lat="44.3828260" lon="7.0454450">
        <ele>2374.6</ele>
        <time>2017-07-23T14:11:55Z</time>
      </trkpt>
      <trkpt lat="44.3828670" lon="7.0454500">
        <ele>2374.4</ele>
        <time>2017-07-23T14:11:56Z</time>
      </trkpt>
      <trkpt lat="44.3829090" lon="7.0454190">
        <ele>2374.0</ele>
        <time>2017-07-23T14:11:57Z</time>
      </trkpt>
      <trkpt lat="44.3829460" lon="7.0453740">
        <ele>2373.8</ele>
        <time>2017-07-23T14:11:58Z</time>
      </trkpt>
      <trkpt lat="44.3830610" lon="7.0452750">
        <ele>2373.0</ele>
        <time>2017-07-23T14:12:01Z</time>
      </trkpt>
      <trkpt lat="44.3831820" lon="7.0453170">
        <ele>2372.8</ele>
        <time>2017-07-23T14:12:04Z</time>
      </trkpt>
      <trkpt lat="44.3832840" lon="7.0452270">
        <ele>2372.2</ele>
        <time>2017-07-23T14:12:07Z</time>
      </trkpt>
      <trkpt lat="44.3832880" lon="7.0451020">
        <ele>2372.4</ele>
        <time>2017-07-23T14:12:09Z</time>
      </trkpt>
      <trkpt lat="44.3832940" lon="7.0450380">
        <ele>2372.4</ele>
        <time>2017-07-23T14:12:10Z</time>
      </trkpt>
      <trkpt lat="44.3833930" lon="7.0445940">
        <ele>2372.0</ele>
        <time>2017-07-23T14:12:17Z</time>
      </trkpt>
      <trkpt lat="44.3834890" lon="7.0442980">
        <ele>2372.6</ele>
        <time>2017-07-23T14:12:22Z</time>
      </trkpt>
      <trkpt lat="44.3835120" lon="7.0441630">
        <ele>2372.8</ele>
        <time>2017-07-23T14:12:24Z</time>
      </trkpt>
      <trkpt lat="44.3835690" lon="7.0437680">
        <ele>2373.6</ele>
        <time>2017-07-23T14:12:30Z</time>
      </trkpt>
      <trkpt lat="44.3835770" lon="7.0436390">
        <ele>2373.6</ele>
        <time>2017-07-23T14:12:32Z</time>
      </trkpt>
      <trkpt lat="44.3835940" lon="7.0435820">
        <ele>2373.6</ele>
        <time>2017-07-23T14:12:33Z</time>
      </trkpt>
      <trkpt lat="44.3836380" lon="7.0434770">
        <ele>2373.6</ele>
        <time>2017-07-23T14:12:35Z</time>
      </trkpt>
      <trkpt lat="44.3837320" lon="7.0432000">
        <ele>2373.8</ele>
        <time>2017-07-23T14:12:40Z</time>
      </trkpt>
      <trkpt lat="44.3837470" lon="7.0431390">
        <ele>2374.0</ele>
        <time>2017-07-23T14:12:41Z</time>
      </trkpt>
      <trkpt lat="44.3837630" lon="7.0430790">
        <ele>2373.8</ele>
        <time>2017-07-23T14:12:42Z</time>
      </trkpt>
      <trkpt lat="44.3838120" lon="7.0428930">
        <ele>2373.4</ele>
        <time>2017-07-23T14:12:45Z</time>
      </trkpt>
      <trkpt lat="44.3838510" lon="7.0427840">
        <ele>2373.4</ele>
        <time>2017-07-23T14:12:47Z</time>
      </trkpt>
      <trkpt lat="44.3838820" lon="7.0427420">
        <ele>2373.2</ele>
        <time>2017-07-23T14:12:48Z</time>
      </trkpt>
      <trkpt lat="44.3839580" lon="7.0427190">
        <ele>2373.0</ele>
        <time>2017-07-23T14:12:50Z</time>
      </trkpt>
      <trkpt lat="44.3839950" lon="7.0427340">
        <ele>2372.8</ele>
        <time>2017-07-23T14:12:51Z</time>
      </trkpt>
      <trkpt lat="44.3840750" lon="7.0427670">
        <ele>2372.6</ele>
        <time>2017-07-23T14:12:53Z</time>
      </trkpt>
      <trkpt lat="44.3841140" lon="7.0427900">
        <ele>2372.6</ele>
        <time>2017-07-23T14:12:54Z</time>
      </trkpt>
      <trkpt lat="44.3842450" lon="7.0429590">
        <ele>2373.0</ele>
        <time>2017-07-23T14:12:58Z</time>
      </trkpt>
      <trkpt lat="44.3842680" lon="7.0430130">
        <ele>2373.0</ele>
        <time>2017-07-23T14:12:59Z</time>
      </trkpt>
      <trkpt lat="44.3843040" lon="7.0431820">
        <ele>2373.4</ele>
        <time>2017-07-23T14:13:02Z</time>
      </trkpt>
      <trkpt lat="44.3843050" lon="7.0432620">
        <ele>2373.6</ele>
        <time>2017-07-23T14:13:03Z</time>
      </trkpt>
      <trkpt lat="44.3843250" lon="7.0434110">
        <ele>2373.8</ele>
        <time>2017-07-23T14:13:05Z</time>
      </trkpt>
      <trkpt lat="44.3843230" lon="7.0434890">
        <ele>2374.0</ele>
        <time>2017-07-23T14:13:06Z</time>
      </trkpt>
      <trkpt lat="44.3843200" lon="7.0435580">
        <ele>2374.2</ele>
        <time>2017-07-23T14:13:07Z</time>
      </trkpt>
      <trkpt lat="44.3843310" lon="7.0436940">
        <ele>2374.4</ele>
        <time>2017-07-23T14:13:09Z</time>
      </trkpt>
      <trkpt lat="44.3843920" lon="7.0438080">
        <ele>2375.0</ele>
        <time>2017-07-23T14:13:11Z</time>
      </trkpt>
      <trkpt lat="44.3845870" lon="7.0439540">
        <ele>2374.8</ele>
        <time>2017-07-23T14:13:15Z</time>
      </trkpt>
      <trkpt lat="44.3847300" lon="7.0440000">
        <ele>2374.8</ele>
        <time>2017-07-23T14:13:18Z</time>
      </trkpt>
      <trkpt lat="44.3847730" lon="7.0440030">
        <ele>2374.6</ele>
        <time>2017-07-23T14:13:19Z</time>
      </trkpt>
      <trkpt lat="44.3850690" lon="7.0440150">
        <ele>2374.2</ele>
        <time>2017-07-23T14:13:25Z</time>
      </trkpt>
      <trkpt lat="44.3851150" lon="7.0439940">
        <ele>2374.2</ele>
        <time>2017-07-23T14:13:26Z</time>
      </trkpt>
      <trkpt lat="44.3852140" lon="7.0438640">
        <ele>2374.6</ele>
        <time>2017-07-23T14:13:29Z</time>
      </trkpt>
      <trkpt lat="44.3852500" lon="7.0437690">
        <ele>2375.2</ele>
        <time>2017-07-23T14:13:31Z</time>
      </trkpt>
      <trkpt lat="44.3852760" lon="7.0437270">
        <ele>2375.6</ele>
        <time>2017-07-23T14:13:32Z</time>
      </trkpt>
      <trkpt lat="44.3853170" lon="7.0436380">
        <ele>2376.4</ele>
        <time>2017-07-23T14:13:34Z</time>
      </trkpt>
      <trkpt lat="44.3853610" lon="7.0435570">
        <ele>2377.6</ele>
        <time>2017-07-23T14:13:36Z</time>
      </trkpt>
      <trkpt lat="44.3854250" lon="7.0434300">
        <ele>2378.8</ele>
        <time>2017-07-23T14:13:39Z</time>
      </trkpt>
      <trkpt lat="44.3854500" lon="7.0433860">
        <ele>2379.2</ele>
        <time>2017-07-23T14:13:40Z</time>
      </trkpt>
      <trkpt lat="44.3854970" lon="7.0432940">
        <ele>2380.0</ele>
        <time>2017-07-23T14:13:42Z</time>
      </trkpt>
      <trkpt lat="44.3855580" lon="7.0432050">
        <ele>2380.8</ele>
        <time>2017-07-23T14:13:44Z</time>
      </trkpt>
      <trkpt lat="44.3855970" lon="7.0431710">
        <ele>2381.2</ele>
        <time>2017-07-23T14:13:45Z</time>
      </trkpt>
      <trkpt lat="44.3856430" lon="7.0431460">
        <ele>2381.8</ele>
        <time>2017-07-23T14:13:46Z</time>
      </trkpt>
      <trkpt lat="44.3858520" lon="7.0431570">
        <ele>2382.0</ele>
        <time>2017-07-23T14:13:50Z</time>
      </trkpt>
      <trkpt lat="44.3859100" lon="7.0431720">
        <ele>2382.2</ele>
        <time>2017-07-23T14:13:51Z</time>
      </trkpt>
      <trkpt lat="44.3860380" lon="7.0432020">
        <ele>2382.4</ele>
        <time>2017-07-23T14:13:53Z</time>
      </trkpt>
      <trkpt lat="44.3862390" lon="7.0432400">
        <ele>2382.0</ele>
        <time>2017-07-23T14:13:56Z</time>
      </trkpt>
      <trkpt lat="44.3864280" lon="7.0432920">
        <ele>2381.2</ele>
        <time>2017-07-23T14:13:59Z</time>
      </trkpt>
      <trkpt lat="44.3865370" lon="7.0433450">
        <ele>2379.8</ele>
        <time>2017-07-23T14:14:01Z</time>
      </trkpt>
      <trkpt lat="44.3865880" lon="7.0433730">
        <ele>2379.8</ele>
        <time>2017-07-23T14:14:02Z</time>
      </trkpt>
      <trkpt lat="44.3866840" lon="7.0434170">
        <ele>2381.4</ele>
        <time>2017-07-23T14:14:04Z</time>
      </trkpt>
      <trkpt lat="44.3868260" lon="7.0434550">
        <ele>2381.2</ele>
        <time>2017-07-23T14:14:07Z</time>
      </trkpt>
      <trkpt lat="44.3868790" lon="7.0434400">
        <ele>2381.0</ele>
        <time>2017-07-23T14:14:08Z</time>
      </trkpt>
      <trkpt lat="44.3870390" lon="7.0434550">
        <ele>2380.6</ele>
        <time>2017-07-23T14:14:11Z</time>
      </trkpt>
      <trkpt lat="44.3870930" lon="7.0434680">
        <ele>2380.6</ele>
        <time>2017-07-23T14:14:12Z</time>
      </trkpt>
      <trkpt lat="44.3872590" lon="7.0434820">
        <ele>2380.4</ele>
        <time>2017-07-23T14:14:15Z</time>
      </trkpt>
      <trkpt lat="44.3873650" lon="7.0434300">
        <ele>2380.4</ele>
        <time>2017-07-23T14:14:17Z</time>
      </trkpt>
      <trkpt lat="44.3874460" lon="7.0432260">
        <ele>2379.6</ele>
        <time>2017-07-23T14:14:20Z</time>
      </trkpt>
      <trkpt lat="44.3874810" lon="7.0431610">
        <ele>2379.2</ele>
        <time>2017-07-23T14:14:21Z</time>
      </trkpt>
      <trkpt lat="44.3875740" lon="7.0430890">
        <ele>2378.6</ele>
        <time>2017-07-23T14:14:23Z</time>
      </trkpt>
      <trkpt lat="44.3876260" lon="7.0430790">
        <ele>2378.2</ele>
        <time>2017-07-23T14:14:24Z</time>
      </trkpt>
      <trkpt lat="44.3876810" lon="7.0430630">
        <ele>2378.0</ele>
        <time>2017-07-23T14:14:25Z</time>
      </trkpt>
      <trkpt lat="44.3877910" lon="7.0430300">
        <ele>2377.4</ele>
        <time>2017-07-23T14:14:27Z</time>
      </trkpt>
      <trkpt lat="44.3878460" lon="7.0430110">
        <ele>2377.0</ele>
        <time>2017-07-23T14:14:28Z</time>
      </trkpt>
      <trkpt lat="44.3879560" lon="7.0429860">
        <ele>2375.8</ele>
        <time>2017-07-23T14:14:30Z</time>
      </trkpt>
      <trkpt lat="44.3881060" lon="7.0429650">
        <ele>2374.8</ele>
        <time>2017-07-23T14:14:33Z</time>
      </trkpt>
      <trkpt lat="44.3881560" lon="7.0429580">
        <ele>2374.8</ele>
        <time>2017-07-23T14:14:34Z</time>
      </trkpt>
      <trkpt lat="44.3882640" lon="7.0428250">
        <ele>2374.2</ele>
        <time>2017-07-23T14:14:37Z</time>
      </trkpt>
      <trkpt lat="44.3882700" lon="7.0426230">
        <ele>2374.4</ele>
        <time>2017-07-23T14:14:40Z</time>
      </trkpt>
      <trkpt lat="44.3882540" lon="7.0424550">
        <ele>2374.4</ele>
        <time>2017-07-23T14:14:42Z</time>
      </trkpt>
      <trkpt lat="44.3882170" lon="7.0421790">
        <ele>2374.8</ele>
        <time>2017-07-23T14:14:45Z</time>
      </trkpt>
      <trkpt lat="44.3881930" lon="7.0420910">
        <ele>2375.0</ele>
        <time>2017-07-23T14:14:46Z</time>
      </trkpt>
      <trkpt lat="44.3881010" lon="7.0419780">
        <ele>2375.8</ele>
        <time>2017-07-23T14:14:48Z</time>
      </trkpt>
      <trkpt lat="44.3878280" lon="7.0416480">
        <ele>2376.8</ele>
        <time>2017-07-23T14:14:54Z</time>
      </trkpt>
      <trkpt lat="44.3875300" lon="7.0411460">
        <ele>2377.8</ele>
        <time>2017-07-23T14:15:01Z</time>
      </trkpt>
      <trkpt lat="44.3874340" lon="7.0410040">
        <ele>2377.6</ele>
        <time>2017-07-23T14:15:03Z</time>
      </trkpt>
      <trkpt lat="44.3872770" lon="7.0408370">
        <ele>2377.8</ele>
        <time>2017-07-23T14:15:06Z</time>
      </trkpt>
      <trkpt lat="44.3872260" lon="7.0407880">
        <ele>2377.8</ele>
        <time>2017-07-23T14:15:07Z</time>
      </trkpt>
      <trkpt lat="44.3869650" lon="7.0405760">
        <ele>2378.0</ele>
        <time>2017-07-23T14:15:12Z</time>
      </trkpt>
      <trkpt lat="44.3867090" lon="7.0403130">
        <ele>2377.4</ele>
        <time>2017-07-23T14:15:17Z</time>
      </trkpt>
      <trkpt lat="44.3866490" lon="7.0402700">
        <ele>2377.2</ele>
        <time>2017-07-23T14:15:18Z</time>
      </trkpt>
      <trkpt lat="44.3865280" lon="7.0401820">
        <ele>2376.8</ele>
        <time>2017-07-23T14:15:20Z</time>
      </trkpt>
      <trkpt lat="44.3863640" lon="7.0400000">
        <ele>2375.6</ele>
        <time>2017-07-23T14:15:23Z</time>
      </trkpt>
      <trkpt lat="44.3863150" lon="7.0399320">
        <ele>2375.4</ele>
        <time>2017-07-23T14:15:24Z</time>
      </trkpt>
      <trkpt lat="44.3861030" lon="7.0396890">
        <ele>2374.2</ele>
        <time>2017-07-23T14:15:28Z</time>
      </trkpt>
      <trkpt lat="44.3859810" lon="7.0395990">
        <ele>2373.6</ele>
        <time>2017-07-23T14:15:30Z</time>
      </trkpt>
      <trkpt lat="44.3858650" lon="7.0394800">
        <ele>2373.0</ele>
        <time>2017-07-23T14:15:32Z</time>
      </trkpt>
      <trkpt lat="44.3857510" lon="7.0393400">
        <ele>2372.0</ele>
        <time>2017-07-23T14:15:34Z</time>
      </trkpt>
      <trkpt lat="44.3856890" lon="7.0392710">
        <ele>2371.6</ele>
        <time>2017-07-23T14:15:35Z</time>
      </trkpt>
      <trkpt lat="44.3856300" lon="7.0391960">
        <ele>2371.2</ele>
        <time>2017-07-23T14:15:36Z</time>
      </trkpt>
      <trkpt lat="44.3855260" lon="7.0390280">
        <ele>2370.0</ele>
        <time>2017-07-23T14:15:38Z</time>
      </trkpt>
      <trkpt lat="44.3854790" lon="7.0389370">
        <ele>2369.4</ele>
        <time>2017-07-23T14:15:39Z</time>
      </trkpt>
      <trkpt lat="44.3854290" lon="7.0388450">
        <ele>2369.0</ele>
        <time>2017-07-23T14:15:40Z</time>
      </trkpt>
      <trkpt lat="44.3852890" lon="7.0385440">
        <ele>2367.8</ele>
        <time>2017-07-23T14:15:43Z</time>
      </trkpt>
      <trkpt lat="44.3852020" lon="7.0383520">
        <ele>2366.6</ele>
        <time>2017-07-23T14:15:45Z</time>
      </trkpt>
      <trkpt lat="44.3849900" lon="7.0381680">
        <ele>2365.2</ele>
        <time>2017-07-23T14:15:48Z</time>
      </trkpt>
      <trkpt lat="44.3849230" lon="7.0380940">
        <ele>2365.0</ele>
        <time>2017-07-23T14:15:49Z</time>
      </trkpt>
      <trkpt lat="44.3848740" lon="7.0380050">
        <ele>2364.2</ele>
        <time>2017-07-23T14:15:50Z</time>
      </trkpt>
      <trkpt lat="44.3848550" lon="7.0379010">
        <ele>2363.4</ele>
        <time>2017-07-23T14:15:51Z</time>
      </trkpt>
      <trkpt lat="44.3848660" lon="7.0377990">
        <ele>2362.8</ele>
        <time>2017-07-23T14:15:52Z</time>
      </trkpt>
      <trkpt lat="44.3848940" lon="7.0376940">
        <ele>2362.4</ele>
        <time>2017-07-23T14:15:53Z</time>
      </trkpt>
      <trkpt lat="44.3849530" lon="7.0375250">
        <ele>2361.4</ele>
        <time>2017-07-23T14:15:55Z</time>
      </trkpt>
      <trkpt lat="44.3849960" lon="7.0374500">
        <ele>2361.2</ele>
        <time>2017-07-23T14:15:56Z</time>
      </trkpt>
      <trkpt lat="44.3850100" lon="7.0373690">
        <ele>2360.8</ele>
        <time>2017-07-23T14:15:57Z</time>
      </trkpt>
      <trkpt lat="44.3850230" lon="7.0372840">
        <ele>2360.2</ele>
        <time>2017-07-23T14:15:58Z</time>
      </trkpt>
      <trkpt lat="44.3850180" lon="7.0371040">
        <ele>2359.0</ele>
        <time>2017-07-23T14:16:00Z</time>
      </trkpt>
      <trkpt lat="44.3849750" lon="7.0370250">
        <ele>2358.2</ele>
        <time>2017-07-23T14:16:01Z</time>
      </trkpt>
      <trkpt lat="44.3849330" lon="7.0369620">
        <ele>2357.8</ele>
        <time>2017-07-23T14:16:02Z</time>
      </trkpt>
      <trkpt lat="44.3849000" lon="7.0367870">
        <ele>2356.6</ele>
        <time>2017-07-23T14:16:04Z</time>
      </trkpt>
      <trkpt lat="44.3849290" lon="7.0366140">
        <ele>2355.4</ele>
        <time>2017-07-23T14:16:06Z</time>
      </trkpt>
      <trkpt lat="44.3849620" lon="7.0365480">
        <ele>2354.8</ele>
        <time>2017-07-23T14:16:07Z</time>
      </trkpt>
      <trkpt lat="44.3849660" lon="7.0364700">
        <ele>2354.2</ele>
        <time>2017-07-23T14:16:08Z</time>
      </trkpt>
      <trkpt lat="44.3849400" lon="7.0363910">
        <ele>2354.0</ele>
        <time>2017-07-23T14:16:09Z</time>
      </trkpt>
      <trkpt lat="44.3848670" lon="7.0362290">
        <ele>2353.2</ele>
        <time>2017-07-23T14:16:11Z</time>
      </trkpt>
      <trkpt lat="44.3848620" lon="7.0361370">
        <ele>2352.4</ele>
        <time>2017-07-23T14:16:12Z</time>
      </trkpt>
      <trkpt lat="44.3848630" lon="7.0360360">
        <ele>2352.2</ele>
        <time>2017-07-23T14:16:13Z</time>
      </trkpt>
      <trkpt lat="44.3848940" lon="7.0358610">
        <ele>2351.4</ele>
        <time>2017-07-23T14:16:15Z</time>
      </trkpt>
      <trkpt lat="44.3849390" lon="7.0357940">
        <ele>2351.0</ele>
        <time>2017-07-23T14:16:16Z</time>
      </trkpt>
      <trkpt lat="44.3850330" lon="7.0356510">
        <ele>2350.0</ele>
        <time>2017-07-23T14:16:18Z</time>
      </trkpt>
      <trkpt lat="44.3850820" lon="7.0355730">
        <ele>2349.4</ele>
        <time>2017-07-23T14:16:19Z</time>
      </trkpt>
      <trkpt lat="44.3852450" lon="7.0354840">
        <ele>2348.8</ele>
        <time>2017-07-23T14:16:21Z</time>
      </trkpt>
      <trkpt lat="44.3853230" lon="7.0354270">
        <ele>2348.4</ele>
        <time>2017-07-23T14:16:22Z</time>
      </trkpt>
      <trkpt lat="44.3854630" lon="7.0352880">
        <ele>2346.6</ele>
        <time>2017-07-23T14:16:24Z</time>
      </trkpt>
      <trkpt lat="44.3855930" lon="7.0351330">
        <ele>2345.6</ele>
        <time>2017-07-23T14:16:26Z</time>
      </trkpt>
      <trkpt lat="44.3856520" lon="7.0350400">
        <ele>2344.8</ele>
        <time>2017-07-23T14:16:27Z</time>
      </trkpt>
      <trkpt lat="44.3857080" lon="7.0349410">
        <ele>2343.8</ele>
        <time>2017-07-23T14:16:28Z</time>
      </trkpt>
      <trkpt lat="44.3858220" lon="7.0347220">
        <ele>2342.0</ele>
        <time>2017-07-23T14:16:30Z</time>
      </trkpt>
      <trkpt lat="44.3858910" lon="7.0346270">
        <ele>2341.2</ele>
        <time>2017-07-23T14:16:31Z</time>
      </trkpt>
      <trkpt lat="44.3859520" lon="7.0345290">
        <ele>2340.0</ele>
        <time>2017-07-23T14:16:32Z</time>
      </trkpt>
      <trkpt lat="44.3860640" lon="7.0343390">
        <ele>2338.2</ele>
        <time>2017-07-23T14:16:34Z</time>
      </trkpt>
      <trkpt lat="44.3861710" lon="7.0341680">
        <ele>2336.8</ele>
        <time>2017-07-23T14:16:36Z</time>
      </trkpt>
      <trkpt lat="44.3861870" lon="7.0340710">
        <ele>2336.2</ele>
        <time>2017-07-23T14:16:37Z</time>
      </trkpt>
      <trkpt lat="44.3861820" lon="7.0339710">
        <ele>2335.6</ele>
        <time>2017-07-23T14:16:38Z</time>
      </trkpt>
      <trkpt lat="44.3861530" lon="7.0338700">
        <ele>2335.2</ele>
        <time>2017-07-23T14:16:39Z</time>
      </trkpt>
      <trkpt lat="44.3860780" lon="7.0336640">
        <ele>2334.0</ele>
        <time>2017-07-23T14:16:41Z</time>
      </trkpt>
      <trkpt lat="44.3860100" lon="7.0334300">
        <ele>2332.6</ele>
        <time>2017-07-23T14:16:43Z</time>
      </trkpt>
      <trkpt lat="44.3859930" lon="7.0331650">
        <ele>2331.2</ele>
        <time>2017-07-23T14:16:45Z</time>
      </trkpt>
      <trkpt lat="44.3859950" lon="7.0330380">
        <ele>2331.2</ele>
        <time>2017-07-23T14:16:46Z</time>
      </trkpt>
      <trkpt lat="44.3860260" lon="7.0327820">
        <ele>2329.4</ele>
        <time>2017-07-23T14:16:48Z</time>
      </trkpt>
      <trkpt lat="44.3860590" lon="7.0326580">
        <ele>2328.8</ele>
        <time>2017-07-23T14:16:49Z</time>
      </trkpt>
      <trkpt lat="44.3861010" lon="7.0325420">
        <ele>2328.0</ele>
        <time>2017-07-23T14:16:50Z</time>
      </trkpt>
      <trkpt lat="44.3862140" lon="7.0323740">
        <ele>2326.4</ele>
        <time>2017-07-23T14:16:52Z</time>
      </trkpt>
      <trkpt lat="44.3862490" lon="7.0322740">
        <ele>2325.8</ele>
        <time>2017-07-23T14:16:53Z</time>
      </trkpt>
      <trkpt lat="44.3862720" lon="7.0321700">
        <ele>2325.2</ele>
        <time>2017-07-23T14:16:54Z</time>
      </trkpt>
      <trkpt lat="44.3863310" lon="7.0319460">
        <ele>2323.8</ele>
        <time>2017-07-23T14:16:56Z</time>
      </trkpt>
      <trkpt lat="44.3863840" lon="7.0317150">
        <ele>2322.6</ele>
        <time>2017-07-23T14:16:58Z</time>
      </trkpt>
      <trkpt lat="44.3864150" lon="7.0315100">
        <ele>2321.2</ele>
        <time>2017-07-23T14:17:00Z</time>
      </trkpt>
      <trkpt lat="44.3864090" lon="7.0314190">
        <ele>2320.4</ele>
        <time>2017-07-23T14:17:01Z</time>
      </trkpt>
      <trkpt lat="44.3863880" lon="7.0313330">
        <ele>2319.6</ele>
        <time>2017-07-23T14:17:02Z</time>
      </trkpt>
      <trkpt lat="44.3863590" lon="7.0312430">
        <ele>2319.0</ele>
        <time>2017-07-23T14:17:03Z</time>
      </trkpt>
      <trkpt lat="44.3863300" lon="7.0311630">
        <ele>2318.4</ele>
        <time>2017-07-23T14:17:04Z</time>
      </trkpt>
      <trkpt lat="44.3862410" lon="7.0310140">
        <ele>2317.0</ele>
        <time>2017-07-23T14:17:06Z</time>
      </trkpt>
      <trkpt lat="44.3861910" lon="7.0309400">
        <ele>2316.6</ele>
        <time>2017-07-23T14:17:07Z</time>
      </trkpt>
      <trkpt lat="44.3860790" lon="7.0307800">
        <ele>2316.0</ele>
        <time>2017-07-23T14:17:09Z</time>
      </trkpt>
      <trkpt lat="44.3859080" lon="7.0305350">
        <ele>2314.0</ele>
        <time>2017-07-23T14:17:12Z</time>
      </trkpt>
      <trkpt lat="44.3857290" lon="7.0303240">
        <ele>2312.6</ele>
        <time>2017-07-23T14:17:15Z</time>
      </trkpt>
      <trkpt lat="44.3856870" lon="7.0302360">
        <ele>2312.2</ele>
        <time>2017-07-23T14:17:16Z</time>
      </trkpt>
      <trkpt lat="44.3856460" lon="7.0300480">
        <ele>2311.4</ele>
        <time>2017-07-23T14:17:18Z</time>
      </trkpt>
      <trkpt lat="44.3856410" lon="7.0299600">
        <ele>2311.2</ele>
        <time>2017-07-23T14:17:19Z</time>
      </trkpt>
      <trkpt lat="44.3856900" lon="7.0298330">
        <ele>2310.6</ele>
        <time>2017-07-23T14:17:21Z</time>
      </trkpt>
      <trkpt lat="44.3857390" lon="7.0297910">
        <ele>2310.4</ele>
        <time>2017-07-23T14:17:22Z</time>
      </trkpt>
      <trkpt lat="44.3858590" lon="7.0297470">
        <ele>2310.2</ele>
        <time>2017-07-23T14:17:24Z</time>
      </trkpt>
      <trkpt lat="44.3859190" lon="7.0297350">
        <ele>2309.8</ele>
        <time>2017-07-23T14:17:25Z</time>
      </trkpt>
      <trkpt lat="44.3860340" lon="7.0297000">
        <ele>2309.4</ele>
        <time>2017-07-23T14:17:27Z</time>
      </trkpt>
      <trkpt lat="44.3861000" lon="7.0296920">
        <ele>2309.4</ele>
        <time>2017-07-23T14:17:28Z</time>
      </trkpt>
      <trkpt lat="44.3861640" lon="7.0296750">
        <ele>2309.2</ele>
        <time>2017-07-23T14:17:29Z</time>
      </trkpt>
      <trkpt lat="44.3863550" lon="7.0295710">
        <ele>2308.8</ele>
        <time>2017-07-23T14:17:32Z</time>
      </trkpt>
      <trkpt lat="44.3864070" lon="7.0295130">
        <ele>2308.8</ele>
        <time>2017-07-23T14:17:33Z</time>
      </trkpt>
      <trkpt lat="44.3864680" lon="7.0293640">
        <ele>2308.4</ele>
        <time>2017-07-23T14:17:35Z</time>
      </trkpt>
      <trkpt lat="44.3864830" lon="7.0292820">
        <ele>2308.0</ele>
        <time>2017-07-23T14:17:36Z</time>
      </trkpt>
      <trkpt lat="44.3865020" lon="7.0291990">
        <ele>2307.8</ele>
        <time>2017-07-23T14:17:37Z</time>
      </trkpt>
      <trkpt lat="44.3865610" lon="7.0290390">
        <ele>2307.6</ele>
        <time>2017-07-23T14:17:39Z</time>
      </trkpt>
      <trkpt lat="44.3866500" lon="7.0289510">
        <ele>2307.6</ele>
        <time>2017-07-23T14:17:41Z</time>
      </trkpt>
      <trkpt lat="44.3867060" lon="7.0289310">
        <ele>2307.2</ele>
        <time>2017-07-23T14:17:42Z</time>
      </trkpt>
      <trkpt lat="44.3868100" lon="7.0289230">
        <ele>2307.0</ele>
        <time>2017-07-23T14:17:44Z</time>
      </trkpt>
      <trkpt lat="44.3868570" lon="7.0289280">
        <ele>2307.2</ele>
        <time>2017-07-23T14:17:45Z</time>
      </trkpt>
      <trkpt lat="44.3869830" lon="7.0289170">
        <ele>2307.0</ele>
        <time>2017-07-23T14:17:48Z</time>
      </trkpt>
      <trkpt lat="44.3870260" lon="7.0289070">
        <ele>2307.0</ele>
        <time>2017-07-23T14:17:49Z</time>
      </trkpt>
      <trkpt lat="44.3871470" lon="7.0288500">
        <ele>2307.0</ele>
        <time>2017-07-23T14:17:52Z</time>
      </trkpt>
      <trkpt lat="44.3872260" lon="7.0288060">
        <ele>2306.8</ele>
        <time>2017-07-23T14:17:54Z</time>
      </trkpt>
      <trkpt lat="44.3873330" lon="7.0287260">
        <ele>2307.0</ele>
        <time>2017-07-23T14:17:57Z</time>
      </trkpt>
      <trkpt lat="44.3874420" lon="7.0286360">
        <ele>2307.0</ele>
        <time>2017-07-23T14:18:00Z</time>
      </trkpt>
      <trkpt lat="44.3875900" lon="7.0285170">
        <ele>2307.4</ele>
        <time>2017-07-23T14:18:04Z</time>
      </trkpt>
      <trkpt lat="44.3876640" lon="7.0284720">
        <ele>2307.4</ele>
        <time>2017-07-23T14:18:06Z</time>
      </trkpt>
      <trkpt lat="44.3878530" lon="7.0284060">
        <ele>2307.6</ele>
        <time>2017-07-23T14:18:11Z</time>
      </trkpt>
      <trkpt lat="44.3878910" lon="7.0283900">
        <ele>2307.6</ele>
        <time>2017-07-23T14:18:12Z</time>
      </trkpt>
      <trkpt lat="44.3880030" lon="7.0283570">
        <ele>2307.2</ele>
        <time>2017-07-23T14:18:15Z</time>
      </trkpt>
      <trkpt lat="44.3880830" lon="7.0283580">
        <ele>2307.4</ele>
        <time>2017-07-23T14:18:17Z</time>
      </trkpt>
      <trkpt lat="44.3881220" lon="7.0283790">
        <ele>2307.6</ele>
        <time>2017-07-23T14:18:18Z</time>
      </trkpt>
      <trkpt lat="44.3883480" lon="7.0284760">
        <ele>2307.6</ele>
        <time>2017-07-23T14:18:24Z</time>
      </trkpt>
      <trkpt lat="44.3884270" lon="7.0284820">
        <ele>2307.6</ele>
        <time>2017-07-23T14:18:26Z</time>
      </trkpt>
      <trkpt lat="44.3885270" lon="7.0283770">
        <ele>2307.4</ele>
        <time>2017-07-23T14:18:29Z</time>
      </trkpt>
      <trkpt lat="44.3885530" lon="7.0283270">
        <ele>2307.6</ele>
        <time>2017-07-23T14:18:30Z</time>
      </trkpt>
      <trkpt lat="44.3886120" lon="7.0282360">
        <ele>2307.6</ele>
        <time>2017-07-23T14:18:32Z</time>
      </trkpt>
      <trkpt lat="44.3887300" lon="7.0281570">
        <ele>2307.0</ele>
        <time>2017-07-23T14:18:35Z</time>
      </trkpt>
      <trkpt lat="44.3887720" lon="7.0281290">
        <ele>2307.0</ele>
        <time>2017-07-23T14:18:36Z</time>
      </trkpt>
      <trkpt lat="44.3888540" lon="7.0280550">
        <ele>2306.8</ele>
        <time>2017-07-23T14:18:38Z</time>
      </trkpt>
      <trkpt lat="44.3889210" lon="7.0279490">
        <ele>2306.6</ele>
        <time>2017-07-23T14:18:40Z</time>
      </trkpt>
      <trkpt lat="44.3889920" lon="7.0278290">
        <ele>2307.0</ele>
        <time>2017-07-23T14:18:42Z</time>
      </trkpt>
      <trkpt lat="44.3890880" lon="7.0278050">
        <ele>2306.8</ele>
        <time>2017-07-23T14:18:44Z</time>
      </trkpt>
      <trkpt lat="44.3892340" lon="7.0278260">
        <ele>2306.6</ele>
        <time>2017-07-23T14:18:47Z</time>
      </trkpt>
      <trkpt lat="44.3892850" lon="7.0278310">
        <ele>2306.6</ele>
        <time>2017-07-23T14:18:48Z</time>
      </trkpt>
      <trkpt lat="44.3893350" lon="7.0278490">
        <ele>2306.6</ele>
        <time>2017-07-23T14:18:49Z</time>
      </trkpt>
      <trkpt lat="44.3895350" lon="7.0279490">
        <ele>2306.2</ele>
        <time>2017-07-23T14:18:53Z</time>
      </trkpt>
      <trkpt lat="44.3897970" lon="7.0280450">
        <ele>2305.8</ele>
        <time>2017-07-23T14:18:58Z</time>
      </trkpt>
      <trkpt lat="44.3899040" lon="7.0280690">
        <ele>2305.6</ele>
        <time>2017-07-23T14:19:00Z</time>
      </trkpt>
      <trkpt lat="44.3900770" lon="7.0280800">
        <ele>2305.6</ele>
        <time>2017-07-23T14:19:03Z</time>
      </trkpt>
      <trkpt lat="44.3901810" lon="7.0280580">
        <ele>2305.6</ele>
        <time>2017-07-23T14:19:05Z</time>
      </trkpt>
      <trkpt lat="44.3902210" lon="7.0280250">
        <ele>2305.4</ele>
        <time>2017-07-23T14:19:06Z</time>
      </trkpt>
      <trkpt lat="44.3902570" lon="7.0279670">
        <ele>2305.0</ele>
        <time>2017-07-23T14:19:07Z</time>
      </trkpt>
      <trkpt lat="44.3903380" lon="7.0278500">
        <ele>2304.4</ele>
        <time>2017-07-23T14:19:09Z</time>
      </trkpt>
      <trkpt lat="44.3903790" lon="7.0277980">
        <ele>2304.0</ele>
        <time>2017-07-23T14:19:10Z</time>
      </trkpt>
      <trkpt lat="44.3904640" lon="7.0277040">
        <ele>2302.6</ele>
        <time>2017-07-23T14:19:12Z</time>
      </trkpt>
      <trkpt lat="44.3905680" lon="7.0276230">
        <ele>2301.6</ele>
        <time>2017-07-23T14:19:14Z</time>
      </trkpt>
      <trkpt lat="44.3906190" lon="7.0275870">
        <ele>2301.2</ele>
        <time>2017-07-23T14:19:15Z</time>
      </trkpt>
      <trkpt lat="44.3907210" lon="7.0275200">
        <ele>2300.2</ele>
        <time>2017-07-23T14:19:17Z</time>
      </trkpt>
      <trkpt lat="44.3908300" lon="7.0274680">
        <ele>2299.2</ele>
        <time>2017-07-23T14:19:19Z</time>
      </trkpt>
      <trkpt lat="44.3908800" lon="7.0274440">
        <ele>2298.8</ele>
        <time>2017-07-23T14:19:20Z</time>
      </trkpt>
      <trkpt lat="44.3909290" lon="7.0274150">
        <ele>2298.2</ele>
        <time>2017-07-23T14:19:21Z</time>
      </trkpt>
      <trkpt lat="44.3909740" lon="7.0273780">
        <ele>2297.8</ele>
        <time>2017-07-23T14:19:22Z</time>
      </trkpt>
      <trkpt lat="44.3910070" lon="7.0273260">
        <ele>2297.6</ele>
        <time>2017-07-23T14:19:23Z</time>
      </trkpt>
      <trkpt lat="44.3910290" lon="7.0271950">
        <ele>2296.8</ele>
        <time>2017-07-23T14:19:25Z</time>
      </trkpt>
      <trkpt lat="44.3910280" lon="7.0271210">
        <ele>2296.4</ele>
        <time>2017-07-23T14:19:26Z</time>
      </trkpt>
      <trkpt lat="44.3910750" lon="7.0269190">
        <ele>2295.6</ele>
        <time>2017-07-23T14:19:29Z</time>
      </trkpt>
      <trkpt lat="44.3911070" lon="7.0268580">
        <ele>2295.4</ele>
        <time>2017-07-23T14:19:30Z</time>
      </trkpt>
      <trkpt lat="44.3912270" lon="7.0267050">
        <ele>2294.4</ele>
        <time>2017-07-23T14:19:33Z</time>
      </trkpt>
      <trkpt lat="44.3912670" lon="7.0266530">
        <ele>2294.2</ele>
        <time>2017-07-23T14:19:34Z</time>
      </trkpt>
      <trkpt lat="44.3913290" lon="7.0265350">
        <ele>2293.4</ele>
        <time>2017-07-23T14:19:36Z</time>
      </trkpt>
      <trkpt lat="44.3913650" lon="7.0264780">
        <ele>2293.2</ele>
        <time>2017-07-23T14:19:37Z</time>
      </trkpt>
      <trkpt lat="44.3913960" lon="7.0264130">
        <ele>2293.0</ele>
        <time>2017-07-23T14:19:38Z</time>
      </trkpt>
      <trkpt lat="44.3915490" lon="7.0262130">
        <ele>2292.8</ele>
        <time>2017-07-23T14:19:42Z</time>
      </trkpt>
      <trkpt lat="44.3917080" lon="7.0262770">
        <ele>2292.6</ele>
        <time>2017-07-23T14:19:45Z</time>
      </trkpt>
      <trkpt lat="44.3917540" lon="7.0263020">
        <ele>2292.8</ele>
        <time>2017-07-23T14:19:46Z</time>
      </trkpt>
      <trkpt lat="44.3918040" lon="7.0263080">
        <ele>2292.6</ele>
        <time>2017-07-23T14:19:47Z</time>
      </trkpt>
      <trkpt lat="44.3919080" lon="7.0262790">
        <ele>2292.6</ele>
        <time>2017-07-23T14:19:49Z</time>
      </trkpt>
      <trkpt lat="44.3920460" lon="7.0261420">
        <ele>2292.4</ele>
        <time>2017-07-23T14:19:52Z</time>
      </trkpt>
      <trkpt lat="44.3920920" lon="7.0260880">
        <ele>2292.4</ele>
        <time>2017-07-23T14:19:53Z</time>
      </trkpt>
      <trkpt lat="44.3921420" lon="7.0260420">
        <ele>2292.6</ele>
        <time>2017-07-23T14:19:54Z</time>
      </trkpt>
      <trkpt lat="44.3923610" lon="7.0258170">
        <ele>2292.6</ele>
        <time>2017-07-23T14:19:59Z</time>
      </trkpt>
      <trkpt lat="44.3923860" lon="7.0255930">
        <ele>2292.4</ele>
        <time>2017-07-23T14:20:02Z</time>
      </trkpt>
      <trkpt lat="44.3924110" lon="7.0255130">
        <ele>2292.4</ele>
        <time>2017-07-23T14:20:03Z</time>
      </trkpt>
      <trkpt lat="44.3924810" lon="7.0253890">
        <ele>2292.4</ele>
        <time>2017-07-23T14:20:05Z</time>
      </trkpt>
      <trkpt lat="44.3925960" lon="7.0252080">
        <ele>2292.4</ele>
        <time>2017-07-23T14:20:08Z</time>
      </trkpt>
      <trkpt lat="44.3926280" lon="7.0251320">
        <ele>2292.2</ele>
        <time>2017-07-23T14:20:09Z</time>
      </trkpt>
      <trkpt lat="44.3926580" lon="7.0250500">
        <ele>2292.2</ele>
        <time>2017-07-23T14:20:10Z</time>
      </trkpt>
      <trkpt lat="44.3926830" lon="7.0249680">
        <ele>2291.8</ele>
        <time>2017-07-23T14:20:11Z</time>
      </trkpt>
      <trkpt lat="44.3927860" lon="7.0246320">
        <ele>2291.2</ele>
        <time>2017-07-23T14:20:15Z</time>
      </trkpt>
      <trkpt lat="44.3928180" lon="7.0245580">
        <ele>2291.2</ele>
        <time>2017-07-23T14:20:16Z</time>
      </trkpt>
      <trkpt lat="44.3928870" lon="7.0244090">
        <ele>2290.8</ele>
        <time>2017-07-23T14:20:18Z</time>
      </trkpt>
      <trkpt lat="44.3930230" lon="7.0241690">
        <ele>2290.8</ele>
        <time>2017-07-23T14:20:22Z</time>
      </trkpt>
      <trkpt lat="44.3930680" lon="7.0241450">
        <ele>2290.8</ele>
        <time>2017-07-23T14:20:23Z</time>
      </trkpt>
      <trkpt lat="44.3931640" lon="7.0242010">
        <ele>2291.2</ele>
        <time>2017-07-23T14:20:25Z</time>
      </trkpt>
      <trkpt lat="44.3932640" lon="7.0243650">
        <ele>2291.8</ele>
        <time>2017-07-23T14:20:28Z</time>
      </trkpt>
      <trkpt lat="44.3934000" lon="7.0242970">
        <ele>2291.8</ele>
        <time>2017-07-23T14:20:31Z</time>
      </trkpt>
      <trkpt lat="44.3935140" lon="7.0240430">
        <ele>2291.8</ele>
        <time>2017-07-23T14:20:35Z</time>
      </trkpt>
      <trkpt lat="44.3935300" lon="7.0239630">
        <ele>2291.6</ele>
        <time>2017-07-23T14:20:36Z</time>
      </trkpt>
      <trkpt lat="44.3936460" lon="7.0238020">
        <ele>2291.6</ele>
        <time>2017-07-23T14:20:39Z</time>
      </trkpt>
      <trkpt lat="44.3937980" lon="7.0237760">
        <ele>2291.2</ele>
        <time>2017-07-23T14:20:42Z</time>
      </trkpt>
      <trkpt lat="44.3939050" lon="7.0237430">
        <ele>2291.2</ele>
        <time>2017-07-23T14:20:44Z</time>
      </trkpt>
      <trkpt lat="44.3940080" lon="7.0237050">
        <ele>2291.2</ele>
        <time>2017-07-23T14:20:46Z</time>
      </trkpt>
      <trkpt lat="44.3940500" lon="7.0236510">
        <ele>2291.0</ele>
        <time>2017-07-23T14:20:47Z</time>
      </trkpt>
      <trkpt lat="44.3941130" lon="7.0234400">
        <ele>2291.0</ele>
        <time>2017-07-23T14:20:50Z</time>
      </trkpt>
      <trkpt lat="44.3941430" lon="7.0233720">
        <ele>2291.0</ele>
        <time>2017-07-23T14:20:51Z</time>
      </trkpt>
      <trkpt lat="44.3942450" lon="7.0232960">
        <ele>2291.2</ele>
        <time>2017-07-23T14:20:53Z</time>
      </trkpt>
      <trkpt lat="44.3944160" lon="7.0233050">
        <ele>2291.4</ele>
        <time>2017-07-23T14:20:56Z</time>
      </trkpt>
      <trkpt lat="44.3945320" lon="7.0233330">
        <ele>2291.2</ele>
        <time>2017-07-23T14:20:58Z</time>
      </trkpt>
      <trkpt lat="44.3947690" lon="7.0233900">
        <ele>2291.0</ele>
        <time>2017-07-23T14:21:02Z</time>
      </trkpt>
      <trkpt lat="44.3948340" lon="7.0233990">
        <ele>2290.6</ele>
        <time>2017-07-23T14:21:03Z</time>
      </trkpt>
      <trkpt lat="44.3951510" lon="7.0234830">
        <ele>2290.2</ele>
        <time>2017-07-23T14:21:08Z</time>
      </trkpt>
      <trkpt lat="44.3954640" lon="7.0235250">
        <ele>2289.4</ele>
        <time>2017-07-23T14:21:13Z</time>
      </trkpt>
      <trkpt lat="44.3955280" lon="7.0235150">
        <ele>2289.4</ele>
        <time>2017-07-23T14:21:14Z</time>
      </trkpt>
      <trkpt lat="44.3957740" lon="7.0234520">
        <ele>2288.2</ele>
        <time>2017-07-23T14:21:18Z</time>
      </trkpt>
      <trkpt lat="44.3958290" lon="7.0233880">
        <ele>2287.8</ele>
        <time>2017-07-23T14:21:19Z</time>
      </trkpt>
      <trkpt lat="44.3960060" lon="7.0231350">
        <ele>2287.4</ele>
        <time>2017-07-23T14:21:23Z</time>
      </trkpt>
      <trkpt lat="44.3960640" lon="7.0231440">
        <ele>2287.0</ele>
        <time>2017-07-23T14:21:24Z</time>
      </trkpt>
      <trkpt lat="44.3961180" lon="7.0231590">
        <ele>2286.8</ele>
        <time>2017-07-23T14:21:25Z</time>
      </trkpt>
      <trkpt lat="44.3961760" lon="7.0231750">
        <ele>2286.8</ele>
        <time>2017-07-23T14:21:26Z</time>
      </trkpt>
      <trkpt lat="44.3962340" lon="7.0231550">
        <ele>2286.8</ele>
        <time>2017-07-23T14:21:27Z</time>
      </trkpt>
      <trkpt lat="44.3963470" lon="7.0230970">
        <ele>2286.2</ele>
        <time>2017-07-23T14:21:29Z</time>
      </trkpt>
      <trkpt lat="44.3964470" lon="7.0230020">
        <ele>2285.8</ele>
        <time>2017-07-23T14:21:31Z</time>
      </trkpt>
      <trkpt lat="44.3965490" lon="7.0228590">
        <ele>2285.0</ele>
        <time>2017-07-23T14:21:33Z</time>
      </trkpt>
      <trkpt lat="44.3966820" lon="7.0228040">
        <ele>2284.8</ele>
        <time>2017-07-23T14:21:35Z</time>
      </trkpt>
      <trkpt lat="44.3967460" lon="7.0227670">
        <ele>2283.8</ele>
        <time>2017-07-23T14:21:36Z</time>
      </trkpt>
      <trkpt lat="44.3968060" lon="7.0227120">
        <ele>2283.2</ele>
        <time>2017-07-23T14:21:37Z</time>
      </trkpt>
      <trkpt lat="44.3969670" lon="7.0225160">
        <ele>2282.4</ele>
        <time>2017-07-23T14:21:40Z</time>
      </trkpt>
      <trkpt lat="44.3970780" lon="7.0224000">
        <ele>2281.8</ele>
        <time>2017-07-23T14:21:42Z</time>
      </trkpt>
      <trkpt lat="44.3971420" lon="7.0223580">
        <ele>2281.6</ele>
        <time>2017-07-23T14:21:43Z</time>
      </trkpt>
      <trkpt lat="44.3972860" lon="7.0223050">
        <ele>2280.8</ele>
        <time>2017-07-23T14:21:45Z</time>
      </trkpt>
      <trkpt lat="44.3975150" lon="7.0222320">
        <ele>2279.6</ele>
        <time>2017-07-23T14:21:48Z</time>
      </trkpt>
      <trkpt lat="44.3976580" lon="7.0221950">
        <ele>2278.4</ele>
        <time>2017-07-23T14:21:50Z</time>
      </trkpt>
      <trkpt lat="44.3977220" lon="7.0221760">
        <ele>2277.8</ele>
        <time>2017-07-23T14:21:51Z</time>
      </trkpt>
      <trkpt lat="44.3977740" lon="7.0221280">
        <ele>2277.4</ele>
        <time>2017-07-23T14:21:52Z</time>
      </trkpt>
      <trkpt lat="44.3977920" lon="7.0220420">
        <ele>2276.8</ele>
        <time>2017-07-23T14:21:53Z</time>
      </trkpt>
      <trkpt lat="44.3977960" lon="7.0218200">
        <ele>2276.2</ele>
        <time>2017-07-23T14:21:55Z</time>
      </trkpt>
      <trkpt lat="44.3978220" lon="7.0217070">
        <ele>2275.8</ele>
        <time>2017-07-23T14:21:56Z</time>
      </trkpt>
      <trkpt lat="44.3978870" lon="7.0215040">
        <ele>2274.8</ele>
        <time>2017-07-23T14:21:58Z</time>
      </trkpt>
      <trkpt lat="44.3979450" lon="7.0214460">
        <ele>2274.4</ele>
        <time>2017-07-23T14:21:59Z</time>
      </trkpt>
      <trkpt lat="44.3980960" lon="7.0212120">
        <ele>2273.6</ele>
        <time>2017-07-23T14:22:02Z</time>
      </trkpt>
      <trkpt lat="44.3982040" lon="7.0210540">
        <ele>2272.6</ele>
        <time>2017-07-23T14:22:04Z</time>
      </trkpt>
      <trkpt lat="44.3982630" lon="7.0209800">
        <ele>2272.2</ele>
        <time>2017-07-23T14:22:05Z</time>
      </trkpt>
      <trkpt lat="44.3984010" lon="7.0208750">
        <ele>2271.4</ele>
        <time>2017-07-23T14:22:07Z</time>
      </trkpt>
      <trkpt lat="44.3984760" lon="7.0208610">
        <ele>2270.8</ele>
        <time>2017-07-23T14:22:08Z</time>
      </trkpt>
      <trkpt lat="44.3987670" lon="7.0208830">
        <ele>2269.8</ele>
        <time>2017-07-23T14:22:12Z</time>
      </trkpt>
      <trkpt lat="44.3989150" lon="7.0208690">
        <ele>2269.6</ele>
        <time>2017-07-23T14:22:14Z</time>
      </trkpt>
      <trkpt lat="44.3989760" lon="7.0208180">
        <ele>2269.2</ele>
        <time>2017-07-23T14:22:15Z</time>
      </trkpt>
      <trkpt lat="44.3990210" lon="7.0207550">
        <ele>2268.4</ele>
        <time>2017-07-23T14:22:16Z</time>
      </trkpt>
      <trkpt lat="44.3990850" lon="7.0205120">
        <ele>2267.8</ele>
        <time>2017-07-23T14:22:19Z</time>
      </trkpt>
      <trkpt lat="44.3990980" lon="7.0204240">
        <ele>2267.6</ele>
        <time>2017-07-23T14:22:20Z</time>
      </trkpt>
      <trkpt lat="44.3991160" lon="7.0202500">
        <ele>2267.4</ele>
        <time>2017-07-23T14:22:22Z</time>
      </trkpt>
      <trkpt lat="44.3991280" lon="7.0199920">
        <ele>2266.8</ele>
        <time>2017-07-23T14:22:25Z</time>
      </trkpt>
      <trkpt lat="44.3991550" lon="7.0198210">
        <ele>2266.2</ele>
        <time>2017-07-23T14:22:27Z</time>
      </trkpt>
      <trkpt lat="44.3992190" lon="7.0195790">
        <ele>2265.8</ele>
        <time>2017-07-23T14:22:30Z</time>
      </trkpt>
      <trkpt lat="44.3992490" lon="7.0195070">
        <ele>2265.6</ele>
        <time>2017-07-23T14:22:31Z</time>
      </trkpt>
      <trkpt lat="44.3993070" lon="7.0193620">
        <ele>2265.2</ele>
        <time>2017-07-23T14:22:33Z</time>
      </trkpt>
      <trkpt lat="44.3994060" lon="7.0191440">
        <ele>2265.2</ele>
        <time>2017-07-23T14:22:36Z</time>
      </trkpt>
      <trkpt lat="44.3994360" lon="7.0190610">
        <ele>2265.4</ele>
        <time>2017-07-23T14:22:37Z</time>
      </trkpt>
      <trkpt lat="44.3995940" lon="7.0187110">
        <ele>2265.8</ele>
        <time>2017-07-23T14:22:41Z</time>
      </trkpt>
      <trkpt lat="44.3996590" lon="7.0185740">
        <ele>2266.0</ele>
        <time>2017-07-23T14:22:43Z</time>
      </trkpt>
      <trkpt lat="44.3996570" lon="7.0184440">
        <ele>2265.8</ele>
        <time>2017-07-23T14:22:45Z</time>
      </trkpt>
      <trkpt lat="44.3995780" lon="7.0182600">
        <ele>2265.6</ele>
        <time>2017-07-23T14:22:48Z</time>
      </trkpt>
      <trkpt lat="44.3995440" lon="7.0181980">
        <ele>2265.4</ele>
        <time>2017-07-23T14:22:49Z</time>
      </trkpt>
      <trkpt lat="44.3994270" lon="7.0179310">
        <ele>2264.2</ele>
        <time>2017-07-23T14:22:53Z</time>
      </trkpt>
      <trkpt lat="44.3994330" lon="7.0178440">
        <ele>2264.0</ele>
        <time>2017-07-23T14:22:54Z</time>
      </trkpt>
      <trkpt lat="44.3995040" lon="7.0175780">
        <ele>2263.2</ele>
        <time>2017-07-23T14:22:57Z</time>
      </trkpt>
      <trkpt lat="44.3995530" lon="7.0175020">
        <ele>2262.6</ele>
        <time>2017-07-23T14:22:58Z</time>
      </trkpt>
      <trkpt lat="44.3996700" lon="7.0173640">
        <ele>2262.4</ele>
        <time>2017-07-23T14:23:00Z</time>
      </trkpt>
      <trkpt lat="44.3998470" lon="7.0171800">
        <ele>2262.4</ele>
        <time>2017-07-23T14:23:03Z</time>
      </trkpt>
      <trkpt lat="44.3999190" lon="7.0171780">
        <ele>2261.6</ele>
        <time>2017-07-23T14:23:04Z</time>
      </trkpt>
      <trkpt lat="44.4001340" lon="7.0170750">
        <ele>2261.0</ele>
        <time>2017-07-23T14:23:08Z</time>
      </trkpt>
      <trkpt lat="44.4001600" lon="7.0170040">
        <ele>2260.4</ele>
        <time>2017-07-23T14:23:09Z</time>
      </trkpt>
      <trkpt lat="44.4002260" lon="7.0168490">
        <ele>2260.0</ele>
        <time>2017-07-23T14:23:11Z</time>
      </trkpt>
      <trkpt lat="44.4002830" lon="7.0167990">
        <ele>2259.2</ele>
        <time>2017-07-23T14:23:12Z</time>
      </trkpt>
      <trkpt lat="44.4004110" lon="7.0167120">
        <ele>2258.0</ele>
        <time>2017-07-23T14:23:14Z</time>
      </trkpt>
      <trkpt lat="44.4004770" lon="7.0166700">
        <ele>2257.6</ele>
        <time>2017-07-23T14:23:15Z</time>
      </trkpt>
      <trkpt lat="44.4005450" lon="7.0166260">
        <ele>2257.0</ele>
        <time>2017-07-23T14:23:16Z</time>
      </trkpt>
      <trkpt lat="44.4007360" lon="7.0165150">
        <ele>2255.6</ele>
        <time>2017-07-23T14:23:19Z</time>
      </trkpt>
      <trkpt lat="44.4007970" lon="7.0164730">
        <ele>2254.6</ele>
        <time>2017-07-23T14:23:20Z</time>
      </trkpt>
      <trkpt lat="44.4009760" lon="7.0163360">
        <ele>2253.2</ele>
        <time>2017-07-23T14:23:23Z</time>
      </trkpt>
      <trkpt lat="44.4010960" lon="7.0162470">
        <ele>2251.6</ele>
        <time>2017-07-23T14:23:25Z</time>
      </trkpt>
      <trkpt lat="44.4012080" lon="7.0161370">
        <ele>2250.6</ele>
        <time>2017-07-23T14:23:27Z</time>
      </trkpt>
      <trkpt lat="44.4013890" lon="7.0159750">
        <ele>2249.2</ele>
        <time>2017-07-23T14:23:30Z</time>
      </trkpt>
      <trkpt lat="44.4014600" lon="7.0159550">
        <ele>2248.6</ele>
        <time>2017-07-23T14:23:31Z</time>
      </trkpt>
      <trkpt lat="44.4015300" lon="7.0159360">
        <ele>2247.8</ele>
        <time>2017-07-23T14:23:32Z</time>
      </trkpt>
      <trkpt lat="44.4017020" lon="7.0158700">
        <ele>2246.4</ele>
        <time>2017-07-23T14:23:35Z</time>
      </trkpt>
      <trkpt lat="44.4017640" lon="7.0158570">
        <ele>2245.8</ele>
        <time>2017-07-23T14:23:36Z</time>
      </trkpt>
      <trkpt lat="44.4018940" lon="7.0158250">
        <ele>2245.0</ele>
        <time>2017-07-23T14:23:38Z</time>
      </trkpt>
      <trkpt lat="44.4019580" lon="7.0158160">
        <ele>2244.6</ele>
        <time>2017-07-23T14:23:39Z</time>
      </trkpt>
      <trkpt lat="44.4020830" lon="7.0158000">
        <ele>2244.0</ele>
        <time>2017-07-23T14:23:41Z</time>
      </trkpt>
      <trkpt lat="44.4022540" lon="7.0157910">
        <ele>2242.8</ele>
        <time>2017-07-23T14:23:44Z</time>
      </trkpt>
      <trkpt lat="44.4023620" lon="7.0157820">
        <ele>2241.6</ele>
        <time>2017-07-23T14:23:46Z</time>
      </trkpt>
      <trkpt lat="44.4024190" lon="7.0157720">
        <ele>2241.2</ele>
        <time>2017-07-23T14:23:47Z</time>
      </trkpt>
      <trkpt lat="44.4025870" lon="7.0157590">
        <ele>2240.6</ele>
        <time>2017-07-23T14:23:50Z</time>
      </trkpt>
      <trkpt lat="44.4028030" lon="7.0157470">
        <ele>2239.8</ele>
        <time>2017-07-23T14:23:54Z</time>
      </trkpt>
      <trkpt lat="44.4028590" lon="7.0157390">
        <ele>2239.6</ele>
        <time>2017-07-23T14:23:55Z</time>
      </trkpt>
      <trkpt lat="44.4031470" lon="7.0156960">
        <ele>2238.2</ele>
        <time>2017-07-23T14:24:00Z</time>
      </trkpt>
      <trkpt lat="44.4035430" lon="7.0155800">
        <ele>2237.6</ele>
        <time>2017-07-23T14:24:07Z</time>
      </trkpt>
      <trkpt lat="44.4037140" lon="7.0156420">
        <ele>2237.2</ele>
        <time>2017-07-23T14:24:10Z</time>
      </trkpt>
      <trkpt lat="44.4037640" lon="7.0156760">
        <ele>2237.0</ele>
        <time>2017-07-23T14:24:11Z</time>
      </trkpt>
      <trkpt lat="44.4039890" lon="7.0157510">
        <ele>2237.2</ele>
        <time>2017-07-23T14:24:15Z</time>
      </trkpt>
      <trkpt lat="44.4041270" lon="7.0159200">
        <ele>2237.4</ele>
        <time>2017-07-23T14:24:18Z</time>
      </trkpt>
      <trkpt lat="44.4042610" lon="7.0160710">
        <ele>2237.8</ele>
        <time>2017-07-23T14:24:21Z</time>
      </trkpt>
      <trkpt lat="44.4044920" lon="7.0160550">
        <ele>2236.4</ele>
        <time>2017-07-23T14:24:25Z</time>
      </trkpt>
      <trkpt lat="44.4045450" lon="7.0160370">
        <ele>2236.0</ele>
        <time>2017-07-23T14:24:26Z</time>
      </trkpt>
      <trkpt lat="44.4045940" lon="7.0160120">
        <ele>2235.8</ele>
        <time>2017-07-23T14:24:27Z</time>
      </trkpt>
      <trkpt lat="44.4046970" lon="7.0159820">
        <ele>2235.4</ele>
        <time>2017-07-23T14:24:29Z</time>
      </trkpt>
      <trkpt lat="44.4047500" lon="7.0159710">
        <ele>2235.2</ele>
        <time>2017-07-23T14:24:30Z</time>
      </trkpt>
      <trkpt lat="44.4047970" lon="7.0159480">
        <ele>2234.6</ele>
        <time>2017-07-23T14:24:31Z</time>
      </trkpt>
      <trkpt lat="44.4048430" lon="7.0158190">
        <ele>2233.6</ele>
        <time>2017-07-23T14:24:33Z</time>
      </trkpt>
      <trkpt lat="44.4048470" lon="7.0155820">
        <ele>2232.4</ele>
        <time>2017-07-23T14:24:36Z</time>
      </trkpt>
      <trkpt lat="44.4048470" lon="7.0155070">
        <ele>2232.2</ele>
        <time>2017-07-23T14:24:37Z</time>
      </trkpt>
      <trkpt lat="44.4048380" lon="7.0154260">
        <ele>2232.0</ele>
        <time>2017-07-23T14:24:38Z</time>
      </trkpt>
      <trkpt lat="44.4048390" lon="7.0152700">
        <ele>2231.2</ele>
        <time>2017-07-23T14:24:40Z</time>
      </trkpt>
      <trkpt lat="44.4048730" lon="7.0151230">
        <ele>2230.4</ele>
        <time>2017-07-23T14:24:42Z</time>
      </trkpt>
      <trkpt lat="44.4050310" lon="7.0150260">
        <ele>2230.6</ele>
        <time>2017-07-23T14:24:45Z</time>
      </trkpt>
      <trkpt lat="44.4053040" lon="7.0149300">
        <ele>2231.0</ele>
        <time>2017-07-23T14:24:50Z</time>
      </trkpt>
      <trkpt lat="44.4053490" lon="7.0148950">
        <ele>2231.2</ele>
        <time>2017-07-23T14:24:51Z</time>
      </trkpt>
      <trkpt lat="44.4054640" lon="7.0147500">
        <ele>2231.8</ele>
        <time>2017-07-23T14:24:54Z</time>
      </trkpt>
      <trkpt lat="44.4055290" lon="7.0146600">
        <ele>2232.4</ele>
        <time>2017-07-23T14:24:56Z</time>
      </trkpt>
      <trkpt lat="44.4056350" lon="7.0145040">
        <ele>2233.2</ele>
        <time>2017-07-23T14:25:00Z</time>
      </trkpt>
      <trkpt lat="44.4056610" lon="7.0144710">
        <ele>2233.4</ele>
        <time>2017-07-23T14:25:01Z</time>
      </trkpt>
      <trkpt lat="44.4057960" lon="7.0143450">
        <ele>2234.2</ele>
        <time>2017-07-23T14:25:06Z</time>
      </trkpt>
      <trkpt lat="44.4058500" lon="7.0142840">
        <ele>2234.4</ele>
        <time>2017-07-23T14:25:08Z</time>
      </trkpt>
      <trkpt lat="44.4059470" lon="7.0142180">
        <ele>2234.8</ele>
        <time>2017-07-23T14:25:11Z</time>
      </trkpt>
      <trkpt lat="44.4059840" lon="7.0142250">
        <ele>2235.0</ele>
        <time>2017-07-23T14:25:12Z</time>
      </trkpt>
      <trkpt lat="44.4060780" lon="7.0142650">
        <ele>2235.6</ele>
        <time>2017-07-23T14:25:15Z</time>
      </trkpt>
      <trkpt lat="44.4061390" lon="7.0143090">
        <ele>2236.0</ele>
        <time>2017-07-23T14:25:17Z</time>
      </trkpt>
      <trkpt lat="44.4063200" lon="7.0144470">
        <ele>2236.6</ele>
        <time>2017-07-23T14:25:23Z</time>
      </trkpt>
      <trkpt lat="44.4063460" lon="7.0144710">
        <ele>2236.8</ele>
        <time>2017-07-23T14:25:24Z</time>
      </trkpt>
      <trkpt lat="44.4064980" lon="7.0145980">
        <ele>2237.0</ele>
        <time>2017-07-23T14:25:30Z</time>
      </trkpt>
      <trkpt lat="44.4066740" lon="7.0146850">
        <ele>2237.6</ele>
        <time>2017-07-23T14:25:37Z</time>
      </trkpt>
      <trkpt lat="44.4066970" lon="7.0147010">
        <ele>2237.6</ele>
        <time>2017-07-23T14:25:38Z</time>
      </trkpt>
      <trkpt lat="44.4068330" lon="7.0147610">
        <ele>2238.4</ele>
        <time>2017-07-23T14:25:44Z</time>
      </trkpt>
      <trkpt lat="44.4068780" lon="7.0147880">
        <ele>2238.6</ele>
        <time>2017-07-23T14:25:46Z</time>
      </trkpt>
      <trkpt lat="44.4070020" lon="7.0148940">
        <ele>2239.4</ele>
        <time>2017-07-23T14:25:52Z</time>
      </trkpt>
      <trkpt lat="44.4070920" lon="7.0149300">
        <ele>2239.6</ele>
        <time>2017-07-23T14:25:56Z</time>
      </trkpt>
      <trkpt lat="44.4071560" lon="7.0149290">
        <ele>2239.8</ele>
        <time>2017-07-23T14:25:59Z</time>
      </trkpt>
      <trkpt lat="44.4072080" lon="7.0148920">
        <ele>2240.6</ele>
        <time>2017-07-23T14:26:04Z</time>
      </trkpt>
      <trkpt lat="44.4072180" lon="7.0148760">
        <ele>2240.8</ele>
        <time>2017-07-23T14:26:06Z</time>
      </trkpt>
      <trkpt lat="44.4075710" lon="7.0148360">
        <ele>2241.8</ele>
        <time>2017-07-23T14:27:02Z</time>
      </trkpt>
      <trkpt lat="44.4075870" lon="7.0148460">
        <ele>2241.8</ele>
        <time>2017-07-23T14:27:03Z</time>
      </trkpt>
      <trkpt lat="44.4076400" lon="7.0149560">
        <ele>2242.0</ele>
        <time>2017-07-23T14:27:08Z</time>
      </trkpt>
      <trkpt lat="44.4076610" lon="7.0151350">
        <ele>2242.6</ele>
        <time>2017-07-23T14:27:14Z</time>
      </trkpt>
      <trkpt lat="44.4076690" lon="7.0152610">
        <ele>2243.0</ele>
        <time>2017-07-23T14:27:18Z</time>
      </trkpt>
      <trkpt lat="44.4076750" lon="7.0153870">
        <ele>2243.8</ele>
        <time>2017-07-23T14:27:22Z</time>
      </trkpt>
      <trkpt lat="44.4076770" lon="7.0154190">
        <ele>2244.2</ele>
        <time>2017-07-23T14:27:23Z</time>
      </trkpt>
      <trkpt lat="44.4076930" lon="7.0156010">
        <ele>2245.2</ele>
        <time>2017-07-23T14:27:29Z</time>
      </trkpt>
      <trkpt lat="44.4076960" lon="7.0156630">
        <ele>2245.8</ele>
        <time>2017-07-23T14:27:31Z</time>
      </trkpt>
      <trkpt lat="44.4077220" lon="7.0157860">
        <ele>2246.4</ele>
        <time>2017-07-23T14:27:35Z</time>
      </trkpt>
      <trkpt lat="44.4077480" lon="7.0158430">
        <ele>2247.0</ele>
        <time>2017-07-23T14:27:37Z</time>
      </trkpt>
      <trkpt lat="44.4077830" lon="7.0158930">
        <ele>2247.4</ele>
        <time>2017-07-23T14:27:39Z</time>
      </trkpt>
      <trkpt lat="44.4078920" lon="7.0159800">
        <ele>2248.0</ele>
        <time>2017-07-23T14:27:44Z</time>
      </trkpt>
      <trkpt lat="44.4079720" lon="7.0160300">
        <ele>2248.4</ele>
        <time>2017-07-23T14:27:48Z</time>
      </trkpt>
      <trkpt lat="44.4080660" lon="7.0160430">
        <ele>2249.2</ele>
        <time>2017-07-23T14:27:52Z</time>
      </trkpt>
      <trkpt lat="44.4081400" lon="7.0160530">
        <ele>2249.6</ele>
        <time>2017-07-23T14:27:55Z</time>
      </trkpt>
      <trkpt lat="44.4082570" lon="7.0160770">
        <ele>2250.2</ele>
        <time>2017-07-23T14:28:00Z</time>
      </trkpt>
      <trkpt lat="44.4082810" lon="7.0160760">
        <ele>2250.6</ele>
        <time>2017-07-23T14:28:01Z</time>
      </trkpt>
      <trkpt lat="44.4083070" lon="7.0160710">
        <ele>2251.0</ele>
        <time>2017-07-23T14:28:02Z</time>
      </trkpt>
      <trkpt lat="44.4084000" lon="7.0159650">
        <ele>2251.6</ele>
        <time>2017-07-23T14:28:07Z</time>
      </trkpt>
      <trkpt lat="44.4084130" lon="7.0159400">
        <ele>2251.8</ele>
        <time>2017-07-23T14:28:08Z</time>
      </trkpt>
      <trkpt lat="44.4085150" lon="7.0157890">
        <ele>2252.4</ele>
        <time>2017-07-23T14:28:14Z</time>
      </trkpt>
      <trkpt lat="44.4085570" lon="7.0157470">
        <ele>2252.8</ele>
        <time>2017-07-23T14:28:16Z</time>
      </trkpt>
      <trkpt lat="44.4086920" lon="7.0156560">
        <ele>2254.0</ele>
        <time>2017-07-23T14:28:22Z</time>
      </trkpt>
      <trkpt lat="44.4087150" lon="7.0156440">
        <ele>2254.2</ele>
        <time>2017-07-23T14:28:23Z</time>
      </trkpt>
      <trkpt lat="44.4087830" lon="7.0156140">
        <ele>2255.2</ele>
        <time>2017-07-23T14:28:26Z</time>
      </trkpt>
      <trkpt lat="44.4088440" lon="7.0155720">
        <ele>2256.2</ele>
        <time>2017-07-23T14:28:29Z</time>
      </trkpt>
      <trkpt lat="44.4088610" lon="7.0155520">
        <ele>2256.4</ele>
        <time>2017-07-23T14:28:30Z</time>
      </trkpt>
      <trkpt lat="44.4089080" lon="7.0154920">
        <ele>2257.4</ele>
        <time>2017-07-23T14:28:33Z</time>
      </trkpt>
      <trkpt lat="44.4089510" lon="7.0154190">
        <ele>2258.0</ele>
        <time>2017-07-23T14:28:36Z</time>
      </trkpt>
      <trkpt lat="44.4089740" lon="7.0153600">
        <ele>2258.6</ele>
        <time>2017-07-23T14:28:38Z</time>
      </trkpt>
      <trkpt lat="44.4090190" lon="7.0152420">
        <ele>2259.6</ele>
        <time>2017-07-23T14:28:42Z</time>
      </trkpt>
      <trkpt lat="44.4090280" lon="7.0152110">
        <ele>2259.8</ele>
        <time>2017-07-23T14:28:43Z</time>
      </trkpt>
      <trkpt lat="44.4090630" lon="7.0150830">
        <ele>2260.8</ele>
        <time>2017-07-23T14:28:47Z</time>
      </trkpt>
      <trkpt lat="44.4090810" lon="7.0149920">
        <ele>2261.8</ele>
        <time>2017-07-23T14:28:50Z</time>
      </trkpt>
      <trkpt lat="44.4090860" lon="7.0149300">
        <ele>2262.2</ele>
        <time>2017-07-23T14:28:52Z</time>
      </trkpt>
      <trkpt lat="44.4091350" lon="7.0147890">
        <ele>2263.0</ele>
        <time>2017-07-23T14:28:57Z</time>
      </trkpt>
      <trkpt lat="44.4091380" lon="7.0147610">
        <ele>2263.0</ele>
        <time>2017-07-23T14:28:58Z</time>
      </trkpt>
      <trkpt lat="44.4091580" lon="7.0145200">
        <ele>2263.6</ele>
        <time>2017-07-23T14:29:06Z</time>
      </trkpt>
      <trkpt lat="44.4091400" lon="7.0143250">
        <ele>2264.0</ele>
        <time>2017-07-23T14:29:12Z</time>
      </trkpt>
      <trkpt lat="44.4091340" lon="7.0142620">
        <ele>2264.4</ele>
        <time>2017-07-23T14:29:14Z</time>
      </trkpt>
      <trkpt lat="44.4091150" lon="7.0139530">
        <ele>2265.0</ele>
        <time>2017-07-23T14:29:23Z</time>
      </trkpt>
      <trkpt lat="44.4091130" lon="7.0139190">
        <ele>2265.0</ele>
        <time>2017-07-23T14:29:24Z</time>
      </trkpt>
      <trkpt lat="44.4091310" lon="7.0137420">
        <ele>2265.2</ele>
        <time>2017-07-23T14:29:28Z</time>
      </trkpt>
      <trkpt lat="44.4091400" lon="7.0135710">
        <ele>2265.6</ele>
        <time>2017-07-23T14:29:32Z</time>
      </trkpt>
      <trkpt lat="44.4091540" lon="7.0133920">
        <ele>2266.0</ele>
        <time>2017-07-23T14:29:36Z</time>
      </trkpt>
      <trkpt lat="44.4091650" lon="7.0131120">
        <ele>2266.0</ele>
        <time>2017-07-23T14:29:41Z</time>
      </trkpt>
      <trkpt lat="44.4091680" lon="7.0130560">
        <ele>2266.2</ele>
        <time>2017-07-23T14:29:42Z</time>
      </trkpt>
      <trkpt lat="44.4091740" lon="7.0130030">
        <ele>2266.2</ele>
        <time>2017-07-23T14:29:43Z</time>
      </trkpt>
      <trkpt lat="44.4091900" lon="7.0128930">
        <ele>2266.2</ele>
        <time>2017-07-23T14:29:45Z</time>
      </trkpt>
      <trkpt lat="44.4092390" lon="7.0126160">
        <ele>2266.4</ele>
        <time>2017-07-23T14:29:50Z</time>
      </trkpt>
      <trkpt lat="44.4092460" lon="7.0125650">
        <ele>2266.4</ele>
        <time>2017-07-23T14:29:51Z</time>
      </trkpt>
      <trkpt lat="44.4092680" lon="7.0123610">
        <ele>2266.8</ele>
        <time>2017-07-23T14:29:55Z</time>
      </trkpt>
      <trkpt lat="44.4092800" lon="7.0122600">
        <ele>2266.6</ele>
        <time>2017-07-23T14:29:57Z</time>
      </trkpt>
      <trkpt lat="44.4092980" lon="7.0121660">
        <ele>2266.8</ele>
        <time>2017-07-23T14:29:59Z</time>
      </trkpt>
      <trkpt lat="44.4093190" lon="7.0120330">
        <ele>2267.2</ele>
        <time>2017-07-23T14:30:02Z</time>
      </trkpt>
      <trkpt lat="44.4093630" lon="7.0118160">
        <ele>2267.8</ele>
        <time>2017-07-23T14:30:07Z</time>
      </trkpt>
      <trkpt lat="44.4094340" lon="7.0115240">
        <ele>2268.2</ele>
        <time>2017-07-23T14:30:14Z</time>
      </trkpt>
      <trkpt lat="44.4094560" lon="7.0114380">
        <ele>2268.6</ele>
        <time>2017-07-23T14:30:16Z</time>
      </trkpt>
      <trkpt lat="44.4095130" lon="7.0111780">
        <ele>2269.4</ele>
        <time>2017-07-23T14:30:22Z</time>
      </trkpt>
      <trkpt lat="44.4095460" lon="7.0110570">
        <ele>2270.0</ele>
        <time>2017-07-23T14:30:25Z</time>
      </trkpt>
      <trkpt lat="44.4095660" lon="7.0109750">
        <ele>2270.2</ele>
        <time>2017-07-23T14:30:27Z</time>
      </trkpt>
      <trkpt lat="44.4095790" lon="7.0108910">
        <ele>2270.4</ele>
        <time>2017-07-23T14:30:29Z</time>
      </trkpt>
      <trkpt lat="44.4096130" lon="7.0107490">
        <ele>2271.2</ele>
        <time>2017-07-23T14:30:33Z</time>
      </trkpt>
      <trkpt lat="44.4096170" lon="7.0107120">
        <ele>2271.4</ele>
        <time>2017-07-23T14:30:34Z</time>
      </trkpt>
      <trkpt lat="44.4096860" lon="7.0104720">
        <ele>2272.4</ele>
        <time>2017-07-23T14:30:41Z</time>
      </trkpt>
      <trkpt lat="44.4096930" lon="7.0104380">
        <ele>2272.6</ele>
        <time>2017-07-23T14:30:42Z</time>
      </trkpt>
      <trkpt lat="44.4097280" lon="7.0102740">
        <ele>2273.8</ele>
        <time>2017-07-23T14:30:47Z</time>
      </trkpt>
      <trkpt lat="44.4096830" lon="7.0100700">
        <ele>2274.4</ele>
        <time>2017-07-23T14:30:53Z</time>
      </trkpt>
      <trkpt lat="44.4096180" lon="7.0099570">
        <ele>2274.8</ele>
        <time>2017-07-23T14:30:57Z</time>
      </trkpt>
      <trkpt lat="44.4095950" lon="7.0098940">
        <ele>2275.0</ele>
        <time>2017-07-23T14:30:59Z</time>
      </trkpt>
      <trkpt lat="44.4095590" lon="7.0096700">
        <ele>2275.6</ele>
        <time>2017-07-23T14:31:06Z</time>
      </trkpt>
      <trkpt lat="44.4095670" lon="7.0096270">
        <ele>2276.0</ele>
        <time>2017-07-23T14:31:08Z</time>
      </trkpt>
      <trkpt lat="44.4096070" lon="7.0095140">
        <ele>2277.0</ele>
        <time>2017-07-23T14:31:19Z</time>
      </trkpt>
      <trkpt lat="44.4096490" lon="7.0094270">
        <ele>2276.8</ele>
        <time>2017-07-23T14:31:26Z</time>
      </trkpt>
      <trkpt lat="44.4096570" lon="7.0094020">
        <ele>2276.6</ele>
        <time>2017-07-23T14:31:28Z</time>
      </trkpt>
      <trkpt lat="44.4096910" lon="7.0093530">
        <ele>2276.0</ele>
        <time>2017-07-23T14:31:32Z</time>
      </trkpt>
      <trkpt lat="44.4096980" lon="7.0093390">
        <ele>2275.8</ele>
        <time>2017-07-23T14:31:33Z</time>
      </trkpt>
      <trkpt lat="44.4097120" lon="7.0093150">
        <ele>2275.4</ele>
        <time>2017-07-23T14:31:35Z</time>
      </trkpt>
      <trkpt lat="44.4097170" lon="7.0093080">
        <ele>2275.2</ele>
        <time>2017-07-23T14:31:36Z</time>
      </trkpt>
      <trkpt lat="44.4097230" lon="7.0093050">
        <ele>2274.8</ele>
        <time>2017-07-23T14:31:37Z</time>
      </trkpt>
      <trkpt lat="44.4097320" lon="7.0093010">
        <ele>2274.6</ele>
        <time>2017-07-23T14:31:38Z</time>
      </trkpt>
      <trkpt lat="44.4097480" lon="7.0092920">
        <ele>2274.4</ele>
        <time>2017-07-23T14:31:40Z</time>
      </trkpt>
      <trkpt lat="44.4097610" lon="7.0092800">
        <ele>2274.0</ele>
        <time>2017-07-23T14:31:42Z</time>
      </trkpt>
      <trkpt lat="44.4097830" lon="7.0092230">
        <ele>2273.4</ele>
        <time>2017-07-23T14:31:46Z</time>
      </trkpt>
      <trkpt lat="44.4098020" lon="7.0091720">
        <ele>2272.8</ele>
        <time>2017-07-23T14:31:50Z</time>
      </trkpt>
      <trkpt lat="44.4098110" lon="7.0091480">
        <ele>2272.2</ele>
        <time>2017-07-23T14:31:52Z</time>
      </trkpt>
      <trkpt lat="44.4098400" lon="7.0090910">
        <ele>2271.4</ele>
        <time>2017-07-23T14:31:56Z</time>
      </trkpt>
      <trkpt lat="44.4098470" lon="7.0090750">
        <ele>2271.2</ele>
        <time>2017-07-23T14:31:57Z</time>
      </trkpt>
      <trkpt lat="44.4098800" lon="7.0090000">
        <ele>2270.8</ele>
        <time>2017-07-23T14:32:03Z</time>
      </trkpt>
      <trkpt lat="44.4098980" lon="7.0089650">
        <ele>2271.2</ele>
        <time>2017-07-23T14:32:06Z</time>
      </trkpt>
      <trkpt lat="44.4099220" lon="7.0089100">
        <ele>2272.4</ele>
        <time>2017-07-23T14:32:10Z</time>
      </trkpt>
      <trkpt lat="44.4099420" lon="7.0088780">
        <ele>2273.4</ele>
        <time>2017-07-23T14:32:13Z</time>
      </trkpt>
      <trkpt lat="44.4099610" lon="7.0088450">
        <ele>2274.4</ele>
        <time>2017-07-23T14:32:16Z</time>
      </trkpt>
      <trkpt lat="44.4099630" lon="7.0088320">
        <ele>2274.8</ele>
        <time>2017-07-23T14:32:17Z</time>
      </trkpt>
      <trkpt lat="44.4099760" lon="7.0087950">
        <ele>2275.8</ele>
        <time>2017-07-23T14:32:20Z</time>
      </trkpt>
      <trkpt lat="44.4099970" lon="7.0087440">
        <ele>2277.0</ele>
        <time>2017-07-23T14:32:24Z</time>
      </trkpt>
      <trkpt lat="44.4100100" lon="7.0087250">
        <ele>2277.8</ele>
        <time>2017-07-23T14:32:26Z</time>
      </trkpt>
      <trkpt lat="44.4100200" lon="7.0087020">
        <ele>2278.0</ele>
        <time>2017-07-23T14:32:28Z</time>
      </trkpt>
      <trkpt lat="44.4100440" lon="7.0086410">
        <ele>2279.2</ele>
        <time>2017-07-23T14:32:33Z</time>
      </trkpt>
      <trkpt lat="44.4100860" lon="7.0085510">
        <ele>2280.6</ele>
        <time>2017-07-23T14:32:41Z</time>
      </trkpt>
      <trkpt lat="44.4101250" lon="7.0084560">
        <ele>2281.8</ele>
        <time>2017-07-23T14:32:49Z</time>
      </trkpt>
      <trkpt lat="44.4101310" lon="7.0084440">
        <ele>2282.0</ele>
        <time>2017-07-23T14:32:50Z</time>
      </trkpt>
      <trkpt lat="44.4101570" lon="7.0083890">
        <ele>2282.8</ele>
        <time>2017-07-23T14:32:55Z</time>
      </trkpt>
      <trkpt lat="44.4101660" lon="7.0083630">
        <ele>2283.4</ele>
        <time>2017-07-23T14:33:03Z</time>
      </trkpt>
      <trkpt lat="44.4101770" lon="7.0083510">
        <ele>2283.4</ele>
        <time>2017-07-23T14:33:04Z</time>
      </trkpt>
      <trkpt lat="44.4102220" lon="7.0083100">
        <ele>2283.4</ele>
        <time>2017-07-23T14:33:07Z</time>
      </trkpt>
      <trkpt lat="44.4102330" lon="7.0082870">
        <ele>2283.4</ele>
        <time>2017-07-23T14:33:08Z</time>
      </trkpt>
      <trkpt lat="44.4102640" lon="7.0082170">
        <ele>2283.8</ele>
        <time>2017-07-23T14:33:11Z</time>
      </trkpt>
      <trkpt lat="44.4103170" lon="7.0080900">
        <ele>2284.8</ele>
        <time>2017-07-23T14:33:16Z</time>
      </trkpt>
      <trkpt lat="44.4103230" lon="7.0080670">
        <ele>2285.2</ele>
        <time>2017-07-23T14:33:17Z</time>
      </trkpt>
      <trkpt lat="44.4103650" lon="7.0079860">
        <ele>2286.2</ele>
        <time>2017-07-23T14:33:21Z</time>
      </trkpt>
      <trkpt lat="44.4103840" lon="7.0079470">
        <ele>2286.8</ele>
        <time>2017-07-23T14:33:23Z</time>
      </trkpt>
      <trkpt lat="44.4104080" lon="7.0078760">
        <ele>2287.4</ele>
        <time>2017-07-23T14:33:26Z</time>
      </trkpt>
      <trkpt lat="44.4104400" lon="7.0078160">
        <ele>2288.0</ele>
        <time>2017-07-23T14:33:29Z</time>
      </trkpt>
      <trkpt lat="44.4104660" lon="7.0077590">
        <ele>2288.6</ele>
        <time>2017-07-23T14:33:32Z</time>
      </trkpt>
      <trkpt lat="44.4104990" lon="7.0076980">
        <ele>2289.2</ele>
        <time>2017-07-23T14:33:35Z</time>
      </trkpt>
      <trkpt lat="44.4105350" lon="7.0076360">
        <ele>2289.8</ele>
        <time>2017-07-23T14:33:38Z</time>
      </trkpt>
      <trkpt lat="44.4105970" lon="7.0075460">
        <ele>2290.6</ele>
        <time>2017-07-23T14:33:43Z</time>
      </trkpt>
      <trkpt lat="44.4106090" lon="7.0075270">
        <ele>2290.8</ele>
        <time>2017-07-23T14:33:44Z</time>
      </trkpt>
      <trkpt lat="44.4106870" lon="7.0074240">
        <ele>2292.0</ele>
        <time>2017-07-23T14:33:50Z</time>
      </trkpt>
      <trkpt lat="44.4107180" lon="7.0072840">
        <ele>2292.8</ele>
        <time>2017-07-23T14:33:56Z</time>
      </trkpt>
      <trkpt lat="44.4107190" lon="7.0072610">
        <ele>2293.0</ele>
        <time>2017-07-23T14:33:57Z</time>
      </trkpt>
      <trkpt lat="44.4107230" lon="7.0072370">
        <ele>2293.2</ele>
        <time>2017-07-23T14:33:58Z</time>
      </trkpt>
      <trkpt lat="44.4107350" lon="7.0071380">
        <ele>2294.2</ele>
        <time>2017-07-23T14:34:02Z</time>
      </trkpt>
      <trkpt lat="44.4107390" lon="7.0070690">
        <ele>2294.8</ele>
        <time>2017-07-23T14:34:05Z</time>
      </trkpt>
      <trkpt lat="44.4107350" lon="7.0070440">
        <ele>2295.0</ele>
        <time>2017-07-23T14:34:06Z</time>
      </trkpt>
      <trkpt lat="44.4107180" lon="7.0069880">
        <ele>2295.2</ele>
        <time>2017-07-23T14:34:08Z</time>
      </trkpt>
      <trkpt lat="44.4106720" lon="7.0068970">
        <ele>2296.0</ele>
        <time>2017-07-23T14:34:12Z</time>
      </trkpt>
      <trkpt lat="44.4106270" lon="7.0068260">
        <ele>2296.2</ele>
        <time>2017-07-23T14:34:15Z</time>
      </trkpt>
      <trkpt lat="44.4105610" lon="7.0067530">
        <ele>2296.8</ele>
        <time>2017-07-23T14:34:19Z</time>
      </trkpt>
      <trkpt lat="44.4105050" lon="7.0066710">
        <ele>2297.4</ele>
        <time>2017-07-23T14:34:23Z</time>
      </trkpt>
      <trkpt lat="44.4104310" lon="7.0065660">
        <ele>2298.2</ele>
        <time>2017-07-23T14:34:28Z</time>
      </trkpt>
      <trkpt lat="44.4104020" lon="7.0065180">
        <ele>2298.6</ele>
        <time>2017-07-23T14:34:30Z</time>
      </trkpt>
      <trkpt lat="44.4103360" lon="7.0064040">
        <ele>2299.6</ele>
        <time>2017-07-23T14:34:35Z</time>
      </trkpt>
      <trkpt lat="44.4103260" lon="7.0063800">
        <ele>2299.6</ele>
        <time>2017-07-23T14:34:36Z</time>
      </trkpt>
      <trkpt lat="44.4102910" lon="7.0062070">
        <ele>2300.6</ele>
        <time>2017-07-23T14:34:42Z</time>
      </trkpt>
      <trkpt lat="44.4102850" lon="7.0061750">
        <ele>2300.8</ele>
        <time>2017-07-23T14:34:43Z</time>
      </trkpt>
      <trkpt lat="44.4102740" lon="7.0060590">
        <ele>2301.6</ele>
        <time>2017-07-23T14:34:47Z</time>
      </trkpt>
      <trkpt lat="44.4102670" lon="7.0060060">
        <ele>2302.2</ele>
        <time>2017-07-23T14:34:49Z</time>
      </trkpt>
      <trkpt lat="44.4102660" lon="7.0059520">
        <ele>2302.8</ele>
        <time>2017-07-23T14:34:51Z</time>
      </trkpt>
      <trkpt lat="44.4102690" lon="7.0058340">
        <ele>2304.0</ele>
        <time>2017-07-23T14:34:56Z</time>
      </trkpt>
      <trkpt lat="44.4102730" lon="7.0057860">
        <ele>2304.6</ele>
        <time>2017-07-23T14:34:58Z</time>
      </trkpt>
      <trkpt lat="44.4102760" lon="7.0057310">
        <ele>2305.2</ele>
        <time>2017-07-23T14:35:00Z</time>
      </trkpt>
      <trkpt lat="44.4103090" lon="7.0055990">
        <ele>2306.2</ele>
        <time>2017-07-23T14:35:05Z</time>
      </trkpt>
      <trkpt lat="44.4102800" lon="7.0054530">
        <ele>2307.0</ele>
        <time>2017-07-23T14:35:10Z</time>
      </trkpt>
      <trkpt lat="44.4102410" lon="7.0054160">
        <ele>2307.4</ele>
        <time>2017-07-23T14:35:12Z</time>
      </trkpt>
      <trkpt lat="44.4102190" lon="7.0054090">
        <ele>2307.8</ele>
        <time>2017-07-23T14:35:13Z</time>
      </trkpt>
      <trkpt lat="44.4101970" lon="7.0054120">
        <ele>2308.0</ele>
        <time>2017-07-23T14:35:14Z</time>
      </trkpt>
      <trkpt lat="44.4100810" lon="7.0054280">
        <ele>2308.6</ele>
        <time>2017-07-23T14:35:19Z</time>
      </trkpt>
      <trkpt lat="44.4100590" lon="7.0054180">
        <ele>2308.6</ele>
        <time>2017-07-23T14:35:20Z</time>
      </trkpt>
      <trkpt lat="44.4099710" lon="7.0052840">
        <ele>2309.4</ele>
        <time>2017-07-23T14:35:26Z</time>
      </trkpt>
      <trkpt lat="44.4098930" lon="7.0050500">
        <ele>2308.0</ele>
        <time>2017-07-23T14:35:35Z</time>
      </trkpt>
      <trkpt lat="44.4098980" lon="7.0049950">
        <ele>2307.6</ele>
        <time>2017-07-23T14:35:37Z</time>
      </trkpt>
      <trkpt lat="44.4099000" lon="7.0048640">
        <ele>2306.4</ele>
        <time>2017-07-23T14:35:42Z</time>
      </trkpt>
      <trkpt lat="44.4099180" lon="7.0046930">
        <ele>2305.8</ele>
        <time>2017-07-23T14:35:49Z</time>
      </trkpt>
      <trkpt lat="44.4100150" lon="7.0046200">
        <ele>2306.0</ele>
        <time>2017-07-23T14:35:55Z</time>
      </trkpt>
      <trkpt lat="44.4101070" lon="7.0046190">
        <ele>2306.4</ele>
        <time>2017-07-23T14:36:00Z</time>
      </trkpt>
      <trkpt lat="44.4101910" lon="7.0045790">
        <ele>2307.0</ele>
        <time>2017-07-23T14:36:06Z</time>
      </trkpt>
      <trkpt lat="44.4103410" lon="7.0045080">
        <ele>2308.8</ele>
        <time>2017-07-23T14:36:27Z</time>
      </trkpt>
      <trkpt lat="44.4103660" lon="7.0045020">
        <ele>2308.6</ele>
        <time>2017-07-23T14:36:29Z</time>
      </trkpt>
      <trkpt lat="44.4104450" lon="7.0044240">
        <ele>2308.4</ele>
        <time>2017-07-23T14:36:38Z</time>
      </trkpt>
      <trkpt lat="44.4104660" lon="7.0043290">
        <ele>2309.2</ele>
        <time>2017-07-23T14:36:45Z</time>
      </trkpt>
      <trkpt lat="44.4104690" lon="7.0042840">
        <ele>2309.8</ele>
        <time>2017-07-23T14:36:48Z</time>
      </trkpt>
      <trkpt lat="44.4104810" lon="7.0041880">
        <ele>2310.8</ele>
        <time>2017-07-23T14:36:55Z</time>
      </trkpt>
      <trkpt lat="44.4104840" lon="7.0041780">
        <ele>2311.0</ele>
        <time>2017-07-23T14:36:56Z</time>
      </trkpt>
      <trkpt lat="44.4104850" lon="7.0041230">
        <ele>2311.4</ele>
        <time>2017-07-23T14:37:00Z</time>
      </trkpt>
      <trkpt lat="44.4104830" lon="7.0041130">
        <ele>2311.6</ele>
        <time>2017-07-23T14:37:01Z</time>
      </trkpt>
      <trkpt lat="44.4104680" lon="7.0040610">
        <ele>2312.0</ele>
        <time>2017-07-23T14:37:05Z</time>
      </trkpt>
      <trkpt lat="44.4104630" lon="7.0040470">
        <ele>2312.0</ele>
        <time>2017-07-23T14:37:06Z</time>
      </trkpt>
      <trkpt lat="44.4104460" lon="7.0040200">
        <ele>2312.2</ele>
        <time>2017-07-23T14:37:08Z</time>
      </trkpt>
      <trkpt lat="44.4104100" lon="7.0039790">
        <ele>2313.0</ele>
        <time>2017-07-23T14:37:12Z</time>
      </trkpt>
      <trkpt lat="44.4103810" lon="7.0039590">
        <ele>2313.8</ele>
        <time>2017-07-23T14:37:15Z</time>
      </trkpt>
      <trkpt lat="44.4103640" lon="7.0039410">
        <ele>2314.2</ele>
        <time>2017-07-23T14:37:17Z</time>
      </trkpt>
      <trkpt lat="44.4103170" lon="7.0038860">
        <ele>2315.4</ele>
        <time>2017-07-23T14:37:23Z</time>
      </trkpt>
      <trkpt lat="44.4102610" lon="7.0037970">
        <ele>2316.4</ele>
        <time>2017-07-23T14:37:32Z</time>
      </trkpt>
      <trkpt lat="44.4102390" lon="7.0037420">
        <ele>2317.6</ele>
        <time>2017-07-23T14:37:37Z</time>
      </trkpt>
      <trkpt lat="44.4102320" lon="7.0036980">
        <ele>2318.2</ele>
        <time>2017-07-23T14:37:40Z</time>
      </trkpt>
      <trkpt lat="44.4102370" lon="7.0036810">
        <ele>2318.4</ele>
        <time>2017-07-23T14:37:41Z</time>
      </trkpt>
      <trkpt lat="44.4102520" lon="7.0036350">
        <ele>2318.6</ele>
        <time>2017-07-23T14:37:44Z</time>
      </trkpt>
      <trkpt lat="44.4102860" lon="7.0035880">
        <ele>2318.6</ele>
        <time>2017-07-23T14:37:49Z</time>
      </trkpt>
      <trkpt lat="44.4103510" lon="7.0035450">
        <ele>2319.2</ele>
        <time>2017-07-23T14:37:56Z</time>
      </trkpt>
      <trkpt lat="44.4103620" lon="7.0035430">
        <ele>2319.2</ele>
        <time>2017-07-23T14:37:57Z</time>
      </trkpt>
      <trkpt lat="44.4103840" lon="7.0035370">
        <ele>2319.0</ele>
        <time>2017-07-23T14:37:59Z</time>
      </trkpt>
      <trkpt lat="44.4104240" lon="7.0035180">
        <ele>2319.2</ele>
        <time>2017-07-23T14:38:03Z</time>
      </trkpt>
      <trkpt lat="44.4104380" lon="7.0035130">
        <ele>2319.2</ele>
        <time>2017-07-23T14:38:04Z</time>
      </trkpt>
      <trkpt lat="44.4104880" lon="7.0034770">
        <ele>2319.4</ele>
        <time>2017-07-23T14:38:09Z</time>
      </trkpt>
      <trkpt lat="44.4105190" lon="7.0034260">
        <ele>2319.6</ele>
        <time>2017-07-23T14:38:14Z</time>
      </trkpt>
      <trkpt lat="44.4105610" lon="7.0034020">
        <ele>2320.0</ele>
        <time>2017-07-23T14:38:18Z</time>
      </trkpt>
      <trkpt lat="44.4106390" lon="7.0033890">
        <ele>2320.4</ele>
        <time>2017-07-23T14:38:27Z</time>
      </trkpt>
      <trkpt lat="44.4106830" lon="7.0034150">
        <ele>2320.6</ele>
        <time>2017-07-23T14:38:31Z</time>
      </trkpt>
      <trkpt lat="44.4107190" lon="7.0034600">
        <ele>2322.4</ele>
        <time>2017-07-23T14:38:39Z</time>
      </trkpt>
      <trkpt lat="44.4107460" lon="7.0035390">
        <ele>2323.6</ele>
        <time>2017-07-23T14:38:43Z</time>
      </trkpt>
      <trkpt lat="44.4107670" lon="7.0035820">
        <ele>2324.4</ele>
        <time>2017-07-23T14:38:45Z</time>
      </trkpt>
      <trkpt lat="44.4107800" lon="7.0036040">
        <ele>2324.6</ele>
        <time>2017-07-23T14:38:46Z</time>
      </trkpt>
      <trkpt lat="44.4107920" lon="7.0036280">
        <ele>2325.0</ele>
        <time>2017-07-23T14:38:47Z</time>
      </trkpt>
      <trkpt lat="44.4108160" lon="7.0036770">
        <ele>2326.4</ele>
        <time>2017-07-23T14:38:49Z</time>
      </trkpt>
      <trkpt lat="44.4108520" lon="7.0037420">
        <ele>2327.8</ele>
        <time>2017-07-23T14:38:52Z</time>
      </trkpt>
      <trkpt lat="44.4108790" lon="7.0037840">
        <ele>2329.0</ele>
        <time>2017-07-23T14:38:54Z</time>
      </trkpt>
      <trkpt lat="44.4109050" lon="7.0038330">
        <ele>2330.2</ele>
        <time>2017-07-23T14:38:56Z</time>
      </trkpt>
      <trkpt lat="44.4109330" lon="7.0038790">
        <ele>2331.4</ele>
        <time>2017-07-23T14:38:58Z</time>
      </trkpt>
      <trkpt lat="44.4109460" lon="7.0039010">
        <ele>2332.2</ele>
        <time>2017-07-23T14:38:59Z</time>
      </trkpt>
      <trkpt lat="44.4109630" lon="7.0039200">
        <ele>2332.8</ele>
        <time>2017-07-23T14:39:00Z</time>
      </trkpt>
      <trkpt lat="44.4109980" lon="7.0039520">
        <ele>2333.8</ele>
        <time>2017-07-23T14:39:02Z</time>
      </trkpt>
      <trkpt lat="44.4110160" lon="7.0039670">
        <ele>2334.2</ele>
        <time>2017-07-23T14:39:03Z</time>
      </trkpt>
      <trkpt lat="44.4110550" lon="7.0039930">
        <ele>2335.2</ele>
        <time>2017-07-23T14:39:05Z</time>
      </trkpt>
      <trkpt lat="44.4110980" lon="7.0040200">
        <ele>2336.2</ele>
        <time>2017-07-23T14:39:07Z</time>
      </trkpt>
      <trkpt lat="44.4111220" lon="7.0040460">
        <ele>2336.8</ele>
        <time>2017-07-23T14:39:08Z</time>
      </trkpt>
      <trkpt lat="44.4111400" lon="7.0040810">
        <ele>2337.0</ele>
        <time>2017-07-23T14:39:09Z</time>
      </trkpt>
      <trkpt lat="44.4111530" lon="7.0041200">
        <ele>2337.4</ele>
        <time>2017-07-23T14:39:10Z</time>
      </trkpt>
      <trkpt lat="44.4111570" lon="7.0042410">
        <ele>2338.8</ele>
        <time>2017-07-23T14:39:13Z</time>
      </trkpt>
      <trkpt lat="44.4111250" lon="7.0043220">
        <ele>2339.8</ele>
        <time>2017-07-23T14:39:16Z</time>
      </trkpt>
      <trkpt lat="44.4111170" lon="7.0043510">
        <ele>2340.0</ele>
        <time>2017-07-23T14:39:17Z</time>
      </trkpt>
      <trkpt lat="44.4111130" lon="7.0043810">
        <ele>2340.0</ele>
        <time>2017-07-23T14:39:18Z</time>
      </trkpt>
      <trkpt lat="44.4111520" lon="7.0045320">
        <ele>2340.6</ele>
        <time>2017-07-23T14:39:23Z</time>
      </trkpt>
      <trkpt lat="44.4111690" lon="7.0045920">
        <ele>2341.0</ele>
        <time>2017-07-23T14:39:25Z</time>
      </trkpt>
      <trkpt lat="44.4112430" lon="7.0047740">
        <ele>2341.8</ele>
        <time>2017-07-23T14:39:31Z</time>
      </trkpt>
      <trkpt lat="44.4112570" lon="7.0048030">
        <ele>2342.0</ele>
        <time>2017-07-23T14:39:32Z</time>
      </trkpt>
      <trkpt lat="44.4113150" lon="7.0049350">
        <ele>2343.2</ele>
        <time>2017-07-23T14:39:37Z</time>
      </trkpt>
      <trkpt lat="44.4114030" lon="7.0050240">
        <ele>2344.4</ele>
        <time>2017-07-23T14:39:42Z</time>
      </trkpt>
      <trkpt lat="44.4114200" lon="7.0050400">
        <ele>2344.8</ele>
        <time>2017-07-23T14:39:43Z</time>
      </trkpt>
      <trkpt lat="44.4114840" lon="7.0050570">
        <ele>2345.6</ele>
        <time>2017-07-23T14:39:46Z</time>
      </trkpt>
      <trkpt lat="44.4115250" lon="7.0050410">
        <ele>2346.0</ele>
        <time>2017-07-23T14:39:48Z</time>
      </trkpt>
      <trkpt lat="44.4115560" lon="7.0050030">
        <ele>2346.4</ele>
        <time>2017-07-23T14:39:50Z</time>
      </trkpt>
      <trkpt lat="44.4115620" lon="7.0049750">
        <ele>2346.6</ele>
        <time>2017-07-23T14:39:51Z</time>
      </trkpt>
      <trkpt lat="44.4115650" lon="7.0049450">
        <ele>2346.8</ele>
        <time>2017-07-23T14:39:52Z</time>
      </trkpt>
      <trkpt lat="44.4115520" lon="7.0048520">
        <ele>2347.8</ele>
        <time>2017-07-23T14:39:55Z</time>
      </trkpt>
      <trkpt lat="44.4115170" lon="7.0047350">
        <ele>2349.2</ele>
        <time>2017-07-23T14:39:59Z</time>
      </trkpt>
      <trkpt lat="44.4115090" lon="7.0046810">
        <ele>2350.2</ele>
        <time>2017-07-23T14:40:01Z</time>
      </trkpt>
      <trkpt lat="44.4114970" lon="7.0045990">
        <ele>2351.8</ele>
        <time>2017-07-23T14:40:04Z</time>
      </trkpt>
      <trkpt lat="44.4114900" lon="7.0045720">
        <ele>2352.2</ele>
        <time>2017-07-23T14:40:05Z</time>
      </trkpt>
      <trkpt lat="44.4114780" lon="7.0045220">
        <ele>2352.8</ele>
        <time>2017-07-23T14:40:07Z</time>
      </trkpt>
      <trkpt lat="44.4114440" lon="7.0043940">
        <ele>2353.4</ele>
        <time>2017-07-23T14:40:12Z</time>
      </trkpt>
      <trkpt lat="44.4114350" lon="7.0041970">
        <ele>2354.0</ele>
        <time>2017-07-23T14:40:19Z</time>
      </trkpt>
      <trkpt lat="44.4114400" lon="7.0041730">
        <ele>2354.2</ele>
        <time>2017-07-23T14:40:20Z</time>
      </trkpt>
      <trkpt lat="44.4115040" lon="7.0040400">
        <ele>2354.8</ele>
        <time>2017-07-23T14:40:26Z</time>
      </trkpt>
      <trkpt lat="44.4115250" lon="7.0040020">
        <ele>2355.0</ele>
        <time>2017-07-23T14:40:28Z</time>
      </trkpt>
      <trkpt lat="44.4115410" lon="7.0039350">
        <ele>2355.2</ele>
        <time>2017-07-23T14:40:31Z</time>
      </trkpt>
      <trkpt lat="44.4116040" lon="7.0037920">
        <ele>2355.0</ele>
        <time>2017-07-23T14:40:38Z</time>
      </trkpt>
      <trkpt lat="44.4116630" lon="7.0036540">
        <ele>2354.0</ele>
        <time>2017-07-23T14:40:45Z</time>
      </trkpt>
      <trkpt lat="44.4116650" lon="7.0035390">
        <ele>2353.0</ele>
        <time>2017-07-23T14:40:50Z</time>
      </trkpt>
      <trkpt lat="44.4116600" lon="7.0035180">
        <ele>2353.0</ele>
        <time>2017-07-23T14:40:51Z</time>
      </trkpt>
      <trkpt lat="44.4116550" lon="7.0034980">
        <ele>2352.8</ele>
        <time>2017-07-23T14:40:52Z</time>
      </trkpt>
      <trkpt lat="44.4116010" lon="7.0033670">
        <ele>2353.2</ele>
        <time>2017-07-23T14:40:59Z</time>
      </trkpt>
      <trkpt lat="44.4115720" lon="7.0033100">
        <ele>2354.0</ele>
        <time>2017-07-23T14:41:02Z</time>
      </trkpt>
      <trkpt lat="44.4115380" lon="7.0032370">
        <ele>2355.0</ele>
        <time>2017-07-23T14:41:06Z</time>
      </trkpt>
      <trkpt lat="44.4115250" lon="7.0031890">
        <ele>2355.6</ele>
        <time>2017-07-23T14:41:08Z</time>
      </trkpt>
      <trkpt lat="44.4115120" lon="7.0031380">
        <ele>2356.0</ele>
        <time>2017-07-23T14:41:10Z</time>
      </trkpt>
      <trkpt lat="44.4114840" lon="7.0030480">
        <ele>2357.4</ele>
        <time>2017-07-23T14:41:14Z</time>
      </trkpt>
      <trkpt lat="44.4114590" lon="7.0029900">
        <ele>2358.4</ele>
        <time>2017-07-23T14:41:17Z</time>
      </trkpt>
      <trkpt lat="44.4114510" lon="7.0029710">
        <ele>2358.8</ele>
        <time>2017-07-23T14:41:18Z</time>
      </trkpt>
      <trkpt lat="44.4114270" lon="7.0029160">
        <ele>2359.6</ele>
        <time>2017-07-23T14:41:21Z</time>
      </trkpt>
      <trkpt lat="44.4114240" lon="7.0028940">
        <ele>2359.8</ele>
        <time>2017-07-23T14:41:22Z</time>
      </trkpt>
      <trkpt lat="44.4114140" lon="7.0028160">
        <ele>2360.8</ele>
        <time>2017-07-23T14:41:26Z</time>
      </trkpt>
      <trkpt lat="44.4114050" lon="7.0027330">
        <ele>2362.2</ele>
        <time>2017-07-23T14:41:30Z</time>
      </trkpt>
      <trkpt lat="44.4114040" lon="7.0026960">
        <ele>2363.2</ele>
        <time>2017-07-23T14:41:32Z</time>
      </trkpt>
      <trkpt lat="44.4114310" lon="7.0025690">
        <ele>2364.2</ele>
        <time>2017-07-23T14:41:39Z</time>
      </trkpt>
      <trkpt lat="44.4114320" lon="7.0025450">
        <ele>2364.4</ele>
        <time>2017-07-23T14:41:40Z</time>
      </trkpt>
      <trkpt lat="44.4114700" lon="7.0024170">
        <ele>2365.0</ele>
        <time>2017-07-23T14:41:45Z</time>
      </trkpt>
      <trkpt lat="44.4115170" lon="7.0023480">
        <ele>2365.4</ele>
        <time>2017-07-23T14:41:47Z</time>
      </trkpt>
      <trkpt lat="44.4115790" lon="7.0022640">
        <ele>2366.0</ele>
        <time>2017-07-23T14:41:49Z</time>
      </trkpt>
      <trkpt lat="44.4116090" lon="7.0022170">
        <ele>2366.2</ele>
        <time>2017-07-23T14:41:50Z</time>
      </trkpt>
      <trkpt lat="44.4116600" lon="7.0021180">
        <ele>2366.6</ele>
        <time>2017-07-23T14:41:52Z</time>
      </trkpt>
      <trkpt lat="44.4117250" lon="7.0020220">
        <ele>2367.0</ele>
        <time>2017-07-23T14:41:54Z</time>
      </trkpt>
      <trkpt lat="44.4117800" lon="7.0019320">
        <ele>2367.2</ele>
        <time>2017-07-23T14:41:56Z</time>
      </trkpt>
      <trkpt lat="44.4118220" lon="7.0018620">
        <ele>2367.2</ele>
        <time>2017-07-23T14:41:58Z</time>
      </trkpt>
      <trkpt lat="44.4118640" lon="7.0018170">
        <ele>2367.0</ele>
        <time>2017-07-23T14:42:00Z</time>
      </trkpt>
      <trkpt lat="44.4119150" lon="7.0017120">
        <ele>2366.0</ele>
        <time>2017-07-23T14:42:02Z</time>
      </trkpt>
      <trkpt lat="44.4119700" lon="7.0016020">
        <ele>2365.4</ele>
        <time>2017-07-23T14:42:04Z</time>
      </trkpt>
      <trkpt lat="44.4120290" lon="7.0014880">
        <ele>2364.6</ele>
        <time>2017-07-23T14:42:06Z</time>
      </trkpt>
      <trkpt lat="44.4120660" lon="7.0014360">
        <ele>2364.2</ele>
        <time>2017-07-23T14:42:07Z</time>
      </trkpt>
      <trkpt lat="44.4121540" lon="7.0012300">
        <ele>2362.8</ele>
        <time>2017-07-23T14:42:10Z</time>
      </trkpt>
      <trkpt lat="44.4122090" lon="7.0010700">
        <ele>2361.8</ele>
        <time>2017-07-23T14:42:12Z</time>
      </trkpt>
      <trkpt lat="44.4122430" lon="7.0009970">
        <ele>2360.8</ele>
        <time>2017-07-23T14:42:13Z</time>
      </trkpt>
      <trkpt lat="44.4122820" lon="7.0009450">
        <ele>2360.0</ele>
        <time>2017-07-23T14:42:14Z</time>
      </trkpt>
      <trkpt lat="44.4123570" lon="7.0009100">
        <ele>2358.2</ele>
        <time>2017-07-23T14:42:16Z</time>
      </trkpt>
      <trkpt lat="44.4123960" lon="7.0009130">
        <ele>2357.2</ele>
        <time>2017-07-23T14:42:17Z</time>
      </trkpt>
      <trkpt lat="44.4124390" lon="7.0009090">
        <ele>2356.4</ele>
        <time>2017-07-23T14:42:18Z</time>
      </trkpt>
      <trkpt lat="44.4124810" lon="7.0008810">
        <ele>2355.4</ele>
        <time>2017-07-23T14:42:19Z</time>
      </trkpt>
      <trkpt lat="44.4125090" lon="7.0008310">
        <ele>2354.2</ele>
        <time>2017-07-23T14:42:20Z</time>
      </trkpt>
      <trkpt lat="44.4125280" lon="7.0007580">
        <ele>2353.0</ele>
        <time>2017-07-23T14:42:21Z</time>
      </trkpt>
      <trkpt lat="44.4125380" lon="7.0006720">
        <ele>2352.0</ele>
        <time>2017-07-23T14:42:22Z</time>
      </trkpt>
      <trkpt lat="44.4125490" lon="7.0005790">
        <ele>2350.6</ele>
        <time>2017-07-23T14:42:23Z</time>
      </trkpt>
      <trkpt lat="44.4125680" lon="7.0004810">
        <ele>2349.2</ele>
        <time>2017-07-23T14:42:24Z</time>
      </trkpt>
      <trkpt lat="44.4125950" lon="7.0003790">
        <ele>2348.0</ele>
        <time>2017-07-23T14:42:25Z</time>
      </trkpt>
      <trkpt lat="44.4126190" lon="7.0002660">
        <ele>2346.0</ele>
        <time>2017-07-23T14:42:26Z</time>
      </trkpt>
      <trkpt lat="44.4126500" lon="7.0001500">
        <ele>2345.0</ele>
        <time>2017-07-23T14:42:27Z</time>
      </trkpt>
      <trkpt lat="44.4126850" lon="7.0000370">
        <ele>2343.8</ele>
        <time>2017-07-23T14:42:28Z</time>
      </trkpt>
      <trkpt lat="44.4127500" lon="6.9998320">
        <ele>2342.2</ele>
        <time>2017-07-23T14:42:30Z</time>
      </trkpt>
      <trkpt lat="44.4127990" lon="6.9996930">
        <ele>2340.6</ele>
        <time>2017-07-23T14:42:32Z</time>
      </trkpt>
      <trkpt lat="44.4128330" lon="6.9995930">
        <ele>2338.8</ele>
        <time>2017-07-23T14:42:34Z</time>
      </trkpt>
      <trkpt lat="44.4128550" lon="6.9995350">
        <ele>2338.0</ele>
        <time>2017-07-23T14:42:35Z</time>
      </trkpt>
      <trkpt lat="44.4128970" lon="6.9994790">
        <ele>2337.2</ele>
        <time>2017-07-23T14:42:36Z</time>
      </trkpt>
      <trkpt lat="44.4129360" lon="6.9994210">
        <ele>2336.0</ele>
        <time>2017-07-23T14:42:37Z</time>
      </trkpt>
      <trkpt lat="44.4129700" lon="6.9993550">
        <ele>2335.0</ele>
        <time>2017-07-23T14:42:38Z</time>
      </trkpt>
      <trkpt lat="44.4130400" lon="6.9991830">
        <ele>2333.0</ele>
        <time>2017-07-23T14:42:40Z</time>
      </trkpt>
      <trkpt lat="44.4130910" lon="6.9990330">
        <ele>2331.0</ele>
        <time>2017-07-23T14:42:42Z</time>
      </trkpt>
      <trkpt lat="44.4131060" lon="6.9989620">
        <ele>2329.8</ele>
        <time>2017-07-23T14:42:43Z</time>
      </trkpt>
      <trkpt lat="44.4131180" lon="6.9989040">
        <ele>2328.8</ele>
        <time>2017-07-23T14:42:44Z</time>
      </trkpt>
      <trkpt lat="44.4131270" lon="6.9988670">
        <ele>2328.0</ele>
        <time>2017-07-23T14:42:45Z</time>
      </trkpt>
      <trkpt lat="44.4131320" lon="6.9987930">
        <ele>2326.0</ele>
        <time>2017-07-23T14:42:47Z</time>
      </trkpt>
      <trkpt lat="44.4131300" lon="6.9987350">
        <ele>2325.0</ele>
        <time>2017-07-23T14:42:48Z</time>
      </trkpt>
      <trkpt lat="44.4131250" lon="6.9986630">
        <ele>2323.8</ele>
        <time>2017-07-23T14:42:49Z</time>
      </trkpt>
      <trkpt lat="44.4131240" lon="6.9985790">
        <ele>2321.8</ele>
        <time>2017-07-23T14:42:50Z</time>
      </trkpt>
      <trkpt lat="44.4131300" lon="6.9984970">
        <ele>2320.8</ele>
        <time>2017-07-23T14:42:51Z</time>
      </trkpt>
      <trkpt lat="44.4131380" lon="6.9984220">
        <ele>2319.6</ele>
        <time>2017-07-23T14:42:52Z</time>
      </trkpt>
      <trkpt lat="44.4131550" lon="6.9982900">
        <ele>2318.0</ele>
        <time>2017-07-23T14:42:54Z</time>
      </trkpt>
      <trkpt lat="44.4131660" lon="6.9981880">
        <ele>2316.4</ele>
        <time>2017-07-23T14:42:56Z</time>
      </trkpt>
      <trkpt lat="44.4131550" lon="6.9981360">
        <ele>2315.4</ele>
        <time>2017-07-23T14:42:57Z</time>
      </trkpt>
      <trkpt lat="44.4131430" lon="6.9980860">
        <ele>2314.4</ele>
        <time>2017-07-23T14:42:58Z</time>
      </trkpt>
      <trkpt lat="44.4131500" lon="6.9979830">
        <ele>2312.6</ele>
        <time>2017-07-23T14:43:00Z</time>
      </trkpt>
      <trkpt lat="44.4131680" lon="6.9979270">
        <ele>2311.6</ele>
        <time>2017-07-23T14:43:01Z</time>
      </trkpt>
      <trkpt lat="44.4131920" lon="6.9978740">
        <ele>2310.8</ele>
        <time>2017-07-23T14:43:02Z</time>
      </trkpt>
      <trkpt lat="44.4132650" lon="6.9977940">
        <ele>2309.4</ele>
        <time>2017-07-23T14:43:04Z</time>
      </trkpt>
      <trkpt lat="44.4132950" lon="6.9977540">
        <ele>2308.6</ele>
        <time>2017-07-23T14:43:05Z</time>
      </trkpt>
      <trkpt lat="44.4133160" lon="6.9977200">
        <ele>2307.8</ele>
        <time>2017-07-23T14:43:06Z</time>
      </trkpt>
      <trkpt lat="44.4133520" lon="6.9976930">
        <ele>2306.0</ele>
        <time>2017-07-23T14:43:08Z</time>
      </trkpt>
      <trkpt lat="44.4133690" lon="6.9976760">
        <ele>2305.4</ele>
        <time>2017-07-23T14:43:09Z</time>
      </trkpt>
      <trkpt lat="44.4133700" lon="6.9976430">
        <ele>2304.8</ele>
        <time>2017-07-23T14:43:10Z</time>
      </trkpt>
      <trkpt lat="44.4133550" lon="6.9976100">
        <ele>2304.2</ele>
        <time>2017-07-23T14:43:11Z</time>
      </trkpt>
      <trkpt lat="44.4133310" lon="6.9975940">
        <ele>2303.2</ele>
        <time>2017-07-23T14:43:12Z</time>
      </trkpt>
      <trkpt lat="44.4132880" lon="6.9976080">
        <ele>2301.4</ele>
        <time>2017-07-23T14:43:14Z</time>
      </trkpt>
      <trkpt lat="44.4132820" lon="6.9975870">
        <ele>2300.4</ele>
        <time>2017-07-23T14:43:15Z</time>
      </trkpt>
      <trkpt lat="44.4132890" lon="6.9975540">
        <ele>2299.6</ele>
        <time>2017-07-23T14:43:16Z</time>
      </trkpt>
      <trkpt lat="44.4133120" lon="6.9975180">
        <ele>2298.6</ele>
        <time>2017-07-23T14:43:17Z</time>
      </trkpt>
      <trkpt lat="44.4133370" lon="6.9974740">
        <ele>2298.0</ele>
        <time>2017-07-23T14:43:18Z</time>
      </trkpt>
      <trkpt lat="44.4133680" lon="6.9974390">
        <ele>2297.2</ele>
        <time>2017-07-23T14:43:19Z</time>
      </trkpt>
      <trkpt lat="44.4134050" lon="6.9974120">
        <ele>2296.6</ele>
        <time>2017-07-23T14:43:20Z</time>
      </trkpt>
      <trkpt lat="44.4134430" lon="6.9973940">
        <ele>2295.8</ele>
        <time>2017-07-23T14:43:21Z</time>
      </trkpt>
      <trkpt lat="44.4135060" lon="6.9973550">
        <ele>2294.2</ele>
        <time>2017-07-23T14:43:23Z</time>
      </trkpt>
      <trkpt lat="44.4135240" lon="6.9972860">
        <ele>2293.0</ele>
        <time>2017-07-23T14:43:25Z</time>
      </trkpt>
      <trkpt lat="44.4135120" lon="6.9972530">
        <ele>2292.2</ele>
        <time>2017-07-23T14:43:26Z</time>
      </trkpt>
      <trkpt lat="44.4135040" lon="6.9972070">
        <ele>2291.4</ele>
        <time>2017-07-23T14:43:27Z</time>
      </trkpt>
      <trkpt lat="44.4135060" lon="6.9971520">
        <ele>2290.4</ele>
        <time>2017-07-23T14:43:28Z</time>
      </trkpt>
      <trkpt lat="44.4135160" lon="6.9970950">
        <ele>2289.4</ele>
        <time>2017-07-23T14:43:29Z</time>
      </trkpt>
      <trkpt lat="44.4135310" lon="6.9970410">
        <ele>2288.6</ele>
        <time>2017-07-23T14:43:30Z</time>
      </trkpt>
      <trkpt lat="44.4135650" lon="6.9969880">
        <ele>2286.8</ele>
        <time>2017-07-23T14:43:32Z</time>
      </trkpt>
      <trkpt lat="44.4135920" lon="6.9969840">
        <ele>2286.0</ele>
        <time>2017-07-23T14:43:33Z</time>
      </trkpt>
      <trkpt lat="44.4136200" lon="6.9969730">
        <ele>2285.0</ele>
        <time>2017-07-23T14:43:34Z</time>
      </trkpt>
      <trkpt lat="44.4136810" lon="6.9969320">
        <ele>2283.2</ele>
        <time>2017-07-23T14:43:36Z</time>
      </trkpt>
      <trkpt lat="44.4137250" lon="6.9968700">
        <ele>2281.2</ele>
        <time>2017-07-23T14:43:38Z</time>
      </trkpt>
      <trkpt lat="44.4137460" lon="6.9968200">
        <ele>2279.4</ele>
        <time>2017-07-23T14:43:40Z</time>
      </trkpt>
      <trkpt lat="44.4137490" lon="6.9967480">
        <ele>2277.8</ele>
        <time>2017-07-23T14:43:42Z</time>
      </trkpt>
      <trkpt lat="44.4137510" lon="6.9966710">
        <ele>2276.4</ele>
        <time>2017-07-23T14:43:44Z</time>
      </trkpt>
      <trkpt lat="44.4137400" lon="6.9965950">
        <ele>2275.0</ele>
        <time>2017-07-23T14:43:46Z</time>
      </trkpt>
      <trkpt lat="44.4137400" lon="6.9965930">
        <ele>2273.8</ele>
        <time>2017-07-23T14:43:48Z</time>
      </trkpt>
      <trkpt lat="44.4138300" lon="6.9966550">
        <ele>2272.6</ele>
        <time>2017-07-23T14:43:51Z</time>
      </trkpt>
      <trkpt lat="44.4138700" lon="6.9966810">
        <ele>2272.0</ele>
        <time>2017-07-23T14:43:52Z</time>
      </trkpt>
      <trkpt lat="44.4139070" lon="6.9967090">
        <ele>2271.2</ele>
        <time>2017-07-23T14:43:53Z</time>
      </trkpt>
      <trkpt lat="44.4140040" lon="6.9967910">
        <ele>2270.0</ele>
        <time>2017-07-23T14:43:56Z</time>
      </trkpt>
      <trkpt lat="44.4140610" lon="6.9968150">
        <ele>2268.6</ele>
        <time>2017-07-23T14:43:59Z</time>
      </trkpt>
      <trkpt lat="44.4140830" lon="6.9968410">
        <ele>2268.2</ele>
        <time>2017-07-23T14:44:00Z</time>
      </trkpt>
      <trkpt lat="44.4141160" lon="6.9968950">
        <ele>2267.2</ele>
        <time>2017-07-23T14:44:02Z</time>
      </trkpt>
      <trkpt lat="44.4141390" lon="6.9969050">
        <ele>2266.6</ele>
        <time>2017-07-23T14:44:03Z</time>
      </trkpt>
      <trkpt lat="44.4141720" lon="6.9968980">
        <ele>2266.2</ele>
        <time>2017-07-23T14:44:04Z</time>
      </trkpt>
      <trkpt lat="44.4142010" lon="6.9968880">
        <ele>2265.6</ele>
        <time>2017-07-23T14:44:05Z</time>
      </trkpt>
      <trkpt lat="44.4142260" lon="6.9968640">
        <ele>2264.8</ele>
        <time>2017-07-23T14:44:06Z</time>
      </trkpt>
      <trkpt lat="44.4142370" lon="6.9968220">
        <ele>2264.2</ele>
        <time>2017-07-23T14:44:07Z</time>
      </trkpt>
      <trkpt lat="44.4142500" lon="6.9967830">
        <ele>2263.4</ele>
        <time>2017-07-23T14:44:08Z</time>
      </trkpt>
      <trkpt lat="44.4142580" lon="6.9967350">
        <ele>2262.6</ele>
        <time>2017-07-23T14:44:09Z</time>
      </trkpt>
      <trkpt lat="44.4142700" lon="6.9966210">
        <ele>2261.4</ele>
        <time>2017-07-23T14:44:11Z</time>
      </trkpt>
      <trkpt lat="44.4142780" lon="6.9965790">
        <ele>2260.8</ele>
        <time>2017-07-23T14:44:12Z</time>
      </trkpt>
      <trkpt lat="44.4142950" lon="6.9965500">
        <ele>2260.0</ele>
        <time>2017-07-23T14:44:13Z</time>
      </trkpt>
      <trkpt lat="44.4143190" lon="6.9965130">
        <ele>2259.2</ele>
        <time>2017-07-23T14:44:14Z</time>
      </trkpt>
      <trkpt lat="44.4143460" lon="6.9964820">
        <ele>2258.4</ele>
        <time>2017-07-23T14:44:15Z</time>
      </trkpt>
      <trkpt lat="44.4143730" lon="6.9964460">
        <ele>2257.6</ele>
        <time>2017-07-23T14:44:16Z</time>
      </trkpt>
      <trkpt lat="44.4144030" lon="6.9964040">
        <ele>2256.8</ele>
        <time>2017-07-23T14:44:17Z</time>
      </trkpt>
      <trkpt lat="44.4144590" lon="6.9962880">
        <ele>2255.0</ele>
        <time>2017-07-23T14:44:19Z</time>
      </trkpt>
      <trkpt lat="44.4144940" lon="6.9962260">
        <ele>2254.2</ele>
        <time>2017-07-23T14:44:20Z</time>
      </trkpt>
      <trkpt lat="44.4145290" lon="6.9961690">
        <ele>2253.2</ele>
        <time>2017-07-23T14:44:21Z</time>
      </trkpt>
      <trkpt lat="44.4145950" lon="6.9960590">
        <ele>2251.2</ele>
        <time>2017-07-23T14:44:23Z</time>
      </trkpt>
      <trkpt lat="44.4146240" lon="6.9960040">
        <ele>2249.8</ele>
        <time>2017-07-23T14:44:24Z</time>
      </trkpt>
      <trkpt lat="44.4146510" lon="6.9959490">
        <ele>2248.6</ele>
        <time>2017-07-23T14:44:25Z</time>
      </trkpt>
      <trkpt lat="44.4146750" lon="6.9958910">
        <ele>2246.4</ele>
        <time>2017-07-23T14:44:26Z</time>
      </trkpt>
      <trkpt lat="44.4147100" lon="6.9958230">
        <ele>2245.4</ele>
        <time>2017-07-23T14:44:27Z</time>
      </trkpt>
      <trkpt lat="44.4147500" lon="6.9957520">
        <ele>2244.0</ele>
        <time>2017-07-23T14:44:28Z</time>
      </trkpt>
      <trkpt lat="44.4147890" lon="6.9956780">
        <ele>2242.2</ele>
        <time>2017-07-23T14:44:29Z</time>
      </trkpt>
      <trkpt lat="44.4148230" lon="6.9956040">
        <ele>2240.8</ele>
        <time>2017-07-23T14:44:30Z</time>
      </trkpt>
      <trkpt lat="44.4148580" lon="6.9955250">
        <ele>2239.2</ele>
        <time>2017-07-23T14:44:31Z</time>
      </trkpt>
      <trkpt lat="44.4148960" lon="6.9954470">
        <ele>2238.0</ele>
        <time>2017-07-23T14:44:32Z</time>
      </trkpt>
      <trkpt lat="44.4149240" lon="6.9953930">
        <ele>2236.6</ele>
        <time>2017-07-23T14:44:33Z</time>
      </trkpt>
      <trkpt lat="44.4149450" lon="6.9953450">
        <ele>2235.2</ele>
        <time>2017-07-23T14:44:34Z</time>
      </trkpt>
      <trkpt lat="44.4149730" lon="6.9953120">
        <ele>2234.0</ele>
        <time>2017-07-23T14:44:35Z</time>
      </trkpt>
      <trkpt lat="44.4150030" lon="6.9953050">
        <ele>2232.8</ele>
        <time>2017-07-23T14:44:36Z</time>
      </trkpt>
      <trkpt lat="44.4150330" lon="6.9953040">
        <ele>2231.6</ele>
        <time>2017-07-23T14:44:37Z</time>
      </trkpt>
      <trkpt lat="44.4150690" lon="6.9953110">
        <ele>2230.6</ele>
        <time>2017-07-23T14:44:38Z</time>
      </trkpt>
      <trkpt lat="44.4151830" lon="6.9953130">
        <ele>2228.4</ele>
        <time>2017-07-23T14:44:40Z</time>
      </trkpt>
      <trkpt lat="44.4152390" lon="6.9952750">
        <ele>2227.2</ele>
        <time>2017-07-23T14:44:41Z</time>
      </trkpt>
      <trkpt lat="44.4152900" lon="6.9952310">
        <ele>2226.2</ele>
        <time>2017-07-23T14:44:42Z</time>
      </trkpt>
      <trkpt lat="44.4153400" lon="6.9951850">
        <ele>2225.2</ele>
        <time>2017-07-23T14:44:43Z</time>
      </trkpt>
      <trkpt lat="44.4153950" lon="6.9951470">
        <ele>2224.2</ele>
        <time>2017-07-23T14:44:44Z</time>
      </trkpt>
      <trkpt lat="44.4154720" lon="6.9950870">
        <ele>2222.4</ele>
        <time>2017-07-23T14:44:46Z</time>
      </trkpt>
      <trkpt lat="44.4154920" lon="6.9950500">
        <ele>2221.6</ele>
        <time>2017-07-23T14:44:47Z</time>
      </trkpt>
      <trkpt lat="44.4155080" lon="6.9949980">
        <ele>2220.8</ele>
        <time>2017-07-23T14:44:48Z</time>
      </trkpt>
      <trkpt lat="44.4155560" lon="6.9948930">
        <ele>2218.8</ele>
        <time>2017-07-23T14:44:50Z</time>
      </trkpt>
      <trkpt lat="44.4155830" lon="6.9948660">
        <ele>2218.0</ele>
        <time>2017-07-23T14:44:51Z</time>
      </trkpt>
      <trkpt lat="44.4156120" lon="6.9948510">
        <ele>2217.2</ele>
        <time>2017-07-23T14:44:52Z</time>
      </trkpt>
      <trkpt lat="44.4156410" lon="6.9948400">
        <ele>2216.6</ele>
        <time>2017-07-23T14:44:53Z</time>
      </trkpt>
      <trkpt lat="44.4156680" lon="6.9948240">
        <ele>2215.8</ele>
        <time>2017-07-23T14:44:54Z</time>
      </trkpt>
      <trkpt lat="44.4156870" lon="6.9947980">
        <ele>2215.2</ele>
        <time>2017-07-23T14:44:55Z</time>
      </trkpt>
      <trkpt lat="44.4157020" lon="6.9947740">
        <ele>2214.6</ele>
        <time>2017-07-23T14:44:56Z</time>
      </trkpt>
      <trkpt lat="44.4157740" lon="6.9947060">
        <ele>2213.4</ele>
        <time>2017-07-23T14:44:59Z</time>
      </trkpt>
      <trkpt lat="44.4158110" lon="6.9946850">
        <ele>2213.4</ele>
        <time>2017-07-23T14:45:00Z</time>
      </trkpt>
      <trkpt lat="44.4158990" lon="6.9945990">
        <ele>2212.8</ele>
        <time>2017-07-23T14:45:03Z</time>
      </trkpt>
      <trkpt lat="44.4159300" lon="6.9945530">
        <ele>2212.6</ele>
        <time>2017-07-23T14:45:04Z</time>
      </trkpt>
      <trkpt lat="44.4160040" lon="6.9944520">
        <ele>2212.6</ele>
        <time>2017-07-23T14:45:06Z</time>
      </trkpt>
      <trkpt lat="44.4160790" lon="6.9943370">
        <ele>2212.8</ele>
        <time>2017-07-23T14:45:08Z</time>
      </trkpt>
      <trkpt lat="44.4161040" lon="6.9942860">
        <ele>2213.0</ele>
        <time>2017-07-23T14:45:09Z</time>
      </trkpt>
      <trkpt lat="44.4161600" lon="6.9942060">
        <ele>2213.4</ele>
        <time>2017-07-23T14:45:11Z</time>
      </trkpt>
      <trkpt lat="44.4162430" lon="6.9941380">
        <ele>2213.4</ele>
        <time>2017-07-23T14:45:14Z</time>
      </trkpt>
      <trkpt lat="44.4162830" lon="6.9941710">
        <ele>2213.2</ele>
        <time>2017-07-23T14:45:15Z</time>
      </trkpt>
      <trkpt lat="44.4163850" lon="6.9942160">
        <ele>2213.2</ele>
        <time>2017-07-23T14:45:17Z</time>
      </trkpt>
      <trkpt lat="44.4164280" lon="6.9942060">
        <ele>2213.0</ele>
        <time>2017-07-23T14:45:18Z</time>
      </trkpt>
      <trkpt lat="44.4165120" lon="6.9941780">
        <ele>2212.4</ele>
        <time>2017-07-23T14:45:20Z</time>
      </trkpt>
      <trkpt lat="44.4165560" lon="6.9941720">
        <ele>2212.0</ele>
        <time>2017-07-23T14:45:21Z</time>
      </trkpt>
      <trkpt lat="44.4167090" lon="6.9941630">
        <ele>2211.2</ele>
        <time>2017-07-23T14:45:24Z</time>
      </trkpt>
      <trkpt lat="44.4167570" lon="6.9941460">
        <ele>2210.6</ele>
        <time>2017-07-23T14:45:25Z</time>
      </trkpt>
      <trkpt lat="44.4168930" lon="6.9940500">
        <ele>2209.8</ele>
        <time>2017-07-23T14:45:28Z</time>
      </trkpt>
      <trkpt lat="44.4169300" lon="6.9940140">
        <ele>2209.6</ele>
        <time>2017-07-23T14:45:29Z</time>
      </trkpt>
      <trkpt lat="44.4170670" lon="6.9938720">
        <ele>2208.4</ele>
        <time>2017-07-23T14:45:33Z</time>
      </trkpt>
      <trkpt lat="44.4171000" lon="6.9938350">
        <ele>2208.2</ele>
        <time>2017-07-23T14:45:34Z</time>
      </trkpt>
      <trkpt lat="44.4171820" lon="6.9937370">
        <ele>2207.2</ele>
        <time>2017-07-23T14:45:37Z</time>
      </trkpt>
      <trkpt lat="44.4172200" lon="6.9937140">
        <ele>2206.6</ele>
        <time>2017-07-23T14:45:38Z</time>
      </trkpt>
      <trkpt lat="44.4172590" lon="6.9936840">
        <ele>2206.4</ele>
        <time>2017-07-23T14:45:39Z</time>
      </trkpt>
      <trkpt lat="44.4173230" lon="6.9936160">
        <ele>2206.0</ele>
        <time>2017-07-23T14:45:41Z</time>
      </trkpt>
      <trkpt lat="44.4174280" lon="6.9935600">
        <ele>2205.8</ele>
        <time>2017-07-23T14:45:44Z</time>
      </trkpt>
      <trkpt lat="44.4174490" lon="6.9935380">
        <ele>2205.8</ele>
        <time>2017-07-23T14:45:45Z</time>
      </trkpt>
      <trkpt lat="44.4174950" lon="6.9934860">
        <ele>2205.4</ele>
        <time>2017-07-23T14:45:47Z</time>
      </trkpt>
      <trkpt lat="44.4175220" lon="6.9934640">
        <ele>2205.0</ele>
        <time>2017-07-23T14:45:48Z</time>
      </trkpt>
      <trkpt lat="44.4176230" lon="6.9933760">
        <ele>2204.0</ele>
        <time>2017-07-23T14:45:52Z</time>
      </trkpt>
      <trkpt lat="44.4176450" lon="6.9933580">
        <ele>2203.6</ele>
        <time>2017-07-23T14:45:53Z</time>
      </trkpt>
      <trkpt lat="44.4176610" lon="6.9933340">
        <ele>2203.0</ele>
        <time>2017-07-23T14:45:54Z</time>
      </trkpt>
      <trkpt lat="44.4176810" lon="6.9933070">
        <ele>2202.4</ele>
        <time>2017-07-23T14:45:55Z</time>
      </trkpt>
      <trkpt lat="44.4176920" lon="6.9932860">
        <ele>2201.8</ele>
        <time>2017-07-23T14:45:56Z</time>
      </trkpt>
      <trkpt lat="44.4176850" lon="6.9932640">
        <ele>2201.0</ele>
        <time>2017-07-23T14:45:57Z</time>
      </trkpt>
      <trkpt lat="44.4176460" lon="6.9931990">
        <ele>2199.4</ele>
        <time>2017-07-23T14:45:59Z</time>
      </trkpt>
      <trkpt lat="44.4175960" lon="6.9931190">
        <ele>2197.8</ele>
        <time>2017-07-23T14:46:01Z</time>
      </trkpt>
      <trkpt lat="44.4175780" lon="6.9930770">
        <ele>2196.2</ele>
        <time>2017-07-23T14:46:02Z</time>
      </trkpt>
      <trkpt lat="44.4175720" lon="6.9930120">
        <ele>2194.8</ele>
        <time>2017-07-23T14:46:04Z</time>
      </trkpt>
      <trkpt lat="44.4176040" lon="6.9929290">
        <ele>2193.2</ele>
        <time>2017-07-23T14:46:06Z</time>
      </trkpt>
      <trkpt lat="44.4176270" lon="6.9928680">
        <ele>2192.2</ele>
        <time>2017-07-23T14:46:07Z</time>
      </trkpt>
      <trkpt lat="44.4176720" lon="6.9927370">
        <ele>2190.6</ele>
        <time>2017-07-23T14:46:09Z</time>
      </trkpt>
      <trkpt lat="44.4176870" lon="6.9926630">
        <ele>2190.0</ele>
        <time>2017-07-23T14:46:10Z</time>
      </trkpt>
      <trkpt lat="44.4177060" lon="6.9925930">
        <ele>2189.2</ele>
        <time>2017-07-23T14:46:11Z</time>
      </trkpt>
      <trkpt lat="44.4177160" lon="6.9925180">
        <ele>2188.2</ele>
        <time>2017-07-23T14:46:12Z</time>
      </trkpt>
      <trkpt lat="44.4177270" lon="6.9924570">
        <ele>2187.4</ele>
        <time>2017-07-23T14:46:13Z</time>
      </trkpt>
      <trkpt lat="44.4177470" lon="6.9924190">
        <ele>2186.6</ele>
        <time>2017-07-23T14:46:14Z</time>
      </trkpt>
      <trkpt lat="44.4177710" lon="6.9923930">
        <ele>2185.8</ele>
        <time>2017-07-23T14:46:15Z</time>
      </trkpt>
      <trkpt lat="44.4177970" lon="6.9923680">
        <ele>2184.8</ele>
        <time>2017-07-23T14:46:16Z</time>
      </trkpt>
      <trkpt lat="44.4178130" lon="6.9923250">
        <ele>2183.8</ele>
        <time>2017-07-23T14:46:17Z</time>
      </trkpt>
      <trkpt lat="44.4178560" lon="6.9922290">
        <ele>2182.2</ele>
        <time>2017-07-23T14:46:19Z</time>
      </trkpt>
      <trkpt lat="44.4178880" lon="6.9921230">
        <ele>2180.6</ele>
        <time>2017-07-23T14:46:21Z</time>
      </trkpt>
      <trkpt lat="44.4179430" lon="6.9920430">
        <ele>2178.8</ele>
        <time>2017-07-23T14:46:23Z</time>
      </trkpt>
      <trkpt lat="44.4180170" lon="6.9919660">
        <ele>2177.2</ele>
        <time>2017-07-23T14:46:25Z</time>
      </trkpt>
      <trkpt lat="44.4180700" lon="6.9919380">
        <ele>2175.8</ele>
        <time>2017-07-23T14:46:26Z</time>
      </trkpt>
      <trkpt lat="44.4181680" lon="6.9918680">
        <ele>2174.0</ele>
        <time>2017-07-23T14:46:28Z</time>
      </trkpt>
      <trkpt lat="44.4182250" lon="6.9918020">
        <ele>2172.6</ele>
        <time>2017-07-23T14:46:30Z</time>
      </trkpt>
      <trkpt lat="44.4182740" lon="6.9917600">
        <ele>2171.8</ele>
        <time>2017-07-23T14:46:32Z</time>
      </trkpt>
      <trkpt lat="44.4183000" lon="6.9917210">
        <ele>2171.4</ele>
        <time>2017-07-23T14:46:33Z</time>
      </trkpt>
      <trkpt lat="44.4183510" lon="6.9916350">
        <ele>2170.4</ele>
        <time>2017-07-23T14:46:35Z</time>
      </trkpt>
      <trkpt lat="44.4183710" lon="6.9915830">
        <ele>2170.0</ele>
        <time>2017-07-23T14:46:36Z</time>
      </trkpt>
      <trkpt lat="44.4183900" lon="6.9914480">
        <ele>2168.6</ele>
        <time>2017-07-23T14:46:38Z</time>
      </trkpt>
      <trkpt lat="44.4184030" lon="6.9913060">
        <ele>2167.2</ele>
        <time>2017-07-23T14:46:40Z</time>
      </trkpt>
      <trkpt lat="44.4184060" lon="6.9912370">
        <ele>2166.6</ele>
        <time>2017-07-23T14:46:41Z</time>
      </trkpt>
      <trkpt lat="44.4183910" lon="6.9911800">
        <ele>2165.8</ele>
        <time>2017-07-23T14:46:42Z</time>
      </trkpt>
      <trkpt lat="44.4183530" lon="6.9911000">
        <ele>2164.2</ele>
        <time>2017-07-23T14:46:44Z</time>
      </trkpt>
      <trkpt lat="44.4183480" lon="6.9910460">
        <ele>2159.8</ele>
        <time>2017-07-23T14:46:51Z</time>
      </trkpt>
      <trkpt lat="44.4183750" lon="6.9909980">
        <ele>2158.8</ele>
        <time>2017-07-23T14:46:53Z</time>
      </trkpt>
      <trkpt lat="44.4184100" lon="6.9909480">
        <ele>2157.8</ele>
        <time>2017-07-23T14:46:55Z</time>
      </trkpt>
      <trkpt lat="44.4184290" lon="6.9909380">
        <ele>2157.2</ele>
        <time>2017-07-23T14:46:56Z</time>
      </trkpt>
      <trkpt lat="44.4184490" lon="6.9909430">
        <ele>2156.8</ele>
        <time>2017-07-23T14:46:57Z</time>
      </trkpt>
      <trkpt lat="44.4184850" lon="6.9909840">
        <ele>2155.6</ele>
        <time>2017-07-23T14:46:59Z</time>
      </trkpt>
      <trkpt lat="44.4185070" lon="6.9910150">
        <ele>2155.4</ele>
        <time>2017-07-23T14:47:00Z</time>
      </trkpt>
      <trkpt lat="44.4185360" lon="6.9910240">
        <ele>2154.8</ele>
        <time>2017-07-23T14:47:02Z</time>
      </trkpt>
      <trkpt lat="44.4185360" lon="6.9909880">
        <ele>2154.2</ele>
        <time>2017-07-23T14:47:03Z</time>
      </trkpt>
      <trkpt lat="44.4185130" lon="6.9908750">
        <ele>2153.0</ele>
        <time>2017-07-23T14:47:05Z</time>
      </trkpt>
      <trkpt lat="44.4184980" lon="6.9907560">
        <ele>2152.0</ele>
        <time>2017-07-23T14:47:07Z</time>
      </trkpt>
      <trkpt lat="44.4184990" lon="6.9906860">
        <ele>2151.4</ele>
        <time>2017-07-23T14:47:08Z</time>
      </trkpt>
      <trkpt lat="44.4185420" lon="6.9905610">
        <ele>2149.6</ele>
        <time>2017-07-23T14:47:10Z</time>
      </trkpt>
      <trkpt lat="44.4185880" lon="6.9904230">
        <ele>2148.2</ele>
        <time>2017-07-23T14:47:12Z</time>
      </trkpt>
      <trkpt lat="44.4185970" lon="6.9903430">
        <ele>2147.2</ele>
        <time>2017-07-23T14:47:13Z</time>
      </trkpt>
      <trkpt lat="44.4186080" lon="6.9902660">
        <ele>2144.8</ele>
        <time>2017-07-23T14:47:14Z</time>
      </trkpt>
      <trkpt lat="44.4186110" lon="6.9901760">
        <ele>2144.0</ele>
        <time>2017-07-23T14:47:15Z</time>
      </trkpt>
      <trkpt lat="44.4186150" lon="6.9900880">
        <ele>2143.6</ele>
        <time>2017-07-23T14:47:16Z</time>
      </trkpt>
      <trkpt lat="44.4186110" lon="6.9899490">
        <ele>2141.8</ele>
        <time>2017-07-23T14:47:18Z</time>
      </trkpt>
      <trkpt lat="44.4186170" lon="6.9898800">
        <ele>2140.8</ele>
        <time>2017-07-23T14:47:19Z</time>
      </trkpt>
      <trkpt lat="44.4186270" lon="6.9898110">
        <ele>2140.0</ele>
        <time>2017-07-23T14:47:20Z</time>
      </trkpt>
      <trkpt lat="44.4186570" lon="6.9896850">
        <ele>2138.2</ele>
        <time>2017-07-23T14:47:22Z</time>
      </trkpt>
      <trkpt lat="44.4186600" lon="6.9896100">
        <ele>2137.2</ele>
        <time>2017-07-23T14:47:23Z</time>
      </trkpt>
      <trkpt lat="44.4186870" lon="6.9895540">
        <ele>2136.4</ele>
        <time>2017-07-23T14:47:24Z</time>
      </trkpt>
      <trkpt lat="44.4187530" lon="6.9894330">
        <ele>2135.0</ele>
        <time>2017-07-23T14:47:26Z</time>
      </trkpt>
      <trkpt lat="44.4187880" lon="6.9893740">
        <ele>2134.6</ele>
        <time>2017-07-23T14:47:27Z</time>
      </trkpt>
      <trkpt lat="44.4188200" lon="6.9893110">
        <ele>2134.2</ele>
        <time>2017-07-23T14:47:28Z</time>
      </trkpt>
      <trkpt lat="44.4188550" lon="6.9892620">
        <ele>2134.0</ele>
        <time>2017-07-23T14:47:29Z</time>
      </trkpt>
      <trkpt lat="44.4189010" lon="6.9891820">
        <ele>2132.4</ele>
        <time>2017-07-23T14:47:31Z</time>
      </trkpt>
      <trkpt lat="44.4189270" lon="6.9891340">
        <ele>2131.8</ele>
        <time>2017-07-23T14:47:32Z</time>
      </trkpt>
      <trkpt lat="44.4189430" lon="6.9890920">
        <ele>2131.4</ele>
        <time>2017-07-23T14:47:33Z</time>
      </trkpt>
      <trkpt lat="44.4189690" lon="6.9890330">
        <ele>2130.0</ele>
        <time>2017-07-23T14:47:35Z</time>
      </trkpt>
      <trkpt lat="44.4189700" lon="6.9890120">
        <ele>2129.2</ele>
        <time>2017-07-23T14:47:36Z</time>
      </trkpt>
      <trkpt lat="44.4189670" lon="6.9889760">
        <ele>2128.4</ele>
        <time>2017-07-23T14:47:37Z</time>
      </trkpt>
      <trkpt lat="44.4189780" lon="6.9889430">
        <ele>2126.8</ele>
        <time>2017-07-23T14:47:38Z</time>
      </trkpt>
      <trkpt lat="44.4190140" lon="6.9888620">
        <ele>2125.2</ele>
        <time>2017-07-23T14:47:40Z</time>
      </trkpt>
      <trkpt lat="44.4190390" lon="6.9888110">
        <ele>2124.4</ele>
        <time>2017-07-23T14:47:41Z</time>
      </trkpt>
      <trkpt lat="44.4190660" lon="6.9887610">
        <ele>2123.6</ele>
        <time>2017-07-23T14:47:42Z</time>
      </trkpt>
      <trkpt lat="44.4191100" lon="6.9886650">
        <ele>2122.0</ele>
        <time>2017-07-23T14:47:44Z</time>
      </trkpt>
      <trkpt lat="44.4191490" lon="6.9885870">
        <ele>2120.6</ele>
        <time>2017-07-23T14:47:46Z</time>
      </trkpt>
      <trkpt lat="44.4191700" lon="6.9885430">
        <ele>2119.8</ele>
        <time>2017-07-23T14:47:47Z</time>
      </trkpt>
      <trkpt lat="44.4191970" lon="6.9884930">
        <ele>2118.8</ele>
        <time>2017-07-23T14:47:48Z</time>
      </trkpt>
      <trkpt lat="44.4192680" lon="6.9883800">
        <ele>2117.2</ele>
        <time>2017-07-23T14:47:50Z</time>
      </trkpt>
      <trkpt lat="44.4193270" lon="6.9882560">
        <ele>2115.4</ele>
        <time>2017-07-23T14:47:52Z</time>
      </trkpt>
      <trkpt lat="44.4193790" lon="6.9881580">
        <ele>2113.8</ele>
        <time>2017-07-23T14:47:54Z</time>
      </trkpt>
      <trkpt lat="44.4194270" lon="6.9880600">
        <ele>2112.2</ele>
        <time>2017-07-23T14:47:56Z</time>
      </trkpt>
      <trkpt lat="44.4194540" lon="6.9880100">
        <ele>2111.2</ele>
        <time>2017-07-23T14:47:57Z</time>
      </trkpt>
      <trkpt lat="44.4194880" lon="6.9879590">
        <ele>2110.2</ele>
        <time>2017-07-23T14:47:58Z</time>
      </trkpt>
      <trkpt lat="44.4195600" lon="6.9878320">
        <ele>2108.2</ele>
        <time>2017-07-23T14:48:00Z</time>
      </trkpt>
      <trkpt lat="44.4195590" lon="6.9877670">
        <ele>2107.6</ele>
        <time>2017-07-23T14:48:01Z</time>
      </trkpt>
      <trkpt lat="44.4195640" lon="6.9876990">
        <ele>2106.0</ele>
        <time>2017-07-23T14:48:02Z</time>
      </trkpt>
      <trkpt lat="44.4195780" lon="6.9875820">
        <ele>2104.4</ele>
        <time>2017-07-23T14:48:04Z</time>
      </trkpt>
      <trkpt lat="44.4196000" lon="6.9875060">
        <ele>2102.4</ele>
        <time>2017-07-23T14:48:06Z</time>
      </trkpt>
      <trkpt lat="44.4196270" lon="6.9874390">
        <ele>2101.0</ele>
        <time>2017-07-23T14:48:08Z</time>
      </trkpt>
      <trkpt lat="44.4196440" lon="6.9873630">
        <ele>2099.4</ele>
        <time>2017-07-23T14:48:10Z</time>
      </trkpt>
      <trkpt lat="44.4196450" lon="6.9873310">
        <ele>2098.6</ele>
        <time>2017-07-23T14:48:11Z</time>
      </trkpt>
      <trkpt lat="44.4196500" lon="6.9873030">
        <ele>2097.6</ele>
        <time>2017-07-23T14:48:12Z</time>
      </trkpt>
      <trkpt lat="44.4196490" lon="6.9872710">
        <ele>2096.6</ele>
        <time>2017-07-23T14:48:13Z</time>
      </trkpt>
      <trkpt lat="44.4196700" lon="6.9872010">
        <ele>2095.2</ele>
        <time>2017-07-23T14:48:15Z</time>
      </trkpt>
      <trkpt lat="44.4196760" lon="6.9871560">
        <ele>2094.2</ele>
        <time>2017-07-23T14:48:16Z</time>
      </trkpt>
      <trkpt lat="44.4196850" lon="6.9871160">
        <ele>2093.4</ele>
        <time>2017-07-23T14:48:17Z</time>
      </trkpt>
      <trkpt lat="44.4197000" lon="6.9870800">
        <ele>2092.4</ele>
        <time>2017-07-23T14:48:18Z</time>
      </trkpt>
      <trkpt lat="44.4197190" lon="6.9870530">
        <ele>2091.6</ele>
        <time>2017-07-23T14:48:19Z</time>
      </trkpt>
      <trkpt lat="44.4197310" lon="6.9870220">
        <ele>2090.6</ele>
        <time>2017-07-23T14:48:20Z</time>
      </trkpt>
      <trkpt lat="44.4197440" lon="6.9869820">
        <ele>2090.0</ele>
        <time>2017-07-23T14:48:21Z</time>
      </trkpt>
      <trkpt lat="44.4197580" lon="6.9869400">
        <ele>2089.2</ele>
        <time>2017-07-23T14:48:22Z</time>
      </trkpt>
      <trkpt lat="44.4197790" lon="6.9869030">
        <ele>2088.4</ele>
        <time>2017-07-23T14:48:23Z</time>
      </trkpt>
      <trkpt lat="44.4198000" lon="6.9868610">
        <ele>2087.4</ele>
        <time>2017-07-23T14:48:24Z</time>
      </trkpt>
      <trkpt lat="44.4198550" lon="6.9867720">
        <ele>2085.2</ele>
        <time>2017-07-23T14:48:26Z</time>
      </trkpt>
      <trkpt lat="44.4199020" lon="6.9866850">
        <ele>2083.8</ele>
        <time>2017-07-23T14:48:28Z</time>
      </trkpt>
      <trkpt lat="44.4199260" lon="6.9866400">
        <ele>2083.2</ele>
        <time>2017-07-23T14:48:29Z</time>
      </trkpt>
      <trkpt lat="44.4199900" lon="6.9865250">
        <ele>2082.4</ele>
        <time>2017-07-23T14:48:31Z</time>
      </trkpt>
      <trkpt lat="44.4200950" lon="6.9863260">
        <ele>2081.0</ele>
        <time>2017-07-23T14:48:34Z</time>
      </trkpt>
      <trkpt lat="44.4201540" lon="6.9862140">
        <ele>2079.8</ele>
        <time>2017-07-23T14:48:36Z</time>
      </trkpt>
      <trkpt lat="44.4201870" lon="6.9861700">
        <ele>2079.4</ele>
        <time>2017-07-23T14:48:37Z</time>
      </trkpt>
      <trkpt lat="44.4202640" lon="6.9861040">
        <ele>2078.4</ele>
        <time>2017-07-23T14:48:40Z</time>
      </trkpt>
      <trkpt lat="44.4203370" lon="6.9860740">
        <ele>2077.0</ele>
        <time>2017-07-23T14:48:43Z</time>
      </trkpt>
      <trkpt lat="44.4203740" lon="6.9860270">
        <ele>2076.0</ele>
        <time>2017-07-23T14:48:45Z</time>
      </trkpt>
      <trkpt lat="44.4203900" lon="6.9859590">
        <ele>2075.0</ele>
        <time>2017-07-23T14:48:47Z</time>
      </trkpt>
      <trkpt lat="44.4204010" lon="6.9858700">
        <ele>2073.0</ele>
        <time>2017-07-23T14:48:50Z</time>
      </trkpt>
      <trkpt lat="44.4204010" lon="6.9858380">
        <ele>2072.4</ele>
        <time>2017-07-23T14:48:51Z</time>
      </trkpt>
      <trkpt lat="44.4204000" lon="6.9858120">
        <ele>2071.4</ele>
        <time>2017-07-23T14:48:52Z</time>
      </trkpt>
      <trkpt lat="44.4204140" lon="6.9857730">
        <ele>2070.0</ele>
        <time>2017-07-23T14:48:54Z</time>
      </trkpt>
      <trkpt lat="44.4204380" lon="6.9857470">
        <ele>2068.8</ele>
        <time>2017-07-23T14:48:56Z</time>
      </trkpt>
      <trkpt lat="44.4204690" lon="6.9856920">
        <ele>2067.6</ele>
        <time>2017-07-23T14:48:58Z</time>
      </trkpt>
      <trkpt lat="44.4205070" lon="6.9856350">
        <ele>2066.0</ele>
        <time>2017-07-23T14:49:01Z</time>
      </trkpt>
      <trkpt lat="44.4205390" lon="6.9856060">
        <ele>2065.0</ele>
        <time>2017-07-23T14:49:03Z</time>
      </trkpt>
      <trkpt lat="44.4205820" lon="6.9855830">
        <ele>2063.8</ele>
        <time>2017-07-23T14:49:05Z</time>
      </trkpt>
      <trkpt lat="44.4206250" lon="6.9855570">
        <ele>2062.8</ele>
        <time>2017-07-23T14:49:07Z</time>
      </trkpt>
      <trkpt lat="44.4206630" lon="6.9855100">
        <ele>2061.8</ele>
        <time>2017-07-23T14:49:09Z</time>
      </trkpt>
      <trkpt lat="44.4206920" lon="6.9854660">
        <ele>2060.4</ele>
        <time>2017-07-23T14:49:11Z</time>
      </trkpt>
      <trkpt lat="44.4207190" lon="6.9854380">
        <ele>2058.8</ele>
        <time>2017-07-23T14:49:13Z</time>
      </trkpt>
      <trkpt lat="44.4207320" lon="6.9854300">
        <ele>2057.4</ele>
        <time>2017-07-23T14:49:14Z</time>
      </trkpt>
      <trkpt lat="44.4207550" lon="6.9854170">
        <ele>2055.8</ele>
        <time>2017-07-23T14:49:16Z</time>
      </trkpt>
      <trkpt lat="44.4207910" lon="6.9854650">
        <ele>2050.4</ele>
        <time>2017-07-23T14:49:27Z</time>
      </trkpt>
      <trkpt lat="44.4208360" lon="6.9854790">
        <ele>2048.8</ele>
        <time>2017-07-23T14:49:30Z</time>
      </trkpt>
      <trkpt lat="44.4208440" lon="6.9854500">
        <ele>2048.2</ele>
        <time>2017-07-23T14:49:31Z</time>
      </trkpt>
      <trkpt lat="44.4208550" lon="6.9854220">
        <ele>2047.6</ele>
        <time>2017-07-23T14:49:32Z</time>
      </trkpt>
      <trkpt lat="44.4208900" lon="6.9853530">
        <ele>2046.4</ele>
        <time>2017-07-23T14:49:34Z</time>
      </trkpt>
      <trkpt lat="44.4209090" lon="6.9853170">
        <ele>2045.6</ele>
        <time>2017-07-23T14:49:35Z</time>
      </trkpt>
      <trkpt lat="44.4209240" lon="6.9852840">
        <ele>2044.8</ele>
        <time>2017-07-23T14:49:36Z</time>
      </trkpt>
      <trkpt lat="44.4209430" lon="6.9852680">
        <ele>2042.8</ele>
        <time>2017-07-23T14:49:38Z</time>
      </trkpt>
      <trkpt lat="44.4209410" lon="6.9852640">
        <ele>2042.2</ele>
        <time>2017-07-23T14:49:39Z</time>
      </trkpt>
      <trkpt lat="44.4210090" lon="6.9854220">
        <ele>2039.4</ele>
        <time>2017-07-23T14:49:48Z</time>
      </trkpt>
      <trkpt lat="44.4210500" lon="6.9855180">
        <ele>2039.4</ele>
        <time>2017-07-23T14:49:50Z</time>
      </trkpt>
      <trkpt lat="44.4210880" lon="6.9855730">
        <ele>2039.0</ele>
        <time>2017-07-23T14:49:52Z</time>
      </trkpt>
      <trkpt lat="44.4211300" lon="6.9855760">
        <ele>2038.2</ele>
        <time>2017-07-23T14:49:54Z</time>
      </trkpt>
      <trkpt lat="44.4211580" lon="6.9855640">
        <ele>2037.2</ele>
        <time>2017-07-23T14:49:56Z</time>
      </trkpt>
      <trkpt lat="44.4211770" lon="6.9855250">
        <ele>2036.4</ele>
        <time>2017-07-23T14:49:58Z</time>
      </trkpt>
      <trkpt lat="44.4211920" lon="6.9855010">
        <ele>2035.6</ele>
        <time>2017-07-23T14:49:59Z</time>
      </trkpt>
      <trkpt lat="44.4212370" lon="6.9854550">
        <ele>2034.2</ele>
        <time>2017-07-23T14:50:01Z</time>
      </trkpt>
      <trkpt lat="44.4212650" lon="6.9854320">
        <ele>2033.2</ele>
        <time>2017-07-23T14:50:02Z</time>
      </trkpt>
      <trkpt lat="44.4213130" lon="6.9853890">
        <ele>2032.2</ele>
        <time>2017-07-23T14:50:04Z</time>
      </trkpt>
      <trkpt lat="44.4213380" lon="6.9853700">
        <ele>2031.4</ele>
        <time>2017-07-23T14:50:05Z</time>
      </trkpt>
      <trkpt lat="44.4213620" lon="6.9853530">
        <ele>2030.6</ele>
        <time>2017-07-23T14:50:06Z</time>
      </trkpt>
      <trkpt lat="44.4213790" lon="6.9852840">
        <ele>2029.2</ele>
        <time>2017-07-23T14:50:08Z</time>
      </trkpt>
      <trkpt lat="44.4213740" lon="6.9852470">
        <ele>2028.4</ele>
        <time>2017-07-23T14:50:09Z</time>
      </trkpt>
      <trkpt lat="44.4213620" lon="6.9852030">
        <ele>2027.8</ele>
        <time>2017-07-23T14:50:10Z</time>
      </trkpt>
      <trkpt lat="44.4213440" lon="6.9851230">
        <ele>2026.6</ele>
        <time>2017-07-23T14:50:12Z</time>
      </trkpt>
      <trkpt lat="44.4213400" lon="6.9850440">
        <ele>2024.0</ele>
        <time>2017-07-23T14:50:17Z</time>
      </trkpt>
      <trkpt lat="44.4213510" lon="6.9850270">
        <ele>2023.2</ele>
        <time>2017-07-23T14:50:18Z</time>
      </trkpt>
      <trkpt lat="44.4213600" lon="6.9850130">
        <ele>2022.4</ele>
        <time>2017-07-23T14:50:19Z</time>
      </trkpt>
      <trkpt lat="44.4213840" lon="6.9850030">
        <ele>2021.2</ele>
        <time>2017-07-23T14:50:21Z</time>
      </trkpt>
      <trkpt lat="44.4214060" lon="6.9849820">
        <ele>2020.0</ele>
        <time>2017-07-23T14:50:23Z</time>
      </trkpt>
      <trkpt lat="44.4214160" lon="6.9849720">
        <ele>2019.4</ele>
        <time>2017-07-23T14:50:24Z</time>
      </trkpt>
      <trkpt lat="44.4214270" lon="6.9849620">
        <ele>2019.0</ele>
        <time>2017-07-23T14:50:25Z</time>
      </trkpt>
      <trkpt lat="44.4214400" lon="6.9849770">
        <ele>2017.8</ele>
        <time>2017-07-23T14:50:26Z</time>
      </trkpt>
      <trkpt lat="44.4215050" lon="6.9849840">
        <ele>2014.6</ele>
        <time>2017-07-23T14:50:31Z</time>
      </trkpt>
      <trkpt lat="44.4214980" lon="6.9849290">
        <ele>2014.0</ele>
        <time>2017-07-23T14:50:32Z</time>
      </trkpt>
      <trkpt lat="44.4215020" lon="6.9849190">
        <ele>2013.6</ele>
        <time>2017-07-23T14:50:33Z</time>
      </trkpt>
      <trkpt lat="44.4215050" lon="6.9848520">
        <ele>2012.2</ele>
        <time>2017-07-23T14:50:35Z</time>
      </trkpt>
      <trkpt lat="44.4214930" lon="6.9847770">
        <ele>2011.0</ele>
        <time>2017-07-23T14:50:37Z</time>
      </trkpt>
      <trkpt lat="44.4215660" lon="6.9848190">
        <ele>2009.0</ele>
        <time>2017-07-23T14:50:41Z</time>
      </trkpt>
      <trkpt lat="44.4216390" lon="6.9848190">
        <ele>2007.6</ele>
        <time>2017-07-23T14:50:43Z</time>
      </trkpt>
      <trkpt lat="44.4216640" lon="6.9848200">
        <ele>2007.2</ele>
        <time>2017-07-23T14:50:44Z</time>
      </trkpt>
      <trkpt lat="44.4217400" lon="6.9848580">
        <ele>2005.6</ele>
        <time>2017-07-23T14:50:47Z</time>
      </trkpt>
      <trkpt lat="44.4218140" lon="6.9848640">
        <ele>2004.4</ele>
        <time>2017-07-23T14:50:49Z</time>
      </trkpt>
      <trkpt lat="44.4218420" lon="6.9848570">
        <ele>2003.2</ele>
        <time>2017-07-23T14:50:50Z</time>
      </trkpt>
      <trkpt lat="44.4218610" lon="6.9848580">
        <ele>2002.0</ele>
        <time>2017-07-23T14:50:51Z</time>
      </trkpt>
      <trkpt lat="44.4218760" lon="6.9848650">
        <ele>1994.8</ele>
        <time>2017-07-23T14:50:52Z</time>
      </trkpt>
      <trkpt lat="44.4218940" lon="6.9848790">
        <ele>1994.6</ele>
        <time>2017-07-23T14:50:53Z</time>
      </trkpt>
      <trkpt lat="44.4219840" lon="6.9850070">
        <ele>1995.6</ele>
        <time>2017-07-23T14:51:39Z</time>
      </trkpt>
      <trkpt lat="44.4220060" lon="6.9849610">
        <ele>1995.2</ele>
        <time>2017-07-23T14:51:41Z</time>
      </trkpt>
      <trkpt lat="44.4220260" lon="6.9848520">
        <ele>1994.0</ele>
        <time>2017-07-23T14:51:45Z</time>
      </trkpt>
      <trkpt lat="44.4220410" lon="6.9848480">
        <ele>1993.8</ele>
        <time>2017-07-23T14:51:46Z</time>
      </trkpt>
      <trkpt lat="44.4220620" lon="6.9847330">
        <ele>1992.6</ele>
        <time>2017-07-23T14:51:50Z</time>
      </trkpt>
      <trkpt lat="44.4220770" lon="6.9847000">
        <ele>1992.4</ele>
        <time>2017-07-23T14:51:51Z</time>
      </trkpt>
      <trkpt lat="44.4221530" lon="6.9846290">
        <ele>1991.4</ele>
        <time>2017-07-23T14:51:53Z</time>
      </trkpt>
      <trkpt lat="44.4222440" lon="6.9845830">
        <ele>1990.6</ele>
        <time>2017-07-23T14:51:55Z</time>
      </trkpt>
      <trkpt lat="44.4222630" lon="6.9845440">
        <ele>1990.2</ele>
        <time>2017-07-23T14:51:56Z</time>
      </trkpt>
      <trkpt lat="44.4223710" lon="6.9844570">
        <ele>1988.8</ele>
        <time>2017-07-23T14:51:59Z</time>
      </trkpt>
      <trkpt lat="44.4223960" lon="6.9844030">
        <ele>1988.4</ele>
        <time>2017-07-23T14:52:00Z</time>
      </trkpt>
      <trkpt lat="44.4224600" lon="6.9843040">
        <ele>1987.2</ele>
        <time>2017-07-23T14:52:02Z</time>
      </trkpt>
      <trkpt lat="44.4225520" lon="6.9841590">
        <ele>1986.0</ele>
        <time>2017-07-23T14:52:05Z</time>
      </trkpt>
      <trkpt lat="44.4225890" lon="6.9841500">
        <ele>1985.6</ele>
        <time>2017-07-23T14:52:06Z</time>
      </trkpt>
      <trkpt lat="44.4226650" lon="6.9841450">
        <ele>1985.0</ele>
        <time>2017-07-23T14:52:08Z</time>
      </trkpt>
      <trkpt lat="44.4227050" lon="6.9841460">
        <ele>1984.6</ele>
        <time>2017-07-23T14:52:09Z</time>
      </trkpt>
      <trkpt lat="44.4227430" lon="6.9841330">
        <ele>1984.0</ele>
        <time>2017-07-23T14:52:10Z</time>
      </trkpt>
      <trkpt lat="44.4228060" lon="6.9840780">
        <ele>1982.6</ele>
        <time>2017-07-23T14:52:12Z</time>
      </trkpt>
      <trkpt lat="44.4228790" lon="6.9840310">
        <ele>1982.0</ele>
        <time>2017-07-23T14:52:14Z</time>
      </trkpt>
      <trkpt lat="44.4229460" lon="6.9839960">
        <ele>1981.0</ele>
        <time>2017-07-23T14:52:16Z</time>
      </trkpt>
      <trkpt lat="44.4229840" lon="6.9839640">
        <ele>1980.2</ele>
        <time>2017-07-23T14:52:17Z</time>
      </trkpt>
      <trkpt lat="44.4230170" lon="6.9839250">
        <ele>1979.6</ele>
        <time>2017-07-23T14:52:18Z</time>
      </trkpt>
      <trkpt lat="44.4230970" lon="6.9838460">
        <ele>1978.4</ele>
        <time>2017-07-23T14:52:20Z</time>
      </trkpt>
      <trkpt lat="44.4231330" lon="6.9838020">
        <ele>1978.0</ele>
        <time>2017-07-23T14:52:21Z</time>
      </trkpt>
      <trkpt lat="44.4231960" lon="6.9837100">
        <ele>1977.2</ele>
        <time>2017-07-23T14:52:23Z</time>
      </trkpt>
      <trkpt lat="44.4232200" lon="6.9836610">
        <ele>1976.8</ele>
        <time>2017-07-23T14:52:24Z</time>
      </trkpt>
      <trkpt lat="44.4232610" lon="6.9835960">
        <ele>1975.6</ele>
        <time>2017-07-23T14:52:26Z</time>
      </trkpt>
      <trkpt lat="44.4233170" lon="6.9835850">
        <ele>1970.8</ele>
        <time>2017-07-23T14:52:36Z</time>
      </trkpt>
      <trkpt lat="44.4233620" lon="6.9835770">
        <ele>1970.0</ele>
        <time>2017-07-23T14:52:38Z</time>
      </trkpt>
      <trkpt lat="44.4233870" lon="6.9835840">
        <ele>1969.4</ele>
        <time>2017-07-23T14:52:39Z</time>
      </trkpt>
      <trkpt lat="44.4234110" lon="6.9835900">
        <ele>1968.8</ele>
        <time>2017-07-23T14:52:40Z</time>
      </trkpt>
      <trkpt lat="44.4234340" lon="6.9835890">
        <ele>1968.2</ele>
        <time>2017-07-23T14:52:41Z</time>
      </trkpt>
      <trkpt lat="44.4234750" lon="6.9835600">
        <ele>1967.0</ele>
        <time>2017-07-23T14:52:43Z</time>
      </trkpt>
      <trkpt lat="44.4234930" lon="6.9835510">
        <ele>1966.6</ele>
        <time>2017-07-23T14:52:44Z</time>
      </trkpt>
      <trkpt lat="44.4235320" lon="6.9835470">
        <ele>1965.6</ele>
        <time>2017-07-23T14:52:46Z</time>
      </trkpt>
      <trkpt lat="44.4235460" lon="6.9835390">
        <ele>1965.2</ele>
        <time>2017-07-23T14:52:47Z</time>
      </trkpt>
      <trkpt lat="44.4235640" lon="6.9835200">
        <ele>1965.0</ele>
        <time>2017-07-23T14:52:48Z</time>
      </trkpt>
      <trkpt lat="44.4235890" lon="6.9834870">
        <ele>1964.4</ele>
        <time>2017-07-23T14:52:49Z</time>
      </trkpt>
      <trkpt lat="44.4236590" lon="6.9834090">
        <ele>1963.0</ele>
        <time>2017-07-23T14:52:51Z</time>
      </trkpt>
      <trkpt lat="44.4237400" lon="6.9833180">
        <ele>1962.2</ele>
        <time>2017-07-23T14:52:53Z</time>
      </trkpt>
      <trkpt lat="44.4237780" lon="6.9832720">
        <ele>1961.8</ele>
        <time>2017-07-23T14:52:54Z</time>
      </trkpt>
      <trkpt lat="44.4238580" lon="6.9831640">
        <ele>1960.8</ele>
        <time>2017-07-23T14:52:56Z</time>
      </trkpt>
      <trkpt lat="44.4239190" lon="6.9830730">
        <ele>1960.2</ele>
        <time>2017-07-23T14:52:58Z</time>
      </trkpt>
      <trkpt lat="44.4239910" lon="6.9830050">
        <ele>1959.8</ele>
        <time>2017-07-23T14:53:00Z</time>
      </trkpt>
      <trkpt lat="44.4240880" lon="6.9829080">
        <ele>1959.2</ele>
        <time>2017-07-23T14:53:02Z</time>
      </trkpt>
      <trkpt lat="44.4241450" lon="6.9828750">
        <ele>1958.8</ele>
        <time>2017-07-23T14:53:03Z</time>
      </trkpt>
      <trkpt lat="44.4241970" lon="6.9828300">
        <ele>1958.4</ele>
        <time>2017-07-23T14:53:04Z</time>
      </trkpt>
      <trkpt lat="44.4242420" lon="6.9827890">
        <ele>1958.0</ele>
        <time>2017-07-23T14:53:05Z</time>
      </trkpt>
      <trkpt lat="44.4242850" lon="6.9827670">
        <ele>1957.8</ele>
        <time>2017-07-23T14:53:06Z</time>
      </trkpt>
      <trkpt lat="44.4243570" lon="6.9827460">
        <ele>1957.2</ele>
        <time>2017-07-23T14:53:08Z</time>
      </trkpt>
      <trkpt lat="44.4244380" lon="6.9827560">
        <ele>1957.2</ele>
        <time>2017-07-23T14:53:11Z</time>
      </trkpt>
      <trkpt lat="44.4244880" lon="6.9827510">
        <ele>1957.0</ele>
        <time>2017-07-23T14:53:13Z</time>
      </trkpt>
      <trkpt lat="44.4245750" lon="6.9827140">
        <ele>1956.2</ele>
        <time>2017-07-23T14:53:16Z</time>
      </trkpt>
      <trkpt lat="44.4246400" lon="6.9826490">
        <ele>1955.4</ele>
        <time>2017-07-23T14:53:18Z</time>
      </trkpt>
      <trkpt lat="44.4247090" lon="6.9825750">
        <ele>1955.0</ele>
        <time>2017-07-23T14:53:20Z</time>
      </trkpt>
      <trkpt lat="44.4247680" lon="6.9824970">
        <ele>1953.4</ele>
        <time>2017-07-23T14:53:23Z</time>
      </trkpt>
      <trkpt lat="44.4247710" lon="6.9824910">
        <ele>1944.2</ele>
        <time>2017-07-23T14:53:37Z</time>
      </trkpt>
      <trkpt lat="44.4247760" lon="6.9824690">
        <ele>1943.2</ele>
        <time>2017-07-23T14:53:38Z</time>
      </trkpt>
      <trkpt lat="44.4247800" lon="6.9824410">
        <ele>1942.8</ele>
        <time>2017-07-23T14:53:39Z</time>
      </trkpt>
      <trkpt lat="44.4247950" lon="6.9823820">
        <ele>1942.0</ele>
        <time>2017-07-23T14:53:41Z</time>
      </trkpt>
      <trkpt lat="44.4248070" lon="6.9823170">
        <ele>1940.8</ele>
        <time>2017-07-23T14:53:43Z</time>
      </trkpt>
      <trkpt lat="44.4248130" lon="6.9822800">
        <ele>1940.4</ele>
        <time>2017-07-23T14:53:44Z</time>
      </trkpt>
      <trkpt lat="44.4248240" lon="6.9822150">
        <ele>1939.8</ele>
        <time>2017-07-23T14:53:46Z</time>
      </trkpt>
      <trkpt lat="44.4248310" lon="6.9821610">
        <ele>1938.8</ele>
        <time>2017-07-23T14:53:48Z</time>
      </trkpt>
      <trkpt lat="44.4249590" lon="6.9816680">
        <ele>1922.4</ele>
        <time>2017-07-23T14:55:13Z</time>
      </trkpt>
      <trkpt lat="44.4249510" lon="6.9815270">
        <ele>1921.0</ele>
        <time>2017-07-23T14:55:16Z</time>
      </trkpt>
      <trkpt lat="44.4249420" lon="6.9814790">
        <ele>1920.8</ele>
        <time>2017-07-23T14:55:17Z</time>
      </trkpt>
      <trkpt lat="44.4249260" lon="6.9813800">
        <ele>1919.8</ele>
        <time>2017-07-23T14:55:19Z</time>
      </trkpt>
      <trkpt lat="44.4249070" lon="6.9812480">
        <ele>1918.8</ele>
        <time>2017-07-23T14:55:22Z</time>
      </trkpt>
      <trkpt lat="44.4248950" lon="6.9812090">
        <ele>1918.2</ele>
        <time>2017-07-23T14:55:23Z</time>
      </trkpt>
      <trkpt lat="44.4248740" lon="6.9811700">
        <ele>1917.6</ele>
        <time>2017-07-23T14:55:24Z</time>
      </trkpt>
      <trkpt lat="44.4248400" lon="6.9811030">
        <ele>1916.4</ele>
        <time>2017-07-23T14:55:26Z</time>
      </trkpt>
      <trkpt lat="44.4247980" lon="6.9810340">
        <ele>1915.2</ele>
        <time>2017-07-23T14:55:28Z</time>
      </trkpt>
      <trkpt lat="44.4247720" lon="6.9809940">
        <ele>1914.8</ele>
        <time>2017-07-23T14:55:29Z</time>
      </trkpt>
      <trkpt lat="44.4247510" lon="6.9809420">
        <ele>1914.0</ele>
        <time>2017-07-23T14:55:30Z</time>
      </trkpt>
      <trkpt lat="44.4247200" lon="6.9808300">
        <ele>1913.0</ele>
        <time>2017-07-23T14:55:32Z</time>
      </trkpt>
      <trkpt lat="44.4247210" lon="6.9807780">
        <ele>1912.4</ele>
        <time>2017-07-23T14:55:33Z</time>
      </trkpt>
      <trkpt lat="44.4247180" lon="6.9807380">
        <ele>1911.8</ele>
        <time>2017-07-23T14:55:34Z</time>
      </trkpt>
      <trkpt lat="44.4247210" lon="6.9807080">
        <ele>1911.4</ele>
        <time>2017-07-23T14:55:35Z</time>
      </trkpt>
      <trkpt lat="44.4247380" lon="6.9807000">
        <ele>1911.0</ele>
        <time>2017-07-23T14:55:36Z</time>
      </trkpt>
      <trkpt lat="44.4247780" lon="6.9807280">
        <ele>1910.6</ele>
        <time>2017-07-23T14:55:39Z</time>
      </trkpt>
      <trkpt lat="44.4248570" lon="6.9807180">
        <ele>1903.0</ele>
        <time>2017-07-23T14:56:05Z</time>
      </trkpt>
      <trkpt lat="44.4248590" lon="6.9806970">
        <ele>1902.6</ele>
        <time>2017-07-23T14:56:06Z</time>
      </trkpt>
      <trkpt lat="44.4248590" lon="6.9806780">
        <ele>1902.0</ele>
        <time>2017-07-23T14:56:07Z</time>
      </trkpt>
      <trkpt lat="44.4248590" lon="6.9806100">
        <ele>1901.0</ele>
        <time>2017-07-23T14:56:09Z</time>
      </trkpt>
      <trkpt lat="44.4248700" lon="6.9805180">
        <ele>1900.0</ele>
        <time>2017-07-23T14:56:11Z</time>
      </trkpt>
      <trkpt lat="44.4248800" lon="6.9804870">
        <ele>1899.2</ele>
        <time>2017-07-23T14:56:12Z</time>
      </trkpt>
      <trkpt lat="44.4249260" lon="6.9803510">
        <ele>1898.2</ele>
        <time>2017-07-23T14:56:15Z</time>
      </trkpt>
      <trkpt lat="44.4249760" lon="6.9802340">
        <ele>1897.0</ele>
        <time>2017-07-23T14:56:17Z</time>
      </trkpt>
      <trkpt lat="44.4250200" lon="6.9801370">
        <ele>1895.8</ele>
        <time>2017-07-23T14:56:19Z</time>
      </trkpt>
      <trkpt lat="44.4250480" lon="6.9800960">
        <ele>1895.4</ele>
        <time>2017-07-23T14:56:20Z</time>
      </trkpt>
      <trkpt lat="44.4250730" lon="6.9800590">
        <ele>1894.8</ele>
        <time>2017-07-23T14:56:21Z</time>
      </trkpt>
      <trkpt lat="44.4251120" lon="6.9799880">
        <ele>1893.8</ele>
        <time>2017-07-23T14:56:23Z</time>
      </trkpt>
      <trkpt lat="44.4251070" lon="6.9799870">
        <ele>1893.2</ele>
        <time>2017-07-23T14:56:24Z</time>
      </trkpt>
      <trkpt lat="44.4251100" lon="6.9799980">
        <ele>1892.8</ele>
        <time>2017-07-23T14:56:25Z</time>
      </trkpt>
      <trkpt lat="44.4251130" lon="6.9800070">
        <ele>1892.4</ele>
        <time>2017-07-23T14:56:26Z</time>
      </trkpt>
      <trkpt lat="44.4251120" lon="6.9800440">
        <ele>1891.6</ele>
        <time>2017-07-23T14:56:29Z</time>
      </trkpt>
      <trkpt lat="44.4251090" lon="6.9800760">
        <ele>1891.2</ele>
        <time>2017-07-23T14:56:30Z</time>
      </trkpt>
      <trkpt lat="44.4251100" lon="6.9802050">
        <ele>1890.6</ele>
        <time>2017-07-23T14:56:33Z</time>
      </trkpt>
      <trkpt lat="44.4251260" lon="6.9802360">
        <ele>1890.4</ele>
        <time>2017-07-23T14:56:34Z</time>
      </trkpt>
      <trkpt lat="44.4251440" lon="6.9802640">
        <ele>1890.0</ele>
        <time>2017-07-23T14:56:35Z</time>
      </trkpt>
      <trkpt lat="44.4251760" lon="6.9802970">
        <ele>1889.6</ele>
        <time>2017-07-23T14:56:37Z</time>
      </trkpt>
      <trkpt lat="44.4252010" lon="6.9802890">
        <ele>1889.2</ele>
        <time>2017-07-23T14:56:38Z</time>
      </trkpt>
      <trkpt lat="44.4252300" lon="6.9802790">
        <ele>1889.0</ele>
        <time>2017-07-23T14:56:39Z</time>
      </trkpt>
      <trkpt lat="44.4252710" lon="6.9802920">
        <ele>1888.0</ele>
        <time>2017-07-23T14:56:40Z</time>
      </trkpt>
      <trkpt lat="44.4253110" lon="6.9803270">
        <ele>1887.8</ele>
        <time>2017-07-23T14:56:41Z</time>
      </trkpt>
      <trkpt lat="44.4253560" lon="6.9803690">
        <ele>1887.4</ele>
        <time>2017-07-23T14:56:42Z</time>
      </trkpt>
      <trkpt lat="44.4255830" lon="6.9804680">
        <ele>1886.2</ele>
        <time>2017-07-23T14:56:46Z</time>
      </trkpt>
      <trkpt lat="44.4258020" lon="6.9803950">
        <ele>1885.0</ele>
        <time>2017-07-23T14:56:49Z</time>
      </trkpt>
      <trkpt lat="44.4258730" lon="6.9803600">
        <ele>1884.6</ele>
        <time>2017-07-23T14:56:50Z</time>
      </trkpt>
      <trkpt lat="44.4260100" lon="6.9802870">
        <ele>1883.6</ele>
        <time>2017-07-23T14:56:52Z</time>
      </trkpt>
      <trkpt lat="44.4262300" lon="6.9802010">
        <ele>1882.0</ele>
        <time>2017-07-23T14:56:55Z</time>
      </trkpt>
      <trkpt lat="44.4263830" lon="6.9801560">
        <ele>1880.8</ele>
        <time>2017-07-23T14:56:57Z</time>
      </trkpt>
      <trkpt lat="44.4264590" lon="6.9801520">
        <ele>1880.4</ele>
        <time>2017-07-23T14:56:58Z</time>
      </trkpt>
      <trkpt lat="44.4265320" lon="6.9801690">
        <ele>1879.8</ele>
        <time>2017-07-23T14:56:59Z</time>
      </trkpt>
      <trkpt lat="44.4266070" lon="6.9801980">
        <ele>1879.2</ele>
        <time>2017-07-23T14:57:00Z</time>
      </trkpt>
      <trkpt lat="44.4266810" lon="6.9802320">
        <ele>1878.4</ele>
        <time>2017-07-23T14:57:01Z</time>
      </trkpt>
      <trkpt lat="44.4268320" lon="6.9803120">
        <ele>1877.2</ele>
        <time>2017-07-23T14:57:03Z</time>
      </trkpt>
      <trkpt lat="44.4269900" lon="6.9803530">
        <ele>1876.2</ele>
        <time>2017-07-23T14:57:05Z</time>
      </trkpt>
      <trkpt lat="44.4272230" lon="6.9802870">
        <ele>1875.0</ele>
        <time>2017-07-23T14:57:08Z</time>
      </trkpt>
      <trkpt lat="44.4274500" lon="6.9801900">
        <ele>1873.8</ele>
        <time>2017-07-23T14:57:11Z</time>
      </trkpt>
      <trkpt lat="44.4276030" lon="6.9801130">
        <ele>1872.8</ele>
        <time>2017-07-23T14:57:13Z</time>
      </trkpt>
      <trkpt lat="44.4277530" lon="6.9800200">
        <ele>1871.2</ele>
        <time>2017-07-23T14:57:15Z</time>
      </trkpt>
      <trkpt lat="44.4278290" lon="6.9799820">
        <ele>1869.6</ele>
        <time>2017-07-23T14:57:16Z</time>
      </trkpt>
      <trkpt lat="44.4279920" lon="6.9799340">
        <ele>1868.2</ele>
        <time>2017-07-23T14:57:18Z</time>
      </trkpt>
      <trkpt lat="44.4280710" lon="6.9799210">
        <ele>1867.4</ele>
        <time>2017-07-23T14:57:19Z</time>
      </trkpt>
      <trkpt lat="44.4281510" lon="6.9799130">
        <ele>1866.4</ele>
        <time>2017-07-23T14:57:20Z</time>
      </trkpt>
      <trkpt lat="44.4283080" lon="6.9798620">
        <ele>1864.6</ele>
        <time>2017-07-23T14:57:22Z</time>
      </trkpt>
      <trkpt lat="44.4283930" lon="6.9798210">
        <ele>1863.6</ele>
        <time>2017-07-23T14:57:23Z</time>
      </trkpt>
      <trkpt lat="44.4284770" lon="6.9797740">
        <ele>1862.6</ele>
        <time>2017-07-23T14:57:24Z</time>
      </trkpt>
      <trkpt lat="44.4286450" lon="6.9796690">
        <ele>1861.2</ele>
        <time>2017-07-23T14:57:26Z</time>
      </trkpt>
      <trkpt lat="44.4287180" lon="6.9796010">
        <ele>1860.6</ele>
        <time>2017-07-23T14:57:27Z</time>
      </trkpt>
      <trkpt lat="44.4287850" lon="6.9795230">
        <ele>1859.4</ele>
        <time>2017-07-23T14:57:28Z</time>
      </trkpt>
      <trkpt lat="44.4288460" lon="6.9794390">
        <ele>1858.4</ele>
        <time>2017-07-23T14:57:29Z</time>
      </trkpt>
      <trkpt lat="44.4289430" lon="6.9792540">
        <ele>1856.8</ele>
        <time>2017-07-23T14:57:31Z</time>
      </trkpt>
      <trkpt lat="44.4289560" lon="6.9791700">
        <ele>1856.2</ele>
        <time>2017-07-23T14:57:32Z</time>
      </trkpt>
      <trkpt lat="44.4289780" lon="6.9791070">
        <ele>1855.4</ele>
        <time>2017-07-23T14:57:33Z</time>
      </trkpt>
      <trkpt lat="44.4290390" lon="6.9790310">
        <ele>1854.4</ele>
        <time>2017-07-23T14:57:35Z</time>
      </trkpt>
      <trkpt lat="44.4291220" lon="6.9790300">
        <ele>1853.2</ele>
        <time>2017-07-23T14:57:37Z</time>
      </trkpt>
      <trkpt lat="44.4291520" lon="6.9790500">
        <ele>1852.0</ele>
        <time>2017-07-23T14:57:39Z</time>
      </trkpt>
      <trkpt lat="44.4291980" lon="6.9790400">
        <ele>1850.6</ele>
        <time>2017-07-23T14:57:41Z</time>
      </trkpt>
      <trkpt lat="44.4292750" lon="6.9789990">
        <ele>1849.6</ele>
        <time>2017-07-23T14:57:43Z</time>
      </trkpt>
      <trkpt lat="44.4293190" lon="6.9789670">
        <ele>1849.2</ele>
        <time>2017-07-23T14:57:44Z</time>
      </trkpt>
      <trkpt lat="44.4294850" lon="6.9788350">
        <ele>1847.8</ele>
        <time>2017-07-23T14:57:47Z</time>
      </trkpt>
      <trkpt lat="44.4296800" lon="6.9786980">
        <ele>1846.4</ele>
        <time>2017-07-23T14:57:50Z</time>
      </trkpt>
      <trkpt lat="44.4298250" lon="6.9786170">
        <ele>1845.4</ele>
        <time>2017-07-23T14:57:52Z</time>
      </trkpt>
      <trkpt lat="44.4299040" lon="6.9785780">
        <ele>1845.2</ele>
        <time>2017-07-23T14:57:53Z</time>
      </trkpt>
      <trkpt lat="44.4301200" lon="6.9784820">
        <ele>1844.4</ele>
        <time>2017-07-23T14:57:56Z</time>
      </trkpt>
      <trkpt lat="44.4301860" lon="6.9784830">
        <ele>1843.8</ele>
        <time>2017-07-23T14:57:57Z</time>
      </trkpt>
      <trkpt lat="44.4302470" lon="6.9785200">
        <ele>1843.4</ele>
        <time>2017-07-23T14:57:58Z</time>
      </trkpt>
      <trkpt lat="44.4303030" lon="6.9785940">
        <ele>1843.0</ele>
        <time>2017-07-23T14:57:59Z</time>
      </trkpt>
      <trkpt lat="44.4303640" lon="6.9787750">
        <ele>1842.8</ele>
        <time>2017-07-23T14:58:01Z</time>
      </trkpt>
      <trkpt lat="44.4304050" lon="6.9789830">
        <ele>1842.4</ele>
        <time>2017-07-23T14:58:03Z</time>
      </trkpt>
      <trkpt lat="44.4304240" lon="6.9790960">
        <ele>1841.6</ele>
        <time>2017-07-23T14:58:04Z</time>
      </trkpt>
      <trkpt lat="44.4304630" lon="6.9793210">
        <ele>1841.6</ele>
        <time>2017-07-23T14:58:06Z</time>
      </trkpt>
      <trkpt lat="44.4305420" lon="6.9796660">
        <ele>1840.4</ele>
        <time>2017-07-23T14:58:09Z</time>
      </trkpt>
      <trkpt lat="44.4306280" lon="6.9798650">
        <ele>1840.0</ele>
        <time>2017-07-23T14:58:11Z</time>
      </trkpt>
      <trkpt lat="44.4307400" lon="6.9799970">
        <ele>1839.0</ele>
        <time>2017-07-23T14:58:13Z</time>
      </trkpt>
      <trkpt lat="44.4308040" lon="6.9800450">
        <ele>1838.2</ele>
        <time>2017-07-23T14:58:14Z</time>
      </trkpt>
      <trkpt lat="44.4308790" lon="6.9800850">
        <ele>1837.2</ele>
        <time>2017-07-23T14:58:15Z</time>
      </trkpt>
      <trkpt lat="44.4310190" lon="6.9802160">
        <ele>1836.0</ele>
        <time>2017-07-23T14:58:17Z</time>
      </trkpt>
      <trkpt lat="44.4310770" lon="6.9803000">
        <ele>1835.4</ele>
        <time>2017-07-23T14:58:18Z</time>
      </trkpt>
      <trkpt lat="44.4311430" lon="6.9803870">
        <ele>1834.6</ele>
        <time>2017-07-23T14:58:19Z</time>
      </trkpt>
      <trkpt lat="44.4312620" lon="6.9805440">
        <ele>1833.0</ele>
        <time>2017-07-23T14:58:21Z</time>
      </trkpt>
      <trkpt lat="44.4313820" lon="6.9806650">
        <ele>1831.6</ele>
        <time>2017-07-23T14:58:23Z</time>
      </trkpt>
      <trkpt lat="44.4314450" lon="6.9807100">
        <ele>1830.8</ele>
        <time>2017-07-23T14:58:24Z</time>
      </trkpt>
      <trkpt lat="44.4315080" lon="6.9807410">
        <ele>1829.8</ele>
        <time>2017-07-23T14:58:25Z</time>
      </trkpt>
      <trkpt lat="44.4316460" lon="6.9807780">
        <ele>1828.0</ele>
        <time>2017-07-23T14:58:27Z</time>
      </trkpt>
      <trkpt lat="44.4317200" lon="6.9808020">
        <ele>1826.8</ele>
        <time>2017-07-23T14:58:28Z</time>
      </trkpt>
      <trkpt lat="44.4318550" lon="6.9808930">
        <ele>1824.8</ele>
        <time>2017-07-23T14:58:30Z</time>
      </trkpt>
      <trkpt lat="44.4319080" lon="6.9809530">
        <ele>1824.2</ele>
        <time>2017-07-23T14:58:31Z</time>
      </trkpt>
      <trkpt lat="44.4319580" lon="6.9810300">
        <ele>1823.4</ele>
        <time>2017-07-23T14:58:32Z</time>
      </trkpt>
      <trkpt lat="44.4320420" lon="6.9811970">
        <ele>1821.6</ele>
        <time>2017-07-23T14:58:34Z</time>
      </trkpt>
      <trkpt lat="44.4320760" lon="6.9813950">
        <ele>1819.8</ele>
        <time>2017-07-23T14:58:36Z</time>
      </trkpt>
      <trkpt lat="44.4320880" lon="6.9814850">
        <ele>1819.2</ele>
        <time>2017-07-23T14:58:37Z</time>
      </trkpt>
      <trkpt lat="44.4321140" lon="6.9815510">
        <ele>1818.2</ele>
        <time>2017-07-23T14:58:38Z</time>
      </trkpt>
      <trkpt lat="44.4321770" lon="6.9816320">
        <ele>1816.2</ele>
        <time>2017-07-23T14:58:40Z</time>
      </trkpt>
      <trkpt lat="44.4321900" lon="6.9816940">
        <ele>1814.6</ele>
        <time>2017-07-23T14:58:42Z</time>
      </trkpt>
      <trkpt lat="44.4321990" lon="6.9817230">
        <ele>1813.8</ele>
        <time>2017-07-23T14:58:43Z</time>
      </trkpt>
      <trkpt lat="44.4322230" lon="6.9817510">
        <ele>1812.8</ele>
        <time>2017-07-23T14:58:44Z</time>
      </trkpt>
      <trkpt lat="44.4322490" lon="6.9817570">
        <ele>1811.6</ele>
        <time>2017-07-23T14:58:45Z</time>
      </trkpt>
      <trkpt lat="44.4322790" lon="6.9817730">
        <ele>1810.6</ele>
        <time>2017-07-23T14:58:46Z</time>
      </trkpt>
      <trkpt lat="44.4323350" lon="6.9818680">
        <ele>1808.8</ele>
        <time>2017-07-23T14:58:48Z</time>
      </trkpt>
      <trkpt lat="44.4323760" lon="6.9819040">
        <ele>1807.8</ele>
        <time>2017-07-23T14:58:49Z</time>
      </trkpt>
      <trkpt lat="44.4324070" lon="6.9819430">
        <ele>1807.0</ele>
        <time>2017-07-23T14:58:50Z</time>
      </trkpt>
      <trkpt lat="44.4324520" lon="6.9820110">
        <ele>1804.4</ele>
        <time>2017-07-23T14:58:52Z</time>
      </trkpt>
      <trkpt lat="44.4324730" lon="6.9820500">
        <ele>1803.2</ele>
        <time>2017-07-23T14:58:53Z</time>
      </trkpt>
      <trkpt lat="44.4324720" lon="6.9821340">
        <ele>1801.4</ele>
        <time>2017-07-23T14:58:55Z</time>
      </trkpt>
      <trkpt lat="44.4324610" lon="6.9821760">
        <ele>1800.6</ele>
        <time>2017-07-23T14:58:56Z</time>
      </trkpt>
      <trkpt lat="44.4324530" lon="6.9822230">
        <ele>1799.8</ele>
        <time>2017-07-23T14:58:57Z</time>
      </trkpt>
      <trkpt lat="44.4324610" lon="6.9822760">
        <ele>1798.8</ele>
        <time>2017-07-23T14:58:58Z</time>
      </trkpt>
      <trkpt lat="44.4324800" lon="6.9823250">
        <ele>1798.0</ele>
        <time>2017-07-23T14:58:59Z</time>
      </trkpt>
      <trkpt lat="44.4325010" lon="6.9823710">
        <ele>1797.0</ele>
        <time>2017-07-23T14:59:00Z</time>
      </trkpt>
      <trkpt lat="44.4325230" lon="6.9824040">
        <ele>1796.0</ele>
        <time>2017-07-23T14:59:01Z</time>
      </trkpt>
      <trkpt lat="44.4325450" lon="6.9824410">
        <ele>1795.2</ele>
        <time>2017-07-23T14:59:02Z</time>
      </trkpt>
      <trkpt lat="44.4325690" lon="6.9824750">
        <ele>1794.2</ele>
        <time>2017-07-23T14:59:03Z</time>
      </trkpt>
      <trkpt lat="44.4326140" lon="6.9825460">
        <ele>1792.2</ele>
        <time>2017-07-23T14:59:05Z</time>
      </trkpt>
      <trkpt lat="44.4326790" lon="6.9825970">
        <ele>1790.2</ele>
        <time>2017-07-23T14:59:07Z</time>
      </trkpt>
      <trkpt lat="44.4327550" lon="6.9826290">
        <ele>1788.6</ele>
        <time>2017-07-23T14:59:09Z</time>
      </trkpt>
      <trkpt lat="44.4328290" lon="6.9826410">
        <ele>1787.2</ele>
        <time>2017-07-23T14:59:11Z</time>
      </trkpt>
      <trkpt lat="44.4329000" lon="6.9826490">
        <ele>1785.4</ele>
        <time>2017-07-23T14:59:13Z</time>
      </trkpt>
      <trkpt lat="44.4329400" lon="6.9826580">
        <ele>1784.2</ele>
        <time>2017-07-23T14:59:14Z</time>
      </trkpt>
      <trkpt lat="44.4329730" lon="6.9826680">
        <ele>1783.0</ele>
        <time>2017-07-23T14:59:15Z</time>
      </trkpt>
      <trkpt lat="44.4330120" lon="6.9826680">
        <ele>1781.2</ele>
        <time>2017-07-23T14:59:16Z</time>
      </trkpt>
      <trkpt lat="44.4330780" lon="6.9826350">
        <ele>1779.4</ele>
        <time>2017-07-23T14:59:18Z</time>
      </trkpt>
      <trkpt lat="44.4331100" lon="6.9826140">
        <ele>1778.2</ele>
        <time>2017-07-23T14:59:19Z</time>
      </trkpt>
      <trkpt lat="44.4331670" lon="6.9826170">
        <ele>1776.2</ele>
        <time>2017-07-23T14:59:21Z</time>
      </trkpt>
      <trkpt lat="44.4332300" lon="6.9826320">
        <ele>1774.4</ele>
        <time>2017-07-23T14:59:23Z</time>
      </trkpt>
      <trkpt lat="44.4332990" lon="6.9826120">
        <ele>1772.4</ele>
        <time>2017-07-23T14:59:25Z</time>
      </trkpt>
      <trkpt lat="44.4333380" lon="6.9825950">
        <ele>1771.4</ele>
        <time>2017-07-23T14:59:26Z</time>
      </trkpt>
      <trkpt lat="44.4333810" lon="6.9825780">
        <ele>1770.4</ele>
        <time>2017-07-23T14:59:27Z</time>
      </trkpt>
      <trkpt lat="44.4334190" lon="6.9825710">
        <ele>1769.4</ele>
        <time>2017-07-23T14:59:28Z</time>
      </trkpt>
      <trkpt lat="44.4334560" lon="6.9825730">
        <ele>1768.4</ele>
        <time>2017-07-23T14:59:29Z</time>
      </trkpt>
      <trkpt lat="44.4335220" lon="6.9825570">
        <ele>1766.6</ele>
        <time>2017-07-23T14:59:31Z</time>
      </trkpt>
      <trkpt lat="44.4335430" lon="6.9825480">
        <ele>1765.8</ele>
        <time>2017-07-23T14:59:32Z</time>
      </trkpt>
      <trkpt lat="44.4335570" lon="6.9825520">
        <ele>1765.0</ele>
        <time>2017-07-23T14:59:33Z</time>
      </trkpt>
      <trkpt lat="44.4335820" lon="6.9825510">
        <ele>1763.4</ele>
        <time>2017-07-23T14:59:35Z</time>
      </trkpt>
      <trkpt lat="44.4335970" lon="6.9825450">
        <ele>1762.6</ele>
        <time>2017-07-23T14:59:36Z</time>
      </trkpt>
      <trkpt lat="44.4336140" lon="6.9825340">
        <ele>1762.0</ele>
        <time>2017-07-23T14:59:37Z</time>
      </trkpt>
      <trkpt lat="44.4336580" lon="6.9825130">
        <ele>1760.8</ele>
        <time>2017-07-23T14:59:39Z</time>
      </trkpt>
      <trkpt lat="44.4336780" lon="6.9825210">
        <ele>1759.2</ele>
        <time>2017-07-23T14:59:40Z</time>
      </trkpt>
      <trkpt lat="44.4337030" lon="6.9825320">
        <ele>1758.4</ele>
        <time>2017-07-23T14:59:41Z</time>
      </trkpt>
      <trkpt lat="44.4337260" lon="6.9825390">
        <ele>1757.6</ele>
        <time>2017-07-23T14:59:42Z</time>
      </trkpt>
      <trkpt lat="44.4337760" lon="6.9825330">
        <ele>1756.0</ele>
        <time>2017-07-23T14:59:44Z</time>
      </trkpt>
      <trkpt lat="44.4338230" lon="6.9825400">
        <ele>1754.8</ele>
        <time>2017-07-23T14:59:46Z</time>
      </trkpt>
      <trkpt lat="44.4338760" lon="6.9825620">
        <ele>1753.6</ele>
        <time>2017-07-23T14:59:48Z</time>
      </trkpt>
      <trkpt lat="44.4339240" lon="6.9825780">
        <ele>1752.4</ele>
        <time>2017-07-23T14:59:50Z</time>
      </trkpt>
      <trkpt lat="44.4339450" lon="6.9825760">
        <ele>1752.0</ele>
        <time>2017-07-23T14:59:51Z</time>
      </trkpt>
      <trkpt lat="44.4339690" lon="6.9825680">
        <ele>1751.2</ele>
        <time>2017-07-23T14:59:52Z</time>
      </trkpt>
      <trkpt lat="44.4340150" lon="6.9825410">
        <ele>1750.0</ele>
        <time>2017-07-23T14:59:54Z</time>
      </trkpt>
      <trkpt lat="44.4340500" lon="6.9825420">
        <ele>1748.8</ele>
        <time>2017-07-23T14:59:56Z</time>
      </trkpt>
      <trkpt lat="44.4340650" lon="6.9825630">
        <ele>1748.2</ele>
        <time>2017-07-23T14:59:57Z</time>
      </trkpt>
      <trkpt lat="44.4340830" lon="6.9825890">
        <ele>1747.8</ele>
        <time>2017-07-23T14:59:58Z</time>
      </trkpt>
      <trkpt lat="44.4341450" lon="6.9826490">
        <ele>1746.4</ele>
        <time>2017-07-23T15:00:00Z</time>
      </trkpt>
      <trkpt lat="44.4341750" lon="6.9827560">
        <ele>1745.2</ele>
        <time>2017-07-23T15:00:02Z</time>
      </trkpt>
      <trkpt lat="44.4342000" lon="6.9828120">
        <ele>1743.4</ele>
        <time>2017-07-23T15:00:04Z</time>
      </trkpt>
      <trkpt lat="44.4342190" lon="6.9828460">
        <ele>1742.4</ele>
        <time>2017-07-23T15:00:06Z</time>
      </trkpt>
      <trkpt lat="44.4342340" lon="6.9828300">
        <ele>1741.6</ele>
        <time>2017-07-23T15:00:07Z</time>
      </trkpt>
      <trkpt lat="44.4342600" lon="6.9827880">
        <ele>1740.6</ele>
        <time>2017-07-23T15:00:09Z</time>
      </trkpt>
      <trkpt lat="44.4343000" lon="6.9827480">
        <ele>1739.4</ele>
        <time>2017-07-23T15:00:11Z</time>
      </trkpt>
      <trkpt lat="44.4343470" lon="6.9827580">
        <ele>1738.6</ele>
        <time>2017-07-23T15:00:13Z</time>
      </trkpt>
      <trkpt lat="44.4343800" lon="6.9827810">
        <ele>1738.0</ele>
        <time>2017-07-23T15:00:14Z</time>
      </trkpt>
      <trkpt lat="44.4344130" lon="6.9828210">
        <ele>1737.4</ele>
        <time>2017-07-23T15:00:15Z</time>
      </trkpt>
      <trkpt lat="44.4344660" lon="6.9828620">
        <ele>1736.6</ele>
        <time>2017-07-23T15:00:16Z</time>
      </trkpt>
      <trkpt lat="44.4345130" lon="6.9829020">
        <ele>1735.8</ele>
        <time>2017-07-23T15:00:17Z</time>
      </trkpt>
      <trkpt lat="44.4345540" lon="6.9829380">
        <ele>1735.2</ele>
        <time>2017-07-23T15:00:18Z</time>
      </trkpt>
      <trkpt lat="44.4345850" lon="6.9829890">
        <ele>1734.8</ele>
        <time>2017-07-23T15:00:19Z</time>
      </trkpt>
      <trkpt lat="44.4346380" lon="6.9830740">
        <ele>1733.6</ele>
        <time>2017-07-23T15:00:21Z</time>
      </trkpt>
      <trkpt lat="44.4347010" lon="6.9831010">
        <ele>1732.2</ele>
        <time>2017-07-23T15:00:23Z</time>
      </trkpt>
      <trkpt lat="44.4347590" lon="6.9830470">
        <ele>1730.8</ele>
        <time>2017-07-23T15:00:25Z</time>
      </trkpt>
      <trkpt lat="44.4347970" lon="6.9829530">
        <ele>1729.6</ele>
        <time>2017-07-23T15:00:27Z</time>
      </trkpt>
      <trkpt lat="44.4348130" lon="6.9829130">
        <ele>1728.0</ele>
        <time>2017-07-23T15:00:28Z</time>
      </trkpt>
      <trkpt lat="44.4348740" lon="6.9829200">
        <ele>1726.4</ele>
        <time>2017-07-23T15:00:30Z</time>
      </trkpt>
      <trkpt lat="44.4349010" lon="6.9829460">
        <ele>1725.8</ele>
        <time>2017-07-23T15:00:31Z</time>
      </trkpt>
      <trkpt lat="44.4349200" lon="6.9830030">
        <ele>1725.0</ele>
        <time>2017-07-23T15:00:32Z</time>
      </trkpt>
      <trkpt lat="44.4349400" lon="6.9830630">
        <ele>1724.4</ele>
        <time>2017-07-23T15:00:33Z</time>
      </trkpt>
      <trkpt lat="44.4349620" lon="6.9831370">
        <ele>1723.6</ele>
        <time>2017-07-23T15:00:34Z</time>
      </trkpt>
      <trkpt lat="44.4350070" lon="6.9832790">
        <ele>1721.8</ele>
        <time>2017-07-23T15:00:36Z</time>
      </trkpt>
      <trkpt lat="44.4350290" lon="6.9833420">
        <ele>1720.8</ele>
        <time>2017-07-23T15:00:37Z</time>
      </trkpt>
      <trkpt lat="44.4350550" lon="6.9833810">
        <ele>1720.0</ele>
        <time>2017-07-23T15:00:38Z</time>
      </trkpt>
      <trkpt lat="44.4350860" lon="6.9834110">
        <ele>1718.8</ele>
        <time>2017-07-23T15:00:39Z</time>
      </trkpt>
      <trkpt lat="44.4351220" lon="6.9834580">
        <ele>1718.0</ele>
        <time>2017-07-23T15:00:40Z</time>
      </trkpt>
      <trkpt lat="44.4351630" lon="6.9835300">
        <ele>1716.8</ele>
        <time>2017-07-23T15:00:41Z</time>
      </trkpt>
      <trkpt lat="44.4352520" lon="6.9836900">
        <ele>1715.0</ele>
        <time>2017-07-23T15:00:43Z</time>
      </trkpt>
      <trkpt lat="44.4353460" lon="6.9838030">
        <ele>1713.2</ele>
        <time>2017-07-23T15:00:45Z</time>
      </trkpt>
      <trkpt lat="44.4354020" lon="6.9838490">
        <ele>1712.2</ele>
        <time>2017-07-23T15:00:46Z</time>
      </trkpt>
      <trkpt lat="44.4354580" lon="6.9839070">
        <ele>1711.0</ele>
        <time>2017-07-23T15:00:47Z</time>
      </trkpt>
      <trkpt lat="44.4355170" lon="6.9839470">
        <ele>1710.0</ele>
        <time>2017-07-23T15:00:48Z</time>
      </trkpt>
      <trkpt lat="44.4355820" lon="6.9839900">
        <ele>1709.0</ele>
        <time>2017-07-23T15:00:49Z</time>
      </trkpt>
      <trkpt lat="44.4356420" lon="6.9840320">
        <ele>1708.2</ele>
        <time>2017-07-23T15:00:50Z</time>
      </trkpt>
      <trkpt lat="44.4357010" lon="6.9840620">
        <ele>1707.2</ele>
        <time>2017-07-23T15:00:51Z</time>
      </trkpt>
      <trkpt lat="44.4357600" lon="6.9840910">
        <ele>1705.4</ele>
        <time>2017-07-23T15:00:52Z</time>
      </trkpt>
      <trkpt lat="44.4358740" lon="6.9841720">
        <ele>1703.6</ele>
        <time>2017-07-23T15:00:54Z</time>
      </trkpt>
      <trkpt lat="44.4359240" lon="6.9842410">
        <ele>1702.6</ele>
        <time>2017-07-23T15:00:55Z</time>
      </trkpt>
      <trkpt lat="44.4359780" lon="6.9843080">
        <ele>1701.8</ele>
        <time>2017-07-23T15:00:56Z</time>
      </trkpt>
      <trkpt lat="44.4360760" lon="6.9844180">
        <ele>1700.0</ele>
        <time>2017-07-23T15:00:58Z</time>
      </trkpt>
      <trkpt lat="44.4360990" lon="6.9844760">
        <ele>1699.4</ele>
        <time>2017-07-23T15:00:59Z</time>
      </trkpt>
      <trkpt lat="44.4361190" lon="6.9845240">
        <ele>1698.6</ele>
        <time>2017-07-23T15:01:00Z</time>
      </trkpt>
      <trkpt lat="44.4361500" lon="6.9846150">
        <ele>1697.0</ele>
        <time>2017-07-23T15:01:02Z</time>
      </trkpt>
      <trkpt lat="44.4361510" lon="6.9847010">
        <ele>1695.6</ele>
        <time>2017-07-23T15:01:04Z</time>
      </trkpt>
      <trkpt lat="44.4361460" lon="6.9847440">
        <ele>1695.0</ele>
        <time>2017-07-23T15:01:05Z</time>
      </trkpt>
      <trkpt lat="44.4361460" lon="6.9847830">
        <ele>1693.8</ele>
        <time>2017-07-23T15:01:06Z</time>
      </trkpt>
      <trkpt lat="44.4361610" lon="6.9848020">
        <ele>1693.0</ele>
        <time>2017-07-23T15:01:07Z</time>
      </trkpt>
      <trkpt lat="44.4361730" lon="6.9848320">
        <ele>1692.2</ele>
        <time>2017-07-23T15:01:08Z</time>
      </trkpt>
      <trkpt lat="44.4361770" lon="6.9849280">
        <ele>1690.6</ele>
        <time>2017-07-23T15:01:10Z</time>
      </trkpt>
      <trkpt lat="44.4361450" lon="6.9850500">
        <ele>1689.2</ele>
        <time>2017-07-23T15:01:12Z</time>
      </trkpt>
      <trkpt lat="44.4361260" lon="6.9851250">
        <ele>1688.6</ele>
        <time>2017-07-23T15:01:13Z</time>
      </trkpt>
      <trkpt lat="44.4361060" lon="6.9852010">
        <ele>1687.6</ele>
        <time>2017-07-23T15:01:14Z</time>
      </trkpt>
      <trkpt lat="44.4360730" lon="6.9853910">
        <ele>1685.4</ele>
        <time>2017-07-23T15:01:16Z</time>
      </trkpt>
      <trkpt lat="44.4360620" lon="6.9854930">
        <ele>1684.6</ele>
        <time>2017-07-23T15:01:17Z</time>
      </trkpt>
      <trkpt lat="44.4360510" lon="6.9855690">
        <ele>1683.6</ele>
        <time>2017-07-23T15:01:18Z</time>
      </trkpt>
      <trkpt lat="44.4360330" lon="6.9855960">
        <ele>1682.0</ele>
        <time>2017-07-23T15:01:20Z</time>
      </trkpt>
      <trkpt lat="44.4360080" lon="6.9855940">
        <ele>1681.2</ele>
        <time>2017-07-23T15:01:21Z</time>
      </trkpt>
      <trkpt lat="44.4359710" lon="6.9855980">
        <ele>1680.4</ele>
        <time>2017-07-23T15:01:22Z</time>
      </trkpt>
      <trkpt lat="44.4359250" lon="6.9856100">
        <ele>1679.8</ele>
        <time>2017-07-23T15:01:23Z</time>
      </trkpt>
      <trkpt lat="44.4358790" lon="6.9856260">
        <ele>1678.8</ele>
        <time>2017-07-23T15:01:24Z</time>
      </trkpt>
      <trkpt lat="44.4358310" lon="6.9856590">
        <ele>1678.2</ele>
        <time>2017-07-23T15:01:25Z</time>
      </trkpt>
      <trkpt lat="44.4357860" lon="6.9857110">
        <ele>1677.2</ele>
        <time>2017-07-23T15:01:26Z</time>
      </trkpt>
      <trkpt lat="44.4357530" lon="6.9857720">
        <ele>1676.6</ele>
        <time>2017-07-23T15:01:27Z</time>
      </trkpt>
      <trkpt lat="44.4357300" lon="6.9858420">
        <ele>1676.0</ele>
        <time>2017-07-23T15:01:28Z</time>
      </trkpt>
      <trkpt lat="44.4357100" lon="6.9859540">
        <ele>1675.2</ele>
        <time>2017-07-23T15:01:30Z</time>
      </trkpt>
      <trkpt lat="44.4357110" lon="6.9859890">
        <ele>1674.8</ele>
        <time>2017-07-23T15:01:31Z</time>
      </trkpt>
      <trkpt lat="44.4357280" lon="6.9860490">
        <ele>1674.4</ele>
        <time>2017-07-23T15:01:33Z</time>
      </trkpt>
      <trkpt lat="44.4357400" lon="6.9860820">
        <ele>1674.2</ele>
        <time>2017-07-23T15:01:34Z</time>
      </trkpt>
      <trkpt lat="44.4357620" lon="6.9861340">
        <ele>1673.8</ele>
        <time>2017-07-23T15:01:36Z</time>
      </trkpt>
      <trkpt lat="44.4358200" lon="6.9860210">
        <ele>1664.8</ele>
        <time>2017-07-23T15:08:30Z</time>
      </trkpt>
      <trkpt lat="44.4358090" lon="6.9860020">
        <ele>1664.6</ele>
        <time>2017-07-23T15:08:31Z</time>
      </trkpt>
      <trkpt lat="44.4357960" lon="6.9859880">
        <ele>1664.6</ele>
        <time>2017-07-23T15:08:32Z</time>
      </trkpt>
      <trkpt lat="44.4357750" lon="6.9859550">
        <ele>1664.2</ele>
        <time>2017-07-23T15:08:35Z</time>
      </trkpt>
      <trkpt lat="44.4357900" lon="6.9859180">
        <ele>1664.2</ele>
        <time>2017-07-23T15:08:37Z</time>
      </trkpt>
      <trkpt lat="44.4357920" lon="6.9859060">
        <ele>1664.4</ele>
        <time>2017-07-23T15:08:38Z</time>
      </trkpt>
      <trkpt lat="44.4358160" lon="6.9858750">
        <ele>1664.8</ele>
        <time>2017-07-23T15:08:41Z</time>
      </trkpt>
      <trkpt lat="44.4358260" lon="6.9858650">
        <ele>1665.0</ele>
        <time>2017-07-23T15:08:42Z</time>
      </trkpt>
      <trkpt lat="44.4358630" lon="6.9858780">
        <ele>1665.2</ele>
        <time>2017-07-23T15:08:44Z</time>
      </trkpt>
      <trkpt lat="44.4359220" lon="6.9859310">
        <ele>1665.8</ele>
        <time>2017-07-23T15:08:46Z</time>
      </trkpt>
      <trkpt lat="44.4359360" lon="6.9859300">
        <ele>1666.2</ele>
        <time>2017-07-23T15:08:47Z</time>
      </trkpt>
      <trkpt lat="44.4359750" lon="6.9859110">
        <ele>1667.2</ele>
        <time>2017-07-23T15:08:49Z</time>
      </trkpt>
      <trkpt lat="44.4360450" lon="6.9857710">
        <ele>1668.2</ele>
        <time>2017-07-23T15:08:53Z</time>
      </trkpt>
      <trkpt lat="44.4360430" lon="6.9856830">
        <ele>1668.2</ele>
        <time>2017-07-23T15:08:55Z</time>
      </trkpt>
      <trkpt lat="44.4360320" lon="6.9856240">
        <ele>1668.6</ele>
        <time>2017-07-23T15:08:58Z</time>
      </trkpt>
      <trkpt lat="44.4360230" lon="6.9855330">
        <ele>1668.2</ele>
        <time>2017-07-23T15:09:04Z</time>
      </trkpt>
      <trkpt lat="44.4360420" lon="6.9854930">
        <ele>1668.0</ele>
        <time>2017-07-23T15:09:05Z</time>
      </trkpt>
      <trkpt lat="44.4360660" lon="6.9853470">
        <ele>1667.4</ele>
        <time>2017-07-23T15:09:09Z</time>
      </trkpt>
      <trkpt lat="44.4360770" lon="6.9852730">
        <ele>1667.4</ele>
        <time>2017-07-23T15:09:11Z</time>
      </trkpt>
      <trkpt lat="44.4360810" lon="6.9852370">
        <ele>1667.2</ele>
        <time>2017-07-23T15:09:12Z</time>
      </trkpt>
      <trkpt lat="44.4360900" lon="6.9850850">
        <ele>1668.0</ele>
        <time>2017-07-23T15:09:17Z</time>
      </trkpt>
      <trkpt lat="44.4360880" lon="6.9850570">
        <ele>1668.0</ele>
        <time>2017-07-23T15:09:18Z</time>
      </trkpt>
      <trkpt lat="44.4360910" lon="6.9850280">
        <ele>1668.2</ele>
        <time>2017-07-23T15:09:19Z</time>
      </trkpt>
      <trkpt lat="44.4361130" lon="6.9849180">
        <ele>1669.2</ele>
        <time>2017-07-23T15:09:23Z</time>
      </trkpt>
      <trkpt lat="44.4361230" lon="6.9848930">
        <ele>1669.4</ele>
        <time>2017-07-23T15:09:24Z</time>
      </trkpt>
      <trkpt lat="44.4361770" lon="6.9848000">
        <ele>1670.0</ele>
        <time>2017-07-23T15:09:28Z</time>
      </trkpt>
      <trkpt lat="44.4361950" lon="6.9847620">
        <ele>1670.6</ele>
        <time>2017-07-23T15:09:30Z</time>
      </trkpt>
      <trkpt lat="44.4362030" lon="6.9847400">
        <ele>1670.8</ele>
        <time>2017-07-23T15:09:31Z</time>
      </trkpt>
      <trkpt lat="44.4362530" lon="6.9846700">
        <ele>1671.6</ele>
        <time>2017-07-23T15:09:35Z</time>
      </trkpt>
      <trkpt lat="44.4362950" lon="6.9846340">
        <ele>1672.2</ele>
        <time>2017-07-23T15:09:38Z</time>
      </trkpt>
      <trkpt lat="44.4363120" lon="6.9846310">
        <ele>1672.4</ele>
        <time>2017-07-23T15:09:39Z</time>
      </trkpt>
      <trkpt lat="44.4363270" lon="6.9846230">
        <ele>1672.6</ele>
        <time>2017-07-23T15:09:40Z</time>
      </trkpt>
      <trkpt lat="44.4363820" lon="6.9846070">
        <ele>1673.6</ele>
        <time>2017-07-23T15:09:44Z</time>
      </trkpt>
      <trkpt lat="44.4364750" lon="6.9845970">
        <ele>1674.8</ele>
        <time>2017-07-23T15:09:50Z</time>
      </trkpt>
      <trkpt lat="44.4364880" lon="6.9846000">
        <ele>1674.8</ele>
        <time>2017-07-23T15:09:51Z</time>
      </trkpt>
      <trkpt lat="44.4365870" lon="6.9846080">
        <ele>1675.4</ele>
        <time>2017-07-23T15:09:57Z</time>
      </trkpt>
      <trkpt lat="44.4366490" lon="6.9846210">
        <ele>1675.8</ele>
        <time>2017-07-23T15:10:00Z</time>
      </trkpt>
      <trkpt lat="44.4367200" lon="6.9846390">
        <ele>1676.4</ele>
        <time>2017-07-23T15:10:04Z</time>
      </trkpt>
      <trkpt lat="44.4368150" lon="6.9846800">
        <ele>1677.0</ele>
        <time>2017-07-23T15:10:09Z</time>
      </trkpt>
      <trkpt lat="44.4368510" lon="6.9846900">
        <ele>1677.2</ele>
        <time>2017-07-23T15:10:11Z</time>
      </trkpt>
      <trkpt lat="44.4369260" lon="6.9847160">
        <ele>1678.2</ele>
        <time>2017-07-23T15:10:16Z</time>
      </trkpt>
      <trkpt lat="44.4369640" lon="6.9847320">
        <ele>1678.4</ele>
        <time>2017-07-23T15:10:18Z</time>
      </trkpt>
      <trkpt lat="44.4370400" lon="6.9847780">
        <ele>1679.4</ele>
        <time>2017-07-23T15:10:22Z</time>
      </trkpt>
      <trkpt lat="44.4371190" lon="6.9848050">
        <ele>1680.6</ele>
        <time>2017-07-23T15:10:27Z</time>
      </trkpt>
      <trkpt lat="44.4371640" lon="6.9848180">
        <ele>1681.6</ele>
        <time>2017-07-23T15:10:30Z</time>
      </trkpt>
      <trkpt lat="44.4372260" lon="6.9848470">
        <ele>1682.4</ele>
        <time>2017-07-23T15:10:33Z</time>
      </trkpt>
      <trkpt lat="44.4372500" lon="6.9848540">
        <ele>1682.6</ele>
        <time>2017-07-23T15:10:34Z</time>
      </trkpt>
      <trkpt lat="44.4373120" lon="6.9848670">
        <ele>1683.8</ele>
        <time>2017-07-23T15:10:37Z</time>
      </trkpt>
      <trkpt lat="44.4373810" lon="6.9848710">
        <ele>1684.8</ele>
        <time>2017-07-23T15:10:40Z</time>
      </trkpt>
      <trkpt lat="44.4374600" lon="6.9848740">
        <ele>1685.2</ele>
        <time>2017-07-23T15:10:44Z</time>
      </trkpt>
      <trkpt lat="44.4374890" lon="6.9848740">
        <ele>1685.6</ele>
        <time>2017-07-23T15:10:46Z</time>
      </trkpt>
      <trkpt lat="44.4375110" lon="6.9848770">
        <ele>1685.8</ele>
        <time>2017-07-23T15:10:47Z</time>
      </trkpt>
      <trkpt lat="44.4375410" lon="6.9849050">
        <ele>1686.0</ele>
        <time>2017-07-23T15:10:48Z</time>
      </trkpt>
      <trkpt lat="44.4376240" lon="6.9849600">
        <ele>1686.2</ele>
        <time>2017-07-23T15:10:50Z</time>
      </trkpt>
      <trkpt lat="44.4376660" lon="6.9850020">
        <ele>1686.4</ele>
        <time>2017-07-23T15:10:51Z</time>
      </trkpt>
      <trkpt lat="44.4377910" lon="6.9851140">
        <ele>1685.8</ele>
        <time>2017-07-23T15:10:54Z</time>
      </trkpt>
      <trkpt lat="44.4378780" lon="6.9851930">
        <ele>1686.0</ele>
        <time>2017-07-23T15:10:56Z</time>
      </trkpt>
      <trkpt lat="44.4380270" lon="6.9853180">
        <ele>1685.4</ele>
        <time>2017-07-23T15:10:59Z</time>
      </trkpt>
      <trkpt lat="44.4380790" lon="6.9853690">
        <ele>1685.2</ele>
        <time>2017-07-23T15:11:00Z</time>
      </trkpt>
      <trkpt lat="44.4381890" lon="6.9854590">
        <ele>1684.8</ele>
        <time>2017-07-23T15:11:02Z</time>
      </trkpt>
      <trkpt lat="44.4383510" lon="6.9856310">
        <ele>1684.2</ele>
        <time>2017-07-23T15:11:05Z</time>
      </trkpt>
      <trkpt lat="44.4384590" lon="6.9857530">
        <ele>1683.6</ele>
        <time>2017-07-23T15:11:07Z</time>
      </trkpt>
      <trkpt lat="44.4385570" lon="6.9858990">
        <ele>1682.4</ele>
        <time>2017-07-23T15:11:09Z</time>
      </trkpt>
      <trkpt lat="44.4385940" lon="6.9859850">
        <ele>1681.6</ele>
        <time>2017-07-23T15:11:10Z</time>
      </trkpt>
      <trkpt lat="44.4386250" lon="6.9860810">
        <ele>1681.4</ele>
        <time>2017-07-23T15:11:11Z</time>
      </trkpt>
      <trkpt lat="44.4386560" lon="6.9861750">
        <ele>1681.0</ele>
        <time>2017-07-23T15:11:12Z</time>
      </trkpt>
      <trkpt lat="44.4387210" lon="6.9863580">
        <ele>1680.0</ele>
        <time>2017-07-23T15:11:14Z</time>
      </trkpt>
      <trkpt lat="44.4388030" lon="6.9865280">
        <ele>1679.2</ele>
        <time>2017-07-23T15:11:16Z</time>
      </trkpt>
      <trkpt lat="44.4388480" lon="6.9866180">
        <ele>1678.0</ele>
        <time>2017-07-23T15:11:17Z</time>
      </trkpt>
      <trkpt lat="44.4389520" lon="6.9868040">
        <ele>1676.6</ele>
        <time>2017-07-23T15:11:19Z</time>
      </trkpt>
      <trkpt lat="44.4390640" lon="6.9869940">
        <ele>1675.0</ele>
        <time>2017-07-23T15:11:21Z</time>
      </trkpt>
      <trkpt lat="44.4391880" lon="6.9871760">
        <ele>1673.4</ele>
        <time>2017-07-23T15:11:23Z</time>
      </trkpt>
      <trkpt lat="44.4393240" lon="6.9873500">
        <ele>1671.6</ele>
        <time>2017-07-23T15:11:25Z</time>
      </trkpt>
      <trkpt lat="44.4394640" lon="6.9874970">
        <ele>1669.8</ele>
        <time>2017-07-23T15:11:27Z</time>
      </trkpt>
      <trkpt lat="44.4395320" lon="6.9875720">
        <ele>1668.8</ele>
        <time>2017-07-23T15:11:28Z</time>
      </trkpt>
      <trkpt lat="44.4396790" lon="6.9877160">
        <ele>1667.0</ele>
        <time>2017-07-23T15:11:30Z</time>
      </trkpt>
      <trkpt lat="44.4398520" lon="6.9878450">
        <ele>1665.0</ele>
        <time>2017-07-23T15:11:32Z</time>
      </trkpt>
      <trkpt lat="44.4399420" lon="6.9879010">
        <ele>1664.2</ele>
        <time>2017-07-23T15:11:33Z</time>
      </trkpt>
      <trkpt lat="44.4400330" lon="6.9879390">
        <ele>1663.2</ele>
        <time>2017-07-23T15:11:34Z</time>
      </trkpt>
      <trkpt lat="44.4401230" lon="6.9879760">
        <ele>1662.0</ele>
        <time>2017-07-23T15:11:35Z</time>
      </trkpt>
      <trkpt lat="44.4402010" lon="6.9880390">
        <ele>1661.0</ele>
        <time>2017-07-23T15:11:36Z</time>
      </trkpt>
      <trkpt lat="44.4402710" lon="6.9881300">
        <ele>1660.2</ele>
        <time>2017-07-23T15:11:37Z</time>
      </trkpt>
      <trkpt lat="44.4403480" lon="6.9883560">
        <ele>1658.6</ele>
        <time>2017-07-23T15:11:39Z</time>
      </trkpt>
      <trkpt lat="44.4404570" lon="6.9885170">
        <ele>1655.6</ele>
        <time>2017-07-23T15:11:41Z</time>
      </trkpt>
      <trkpt lat="44.4405250" lon="6.9885620">
        <ele>1654.8</ele>
        <time>2017-07-23T15:11:42Z</time>
      </trkpt>
      <trkpt lat="44.4405950" lon="6.9885660">
        <ele>1653.4</ele>
        <time>2017-07-23T15:11:43Z</time>
      </trkpt>
      <trkpt lat="44.4406580" lon="6.9885230">
        <ele>1652.4</ele>
        <time>2017-07-23T15:11:44Z</time>
      </trkpt>
      <trkpt lat="44.4407100" lon="6.9884590">
        <ele>1651.2</ele>
        <time>2017-07-23T15:11:45Z</time>
      </trkpt>
      <trkpt lat="44.4407770" lon="6.9883630">
        <ele>1649.4</ele>
        <time>2017-07-23T15:11:47Z</time>
      </trkpt>
      <trkpt lat="44.4407980" lon="6.9883740">
        <ele>1648.4</ele>
        <time>2017-07-23T15:11:48Z</time>
      </trkpt>
      <trkpt lat="44.4408140" lon="6.9883720">
        <ele>1647.4</ele>
        <time>2017-07-23T15:11:49Z</time>
      </trkpt>
      <trkpt lat="44.4408510" lon="6.9883680">
        <ele>1643.6</ele>
        <time>2017-07-23T15:11:53Z</time>
      </trkpt>
      <trkpt lat="44.4408760" lon="6.9883610">
        <ele>1642.8</ele>
        <time>2017-07-23T15:11:54Z</time>
      </trkpt>
      <trkpt lat="44.4409040" lon="6.9883640">
        <ele>1641.8</ele>
        <time>2017-07-23T15:11:55Z</time>
      </trkpt>
      <trkpt lat="44.4409690" lon="6.9884370">
        <ele>1640.0</ele>
        <time>2017-07-23T15:11:57Z</time>
      </trkpt>
      <trkpt lat="44.4409980" lon="6.9885010">
        <ele>1639.2</ele>
        <time>2017-07-23T15:11:58Z</time>
      </trkpt>
      <trkpt lat="44.4410140" lon="6.9885840">
        <ele>1638.6</ele>
        <time>2017-07-23T15:11:59Z</time>
      </trkpt>
      <trkpt lat="44.4410460" lon="6.9887690">
        <ele>1637.4</ele>
        <time>2017-07-23T15:12:01Z</time>
      </trkpt>
      <trkpt lat="44.4410490" lon="6.9888770">
        <ele>1636.8</ele>
        <time>2017-07-23T15:12:02Z</time>
      </trkpt>
      <trkpt lat="44.4410260" lon="6.9891020">
        <ele>1636.0</ele>
        <time>2017-07-23T15:12:04Z</time>
      </trkpt>
      <trkpt lat="44.4409520" lon="6.9893300">
        <ele>1634.6</ele>
        <time>2017-07-23T15:12:06Z</time>
      </trkpt>
      <trkpt lat="44.4409220" lon="6.9894530">
        <ele>1634.0</ele>
        <time>2017-07-23T15:12:07Z</time>
      </trkpt>
      <trkpt lat="44.4409040" lon="6.9895920">
        <ele>1633.4</ele>
        <time>2017-07-23T15:12:08Z</time>
      </trkpt>
      <trkpt lat="44.4408780" lon="6.9898790">
        <ele>1632.2</ele>
        <time>2017-07-23T15:12:10Z</time>
      </trkpt>
      <trkpt lat="44.4408800" lon="6.9900310">
        <ele>1631.8</ele>
        <time>2017-07-23T15:12:11Z</time>
      </trkpt>
      <trkpt lat="44.4408870" lon="6.9901850">
        <ele>1631.2</ele>
        <time>2017-07-23T15:12:12Z</time>
      </trkpt>
      <trkpt lat="44.4408970" lon="6.9904670">
        <ele>1630.0</ele>
        <time>2017-07-23T15:12:14Z</time>
      </trkpt>
      <trkpt lat="44.4409090" lon="6.9905980">
        <ele>1629.2</ele>
        <time>2017-07-23T15:12:15Z</time>
      </trkpt>
      <trkpt lat="44.4409330" lon="6.9907210">
        <ele>1628.4</ele>
        <time>2017-07-23T15:12:16Z</time>
      </trkpt>
      <trkpt lat="44.4410350" lon="6.9909320">
        <ele>1627.0</ele>
        <time>2017-07-23T15:12:18Z</time>
      </trkpt>
      <trkpt lat="44.4411490" lon="6.9910950">
        <ele>1625.6</ele>
        <time>2017-07-23T15:12:20Z</time>
      </trkpt>
      <trkpt lat="44.4412180" lon="6.9911780">
        <ele>1624.8</ele>
        <time>2017-07-23T15:12:21Z</time>
      </trkpt>
      <trkpt lat="44.4412710" lon="6.9912870">
        <ele>1624.2</ele>
        <time>2017-07-23T15:12:22Z</time>
      </trkpt>
      <trkpt lat="44.4413820" lon="6.9915050">
        <ele>1623.0</ele>
        <time>2017-07-23T15:12:24Z</time>
      </trkpt>
      <trkpt lat="44.4414400" lon="6.9915840">
        <ele>1622.4</ele>
        <time>2017-07-23T15:12:25Z</time>
      </trkpt>
      <trkpt lat="44.4415000" lon="6.9916510">
        <ele>1621.8</ele>
        <time>2017-07-23T15:12:26Z</time>
      </trkpt>
      <trkpt lat="44.4416230" lon="6.9917700">
        <ele>1620.4</ele>
        <time>2017-07-23T15:12:28Z</time>
      </trkpt>
      <trkpt lat="44.4416890" lon="6.9918210">
        <ele>1618.8</ele>
        <time>2017-07-23T15:12:29Z</time>
      </trkpt>
      <trkpt lat="44.4418340" lon="6.9919040">
        <ele>1617.4</ele>
        <time>2017-07-23T15:12:31Z</time>
      </trkpt>
      <trkpt lat="44.4419720" lon="6.9919750">
        <ele>1616.2</ele>
        <time>2017-07-23T15:12:33Z</time>
      </trkpt>
      <trkpt lat="44.4420970" lon="6.9920300">
        <ele>1614.8</ele>
        <time>2017-07-23T15:12:35Z</time>
      </trkpt>
      <trkpt lat="44.4421510" lon="6.9920540">
        <ele>1614.2</ele>
        <time>2017-07-23T15:12:36Z</time>
      </trkpt>
      <trkpt lat="44.4422070" lon="6.9920540">
        <ele>1613.6</ele>
        <time>2017-07-23T15:12:37Z</time>
      </trkpt>
      <trkpt lat="44.4423280" lon="6.9920820">
        <ele>1612.4</ele>
        <time>2017-07-23T15:12:39Z</time>
      </trkpt>
      <trkpt lat="44.4423950" lon="6.9921060">
        <ele>1611.6</ele>
        <time>2017-07-23T15:12:40Z</time>
      </trkpt>
      <trkpt lat="44.4424660" lon="6.9921270">
        <ele>1611.0</ele>
        <time>2017-07-23T15:12:41Z</time>
      </trkpt>
      <trkpt lat="44.4425340" lon="6.9921600">
        <ele>1610.4</ele>
        <time>2017-07-23T15:12:42Z</time>
      </trkpt>
      <trkpt lat="44.4426000" lon="6.9922230">
        <ele>1609.8</ele>
        <time>2017-07-23T15:12:43Z</time>
      </trkpt>
      <trkpt lat="44.4426660" lon="6.9922660">
        <ele>1609.4</ele>
        <time>2017-07-23T15:12:44Z</time>
      </trkpt>
      <trkpt lat="44.4427360" lon="6.9922820">
        <ele>1608.8</ele>
        <time>2017-07-23T15:12:45Z</time>
      </trkpt>
      <trkpt lat="44.4428870" lon="6.9922580">
        <ele>1607.4</ele>
        <time>2017-07-23T15:12:47Z</time>
      </trkpt>
      <trkpt lat="44.4431050" lon="6.9920350">
        <ele>1606.0</ele>
        <time>2017-07-23T15:12:50Z</time>
      </trkpt>
      <trkpt lat="44.4431660" lon="6.9919380">
        <ele>1605.4</ele>
        <time>2017-07-23T15:12:51Z</time>
      </trkpt>
      <trkpt lat="44.4432470" lon="6.9918800">
        <ele>1604.8</ele>
        <time>2017-07-23T15:12:52Z</time>
      </trkpt>
      <trkpt lat="44.4433370" lon="6.9918380">
        <ele>1603.4</ele>
        <time>2017-07-23T15:12:53Z</time>
      </trkpt>
      <trkpt lat="44.4435450" lon="6.9918170">
        <ele>1602.0</ele>
        <time>2017-07-23T15:12:55Z</time>
      </trkpt>
      <trkpt lat="44.4436450" lon="6.9918160">
        <ele>1601.0</ele>
        <time>2017-07-23T15:12:56Z</time>
      </trkpt>
      <trkpt lat="44.4437460" lon="6.9918150">
        <ele>1600.2</ele>
        <time>2017-07-23T15:12:57Z</time>
      </trkpt>
      <trkpt lat="44.4439090" lon="6.9917600">
        <ele>1598.8</ele>
        <time>2017-07-23T15:12:59Z</time>
      </trkpt>
      <trkpt lat="44.4439800" lon="6.9917100">
        <ele>1598.0</ele>
        <time>2017-07-23T15:13:00Z</time>
      </trkpt>
      <trkpt lat="44.4440470" lon="6.9916650">
        <ele>1597.2</ele>
        <time>2017-07-23T15:13:01Z</time>
      </trkpt>
      <trkpt lat="44.4441620" lon="6.9915900">
        <ele>1595.6</ele>
        <time>2017-07-23T15:13:03Z</time>
      </trkpt>
      <trkpt lat="44.4441930" lon="6.9915200">
        <ele>1594.8</ele>
        <time>2017-07-23T15:13:04Z</time>
      </trkpt>
      <trkpt lat="44.4442210" lon="6.9914630">
        <ele>1594.0</ele>
        <time>2017-07-23T15:13:05Z</time>
      </trkpt>
      <trkpt lat="44.4442610" lon="6.9914720">
        <ele>1592.8</ele>
        <time>2017-07-23T15:13:07Z</time>
      </trkpt>
      <trkpt lat="44.4442760" lon="6.9915350">
        <ele>1591.4</ele>
        <time>2017-07-23T15:13:09Z</time>
      </trkpt>
      <trkpt lat="44.4443350" lon="6.9916060">
        <ele>1590.8</ele>
        <time>2017-07-23T15:13:10Z</time>
      </trkpt>
      <trkpt lat="44.4443900" lon="6.9916550">
        <ele>1590.0</ele>
        <time>2017-07-23T15:13:11Z</time>
      </trkpt>
      <trkpt lat="44.4444410" lon="6.9917010">
        <ele>1589.2</ele>
        <time>2017-07-23T15:13:12Z</time>
      </trkpt>
      <trkpt lat="44.4444940" lon="6.9917480">
        <ele>1588.4</ele>
        <time>2017-07-23T15:13:13Z</time>
      </trkpt>
      <trkpt lat="44.4445480" lon="6.9917990">
        <ele>1587.6</ele>
        <time>2017-07-23T15:13:14Z</time>
      </trkpt>
      <trkpt lat="44.4446120" lon="6.9918460">
        <ele>1586.8</ele>
        <time>2017-07-23T15:13:15Z</time>
      </trkpt>
      <trkpt lat="44.4447320" lon="6.9919830">
        <ele>1584.4</ele>
        <time>2017-07-23T15:13:17Z</time>
      </trkpt>
      <trkpt lat="44.4447930" lon="6.9920540">
        <ele>1583.8</ele>
        <time>2017-07-23T15:13:18Z</time>
      </trkpt>
      <trkpt lat="44.4448580" lon="6.9921170">
        <ele>1583.2</ele>
        <time>2017-07-23T15:13:19Z</time>
      </trkpt>
      <trkpt lat="44.4449850" lon="6.9922330">
        <ele>1581.6</ele>
        <time>2017-07-23T15:13:21Z</time>
      </trkpt>
      <trkpt lat="44.4451350" lon="6.9923820">
        <ele>1580.0</ele>
        <time>2017-07-23T15:13:23Z</time>
      </trkpt>
      <trkpt lat="44.4452860" lon="6.9925200">
        <ele>1578.4</ele>
        <time>2017-07-23T15:13:25Z</time>
      </trkpt>
      <trkpt lat="44.4454400" lon="6.9926930">
        <ele>1576.8</ele>
        <time>2017-07-23T15:13:27Z</time>
      </trkpt>
      <trkpt lat="44.4455020" lon="6.9928050">
        <ele>1576.0</ele>
        <time>2017-07-23T15:13:28Z</time>
      </trkpt>
      <trkpt lat="44.4455610" lon="6.9929180">
        <ele>1575.2</ele>
        <time>2017-07-23T15:13:29Z</time>
      </trkpt>
      <trkpt lat="44.4457040" lon="6.9931430">
        <ele>1573.4</ele>
        <time>2017-07-23T15:13:31Z</time>
      </trkpt>
      <trkpt lat="44.4457810" lon="6.9932520">
        <ele>1572.4</ele>
        <time>2017-07-23T15:13:32Z</time>
      </trkpt>
      <trkpt lat="44.4458580" lon="6.9933680">
        <ele>1571.6</ele>
        <time>2017-07-23T15:13:33Z</time>
      </trkpt>
      <trkpt lat="44.4460370" lon="6.9935830">
        <ele>1569.6</ele>
        <time>2017-07-23T15:13:35Z</time>
      </trkpt>
      <trkpt lat="44.4462050" lon="6.9938500">
        <ele>1567.8</ele>
        <time>2017-07-23T15:13:37Z</time>
      </trkpt>
      <trkpt lat="44.4462640" lon="6.9939990">
        <ele>1566.8</ele>
        <time>2017-07-23T15:13:38Z</time>
      </trkpt>
      <trkpt lat="44.4463160" lon="6.9941280">
        <ele>1565.6</ele>
        <time>2017-07-23T15:13:39Z</time>
      </trkpt>
      <trkpt lat="44.4463730" lon="6.9942540">
        <ele>1564.6</ele>
        <time>2017-07-23T15:13:40Z</time>
      </trkpt>
      <trkpt lat="44.4464470" lon="6.9943760">
        <ele>1562.8</ele>
        <time>2017-07-23T15:13:41Z</time>
      </trkpt>
      <trkpt lat="44.4466070" lon="6.9946000">
        <ele>1560.8</ele>
        <time>2017-07-23T15:13:43Z</time>
      </trkpt>
      <trkpt lat="44.4467730" lon="6.9948260">
        <ele>1558.8</ele>
        <time>2017-07-23T15:13:45Z</time>
      </trkpt>
      <trkpt lat="44.4468370" lon="6.9949700">
        <ele>1557.8</ele>
        <time>2017-07-23T15:13:46Z</time>
      </trkpt>
      <trkpt lat="44.4468940" lon="6.9951140">
        <ele>1556.6</ele>
        <time>2017-07-23T15:13:47Z</time>
      </trkpt>
      <trkpt lat="44.4469630" lon="6.9952410">
        <ele>1555.4</ele>
        <time>2017-07-23T15:13:48Z</time>
      </trkpt>
      <trkpt lat="44.4470330" lon="6.9953660">
        <ele>1554.4</ele>
        <time>2017-07-23T15:13:49Z</time>
      </trkpt>
      <trkpt lat="44.4471970" lon="6.9956080">
        <ele>1552.2</ele>
        <time>2017-07-23T15:13:51Z</time>
      </trkpt>
      <trkpt lat="44.4473750" lon="6.9958580">
        <ele>1550.4</ele>
        <time>2017-07-23T15:13:53Z</time>
      </trkpt>
      <trkpt lat="44.4474520" lon="6.9960030">
        <ele>1549.2</ele>
        <time>2017-07-23T15:13:54Z</time>
      </trkpt>
      <trkpt lat="44.4475260" lon="6.9961550">
        <ele>1548.0</ele>
        <time>2017-07-23T15:13:55Z</time>
      </trkpt>
      <trkpt lat="44.4476000" lon="6.9963020">
        <ele>1546.6</ele>
        <time>2017-07-23T15:13:56Z</time>
      </trkpt>
      <trkpt lat="44.4476790" lon="6.9964520">
        <ele>1545.4</ele>
        <time>2017-07-23T15:13:57Z</time>
      </trkpt>
      <trkpt lat="44.4477480" lon="6.9966100">
        <ele>1544.2</ele>
        <time>2017-07-23T15:13:58Z</time>
      </trkpt>
      <trkpt lat="44.4478060" lon="6.9967840">
        <ele>1542.8</ele>
        <time>2017-07-23T15:13:59Z</time>
      </trkpt>
      <trkpt lat="44.4478720" lon="6.9969550">
        <ele>1541.4</ele>
        <time>2017-07-23T15:14:00Z</time>
      </trkpt>
      <trkpt lat="44.4479420" lon="6.9971230">
        <ele>1540.0</ele>
        <time>2017-07-23T15:14:01Z</time>
      </trkpt>
      <trkpt lat="44.4480130" lon="6.9972870">
        <ele>1538.8</ele>
        <time>2017-07-23T15:14:02Z</time>
      </trkpt>
      <trkpt lat="44.4480760" lon="6.9974460">
        <ele>1537.6</ele>
        <time>2017-07-23T15:14:03Z</time>
      </trkpt>
      <trkpt lat="44.4481340" lon="6.9975950">
        <ele>1536.2</ele>
        <time>2017-07-23T15:14:04Z</time>
      </trkpt>
      <trkpt lat="44.4481950" lon="6.9977240">
        <ele>1533.6</ele>
        <time>2017-07-23T15:14:05Z</time>
      </trkpt>
      <trkpt lat="44.4482610" lon="6.9978400">
        <ele>1532.4</ele>
        <time>2017-07-23T15:14:06Z</time>
      </trkpt>
      <trkpt lat="44.4483370" lon="6.9979320">
        <ele>1531.0</ele>
        <time>2017-07-23T15:14:07Z</time>
      </trkpt>
      <trkpt lat="44.4484110" lon="6.9979970">
        <ele>1529.6</ele>
        <time>2017-07-23T15:14:08Z</time>
      </trkpt>
      <trkpt lat="44.4484730" lon="6.9980410">
        <ele>1528.4</ele>
        <time>2017-07-23T15:14:09Z</time>
      </trkpt>
      <trkpt lat="44.4485370" lon="6.9980850">
        <ele>1527.0</ele>
        <time>2017-07-23T15:14:10Z</time>
      </trkpt>
      <trkpt lat="44.4486080" lon="6.9981290">
        <ele>1525.8</ele>
        <time>2017-07-23T15:14:11Z</time>
      </trkpt>
      <trkpt lat="44.4486830" lon="6.9981710">
        <ele>1524.6</ele>
        <time>2017-07-23T15:14:12Z</time>
      </trkpt>
      <trkpt lat="44.4487660" lon="6.9982100">
        <ele>1523.2</ele>
        <time>2017-07-23T15:14:13Z</time>
      </trkpt>
      <trkpt lat="44.4488490" lon="6.9982610">
        <ele>1522.2</ele>
        <time>2017-07-23T15:14:14Z</time>
      </trkpt>
      <trkpt lat="44.4489390" lon="6.9983110">
        <ele>1520.8</ele>
        <time>2017-07-23T15:14:15Z</time>
      </trkpt>
      <trkpt lat="44.4490350" lon="6.9983470">
        <ele>1519.6</ele>
        <time>2017-07-23T15:14:16Z</time>
      </trkpt>
      <trkpt lat="44.4492230" lon="6.9984060">
        <ele>1517.8</ele>
        <time>2017-07-23T15:14:18Z</time>
      </trkpt>
      <trkpt lat="44.4493150" lon="6.9984450">
        <ele>1517.0</ele>
        <time>2017-07-23T15:14:19Z</time>
      </trkpt>
      <trkpt lat="44.4494040" lon="6.9984830">
        <ele>1516.0</ele>
        <time>2017-07-23T15:14:20Z</time>
      </trkpt>
      <trkpt lat="44.4495830" lon="6.9985140">
        <ele>1514.4</ele>
        <time>2017-07-23T15:14:22Z</time>
      </trkpt>
      <trkpt lat="44.4496750" lon="6.9985020">
        <ele>1513.6</ele>
        <time>2017-07-23T15:14:23Z</time>
      </trkpt>
      <trkpt lat="44.4497640" lon="6.9984790">
        <ele>1512.8</ele>
        <time>2017-07-23T15:14:24Z</time>
      </trkpt>
      <trkpt lat="44.4499590" lon="6.9983970">
        <ele>1511.2</ele>
        <time>2017-07-23T15:14:26Z</time>
      </trkpt>
      <trkpt lat="44.4500570" lon="6.9983490">
        <ele>1510.6</ele>
        <time>2017-07-23T15:14:27Z</time>
      </trkpt>
      <trkpt lat="44.4501550" lon="6.9982970">
        <ele>1509.8</ele>
        <time>2017-07-23T15:14:28Z</time>
      </trkpt>
      <trkpt lat="44.4502250" lon="6.9982150">
        <ele>1508.4</ele>
        <time>2017-07-23T15:14:29Z</time>
      </trkpt>
      <trkpt lat="44.4503080" lon="6.9981540">
        <ele>1507.6</ele>
        <time>2017-07-23T15:14:30Z</time>
      </trkpt>
      <trkpt lat="44.4503960" lon="6.9981070">
        <ele>1506.8</ele>
        <time>2017-07-23T15:14:31Z</time>
      </trkpt>
      <trkpt lat="44.4505950" lon="6.9980280">
        <ele>1505.4</ele>
        <time>2017-07-23T15:14:33Z</time>
      </trkpt>
      <trkpt lat="44.4506980" lon="6.9979790">
        <ele>1504.6</ele>
        <time>2017-07-23T15:14:34Z</time>
      </trkpt>
      <trkpt lat="44.4508040" lon="6.9979260">
        <ele>1503.8</ele>
        <time>2017-07-23T15:14:35Z</time>
      </trkpt>
      <trkpt lat="44.4510260" lon="6.9978670">
        <ele>1502.2</ele>
        <time>2017-07-23T15:14:37Z</time>
      </trkpt>
      <trkpt lat="44.4511330" lon="6.9978630">
        <ele>1501.4</ele>
        <time>2017-07-23T15:14:38Z</time>
      </trkpt>
      <trkpt lat="44.4512380" lon="6.9978580">
        <ele>1500.4</ele>
        <time>2017-07-23T15:14:39Z</time>
      </trkpt>
      <trkpt lat="44.4514320" lon="6.9978820">
        <ele>1498.8</ele>
        <time>2017-07-23T15:14:41Z</time>
      </trkpt>
      <trkpt lat="44.4515230" lon="6.9979170">
        <ele>1497.8</ele>
        <time>2017-07-23T15:14:42Z</time>
      </trkpt>
      <trkpt lat="44.4516200" lon="6.9979570">
        <ele>1496.8</ele>
        <time>2017-07-23T15:14:43Z</time>
      </trkpt>
      <trkpt lat="44.4517170" lon="6.9980050">
        <ele>1495.6</ele>
        <time>2017-07-23T15:14:44Z</time>
      </trkpt>
      <trkpt lat="44.4518240" lon="6.9980410">
        <ele>1494.6</ele>
        <time>2017-07-23T15:14:45Z</time>
      </trkpt>
      <trkpt lat="44.4519300" lon="6.9980750">
        <ele>1493.4</ele>
        <time>2017-07-23T15:14:46Z</time>
      </trkpt>
      <trkpt lat="44.4520430" lon="6.9981050">
        <ele>1492.6</ele>
        <time>2017-07-23T15:14:47Z</time>
      </trkpt>
      <trkpt lat="44.4521550" lon="6.9981490">
        <ele>1491.6</ele>
        <time>2017-07-23T15:14:48Z</time>
      </trkpt>
      <trkpt lat="44.4522620" lon="6.9982120">
        <ele>1490.4</ele>
        <time>2017-07-23T15:14:49Z</time>
      </trkpt>
      <trkpt lat="44.4523670" lon="6.9982670">
        <ele>1489.4</ele>
        <time>2017-07-23T15:14:50Z</time>
      </trkpt>
      <trkpt lat="44.4524780" lon="6.9983210">
        <ele>1488.4</ele>
        <time>2017-07-23T15:14:51Z</time>
      </trkpt>
      <trkpt lat="44.4525830" lon="6.9983740">
        <ele>1487.0</ele>
        <time>2017-07-23T15:14:52Z</time>
      </trkpt>
      <trkpt lat="44.4526930" lon="6.9984140">
        <ele>1484.8</ele>
        <time>2017-07-23T15:14:53Z</time>
      </trkpt>
      <trkpt lat="44.4528000" lon="6.9984480">
        <ele>1483.8</ele>
        <time>2017-07-23T15:14:54Z</time>
      </trkpt>
      <trkpt lat="44.4529170" lon="6.9984540">
        <ele>1482.8</ele>
        <time>2017-07-23T15:14:55Z</time>
      </trkpt>
      <trkpt lat="44.4530250" lon="6.9984080">
        <ele>1481.6</ele>
        <time>2017-07-23T15:14:56Z</time>
      </trkpt>
      <trkpt lat="44.4531310" lon="6.9983910">
        <ele>1480.4</ele>
        <time>2017-07-23T15:14:57Z</time>
      </trkpt>
      <trkpt lat="44.4532450" lon="6.9984240">
        <ele>1479.2</ele>
        <time>2017-07-23T15:14:58Z</time>
      </trkpt>
      <trkpt lat="44.4533440" lon="6.9984930">
        <ele>1478.2</ele>
        <time>2017-07-23T15:14:59Z</time>
      </trkpt>
      <trkpt lat="44.4534410" lon="6.9985860">
        <ele>1477.2</ele>
        <time>2017-07-23T15:15:00Z</time>
      </trkpt>
      <trkpt lat="44.4535370" lon="6.9986960">
        <ele>1476.0</ele>
        <time>2017-07-23T15:15:01Z</time>
      </trkpt>
      <trkpt lat="44.4536360" lon="6.9988030">
        <ele>1474.8</ele>
        <time>2017-07-23T15:15:02Z</time>
      </trkpt>
      <trkpt lat="44.4537490" lon="6.9988850">
        <ele>1473.8</ele>
        <time>2017-07-23T15:15:03Z</time>
      </trkpt>
      <trkpt lat="44.4538570" lon="6.9989690">
        <ele>1472.8</ele>
        <time>2017-07-23T15:15:04Z</time>
      </trkpt>
      <trkpt lat="44.4540860" lon="6.9991270">
        <ele>1470.8</ele>
        <time>2017-07-23T15:15:06Z</time>
      </trkpt>
      <trkpt lat="44.4542070" lon="6.9992050">
        <ele>1469.6</ele>
        <time>2017-07-23T15:15:07Z</time>
      </trkpt>
      <trkpt lat="44.4543300" lon="6.9992810">
        <ele>1468.6</ele>
        <time>2017-07-23T15:15:08Z</time>
      </trkpt>
      <trkpt lat="44.4544550" lon="6.9993590">
        <ele>1467.2</ele>
        <time>2017-07-23T15:15:09Z</time>
      </trkpt>
      <trkpt lat="44.4545880" lon="6.9994410">
        <ele>1466.0</ele>
        <time>2017-07-23T15:15:10Z</time>
      </trkpt>
      <trkpt lat="44.4547260" lon="6.9995230">
        <ele>1464.8</ele>
        <time>2017-07-23T15:15:11Z</time>
      </trkpt>
      <trkpt lat="44.4548680" lon="6.9995910">
        <ele>1463.6</ele>
        <time>2017-07-23T15:15:12Z</time>
      </trkpt>
      <trkpt lat="44.4550100" lon="6.9996640">
        <ele>1462.4</ele>
        <time>2017-07-23T15:15:13Z</time>
      </trkpt>
      <trkpt lat="44.4551480" lon="6.9997390">
        <ele>1461.0</ele>
        <time>2017-07-23T15:15:14Z</time>
      </trkpt>
      <trkpt lat="44.4552710" lon="6.9998180">
        <ele>1459.6</ele>
        <time>2017-07-23T15:15:15Z</time>
      </trkpt>
      <trkpt lat="44.4553920" lon="6.9999090">
        <ele>1458.2</ele>
        <time>2017-07-23T15:15:16Z</time>
      </trkpt>
      <trkpt lat="44.4555010" lon="7.0000120">
        <ele>1455.2</ele>
        <time>2017-07-23T15:15:17Z</time>
      </trkpt>
      <trkpt lat="44.4555640" lon="7.0001360">
        <ele>1453.8</ele>
        <time>2017-07-23T15:15:18Z</time>
      </trkpt>
      <trkpt lat="44.4556370" lon="7.0002460">
        <ele>1452.4</ele>
        <time>2017-07-23T15:15:19Z</time>
      </trkpt>
      <trkpt lat="44.4557200" lon="7.0003270">
        <ele>1451.2</ele>
        <time>2017-07-23T15:15:20Z</time>
      </trkpt>
      <trkpt lat="44.4558040" lon="7.0004060">
        <ele>1449.6</ele>
        <time>2017-07-23T15:15:21Z</time>
      </trkpt>
      <trkpt lat="44.4559080" lon="7.0004570">
        <ele>1448.4</ele>
        <time>2017-07-23T15:15:22Z</time>
      </trkpt>
      <trkpt lat="44.4560110" lon="7.0005010">
        <ele>1447.0</ele>
        <time>2017-07-23T15:15:23Z</time>
      </trkpt>
      <trkpt lat="44.4561230" lon="7.0005270">
        <ele>1445.6</ele>
        <time>2017-07-23T15:15:24Z</time>
      </trkpt>
      <trkpt lat="44.4562280" lon="7.0005680">
        <ele>1444.4</ele>
        <time>2017-07-23T15:15:25Z</time>
      </trkpt>
      <trkpt lat="44.4563490" lon="7.0006210">
        <ele>1443.0</ele>
        <time>2017-07-23T15:15:26Z</time>
      </trkpt>
      <trkpt lat="44.4564750" lon="7.0006750">
        <ele>1441.8</ele>
        <time>2017-07-23T15:15:27Z</time>
      </trkpt>
      <trkpt lat="44.4565940" lon="7.0007350">
        <ele>1440.4</ele>
        <time>2017-07-23T15:15:28Z</time>
      </trkpt>
      <trkpt lat="44.4567180" lon="7.0007650">
        <ele>1439.2</ele>
        <time>2017-07-23T15:15:29Z</time>
      </trkpt>
      <trkpt lat="44.4568340" lon="7.0007630">
        <ele>1438.0</ele>
        <time>2017-07-23T15:15:30Z</time>
      </trkpt>
      <trkpt lat="44.4569440" lon="7.0008050">
        <ele>1436.6</ele>
        <time>2017-07-23T15:15:31Z</time>
      </trkpt>
      <trkpt lat="44.4570410" lon="7.0008940">
        <ele>1435.4</ele>
        <time>2017-07-23T15:15:32Z</time>
      </trkpt>
      <trkpt lat="44.4571410" lon="7.0009770">
        <ele>1434.0</ele>
        <time>2017-07-23T15:15:33Z</time>
      </trkpt>
      <trkpt lat="44.4572410" lon="7.0010440">
        <ele>1432.8</ele>
        <time>2017-07-23T15:15:34Z</time>
      </trkpt>
      <trkpt lat="44.4573410" lon="7.0011040">
        <ele>1431.4</ele>
        <time>2017-07-23T15:15:35Z</time>
      </trkpt>
      <trkpt lat="44.4574480" lon="7.0011660">
        <ele>1430.2</ele>
        <time>2017-07-23T15:15:36Z</time>
      </trkpt>
      <trkpt lat="44.4575550" lon="7.0012160">
        <ele>1429.0</ele>
        <time>2017-07-23T15:15:37Z</time>
      </trkpt>
      <trkpt lat="44.4576640" lon="7.0012720">
        <ele>1428.0</ele>
        <time>2017-07-23T15:15:38Z</time>
      </trkpt>
      <trkpt lat="44.4577770" lon="7.0013260">
        <ele>1426.6</ele>
        <time>2017-07-23T15:15:39Z</time>
      </trkpt>
      <trkpt lat="44.4578920" lon="7.0013840">
        <ele>1425.2</ele>
        <time>2017-07-23T15:15:40Z</time>
      </trkpt>
      <trkpt lat="44.4580090" lon="7.0014390">
        <ele>1422.8</ele>
        <time>2017-07-23T15:15:41Z</time>
      </trkpt>
      <trkpt lat="44.4581230" lon="7.0014930">
        <ele>1421.6</ele>
        <time>2017-07-23T15:15:42Z</time>
      </trkpt>
      <trkpt lat="44.4582510" lon="7.0015050">
        <ele>1420.2</ele>
        <time>2017-07-23T15:15:43Z</time>
      </trkpt>
      <trkpt lat="44.4583750" lon="7.0014900">
        <ele>1419.0</ele>
        <time>2017-07-23T15:15:44Z</time>
      </trkpt>
      <trkpt lat="44.4584830" lon="7.0014690">
        <ele>1417.6</ele>
        <time>2017-07-23T15:15:45Z</time>
      </trkpt>
      <trkpt lat="44.4585930" lon="7.0014440">
        <ele>1416.4</ele>
        <time>2017-07-23T15:15:46Z</time>
      </trkpt>
      <trkpt lat="44.4586990" lon="7.0014690">
        <ele>1415.0</ele>
        <time>2017-07-23T15:15:47Z</time>
      </trkpt>
      <trkpt lat="44.4588120" lon="7.0015170">
        <ele>1413.8</ele>
        <time>2017-07-23T15:15:48Z</time>
      </trkpt>
      <trkpt lat="44.4589170" lon="7.0015720">
        <ele>1412.6</ele>
        <time>2017-07-23T15:15:49Z</time>
      </trkpt>
      <trkpt lat="44.4590180" lon="7.0016220">
        <ele>1411.4</ele>
        <time>2017-07-23T15:15:50Z</time>
      </trkpt>
      <trkpt lat="44.4591230" lon="7.0016570">
        <ele>1410.2</ele>
        <time>2017-07-23T15:15:51Z</time>
      </trkpt>
      <trkpt lat="44.4592270" lon="7.0016810">
        <ele>1409.0</ele>
        <time>2017-07-23T15:15:52Z</time>
      </trkpt>
      <trkpt lat="44.4593690" lon="7.0017160">
        <ele>1407.8</ele>
        <time>2017-07-23T15:15:53Z</time>
      </trkpt>
      <trkpt lat="44.4595200" lon="7.0017530">
        <ele>1406.4</ele>
        <time>2017-07-23T15:15:54Z</time>
      </trkpt>
      <trkpt lat="44.4596720" lon="7.0017920">
        <ele>1405.2</ele>
        <time>2017-07-23T15:15:55Z</time>
      </trkpt>
      <trkpt lat="44.4598210" lon="7.0018390">
        <ele>1403.8</ele>
        <time>2017-07-23T15:15:56Z</time>
      </trkpt>
      <trkpt lat="44.4599700" lon="7.0019010">
        <ele>1402.4</ele>
        <time>2017-07-23T15:15:57Z</time>
      </trkpt>
      <trkpt lat="44.4601120" lon="7.0019710">
        <ele>1401.2</ele>
        <time>2017-07-23T15:15:58Z</time>
      </trkpt>
      <trkpt lat="44.4602570" lon="7.0020470">
        <ele>1399.8</ele>
        <time>2017-07-23T15:15:59Z</time>
      </trkpt>
      <trkpt lat="44.4603890" lon="7.0021100">
        <ele>1398.4</ele>
        <time>2017-07-23T15:16:00Z</time>
      </trkpt>
      <trkpt lat="44.4605020" lon="7.0021770">
        <ele>1396.8</ele>
        <time>2017-07-23T15:16:01Z</time>
      </trkpt>
      <trkpt lat="44.4606160" lon="7.0022870">
        <ele>1395.2</ele>
        <time>2017-07-23T15:16:02Z</time>
      </trkpt>
      <trkpt lat="44.4607180" lon="7.0024140">
        <ele>1394.0</ele>
        <time>2017-07-23T15:16:03Z</time>
      </trkpt>
      <trkpt lat="44.4608160" lon="7.0025450">
        <ele>1392.4</ele>
        <time>2017-07-23T15:16:04Z</time>
      </trkpt>
      <trkpt lat="44.4608680" lon="7.0026800">
        <ele>1389.8</ele>
        <time>2017-07-23T15:16:05Z</time>
      </trkpt>
      <trkpt lat="44.4609300" lon="7.0028120">
        <ele>1388.6</ele>
        <time>2017-07-23T15:16:06Z</time>
      </trkpt>
      <trkpt lat="44.4609950" lon="7.0029430">
        <ele>1387.4</ele>
        <time>2017-07-23T15:16:07Z</time>
      </trkpt>
      <trkpt lat="44.4610640" lon="7.0030640">
        <ele>1386.0</ele>
        <time>2017-07-23T15:16:08Z</time>
      </trkpt>
      <trkpt lat="44.4611380" lon="7.0031720">
        <ele>1384.6</ele>
        <time>2017-07-23T15:16:09Z</time>
      </trkpt>
      <trkpt lat="44.4612030" lon="7.0032510">
        <ele>1383.2</ele>
        <time>2017-07-23T15:16:10Z</time>
      </trkpt>
      <trkpt lat="44.4612920" lon="7.0032970">
        <ele>1382.0</ele>
        <time>2017-07-23T15:16:11Z</time>
      </trkpt>
      <trkpt lat="44.4613740" lon="7.0033330">
        <ele>1380.8</ele>
        <time>2017-07-23T15:16:12Z</time>
      </trkpt>
      <trkpt lat="44.4614600" lon="7.0033700">
        <ele>1379.6</ele>
        <time>2017-07-23T15:16:13Z</time>
      </trkpt>
      <trkpt lat="44.4615460" lon="7.0034430">
        <ele>1378.4</ele>
        <time>2017-07-23T15:16:14Z</time>
      </trkpt>
      <trkpt lat="44.4616310" lon="7.0035170">
        <ele>1377.2</ele>
        <time>2017-07-23T15:16:15Z</time>
      </trkpt>
      <trkpt lat="44.4616870" lon="7.0035750">
        <ele>1375.8</ele>
        <time>2017-07-23T15:16:16Z</time>
      </trkpt>
      <trkpt lat="44.4617610" lon="7.0036010">
        <ele>1374.6</ele>
        <time>2017-07-23T15:16:17Z</time>
      </trkpt>
      <trkpt lat="44.4618380" lon="7.0036020">
        <ele>1373.4</ele>
        <time>2017-07-23T15:16:18Z</time>
      </trkpt>
      <trkpt lat="44.4619270" lon="7.0035790">
        <ele>1372.4</ele>
        <time>2017-07-23T15:16:19Z</time>
      </trkpt>
      <trkpt lat="44.4620220" lon="7.0035420">
        <ele>1371.2</ele>
        <time>2017-07-23T15:16:20Z</time>
      </trkpt>
      <trkpt lat="44.4621240" lon="7.0035360">
        <ele>1370.0</ele>
        <time>2017-07-23T15:16:21Z</time>
      </trkpt>
      <trkpt lat="44.4622130" lon="7.0035490">
        <ele>1368.6</ele>
        <time>2017-07-23T15:16:22Z</time>
      </trkpt>
      <trkpt lat="44.4623200" lon="7.0035690">
        <ele>1367.6</ele>
        <time>2017-07-23T15:16:23Z</time>
      </trkpt>
      <trkpt lat="44.4624190" lon="7.0035870">
        <ele>1366.4</ele>
        <time>2017-07-23T15:16:24Z</time>
      </trkpt>
      <trkpt lat="44.4625140" lon="7.0036140">
        <ele>1365.2</ele>
        <time>2017-07-23T15:16:25Z</time>
      </trkpt>
      <trkpt lat="44.4626140" lon="7.0036490">
        <ele>1364.0</ele>
        <time>2017-07-23T15:16:26Z</time>
      </trkpt>
      <trkpt lat="44.4627220" lon="7.0036410">
        <ele>1362.6</ele>
        <time>2017-07-23T15:16:27Z</time>
      </trkpt>
      <trkpt lat="44.4628230" lon="7.0035810">
        <ele>1361.0</ele>
        <time>2017-07-23T15:16:28Z</time>
      </trkpt>
      <trkpt lat="44.4629060" lon="7.0035000">
        <ele>1358.2</ele>
        <time>2017-07-23T15:16:29Z</time>
      </trkpt>
      <trkpt lat="44.4629830" lon="7.0034130">
        <ele>1356.6</ele>
        <time>2017-07-23T15:16:30Z</time>
      </trkpt>
      <trkpt lat="44.4630780" lon="7.0033450">
        <ele>1355.2</ele>
        <time>2017-07-23T15:16:31Z</time>
      </trkpt>
      <trkpt lat="44.4631690" lon="7.0032820">
        <ele>1353.8</ele>
        <time>2017-07-23T15:16:32Z</time>
      </trkpt>
      <trkpt lat="44.4632570" lon="7.0032320">
        <ele>1352.4</ele>
        <time>2017-07-23T15:16:33Z</time>
      </trkpt>
      <trkpt lat="44.4633570" lon="7.0031970">
        <ele>1351.0</ele>
        <time>2017-07-23T15:16:34Z</time>
      </trkpt>
      <trkpt lat="44.4634660" lon="7.0031700">
        <ele>1349.6</ele>
        <time>2017-07-23T15:16:35Z</time>
      </trkpt>
      <trkpt lat="44.4635780" lon="7.0031470">
        <ele>1348.2</ele>
        <time>2017-07-23T15:16:36Z</time>
      </trkpt>
      <trkpt lat="44.4637130" lon="7.0031240">
        <ele>1347.0</ele>
        <time>2017-07-23T15:16:37Z</time>
      </trkpt>
      <trkpt lat="44.4638370" lon="7.0031160">
        <ele>1345.8</ele>
        <time>2017-07-23T15:16:38Z</time>
      </trkpt>
      <trkpt lat="44.4639690" lon="7.0030980">
        <ele>1344.6</ele>
        <time>2017-07-23T15:16:39Z</time>
      </trkpt>
      <trkpt lat="44.4641020" lon="7.0030870">
        <ele>1343.4</ele>
        <time>2017-07-23T15:16:40Z</time>
      </trkpt>
      <trkpt lat="44.4642330" lon="7.0030790">
        <ele>1342.0</ele>
        <time>2017-07-23T15:16:41Z</time>
      </trkpt>
      <trkpt lat="44.4643630" lon="7.0030770">
        <ele>1340.8</ele>
        <time>2017-07-23T15:16:42Z</time>
      </trkpt>
      <trkpt lat="44.4644870" lon="7.0031030">
        <ele>1339.6</ele>
        <time>2017-07-23T15:16:43Z</time>
      </trkpt>
      <trkpt lat="44.4646090" lon="7.0031570">
        <ele>1338.2</ele>
        <time>2017-07-23T15:16:44Z</time>
      </trkpt>
      <trkpt lat="44.4647300" lon="7.0032090">
        <ele>1336.8</ele>
        <time>2017-07-23T15:16:45Z</time>
      </trkpt>
      <trkpt lat="44.4648540" lon="7.0032640">
        <ele>1335.6</ele>
        <time>2017-07-23T15:16:46Z</time>
      </trkpt>
      <trkpt lat="44.4649700" lon="7.0033210">
        <ele>1334.0</ele>
        <time>2017-07-23T15:16:47Z</time>
      </trkpt>
      <trkpt lat="44.4650980" lon="7.0033920">
        <ele>1332.8</ele>
        <time>2017-07-23T15:16:48Z</time>
      </trkpt>
      <trkpt lat="44.4652680" lon="7.0034290">
        <ele>1331.4</ele>
        <time>2017-07-23T15:16:49Z</time>
      </trkpt>
      <trkpt lat="44.4654070" lon="7.0034610">
        <ele>1329.8</ele>
        <time>2017-07-23T15:16:50Z</time>
      </trkpt>
      <trkpt lat="44.4655430" lon="7.0035050">
        <ele>1328.6</ele>
        <time>2017-07-23T15:16:51Z</time>
      </trkpt>
      <trkpt lat="44.4656780" lon="7.0035440">
        <ele>1327.0</ele>
        <time>2017-07-23T15:16:52Z</time>
      </trkpt>
      <trkpt lat="44.4658090" lon="7.0035760">
        <ele>1324.2</ele>
        <time>2017-07-23T15:16:53Z</time>
      </trkpt>
      <trkpt lat="44.4659400" lon="7.0036060">
        <ele>1323.0</ele>
        <time>2017-07-23T15:16:54Z</time>
      </trkpt>
      <trkpt lat="44.4660830" lon="7.0036110">
        <ele>1321.6</ele>
        <time>2017-07-23T15:16:55Z</time>
      </trkpt>
      <trkpt lat="44.4662070" lon="7.0036250">
        <ele>1320.2</ele>
        <time>2017-07-23T15:16:56Z</time>
      </trkpt>
      <trkpt lat="44.4663430" lon="7.0036160">
        <ele>1319.0</ele>
        <time>2017-07-23T15:16:57Z</time>
      </trkpt>
      <trkpt lat="44.4664750" lon="7.0036140">
        <ele>1317.6</ele>
        <time>2017-07-23T15:16:58Z</time>
      </trkpt>
      <trkpt lat="44.4666210" lon="7.0035820">
        <ele>1316.4</ele>
        <time>2017-07-23T15:16:59Z</time>
      </trkpt>
      <trkpt lat="44.4667770" lon="7.0035300">
        <ele>1315.0</ele>
        <time>2017-07-23T15:17:00Z</time>
      </trkpt>
      <trkpt lat="44.4669290" lon="7.0034780">
        <ele>1313.6</ele>
        <time>2017-07-23T15:17:01Z</time>
      </trkpt>
      <trkpt lat="44.4670830" lon="7.0033920">
        <ele>1312.4</ele>
        <time>2017-07-23T15:17:02Z</time>
      </trkpt>
      <trkpt lat="44.4672290" lon="7.0032810">
        <ele>1311.0</ele>
        <time>2017-07-23T15:17:03Z</time>
      </trkpt>
      <trkpt lat="44.4673870" lon="7.0031700">
        <ele>1309.6</ele>
        <time>2017-07-23T15:17:04Z</time>
      </trkpt>
      <trkpt lat="44.4675410" lon="7.0030670">
        <ele>1308.2</ele>
        <time>2017-07-23T15:17:05Z</time>
      </trkpt>
      <trkpt lat="44.4676630" lon="7.0029540">
        <ele>1307.0</ele>
        <time>2017-07-23T15:17:06Z</time>
      </trkpt>
      <trkpt lat="44.4677690" lon="7.0028340">
        <ele>1305.8</ele>
        <time>2017-07-23T15:17:07Z</time>
      </trkpt>
      <trkpt lat="44.4678580" lon="7.0027070">
        <ele>1304.4</ele>
        <time>2017-07-23T15:17:08Z</time>
      </trkpt>
      <trkpt lat="44.4679630" lon="7.0026140">
        <ele>1303.2</ele>
        <time>2017-07-23T15:17:09Z</time>
      </trkpt>
      <trkpt lat="44.4680550" lon="7.0025670">
        <ele>1302.2</ele>
        <time>2017-07-23T15:17:10Z</time>
      </trkpt>
      <trkpt lat="44.4681250" lon="7.0025570">
        <ele>1301.0</ele>
        <time>2017-07-23T15:17:11Z</time>
      </trkpt>
      <trkpt lat="44.4681970" lon="7.0025450">
        <ele>1299.8</ele>
        <time>2017-07-23T15:17:12Z</time>
      </trkpt>
      <trkpt lat="44.4683170" lon="7.0025260">
        <ele>1298.8</ele>
        <time>2017-07-23T15:17:13Z</time>
      </trkpt>
      <trkpt lat="44.4684270" lon="7.0024710">
        <ele>1297.8</ele>
        <time>2017-07-23T15:17:14Z</time>
      </trkpt>
      <trkpt lat="44.4685380" lon="7.0024100">
        <ele>1296.8</ele>
        <time>2017-07-23T15:17:15Z</time>
      </trkpt>
      <trkpt lat="44.4687580" lon="7.0022870">
        <ele>1293.8</ele>
        <time>2017-07-23T15:17:17Z</time>
      </trkpt>
      <trkpt lat="44.4688590" lon="7.0022360">
        <ele>1292.8</ele>
        <time>2017-07-23T15:17:18Z</time>
      </trkpt>
      <trkpt lat="44.4690590" lon="7.0021250">
        <ele>1290.8</ele>
        <time>2017-07-23T15:17:20Z</time>
      </trkpt>
      <trkpt lat="44.4692410" lon="7.0019270">
        <ele>1288.8</ele>
        <time>2017-07-23T15:17:22Z</time>
      </trkpt>
      <trkpt lat="44.4693060" lon="7.0017910">
        <ele>1287.8</ele>
        <time>2017-07-23T15:17:23Z</time>
      </trkpt>
      <trkpt lat="44.4693600" lon="7.0016270">
        <ele>1286.8</ele>
        <time>2017-07-23T15:17:24Z</time>
      </trkpt>
      <trkpt lat="44.4693900" lon="7.0014480">
        <ele>1285.8</ele>
        <time>2017-07-23T15:17:25Z</time>
      </trkpt>
      <trkpt lat="44.4693380" lon="7.0011960">
        <ele>1284.6</ele>
        <time>2017-07-23T15:17:26Z</time>
      </trkpt>
      <trkpt lat="44.4692570" lon="7.0007490">
        <ele>1283.0</ele>
        <time>2017-07-23T15:17:28Z</time>
      </trkpt>
      <trkpt lat="44.4692180" lon="7.0005460">
        <ele>1282.2</ele>
        <time>2017-07-23T15:17:29Z</time>
      </trkpt>
      <trkpt lat="44.4691620" lon="7.0003610">
        <ele>1281.4</ele>
        <time>2017-07-23T15:17:30Z</time>
      </trkpt>
      <trkpt lat="44.4691230" lon="7.0001840">
        <ele>1280.2</ele>
        <time>2017-07-23T15:17:31Z</time>
      </trkpt>
      <trkpt lat="44.4691350" lon="7.0000000">
        <ele>1279.4</ele>
        <time>2017-07-23T15:17:32Z</time>
      </trkpt>
      <trkpt lat="44.4691640" lon="6.9998370">
        <ele>1278.6</ele>
        <time>2017-07-23T15:17:33Z</time>
      </trkpt>
      <trkpt lat="44.4692070" lon="6.9995320">
        <ele>1277.0</ele>
        <time>2017-07-23T15:17:35Z</time>
      </trkpt>
      <trkpt lat="44.4693110" lon="6.9992280">
        <ele>1275.6</ele>
        <time>2017-07-23T15:17:37Z</time>
      </trkpt>
      <trkpt lat="44.4693850" lon="6.9990710">
        <ele>1274.8</ele>
        <time>2017-07-23T15:17:38Z</time>
      </trkpt>
      <trkpt lat="44.4694500" lon="6.9989240">
        <ele>1274.2</ele>
        <time>2017-07-23T15:17:39Z</time>
      </trkpt>
      <trkpt lat="44.4695710" lon="6.9986710">
        <ele>1271.6</ele>
        <time>2017-07-23T15:17:41Z</time>
      </trkpt>
      <trkpt lat="44.4696370" lon="6.9985750">
        <ele>1270.8</ele>
        <time>2017-07-23T15:17:42Z</time>
      </trkpt>
      <trkpt lat="44.4696990" lon="6.9984940">
        <ele>1270.0</ele>
        <time>2017-07-23T15:17:43Z</time>
      </trkpt>
      <trkpt lat="44.4698540" lon="6.9983440">
        <ele>1268.4</ele>
        <time>2017-07-23T15:17:45Z</time>
      </trkpt>
      <trkpt lat="44.4699230" lon="6.9982670">
        <ele>1267.6</ele>
        <time>2017-07-23T15:17:46Z</time>
      </trkpt>
      <trkpt lat="44.4699990" lon="6.9981780">
        <ele>1266.8</ele>
        <time>2017-07-23T15:17:47Z</time>
      </trkpt>
      <trkpt lat="44.4701510" lon="6.9979810">
        <ele>1265.0</ele>
        <time>2017-07-23T15:17:49Z</time>
      </trkpt>
      <trkpt lat="44.4702230" lon="6.9978780">
        <ele>1264.0</ele>
        <time>2017-07-23T15:17:50Z</time>
      </trkpt>
      <trkpt lat="44.4702840" lon="6.9977570">
        <ele>1263.2</ele>
        <time>2017-07-23T15:17:51Z</time>
      </trkpt>
      <trkpt lat="44.4704380" lon="6.9975240">
        <ele>1261.2</ele>
        <time>2017-07-23T15:17:53Z</time>
      </trkpt>
      <trkpt lat="44.4706250" lon="6.9973250">
        <ele>1259.4</ele>
        <time>2017-07-23T15:17:55Z</time>
      </trkpt>
      <trkpt lat="44.4707910" lon="6.9971040">
        <ele>1257.6</ele>
        <time>2017-07-23T15:17:57Z</time>
      </trkpt>
      <trkpt lat="44.4709430" lon="6.9968910">
        <ele>1256.0</ele>
        <time>2017-07-23T15:17:59Z</time>
      </trkpt>
      <trkpt lat="44.4710230" lon="6.9966400">
        <ele>1254.2</ele>
        <time>2017-07-23T15:18:01Z</time>
      </trkpt>
      <trkpt lat="44.4711100" lon="6.9963890">
        <ele>1252.6</ele>
        <time>2017-07-23T15:18:03Z</time>
      </trkpt>
      <trkpt lat="44.4711780" lon="6.9960900">
        <ele>1250.0</ele>
        <time>2017-07-23T15:18:05Z</time>
      </trkpt>
      <trkpt lat="44.4712740" lon="6.9958430">
        <ele>1248.0</ele>
        <time>2017-07-23T15:18:07Z</time>
      </trkpt>
      <trkpt lat="44.4714170" lon="6.9956260">
        <ele>1246.4</ele>
        <time>2017-07-23T15:18:09Z</time>
      </trkpt>
      <trkpt lat="44.4716000" lon="6.9954320">
        <ele>1244.8</ele>
        <time>2017-07-23T15:18:11Z</time>
      </trkpt>
      <trkpt lat="44.4717540" lon="6.9952210">
        <ele>1243.2</ele>
        <time>2017-07-23T15:18:13Z</time>
      </trkpt>
      <trkpt lat="44.4718610" lon="6.9949610">
        <ele>1241.6</ele>
        <time>2017-07-23T15:18:15Z</time>
      </trkpt>
      <trkpt lat="44.4719270" lon="6.9948190">
        <ele>1240.8</ele>
        <time>2017-07-23T15:18:16Z</time>
      </trkpt>
      <trkpt lat="44.4720120" lon="6.9946990">
        <ele>1240.0</ele>
        <time>2017-07-23T15:18:17Z</time>
      </trkpt>
      <trkpt lat="44.4720750" lon="6.9945870">
        <ele>1239.2</ele>
        <time>2017-07-23T15:18:18Z</time>
      </trkpt>
      <trkpt lat="44.4721380" lon="6.9944970">
        <ele>1238.4</ele>
        <time>2017-07-23T15:18:19Z</time>
      </trkpt>
      <trkpt lat="44.4723110" lon="6.9943440">
        <ele>1236.8</ele>
        <time>2017-07-23T15:18:21Z</time>
      </trkpt>
      <trkpt lat="44.4724120" lon="6.9942530">
        <ele>1236.0</ele>
        <time>2017-07-23T15:18:22Z</time>
      </trkpt>
      <trkpt lat="44.4725120" lon="6.9941670">
        <ele>1235.0</ele>
        <time>2017-07-23T15:18:23Z</time>
      </trkpt>
      <trkpt lat="44.4727170" lon="6.9940140">
        <ele>1233.4</ele>
        <time>2017-07-23T15:18:25Z</time>
      </trkpt>
      <trkpt lat="44.4729330" lon="6.9938700">
        <ele>1231.6</ele>
        <time>2017-07-23T15:18:27Z</time>
      </trkpt>
      <trkpt lat="44.4730990" lon="6.9937030">
        <ele>1229.2</ele>
        <time>2017-07-23T15:18:29Z</time>
      </trkpt>
      <trkpt lat="44.4732680" lon="6.9935490">
        <ele>1227.4</ele>
        <time>2017-07-23T15:18:31Z</time>
      </trkpt>
      <trkpt lat="44.4733360" lon="6.9934570">
        <ele>1226.4</ele>
        <time>2017-07-23T15:18:32Z</time>
      </trkpt>
      <trkpt lat="44.4734050" lon="6.9933580">
        <ele>1225.4</ele>
        <time>2017-07-23T15:18:33Z</time>
      </trkpt>
      <trkpt lat="44.4735240" lon="6.9931060">
        <ele>1223.8</ele>
        <time>2017-07-23T15:18:35Z</time>
      </trkpt>
      <trkpt lat="44.4736430" lon="6.9929430">
        <ele>1222.0</ele>
        <time>2017-07-23T15:18:37Z</time>
      </trkpt>
      <trkpt lat="44.4737100" lon="6.9928790">
        <ele>1221.0</ele>
        <time>2017-07-23T15:18:38Z</time>
      </trkpt>
      <trkpt lat="44.4737650" lon="6.9927860">
        <ele>1220.2</ele>
        <time>2017-07-23T15:18:39Z</time>
      </trkpt>
      <trkpt lat="44.4738350" lon="6.9927760">
        <ele>1218.2</ele>
        <time>2017-07-23T15:18:41Z</time>
      </trkpt>
      <trkpt lat="44.4739040" lon="6.9927410">
        <ele>1216.6</ele>
        <time>2017-07-23T15:18:43Z</time>
      </trkpt>
      <trkpt lat="44.4739460" lon="6.9927170">
        <ele>1215.8</ele>
        <time>2017-07-23T15:18:44Z</time>
      </trkpt>
      <trkpt lat="44.4740140" lon="6.9927190">
        <ele>1215.0</ele>
        <time>2017-07-23T15:18:45Z</time>
      </trkpt>
      <trkpt lat="44.4741790" lon="6.9927570">
        <ele>1213.6</ele>
        <time>2017-07-23T15:18:47Z</time>
      </trkpt>
      <trkpt lat="44.4743130" lon="6.9927740">
        <ele>1212.2</ele>
        <time>2017-07-23T15:18:49Z</time>
      </trkpt>
      <trkpt lat="44.4744620" lon="6.9928470">
        <ele>1211.2</ele>
        <time>2017-07-23T15:18:51Z</time>
      </trkpt>
      <trkpt lat="44.4746000" lon="6.9929470">
        <ele>1209.6</ele>
        <time>2017-07-23T15:18:53Z</time>
      </trkpt>
      <trkpt lat="44.4747260" lon="6.9930460">
        <ele>1208.8</ele>
        <time>2017-07-23T15:18:55Z</time>
      </trkpt>
      <trkpt lat="44.4747940" lon="6.9930770">
        <ele>1208.4</ele>
        <time>2017-07-23T15:18:56Z</time>
      </trkpt>
      <trkpt lat="44.4749160" lon="6.9931650">
        <ele>1207.4</ele>
        <time>2017-07-23T15:18:59Z</time>
      </trkpt>
      <trkpt lat="44.4749510" lon="6.9931670">
        <ele>1207.2</ele>
        <time>2017-07-23T15:19:00Z</time>
      </trkpt>
      <trkpt lat="44.4750540" lon="6.9930880">
        <ele>1206.4</ele>
        <time>2017-07-23T15:19:03Z</time>
      </trkpt>
      <trkpt lat="44.4750970" lon="6.9930670">
        <ele>1206.0</ele>
        <time>2017-07-23T15:19:04Z</time>
      </trkpt>
      <trkpt lat="44.4751920" lon="6.9929550">
        <ele>1205.2</ele>
        <time>2017-07-23T15:19:07Z</time>
      </trkpt>
      <trkpt lat="44.4752440" lon="6.9928840">
        <ele>1205.0</ele>
        <time>2017-07-23T15:19:09Z</time>
      </trkpt>
      <trkpt lat="44.4752790" lon="6.9928130">
        <ele>1204.8</ele>
        <time>2017-07-23T15:19:11Z</time>
      </trkpt>
      <trkpt lat="44.4753230" lon="6.9926910">
        <ele>1204.8</ele>
        <time>2017-07-23T15:19:14Z</time>
      </trkpt>
      <trkpt lat="44.4753450" lon="6.9925770">
        <ele>1204.6</ele>
        <time>2017-07-23T15:19:16Z</time>
      </trkpt>
      <trkpt lat="44.4753850" lon="6.9924250">
        <ele>1204.2</ele>
        <time>2017-07-23T15:19:19Z</time>
      </trkpt>
      <trkpt lat="44.4754210" lon="6.9922810">
        <ele>1203.6</ele>
        <time>2017-07-23T15:19:22Z</time>
      </trkpt>
      <trkpt lat="44.4754450" lon="6.9921950">
        <ele>1203.2</ele>
        <time>2017-07-23T15:19:24Z</time>
      </trkpt>
      <trkpt lat="44.4754650" lon="6.9920980">
        <ele>1203.0</ele>
        <time>2017-07-23T15:19:26Z</time>
      </trkpt>
      <trkpt lat="44.4755300" lon="6.9918280">
        <ele>1202.0</ele>
        <time>2017-07-23T15:19:32Z</time>
      </trkpt>
      <trkpt lat="44.4755440" lon="6.9916970">
        <ele>1201.6</ele>
        <time>2017-07-23T15:19:35Z</time>
      </trkpt>
      <trkpt lat="44.4755500" lon="6.9913800">
        <ele>1201.6</ele>
        <time>2017-07-23T15:19:42Z</time>
      </trkpt>
      <trkpt lat="44.4754980" lon="6.9912060">
        <ele>1202.6</ele>
        <time>2017-07-23T15:19:47Z</time>
      </trkpt>
      <trkpt lat="44.4754590" lon="6.9911070">
        <ele>1203.0</ele>
        <time>2017-07-23T15:19:50Z</time>
      </trkpt>
      <trkpt lat="44.4753950" lon="6.9909830">
        <ele>1204.4</ele>
        <time>2017-07-23T15:19:54Z</time>
      </trkpt>
      <trkpt lat="44.4753510" lon="6.9909190">
        <ele>1205.0</ele>
        <time>2017-07-23T15:19:56Z</time>
      </trkpt>
      <trkpt lat="44.4752990" lon="6.9908630">
        <ele>1205.4</ele>
        <time>2017-07-23T15:19:58Z</time>
      </trkpt>
      <trkpt lat="44.4752290" lon="6.9907290">
        <ele>1206.2</ele>
        <time>2017-07-23T15:20:02Z</time>
      </trkpt>
      <trkpt lat="44.4751860" lon="6.9906560">
        <ele>1206.8</ele>
        <time>2017-07-23T15:20:04Z</time>
      </trkpt>
      <trkpt lat="44.4751250" lon="6.9905290">
        <ele>1207.8</ele>
        <time>2017-07-23T15:20:07Z</time>
      </trkpt>
      <trkpt lat="44.4750420" lon="6.9903970">
        <ele>1209.0</ele>
        <time>2017-07-23T15:20:11Z</time>
      </trkpt>
      <trkpt lat="44.4749610" lon="6.9902670">
        <ele>1210.0</ele>
        <time>2017-07-23T15:20:15Z</time>
      </trkpt>
      <trkpt lat="44.4748890" lon="6.9901780">
        <ele>1210.8</ele>
        <time>2017-07-23T15:20:18Z</time>
      </trkpt>
      <trkpt lat="44.4748640" lon="6.9901540">
        <ele>1211.0</ele>
        <time>2017-07-23T15:20:19Z</time>
      </trkpt>
      <trkpt lat="44.4747280" lon="6.9899800">
        <ele>1212.2</ele>
        <time>2017-07-23T15:20:25Z</time>
      </trkpt>
      <trkpt lat="44.4746520" lon="6.9898190">
        <ele>1212.8</ele>
        <time>2017-07-23T15:20:31Z</time>
      </trkpt>
      <trkpt lat="44.4747100" lon="6.9895170">
        <ele>1212.4</ele>
        <time>2017-07-23T15:20:38Z</time>
      </trkpt>
      <trkpt lat="44.4748380" lon="6.9890960">
        <ele>1212.2</ele>
        <time>2017-07-23T15:20:47Z</time>
      </trkpt>
      <trkpt lat="44.4749480" lon="6.9888690">
        <ele>1212.2</ele>
        <time>2017-07-23T15:20:53Z</time>
      </trkpt>
      <trkpt lat="44.4750760" lon="6.9885310">
        <ele>1213.0</ele>
        <time>2017-07-23T15:21:02Z</time>
      </trkpt>
      <trkpt lat="44.4751010" lon="6.9884590">
        <ele>1213.2</ele>
        <time>2017-07-23T15:21:04Z</time>
      </trkpt>
      <trkpt lat="44.4751790" lon="6.9882860">
        <ele>1213.8</ele>
        <time>2017-07-23T15:21:09Z</time>
      </trkpt>
      <trkpt lat="44.4752170" lon="6.9881800">
        <ele>1214.4</ele>
        <time>2017-07-23T15:21:12Z</time>
      </trkpt>
      <trkpt lat="44.4752950" lon="6.9879790">
        <ele>1215.4</ele>
        <time>2017-07-23T15:21:18Z</time>
      </trkpt>
      <trkpt lat="44.4753660" lon="6.9877700">
        <ele>1216.6</ele>
        <time>2017-07-23T15:21:24Z</time>
      </trkpt>
      <trkpt lat="44.4753810" lon="6.9876640">
        <ele>1217.4</ele>
        <time>2017-07-23T15:21:27Z</time>
      </trkpt>
      <trkpt lat="44.4753830" lon="6.9876300">
        <ele>1217.6</ele>
        <time>2017-07-23T15:21:28Z</time>
      </trkpt>
      <trkpt lat="44.4753970" lon="6.9874490">
        <ele>1219.4</ele>
        <time>2017-07-23T15:21:33Z</time>
      </trkpt>
      <trkpt lat="44.4753990" lon="6.9873810">
        <ele>1219.0</ele>
        <time>2017-07-23T15:21:35Z</time>
      </trkpt>
      <trkpt lat="44.4754020" lon="6.9873130">
        <ele>1220.4</ele>
        <time>2017-07-23T15:21:37Z</time>
      </trkpt>
      <trkpt lat="44.4754030" lon="6.9872790">
        <ele>1222.0</ele>
        <time>2017-07-23T15:21:38Z</time>
      </trkpt>
      <trkpt lat="44.4754140" lon="6.9871840">
        <ele>1223.2</ele>
        <time>2017-07-23T15:21:41Z</time>
      </trkpt>
      <trkpt lat="44.4754260" lon="6.9871180">
        <ele>1224.0</ele>
        <time>2017-07-23T15:21:43Z</time>
      </trkpt>
      <trkpt lat="44.4754270" lon="6.9870810">
        <ele>1224.2</ele>
        <time>2017-07-23T15:21:44Z</time>
      </trkpt>
      <trkpt lat="44.4754460" lon="6.9869030">
        <ele>1225.4</ele>
        <time>2017-07-23T15:21:49Z</time>
      </trkpt>
      <trkpt lat="44.4754790" lon="6.9867390">
        <ele>1226.4</ele>
        <time>2017-07-23T15:21:54Z</time>
      </trkpt>
      <trkpt lat="44.4755090" lon="6.9866030">
        <ele>1227.6</ele>
        <time>2017-07-23T15:21:58Z</time>
      </trkpt>
      <trkpt lat="44.4755500" lon="6.9865190">
        <ele>1228.6</ele>
        <time>2017-07-23T15:22:01Z</time>
      </trkpt>
      <trkpt lat="44.4755630" lon="6.9864970">
        <ele>1228.8</ele>
        <time>2017-07-23T15:22:02Z</time>
      </trkpt>
      <trkpt lat="44.4756020" lon="6.9864340">
        <ele>1230.2</ele>
        <time>2017-07-23T15:22:05Z</time>
      </trkpt>
      <trkpt lat="44.4756280" lon="6.9863600">
        <ele>1231.2</ele>
        <time>2017-07-23T15:22:08Z</time>
      </trkpt>
      <trkpt lat="44.4756360" lon="6.9863360">
        <ele>1231.4</ele>
        <time>2017-07-23T15:22:09Z</time>
      </trkpt>
      <trkpt lat="44.4756640" lon="6.9862650">
        <ele>1232.6</ele>
        <time>2017-07-23T15:22:12Z</time>
      </trkpt>
      <trkpt lat="44.4756950" lon="6.9862020">
        <ele>1233.6</ele>
        <time>2017-07-23T15:22:15Z</time>
      </trkpt>
      <trkpt lat="44.4757320" lon="6.9861200">
        <ele>1235.0</ele>
        <time>2017-07-23T15:22:19Z</time>
      </trkpt>
      <trkpt lat="44.4757590" lon="6.9860550">
        <ele>1236.0</ele>
        <time>2017-07-23T15:22:22Z</time>
      </trkpt>
      <trkpt lat="44.4755400" lon="6.9837370">
        <ele>1258.0</ele>
        <time>2017-07-24T07:14:56Z</time>
      </trkpt>
      <trkpt lat="44.4756090" lon="6.9837030">
        <ele>1258.0</ele>
        <time>2017-07-24T07:14:58Z</time>
      </trkpt>
      <trkpt lat="44.4756710" lon="6.9836550">
        <ele>1261.2</ele>
        <time>2017-07-24T07:15:00Z</time>
      </trkpt>
      <trkpt lat="44.4757300" lon="6.9836130">
        <ele>1261.2</ele>
        <time>2017-07-24T07:15:02Z</time>
      </trkpt>
      <trkpt lat="44.4757820" lon="6.9835680">
        <ele>1261.6</ele>
        <time>2017-07-24T07:15:04Z</time>
      </trkpt>
      <trkpt lat="44.4758100" lon="6.9835490">
        <ele>1262.2</ele>
        <time>2017-07-24T07:15:05Z</time>
      </trkpt>
      <trkpt lat="44.4758890" lon="6.9835120">
        <ele>1263.2</ele>
        <time>2017-07-24T07:15:08Z</time>
      </trkpt>
      <trkpt lat="44.4759110" lon="6.9834940">
        <ele>1263.8</ele>
        <time>2017-07-24T07:15:09Z</time>
      </trkpt>
      <trkpt lat="44.4759560" lon="6.9834530">
        <ele>1264.2</ele>
        <time>2017-07-24T07:15:11Z</time>
      </trkpt>
      <trkpt lat="44.4760570" lon="6.9833860">
        <ele>1265.6</ele>
        <time>2017-07-24T07:15:15Z</time>
      </trkpt>
      <trkpt lat="44.4761980" lon="6.9833250">
        <ele>1266.8</ele>
        <time>2017-07-24T07:15:20Z</time>
      </trkpt>
      <trkpt lat="44.4762780" lon="6.9832730">
        <ele>1267.6</ele>
        <time>2017-07-24T07:15:23Z</time>
      </trkpt>
      <trkpt lat="44.4763010" lon="6.9832490">
        <ele>1267.8</ele>
        <time>2017-07-24T07:15:24Z</time>
      </trkpt>
      <trkpt lat="44.4763980" lon="6.9832000">
        <ele>1269.0</ele>
        <time>2017-07-24T07:15:28Z</time>
      </trkpt>
      <trkpt lat="44.4764200" lon="6.9831880">
        <ele>1269.8</ele>
        <time>2017-07-24T07:15:29Z</time>
      </trkpt>
      <trkpt lat="44.4764400" lon="6.9831780">
        <ele>1270.4</ele>
        <time>2017-07-24T07:15:30Z</time>
      </trkpt>
      <trkpt lat="44.4765050" lon="6.9831530">
        <ele>1271.4</ele>
        <time>2017-07-24T07:15:33Z</time>
      </trkpt>
      <trkpt lat="44.4765730" lon="6.9831450">
        <ele>1272.4</ele>
        <time>2017-07-24T07:15:36Z</time>
      </trkpt>
      <trkpt lat="44.4766450" lon="6.9831660">
        <ele>1273.4</ele>
        <time>2017-07-24T07:15:39Z</time>
      </trkpt>
      <trkpt lat="44.4767160" lon="6.9831630">
        <ele>1274.4</ele>
        <time>2017-07-24T07:15:42Z</time>
      </trkpt>
      <trkpt lat="44.4768300" lon="6.9831840">
        <ele>1275.4</ele>
        <time>2017-07-24T07:15:47Z</time>
      </trkpt>
      <trkpt lat="44.4768750" lon="6.9831820">
        <ele>1275.8</ele>
        <time>2017-07-24T07:15:49Z</time>
      </trkpt>
      <trkpt lat="44.4769510" lon="6.9831210">
        <ele>1276.8</ele>
        <time>2017-07-24T07:15:53Z</time>
      </trkpt>
      <trkpt lat="44.4769620" lon="6.9830950">
        <ele>1276.8</ele>
        <time>2017-07-24T07:15:54Z</time>
      </trkpt>
      <trkpt lat="44.4769660" lon="6.9830640">
        <ele>1277.2</ele>
        <time>2017-07-24T07:15:55Z</time>
      </trkpt>
      <trkpt lat="44.4769290" lon="6.9829760">
        <ele>1278.0</ele>
        <time>2017-07-24T07:15:58Z</time>
      </trkpt>
      <trkpt lat="44.4769140" lon="6.9829490">
        <ele>1278.2</ele>
        <time>2017-07-24T07:15:59Z</time>
      </trkpt>
      <trkpt lat="44.4768200" lon="6.9828530">
        <ele>1279.0</ele>
        <time>2017-07-24T07:16:04Z</time>
      </trkpt>
      <trkpt lat="44.4767980" lon="6.9828400">
        <ele>1279.2</ele>
        <time>2017-07-24T07:16:05Z</time>
      </trkpt>
      <trkpt lat="44.4766540" lon="6.9827630">
        <ele>1280.0</ele>
        <time>2017-07-24T07:16:12Z</time>
      </trkpt>
      <trkpt lat="44.4765600" lon="6.9827490">
        <ele>1281.2</ele>
        <time>2017-07-24T07:16:16Z</time>
      </trkpt>
      <trkpt lat="44.4764970" lon="6.9827430">
        <ele>1282.6</ele>
        <time>2017-07-24T07:16:19Z</time>
      </trkpt>
      <trkpt lat="44.4764340" lon="6.9827500">
        <ele>1283.8</ele>
        <time>2017-07-24T07:16:22Z</time>
      </trkpt>
      <trkpt lat="44.4763710" lon="6.9827440">
        <ele>1285.0</ele>
        <time>2017-07-24T07:16:25Z</time>
      </trkpt>
      <trkpt lat="44.4763300" lon="6.9827440">
        <ele>1285.8</ele>
        <time>2017-07-24T07:16:27Z</time>
      </trkpt>
      <trkpt lat="44.4763100" lon="6.9827440">
        <ele>1286.4</ele>
        <time>2017-07-24T07:16:28Z</time>
      </trkpt>
      <trkpt lat="44.4762500" lon="6.9827500">
        <ele>1287.6</ele>
        <time>2017-07-24T07:16:31Z</time>
      </trkpt>
      <trkpt lat="44.4761770" lon="6.9827470">
        <ele>1288.8</ele>
        <time>2017-07-24T07:16:34Z</time>
      </trkpt>
      <trkpt lat="44.4761400" lon="6.9827390">
        <ele>1289.4</ele>
        <time>2017-07-24T07:16:36Z</time>
      </trkpt>
      <trkpt lat="44.4761180" lon="6.9827380">
        <ele>1289.8</ele>
        <time>2017-07-24T07:16:37Z</time>
      </trkpt>
      <trkpt lat="44.4760540" lon="6.9827340">
        <ele>1290.8</ele>
        <time>2017-07-24T07:16:40Z</time>
      </trkpt>
      <trkpt lat="44.4759910" lon="6.9827250">
        <ele>1292.0</ele>
        <time>2017-07-24T07:16:43Z</time>
      </trkpt>
      <trkpt lat="44.4759250" lon="6.9827010">
        <ele>1292.6</ele>
        <time>2017-07-24T07:16:46Z</time>
      </trkpt>
      <trkpt lat="44.4758820" lon="6.9826860">
        <ele>1293.0</ele>
        <time>2017-07-24T07:16:48Z</time>
      </trkpt>
      <trkpt lat="44.4757480" lon="6.9826260">
        <ele>1294.2</ele>
        <time>2017-07-24T07:16:54Z</time>
      </trkpt>
      <trkpt lat="44.4757290" lon="6.9826070">
        <ele>1294.2</ele>
        <time>2017-07-24T07:16:55Z</time>
      </trkpt>
      <trkpt lat="44.4756120" lon="6.9824520">
        <ele>1295.2</ele>
        <time>2017-07-24T07:17:02Z</time>
      </trkpt>
      <trkpt lat="44.4756010" lon="6.9824280">
        <ele>1295.4</ele>
        <time>2017-07-24T07:17:03Z</time>
      </trkpt>
      <trkpt lat="44.4755560" lon="6.9823520">
        <ele>1296.4</ele>
        <time>2017-07-24T07:17:06Z</time>
      </trkpt>
      <trkpt lat="44.4755220" lon="6.9822690">
        <ele>1297.4</ele>
        <time>2017-07-24T07:17:09Z</time>
      </trkpt>
      <trkpt lat="44.4754930" lon="6.9822160">
        <ele>1298.2</ele>
        <time>2017-07-24T07:17:11Z</time>
      </trkpt>
      <trkpt lat="44.4754760" lon="6.9821910">
        <ele>1298.6</ele>
        <time>2017-07-24T07:17:12Z</time>
      </trkpt>
      <trkpt lat="44.4754280" lon="6.9821170">
        <ele>1299.6</ele>
        <time>2017-07-24T07:17:15Z</time>
      </trkpt>
      <trkpt lat="44.4753860" lon="6.9820390">
        <ele>1301.0</ele>
        <time>2017-07-24T07:17:18Z</time>
      </trkpt>
      <trkpt lat="44.4752890" lon="6.9818810">
        <ele>1302.0</ele>
        <time>2017-07-24T07:17:24Z</time>
      </trkpt>
      <trkpt lat="44.4752750" lon="6.9818560">
        <ele>1302.2</ele>
        <time>2017-07-24T07:17:25Z</time>
      </trkpt>
      <trkpt lat="44.4752210" lon="6.9817520">
        <ele>1303.4</ele>
        <time>2017-07-24T07:17:29Z</time>
      </trkpt>
      <trkpt lat="44.4751830" lon="6.9816690">
        <ele>1304.2</ele>
        <time>2017-07-24T07:17:32Z</time>
      </trkpt>
      <trkpt lat="44.4751700" lon="6.9816430">
        <ele>1304.4</ele>
        <time>2017-07-24T07:17:33Z</time>
      </trkpt>
      <trkpt lat="44.4751270" lon="6.9815270">
        <ele>1305.6</ele>
        <time>2017-07-24T07:17:37Z</time>
      </trkpt>
      <trkpt lat="44.4750970" lon="6.9814410">
        <ele>1306.2</ele>
        <time>2017-07-24T07:17:40Z</time>
      </trkpt>
      <trkpt lat="44.4750840" lon="6.9814080">
        <ele>1306.6</ele>
        <time>2017-07-24T07:17:41Z</time>
      </trkpt>
      <trkpt lat="44.4750400" lon="6.9812990">
        <ele>1307.8</ele>
        <time>2017-07-24T07:17:45Z</time>
      </trkpt>
      <trkpt lat="44.4749990" lon="6.9812200">
        <ele>1308.8</ele>
        <time>2017-07-24T07:17:48Z</time>
      </trkpt>
      <trkpt lat="44.4749640" lon="6.9810960">
        <ele>1310.0</ele>
        <time>2017-07-24T07:17:52Z</time>
      </trkpt>
      <trkpt lat="44.4749330" lon="6.9810120">
        <ele>1311.2</ele>
        <time>2017-07-24T07:17:55Z</time>
      </trkpt>
      <trkpt lat="44.4749220" lon="6.9809830">
        <ele>1311.4</ele>
        <time>2017-07-24T07:17:56Z</time>
      </trkpt>
      <trkpt lat="44.4749030" lon="6.9809270">
        <ele>1312.2</ele>
        <time>2017-07-24T07:17:58Z</time>
      </trkpt>
      <trkpt lat="44.4748680" lon="6.9807970">
        <ele>1313.2</ele>
        <time>2017-07-24T07:18:02Z</time>
      </trkpt>
      <trkpt lat="44.4748560" lon="6.9807280">
        <ele>1313.8</ele>
        <time>2017-07-24T07:18:04Z</time>
      </trkpt>
      <trkpt lat="44.4748520" lon="6.9806970">
        <ele>1314.2</ele>
        <time>2017-07-24T07:18:05Z</time>
      </trkpt>
      <trkpt lat="44.4748890" lon="6.9806170">
        <ele>1315.0</ele>
        <time>2017-07-24T07:18:08Z</time>
      </trkpt>
      <trkpt lat="44.4749120" lon="6.9806170">
        <ele>1315.2</ele>
        <time>2017-07-24T07:18:09Z</time>
      </trkpt>
      <trkpt lat="44.4749660" lon="6.9806750">
        <ele>1316.4</ele>
        <time>2017-07-24T07:18:12Z</time>
      </trkpt>
      <trkpt lat="44.4749790" lon="6.9806990">
        <ele>1316.6</ele>
        <time>2017-07-24T07:18:13Z</time>
      </trkpt>
      <trkpt lat="44.4750040" lon="6.9807500">
        <ele>1317.4</ele>
        <time>2017-07-24T07:18:15Z</time>
      </trkpt>
      <trkpt lat="44.4750170" lon="6.9807700">
        <ele>1317.6</ele>
        <time>2017-07-24T07:18:16Z</time>
      </trkpt>
      <trkpt lat="44.4750780" lon="6.9808770">
        <ele>1318.6</ele>
        <time>2017-07-24T07:18:20Z</time>
      </trkpt>
      <trkpt lat="44.4751420" lon="6.9809740">
        <ele>1320.0</ele>
        <time>2017-07-24T07:18:24Z</time>
      </trkpt>
      <trkpt lat="44.4751870" lon="6.9810410">
        <ele>1321.0</ele>
        <time>2017-07-24T07:18:27Z</time>
      </trkpt>
      <trkpt lat="44.4752270" lon="6.9810790">
        <ele>1321.6</ele>
        <time>2017-07-24T07:18:29Z</time>
      </trkpt>
      <trkpt lat="44.4752930" lon="6.9811250">
        <ele>1322.2</ele>
        <time>2017-07-24T07:18:32Z</time>
      </trkpt>
      <trkpt lat="44.4753790" lon="6.9811530">
        <ele>1323.4</ele>
        <time>2017-07-24T07:18:36Z</time>
      </trkpt>
      <trkpt lat="44.4754220" lon="6.9811660">
        <ele>1323.6</ele>
        <time>2017-07-24T07:18:38Z</time>
      </trkpt>
      <trkpt lat="44.4754910" lon="6.9811820">
        <ele>1324.4</ele>
        <time>2017-07-24T07:18:41Z</time>
      </trkpt>
      <trkpt lat="44.4756310" lon="6.9812140">
        <ele>1325.8</ele>
        <time>2017-07-24T07:18:47Z</time>
      </trkpt>
      <trkpt lat="44.4756510" lon="6.9812200">
        <ele>1326.0</ele>
        <time>2017-07-24T07:18:48Z</time>
      </trkpt>
      <trkpt lat="44.4757600" lon="6.9812770">
        <ele>1327.0</ele>
        <time>2017-07-24T07:18:53Z</time>
      </trkpt>
      <trkpt lat="44.4758150" lon="6.9813220">
        <ele>1328.0</ele>
        <time>2017-07-24T07:18:56Z</time>
      </trkpt>
      <trkpt lat="44.4758350" lon="6.9813370">
        <ele>1328.4</ele>
        <time>2017-07-24T07:18:57Z</time>
      </trkpt>
      <trkpt lat="44.4758950" lon="6.9813760">
        <ele>1329.6</ele>
        <time>2017-07-24T07:19:00Z</time>
      </trkpt>
      <trkpt lat="44.4759740" lon="6.9814340">
        <ele>1331.0</ele>
        <time>2017-07-24T07:19:04Z</time>
      </trkpt>
      <trkpt lat="44.4759990" lon="6.9814430">
        <ele>1331.4</ele>
        <time>2017-07-24T07:19:05Z</time>
      </trkpt>
      <trkpt lat="44.4760440" lon="6.9814700">
        <ele>1332.2</ele>
        <time>2017-07-24T07:19:07Z</time>
      </trkpt>
      <trkpt lat="44.4761150" lon="6.9815360">
        <ele>1333.4</ele>
        <time>2017-07-24T07:19:11Z</time>
      </trkpt>
      <trkpt lat="44.4761330" lon="6.9815400">
        <ele>1333.8</ele>
        <time>2017-07-24T07:19:12Z</time>
      </trkpt>
      <trkpt lat="44.4762270" lon="6.9815570">
        <ele>1334.6</ele>
        <time>2017-07-24T07:19:16Z</time>
      </trkpt>
      <trkpt lat="44.4762710" lon="6.9815290">
        <ele>1334.8</ele>
        <time>2017-07-24T07:19:18Z</time>
      </trkpt>
      <trkpt lat="44.4763090" lon="6.9814430">
        <ele>1335.6</ele>
        <time>2017-07-24T07:19:21Z</time>
      </trkpt>
      <trkpt lat="44.4763250" lon="6.9813770">
        <ele>1336.2</ele>
        <time>2017-07-24T07:19:23Z</time>
      </trkpt>
      <trkpt lat="44.4763220" lon="6.9813050">
        <ele>1336.8</ele>
        <time>2017-07-24T07:19:25Z</time>
      </trkpt>
      <trkpt lat="44.4762960" lon="6.9812130">
        <ele>1337.8</ele>
        <time>2017-07-24T07:19:28Z</time>
      </trkpt>
      <trkpt lat="44.4762820" lon="6.9811490">
        <ele>1339.0</ele>
        <time>2017-07-24T07:19:30Z</time>
      </trkpt>
      <trkpt lat="44.4762640" lon="6.9810530">
        <ele>1340.2</ele>
        <time>2017-07-24T07:19:33Z</time>
      </trkpt>
      <trkpt lat="44.4762540" lon="6.9809910">
        <ele>1341.0</ele>
        <time>2017-07-24T07:19:35Z</time>
      </trkpt>
      <trkpt lat="44.4762480" lon="6.9809600">
        <ele>1341.4</ele>
        <time>2017-07-24T07:19:36Z</time>
      </trkpt>
      <trkpt lat="44.4762220" lon="6.9808270">
        <ele>1342.4</ele>
        <time>2017-07-24T07:19:40Z</time>
      </trkpt>
      <trkpt lat="44.4762000" lon="6.9807010">
        <ele>1343.8</ele>
        <time>2017-07-24T07:19:44Z</time>
      </trkpt>
      <trkpt lat="44.4761840" lon="6.9806420">
        <ele>1344.4</ele>
        <time>2017-07-24T07:19:46Z</time>
      </trkpt>
      <trkpt lat="44.4761710" lon="6.9805780">
        <ele>1344.8</ele>
        <time>2017-07-24T07:19:48Z</time>
      </trkpt>
      <trkpt lat="44.4761460" lon="6.9804610">
        <ele>1346.2</ele>
        <time>2017-07-24T07:19:52Z</time>
      </trkpt>
      <trkpt lat="44.4761310" lon="6.9803770">
        <ele>1347.4</ele>
        <time>2017-07-24T07:19:55Z</time>
      </trkpt>
      <trkpt lat="44.4761230" lon="6.9803480">
        <ele>1347.6</ele>
        <time>2017-07-24T07:19:56Z</time>
      </trkpt>
      <trkpt lat="44.4761110" lon="6.9802650">
        <ele>1348.6</ele>
        <time>2017-07-24T07:19:59Z</time>
      </trkpt>
      <trkpt lat="44.4760880" lon="6.9801510">
        <ele>1349.6</ele>
        <time>2017-07-24T07:20:03Z</time>
      </trkpt>
      <trkpt lat="44.4760870" lon="6.9801240">
        <ele>1349.8</ele>
        <time>2017-07-24T07:20:04Z</time>
      </trkpt>
      <trkpt lat="44.4760830" lon="6.9800360">
        <ele>1350.8</ele>
        <time>2017-07-24T07:20:07Z</time>
      </trkpt>
      <trkpt lat="44.4761000" lon="6.9799120">
        <ele>1351.8</ele>
        <time>2017-07-24T07:20:11Z</time>
      </trkpt>
      <trkpt lat="44.4761370" lon="6.9797550">
        <ele>1353.0</ele>
        <time>2017-07-24T07:20:16Z</time>
      </trkpt>
      <trkpt lat="44.4761560" lon="6.9796950">
        <ele>1353.4</ele>
        <time>2017-07-24T07:20:18Z</time>
      </trkpt>
      <trkpt lat="44.4762130" lon="6.9795440">
        <ele>1354.0</ele>
        <time>2017-07-24T07:20:23Z</time>
      </trkpt>
      <trkpt lat="44.4762730" lon="6.9794220">
        <ele>1354.8</ele>
        <time>2017-07-24T07:20:27Z</time>
      </trkpt>
      <trkpt lat="44.4763070" lon="6.9793620">
        <ele>1355.2</ele>
        <time>2017-07-24T07:20:29Z</time>
      </trkpt>
      <trkpt lat="44.4763880" lon="6.9792050">
        <ele>1356.4</ele>
        <time>2017-07-24T07:20:34Z</time>
      </trkpt>
      <trkpt lat="44.4764190" lon="6.9791450">
        <ele>1356.8</ele>
        <time>2017-07-24T07:20:36Z</time>
      </trkpt>
      <trkpt lat="44.4764700" lon="6.9790510">
        <ele>1357.6</ele>
        <time>2017-07-24T07:20:39Z</time>
      </trkpt>
      <trkpt lat="44.4765310" lon="6.9789130">
        <ele>1358.6</ele>
        <time>2017-07-24T07:20:43Z</time>
      </trkpt>
      <trkpt lat="44.4765530" lon="6.9788400">
        <ele>1359.0</ele>
        <time>2017-07-24T07:20:45Z</time>
      </trkpt>
      <trkpt lat="44.4765680" lon="6.9787230">
        <ele>1359.8</ele>
        <time>2017-07-24T07:20:48Z</time>
      </trkpt>
      <trkpt lat="44.4765840" lon="6.9786140">
        <ele>1360.6</ele>
        <time>2017-07-24T07:20:51Z</time>
      </trkpt>
      <trkpt lat="44.4765850" lon="6.9785700">
        <ele>1360.8</ele>
        <time>2017-07-24T07:20:52Z</time>
      </trkpt>
      <trkpt lat="44.4765690" lon="6.9783980">
        <ele>1361.8</ele>
        <time>2017-07-24T07:20:56Z</time>
      </trkpt>
      <trkpt lat="44.4765620" lon="6.9783530">
        <ele>1362.0</ele>
        <time>2017-07-24T07:20:57Z</time>
      </trkpt>
      <trkpt lat="44.4765090" lon="6.9781860">
        <ele>1363.0</ele>
        <time>2017-07-24T07:21:01Z</time>
      </trkpt>
      <trkpt lat="44.4764650" lon="6.9781180">
        <ele>1363.2</ele>
        <time>2017-07-24T07:21:03Z</time>
      </trkpt>
      <trkpt lat="44.4762910" lon="6.9779660">
        <ele>1363.2</ele>
        <time>2017-07-24T07:21:09Z</time>
      </trkpt>
      <trkpt lat="44.4760540" lon="6.9778920">
        <ele>1364.0</ele>
        <time>2017-07-24T07:21:16Z</time>
      </trkpt>
      <trkpt lat="44.4758100" lon="6.9778660">
        <ele>1365.2</ele>
        <time>2017-07-24T07:21:23Z</time>
      </trkpt>
      <trkpt lat="44.4757470" lon="6.9778560">
        <ele>1365.4</ele>
        <time>2017-07-24T07:21:25Z</time>
      </trkpt>
      <trkpt lat="44.4756220" lon="6.9778460">
        <ele>1366.4</ele>
        <time>2017-07-24T07:21:29Z</time>
      </trkpt>
      <trkpt lat="44.4754430" lon="6.9778260">
        <ele>1367.0</ele>
        <time>2017-07-24T07:21:35Z</time>
      </trkpt>
      <trkpt lat="44.4753080" lon="6.9777690">
        <ele>1367.6</ele>
        <time>2017-07-24T07:21:40Z</time>
      </trkpt>
      <trkpt lat="44.4752840" lon="6.9777450">
        <ele>1367.6</ele>
        <time>2017-07-24T07:21:41Z</time>
      </trkpt>
      <trkpt lat="44.4751820" lon="6.9775500">
        <ele>1368.4</ele>
        <time>2017-07-24T07:21:47Z</time>
      </trkpt>
      <trkpt lat="44.4751740" lon="6.9775070">
        <ele>1368.6</ele>
        <time>2017-07-24T07:21:48Z</time>
      </trkpt>
      <trkpt lat="44.4751630" lon="6.9773630">
        <ele>1369.8</ele>
        <time>2017-07-24T07:21:51Z</time>
      </trkpt>
      <trkpt lat="44.4751750" lon="6.9772660">
        <ele>1371.0</ele>
        <time>2017-07-24T07:21:53Z</time>
      </trkpt>
      <trkpt lat="44.4752070" lon="6.9771160">
        <ele>1372.0</ele>
        <time>2017-07-24T07:21:56Z</time>
      </trkpt>
      <trkpt lat="44.4752480" lon="6.9769570">
        <ele>1373.2</ele>
        <time>2017-07-24T07:21:59Z</time>
      </trkpt>
      <trkpt lat="44.4752790" lon="6.9768470">
        <ele>1373.8</ele>
        <time>2017-07-24T07:22:01Z</time>
      </trkpt>
      <trkpt lat="44.4752970" lon="6.9767950">
        <ele>1374.4</ele>
        <time>2017-07-24T07:22:02Z</time>
      </trkpt>
      <trkpt lat="44.4753700" lon="6.9765740">
        <ele>1375.4</ele>
        <time>2017-07-24T07:22:06Z</time>
      </trkpt>
      <trkpt lat="44.4754530" lon="6.9763550">
        <ele>1376.4</ele>
        <time>2017-07-24T07:22:10Z</time>
      </trkpt>
      <trkpt lat="44.4754730" lon="6.9762980">
        <ele>1376.6</ele>
        <time>2017-07-24T07:22:11Z</time>
      </trkpt>
      <trkpt lat="44.4756090" lon="6.9759030">
        <ele>1377.6</ele>
        <time>2017-07-24T07:22:18Z</time>
      </trkpt>
      <trkpt lat="44.4756300" lon="6.9758440">
        <ele>1377.8</ele>
        <time>2017-07-24T07:22:19Z</time>
      </trkpt>
      <trkpt lat="44.4757150" lon="6.9756190">
        <ele>1378.4</ele>
        <time>2017-07-24T07:22:23Z</time>
      </trkpt>
      <trkpt lat="44.4757510" lon="6.9754990">
        <ele>1378.8</ele>
        <time>2017-07-24T07:22:25Z</time>
      </trkpt>
      <trkpt lat="44.4757700" lon="6.9754400">
        <ele>1379.0</ele>
        <time>2017-07-24T07:22:26Z</time>
      </trkpt>
      <trkpt lat="44.4758640" lon="6.9751580">
        <ele>1379.2</ele>
        <time>2017-07-24T07:22:31Z</time>
      </trkpt>
      <trkpt lat="44.4759190" lon="6.9750550">
        <ele>1379.6</ele>
        <time>2017-07-24T07:22:33Z</time>
      </trkpt>
      <trkpt lat="44.4759580" lon="6.9750140">
        <ele>1379.8</ele>
        <time>2017-07-24T07:22:34Z</time>
      </trkpt>
      <trkpt lat="44.4760380" lon="6.9749820">
        <ele>1380.0</ele>
        <time>2017-07-24T07:22:36Z</time>
      </trkpt>
      <trkpt lat="44.4761220" lon="6.9750120">
        <ele>1380.0</ele>
        <time>2017-07-24T07:22:39Z</time>
      </trkpt>
      <trkpt lat="44.4761700" lon="6.9750440">
        <ele>1380.2</ele>
        <time>2017-07-24T07:22:41Z</time>
      </trkpt>
      <trkpt lat="44.4762730" lon="6.9751260">
        <ele>1380.8</ele>
        <time>2017-07-24T07:22:46Z</time>
      </trkpt>
      <trkpt lat="44.4762950" lon="6.9751410">
        <ele>1381.0</ele>
        <time>2017-07-24T07:22:47Z</time>
      </trkpt>
      <trkpt lat="44.4764760" lon="6.9752610">
        <ele>1382.0</ele>
        <time>2017-07-24T07:22:56Z</time>
      </trkpt>
      <trkpt lat="44.4766260" lon="6.9753720">
        <ele>1383.0</ele>
        <time>2017-07-24T07:23:04Z</time>
      </trkpt>
      <trkpt lat="44.4766480" lon="6.9753780">
        <ele>1383.4</ele>
        <time>2017-07-24T07:23:05Z</time>
      </trkpt>
      <trkpt lat="44.4767080" lon="6.9754060">
        <ele>1384.0</ele>
        <time>2017-07-24T07:23:08Z</time>
      </trkpt>
      <trkpt lat="44.4767750" lon="6.9754730">
        <ele>1385.0</ele>
        <time>2017-07-24T07:23:12Z</time>
      </trkpt>
      <trkpt lat="44.4767890" lon="6.9754920">
        <ele>1385.2</ele>
        <time>2017-07-24T07:23:13Z</time>
      </trkpt>
      <trkpt lat="44.4768800" lon="6.9755390">
        <ele>1386.2</ele>
        <time>2017-07-24T07:23:18Z</time>
      </trkpt>
      <trkpt lat="44.4769410" lon="6.9755870">
        <ele>1387.4</ele>
        <time>2017-07-24T07:23:22Z</time>
      </trkpt>
      <trkpt lat="44.4769920" lon="6.9756360">
        <ele>1388.4</ele>
        <time>2017-07-24T07:23:25Z</time>
      </trkpt>
      <trkpt lat="44.4770090" lon="6.9756500">
        <ele>1388.6</ele>
        <time>2017-07-24T07:23:26Z</time>
      </trkpt>
      <trkpt lat="44.4770620" lon="6.9756790">
        <ele>1390.0</ele>
        <time>2017-07-24T07:23:29Z</time>
      </trkpt>
      <trkpt lat="44.4771100" lon="6.9757170">
        <ele>1390.8</ele>
        <time>2017-07-24T07:23:32Z</time>
      </trkpt>
      <trkpt lat="44.4771430" lon="6.9757430">
        <ele>1391.4</ele>
        <time>2017-07-24T07:23:34Z</time>
      </trkpt>
      <trkpt lat="44.4772330" lon="6.9757930">
        <ele>1392.4</ele>
        <time>2017-07-24T07:23:39Z</time>
      </trkpt>
      <trkpt lat="44.4772500" lon="6.9758020">
        <ele>1392.6</ele>
        <time>2017-07-24T07:23:40Z</time>
      </trkpt>
      <trkpt lat="44.4773460" lon="6.9758830">
        <ele>1393.6</ele>
        <time>2017-07-24T07:23:46Z</time>
      </trkpt>
      <trkpt lat="44.4773640" lon="6.9758930">
        <ele>1393.8</ele>
        <time>2017-07-24T07:23:47Z</time>
      </trkpt>
      <trkpt lat="44.4774330" lon="6.9759390">
        <ele>1394.8</ele>
        <time>2017-07-24T07:23:51Z</time>
      </trkpt>
      <trkpt lat="44.4774660" lon="6.9759650">
        <ele>1396.0</ele>
        <time>2017-07-24T07:23:53Z</time>
      </trkpt>
      <trkpt lat="44.4775160" lon="6.9760030">
        <ele>1396.8</ele>
        <time>2017-07-24T07:23:56Z</time>
      </trkpt>
      <trkpt lat="44.4775350" lon="6.9760150">
        <ele>1397.2</ele>
        <time>2017-07-24T07:23:57Z</time>
      </trkpt>
      <trkpt lat="44.4775770" lon="6.9760550">
        <ele>1398.2</ele>
        <time>2017-07-24T07:24:00Z</time>
      </trkpt>
      <trkpt lat="44.4776250" lon="6.9760880">
        <ele>1399.2</ele>
        <time>2017-07-24T07:24:03Z</time>
      </trkpt>
      <trkpt lat="44.4776870" lon="6.9761360">
        <ele>1400.4</ele>
        <time>2017-07-24T07:24:07Z</time>
      </trkpt>
      <trkpt lat="44.4777350" lon="6.9761600">
        <ele>1401.6</ele>
        <time>2017-07-24T07:24:10Z</time>
      </trkpt>
      <trkpt lat="44.4777870" lon="6.9761700">
        <ele>1402.6</ele>
        <time>2017-07-24T07:24:13Z</time>
      </trkpt>
      <trkpt lat="44.4778370" lon="6.9761950">
        <ele>1403.6</ele>
        <time>2017-07-24T07:24:16Z</time>
      </trkpt>
      <trkpt lat="44.4778680" lon="6.9762150">
        <ele>1404.6</ele>
        <time>2017-07-24T07:24:18Z</time>
      </trkpt>
      <trkpt lat="44.4778830" lon="6.9762230">
        <ele>1405.0</ele>
        <time>2017-07-24T07:24:19Z</time>
      </trkpt>
      <trkpt lat="44.4779470" lon="6.9762600">
        <ele>1406.2</ele>
        <time>2017-07-24T07:24:23Z</time>
      </trkpt>
      <trkpt lat="44.4779790" lon="6.9762800">
        <ele>1406.8</ele>
        <time>2017-07-24T07:24:25Z</time>
      </trkpt>
      <trkpt lat="44.4780070" lon="6.9763020">
        <ele>1407.6</ele>
        <time>2017-07-24T07:24:27Z</time>
      </trkpt>
      <trkpt lat="44.4780750" lon="6.9763360">
        <ele>1408.8</ele>
        <time>2017-07-24T07:24:31Z</time>
      </trkpt>
      <trkpt lat="44.4781520" lon="6.9763750">
        <ele>1409.8</ele>
        <time>2017-07-24T07:24:35Z</time>
      </trkpt>
      <trkpt lat="44.4782330" lon="6.9763980">
        <ele>1410.8</ele>
        <time>2017-07-24T07:24:39Z</time>
      </trkpt>
      <trkpt lat="44.4782800" lon="6.9764320">
        <ele>1412.0</ele>
        <time>2017-07-24T07:24:42Z</time>
      </trkpt>
      <trkpt lat="44.4783750" lon="6.9764850">
        <ele>1413.2</ele>
        <time>2017-07-24T07:24:48Z</time>
      </trkpt>
      <trkpt lat="44.4783930" lon="6.9764850">
        <ele>1413.6</ele>
        <time>2017-07-24T07:24:49Z</time>
      </trkpt>
      <trkpt lat="44.4784220" lon="6.9764660">
        <ele>1414.2</ele>
        <time>2017-07-24T07:24:51Z</time>
      </trkpt>
      <trkpt lat="44.4784270" lon="6.9764440">
        <ele>1414.4</ele>
        <time>2017-07-24T07:24:52Z</time>
      </trkpt>
      <trkpt lat="44.4784140" lon="6.9763740">
        <ele>1415.4</ele>
        <time>2017-07-24T07:24:55Z</time>
      </trkpt>
      <trkpt lat="44.4783890" lon="6.9763410">
        <ele>1416.0</ele>
        <time>2017-07-24T07:24:57Z</time>
      </trkpt>
      <trkpt lat="44.4783260" lon="6.9762800">
        <ele>1416.4</ele>
        <time>2017-07-24T07:25:01Z</time>
      </trkpt>
      <trkpt lat="44.4782750" lon="6.9762430">
        <ele>1417.0</ele>
        <time>2017-07-24T07:25:04Z</time>
      </trkpt>
      <trkpt lat="44.4782470" lon="6.9762080">
        <ele>1418.0</ele>
        <time>2017-07-24T07:25:06Z</time>
      </trkpt>
      <trkpt lat="44.4781700" lon="6.9761240">
        <ele>1418.8</ele>
        <time>2017-07-24T07:25:11Z</time>
      </trkpt>
      <trkpt lat="44.4781560" lon="6.9761060">
        <ele>1419.2</ele>
        <time>2017-07-24T07:25:12Z</time>
      </trkpt>
      <trkpt lat="44.4781150" lon="6.9760560">
        <ele>1420.4</ele>
        <time>2017-07-24T07:25:15Z</time>
      </trkpt>
      <trkpt lat="44.4780830" lon="6.9759990">
        <ele>1421.2</ele>
        <time>2017-07-24T07:25:18Z</time>
      </trkpt>
      <trkpt lat="44.4780680" lon="6.9759790">
        <ele>1421.6</ele>
        <time>2017-07-24T07:25:19Z</time>
      </trkpt>
      <trkpt lat="44.4780260" lon="6.9758980">
        <ele>1422.8</ele>
        <time>2017-07-24T07:25:23Z</time>
      </trkpt>
      <trkpt lat="44.4779930" lon="6.9758320">
        <ele>1423.8</ele>
        <time>2017-07-24T07:25:26Z</time>
      </trkpt>
      <trkpt lat="44.4779370" lon="6.9757550">
        <ele>1424.8</ele>
        <time>2017-07-24T07:25:30Z</time>
      </trkpt>
      <trkpt lat="44.4779010" lon="6.9756580">
        <ele>1426.2</ele>
        <time>2017-07-24T07:25:34Z</time>
      </trkpt>
      <trkpt lat="44.4778850" lon="6.9755820">
        <ele>1427.4</ele>
        <time>2017-07-24T07:25:37Z</time>
      </trkpt>
      <trkpt lat="44.4778730" lon="6.9755060">
        <ele>1428.6</ele>
        <time>2017-07-24T07:25:40Z</time>
      </trkpt>
      <trkpt lat="44.4778570" lon="6.9754240">
        <ele>1429.6</ele>
        <time>2017-07-24T07:25:43Z</time>
      </trkpt>
      <trkpt lat="44.4778320" lon="6.9753480">
        <ele>1431.0</ele>
        <time>2017-07-24T07:25:46Z</time>
      </trkpt>
      <trkpt lat="44.4778130" lon="6.9752750">
        <ele>1432.2</ele>
        <time>2017-07-24T07:25:49Z</time>
      </trkpt>
      <trkpt lat="44.4778100" lon="6.9752490">
        <ele>1432.6</ele>
        <time>2017-07-24T07:25:50Z</time>
      </trkpt>
      <trkpt lat="44.4778000" lon="6.9751990">
        <ele>1433.6</ele>
        <time>2017-07-24T07:25:52Z</time>
      </trkpt>
      <trkpt lat="44.4777920" lon="6.9751490">
        <ele>1434.6</ele>
        <time>2017-07-24T07:25:54Z</time>
      </trkpt>
      <trkpt lat="44.4777840" lon="6.9750690">
        <ele>1435.6</ele>
        <time>2017-07-24T07:25:57Z</time>
      </trkpt>
      <trkpt lat="44.4777770" lon="6.9750450">
        <ele>1436.0</ele>
        <time>2017-07-24T07:25:58Z</time>
      </trkpt>
      <trkpt lat="44.4777500" lon="6.9749510">
        <ele>1437.2</ele>
        <time>2017-07-24T07:26:02Z</time>
      </trkpt>
      <trkpt lat="44.4777300" lon="6.9749050">
        <ele>1437.6</ele>
        <time>2017-07-24T07:26:04Z</time>
      </trkpt>
      <trkpt lat="44.4776990" lon="6.9748390">
        <ele>1438.4</ele>
        <time>2017-07-24T07:26:07Z</time>
      </trkpt>
      <trkpt lat="44.4776630" lon="6.9747510">
        <ele>1439.4</ele>
        <time>2017-07-24T07:26:11Z</time>
      </trkpt>
      <trkpt lat="44.4776480" lon="6.9747070">
        <ele>1439.8</ele>
        <time>2017-07-24T07:26:13Z</time>
      </trkpt>
      <trkpt lat="44.4775580" lon="6.9745580">
        <ele>1440.6</ele>
        <time>2017-07-24T07:26:20Z</time>
      </trkpt>
      <trkpt lat="44.4775220" lon="6.9744190">
        <ele>1441.4</ele>
        <time>2017-07-24T07:26:26Z</time>
      </trkpt>
      <trkpt lat="44.4775130" lon="6.9743990">
        <ele>1441.6</ele>
        <time>2017-07-24T07:26:27Z</time>
      </trkpt>
      <trkpt lat="44.4774480" lon="6.9743050">
        <ele>1442.2</ele>
        <time>2017-07-24T07:26:32Z</time>
      </trkpt>
      <trkpt lat="44.4774420" lon="6.9742830">
        <ele>1442.2</ele>
        <time>2017-07-24T07:26:33Z</time>
      </trkpt>
      <trkpt lat="44.4774370" lon="6.9742330">
        <ele>1442.8</ele>
        <time>2017-07-24T07:26:35Z</time>
      </trkpt>
      <trkpt lat="44.4774190" lon="6.9741940">
        <ele>1443.4</ele>
        <time>2017-07-24T07:26:37Z</time>
      </trkpt>
      <trkpt lat="44.4773880" lon="6.9741630">
        <ele>1443.8</ele>
        <time>2017-07-24T07:26:39Z</time>
      </trkpt>
      <trkpt lat="44.4773570" lon="6.9741200">
        <ele>1444.0</ele>
        <time>2017-07-24T07:26:41Z</time>
      </trkpt>
      <trkpt lat="44.4773250" lon="6.9740560">
        <ele>1444.8</ele>
        <time>2017-07-24T07:26:44Z</time>
      </trkpt>
      <trkpt lat="44.4773160" lon="6.9740350">
        <ele>1445.2</ele>
        <time>2017-07-24T07:26:45Z</time>
      </trkpt>
      <trkpt lat="44.4773090" lon="6.9739430">
        <ele>1446.4</ele>
        <time>2017-07-24T07:26:49Z</time>
      </trkpt>
      <trkpt lat="44.4773120" lon="6.9739220">
        <ele>1446.6</ele>
        <time>2017-07-24T07:26:50Z</time>
      </trkpt>
      <trkpt lat="44.4773160" lon="6.9739070">
        <ele>1447.0</ele>
        <time>2017-07-24T07:26:51Z</time>
      </trkpt>
      <trkpt lat="44.4773580" lon="6.9739350">
        <ele>1447.4</ele>
        <time>2017-07-24T07:26:54Z</time>
      </trkpt>
      <trkpt lat="44.4773740" lon="6.9739510">
        <ele>1447.8</ele>
        <time>2017-07-24T07:26:55Z</time>
      </trkpt>
      <trkpt lat="44.4774460" lon="6.9740490">
        <ele>1448.8</ele>
        <time>2017-07-24T07:27:00Z</time>
      </trkpt>
      <trkpt lat="44.4775010" lon="6.9741230">
        <ele>1449.4</ele>
        <time>2017-07-24T07:27:04Z</time>
      </trkpt>
      <trkpt lat="44.4775300" lon="6.9741580">
        <ele>1450.0</ele>
        <time>2017-07-24T07:27:06Z</time>
      </trkpt>
      <trkpt lat="44.4776320" lon="6.9742450">
        <ele>1451.0</ele>
        <time>2017-07-24T07:27:12Z</time>
      </trkpt>
      <trkpt lat="44.4777300" lon="6.9743160">
        <ele>1452.4</ele>
        <time>2017-07-24T07:27:18Z</time>
      </trkpt>
      <trkpt lat="44.4777670" lon="6.9743340">
        <ele>1453.0</ele>
        <time>2017-07-24T07:27:20Z</time>
      </trkpt>
      <trkpt lat="44.4778230" lon="6.9743610">
        <ele>1453.6</ele>
        <time>2017-07-24T07:27:23Z</time>
      </trkpt>
      <trkpt lat="44.4778920" lon="6.9743940">
        <ele>1455.0</ele>
        <time>2017-07-24T07:27:27Z</time>
      </trkpt>
      <trkpt lat="44.4779250" lon="6.9744070">
        <ele>1455.6</ele>
        <time>2017-07-24T07:27:29Z</time>
      </trkpt>
      <trkpt lat="44.4779420" lon="6.9744150">
        <ele>1456.2</ele>
        <time>2017-07-24T07:27:30Z</time>
      </trkpt>
      <trkpt lat="44.4779920" lon="6.9744340">
        <ele>1457.2</ele>
        <time>2017-07-24T07:27:33Z</time>
      </trkpt>
      <trkpt lat="44.4780620" lon="6.9744580">
        <ele>1458.4</ele>
        <time>2017-07-24T07:27:37Z</time>
      </trkpt>
      <trkpt lat="44.4781160" lon="6.9744820">
        <ele>1459.8</ele>
        <time>2017-07-24T07:27:40Z</time>
      </trkpt>
      <trkpt lat="44.4781850" lon="6.9745100">
        <ele>1461.2</ele>
        <time>2017-07-24T07:27:44Z</time>
      </trkpt>
      <trkpt lat="44.4782030" lon="6.9745200">
        <ele>1461.4</ele>
        <time>2017-07-24T07:27:45Z</time>
      </trkpt>
      <trkpt lat="44.4782760" lon="6.9745540">
        <ele>1462.4</ele>
        <time>2017-07-24T07:27:49Z</time>
      </trkpt>
      <trkpt lat="44.4783300" lon="6.9745780">
        <ele>1463.6</ele>
        <time>2017-07-24T07:27:52Z</time>
      </trkpt>
      <trkpt lat="44.4783490" lon="6.9745850">
        <ele>1463.8</ele>
        <time>2017-07-24T07:27:53Z</time>
      </trkpt>
      <trkpt lat="44.4783790" lon="6.9746020">
        <ele>1464.6</ele>
        <time>2017-07-24T07:27:55Z</time>
      </trkpt>
      <trkpt lat="44.4784480" lon="6.9746430">
        <ele>1465.6</ele>
        <time>2017-07-24T07:27:59Z</time>
      </trkpt>
      <trkpt lat="44.4785440" lon="6.9746820">
        <ele>1466.8</ele>
        <time>2017-07-24T07:28:05Z</time>
      </trkpt>
      <trkpt lat="44.4786130" lon="6.9747100">
        <ele>1468.0</ele>
        <time>2017-07-24T07:28:09Z</time>
      </trkpt>
      <trkpt lat="44.4786680" lon="6.9747300">
        <ele>1469.0</ele>
        <time>2017-07-24T07:28:12Z</time>
      </trkpt>
      <trkpt lat="44.4786890" lon="6.9747360">
        <ele>1469.4</ele>
        <time>2017-07-24T07:28:13Z</time>
      </trkpt>
      <trkpt lat="44.4787270" lon="6.9747350">
        <ele>1470.0</ele>
        <time>2017-07-24T07:28:15Z</time>
      </trkpt>
      <trkpt lat="44.4787840" lon="6.9747430">
        <ele>1472.0</ele>
        <time>2017-07-24T07:28:18Z</time>
      </trkpt>
      <trkpt lat="44.4788210" lon="6.9747640">
        <ele>1472.8</ele>
        <time>2017-07-24T07:28:20Z</time>
      </trkpt>
      <trkpt lat="44.4788390" lon="6.9747730">
        <ele>1473.2</ele>
        <time>2017-07-24T07:28:21Z</time>
      </trkpt>
      <trkpt lat="44.4788930" lon="6.9747910">
        <ele>1474.2</ele>
        <time>2017-07-24T07:28:24Z</time>
      </trkpt>
      <trkpt lat="44.4789420" lon="6.9748090">
        <ele>1475.6</ele>
        <time>2017-07-24T07:28:27Z</time>
      </trkpt>
      <trkpt lat="44.4789930" lon="6.9748130">
        <ele>1476.6</ele>
        <time>2017-07-24T07:28:30Z</time>
      </trkpt>
      <trkpt lat="44.4790690" lon="6.9748290">
        <ele>1478.0</ele>
        <time>2017-07-24T07:28:34Z</time>
      </trkpt>
      <trkpt lat="44.4791450" lon="6.9748490">
        <ele>1479.0</ele>
        <time>2017-07-24T07:28:38Z</time>
      </trkpt>
      <trkpt lat="44.4792160" lon="6.9748730">
        <ele>1480.4</ele>
        <time>2017-07-24T07:28:42Z</time>
      </trkpt>
      <trkpt lat="44.4792890" lon="6.9749010">
        <ele>1481.4</ele>
        <time>2017-07-24T07:28:46Z</time>
      </trkpt>
      <trkpt lat="44.4793410" lon="6.9749230">
        <ele>1482.6</ele>
        <time>2017-07-24T07:28:49Z</time>
      </trkpt>
      <trkpt lat="44.4794120" lon="6.9749380">
        <ele>1484.0</ele>
        <time>2017-07-24T07:28:53Z</time>
      </trkpt>
      <trkpt lat="44.4794960" lon="6.9749680">
        <ele>1485.2</ele>
        <time>2017-07-24T07:28:57Z</time>
      </trkpt>
      <trkpt lat="44.4795160" lon="6.9749800">
        <ele>1485.4</ele>
        <time>2017-07-24T07:28:58Z</time>
      </trkpt>
      <trkpt lat="44.4796020" lon="6.9749880">
        <ele>1486.2</ele>
        <time>2017-07-24T07:29:03Z</time>
      </trkpt>
      <trkpt lat="44.4796370" lon="6.9749810">
        <ele>1486.4</ele>
        <time>2017-07-24T07:29:05Z</time>
      </trkpt>
      <trkpt lat="44.4797670" lon="6.9749820">
        <ele>1487.2</ele>
        <time>2017-07-24T07:29:12Z</time>
      </trkpt>
      <trkpt lat="44.4797860" lon="6.9749770">
        <ele>1487.4</ele>
        <time>2017-07-24T07:29:13Z</time>
      </trkpt>
      <trkpt lat="44.4798950" lon="6.9749490">
        <ele>1488.2</ele>
        <time>2017-07-24T07:29:19Z</time>
      </trkpt>
      <trkpt lat="44.4799130" lon="6.9749430">
        <ele>1488.4</ele>
        <time>2017-07-24T07:29:20Z</time>
      </trkpt>
      <trkpt lat="44.4800050" lon="6.9749200">
        <ele>1489.6</ele>
        <time>2017-07-24T07:29:25Z</time>
      </trkpt>
      <trkpt lat="44.4800410" lon="6.9749040">
        <ele>1490.0</ele>
        <time>2017-07-24T07:29:27Z</time>
      </trkpt>
      <trkpt lat="44.4800960" lon="6.9748960">
        <ele>1490.8</ele>
        <time>2017-07-24T07:29:30Z</time>
      </trkpt>
      <trkpt lat="44.4801670" lon="6.9748820">
        <ele>1492.0</ele>
        <time>2017-07-24T07:29:34Z</time>
      </trkpt>
      <trkpt lat="44.4801830" lon="6.9748810">
        <ele>1492.2</ele>
        <time>2017-07-24T07:29:35Z</time>
      </trkpt>
      <trkpt lat="44.4802330" lon="6.9748820">
        <ele>1493.0</ele>
        <time>2017-07-24T07:29:38Z</time>
      </trkpt>
      <trkpt lat="44.4803140" lon="6.9748930">
        <ele>1494.2</ele>
        <time>2017-07-24T07:29:42Z</time>
      </trkpt>
      <trkpt lat="44.4803310" lon="6.9748950">
        <ele>1494.4</ele>
        <time>2017-07-24T07:29:43Z</time>
      </trkpt>
      <trkpt lat="44.4804810" lon="6.9749320">
        <ele>1495.2</ele>
        <time>2017-07-24T07:29:50Z</time>
      </trkpt>
      <trkpt lat="44.4805960" lon="6.9749960">
        <ele>1496.4</ele>
        <time>2017-07-24T07:29:55Z</time>
      </trkpt>
      <trkpt lat="44.4806420" lon="6.9750190">
        <ele>1496.8</ele>
        <time>2017-07-24T07:29:57Z</time>
      </trkpt>
      <trkpt lat="44.4807060" lon="6.9750480">
        <ele>1497.8</ele>
        <time>2017-07-24T07:30:00Z</time>
      </trkpt>
      <trkpt lat="44.4807650" lon="6.9750890">
        <ele>1498.8</ele>
        <time>2017-07-24T07:30:03Z</time>
      </trkpt>
      <trkpt lat="44.4807850" lon="6.9750970">
        <ele>1499.2</ele>
        <time>2017-07-24T07:30:04Z</time>
      </trkpt>
      <trkpt lat="44.4808280" lon="6.9751200">
        <ele>1500.0</ele>
        <time>2017-07-24T07:30:06Z</time>
      </trkpt>
      <trkpt lat="44.4808930" lon="6.9751620">
        <ele>1501.4</ele>
        <time>2017-07-24T07:30:09Z</time>
      </trkpt>
      <trkpt lat="44.4809610" lon="6.9752160">
        <ele>1502.4</ele>
        <time>2017-07-24T07:30:12Z</time>
      </trkpt>
      <trkpt lat="44.4809800" lon="6.9752370">
        <ele>1502.6</ele>
        <time>2017-07-24T07:30:13Z</time>
      </trkpt>
      <trkpt lat="44.4810580" lon="6.9752890">
        <ele>1503.6</ele>
        <time>2017-07-24T07:30:17Z</time>
      </trkpt>
      <trkpt lat="44.4811210" lon="6.9753150">
        <ele>1504.6</ele>
        <time>2017-07-24T07:30:20Z</time>
      </trkpt>
      <trkpt lat="44.4811440" lon="6.9753260">
        <ele>1504.8</ele>
        <time>2017-07-24T07:30:21Z</time>
      </trkpt>
      <trkpt lat="44.4812460" lon="6.9753830">
        <ele>1505.8</ele>
        <time>2017-07-24T07:30:26Z</time>
      </trkpt>
      <trkpt lat="44.4812990" lon="6.9754240">
        <ele>1506.6</ele>
        <time>2017-07-24T07:30:29Z</time>
      </trkpt>
      <trkpt lat="44.4813390" lon="6.9754420">
        <ele>1506.8</ele>
        <time>2017-07-24T07:30:31Z</time>
      </trkpt>
      <trkpt lat="44.4814330" lon="6.9755000">
        <ele>1508.2</ele>
        <time>2017-07-24T07:30:36Z</time>
      </trkpt>
      <trkpt lat="44.4814510" lon="6.9755110">
        <ele>1508.4</ele>
        <time>2017-07-24T07:30:37Z</time>
      </trkpt>
      <trkpt lat="44.4815010" lon="6.9755530">
        <ele>1509.2</ele>
        <time>2017-07-24T07:30:40Z</time>
      </trkpt>
      <trkpt lat="44.4815350" lon="6.9755980">
        <ele>1510.4</ele>
        <time>2017-07-24T07:30:42Z</time>
      </trkpt>
      <trkpt lat="44.4815650" lon="6.9756520">
        <ele>1511.2</ele>
        <time>2017-07-24T07:30:44Z</time>
      </trkpt>
      <trkpt lat="44.4815790" lon="6.9756830">
        <ele>1511.6</ele>
        <time>2017-07-24T07:30:45Z</time>
      </trkpt>
      <trkpt lat="44.4816180" lon="6.9757870">
        <ele>1512.6</ele>
        <time>2017-07-24T07:30:48Z</time>
      </trkpt>
      <trkpt lat="44.4816440" lon="6.9758640">
        <ele>1513.0</ele>
        <time>2017-07-24T07:30:50Z</time>
      </trkpt>
      <trkpt lat="44.4817350" lon="6.9759520">
        <ele>1513.8</ele>
        <time>2017-07-24T07:30:54Z</time>
      </trkpt>
      <trkpt lat="44.4817600" lon="6.9759500">
        <ele>1514.2</ele>
        <time>2017-07-24T07:30:55Z</time>
      </trkpt>
      <trkpt lat="44.4818220" lon="6.9759090">
        <ele>1515.0</ele>
        <time>2017-07-24T07:30:58Z</time>
      </trkpt>
      <trkpt lat="44.4818700" lon="6.9758600">
        <ele>1515.8</ele>
        <time>2017-07-24T07:31:01Z</time>
      </trkpt>
      <trkpt lat="44.4818880" lon="6.9758480">
        <ele>1516.2</ele>
        <time>2017-07-24T07:31:02Z</time>
      </trkpt>
      <trkpt lat="44.4819500" lon="6.9758300">
        <ele>1517.2</ele>
        <time>2017-07-24T07:31:05Z</time>
      </trkpt>
      <trkpt lat="44.4819700" lon="6.9758330">
        <ele>1517.8</ele>
        <time>2017-07-24T07:31:06Z</time>
      </trkpt>
      <trkpt lat="44.4819900" lon="6.9758370">
        <ele>1518.2</ele>
        <time>2017-07-24T07:31:07Z</time>
      </trkpt>
      <trkpt lat="44.4820230" lon="6.9758620">
        <ele>1519.0</ele>
        <time>2017-07-24T07:31:09Z</time>
      </trkpt>
      <trkpt lat="44.4820680" lon="6.9759230">
        <ele>1520.2</ele>
        <time>2017-07-24T07:31:12Z</time>
      </trkpt>
      <trkpt lat="44.4821060" lon="6.9759930">
        <ele>1521.2</ele>
        <time>2017-07-24T07:31:15Z</time>
      </trkpt>
      <trkpt lat="44.4821310" lon="6.9760760">
        <ele>1522.6</ele>
        <time>2017-07-24T07:31:18Z</time>
      </trkpt>
      <trkpt lat="44.4821650" lon="6.9761880">
        <ele>1523.8</ele>
        <time>2017-07-24T07:31:22Z</time>
      </trkpt>
      <trkpt lat="44.4821850" lon="6.9762680">
        <ele>1524.6</ele>
        <time>2017-07-24T07:31:25Z</time>
      </trkpt>
      <trkpt lat="44.4821900" lon="6.9762980">
        <ele>1524.8</ele>
        <time>2017-07-24T07:31:26Z</time>
      </trkpt>
      <trkpt lat="44.4822250" lon="6.9764280">
        <ele>1526.0</ele>
        <time>2017-07-24T07:31:30Z</time>
      </trkpt>
      <trkpt lat="44.4822440" lon="6.9765600">
        <ele>1526.8</ele>
        <time>2017-07-24T07:31:34Z</time>
      </trkpt>
      <trkpt lat="44.4822550" lon="6.9766900">
        <ele>1527.2</ele>
        <time>2017-07-24T07:31:38Z</time>
      </trkpt>
      <trkpt lat="44.4822630" lon="6.9768560">
        <ele>1528.0</ele>
        <time>2017-07-24T07:31:43Z</time>
      </trkpt>
      <trkpt lat="44.4822710" lon="6.9769170">
        <ele>1528.4</ele>
        <time>2017-07-24T07:31:45Z</time>
      </trkpt>
      <trkpt lat="44.4822950" lon="6.9770370">
        <ele>1529.6</ele>
        <time>2017-07-24T07:31:49Z</time>
      </trkpt>
      <trkpt lat="44.4823020" lon="6.9770670">
        <ele>1530.0</ele>
        <time>2017-07-24T07:31:50Z</time>
      </trkpt>
      <trkpt lat="44.4823170" lon="6.9771270">
        <ele>1530.6</ele>
        <time>2017-07-24T07:31:52Z</time>
      </trkpt>
      <trkpt lat="44.4823440" lon="6.9772700">
        <ele>1531.8</ele>
        <time>2017-07-24T07:31:57Z</time>
      </trkpt>
      <trkpt lat="44.4823440" lon="6.9772930">
        <ele>1532.2</ele>
        <time>2017-07-24T07:31:58Z</time>
      </trkpt>
      <trkpt lat="44.4823660" lon="6.9774140">
        <ele>1532.8</ele>
        <time>2017-07-24T07:32:02Z</time>
      </trkpt>
      <trkpt lat="44.4823800" lon="6.9774750">
        <ele>1533.0</ele>
        <time>2017-07-24T07:32:04Z</time>
      </trkpt>
      <trkpt lat="44.4824340" lon="6.9776250">
        <ele>1534.0</ele>
        <time>2017-07-24T07:32:09Z</time>
      </trkpt>
      <trkpt lat="44.4824510" lon="6.9777200">
        <ele>1534.8</ele>
        <time>2017-07-24T07:32:12Z</time>
      </trkpt>
      <trkpt lat="44.4824580" lon="6.9777840">
        <ele>1535.2</ele>
        <time>2017-07-24T07:32:14Z</time>
      </trkpt>
      <trkpt lat="44.4824650" lon="6.9778710">
        <ele>1536.6</ele>
        <time>2017-07-24T07:32:17Z</time>
      </trkpt>
      <trkpt lat="44.4824710" lon="6.9779560">
        <ele>1537.8</ele>
        <time>2017-07-24T07:32:20Z</time>
      </trkpt>
      <trkpt lat="44.4824720" lon="6.9779830">
        <ele>1538.2</ele>
        <time>2017-07-24T07:32:21Z</time>
      </trkpt>
      <trkpt lat="44.4824710" lon="6.9780320">
        <ele>1538.8</ele>
        <time>2017-07-24T07:32:23Z</time>
      </trkpt>
      <trkpt lat="44.4824840" lon="6.9781490">
        <ele>1540.0</ele>
        <time>2017-07-24T07:32:27Z</time>
      </trkpt>
      <trkpt lat="44.4824900" lon="6.9781820">
        <ele>1540.2</ele>
        <time>2017-07-24T07:32:28Z</time>
      </trkpt>
      <trkpt lat="44.4825350" lon="6.9783670">
        <ele>1541.0</ele>
        <time>2017-07-24T07:32:34Z</time>
      </trkpt>
      <trkpt lat="44.4825570" lon="6.9784190">
        <ele>1541.2</ele>
        <time>2017-07-24T07:32:36Z</time>
      </trkpt>
      <trkpt lat="44.4825990" lon="6.9784820">
        <ele>1542.0</ele>
        <time>2017-07-24T07:32:39Z</time>
      </trkpt>
      <trkpt lat="44.4826510" lon="6.9785320">
        <ele>1542.8</ele>
        <time>2017-07-24T07:32:42Z</time>
      </trkpt>
      <trkpt lat="44.4826690" lon="6.9785520">
        <ele>1543.0</ele>
        <time>2017-07-24T07:32:43Z</time>
      </trkpt>
      <trkpt lat="44.4827290" lon="6.9786220">
        <ele>1544.0</ele>
        <time>2017-07-24T07:32:47Z</time>
      </trkpt>
      <trkpt lat="44.4827420" lon="6.9786350">
        <ele>1544.4</ele>
        <time>2017-07-24T07:32:48Z</time>
      </trkpt>
      <trkpt lat="44.4827960" lon="6.9786700">
        <ele>1545.4</ele>
        <time>2017-07-24T07:32:51Z</time>
      </trkpt>
      <trkpt lat="44.4828510" lon="6.9787140">
        <ele>1546.0</ele>
        <time>2017-07-24T07:32:54Z</time>
      </trkpt>
      <trkpt lat="44.4828680" lon="6.9787290">
        <ele>1546.6</ele>
        <time>2017-07-24T07:32:55Z</time>
      </trkpt>
      <trkpt lat="44.4829300" lon="6.9787800">
        <ele>1547.8</ele>
        <time>2017-07-24T07:32:59Z</time>
      </trkpt>
      <trkpt lat="44.4829580" lon="6.9788050">
        <ele>1548.6</ele>
        <time>2017-07-24T07:33:01Z</time>
      </trkpt>
      <trkpt lat="44.4829750" lon="6.9788210">
        <ele>1548.8</ele>
        <time>2017-07-24T07:33:02Z</time>
      </trkpt>
      <trkpt lat="44.4830260" lon="6.9788730">
        <ele>1550.0</ele>
        <time>2017-07-24T07:33:05Z</time>
      </trkpt>
      <trkpt lat="44.4830610" lon="6.9789070">
        <ele>1551.0</ele>
        <time>2017-07-24T07:33:07Z</time>
      </trkpt>
      <trkpt lat="44.4831370" lon="6.9790240">
        <ele>1552.0</ele>
        <time>2017-07-24T07:33:12Z</time>
      </trkpt>
      <trkpt lat="44.4831600" lon="6.9790610">
        <ele>1552.2</ele>
        <time>2017-07-24T07:33:14Z</time>
      </trkpt>
      <trkpt lat="44.4831880" lon="6.9792070">
        <ele>1552.8</ele>
        <time>2017-07-24T07:33:20Z</time>
      </trkpt>
      <trkpt lat="44.4831860" lon="6.9793390">
        <ele>1553.2</ele>
        <time>2017-07-24T07:33:24Z</time>
      </trkpt>
      <trkpt lat="44.4831880" lon="6.9794710">
        <ele>1553.6</ele>
        <time>2017-07-24T07:33:28Z</time>
      </trkpt>
      <trkpt lat="44.4831640" lon="6.9796230">
        <ele>1554.2</ele>
        <time>2017-07-24T07:33:33Z</time>
      </trkpt>
      <trkpt lat="44.4831430" lon="6.9797100">
        <ele>1554.4</ele>
        <time>2017-07-24T07:33:36Z</time>
      </trkpt>
      <trkpt lat="44.4831140" lon="6.9798230">
        <ele>1555.4</ele>
        <time>2017-07-24T07:33:40Z</time>
      </trkpt>
      <trkpt lat="44.4830850" lon="6.9799740">
        <ele>1556.6</ele>
        <time>2017-07-24T07:33:45Z</time>
      </trkpt>
      <trkpt lat="44.4831370" lon="6.9801060">
        <ele>1557.6</ele>
        <time>2017-07-24T07:33:50Z</time>
      </trkpt>
      <trkpt lat="44.4832470" lon="6.9801820">
        <ele>1558.6</ele>
        <time>2017-07-24T07:33:56Z</time>
      </trkpt>
      <trkpt lat="44.4832660" lon="6.9801950">
        <ele>1558.8</ele>
        <time>2017-07-24T07:33:57Z</time>
      </trkpt>
      <trkpt lat="44.4833380" lon="6.9802500">
        <ele>1560.0</ele>
        <time>2017-07-24T07:34:01Z</time>
      </trkpt>
      <trkpt lat="44.4833890" lon="6.9802910">
        <ele>1561.2</ele>
        <time>2017-07-24T07:34:04Z</time>
      </trkpt>
      <trkpt lat="44.4834390" lon="6.9803530">
        <ele>1562.4</ele>
        <time>2017-07-24T07:34:07Z</time>
      </trkpt>
      <trkpt lat="44.4834890" lon="6.9804180">
        <ele>1563.4</ele>
        <time>2017-07-24T07:34:10Z</time>
      </trkpt>
      <trkpt lat="44.4835320" lon="6.9804730">
        <ele>1564.8</ele>
        <time>2017-07-24T07:34:13Z</time>
      </trkpt>
      <trkpt lat="44.4835760" lon="6.9805380">
        <ele>1566.0</ele>
        <time>2017-07-24T07:34:16Z</time>
      </trkpt>
      <trkpt lat="44.4835900" lon="6.9805630">
        <ele>1566.2</ele>
        <time>2017-07-24T07:34:17Z</time>
      </trkpt>
      <trkpt lat="44.4836170" lon="6.9806070">
        <ele>1567.4</ele>
        <time>2017-07-24T07:34:19Z</time>
      </trkpt>
      <trkpt lat="44.4836890" lon="6.9807060">
        <ele>1568.6</ele>
        <time>2017-07-24T07:34:24Z</time>
      </trkpt>
      <trkpt lat="44.4837170" lon="6.9807500">
        <ele>1569.0</ele>
        <time>2017-07-24T07:34:26Z</time>
      </trkpt>
      <trkpt lat="44.4837880" lon="6.9808450">
        <ele>1569.6</ele>
        <time>2017-07-24T07:34:31Z</time>
      </trkpt>
      <trkpt lat="44.4838100" lon="6.9808830">
        <ele>1570.2</ele>
        <time>2017-07-24T07:34:33Z</time>
      </trkpt>
      <trkpt lat="44.4838300" lon="6.9809240">
        <ele>1570.8</ele>
        <time>2017-07-24T07:34:35Z</time>
      </trkpt>
      <trkpt lat="44.4838800" lon="6.9809970">
        <ele>1572.0</ele>
        <time>2017-07-24T07:34:39Z</time>
      </trkpt>
      <trkpt lat="44.4838930" lon="6.9810130">
        <ele>1572.4</ele>
        <time>2017-07-24T07:34:40Z</time>
      </trkpt>
      <trkpt lat="44.4839180" lon="6.9810500">
        <ele>1573.2</ele>
        <time>2017-07-24T07:34:42Z</time>
      </trkpt>
      <trkpt lat="44.4839580" lon="6.9811220">
        <ele>1574.4</ele>
        <time>2017-07-24T07:34:46Z</time>
      </trkpt>
      <trkpt lat="44.4839720" lon="6.9811350">
        <ele>1574.8</ele>
        <time>2017-07-24T07:34:47Z</time>
      </trkpt>
      <trkpt lat="44.4840250" lon="6.9811610">
        <ele>1575.6</ele>
        <time>2017-07-24T07:34:50Z</time>
      </trkpt>
      <trkpt lat="44.4840930" lon="6.9811840">
        <ele>1576.4</ele>
        <time>2017-07-24T07:34:54Z</time>
      </trkpt>
      <trkpt lat="44.4841070" lon="6.9811850">
        <ele>1576.6</ele>
        <time>2017-07-24T07:34:55Z</time>
      </trkpt>
      <trkpt lat="44.4842080" lon="6.9811710">
        <ele>1578.0</ele>
        <time>2017-07-24T07:35:01Z</time>
      </trkpt>
      <trkpt lat="44.4842980" lon="6.9812040">
        <ele>1579.4</ele>
        <time>2017-07-24T07:35:06Z</time>
      </trkpt>
      <trkpt lat="44.4843370" lon="6.9812250">
        <ele>1579.8</ele>
        <time>2017-07-24T07:35:08Z</time>
      </trkpt>
      <trkpt lat="44.4844290" lon="6.9812660">
        <ele>1580.4</ele>
        <time>2017-07-24T07:35:12Z</time>
      </trkpt>
      <trkpt lat="44.4845020" lon="6.9813120">
        <ele>1581.2</ele>
        <time>2017-07-24T07:35:15Z</time>
      </trkpt>
      <trkpt lat="44.4845290" lon="6.9813300">
        <ele>1581.4</ele>
        <time>2017-07-24T07:35:16Z</time>
      </trkpt>
      <trkpt lat="44.4846700" lon="6.9814110">
        <ele>1582.6</ele>
        <time>2017-07-24T07:35:21Z</time>
      </trkpt>
      <trkpt lat="44.4847040" lon="6.9814270">
        <ele>1582.8</ele>
        <time>2017-07-24T07:35:22Z</time>
      </trkpt>
      <trkpt lat="44.4848480" lon="6.9815150">
        <ele>1583.8</ele>
        <time>2017-07-24T07:35:26Z</time>
      </trkpt>
      <trkpt lat="44.4849290" lon="6.9815670">
        <ele>1584.2</ele>
        <time>2017-07-24T07:35:28Z</time>
      </trkpt>
      <trkpt lat="44.4850190" lon="6.9816250">
        <ele>1584.8</ele>
        <time>2017-07-24T07:35:30Z</time>
      </trkpt>
      <trkpt lat="44.4852330" lon="6.9817760">
        <ele>1585.8</ele>
        <time>2017-07-24T07:35:35Z</time>
      </trkpt>
      <trkpt lat="44.4852700" lon="6.9818080">
        <ele>1586.2</ele>
        <time>2017-07-24T07:35:36Z</time>
      </trkpt>
      <trkpt lat="44.4853800" lon="6.9819040">
        <ele>1586.6</ele>
        <time>2017-07-24T07:35:39Z</time>
      </trkpt>
      <trkpt lat="44.4855290" lon="6.9820130">
        <ele>1587.0</ele>
        <time>2017-07-24T07:35:42Z</time>
      </trkpt>
      <trkpt lat="44.4855770" lon="6.9820500">
        <ele>1587.2</ele>
        <time>2017-07-24T07:35:43Z</time>
      </trkpt>
      <trkpt lat="44.4856230" lon="6.9820910">
        <ele>1587.2</ele>
        <time>2017-07-24T07:35:44Z</time>
      </trkpt>
      <trkpt lat="44.4857530" lon="6.9822250">
        <ele>1587.8</ele>
        <time>2017-07-24T07:35:47Z</time>
      </trkpt>
      <trkpt lat="44.4858280" lon="6.9822650">
        <ele>1588.0</ele>
        <time>2017-07-24T07:35:48Z</time>
      </trkpt>
      <trkpt lat="44.4860020" lon="6.9823690">
        <ele>1588.4</ele>
        <time>2017-07-24T07:35:51Z</time>
      </trkpt>
      <trkpt lat="44.4861800" lon="6.9824800">
        <ele>1588.6</ele>
        <time>2017-07-24T07:35:54Z</time>
      </trkpt>
      <trkpt lat="44.4862360" lon="6.9825250">
        <ele>1588.6</ele>
        <time>2017-07-24T07:35:55Z</time>
      </trkpt>
      <trkpt lat="44.4864020" lon="6.9826420">
        <ele>1589.0</ele>
        <time>2017-07-24T07:35:58Z</time>
      </trkpt>
      <trkpt lat="44.4866960" lon="6.9827900">
        <ele>1589.2</ele>
        <time>2017-07-24T07:36:03Z</time>
      </trkpt>
      <trkpt lat="44.4867590" lon="6.9828040">
        <ele>1589.2</ele>
        <time>2017-07-24T07:36:04Z</time>
      </trkpt>
      <trkpt lat="44.4869400" lon="6.9827940">
        <ele>1589.4</ele>
        <time>2017-07-24T07:36:07Z</time>
      </trkpt>
      <trkpt lat="44.4869990" lon="6.9827750">
        <ele>1589.6</ele>
        <time>2017-07-24T07:36:08Z</time>
      </trkpt>
      <trkpt lat="44.4871150" lon="6.9827290">
        <ele>1589.6</ele>
        <time>2017-07-24T07:36:10Z</time>
      </trkpt>
      <trkpt lat="44.4872820" lon="6.9826940">
        <ele>1589.6</ele>
        <time>2017-07-24T07:36:13Z</time>
      </trkpt>
      <trkpt lat="44.4873370" lon="6.9827300">
        <ele>1589.6</ele>
        <time>2017-07-24T07:36:14Z</time>
      </trkpt>
      <trkpt lat="44.4874800" lon="6.9829160">
        <ele>1589.8</ele>
        <time>2017-07-24T07:36:17Z</time>
      </trkpt>
      <trkpt lat="44.4876230" lon="6.9831630">
        <ele>1589.8</ele>
        <time>2017-07-24T07:36:21Z</time>
      </trkpt>
      <trkpt lat="44.4877680" lon="6.9832360">
        <ele>1590.0</ele>
        <time>2017-07-24T07:36:24Z</time>
      </trkpt>
      <trkpt lat="44.4879590" lon="6.9831690">
        <ele>1590.2</ele>
        <time>2017-07-24T07:36:27Z</time>
      </trkpt>
      <trkpt lat="44.4880180" lon="6.9831490">
        <ele>1590.2</ele>
        <time>2017-07-24T07:36:28Z</time>
      </trkpt>
      <trkpt lat="44.4880750" lon="6.9831370">
        <ele>1590.2</ele>
        <time>2017-07-24T07:36:29Z</time>
      </trkpt>
      <trkpt lat="44.4882370" lon="6.9831570">
        <ele>1590.4</ele>
        <time>2017-07-24T07:36:32Z</time>
      </trkpt>
      <trkpt lat="44.4883350" lon="6.9831880">
        <ele>1590.2</ele>
        <time>2017-07-24T07:36:34Z</time>
      </trkpt>
      <trkpt lat="44.4885270" lon="6.9832630">
        <ele>1590.0</ele>
        <time>2017-07-24T07:36:38Z</time>
      </trkpt>
      <trkpt lat="44.4887110" lon="6.9833180">
        <ele>1589.2</ele>
        <time>2017-07-24T07:36:42Z</time>
      </trkpt>
      <trkpt lat="44.4887990" lon="6.9833330">
        <ele>1589.0</ele>
        <time>2017-07-24T07:36:44Z</time>
      </trkpt>
      <trkpt lat="44.4890700" lon="6.9833220">
        <ele>1589.4</ele>
        <time>2017-07-24T07:36:50Z</time>
      </trkpt>
      <trkpt lat="44.4891120" lon="6.9833030">
        <ele>1588.8</ele>
        <time>2017-07-24T07:36:51Z</time>
      </trkpt>
      <trkpt lat="44.4892790" lon="6.9832030">
        <ele>1588.4</ele>
        <time>2017-07-24T07:36:55Z</time>
      </trkpt>
      <trkpt lat="44.4893690" lon="6.9831680">
        <ele>1588.4</ele>
        <time>2017-07-24T07:36:57Z</time>
      </trkpt>
      <trkpt lat="44.4894150" lon="6.9831570">
        <ele>1588.4</ele>
        <time>2017-07-24T07:36:58Z</time>
      </trkpt>
      <trkpt lat="44.4895070" lon="6.9831550">
        <ele>1588.6</ele>
        <time>2017-07-24T07:37:00Z</time>
      </trkpt>
      <trkpt lat="44.4896060" lon="6.9831780">
        <ele>1588.6</ele>
        <time>2017-07-24T07:37:02Z</time>
      </trkpt>
      <trkpt lat="44.4897020" lon="6.9832180">
        <ele>1588.6</ele>
        <time>2017-07-24T07:37:04Z</time>
      </trkpt>
      <trkpt lat="44.4898620" lon="6.9833160">
        <ele>1589.2</ele>
        <time>2017-07-24T07:37:08Z</time>
      </trkpt>
      <trkpt lat="44.4899410" lon="6.9833450">
        <ele>1589.6</ele>
        <time>2017-07-24T07:37:10Z</time>
      </trkpt>
      <trkpt lat="44.4900620" lon="6.9833590">
        <ele>1590.4</ele>
        <time>2017-07-24T07:37:13Z</time>
      </trkpt>
      <trkpt lat="44.4901040" lon="6.9833530">
        <ele>1590.4</ele>
        <time>2017-07-24T07:37:14Z</time>
      </trkpt>
      <trkpt lat="44.4902710" lon="6.9833170">
        <ele>1590.6</ele>
        <time>2017-07-24T07:37:18Z</time>
      </trkpt>
      <trkpt lat="44.4904290" lon="6.9832990">
        <ele>1590.8</ele>
        <time>2017-07-24T07:37:22Z</time>
      </trkpt>
      <trkpt lat="44.4906780" lon="6.9833500">
        <ele>1591.4</ele>
        <time>2017-07-24T07:37:29Z</time>
      </trkpt>
      <trkpt lat="44.4907370" lon="6.9833750">
        <ele>1591.6</ele>
        <time>2017-07-24T07:37:31Z</time>
      </trkpt>
      <trkpt lat="44.4908480" lon="6.9834140">
        <ele>1592.8</ele>
        <time>2017-07-24T07:37:35Z</time>
      </trkpt>
      <trkpt lat="44.4908760" lon="6.9834190">
        <ele>1593.0</ele>
        <time>2017-07-24T07:37:36Z</time>
      </trkpt>
      <trkpt lat="44.4909250" lon="6.9834290">
        <ele>1594.0</ele>
        <time>2017-07-24T07:37:38Z</time>
      </trkpt>
      <trkpt lat="44.4909980" lon="6.9834320">
        <ele>1595.2</ele>
        <time>2017-07-24T07:37:41Z</time>
      </trkpt>
      <trkpt lat="44.4910680" lon="6.9834150">
        <ele>1596.6</ele>
        <time>2017-07-24T07:37:44Z</time>
      </trkpt>
      <trkpt lat="44.4911370" lon="6.9833810">
        <ele>1598.0</ele>
        <time>2017-07-24T07:37:47Z</time>
      </trkpt>
      <trkpt lat="44.4912000" lon="6.9833470">
        <ele>1599.2</ele>
        <time>2017-07-24T07:37:50Z</time>
      </trkpt>
      <trkpt lat="44.4912170" lon="6.9833320">
        <ele>1599.4</ele>
        <time>2017-07-24T07:37:51Z</time>
      </trkpt>
      <trkpt lat="44.4912560" lon="6.9833220">
        <ele>1599.6</ele>
        <time>2017-07-24T07:37:53Z</time>
      </trkpt>
      <trkpt lat="44.4913110" lon="6.9833060">
        <ele>1600.4</ele>
        <time>2017-07-24T07:37:56Z</time>
      </trkpt>
      <trkpt lat="44.4914080" lon="6.9832740">
        <ele>1600.8</ele>
        <time>2017-07-24T07:38:01Z</time>
      </trkpt>
      <trkpt lat="44.4914460" lon="6.9832620">
        <ele>1601.0</ele>
        <time>2017-07-24T07:38:03Z</time>
      </trkpt>
      <trkpt lat="44.4915300" lon="6.9832440">
        <ele>1601.4</ele>
        <time>2017-07-24T07:38:07Z</time>
      </trkpt>
      <trkpt lat="44.4916170" lon="6.9832350">
        <ele>1602.2</ele>
        <time>2017-07-24T07:38:11Z</time>
      </trkpt>
      <trkpt lat="44.4916660" lon="6.9832480">
        <ele>1602.6</ele>
        <time>2017-07-24T07:38:13Z</time>
      </trkpt>
      <trkpt lat="44.4918010" lon="6.9833010">
        <ele>1603.0</ele>
        <time>2017-07-24T07:38:17Z</time>
      </trkpt>
      <trkpt lat="44.4920950" lon="6.9834620">
        <ele>1603.4</ele>
        <time>2017-07-24T07:38:24Z</time>
      </trkpt>
      <trkpt lat="44.4921350" lon="6.9834930">
        <ele>1603.6</ele>
        <time>2017-07-24T07:38:25Z</time>
      </trkpt>
      <trkpt lat="44.4923430" lon="6.9836370">
        <ele>1604.4</ele>
        <time>2017-07-24T07:38:31Z</time>
      </trkpt>
      <trkpt lat="44.4923750" lon="6.9836640">
        <ele>1604.6</ele>
        <time>2017-07-24T07:38:32Z</time>
      </trkpt>
      <trkpt lat="44.4925530" lon="6.9838730">
        <ele>1605.4</ele>
        <time>2017-07-24T07:38:38Z</time>
      </trkpt>
      <trkpt lat="44.4925810" lon="6.9839110">
        <ele>1605.6</ele>
        <time>2017-07-24T07:38:39Z</time>
      </trkpt>
      <trkpt lat="44.4927270" lon="6.9840980">
        <ele>1606.8</ele>
        <time>2017-07-24T07:38:45Z</time>
      </trkpt>
      <trkpt lat="44.4927540" lon="6.9841170">
        <ele>1607.0</ele>
        <time>2017-07-24T07:38:46Z</time>
      </trkpt>
      <trkpt lat="44.4928990" lon="6.9841860">
        <ele>1607.8</ele>
        <time>2017-07-24T07:38:51Z</time>
      </trkpt>
      <trkpt lat="44.4929470" lon="6.9842020">
        <ele>1608.4</ele>
        <time>2017-07-24T07:38:53Z</time>
      </trkpt>
      <trkpt lat="44.4929910" lon="6.9842070">
        <ele>1609.0</ele>
        <time>2017-07-24T07:38:55Z</time>
      </trkpt>
      <trkpt lat="44.4930600" lon="6.9842100">
        <ele>1610.0</ele>
        <time>2017-07-24T07:38:58Z</time>
      </trkpt>
      <trkpt lat="44.4931030" lon="6.9842090">
        <ele>1610.4</ele>
        <time>2017-07-24T07:39:00Z</time>
      </trkpt>
      <trkpt lat="44.4931920" lon="6.9842090">
        <ele>1611.2</ele>
        <time>2017-07-24T07:39:04Z</time>
      </trkpt>
      <trkpt lat="44.4932630" lon="6.9842320">
        <ele>1611.8</ele>
        <time>2017-07-24T07:39:07Z</time>
      </trkpt>
      <trkpt lat="44.4933160" lon="6.9842540">
        <ele>1612.4</ele>
        <time>2017-07-24T07:39:09Z</time>
      </trkpt>
      <trkpt lat="44.4934340" lon="6.9842640">
        <ele>1613.4</ele>
        <time>2017-07-24T07:39:13Z</time>
      </trkpt>
      <trkpt lat="44.4935210" lon="6.9842660">
        <ele>1614.6</ele>
        <time>2017-07-24T07:39:16Z</time>
      </trkpt>
      <trkpt lat="44.4935740" lon="6.9842550">
        <ele>1615.6</ele>
        <time>2017-07-24T07:39:18Z</time>
      </trkpt>
      <trkpt lat="44.4935990" lon="6.9842530">
        <ele>1616.0</ele>
        <time>2017-07-24T07:39:19Z</time>
      </trkpt>
      <trkpt lat="44.4936520" lon="6.9842510">
        <ele>1617.0</ele>
        <time>2017-07-24T07:39:21Z</time>
      </trkpt>
      <trkpt lat="44.4937030" lon="6.9842670">
        <ele>1618.0</ele>
        <time>2017-07-24T07:39:23Z</time>
      </trkpt>
      <trkpt lat="44.4937500" lon="6.9842760">
        <ele>1618.8</ele>
        <time>2017-07-24T07:39:25Z</time>
      </trkpt>
      <trkpt lat="44.4937730" lon="6.9842750">
        <ele>1619.2</ele>
        <time>2017-07-24T07:39:26Z</time>
      </trkpt>
      <trkpt lat="44.4938420" lon="6.9842760">
        <ele>1620.6</ele>
        <time>2017-07-24T07:39:29Z</time>
      </trkpt>
      <trkpt lat="44.4938820" lon="6.9842740">
        <ele>1622.0</ele>
        <time>2017-07-24T07:39:31Z</time>
      </trkpt>
      <trkpt lat="44.4939030" lon="6.9842740">
        <ele>1622.4</ele>
        <time>2017-07-24T07:39:32Z</time>
      </trkpt>
      <trkpt lat="44.4939440" lon="6.9842660">
        <ele>1623.2</ele>
        <time>2017-07-24T07:39:34Z</time>
      </trkpt>
      <trkpt lat="44.4940110" lon="6.9842700">
        <ele>1624.2</ele>
        <time>2017-07-24T07:39:37Z</time>
      </trkpt>
      <trkpt lat="44.4940350" lon="6.9842720">
        <ele>1624.6</ele>
        <time>2017-07-24T07:39:38Z</time>
      </trkpt>
      <trkpt lat="44.4941010" lon="6.9843110">
        <ele>1625.6</ele>
        <time>2017-07-24T07:39:41Z</time>
      </trkpt>
      <trkpt lat="44.4941440" lon="6.9843450">
        <ele>1626.0</ele>
        <time>2017-07-24T07:39:43Z</time>
      </trkpt>
      <trkpt lat="44.4941840" lon="6.9844290">
        <ele>1626.8</ele>
        <time>2017-07-24T07:39:46Z</time>
      </trkpt>
      <trkpt lat="44.4942160" lon="6.9844980">
        <ele>1627.2</ele>
        <time>2017-07-24T07:39:48Z</time>
      </trkpt>
      <trkpt lat="44.4943430" lon="6.9846310">
        <ele>1627.8</ele>
        <time>2017-07-24T07:39:53Z</time>
      </trkpt>
      <trkpt lat="44.4943710" lon="6.9846410">
        <ele>1628.6</ele>
        <time>2017-07-24T07:39:54Z</time>
      </trkpt>
      <trkpt lat="44.4944150" lon="6.9846510">
        <ele>1625.2</ele>
        <time>2017-07-24T07:39:56Z</time>
      </trkpt>
      <trkpt lat="44.4944800" lon="6.9846440">
        <ele>1629.4</ele>
        <time>2017-07-24T07:39:59Z</time>
      </trkpt>
      <trkpt lat="44.4945230" lon="6.9846300">
        <ele>1630.0</ele>
        <time>2017-07-24T07:40:01Z</time>
      </trkpt>
      <trkpt lat="44.4945650" lon="6.9846230">
        <ele>1630.4</ele>
        <time>2017-07-24T07:40:03Z</time>
      </trkpt>
      <trkpt lat="44.4946550" lon="6.9846300">
        <ele>1631.6</ele>
        <time>2017-07-24T07:40:07Z</time>
      </trkpt>
      <trkpt lat="44.4947450" lon="6.9846840">
        <ele>1632.8</ele>
        <time>2017-07-24T07:40:12Z</time>
      </trkpt>
      <trkpt lat="44.4947610" lon="6.9847000">
        <ele>1633.0</ele>
        <time>2017-07-24T07:40:13Z</time>
      </trkpt>
      <trkpt lat="44.4948340" lon="6.9847380">
        <ele>1634.0</ele>
        <time>2017-07-24T07:40:17Z</time>
      </trkpt>
      <trkpt lat="44.4948640" lon="6.9847590">
        <ele>1635.0</ele>
        <time>2017-07-24T07:40:19Z</time>
      </trkpt>
      <trkpt lat="44.4948800" lon="6.9847650">
        <ele>1635.2</ele>
        <time>2017-07-24T07:40:20Z</time>
      </trkpt>
      <trkpt lat="44.4949570" lon="6.9847700">
        <ele>1636.2</ele>
        <time>2017-07-24T07:40:24Z</time>
      </trkpt>
      <trkpt lat="44.4949980" lon="6.9847730">
        <ele>1636.8</ele>
        <time>2017-07-24T07:40:26Z</time>
      </trkpt>
      <trkpt lat="44.4950320" lon="6.9847710">
        <ele>1637.4</ele>
        <time>2017-07-24T07:40:28Z</time>
      </trkpt>
      <trkpt lat="44.4950930" lon="6.9847680">
        <ele>1638.6</ele>
        <time>2017-07-24T07:40:32Z</time>
      </trkpt>
      <trkpt lat="44.4951830" lon="6.9847950">
        <ele>1639.8</ele>
        <time>2017-07-24T07:40:37Z</time>
      </trkpt>
      <trkpt lat="44.4952010" lon="6.9848050">
        <ele>1640.2</ele>
        <time>2017-07-24T07:40:38Z</time>
      </trkpt>
      <trkpt lat="44.4952480" lon="6.9848270">
        <ele>1640.8</ele>
        <time>2017-07-24T07:40:41Z</time>
      </trkpt>
      <trkpt lat="44.4953180" lon="6.9848570">
        <ele>1642.2</ele>
        <time>2017-07-24T07:40:45Z</time>
      </trkpt>
      <trkpt lat="44.4953380" lon="6.9848620">
        <ele>1642.4</ele>
        <time>2017-07-24T07:40:46Z</time>
      </trkpt>
      <trkpt lat="44.4953980" lon="6.9848700">
        <ele>1643.2</ele>
        <time>2017-07-24T07:40:49Z</time>
      </trkpt>
      <trkpt lat="44.4955090" lon="6.9848900">
        <ele>1644.2</ele>
        <time>2017-07-24T07:40:54Z</time>
      </trkpt>
      <trkpt lat="44.4956390" lon="6.9848930">
        <ele>1645.2</ele>
        <time>2017-07-24T07:40:59Z</time>
      </trkpt>
      <trkpt lat="44.4956630" lon="6.9848950">
        <ele>1645.4</ele>
        <time>2017-07-24T07:41:00Z</time>
      </trkpt>
      <trkpt lat="44.4957690" lon="6.9848700">
        <ele>1646.4</ele>
        <time>2017-07-24T07:41:05Z</time>
      </trkpt>
      <trkpt lat="44.4958360" lon="6.9848510">
        <ele>1647.4</ele>
        <time>2017-07-24T07:41:08Z</time>
      </trkpt>
      <trkpt lat="44.4959340" lon="6.9848400">
        <ele>1648.0</ele>
        <time>2017-07-24T07:41:12Z</time>
      </trkpt>
      <trkpt lat="44.4959860" lon="6.9848490">
        <ele>1648.4</ele>
        <time>2017-07-24T07:41:14Z</time>
      </trkpt>
      <trkpt lat="44.4960870" lon="6.9848590">
        <ele>1649.0</ele>
        <time>2017-07-24T07:41:18Z</time>
      </trkpt>
      <trkpt lat="44.4961570" lon="6.9848640">
        <ele>1649.6</ele>
        <time>2017-07-24T07:41:21Z</time>
      </trkpt>
      <trkpt lat="44.4962670" lon="6.9848830">
        <ele>1650.6</ele>
        <time>2017-07-24T07:41:26Z</time>
      </trkpt>
      <trkpt lat="44.4962880" lon="6.9848850">
        <ele>1650.8</ele>
        <time>2017-07-24T07:41:27Z</time>
      </trkpt>
      <trkpt lat="44.4963750" lon="6.9848570">
        <ele>1652.0</ele>
        <time>2017-07-24T07:41:31Z</time>
      </trkpt>
      <trkpt lat="44.4964900" lon="6.9848280">
        <ele>1653.0</ele>
        <time>2017-07-24T07:41:36Z</time>
      </trkpt>
      <trkpt lat="44.4965470" lon="6.9848060">
        <ele>1653.8</ele>
        <time>2017-07-24T07:41:39Z</time>
      </trkpt>
      <trkpt lat="44.4965670" lon="6.9847990">
        <ele>1654.0</ele>
        <time>2017-07-24T07:41:40Z</time>
      </trkpt>
      <trkpt lat="44.4966690" lon="6.9847660">
        <ele>1655.2</ele>
        <time>2017-07-24T07:41:45Z</time>
      </trkpt>
      <trkpt lat="44.4966880" lon="6.9847650">
        <ele>1655.4</ele>
        <time>2017-07-24T07:41:46Z</time>
      </trkpt>
      <trkpt lat="44.4967670" lon="6.9847380">
        <ele>1656.2</ele>
        <time>2017-07-24T07:41:50Z</time>
      </trkpt>
      <trkpt lat="44.4968420" lon="6.9846950">
        <ele>1657.4</ele>
        <time>2017-07-24T07:41:54Z</time>
      </trkpt>
      <trkpt lat="44.4969610" lon="6.9847170">
        <ele>1658.6</ele>
        <time>2017-07-24T07:42:00Z</time>
      </trkpt>
      <trkpt lat="44.4970520" lon="6.9847740">
        <ele>1659.8</ele>
        <time>2017-07-24T07:42:05Z</time>
      </trkpt>
      <trkpt lat="44.4970720" lon="6.9847830">
        <ele>1660.2</ele>
        <time>2017-07-24T07:42:06Z</time>
      </trkpt>
      <trkpt lat="44.4971480" lon="6.9848510">
        <ele>1661.0</ele>
        <time>2017-07-24T07:42:10Z</time>
      </trkpt>
      <trkpt lat="44.4972260" lon="6.9848950">
        <ele>1661.2</ele>
        <time>2017-07-24T07:42:14Z</time>
      </trkpt>
      <trkpt lat="44.4972650" lon="6.9849060">
        <ele>1662.2</ele>
        <time>2017-07-24T07:42:16Z</time>
      </trkpt>
      <trkpt lat="44.4973720" lon="6.9849250">
        <ele>1662.8</ele>
        <time>2017-07-24T07:42:21Z</time>
      </trkpt>
      <trkpt lat="44.4974120" lon="6.9849250">
        <ele>1663.4</ele>
        <time>2017-07-24T07:42:23Z</time>
      </trkpt>
      <trkpt lat="44.4975150" lon="6.9849410">
        <ele>1664.4</ele>
        <time>2017-07-24T07:42:28Z</time>
      </trkpt>
      <trkpt lat="44.4976230" lon="6.9849350">
        <ele>1665.4</ele>
        <time>2017-07-24T07:42:33Z</time>
      </trkpt>
      <trkpt lat="44.4976450" lon="6.9849490">
        <ele>1665.6</ele>
        <time>2017-07-24T07:42:34Z</time>
      </trkpt>
      <trkpt lat="44.4977300" lon="6.9850530">
        <ele>1666.6</ele>
        <time>2017-07-24T07:42:39Z</time>
      </trkpt>
      <trkpt lat="44.4977460" lon="6.9850720">
        <ele>1666.8</ele>
        <time>2017-07-24T07:42:40Z</time>
      </trkpt>
      <trkpt lat="44.4977910" lon="6.9851390">
        <ele>1667.6</ele>
        <time>2017-07-24T07:42:43Z</time>
      </trkpt>
      <trkpt lat="44.4978270" lon="6.9851770">
        <ele>1668.2</ele>
        <time>2017-07-24T07:42:45Z</time>
      </trkpt>
      <trkpt lat="44.4978850" lon="6.9852200">
        <ele>1669.0</ele>
        <time>2017-07-24T07:42:48Z</time>
      </trkpt>
      <trkpt lat="44.4979540" lon="6.9852720">
        <ele>1669.8</ele>
        <time>2017-07-24T07:42:53Z</time>
      </trkpt>
      <trkpt lat="44.4979740" lon="6.9852790">
        <ele>1670.0</ele>
        <time>2017-07-24T07:42:54Z</time>
      </trkpt>
      <trkpt lat="44.4980370" lon="6.9852960">
        <ele>1671.2</ele>
        <time>2017-07-24T07:42:58Z</time>
      </trkpt>
      <trkpt lat="44.4980690" lon="6.9852890">
        <ele>1671.6</ele>
        <time>2017-07-24T07:43:00Z</time>
      </trkpt>
      <trkpt lat="44.4981190" lon="6.9852790">
        <ele>1672.4</ele>
        <time>2017-07-24T07:43:03Z</time>
      </trkpt>
      <trkpt lat="44.4981950" lon="6.9852720">
        <ele>1673.4</ele>
        <time>2017-07-24T07:43:07Z</time>
      </trkpt>
      <trkpt lat="44.4982130" lon="6.9852730">
        <ele>1673.8</ele>
        <time>2017-07-24T07:43:08Z</time>
      </trkpt>
      <trkpt lat="44.4982990" lon="6.9852710">
        <ele>1674.6</ele>
        <time>2017-07-24T07:43:13Z</time>
      </trkpt>
      <trkpt lat="44.4983210" lon="6.9852740">
        <ele>1674.8</ele>
        <time>2017-07-24T07:43:14Z</time>
      </trkpt>
      <trkpt lat="44.4984420" lon="6.9853160">
        <ele>1675.8</ele>
        <time>2017-07-24T07:43:19Z</time>
      </trkpt>
      <trkpt lat="44.4985180" lon="6.9853390">
        <ele>1676.4</ele>
        <time>2017-07-24T07:43:22Z</time>
      </trkpt>
      <trkpt lat="44.4985660" lon="6.9853610">
        <ele>1676.8</ele>
        <time>2017-07-24T07:43:24Z</time>
      </trkpt>
      <trkpt lat="44.4986780" lon="6.9853960">
        <ele>1677.8</ele>
        <time>2017-07-24T07:43:29Z</time>
      </trkpt>
      <trkpt lat="44.4987430" lon="6.9854330">
        <ele>1679.0</ele>
        <time>2017-07-24T07:43:32Z</time>
      </trkpt>
      <trkpt lat="44.4988430" lon="6.9854910">
        <ele>1680.2</ele>
        <time>2017-07-24T07:43:37Z</time>
      </trkpt>
      <trkpt lat="44.4988590" lon="6.9855050">
        <ele>1680.4</ele>
        <time>2017-07-24T07:43:38Z</time>
      </trkpt>
      <trkpt lat="44.4988790" lon="6.9855140">
        <ele>1680.6</ele>
        <time>2017-07-24T07:43:39Z</time>
      </trkpt>
      <trkpt lat="44.4989350" lon="6.9855360">
        <ele>1681.4</ele>
        <time>2017-07-24T07:43:42Z</time>
      </trkpt>
      <trkpt lat="44.4989550" lon="6.9855370">
        <ele>1681.6</ele>
        <time>2017-07-24T07:43:43Z</time>
      </trkpt>
      <trkpt lat="44.4990010" lon="6.9854870">
        <ele>1682.4</ele>
        <time>2017-07-24T07:43:47Z</time>
      </trkpt>
      <trkpt lat="44.4989500" lon="6.9854070">
        <ele>1683.6</ele>
        <time>2017-07-24T07:43:51Z</time>
      </trkpt>
      <trkpt lat="44.4989320" lon="6.9853900">
        <ele>1683.8</ele>
        <time>2017-07-24T07:43:52Z</time>
      </trkpt>
      <trkpt lat="44.4988770" lon="6.9853470">
        <ele>1684.8</ele>
        <time>2017-07-24T07:43:55Z</time>
      </trkpt>
      <trkpt lat="44.4987890" lon="6.9852710">
        <ele>1685.6</ele>
        <time>2017-07-24T07:44:00Z</time>
      </trkpt>
      <trkpt lat="44.4987730" lon="6.9852550">
        <ele>1685.8</ele>
        <time>2017-07-24T07:44:01Z</time>
      </trkpt>
      <trkpt lat="44.4986930" lon="6.9851740">
        <ele>1686.8</ele>
        <time>2017-07-24T07:44:06Z</time>
      </trkpt>
      <trkpt lat="44.4986630" lon="6.9851370">
        <ele>1687.2</ele>
        <time>2017-07-24T07:44:08Z</time>
      </trkpt>
      <trkpt lat="44.4986170" lon="6.9850940">
        <ele>1688.0</ele>
        <time>2017-07-24T07:44:11Z</time>
      </trkpt>
      <trkpt lat="44.4985440" lon="6.9850390">
        <ele>1688.8</ele>
        <time>2017-07-24T07:44:15Z</time>
      </trkpt>
      <trkpt lat="44.4985090" lon="6.9850120">
        <ele>1689.2</ele>
        <time>2017-07-24T07:44:17Z</time>
      </trkpt>
      <trkpt lat="44.4984340" lon="6.9849850">
        <ele>1690.0</ele>
        <time>2017-07-24T07:44:21Z</time>
      </trkpt>
      <trkpt lat="44.4984140" lon="6.9849760">
        <ele>1690.2</ele>
        <time>2017-07-24T07:44:22Z</time>
      </trkpt>
      <trkpt lat="44.4982770" lon="6.9849370">
        <ele>1689.6</ele>
        <time>2017-07-24T07:44:28Z</time>
      </trkpt>
      <trkpt lat="44.4982270" lon="6.9849210">
        <ele>1689.4</ele>
        <time>2017-07-24T07:44:30Z</time>
      </trkpt>
      <trkpt lat="44.4981460" lon="6.9848730">
        <ele>1689.6</ele>
        <time>2017-07-24T07:44:34Z</time>
      </trkpt>
      <trkpt lat="44.4980870" lon="6.9847110">
        <ele>1690.4</ele>
        <time>2017-07-24T07:44:40Z</time>
      </trkpt>
      <trkpt lat="44.4980780" lon="6.9845800">
        <ele>1691.6</ele>
        <time>2017-07-24T07:44:44Z</time>
      </trkpt>
      <trkpt lat="44.4980780" lon="6.9844730">
        <ele>1692.4</ele>
        <time>2017-07-24T07:44:47Z</time>
      </trkpt>
      <trkpt lat="44.4980770" lon="6.9844470">
        <ele>1692.8</ele>
        <time>2017-07-24T07:44:48Z</time>
      </trkpt>
      <trkpt lat="44.4980640" lon="6.9843240">
        <ele>1693.8</ele>
        <time>2017-07-24T07:44:52Z</time>
      </trkpt>
      <trkpt lat="44.4980220" lon="6.9842010">
        <ele>1695.0</ele>
        <time>2017-07-24T07:44:56Z</time>
      </trkpt>
      <trkpt lat="44.4979710" lon="6.9841300">
        <ele>1695.8</ele>
        <time>2017-07-24T07:44:59Z</time>
      </trkpt>
      <trkpt lat="44.4979330" lon="6.9840850">
        <ele>1696.2</ele>
        <time>2017-07-24T07:45:01Z</time>
      </trkpt>
      <trkpt lat="44.4978600" lon="6.9839770">
        <ele>1697.4</ele>
        <time>2017-07-24T07:45:05Z</time>
      </trkpt>
      <trkpt lat="44.4978470" lon="6.9839370">
        <ele>1697.8</ele>
        <time>2017-07-24T07:45:06Z</time>
      </trkpt>
      <trkpt lat="44.4978400" lon="6.9838680">
        <ele>1698.6</ele>
        <time>2017-07-24T07:45:08Z</time>
      </trkpt>
      <trkpt lat="44.4978410" lon="6.9837460">
        <ele>1699.8</ele>
        <time>2017-07-24T07:45:12Z</time>
      </trkpt>
      <trkpt lat="44.4978280" lon="6.9836110">
        <ele>1700.8</ele>
        <time>2017-07-24T07:45:16Z</time>
      </trkpt>
      <trkpt lat="44.4978100" lon="6.9835850">
        <ele>1701.0</ele>
        <time>2017-07-24T07:45:17Z</time>
      </trkpt>
      <trkpt lat="44.4977960" lon="6.9835540">
        <ele>1701.4</ele>
        <time>2017-07-24T07:45:18Z</time>
      </trkpt>
      <trkpt lat="44.4977100" lon="6.9835050">
        <ele>1701.8</ele>
        <time>2017-07-24T07:45:22Z</time>
      </trkpt>
      <trkpt lat="44.4976750" lon="6.9835070">
        <ele>1702.0</ele>
        <time>2017-07-24T07:45:23Z</time>
      </trkpt>
      <trkpt lat="44.4975920" lon="6.9835300">
        <ele>1702.2</ele>
        <time>2017-07-24T07:45:26Z</time>
      </trkpt>
      <trkpt lat="44.4975680" lon="6.9835420">
        <ele>1702.4</ele>
        <time>2017-07-24T07:45:27Z</time>
      </trkpt>
      <trkpt lat="44.4974330" lon="6.9835380">
        <ele>1702.8</ele>
        <time>2017-07-24T07:45:33Z</time>
      </trkpt>
      <trkpt lat="44.4973990" lon="6.9835210">
        <ele>1703.0</ele>
        <time>2017-07-24T07:45:35Z</time>
      </trkpt>
      <trkpt lat="44.4973330" lon="6.9834380">
        <ele>1703.6</ele>
        <time>2017-07-24T07:45:39Z</time>
      </trkpt>
      <trkpt lat="44.4972560" lon="6.9832820">
        <ele>1704.0</ele>
        <time>2017-07-24T07:45:45Z</time>
      </trkpt>
      <trkpt lat="44.4972390" lon="6.9832430">
        <ele>1704.6</ele>
        <time>2017-07-24T07:45:47Z</time>
      </trkpt>
      <trkpt lat="44.4972110" lon="6.9832120">
        <ele>1705.4</ele>
        <time>2017-07-24T07:45:49Z</time>
      </trkpt>
      <trkpt lat="44.4971360" lon="6.9831740">
        <ele>1706.4</ele>
        <time>2017-07-24T07:45:53Z</time>
      </trkpt>
      <trkpt lat="44.4970810" lon="6.9831550">
        <ele>1707.6</ele>
        <time>2017-07-24T07:45:56Z</time>
      </trkpt>
      <trkpt lat="44.4970000" lon="6.9831370">
        <ele>1709.0</ele>
        <time>2017-07-24T07:46:00Z</time>
      </trkpt>
      <trkpt lat="44.4969790" lon="6.9831280">
        <ele>1709.2</ele>
        <time>2017-07-24T07:46:01Z</time>
      </trkpt>
      <trkpt lat="44.4969380" lon="6.9831090">
        <ele>1704.2</ele>
        <time>2017-07-24T07:46:03Z</time>
      </trkpt>
      <trkpt lat="44.4969240" lon="6.9830970">
        <ele>1690.0</ele>
        <time>2017-07-24T07:46:04Z</time>
      </trkpt>
      <trkpt lat="44.4969090" lon="6.9830860">
        <ele>1675.0</ele>
        <time>2017-07-24T07:46:05Z</time>
      </trkpt>
      <trkpt lat="44.4968920" lon="6.9830780">
        <ele>1682.6</ele>
        <time>2017-07-24T07:46:06Z</time>
      </trkpt>
      <trkpt lat="44.4968700" lon="6.9830700">
        <ele>1699.8</ele>
        <time>2017-07-24T07:46:07Z</time>
      </trkpt>
      <trkpt lat="44.4968480" lon="6.9830610">
        <ele>1717.4</ele>
        <time>2017-07-24T07:46:08Z</time>
      </trkpt>
      <trkpt lat="44.4968300" lon="6.9830530">
        <ele>1718.0</ele>
        <time>2017-07-24T07:46:09Z</time>
      </trkpt>
      <trkpt lat="44.4967770" lon="6.9830280">
        <ele>1716.4</ele>
        <time>2017-07-24T07:46:12Z</time>
      </trkpt>
      <trkpt lat="44.4967620" lon="6.9830140">
        <ele>1715.2</ele>
        <time>2017-07-24T07:46:13Z</time>
      </trkpt>
      <trkpt lat="44.4967460" lon="6.9830010">
        <ele>1713.8</ele>
        <time>2017-07-24T07:46:14Z</time>
      </trkpt>
      <trkpt lat="44.4967120" lon="6.9829760">
        <ele>1713.4</ele>
        <time>2017-07-24T07:46:16Z</time>
      </trkpt>
      <trkpt lat="44.4966650" lon="6.9829450">
        <ele>1712.6</ele>
        <time>2017-07-24T07:46:19Z</time>
      </trkpt>
      <trkpt lat="44.4965670" lon="6.9829170">
        <ele>1713.6</ele>
        <time>2017-07-24T07:46:24Z</time>
      </trkpt>
      <trkpt lat="44.4965470" lon="6.9829120">
        <ele>1713.8</ele>
        <time>2017-07-24T07:46:25Z</time>
      </trkpt>
      <trkpt lat="44.4964520" lon="6.9828880">
        <ele>1714.8</ele>
        <time>2017-07-24T07:46:31Z</time>
      </trkpt>
      <trkpt lat="44.4964420" lon="6.9828770">
        <ele>1715.2</ele>
        <time>2017-07-24T07:46:32Z</time>
      </trkpt>
      <trkpt lat="44.4963960" lon="6.9828490">
        <ele>1716.2</ele>
        <time>2017-07-24T07:46:35Z</time>
      </trkpt>
      <trkpt lat="44.4963130" lon="6.9828130">
        <ele>1717.0</ele>
        <time>2017-07-24T07:46:39Z</time>
      </trkpt>
      <trkpt lat="44.4962570" lon="6.9827740">
        <ele>1717.2</ele>
        <time>2017-07-24T07:46:42Z</time>
      </trkpt>
      <trkpt lat="44.4961830" lon="6.9827120">
        <ele>1718.0</ele>
        <time>2017-07-24T07:46:46Z</time>
      </trkpt>
      <trkpt lat="44.4961290" lon="6.9826690">
        <ele>1718.4</ele>
        <time>2017-07-24T07:46:49Z</time>
      </trkpt>
      <trkpt lat="44.4960690" lon="6.9826370">
        <ele>1719.2</ele>
        <time>2017-07-24T07:46:52Z</time>
      </trkpt>
      <trkpt lat="44.4958830" lon="6.9825670">
        <ele>1719.4</ele>
        <time>2017-07-24T07:47:01Z</time>
      </trkpt>
      <trkpt lat="44.4958390" lon="6.9824830">
        <ele>1719.4</ele>
        <time>2017-07-24T07:47:05Z</time>
      </trkpt>
      <trkpt lat="44.4958470" lon="6.9824600">
        <ele>1719.6</ele>
        <time>2017-07-24T07:47:06Z</time>
      </trkpt>
      <trkpt lat="44.4959230" lon="6.9824250">
        <ele>1720.2</ele>
        <time>2017-07-24T07:47:10Z</time>
      </trkpt>
      <trkpt lat="44.4959440" lon="6.9824230">
        <ele>1720.8</ele>
        <time>2017-07-24T07:47:11Z</time>
      </trkpt>
      <trkpt lat="44.4959810" lon="6.9824270">
        <ele>1721.8</ele>
        <time>2017-07-24T07:47:13Z</time>
      </trkpt>
      <trkpt lat="44.4960490" lon="6.9824580">
        <ele>1722.0</ele>
        <time>2017-07-24T07:47:16Z</time>
      </trkpt>
      <trkpt lat="44.4961700" lon="6.9825440">
        <ele>1723.0</ele>
        <time>2017-07-24T07:47:21Z</time>
      </trkpt>
      <trkpt lat="44.4962500" lon="6.9825690">
        <ele>1723.4</ele>
        <time>2017-07-24T07:47:24Z</time>
      </trkpt>
      <trkpt lat="44.4962940" lon="6.9825900">
        <ele>1724.0</ele>
        <time>2017-07-24T07:47:26Z</time>
      </trkpt>
      <trkpt lat="44.4963600" lon="6.9826060">
        <ele>1725.0</ele>
        <time>2017-07-24T07:47:29Z</time>
      </trkpt>
      <trkpt lat="44.4964300" lon="6.9826040">
        <ele>1726.6</ele>
        <time>2017-07-24T07:47:32Z</time>
      </trkpt>
      <trkpt lat="44.4964950" lon="6.9825850">
        <ele>1727.6</ele>
        <time>2017-07-24T07:47:35Z</time>
      </trkpt>
      <trkpt lat="44.4965560" lon="6.9825670">
        <ele>1728.8</ele>
        <time>2017-07-24T07:47:38Z</time>
      </trkpt>
      <trkpt lat="44.4965760" lon="6.9825580">
        <ele>1729.2</ele>
        <time>2017-07-24T07:47:39Z</time>
      </trkpt>
      <trkpt lat="44.4966410" lon="6.9825420">
        <ele>1730.2</ele>
        <time>2017-07-24T07:47:42Z</time>
      </trkpt>
      <trkpt lat="44.4967060" lon="6.9825250">
        <ele>1731.4</ele>
        <time>2017-07-24T07:47:45Z</time>
      </trkpt>
      <trkpt lat="44.4967250" lon="6.9825190">
        <ele>1731.6</ele>
        <time>2017-07-24T07:47:46Z</time>
      </trkpt>
      <trkpt lat="44.4967700" lon="6.9824960">
        <ele>1732.6</ele>
        <time>2017-07-24T07:47:49Z</time>
      </trkpt>
      <trkpt lat="44.4968690" lon="6.9824860">
        <ele>1733.8</ele>
        <time>2017-07-24T07:47:53Z</time>
      </trkpt>
      <trkpt lat="44.4969470" lon="6.9824800">
        <ele>1735.0</ele>
        <time>2017-07-24T07:47:56Z</time>
      </trkpt>
      <trkpt lat="44.4970580" lon="6.9824640">
        <ele>1736.2</ele>
        <time>2017-07-24T07:48:00Z</time>
      </trkpt>
      <trkpt lat="44.4971810" lon="6.9824450">
        <ele>1737.2</ele>
        <time>2017-07-24T07:48:05Z</time>
      </trkpt>
      <trkpt lat="44.4972510" lon="6.9824800">
        <ele>1737.6</ele>
        <time>2017-07-24T07:48:07Z</time>
      </trkpt>
      <trkpt lat="44.4974320" lon="6.9825280">
        <ele>1737.6</ele>
        <time>2017-07-24T07:48:14Z</time>
      </trkpt>
      <trkpt lat="44.4976130" lon="6.9826120">
        <ele>1737.6</ele>
        <time>2017-07-24T07:48:21Z</time>
      </trkpt>
      <trkpt lat="44.4976850" lon="6.9826380">
        <ele>1738.4</ele>
        <time>2017-07-24T07:48:24Z</time>
      </trkpt>
      <trkpt lat="44.4977580" lon="6.9826670">
        <ele>1739.6</ele>
        <time>2017-07-24T07:48:27Z</time>
      </trkpt>
      <trkpt lat="44.4978320" lon="6.9826600">
        <ele>1740.6</ele>
        <time>2017-07-24T07:48:30Z</time>
      </trkpt>
      <trkpt lat="44.4979220" lon="6.9826320">
        <ele>1741.4</ele>
        <time>2017-07-24T07:48:34Z</time>
      </trkpt>
      <trkpt lat="44.4979460" lon="6.9826220">
        <ele>1741.6</ele>
        <time>2017-07-24T07:48:35Z</time>
      </trkpt>
      <trkpt lat="44.4980610" lon="6.9825520">
        <ele>1742.2</ele>
        <time>2017-07-24T07:48:40Z</time>
      </trkpt>
      <trkpt lat="44.4981980" lon="6.9824710">
        <ele>1742.2</ele>
        <time>2017-07-24T07:48:47Z</time>
      </trkpt>
      <trkpt lat="44.4983250" lon="6.9824970">
        <ele>1742.2</ele>
        <time>2017-07-24T07:48:53Z</time>
      </trkpt>
      <trkpt lat="44.4984310" lon="6.9825870">
        <ele>1742.6</ele>
        <time>2017-07-24T07:48:59Z</time>
      </trkpt>
      <trkpt lat="44.4984510" lon="6.9825990">
        <ele>1743.0</ele>
        <time>2017-07-24T07:49:00Z</time>
      </trkpt>
      <trkpt lat="44.4985330" lon="6.9826490">
        <ele>1744.0</ele>
        <time>2017-07-24T07:49:04Z</time>
      </trkpt>
      <trkpt lat="44.4986090" lon="6.9826690">
        <ele>1745.4</ele>
        <time>2017-07-24T07:49:08Z</time>
      </trkpt>
      <trkpt lat="44.4986870" lon="6.9826890">
        <ele>1746.6</ele>
        <time>2017-07-24T07:49:12Z</time>
      </trkpt>
      <trkpt lat="44.4987630" lon="6.9826910">
        <ele>1748.0</ele>
        <time>2017-07-24T07:49:16Z</time>
      </trkpt>
      <trkpt lat="44.4988200" lon="6.9827060">
        <ele>1749.0</ele>
        <time>2017-07-24T07:49:19Z</time>
      </trkpt>
      <trkpt lat="44.4989020" lon="6.9826990">
        <ele>1750.2</ele>
        <time>2017-07-24T07:49:23Z</time>
      </trkpt>
      <trkpt lat="44.4989230" lon="6.9826960">
        <ele>1750.6</ele>
        <time>2017-07-24T07:49:24Z</time>
      </trkpt>
      <trkpt lat="44.4989860" lon="6.9826940">
        <ele>1751.4</ele>
        <time>2017-07-24T07:49:27Z</time>
      </trkpt>
      <trkpt lat="44.4991090" lon="6.9827020">
        <ele>1752.2</ele>
        <time>2017-07-24T07:49:33Z</time>
      </trkpt>
      <trkpt lat="44.4991460" lon="6.9827170">
        <ele>1752.4</ele>
        <time>2017-07-24T07:49:35Z</time>
      </trkpt>
      <trkpt lat="44.4992230" lon="6.9827320">
        <ele>1752.8</ele>
        <time>2017-07-24T07:49:39Z</time>
      </trkpt>
      <trkpt lat="44.4992430" lon="6.9827440">
        <ele>1752.8</ele>
        <time>2017-07-24T07:49:40Z</time>
      </trkpt>
      <trkpt lat="44.4993250" lon="6.9828270">
        <ele>1753.6</ele>
        <time>2017-07-24T07:49:45Z</time>
      </trkpt>
      <trkpt lat="44.4993590" lon="6.9828560">
        <ele>1753.8</ele>
        <time>2017-07-24T07:49:47Z</time>
      </trkpt>
      <trkpt lat="44.4994450" lon="6.9828940">
        <ele>1754.8</ele>
        <time>2017-07-24T07:49:52Z</time>
      </trkpt>
      <trkpt lat="44.4994790" lon="6.9829080">
        <ele>1755.0</ele>
        <time>2017-07-24T07:49:54Z</time>
      </trkpt>
      <trkpt lat="44.4995510" lon="6.9829210">
        <ele>1755.8</ele>
        <time>2017-07-24T07:49:58Z</time>
      </trkpt>
      <trkpt lat="44.4996030" lon="6.9829280">
        <ele>1757.0</ele>
        <time>2017-07-24T07:50:01Z</time>
      </trkpt>
      <trkpt lat="44.4996560" lon="6.9829180">
        <ele>1758.2</ele>
        <time>2017-07-24T07:50:04Z</time>
      </trkpt>
      <trkpt lat="44.4997060" lon="6.9829070">
        <ele>1759.6</ele>
        <time>2017-07-24T07:50:07Z</time>
      </trkpt>
      <trkpt lat="44.4997650" lon="6.9828920">
        <ele>1760.6</ele>
        <time>2017-07-24T07:50:10Z</time>
      </trkpt>
      <trkpt lat="44.4998190" lon="6.9828850">
        <ele>1761.8</ele>
        <time>2017-07-24T07:50:13Z</time>
      </trkpt>
      <trkpt lat="44.4998890" lon="6.9828820">
        <ele>1763.2</ele>
        <time>2017-07-24T07:50:17Z</time>
      </trkpt>
      <trkpt lat="44.4999270" lon="6.9828950">
        <ele>1763.4</ele>
        <time>2017-07-24T07:50:19Z</time>
      </trkpt>
      <trkpt lat="44.5000520" lon="6.9829640">
        <ele>1764.2</ele>
        <time>2017-07-24T07:50:26Z</time>
      </trkpt>
      <trkpt lat="44.5000870" lon="6.9829760">
        <ele>1764.4</ele>
        <time>2017-07-24T07:50:28Z</time>
      </trkpt>
      <trkpt lat="44.5002020" lon="6.9830000">
        <ele>1765.4</ele>
        <time>2017-07-24T07:50:34Z</time>
      </trkpt>
      <trkpt lat="44.5002630" lon="6.9830180">
        <ele>1765.8</ele>
        <time>2017-07-24T07:50:37Z</time>
      </trkpt>
      <trkpt lat="44.5003160" lon="6.9830550">
        <ele>1766.4</ele>
        <time>2017-07-24T07:50:40Z</time>
      </trkpt>
      <trkpt lat="44.5003420" lon="6.9830890">
        <ele>1766.6</ele>
        <time>2017-07-24T07:50:42Z</time>
      </trkpt>
      <trkpt lat="44.5003820" lon="6.9831520">
        <ele>1767.4</ele>
        <time>2017-07-24T07:50:45Z</time>
      </trkpt>
      <trkpt lat="44.5004330" lon="6.9832250">
        <ele>1768.0</ele>
        <time>2017-07-24T07:50:49Z</time>
      </trkpt>
      <trkpt lat="44.5004630" lon="6.9832560">
        <ele>1768.6</ele>
        <time>2017-07-24T07:50:51Z</time>
      </trkpt>
      <trkpt lat="44.5005070" lon="6.9832990">
        <ele>1769.6</ele>
        <time>2017-07-24T07:50:54Z</time>
      </trkpt>
      <trkpt lat="44.5005330" lon="6.9833280">
        <ele>1770.2</ele>
        <time>2017-07-24T07:50:56Z</time>
      </trkpt>
      <trkpt lat="44.5005490" lon="6.9833430">
        <ele>1770.8</ele>
        <time>2017-07-24T07:50:57Z</time>
      </trkpt>
      <trkpt lat="44.5006190" lon="6.9833760">
        <ele>1772.0</ele>
        <time>2017-07-24T07:51:01Z</time>
      </trkpt>
      <trkpt lat="44.5006680" lon="6.9834120">
        <ele>1772.6</ele>
        <time>2017-07-24T07:51:04Z</time>
      </trkpt>
      <trkpt lat="44.5007050" lon="6.9834280">
        <ele>1773.0</ele>
        <time>2017-07-24T07:51:06Z</time>
      </trkpt>
      <trkpt lat="44.5007930" lon="6.9834690">
        <ele>1774.0</ele>
        <time>2017-07-24T07:51:11Z</time>
      </trkpt>
      <trkpt lat="44.5008290" lon="6.9834780">
        <ele>1774.2</ele>
        <time>2017-07-24T07:51:13Z</time>
      </trkpt>
      <trkpt lat="44.5009180" lon="6.9834840">
        <ele>1774.6</ele>
        <time>2017-07-24T07:51:18Z</time>
      </trkpt>
      <trkpt lat="44.5010430" lon="6.9834300">
        <ele>1775.2</ele>
        <time>2017-07-24T07:51:25Z</time>
      </trkpt>
      <trkpt lat="44.5011370" lon="6.9833100">
        <ele>1776.4</ele>
        <time>2017-07-24T07:51:32Z</time>
      </trkpt>
      <trkpt lat="44.5011530" lon="6.9832920">
        <ele>1776.6</ele>
        <time>2017-07-24T07:51:33Z</time>
      </trkpt>
      <trkpt lat="44.5012350" lon="6.9832250">
        <ele>1777.6</ele>
        <time>2017-07-24T07:51:38Z</time>
      </trkpt>
      <trkpt lat="44.5012850" lon="6.9831870">
        <ele>1778.2</ele>
        <time>2017-07-24T07:51:41Z</time>
      </trkpt>
      <trkpt lat="44.5013220" lon="6.9831640">
        <ele>1778.6</ele>
        <time>2017-07-24T07:51:43Z</time>
      </trkpt>
      <trkpt lat="44.5014150" lon="6.9831170">
        <ele>1779.8</ele>
        <time>2017-07-24T07:51:48Z</time>
      </trkpt>
      <trkpt lat="44.5015200" lon="6.9830480">
        <ele>1781.0</ele>
        <time>2017-07-24T07:51:54Z</time>
      </trkpt>
      <trkpt lat="44.5015500" lon="6.9830210">
        <ele>1781.8</ele>
        <time>2017-07-24T07:51:56Z</time>
      </trkpt>
      <trkpt lat="44.5015810" lon="6.9829970">
        <ele>1782.2</ele>
        <time>2017-07-24T07:51:58Z</time>
      </trkpt>
      <trkpt lat="44.5016370" lon="6.9829310">
        <ele>1783.4</ele>
        <time>2017-07-24T07:52:02Z</time>
      </trkpt>
      <trkpt lat="44.5016490" lon="6.9829110">
        <ele>1783.8</ele>
        <time>2017-07-24T07:52:03Z</time>
      </trkpt>
      <trkpt lat="44.5016720" lon="6.9828700">
        <ele>1784.8</ele>
        <time>2017-07-24T07:52:05Z</time>
      </trkpt>
      <trkpt lat="44.5017510" lon="6.9827630">
        <ele>1787.0</ele>
        <time>2017-07-24T07:52:11Z</time>
      </trkpt>
      <trkpt lat="44.5018180" lon="6.9826760">
        <ele>1788.6</ele>
        <time>2017-07-24T07:52:16Z</time>
      </trkpt>
      <trkpt lat="44.5018280" lon="6.9826590">
        <ele>1789.0</ele>
        <time>2017-07-24T07:52:17Z</time>
      </trkpt>
      <trkpt lat="44.5018730" lon="6.9826170">
        <ele>1789.8</ele>
        <time>2017-07-24T07:52:20Z</time>
      </trkpt>
      <trkpt lat="44.5019590" lon="6.9825670">
        <ele>1790.6</ele>
        <time>2017-07-24T07:52:25Z</time>
      </trkpt>
      <trkpt lat="44.5019910" lon="6.9825420">
        <ele>1791.0</ele>
        <time>2017-07-24T07:52:27Z</time>
      </trkpt>
      <trkpt lat="44.5021130" lon="6.9824680">
        <ele>1792.0</ele>
        <time>2017-07-24T07:52:34Z</time>
      </trkpt>
      <trkpt lat="44.5022340" lon="6.9823980">
        <ele>1793.2</ele>
        <time>2017-07-24T07:52:41Z</time>
      </trkpt>
      <trkpt lat="44.5022650" lon="6.9823830">
        <ele>1793.4</ele>
        <time>2017-07-24T07:52:43Z</time>
      </trkpt>
      <trkpt lat="44.5023260" lon="6.9823570">
        <ele>1794.4</ele>
        <time>2017-07-24T07:52:47Z</time>
      </trkpt>
      <trkpt lat="44.5023670" lon="6.9823350">
        <ele>1795.2</ele>
        <time>2017-07-24T07:52:50Z</time>
      </trkpt>
      <trkpt lat="44.5023840" lon="6.9823240">
        <ele>1795.6</ele>
        <time>2017-07-24T07:52:51Z</time>
      </trkpt>
      <trkpt lat="44.5024540" lon="6.9822950">
        <ele>1796.8</ele>
        <time>2017-07-24T07:52:55Z</time>
      </trkpt>
      <trkpt lat="44.5025210" lon="6.9822760">
        <ele>1798.2</ele>
        <time>2017-07-24T07:52:58Z</time>
      </trkpt>
      <trkpt lat="44.5025760" lon="6.9822440">
        <ele>1799.4</ele>
        <time>2017-07-24T07:53:01Z</time>
      </trkpt>
      <trkpt lat="44.5026380" lon="6.9822080">
        <ele>1800.6</ele>
        <time>2017-07-24T07:53:04Z</time>
      </trkpt>
      <trkpt lat="44.5026590" lon="6.9821880">
        <ele>1801.0</ele>
        <time>2017-07-24T07:53:05Z</time>
      </trkpt>
      <trkpt lat="44.5026970" lon="6.9821680">
        <ele>1802.0</ele>
        <time>2017-07-24T07:53:07Z</time>
      </trkpt>
      <trkpt lat="44.5027410" lon="6.9821500">
        <ele>1803.2</ele>
        <time>2017-07-24T07:53:09Z</time>
      </trkpt>
      <trkpt lat="44.5027590" lon="6.9821390">
        <ele>1803.6</ele>
        <time>2017-07-24T07:53:10Z</time>
      </trkpt>
      <trkpt lat="44.5027750" lon="6.9821310">
        <ele>1804.0</ele>
        <time>2017-07-24T07:53:11Z</time>
      </trkpt>
      <trkpt lat="44.5027940" lon="6.9821180">
        <ele>1804.4</ele>
        <time>2017-07-24T07:53:12Z</time>
      </trkpt>
      <trkpt lat="44.5028680" lon="6.9820610">
        <ele>1805.6</ele>
        <time>2017-07-24T07:53:16Z</time>
      </trkpt>
      <trkpt lat="44.5028890" lon="6.9820480">
        <ele>1806.0</ele>
        <time>2017-07-24T07:53:17Z</time>
      </trkpt>
      <trkpt lat="44.5029470" lon="6.9819970">
        <ele>1806.8</ele>
        <time>2017-07-24T07:53:20Z</time>
      </trkpt>
      <trkpt lat="44.5029990" lon="6.9819400">
        <ele>1807.8</ele>
        <time>2017-07-24T07:53:23Z</time>
      </trkpt>
      <trkpt lat="44.5030160" lon="6.9819210">
        <ele>1808.0</ele>
        <time>2017-07-24T07:53:24Z</time>
      </trkpt>
      <trkpt lat="44.5030330" lon="6.9818730">
        <ele>1808.6</ele>
        <time>2017-07-24T07:53:26Z</time>
      </trkpt>
      <trkpt lat="44.5030420" lon="6.9818500">
        <ele>1809.0</ele>
        <time>2017-07-24T07:53:27Z</time>
      </trkpt>
      <trkpt lat="44.5030580" lon="6.9817860">
        <ele>1809.6</ele>
        <time>2017-07-24T07:53:29Z</time>
      </trkpt>
      <trkpt lat="44.5030680" lon="6.9817600">
        <ele>1810.2</ele>
        <time>2017-07-24T07:53:30Z</time>
      </trkpt>
      <trkpt lat="44.5030770" lon="6.9817360">
        <ele>1810.6</ele>
        <time>2017-07-24T07:53:31Z</time>
      </trkpt>
      <trkpt lat="44.5030820" lon="6.9817110">
        <ele>1811.8</ele>
        <time>2017-07-24T07:53:32Z</time>
      </trkpt>
      <trkpt lat="44.5030920" lon="6.9816320">
        <ele>1813.4</ele>
        <time>2017-07-24T07:53:35Z</time>
      </trkpt>
      <trkpt lat="44.5030960" lon="6.9816130">
        <ele>1814.0</ele>
        <time>2017-07-24T07:53:36Z</time>
      </trkpt>
      <trkpt lat="44.5031020" lon="6.9815900">
        <ele>1814.6</ele>
        <time>2017-07-24T07:53:37Z</time>
      </trkpt>
      <trkpt lat="44.5031180" lon="6.9815170">
        <ele>1816.0</ele>
        <time>2017-07-24T07:53:40Z</time>
      </trkpt>
      <trkpt lat="44.5031470" lon="6.9814530">
        <ele>1817.4</ele>
        <time>2017-07-24T07:53:43Z</time>
      </trkpt>
      <trkpt lat="44.5031700" lon="6.9813840">
        <ele>1818.6</ele>
        <time>2017-07-24T07:53:46Z</time>
      </trkpt>
      <trkpt lat="44.5032030" lon="6.9813230">
        <ele>1819.6</ele>
        <time>2017-07-24T07:53:49Z</time>
      </trkpt>
      <trkpt lat="44.5032160" lon="6.9813050">
        <ele>1820.0</ele>
        <time>2017-07-24T07:53:50Z</time>
      </trkpt>
      <trkpt lat="44.5032720" lon="6.9812220">
        <ele>1821.0</ele>
        <time>2017-07-24T07:53:54Z</time>
      </trkpt>
      <trkpt lat="44.5033150" lon="6.9811550">
        <ele>1821.4</ele>
        <time>2017-07-24T07:53:57Z</time>
      </trkpt>
      <trkpt lat="44.5034230" lon="6.9809840">
        <ele>1821.8</ele>
        <time>2017-07-24T07:54:04Z</time>
      </trkpt>
      <trkpt lat="44.5035310" lon="6.9808340">
        <ele>1821.4</ele>
        <time>2017-07-24T07:54:11Z</time>
      </trkpt>
      <trkpt lat="44.5036320" lon="6.9807160">
        <ele>1822.0</ele>
        <time>2017-07-24T07:54:17Z</time>
      </trkpt>
      <trkpt lat="44.5036470" lon="6.9806950">
        <ele>1822.2</ele>
        <time>2017-07-24T07:54:18Z</time>
      </trkpt>
      <trkpt lat="44.5036930" lon="6.9806130">
        <ele>1822.8</ele>
        <time>2017-07-24T07:54:22Z</time>
      </trkpt>
      <trkpt lat="44.5037220" lon="6.9805730">
        <ele>1823.4</ele>
        <time>2017-07-24T07:54:24Z</time>
      </trkpt>
      <trkpt lat="44.5037970" lon="6.9804730">
        <ele>1824.4</ele>
        <time>2017-07-24T07:54:29Z</time>
      </trkpt>
      <trkpt lat="44.5038640" lon="6.9804110">
        <ele>1825.6</ele>
        <time>2017-07-24T07:54:33Z</time>
      </trkpt>
      <trkpt lat="44.5039220" lon="6.9803780">
        <ele>1826.0</ele>
        <time>2017-07-24T07:54:36Z</time>
      </trkpt>
      <trkpt lat="44.5040240" lon="6.9803060">
        <ele>1826.4</ele>
        <time>2017-07-24T07:54:42Z</time>
      </trkpt>
      <trkpt lat="44.5040440" lon="6.9802990">
        <ele>1826.6</ele>
        <time>2017-07-24T07:54:43Z</time>
      </trkpt>
      <trkpt lat="44.5041540" lon="6.9802370">
        <ele>1827.2</ele>
        <time>2017-07-24T07:54:49Z</time>
      </trkpt>
      <trkpt lat="44.5042570" lon="6.9801790">
        <ele>1827.8</ele>
        <time>2017-07-24T07:54:54Z</time>
      </trkpt>
      <trkpt lat="44.5042930" lon="6.9801550">
        <ele>1828.4</ele>
        <time>2017-07-24T07:54:56Z</time>
      </trkpt>
      <trkpt lat="44.5043310" lon="6.9801190">
        <ele>1829.0</ele>
        <time>2017-07-24T07:54:58Z</time>
      </trkpt>
      <trkpt lat="44.5043840" lon="6.9800770">
        <ele>1830.4</ele>
        <time>2017-07-24T07:55:01Z</time>
      </trkpt>
      <trkpt lat="44.5044030" lon="6.9800640">
        <ele>1830.8</ele>
        <time>2017-07-24T07:55:02Z</time>
      </trkpt>
      <trkpt lat="44.5044420" lon="6.9800470">
        <ele>1831.8</ele>
        <time>2017-07-24T07:55:04Z</time>
      </trkpt>
      <trkpt lat="44.5044930" lon="6.9800080">
        <ele>1833.0</ele>
        <time>2017-07-24T07:55:07Z</time>
      </trkpt>
      <trkpt lat="44.5045120" lon="6.9799970">
        <ele>1833.8</ele>
        <time>2017-07-24T07:55:08Z</time>
      </trkpt>
      <trkpt lat="44.5045310" lon="6.9799880">
        <ele>1834.2</ele>
        <time>2017-07-24T07:55:09Z</time>
      </trkpt>
      <trkpt lat="44.5045820" lon="6.9799420">
        <ele>1835.4</ele>
        <time>2017-07-24T07:55:12Z</time>
      </trkpt>
      <trkpt lat="44.5046230" lon="6.9799190">
        <ele>1836.0</ele>
        <time>2017-07-24T07:55:14Z</time>
      </trkpt>
      <trkpt lat="44.5046970" lon="6.9798790">
        <ele>1836.6</ele>
        <time>2017-07-24T07:55:18Z</time>
      </trkpt>
      <trkpt lat="44.5048010" lon="6.9798410">
        <ele>1837.2</ele>
        <time>2017-07-24T07:55:23Z</time>
      </trkpt>
      <trkpt lat="44.5048500" lon="6.9797940">
        <ele>1837.8</ele>
        <time>2017-07-24T07:55:26Z</time>
      </trkpt>
      <trkpt lat="44.5049390" lon="6.9797290">
        <ele>1838.4</ele>
        <time>2017-07-24T07:55:30Z</time>
      </trkpt>
      <trkpt lat="44.5050120" lon="6.9796860">
        <ele>1838.8</ele>
        <time>2017-07-24T07:55:33Z</time>
      </trkpt>
      <trkpt lat="44.5051390" lon="6.9796540">
        <ele>1839.2</ele>
        <time>2017-07-24T07:55:38Z</time>
      </trkpt>
      <trkpt lat="44.5052060" lon="6.9796190">
        <ele>1839.8</ele>
        <time>2017-07-24T07:55:41Z</time>
      </trkpt>
      <trkpt lat="44.5052760" lon="6.9795770">
        <ele>1840.4</ele>
        <time>2017-07-24T07:55:44Z</time>
      </trkpt>
      <trkpt lat="44.5053240" lon="6.9795460">
        <ele>1841.0</ele>
        <time>2017-07-24T07:55:46Z</time>
      </trkpt>
      <trkpt lat="44.5054610" lon="6.9794410">
        <ele>1841.2</ele>
        <time>2017-07-24T07:55:51Z</time>
      </trkpt>
      <trkpt lat="44.5056690" lon="6.9794080">
        <ele>1841.2</ele>
        <time>2017-07-24T07:55:56Z</time>
      </trkpt>
      <trkpt lat="44.5057120" lon="6.9793940">
        <ele>1841.4</ele>
        <time>2017-07-24T07:55:57Z</time>
      </trkpt>
      <trkpt lat="44.5057920" lon="6.9793550">
        <ele>1841.6</ele>
        <time>2017-07-24T07:55:59Z</time>
      </trkpt>
      <trkpt lat="44.5058600" lon="6.9792970">
        <ele>1842.2</ele>
        <time>2017-07-24T07:56:01Z</time>
      </trkpt>
      <trkpt lat="44.5058920" lon="6.9792650">
        <ele>1842.6</ele>
        <time>2017-07-24T07:56:02Z</time>
      </trkpt>
      <trkpt lat="44.5059410" lon="6.9791750">
        <ele>1843.4</ele>
        <time>2017-07-24T07:56:04Z</time>
      </trkpt>
      <trkpt lat="44.5060140" lon="6.9790430">
        <ele>1844.4</ele>
        <time>2017-07-24T07:56:07Z</time>
      </trkpt>
      <trkpt lat="44.5060490" lon="6.9790020">
        <ele>1844.6</ele>
        <time>2017-07-24T07:56:08Z</time>
      </trkpt>
      <trkpt lat="44.5061090" lon="6.9789270">
        <ele>1845.6</ele>
        <time>2017-07-24T07:56:10Z</time>
      </trkpt>
      <trkpt lat="44.5061700" lon="6.9788640">
        <ele>1846.2</ele>
        <time>2017-07-24T07:56:12Z</time>
      </trkpt>
      <trkpt lat="44.5062240" lon="6.9788130">
        <ele>1846.8</ele>
        <time>2017-07-24T07:56:14Z</time>
      </trkpt>
      <trkpt lat="44.5063080" lon="6.9787440">
        <ele>1847.4</ele>
        <time>2017-07-24T07:56:18Z</time>
      </trkpt>
      <trkpt lat="44.5063540" lon="6.9787160">
        <ele>1847.8</ele>
        <time>2017-07-24T07:56:20Z</time>
      </trkpt>
      <trkpt lat="44.5064640" lon="6.9786600">
        <ele>1848.0</ele>
        <time>2017-07-24T07:56:25Z</time>
      </trkpt>
      <trkpt lat="44.5064920" lon="6.9786710">
        <ele>1848.0</ele>
        <time>2017-07-24T07:56:26Z</time>
      </trkpt>
      <trkpt lat="44.5065720" lon="6.9787250">
        <ele>1847.8</ele>
        <time>2017-07-24T07:56:29Z</time>
      </trkpt>
      <trkpt lat="44.5066220" lon="6.9789460">
        <ele>1848.0</ele>
        <time>2017-07-24T07:56:32Z</time>
      </trkpt>
      <trkpt lat="44.5066270" lon="6.9789860">
        <ele>1848.2</ele>
        <time>2017-07-24T07:56:33Z</time>
      </trkpt>
      <trkpt lat="44.5065950" lon="6.9791830">
        <ele>1848.8</ele>
        <time>2017-07-24T07:56:39Z</time>
      </trkpt>
      <trkpt lat="44.5065730" lon="6.9793910">
        <ele>1849.2</ele>
        <time>2017-07-24T07:56:46Z</time>
      </trkpt>
      <trkpt lat="44.5065970" lon="6.9795980">
        <ele>1849.6</ele>
        <time>2017-07-24T07:56:53Z</time>
      </trkpt>
      <trkpt lat="44.5066580" lon="6.9797050">
        <ele>1849.8</ele>
        <time>2017-07-24T07:56:57Z</time>
      </trkpt>
      <trkpt lat="44.5066840" lon="6.9797770">
        <ele>1849.8</ele>
        <time>2017-07-24T07:56:59Z</time>
      </trkpt>
      <trkpt lat="44.5067300" lon="6.9800290">
        <ele>1849.8</ele>
        <time>2017-07-24T07:57:05Z</time>
      </trkpt>
      <trkpt lat="44.5067500" lon="6.9802290">
        <ele>1851.0</ele>
        <time>2017-07-24T07:57:10Z</time>
      </trkpt>
      <trkpt lat="44.5067590" lon="6.9803260">
        <ele>1851.2</ele>
        <time>2017-07-24T07:57:13Z</time>
      </trkpt>
      <trkpt lat="44.5067680" lon="6.9804190">
        <ele>1852.0</ele>
        <time>2017-07-24T07:57:16Z</time>
      </trkpt>
      <trkpt lat="44.5067940" lon="6.9805460">
        <ele>1853.0</ele>
        <time>2017-07-24T07:57:20Z</time>
      </trkpt>
      <trkpt lat="44.5068040" lon="6.9806170">
        <ele>1853.2</ele>
        <time>2017-07-24T07:57:22Z</time>
      </trkpt>
      <trkpt lat="44.5068380" lon="6.9807420">
        <ele>1854.2</ele>
        <time>2017-07-24T07:57:26Z</time>
      </trkpt>
      <trkpt lat="44.5068570" lon="6.9807950">
        <ele>1854.8</ele>
        <time>2017-07-24T07:57:28Z</time>
      </trkpt>
      <trkpt lat="44.5068750" lon="6.9808410">
        <ele>1855.6</ele>
        <time>2017-07-24T07:57:30Z</time>
      </trkpt>
      <trkpt lat="44.5069030" lon="6.9808870">
        <ele>1857.0</ele>
        <time>2017-07-24T07:57:32Z</time>
      </trkpt>
      <trkpt lat="44.5069240" lon="6.9809300">
        <ele>1858.0</ele>
        <time>2017-07-24T07:57:34Z</time>
      </trkpt>
      <trkpt lat="44.5069300" lon="6.9809590">
        <ele>1858.4</ele>
        <time>2017-07-24T07:57:35Z</time>
      </trkpt>
      <trkpt lat="44.5069510" lon="6.9810020">
        <ele>1859.4</ele>
        <time>2017-07-24T07:57:37Z</time>
      </trkpt>
      <trkpt lat="44.5069610" lon="6.9810770">
        <ele>1860.6</ele>
        <time>2017-07-24T07:57:40Z</time>
      </trkpt>
      <trkpt lat="44.5069780" lon="6.9811540">
        <ele>1862.0</ele>
        <time>2017-07-24T07:57:43Z</time>
      </trkpt>
      <trkpt lat="44.5069910" lon="6.9812320">
        <ele>1863.0</ele>
        <time>2017-07-24T07:57:46Z</time>
      </trkpt>
      <trkpt lat="44.5069960" lon="6.9812580">
        <ele>1863.4</ele>
        <time>2017-07-24T07:57:47Z</time>
      </trkpt>
      <trkpt lat="44.5070100" lon="6.9814120">
        <ele>1864.2</ele>
        <time>2017-07-24T07:57:53Z</time>
      </trkpt>
      <trkpt lat="44.5069790" lon="6.9815740">
        <ele>1864.4</ele>
        <time>2017-07-24T07:57:59Z</time>
      </trkpt>
      <trkpt lat="44.5069480" lon="6.9816970">
        <ele>1865.2</ele>
        <time>2017-07-24T07:58:04Z</time>
      </trkpt>
      <trkpt lat="44.5069480" lon="6.9817780">
        <ele>1865.8</ele>
        <time>2017-07-24T07:58:07Z</time>
      </trkpt>
      <trkpt lat="44.5069630" lon="6.9818510">
        <ele>1866.4</ele>
        <time>2017-07-24T07:58:10Z</time>
      </trkpt>
      <trkpt lat="44.5069770" lon="6.9818650">
        <ele>1866.8</ele>
        <time>2017-07-24T07:58:11Z</time>
      </trkpt>
      <trkpt lat="44.5070010" lon="6.9818550">
        <ele>1867.4</ele>
        <time>2017-07-24T07:58:13Z</time>
      </trkpt>
      <trkpt lat="44.5070360" lon="6.9818200">
        <ele>1868.6</ele>
        <time>2017-07-24T07:58:16Z</time>
      </trkpt>
      <trkpt lat="44.5070400" lon="6.9817650">
        <ele>1869.2</ele>
        <time>2017-07-24T07:58:18Z</time>
      </trkpt>
      <trkpt lat="44.5070430" lon="6.9817380">
        <ele>1869.6</ele>
        <time>2017-07-24T07:58:19Z</time>
      </trkpt>
      <trkpt lat="44.5070410" lon="6.9816710">
        <ele>1870.6</ele>
        <time>2017-07-24T07:58:21Z</time>
      </trkpt>
      <trkpt lat="44.5070640" lon="6.9815230">
        <ele>1871.8</ele>
        <time>2017-07-24T07:58:25Z</time>
      </trkpt>
      <trkpt lat="44.5071240" lon="6.9813770">
        <ele>1873.0</ele>
        <time>2017-07-24T07:58:30Z</time>
      </trkpt>
      <trkpt lat="44.5071290" lon="6.9813490">
        <ele>1873.2</ele>
        <time>2017-07-24T07:58:31Z</time>
      </trkpt>
      <trkpt lat="44.5071510" lon="6.9812690">
        <ele>1874.0</ele>
        <time>2017-07-24T07:58:34Z</time>
      </trkpt>
      <trkpt lat="44.5071520" lon="6.9812220">
        <ele>1874.4</ele>
        <time>2017-07-24T07:58:36Z</time>
      </trkpt>
      <trkpt lat="44.5071690" lon="6.9811270">
        <ele>1875.4</ele>
        <time>2017-07-24T07:58:40Z</time>
      </trkpt>
      <trkpt lat="44.5071920" lon="6.9810610">
        <ele>1876.2</ele>
        <time>2017-07-24T07:58:43Z</time>
      </trkpt>
      <trkpt lat="44.5072000" lon="6.9810370">
        <ele>1876.4</ele>
        <time>2017-07-24T07:58:44Z</time>
      </trkpt>
      <trkpt lat="44.5072190" lon="6.9809950">
        <ele>1877.8</ele>
        <time>2017-07-24T07:58:48Z</time>
      </trkpt>
      <trkpt lat="44.5072540" lon="6.9809260">
        <ele>1870.8</ele>
        <time>2017-07-24T08:04:01Z</time>
      </trkpt>
      <trkpt lat="44.5072630" lon="6.9809020">
        <ele>1871.0</ele>
        <time>2017-07-24T08:04:02Z</time>
      </trkpt>
      <trkpt lat="44.5072750" lon="6.9808750">
        <ele>1871.2</ele>
        <time>2017-07-24T08:04:03Z</time>
      </trkpt>
      <trkpt lat="44.5073340" lon="6.9807530">
        <ele>1872.2</ele>
        <time>2017-07-24T08:04:08Z</time>
      </trkpt>
      <trkpt lat="44.5073410" lon="6.9807250">
        <ele>1872.8</ele>
        <time>2017-07-24T08:04:09Z</time>
      </trkpt>
      <trkpt lat="44.5073580" lon="6.9807050">
        <ele>1873.2</ele>
        <time>2017-07-24T08:04:10Z</time>
      </trkpt>
      <trkpt lat="44.5073910" lon="6.9806280">
        <ele>1874.8</ele>
        <time>2017-07-24T08:04:13Z</time>
      </trkpt>
      <trkpt lat="44.5074000" lon="6.9806000">
        <ele>1875.4</ele>
        <time>2017-07-24T08:04:14Z</time>
      </trkpt>
      <trkpt lat="44.5074100" lon="6.9805740">
        <ele>1875.8</ele>
        <time>2017-07-24T08:04:15Z</time>
      </trkpt>
      <trkpt lat="44.5074440" lon="6.9805030">
        <ele>1877.2</ele>
        <time>2017-07-24T08:04:18Z</time>
      </trkpt>
      <trkpt lat="44.5074540" lon="6.9804750">
        <ele>1877.8</ele>
        <time>2017-07-24T08:04:19Z</time>
      </trkpt>
      <trkpt lat="44.5074640" lon="6.9804530">
        <ele>1878.4</ele>
        <time>2017-07-24T08:04:20Z</time>
      </trkpt>
      <trkpt lat="44.5074740" lon="6.9804280">
        <ele>1879.4</ele>
        <time>2017-07-24T08:04:21Z</time>
      </trkpt>
      <trkpt lat="44.5074990" lon="6.9803480">
        <ele>1880.4</ele>
        <time>2017-07-24T08:04:24Z</time>
      </trkpt>
      <trkpt lat="44.5075090" lon="6.9803230">
        <ele>1880.8</ele>
        <time>2017-07-24T08:04:25Z</time>
      </trkpt>
      <trkpt lat="44.5075280" lon="6.9802710">
        <ele>1881.6</ele>
        <time>2017-07-24T08:04:27Z</time>
      </trkpt>
      <trkpt lat="44.5075620" lon="6.9801970">
        <ele>1882.6</ele>
        <time>2017-07-24T08:04:30Z</time>
      </trkpt>
      <trkpt lat="44.5075890" lon="6.9801220">
        <ele>1883.6</ele>
        <time>2017-07-24T08:04:33Z</time>
      </trkpt>
      <trkpt lat="44.5075870" lon="6.9800390">
        <ele>1884.6</ele>
        <time>2017-07-24T08:04:36Z</time>
      </trkpt>
      <trkpt lat="44.5075810" lon="6.9799940">
        <ele>1885.4</ele>
        <time>2017-07-24T08:04:38Z</time>
      </trkpt>
      <trkpt lat="44.5075710" lon="6.9799480">
        <ele>1885.8</ele>
        <time>2017-07-24T08:04:40Z</time>
      </trkpt>
      <trkpt lat="44.5075310" lon="6.9798610">
        <ele>1886.0</ele>
        <time>2017-07-24T08:04:44Z</time>
      </trkpt>
      <trkpt lat="44.5074890" lon="6.9797390">
        <ele>1887.0</ele>
        <time>2017-07-24T08:04:49Z</time>
      </trkpt>
      <trkpt lat="44.5074800" lon="6.9796830">
        <ele>1887.6</ele>
        <time>2017-07-24T08:04:51Z</time>
      </trkpt>
      <trkpt lat="44.5074740" lon="6.9796320">
        <ele>1888.2</ele>
        <time>2017-07-24T08:04:53Z</time>
      </trkpt>
      <trkpt lat="44.5074820" lon="6.9795480">
        <ele>1889.4</ele>
        <time>2017-07-24T08:04:56Z</time>
      </trkpt>
      <trkpt lat="44.5074850" lon="6.9795220">
        <ele>1889.6</ele>
        <time>2017-07-24T08:04:57Z</time>
      </trkpt>
      <trkpt lat="44.5075110" lon="6.9794460">
        <ele>1890.6</ele>
        <time>2017-07-24T08:05:00Z</time>
      </trkpt>
      <trkpt lat="44.5075320" lon="6.9793790">
        <ele>1891.8</ele>
        <time>2017-07-24T08:05:03Z</time>
      </trkpt>
      <trkpt lat="44.5075390" lon="6.9793570">
        <ele>1892.2</ele>
        <time>2017-07-24T08:05:04Z</time>
      </trkpt>
      <trkpt lat="44.5075630" lon="6.9792970">
        <ele>1893.2</ele>
        <time>2017-07-24T08:05:07Z</time>
      </trkpt>
      <trkpt lat="44.5075650" lon="6.9792710">
        <ele>1893.6</ele>
        <time>2017-07-24T08:05:08Z</time>
      </trkpt>
      <trkpt lat="44.5075720" lon="6.9792510">
        <ele>1894.2</ele>
        <time>2017-07-24T08:05:09Z</time>
      </trkpt>
      <trkpt lat="44.5075770" lon="6.9792260">
        <ele>1894.4</ele>
        <time>2017-07-24T08:05:10Z</time>
      </trkpt>
      <trkpt lat="44.5076120" lon="6.9791340">
        <ele>1895.4</ele>
        <time>2017-07-24T08:05:14Z</time>
      </trkpt>
      <trkpt lat="44.5076140" lon="6.9790560">
        <ele>1896.2</ele>
        <time>2017-07-24T08:05:17Z</time>
      </trkpt>
      <trkpt lat="44.5076270" lon="6.9790040">
        <ele>1896.6</ele>
        <time>2017-07-24T08:05:19Z</time>
      </trkpt>
      <trkpt lat="44.5076510" lon="6.9789370">
        <ele>1897.2</ele>
        <time>2017-07-24T08:05:22Z</time>
      </trkpt>
      <trkpt lat="44.5076660" lon="6.9788840">
        <ele>1897.8</ele>
        <time>2017-07-24T08:05:24Z</time>
      </trkpt>
      <trkpt lat="44.5076960" lon="6.9787870">
        <ele>1899.0</ele>
        <time>2017-07-24T08:05:28Z</time>
      </trkpt>
      <trkpt lat="44.5077230" lon="6.9787210">
        <ele>1899.6</ele>
        <time>2017-07-24T08:05:31Z</time>
      </trkpt>
      <trkpt lat="44.5077980" lon="6.9786950">
        <ele>1899.8</ele>
        <time>2017-07-24T08:05:35Z</time>
      </trkpt>
      <trkpt lat="44.5078170" lon="6.9787050">
        <ele>1899.8</ele>
        <time>2017-07-24T08:05:36Z</time>
      </trkpt>
      <trkpt lat="44.5078330" lon="6.9787260">
        <ele>1899.6</ele>
        <time>2017-07-24T08:05:37Z</time>
      </trkpt>
      <trkpt lat="44.5078690" lon="6.9788320">
        <ele>1899.6</ele>
        <time>2017-07-24T08:05:41Z</time>
      </trkpt>
      <trkpt lat="44.5078620" lon="6.9788800">
        <ele>1899.6</ele>
        <time>2017-07-24T08:05:43Z</time>
      </trkpt>
      <trkpt lat="44.5078550" lon="6.9789670">
        <ele>1899.8</ele>
        <time>2017-07-24T08:05:46Z</time>
      </trkpt>
      <trkpt lat="44.5078500" lon="6.9791440">
        <ele>1900.0</ele>
        <time>2017-07-24T08:05:52Z</time>
      </trkpt>
      <trkpt lat="44.5078420" lon="6.9792270">
        <ele>1900.2</ele>
        <time>2017-07-24T08:05:55Z</time>
      </trkpt>
      <trkpt lat="44.5078450" lon="6.9793900">
        <ele>1901.0</ele>
        <time>2017-07-24T08:06:01Z</time>
      </trkpt>
      <trkpt lat="44.5078600" lon="6.9795140">
        <ele>1902.2</ele>
        <time>2017-07-24T08:06:06Z</time>
      </trkpt>
      <trkpt lat="44.5078720" lon="6.9795870">
        <ele>1902.8</ele>
        <time>2017-07-24T08:06:09Z</time>
      </trkpt>
      <trkpt lat="44.5078800" lon="6.9796090">
        <ele>1903.2</ele>
        <time>2017-07-24T08:06:10Z</time>
      </trkpt>
      <trkpt lat="44.5079120" lon="6.9797090">
        <ele>1904.4</ele>
        <time>2017-07-24T08:06:14Z</time>
      </trkpt>
      <trkpt lat="44.5079320" lon="6.9797690">
        <ele>1904.8</ele>
        <time>2017-07-24T08:06:16Z</time>
      </trkpt>
      <trkpt lat="44.5079570" lon="6.9798800">
        <ele>1905.4</ele>
        <time>2017-07-24T08:06:20Z</time>
      </trkpt>
      <trkpt lat="44.5079800" lon="6.9799580">
        <ele>1906.2</ele>
        <time>2017-07-24T08:06:23Z</time>
      </trkpt>
      <trkpt lat="44.5080010" lon="6.9800020">
        <ele>1906.6</ele>
        <time>2017-07-24T08:06:25Z</time>
      </trkpt>
      <trkpt lat="44.5080630" lon="6.9801410">
        <ele>1907.2</ele>
        <time>2017-07-24T08:06:31Z</time>
      </trkpt>
      <trkpt lat="44.5080920" lon="6.9802090">
        <ele>1907.4</ele>
        <time>2017-07-24T08:06:34Z</time>
      </trkpt>
      <trkpt lat="44.5081020" lon="6.9802300">
        <ele>1907.6</ele>
        <time>2017-07-24T08:06:35Z</time>
      </trkpt>
      <trkpt lat="44.5081340" lon="6.9802990">
        <ele>1907.8</ele>
        <time>2017-07-24T08:06:38Z</time>
      </trkpt>
      <trkpt lat="44.5082140" lon="6.9804600">
        <ele>1909.0</ele>
        <time>2017-07-24T08:06:45Z</time>
      </trkpt>
      <trkpt lat="44.5082840" lon="6.9805960">
        <ele>1910.0</ele>
        <time>2017-07-24T08:06:51Z</time>
      </trkpt>
      <trkpt lat="44.5082890" lon="6.9806230">
        <ele>1910.2</ele>
        <time>2017-07-24T08:06:52Z</time>
      </trkpt>
      <trkpt lat="44.5083600" lon="6.9807560">
        <ele>1910.6</ele>
        <time>2017-07-24T08:06:58Z</time>
      </trkpt>
      <trkpt lat="44.5083990" lon="6.9808660">
        <ele>1911.4</ele>
        <time>2017-07-24T08:07:02Z</time>
      </trkpt>
      <trkpt lat="44.5084200" lon="6.9809540">
        <ele>1912.4</ele>
        <time>2017-07-24T08:07:05Z</time>
      </trkpt>
      <trkpt lat="44.5084330" lon="6.9810910">
        <ele>1913.6</ele>
        <time>2017-07-24T08:07:09Z</time>
      </trkpt>
      <trkpt lat="44.5084160" lon="6.9811900">
        <ele>1914.6</ele>
        <time>2017-07-24T08:07:12Z</time>
      </trkpt>
      <trkpt lat="44.5084130" lon="6.9812230">
        <ele>1914.8</ele>
        <time>2017-07-24T08:07:13Z</time>
      </trkpt>
      <trkpt lat="44.5083830" lon="6.9813780">
        <ele>1916.0</ele>
        <time>2017-07-24T08:07:18Z</time>
      </trkpt>
      <trkpt lat="44.5083650" lon="6.9814640">
        <ele>1916.8</ele>
        <time>2017-07-24T08:07:21Z</time>
      </trkpt>
      <trkpt lat="44.5083560" lon="6.9814920">
        <ele>1917.0</ele>
        <time>2017-07-24T08:07:22Z</time>
      </trkpt>
      <trkpt lat="44.5082940" lon="6.9816360">
        <ele>1918.2</ele>
        <time>2017-07-24T08:07:28Z</time>
      </trkpt>
      <trkpt lat="44.5082690" lon="6.9816810">
        <ele>1918.6</ele>
        <time>2017-07-24T08:07:30Z</time>
      </trkpt>
      <trkpt lat="44.5082300" lon="6.9817500">
        <ele>1919.2</ele>
        <time>2017-07-24T08:07:33Z</time>
      </trkpt>
      <trkpt lat="44.5081690" lon="6.9818270">
        <ele>1920.2</ele>
        <time>2017-07-24T08:07:37Z</time>
      </trkpt>
      <trkpt lat="44.5081490" lon="6.9818410">
        <ele>1920.4</ele>
        <time>2017-07-24T08:07:38Z</time>
      </trkpt>
      <trkpt lat="44.5080800" lon="6.9819300">
        <ele>1921.4</ele>
        <time>2017-07-24T08:07:43Z</time>
      </trkpt>
      <trkpt lat="44.5080750" lon="6.9819550">
        <ele>1921.6</ele>
        <time>2017-07-24T08:07:44Z</time>
      </trkpt>
      <trkpt lat="44.5080800" lon="6.9819850">
        <ele>1922.0</ele>
        <time>2017-07-24T08:07:45Z</time>
      </trkpt>
      <trkpt lat="44.5080890" lon="6.9820080">
        <ele>1922.4</ele>
        <time>2017-07-24T08:07:46Z</time>
      </trkpt>
      <trkpt lat="44.5081240" lon="6.9820460">
        <ele>1923.0</ele>
        <time>2017-07-24T08:07:48Z</time>
      </trkpt>
      <trkpt lat="44.5081680" lon="6.9820490">
        <ele>1923.6</ele>
        <time>2017-07-24T08:07:50Z</time>
      </trkpt>
      <trkpt lat="44.5081840" lon="6.9820410">
        <ele>1924.0</ele>
        <time>2017-07-24T08:07:51Z</time>
      </trkpt>
      <trkpt lat="44.5081990" lon="6.9820230">
        <ele>1924.4</ele>
        <time>2017-07-24T08:07:52Z</time>
      </trkpt>
      <trkpt lat="44.5082160" lon="6.9820040">
        <ele>1924.8</ele>
        <time>2017-07-24T08:07:53Z</time>
      </trkpt>
      <trkpt lat="44.5082610" lon="6.9819290">
        <ele>1926.0</ele>
        <time>2017-07-24T08:07:56Z</time>
      </trkpt>
      <trkpt lat="44.5082770" lon="6.9819040">
        <ele>1927.4</ele>
        <time>2017-07-24T08:07:57Z</time>
      </trkpt>
      <trkpt lat="44.5083030" lon="6.9818490">
        <ele>1928.4</ele>
        <time>2017-07-24T08:07:59Z</time>
      </trkpt>
      <trkpt lat="44.5083330" lon="6.9818030">
        <ele>1929.6</ele>
        <time>2017-07-24T08:08:01Z</time>
      </trkpt>
      <trkpt lat="44.5083800" lon="6.9817390">
        <ele>1930.8</ele>
        <time>2017-07-24T08:08:04Z</time>
      </trkpt>
      <trkpt lat="44.5084150" lon="6.9817050">
        <ele>1931.4</ele>
        <time>2017-07-24T08:08:06Z</time>
      </trkpt>
      <trkpt lat="44.5084500" lon="6.9816740">
        <ele>1932.0</ele>
        <time>2017-07-24T08:08:08Z</time>
      </trkpt>
      <trkpt lat="44.5085050" lon="6.9815920">
        <ele>1933.2</ele>
        <time>2017-07-24T08:08:12Z</time>
      </trkpt>
      <trkpt lat="44.5085180" lon="6.9815710">
        <ele>1933.6</ele>
        <time>2017-07-24T08:08:13Z</time>
      </trkpt>
      <trkpt lat="44.5085360" lon="6.9815230">
        <ele>1934.4</ele>
        <time>2017-07-24T08:08:15Z</time>
      </trkpt>
      <trkpt lat="44.5085820" lon="6.9814420">
        <ele>1935.6</ele>
        <time>2017-07-24T08:08:19Z</time>
      </trkpt>
      <trkpt lat="44.5085920" lon="6.9814180">
        <ele>1935.8</ele>
        <time>2017-07-24T08:08:20Z</time>
      </trkpt>
      <trkpt lat="44.5086080" lon="6.9813710">
        <ele>1936.8</ele>
        <time>2017-07-24T08:08:22Z</time>
      </trkpt>
      <trkpt lat="44.5086370" lon="6.9812770">
        <ele>1937.8</ele>
        <time>2017-07-24T08:08:26Z</time>
      </trkpt>
      <trkpt lat="44.5086450" lon="6.9812510">
        <ele>1938.0</ele>
        <time>2017-07-24T08:08:27Z</time>
      </trkpt>
      <trkpt lat="44.5086810" lon="6.9811540">
        <ele>1938.8</ele>
        <time>2017-07-24T08:08:31Z</time>
      </trkpt>
      <trkpt lat="44.5087210" lon="6.9810640">
        <ele>1940.0</ele>
        <time>2017-07-24T08:08:35Z</time>
      </trkpt>
      <trkpt lat="44.5087310" lon="6.9810410">
        <ele>1940.2</ele>
        <time>2017-07-24T08:08:36Z</time>
      </trkpt>
      <trkpt lat="44.5087680" lon="6.9809690">
        <ele>1941.0</ele>
        <time>2017-07-24T08:08:39Z</time>
      </trkpt>
      <trkpt lat="44.5088260" lon="6.9808550">
        <ele>1941.8</ele>
        <time>2017-07-24T08:08:44Z</time>
      </trkpt>
      <trkpt lat="44.5088330" lon="6.9808300">
        <ele>1942.4</ele>
        <time>2017-07-24T08:08:45Z</time>
      </trkpt>
      <trkpt lat="44.5088660" lon="6.9806880">
        <ele>1943.4</ele>
        <time>2017-07-24T08:08:51Z</time>
      </trkpt>
      <trkpt lat="44.5088830" lon="6.9805650">
        <ele>1944.4</ele>
        <time>2017-07-24T08:08:56Z</time>
      </trkpt>
      <trkpt lat="44.5088910" lon="6.9804860">
        <ele>1945.0</ele>
        <time>2017-07-24T08:08:59Z</time>
      </trkpt>
      <trkpt lat="44.5088940" lon="6.9804080">
        <ele>1945.6</ele>
        <time>2017-07-24T08:09:02Z</time>
      </trkpt>
      <trkpt lat="44.5089010" lon="6.9802930">
        <ele>1946.6</ele>
        <time>2017-07-24T08:09:07Z</time>
      </trkpt>
      <trkpt lat="44.5089180" lon="6.9802210">
        <ele>1947.8</ele>
        <time>2017-07-24T08:09:10Z</time>
      </trkpt>
      <trkpt lat="44.5089470" lon="6.9801630">
        <ele>1948.4</ele>
        <time>2017-07-24T08:09:13Z</time>
      </trkpt>
      <trkpt lat="44.5089940" lon="6.9801210">
        <ele>1948.6</ele>
        <time>2017-07-24T08:09:16Z</time>
      </trkpt>
      <trkpt lat="44.5091040" lon="6.9800450">
        <ele>1948.6</ele>
        <time>2017-07-24T08:09:22Z</time>
      </trkpt>
      <trkpt lat="44.5092110" lon="6.9799340">
        <ele>1948.4</ele>
        <time>2017-07-24T08:09:28Z</time>
      </trkpt>
      <trkpt lat="44.5092370" lon="6.9798810">
        <ele>1949.0</ele>
        <time>2017-07-24T08:09:30Z</time>
      </trkpt>
      <trkpt lat="44.5092580" lon="6.9797960">
        <ele>1950.6</ele>
        <time>2017-07-24T08:09:33Z</time>
      </trkpt>
      <trkpt lat="44.5092660" lon="6.9797400">
        <ele>1951.4</ele>
        <time>2017-07-24T08:09:35Z</time>
      </trkpt>
      <trkpt lat="44.5092680" lon="6.9797130">
        <ele>1951.8</ele>
        <time>2017-07-24T08:09:36Z</time>
      </trkpt>
      <trkpt lat="44.5092870" lon="6.9796310">
        <ele>1952.8</ele>
        <time>2017-07-24T08:09:39Z</time>
      </trkpt>
      <trkpt lat="44.5093100" lon="6.9795560">
        <ele>1953.8</ele>
        <time>2017-07-24T08:09:42Z</time>
      </trkpt>
      <trkpt lat="44.5093360" lon="6.9794620">
        <ele>1955.0</ele>
        <time>2017-07-24T08:09:46Z</time>
      </trkpt>
      <trkpt lat="44.5093390" lon="6.9793850">
        <ele>1956.0</ele>
        <time>2017-07-24T08:09:49Z</time>
      </trkpt>
      <trkpt lat="44.5093430" lon="6.9793590">
        <ele>1956.2</ele>
        <time>2017-07-24T08:09:50Z</time>
      </trkpt>
      <trkpt lat="44.5093600" lon="6.9792310">
        <ele>1957.4</ele>
        <time>2017-07-24T08:09:55Z</time>
      </trkpt>
      <trkpt lat="44.5093870" lon="6.9791280">
        <ele>1958.4</ele>
        <time>2017-07-24T08:09:59Z</time>
      </trkpt>
      <trkpt lat="44.5094310" lon="6.9790400">
        <ele>1959.4</ele>
        <time>2017-07-24T08:10:03Z</time>
      </trkpt>
      <trkpt lat="44.5094940" lon="6.9789430">
        <ele>1960.6</ele>
        <time>2017-07-24T08:10:08Z</time>
      </trkpt>
      <trkpt lat="44.5095340" lon="6.9788890">
        <ele>1961.2</ele>
        <time>2017-07-24T08:10:11Z</time>
      </trkpt>
      <trkpt lat="44.5096260" lon="6.9787930">
        <ele>1961.8</ele>
        <time>2017-07-24T08:10:17Z</time>
      </trkpt>
      <trkpt lat="44.5096710" lon="6.9787420">
        <ele>1962.0</ele>
        <time>2017-07-24T08:10:20Z</time>
      </trkpt>
      <trkpt lat="44.5098420" lon="6.9785980">
        <ele>1961.4</ele>
        <time>2017-07-24T08:10:30Z</time>
      </trkpt>
      <trkpt lat="44.5100120" lon="6.9785110">
        <ele>1961.4</ele>
        <time>2017-07-24T08:10:39Z</time>
      </trkpt>
      <trkpt lat="44.5101290" lon="6.9784700">
        <ele>1962.8</ele>
        <time>2017-07-24T08:10:45Z</time>
      </trkpt>
      <trkpt lat="44.5101710" lon="6.9784630">
        <ele>1963.4</ele>
        <time>2017-07-24T08:10:47Z</time>
      </trkpt>
      <trkpt lat="44.5102490" lon="6.9784450">
        <ele>1964.0</ele>
        <time>2017-07-24T08:10:51Z</time>
      </trkpt>
      <trkpt lat="44.5103520" lon="6.9783930">
        <ele>1964.6</ele>
        <time>2017-07-24T08:10:56Z</time>
      </trkpt>
      <trkpt lat="44.5104100" lon="6.9783610">
        <ele>1965.2</ele>
        <time>2017-07-24T08:10:59Z</time>
      </trkpt>
      <trkpt lat="44.5104650" lon="6.9783180">
        <ele>1965.8</ele>
        <time>2017-07-24T08:11:02Z</time>
      </trkpt>
      <trkpt lat="44.5104980" lon="6.9782810">
        <ele>1966.4</ele>
        <time>2017-07-24T08:11:04Z</time>
      </trkpt>
      <trkpt lat="44.5105580" lon="6.9782470">
        <ele>1967.4</ele>
        <time>2017-07-24T08:11:07Z</time>
      </trkpt>
      <trkpt lat="44.5105800" lon="6.9782400">
        <ele>1967.8</ele>
        <time>2017-07-24T08:11:08Z</time>
      </trkpt>
      <trkpt lat="44.5106280" lon="6.9782300">
        <ele>1969.4</ele>
        <time>2017-07-24T08:11:10Z</time>
      </trkpt>
      <trkpt lat="44.5106930" lon="6.9782320">
        <ele>1970.6</ele>
        <time>2017-07-24T08:11:13Z</time>
      </trkpt>
      <trkpt lat="44.5107330" lon="6.9782360">
        <ele>1971.4</ele>
        <time>2017-07-24T08:11:15Z</time>
      </trkpt>
      <trkpt lat="44.5107750" lon="6.9782550">
        <ele>1971.8</ele>
        <time>2017-07-24T08:11:17Z</time>
      </trkpt>
      <trkpt lat="44.5108680" lon="6.9782880">
        <ele>1972.6</ele>
        <time>2017-07-24T08:11:21Z</time>
      </trkpt>
      <trkpt lat="44.5109600" lon="6.9782470">
        <ele>1972.8</ele>
        <time>2017-07-24T08:11:25Z</time>
      </trkpt>
      <trkpt lat="44.5109940" lon="6.9782200">
        <ele>1973.0</ele>
        <time>2017-07-24T08:11:27Z</time>
      </trkpt>
      <trkpt lat="44.5111600" lon="6.9781780">
        <ele>1973.8</ele>
        <time>2017-07-24T08:11:35Z</time>
      </trkpt>
      <trkpt lat="44.5111840" lon="6.9781760">
        <ele>1974.0</ele>
        <time>2017-07-24T08:11:36Z</time>
      </trkpt>
      <trkpt lat="44.5112930" lon="6.9782120">
        <ele>1975.0</ele>
        <time>2017-07-24T08:11:41Z</time>
      </trkpt>
      <trkpt lat="44.5113170" lon="6.9782170">
        <ele>1975.2</ele>
        <time>2017-07-24T08:11:42Z</time>
      </trkpt>
      <trkpt lat="44.5114500" lon="6.9782250">
        <ele>1976.4</ele>
        <time>2017-07-24T08:11:47Z</time>
      </trkpt>
      <trkpt lat="44.5115860" lon="6.9782300">
        <ele>1977.6</ele>
        <time>2017-07-24T08:11:52Z</time>
      </trkpt>
      <trkpt lat="44.5116470" lon="6.9782320">
        <ele>1977.8</ele>
        <time>2017-07-24T08:11:54Z</time>
      </trkpt>
      <trkpt lat="44.5117600" lon="6.9782380">
        <ele>1978.6</ele>
        <time>2017-07-24T08:11:58Z</time>
      </trkpt>
      <trkpt lat="44.5119030" lon="6.9782740">
        <ele>1979.4</ele>
        <time>2017-07-24T08:12:03Z</time>
      </trkpt>
      <trkpt lat="44.5119580" lon="6.9782930">
        <ele>1979.8</ele>
        <time>2017-07-24T08:12:05Z</time>
      </trkpt>
      <trkpt lat="44.5121120" lon="6.9783360">
        <ele>1980.8</ele>
        <time>2017-07-24T08:12:10Z</time>
      </trkpt>
      <trkpt lat="44.5123360" lon="6.9784050">
        <ele>1981.8</ele>
        <time>2017-07-24T08:12:18Z</time>
      </trkpt>
      <trkpt lat="44.5124500" lon="6.9784810">
        <ele>1982.8</ele>
        <time>2017-07-24T08:12:22Z</time>
      </trkpt>
      <trkpt lat="44.5125070" lon="6.9785230">
        <ele>1983.2</ele>
        <time>2017-07-24T08:12:24Z</time>
      </trkpt>
      <trkpt lat="44.5125860" lon="6.9785760">
        <ele>1984.0</ele>
        <time>2017-07-24T08:12:27Z</time>
      </trkpt>
      <trkpt lat="44.5126670" lon="6.9786200">
        <ele>1985.0</ele>
        <time>2017-07-24T08:12:30Z</time>
      </trkpt>
      <trkpt lat="44.5126940" lon="6.9786370">
        <ele>1985.4</ele>
        <time>2017-07-24T08:12:31Z</time>
      </trkpt>
      <trkpt lat="44.5127800" lon="6.9786860">
        <ele>1986.4</ele>
        <time>2017-07-24T08:12:34Z</time>
      </trkpt>
      <trkpt lat="44.5128400" lon="6.9786780">
        <ele>1987.2</ele>
        <time>2017-07-24T08:12:36Z</time>
      </trkpt>
      <trkpt lat="44.5128680" lon="6.9786600">
        <ele>1987.4</ele>
        <time>2017-07-24T08:12:37Z</time>
      </trkpt>
      <trkpt lat="44.5129100" lon="6.9786080">
        <ele>1988.0</ele>
        <time>2017-07-24T08:12:39Z</time>
      </trkpt>
      <trkpt lat="44.5129210" lon="6.9785680">
        <ele>1988.4</ele>
        <time>2017-07-24T08:12:40Z</time>
      </trkpt>
      <trkpt lat="44.5129270" lon="6.9785220">
        <ele>1988.8</ele>
        <time>2017-07-24T08:12:41Z</time>
      </trkpt>
      <trkpt lat="44.5129210" lon="6.9783740">
        <ele>1989.8</ele>
        <time>2017-07-24T08:12:44Z</time>
      </trkpt>
      <trkpt lat="44.5129150" lon="6.9783240">
        <ele>1990.2</ele>
        <time>2017-07-24T08:12:45Z</time>
      </trkpt>
      <trkpt lat="44.5129130" lon="6.9782800">
        <ele>1991.0</ele>
        <time>2017-07-24T08:12:46Z</time>
      </trkpt>
      <trkpt lat="44.5129260" lon="6.9781550">
        <ele>1992.2</ele>
        <time>2017-07-24T08:12:49Z</time>
      </trkpt>
      <trkpt lat="44.5129420" lon="6.9781140">
        <ele>1992.4</ele>
        <time>2017-07-24T08:12:50Z</time>
      </trkpt>
      <trkpt lat="44.5130200" lon="6.9780380">
        <ele>1993.4</ele>
        <time>2017-07-24T08:12:53Z</time>
      </trkpt>
      <trkpt lat="44.5130850" lon="6.9780050">
        <ele>1993.8</ele>
        <time>2017-07-24T08:12:55Z</time>
      </trkpt>
      <trkpt lat="44.5132910" lon="6.9779110">
        <ele>1994.4</ele>
        <time>2017-07-24T08:13:01Z</time>
      </trkpt>
      <trkpt lat="44.5133260" lon="6.9778950">
        <ele>1994.6</ele>
        <time>2017-07-24T08:13:02Z</time>
      </trkpt>
      <trkpt lat="44.5135440" lon="6.9777620">
        <ele>1995.0</ele>
        <time>2017-07-24T08:13:08Z</time>
      </trkpt>
      <trkpt lat="44.5135990" lon="6.9776850">
        <ele>1995.6</ele>
        <time>2017-07-24T08:13:10Z</time>
      </trkpt>
      <trkpt lat="44.5136330" lon="6.9775880">
        <ele>1996.2</ele>
        <time>2017-07-24T08:13:12Z</time>
      </trkpt>
      <trkpt lat="44.5136570" lon="6.9774890">
        <ele>1996.8</ele>
        <time>2017-07-24T08:13:14Z</time>
      </trkpt>
      <trkpt lat="44.5137040" lon="6.9772920">
        <ele>1997.6</ele>
        <time>2017-07-24T08:13:18Z</time>
      </trkpt>
      <trkpt lat="44.5137190" lon="6.9772420">
        <ele>1997.8</ele>
        <time>2017-07-24T08:13:19Z</time>
      </trkpt>
      <trkpt lat="44.5138060" lon="6.9770740">
        <ele>1999.0</ele>
        <time>2017-07-24T08:13:23Z</time>
      </trkpt>
      <trkpt lat="44.5139400" lon="6.9769200">
        <ele>2000.2</ele>
        <time>2017-07-24T08:13:28Z</time>
      </trkpt>
      <trkpt lat="44.5139950" lon="6.9768540">
        <ele>2000.4</ele>
        <time>2017-07-24T08:13:30Z</time>
      </trkpt>
      <trkpt lat="44.5141640" lon="6.9767510">
        <ele>2001.0</ele>
        <time>2017-07-24T08:13:36Z</time>
      </trkpt>
      <trkpt lat="44.5141920" lon="6.9767570">
        <ele>2001.2</ele>
        <time>2017-07-24T08:13:37Z</time>
      </trkpt>
      <trkpt lat="44.5143370" lon="6.9767130">
        <ele>2001.4</ele>
        <time>2017-07-24T08:13:42Z</time>
      </trkpt>
      <trkpt lat="44.5144480" lon="6.9766260">
        <ele>2001.4</ele>
        <time>2017-07-24T08:13:46Z</time>
      </trkpt>
      <trkpt lat="44.5145860" lon="6.9765290">
        <ele>2001.8</ele>
        <time>2017-07-24T08:13:51Z</time>
      </trkpt>
      <trkpt lat="44.5146650" lon="6.9764620">
        <ele>2002.2</ele>
        <time>2017-07-24T08:13:54Z</time>
      </trkpt>
      <trkpt lat="44.5147520" lon="6.9764130">
        <ele>2002.8</ele>
        <time>2017-07-24T08:13:57Z</time>
      </trkpt>
      <trkpt lat="44.5148420" lon="6.9763850">
        <ele>2003.2</ele>
        <time>2017-07-24T08:14:00Z</time>
      </trkpt>
      <trkpt lat="44.5149390" lon="6.9763700">
        <ele>2003.8</ele>
        <time>2017-07-24T08:14:03Z</time>
      </trkpt>
      <trkpt lat="44.5150390" lon="6.9763500">
        <ele>2004.4</ele>
        <time>2017-07-24T08:14:06Z</time>
      </trkpt>
      <trkpt lat="44.5151050" lon="6.9762600">
        <ele>2004.8</ele>
        <time>2017-07-24T08:14:09Z</time>
      </trkpt>
      <trkpt lat="44.5151190" lon="6.9762220">
        <ele>2005.4</ele>
        <time>2017-07-24T08:14:10Z</time>
      </trkpt>
      <trkpt lat="44.5151550" lon="6.9760850">
        <ele>2006.4</ele>
        <time>2017-07-24T08:14:13Z</time>
      </trkpt>
      <trkpt lat="44.5151570" lon="6.9759850">
        <ele>2007.0</ele>
        <time>2017-07-24T08:14:15Z</time>
      </trkpt>
      <trkpt lat="44.5151440" lon="6.9758920">
        <ele>2007.8</ele>
        <time>2017-07-24T08:14:17Z</time>
      </trkpt>
      <trkpt lat="44.5151160" lon="6.9757630">
        <ele>2009.0</ele>
        <time>2017-07-24T08:14:20Z</time>
      </trkpt>
      <trkpt lat="44.5151070" lon="6.9756770">
        <ele>2010.0</ele>
        <time>2017-07-24T08:14:22Z</time>
      </trkpt>
      <trkpt lat="44.5151450" lon="6.9755030">
        <ele>2011.2</ele>
        <time>2017-07-24T08:14:26Z</time>
      </trkpt>
      <trkpt lat="44.5151620" lon="6.9754620">
        <ele>2011.4</ele>
        <time>2017-07-24T08:14:27Z</time>
      </trkpt>
      <trkpt lat="44.5152190" lon="6.9753490">
        <ele>2012.4</ele>
        <time>2017-07-24T08:14:30Z</time>
      </trkpt>
      <trkpt lat="44.5152780" lon="6.9752360">
        <ele>2013.2</ele>
        <time>2017-07-24T08:14:33Z</time>
      </trkpt>
      <trkpt lat="44.5153130" lon="6.9751570">
        <ele>2013.6</ele>
        <time>2017-07-24T08:14:35Z</time>
      </trkpt>
      <trkpt lat="44.5153970" lon="6.9750100">
        <ele>2014.6</ele>
        <time>2017-07-24T08:14:39Z</time>
      </trkpt>
      <trkpt lat="44.5154190" lon="6.9749760">
        <ele>2014.8</ele>
        <time>2017-07-24T08:14:40Z</time>
      </trkpt>
      <trkpt lat="44.5155110" lon="6.9748450">
        <ele>2015.8</ele>
        <time>2017-07-24T08:14:44Z</time>
      </trkpt>
      <trkpt lat="44.5155850" lon="6.9747600">
        <ele>2016.8</ele>
        <time>2017-07-24T08:14:47Z</time>
      </trkpt>
      <trkpt lat="44.5156370" lon="6.9747110">
        <ele>2017.0</ele>
        <time>2017-07-24T08:14:49Z</time>
      </trkpt>
      <trkpt lat="44.5158860" lon="6.9744820">
        <ele>2017.4</ele>
        <time>2017-07-24T08:14:58Z</time>
      </trkpt>
      <trkpt lat="44.5159340" lon="6.9743210">
        <ele>2017.8</ele>
        <time>2017-07-24T08:15:02Z</time>
      </trkpt>
      <trkpt lat="44.5159340" lon="6.9742730">
        <ele>2017.8</ele>
        <time>2017-07-24T08:15:03Z</time>
      </trkpt>
      <trkpt lat="44.5159500" lon="6.9740460">
        <ele>2018.8</ele>
        <time>2017-07-24T08:15:08Z</time>
      </trkpt>
      <trkpt lat="44.5159620" lon="6.9740020">
        <ele>2019.0</ele>
        <time>2017-07-24T08:15:09Z</time>
      </trkpt>
      <trkpt lat="44.5160540" lon="6.9738210">
        <ele>2020.0</ele>
        <time>2017-07-24T08:15:14Z</time>
      </trkpt>
      <trkpt lat="44.5161580" lon="6.9736350">
        <ele>2020.8</ele>
        <time>2017-07-24T08:15:19Z</time>
      </trkpt>
      <trkpt lat="44.5161560" lon="6.9735890">
        <ele>2020.8</ele>
        <time>2017-07-24T08:15:20Z</time>
      </trkpt>
      <trkpt lat="44.5161290" lon="6.9735000">
        <ele>2021.2</ele>
        <time>2017-07-24T08:15:22Z</time>
      </trkpt>
      <trkpt lat="44.5160760" lon="6.9734290">
        <ele>2021.2</ele>
        <time>2017-07-24T08:15:24Z</time>
      </trkpt>
      <trkpt lat="44.5159290" lon="6.9733900">
        <ele>2020.2</ele>
        <time>2017-07-24T08:15:28Z</time>
      </trkpt>
      <trkpt lat="44.5158930" lon="6.9733980">
        <ele>2020.0</ele>
        <time>2017-07-24T08:15:29Z</time>
      </trkpt>
      <trkpt lat="44.5157280" lon="6.9733900">
        <ele>2018.6</ele>
        <time>2017-07-24T08:15:34Z</time>
      </trkpt>
      <trkpt lat="44.5156000" lon="6.9733880">
        <ele>2017.4</ele>
        <time>2017-07-24T08:15:38Z</time>
      </trkpt>
      <trkpt lat="44.5155420" lon="6.9733820">
        <ele>2016.8</ele>
        <time>2017-07-24T08:15:40Z</time>
      </trkpt>
      <trkpt lat="44.5154850" lon="6.9733850">
        <ele>2016.2</ele>
        <time>2017-07-24T08:15:42Z</time>
      </trkpt>
      <trkpt lat="44.5153430" lon="6.9733750">
        <ele>2015.4</ele>
        <time>2017-07-24T08:15:47Z</time>
      </trkpt>
      <trkpt lat="44.5151820" lon="6.9732810">
        <ele>2015.2</ele>
        <time>2017-07-24T08:15:53Z</time>
      </trkpt>
      <trkpt lat="44.5151580" lon="6.9732660">
        <ele>2015.0</ele>
        <time>2017-07-24T08:15:54Z</time>
      </trkpt>
      <trkpt lat="44.5149910" lon="6.9732400">
        <ele>2015.4</ele>
        <time>2017-07-24T08:16:00Z</time>
      </trkpt>
      <trkpt lat="44.5148540" lon="6.9732900">
        <ele>2016.2</ele>
        <time>2017-07-24T08:16:05Z</time>
      </trkpt>
      <trkpt lat="44.5148250" lon="6.9732880">
        <ele>2016.8</ele>
        <time>2017-07-24T08:16:06Z</time>
      </trkpt>
      <trkpt lat="44.5147650" lon="6.9732730">
        <ele>2017.6</ele>
        <time>2017-07-24T08:16:08Z</time>
      </trkpt>
      <trkpt lat="44.5146920" lon="6.9732150">
        <ele>2018.6</ele>
        <time>2017-07-24T08:16:11Z</time>
      </trkpt>
      <trkpt lat="44.5146730" lon="6.9731890">
        <ele>2018.8</ele>
        <time>2017-07-24T08:16:12Z</time>
      </trkpt>
      <trkpt lat="44.5146090" lon="6.9731050">
        <ele>2019.8</ele>
        <time>2017-07-24T08:16:15Z</time>
      </trkpt>
      <trkpt lat="44.5145070" lon="6.9730510">
        <ele>2020.6</ele>
        <time>2017-07-24T08:16:19Z</time>
      </trkpt>
      <trkpt lat="44.5144800" lon="6.9730420">
        <ele>2020.8</ele>
        <time>2017-07-24T08:16:20Z</time>
      </trkpt>
      <trkpt lat="44.5143630" lon="6.9730710">
        <ele>2021.2</ele>
        <time>2017-07-24T08:16:24Z</time>
      </trkpt>
      <trkpt lat="44.5142210" lon="6.9731540">
        <ele>2021.2</ele>
        <time>2017-07-24T08:16:29Z</time>
      </trkpt>
      <trkpt lat="44.5141310" lon="6.9732260">
        <ele>2022.0</ele>
        <time>2017-07-24T08:16:33Z</time>
      </trkpt>
      <trkpt lat="44.5140830" lon="6.9732400">
        <ele>2022.2</ele>
        <time>2017-07-24T08:16:35Z</time>
      </trkpt>
      <trkpt lat="44.5138830" lon="6.9732620">
        <ele>2023.0</ele>
        <time>2017-07-24T08:16:42Z</time>
      </trkpt>
      <trkpt lat="44.5138560" lon="6.9732700">
        <ele>2023.2</ele>
        <time>2017-07-24T08:16:43Z</time>
      </trkpt>
      <trkpt lat="44.5137110" lon="6.9733050">
        <ele>2024.2</ele>
        <time>2017-07-24T08:16:49Z</time>
      </trkpt>
      <trkpt lat="44.5135140" lon="6.9733170">
        <ele>2025.2</ele>
        <time>2017-07-24T08:16:57Z</time>
      </trkpt>
      <trkpt lat="44.5133420" lon="6.9733430">
        <ele>2026.2</ele>
        <time>2017-07-24T08:17:04Z</time>
      </trkpt>
      <trkpt lat="44.5133210" lon="6.9733510">
        <ele>2026.2</ele>
        <time>2017-07-24T08:17:05Z</time>
      </trkpt>
      <trkpt lat="44.5131830" lon="6.9734050">
        <ele>2027.2</ele>
        <time>2017-07-24T08:17:11Z</time>
      </trkpt>
      <trkpt lat="44.5131580" lon="6.9734050">
        <ele>2027.4</ele>
        <time>2017-07-24T08:17:12Z</time>
      </trkpt>
      <trkpt lat="44.5130490" lon="6.9733780">
        <ele>2028.2</ele>
        <time>2017-07-24T08:17:17Z</time>
      </trkpt>
      <trkpt lat="44.5130260" lon="6.9733730">
        <ele>2028.4</ele>
        <time>2017-07-24T08:17:18Z</time>
      </trkpt>
      <trkpt lat="44.5128980" lon="6.9733200">
        <ele>2029.4</ele>
        <time>2017-07-24T08:17:24Z</time>
      </trkpt>
      <trkpt lat="44.5128760" lon="6.9733120">
        <ele>2029.6</ele>
        <time>2017-07-24T08:17:25Z</time>
      </trkpt>
      <trkpt lat="44.5127700" lon="6.9732870">
        <ele>2030.6</ele>
        <time>2017-07-24T08:17:30Z</time>
      </trkpt>
      <trkpt lat="44.5127470" lon="6.9732830">
        <ele>2030.8</ele>
        <time>2017-07-24T08:17:31Z</time>
      </trkpt>
      <trkpt lat="44.5126800" lon="6.9732720">
        <ele>2031.8</ele>
        <time>2017-07-24T08:17:34Z</time>
      </trkpt>
      <trkpt lat="44.5126160" lon="6.9732530">
        <ele>2033.2</ele>
        <time>2017-07-24T08:17:37Z</time>
      </trkpt>
      <trkpt lat="44.5125940" lon="6.9732450">
        <ele>2033.6</ele>
        <time>2017-07-24T08:17:38Z</time>
      </trkpt>
      <trkpt lat="44.5125520" lon="6.9732370">
        <ele>2034.2</ele>
        <time>2017-07-24T08:17:40Z</time>
      </trkpt>
      <trkpt lat="44.5124880" lon="6.9732030">
        <ele>2035.4</ele>
        <time>2017-07-24T08:17:43Z</time>
      </trkpt>
      <trkpt lat="44.5124530" lon="6.9731730">
        <ele>2035.8</ele>
        <time>2017-07-24T08:17:45Z</time>
      </trkpt>
      <trkpt lat="44.5124170" lon="6.9731420">
        <ele>2036.4</ele>
        <time>2017-07-24T08:17:47Z</time>
      </trkpt>
      <trkpt lat="44.5123690" lon="6.9730890">
        <ele>2037.6</ele>
        <time>2017-07-24T08:17:50Z</time>
      </trkpt>
      <trkpt lat="44.5123070" lon="6.9730420">
        <ele>2038.6</ele>
        <time>2017-07-24T08:17:53Z</time>
      </trkpt>
      <trkpt lat="44.5122150" lon="6.9730420">
        <ele>2039.6</ele>
        <time>2017-07-24T08:17:57Z</time>
      </trkpt>
      <trkpt lat="44.5121940" lon="6.9730480">
        <ele>2040.0</ele>
        <time>2017-07-24T08:17:58Z</time>
      </trkpt>
      <trkpt lat="44.5121270" lon="6.9730780">
        <ele>2040.8</ele>
        <time>2017-07-24T08:18:01Z</time>
      </trkpt>
      <trkpt lat="44.5120370" lon="6.9731150">
        <ele>2041.8</ele>
        <time>2017-07-24T08:18:05Z</time>
      </trkpt>
      <trkpt lat="44.5119610" lon="6.9732060">
        <ele>2043.0</ele>
        <time>2017-07-24T08:18:09Z</time>
      </trkpt>
      <trkpt lat="44.5119260" lon="6.9732580">
        <ele>2043.4</ele>
        <time>2017-07-24T08:18:11Z</time>
      </trkpt>
      <trkpt lat="44.5118960" lon="6.9733110">
        <ele>2044.0</ele>
        <time>2017-07-24T08:18:13Z</time>
      </trkpt>
      <trkpt lat="44.5118440" lon="6.9733720">
        <ele>2045.2</ele>
        <time>2017-07-24T08:18:16Z</time>
      </trkpt>
      <trkpt lat="44.5117840" lon="6.9734340">
        <ele>2046.4</ele>
        <time>2017-07-24T08:18:19Z</time>
      </trkpt>
      <trkpt lat="44.5117190" lon="6.9734570">
        <ele>2047.6</ele>
        <time>2017-07-24T08:18:22Z</time>
      </trkpt>
      <trkpt lat="44.5116670" lon="6.9734560">
        <ele>2048.0</ele>
        <time>2017-07-24T08:18:24Z</time>
      </trkpt>
      <trkpt lat="44.5115560" lon="6.9734420">
        <ele>2048.8</ele>
        <time>2017-07-24T08:18:28Z</time>
      </trkpt>
      <trkpt lat="44.5114850" lon="6.9734000">
        <ele>2049.6</ele>
        <time>2017-07-24T08:18:31Z</time>
      </trkpt>
      <trkpt lat="44.5114340" lon="6.9733720">
        <ele>2050.0</ele>
        <time>2017-07-24T08:18:33Z</time>
      </trkpt>
      <trkpt lat="44.5113190" lon="6.9733240">
        <ele>2050.4</ele>
        <time>2017-07-24T08:18:37Z</time>
      </trkpt>
      <trkpt lat="44.5111600" lon="6.9733010">
        <ele>2051.2</ele>
        <time>2017-07-24T08:18:43Z</time>
      </trkpt>
      <trkpt lat="44.5111320" lon="6.9733030">
        <ele>2051.2</ele>
        <time>2017-07-24T08:18:44Z</time>
      </trkpt>
      <trkpt lat="44.5109570" lon="6.9733310">
        <ele>2052.0</ele>
        <time>2017-07-24T08:18:50Z</time>
      </trkpt>
      <trkpt lat="44.5109010" lon="6.9733180">
        <ele>2052.2</ele>
        <time>2017-07-24T08:18:52Z</time>
      </trkpt>
      <trkpt lat="44.5108600" lon="6.9732690">
        <ele>2052.4</ele>
        <time>2017-07-24T08:18:54Z</time>
      </trkpt>
      <trkpt lat="44.5108420" lon="6.9731720">
        <ele>2053.4</ele>
        <time>2017-07-24T08:18:57Z</time>
      </trkpt>
      <trkpt lat="44.5108660" lon="6.9731440">
        <ele>2053.8</ele>
        <time>2017-07-24T08:18:58Z</time>
      </trkpt>
      <trkpt lat="44.5109260" lon="6.9731280">
        <ele>2054.4</ele>
        <time>2017-07-24T08:19:00Z</time>
      </trkpt>
      <trkpt lat="44.5109840" lon="6.9731230">
        <ele>2055.0</ele>
        <time>2017-07-24T08:19:02Z</time>
      </trkpt>
      <trkpt lat="44.5110410" lon="6.9731260">
        <ele>2055.8</ele>
        <time>2017-07-24T08:19:04Z</time>
      </trkpt>
      <trkpt lat="44.5111270" lon="6.9731420">
        <ele>2057.0</ele>
        <time>2017-07-24T08:19:07Z</time>
      </trkpt>
      <trkpt lat="44.5112100" lon="6.9731370">
        <ele>2058.8</ele>
        <time>2017-07-24T08:19:10Z</time>
      </trkpt>
      <trkpt lat="44.5113160" lon="6.9731250">
        <ele>2060.2</ele>
        <time>2017-07-24T08:19:14Z</time>
      </trkpt>
      <trkpt lat="44.5113790" lon="6.9731000">
        <ele>2061.4</ele>
        <time>2017-07-24T08:19:17Z</time>
      </trkpt>
      <trkpt lat="44.5114650" lon="6.9730710">
        <ele>2062.6</ele>
        <time>2017-07-24T08:19:21Z</time>
      </trkpt>
      <trkpt lat="44.5115210" lon="6.9730220">
        <ele>2063.4</ele>
        <time>2017-07-24T08:19:24Z</time>
      </trkpt>
      <trkpt lat="44.5115470" lon="6.9729690">
        <ele>2064.0</ele>
        <time>2017-07-24T08:19:26Z</time>
      </trkpt>
      <trkpt lat="44.5115690" lon="6.9729200">
        <ele>2065.0</ele>
        <time>2017-07-24T08:19:28Z</time>
      </trkpt>
      <trkpt lat="44.5115890" lon="6.9728620">
        <ele>2066.2</ele>
        <time>2017-07-24T08:19:30Z</time>
      </trkpt>
      <trkpt lat="44.5115980" lon="6.9728330">
        <ele>2066.8</ele>
        <time>2017-07-24T08:19:31Z</time>
      </trkpt>
      <trkpt lat="44.5116060" lon="6.9728060">
        <ele>2067.4</ele>
        <time>2017-07-24T08:19:32Z</time>
      </trkpt>
      <trkpt lat="44.5116270" lon="6.9727540">
        <ele>2069.6</ele>
        <time>2017-07-24T08:19:34Z</time>
      </trkpt>
      <trkpt lat="44.5116480" lon="6.9727020">
        <ele>2070.8</ele>
        <time>2017-07-24T08:19:36Z</time>
      </trkpt>
      <trkpt lat="44.5116710" lon="6.9726510">
        <ele>2072.2</ele>
        <time>2017-07-24T08:19:38Z</time>
      </trkpt>
      <trkpt lat="44.5116830" lon="6.9726260">
        <ele>2072.8</ele>
        <time>2017-07-24T08:19:39Z</time>
      </trkpt>
      <trkpt lat="44.5116950" lon="6.9726040">
        <ele>2073.4</ele>
        <time>2017-07-24T08:19:40Z</time>
      </trkpt>
      <trkpt lat="44.5117650" lon="6.9725490">
        <ele>2074.6</ele>
        <time>2017-07-24T08:19:44Z</time>
      </trkpt>
      <trkpt lat="44.5117850" lon="6.9725420">
        <ele>2074.6</ele>
        <time>2017-07-24T08:19:45Z</time>
      </trkpt>
      <trkpt lat="44.5119100" lon="6.9724430">
        <ele>2075.2</ele>
        <time>2017-07-24T08:19:52Z</time>
      </trkpt>
      <trkpt lat="44.5119410" lon="6.9724030">
        <ele>2075.6</ele>
        <time>2017-07-24T08:19:54Z</time>
      </trkpt>
      <trkpt lat="44.5120180" lon="6.9723230">
        <ele>2076.6</ele>
        <time>2017-07-24T08:19:59Z</time>
      </trkpt>
      <trkpt lat="44.5121190" lon="6.9722730">
        <ele>2077.6</ele>
        <time>2017-07-24T08:20:04Z</time>
      </trkpt>
      <trkpt lat="44.5121570" lon="6.9722660">
        <ele>2078.2</ele>
        <time>2017-07-24T08:20:06Z</time>
      </trkpt>
      <trkpt lat="44.5122330" lon="6.9722480">
        <ele>2078.8</ele>
        <time>2017-07-24T08:20:10Z</time>
      </trkpt>
      <trkpt lat="44.5123430" lon="6.9722100">
        <ele>2079.0</ele>
        <time>2017-07-24T08:20:15Z</time>
      </trkpt>
      <trkpt lat="44.5125190" lon="6.9721320">
        <ele>2080.0</ele>
        <time>2017-07-24T08:20:22Z</time>
      </trkpt>
      <trkpt lat="44.5126920" lon="6.9721560">
        <ele>2080.6</ele>
        <time>2017-07-24T08:20:28Z</time>
      </trkpt>
      <trkpt lat="44.5127870" lon="6.9721660">
        <ele>2081.0</ele>
        <time>2017-07-24T08:20:32Z</time>
      </trkpt>
      <trkpt lat="44.5128560" lon="6.9721500">
        <ele>2081.6</ele>
        <time>2017-07-24T08:20:35Z</time>
      </trkpt>
      <trkpt lat="44.5129030" lon="6.9721230">
        <ele>2082.0</ele>
        <time>2017-07-24T08:20:37Z</time>
      </trkpt>
      <trkpt lat="44.5129970" lon="6.9720740">
        <ele>2082.8</ele>
        <time>2017-07-24T08:20:41Z</time>
      </trkpt>
      <trkpt lat="44.5130210" lon="6.9720630">
        <ele>2083.0</ele>
        <time>2017-07-24T08:20:42Z</time>
      </trkpt>
      <trkpt lat="44.5130920" lon="6.9720170">
        <ele>2084.2</ele>
        <time>2017-07-24T08:20:45Z</time>
      </trkpt>
      <trkpt lat="44.5131610" lon="6.9719680">
        <ele>2085.4</ele>
        <time>2017-07-24T08:20:48Z</time>
      </trkpt>
      <trkpt lat="44.5132170" lon="6.9719090">
        <ele>2086.4</ele>
        <time>2017-07-24T08:20:51Z</time>
      </trkpt>
      <trkpt lat="44.5132660" lon="6.9718520">
        <ele>2087.6</ele>
        <time>2017-07-24T08:20:54Z</time>
      </trkpt>
      <trkpt lat="44.5132910" lon="6.9718070">
        <ele>2088.4</ele>
        <time>2017-07-24T08:20:56Z</time>
      </trkpt>
      <trkpt lat="44.5133030" lon="6.9717830">
        <ele>2088.8</ele>
        <time>2017-07-24T08:20:57Z</time>
      </trkpt>
      <trkpt lat="44.5133400" lon="6.9717140">
        <ele>2090.0</ele>
        <time>2017-07-24T08:21:00Z</time>
      </trkpt>
      <trkpt lat="44.5133720" lon="6.9716450">
        <ele>2091.2</ele>
        <time>2017-07-24T08:21:03Z</time>
      </trkpt>
      <trkpt lat="44.5134350" lon="6.9715580">
        <ele>2092.4</ele>
        <time>2017-07-24T08:21:07Z</time>
      </trkpt>
      <trkpt lat="44.5134770" lon="6.9715300">
        <ele>2092.8</ele>
        <time>2017-07-24T08:21:09Z</time>
      </trkpt>
      <trkpt lat="44.5136180" lon="6.9714960">
        <ele>2093.2</ele>
        <time>2017-07-24T08:21:15Z</time>
      </trkpt>
      <trkpt lat="44.5137340" lon="6.9714500">
        <ele>2093.0</ele>
        <time>2017-07-24T08:21:21Z</time>
      </trkpt>
      <trkpt lat="44.5138890" lon="6.9714070">
        <ele>2093.4</ele>
        <time>2017-07-24T08:21:29Z</time>
      </trkpt>
      <trkpt lat="44.5139860" lon="6.9713980">
        <ele>2094.6</ele>
        <time>2017-07-24T08:21:34Z</time>
      </trkpt>
      <trkpt lat="44.5140250" lon="6.9713910">
        <ele>2094.8</ele>
        <time>2017-07-24T08:21:36Z</time>
      </trkpt>
      <trkpt lat="44.5141190" lon="6.9713950">
        <ele>2095.6</ele>
        <time>2017-07-24T08:21:41Z</time>
      </trkpt>
      <trkpt lat="44.5141540" lon="6.9713870">
        <ele>2096.0</ele>
        <time>2017-07-24T08:21:43Z</time>
      </trkpt>
      <trkpt lat="44.5142160" lon="6.9713730">
        <ele>2096.6</ele>
        <time>2017-07-24T08:21:46Z</time>
      </trkpt>
      <trkpt lat="44.5142350" lon="6.9713810">
        <ele>2096.6</ele>
        <time>2017-07-24T08:21:47Z</time>
      </trkpt>
      <trkpt lat="44.5142530" lon="6.9713880">
        <ele>2096.6</ele>
        <time>2017-07-24T08:21:48Z</time>
      </trkpt>
      <trkpt lat="44.5143460" lon="6.9713850">
        <ele>2097.6</ele>
        <time>2017-07-24T08:21:53Z</time>
      </trkpt>
      <trkpt lat="44.5143650" lon="6.9713790">
        <ele>2097.8</ele>
        <time>2017-07-24T08:21:54Z</time>
      </trkpt>
      <trkpt lat="44.5143990" lon="6.9713650">
        <ele>2098.2</ele>
        <time>2017-07-24T08:21:56Z</time>
      </trkpt>
      <trkpt lat="44.5144570" lon="6.9713580">
        <ele>2099.0</ele>
        <time>2017-07-24T08:21:59Z</time>
      </trkpt>
      <trkpt lat="44.5145130" lon="6.9713010">
        <ele>2100.2</ele>
        <time>2017-07-24T08:22:03Z</time>
      </trkpt>
      <trkpt lat="44.5145920" lon="6.9712360">
        <ele>2101.4</ele>
        <time>2017-07-24T08:22:08Z</time>
      </trkpt>
      <trkpt lat="44.5146060" lon="6.9712210">
        <ele>2101.8</ele>
        <time>2017-07-24T08:22:09Z</time>
      </trkpt>
      <trkpt lat="44.5146540" lon="6.9711720">
        <ele>2102.6</ele>
        <time>2017-07-24T08:22:12Z</time>
      </trkpt>
      <trkpt lat="44.5147250" lon="6.9711120">
        <ele>2103.8</ele>
        <time>2017-07-24T08:22:16Z</time>
      </trkpt>
      <trkpt lat="44.5147390" lon="6.9710980">
        <ele>2104.0</ele>
        <time>2017-07-24T08:22:17Z</time>
      </trkpt>
      <trkpt lat="44.5147680" lon="6.9710640">
        <ele>2104.8</ele>
        <time>2017-07-24T08:22:19Z</time>
      </trkpt>
      <trkpt lat="44.5148050" lon="6.9710150">
        <ele>2106.4</ele>
        <time>2017-07-24T08:22:22Z</time>
      </trkpt>
      <trkpt lat="44.5148270" lon="6.9709840">
        <ele>2107.4</ele>
        <time>2017-07-24T08:22:24Z</time>
      </trkpt>
      <trkpt lat="44.5148370" lon="6.9709700">
        <ele>2108.0</ele>
        <time>2017-07-24T08:22:25Z</time>
      </trkpt>
      <trkpt lat="44.5148570" lon="6.9709310">
        <ele>2109.0</ele>
        <time>2017-07-24T08:22:27Z</time>
      </trkpt>
      <trkpt lat="44.5148920" lon="6.9708850">
        <ele>2110.2</ele>
        <time>2017-07-24T08:22:30Z</time>
      </trkpt>
      <trkpt lat="44.5149290" lon="6.9708680">
        <ele>2110.6</ele>
        <time>2017-07-24T08:22:32Z</time>
      </trkpt>
      <trkpt lat="44.5150370" lon="6.9708890">
        <ele>2111.2</ele>
        <time>2017-07-24T08:22:38Z</time>
      </trkpt>
      <trkpt lat="44.5151320" lon="6.9709970">
        <ele>2111.2</ele>
        <time>2017-07-24T08:22:44Z</time>
      </trkpt>
      <trkpt lat="44.5151490" lon="6.9710130">
        <ele>2111.2</ele>
        <time>2017-07-24T08:22:45Z</time>
      </trkpt>
      <trkpt lat="44.5153060" lon="6.9710550">
        <ele>2112.2</ele>
        <time>2017-07-24T08:22:54Z</time>
      </trkpt>
      <trkpt lat="44.5153240" lon="6.9710530">
        <ele>2112.4</ele>
        <time>2017-07-24T08:22:55Z</time>
      </trkpt>
      <trkpt lat="44.5154140" lon="6.9710460">
        <ele>2113.0</ele>
        <time>2017-07-24T08:23:00Z</time>
      </trkpt>
      <trkpt lat="44.5154990" lon="6.9710090">
        <ele>2113.4</ele>
        <time>2017-07-24T08:23:05Z</time>
      </trkpt>
      <trkpt lat="44.5155370" lon="6.9710060">
        <ele>2113.8</ele>
        <time>2017-07-24T08:23:07Z</time>
      </trkpt>
      <trkpt lat="44.5156580" lon="6.9710140">
        <ele>2114.6</ele>
        <time>2017-07-24T08:23:14Z</time>
      </trkpt>
      <trkpt lat="44.5157430" lon="6.9710130">
        <ele>2115.6</ele>
        <time>2017-07-24T08:23:18Z</time>
      </trkpt>
      <trkpt lat="44.5157610" lon="6.9710120">
        <ele>2115.8</ele>
        <time>2017-07-24T08:23:19Z</time>
      </trkpt>
      <trkpt lat="44.5158540" lon="6.9710160">
        <ele>2116.8</ele>
        <time>2017-07-24T08:23:24Z</time>
      </trkpt>
      <trkpt lat="44.5158720" lon="6.9710110">
        <ele>2116.8</ele>
        <time>2017-07-24T08:23:25Z</time>
      </trkpt>
      <trkpt lat="44.5159870" lon="6.9709390">
        <ele>2117.6</ele>
        <time>2017-07-24T08:23:32Z</time>
      </trkpt>
      <trkpt lat="44.5160010" lon="6.9709220">
        <ele>2117.8</ele>
        <time>2017-07-24T08:23:33Z</time>
      </trkpt>
      <trkpt lat="44.5160500" lon="6.9708550">
        <ele>2119.0</ele>
        <time>2017-07-24T08:23:37Z</time>
      </trkpt>
      <trkpt lat="44.5160670" lon="6.9708000">
        <ele>2119.8</ele>
        <time>2017-07-24T08:23:39Z</time>
      </trkpt>
      <trkpt lat="44.5160750" lon="6.9707740">
        <ele>2120.4</ele>
        <time>2017-07-24T08:23:40Z</time>
      </trkpt>
      <trkpt lat="44.5160930" lon="6.9707210">
        <ele>2121.6</ele>
        <time>2017-07-24T08:23:42Z</time>
      </trkpt>
      <trkpt lat="44.5161120" lon="6.9706730">
        <ele>2122.6</ele>
        <time>2017-07-24T08:23:44Z</time>
      </trkpt>
      <trkpt lat="44.5161280" lon="6.9706290">
        <ele>2123.8</ele>
        <time>2017-07-24T08:23:46Z</time>
      </trkpt>
      <trkpt lat="44.5161440" lon="6.9705870">
        <ele>2124.8</ele>
        <time>2017-07-24T08:23:48Z</time>
      </trkpt>
      <trkpt lat="44.5161650" lon="6.9705460">
        <ele>2125.8</ele>
        <time>2017-07-24T08:23:50Z</time>
      </trkpt>
      <trkpt lat="44.5161950" lon="6.9704850">
        <ele>2127.2</ele>
        <time>2017-07-24T08:23:53Z</time>
      </trkpt>
      <trkpt lat="44.5162220" lon="6.9704570">
        <ele>2127.8</ele>
        <time>2017-07-24T08:23:55Z</time>
      </trkpt>
      <trkpt lat="44.5162670" lon="6.9704220">
        <ele>2128.2</ele>
        <time>2017-07-24T08:23:58Z</time>
      </trkpt>
      <trkpt lat="44.5163280" lon="6.9703970">
        <ele>2128.8</ele>
        <time>2017-07-24T08:24:02Z</time>
      </trkpt>
      <trkpt lat="44.5164180" lon="6.9703960">
        <ele>2129.0</ele>
        <time>2017-07-24T08:24:07Z</time>
      </trkpt>
      <trkpt lat="44.5164360" lon="6.9704070">
        <ele>2129.0</ele>
        <time>2017-07-24T08:24:08Z</time>
      </trkpt>
      <trkpt lat="44.5165530" lon="6.9704820">
        <ele>2128.6</ele>
        <time>2017-07-24T08:24:15Z</time>
      </trkpt>
      <trkpt lat="44.5166740" lon="6.9705630">
        <ele>2129.4</ele>
        <time>2017-07-24T08:24:22Z</time>
      </trkpt>
      <trkpt lat="44.5166870" lon="6.9705730">
        <ele>2129.4</ele>
        <time>2017-07-24T08:24:23Z</time>
      </trkpt>
      <trkpt lat="44.5167740" lon="6.9706110">
        <ele>2130.6</ele>
        <time>2017-07-24T08:24:28Z</time>
      </trkpt>
      <trkpt lat="44.5167920" lon="6.9706130">
        <ele>2130.8</ele>
        <time>2017-07-24T08:24:29Z</time>
      </trkpt>
      <trkpt lat="44.5168390" lon="6.9705870">
        <ele>2131.2</ele>
        <time>2017-07-24T08:24:32Z</time>
      </trkpt>
      <trkpt lat="44.5168870" lon="6.9705460">
        <ele>2131.6</ele>
        <time>2017-07-24T08:24:35Z</time>
      </trkpt>
      <trkpt lat="44.5169020" lon="6.9705310">
        <ele>2131.6</ele>
        <time>2017-07-24T08:24:36Z</time>
      </trkpt>
      <trkpt lat="44.5169630" lon="6.9704500">
        <ele>2132.8</ele>
        <time>2017-07-24T08:24:40Z</time>
      </trkpt>
      <trkpt lat="44.5170090" lon="6.9703810">
        <ele>2134.2</ele>
        <time>2017-07-24T08:24:43Z</time>
      </trkpt>
      <trkpt lat="44.5170510" lon="6.9703230">
        <ele>2136.0</ele>
        <time>2017-07-24T08:24:46Z</time>
      </trkpt>
      <trkpt lat="44.5170980" lon="6.9702560">
        <ele>2137.4</ele>
        <time>2017-07-24T08:24:49Z</time>
      </trkpt>
      <trkpt lat="44.5171350" lon="6.9702210">
        <ele>2137.8</ele>
        <time>2017-07-24T08:24:51Z</time>
      </trkpt>
      <trkpt lat="44.5172350" lon="6.9701790">
        <ele>2138.2</ele>
        <time>2017-07-24T08:24:56Z</time>
      </trkpt>
      <trkpt lat="44.5173140" lon="6.9701970">
        <ele>2138.4</ele>
        <time>2017-07-24T08:25:00Z</time>
      </trkpt>
      <trkpt lat="44.5173380" lon="6.9701940">
        <ele>2138.2</ele>
        <time>2017-07-24T08:25:01Z</time>
      </trkpt>
      <trkpt lat="44.5174650" lon="6.9701020">
        <ele>2138.4</ele>
        <time>2017-07-24T08:25:08Z</time>
      </trkpt>
      <trkpt lat="44.5175260" lon="6.9700380">
        <ele>2138.6</ele>
        <time>2017-07-24T08:25:12Z</time>
      </trkpt>
      <trkpt lat="44.5175690" lon="6.9699830">
        <ele>2139.4</ele>
        <time>2017-07-24T08:25:15Z</time>
      </trkpt>
      <trkpt lat="44.5175810" lon="6.9699640">
        <ele>2139.8</ele>
        <time>2017-07-24T08:25:16Z</time>
      </trkpt>
      <trkpt lat="44.5176190" lon="6.9699060">
        <ele>2141.0</ele>
        <time>2017-07-24T08:25:19Z</time>
      </trkpt>
      <trkpt lat="44.5176420" lon="6.9698650">
        <ele>2141.8</ele>
        <time>2017-07-24T08:25:21Z</time>
      </trkpt>
      <trkpt lat="44.5176570" lon="6.9698500">
        <ele>2142.0</ele>
        <time>2017-07-24T08:25:22Z</time>
      </trkpt>
      <trkpt lat="44.5177450" lon="6.9698020">
        <ele>2142.4</ele>
        <time>2017-07-24T08:25:27Z</time>
      </trkpt>
      <trkpt lat="44.5178220" lon="6.9697760">
        <ele>2142.8</ele>
        <time>2017-07-24T08:25:31Z</time>
      </trkpt>
      <trkpt lat="44.5178560" lon="6.9697510">
        <ele>2142.6</ele>
        <time>2017-07-24T08:25:33Z</time>
      </trkpt>
      <trkpt lat="44.5179410" lon="6.9696830">
        <ele>2142.6</ele>
        <time>2017-07-24T08:25:38Z</time>
      </trkpt>
      <trkpt lat="44.5179550" lon="6.9696580">
        <ele>2142.8</ele>
        <time>2017-07-24T08:25:39Z</time>
      </trkpt>
      <trkpt lat="44.5179680" lon="6.9696380">
        <ele>2143.0</ele>
        <time>2017-07-24T08:25:40Z</time>
      </trkpt>
      <trkpt lat="44.5180260" lon="6.9695530">
        <ele>2144.4</ele>
        <time>2017-07-24T08:25:44Z</time>
      </trkpt>
      <trkpt lat="44.5180520" lon="6.9695170">
        <ele>2145.2</ele>
        <time>2017-07-24T08:25:46Z</time>
      </trkpt>
      <trkpt lat="44.5180680" lon="6.9695030">
        <ele>2145.6</ele>
        <time>2017-07-24T08:25:47Z</time>
      </trkpt>
      <trkpt lat="44.5181500" lon="6.9694190">
        <ele>2146.6</ele>
        <time>2017-07-24T08:25:52Z</time>
      </trkpt>
      <trkpt lat="44.5181650" lon="6.9694020">
        <ele>2146.8</ele>
        <time>2017-07-24T08:25:53Z</time>
      </trkpt>
      <trkpt lat="44.5182590" lon="6.9693070">
        <ele>2148.0</ele>
        <time>2017-07-24T08:25:59Z</time>
      </trkpt>
      <trkpt lat="44.5183400" lon="6.9692180">
        <ele>2149.2</ele>
        <time>2017-07-24T08:26:04Z</time>
      </trkpt>
      <trkpt lat="44.5183730" lon="6.9691890">
        <ele>2149.8</ele>
        <time>2017-07-24T08:26:06Z</time>
      </trkpt>
      <trkpt lat="44.5183990" lon="6.9691530">
        <ele>2150.2</ele>
        <time>2017-07-24T08:26:08Z</time>
      </trkpt>
      <trkpt lat="44.5185020" lon="6.9690620">
        <ele>2151.2</ele>
        <time>2017-07-24T08:26:14Z</time>
      </trkpt>
      <trkpt lat="44.5185170" lon="6.9690450">
        <ele>2151.6</ele>
        <time>2017-07-24T08:26:15Z</time>
      </trkpt>
      <trkpt lat="44.5185620" lon="6.9690000">
        <ele>2152.2</ele>
        <time>2017-07-24T08:26:18Z</time>
      </trkpt>
      <trkpt lat="44.5186330" lon="6.9689530">
        <ele>2153.2</ele>
        <time>2017-07-24T08:26:22Z</time>
      </trkpt>
      <trkpt lat="44.5186670" lon="6.9689190">
        <ele>2154.0</ele>
        <time>2017-07-24T08:26:24Z</time>
      </trkpt>
      <trkpt lat="44.5186830" lon="6.9689010">
        <ele>2154.4</ele>
        <time>2017-07-24T08:26:25Z</time>
      </trkpt>
      <trkpt lat="44.5187520" lon="6.9688390">
        <ele>2155.4</ele>
        <time>2017-07-24T08:26:29Z</time>
      </trkpt>
      <trkpt lat="44.5187710" lon="6.9688270">
        <ele>2155.6</ele>
        <time>2017-07-24T08:26:30Z</time>
      </trkpt>
      <trkpt lat="44.5188190" lon="6.9687730">
        <ele>2156.4</ele>
        <time>2017-07-24T08:26:33Z</time>
      </trkpt>
      <trkpt lat="44.5188800" lon="6.9686970">
        <ele>2157.6</ele>
        <time>2017-07-24T08:26:37Z</time>
      </trkpt>
      <trkpt lat="44.5189620" lon="6.9686290">
        <ele>2159.0</ele>
        <time>2017-07-24T08:26:42Z</time>
      </trkpt>
      <trkpt lat="44.5190050" lon="6.9685960">
        <ele>2159.8</ele>
        <time>2017-07-24T08:26:45Z</time>
      </trkpt>
      <trkpt lat="44.5190180" lon="6.9685850">
        <ele>2160.0</ele>
        <time>2017-07-24T08:26:46Z</time>
      </trkpt>
      <trkpt lat="44.5190850" lon="6.9685170">
        <ele>2161.0</ele>
        <time>2017-07-24T08:26:51Z</time>
      </trkpt>
      <trkpt lat="44.5191300" lon="6.9684600">
        <ele>2162.2</ele>
        <time>2017-07-24T08:26:54Z</time>
      </trkpt>
      <trkpt lat="44.5191870" lon="6.9683850">
        <ele>2163.2</ele>
        <time>2017-07-24T08:26:58Z</time>
      </trkpt>
      <trkpt lat="44.5192080" lon="6.9683500">
        <ele>2163.8</ele>
        <time>2017-07-24T08:27:00Z</time>
      </trkpt>
      <trkpt lat="44.5192390" lon="6.9683090">
        <ele>2164.4</ele>
        <time>2017-07-24T08:27:02Z</time>
      </trkpt>
      <trkpt lat="44.5192960" lon="6.9682500">
        <ele>2165.6</ele>
        <time>2017-07-24T08:27:05Z</time>
      </trkpt>
      <trkpt lat="44.5193140" lon="6.9682310">
        <ele>2165.8</ele>
        <time>2017-07-24T08:27:06Z</time>
      </trkpt>
      <trkpt lat="44.5193490" lon="6.9681870">
        <ele>2166.6</ele>
        <time>2017-07-24T08:27:08Z</time>
      </trkpt>
      <trkpt lat="44.5194010" lon="6.9681290">
        <ele>2168.0</ele>
        <time>2017-07-24T08:27:11Z</time>
      </trkpt>
      <trkpt lat="44.5194340" lon="6.9680870">
        <ele>2168.8</ele>
        <time>2017-07-24T08:27:13Z</time>
      </trkpt>
      <trkpt lat="44.5194710" lon="6.9680480">
        <ele>2169.4</ele>
        <time>2017-07-24T08:27:15Z</time>
      </trkpt>
      <trkpt lat="44.5195350" lon="6.9679980">
        <ele>2170.6</ele>
        <time>2017-07-24T08:27:18Z</time>
      </trkpt>
      <trkpt lat="44.5195680" lon="6.9679650">
        <ele>2171.4</ele>
        <time>2017-07-24T08:27:20Z</time>
      </trkpt>
      <trkpt lat="44.5195830" lon="6.9679440">
        <ele>2171.8</ele>
        <time>2017-07-24T08:27:21Z</time>
      </trkpt>
      <trkpt lat="44.5196300" lon="6.9678750">
        <ele>2172.8</ele>
        <time>2017-07-24T08:27:24Z</time>
      </trkpt>
      <trkpt lat="44.5196820" lon="6.9678010">
        <ele>2174.0</ele>
        <time>2017-07-24T08:27:27Z</time>
      </trkpt>
      <trkpt lat="44.5197020" lon="6.9677870">
        <ele>2174.4</ele>
        <time>2017-07-24T08:27:28Z</time>
      </trkpt>
      <trkpt lat="44.5197420" lon="6.9677490">
        <ele>2175.2</ele>
        <time>2017-07-24T08:27:30Z</time>
      </trkpt>
      <trkpt lat="44.5197840" lon="6.9676850">
        <ele>2176.2</ele>
        <time>2017-07-24T08:27:33Z</time>
      </trkpt>
      <trkpt lat="44.5198170" lon="6.9676400">
        <ele>2177.4</ele>
        <time>2017-07-24T08:27:35Z</time>
      </trkpt>
      <trkpt lat="44.5199010" lon="6.9675340">
        <ele>2178.6</ele>
        <time>2017-07-24T08:27:40Z</time>
      </trkpt>
      <trkpt lat="44.5199470" lon="6.9674740">
        <ele>2179.2</ele>
        <time>2017-07-24T08:27:43Z</time>
      </trkpt>
      <trkpt lat="44.5200060" lon="6.9673960">
        <ele>2179.6</ele>
        <time>2017-07-24T08:27:47Z</time>
      </trkpt>
      <trkpt lat="44.5200630" lon="6.9673260">
        <ele>2180.8</ele>
        <time>2017-07-24T08:27:51Z</time>
      </trkpt>
      <trkpt lat="44.5201330" lon="6.9672390">
        <ele>2181.8</ele>
        <time>2017-07-24T08:27:56Z</time>
      </trkpt>
      <trkpt lat="44.5201870" lon="6.9671640">
        <ele>2182.8</ele>
        <time>2017-07-24T08:28:00Z</time>
      </trkpt>
      <trkpt lat="44.5202400" lon="6.9670820">
        <ele>2184.2</ele>
        <time>2017-07-24T08:28:04Z</time>
      </trkpt>
      <trkpt lat="44.5202520" lon="6.9670590">
        <ele>2184.4</ele>
        <time>2017-07-24T08:28:05Z</time>
      </trkpt>
      <trkpt lat="44.5202920" lon="6.9670000">
        <ele>2185.2</ele>
        <time>2017-07-24T08:28:08Z</time>
      </trkpt>
      <trkpt lat="44.5203060" lon="6.9669820">
        <ele>2185.4</ele>
        <time>2017-07-24T08:28:09Z</time>
      </trkpt>
      <trkpt lat="44.5203570" lon="6.9668970">
        <ele>2186.6</ele>
        <time>2017-07-24T08:28:13Z</time>
      </trkpt>
      <trkpt lat="44.5203950" lon="6.9668320">
        <ele>2187.2</ele>
        <time>2017-07-24T08:28:16Z</time>
      </trkpt>
      <trkpt lat="44.5204200" lon="6.9667950">
        <ele>2187.6</ele>
        <time>2017-07-24T08:28:18Z</time>
      </trkpt>
      <trkpt lat="44.5204980" lon="6.9666870">
        <ele>2188.6</ele>
        <time>2017-07-24T08:28:24Z</time>
      </trkpt>
      <trkpt lat="44.5205100" lon="6.9666690">
        <ele>2188.8</ele>
        <time>2017-07-24T08:28:25Z</time>
      </trkpt>
      <trkpt lat="44.5206060" lon="6.9665540">
        <ele>2190.0</ele>
        <time>2017-07-24T08:28:32Z</time>
      </trkpt>
      <trkpt lat="44.5206750" lon="6.9664780">
        <ele>2191.0</ele>
        <time>2017-07-24T08:28:37Z</time>
      </trkpt>
      <trkpt lat="44.5206890" lon="6.9664640">
        <ele>2191.2</ele>
        <time>2017-07-24T08:28:38Z</time>
      </trkpt>
      <trkpt lat="44.5207270" lon="6.9664160">
        <ele>2192.0</ele>
        <time>2017-07-24T08:28:41Z</time>
      </trkpt>
      <trkpt lat="44.5207750" lon="6.9663460">
        <ele>2193.2</ele>
        <time>2017-07-24T08:28:45Z</time>
      </trkpt>
      <trkpt lat="44.5207980" lon="6.9663110">
        <ele>2193.8</ele>
        <time>2017-07-24T08:28:47Z</time>
      </trkpt>
      <trkpt lat="44.5208160" lon="6.9662760">
        <ele>2194.2</ele>
        <time>2017-07-24T08:28:49Z</time>
      </trkpt>
      <trkpt lat="44.5208660" lon="6.9661800">
        <ele>2195.2</ele>
        <time>2017-07-24T08:28:54Z</time>
      </trkpt>
      <trkpt lat="44.5208770" lon="6.9661620">
        <ele>2195.6</ele>
        <time>2017-07-24T08:28:55Z</time>
      </trkpt>
      <trkpt lat="44.5209250" lon="6.9660660">
        <ele>2196.8</ele>
        <time>2017-07-24T08:29:00Z</time>
      </trkpt>
      <trkpt lat="44.5209780" lon="6.9659950">
        <ele>2198.0</ele>
        <time>2017-07-24T08:29:04Z</time>
      </trkpt>
      <trkpt lat="44.5209920" lon="6.9659760">
        <ele>2198.2</ele>
        <time>2017-07-24T08:29:05Z</time>
      </trkpt>
      <trkpt lat="44.5210050" lon="6.9659590">
        <ele>2198.4</ele>
        <time>2017-07-24T08:29:06Z</time>
      </trkpt>
      <trkpt lat="44.5210700" lon="6.9658780">
        <ele>2199.0</ele>
        <time>2017-07-24T08:29:11Z</time>
      </trkpt>
      <trkpt lat="44.5210980" lon="6.9658110">
        <ele>2199.6</ele>
        <time>2017-07-24T08:29:14Z</time>
      </trkpt>
      <trkpt lat="44.5211210" lon="6.9657750">
        <ele>2200.2</ele>
        <time>2017-07-24T08:29:16Z</time>
      </trkpt>
      <trkpt lat="44.5211740" lon="6.9656770">
        <ele>2201.2</ele>
        <time>2017-07-24T08:29:21Z</time>
      </trkpt>
      <trkpt lat="44.5211820" lon="6.9656530">
        <ele>2201.4</ele>
        <time>2017-07-24T08:29:22Z</time>
      </trkpt>
      <trkpt lat="44.5212370" lon="6.9655290">
        <ele>2202.4</ele>
        <time>2017-07-24T08:29:27Z</time>
      </trkpt>
      <trkpt lat="44.5212600" lon="6.9654600">
        <ele>2202.8</ele>
        <time>2017-07-24T08:29:30Z</time>
      </trkpt>
      <trkpt lat="44.5212840" lon="6.9653930">
        <ele>2203.4</ele>
        <time>2017-07-24T08:29:33Z</time>
      </trkpt>
      <trkpt lat="44.5213190" lon="6.9653300">
        <ele>2204.2</ele>
        <time>2017-07-24T08:29:36Z</time>
      </trkpt>
      <trkpt lat="44.5213300" lon="6.9653090">
        <ele>2204.4</ele>
        <time>2017-07-24T08:29:37Z</time>
      </trkpt>
      <trkpt lat="44.5213730" lon="6.9652000">
        <ele>2205.6</ele>
        <time>2017-07-24T08:29:42Z</time>
      </trkpt>
      <trkpt lat="44.5213750" lon="6.9651720">
        <ele>2206.0</ele>
        <time>2017-07-24T08:29:43Z</time>
      </trkpt>
      <trkpt lat="44.5213900" lon="6.9650570">
        <ele>2206.6</ele>
        <time>2017-07-24T08:29:47Z</time>
      </trkpt>
      <trkpt lat="44.5213980" lon="6.9649800">
        <ele>2207.4</ele>
        <time>2017-07-24T08:29:50Z</time>
      </trkpt>
      <trkpt lat="44.5214000" lon="6.9649350">
        <ele>2207.8</ele>
        <time>2017-07-24T08:29:52Z</time>
      </trkpt>
      <trkpt lat="44.5213940" lon="6.9648260">
        <ele>2208.2</ele>
        <time>2017-07-24T08:29:56Z</time>
      </trkpt>
      <trkpt lat="44.5213980" lon="6.9647500">
        <ele>2209.0</ele>
        <time>2017-07-24T08:29:59Z</time>
      </trkpt>
      <trkpt lat="44.5214080" lon="6.9646990">
        <ele>2209.4</ele>
        <time>2017-07-24T08:30:02Z</time>
      </trkpt>
      <trkpt lat="44.5214070" lon="6.9646490">
        <ele>2209.6</ele>
        <time>2017-07-24T08:30:04Z</time>
      </trkpt>
      <trkpt lat="44.5214090" lon="6.9645890">
        <ele>2210.0</ele>
        <time>2017-07-24T08:30:06Z</time>
      </trkpt>
      <trkpt lat="44.5214350" lon="6.9644980">
        <ele>2211.0</ele>
        <time>2017-07-24T08:30:10Z</time>
      </trkpt>
      <trkpt lat="44.5214450" lon="6.9644760">
        <ele>2211.2</ele>
        <time>2017-07-24T08:30:11Z</time>
      </trkpt>
      <trkpt lat="44.5215050" lon="6.9643720">
        <ele>2212.2</ele>
        <time>2017-07-24T08:30:16Z</time>
      </trkpt>
      <trkpt lat="44.5215200" lon="6.9643540">
        <ele>2212.4</ele>
        <time>2017-07-24T08:30:17Z</time>
      </trkpt>
      <trkpt lat="44.5216240" lon="6.9642290">
        <ele>2213.2</ele>
        <time>2017-07-24T08:30:23Z</time>
      </trkpt>
      <trkpt lat="44.5216460" lon="6.9642100">
        <ele>2213.4</ele>
        <time>2017-07-24T08:30:24Z</time>
      </trkpt>
      <trkpt lat="44.5217760" lon="6.9640920">
        <ele>2214.0</ele>
        <time>2017-07-24T08:30:31Z</time>
      </trkpt>
      <trkpt lat="44.5218540" lon="6.9640300">
        <ele>2214.2</ele>
        <time>2017-07-24T08:30:35Z</time>
      </trkpt>
      <trkpt lat="44.5219110" lon="6.9639810">
        <ele>2214.4</ele>
        <time>2017-07-24T08:30:38Z</time>
      </trkpt>
      <trkpt lat="44.5220200" lon="6.9638550">
        <ele>2215.2</ele>
        <time>2017-07-24T08:30:44Z</time>
      </trkpt>
      <trkpt lat="44.5220370" lon="6.9638280">
        <ele>2215.6</ele>
        <time>2017-07-24T08:30:45Z</time>
      </trkpt>
      <trkpt lat="44.5221090" lon="6.9637310">
        <ele>2216.4</ele>
        <time>2017-07-24T08:30:49Z</time>
      </trkpt>
      <trkpt lat="44.5221660" lon="6.9636270">
        <ele>2217.2</ele>
        <time>2017-07-24T08:30:53Z</time>
      </trkpt>
      <trkpt lat="44.5221930" lon="6.9635790">
        <ele>2217.6</ele>
        <time>2017-07-24T08:30:55Z</time>
      </trkpt>
      <trkpt lat="44.5222040" lon="6.9635500">
        <ele>2217.8</ele>
        <time>2017-07-24T08:30:56Z</time>
      </trkpt>
      <trkpt lat="44.5222360" lon="6.9634620">
        <ele>2218.4</ele>
        <time>2017-07-24T08:30:59Z</time>
      </trkpt>
      <trkpt lat="44.5222420" lon="6.9632950">
        <ele>2218.8</ele>
        <time>2017-07-24T08:31:04Z</time>
      </trkpt>
      <trkpt lat="44.5222420" lon="6.9632340">
        <ele>2219.0</ele>
        <time>2017-07-24T08:31:06Z</time>
      </trkpt>
      <trkpt lat="44.5222110" lon="6.9630620">
        <ele>2220.2</ele>
        <time>2017-07-24T08:31:12Z</time>
      </trkpt>
      <trkpt lat="44.5221850" lon="6.9629330">
        <ele>2220.8</ele>
        <time>2017-07-24T08:31:17Z</time>
      </trkpt>
      <trkpt lat="44.5221840" lon="6.9628260">
        <ele>2221.2</ele>
        <time>2017-07-24T08:31:21Z</time>
      </trkpt>
      <trkpt lat="44.5221890" lon="6.9627420">
        <ele>2221.8</ele>
        <time>2017-07-24T08:31:24Z</time>
      </trkpt>
      <trkpt lat="44.5222130" lon="6.9626270">
        <ele>2222.4</ele>
        <time>2017-07-24T08:31:28Z</time>
      </trkpt>
      <trkpt lat="44.5222270" lon="6.9625280">
        <ele>2222.8</ele>
        <time>2017-07-24T08:31:31Z</time>
      </trkpt>
      <trkpt lat="44.5223040" lon="6.9623660">
        <ele>2222.6</ele>
        <time>2017-07-24T08:31:38Z</time>
      </trkpt>
      <trkpt lat="44.5224020" lon="6.9622280">
        <ele>2223.4</ele>
        <time>2017-07-24T08:31:45Z</time>
      </trkpt>
      <trkpt lat="44.5224150" lon="6.9622080">
        <ele>2224.6</ele>
        <time>2017-07-24T08:31:46Z</time>
      </trkpt>
      <trkpt lat="44.5224880" lon="6.9620910">
        <ele>2225.6</ele>
        <time>2017-07-24T08:31:52Z</time>
      </trkpt>
      <trkpt lat="44.5225130" lon="6.9620520">
        <ele>2226.0</ele>
        <time>2017-07-24T08:31:54Z</time>
      </trkpt>
      <trkpt lat="44.5225550" lon="6.9619990">
        <ele>2226.8</ele>
        <time>2017-07-24T08:31:57Z</time>
      </trkpt>
      <trkpt lat="44.5225960" lon="6.9619090">
        <ele>2228.0</ele>
        <time>2017-07-24T08:32:01Z</time>
      </trkpt>
      <trkpt lat="44.5226060" lon="6.9618850">
        <ele>2228.4</ele>
        <time>2017-07-24T08:32:02Z</time>
      </trkpt>
      <trkpt lat="44.5226220" lon="6.9618090">
        <ele>2229.2</ele>
        <time>2017-07-24T08:32:05Z</time>
      </trkpt>
      <trkpt lat="44.5226460" lon="6.9616760">
        <ele>2230.0</ele>
        <time>2017-07-24T08:32:10Z</time>
      </trkpt>
      <trkpt lat="44.5226520" lon="6.9616490">
        <ele>2230.2</ele>
        <time>2017-07-24T08:32:11Z</time>
      </trkpt>
      <trkpt lat="44.5227220" lon="6.9615340">
        <ele>2231.4</ele>
        <time>2017-07-24T08:32:17Z</time>
      </trkpt>
      <trkpt lat="44.5228060" lon="6.9614270">
        <ele>2232.4</ele>
        <time>2017-07-24T08:32:23Z</time>
      </trkpt>
      <trkpt lat="44.5228280" lon="6.9613890">
        <ele>2233.0</ele>
        <time>2017-07-24T08:32:25Z</time>
      </trkpt>
      <trkpt lat="44.5228650" lon="6.9613370">
        <ele>2233.6</ele>
        <time>2017-07-24T08:32:28Z</time>
      </trkpt>
      <trkpt lat="44.5229290" lon="6.9612490">
        <ele>2234.8</ele>
        <time>2017-07-24T08:32:33Z</time>
      </trkpt>
      <trkpt lat="44.5229960" lon="6.9611390">
        <ele>2235.8</ele>
        <time>2017-07-24T08:32:39Z</time>
      </trkpt>
      <trkpt lat="44.5230060" lon="6.9611160">
        <ele>2236.0</ele>
        <time>2017-07-24T08:32:40Z</time>
      </trkpt>
      <trkpt lat="44.5230580" lon="6.9609280">
        <ele>2237.0</ele>
        <time>2017-07-24T08:32:48Z</time>
      </trkpt>
      <trkpt lat="44.5230640" lon="6.9609080">
        <ele>2237.0</ele>
        <time>2017-07-24T08:32:49Z</time>
      </trkpt>
      <trkpt lat="44.5230950" lon="6.9608000">
        <ele>2238.0</ele>
        <time>2017-07-24T08:32:54Z</time>
      </trkpt>
      <trkpt lat="44.5231150" lon="6.9607060">
        <ele>2238.6</ele>
        <time>2017-07-24T08:32:58Z</time>
      </trkpt>
      <trkpt lat="44.5231230" lon="6.9606320">
        <ele>2239.2</ele>
        <time>2017-07-24T08:33:01Z</time>
      </trkpt>
      <trkpt lat="44.5231420" lon="6.9605370">
        <ele>2240.0</ele>
        <time>2017-07-24T08:33:05Z</time>
      </trkpt>
      <trkpt lat="44.5231460" lon="6.9605120">
        <ele>2240.2</ele>
        <time>2017-07-24T08:33:06Z</time>
      </trkpt>
      <trkpt lat="44.5231880" lon="6.9604100">
        <ele>2241.2</ele>
        <time>2017-07-24T08:33:11Z</time>
      </trkpt>
      <trkpt lat="44.5232060" lon="6.9603720">
        <ele>2242.2</ele>
        <time>2017-07-24T08:33:13Z</time>
      </trkpt>
      <trkpt lat="44.5232170" lon="6.9603500">
        <ele>2242.4</ele>
        <time>2017-07-24T08:33:14Z</time>
      </trkpt>
      <trkpt lat="44.5232790" lon="6.9602500">
        <ele>2243.6</ele>
        <time>2017-07-24T08:33:19Z</time>
      </trkpt>
      <trkpt lat="44.5232890" lon="6.9602250">
        <ele>2243.6</ele>
        <time>2017-07-24T08:33:20Z</time>
      </trkpt>
      <trkpt lat="44.5233720" lon="6.9600860">
        <ele>2244.6</ele>
        <time>2017-07-24T08:33:27Z</time>
      </trkpt>
      <trkpt lat="44.5234500" lon="6.9599440">
        <ele>2245.6</ele>
        <time>2017-07-24T08:33:34Z</time>
      </trkpt>
      <trkpt lat="44.5234550" lon="6.9599220">
        <ele>2245.8</ele>
        <time>2017-07-24T08:33:35Z</time>
      </trkpt>
      <trkpt lat="44.5234660" lon="6.9598800">
        <ele>2246.6</ele>
        <time>2017-07-24T08:33:37Z</time>
      </trkpt>
      <trkpt lat="44.5234860" lon="6.9598360">
        <ele>2247.0</ele>
        <time>2017-07-24T08:33:39Z</time>
      </trkpt>
      <trkpt lat="44.5234960" lon="6.9598140">
        <ele>2247.2</ele>
        <time>2017-07-24T08:33:40Z</time>
      </trkpt>
      <trkpt lat="44.5235370" lon="6.9597280">
        <ele>2248.0</ele>
        <time>2017-07-24T08:33:44Z</time>
      </trkpt>
      <trkpt lat="44.5235760" lon="6.9596450">
        <ele>2248.6</ele>
        <time>2017-07-24T08:33:48Z</time>
      </trkpt>
      <trkpt lat="44.5236030" lon="6.9596150">
        <ele>2249.2</ele>
        <time>2017-07-24T08:33:50Z</time>
      </trkpt>
      <trkpt lat="44.5236410" lon="6.9595440">
        <ele>2250.0</ele>
        <time>2017-07-24T08:33:54Z</time>
      </trkpt>
      <trkpt lat="44.5236610" lon="6.9595330">
        <ele>2250.2</ele>
        <time>2017-07-24T08:33:55Z</time>
      </trkpt>
      <trkpt lat="44.5237270" lon="6.9594790">
        <ele>2251.4</ele>
        <time>2017-07-24T08:33:59Z</time>
      </trkpt>
      <trkpt lat="44.5237440" lon="6.9594730">
        <ele>2251.6</ele>
        <time>2017-07-24T08:34:00Z</time>
      </trkpt>
      <trkpt lat="44.5237600" lon="6.9594660">
        <ele>2252.0</ele>
        <time>2017-07-24T08:34:01Z</time>
      </trkpt>
      <trkpt lat="44.5238120" lon="6.9594430">
        <ele>2252.4</ele>
        <time>2017-07-24T08:34:04Z</time>
      </trkpt>
      <trkpt lat="44.5239130" lon="6.9593990">
        <ele>2253.2</ele>
        <time>2017-07-24T08:34:09Z</time>
      </trkpt>
      <trkpt lat="44.5239480" lon="6.9593930">
        <ele>2253.4</ele>
        <time>2017-07-24T08:34:11Z</time>
      </trkpt>
      <trkpt lat="44.5240260" lon="6.9593700">
        <ele>2254.2</ele>
        <time>2017-07-24T08:34:15Z</time>
      </trkpt>
      <trkpt lat="44.5240810" lon="6.9593560">
        <ele>2254.6</ele>
        <time>2017-07-24T08:34:18Z</time>
      </trkpt>
      <trkpt lat="44.5241440" lon="6.9593290">
        <ele>2255.2</ele>
        <time>2017-07-24T08:34:22Z</time>
      </trkpt>
      <trkpt lat="44.5242000" lon="6.9593310">
        <ele>2255.6</ele>
        <time>2017-07-24T08:34:25Z</time>
      </trkpt>
      <trkpt lat="44.5242770" lon="6.9593200">
        <ele>2256.0</ele>
        <time>2017-07-24T08:34:29Z</time>
      </trkpt>
      <trkpt lat="44.5244150" lon="6.9593040">
        <ele>2256.6</ele>
        <time>2017-07-24T08:34:36Z</time>
      </trkpt>
      <trkpt lat="44.5244340" lon="6.9593010">
        <ele>2256.8</ele>
        <time>2017-07-24T08:34:37Z</time>
      </trkpt>
      <trkpt lat="44.5245290" lon="6.9592880">
        <ele>2257.8</ele>
        <time>2017-07-24T08:34:42Z</time>
      </trkpt>
      <trkpt lat="44.5245470" lon="6.9592830">
        <ele>2258.2</ele>
        <time>2017-07-24T08:34:43Z</time>
      </trkpt>
      <trkpt lat="44.5245830" lon="6.9592690">
        <ele>2259.0</ele>
        <time>2017-07-24T08:34:45Z</time>
      </trkpt>
      <trkpt lat="44.5246430" lon="6.9592610">
        <ele>2260.2</ele>
        <time>2017-07-24T08:34:48Z</time>
      </trkpt>
      <trkpt lat="44.5247000" lon="6.9592480">
        <ele>2261.2</ele>
        <time>2017-07-24T08:34:51Z</time>
      </trkpt>
      <trkpt lat="44.5247170" lon="6.9592410">
        <ele>2261.6</ele>
        <time>2017-07-24T08:34:52Z</time>
      </trkpt>
      <trkpt lat="44.5247530" lon="6.9592310">
        <ele>2262.4</ele>
        <time>2017-07-24T08:34:54Z</time>
      </trkpt>
      <trkpt lat="44.5248210" lon="6.9591990">
        <ele>2263.4</ele>
        <time>2017-07-24T08:34:58Z</time>
      </trkpt>
      <trkpt lat="44.5248610" lon="6.9591920">
        <ele>2263.6</ele>
        <time>2017-07-24T08:35:00Z</time>
      </trkpt>
      <trkpt lat="44.5249650" lon="6.9591230">
        <ele>2264.2</ele>
        <time>2017-07-24T08:35:06Z</time>
      </trkpt>
      <trkpt lat="44.5250780" lon="6.9590080">
        <ele>2263.8</ele>
        <time>2017-07-24T08:35:13Z</time>
      </trkpt>
      <trkpt lat="44.5251860" lon="6.9588790">
        <ele>2264.2</ele>
        <time>2017-07-24T08:35:21Z</time>
      </trkpt>
      <trkpt lat="44.5252210" lon="6.9588340">
        <ele>2264.4</ele>
        <time>2017-07-24T08:35:24Z</time>
      </trkpt>
      <trkpt lat="44.5252670" lon="6.9587560">
        <ele>2265.4</ele>
        <time>2017-07-24T08:35:28Z</time>
      </trkpt>
      <trkpt lat="44.5252770" lon="6.9587390">
        <ele>2265.6</ele>
        <time>2017-07-24T08:35:29Z</time>
      </trkpt>
      <trkpt lat="44.5253390" lon="6.9586390">
        <ele>2266.8</ele>
        <time>2017-07-24T08:35:35Z</time>
      </trkpt>
      <trkpt lat="44.5253570" lon="6.9585950">
        <ele>2267.6</ele>
        <time>2017-07-24T08:35:37Z</time>
      </trkpt>
      <trkpt lat="44.5253730" lon="6.9585520">
        <ele>2268.0</ele>
        <time>2017-07-24T08:35:39Z</time>
      </trkpt>
      <trkpt lat="44.5254090" lon="6.9584660">
        <ele>2269.2</ele>
        <time>2017-07-24T08:35:43Z</time>
      </trkpt>
      <trkpt lat="44.5254180" lon="6.9584260">
        <ele>2269.8</ele>
        <time>2017-07-24T08:35:45Z</time>
      </trkpt>
      <trkpt lat="44.5254280" lon="6.9583870">
        <ele>2270.6</ele>
        <time>2017-07-24T08:35:47Z</time>
      </trkpt>
      <trkpt lat="44.5254710" lon="6.9582960">
        <ele>2271.6</ele>
        <time>2017-07-24T08:35:51Z</time>
      </trkpt>
      <trkpt lat="44.5254810" lon="6.9582790">
        <ele>2271.8</ele>
        <time>2017-07-24T08:35:52Z</time>
      </trkpt>
      <trkpt lat="44.5254920" lon="6.9582630">
        <ele>2272.0</ele>
        <time>2017-07-24T08:35:53Z</time>
      </trkpt>
      <trkpt lat="44.5255190" lon="6.9582090">
        <ele>2272.8</ele>
        <time>2017-07-24T08:35:56Z</time>
      </trkpt>
      <trkpt lat="44.5255490" lon="6.9581280">
        <ele>2274.4</ele>
        <time>2017-07-24T08:36:00Z</time>
      </trkpt>
      <trkpt lat="44.5255530" lon="6.9581010">
        <ele>2274.6</ele>
        <time>2017-07-24T08:36:01Z</time>
      </trkpt>
      <trkpt lat="44.5255570" lon="6.9580250">
        <ele>2275.4</ele>
        <time>2017-07-24T08:36:04Z</time>
      </trkpt>
      <trkpt lat="44.5255650" lon="6.9579250">
        <ele>2276.6</ele>
        <time>2017-07-24T08:36:08Z</time>
      </trkpt>
      <trkpt lat="44.5255660" lon="6.9578990">
        <ele>2276.8</ele>
        <time>2017-07-24T08:36:09Z</time>
      </trkpt>
      <trkpt lat="44.5255670" lon="6.9578080">
        <ele>2277.8</ele>
        <time>2017-07-24T08:36:13Z</time>
      </trkpt>
      <trkpt lat="44.5255620" lon="6.9577370">
        <ele>2278.6</ele>
        <time>2017-07-24T08:36:16Z</time>
      </trkpt>
      <trkpt lat="44.5255580" lon="6.9576960">
        <ele>2278.8</ele>
        <time>2017-07-24T08:36:18Z</time>
      </trkpt>
      <trkpt lat="44.5255330" lon="6.9576000">
        <ele>2279.0</ele>
        <time>2017-07-24T08:36:23Z</time>
      </trkpt>
      <trkpt lat="44.5255050" lon="6.9575320">
        <ele>2279.2</ele>
        <time>2017-07-24T08:36:27Z</time>
      </trkpt>
      <trkpt lat="44.5255020" lon="6.9574730">
        <ele>2279.6</ele>
        <time>2017-07-24T08:36:29Z</time>
      </trkpt>
      <trkpt lat="44.5254890" lon="6.9573420">
        <ele>2280.0</ele>
        <time>2017-07-24T08:36:34Z</time>
      </trkpt>
      <trkpt lat="44.5254760" lon="6.9572990">
        <ele>2280.2</ele>
        <time>2017-07-24T08:36:36Z</time>
      </trkpt>
      <trkpt lat="44.5254690" lon="6.9572550">
        <ele>2280.4</ele>
        <time>2017-07-24T08:36:38Z</time>
      </trkpt>
      <trkpt lat="44.5254560" lon="6.9572190">
        <ele>2281.0</ele>
        <time>2017-07-24T08:36:40Z</time>
      </trkpt>
      <trkpt lat="44.5254470" lon="6.9571630">
        <ele>2281.6</ele>
        <time>2017-07-24T08:36:43Z</time>
      </trkpt>
      <trkpt lat="44.5254250" lon="6.9570700">
        <ele>2282.4</ele>
        <time>2017-07-24T08:36:48Z</time>
      </trkpt>
      <trkpt lat="44.5254140" lon="6.9570300">
        <ele>2283.0</ele>
        <time>2017-07-24T08:36:50Z</time>
      </trkpt>
      <trkpt lat="44.5254040" lon="6.9569870">
        <ele>2283.4</ele>
        <time>2017-07-24T08:36:52Z</time>
      </trkpt>
      <trkpt lat="44.5253840" lon="6.9568490">
        <ele>2284.6</ele>
        <time>2017-07-24T08:36:58Z</time>
      </trkpt>
      <trkpt lat="44.5253680" lon="6.9567650">
        <ele>2285.6</ele>
        <time>2017-07-24T08:37:02Z</time>
      </trkpt>
      <trkpt lat="44.5253600" lon="6.9567170">
        <ele>2286.4</ele>
        <time>2017-07-24T08:37:04Z</time>
      </trkpt>
      <trkpt lat="44.5253560" lon="6.9566910">
        <ele>2286.6</ele>
        <time>2017-07-24T08:37:05Z</time>
      </trkpt>
      <trkpt lat="44.5253410" lon="6.9566060">
        <ele>2288.0</ele>
        <time>2017-07-24T08:37:08Z</time>
      </trkpt>
      <trkpt lat="44.5253200" lon="6.9565220">
        <ele>2289.4</ele>
        <time>2017-07-24T08:37:11Z</time>
      </trkpt>
      <trkpt lat="44.5253090" lon="6.9564930">
        <ele>2290.2</ele>
        <time>2017-07-24T08:37:12Z</time>
      </trkpt>
      <trkpt lat="44.5252930" lon="6.9564690">
        <ele>2290.8</ele>
        <time>2017-07-24T08:37:13Z</time>
      </trkpt>
      <trkpt lat="44.5252480" lon="6.9563990">
        <ele>2292.0</ele>
        <time>2017-07-24T08:37:16Z</time>
      </trkpt>
      <trkpt lat="44.5252050" lon="6.9563190">
        <ele>2293.2</ele>
        <time>2017-07-24T08:37:19Z</time>
      </trkpt>
      <trkpt lat="44.5251920" lon="6.9562910">
        <ele>2293.6</ele>
        <time>2017-07-24T08:37:20Z</time>
      </trkpt>
      <trkpt lat="44.5251690" lon="6.9562130">
        <ele>2294.4</ele>
        <time>2017-07-24T08:37:23Z</time>
      </trkpt>
      <trkpt lat="44.5251400" lon="6.9561030">
        <ele>2295.8</ele>
        <time>2017-07-24T08:37:27Z</time>
      </trkpt>
      <trkpt lat="44.5251270" lon="6.9560270">
        <ele>2296.8</ele>
        <time>2017-07-24T08:37:30Z</time>
      </trkpt>
      <trkpt lat="44.5250980" lon="6.9559200">
        <ele>2297.8</ele>
        <time>2017-07-24T08:37:34Z</time>
      </trkpt>
      <trkpt lat="44.5250890" lon="6.9558970">
        <ele>2298.2</ele>
        <time>2017-07-24T08:37:35Z</time>
      </trkpt>
      <trkpt lat="44.5250860" lon="6.9558730">
        <ele>2299.0</ele>
        <time>2017-07-24T08:37:36Z</time>
      </trkpt>
      <trkpt lat="44.5250880" lon="6.9557130">
        <ele>2300.0</ele>
        <time>2017-07-24T08:37:41Z</time>
      </trkpt>
      <trkpt lat="44.5250930" lon="6.9556830">
        <ele>2300.0</ele>
        <time>2017-07-24T08:37:42Z</time>
      </trkpt>
      <trkpt lat="44.5250890" lon="6.9554790">
        <ele>2301.0</ele>
        <time>2017-07-24T08:37:48Z</time>
      </trkpt>
      <trkpt lat="44.5251030" lon="6.9554050">
        <ele>2301.6</ele>
        <time>2017-07-24T08:37:50Z</time>
      </trkpt>
      <trkpt lat="44.5251210" lon="6.9553230">
        <ele>2302.2</ele>
        <time>2017-07-24T08:37:53Z</time>
      </trkpt>
      <trkpt lat="44.5251350" lon="6.9552400">
        <ele>2302.8</ele>
        <time>2017-07-24T08:37:56Z</time>
      </trkpt>
      <trkpt lat="44.5251480" lon="6.9551600">
        <ele>2303.4</ele>
        <time>2017-07-24T08:37:59Z</time>
      </trkpt>
      <trkpt lat="44.5251490" lon="6.9550750">
        <ele>2304.4</ele>
        <time>2017-07-24T08:38:02Z</time>
      </trkpt>
      <trkpt lat="44.5251490" lon="6.9550240">
        <ele>2304.8</ele>
        <time>2017-07-24T08:38:04Z</time>
      </trkpt>
      <trkpt lat="44.5251320" lon="6.9549010">
        <ele>2305.6</ele>
        <time>2017-07-24T08:38:09Z</time>
      </trkpt>
      <trkpt lat="44.5251160" lon="6.9548250">
        <ele>2306.2</ele>
        <time>2017-07-24T08:38:12Z</time>
      </trkpt>
      <trkpt lat="44.5250930" lon="6.9547190">
        <ele>2306.8</ele>
        <time>2017-07-24T08:38:16Z</time>
      </trkpt>
      <trkpt lat="44.5250570" lon="6.9546330">
        <ele>2307.8</ele>
        <time>2017-07-24T08:38:20Z</time>
      </trkpt>
      <trkpt lat="44.5250560" lon="6.9546070">
        <ele>2308.2</ele>
        <time>2017-07-24T08:38:21Z</time>
      </trkpt>
      <trkpt lat="44.5250460" lon="6.9545270">
        <ele>2309.4</ele>
        <time>2017-07-24T08:38:24Z</time>
      </trkpt>
      <trkpt lat="44.5250410" lon="6.9544460">
        <ele>2310.4</ele>
        <time>2017-07-24T08:38:27Z</time>
      </trkpt>
      <trkpt lat="44.5250030" lon="6.9543650">
        <ele>2311.6</ele>
        <time>2017-07-24T08:38:31Z</time>
      </trkpt>
      <trkpt lat="44.5249840" lon="6.9542710">
        <ele>2312.6</ele>
        <time>2017-07-24T08:38:35Z</time>
      </trkpt>
      <trkpt lat="44.5249670" lon="6.9541710">
        <ele>2314.0</ele>
        <time>2017-07-24T08:38:39Z</time>
      </trkpt>
      <trkpt lat="44.5249430" lon="6.9540540">
        <ele>2314.8</ele>
        <time>2017-07-24T08:38:43Z</time>
      </trkpt>
      <trkpt lat="44.5249370" lon="6.9540280">
        <ele>2315.0</ele>
        <time>2017-07-24T08:38:44Z</time>
      </trkpt>
      <trkpt lat="44.5249150" lon="6.9539250">
        <ele>2316.2</ele>
        <time>2017-07-24T08:38:48Z</time>
      </trkpt>
      <trkpt lat="44.5249030" lon="6.9538730">
        <ele>2316.6</ele>
        <time>2017-07-24T08:38:50Z</time>
      </trkpt>
      <trkpt lat="44.5248440" lon="6.9537420">
        <ele>2317.2</ele>
        <time>2017-07-24T08:38:56Z</time>
      </trkpt>
      <trkpt lat="44.5247630" lon="6.9536180">
        <ele>2318.0</ele>
        <time>2017-07-24T08:39:03Z</time>
      </trkpt>
      <trkpt lat="44.5247330" lon="6.9535870">
        <ele>2318.4</ele>
        <time>2017-07-24T08:39:05Z</time>
      </trkpt>
      <trkpt lat="44.5246630" lon="6.9535200">
        <ele>2319.6</ele>
        <time>2017-07-24T08:39:10Z</time>
      </trkpt>
      <trkpt lat="44.5245880" lon="6.9534420">
        <ele>2320.6</ele>
        <time>2017-07-24T08:39:15Z</time>
      </trkpt>
      <trkpt lat="44.5245480" lon="6.9533780">
        <ele>2320.8</ele>
        <time>2017-07-24T08:39:18Z</time>
      </trkpt>
      <trkpt lat="44.5245300" lon="6.9532520">
        <ele>2321.8</ele>
        <time>2017-07-24T08:39:23Z</time>
      </trkpt>
      <trkpt lat="44.5245270" lon="6.9532310">
        <ele>2321.8</ele>
        <time>2017-07-24T08:39:24Z</time>
      </trkpt>
      <trkpt lat="44.5245350" lon="6.9532000">
        <ele>2322.2</ele>
        <time>2017-07-24T08:39:25Z</time>
      </trkpt>
      <trkpt lat="44.5245570" lon="6.9531460">
        <ele>2322.8</ele>
        <time>2017-07-24T08:39:27Z</time>
      </trkpt>
      <trkpt lat="44.5245690" lon="6.9531210">
        <ele>2323.0</ele>
        <time>2017-07-24T08:39:28Z</time>
      </trkpt>
      <trkpt lat="44.5246200" lon="6.9530310">
        <ele>2324.0</ele>
        <time>2017-07-24T08:39:32Z</time>
      </trkpt>
      <trkpt lat="44.5246400" lon="6.9530140">
        <ele>2324.2</ele>
        <time>2017-07-24T08:39:33Z</time>
      </trkpt>
      <trkpt lat="44.5246530" lon="6.9529910">
        <ele>2324.4</ele>
        <time>2017-07-24T08:39:34Z</time>
      </trkpt>
      <trkpt lat="44.5246760" lon="6.9529520">
        <ele>2325.0</ele>
        <time>2017-07-24T08:39:36Z</time>
      </trkpt>
      <trkpt lat="44.5246890" lon="6.9529410">
        <ele>2325.4</ele>
        <time>2017-07-24T08:39:37Z</time>
      </trkpt>
      <trkpt lat="44.5247280" lon="6.9528800">
        <ele>2325.6</ele>
        <time>2017-07-24T08:39:40Z</time>
      </trkpt>
      <trkpt lat="44.5247770" lon="6.9527970">
        <ele>2326.2</ele>
        <time>2017-07-24T08:39:44Z</time>
      </trkpt>
      <trkpt lat="44.5248110" lon="6.9527290">
        <ele>2326.6</ele>
        <time>2017-07-24T08:39:47Z</time>
      </trkpt>
      <trkpt lat="44.5248430" lon="6.9526740">
        <ele>2327.2</ele>
        <time>2017-07-24T08:39:50Z</time>
      </trkpt>
      <trkpt lat="44.5248950" lon="6.9526030">
        <ele>2327.4</ele>
        <time>2017-07-24T08:39:54Z</time>
      </trkpt>
      <trkpt lat="44.5249330" lon="6.9525290">
        <ele>2328.4</ele>
        <time>2017-07-24T08:39:57Z</time>
      </trkpt>
      <trkpt lat="44.5249580" lon="6.9524540">
        <ele>2329.6</ele>
        <time>2017-07-24T08:40:00Z</time>
      </trkpt>
      <trkpt lat="44.5249680" lon="6.9524280">
        <ele>2329.8</ele>
        <time>2017-07-24T08:40:01Z</time>
      </trkpt>
      <trkpt lat="44.5250010" lon="6.9523380">
        <ele>2330.8</ele>
        <time>2017-07-24T08:40:05Z</time>
      </trkpt>
      <trkpt lat="44.5250430" lon="6.9522030">
        <ele>2331.6</ele>
        <time>2017-07-24T08:40:10Z</time>
      </trkpt>
      <trkpt lat="44.5250640" lon="6.9521360">
        <ele>2331.8</ele>
        <time>2017-07-24T08:40:13Z</time>
      </trkpt>
      <trkpt lat="44.5251260" lon="6.9519470">
        <ele>2332.8</ele>
        <time>2017-07-24T08:40:20Z</time>
      </trkpt>
      <trkpt lat="44.5251330" lon="6.9519160">
        <ele>2333.0</ele>
        <time>2017-07-24T08:40:21Z</time>
      </trkpt>
      <trkpt lat="44.5251830" lon="6.9517900">
        <ele>2333.6</ele>
        <time>2017-07-24T08:40:26Z</time>
      </trkpt>
      <trkpt lat="44.5252110" lon="6.9517010">
        <ele>2334.0</ele>
        <time>2017-07-24T08:40:29Z</time>
      </trkpt>
      <trkpt lat="44.5252660" lon="6.9515650">
        <ele>2335.2</ele>
        <time>2017-07-24T08:40:34Z</time>
      </trkpt>
      <trkpt lat="44.5253450" lon="6.9514030">
        <ele>2336.2</ele>
        <time>2017-07-24T08:40:41Z</time>
      </trkpt>
      <trkpt lat="44.5253600" lon="6.9513800">
        <ele>2336.4</ele>
        <time>2017-07-24T08:40:42Z</time>
      </trkpt>
      <trkpt lat="44.5254370" lon="6.9512500">
        <ele>2337.4</ele>
        <time>2017-07-24T08:40:48Z</time>
      </trkpt>
      <trkpt lat="44.5254620" lon="6.9512120">
        <ele>2337.4</ele>
        <time>2017-07-24T08:40:50Z</time>
      </trkpt>
      <trkpt lat="44.5255670" lon="6.9510350">
        <ele>2338.2</ele>
        <time>2017-07-24T08:40:58Z</time>
      </trkpt>
      <trkpt lat="44.5255790" lon="6.9510130">
        <ele>2338.4</ele>
        <time>2017-07-24T08:40:59Z</time>
      </trkpt>
      <trkpt lat="44.5256330" lon="6.9509350">
        <ele>2338.8</ele>
        <time>2017-07-24T08:41:03Z</time>
      </trkpt>
      <trkpt lat="44.5256400" lon="6.9509110">
        <ele>2338.8</ele>
        <time>2017-07-24T08:41:04Z</time>
      </trkpt>
      <trkpt lat="44.5256630" lon="6.9508650">
        <ele>2339.0</ele>
        <time>2017-07-24T08:41:06Z</time>
      </trkpt>
      <trkpt lat="44.5257290" lon="6.9507530">
        <ele>2339.4</ele>
        <time>2017-07-24T08:41:11Z</time>
      </trkpt>
      <trkpt lat="44.5257720" lon="6.9507020">
        <ele>2339.8</ele>
        <time>2017-07-24T08:41:14Z</time>
      </trkpt>
      <trkpt lat="44.5258570" lon="6.9506360">
        <ele>2340.4</ele>
        <time>2017-07-24T08:41:19Z</time>
      </trkpt>
      <trkpt lat="44.5258910" lon="6.9506050">
        <ele>2340.8</ele>
        <time>2017-07-24T08:41:21Z</time>
      </trkpt>
      <trkpt lat="44.5259580" lon="6.9505450">
        <ele>2341.6</ele>
        <time>2017-07-24T08:41:25Z</time>
      </trkpt>
      <trkpt lat="44.5260410" lon="6.9504720">
        <ele>2342.6</ele>
        <time>2017-07-24T08:41:30Z</time>
      </trkpt>
      <trkpt lat="44.5260590" lon="6.9504560">
        <ele>2342.8</ele>
        <time>2017-07-24T08:41:31Z</time>
      </trkpt>
      <trkpt lat="44.5261420" lon="6.9503990">
        <ele>2344.4</ele>
        <time>2017-07-24T08:41:36Z</time>
      </trkpt>
      <trkpt lat="44.5261590" lon="6.9503900">
        <ele>2344.6</ele>
        <time>2017-07-24T08:41:37Z</time>
      </trkpt>
      <trkpt lat="44.5262090" lon="6.9503510">
        <ele>2345.6</ele>
        <time>2017-07-24T08:41:40Z</time>
      </trkpt>
      <trkpt lat="44.5262730" lon="6.9502960">
        <ele>2346.4</ele>
        <time>2017-07-24T08:41:44Z</time>
      </trkpt>
      <trkpt lat="44.5262900" lon="6.9502860">
        <ele>2346.6</ele>
        <time>2017-07-24T08:41:45Z</time>
      </trkpt>
      <trkpt lat="44.5263500" lon="6.9502180">
        <ele>2348.0</ele>
        <time>2017-07-24T08:41:49Z</time>
      </trkpt>
      <trkpt lat="44.5263680" lon="6.9502010">
        <ele>2348.4</ele>
        <time>2017-07-24T08:41:50Z</time>
      </trkpt>
      <trkpt lat="44.5264240" lon="6.9501590">
        <ele>2349.0</ele>
        <time>2017-07-24T08:41:53Z</time>
      </trkpt>
      <trkpt lat="44.5264790" lon="6.9501140">
        <ele>2350.0</ele>
        <time>2017-07-24T08:41:56Z</time>
      </trkpt>
      <trkpt lat="44.5264950" lon="6.9501050">
        <ele>2350.2</ele>
        <time>2017-07-24T08:41:57Z</time>
      </trkpt>
      <trkpt lat="44.5265730" lon="6.9500570">
        <ele>2351.8</ele>
        <time>2017-07-24T08:42:01Z</time>
      </trkpt>
      <trkpt lat="44.5265900" lon="6.9500420">
        <ele>2352.2</ele>
        <time>2017-07-24T08:42:02Z</time>
      </trkpt>
      <trkpt lat="44.5266570" lon="6.9499790">
        <ele>2353.0</ele>
        <time>2017-07-24T08:42:06Z</time>
      </trkpt>
      <trkpt lat="44.5266880" lon="6.9499480">
        <ele>2353.4</ele>
        <time>2017-07-24T08:42:08Z</time>
      </trkpt>
      <trkpt lat="44.5267400" lon="6.9499130">
        <ele>2354.0</ele>
        <time>2017-07-24T08:42:11Z</time>
      </trkpt>
      <trkpt lat="44.5268020" lon="6.9498690">
        <ele>2354.8</ele>
        <time>2017-07-24T08:42:15Z</time>
      </trkpt>
      <trkpt lat="44.5268310" lon="6.9498410">
        <ele>2355.0</ele>
        <time>2017-07-24T08:42:17Z</time>
      </trkpt>
      <trkpt lat="44.5269400" lon="6.9497680">
        <ele>2354.8</ele>
        <time>2017-07-24T08:42:24Z</time>
      </trkpt>
      <trkpt lat="44.5269710" lon="6.9497470">
        <ele>2354.0</ele>
        <time>2017-07-24T08:42:26Z</time>
      </trkpt>
      <trkpt lat="44.5270110" lon="6.9497130">
        <ele>2353.6</ele>
        <time>2017-07-24T08:42:29Z</time>
      </trkpt>
      <trkpt lat="44.5270470" lon="6.9496980">
        <ele>2353.2</ele>
        <time>2017-07-24T08:42:31Z</time>
      </trkpt>
      <trkpt lat="44.5270650" lon="6.9496950">
        <ele>2353.0</ele>
        <time>2017-07-24T08:42:32Z</time>
      </trkpt>
      <trkpt lat="44.5271700" lon="6.9497290">
        <ele>2352.0</ele>
        <time>2017-07-24T08:42:38Z</time>
      </trkpt>
      <trkpt lat="44.5272070" lon="6.9497420">
        <ele>2351.8</ele>
        <time>2017-07-24T08:42:40Z</time>
      </trkpt>
      <trkpt lat="44.5272820" lon="6.9497870">
        <ele>2352.2</ele>
        <time>2017-07-24T08:42:44Z</time>
      </trkpt>
      <trkpt lat="44.5273750" lon="6.9498580">
        <ele>2352.8</ele>
        <time>2017-07-24T08:42:50Z</time>
      </trkpt>
      <trkpt lat="44.5273920" lon="6.9498660">
        <ele>2353.0</ele>
        <time>2017-07-24T08:42:51Z</time>
      </trkpt>
      <trkpt lat="44.5275070" lon="6.9498970">
        <ele>2354.0</ele>
        <time>2017-07-24T08:42:58Z</time>
      </trkpt>
      <trkpt lat="44.5275250" lon="6.9499020">
        <ele>2354.0</ele>
        <time>2017-07-24T08:42:59Z</time>
      </trkpt>
      <trkpt lat="44.5276150" lon="6.9499070">
        <ele>2354.8</ele>
        <time>2017-07-24T08:43:04Z</time>
      </trkpt>
      <trkpt lat="44.5276730" lon="6.9499060">
        <ele>2355.2</ele>
        <time>2017-07-24T08:43:07Z</time>
      </trkpt>
      <trkpt lat="44.5277410" lon="6.9498960">
        <ele>2356.0</ele>
        <time>2017-07-24T08:43:11Z</time>
      </trkpt>
      <trkpt lat="44.5277700" lon="6.9498700">
        <ele>2356.4</ele>
        <time>2017-07-24T08:43:13Z</time>
      </trkpt>
      <trkpt lat="44.5278180" lon="6.9497880">
        <ele>2357.8</ele>
        <time>2017-07-24T08:43:17Z</time>
      </trkpt>
      <trkpt lat="44.5278540" lon="6.9497300">
        <ele>2359.0</ele>
        <time>2017-07-24T08:43:20Z</time>
      </trkpt>
      <trkpt lat="44.5278930" lon="6.9496780">
        <ele>2360.2</ele>
        <time>2017-07-24T08:43:23Z</time>
      </trkpt>
      <trkpt lat="44.5279040" lon="6.9496580">
        <ele>2360.6</ele>
        <time>2017-07-24T08:43:24Z</time>
      </trkpt>
      <trkpt lat="44.5279270" lon="6.9496190">
        <ele>2361.4</ele>
        <time>2017-07-24T08:43:26Z</time>
      </trkpt>
      <trkpt lat="44.5279930" lon="6.9495340">
        <ele>2362.4</ele>
        <time>2017-07-24T08:43:31Z</time>
      </trkpt>
      <trkpt lat="44.5280810" lon="6.9494280">
        <ele>2363.6</ele>
        <time>2017-07-24T08:43:37Z</time>
      </trkpt>
      <trkpt lat="44.5281070" lon="6.9493630">
        <ele>2364.8</ele>
        <time>2017-07-24T08:43:40Z</time>
      </trkpt>
      <trkpt lat="44.5281310" lon="6.9492990">
        <ele>2366.0</ele>
        <time>2017-07-24T08:43:43Z</time>
      </trkpt>
      <trkpt lat="44.5281340" lon="6.9492570">
        <ele>2366.6</ele>
        <time>2017-07-24T08:43:45Z</time>
      </trkpt>
      <trkpt lat="44.5281450" lon="6.9492100">
        <ele>2367.4</ele>
        <time>2017-07-24T08:43:47Z</time>
      </trkpt>
      <trkpt lat="44.5281600" lon="6.9491320">
        <ele>2368.8</ele>
        <time>2017-07-24T08:43:50Z</time>
      </trkpt>
      <trkpt lat="44.5281670" lon="6.9491070">
        <ele>2369.0</ele>
        <time>2017-07-24T08:43:51Z</time>
      </trkpt>
      <trkpt lat="44.5281830" lon="6.9490370">
        <ele>2370.0</ele>
        <time>2017-07-24T08:43:54Z</time>
      </trkpt>
      <trkpt lat="44.5282030" lon="6.9490000">
        <ele>2370.6</ele>
        <time>2017-07-24T08:43:56Z</time>
      </trkpt>
      <trkpt lat="44.5282640" lon="6.9489550">
        <ele>2370.8</ele>
        <time>2017-07-24T08:44:00Z</time>
      </trkpt>
      <trkpt lat="44.5282930" lon="6.9489260">
        <ele>2370.4</ele>
        <time>2017-07-24T08:44:02Z</time>
      </trkpt>
      <trkpt lat="44.5283440" lon="6.9488480">
        <ele>2368.6</ele>
        <time>2017-07-24T08:44:06Z</time>
      </trkpt>
      <trkpt lat="44.5283600" lon="6.9488360">
        <ele>2361.2</ele>
        <time>2017-07-24T08:44:07Z</time>
      </trkpt>
      <trkpt lat="44.5283730" lon="6.9488170">
        <ele>2355.2</ele>
        <time>2017-07-24T08:44:08Z</time>
      </trkpt>
      <trkpt lat="44.5284130" lon="6.9487630">
        <ele>2351.6</ele>
        <time>2017-07-24T08:44:11Z</time>
      </trkpt>
      <trkpt lat="44.5284260" lon="6.9487450">
        <ele>2355.2</ele>
        <time>2017-07-24T08:44:12Z</time>
      </trkpt>
      <trkpt lat="44.5284400" lon="6.9487250">
        <ele>2365.4</ele>
        <time>2017-07-24T08:44:13Z</time>
      </trkpt>
      <trkpt lat="44.5284570" lon="6.9487050">
        <ele>2377.0</ele>
        <time>2017-07-24T08:44:14Z</time>
      </trkpt>
      <trkpt lat="44.5284860" lon="6.9486690">
        <ele>2377.0</ele>
        <time>2017-07-24T08:44:16Z</time>
      </trkpt>
      <trkpt lat="44.5285080" lon="6.9486360">
        <ele>2376.0</ele>
        <time>2017-07-24T08:44:18Z</time>
      </trkpt>
      <trkpt lat="44.5285440" lon="6.9485310">
        <ele>2377.0</ele>
        <time>2017-07-24T08:44:23Z</time>
      </trkpt>
      <trkpt lat="44.5285520" lon="6.9485100">
        <ele>2377.0</ele>
        <time>2017-07-24T08:44:24Z</time>
      </trkpt>
      <trkpt lat="44.5286390" lon="6.9484130">
        <ele>2376.6</ele>
        <time>2017-07-24T08:44:31Z</time>
      </trkpt>
      <trkpt lat="44.5287190" lon="6.9483630">
        <ele>2375.8</ele>
        <time>2017-07-24T08:44:36Z</time>
      </trkpt>
      <trkpt lat="44.5287370" lon="6.9483530">
        <ele>2375.8</ele>
        <time>2017-07-24T08:44:37Z</time>
      </trkpt>
      <trkpt lat="44.5288340" lon="6.9482820">
        <ele>2375.6</ele>
        <time>2017-07-24T08:44:43Z</time>
      </trkpt>
      <trkpt lat="44.5289370" lon="6.9482190">
        <ele>2375.8</ele>
        <time>2017-07-24T08:44:49Z</time>
      </trkpt>
      <trkpt lat="44.5290160" lon="6.9481450">
        <ele>2376.6</ele>
        <time>2017-07-24T08:44:54Z</time>
      </trkpt>
      <trkpt lat="44.5290410" lon="6.9481040">
        <ele>2376.0</ele>
        <time>2017-07-24T08:44:56Z</time>
      </trkpt>
      <trkpt lat="44.5290650" lon="6.9480660">
        <ele>2377.8</ele>
        <time>2017-07-24T08:44:58Z</time>
      </trkpt>
      <trkpt lat="44.5291330" lon="6.9479980">
        <ele>2379.0</ele>
        <time>2017-07-24T08:45:02Z</time>
      </trkpt>
      <trkpt lat="44.5291570" lon="6.9479610">
        <ele>2379.6</ele>
        <time>2017-07-24T08:45:04Z</time>
      </trkpt>
      <trkpt lat="44.5291690" lon="6.9479380">
        <ele>2380.0</ele>
        <time>2017-07-24T08:45:05Z</time>
      </trkpt>
      <trkpt lat="44.5292220" lon="6.9479010">
        <ele>2380.8</ele>
        <time>2017-07-24T08:45:09Z</time>
      </trkpt>
      <trkpt lat="44.5292380" lon="6.9478830">
        <ele>2381.2</ele>
        <time>2017-07-24T08:45:10Z</time>
      </trkpt>
      <trkpt lat="44.5292820" lon="6.9478330">
        <ele>2383.0</ele>
        <time>2017-07-24T08:45:13Z</time>
      </trkpt>
      <trkpt lat="44.5293450" lon="6.9477960">
        <ele>2384.2</ele>
        <time>2017-07-24T08:45:17Z</time>
      </trkpt>
      <trkpt lat="44.5293800" lon="6.9477810">
        <ele>2384.8</ele>
        <time>2017-07-24T08:45:19Z</time>
      </trkpt>
      <trkpt lat="44.5294260" lon="6.9477580">
        <ele>2385.2</ele>
        <time>2017-07-24T08:45:22Z</time>
      </trkpt>
      <trkpt lat="44.5294780" lon="6.9477380">
        <ele>2385.4</ele>
        <time>2017-07-24T08:45:25Z</time>
      </trkpt>
      <trkpt lat="44.5295680" lon="6.9477420">
        <ele>2385.8</ele>
        <time>2017-07-24T08:45:30Z</time>
      </trkpt>
      <trkpt lat="44.5296170" lon="6.9477230">
        <ele>2386.2</ele>
        <time>2017-07-24T08:45:33Z</time>
      </trkpt>
      <trkpt lat="44.5296720" lon="6.9477110">
        <ele>2386.6</ele>
        <time>2017-07-24T08:45:36Z</time>
      </trkpt>
      <trkpt lat="44.5297210" lon="6.9476900">
        <ele>2387.4</ele>
        <time>2017-07-24T08:45:39Z</time>
      </trkpt>
      <trkpt lat="44.5297740" lon="6.9476530">
        <ele>2388.0</ele>
        <time>2017-07-24T08:45:43Z</time>
      </trkpt>
      <trkpt lat="44.5298270" lon="6.9476530">
        <ele>2388.8</ele>
        <time>2017-07-24T08:45:46Z</time>
      </trkpt>
      <trkpt lat="44.5298890" lon="6.9476580">
        <ele>2390.0</ele>
        <time>2017-07-24T08:45:50Z</time>
      </trkpt>
      <trkpt lat="44.5299470" lon="6.9476910">
        <ele>2391.2</ele>
        <time>2017-07-24T08:45:54Z</time>
      </trkpt>
      <trkpt lat="44.5299980" lon="6.9477080">
        <ele>2392.2</ele>
        <time>2017-07-24T08:45:57Z</time>
      </trkpt>
      <trkpt lat="44.5300160" lon="6.9477120">
        <ele>2392.6</ele>
        <time>2017-07-24T08:45:58Z</time>
      </trkpt>
      <trkpt lat="44.5300630" lon="6.9477200">
        <ele>2393.8</ele>
        <time>2017-07-24T08:46:01Z</time>
      </trkpt>
      <trkpt lat="44.5301200" lon="6.9477450">
        <ele>2394.8</ele>
        <time>2017-07-24T08:46:05Z</time>
      </trkpt>
      <trkpt lat="44.5301330" lon="6.9477580">
        <ele>2395.0</ele>
        <time>2017-07-24T08:46:06Z</time>
      </trkpt>
      <trkpt lat="44.5302350" lon="6.9477570">
        <ele>2396.0</ele>
        <time>2017-07-24T08:46:12Z</time>
      </trkpt>
      <trkpt lat="44.5302500" lon="6.9477490">
        <ele>2396.2</ele>
        <time>2017-07-24T08:46:13Z</time>
      </trkpt>
      <trkpt lat="44.5303530" lon="6.9477610">
        <ele>2396.6</ele>
        <time>2017-07-24T08:46:19Z</time>
      </trkpt>
      <trkpt lat="44.5304090" lon="6.9477610">
        <ele>2397.2</ele>
        <time>2017-07-24T08:46:22Z</time>
      </trkpt>
      <trkpt lat="44.5304800" lon="6.9477950">
        <ele>2397.6</ele>
        <time>2017-07-24T08:46:26Z</time>
      </trkpt>
      <trkpt lat="44.5305500" lon="6.9477820">
        <ele>2398.4</ele>
        <time>2017-07-24T08:46:29Z</time>
      </trkpt>
      <trkpt lat="44.5305940" lon="6.9477760">
        <ele>2398.8</ele>
        <time>2017-07-24T08:46:31Z</time>
      </trkpt>
      <trkpt lat="44.5306330" lon="6.9477750">
        <ele>2399.4</ele>
        <time>2017-07-24T08:46:33Z</time>
      </trkpt>
      <trkpt lat="44.5307120" lon="6.9477760">
        <ele>2400.6</ele>
        <time>2017-07-24T08:46:37Z</time>
      </trkpt>
      <trkpt lat="44.5307780" lon="6.9477750">
        <ele>2401.6</ele>
        <time>2017-07-24T08:46:40Z</time>
      </trkpt>
      <trkpt lat="44.5307980" lon="6.9477730">
        <ele>2402.0</ele>
        <time>2017-07-24T08:46:41Z</time>
      </trkpt>
      <trkpt lat="44.5308830" lon="6.9477580">
        <ele>2403.0</ele>
        <time>2017-07-24T08:46:45Z</time>
      </trkpt>
      <trkpt lat="44.5309470" lon="6.9477320">
        <ele>2403.4</ele>
        <time>2017-07-24T08:46:48Z</time>
      </trkpt>
      <trkpt lat="44.5309720" lon="6.9477260">
        <ele>2404.2</ele>
        <time>2017-07-24T08:46:50Z</time>
      </trkpt>
      <trkpt lat="44.5310380" lon="6.9476710">
        <ele>2405.2</ele>
        <time>2017-07-24T08:46:55Z</time>
      </trkpt>
      <trkpt lat="44.5310870" lon="6.9476180">
        <ele>2406.4</ele>
        <time>2017-07-24T08:46:59Z</time>
      </trkpt>
      <trkpt lat="44.5311290" lon="6.9475750">
        <ele>2407.6</ele>
        <time>2017-07-24T08:47:02Z</time>
      </trkpt>
      <trkpt lat="44.5311640" lon="6.9475510">
        <ele>2408.8</ele>
        <time>2017-07-24T08:47:04Z</time>
      </trkpt>
      <trkpt lat="44.5311990" lon="6.9475220">
        <ele>2409.8</ele>
        <time>2017-07-24T08:47:06Z</time>
      </trkpt>
      <trkpt lat="44.5312340" lon="6.9475010">
        <ele>2410.8</ele>
        <time>2017-07-24T08:47:08Z</time>
      </trkpt>
      <trkpt lat="44.5312510" lon="6.9474880">
        <ele>2411.4</ele>
        <time>2017-07-24T08:47:09Z</time>
      </trkpt>
      <trkpt lat="44.5312690" lon="6.9474790">
        <ele>2412.0</ele>
        <time>2017-07-24T08:47:10Z</time>
      </trkpt>
      <trkpt lat="44.5313060" lon="6.9474570">
        <ele>2413.2</ele>
        <time>2017-07-24T08:47:12Z</time>
      </trkpt>
      <trkpt lat="44.5313220" lon="6.9474460">
        <ele>2414.2</ele>
        <time>2017-07-24T08:47:13Z</time>
      </trkpt>
      <trkpt lat="44.5313520" lon="6.9474220">
        <ele>2415.2</ele>
        <time>2017-07-24T08:47:15Z</time>
      </trkpt>
      <trkpt lat="44.5313670" lon="6.9474110">
        <ele>2415.6</ele>
        <time>2017-07-24T08:47:16Z</time>
      </trkpt>
      <trkpt lat="44.5313960" lon="6.9473810">
        <ele>2416.6</ele>
        <time>2017-07-24T08:47:18Z</time>
      </trkpt>
      <trkpt lat="44.5314490" lon="6.9473230">
        <ele>2417.8</ele>
        <time>2017-07-24T08:47:21Z</time>
      </trkpt>
      <trkpt lat="44.5314670" lon="6.9473030">
        <ele>2418.2</ele>
        <time>2017-07-24T08:47:22Z</time>
      </trkpt>
      <trkpt lat="44.5315050" lon="6.9472850">
        <ele>2418.8</ele>
        <time>2017-07-24T08:47:24Z</time>
      </trkpt>
      <trkpt lat="44.5315650" lon="6.9472320">
        <ele>2420.0</ele>
        <time>2017-07-24T08:47:28Z</time>
      </trkpt>
      <trkpt lat="44.5316310" lon="6.9471710">
        <ele>2421.2</ele>
        <time>2017-07-24T08:47:32Z</time>
      </trkpt>
      <trkpt lat="44.5316710" lon="6.9471170">
        <ele>2421.6</ele>
        <time>2017-07-24T08:47:35Z</time>
      </trkpt>
      <trkpt lat="44.5316920" lon="6.9470670">
        <ele>2422.4</ele>
        <time>2017-07-24T08:47:37Z</time>
      </trkpt>
      <trkpt lat="44.5317610" lon="6.9469290">
        <ele>2423.4</ele>
        <time>2017-07-24T08:47:43Z</time>
      </trkpt>
      <trkpt lat="44.5318370" lon="6.9467750">
        <ele>2424.4</ele>
        <time>2017-07-24T08:47:50Z</time>
      </trkpt>
      <trkpt lat="44.5319690" lon="6.9467090">
        <ele>2422.8</ele>
        <time>2017-07-24T08:47:57Z</time>
      </trkpt>
      <trkpt lat="44.5320040" lon="6.9467040">
        <ele>2422.0</ele>
        <time>2017-07-24T08:47:59Z</time>
      </trkpt>
      <trkpt lat="44.5320820" lon="6.9467000">
        <ele>2420.8</ele>
        <time>2017-07-24T08:48:03Z</time>
      </trkpt>
      <trkpt lat="44.5321040" lon="6.9467010">
        <ele>2420.8</ele>
        <time>2017-07-24T08:48:04Z</time>
      </trkpt>
      <trkpt lat="44.5322150" lon="6.9466820">
        <ele>2419.8</ele>
        <time>2017-07-24T08:48:10Z</time>
      </trkpt>
      <trkpt lat="44.5322540" lon="6.9466690">
        <ele>2419.6</ele>
        <time>2017-07-24T08:48:12Z</time>
      </trkpt>
      <trkpt lat="44.5324230" lon="6.9466570">
        <ele>2420.0</ele>
        <time>2017-07-24T08:48:20Z</time>
      </trkpt>
      <trkpt lat="44.5325360" lon="6.9466390">
        <ele>2421.0</ele>
        <time>2017-07-24T08:48:26Z</time>
      </trkpt>
      <trkpt lat="44.5325770" lon="6.9466300">
        <ele>2421.4</ele>
        <time>2017-07-24T08:48:28Z</time>
      </trkpt>
      <trkpt lat="44.5326310" lon="6.9466270">
        <ele>2422.2</ele>
        <time>2017-07-24T08:48:31Z</time>
      </trkpt>
      <trkpt lat="44.5326940" lon="6.9466100">
        <ele>2423.0</ele>
        <time>2017-07-24T08:48:34Z</time>
      </trkpt>
      <trkpt lat="44.5327110" lon="6.9466050">
        <ele>2423.4</ele>
        <time>2017-07-24T08:48:35Z</time>
      </trkpt>
      <trkpt lat="44.5327650" lon="6.9466020">
        <ele>2424.6</ele>
        <time>2017-07-24T08:48:38Z</time>
      </trkpt>
      <trkpt lat="44.5328140" lon="6.9465790">
        <ele>2426.0</ele>
        <time>2017-07-24T08:48:41Z</time>
      </trkpt>
      <trkpt lat="44.5328330" lon="6.9465730">
        <ele>2426.4</ele>
        <time>2017-07-24T08:48:42Z</time>
      </trkpt>
      <trkpt lat="44.5328660" lon="6.9465600">
        <ele>2427.2</ele>
        <time>2017-07-24T08:48:44Z</time>
      </trkpt>
      <trkpt lat="44.5329590" lon="6.9465510">
        <ele>2428.2</ele>
        <time>2017-07-24T08:48:49Z</time>
      </trkpt>
      <trkpt lat="44.5329770" lon="6.9465510">
        <ele>2428.6</ele>
        <time>2017-07-24T08:48:50Z</time>
      </trkpt>
      <trkpt lat="44.5330920" lon="6.9465130">
        <ele>2429.4</ele>
        <time>2017-07-24T08:48:57Z</time>
      </trkpt>
      <trkpt lat="44.5331290" lon="6.9465110">
        <ele>2429.2</ele>
        <time>2017-07-24T08:48:59Z</time>
      </trkpt>
      <trkpt lat="44.5332380" lon="6.9465050">
        <ele>2429.4</ele>
        <time>2017-07-24T08:49:05Z</time>
      </trkpt>
      <trkpt lat="44.5333820" lon="6.9465170">
        <ele>2430.6</ele>
        <time>2017-07-24T08:49:12Z</time>
      </trkpt>
      <trkpt lat="44.5334430" lon="6.9465320">
        <ele>2431.8</ele>
        <time>2017-07-24T08:49:15Z</time>
      </trkpt>
      <trkpt lat="44.5335290" lon="6.9465520">
        <ele>2433.0</ele>
        <time>2017-07-24T08:49:20Z</time>
      </trkpt>
      <trkpt lat="44.5336210" lon="6.9465870">
        <ele>2434.0</ele>
        <time>2017-07-24T08:49:25Z</time>
      </trkpt>
      <trkpt lat="44.5336700" lon="6.9466120">
        <ele>2434.4</ele>
        <time>2017-07-24T08:49:28Z</time>
      </trkpt>
      <trkpt lat="44.5337590" lon="6.9466490">
        <ele>2435.2</ele>
        <time>2017-07-24T08:49:33Z</time>
      </trkpt>
      <trkpt lat="44.5337770" lon="6.9466510">
        <ele>2435.4</ele>
        <time>2017-07-24T08:49:34Z</time>
      </trkpt>
      <trkpt lat="44.5338260" lon="6.9466390">
        <ele>2436.6</ele>
        <time>2017-07-24T08:49:37Z</time>
      </trkpt>
      <trkpt lat="44.5338790" lon="6.9466480">
        <ele>2437.4</ele>
        <time>2017-07-24T08:49:40Z</time>
      </trkpt>
      <trkpt lat="44.5338970" lon="6.9466510">
        <ele>2437.6</ele>
        <time>2017-07-24T08:49:41Z</time>
      </trkpt>
      <trkpt lat="44.5340070" lon="6.9466700">
        <ele>2438.4</ele>
        <time>2017-07-24T08:49:47Z</time>
      </trkpt>
      <trkpt lat="44.5340630" lon="6.9466840">
        <ele>2438.8</ele>
        <time>2017-07-24T08:49:51Z</time>
      </trkpt>
      <trkpt lat="44.5340880" lon="6.9466760">
        <ele>2439.0</ele>
        <time>2017-07-24T08:49:53Z</time>
      </trkpt>
      <trkpt lat="44.5341380" lon="6.9466280">
        <ele>2440.0</ele>
        <time>2017-07-24T08:49:57Z</time>
      </trkpt>
      <trkpt lat="44.5341610" lon="6.9465870">
        <ele>2440.6</ele>
        <time>2017-07-24T08:49:59Z</time>
      </trkpt>
      <trkpt lat="44.5342150" lon="6.9465500">
        <ele>2441.2</ele>
        <time>2017-07-24T08:50:03Z</time>
      </trkpt>
      <trkpt lat="44.5342590" lon="6.9465260">
        <ele>2442.0</ele>
        <time>2017-07-24T08:50:06Z</time>
      </trkpt>
      <trkpt lat="44.5342730" lon="6.9465120">
        <ele>2442.4</ele>
        <time>2017-07-24T08:50:07Z</time>
      </trkpt>
      <trkpt lat="44.5343340" lon="6.9464790">
        <ele>2443.6</ele>
        <time>2017-07-24T08:50:10Z</time>
      </trkpt>
      <trkpt lat="44.5343590" lon="6.9464620">
        <ele>2444.0</ele>
        <time>2017-07-24T08:50:11Z</time>
      </trkpt>
      <trkpt lat="44.5344030" lon="6.9464260">
        <ele>2444.6</ele>
        <time>2017-07-24T08:50:13Z</time>
      </trkpt>
      <trkpt lat="44.5344570" lon="6.9463550">
        <ele>2445.8</ele>
        <time>2017-07-24T08:50:16Z</time>
      </trkpt>
      <trkpt lat="44.5344740" lon="6.9463320">
        <ele>2446.4</ele>
        <time>2017-07-24T08:50:17Z</time>
      </trkpt>
      <trkpt lat="44.5344920" lon="6.9463060">
        <ele>2447.0</ele>
        <time>2017-07-24T08:50:18Z</time>
      </trkpt>
      <trkpt lat="44.5345480" lon="6.9462490">
        <ele>2448.2</ele>
        <time>2017-07-24T08:50:21Z</time>
      </trkpt>
      <trkpt lat="44.5346020" lon="6.9461850">
        <ele>2449.6</ele>
        <time>2017-07-24T08:50:24Z</time>
      </trkpt>
      <trkpt lat="44.5346410" lon="6.9461450">
        <ele>2450.8</ele>
        <time>2017-07-24T08:50:26Z</time>
      </trkpt>
      <trkpt lat="44.5346880" lon="6.9460800">
        <ele>2452.0</ele>
        <time>2017-07-24T08:50:29Z</time>
      </trkpt>
      <trkpt lat="44.5347030" lon="6.9460550">
        <ele>2452.4</ele>
        <time>2017-07-24T08:50:30Z</time>
      </trkpt>
      <trkpt lat="44.5347350" lon="6.9460170">
        <ele>2453.0</ele>
        <time>2017-07-24T08:50:32Z</time>
      </trkpt>
      <trkpt lat="44.5348160" lon="6.9459610">
        <ele>2454.2</ele>
        <time>2017-07-24T08:50:36Z</time>
      </trkpt>
      <trkpt lat="44.5348370" lon="6.9459460">
        <ele>2454.2</ele>
        <time>2017-07-24T08:50:37Z</time>
      </trkpt>
      <trkpt lat="44.5349180" lon="6.9458740">
        <ele>2455.2</ele>
        <time>2017-07-24T08:50:41Z</time>
      </trkpt>
      <trkpt lat="44.5349600" lon="6.9458430">
        <ele>2455.6</ele>
        <time>2017-07-24T08:50:43Z</time>
      </trkpt>
      <trkpt lat="44.5350160" lon="6.9458010">
        <ele>2456.2</ele>
        <time>2017-07-24T08:50:46Z</time>
      </trkpt>
      <trkpt lat="44.5350930" lon="6.9457420">
        <ele>2457.6</ele>
        <time>2017-07-24T08:50:50Z</time>
      </trkpt>
      <trkpt lat="44.5351890" lon="6.9456820">
        <ele>2458.8</ele>
        <time>2017-07-24T08:50:55Z</time>
      </trkpt>
      <trkpt lat="44.5352560" lon="6.9456780">
        <ele>2459.2</ele>
        <time>2017-07-24T08:50:58Z</time>
      </trkpt>
      <trkpt lat="44.5354080" lon="6.9457100">
        <ele>2459.0</ele>
        <time>2017-07-24T08:51:04Z</time>
      </trkpt>
      <trkpt lat="44.5354340" lon="6.9457320">
        <ele>2458.8</ele>
        <time>2017-07-24T08:51:05Z</time>
      </trkpt>
      <trkpt lat="44.5355780" lon="6.9458380">
        <ele>2458.2</ele>
        <time>2017-07-24T08:51:11Z</time>
      </trkpt>
      <trkpt lat="44.5356040" lon="6.9458590">
        <ele>2457.8</ele>
        <time>2017-07-24T08:51:12Z</time>
      </trkpt>
      <trkpt lat="44.5357380" lon="6.9459650">
        <ele>2456.8</ele>
        <time>2017-07-24T08:51:17Z</time>
      </trkpt>
      <trkpt lat="44.5357570" lon="6.9459860">
        <ele>2456.6</ele>
        <time>2017-07-24T08:51:18Z</time>
      </trkpt>
      <trkpt lat="44.5357970" lon="6.9460400">
        <ele>2456.2</ele>
        <time>2017-07-24T08:51:20Z</time>
      </trkpt>
      <trkpt lat="44.5358690" lon="6.9461240">
        <ele>2455.6</ele>
        <time>2017-07-24T08:51:23Z</time>
      </trkpt>
      <trkpt lat="44.5359520" lon="6.9462600">
        <ele>2454.8</ele>
        <time>2017-07-24T08:51:27Z</time>
      </trkpt>
      <trkpt lat="44.5360290" lon="6.9463840">
        <ele>2454.4</ele>
        <time>2017-07-24T08:51:31Z</time>
      </trkpt>
      <trkpt lat="44.5360920" lon="6.9464680">
        <ele>2454.2</ele>
        <time>2017-07-24T08:51:35Z</time>
      </trkpt>
      <trkpt lat="44.5361710" lon="6.9466100">
        <ele>2455.0</ele>
        <time>2017-07-24T08:51:41Z</time>
      </trkpt>
      <trkpt lat="44.5362170" lon="6.9466990">
        <ele>2455.4</ele>
        <time>2017-07-24T08:51:45Z</time>
      </trkpt>
      <trkpt lat="44.5362290" lon="6.9467190">
        <ele>2455.6</ele>
        <time>2017-07-24T08:51:46Z</time>
      </trkpt>
      <trkpt lat="44.5362640" lon="6.9467810">
        <ele>2456.0</ele>
        <time>2017-07-24T08:51:49Z</time>
      </trkpt>
      <trkpt lat="44.5363250" lon="6.9469140">
        <ele>2456.8</ele>
        <time>2017-07-24T08:51:55Z</time>
      </trkpt>
      <trkpt lat="44.5363290" lon="6.9469340">
        <ele>2457.2</ele>
        <time>2017-07-24T08:51:56Z</time>
      </trkpt>
      <trkpt lat="44.5363550" lon="6.9469880">
        <ele>2458.0</ele>
        <time>2017-07-24T08:51:59Z</time>
      </trkpt>
      <trkpt lat="44.5363750" lon="6.9470290">
        <ele>2459.0</ele>
        <time>2017-07-24T08:52:01Z</time>
      </trkpt>
      <trkpt lat="44.5363820" lon="6.9470530">
        <ele>2459.2</ele>
        <time>2017-07-24T08:52:02Z</time>
      </trkpt>
      <trkpt lat="44.5363980" lon="6.9471050">
        <ele>2460.0</ele>
        <time>2017-07-24T08:52:04Z</time>
      </trkpt>
      <trkpt lat="44.5364380" lon="6.9471940">
        <ele>2461.0</ele>
        <time>2017-07-24T08:52:08Z</time>
      </trkpt>
      <trkpt lat="44.5364580" lon="6.9472370">
        <ele>2461.4</ele>
        <time>2017-07-24T08:52:10Z</time>
      </trkpt>
      <trkpt lat="44.5364840" lon="6.9473130">
        <ele>2462.2</ele>
        <time>2017-07-24T08:52:14Z</time>
      </trkpt>
      <trkpt lat="44.5364960" lon="6.9473280">
        <ele>2462.6</ele>
        <time>2017-07-24T08:52:15Z</time>
      </trkpt>
      <trkpt lat="44.5365200" lon="6.9473700">
        <ele>2462.8</ele>
        <time>2017-07-24T08:52:17Z</time>
      </trkpt>
      <trkpt lat="44.5365380" lon="6.9474070">
        <ele>2463.4</ele>
        <time>2017-07-24T08:52:19Z</time>
      </trkpt>
      <trkpt lat="44.5365970" lon="6.9474920">
        <ele>2464.0</ele>
        <time>2017-07-24T08:52:24Z</time>
      </trkpt>
      <trkpt lat="44.5366080" lon="6.9475110">
        <ele>2464.4</ele>
        <time>2017-07-24T08:52:25Z</time>
      </trkpt>
      <trkpt lat="44.5366500" lon="6.9475920">
        <ele>2465.0</ele>
        <time>2017-07-24T08:52:29Z</time>
      </trkpt>
      <trkpt lat="44.5366710" lon="6.9476260">
        <ele>2465.4</ele>
        <time>2017-07-24T08:52:31Z</time>
      </trkpt>
      <trkpt lat="44.5366830" lon="6.9476570">
        <ele>2465.6</ele>
        <time>2017-07-24T08:52:33Z</time>
      </trkpt>
      <trkpt lat="44.5367500" lon="6.9477410">
        <ele>2466.0</ele>
        <time>2017-07-24T08:52:38Z</time>
      </trkpt>
      <trkpt lat="44.5368250" lon="6.9478340">
        <ele>2466.8</ele>
        <time>2017-07-24T08:52:44Z</time>
      </trkpt>
      <trkpt lat="44.5368550" lon="6.9478600">
        <ele>2467.0</ele>
        <time>2017-07-24T08:52:46Z</time>
      </trkpt>
      <trkpt lat="44.5369180" lon="6.9479180">
        <ele>2468.0</ele>
        <time>2017-07-24T08:52:50Z</time>
      </trkpt>
      <trkpt lat="44.5369690" lon="6.9479560">
        <ele>2469.0</ele>
        <time>2017-07-24T08:52:54Z</time>
      </trkpt>
      <trkpt lat="44.5370640" lon="6.9480630">
        <ele>2470.2</ele>
        <time>2017-07-24T08:53:00Z</time>
      </trkpt>
      <trkpt lat="44.5370920" lon="6.9480800">
        <ele>2470.4</ele>
        <time>2017-07-24T08:53:02Z</time>
      </trkpt>
      <trkpt lat="44.5372080" lon="6.9481190">
        <ele>2471.2</ele>
        <time>2017-07-24T08:53:09Z</time>
      </trkpt>
      <trkpt lat="44.5372880" lon="6.9481410">
        <ele>2473.2</ele>
        <time>2017-07-24T08:53:13Z</time>
      </trkpt>
      <trkpt lat="44.5373510" lon="6.9481500">
        <ele>2474.6</ele>
        <time>2017-07-24T08:53:16Z</time>
      </trkpt>
      <trkpt lat="44.5374210" lon="6.9481680">
        <ele>2476.0</ele>
        <time>2017-07-24T08:53:19Z</time>
      </trkpt>
      <trkpt lat="44.5374900" lon="6.9481980">
        <ele>2477.4</ele>
        <time>2017-07-24T08:53:22Z</time>
      </trkpt>
      <trkpt lat="44.5375100" lon="6.9482100">
        <ele>2478.2</ele>
        <time>2017-07-24T08:53:23Z</time>
      </trkpt>
      <trkpt lat="44.5375290" lon="6.9482290">
        <ele>2478.6</ele>
        <time>2017-07-24T08:53:24Z</time>
      </trkpt>
      <trkpt lat="44.5375630" lon="6.9482530">
        <ele>2479.8</ele>
        <time>2017-07-24T08:53:26Z</time>
      </trkpt>
      <trkpt lat="44.5375970" lon="6.9482830">
        <ele>2481.0</ele>
        <time>2017-07-24T08:53:28Z</time>
      </trkpt>
      <trkpt lat="44.5376170" lon="6.9482950">
        <ele>2481.4</ele>
        <time>2017-07-24T08:53:29Z</time>
      </trkpt>
      <trkpt lat="44.5376670" lon="6.9483130">
        <ele>2482.2</ele>
        <time>2017-07-24T08:53:32Z</time>
      </trkpt>
      <trkpt lat="44.5377300" lon="6.9482830">
        <ele>2482.4</ele>
        <time>2017-07-24T08:53:37Z</time>
      </trkpt>
      <trkpt lat="44.5378220" lon="6.9482360">
        <ele>2482.6</ele>
        <time>2017-07-24T08:53:44Z</time>
      </trkpt>
      <trkpt lat="44.5379230" lon="6.9483010">
        <ele>2483.2</ele>
        <time>2017-07-24T08:53:51Z</time>
      </trkpt>
      <trkpt lat="44.5380030" lon="6.9483900">
        <ele>2483.4</ele>
        <time>2017-07-24T08:53:56Z</time>
      </trkpt>
      <trkpt lat="44.5380440" lon="6.9484560">
        <ele>2483.6</ele>
        <time>2017-07-24T08:53:59Z</time>
      </trkpt>
      <trkpt lat="44.5380960" lon="6.9485660">
        <ele>2484.4</ele>
        <time>2017-07-24T08:54:03Z</time>
      </trkpt>
      <trkpt lat="44.5381080" lon="6.9485870">
        <ele>2484.8</ele>
        <time>2017-07-24T08:54:04Z</time>
      </trkpt>
      <trkpt lat="44.5381390" lon="6.9486060">
        <ele>2485.2</ele>
        <time>2017-07-24T08:54:06Z</time>
      </trkpt>
      <trkpt lat="44.5381550" lon="6.9486220">
        <ele>2485.4</ele>
        <time>2017-07-24T08:54:07Z</time>
      </trkpt>
      <trkpt lat="44.5381820" lon="6.9486530">
        <ele>2486.0</ele>
        <time>2017-07-24T08:54:09Z</time>
      </trkpt>
      <trkpt lat="44.5381950" lon="6.9486700">
        <ele>2486.4</ele>
        <time>2017-07-24T08:54:10Z</time>
      </trkpt>
      <trkpt lat="44.5382410" lon="6.9487610">
        <ele>2487.6</ele>
        <time>2017-07-24T08:54:14Z</time>
      </trkpt>
      <trkpt lat="44.5382850" lon="6.9488020">
        <ele>2488.8</ele>
        <time>2017-07-24T08:54:17Z</time>
      </trkpt>
      <trkpt lat="44.5383450" lon="6.9488550">
        <ele>2490.0</ele>
        <time>2017-07-24T08:54:21Z</time>
      </trkpt>
      <trkpt lat="44.5383690" lon="6.9488740">
        <ele>2490.8</ele>
        <time>2017-07-24T08:54:23Z</time>
      </trkpt>
      <trkpt lat="44.5383860" lon="6.9488890">
        <ele>2491.0</ele>
        <time>2017-07-24T08:54:24Z</time>
      </trkpt>
      <trkpt lat="44.5384200" lon="6.9489070">
        <ele>2492.4</ele>
        <time>2017-07-24T08:54:26Z</time>
      </trkpt>
      <trkpt lat="44.5384740" lon="6.9489490">
        <ele>2493.8</ele>
        <time>2017-07-24T08:54:30Z</time>
      </trkpt>
      <trkpt lat="44.5385190" lon="6.9489770">
        <ele>2494.8</ele>
        <time>2017-07-24T08:54:33Z</time>
      </trkpt>
      <trkpt lat="44.5385570" lon="6.9490120">
        <ele>2496.0</ele>
        <time>2017-07-24T08:54:36Z</time>
      </trkpt>
      <trkpt lat="44.5385710" lon="6.9490170">
        <ele>2496.2</ele>
        <time>2017-07-24T08:54:37Z</time>
      </trkpt>
      <trkpt lat="44.5386290" lon="6.9490420">
        <ele>2497.2</ele>
        <time>2017-07-24T08:54:41Z</time>
      </trkpt>
      <trkpt lat="44.5386860" lon="6.9490670">
        <ele>2497.4</ele>
        <time>2017-07-24T08:54:45Z</time>
      </trkpt>
      <trkpt lat="44.5387940" lon="6.9491730">
        <ele>2496.8</ele>
        <time>2017-07-24T08:54:52Z</time>
      </trkpt>
      <trkpt lat="44.5388910" lon="6.9492420">
        <ele>2495.0</ele>
        <time>2017-07-24T08:54:58Z</time>
      </trkpt>
      <trkpt lat="44.5389250" lon="6.9492580">
        <ele>2495.0</ele>
        <time>2017-07-24T08:55:00Z</time>
      </trkpt>
      <trkpt lat="44.5389560" lon="6.9492760">
        <ele>2493.8</ele>
        <time>2017-07-24T08:55:02Z</time>
      </trkpt>
      <trkpt lat="44.5389720" lon="6.9492850">
        <ele>2492.6</ele>
        <time>2017-07-24T08:55:03Z</time>
      </trkpt>
      <trkpt lat="44.5389860" lon="6.9492940">
        <ele>2494.4</ele>
        <time>2017-07-24T08:55:04Z</time>
      </trkpt>
      <trkpt lat="44.5390220" lon="6.9493110">
        <ele>2496.4</ele>
        <time>2017-07-24T08:55:06Z</time>
      </trkpt>
      <trkpt lat="44.5390400" lon="6.9493310">
        <ele>2496.2</ele>
        <time>2017-07-24T08:55:08Z</time>
      </trkpt>
      <trkpt lat="44.5391020" lon="6.9493690">
        <ele>2497.4</ele>
        <time>2017-07-24T08:55:12Z</time>
      </trkpt>
      <trkpt lat="44.5391890" lon="6.9494020">
        <ele>2498.0</ele>
        <time>2017-07-24T08:55:18Z</time>
      </trkpt>
      <trkpt lat="44.5393150" lon="6.9493950">
        <ele>2498.4</ele>
        <time>2017-07-24T08:55:25Z</time>
      </trkpt>
      <trkpt lat="44.5394190" lon="6.9494670">
        <ele>2498.8</ele>
        <time>2017-07-24T08:55:31Z</time>
      </trkpt>
      <trkpt lat="44.5394970" lon="6.9495250">
        <ele>2499.6</ele>
        <time>2017-07-24T08:55:35Z</time>
      </trkpt>
      <trkpt lat="44.5395360" lon="6.9495400">
        <ele>2500.0</ele>
        <time>2017-07-24T08:55:37Z</time>
      </trkpt>
      <trkpt lat="44.5395520" lon="6.9495480">
        <ele>2500.8</ele>
        <time>2017-07-24T08:55:38Z</time>
      </trkpt>
      <trkpt lat="44.5395810" lon="6.9495450">
        <ele>2501.8</ele>
        <time>2017-07-24T08:55:40Z</time>
      </trkpt>
      <trkpt lat="44.5396240" lon="6.9495520">
        <ele>2503.0</ele>
        <time>2017-07-24T08:55:43Z</time>
      </trkpt>
      <trkpt lat="44.5396370" lon="6.9495510">
        <ele>2503.2</ele>
        <time>2017-07-24T08:55:44Z</time>
      </trkpt>
      <trkpt lat="44.5396840" lon="6.9495550">
        <ele>2504.4</ele>
        <time>2017-07-24T08:55:47Z</time>
      </trkpt>
      <trkpt lat="44.5397290" lon="6.9495710">
        <ele>2505.4</ele>
        <time>2017-07-24T08:55:50Z</time>
      </trkpt>
      <trkpt lat="44.5398000" lon="6.9495720">
        <ele>2506.6</ele>
        <time>2017-07-24T08:55:54Z</time>
      </trkpt>
      <trkpt lat="44.5398530" lon="6.9495820">
        <ele>2507.2</ele>
        <time>2017-07-24T08:55:58Z</time>
      </trkpt>
      <trkpt lat="44.5398810" lon="6.9495860">
        <ele>2507.6</ele>
        <time>2017-07-24T08:56:00Z</time>
      </trkpt>
      <trkpt lat="44.5399780" lon="6.9495590">
        <ele>2508.6</ele>
        <time>2017-07-24T08:56:05Z</time>
      </trkpt>
      <trkpt lat="44.5400000" lon="6.9495560">
        <ele>2508.8</ele>
        <time>2017-07-24T08:56:06Z</time>
      </trkpt>
      <trkpt lat="44.5400200" lon="6.9495520">
        <ele>2508.8</ele>
        <time>2017-07-24T08:56:07Z</time>
      </trkpt>
      <trkpt lat="44.5401430" lon="6.9495430">
        <ele>2509.4</ele>
        <time>2017-07-24T08:56:13Z</time>
      </trkpt>
      <trkpt lat="44.5401960" lon="6.9495810">
        <ele>2509.6</ele>
        <time>2017-07-24T08:56:16Z</time>
      </trkpt>
      <trkpt lat="44.5402250" lon="6.9496200">
        <ele>2509.8</ele>
        <time>2017-07-24T08:56:18Z</time>
      </trkpt>
      <trkpt lat="44.5402750" lon="6.9496740">
        <ele>2510.4</ele>
        <time>2017-07-24T08:56:21Z</time>
      </trkpt>
      <trkpt lat="44.5403060" lon="6.9497070">
        <ele>2511.0</ele>
        <time>2017-07-24T08:56:23Z</time>
      </trkpt>
      <trkpt lat="44.5403220" lon="6.9497180">
        <ele>2511.2</ele>
        <time>2017-07-24T08:56:24Z</time>
      </trkpt>
      <trkpt lat="44.5403350" lon="6.9497340">
        <ele>2511.6</ele>
        <time>2017-07-24T08:56:25Z</time>
      </trkpt>
      <trkpt lat="44.5403650" lon="6.9497790">
        <ele>2512.2</ele>
        <time>2017-07-24T08:56:28Z</time>
      </trkpt>
      <trkpt lat="44.5403750" lon="6.9497930">
        <ele>2512.2</ele>
        <time>2017-07-24T08:56:29Z</time>
      </trkpt>
      <trkpt lat="44.5404630" lon="6.9498700">
        <ele>2513.2</ele>
        <time>2017-07-24T08:56:36Z</time>
      </trkpt>
      <trkpt lat="44.5404920" lon="6.9498820">
        <ele>2513.4</ele>
        <time>2017-07-24T08:56:38Z</time>
      </trkpt>
      <trkpt lat="44.5405830" lon="6.9499060">
        <ele>2514.2</ele>
        <time>2017-07-24T08:56:44Z</time>
      </trkpt>
      <trkpt lat="44.5405980" lon="6.9499130">
        <ele>2514.4</ele>
        <time>2017-07-24T08:56:45Z</time>
      </trkpt>
      <trkpt lat="44.5406370" lon="6.9499380">
        <ele>2515.2</ele>
        <time>2017-07-24T08:56:48Z</time>
      </trkpt>
      <trkpt lat="44.5406540" lon="6.9499610">
        <ele>2516.4</ele>
        <time>2017-07-24T08:56:50Z</time>
      </trkpt>
      <trkpt lat="44.5406860" lon="6.9499890">
        <ele>2517.8</ele>
        <time>2017-07-24T08:56:53Z</time>
      </trkpt>
      <trkpt lat="44.5407360" lon="6.9500160">
        <ele>2519.2</ele>
        <time>2017-07-24T08:56:56Z</time>
      </trkpt>
      <trkpt lat="44.5407850" lon="6.9500450">
        <ele>2520.4</ele>
        <time>2017-07-24T08:56:59Z</time>
      </trkpt>
      <trkpt lat="44.5408030" lon="6.9500580">
        <ele>2520.8</ele>
        <time>2017-07-24T08:57:00Z</time>
      </trkpt>
      <trkpt lat="44.5408300" lon="6.9500990">
        <ele>2521.6</ele>
        <time>2017-07-24T08:57:02Z</time>
      </trkpt>
      <trkpt lat="44.5408840" lon="6.9501850">
        <ele>2523.0</ele>
        <time>2017-07-24T08:57:06Z</time>
      </trkpt>
      <trkpt lat="44.5409130" lon="6.9502120">
        <ele>2523.8</ele>
        <time>2017-07-24T08:57:08Z</time>
      </trkpt>
      <trkpt lat="44.5409300" lon="6.9502110">
        <ele>2524.2</ele>
        <time>2017-07-24T08:57:09Z</time>
      </trkpt>
      <trkpt lat="44.5409610" lon="6.9502180">
        <ele>2524.6</ele>
        <time>2017-07-24T08:57:11Z</time>
      </trkpt>
      <trkpt lat="44.5410110" lon="6.9502220">
        <ele>2526.0</ele>
        <time>2017-07-24T08:57:14Z</time>
      </trkpt>
      <trkpt lat="44.5410490" lon="6.9502310">
        <ele>2527.0</ele>
        <time>2017-07-24T08:57:16Z</time>
      </trkpt>
      <trkpt lat="44.5410650" lon="6.9502370">
        <ele>2527.4</ele>
        <time>2017-07-24T08:57:17Z</time>
      </trkpt>
      <trkpt lat="44.5411060" lon="6.9502740">
        <ele>2528.4</ele>
        <time>2017-07-24T08:57:20Z</time>
      </trkpt>
      <trkpt lat="44.5411170" lon="6.9502920">
        <ele>2528.6</ele>
        <time>2017-07-24T08:57:21Z</time>
      </trkpt>
      <trkpt lat="44.5411420" lon="6.9503120">
        <ele>2529.6</ele>
        <time>2017-07-24T08:57:23Z</time>
      </trkpt>
      <trkpt lat="44.5411820" lon="6.9503480">
        <ele>2530.8</ele>
        <time>2017-07-24T08:57:26Z</time>
      </trkpt>
      <trkpt lat="44.5412040" lon="6.9503750">
        <ele>2531.6</ele>
        <time>2017-07-24T08:57:28Z</time>
      </trkpt>
      <trkpt lat="44.5412150" lon="6.9503940">
        <ele>2532.0</ele>
        <time>2017-07-24T08:57:29Z</time>
      </trkpt>
      <trkpt lat="44.5412530" lon="6.9504410">
        <ele>2533.0</ele>
        <time>2017-07-24T08:57:32Z</time>
      </trkpt>
      <trkpt lat="44.5412920" lon="6.9504780">
        <ele>2534.2</ele>
        <time>2017-07-24T08:57:35Z</time>
      </trkpt>
      <trkpt lat="44.5413350" lon="6.9505070">
        <ele>2535.6</ele>
        <time>2017-07-24T08:57:38Z</time>
      </trkpt>
      <trkpt lat="44.5413770" lon="6.9505270">
        <ele>2537.2</ele>
        <time>2017-07-24T08:57:41Z</time>
      </trkpt>
      <trkpt lat="44.5414060" lon="6.9505390">
        <ele>2537.6</ele>
        <time>2017-07-24T08:57:43Z</time>
      </trkpt>
      <trkpt lat="44.5414350" lon="6.9505530">
        <ele>2538.4</ele>
        <time>2017-07-24T08:57:45Z</time>
      </trkpt>
      <trkpt lat="44.5414850" lon="6.9505680">
        <ele>2539.8</ele>
        <time>2017-07-24T08:57:48Z</time>
      </trkpt>
      <trkpt lat="44.5415180" lon="6.9505880">
        <ele>2540.4</ele>
        <time>2017-07-24T08:57:50Z</time>
      </trkpt>
      <trkpt lat="44.5415330" lon="6.9505970">
        <ele>2540.8</ele>
        <time>2017-07-24T08:57:51Z</time>
      </trkpt>
      <trkpt lat="44.5416170" lon="6.9506840">
        <ele>2541.8</ele>
        <time>2017-07-24T08:57:56Z</time>
      </trkpt>
      <trkpt lat="44.5416570" lon="6.9507460">
        <ele>2542.0</ele>
        <time>2017-07-24T08:57:59Z</time>
      </trkpt>
      <trkpt lat="44.5416890" lon="6.9508180">
        <ele>2542.0</ele>
        <time>2017-07-24T08:58:02Z</time>
      </trkpt>
      <trkpt lat="44.5417010" lon="6.9508390">
        <ele>2542.0</ele>
        <time>2017-07-24T08:58:03Z</time>
      </trkpt>
      <trkpt lat="44.5417610" lon="6.9508930">
        <ele>2541.6</ele>
        <time>2017-07-24T08:58:07Z</time>
      </trkpt>
      <trkpt lat="44.5418380" lon="6.9509560">
        <ele>2540.8</ele>
        <time>2017-07-24T08:58:12Z</time>
      </trkpt>
      <trkpt lat="44.5419050" lon="6.9510260">
        <ele>2539.8</ele>
        <time>2017-07-24T08:58:17Z</time>
      </trkpt>
      <trkpt lat="44.5419170" lon="6.9510420">
        <ele>2539.6</ele>
        <time>2017-07-24T08:58:18Z</time>
      </trkpt>
      <trkpt lat="44.5419760" lon="6.9510700">
        <ele>2539.2</ele>
        <time>2017-07-24T08:58:22Z</time>
      </trkpt>
      <trkpt lat="44.5419970" lon="6.9510990">
        <ele>2538.8</ele>
        <time>2017-07-24T08:58:24Z</time>
      </trkpt>
      <trkpt lat="44.5420210" lon="6.9511250">
        <ele>2538.6</ele>
        <time>2017-07-24T08:58:26Z</time>
      </trkpt>
      <trkpt lat="44.5420760" lon="6.9511790">
        <ele>2538.4</ele>
        <time>2017-07-24T08:58:30Z</time>
      </trkpt>
      <trkpt lat="44.5421580" lon="6.9512450">
        <ele>2538.8</ele>
        <time>2017-07-24T08:58:36Z</time>
      </trkpt>
      <trkpt lat="44.5422250" lon="6.9512550">
        <ele>2539.4</ele>
        <time>2017-07-24T08:58:40Z</time>
      </trkpt>
      <trkpt lat="44.5422410" lon="6.9512390">
        <ele>2539.6</ele>
        <time>2017-07-24T08:58:41Z</time>
      </trkpt>
      <trkpt lat="44.5422510" lon="6.9512180">
        <ele>2539.8</ele>
        <time>2017-07-24T08:58:42Z</time>
      </trkpt>
      <trkpt lat="44.5422510" lon="6.9511500">
        <ele>2541.0</ele>
        <time>2017-07-24T08:58:45Z</time>
      </trkpt>
      <trkpt lat="44.5422440" lon="6.9511260">
        <ele>2541.2</ele>
        <time>2017-07-24T08:58:46Z</time>
      </trkpt>
      <trkpt lat="44.5421600" lon="6.9510560">
        <ele>2541.6</ele>
        <time>2017-07-24T08:58:51Z</time>
      </trkpt>
      <trkpt lat="44.5420400" lon="6.9509480">
        <ele>2541.8</ele>
        <time>2017-07-24T08:58:58Z</time>
      </trkpt>
      <trkpt lat="44.5420030" lon="6.9508920">
        <ele>2542.0</ele>
        <time>2017-07-24T08:59:01Z</time>
      </trkpt>
      <trkpt lat="44.5419930" lon="6.9508740">
        <ele>2542.2</ele>
        <time>2017-07-24T08:59:02Z</time>
      </trkpt>
      <trkpt lat="44.5419720" lon="6.9508350">
        <ele>2542.0</ele>
        <time>2017-07-24T08:59:04Z</time>
      </trkpt>
      <trkpt lat="44.5419430" lon="6.9507710">
        <ele>2542.4</ele>
        <time>2017-07-24T08:59:07Z</time>
      </trkpt>
      <trkpt lat="44.5418920" lon="6.9506980">
        <ele>2543.0</ele>
        <time>2017-07-24T08:59:11Z</time>
      </trkpt>
      <trkpt lat="44.5418830" lon="6.9506800">
        <ele>2543.2</ele>
        <time>2017-07-24T08:59:12Z</time>
      </trkpt>
      <trkpt lat="44.5418570" lon="6.9506130">
        <ele>2544.2</ele>
        <time>2017-07-24T08:59:15Z</time>
      </trkpt>
      <trkpt lat="44.5418130" lon="6.9505400">
        <ele>2545.6</ele>
        <time>2017-07-24T08:59:19Z</time>
      </trkpt>
      <trkpt lat="44.5417770" lon="6.9504780">
        <ele>2546.8</ele>
        <time>2017-07-24T08:59:22Z</time>
      </trkpt>
      <trkpt lat="44.5417430" lon="6.9504190">
        <ele>2548.0</ele>
        <time>2017-07-24T08:59:25Z</time>
      </trkpt>
      <trkpt lat="44.5417310" lon="6.9504020">
        <ele>2548.4</ele>
        <time>2017-07-24T08:59:26Z</time>
      </trkpt>
      <trkpt lat="44.5416980" lon="6.9503760">
        <ele>2549.2</ele>
        <time>2017-07-24T08:59:28Z</time>
      </trkpt>
      <trkpt lat="44.5416540" lon="6.9503440">
        <ele>2550.2</ele>
        <time>2017-07-24T08:59:31Z</time>
      </trkpt>
      <trkpt lat="44.5416310" lon="6.9503090">
        <ele>2551.0</ele>
        <time>2017-07-24T08:59:33Z</time>
      </trkpt>
      <trkpt lat="44.5416180" lon="6.9502860">
        <ele>2551.4</ele>
        <time>2017-07-24T08:59:34Z</time>
      </trkpt>
      <trkpt lat="44.5415910" lon="6.9502190">
        <ele>2552.6</ele>
        <time>2017-07-24T08:59:37Z</time>
      </trkpt>
      <trkpt lat="44.5415780" lon="6.9502020">
        <ele>2553.2</ele>
        <time>2017-07-24T08:59:38Z</time>
      </trkpt>
      <trkpt lat="44.5415680" lon="6.9501870">
        <ele>2553.6</ele>
        <time>2017-07-24T08:59:39Z</time>
      </trkpt>
      <trkpt lat="44.5415280" lon="6.9500940">
        <ele>2554.6</ele>
        <time>2017-07-24T08:59:44Z</time>
      </trkpt>
      <trkpt lat="44.5415180" lon="6.9500760">
        <ele>2554.6</ele>
        <time>2017-07-24T08:59:45Z</time>
      </trkpt>
      <trkpt lat="44.5414630" lon="6.9499560">
        <ele>2555.6</ele>
        <time>2017-07-24T08:59:51Z</time>
      </trkpt>
      <trkpt lat="44.5414530" lon="6.9499340">
        <ele>2555.6</ele>
        <time>2017-07-24T08:59:52Z</time>
      </trkpt>
      <trkpt lat="44.5414140" lon="6.9498310">
        <ele>2557.0</ele>
        <time>2017-07-24T08:59:57Z</time>
      </trkpt>
      <trkpt lat="44.5414060" lon="6.9498130">
        <ele>2557.4</ele>
        <time>2017-07-24T08:59:58Z</time>
      </trkpt>
      <trkpt lat="44.5413900" lon="6.9497770">
        <ele>2558.2</ele>
        <time>2017-07-24T09:00:00Z</time>
      </trkpt>
      <trkpt lat="44.5413850" lon="6.9497290">
        <ele>2559.4</ele>
        <time>2017-07-24T09:00:02Z</time>
      </trkpt>
      <trkpt lat="44.5413910" lon="6.9496520">
        <ele>2560.8</ele>
        <time>2017-07-24T09:00:05Z</time>
      </trkpt>
      <trkpt lat="44.5414030" lon="6.9495990">
        <ele>2561.8</ele>
        <time>2017-07-24T09:00:07Z</time>
      </trkpt>
      <trkpt lat="44.5414120" lon="6.9495430">
        <ele>2563.0</ele>
        <time>2017-07-24T09:00:09Z</time>
      </trkpt>
      <trkpt lat="44.5414160" lon="6.9494880">
        <ele>2564.2</ele>
        <time>2017-07-24T09:00:11Z</time>
      </trkpt>
      <trkpt lat="44.5414190" lon="6.9494370">
        <ele>2565.2</ele>
        <time>2017-07-24T09:00:13Z</time>
      </trkpt>
      <trkpt lat="44.5414250" lon="6.9493910">
        <ele>2566.4</ele>
        <time>2017-07-24T09:00:15Z</time>
      </trkpt>
      <trkpt lat="44.5414260" lon="6.9493430">
        <ele>2567.4</ele>
        <time>2017-07-24T09:00:17Z</time>
      </trkpt>
      <trkpt lat="44.5414200" lon="6.9492700">
        <ele>2568.4</ele>
        <time>2017-07-24T09:00:20Z</time>
      </trkpt>
      <trkpt lat="44.5414080" lon="6.9492300">
        <ele>2568.6</ele>
        <time>2017-07-24T09:00:22Z</time>
      </trkpt>
      <trkpt lat="44.5413750" lon="6.9490940">
        <ele>2569.6</ele>
        <time>2017-07-24T09:00:29Z</time>
      </trkpt>
      <trkpt lat="44.5413440" lon="6.9488770">
        <ele>2569.4</ele>
        <time>2017-07-24T09:00:38Z</time>
      </trkpt>
      <trkpt lat="44.5413020" lon="6.9487790">
        <ele>2569.8</ele>
        <time>2017-07-24T09:00:43Z</time>
      </trkpt>
      <trkpt lat="44.5412600" lon="6.9487390">
        <ele>2570.2</ele>
        <time>2017-07-24T09:00:46Z</time>
      </trkpt>
      <trkpt lat="44.5411800" lon="6.9486370">
        <ele>2571.0</ele>
        <time>2017-07-24T09:00:53Z</time>
      </trkpt>
      <trkpt lat="44.5411740" lon="6.9486080">
        <ele>2571.4</ele>
        <time>2017-07-24T09:00:54Z</time>
      </trkpt>
      <trkpt lat="44.5411620" lon="6.9485580">
        <ele>2572.0</ele>
        <time>2017-07-24T09:00:56Z</time>
      </trkpt>
      <trkpt lat="44.5411780" lon="6.9484720">
        <ele>2573.4</ele>
        <time>2017-07-24T09:00:59Z</time>
      </trkpt>
      <trkpt lat="44.5411910" lon="6.9484480">
        <ele>2573.8</ele>
        <time>2017-07-24T09:01:00Z</time>
      </trkpt>
      <trkpt lat="44.5412220" lon="6.9484000">
        <ele>2574.4</ele>
        <time>2017-07-24T09:01:02Z</time>
      </trkpt>
      <trkpt lat="44.5412740" lon="6.9483480">
        <ele>2575.8</ele>
        <time>2017-07-24T09:01:05Z</time>
      </trkpt>
      <trkpt lat="44.5413050" lon="6.9483130">
        <ele>2576.8</ele>
        <time>2017-07-24T09:01:07Z</time>
      </trkpt>
      <trkpt lat="44.5413220" lon="6.9482960">
        <ele>2577.2</ele>
        <time>2017-07-24T09:01:08Z</time>
      </trkpt>
      <trkpt lat="44.5413720" lon="6.9482340">
        <ele>2578.4</ele>
        <time>2017-07-24T09:01:11Z</time>
      </trkpt>
      <trkpt lat="44.5414120" lon="6.9481460">
        <ele>2580.2</ele>
        <time>2017-07-24T09:01:14Z</time>
      </trkpt>
      <trkpt lat="44.5413940" lon="6.9480620">
        <ele>2581.4</ele>
        <time>2017-07-24T09:01:17Z</time>
      </trkpt>
      <trkpt lat="44.5413860" lon="6.9480430">
        <ele>2581.6</ele>
        <time>2017-07-24T09:01:18Z</time>
      </trkpt>
      <trkpt lat="44.5413190" lon="6.9479770">
        <ele>2582.4</ele>
        <time>2017-07-24T09:01:22Z</time>
      </trkpt>
      <trkpt lat="44.5413040" lon="6.9479570">
        <ele>2582.6</ele>
        <time>2017-07-24T09:01:23Z</time>
      </trkpt>
      <trkpt lat="44.5412370" lon="6.9478220">
        <ele>2583.4</ele>
        <time>2017-07-24T09:01:28Z</time>
      </trkpt>
      <trkpt lat="44.5412190" lon="6.9478000">
        <ele>2583.4</ele>
        <time>2017-07-24T09:01:29Z</time>
      </trkpt>
      <trkpt lat="44.5411070" lon="6.9477450">
        <ele>2583.2</ele>
        <time>2017-07-24T09:01:34Z</time>
      </trkpt>
      <trkpt lat="44.5410190" lon="6.9477000">
        <ele>2582.2</ele>
        <time>2017-07-24T09:01:38Z</time>
      </trkpt>
      <trkpt lat="44.5409350" lon="6.9476550">
        <ele>2581.8</ele>
        <time>2017-07-24T09:01:42Z</time>
      </trkpt>
      <trkpt lat="44.5408270" lon="6.9476170">
        <ele>2581.8</ele>
        <time>2017-07-24T09:01:47Z</time>
      </trkpt>
      <trkpt lat="44.5407890" lon="6.9476010">
        <ele>2582.0</ele>
        <time>2017-07-24T09:01:49Z</time>
      </trkpt>
      <trkpt lat="44.5406790" lon="6.9475670">
        <ele>2583.4</ele>
        <time>2017-07-24T09:01:54Z</time>
      </trkpt>
      <trkpt lat="44.5406180" lon="6.9475240">
        <ele>2584.6</ele>
        <time>2017-07-24T09:01:57Z</time>
      </trkpt>
      <trkpt lat="44.5405920" lon="6.9474830">
        <ele>2585.6</ele>
        <time>2017-07-24T09:01:59Z</time>
      </trkpt>
      <trkpt lat="44.5405740" lon="6.9474160">
        <ele>2587.4</ele>
        <time>2017-07-24T09:02:02Z</time>
      </trkpt>
      <trkpt lat="44.5405800" lon="6.9473390">
        <ele>2588.6</ele>
        <time>2017-07-24T09:02:05Z</time>
      </trkpt>
      <trkpt lat="44.5405970" lon="6.9472640">
        <ele>2590.0</ele>
        <time>2017-07-24T09:02:08Z</time>
      </trkpt>
      <trkpt lat="44.5406260" lon="6.9472050">
        <ele>2591.2</ele>
        <time>2017-07-24T09:02:11Z</time>
      </trkpt>
      <trkpt lat="44.5406490" lon="6.9471510">
        <ele>2592.4</ele>
        <time>2017-07-24T09:02:14Z</time>
      </trkpt>
      <trkpt lat="44.5406720" lon="6.9470930">
        <ele>2593.8</ele>
        <time>2017-07-24T09:02:17Z</time>
      </trkpt>
      <trkpt lat="44.5406840" lon="6.9470490">
        <ele>2594.8</ele>
        <time>2017-07-24T09:02:19Z</time>
      </trkpt>
      <trkpt lat="44.5406920" lon="6.9470040">
        <ele>2595.8</ele>
        <time>2017-07-24T09:02:21Z</time>
      </trkpt>
      <trkpt lat="44.5406970" lon="6.9469370">
        <ele>2597.2</ele>
        <time>2017-07-24T09:02:24Z</time>
      </trkpt>
      <trkpt lat="44.5406990" lon="6.9468930">
        <ele>2598.4</ele>
        <time>2017-07-24T09:02:26Z</time>
      </trkpt>
      <trkpt lat="44.5406960" lon="6.9468500">
        <ele>2599.2</ele>
        <time>2017-07-24T09:02:28Z</time>
      </trkpt>
      <trkpt lat="44.5406910" lon="6.9468290">
        <ele>2599.6</ele>
        <time>2017-07-24T09:02:29Z</time>
      </trkpt>
      <trkpt lat="44.5406730" lon="6.9467190">
        <ele>2600.6</ele>
        <time>2017-07-24T09:02:34Z</time>
      </trkpt>
      <trkpt lat="44.5406650" lon="6.9466750">
        <ele>2601.0</ele>
        <time>2017-07-24T09:02:36Z</time>
      </trkpt>
      <trkpt lat="44.5406580" lon="6.9465870">
        <ele>2601.8</ele>
        <time>2017-07-24T09:02:40Z</time>
      </trkpt>
      <trkpt lat="44.5406510" lon="6.9464720">
        <ele>2602.8</ele>
        <time>2017-07-24T09:02:45Z</time>
      </trkpt>
      <trkpt lat="44.5406620" lon="6.9463840">
        <ele>2604.0</ele>
        <time>2017-07-24T09:02:49Z</time>
      </trkpt>
      <trkpt lat="44.5406770" lon="6.9462990">
        <ele>2604.8</ele>
        <time>2017-07-24T09:02:53Z</time>
      </trkpt>
      <trkpt lat="44.5406810" lon="6.9462760">
        <ele>2605.0</ele>
        <time>2017-07-24T09:02:54Z</time>
      </trkpt>
      <trkpt lat="44.5407240" lon="6.9461500">
        <ele>2606.2</ele>
        <time>2017-07-24T09:03:00Z</time>
      </trkpt>
      <trkpt lat="44.5407510" lon="6.9460730">
        <ele>2607.2</ele>
        <time>2017-07-24T09:03:04Z</time>
      </trkpt>
      <trkpt lat="44.5407770" lon="6.9459950">
        <ele>2608.2</ele>
        <time>2017-07-24T09:03:08Z</time>
      </trkpt>
      <trkpt lat="44.5407830" lon="6.9459760">
        <ele>2608.4</ele>
        <time>2017-07-24T09:03:09Z</time>
      </trkpt>
      <trkpt lat="44.5407930" lon="6.9459060">
        <ele>2609.0</ele>
        <time>2017-07-24T09:03:12Z</time>
      </trkpt>
      <trkpt lat="44.5408030" lon="6.9458640">
        <ele>2609.6</ele>
        <time>2017-07-24T09:03:14Z</time>
      </trkpt>
      <trkpt lat="44.5408480" lon="6.9457030">
        <ele>2610.0</ele>
        <time>2017-07-24T09:03:21Z</time>
      </trkpt>
      <trkpt lat="44.5408810" lon="6.9456020">
        <ele>2610.4</ele>
        <time>2017-07-24T09:03:28Z</time>
      </trkpt>
      <trkpt lat="44.5409330" lon="6.9455020">
        <ele>2610.2</ele>
        <time>2017-07-24T09:03:34Z</time>
      </trkpt>
      <trkpt lat="44.5409930" lon="6.9453640">
        <ele>2610.2</ele>
        <time>2017-07-24T09:03:42Z</time>
      </trkpt>
      <trkpt lat="44.5410640" lon="6.9452560">
        <ele>2610.2</ele>
        <time>2017-07-24T09:03:49Z</time>
      </trkpt>
      <trkpt lat="44.5411530" lon="6.9451850">
        <ele>2610.2</ele>
        <time>2017-07-24T09:03:56Z</time>
      </trkpt>
      <trkpt lat="44.5412640" lon="6.9451130">
        <ele>2610.6</ele>
        <time>2017-07-24T09:04:03Z</time>
      </trkpt>
      <trkpt lat="44.5413940" lon="6.9450790">
        <ele>2611.4</ele>
        <time>2017-07-24T09:04:11Z</time>
      </trkpt>
      <trkpt lat="44.5414340" lon="6.9450660">
        <ele>2611.6</ele>
        <time>2017-07-24T09:04:13Z</time>
      </trkpt>
      <trkpt lat="44.5415240" lon="6.9450370">
        <ele>2612.2</ele>
        <time>2017-07-24T09:04:19Z</time>
      </trkpt>
      <trkpt lat="44.5416140" lon="6.9450180">
        <ele>2612.6</ele>
        <time>2017-07-24T09:04:25Z</time>
      </trkpt>
      <trkpt lat="44.5416290" lon="6.9450170">
        <ele>2613.0</ele>
        <time>2017-07-24T09:04:26Z</time>
      </trkpt>
      <trkpt lat="44.5416890" lon="6.9450040">
        <ele>2613.6</ele>
        <time>2017-07-24T09:04:30Z</time>
      </trkpt>
      <trkpt lat="44.5417790" lon="6.9449720">
        <ele>2614.8</ele>
        <time>2017-07-24T09:04:35Z</time>
      </trkpt>
      <trkpt lat="44.5418220" lon="6.9449650">
        <ele>2616.0</ele>
        <time>2017-07-24T09:04:38Z</time>
      </trkpt>
      <trkpt lat="44.5418700" lon="6.9449550">
        <ele>2617.4</ele>
        <time>2017-07-24T09:04:41Z</time>
      </trkpt>
      <trkpt lat="44.5419200" lon="6.9449530">
        <ele>2618.8</ele>
        <time>2017-07-24T09:04:44Z</time>
      </trkpt>
      <trkpt lat="44.5419690" lon="6.9449440">
        <ele>2620.4</ele>
        <time>2017-07-24T09:04:47Z</time>
      </trkpt>
      <trkpt lat="44.5420010" lon="6.9449460">
        <ele>2621.6</ele>
        <time>2017-07-24T09:04:49Z</time>
      </trkpt>
      <trkpt lat="44.5420320" lon="6.9449410">
        <ele>2623.0</ele>
        <time>2017-07-24T09:04:51Z</time>
      </trkpt>
      <trkpt lat="44.5420650" lon="6.9449400">
        <ele>2624.0</ele>
        <time>2017-07-24T09:04:53Z</time>
      </trkpt>
      <trkpt lat="44.5420830" lon="6.9449370">
        <ele>2624.6</ele>
        <time>2017-07-24T09:04:54Z</time>
      </trkpt>
      <trkpt lat="44.5421030" lon="6.9449340">
        <ele>2625.2</ele>
        <time>2017-07-24T09:04:55Z</time>
      </trkpt>
      <trkpt lat="44.5421330" lon="6.9449290">
        <ele>2626.2</ele>
        <time>2017-07-24T09:04:57Z</time>
      </trkpt>
      <trkpt lat="44.5421620" lon="6.9449210">
        <ele>2627.4</ele>
        <time>2017-07-24T09:04:59Z</time>
      </trkpt>
      <trkpt lat="44.5422070" lon="6.9449070">
        <ele>2628.6</ele>
        <time>2017-07-24T09:05:02Z</time>
      </trkpt>
      <trkpt lat="44.5422510" lon="6.9449120">
        <ele>2629.8</ele>
        <time>2017-07-24T09:05:05Z</time>
      </trkpt>
      <trkpt lat="44.5422980" lon="6.9449140">
        <ele>2630.8</ele>
        <time>2017-07-24T09:05:08Z</time>
      </trkpt>
      <trkpt lat="44.5423120" lon="6.9449150">
        <ele>2631.0</ele>
        <time>2017-07-24T09:05:09Z</time>
      </trkpt>
      <trkpt lat="44.5423630" lon="6.9449120">
        <ele>2631.8</ele>
        <time>2017-07-24T09:05:12Z</time>
      </trkpt>
      <trkpt lat="44.5423780" lon="6.9449130">
        <ele>2632.0</ele>
        <time>2017-07-24T09:05:13Z</time>
      </trkpt>
      <trkpt lat="44.5424360" lon="6.9448980">
        <ele>2632.8</ele>
        <time>2017-07-24T09:05:16Z</time>
      </trkpt>
      <trkpt lat="44.5424530" lon="6.9448990">
        <ele>2633.2</ele>
        <time>2017-07-24T09:05:17Z</time>
      </trkpt>
      <trkpt lat="44.5425220" lon="6.9449220">
        <ele>2634.4</ele>
        <time>2017-07-24T09:05:22Z</time>
      </trkpt>
      <trkpt lat="44.5425520" lon="6.9449260">
        <ele>2634.8</ele>
        <time>2017-07-24T09:05:24Z</time>
      </trkpt>
      <trkpt lat="44.5426150" lon="6.9449110">
        <ele>2635.6</ele>
        <time>2017-07-24T09:05:28Z</time>
      </trkpt>
      <trkpt lat="44.5426550" lon="6.9448990">
        <ele>2635.8</ele>
        <time>2017-07-24T09:05:30Z</time>
      </trkpt>
      <trkpt lat="44.5427660" lon="6.9449020">
        <ele>2636.8</ele>
        <time>2017-07-24T09:05:35Z</time>
      </trkpt>
      <trkpt lat="44.5429180" lon="6.9449480">
        <ele>2636.6</ele>
        <time>2017-07-24T09:05:42Z</time>
      </trkpt>
      <trkpt lat="44.5429990" lon="6.9451220">
        <ele>2635.6</ele>
        <time>2017-07-24T09:05:48Z</time>
      </trkpt>
      <trkpt lat="44.5430130" lon="6.9451450">
        <ele>2635.2</ele>
        <time>2017-07-24T09:05:49Z</time>
      </trkpt>
      <trkpt lat="44.5430920" lon="6.9452580">
        <ele>2634.8</ele>
        <time>2017-07-24T09:05:55Z</time>
      </trkpt>
      <trkpt lat="44.5431890" lon="6.9454030">
        <ele>2635.6</ele>
        <time>2017-07-24T09:06:03Z</time>
      </trkpt>
      <trkpt lat="44.5432290" lon="6.9455110">
        <ele>2636.6</ele>
        <time>2017-07-24T09:06:08Z</time>
      </trkpt>
      <trkpt lat="44.5432730" lon="6.9455790">
        <ele>2637.2</ele>
        <time>2017-07-24T09:06:12Z</time>
      </trkpt>
      <trkpt lat="44.5433010" lon="6.9456070">
        <ele>2637.8</ele>
        <time>2017-07-24T09:06:14Z</time>
      </trkpt>
      <trkpt lat="44.5433520" lon="6.9456580">
        <ele>2639.0</ele>
        <time>2017-07-24T09:06:18Z</time>
      </trkpt>
      <trkpt lat="44.5433820" lon="6.9456740">
        <ele>2640.0</ele>
        <time>2017-07-24T09:06:20Z</time>
      </trkpt>
      <trkpt lat="44.5433990" lon="6.9456840">
        <ele>2640.4</ele>
        <time>2017-07-24T09:06:21Z</time>
      </trkpt>
      <trkpt lat="44.5434480" lon="6.9457110">
        <ele>2642.0</ele>
        <time>2017-07-24T09:06:24Z</time>
      </trkpt>
      <trkpt lat="44.5434770" lon="6.9457330">
        <ele>2643.0</ele>
        <time>2017-07-24T09:06:26Z</time>
      </trkpt>
      <trkpt lat="44.5435050" lon="6.9457580">
        <ele>2644.4</ele>
        <time>2017-07-24T09:06:28Z</time>
      </trkpt>
      <trkpt lat="44.5435480" lon="6.9457940">
        <ele>2645.8</ele>
        <time>2017-07-24T09:06:31Z</time>
      </trkpt>
      <trkpt lat="44.5436150" lon="6.9458250">
        <ele>2646.8</ele>
        <time>2017-07-24T09:06:35Z</time>
      </trkpt>
      <trkpt lat="44.5436330" lon="6.9458320">
        <ele>2647.0</ele>
        <time>2017-07-24T09:06:36Z</time>
      </trkpt>
      <trkpt lat="44.5437390" lon="6.9458580">
        <ele>2647.6</ele>
        <time>2017-07-24T09:06:42Z</time>
      </trkpt>
      <trkpt lat="44.5438650" lon="6.9458980">
        <ele>2647.4</ele>
        <time>2017-07-24T09:06:49Z</time>
      </trkpt>
      <trkpt lat="44.5439200" lon="6.9459200">
        <ele>2647.0</ele>
        <time>2017-07-24T09:06:52Z</time>
      </trkpt>
      <trkpt lat="44.5439930" lon="6.9459670">
        <ele>2647.0</ele>
        <time>2017-07-24T09:06:56Z</time>
      </trkpt>
      <trkpt lat="44.5440960" lon="6.9460810">
        <ele>2647.8</ele>
        <time>2017-07-24T09:07:02Z</time>
      </trkpt>
      <trkpt lat="44.5441420" lon="6.9461680">
        <ele>2648.0</ele>
        <time>2017-07-24T09:07:05Z</time>
      </trkpt>
      <trkpt lat="44.5442160" lon="6.9462470">
        <ele>2648.2</ele>
        <time>2017-07-24T09:07:09Z</time>
      </trkpt>
      <trkpt lat="44.5443440" lon="6.9464240">
        <ele>2649.0</ele>
        <time>2017-07-24T09:07:17Z</time>
      </trkpt>
      <trkpt lat="44.5443750" lon="6.9465310">
        <ele>2650.2</ele>
        <time>2017-07-24T09:07:21Z</time>
      </trkpt>
      <trkpt lat="44.5443870" lon="6.9466180">
        <ele>2651.2</ele>
        <time>2017-07-24T09:07:24Z</time>
      </trkpt>
      <trkpt lat="44.5443910" lon="6.9467510">
        <ele>2652.4</ele>
        <time>2017-07-24T09:07:28Z</time>
      </trkpt>
      <trkpt lat="44.5443950" lon="6.9468080">
        <ele>2653.2</ele>
        <time>2017-07-24T09:07:30Z</time>
      </trkpt>
      <trkpt lat="44.5444000" lon="6.9468350">
        <ele>2653.6</ele>
        <time>2017-07-24T09:07:31Z</time>
      </trkpt>
      <trkpt lat="44.5444230" lon="6.9469050">
        <ele>2654.6</ele>
        <time>2017-07-24T09:07:34Z</time>
      </trkpt>
      <trkpt lat="44.5444390" lon="6.9469820">
        <ele>2655.8</ele>
        <time>2017-07-24T09:07:37Z</time>
      </trkpt>
      <trkpt lat="44.5444610" lon="6.9470580">
        <ele>2657.0</ele>
        <time>2017-07-24T09:07:40Z</time>
      </trkpt>
      <trkpt lat="44.5444990" lon="6.9471730">
        <ele>2658.4</ele>
        <time>2017-07-24T09:07:45Z</time>
      </trkpt>
      <trkpt lat="44.5445060" lon="6.9471950">
        <ele>2658.6</ele>
        <time>2017-07-24T09:07:46Z</time>
      </trkpt>
      <trkpt lat="44.5445440" lon="6.9472870">
        <ele>2659.4</ele>
        <time>2017-07-24T09:07:50Z</time>
      </trkpt>
      <trkpt lat="44.5445860" lon="6.9473670">
        <ele>2659.8</ele>
        <time>2017-07-24T09:07:54Z</time>
      </trkpt>
      <trkpt lat="44.5446630" lon="6.9475140">
        <ele>2659.4</ele>
        <time>2017-07-24T09:08:01Z</time>
      </trkpt>
      <trkpt lat="44.5446970" lon="6.9476900">
        <ele>2659.8</ele>
        <time>2017-07-24T09:08:08Z</time>
      </trkpt>
      <trkpt lat="44.5447080" lon="6.9477360">
        <ele>2660.0</ele>
        <time>2017-07-24T09:08:10Z</time>
      </trkpt>
      <trkpt lat="44.5447340" lon="6.9477690">
        <ele>2660.2</ele>
        <time>2017-07-24T09:08:12Z</time>
      </trkpt>
      <trkpt lat="44.5447730" lon="6.9477820">
        <ele>2660.4</ele>
        <time>2017-07-24T09:08:14Z</time>
      </trkpt>
      <trkpt lat="44.5447910" lon="6.9477850">
        <ele>2660.6</ele>
        <time>2017-07-24T09:08:15Z</time>
      </trkpt>
      <trkpt lat="44.5448460" lon="6.9477820">
        <ele>2661.4</ele>
        <time>2017-07-24T09:08:18Z</time>
      </trkpt>
      <trkpt lat="44.5448640" lon="6.9477760">
        <ele>2661.6</ele>
        <time>2017-07-24T09:08:19Z</time>
      </trkpt>
      <trkpt lat="44.5449350" lon="6.9477590">
        <ele>2662.6</ele>
        <time>2017-07-24T09:08:23Z</time>
      </trkpt>
      <trkpt lat="44.5449730" lon="6.9477460">
        <ele>2663.4</ele>
        <time>2017-07-24T09:08:25Z</time>
      </trkpt>
      <trkpt lat="44.5449910" lon="6.9477410">
        <ele>2663.6</ele>
        <time>2017-07-24T09:08:26Z</time>
      </trkpt>
      <trkpt lat="44.5450480" lon="6.9477270">
        <ele>2664.8</ele>
        <time>2017-07-24T09:08:29Z</time>
      </trkpt>
      <trkpt lat="44.5451510" lon="6.9477030">
        <ele>2665.8</ele>
        <time>2017-07-24T09:08:34Z</time>
      </trkpt>
      <trkpt lat="44.5452600" lon="6.9476680">
        <ele>2667.0</ele>
        <time>2017-07-24T09:08:39Z</time>
      </trkpt>
      <trkpt lat="44.5453340" lon="6.9476530">
        <ele>2668.4</ele>
        <time>2017-07-24T09:08:42Z</time>
      </trkpt>
      <trkpt lat="44.5454070" lon="6.9476350">
        <ele>2669.6</ele>
        <time>2017-07-24T09:08:45Z</time>
      </trkpt>
      <trkpt lat="44.5454810" lon="6.9476250">
        <ele>2670.6</ele>
        <time>2017-07-24T09:08:48Z</time>
      </trkpt>
      <trkpt lat="44.5455060" lon="6.9476260">
        <ele>2671.0</ele>
        <time>2017-07-24T09:08:49Z</time>
      </trkpt>
      <trkpt lat="44.5455530" lon="6.9476240">
        <ele>2672.2</ele>
        <time>2017-07-24T09:08:51Z</time>
      </trkpt>
      <trkpt lat="44.5456250" lon="6.9476250">
        <ele>2673.2</ele>
        <time>2017-07-24T09:08:54Z</time>
      </trkpt>
      <trkpt lat="44.5456960" lon="6.9476170">
        <ele>2674.4</ele>
        <time>2017-07-24T09:08:57Z</time>
      </trkpt>
      <trkpt lat="44.5457650" lon="6.9476230">
        <ele>2675.6</ele>
        <time>2017-07-24T09:09:00Z</time>
      </trkpt>
      <trkpt lat="44.5458640" lon="6.9476180">
        <ele>2676.8</ele>
        <time>2017-07-24T09:09:04Z</time>
      </trkpt>
      <trkpt lat="44.5460120" lon="6.9475570">
        <ele>2676.8</ele>
        <time>2017-07-24T09:09:11Z</time>
      </trkpt>
      <trkpt lat="44.5461380" lon="6.9475340">
        <ele>2676.6</ele>
        <time>2017-07-24T09:09:18Z</time>
      </trkpt>
      <trkpt lat="44.5462800" lon="6.9474770">
        <ele>2676.4</ele>
        <time>2017-07-24T09:09:26Z</time>
      </trkpt>
      <trkpt lat="44.5464090" lon="6.9474200">
        <ele>2676.6</ele>
        <time>2017-07-24T09:09:34Z</time>
      </trkpt>
      <trkpt lat="44.5465230" lon="6.9473610">
        <ele>2677.8</ele>
        <time>2017-07-24T09:09:41Z</time>
      </trkpt>
      <trkpt lat="44.5465400" lon="6.9473510">
        <ele>2678.0</ele>
        <time>2017-07-24T09:09:42Z</time>
      </trkpt>
      <trkpt lat="44.5465920" lon="6.9473300">
        <ele>2679.0</ele>
        <time>2017-07-24T09:09:45Z</time>
      </trkpt>
      <trkpt lat="44.5466610" lon="6.9473060">
        <ele>2680.2</ele>
        <time>2017-07-24T09:09:49Z</time>
      </trkpt>
      <trkpt lat="44.5467270" lon="6.9472830">
        <ele>2681.6</ele>
        <time>2017-07-24T09:09:53Z</time>
      </trkpt>
      <trkpt lat="44.5467700" lon="6.9472790">
        <ele>2682.0</ele>
        <time>2017-07-24T09:09:56Z</time>
      </trkpt>
      <trkpt lat="44.5468060" lon="6.9472870">
        <ele>2682.6</ele>
        <time>2017-07-24T09:09:58Z</time>
      </trkpt>
      <trkpt lat="44.5468770" lon="6.9472890">
        <ele>2683.4</ele>
        <time>2017-07-24T09:10:02Z</time>
      </trkpt>
      <trkpt lat="44.5468920" lon="6.9472870">
        <ele>2684.2</ele>
        <time>2017-07-24T09:10:03Z</time>
      </trkpt>
      <trkpt lat="44.5469670" lon="6.9472800">
        <ele>2685.4</ele>
        <time>2017-07-24T09:10:07Z</time>
      </trkpt>
      <trkpt lat="44.5470020" lon="6.9472650">
        <ele>2685.8</ele>
        <time>2017-07-24T09:10:09Z</time>
      </trkpt>
      <trkpt lat="44.5470620" lon="6.9472360">
        <ele>2686.4</ele>
        <time>2017-07-24T09:10:13Z</time>
      </trkpt>
      <trkpt lat="44.5470800" lon="6.9472300">
        <ele>2686.6</ele>
        <time>2017-07-24T09:10:14Z</time>
      </trkpt>
      <trkpt lat="44.5472320" lon="6.9472850">
        <ele>2687.4</ele>
        <time>2017-07-24T09:10:22Z</time>
      </trkpt>
      <trkpt lat="44.5473470" lon="6.9473260">
        <ele>2688.2</ele>
        <time>2017-07-24T09:10:28Z</time>
      </trkpt>
      <trkpt lat="44.5474040" lon="6.9473390">
        <ele>2688.6</ele>
        <time>2017-07-24T09:10:31Z</time>
      </trkpt>
      <trkpt lat="44.5475070" lon="6.9473540">
        <ele>2689.2</ele>
        <time>2017-07-24T09:10:37Z</time>
      </trkpt>
      <trkpt lat="44.5475600" lon="6.9473580">
        <ele>2689.6</ele>
        <time>2017-07-24T09:10:40Z</time>
      </trkpt>
      <trkpt lat="44.5476260" lon="6.9473710">
        <ele>2690.4</ele>
        <time>2017-07-24T09:10:44Z</time>
      </trkpt>
      <trkpt lat="44.5476570" lon="6.9473860">
        <ele>2690.6</ele>
        <time>2017-07-24T09:10:46Z</time>
      </trkpt>
      <trkpt lat="44.5477350" lon="6.9473990">
        <ele>2692.0</ele>
        <time>2017-07-24T09:10:50Z</time>
      </trkpt>
      <trkpt lat="44.5477960" lon="6.9473910">
        <ele>2693.2</ele>
        <time>2017-07-24T09:10:53Z</time>
      </trkpt>
      <trkpt lat="44.5478440" lon="6.9473670">
        <ele>2694.0</ele>
        <time>2017-07-24T09:10:56Z</time>
      </trkpt>
      <trkpt lat="44.5478600" lon="6.9473590">
        <ele>2694.2</ele>
        <time>2017-07-24T09:10:57Z</time>
      </trkpt>
      <trkpt lat="44.5479300" lon="6.9473560">
        <ele>2695.4</ele>
        <time>2017-07-24T09:11:01Z</time>
      </trkpt>
      <trkpt lat="44.5479640" lon="6.9473610">
        <ele>2695.8</ele>
        <time>2017-07-24T09:11:03Z</time>
      </trkpt>
      <trkpt lat="44.5480300" lon="6.9474010">
        <ele>2696.4</ele>
        <time>2017-07-24T09:11:07Z</time>
      </trkpt>
      <trkpt lat="44.5480610" lon="6.9474350">
        <ele>2697.0</ele>
        <time>2017-07-24T09:11:09Z</time>
      </trkpt>
      <trkpt lat="44.5480690" lon="6.9474600">
        <ele>2697.0</ele>
        <time>2017-07-24T09:11:10Z</time>
      </trkpt>
      <trkpt lat="44.5480900" lon="6.9475360">
        <ele>2697.8</ele>
        <time>2017-07-24T09:11:13Z</time>
      </trkpt>
      <trkpt lat="44.5480990" lon="6.9475620">
        <ele>2698.2</ele>
        <time>2017-07-24T09:11:14Z</time>
      </trkpt>
      <trkpt lat="44.5481330" lon="6.9476210">
        <ele>2699.0</ele>
        <time>2017-07-24T09:11:17Z</time>
      </trkpt>
      <trkpt lat="44.5481790" lon="6.9476640">
        <ele>2699.8</ele>
        <time>2017-07-24T09:11:20Z</time>
      </trkpt>
      <trkpt lat="44.5481930" lon="6.9476780">
        <ele>2700.2</ele>
        <time>2017-07-24T09:11:21Z</time>
      </trkpt>
      <trkpt lat="44.5482560" lon="6.9477240">
        <ele>2701.0</ele>
        <time>2017-07-24T09:11:25Z</time>
      </trkpt>
      <trkpt lat="44.5482700" lon="6.9477310">
        <ele>2701.4</ele>
        <time>2017-07-24T09:11:26Z</time>
      </trkpt>
      <trkpt lat="44.5483140" lon="6.9477500">
        <ele>2702.8</ele>
        <time>2017-07-24T09:11:29Z</time>
      </trkpt>
      <trkpt lat="44.5483430" lon="6.9477650">
        <ele>2703.8</ele>
        <time>2017-07-24T09:11:31Z</time>
      </trkpt>
      <trkpt lat="44.5483580" lon="6.9477730">
        <ele>2704.2</ele>
        <time>2017-07-24T09:11:32Z</time>
      </trkpt>
      <trkpt lat="44.5483930" lon="6.9477990">
        <ele>2705.0</ele>
        <time>2017-07-24T09:11:34Z</time>
      </trkpt>
      <trkpt lat="44.5484330" lon="6.9478430">
        <ele>2706.4</ele>
        <time>2017-07-24T09:11:37Z</time>
      </trkpt>
      <trkpt lat="44.5484470" lon="6.9478570">
        <ele>2706.8</ele>
        <time>2017-07-24T09:11:38Z</time>
      </trkpt>
      <trkpt lat="44.5484710" lon="6.9478850">
        <ele>2707.8</ele>
        <time>2017-07-24T09:11:40Z</time>
      </trkpt>
      <trkpt lat="44.5485110" lon="6.9479270">
        <ele>2709.2</ele>
        <time>2017-07-24T09:11:43Z</time>
      </trkpt>
      <trkpt lat="44.5485360" lon="6.9479620">
        <ele>2710.0</ele>
        <time>2017-07-24T09:11:45Z</time>
      </trkpt>
      <trkpt lat="44.5485500" lon="6.9479790">
        <ele>2710.4</ele>
        <time>2017-07-24T09:11:46Z</time>
      </trkpt>
      <trkpt lat="44.5485890" lon="6.9480180">
        <ele>2711.8</ele>
        <time>2017-07-24T09:11:49Z</time>
      </trkpt>
      <trkpt lat="44.5486300" lon="6.9480540">
        <ele>2713.2</ele>
        <time>2017-07-24T09:11:52Z</time>
      </trkpt>
      <trkpt lat="44.5486720" lon="6.9480900">
        <ele>2714.4</ele>
        <time>2017-07-24T09:11:55Z</time>
      </trkpt>
      <trkpt lat="44.5487110" lon="6.9481250">
        <ele>2716.0</ele>
        <time>2017-07-24T09:11:58Z</time>
      </trkpt>
      <trkpt lat="44.5487360" lon="6.9481530">
        <ele>2716.8</ele>
        <time>2017-07-24T09:12:00Z</time>
      </trkpt>
      <trkpt lat="44.5487490" lon="6.9481640">
        <ele>2717.0</ele>
        <time>2017-07-24T09:12:01Z</time>
      </trkpt>
      <trkpt lat="44.5487750" lon="6.9481880">
        <ele>2718.2</ele>
        <time>2017-07-24T09:12:03Z</time>
      </trkpt>
      <trkpt lat="44.5488260" lon="6.9482440">
        <ele>2719.4</ele>
        <time>2017-07-24T09:12:07Z</time>
      </trkpt>
      <trkpt lat="44.5488360" lon="6.9482600">
        <ele>2719.6</ele>
        <time>2017-07-24T09:12:08Z</time>
      </trkpt>
      <trkpt lat="44.5488570" lon="6.9482940">
        <ele>2720.4</ele>
        <time>2017-07-24T09:12:10Z</time>
      </trkpt>
      <trkpt lat="44.5489010" lon="6.9483720">
        <ele>2721.6</ele>
        <time>2017-07-24T09:12:14Z</time>
      </trkpt>
      <trkpt lat="44.5489260" lon="6.9484070">
        <ele>2722.0</ele>
        <time>2017-07-24T09:12:16Z</time>
      </trkpt>
      <trkpt lat="44.5489520" lon="6.9484430">
        <ele>2722.8</ele>
        <time>2017-07-24T09:12:18Z</time>
      </trkpt>
      <trkpt lat="44.5489950" lon="6.9485290">
        <ele>2724.0</ele>
        <time>2017-07-24T09:12:22Z</time>
      </trkpt>
      <trkpt lat="44.5490220" lon="6.9486050">
        <ele>2724.6</ele>
        <time>2017-07-24T09:12:25Z</time>
      </trkpt>
      <trkpt lat="44.5490420" lon="6.9486620">
        <ele>2725.2</ele>
        <time>2017-07-24T09:12:27Z</time>
      </trkpt>
      <trkpt lat="44.5491200" lon="6.9488120">
        <ele>2724.2</ele>
        <time>2017-07-24T09:12:33Z</time>
      </trkpt>
      <trkpt lat="44.5491430" lon="6.9488120">
        <ele>2724.2</ele>
        <time>2017-07-24T09:12:34Z</time>
      </trkpt>
      <trkpt lat="44.5491790" lon="6.9487420">
        <ele>2724.4</ele>
        <time>2017-07-24T09:12:37Z</time>
      </trkpt>
      <trkpt lat="44.5491680" lon="6.9486740">
        <ele>2724.6</ele>
        <time>2017-07-24T09:12:39Z</time>
      </trkpt>
      <trkpt lat="44.5491310" lon="6.9485470">
        <ele>2724.6</ele>
        <time>2017-07-24T09:12:43Z</time>
      </trkpt>
      <trkpt lat="44.5490910" lon="6.9484590">
        <ele>2725.2</ele>
        <time>2017-07-24T09:12:46Z</time>
      </trkpt>
      <trkpt lat="44.5490680" lon="6.9483350">
        <ele>2725.8</ele>
        <time>2017-07-24T09:12:50Z</time>
      </trkpt>
      <trkpt lat="44.5490590" lon="6.9482740">
        <ele>2726.2</ele>
        <time>2017-07-24T09:12:52Z</time>
      </trkpt>
      <trkpt lat="44.5490430" lon="6.9481720">
        <ele>2727.2</ele>
        <time>2017-07-24T09:12:55Z</time>
      </trkpt>
      <trkpt lat="44.5490310" lon="6.9481150">
        <ele>2727.6</ele>
        <time>2017-07-24T09:12:57Z</time>
      </trkpt>
      <trkpt lat="44.5490050" lon="6.9480210">
        <ele>2728.6</ele>
        <time>2017-07-24T09:13:00Z</time>
      </trkpt>
      <trkpt lat="44.5489830" lon="6.9479600">
        <ele>2729.2</ele>
        <time>2017-07-24T09:13:02Z</time>
      </trkpt>
      <trkpt lat="44.5489710" lon="6.9478990">
        <ele>2729.8</ele>
        <time>2017-07-24T09:13:04Z</time>
      </trkpt>
      <trkpt lat="44.5489660" lon="6.9478070">
        <ele>2730.4</ele>
        <time>2017-07-24T09:13:07Z</time>
      </trkpt>
      <trkpt lat="44.5489540" lon="6.9477440">
        <ele>2731.0</ele>
        <time>2017-07-24T09:13:09Z</time>
      </trkpt>
      <trkpt lat="44.5489220" lon="6.9476610">
        <ele>2732.0</ele>
        <time>2017-07-24T09:13:12Z</time>
      </trkpt>
      <trkpt lat="44.5489100" lon="6.9476360">
        <ele>2732.4</ele>
        <time>2017-07-24T09:13:13Z</time>
      </trkpt>
      <trkpt lat="44.5488900" lon="6.9475760">
        <ele>2733.6</ele>
        <time>2017-07-24T09:13:15Z</time>
      </trkpt>
      <trkpt lat="44.5488620" lon="6.9474940">
        <ele>2734.8</ele>
        <time>2017-07-24T09:13:18Z</time>
      </trkpt>
      <trkpt lat="44.5488410" lon="6.9474400">
        <ele>2735.2</ele>
        <time>2017-07-24T09:13:20Z</time>
      </trkpt>
      <trkpt lat="44.5487610" lon="6.9472850">
        <ele>2734.8</ele>
        <time>2017-07-24T09:13:27Z</time>
      </trkpt>
      <trkpt lat="44.5486850" lon="6.9471500">
        <ele>2733.6</ele>
        <time>2017-07-24T09:13:34Z</time>
      </trkpt>
      <trkpt lat="44.5486350" lon="6.9470460">
        <ele>2732.6</ele>
        <time>2017-07-24T09:13:39Z</time>
      </trkpt>
      <trkpt lat="44.5486100" lon="6.9470130">
        <ele>2732.4</ele>
        <time>2017-07-24T09:13:41Z</time>
      </trkpt>
      <trkpt lat="44.5485190" lon="6.9469080">
        <ele>2732.4</ele>
        <time>2017-07-24T09:13:47Z</time>
      </trkpt>
      <trkpt lat="44.5484020" lon="6.9468260">
        <ele>2732.4</ele>
        <time>2017-07-24T09:13:54Z</time>
      </trkpt>
      <trkpt lat="44.5482570" lon="6.9467100">
        <ele>2732.8</ele>
        <time>2017-07-24T09:14:02Z</time>
      </trkpt>
      <trkpt lat="44.5481720" lon="6.9466170">
        <ele>2733.8</ele>
        <time>2017-07-24T09:14:07Z</time>
      </trkpt>
      <trkpt lat="44.5481370" lon="6.9465820">
        <ele>2734.2</ele>
        <time>2017-07-24T09:14:09Z</time>
      </trkpt>
      <trkpt lat="44.5480820" lon="6.9465330">
        <ele>2734.8</ele>
        <time>2017-07-24T09:14:12Z</time>
      </trkpt>
      <trkpt lat="44.5479670" lon="6.9464580">
        <ele>2736.0</ele>
        <time>2017-07-24T09:14:18Z</time>
      </trkpt>
      <trkpt lat="44.5479490" lon="6.9464460">
        <ele>2736.4</ele>
        <time>2017-07-24T09:14:19Z</time>
      </trkpt>
      <trkpt lat="44.5478730" lon="6.9464080">
        <ele>2737.0</ele>
        <time>2017-07-24T09:14:23Z</time>
      </trkpt>
      <trkpt lat="44.5477960" lon="6.9463860">
        <ele>2737.6</ele>
        <time>2017-07-24T09:14:27Z</time>
      </trkpt>
      <trkpt lat="44.5477280" lon="6.9463640">
        <ele>2738.2</ele>
        <time>2017-07-24T09:14:30Z</time>
      </trkpt>
      <trkpt lat="44.5476460" lon="6.9462800">
        <ele>2739.2</ele>
        <time>2017-07-24T09:14:35Z</time>
      </trkpt>
      <trkpt lat="44.5476260" lon="6.9462330">
        <ele>2739.4</ele>
        <time>2017-07-24T09:14:37Z</time>
      </trkpt>
      <trkpt lat="44.5476190" lon="6.9461250">
        <ele>2739.8</ele>
        <time>2017-07-24T09:14:41Z</time>
      </trkpt>
      <trkpt lat="44.5476220" lon="6.9460410">
        <ele>2740.6</ele>
        <time>2017-07-24T09:14:44Z</time>
      </trkpt>
      <trkpt lat="44.5476430" lon="6.9459490">
        <ele>2741.8</ele>
        <time>2017-07-24T09:14:47Z</time>
      </trkpt>
      <trkpt lat="44.5476590" lon="6.9458820">
        <ele>2742.8</ele>
        <time>2017-07-24T09:14:49Z</time>
      </trkpt>
      <trkpt lat="44.5476690" lon="6.9458480">
        <ele>2743.2</ele>
        <time>2017-07-24T09:14:50Z</time>
      </trkpt>
      <trkpt lat="44.5476910" lon="6.9457780">
        <ele>2745.0</ele>
        <time>2017-07-24T09:14:52Z</time>
      </trkpt>
      <trkpt lat="44.5477120" lon="6.9457080">
        <ele>2746.2</ele>
        <time>2017-07-24T09:14:54Z</time>
      </trkpt>
      <trkpt lat="44.5477290" lon="6.9456400">
        <ele>2747.2</ele>
        <time>2017-07-24T09:14:56Z</time>
      </trkpt>
      <trkpt lat="44.5477520" lon="6.9455730">
        <ele>2748.8</ele>
        <time>2017-07-24T09:14:58Z</time>
      </trkpt>
      <trkpt lat="44.5477830" lon="6.9455060">
        <ele>2750.4</ele>
        <time>2017-07-24T09:15:00Z</time>
      </trkpt>
      <trkpt lat="44.5478150" lon="6.9454290">
        <ele>2751.8</ele>
        <time>2017-07-24T09:15:02Z</time>
      </trkpt>
      <trkpt lat="44.5478430" lon="6.9453480">
        <ele>2753.4</ele>
        <time>2017-07-24T09:15:04Z</time>
      </trkpt>
      <trkpt lat="44.5478630" lon="6.9452680">
        <ele>2754.8</ele>
        <time>2017-07-24T09:15:06Z</time>
      </trkpt>
      <trkpt lat="44.5478770" lon="6.9451910">
        <ele>2756.0</ele>
        <time>2017-07-24T09:15:08Z</time>
      </trkpt>
      <trkpt lat="44.5478880" lon="6.9451170">
        <ele>2757.2</ele>
        <time>2017-07-24T09:15:10Z</time>
      </trkpt>
      <trkpt lat="44.5479070" lon="6.9450410">
        <ele>2758.4</ele>
        <time>2017-07-24T09:15:12Z</time>
      </trkpt>
      <trkpt lat="44.5479270" lon="6.9449600">
        <ele>2759.2</ele>
        <time>2017-07-24T09:15:14Z</time>
      </trkpt>
      <trkpt lat="44.5479310" lon="6.9449180">
        <ele>2759.4</ele>
        <time>2017-07-24T09:15:15Z</time>
      </trkpt>
      <trkpt lat="44.5479360" lon="6.9447780">
        <ele>2760.6</ele>
        <time>2017-07-24T09:15:19Z</time>
      </trkpt>
      <trkpt lat="44.5479370" lon="6.9447460">
        <ele>2760.8</ele>
        <time>2017-07-24T09:15:20Z</time>
      </trkpt>
      <trkpt lat="44.5479490" lon="6.9446170">
        <ele>2761.8</ele>
        <time>2017-07-24T09:15:24Z</time>
      </trkpt>
      <trkpt lat="44.5479620" lon="6.9444850">
        <ele>2762.8</ele>
        <time>2017-07-24T09:15:28Z</time>
      </trkpt>
      <trkpt lat="44.5479810" lon="6.9443290">
        <ele>2763.8</ele>
        <time>2017-07-24T09:15:33Z</time>
      </trkpt>
      <trkpt lat="44.5480100" lon="6.9442160">
        <ele>2765.0</ele>
        <time>2017-07-24T09:15:37Z</time>
      </trkpt>
      <trkpt lat="44.5480220" lon="6.9440700">
        <ele>2766.2</ele>
        <time>2017-07-24T09:15:42Z</time>
      </trkpt>
      <trkpt lat="44.5480250" lon="6.9439790">
        <ele>2766.6</ele>
        <time>2017-07-24T09:15:45Z</time>
      </trkpt>
      <trkpt lat="44.5480380" lon="6.9438950">
        <ele>2767.2</ele>
        <time>2017-07-24T09:15:48Z</time>
      </trkpt>
      <trkpt lat="44.5480510" lon="6.9437460">
        <ele>2768.4</ele>
        <time>2017-07-24T09:15:53Z</time>
      </trkpt>
      <trkpt lat="44.5480590" lon="6.9436870">
        <ele>2768.8</ele>
        <time>2017-07-24T09:15:55Z</time>
      </trkpt>
      <trkpt lat="44.5480650" lon="6.9436260">
        <ele>2769.6</ele>
        <time>2017-07-24T09:15:57Z</time>
      </trkpt>
      <trkpt lat="44.5480610" lon="6.9434530">
        <ele>2770.4</ele>
        <time>2017-07-24T09:16:03Z</time>
      </trkpt>
      <trkpt lat="44.5480250" lon="6.9432420">
        <ele>2770.0</ele>
        <time>2017-07-24T09:16:10Z</time>
      </trkpt>
      <trkpt lat="44.5480190" lon="6.9432130">
        <ele>2769.8</ele>
        <time>2017-07-24T09:16:11Z</time>
      </trkpt>
      <trkpt lat="44.5480180" lon="6.9431260">
        <ele>2769.4</ele>
        <time>2017-07-24T09:16:14Z</time>
      </trkpt>
      <trkpt lat="44.5480630" lon="6.9430260">
        <ele>2769.8</ele>
        <time>2017-07-24T09:16:18Z</time>
      </trkpt>
      <trkpt lat="44.5481400" lon="6.9429170">
        <ele>2770.8</ele>
        <time>2017-07-24T09:16:23Z</time>
      </trkpt>
      <trkpt lat="44.5481770" lon="6.9428440">
        <ele>2772.0</ele>
        <time>2017-07-24T09:16:26Z</time>
      </trkpt>
      <trkpt lat="44.5482030" lon="6.9427990">
        <ele>2773.2</ele>
        <time>2017-07-24T09:16:28Z</time>
      </trkpt>
      <trkpt lat="44.5482460" lon="6.9427080">
        <ele>2774.2</ele>
        <time>2017-07-24T09:16:31Z</time>
      </trkpt>
      <trkpt lat="44.5482740" lon="6.9426160">
        <ele>2775.4</ele>
        <time>2017-07-24T09:16:34Z</time>
      </trkpt>
      <trkpt lat="44.5483000" lon="6.9425410">
        <ele>2776.6</ele>
        <time>2017-07-24T09:16:37Z</time>
      </trkpt>
      <trkpt lat="44.5482870" lon="6.9424580">
        <ele>2777.0</ele>
        <time>2017-07-24T09:17:22Z</time>
      </trkpt>
      <trkpt lat="44.5482850" lon="6.9424290">
        <ele>2776.6</ele>
        <time>2017-07-24T09:17:23Z</time>
      </trkpt>
      <trkpt lat="44.5482650" lon="6.9422940">
        <ele>2775.6</ele>
        <time>2017-07-24T09:17:27Z</time>
      </trkpt>
      <trkpt lat="44.5482560" lon="6.9422580">
        <ele>2775.6</ele>
        <time>2017-07-24T09:17:28Z</time>
      </trkpt>
      <trkpt lat="44.5482510" lon="6.9422210">
        <ele>2775.4</ele>
        <time>2017-07-24T09:17:29Z</time>
      </trkpt>
      <trkpt lat="44.5482230" lon="6.9420660">
        <ele>2775.8</ele>
        <time>2017-07-24T09:17:34Z</time>
      </trkpt>
      <trkpt lat="44.5482100" lon="6.9420060">
        <ele>2776.4</ele>
        <time>2017-07-24T09:17:37Z</time>
      </trkpt>
      <trkpt lat="44.5482060" lon="6.9419900">
        <ele>2776.8</ele>
        <time>2017-07-24T09:17:38Z</time>
      </trkpt>
      <trkpt lat="44.5481960" lon="6.9419570">
        <ele>2778.2</ele>
        <time>2017-07-24T09:17:40Z</time>
      </trkpt>
      <trkpt lat="44.5481790" lon="6.9419220">
        <ele>2778.4</ele>
        <time>2017-07-24T09:17:42Z</time>
      </trkpt>
      <trkpt lat="44.5481520" lon="6.9418890">
        <ele>2778.6</ele>
        <time>2017-07-24T09:17:44Z</time>
      </trkpt>
      <trkpt lat="44.5481300" lon="6.9418630">
        <ele>2779.0</ele>
        <time>2017-07-24T09:17:46Z</time>
      </trkpt>
      <trkpt lat="44.5481200" lon="6.9418490">
        <ele>2779.2</ele>
        <time>2017-07-24T09:17:47Z</time>
      </trkpt>
      <trkpt lat="44.5481010" lon="6.9418140">
        <ele>2779.4</ele>
        <time>2017-07-24T09:17:49Z</time>
      </trkpt>
      <trkpt lat="44.5480340" lon="6.9417410">
        <ele>2779.8</ele>
        <time>2017-07-24T09:17:54Z</time>
      </trkpt>
      <trkpt lat="44.5479780" lon="6.9417050">
        <ele>2779.8</ele>
        <time>2017-07-24T09:17:56Z</time>
      </trkpt>
      <trkpt lat="44.5478530" lon="6.9416310">
        <ele>2780.2</ele>
        <time>2017-07-24T09:18:01Z</time>
      </trkpt>
      <trkpt lat="44.5478260" lon="6.9416090">
        <ele>2780.2</ele>
        <time>2017-07-24T09:18:02Z</time>
      </trkpt>
      <trkpt lat="44.5476520" lon="6.9414890">
        <ele>2781.2</ele>
        <time>2017-07-24T09:18:09Z</time>
      </trkpt>
      <trkpt lat="44.5474990" lon="6.9413530">
        <ele>2781.0</ele>
        <time>2017-07-24T09:18:13Z</time>
      </trkpt>
      <trkpt lat="44.5474180" lon="6.9412780">
        <ele>2781.2</ele>
        <time>2017-07-24T09:18:16Z</time>
      </trkpt>
      <trkpt lat="44.5474060" lon="6.9412580">
        <ele>2781.6</ele>
        <time>2017-07-24T09:18:17Z</time>
      </trkpt>
      <trkpt lat="44.5473530" lon="6.9411620">
        <ele>2782.4</ele>
        <time>2017-07-24T09:18:22Z</time>
      </trkpt>
      <trkpt lat="44.5473450" lon="6.9411390">
        <ele>2782.4</ele>
        <time>2017-07-24T09:18:23Z</time>
      </trkpt>
      <trkpt lat="44.5472940" lon="6.9410230">
        <ele>2789.4</ele>
        <time>2017-07-24T09:18:57Z</time>
      </trkpt>
      <trkpt lat="44.5472800" lon="6.9410080">
        <ele>2789.4</ele>
        <time>2017-07-24T09:18:58Z</time>
      </trkpt>
      <trkpt lat="44.5472450" lon="6.9409710">
        <ele>2790.4</ele>
        <time>2017-07-24T09:19:03Z</time>
      </trkpt>
      <trkpt lat="44.5472160" lon="6.9409540">
        <ele>2790.2</ele>
        <time>2017-07-24T09:19:05Z</time>
      </trkpt>
      <trkpt lat="44.5471410" lon="6.9408120">
        <ele>2790.0</ele>
        <time>2017-07-24T09:19:11Z</time>
      </trkpt>
      <trkpt lat="44.5470800" lon="6.9407530">
        <ele>2789.8</ele>
        <time>2017-07-24T09:19:14Z</time>
      </trkpt>
      <trkpt lat="44.5470590" lon="6.9407530">
        <ele>2789.8</ele>
        <time>2017-07-24T09:19:15Z</time>
      </trkpt>
      <trkpt lat="44.5469950" lon="6.9407470">
        <ele>2790.4</ele>
        <time>2017-07-24T09:19:22Z</time>
      </trkpt>
      <trkpt lat="44.5469810" lon="6.9407390">
        <ele>2790.6</ele>
        <time>2017-07-24T09:19:23Z</time>
      </trkpt>
      <trkpt lat="44.5468320" lon="6.9406840">
        <ele>2790.8</ele>
        <time>2017-07-24T09:19:28Z</time>
      </trkpt>
      <trkpt lat="44.5467880" lon="6.9406690">
        <ele>2791.4</ele>
        <time>2017-07-24T09:19:34Z</time>
      </trkpt>
      <trkpt lat="44.5467670" lon="6.9406580">
        <ele>2791.4</ele>
        <time>2017-07-24T09:19:36Z</time>
      </trkpt>
      <trkpt lat="44.5467220" lon="6.9406300">
        <ele>2792.0</ele>
        <time>2017-07-24T09:19:40Z</time>
      </trkpt>
      <trkpt lat="44.5467010" lon="6.9406290">
        <ele>2792.8</ele>
        <time>2017-07-24T09:19:45Z</time>
      </trkpt>
      <trkpt lat="44.5466750" lon="6.9406120">
        <ele>2792.6</ele>
        <time>2017-07-24T09:19:46Z</time>
      </trkpt>
      <trkpt lat="44.5465580" lon="6.9405870">
        <ele>2792.4</ele>
        <time>2017-07-24T09:19:50Z</time>
      </trkpt>
      <trkpt lat="44.5464210" lon="6.9405980">
        <ele>2792.0</ele>
        <time>2017-07-24T09:19:54Z</time>
      </trkpt>
      <trkpt lat="44.5463780" lon="6.9406180">
        <ele>2791.8</ele>
        <time>2017-07-24T09:19:55Z</time>
      </trkpt>
      <trkpt lat="44.5463350" lon="6.9406360">
        <ele>2791.6</ele>
        <time>2017-07-24T09:19:56Z</time>
      </trkpt>
      <trkpt lat="44.5461680" lon="6.9406920">
        <ele>2791.0</ele>
        <time>2017-07-24T09:20:00Z</time>
      </trkpt>
      <trkpt lat="44.5460820" lon="6.9407020">
        <ele>2790.6</ele>
        <time>2017-07-24T09:20:02Z</time>
      </trkpt>
      <trkpt lat="44.5460060" lon="6.9406840">
        <ele>2790.0</ele>
        <time>2017-07-24T09:20:04Z</time>
      </trkpt>
      <trkpt lat="44.5459660" lon="6.9406570">
        <ele>2789.4</ele>
        <time>2017-07-24T09:20:05Z</time>
      </trkpt>
      <trkpt lat="44.5459260" lon="6.9406340">
        <ele>2789.0</ele>
        <time>2017-07-24T09:20:06Z</time>
      </trkpt>
      <trkpt lat="44.5458090" lon="6.9405450">
        <ele>2787.8</ele>
        <time>2017-07-24T09:20:09Z</time>
      </trkpt>
      <trkpt lat="44.5457610" lon="6.9405220">
        <ele>2786.6</ele>
        <time>2017-07-24T09:20:11Z</time>
      </trkpt>
      <trkpt lat="44.5456300" lon="6.9405000">
        <ele>2785.6</ele>
        <time>2017-07-24T09:20:16Z</time>
      </trkpt>
      <trkpt lat="44.5456060" lon="6.9404820">
        <ele>2785.2</ele>
        <time>2017-07-24T09:20:17Z</time>
      </trkpt>
      <trkpt lat="44.5454890" lon="6.9403700">
        <ele>2784.6</ele>
        <time>2017-07-24T09:20:22Z</time>
      </trkpt>
      <trkpt lat="44.5454480" lon="6.9403310">
        <ele>2784.6</ele>
        <time>2017-07-24T09:20:24Z</time>
      </trkpt>
      <trkpt lat="44.5453070" lon="6.9402280">
        <ele>2784.4</ele>
        <time>2017-07-24T09:20:30Z</time>
      </trkpt>
      <trkpt lat="44.5452030" lon="6.9401760">
        <ele>2784.8</ele>
        <time>2017-07-24T09:20:34Z</time>
      </trkpt>
      <trkpt lat="44.5450310" lon="6.9400360">
        <ele>2785.0</ele>
        <time>2017-07-24T09:20:40Z</time>
      </trkpt>
      <trkpt lat="44.5449250" lon="6.9399110">
        <ele>2784.8</ele>
        <time>2017-07-24T09:20:46Z</time>
      </trkpt>
      <trkpt lat="44.5447570" lon="6.9398290">
        <ele>2784.4</ele>
        <time>2017-07-24T09:20:52Z</time>
      </trkpt>
      <trkpt lat="44.5446760" lon="6.9398030">
        <ele>2784.2</ele>
        <time>2017-07-24T09:20:55Z</time>
      </trkpt>
      <trkpt lat="44.5446120" lon="6.9397750">
        <ele>2784.2</ele>
        <time>2017-07-24T09:20:57Z</time>
      </trkpt>
      <trkpt lat="44.5443740" lon="6.9396900">
        <ele>2783.4</ele>
        <time>2017-07-24T09:21:04Z</time>
      </trkpt>
      <trkpt lat="44.5441690" lon="6.9396630">
        <ele>2783.0</ele>
        <time>2017-07-24T09:21:09Z</time>
      </trkpt>
      <trkpt lat="44.5439920" lon="6.9396330">
        <ele>2782.6</ele>
        <time>2017-07-24T09:21:14Z</time>
      </trkpt>
      <trkpt lat="44.5439590" lon="6.9396390">
        <ele>2782.4</ele>
        <time>2017-07-24T09:21:15Z</time>
      </trkpt>
      <trkpt lat="44.5438550" lon="6.9396320">
        <ele>2782.2</ele>
        <time>2017-07-24T09:21:18Z</time>
      </trkpt>
      <trkpt lat="44.5438290" lon="6.9396240">
        <ele>2782.0</ele>
        <time>2017-07-24T09:21:19Z</time>
      </trkpt>
      <trkpt lat="44.5437560" lon="6.9394860">
        <ele>2786.2</ele>
        <time>2017-07-24T09:21:49Z</time>
      </trkpt>
      <trkpt lat="44.5437720" lon="6.9394710">
        <ele>2786.4</ele>
        <time>2017-07-24T09:21:50Z</time>
      </trkpt>
      <trkpt lat="44.5437900" lon="6.9394620">
        <ele>2786.8</ele>
        <time>2017-07-24T09:21:51Z</time>
      </trkpt>
      <trkpt lat="44.5438360" lon="6.9394560">
        <ele>2787.6</ele>
        <time>2017-07-24T09:21:53Z</time>
      </trkpt>
      <trkpt lat="44.5438810" lon="6.9394600">
        <ele>2788.4</ele>
        <time>2017-07-24T09:21:55Z</time>
      </trkpt>
      <trkpt lat="44.5439020" lon="6.9394620">
        <ele>2789.0</ele>
        <time>2017-07-24T09:21:56Z</time>
      </trkpt>
      <trkpt lat="44.5439220" lon="6.9394580">
        <ele>2789.4</ele>
        <time>2017-07-24T09:21:57Z</time>
      </trkpt>
      <trkpt lat="44.5439430" lon="6.9394540">
        <ele>2789.8</ele>
        <time>2017-07-24T09:21:58Z</time>
      </trkpt>
      <trkpt lat="44.5439650" lon="6.9394480">
        <ele>2790.2</ele>
        <time>2017-07-24T09:21:59Z</time>
      </trkpt>
      <trkpt lat="44.5440440" lon="6.9394410">
        <ele>2791.0</ele>
        <time>2017-07-24T09:22:02Z</time>
      </trkpt>
      <trkpt lat="44.5440690" lon="6.9394360">
        <ele>2791.2</ele>
        <time>2017-07-24T09:22:03Z</time>
      </trkpt>
      <trkpt lat="44.5441110" lon="6.9394320">
        <ele>2792.0</ele>
        <time>2017-07-24T09:22:05Z</time>
      </trkpt>
      <trkpt lat="44.5441310" lon="6.9394290">
        <ele>2792.4</ele>
        <time>2017-07-24T09:22:06Z</time>
      </trkpt>
      <trkpt lat="44.5441860" lon="6.9394200">
        <ele>2793.8</ele>
        <time>2017-07-24T09:22:09Z</time>
      </trkpt>
      <trkpt lat="44.5442300" lon="6.9394220">
        <ele>2794.8</ele>
        <time>2017-07-24T09:22:12Z</time>
      </trkpt>
      <trkpt lat="44.5443350" lon="6.9394200">
        <ele>2795.8</ele>
        <time>2017-07-24T09:22:17Z</time>
      </trkpt>
      <trkpt lat="44.5443540" lon="6.9394160">
        <ele>2796.2</ele>
        <time>2017-07-24T09:22:18Z</time>
      </trkpt>
      <trkpt lat="44.5444390" lon="6.9393850">
        <ele>2797.2</ele>
        <time>2017-07-24T09:22:23Z</time>
      </trkpt>
      <trkpt lat="44.5444570" lon="6.9393790">
        <ele>2797.8</ele>
        <time>2017-07-24T09:22:24Z</time>
      </trkpt>
      <trkpt lat="44.5444710" lon="6.9393750">
        <ele>2798.4</ele>
        <time>2017-07-24T09:22:25Z</time>
      </trkpt>
      <trkpt lat="44.5445040" lon="6.9393850">
        <ele>2799.6</ele>
        <time>2017-07-24T09:22:28Z</time>
      </trkpt>
      <trkpt lat="44.5445250" lon="6.9393890">
        <ele>2800.4</ele>
        <time>2017-07-24T09:22:30Z</time>
      </trkpt>
      <trkpt lat="44.5445640" lon="6.9393910">
        <ele>2800.8</ele>
        <time>2017-07-24T09:22:33Z</time>
      </trkpt>
      <trkpt lat="44.5446250" lon="6.9393730">
        <ele>2802.0</ele>
        <time>2017-07-24T09:22:38Z</time>
      </trkpt>
      <trkpt lat="44.5446490" lon="6.9393730">
        <ele>2802.2</ele>
        <time>2017-07-24T09:22:40Z</time>
      </trkpt>
      <trkpt lat="44.5447530" lon="6.9393560">
        <ele>2802.0</ele>
        <time>2017-07-24T09:22:49Z</time>
      </trkpt>
      <trkpt lat="44.5448230" lon="6.9393540">
        <ele>2802.4</ele>
        <time>2017-07-24T09:22:57Z</time>
      </trkpt>
      <trkpt lat="44.5464490" lon="6.9386960">
        <ele>2879.2</ele>
        <time>2017-07-24T09:28:16Z</time>
      </trkpt>
      <trkpt lat="44.5464410" lon="6.9386880">
        <ele>2879.8</ele>
        <time>2017-07-24T09:28:17Z</time>
      </trkpt>
      <trkpt lat="44.5464300" lon="6.9386850">
        <ele>2880.0</ele>
        <time>2017-07-24T09:28:18Z</time>
      </trkpt>
      <trkpt lat="44.5464190" lon="6.9386820">
        <ele>2880.4</ele>
        <time>2017-07-24T09:28:19Z</time>
      </trkpt>
      <trkpt lat="44.5463830" lon="6.9386670">
        <ele>2881.6</ele>
        <time>2017-07-24T09:28:23Z</time>
      </trkpt>
      <trkpt lat="44.5463670" lon="6.9386430">
        <ele>2882.2</ele>
        <time>2017-07-24T09:28:26Z</time>
      </trkpt>
      <trkpt lat="44.5463450" lon="6.9386230">
        <ele>2882.6</ele>
        <time>2017-07-24T09:28:30Z</time>
      </trkpt>
      <trkpt lat="44.5463230" lon="6.9386140">
        <ele>2882.8</ele>
        <time>2017-07-24T09:28:33Z</time>
      </trkpt>
      <trkpt lat="44.5462880" lon="6.9385780">
        <ele>2883.8</ele>
        <time>2017-07-24T09:28:38Z</time>
      </trkpt>
      <trkpt lat="44.5462860" lon="6.9385500">
        <ele>2884.8</ele>
        <time>2017-07-24T09:28:41Z</time>
      </trkpt>
      <trkpt lat="44.5462790" lon="6.9385380">
        <ele>2885.2</ele>
        <time>2017-07-24T09:28:42Z</time>
      </trkpt>
      <trkpt lat="44.5462540" lon="6.9385020">
        <ele>2886.4</ele>
        <time>2017-07-24T09:28:45Z</time>
      </trkpt>
      <trkpt lat="44.5462320" lon="6.9384710">
        <ele>2887.6</ele>
        <time>2017-07-24T09:28:48Z</time>
      </trkpt>
      <trkpt lat="44.5462150" lon="6.9384460">
        <ele>2888.6</ele>
        <time>2017-07-24T09:28:51Z</time>
      </trkpt>
      <trkpt lat="44.5462150" lon="6.9384330">
        <ele>2889.2</ele>
        <time>2017-07-24T09:28:52Z</time>
      </trkpt>
      <trkpt lat="44.5462040" lon="6.9384200">
        <ele>2889.6</ele>
        <time>2017-07-24T09:28:54Z</time>
      </trkpt>
      <trkpt lat="44.5461880" lon="6.9383920">
        <ele>2890.8</ele>
        <time>2017-07-24T09:28:58Z</time>
      </trkpt>
      <trkpt lat="44.5461780" lon="6.9383710">
        <ele>2891.0</ele>
        <time>2017-07-24T09:29:00Z</time>
      </trkpt>
      <trkpt lat="44.5461420" lon="6.9383200">
        <ele>2889.0</ele>
        <time>2017-07-24T09:29:10Z</time>
      </trkpt>
      <trkpt lat="44.5461240" lon="6.9383130">
        <ele>2888.6</ele>
        <time>2017-07-24T09:29:11Z</time>
      </trkpt>
      <trkpt lat="44.5460840" lon="6.9383070">
        <ele>2887.8</ele>
        <time>2017-07-24T09:29:13Z</time>
      </trkpt>
      <trkpt lat="44.5460200" lon="6.9383270">
        <ele>2887.0</ele>
        <time>2017-07-24T09:29:16Z</time>
      </trkpt>
      <trkpt lat="44.5459970" lon="6.9383320">
        <ele>2886.4</ele>
        <time>2017-07-24T09:29:17Z</time>
      </trkpt>
      <trkpt lat="44.5459160" lon="6.9383110">
        <ele>2885.0</ele>
        <time>2017-07-24T09:29:20Z</time>
      </trkpt>
      <trkpt lat="44.5458700" lon="6.9383070">
        <ele>2884.8</ele>
        <time>2017-07-24T09:29:21Z</time>
      </trkpt>
      <trkpt lat="44.5458160" lon="6.9382870">
        <ele>2884.8</ele>
        <time>2017-07-24T09:29:22Z</time>
      </trkpt>
      <trkpt lat="44.5457360" lon="6.9382750">
        <ele>2883.6</ele>
        <time>2017-07-24T09:29:24Z</time>
      </trkpt>
      <trkpt lat="44.5456460" lon="6.9382650">
        <ele>2882.4</ele>
        <time>2017-07-24T09:29:26Z</time>
      </trkpt>
      <trkpt lat="44.5455660" lon="6.9382340">
        <ele>2881.4</ele>
        <time>2017-07-24T09:29:28Z</time>
      </trkpt>
      <trkpt lat="44.5455420" lon="6.9382010">
        <ele>2880.8</ele>
        <time>2017-07-24T09:29:29Z</time>
      </trkpt>
      <trkpt lat="44.5455290" lon="6.9381570">
        <ele>2880.2</ele>
        <time>2017-07-24T09:29:30Z</time>
      </trkpt>
      <trkpt lat="44.5455120" lon="6.9380760">
        <ele>2879.0</ele>
        <time>2017-07-24T09:29:32Z</time>
      </trkpt>
      <trkpt lat="44.5455000" lon="6.9380400">
        <ele>2878.2</ele>
        <time>2017-07-24T09:29:33Z</time>
      </trkpt>
      <trkpt lat="44.5455060" lon="6.9379950">
        <ele>2877.8</ele>
        <time>2017-07-24T09:29:34Z</time>
      </trkpt>
      <trkpt lat="44.5455230" lon="6.9379580">
        <ele>2876.4</ele>
        <time>2017-07-24T09:29:36Z</time>
      </trkpt>
      <trkpt lat="44.5455530" lon="6.9379200">
        <ele>2875.2</ele>
        <time>2017-07-24T09:29:38Z</time>
      </trkpt>
      <trkpt lat="44.5455710" lon="6.9379030">
        <ele>2875.0</ele>
        <time>2017-07-24T09:29:39Z</time>
      </trkpt>
      <trkpt lat="44.5456140" lon="6.9378680">
        <ele>2872.8</ele>
        <time>2017-07-24T09:29:41Z</time>
      </trkpt>
      <trkpt lat="44.5457210" lon="6.9377780">
        <ele>2871.6</ele>
        <time>2017-07-24T09:29:44Z</time>
      </trkpt>
      <trkpt lat="44.5457640" lon="6.9377420">
        <ele>2871.2</ele>
        <time>2017-07-24T09:29:45Z</time>
      </trkpt>
      <trkpt lat="44.5457970" lon="6.9377060">
        <ele>2870.8</ele>
        <time>2017-07-24T09:29:46Z</time>
      </trkpt>
      <trkpt lat="44.5458260" lon="6.9376760">
        <ele>2870.2</ele>
        <time>2017-07-24T09:29:47Z</time>
      </trkpt>
      <trkpt lat="44.5458370" lon="6.9376220">
        <ele>2869.2</ele>
        <time>2017-07-24T09:29:49Z</time>
      </trkpt>
      <trkpt lat="44.5458200" lon="6.9376180">
        <ele>2868.8</ele>
        <time>2017-07-24T09:29:50Z</time>
      </trkpt>
      <trkpt lat="44.5457500" lon="6.9376300">
        <ele>2867.6</ele>
        <time>2017-07-24T09:29:52Z</time>
      </trkpt>
      <trkpt lat="44.5457220" lon="6.9376390">
        <ele>2866.8</ele>
        <time>2017-07-24T09:29:53Z</time>
      </trkpt>
      <trkpt lat="44.5457070" lon="6.9376280">
        <ele>2866.0</ele>
        <time>2017-07-24T09:29:54Z</time>
      </trkpt>
      <trkpt lat="44.5457060" lon="6.9376010">
        <ele>2865.0</ele>
        <time>2017-07-24T09:29:55Z</time>
      </trkpt>
      <trkpt lat="44.5457210" lon="6.9375770">
        <ele>2864.4</ele>
        <time>2017-07-24T09:29:56Z</time>
      </trkpt>
      <trkpt lat="44.5457460" lon="6.9375070">
        <ele>2863.6</ele>
        <time>2017-07-24T09:29:58Z</time>
      </trkpt>
      <trkpt lat="44.5457650" lon="6.9374830">
        <ele>2863.0</ele>
        <time>2017-07-24T09:29:59Z</time>
      </trkpt>
      <trkpt lat="44.5458100" lon="6.9374500">
        <ele>2861.6</ele>
        <time>2017-07-24T09:30:01Z</time>
      </trkpt>
      <trkpt lat="44.5458330" lon="6.9374390">
        <ele>2860.8</ele>
        <time>2017-07-24T09:30:02Z</time>
      </trkpt>
      <trkpt lat="44.5458580" lon="6.9374230">
        <ele>2860.2</ele>
        <time>2017-07-24T09:30:03Z</time>
      </trkpt>
      <trkpt lat="44.5459120" lon="6.9373830">
        <ele>2858.4</ele>
        <time>2017-07-24T09:30:05Z</time>
      </trkpt>
      <trkpt lat="44.5459730" lon="6.9373370">
        <ele>2857.4</ele>
        <time>2017-07-24T09:30:07Z</time>
      </trkpt>
      <trkpt lat="44.5460130" lon="6.9373100">
        <ele>2856.6</ele>
        <time>2017-07-24T09:30:08Z</time>
      </trkpt>
      <trkpt lat="44.5460450" lon="6.9372760">
        <ele>2856.2</ele>
        <time>2017-07-24T09:30:09Z</time>
      </trkpt>
      <trkpt lat="44.5460850" lon="6.9372060">
        <ele>2855.2</ele>
        <time>2017-07-24T09:30:11Z</time>
      </trkpt>
      <trkpt lat="44.5460810" lon="6.9371840">
        <ele>2854.6</ele>
        <time>2017-07-24T09:30:12Z</time>
      </trkpt>
      <trkpt lat="44.5460660" lon="6.9371680">
        <ele>2853.8</ele>
        <time>2017-07-24T09:30:13Z</time>
      </trkpt>
      <trkpt lat="44.5460080" lon="6.9371540">
        <ele>2851.8</ele>
        <time>2017-07-24T09:30:15Z</time>
      </trkpt>
      <trkpt lat="44.5459690" lon="6.9371610">
        <ele>2850.6</ele>
        <time>2017-07-24T09:30:16Z</time>
      </trkpt>
      <trkpt lat="44.5459210" lon="6.9371640">
        <ele>2849.6</ele>
        <time>2017-07-24T09:30:17Z</time>
      </trkpt>
      <trkpt lat="44.5458740" lon="6.9371680">
        <ele>2848.6</ele>
        <time>2017-07-24T09:30:18Z</time>
      </trkpt>
      <trkpt lat="44.5458360" lon="6.9371620">
        <ele>2847.8</ele>
        <time>2017-07-24T09:30:19Z</time>
      </trkpt>
      <trkpt lat="44.5458140" lon="6.9371380">
        <ele>2846.8</ele>
        <time>2017-07-24T09:30:20Z</time>
      </trkpt>
      <trkpt lat="44.5458210" lon="6.9370970">
        <ele>2845.0</ele>
        <time>2017-07-24T09:30:22Z</time>
      </trkpt>
      <trkpt lat="44.5458570" lon="6.9370680">
        <ele>2843.8</ele>
        <time>2017-07-24T09:30:24Z</time>
      </trkpt>
      <trkpt lat="44.5459060" lon="6.9370410">
        <ele>2842.8</ele>
        <time>2017-07-24T09:30:26Z</time>
      </trkpt>
      <trkpt lat="44.5459190" lon="6.9370050">
        <ele>2842.4</ele>
        <time>2017-07-24T09:30:27Z</time>
      </trkpt>
      <trkpt lat="44.5459320" lon="6.9369680">
        <ele>2842.2</ele>
        <time>2017-07-24T09:30:28Z</time>
      </trkpt>
      <trkpt lat="44.5459810" lon="6.9369170">
        <ele>2841.2</ele>
        <time>2017-07-24T09:30:30Z</time>
      </trkpt>
      <trkpt lat="44.5460800" lon="6.9368510">
        <ele>2840.2</ele>
        <time>2017-07-24T09:30:33Z</time>
      </trkpt>
      <trkpt lat="44.5461020" lon="6.9368030">
        <ele>2839.6</ele>
        <time>2017-07-24T09:30:35Z</time>
      </trkpt>
      <trkpt lat="44.5460490" lon="6.9367870">
        <ele>2837.0</ele>
        <time>2017-07-24T09:30:40Z</time>
      </trkpt>
      <trkpt lat="44.5460260" lon="6.9367810">
        <ele>2836.4</ele>
        <time>2017-07-24T09:30:41Z</time>
      </trkpt>
      <trkpt lat="44.5459530" lon="6.9367720">
        <ele>2835.6</ele>
        <time>2017-07-24T09:30:43Z</time>
      </trkpt>
      <trkpt lat="44.5458770" lon="6.9367300">
        <ele>2834.4</ele>
        <time>2017-07-24T09:30:45Z</time>
      </trkpt>
      <trkpt lat="44.5458330" lon="6.9366810">
        <ele>2833.0</ele>
        <time>2017-07-24T09:30:47Z</time>
      </trkpt>
      <trkpt lat="44.5458310" lon="6.9366290">
        <ele>2832.0</ele>
        <time>2017-07-24T09:30:49Z</time>
      </trkpt>
      <trkpt lat="44.5458480" lon="6.9365790">
        <ele>2830.8</ele>
        <time>2017-07-24T09:30:51Z</time>
      </trkpt>
      <trkpt lat="44.5458870" lon="6.9365430">
        <ele>2829.8</ele>
        <time>2017-07-24T09:30:53Z</time>
      </trkpt>
      <trkpt lat="44.5459190" lon="6.9365230">
        <ele>2828.8</ele>
        <time>2017-07-24T09:30:54Z</time>
      </trkpt>
      <trkpt lat="44.5459600" lon="6.9364970">
        <ele>2828.2</ele>
        <time>2017-07-24T09:30:55Z</time>
      </trkpt>
      <trkpt lat="44.5460090" lon="6.9364170">
        <ele>2826.8</ele>
        <time>2017-07-24T09:30:57Z</time>
      </trkpt>
      <trkpt lat="44.5460720" lon="6.9363690">
        <ele>2825.2</ele>
        <time>2017-07-24T09:30:59Z</time>
      </trkpt>
      <trkpt lat="44.5461430" lon="6.9363180">
        <ele>2824.0</ele>
        <time>2017-07-24T09:31:01Z</time>
      </trkpt>
      <trkpt lat="44.5461880" lon="6.9362540">
        <ele>2822.4</ele>
        <time>2017-07-24T09:31:03Z</time>
      </trkpt>
      <trkpt lat="44.5462180" lon="6.9362240">
        <ele>2821.6</ele>
        <time>2017-07-24T09:31:04Z</time>
      </trkpt>
      <trkpt lat="44.5462500" lon="6.9361840">
        <ele>2821.0</ele>
        <time>2017-07-24T09:31:05Z</time>
      </trkpt>
      <trkpt lat="44.5463080" lon="6.9360910">
        <ele>2819.2</ele>
        <time>2017-07-24T09:31:07Z</time>
      </trkpt>
      <trkpt lat="44.5463650" lon="6.9360160">
        <ele>2817.6</ele>
        <time>2017-07-24T09:31:09Z</time>
      </trkpt>
      <trkpt lat="44.5464330" lon="6.9359440">
        <ele>2816.0</ele>
        <time>2017-07-24T09:31:11Z</time>
      </trkpt>
      <trkpt lat="44.5464800" lon="6.9359040">
        <ele>2815.2</ele>
        <time>2017-07-24T09:31:12Z</time>
      </trkpt>
      <trkpt lat="44.5465230" lon="6.9358600">
        <ele>2814.2</ele>
        <time>2017-07-24T09:31:13Z</time>
      </trkpt>
      <trkpt lat="44.5465660" lon="6.9358070">
        <ele>2813.2</ele>
        <time>2017-07-24T09:31:14Z</time>
      </trkpt>
      <trkpt lat="44.5466130" lon="6.9357540">
        <ele>2812.4</ele>
        <time>2017-07-24T09:31:15Z</time>
      </trkpt>
      <trkpt lat="44.5466560" lon="6.9357030">
        <ele>2811.6</ele>
        <time>2017-07-24T09:31:16Z</time>
      </trkpt>
      <trkpt lat="44.5467340" lon="6.9356090">
        <ele>2808.8</ele>
        <time>2017-07-24T09:31:18Z</time>
      </trkpt>
      <trkpt lat="44.5468100" lon="6.9355320">
        <ele>2807.0</ele>
        <time>2017-07-24T09:31:20Z</time>
      </trkpt>
      <trkpt lat="44.5468940" lon="6.9354830">
        <ele>2805.4</ele>
        <time>2017-07-24T09:31:22Z</time>
      </trkpt>
      <trkpt lat="44.5469450" lon="6.9354130">
        <ele>2803.6</ele>
        <time>2017-07-24T09:31:24Z</time>
      </trkpt>
      <trkpt lat="44.5469260" lon="6.9353670">
        <ele>2802.6</ele>
        <time>2017-07-24T09:31:25Z</time>
      </trkpt>
      <trkpt lat="44.5469110" lon="6.9353190">
        <ele>2801.8</ele>
        <time>2017-07-24T09:31:26Z</time>
      </trkpt>
      <trkpt lat="44.5469000" lon="6.9352610">
        <ele>2801.0</ele>
        <time>2017-07-24T09:31:27Z</time>
      </trkpt>
      <trkpt lat="44.5468900" lon="6.9352160">
        <ele>2800.0</ele>
        <time>2017-07-24T09:31:28Z</time>
      </trkpt>
      <trkpt lat="44.5468690" lon="6.9351220">
        <ele>2798.0</ele>
        <time>2017-07-24T09:31:30Z</time>
      </trkpt>
      <trkpt lat="44.5468670" lon="6.9350250">
        <ele>2796.0</ele>
        <time>2017-07-24T09:31:32Z</time>
      </trkpt>
      <trkpt lat="44.5468680" lon="6.9349820">
        <ele>2794.8</ele>
        <time>2017-07-24T09:31:33Z</time>
      </trkpt>
      <trkpt lat="44.5468640" lon="6.9349460">
        <ele>2793.4</ele>
        <time>2017-07-24T09:31:34Z</time>
      </trkpt>
      <trkpt lat="44.5468710" lon="6.9349030">
        <ele>2792.2</ele>
        <time>2017-07-24T09:31:35Z</time>
      </trkpt>
      <trkpt lat="44.5468740" lon="6.9348430">
        <ele>2791.0</ele>
        <time>2017-07-24T09:31:36Z</time>
      </trkpt>
      <trkpt lat="44.5468820" lon="6.9347870">
        <ele>2790.0</ele>
        <time>2017-07-24T09:31:37Z</time>
      </trkpt>
      <trkpt lat="44.5468980" lon="6.9347450">
        <ele>2789.0</ele>
        <time>2017-07-24T09:31:38Z</time>
      </trkpt>
      <trkpt lat="44.5469230" lon="6.9347080">
        <ele>2787.8</ele>
        <time>2017-07-24T09:31:39Z</time>
      </trkpt>
      <trkpt lat="44.5469470" lon="6.9346640">
        <ele>2786.8</ele>
        <time>2017-07-24T09:31:40Z</time>
      </trkpt>
      <trkpt lat="44.5469970" lon="6.9345640">
        <ele>2783.8</ele>
        <time>2017-07-24T09:31:42Z</time>
      </trkpt>
      <trkpt lat="44.5470220" lon="6.9345360">
        <ele>2782.8</ele>
        <time>2017-07-24T09:31:43Z</time>
      </trkpt>
      <trkpt lat="44.5470520" lon="6.9345060">
        <ele>2781.6</ele>
        <time>2017-07-24T09:31:44Z</time>
      </trkpt>
      <trkpt lat="44.5471200" lon="6.9344430">
        <ele>2779.8</ele>
        <time>2017-07-24T09:31:46Z</time>
      </trkpt>
      <trkpt lat="44.5472000" lon="6.9343720">
        <ele>2778.0</ele>
        <time>2017-07-24T09:31:48Z</time>
      </trkpt>
      <trkpt lat="44.5472460" lon="6.9343410">
        <ele>2777.2</ele>
        <time>2017-07-24T09:31:49Z</time>
      </trkpt>
      <trkpt lat="44.5472900" lon="6.9343190">
        <ele>2776.4</ele>
        <time>2017-07-24T09:31:50Z</time>
      </trkpt>
      <trkpt lat="44.5473320" lon="6.9343090">
        <ele>2775.4</ele>
        <time>2017-07-24T09:31:51Z</time>
      </trkpt>
      <trkpt lat="44.5473740" lon="6.9342940">
        <ele>2774.2</ele>
        <time>2017-07-24T09:31:52Z</time>
      </trkpt>
      <trkpt lat="44.5474060" lon="6.9342980">
        <ele>2773.0</ele>
        <time>2017-07-24T09:31:53Z</time>
      </trkpt>
      <trkpt lat="44.5474220" lon="6.9343310">
        <ele>2771.6</ele>
        <time>2017-07-24T09:31:54Z</time>
      </trkpt>
      <trkpt lat="44.5474310" lon="6.9343700">
        <ele>2770.2</ele>
        <time>2017-07-24T09:31:55Z</time>
      </trkpt>
      <trkpt lat="44.5474370" lon="6.9344180">
        <ele>2768.6</ele>
        <time>2017-07-24T09:31:56Z</time>
      </trkpt>
      <trkpt lat="44.5474430" lon="6.9344730">
        <ele>2767.6</ele>
        <time>2017-07-24T09:31:57Z</time>
      </trkpt>
      <trkpt lat="44.5474430" lon="6.9345390">
        <ele>2766.4</ele>
        <time>2017-07-24T09:31:58Z</time>
      </trkpt>
      <trkpt lat="44.5474340" lon="6.9346720">
        <ele>2764.4</ele>
        <time>2017-07-24T09:32:00Z</time>
      </trkpt>
      <trkpt lat="44.5474330" lon="6.9347230">
        <ele>2763.2</ele>
        <time>2017-07-24T09:32:01Z</time>
      </trkpt>
      <trkpt lat="44.5474310" lon="6.9347530">
        <ele>2762.0</ele>
        <time>2017-07-24T09:32:02Z</time>
      </trkpt>
      <trkpt lat="44.5474350" lon="6.9347800">
        <ele>2761.0</ele>
        <time>2017-07-24T09:32:03Z</time>
      </trkpt>
      <trkpt lat="44.5474440" lon="6.9348000">
        <ele>2760.0</ele>
        <time>2017-07-24T09:32:04Z</time>
      </trkpt>
      <trkpt lat="44.5474540" lon="6.9348290">
        <ele>2758.8</ele>
        <time>2017-07-24T09:32:05Z</time>
      </trkpt>
      <trkpt lat="44.5474640" lon="6.9348680">
        <ele>2756.4</ele>
        <time>2017-07-24T09:32:06Z</time>
      </trkpt>
      <trkpt lat="44.5474770" lon="6.9348980">
        <ele>2755.4</ele>
        <time>2017-07-24T09:32:07Z</time>
      </trkpt>
      <trkpt lat="44.5475100" lon="6.9349490">
        <ele>2753.4</ele>
        <time>2017-07-24T09:32:09Z</time>
      </trkpt>
      <trkpt lat="44.5475280" lon="6.9349890">
        <ele>2752.4</ele>
        <time>2017-07-24T09:32:10Z</time>
      </trkpt>
      <trkpt lat="44.5475690" lon="6.9350310">
        <ele>2750.6</ele>
        <time>2017-07-24T09:32:12Z</time>
      </trkpt>
      <trkpt lat="44.5475830" lon="6.9350680">
        <ele>2749.6</ele>
        <time>2017-07-24T09:32:13Z</time>
      </trkpt>
      <trkpt lat="44.5476080" lon="6.9351090">
        <ele>2748.6</ele>
        <time>2017-07-24T09:32:14Z</time>
      </trkpt>
      <trkpt lat="44.5476280" lon="6.9351540">
        <ele>2747.6</ele>
        <time>2017-07-24T09:32:15Z</time>
      </trkpt>
      <trkpt lat="44.5476730" lon="6.9352100">
        <ele>2745.6</ele>
        <time>2017-07-24T09:32:17Z</time>
      </trkpt>
      <trkpt lat="44.5477130" lon="6.9352450">
        <ele>2743.6</ele>
        <time>2017-07-24T09:32:19Z</time>
      </trkpt>
      <trkpt lat="44.5477400" lon="6.9351990">
        <ele>2742.0</ele>
        <time>2017-07-24T09:32:21Z</time>
      </trkpt>
      <trkpt lat="44.5477530" lon="6.9351330">
        <ele>2740.8</ele>
        <time>2017-07-24T09:32:23Z</time>
      </trkpt>
      <trkpt lat="44.5477740" lon="6.9351580">
        <ele>2738.4</ele>
        <time>2017-07-24T09:32:27Z</time>
      </trkpt>
      <trkpt lat="44.5477850" lon="6.9352080">
        <ele>2737.0</ele>
        <time>2017-07-24T09:32:29Z</time>
      </trkpt>
      <trkpt lat="44.5478140" lon="6.9352230">
        <ele>2736.0</ele>
        <time>2017-07-24T09:32:30Z</time>
      </trkpt>
      <trkpt lat="44.5478730" lon="6.9352240">
        <ele>2734.8</ele>
        <time>2017-07-24T09:32:32Z</time>
      </trkpt>
      <trkpt lat="44.5479280" lon="6.9352050">
        <ele>2733.6</ele>
        <time>2017-07-24T09:32:34Z</time>
      </trkpt>
      <trkpt lat="44.5479530" lon="6.9351920">
        <ele>2733.0</ele>
        <time>2017-07-24T09:32:35Z</time>
      </trkpt>
      <trkpt lat="44.5479770" lon="6.9351820">
        <ele>2732.2</ele>
        <time>2017-07-24T09:32:36Z</time>
      </trkpt>
      <trkpt lat="44.5480240" lon="6.9351660">
        <ele>2730.8</ele>
        <time>2017-07-24T09:32:38Z</time>
      </trkpt>
      <trkpt lat="44.5480860" lon="6.9351520">
        <ele>2729.6</ele>
        <time>2017-07-24T09:32:40Z</time>
      </trkpt>
      <trkpt lat="44.5481470" lon="6.9351630">
        <ele>2728.2</ele>
        <time>2017-07-24T09:32:42Z</time>
      </trkpt>
      <trkpt lat="44.5481810" lon="6.9351830">
        <ele>2727.8</ele>
        <time>2017-07-24T09:32:43Z</time>
      </trkpt>
      <trkpt lat="44.5482050" lon="6.9351990">
        <ele>2727.2</ele>
        <time>2017-07-24T09:32:44Z</time>
      </trkpt>
      <trkpt lat="44.5482620" lon="6.9352270">
        <ele>2725.8</ele>
        <time>2017-07-24T09:32:46Z</time>
      </trkpt>
      <trkpt lat="44.5483110" lon="6.9352310">
        <ele>2724.6</ele>
        <time>2017-07-24T09:32:48Z</time>
      </trkpt>
      <trkpt lat="44.5483570" lon="6.9352300">
        <ele>2723.4</ele>
        <time>2017-07-24T09:32:50Z</time>
      </trkpt>
      <trkpt lat="44.5484110" lon="6.9352490">
        <ele>2722.0</ele>
        <time>2017-07-24T09:32:52Z</time>
      </trkpt>
      <trkpt lat="44.5484570" lon="6.9353020">
        <ele>2719.8</ele>
        <time>2017-07-24T09:32:54Z</time>
      </trkpt>
      <trkpt lat="44.5485070" lon="6.9353880">
        <ele>2718.8</ele>
        <time>2017-07-24T09:32:56Z</time>
      </trkpt>
      <trkpt lat="44.5485360" lon="6.9354860">
        <ele>2717.8</ele>
        <time>2017-07-24T09:32:58Z</time>
      </trkpt>
      <trkpt lat="44.5485390" lon="6.9355340">
        <ele>2717.4</ele>
        <time>2017-07-24T09:32:59Z</time>
      </trkpt>
      <trkpt lat="44.5485470" lon="6.9356320">
        <ele>2716.2</ele>
        <time>2017-07-24T09:33:02Z</time>
      </trkpt>
      <trkpt lat="44.5485270" lon="6.9356560">
        <ele>2716.0</ele>
        <time>2017-07-24T09:33:03Z</time>
      </trkpt>
      <trkpt lat="44.5485180" lon="6.9356980">
        <ele>2715.4</ele>
        <time>2017-07-24T09:33:05Z</time>
      </trkpt>
      <trkpt lat="44.5485330" lon="6.9356830">
        <ele>2715.0</ele>
        <time>2017-07-24T09:33:06Z</time>
      </trkpt>
      <trkpt lat="44.5485460" lon="6.9356580">
        <ele>2714.8</ele>
        <time>2017-07-24T09:33:07Z</time>
      </trkpt>
      <trkpt lat="44.5485890" lon="6.9356250">
        <ele>2714.0</ele>
        <time>2017-07-24T09:33:09Z</time>
      </trkpt>
      <trkpt lat="44.5486690" lon="6.9356320">
        <ele>2712.6</ele>
        <time>2017-07-24T09:33:12Z</time>
      </trkpt>
      <trkpt lat="44.5487900" lon="6.9356700">
        <ele>2711.4</ele>
        <time>2017-07-24T09:33:14Z</time>
      </trkpt>
      <trkpt lat="44.5488380" lon="6.9356700">
        <ele>2711.0</ele>
        <time>2017-07-24T09:33:15Z</time>
      </trkpt>
      <trkpt lat="44.5488870" lon="6.9356720">
        <ele>2710.4</ele>
        <time>2017-07-24T09:33:16Z</time>
      </trkpt>
      <trkpt lat="44.5489980" lon="6.9356860">
        <ele>2708.4</ele>
        <time>2017-07-24T09:33:18Z</time>
      </trkpt>
      <trkpt lat="44.5490570" lon="6.9356770">
        <ele>2707.4</ele>
        <time>2017-07-24T09:33:19Z</time>
      </trkpt>
      <trkpt lat="44.5491120" lon="6.9356880">
        <ele>2706.8</ele>
        <time>2017-07-24T09:33:20Z</time>
      </trkpt>
      <trkpt lat="44.5492180" lon="6.9356990">
        <ele>2705.0</ele>
        <time>2017-07-24T09:33:22Z</time>
      </trkpt>
      <trkpt lat="44.5492690" lon="6.9357300">
        <ele>2704.0</ele>
        <time>2017-07-24T09:33:23Z</time>
      </trkpt>
      <trkpt lat="44.5493170" lon="6.9357710">
        <ele>2702.8</ele>
        <time>2017-07-24T09:33:24Z</time>
      </trkpt>
      <trkpt lat="44.5493590" lon="6.9358050">
        <ele>2701.4</ele>
        <time>2017-07-24T09:33:25Z</time>
      </trkpt>
      <trkpt lat="44.5493970" lon="6.9358280">
        <ele>2700.0</ele>
        <time>2017-07-24T09:33:26Z</time>
      </trkpt>
      <trkpt lat="44.5494310" lon="6.9358410">
        <ele>2698.8</ele>
        <time>2017-07-24T09:33:27Z</time>
      </trkpt>
      <trkpt lat="44.5494700" lon="6.9358400">
        <ele>2697.6</ele>
        <time>2017-07-24T09:33:28Z</time>
      </trkpt>
      <trkpt lat="44.5495070" lon="6.9358500">
        <ele>2696.4</ele>
        <time>2017-07-24T09:33:29Z</time>
      </trkpt>
      <trkpt lat="44.5495490" lon="6.9358890">
        <ele>2695.4</ele>
        <time>2017-07-24T09:33:30Z</time>
      </trkpt>
      <trkpt lat="44.5496050" lon="6.9359280">
        <ele>2694.2</ele>
        <time>2017-07-24T09:33:31Z</time>
      </trkpt>
      <trkpt lat="44.5496600" lon="6.9359630">
        <ele>2693.0</ele>
        <time>2017-07-24T09:33:32Z</time>
      </trkpt>
      <trkpt lat="44.5497120" lon="6.9359770">
        <ele>2692.0</ele>
        <time>2017-07-24T09:33:33Z</time>
      </trkpt>
      <trkpt lat="44.5497560" lon="6.9360170">
        <ele>2690.8</ele>
        <time>2017-07-24T09:33:34Z</time>
      </trkpt>
      <trkpt lat="44.5498020" lon="6.9360480">
        <ele>2689.8</ele>
        <time>2017-07-24T09:33:35Z</time>
      </trkpt>
      <trkpt lat="44.5498510" lon="6.9360670">
        <ele>2688.8</ele>
        <time>2017-07-24T09:33:36Z</time>
      </trkpt>
      <trkpt lat="44.5499440" lon="6.9360420">
        <ele>2687.2</ele>
        <time>2017-07-24T09:33:38Z</time>
      </trkpt>
      <trkpt lat="44.5499800" lon="6.9359970">
        <ele>2686.2</ele>
        <time>2017-07-24T09:33:39Z</time>
      </trkpt>
      <trkpt lat="44.5500200" lon="6.9359430">
        <ele>2685.4</ele>
        <time>2017-07-24T09:33:40Z</time>
      </trkpt>
      <trkpt lat="44.5500670" lon="6.9358790">
        <ele>2684.8</ele>
        <time>2017-07-24T09:33:41Z</time>
      </trkpt>
      <trkpt lat="44.5501230" lon="6.9358110">
        <ele>2683.4</ele>
        <time>2017-07-24T09:33:42Z</time>
      </trkpt>
      <trkpt lat="44.5501900" lon="6.9357460">
        <ele>2682.6</ele>
        <time>2017-07-24T09:33:43Z</time>
      </trkpt>
      <trkpt lat="44.5502490" lon="6.9356800">
        <ele>2682.2</ele>
        <time>2017-07-24T09:33:44Z</time>
      </trkpt>
      <trkpt lat="44.5503130" lon="6.9356410">
        <ele>2681.6</ele>
        <time>2017-07-24T09:33:45Z</time>
      </trkpt>
      <trkpt lat="44.5503810" lon="6.9356070">
        <ele>2681.0</ele>
        <time>2017-07-24T09:33:46Z</time>
      </trkpt>
      <trkpt lat="44.5504470" lon="6.9355890">
        <ele>2680.2</ele>
        <time>2017-07-24T09:33:47Z</time>
      </trkpt>
      <trkpt lat="44.5505100" lon="6.9355890">
        <ele>2679.6</ele>
        <time>2017-07-24T09:33:48Z</time>
      </trkpt>
      <trkpt lat="44.5506180" lon="6.9355180">
        <ele>2678.0</ele>
        <time>2017-07-24T09:33:50Z</time>
      </trkpt>
      <trkpt lat="44.5506630" lon="6.9354730">
        <ele>2677.0</ele>
        <time>2017-07-24T09:33:51Z</time>
      </trkpt>
      <trkpt lat="44.5507110" lon="6.9354340">
        <ele>2676.4</ele>
        <time>2017-07-24T09:33:52Z</time>
      </trkpt>
      <trkpt lat="44.5507600" lon="6.9354130">
        <ele>2675.6</ele>
        <time>2017-07-24T09:33:53Z</time>
      </trkpt>
      <trkpt lat="44.5508110" lon="6.9353810">
        <ele>2674.8</ele>
        <time>2017-07-24T09:33:54Z</time>
      </trkpt>
      <trkpt lat="44.5509190" lon="6.9352970">
        <ele>2673.0</ele>
        <time>2017-07-24T09:33:56Z</time>
      </trkpt>
      <trkpt lat="44.5510200" lon="6.9352240">
        <ele>2671.2</ele>
        <time>2017-07-24T09:33:58Z</time>
      </trkpt>
      <trkpt lat="44.5510720" lon="6.9351980">
        <ele>2670.4</ele>
        <time>2017-07-24T09:33:59Z</time>
      </trkpt>
      <trkpt lat="44.5511240" lon="6.9351960">
        <ele>2669.4</ele>
        <time>2017-07-24T09:34:00Z</time>
      </trkpt>
      <trkpt lat="44.5511860" lon="6.9352030">
        <ele>2668.2</ele>
        <time>2017-07-24T09:34:01Z</time>
      </trkpt>
      <trkpt lat="44.5512530" lon="6.9352120">
        <ele>2667.0</ele>
        <time>2017-07-24T09:34:02Z</time>
      </trkpt>
      <trkpt lat="44.5513270" lon="6.9351950">
        <ele>2665.8</ele>
        <time>2017-07-24T09:34:03Z</time>
      </trkpt>
      <trkpt lat="44.5514500" lon="6.9351170">
        <ele>2663.8</ele>
        <time>2017-07-24T09:34:05Z</time>
      </trkpt>
      <trkpt lat="44.5514830" lon="6.9350460">
        <ele>2662.0</ele>
        <time>2017-07-24T09:34:06Z</time>
      </trkpt>
      <trkpt lat="44.5515170" lon="6.9349930">
        <ele>2661.6</ele>
        <time>2017-07-24T09:34:07Z</time>
      </trkpt>
      <trkpt lat="44.5515570" lon="6.9349670">
        <ele>2660.4</ele>
        <time>2017-07-24T09:34:08Z</time>
      </trkpt>
      <trkpt lat="44.5516470" lon="6.9349540">
        <ele>2658.2</ele>
        <time>2017-07-24T09:34:10Z</time>
      </trkpt>
      <trkpt lat="44.5516840" lon="6.9349070">
        <ele>2657.4</ele>
        <time>2017-07-24T09:34:11Z</time>
      </trkpt>
      <trkpt lat="44.5517220" lon="6.9348660">
        <ele>2656.4</ele>
        <time>2017-07-24T09:34:12Z</time>
      </trkpt>
      <trkpt lat="44.5517620" lon="6.9348330">
        <ele>2655.2</ele>
        <time>2017-07-24T09:34:13Z</time>
      </trkpt>
      <trkpt lat="44.5518080" lon="6.9348200">
        <ele>2654.0</ele>
        <time>2017-07-24T09:34:14Z</time>
      </trkpt>
      <trkpt lat="44.5518520" lon="6.9348240">
        <ele>2652.6</ele>
        <time>2017-07-24T09:34:15Z</time>
      </trkpt>
      <trkpt lat="44.5518950" lon="6.9348250">
        <ele>2651.0</ele>
        <time>2017-07-24T09:34:16Z</time>
      </trkpt>
      <trkpt lat="44.5519410" lon="6.9348170">
        <ele>2649.8</ele>
        <time>2017-07-24T09:34:17Z</time>
      </trkpt>
      <trkpt lat="44.5519710" lon="6.9347870">
        <ele>2648.6</ele>
        <time>2017-07-24T09:34:18Z</time>
      </trkpt>
      <trkpt lat="44.5520110" lon="6.9347740">
        <ele>2647.6</ele>
        <time>2017-07-24T09:34:19Z</time>
      </trkpt>
      <trkpt lat="44.5520550" lon="6.9347640">
        <ele>2646.4</ele>
        <time>2017-07-24T09:34:20Z</time>
      </trkpt>
      <trkpt lat="44.5521020" lon="6.9347620">
        <ele>2645.2</ele>
        <time>2017-07-24T09:34:21Z</time>
      </trkpt>
      <trkpt lat="44.5521540" lon="6.9347660">
        <ele>2644.0</ele>
        <time>2017-07-24T09:34:22Z</time>
      </trkpt>
      <trkpt lat="44.5522070" lon="6.9347690">
        <ele>2643.0</ele>
        <time>2017-07-24T09:34:23Z</time>
      </trkpt>
      <trkpt lat="44.5522570" lon="6.9347700">
        <ele>2641.4</ele>
        <time>2017-07-24T09:34:24Z</time>
      </trkpt>
      <trkpt lat="44.5523040" lon="6.9347760">
        <ele>2640.0</ele>
        <time>2017-07-24T09:34:25Z</time>
      </trkpt>
      <trkpt lat="44.5523430" lon="6.9347870">
        <ele>2638.4</ele>
        <time>2017-07-24T09:34:26Z</time>
      </trkpt>
      <trkpt lat="44.5523790" lon="6.9348150">
        <ele>2637.0</ele>
        <time>2017-07-24T09:34:27Z</time>
      </trkpt>
      <trkpt lat="44.5524110" lon="6.9348420">
        <ele>2635.4</ele>
        <time>2017-07-24T09:34:28Z</time>
      </trkpt>
      <trkpt lat="44.5524410" lon="6.9348370">
        <ele>2634.0</ele>
        <time>2017-07-24T09:34:29Z</time>
      </trkpt>
      <trkpt lat="44.5524660" lon="6.9348260">
        <ele>2631.4</ele>
        <time>2017-07-24T09:34:30Z</time>
      </trkpt>
      <trkpt lat="44.5524940" lon="6.9348460">
        <ele>2630.2</ele>
        <time>2017-07-24T09:34:31Z</time>
      </trkpt>
      <trkpt lat="44.5525220" lon="6.9348470">
        <ele>2628.8</ele>
        <time>2017-07-24T09:34:32Z</time>
      </trkpt>
      <trkpt lat="44.5525470" lon="6.9348570">
        <ele>2627.6</ele>
        <time>2017-07-24T09:34:33Z</time>
      </trkpt>
      <trkpt lat="44.5525780" lon="6.9348790">
        <ele>2626.0</ele>
        <time>2017-07-24T09:34:34Z</time>
      </trkpt>
      <trkpt lat="44.5526100" lon="6.9348890">
        <ele>2624.4</ele>
        <time>2017-07-24T09:34:35Z</time>
      </trkpt>
      <trkpt lat="44.5526400" lon="6.9348920">
        <ele>2623.0</ele>
        <time>2017-07-24T09:34:36Z</time>
      </trkpt>
      <trkpt lat="44.5526640" lon="6.9348880">
        <ele>2621.8</ele>
        <time>2017-07-24T09:34:37Z</time>
      </trkpt>
      <trkpt lat="44.5526920" lon="6.9348870">
        <ele>2620.6</ele>
        <time>2017-07-24T09:34:38Z</time>
      </trkpt>
      <trkpt lat="44.5527210" lon="6.9348910">
        <ele>2619.2</ele>
        <time>2017-07-24T09:34:39Z</time>
      </trkpt>
      <trkpt lat="44.5527480" lon="6.9349070">
        <ele>2617.8</ele>
        <time>2017-07-24T09:34:40Z</time>
      </trkpt>
      <trkpt lat="44.5527770" lon="6.9349160">
        <ele>2616.4</ele>
        <time>2017-07-24T09:34:41Z</time>
      </trkpt>
      <trkpt lat="44.5528040" lon="6.9349200">
        <ele>2615.2</ele>
        <time>2017-07-24T09:34:42Z</time>
      </trkpt>
      <trkpt lat="44.5528300" lon="6.9349350">
        <ele>2613.8</ele>
        <time>2017-07-24T09:34:43Z</time>
      </trkpt>
      <trkpt lat="44.5528560" lon="6.9349460">
        <ele>2612.2</ele>
        <time>2017-07-24T09:34:44Z</time>
      </trkpt>
      <trkpt lat="44.5528830" lon="6.9349560">
        <ele>2611.0</ele>
        <time>2017-07-24T09:34:45Z</time>
      </trkpt>
      <trkpt lat="44.5529090" lon="6.9349550">
        <ele>2609.6</ele>
        <time>2017-07-24T09:34:46Z</time>
      </trkpt>
      <trkpt lat="44.5529620" lon="6.9349390">
        <ele>2607.6</ele>
        <time>2017-07-24T09:34:48Z</time>
      </trkpt>
      <trkpt lat="44.5529870" lon="6.9349490">
        <ele>2606.6</ele>
        <time>2017-07-24T09:34:49Z</time>
      </trkpt>
      <trkpt lat="44.5530110" lon="6.9349580">
        <ele>2605.2</ele>
        <time>2017-07-24T09:34:50Z</time>
      </trkpt>
      <trkpt lat="44.5530420" lon="6.9349550">
        <ele>2604.2</ele>
        <time>2017-07-24T09:34:51Z</time>
      </trkpt>
      <trkpt lat="44.5530690" lon="6.9349620">
        <ele>2602.8</ele>
        <time>2017-07-24T09:34:52Z</time>
      </trkpt>
      <trkpt lat="44.5531010" lon="6.9349630">
        <ele>2601.8</ele>
        <time>2017-07-24T09:34:53Z</time>
      </trkpt>
      <trkpt lat="44.5531330" lon="6.9349620">
        <ele>2599.2</ele>
        <time>2017-07-24T09:34:54Z</time>
      </trkpt>
      <trkpt lat="44.5531780" lon="6.9349250">
        <ele>2597.4</ele>
        <time>2017-07-24T09:34:56Z</time>
      </trkpt>
      <trkpt lat="44.5532070" lon="6.9349110">
        <ele>2595.2</ele>
        <time>2017-07-24T09:34:58Z</time>
      </trkpt>
      <trkpt lat="44.5532290" lon="6.9349220">
        <ele>2594.2</ele>
        <time>2017-07-24T09:34:59Z</time>
      </trkpt>
      <trkpt lat="44.5532530" lon="6.9349410">
        <ele>2593.0</ele>
        <time>2017-07-24T09:35:00Z</time>
      </trkpt>
      <trkpt lat="44.5532910" lon="6.9349500">
        <ele>2591.8</ele>
        <time>2017-07-24T09:35:01Z</time>
      </trkpt>
      <trkpt lat="44.5533250" lon="6.9349770">
        <ele>2590.4</ele>
        <time>2017-07-24T09:35:02Z</time>
      </trkpt>
      <trkpt lat="44.5533620" lon="6.9350020">
        <ele>2589.4</ele>
        <time>2017-07-24T09:35:03Z</time>
      </trkpt>
      <trkpt lat="44.5534020" lon="6.9350170">
        <ele>2588.2</ele>
        <time>2017-07-24T09:35:04Z</time>
      </trkpt>
      <trkpt lat="44.5534410" lon="6.9350020">
        <ele>2587.0</ele>
        <time>2017-07-24T09:35:05Z</time>
      </trkpt>
      <trkpt lat="44.5534800" lon="6.9349720">
        <ele>2586.0</ele>
        <time>2017-07-24T09:35:06Z</time>
      </trkpt>
      <trkpt lat="44.5535180" lon="6.9349420">
        <ele>2585.4</ele>
        <time>2017-07-24T09:35:07Z</time>
      </trkpt>
      <trkpt lat="44.5535870" lon="6.9349040">
        <ele>2584.0</ele>
        <time>2017-07-24T09:35:09Z</time>
      </trkpt>
      <trkpt lat="44.5536150" lon="6.9349110">
        <ele>2583.0</ele>
        <time>2017-07-24T09:35:10Z</time>
      </trkpt>
      <trkpt lat="44.5536430" lon="6.9349360">
        <ele>2582.0</ele>
        <time>2017-07-24T09:35:11Z</time>
      </trkpt>
      <trkpt lat="44.5536690" lon="6.9349780">
        <ele>2580.8</ele>
        <time>2017-07-24T09:35:12Z</time>
      </trkpt>
      <trkpt lat="44.5537000" lon="6.9350070">
        <ele>2579.6</ele>
        <time>2017-07-24T09:35:13Z</time>
      </trkpt>
      <trkpt lat="44.5537290" lon="6.9350280">
        <ele>2578.4</ele>
        <time>2017-07-24T09:35:14Z</time>
      </trkpt>
      <trkpt lat="44.5537570" lon="6.9350400">
        <ele>2577.2</ele>
        <time>2017-07-24T09:35:15Z</time>
      </trkpt>
      <trkpt lat="44.5537850" lon="6.9350370">
        <ele>2576.2</ele>
        <time>2017-07-24T09:35:16Z</time>
      </trkpt>
      <trkpt lat="44.5538440" lon="6.9350120">
        <ele>2573.6</ele>
        <time>2017-07-24T09:35:18Z</time>
      </trkpt>
      <trkpt lat="44.5538650" lon="6.9349720">
        <ele>2572.8</ele>
        <time>2017-07-24T09:35:19Z</time>
      </trkpt>
      <trkpt lat="44.5538740" lon="6.9349240">
        <ele>2572.0</ele>
        <time>2017-07-24T09:35:20Z</time>
      </trkpt>
      <trkpt lat="44.5538840" lon="6.9348810">
        <ele>2571.4</ele>
        <time>2017-07-24T09:35:21Z</time>
      </trkpt>
      <trkpt lat="44.5539040" lon="6.9348500">
        <ele>2570.4</ele>
        <time>2017-07-24T09:35:22Z</time>
      </trkpt>
      <trkpt lat="44.5539200" lon="6.9348270">
        <ele>2569.8</ele>
        <time>2017-07-24T09:35:23Z</time>
      </trkpt>
      <trkpt lat="44.5539420" lon="6.9348260">
        <ele>2569.0</ele>
        <time>2017-07-24T09:35:24Z</time>
      </trkpt>
      <trkpt lat="44.5539930" lon="6.9347950">
        <ele>2567.8</ele>
        <time>2017-07-24T09:35:26Z</time>
      </trkpt>
      <trkpt lat="44.5540150" lon="6.9347840">
        <ele>2567.2</ele>
        <time>2017-07-24T09:35:27Z</time>
      </trkpt>
      <trkpt lat="44.5540370" lon="6.9347600">
        <ele>2566.4</ele>
        <time>2017-07-24T09:35:28Z</time>
      </trkpt>
      <trkpt lat="44.5540910" lon="6.9347180">
        <ele>2564.8</ele>
        <time>2017-07-24T09:35:30Z</time>
      </trkpt>
      <trkpt lat="44.5541400" lon="6.9346770">
        <ele>2563.4</ele>
        <time>2017-07-24T09:35:32Z</time>
      </trkpt>
      <trkpt lat="44.5541950" lon="6.9346320">
        <ele>2562.0</ele>
        <time>2017-07-24T09:35:34Z</time>
      </trkpt>
      <trkpt lat="44.5542430" lon="6.9345990">
        <ele>2560.4</ele>
        <time>2017-07-24T09:35:36Z</time>
      </trkpt>
      <trkpt lat="44.5542880" lon="6.9345930">
        <ele>2558.4</ele>
        <time>2017-07-24T09:35:38Z</time>
      </trkpt>
      <trkpt lat="44.5543120" lon="6.9345950">
        <ele>2557.2</ele>
        <time>2017-07-24T09:35:39Z</time>
      </trkpt>
      <trkpt lat="44.5543410" lon="6.9346040">
        <ele>2556.2</ele>
        <time>2017-07-24T09:35:40Z</time>
      </trkpt>
      <trkpt lat="44.5543690" lon="6.9346090">
        <ele>2554.8</ele>
        <time>2017-07-24T09:35:41Z</time>
      </trkpt>
      <trkpt lat="44.5543920" lon="6.9346180">
        <ele>2552.6</ele>
        <time>2017-07-24T09:35:42Z</time>
      </trkpt>
      <trkpt lat="44.5544090" lon="6.9346300">
        <ele>2551.4</ele>
        <time>2017-07-24T09:35:43Z</time>
      </trkpt>
      <trkpt lat="44.5544200" lon="6.9346530">
        <ele>2550.4</ele>
        <time>2017-07-24T09:35:44Z</time>
      </trkpt>
      <trkpt lat="44.5544270" lon="6.9346910">
        <ele>2549.2</ele>
        <time>2017-07-24T09:35:45Z</time>
      </trkpt>
      <trkpt lat="44.5544450" lon="6.9348280">
        <ele>2547.2</ele>
        <time>2017-07-24T09:35:47Z</time>
      </trkpt>
      <trkpt lat="44.5544540" lon="6.9349030">
        <ele>2546.4</ele>
        <time>2017-07-24T09:35:48Z</time>
      </trkpt>
      <trkpt lat="44.5544680" lon="6.9349730">
        <ele>2545.4</ele>
        <time>2017-07-24T09:35:49Z</time>
      </trkpt>
      <trkpt lat="44.5544970" lon="6.9350270">
        <ele>2544.6</ele>
        <time>2017-07-24T09:35:50Z</time>
      </trkpt>
      <trkpt lat="44.5545170" lon="6.9350640">
        <ele>2543.8</ele>
        <time>2017-07-24T09:35:51Z</time>
      </trkpt>
      <trkpt lat="44.5545320" lon="6.9350880">
        <ele>2542.8</ele>
        <time>2017-07-24T09:35:52Z</time>
      </trkpt>
      <trkpt lat="44.5545470" lon="6.9351200">
        <ele>2542.0</ele>
        <time>2017-07-24T09:35:53Z</time>
      </trkpt>
      <trkpt lat="44.5545910" lon="6.9351600">
        <ele>2541.0</ele>
        <time>2017-07-24T09:35:54Z</time>
      </trkpt>
      <trkpt lat="44.5546460" lon="6.9351890">
        <ele>2540.0</ele>
        <time>2017-07-24T09:35:55Z</time>
      </trkpt>
      <trkpt lat="44.5546990" lon="6.9351970">
        <ele>2539.0</ele>
        <time>2017-07-24T09:35:56Z</time>
      </trkpt>
      <trkpt lat="44.5547450" lon="6.9351660">
        <ele>2538.4</ele>
        <time>2017-07-24T09:35:57Z</time>
      </trkpt>
      <trkpt lat="44.5548410" lon="6.9351530">
        <ele>2537.0</ele>
        <time>2017-07-24T09:35:59Z</time>
      </trkpt>
      <trkpt lat="44.5548860" lon="6.9351510">
        <ele>2535.8</ele>
        <time>2017-07-24T09:36:00Z</time>
      </trkpt>
      <trkpt lat="44.5549400" lon="6.9352000">
        <ele>2533.8</ele>
        <time>2017-07-24T09:36:02Z</time>
      </trkpt>
      <trkpt lat="44.5549470" lon="6.9352430">
        <ele>2532.8</ele>
        <time>2017-07-24T09:36:03Z</time>
      </trkpt>
      <trkpt lat="44.5549650" lon="6.9352730">
        <ele>2531.6</ele>
        <time>2017-07-24T09:36:04Z</time>
      </trkpt>
      <trkpt lat="44.5550060" lon="6.9352190">
        <ele>2530.0</ele>
        <time>2017-07-24T09:36:06Z</time>
      </trkpt>
      <trkpt lat="44.5550730" lon="6.9351910">
        <ele>2528.8</ele>
        <time>2017-07-24T09:36:08Z</time>
      </trkpt>
      <trkpt lat="44.5551530" lon="6.9352210">
        <ele>2527.2</ele>
        <time>2017-07-24T09:36:10Z</time>
      </trkpt>
      <trkpt lat="44.5552340" lon="6.9352620">
        <ele>2525.8</ele>
        <time>2017-07-24T09:36:12Z</time>
      </trkpt>
      <trkpt lat="44.5552760" lon="6.9352960">
        <ele>2525.2</ele>
        <time>2017-07-24T09:36:13Z</time>
      </trkpt>
      <trkpt lat="44.5553250" lon="6.9353240">
        <ele>2524.6</ele>
        <time>2017-07-24T09:36:14Z</time>
      </trkpt>
      <trkpt lat="44.5553790" lon="6.9353460">
        <ele>2524.2</ele>
        <time>2017-07-24T09:36:15Z</time>
      </trkpt>
      <trkpt lat="44.5554380" lon="6.9353680">
        <ele>2523.2</ele>
        <time>2017-07-24T09:36:16Z</time>
      </trkpt>
      <trkpt lat="44.5555150" lon="6.9353690">
        <ele>2522.6</ele>
        <time>2017-07-24T09:36:17Z</time>
      </trkpt>
      <trkpt lat="44.5555870" lon="6.9353850">
        <ele>2522.2</ele>
        <time>2017-07-24T09:36:18Z</time>
      </trkpt>
      <trkpt lat="44.5556690" lon="6.9353850">
        <ele>2521.8</ele>
        <time>2017-07-24T09:36:19Z</time>
      </trkpt>
      <trkpt lat="44.5558260" lon="6.9353950">
        <ele>2520.6</ele>
        <time>2017-07-24T09:36:21Z</time>
      </trkpt>
      <trkpt lat="44.5558940" lon="6.9354430">
        <ele>2519.8</ele>
        <time>2017-07-24T09:36:22Z</time>
      </trkpt>
      <trkpt lat="44.5559570" lon="6.9354980">
        <ele>2519.2</ele>
        <time>2017-07-24T09:36:23Z</time>
      </trkpt>
      <trkpt lat="44.5560430" lon="6.9356300">
        <ele>2517.6</ele>
        <time>2017-07-24T09:36:25Z</time>
      </trkpt>
      <trkpt lat="44.5560730" lon="6.9357030">
        <ele>2517.2</ele>
        <time>2017-07-24T09:36:26Z</time>
      </trkpt>
      <trkpt lat="44.5561090" lon="6.9357740">
        <ele>2516.4</ele>
        <time>2017-07-24T09:36:27Z</time>
      </trkpt>
      <trkpt lat="44.5561610" lon="6.9359180">
        <ele>2515.0</ele>
        <time>2017-07-24T09:36:29Z</time>
      </trkpt>
      <trkpt lat="44.5561920" lon="6.9359750">
        <ele>2514.0</ele>
        <time>2017-07-24T09:36:30Z</time>
      </trkpt>
      <trkpt lat="44.5562230" lon="6.9360320">
        <ele>2513.8</ele>
        <time>2017-07-24T09:36:31Z</time>
      </trkpt>
      <trkpt lat="44.5562780" lon="6.9361400">
        <ele>2512.8</ele>
        <time>2017-07-24T09:36:33Z</time>
      </trkpt>
      <trkpt lat="44.5563140" lon="6.9361890">
        <ele>2512.4</ele>
        <time>2017-07-24T09:36:34Z</time>
      </trkpt>
      <trkpt lat="44.5564270" lon="6.9362600">
        <ele>2511.8</ele>
        <time>2017-07-24T09:36:36Z</time>
      </trkpt>
      <trkpt lat="44.5564840" lon="6.9363050">
        <ele>2511.8</ele>
        <time>2017-07-24T09:36:37Z</time>
      </trkpt>
      <trkpt lat="44.5565960" lon="6.9364610">
        <ele>2511.4</ele>
        <time>2017-07-24T09:36:40Z</time>
      </trkpt>
      <trkpt lat="44.5567500" lon="6.9367720">
        <ele>2511.2</ele>
        <time>2017-07-24T09:36:45Z</time>
      </trkpt>
      <trkpt lat="44.5567820" lon="6.9368480">
        <ele>2511.2</ele>
        <time>2017-07-24T09:36:46Z</time>
      </trkpt>
      <trkpt lat="44.5568340" lon="6.9369020">
        <ele>2511.2</ele>
        <time>2017-07-24T09:36:47Z</time>
      </trkpt>
      <trkpt lat="44.5569360" lon="6.9369410">
        <ele>2511.2</ele>
        <time>2017-07-24T09:36:49Z</time>
      </trkpt>
      <trkpt lat="44.5570370" lon="6.9369740">
        <ele>2511.2</ele>
        <time>2017-07-24T09:36:52Z</time>
      </trkpt>
      <trkpt lat="44.5570570" lon="6.9369800">
        <ele>2511.2</ele>
        <time>2017-07-24T09:36:53Z</time>
      </trkpt>
      <trkpt lat="44.5570770" lon="6.9370070">
        <ele>2511.6</ele>
        <time>2017-07-24T09:36:56Z</time>
      </trkpt>
      <trkpt lat="44.5570750" lon="6.9370130">
        <ele>2511.8</ele>
        <time>2017-07-24T09:36:58Z</time>
      </trkpt>
      <trkpt lat="44.5570760" lon="6.9370270">
        <ele>2511.8</ele>
        <time>2017-07-24T09:36:59Z</time>
      </trkpt>
      <trkpt lat="44.5570970" lon="6.9371190">
        <ele>2511.6</ele>
        <time>2017-07-24T09:37:03Z</time>
      </trkpt>
      <trkpt lat="44.5571060" lon="6.9371570">
        <ele>2511.6</ele>
        <time>2017-07-24T09:37:04Z</time>
      </trkpt>
      <trkpt lat="44.5571760" lon="6.9373040">
        <ele>2510.8</ele>
        <time>2017-07-24T09:37:08Z</time>
      </trkpt>
      <trkpt lat="44.5571910" lon="6.9373320">
        <ele>2510.6</ele>
        <time>2017-07-24T09:37:11Z</time>
      </trkpt>
      <trkpt lat="44.5571920" lon="6.9373490">
        <ele>2510.6</ele>
        <time>2017-07-24T09:37:12Z</time>
      </trkpt>
      <trkpt lat="44.5572080" lon="6.9374860">
        <ele>2510.0</ele>
        <time>2017-07-24T09:37:17Z</time>
      </trkpt>
      <trkpt lat="44.5572340" lon="6.9375270">
        <ele>2509.2</ele>
        <time>2017-07-24T09:37:18Z</time>
      </trkpt>
      <trkpt lat="44.5572860" lon="6.9376250">
        <ele>2508.2</ele>
        <time>2017-07-24T09:37:21Z</time>
      </trkpt>
      <trkpt lat="44.5573340" lon="6.9377090">
        <ele>2507.0</ele>
        <time>2017-07-24T09:37:24Z</time>
      </trkpt>
      <trkpt lat="44.5573870" lon="6.9377650">
        <ele>2505.8</ele>
        <time>2017-07-24T09:37:26Z</time>
      </trkpt>
      <trkpt lat="44.5574450" lon="6.9378420">
        <ele>2504.4</ele>
        <time>2017-07-24T09:37:28Z</time>
      </trkpt>
      <trkpt lat="44.5575030" lon="6.9378600">
        <ele>2503.0</ele>
        <time>2017-07-24T09:37:30Z</time>
      </trkpt>
      <trkpt lat="44.5575240" lon="6.9378760">
        <ele>2502.2</ele>
        <time>2017-07-24T09:37:31Z</time>
      </trkpt>
      <trkpt lat="44.5575420" lon="6.9378880">
        <ele>2501.6</ele>
        <time>2017-07-24T09:37:32Z</time>
      </trkpt>
      <trkpt lat="44.5575680" lon="6.9379080">
        <ele>2500.4</ele>
        <time>2017-07-24T09:37:34Z</time>
      </trkpt>
      <trkpt lat="44.5575990" lon="6.9379980">
        <ele>2498.2</ele>
        <time>2017-07-24T09:37:38Z</time>
      </trkpt>
      <trkpt lat="44.5576240" lon="6.9381230">
        <ele>2496.4</ele>
        <time>2017-07-24T09:37:40Z</time>
      </trkpt>
      <trkpt lat="44.5576380" lon="6.9382400">
        <ele>2493.8</ele>
        <time>2017-07-24T09:37:42Z</time>
      </trkpt>
      <trkpt lat="44.5576270" lon="6.9383140">
        <ele>2493.2</ele>
        <time>2017-07-24T09:37:43Z</time>
      </trkpt>
      <trkpt lat="44.5576120" lon="6.9384140">
        <ele>2492.4</ele>
        <time>2017-07-24T09:37:44Z</time>
      </trkpt>
      <trkpt lat="44.5575720" lon="6.9385800">
        <ele>2491.0</ele>
        <time>2017-07-24T09:37:46Z</time>
      </trkpt>
      <trkpt lat="44.5575510" lon="6.9386650">
        <ele>2490.4</ele>
        <time>2017-07-24T09:37:47Z</time>
      </trkpt>
      <trkpt lat="44.5575290" lon="6.9387340">
        <ele>2489.8</ele>
        <time>2017-07-24T09:37:48Z</time>
      </trkpt>
      <trkpt lat="44.5575100" lon="6.9388470">
        <ele>2489.0</ele>
        <time>2017-07-24T09:37:50Z</time>
      </trkpt>
      <trkpt lat="44.5575060" lon="6.9388980">
        <ele>2488.4</ele>
        <time>2017-07-24T09:37:51Z</time>
      </trkpt>
      <trkpt lat="44.5575200" lon="6.9390110">
        <ele>2487.4</ele>
        <time>2017-07-24T09:37:53Z</time>
      </trkpt>
      <trkpt lat="44.5575360" lon="6.9390670">
        <ele>2487.0</ele>
        <time>2017-07-24T09:37:54Z</time>
      </trkpt>
      <trkpt lat="44.5575480" lon="6.9391880">
        <ele>2486.2</ele>
        <time>2017-07-24T09:37:56Z</time>
      </trkpt>
      <trkpt lat="44.5575570" lon="6.9392280">
        <ele>2485.8</ele>
        <time>2017-07-24T09:37:57Z</time>
      </trkpt>
      <trkpt lat="44.5575510" lon="6.9393800">
        <ele>2485.6</ele>
        <time>2017-07-24T09:38:00Z</time>
      </trkpt>
      <trkpt lat="44.5575550" lon="6.9394180">
        <ele>2485.4</ele>
        <time>2017-07-24T09:38:01Z</time>
      </trkpt>
      <trkpt lat="44.5575660" lon="6.9395960">
        <ele>2485.8</ele>
        <time>2017-07-24T09:38:05Z</time>
      </trkpt>
      <trkpt lat="44.5575450" lon="6.9399230">
        <ele>2486.6</ele>
        <time>2017-07-24T09:38:11Z</time>
      </trkpt>
      <trkpt lat="44.5575510" lon="6.9400080">
        <ele>2487.0</ele>
        <time>2017-07-24T09:38:13Z</time>
      </trkpt>
      <trkpt lat="44.5575870" lon="6.9401360">
        <ele>2487.2</ele>
        <time>2017-07-24T09:38:16Z</time>
      </trkpt>
      <trkpt lat="44.5576130" lon="6.9403190">
        <ele>2487.0</ele>
        <time>2017-07-24T09:38:20Z</time>
      </trkpt>
      <trkpt lat="44.5576790" lon="6.9405040">
        <ele>2487.4</ele>
        <time>2017-07-24T09:38:26Z</time>
      </trkpt>
      <trkpt lat="44.5577060" lon="6.9405520">
        <ele>2487.4</ele>
        <time>2017-07-24T09:38:27Z</time>
      </trkpt>
      <trkpt lat="44.5577940" lon="6.9406620">
        <ele>2486.8</ele>
        <time>2017-07-24T09:38:30Z</time>
      </trkpt>
      <trkpt lat="44.5579130" lon="6.9408640">
        <ele>2486.4</ele>
        <time>2017-07-24T09:38:35Z</time>
      </trkpt>
      <trkpt lat="44.5580280" lon="6.9409830">
        <ele>2486.2</ele>
        <time>2017-07-24T09:38:40Z</time>
      </trkpt>
      <trkpt lat="44.5580930" lon="6.9410490">
        <ele>2485.8</ele>
        <time>2017-07-24T09:38:42Z</time>
      </trkpt>
      <trkpt lat="44.5581470" lon="6.9410910">
        <ele>2485.2</ele>
        <time>2017-07-24T09:38:44Z</time>
      </trkpt>
      <trkpt lat="44.5581950" lon="6.9411100">
        <ele>2484.6</ele>
        <time>2017-07-24T09:38:46Z</time>
      </trkpt>
      <trkpt lat="44.5582390" lon="6.9411170">
        <ele>2483.0</ele>
        <time>2017-07-24T09:38:49Z</time>
      </trkpt>
      <trkpt lat="44.5582390" lon="6.9411250">
        <ele>2482.0</ele>
        <time>2017-07-24T09:38:51Z</time>
      </trkpt>
      <trkpt lat="44.5581660" lon="6.9412200">
        <ele>2476.6</ele>
        <time>2017-07-24T09:39:02Z</time>
      </trkpt>
      <trkpt lat="44.5581580" lon="6.9412680">
        <ele>2473.8</ele>
        <time>2017-07-24T09:39:08Z</time>
      </trkpt>
      <trkpt lat="44.5581640" lon="6.9412820">
        <ele>2473.2</ele>
        <time>2017-07-24T09:39:09Z</time>
      </trkpt>
      <trkpt lat="44.5581680" lon="6.9413000">
        <ele>2472.4</ele>
        <time>2017-07-24T09:39:10Z</time>
      </trkpt>
      <trkpt lat="44.5581700" lon="6.9413510">
        <ele>2470.2</ele>
        <time>2017-07-24T09:39:15Z</time>
      </trkpt>
      <trkpt lat="44.5581740" lon="6.9414040">
        <ele>2469.8</ele>
        <time>2017-07-24T09:39:16Z</time>
      </trkpt>
      <trkpt lat="44.5581580" lon="6.9415130">
        <ele>2468.6</ele>
        <time>2017-07-24T09:39:18Z</time>
      </trkpt>
      <trkpt lat="44.5581700" lon="6.9415890">
        <ele>2467.4</ele>
        <time>2017-07-24T09:39:20Z</time>
      </trkpt>
      <trkpt lat="44.5582550" lon="6.9417690">
        <ele>2466.6</ele>
        <time>2017-07-24T09:39:24Z</time>
      </trkpt>
      <trkpt lat="44.5582740" lon="6.9418320">
        <ele>2466.2</ele>
        <time>2017-07-24T09:39:25Z</time>
      </trkpt>
      <trkpt lat="44.5582710" lon="6.9420270">
        <ele>2465.2</ele>
        <time>2017-07-24T09:39:28Z</time>
      </trkpt>
      <trkpt lat="44.5582670" lon="6.9420900">
        <ele>2465.0</ele>
        <time>2017-07-24T09:39:29Z</time>
      </trkpt>
      <trkpt lat="44.5582430" lon="6.9423230">
        <ele>2463.8</ele>
        <time>2017-07-24T09:39:33Z</time>
      </trkpt>
      <trkpt lat="44.5582310" lon="6.9423770">
        <ele>2463.2</ele>
        <time>2017-07-24T09:39:34Z</time>
      </trkpt>
      <trkpt lat="44.5582160" lon="6.9424300">
        <ele>2462.8</ele>
        <time>2017-07-24T09:39:35Z</time>
      </trkpt>
      <trkpt lat="44.5581490" lon="6.9426020">
        <ele>2461.6</ele>
        <time>2017-07-24T09:39:38Z</time>
      </trkpt>
      <trkpt lat="44.5581160" lon="6.9426270">
        <ele>2461.2</ele>
        <time>2017-07-24T09:39:39Z</time>
      </trkpt>
      <trkpt lat="44.5580260" lon="6.9426670">
        <ele>2460.6</ele>
        <time>2017-07-24T09:39:42Z</time>
      </trkpt>
      <trkpt lat="44.5579950" lon="6.9426800">
        <ele>2460.2</ele>
        <time>2017-07-24T09:39:43Z</time>
      </trkpt>
      <trkpt lat="44.5579510" lon="6.9427760">
        <ele>2459.4</ele>
        <time>2017-07-24T09:39:45Z</time>
      </trkpt>
      <trkpt lat="44.5579310" lon="6.9428300">
        <ele>2459.4</ele>
        <time>2017-07-24T09:39:46Z</time>
      </trkpt>
      <trkpt lat="44.5579400" lon="6.9429810">
        <ele>2458.4</ele>
        <time>2017-07-24T09:39:48Z</time>
      </trkpt>
      <trkpt lat="44.5579560" lon="6.9430220">
        <ele>2458.2</ele>
        <time>2017-07-24T09:39:49Z</time>
      </trkpt>
      <trkpt lat="44.5580440" lon="6.9431740">
        <ele>2457.0</ele>
        <time>2017-07-24T09:39:52Z</time>
      </trkpt>
      <trkpt lat="44.5580790" lon="6.9432330">
        <ele>2456.2</ele>
        <time>2017-07-24T09:39:53Z</time>
      </trkpt>
      <trkpt lat="44.5581090" lon="6.9432880">
        <ele>2455.6</ele>
        <time>2017-07-24T09:39:54Z</time>
      </trkpt>
      <trkpt lat="44.5581340" lon="6.9433470">
        <ele>2455.2</ele>
        <time>2017-07-24T09:39:55Z</time>
      </trkpt>
      <trkpt lat="44.5581500" lon="6.9434250">
        <ele>2454.8</ele>
        <time>2017-07-24T09:39:57Z</time>
      </trkpt>
      <trkpt lat="44.5581680" lon="6.9434670">
        <ele>2454.2</ele>
        <time>2017-07-24T09:39:58Z</time>
      </trkpt>
      <trkpt lat="44.5582160" lon="6.9435840">
        <ele>2453.8</ele>
        <time>2017-07-24T09:40:01Z</time>
      </trkpt>
      <trkpt lat="44.5582170" lon="6.9436210">
        <ele>2453.6</ele>
        <time>2017-07-24T09:40:02Z</time>
      </trkpt>
      <trkpt lat="44.5582140" lon="6.9436950">
        <ele>2453.2</ele>
        <time>2017-07-24T09:40:04Z</time>
      </trkpt>
      <trkpt lat="44.5582430" lon="6.9438380">
        <ele>2452.4</ele>
        <time>2017-07-24T09:40:07Z</time>
      </trkpt>
      <trkpt lat="44.5582480" lon="6.9438840">
        <ele>2452.2</ele>
        <time>2017-07-24T09:40:08Z</time>
      </trkpt>
      <trkpt lat="44.5583070" lon="6.9440380">
        <ele>2451.8</ele>
        <time>2017-07-24T09:40:11Z</time>
      </trkpt>
      <trkpt lat="44.5583720" lon="6.9441570">
        <ele>2452.0</ele>
        <time>2017-07-24T09:40:13Z</time>
      </trkpt>
      <trkpt lat="44.5584310" lon="6.9442710">
        <ele>2452.0</ele>
        <time>2017-07-24T09:40:15Z</time>
      </trkpt>
      <trkpt lat="44.5585750" lon="6.9446180">
        <ele>2452.4</ele>
        <time>2017-07-24T09:40:20Z</time>
      </trkpt>
      <trkpt lat="44.5585600" lon="6.9447650">
        <ele>2452.6</ele>
        <time>2017-07-24T09:40:23Z</time>
      </trkpt>
      <trkpt lat="44.5585380" lon="6.9448230">
        <ele>2452.6</ele>
        <time>2017-07-24T09:40:24Z</time>
      </trkpt>
      <trkpt lat="44.5585350" lon="6.9450010">
        <ele>2452.8</ele>
        <time>2017-07-24T09:40:27Z</time>
      </trkpt>
      <trkpt lat="44.5585710" lon="6.9453360">
        <ele>2451.8</ele>
        <time>2017-07-24T09:40:32Z</time>
      </trkpt>
      <trkpt lat="44.5586230" lon="6.9454720">
        <ele>2452.0</ele>
        <time>2017-07-24T09:40:35Z</time>
      </trkpt>
      <trkpt lat="44.5586280" lon="6.9455460">
        <ele>2451.0</ele>
        <time>2017-07-24T09:40:37Z</time>
      </trkpt>
      <trkpt lat="44.5586330" lon="6.9456780">
        <ele>2450.0</ele>
        <time>2017-07-24T09:40:40Z</time>
      </trkpt>
      <trkpt lat="44.5586410" lon="6.9457260">
        <ele>2449.2</ele>
        <time>2017-07-24T09:40:41Z</time>
      </trkpt>
      <trkpt lat="44.5586520" lon="6.9457850">
        <ele>2448.6</ele>
        <time>2017-07-24T09:40:42Z</time>
      </trkpt>
      <trkpt lat="44.5586540" lon="6.9458470">
        <ele>2448.0</ele>
        <time>2017-07-24T09:40:43Z</time>
      </trkpt>
      <trkpt lat="44.5586710" lon="6.9459650">
        <ele>2447.4</ele>
        <time>2017-07-24T09:40:45Z</time>
      </trkpt>
      <trkpt lat="44.5586930" lon="6.9460150">
        <ele>2447.0</ele>
        <time>2017-07-24T09:40:46Z</time>
      </trkpt>
      <trkpt lat="44.5587560" lon="6.9460610">
        <ele>2446.4</ele>
        <time>2017-07-24T09:40:48Z</time>
      </trkpt>
      <trkpt lat="44.5587900" lon="6.9460770">
        <ele>2446.0</ele>
        <time>2017-07-24T09:40:49Z</time>
      </trkpt>
      <trkpt lat="44.5588480" lon="6.9460850">
        <ele>2444.8</ele>
        <time>2017-07-24T09:40:52Z</time>
      </trkpt>
      <trkpt lat="44.5588630" lon="6.9460860">
        <ele>2444.4</ele>
        <time>2017-07-24T09:40:53Z</time>
      </trkpt>
      <trkpt lat="44.5588860" lon="6.9460670">
        <ele>2443.4</ele>
        <time>2017-07-24T09:40:54Z</time>
      </trkpt>
      <trkpt lat="44.5589180" lon="6.9459590">
        <ele>2442.0</ele>
        <time>2017-07-24T09:40:57Z</time>
      </trkpt>
      <trkpt lat="44.5589410" lon="6.9459230">
        <ele>2441.0</ele>
        <time>2017-07-24T09:40:59Z</time>
      </trkpt>
      <trkpt lat="44.5589640" lon="6.9459240">
        <ele>2440.4</ele>
        <time>2017-07-24T09:41:00Z</time>
      </trkpt>
      <trkpt lat="44.5589910" lon="6.9459510">
        <ele>2439.8</ele>
        <time>2017-07-24T09:41:01Z</time>
      </trkpt>
      <trkpt lat="44.5590180" lon="6.9459670">
        <ele>2439.2</ele>
        <time>2017-07-24T09:41:02Z</time>
      </trkpt>
      <trkpt lat="44.5590330" lon="6.9459750">
        <ele>2438.6</ele>
        <time>2017-07-24T09:41:03Z</time>
      </trkpt>
      <trkpt lat="44.5590490" lon="6.9459810">
        <ele>2438.0</ele>
        <time>2017-07-24T09:41:04Z</time>
      </trkpt>
      <trkpt lat="44.5590680" lon="6.9459590">
        <ele>2437.4</ele>
        <time>2017-07-24T09:41:05Z</time>
      </trkpt>
      <trkpt lat="44.5591140" lon="6.9459130">
        <ele>2436.2</ele>
        <time>2017-07-24T09:41:07Z</time>
      </trkpt>
      <trkpt lat="44.5591400" lon="6.9459080">
        <ele>2435.6</ele>
        <time>2017-07-24T09:41:08Z</time>
      </trkpt>
      <trkpt lat="44.5591590" lon="6.9459160">
        <ele>2435.0</ele>
        <time>2017-07-24T09:41:09Z</time>
      </trkpt>
      <trkpt lat="44.5591730" lon="6.9459290">
        <ele>2434.4</ele>
        <time>2017-07-24T09:41:10Z</time>
      </trkpt>
      <trkpt lat="44.5591910" lon="6.9459440">
        <ele>2433.8</ele>
        <time>2017-07-24T09:41:11Z</time>
      </trkpt>
      <trkpt lat="44.5592220" lon="6.9459630">
        <ele>2432.6</ele>
        <time>2017-07-24T09:41:13Z</time>
      </trkpt>
      <trkpt lat="44.5592460" lon="6.9459970">
        <ele>2431.4</ele>
        <time>2017-07-24T09:41:15Z</time>
      </trkpt>
      <trkpt lat="44.5592780" lon="6.9460230">
        <ele>2429.8</ele>
        <time>2017-07-24T09:41:17Z</time>
      </trkpt>
      <trkpt lat="44.5593100" lon="6.9460280">
        <ele>2428.2</ele>
        <time>2017-07-24T09:41:18Z</time>
      </trkpt>
      <trkpt lat="44.5593740" lon="6.9460510">
        <ele>2426.6</ele>
        <time>2017-07-24T09:41:20Z</time>
      </trkpt>
      <trkpt lat="44.5594040" lon="6.9460710">
        <ele>2425.6</ele>
        <time>2017-07-24T09:41:21Z</time>
      </trkpt>
      <trkpt lat="44.5594290" lon="6.9460870">
        <ele>2424.0</ele>
        <time>2017-07-24T09:41:22Z</time>
      </trkpt>
      <trkpt lat="44.5594450" lon="6.9461210">
        <ele>2423.2</ele>
        <time>2017-07-24T09:41:23Z</time>
      </trkpt>
      <trkpt lat="44.5594580" lon="6.9461540">
        <ele>2422.2</ele>
        <time>2017-07-24T09:41:24Z</time>
      </trkpt>
      <trkpt lat="44.5594740" lon="6.9461830">
        <ele>2420.2</ele>
        <time>2017-07-24T09:41:26Z</time>
      </trkpt>
      <trkpt lat="44.5594780" lon="6.9462060">
        <ele>2418.4</ele>
        <time>2017-07-24T09:41:28Z</time>
      </trkpt>
      <trkpt lat="44.5594990" lon="6.9462210">
        <ele>2416.6</ele>
        <time>2017-07-24T09:41:30Z</time>
      </trkpt>
      <trkpt lat="44.5595290" lon="6.9462170">
        <ele>2415.0</ele>
        <time>2017-07-24T09:41:32Z</time>
      </trkpt>
      <trkpt lat="44.5595520" lon="6.9462140">
        <ele>2414.4</ele>
        <time>2017-07-24T09:41:33Z</time>
      </trkpt>
      <trkpt lat="44.5595780" lon="6.9461980">
        <ele>2413.6</ele>
        <time>2017-07-24T09:41:34Z</time>
      </trkpt>
      <trkpt lat="44.5596090" lon="6.9461890">
        <ele>2412.2</ele>
        <time>2017-07-24T09:41:36Z</time>
      </trkpt>
      <trkpt lat="44.5596280" lon="6.9461960">
        <ele>2411.2</ele>
        <time>2017-07-24T09:41:38Z</time>
      </trkpt>
      <trkpt lat="44.5596630" lon="6.9461710">
        <ele>2410.0</ele>
        <time>2017-07-24T09:41:40Z</time>
      </trkpt>
      <trkpt lat="44.5597020" lon="6.9461570">
        <ele>2408.2</ele>
        <time>2017-07-24T09:41:42Z</time>
      </trkpt>
      <trkpt lat="44.5597250" lon="6.9461520">
        <ele>2407.0</ele>
        <time>2017-07-24T09:41:44Z</time>
      </trkpt>
      <trkpt lat="44.5597510" lon="6.9461610">
        <ele>2405.0</ele>
        <time>2017-07-24T09:41:48Z</time>
      </trkpt>
      <trkpt lat="44.5597650" lon="6.9461890">
        <ele>2404.2</ele>
        <time>2017-07-24T09:41:50Z</time>
      </trkpt>
      <trkpt lat="44.5598450" lon="6.9463270">
        <ele>2398.8</ele>
        <time>2017-07-24T09:42:04Z</time>
      </trkpt>
      <trkpt lat="44.5598490" lon="6.9463360">
        <ele>2398.4</ele>
        <time>2017-07-24T09:42:05Z</time>
      </trkpt>
      <trkpt lat="44.5598560" lon="6.9463650">
        <ele>2396.8</ele>
        <time>2017-07-24T09:42:09Z</time>
      </trkpt>
      <trkpt lat="44.5598700" lon="6.9463910">
        <ele>2396.4</ele>
        <time>2017-07-24T09:42:10Z</time>
      </trkpt>
      <trkpt lat="44.5599340" lon="6.9464630">
        <ele>2395.2</ele>
        <time>2017-07-24T09:42:13Z</time>
      </trkpt>
      <trkpt lat="44.5599570" lon="6.9464720">
        <ele>2394.6</ele>
        <time>2017-07-24T09:42:14Z</time>
      </trkpt>
      <trkpt lat="44.5599840" lon="6.9464840">
        <ele>2394.2</ele>
        <time>2017-07-24T09:42:15Z</time>
      </trkpt>
      <trkpt lat="44.5600560" lon="6.9465260">
        <ele>2393.0</ele>
        <time>2017-07-24T09:42:18Z</time>
      </trkpt>
      <trkpt lat="44.5600940" lon="6.9465360">
        <ele>2392.2</ele>
        <time>2017-07-24T09:42:20Z</time>
      </trkpt>
      <trkpt lat="44.5601180" lon="6.9465310">
        <ele>2391.6</ele>
        <time>2017-07-24T09:42:21Z</time>
      </trkpt>
      <trkpt lat="44.5601710" lon="6.9465220">
        <ele>2390.6</ele>
        <time>2017-07-24T09:42:23Z</time>
      </trkpt>
      <trkpt lat="44.5602260" lon="6.9465010">
        <ele>2389.4</ele>
        <time>2017-07-24T09:42:25Z</time>
      </trkpt>
      <trkpt lat="44.5602910" lon="6.9465000">
        <ele>2388.4</ele>
        <time>2017-07-24T09:42:27Z</time>
      </trkpt>
      <trkpt lat="44.5603630" lon="6.9464940">
        <ele>2387.0</ele>
        <time>2017-07-24T09:42:29Z</time>
      </trkpt>
      <trkpt lat="44.5603910" lon="6.9464960">
        <ele>2385.0</ele>
        <time>2017-07-24T09:42:30Z</time>
      </trkpt>
      <trkpt lat="44.5604230" lon="6.9465210">
        <ele>2384.2</ele>
        <time>2017-07-24T09:42:31Z</time>
      </trkpt>
      <trkpt lat="44.5604600" lon="6.9465290">
        <ele>2383.6</ele>
        <time>2017-07-24T09:42:32Z</time>
      </trkpt>
      <trkpt lat="44.5605300" lon="6.9465590">
        <ele>2382.0</ele>
        <time>2017-07-24T09:42:34Z</time>
      </trkpt>
      <trkpt lat="44.5605500" lon="6.9466250">
        <ele>2380.0</ele>
        <time>2017-07-24T09:42:36Z</time>
      </trkpt>
      <trkpt lat="44.5605440" lon="6.9466680">
        <ele>2379.0</ele>
        <time>2017-07-24T09:42:37Z</time>
      </trkpt>
      <trkpt lat="44.5605530" lon="6.9467110">
        <ele>2378.0</ele>
        <time>2017-07-24T09:42:38Z</time>
      </trkpt>
      <trkpt lat="44.5605710" lon="6.9467580">
        <ele>2376.8</ele>
        <time>2017-07-24T09:42:39Z</time>
      </trkpt>
      <trkpt lat="44.5605850" lon="6.9468110">
        <ele>2375.6</ele>
        <time>2017-07-24T09:42:40Z</time>
      </trkpt>
      <trkpt lat="44.5605950" lon="6.9468680">
        <ele>2374.6</ele>
        <time>2017-07-24T09:42:41Z</time>
      </trkpt>
      <trkpt lat="44.5606110" lon="6.9469150">
        <ele>2373.4</ele>
        <time>2017-07-24T09:42:42Z</time>
      </trkpt>
      <trkpt lat="44.5606320" lon="6.9469650">
        <ele>2372.4</ele>
        <time>2017-07-24T09:42:43Z</time>
      </trkpt>
      <trkpt lat="44.5606490" lon="6.9470200">
        <ele>2371.2</ele>
        <time>2017-07-24T09:42:44Z</time>
      </trkpt>
      <trkpt lat="44.5606500" lon="6.9471070">
        <ele>2370.2</ele>
        <time>2017-07-24T09:42:45Z</time>
      </trkpt>
      <trkpt lat="44.5606540" lon="6.9471800">
        <ele>2369.2</ele>
        <time>2017-07-24T09:42:46Z</time>
      </trkpt>
      <trkpt lat="44.5606540" lon="6.9472420">
        <ele>2367.8</ele>
        <time>2017-07-24T09:42:47Z</time>
      </trkpt>
      <trkpt lat="44.5606810" lon="6.9472800">
        <ele>2366.6</ele>
        <time>2017-07-24T09:42:48Z</time>
      </trkpt>
      <trkpt lat="44.5607000" lon="6.9473200">
        <ele>2365.6</ele>
        <time>2017-07-24T09:42:49Z</time>
      </trkpt>
      <trkpt lat="44.5607310" lon="6.9473550">
        <ele>2364.4</ele>
        <time>2017-07-24T09:42:50Z</time>
      </trkpt>
      <trkpt lat="44.5607580" lon="6.9473980">
        <ele>2363.2</ele>
        <time>2017-07-24T09:42:51Z</time>
      </trkpt>
      <trkpt lat="44.5607670" lon="6.9474490">
        <ele>2362.2</ele>
        <time>2017-07-24T09:42:52Z</time>
      </trkpt>
      <trkpt lat="44.5607980" lon="6.9475420">
        <ele>2360.4</ele>
        <time>2017-07-24T09:42:54Z</time>
      </trkpt>
      <trkpt lat="44.5608260" lon="6.9475800">
        <ele>2358.0</ele>
        <time>2017-07-24T09:42:55Z</time>
      </trkpt>
      <trkpt lat="44.5608540" lon="6.9476240">
        <ele>2357.0</ele>
        <time>2017-07-24T09:42:56Z</time>
      </trkpt>
      <trkpt lat="44.5609100" lon="6.9477240">
        <ele>2355.0</ele>
        <time>2017-07-24T09:42:58Z</time>
      </trkpt>
      <trkpt lat="44.5609410" lon="6.9477720">
        <ele>2354.0</ele>
        <time>2017-07-24T09:42:59Z</time>
      </trkpt>
      <trkpt lat="44.5609660" lon="6.9478170">
        <ele>2353.0</ele>
        <time>2017-07-24T09:43:00Z</time>
      </trkpt>
      <trkpt lat="44.5609830" lon="6.9478800">
        <ele>2352.2</ele>
        <time>2017-07-24T09:43:01Z</time>
      </trkpt>
      <trkpt lat="44.5610140" lon="6.9479390">
        <ele>2351.4</ele>
        <time>2017-07-24T09:43:02Z</time>
      </trkpt>
      <trkpt lat="44.5610370" lon="6.9479990">
        <ele>2350.6</ele>
        <time>2017-07-24T09:43:03Z</time>
      </trkpt>
      <trkpt lat="44.5610580" lon="6.9480610">
        <ele>2349.8</ele>
        <time>2017-07-24T09:43:04Z</time>
      </trkpt>
      <trkpt lat="44.5610950" lon="6.9481230">
        <ele>2349.0</ele>
        <time>2017-07-24T09:43:05Z</time>
      </trkpt>
      <trkpt lat="44.5611320" lon="6.9481860">
        <ele>2347.8</ele>
        <time>2017-07-24T09:43:06Z</time>
      </trkpt>
      <trkpt lat="44.5611920" lon="6.9482900">
        <ele>2346.0</ele>
        <time>2017-07-24T09:43:08Z</time>
      </trkpt>
      <trkpt lat="44.5612130" lon="6.9483300">
        <ele>2345.2</ele>
        <time>2017-07-24T09:43:09Z</time>
      </trkpt>
      <trkpt lat="44.5612220" lon="6.9483710">
        <ele>2344.4</ele>
        <time>2017-07-24T09:43:10Z</time>
      </trkpt>
      <trkpt lat="44.5612470" lon="6.9483930">
        <ele>2343.0</ele>
        <time>2017-07-24T09:43:12Z</time>
      </trkpt>
      <trkpt lat="44.5612830" lon="6.9484300">
        <ele>2342.0</ele>
        <time>2017-07-24T09:43:14Z</time>
      </trkpt>
      <trkpt lat="44.5613310" lon="6.9485030">
        <ele>2341.2</ele>
        <time>2017-07-24T09:43:16Z</time>
      </trkpt>
      <trkpt lat="44.5613720" lon="6.9485580">
        <ele>2340.6</ele>
        <time>2017-07-24T09:43:17Z</time>
      </trkpt>
      <trkpt lat="44.5615040" lon="6.9486900">
        <ele>2339.2</ele>
        <time>2017-07-24T09:43:20Z</time>
      </trkpt>
      <trkpt lat="44.5615790" lon="6.9487560">
        <ele>2338.2</ele>
        <time>2017-07-24T09:43:22Z</time>
      </trkpt>
      <trkpt lat="44.5616130" lon="6.9487580">
        <ele>2337.6</ele>
        <time>2017-07-24T09:43:23Z</time>
      </trkpt>
      <trkpt lat="44.5616610" lon="6.9488170">
        <ele>2336.6</ele>
        <time>2017-07-24T09:43:25Z</time>
      </trkpt>
      <trkpt lat="44.5616960" lon="6.9488980">
        <ele>2336.2</ele>
        <time>2017-07-24T09:43:28Z</time>
      </trkpt>
      <trkpt lat="44.5617260" lon="6.9489020">
        <ele>2336.0</ele>
        <time>2017-07-24T09:43:29Z</time>
      </trkpt>
      <trkpt lat="44.5618170" lon="6.9489030">
        <ele>2335.4</ele>
        <time>2017-07-24T09:43:31Z</time>
      </trkpt>
      <trkpt lat="44.5619000" lon="6.9489730">
        <ele>2334.6</ele>
        <time>2017-07-24T09:43:33Z</time>
      </trkpt>
      <trkpt lat="44.5619800" lon="6.9490430">
        <ele>2334.2</ele>
        <time>2017-07-24T09:43:35Z</time>
      </trkpt>
      <trkpt lat="44.5620620" lon="6.9491600">
        <ele>2333.0</ele>
        <time>2017-07-24T09:43:38Z</time>
      </trkpt>
      <trkpt lat="44.5621430" lon="6.9492640">
        <ele>2331.8</ele>
        <time>2017-07-24T09:43:41Z</time>
      </trkpt>
      <trkpt lat="44.5621380" lon="6.9493220">
        <ele>2330.6</ele>
        <time>2017-07-24T09:43:43Z</time>
      </trkpt>
      <trkpt lat="44.5621260" lon="6.9493440">
        <ele>2330.2</ele>
        <time>2017-07-24T09:43:44Z</time>
      </trkpt>
      <trkpt lat="44.5621350" lon="6.9493650">
        <ele>2330.0</ele>
        <time>2017-07-24T09:43:45Z</time>
      </trkpt>
      <trkpt lat="44.5621430" lon="6.9493620">
        <ele>2329.8</ele>
        <time>2017-07-24T09:43:46Z</time>
      </trkpt>
      <trkpt lat="44.5621650" lon="6.9493640">
        <ele>2329.4</ele>
        <time>2017-07-24T09:43:47Z</time>
      </trkpt>
      <trkpt lat="44.5621900" lon="6.9493550">
        <ele>2329.2</ele>
        <time>2017-07-24T09:43:48Z</time>
      </trkpt>
      <trkpt lat="44.5623120" lon="6.9493590">
        <ele>2328.8</ele>
        <time>2017-07-24T09:43:52Z</time>
      </trkpt>
      <trkpt lat="44.5623400" lon="6.9493720">
        <ele>2328.6</ele>
        <time>2017-07-24T09:43:53Z</time>
      </trkpt>
      <trkpt lat="44.5623810" lon="6.9493820">
        <ele>2328.6</ele>
        <time>2017-07-24T09:43:55Z</time>
      </trkpt>
      <trkpt lat="44.5623940" lon="6.9493760">
        <ele>2328.8</ele>
        <time>2017-07-24T09:43:56Z</time>
      </trkpt>
      <trkpt lat="44.5624020" lon="6.9493680">
        <ele>2327.8</ele>
        <time>2017-07-24T09:44:10Z</time>
      </trkpt>
      <trkpt lat="44.5624210" lon="6.9493560">
        <ele>2327.6</ele>
        <time>2017-07-24T09:44:11Z</time>
      </trkpt>
      <trkpt lat="44.5624490" lon="6.9493370">
        <ele>2327.6</ele>
        <time>2017-07-24T09:44:12Z</time>
      </trkpt>
      <trkpt lat="44.5625930" lon="6.9492960">
        <ele>2327.2</ele>
        <time>2017-07-24T09:44:16Z</time>
      </trkpt>
      <trkpt lat="44.5626640" lon="6.9492880">
        <ele>2326.6</ele>
        <time>2017-07-24T09:44:18Z</time>
      </trkpt>
      <trkpt lat="44.5627820" lon="6.9492720">
        <ele>2326.6</ele>
        <time>2017-07-24T09:44:21Z</time>
      </trkpt>
      <trkpt lat="44.5629810" lon="6.9492470">
        <ele>2326.0</ele>
        <time>2017-07-24T09:44:26Z</time>
      </trkpt>
      <trkpt lat="44.5630250" lon="6.9492350">
        <ele>2325.8</ele>
        <time>2017-07-24T09:44:27Z</time>
      </trkpt>
      <trkpt lat="44.5630700" lon="6.9492260">
        <ele>2325.6</ele>
        <time>2017-07-24T09:44:28Z</time>
      </trkpt>
      <trkpt lat="44.5632410" lon="6.9491780">
        <ele>2324.4</ele>
        <time>2017-07-24T09:44:32Z</time>
      </trkpt>
      <trkpt lat="44.5633640" lon="6.9490790">
        <ele>2324.6</ele>
        <time>2017-07-24T09:44:35Z</time>
      </trkpt>
      <trkpt lat="44.5634350" lon="6.9490130">
        <ele>2324.2</ele>
        <time>2017-07-24T09:44:37Z</time>
      </trkpt>
      <trkpt lat="44.5635220" lon="6.9489850">
        <ele>2323.8</ele>
        <time>2017-07-24T09:44:39Z</time>
      </trkpt>
      <trkpt lat="44.5636200" lon="6.9489510">
        <ele>2323.4</ele>
        <time>2017-07-24T09:44:41Z</time>
      </trkpt>
      <trkpt lat="44.5636720" lon="6.9489280">
        <ele>2323.2</ele>
        <time>2017-07-24T09:44:42Z</time>
      </trkpt>
      <trkpt lat="44.5637760" lon="6.9488790">
        <ele>2323.2</ele>
        <time>2017-07-24T09:44:44Z</time>
      </trkpt>
      <trkpt lat="44.5638630" lon="6.9488320">
        <ele>2323.4</ele>
        <time>2017-07-24T09:44:46Z</time>
      </trkpt>
      <trkpt lat="44.5639520" lon="6.9487970">
        <ele>2322.8</ele>
        <time>2017-07-24T09:44:48Z</time>
      </trkpt>
      <trkpt lat="44.5640310" lon="6.9487760">
        <ele>2322.6</ele>
        <time>2017-07-24T09:44:50Z</time>
      </trkpt>
      <trkpt lat="44.5640560" lon="6.9487940">
        <ele>2321.8</ele>
        <time>2017-07-24T09:44:51Z</time>
      </trkpt>
      <trkpt lat="44.5640910" lon="6.9488580">
        <ele>2320.6</ele>
        <time>2017-07-24T09:44:53Z</time>
      </trkpt>
      <trkpt lat="44.5641320" lon="6.9488500">
        <ele>2319.4</ele>
        <time>2017-07-24T09:44:55Z</time>
      </trkpt>
      <trkpt lat="44.5642100" lon="6.9487710">
        <ele>2318.0</ele>
        <time>2017-07-24T09:44:58Z</time>
      </trkpt>
      <trkpt lat="44.5642470" lon="6.9487600">
        <ele>2317.4</ele>
        <time>2017-07-24T09:44:59Z</time>
      </trkpt>
      <trkpt lat="44.5642840" lon="6.9487480">
        <ele>2317.0</ele>
        <time>2017-07-24T09:45:00Z</time>
      </trkpt>
      <trkpt lat="44.5643200" lon="6.9487520">
        <ele>2316.4</ele>
        <time>2017-07-24T09:45:01Z</time>
      </trkpt>
      <trkpt lat="44.5643440" lon="6.9487740">
        <ele>2315.6</ele>
        <time>2017-07-24T09:45:02Z</time>
      </trkpt>
      <trkpt lat="44.5643480" lon="6.9488030">
        <ele>2315.0</ele>
        <time>2017-07-24T09:45:03Z</time>
      </trkpt>
      <trkpt lat="44.5643430" lon="6.9488350">
        <ele>2314.4</ele>
        <time>2017-07-24T09:45:04Z</time>
      </trkpt>
      <trkpt lat="44.5643140" lon="6.9489330">
        <ele>2313.4</ele>
        <time>2017-07-24T09:45:06Z</time>
      </trkpt>
      <trkpt lat="44.5642980" lon="6.9489950">
        <ele>2313.0</ele>
        <time>2017-07-24T09:45:07Z</time>
      </trkpt>
      <trkpt lat="44.5642660" lon="6.9491000">
        <ele>2311.8</ele>
        <time>2017-07-24T09:45:09Z</time>
      </trkpt>
      <trkpt lat="44.5642310" lon="6.9491710">
        <ele>2311.0</ele>
        <time>2017-07-24T09:45:11Z</time>
      </trkpt>
      <trkpt lat="44.5642200" lon="6.9491990">
        <ele>2310.8</ele>
        <time>2017-07-24T09:45:12Z</time>
      </trkpt>
      <trkpt lat="44.5642180" lon="6.9492320">
        <ele>2310.2</ele>
        <time>2017-07-24T09:45:13Z</time>
      </trkpt>
      <trkpt lat="44.5642260" lon="6.9492740">
        <ele>2309.8</ele>
        <time>2017-07-24T09:45:14Z</time>
      </trkpt>
      <trkpt lat="44.5642020" lon="6.9494240">
        <ele>2308.4</ele>
        <time>2017-07-24T09:45:17Z</time>
      </trkpt>
      <trkpt lat="44.5641970" lon="6.9494550">
        <ele>2308.0</ele>
        <time>2017-07-24T09:45:18Z</time>
      </trkpt>
      <trkpt lat="44.5641860" lon="6.9494860">
        <ele>2307.2</ele>
        <time>2017-07-24T09:45:19Z</time>
      </trkpt>
      <trkpt lat="44.5641440" lon="6.9495610">
        <ele>2306.4</ele>
        <time>2017-07-24T09:45:21Z</time>
      </trkpt>
      <trkpt lat="44.5641100" lon="6.9495900">
        <ele>2306.0</ele>
        <time>2017-07-24T09:45:22Z</time>
      </trkpt>
      <trkpt lat="44.5639760" lon="6.9496840">
        <ele>2304.6</ele>
        <time>2017-07-24T09:45:26Z</time>
      </trkpt>
      <trkpt lat="44.5639000" lon="6.9497700">
        <ele>2303.4</ele>
        <time>2017-07-24T09:45:29Z</time>
      </trkpt>
      <trkpt lat="44.5638490" lon="6.9498660">
        <ele>2302.2</ele>
        <time>2017-07-24T09:45:31Z</time>
      </trkpt>
      <trkpt lat="44.5637880" lon="6.9499730">
        <ele>2301.2</ele>
        <time>2017-07-24T09:45:33Z</time>
      </trkpt>
      <trkpt lat="44.5637310" lon="6.9500450">
        <ele>2300.6</ele>
        <time>2017-07-24T09:45:35Z</time>
      </trkpt>
      <trkpt lat="44.5636700" lon="6.9501130">
        <ele>2300.4</ele>
        <time>2017-07-24T09:45:37Z</time>
      </trkpt>
      <trkpt lat="44.5636050" lon="6.9501560">
        <ele>2300.4</ele>
        <time>2017-07-24T09:45:39Z</time>
      </trkpt>
      <trkpt lat="44.5635890" lon="6.9501850">
        <ele>2300.2</ele>
        <time>2017-07-24T09:45:40Z</time>
      </trkpt>
      <trkpt lat="44.5635800" lon="6.9502230">
        <ele>2300.0</ele>
        <time>2017-07-24T09:45:41Z</time>
      </trkpt>
      <trkpt lat="44.5635840" lon="6.9503430">
        <ele>2298.8</ele>
        <time>2017-07-24T09:45:45Z</time>
      </trkpt>
      <trkpt lat="44.5635990" lon="6.9503490">
        <ele>2298.6</ele>
        <time>2017-07-24T09:45:46Z</time>
      </trkpt>
      <trkpt lat="44.5636430" lon="6.9503610">
        <ele>2297.6</ele>
        <time>2017-07-24T09:45:50Z</time>
      </trkpt>
      <trkpt lat="44.5636630" lon="6.9503660">
        <ele>2297.4</ele>
        <time>2017-07-24T09:45:51Z</time>
      </trkpt>
      <trkpt lat="44.5637200" lon="6.9503590">
        <ele>2296.6</ele>
        <time>2017-07-24T09:45:55Z</time>
      </trkpt>
      <trkpt lat="44.5637310" lon="6.9503530">
        <ele>2296.6</ele>
        <time>2017-07-24T09:45:56Z</time>
      </trkpt>
      <trkpt lat="44.5637580" lon="6.9503350">
        <ele>2296.2</ele>
        <time>2017-07-24T09:45:58Z</time>
      </trkpt>
      <trkpt lat="44.5638240" lon="6.9503080">
        <ele>2296.4</ele>
        <time>2017-07-24T09:46:03Z</time>
      </trkpt>
      <trkpt lat="44.5638490" lon="6.9502970">
        <ele>2296.6</ele>
        <time>2017-07-24T09:46:05Z</time>
      </trkpt>
      <trkpt lat="44.5638990" lon="6.9502860">
        <ele>2297.4</ele>
        <time>2017-07-24T09:46:11Z</time>
      </trkpt>
      <trkpt lat="44.5639040" lon="6.9502910">
        <ele>2297.6</ele>
        <time>2017-07-24T09:46:12Z</time>
      </trkpt>
      <trkpt lat="44.5639500" lon="6.9503320">
        <ele>2298.4</ele>
        <time>2017-07-24T09:46:24Z</time>
      </trkpt>
      <trkpt lat="44.5639710" lon="6.9503450">
        <ele>2298.4</ele>
        <time>2017-07-24T09:46:25Z</time>
      </trkpt>
      <trkpt lat="44.5641160" lon="6.9504250">
        <ele>2297.0</ele>
        <time>2017-07-24T09:46:30Z</time>
      </trkpt>
      <trkpt lat="44.5641230" lon="6.9504670">
        <ele>2296.2</ele>
        <time>2017-07-24T09:46:31Z</time>
      </trkpt>
      <trkpt lat="44.5641660" lon="6.9506080">
        <ele>2294.8</ele>
        <time>2017-07-24T09:46:34Z</time>
      </trkpt>
      <trkpt lat="44.5643200" lon="6.9506760">
        <ele>2293.4</ele>
        <time>2017-07-24T09:46:37Z</time>
      </trkpt>
      <trkpt lat="44.5643610" lon="6.9506800">
        <ele>2293.0</ele>
        <time>2017-07-24T09:46:38Z</time>
      </trkpt>
      <trkpt lat="44.5644010" lon="6.9506790">
        <ele>2292.6</ele>
        <time>2017-07-24T09:46:39Z</time>
      </trkpt>
      <trkpt lat="44.5644440" lon="6.9506730">
        <ele>2292.4</ele>
        <time>2017-07-24T09:46:40Z</time>
      </trkpt>
      <trkpt lat="44.5645410" lon="6.9506450">
        <ele>2292.0</ele>
        <time>2017-07-24T09:46:42Z</time>
      </trkpt>
      <trkpt lat="44.5647270" lon="6.9506100">
        <ele>2291.0</ele>
        <time>2017-07-24T09:46:46Z</time>
      </trkpt>
      <trkpt lat="44.5647660" lon="6.9506220">
        <ele>2290.0</ele>
        <time>2017-07-24T09:46:48Z</time>
      </trkpt>
      <trkpt lat="44.5648270" lon="6.9506460">
        <ele>2289.0</ele>
        <time>2017-07-24T09:46:51Z</time>
      </trkpt>
      <trkpt lat="44.5648410" lon="6.9506430">
        <ele>2288.8</ele>
        <time>2017-07-24T09:46:52Z</time>
      </trkpt>
      <trkpt lat="44.5648420" lon="6.9505900">
        <ele>2288.0</ele>
        <time>2017-07-24T09:46:56Z</time>
      </trkpt>
      <trkpt lat="44.5648470" lon="6.9505740">
        <ele>2288.0</ele>
        <time>2017-07-24T09:46:57Z</time>
      </trkpt>
      <trkpt lat="44.5649050" lon="6.9505660">
        <ele>2287.8</ele>
        <time>2017-07-24T09:47:00Z</time>
      </trkpt>
      <trkpt lat="44.5649350" lon="6.9505790">
        <ele>2287.8</ele>
        <time>2017-07-24T09:47:01Z</time>
      </trkpt>
      <trkpt lat="44.5649680" lon="6.9505920">
        <ele>2287.8</ele>
        <time>2017-07-24T09:47:02Z</time>
      </trkpt>
      <trkpt lat="44.5649910" lon="6.9506130">
        <ele>2287.6</ele>
        <time>2017-07-24T09:47:03Z</time>
      </trkpt>
      <trkpt lat="44.5649970" lon="6.9506410">
        <ele>2287.2</ele>
        <time>2017-07-24T09:47:04Z</time>
      </trkpt>
      <trkpt lat="44.5649870" lon="6.9506950">
        <ele>2286.6</ele>
        <time>2017-07-24T09:47:06Z</time>
      </trkpt>
      <trkpt lat="44.5649510" lon="6.9507670">
        <ele>2285.8</ele>
        <time>2017-07-24T09:47:09Z</time>
      </trkpt>
      <trkpt lat="44.5649030" lon="6.9508440">
        <ele>2285.4</ele>
        <time>2017-07-24T09:47:11Z</time>
      </trkpt>
      <trkpt lat="44.5648470" lon="6.9508960">
        <ele>2284.2</ele>
        <time>2017-07-24T09:47:14Z</time>
      </trkpt>
      <trkpt lat="44.5648220" lon="6.9509720">
        <ele>2281.4</ele>
        <time>2017-07-24T09:47:23Z</time>
      </trkpt>
      <trkpt lat="44.5648020" lon="6.9510040">
        <ele>2278.6</ele>
        <time>2017-07-24T09:47:32Z</time>
      </trkpt>
      <trkpt lat="44.5647700" lon="6.9511190">
        <ele>2278.4</ele>
        <time>2017-07-24T09:47:35Z</time>
      </trkpt>
      <trkpt lat="44.5647660" lon="6.9511780">
        <ele>2278.2</ele>
        <time>2017-07-24T09:47:36Z</time>
      </trkpt>
      <trkpt lat="44.5647820" lon="6.9513010">
        <ele>2277.4</ele>
        <time>2017-07-24T09:47:38Z</time>
      </trkpt>
      <trkpt lat="44.5648040" lon="6.9513520">
        <ele>2277.2</ele>
        <time>2017-07-24T09:47:39Z</time>
      </trkpt>
      <trkpt lat="44.5648750" lon="6.9513960">
        <ele>2276.2</ele>
        <time>2017-07-24T09:47:41Z</time>
      </trkpt>
      <trkpt lat="44.5649110" lon="6.9514070">
        <ele>2275.8</ele>
        <time>2017-07-24T09:47:42Z</time>
      </trkpt>
      <trkpt lat="44.5649450" lon="6.9514120">
        <ele>2274.8</ele>
        <time>2017-07-24T09:47:43Z</time>
      </trkpt>
      <trkpt lat="44.5650310" lon="6.9513920">
        <ele>2273.4</ele>
        <time>2017-07-24T09:47:46Z</time>
      </trkpt>
      <trkpt lat="44.5650680" lon="6.9513790">
        <ele>2273.0</ele>
        <time>2017-07-24T09:47:47Z</time>
      </trkpt>
      <trkpt lat="44.5651090" lon="6.9513720">
        <ele>2272.4</ele>
        <time>2017-07-24T09:47:48Z</time>
      </trkpt>
      <trkpt lat="44.5651900" lon="6.9513690">
        <ele>2271.2</ele>
        <time>2017-07-24T09:47:50Z</time>
      </trkpt>
      <trkpt lat="44.5652260" lon="6.9513710">
        <ele>2270.6</ele>
        <time>2017-07-24T09:47:51Z</time>
      </trkpt>
      <trkpt lat="44.5652580" lon="6.9513700">
        <ele>2270.0</ele>
        <time>2017-07-24T09:47:52Z</time>
      </trkpt>
      <trkpt lat="44.5653130" lon="6.9513930">
        <ele>2268.8</ele>
        <time>2017-07-24T09:47:54Z</time>
      </trkpt>
      <trkpt lat="44.5653390" lon="6.9514110">
        <ele>2268.2</ele>
        <time>2017-07-24T09:47:55Z</time>
      </trkpt>
      <trkpt lat="44.5653650" lon="6.9514260">
        <ele>2267.6</ele>
        <time>2017-07-24T09:47:56Z</time>
      </trkpt>
      <trkpt lat="44.5654110" lon="6.9514470">
        <ele>2266.4</ele>
        <time>2017-07-24T09:47:58Z</time>
      </trkpt>
      <trkpt lat="44.5654660" lon="6.9514400">
        <ele>2264.8</ele>
        <time>2017-07-24T09:48:01Z</time>
      </trkpt>
      <trkpt lat="44.5654690" lon="6.9513950">
        <ele>2263.0</ele>
        <time>2017-07-24T09:48:04Z</time>
      </trkpt>
      <trkpt lat="44.5654730" lon="6.9513710">
        <ele>2262.6</ele>
        <time>2017-07-24T09:48:05Z</time>
      </trkpt>
      <trkpt lat="44.5654820" lon="6.9513220">
        <ele>2260.8</ele>
        <time>2017-07-24T09:48:07Z</time>
      </trkpt>
      <trkpt lat="44.5654990" lon="6.9512570">
        <ele>2259.2</ele>
        <time>2017-07-24T09:48:09Z</time>
      </trkpt>
      <trkpt lat="44.5655140" lon="6.9512260">
        <ele>2258.4</ele>
        <time>2017-07-24T09:48:10Z</time>
      </trkpt>
      <trkpt lat="44.5655310" lon="6.9512080">
        <ele>2257.8</ele>
        <time>2017-07-24T09:48:11Z</time>
      </trkpt>
      <trkpt lat="44.5655510" lon="6.9512130">
        <ele>2257.2</ele>
        <time>2017-07-24T09:48:12Z</time>
      </trkpt>
      <trkpt lat="44.5655720" lon="6.9512390">
        <ele>2256.4</ele>
        <time>2017-07-24T09:48:13Z</time>
      </trkpt>
      <trkpt lat="44.5656180" lon="6.9513020">
        <ele>2255.0</ele>
        <time>2017-07-24T09:48:15Z</time>
      </trkpt>
      <trkpt lat="44.5656610" lon="6.9513510">
        <ele>2253.2</ele>
        <time>2017-07-24T09:48:17Z</time>
      </trkpt>
      <trkpt lat="44.5657040" lon="6.9513740">
        <ele>2251.6</ele>
        <time>2017-07-24T09:48:19Z</time>
      </trkpt>
      <trkpt lat="44.5657460" lon="6.9514020">
        <ele>2249.6</ele>
        <time>2017-07-24T09:48:21Z</time>
      </trkpt>
      <trkpt lat="44.5657870" lon="6.9514130">
        <ele>2248.0</ele>
        <time>2017-07-24T09:48:23Z</time>
      </trkpt>
      <trkpt lat="44.5658070" lon="6.9514200">
        <ele>2246.8</ele>
        <time>2017-07-24T09:48:24Z</time>
      </trkpt>
      <trkpt lat="44.5658290" lon="6.9514330">
        <ele>2245.8</ele>
        <time>2017-07-24T09:48:25Z</time>
      </trkpt>
      <trkpt lat="44.5658510" lon="6.9514500">
        <ele>2244.4</ele>
        <time>2017-07-24T09:48:26Z</time>
      </trkpt>
      <trkpt lat="44.5658740" lon="6.9514510">
        <ele>2243.4</ele>
        <time>2017-07-24T09:48:27Z</time>
      </trkpt>
      <trkpt lat="44.5658890" lon="6.9514310">
        <ele>2242.2</ele>
        <time>2017-07-24T09:48:28Z</time>
      </trkpt>
      <trkpt lat="44.5658990" lon="6.9513640">
        <ele>2240.4</ele>
        <time>2017-07-24T09:48:30Z</time>
      </trkpt>
      <trkpt lat="44.5659030" lon="6.9513340">
        <ele>2238.8</ele>
        <time>2017-07-24T09:48:31Z</time>
      </trkpt>
      <trkpt lat="44.5659080" lon="6.9513110">
        <ele>2237.8</ele>
        <time>2017-07-24T09:48:32Z</time>
      </trkpt>
      <trkpt lat="44.5659160" lon="6.9513090">
        <ele>2236.8</ele>
        <time>2017-07-24T09:48:33Z</time>
      </trkpt>
      <trkpt lat="44.5659260" lon="6.9513230">
        <ele>2235.8</ele>
        <time>2017-07-24T09:48:34Z</time>
      </trkpt>
      <trkpt lat="44.5659360" lon="6.9513430">
        <ele>2234.6</ele>
        <time>2017-07-24T09:48:35Z</time>
      </trkpt>
      <trkpt lat="44.5659460" lon="6.9513660">
        <ele>2233.6</ele>
        <time>2017-07-24T09:48:36Z</time>
      </trkpt>
      <trkpt lat="44.5659670" lon="6.9514080">
        <ele>2231.8</ele>
        <time>2017-07-24T09:48:38Z</time>
      </trkpt>
      <trkpt lat="44.5659970" lon="6.9514490">
        <ele>2230.0</ele>
        <time>2017-07-24T09:48:40Z</time>
      </trkpt>
      <trkpt lat="44.5660350" lon="6.9514760">
        <ele>2228.2</ele>
        <time>2017-07-24T09:48:42Z</time>
      </trkpt>
      <trkpt lat="44.5660580" lon="6.9514930">
        <ele>2227.2</ele>
        <time>2017-07-24T09:48:43Z</time>
      </trkpt>
      <trkpt lat="44.5660820" lon="6.9514980">
        <ele>2226.4</ele>
        <time>2017-07-24T09:48:44Z</time>
      </trkpt>
      <trkpt lat="44.5661410" lon="6.9514950">
        <ele>2225.0</ele>
        <time>2017-07-24T09:48:46Z</time>
      </trkpt>
      <trkpt lat="44.5661910" lon="6.9515000">
        <ele>2223.8</ele>
        <time>2017-07-24T09:48:48Z</time>
      </trkpt>
      <trkpt lat="44.5662060" lon="6.9515180">
        <ele>2223.0</ele>
        <time>2017-07-24T09:48:49Z</time>
      </trkpt>
      <trkpt lat="44.5662220" lon="6.9515370">
        <ele>2222.6</ele>
        <time>2017-07-24T09:48:50Z</time>
      </trkpt>
      <trkpt lat="44.5662610" lon="6.9515710">
        <ele>2221.4</ele>
        <time>2017-07-24T09:48:52Z</time>
      </trkpt>
      <trkpt lat="44.5662820" lon="6.9515770">
        <ele>2220.6</ele>
        <time>2017-07-24T09:48:53Z</time>
      </trkpt>
      <trkpt lat="44.5663080" lon="6.9515880">
        <ele>2220.0</ele>
        <time>2017-07-24T09:48:54Z</time>
      </trkpt>
      <trkpt lat="44.5663430" lon="6.9516070">
        <ele>2219.0</ele>
        <time>2017-07-24T09:48:55Z</time>
      </trkpt>
      <trkpt lat="44.5664330" lon="6.9516480">
        <ele>2217.8</ele>
        <time>2017-07-24T09:48:57Z</time>
      </trkpt>
      <trkpt lat="44.5665190" lon="6.9516800">
        <ele>2216.4</ele>
        <time>2017-07-24T09:48:59Z</time>
      </trkpt>
      <trkpt lat="44.5666300" lon="6.9517260">
        <ele>2215.0</ele>
        <time>2017-07-24T09:49:02Z</time>
      </trkpt>
      <trkpt lat="44.5666970" lon="6.9517420">
        <ele>2213.6</ele>
        <time>2017-07-24T09:49:04Z</time>
      </trkpt>
      <trkpt lat="44.5667590" lon="6.9517490">
        <ele>2212.4</ele>
        <time>2017-07-24T09:49:06Z</time>
      </trkpt>
      <trkpt lat="44.5667900" lon="6.9517420">
        <ele>2211.8</ele>
        <time>2017-07-24T09:49:07Z</time>
      </trkpt>
      <trkpt lat="44.5668470" lon="6.9517200">
        <ele>2210.8</ele>
        <time>2017-07-24T09:49:09Z</time>
      </trkpt>
      <trkpt lat="44.5668820" lon="6.9517230">
        <ele>2210.2</ele>
        <time>2017-07-24T09:49:10Z</time>
      </trkpt>
      <trkpt lat="44.5669150" lon="6.9517370">
        <ele>2209.4</ele>
        <time>2017-07-24T09:49:11Z</time>
      </trkpt>
      <trkpt lat="44.5670170" lon="6.9518280">
        <ele>2208.2</ele>
        <time>2017-07-24T09:49:14Z</time>
      </trkpt>
      <trkpt lat="44.5671330" lon="6.9518920">
        <ele>2207.2</ele>
        <time>2017-07-24T09:49:17Z</time>
      </trkpt>
      <trkpt lat="44.5671870" lon="6.9518980">
        <ele>2206.6</ele>
        <time>2017-07-24T09:49:18Z</time>
      </trkpt>
      <trkpt lat="44.5672610" lon="6.9518960">
        <ele>2205.6</ele>
        <time>2017-07-24T09:49:19Z</time>
      </trkpt>
      <trkpt lat="44.5674000" lon="6.9519260">
        <ele>2204.6</ele>
        <time>2017-07-24T09:49:21Z</time>
      </trkpt>
      <trkpt lat="44.5674610" lon="6.9519420">
        <ele>2204.2</ele>
        <time>2017-07-24T09:49:22Z</time>
      </trkpt>
      <trkpt lat="44.5675890" lon="6.9520080">
        <ele>2203.2</ele>
        <time>2017-07-24T09:49:24Z</time>
      </trkpt>
      <trkpt lat="44.5676500" lon="6.9520270">
        <ele>2203.0</ele>
        <time>2017-07-24T09:49:25Z</time>
      </trkpt>
      <trkpt lat="44.5677180" lon="6.9520370">
        <ele>2202.4</ele>
        <time>2017-07-24T09:49:26Z</time>
      </trkpt>
      <trkpt lat="44.5677790" lon="6.9520570">
        <ele>2202.0</ele>
        <time>2017-07-24T09:49:27Z</time>
      </trkpt>
      <trkpt lat="44.5678330" lon="6.9520780">
        <ele>2201.4</ele>
        <time>2017-07-24T09:49:28Z</time>
      </trkpt>
      <trkpt lat="44.5679160" lon="6.9521270">
        <ele>2200.2</ele>
        <time>2017-07-24T09:49:30Z</time>
      </trkpt>
      <trkpt lat="44.5679480" lon="6.9521740">
        <ele>2199.8</ele>
        <time>2017-07-24T09:49:31Z</time>
      </trkpt>
      <trkpt lat="44.5679850" lon="6.9522310">
        <ele>2199.0</ele>
        <time>2017-07-24T09:49:32Z</time>
      </trkpt>
      <trkpt lat="44.5680490" lon="6.9522610">
        <ele>2197.6</ele>
        <time>2017-07-24T09:49:34Z</time>
      </trkpt>
      <trkpt lat="44.5681040" lon="6.9522750">
        <ele>2196.0</ele>
        <time>2017-07-24T09:49:36Z</time>
      </trkpt>
      <trkpt lat="44.5681240" lon="6.9522630">
        <ele>2195.0</ele>
        <time>2017-07-24T09:49:37Z</time>
      </trkpt>
      <trkpt lat="44.5681370" lon="6.9522280">
        <ele>2194.4</ele>
        <time>2017-07-24T09:49:38Z</time>
      </trkpt>
      <trkpt lat="44.5681310" lon="6.9521170">
        <ele>2193.2</ele>
        <time>2017-07-24T09:49:40Z</time>
      </trkpt>
      <trkpt lat="44.5681380" lon="6.9520880">
        <ele>2192.0</ele>
        <time>2017-07-24T09:49:41Z</time>
      </trkpt>
      <trkpt lat="44.5681550" lon="6.9520890">
        <ele>2190.6</ele>
        <time>2017-07-24T09:49:42Z</time>
      </trkpt>
      <trkpt lat="44.5681770" lon="6.9520850">
        <ele>2188.6</ele>
        <time>2017-07-24T09:49:43Z</time>
      </trkpt>
      <trkpt lat="44.5682260" lon="6.9521220">
        <ele>2186.8</ele>
        <time>2017-07-24T09:49:45Z</time>
      </trkpt>
      <trkpt lat="44.5682470" lon="6.9521690">
        <ele>2185.6</ele>
        <time>2017-07-24T09:49:46Z</time>
      </trkpt>
      <trkpt lat="44.5682610" lon="6.9522150">
        <ele>2184.4</ele>
        <time>2017-07-24T09:49:47Z</time>
      </trkpt>
      <trkpt lat="44.5682760" lon="6.9522490">
        <ele>2183.4</ele>
        <time>2017-07-24T09:49:48Z</time>
      </trkpt>
      <trkpt lat="44.5682900" lon="6.9522450">
        <ele>2182.4</ele>
        <time>2017-07-24T09:49:49Z</time>
      </trkpt>
      <trkpt lat="44.5682880" lon="6.9522180">
        <ele>2181.6</ele>
        <time>2017-07-24T09:49:50Z</time>
      </trkpt>
      <trkpt lat="44.5682930" lon="6.9521400">
        <ele>2179.8</ele>
        <time>2017-07-24T09:49:52Z</time>
      </trkpt>
      <trkpt lat="44.5683470" lon="6.9520770">
        <ele>2178.6</ele>
        <time>2017-07-24T09:49:54Z</time>
      </trkpt>
      <trkpt lat="44.5684070" lon="6.9521300">
        <ele>2176.8</ele>
        <time>2017-07-24T09:49:56Z</time>
      </trkpt>
      <trkpt lat="44.5684330" lon="6.9521790">
        <ele>2175.8</ele>
        <time>2017-07-24T09:49:57Z</time>
      </trkpt>
      <trkpt lat="44.5684900" lon="6.9522900">
        <ele>2174.2</ele>
        <time>2017-07-24T09:49:59Z</time>
      </trkpt>
      <trkpt lat="44.5685550" lon="6.9524190">
        <ele>2172.2</ele>
        <time>2017-07-24T09:50:01Z</time>
      </trkpt>
      <trkpt lat="44.5685920" lon="6.9524720">
        <ele>2172.0</ele>
        <time>2017-07-24T09:50:02Z</time>
      </trkpt>
      <trkpt lat="44.5686930" lon="6.9525110">
        <ele>2170.8</ele>
        <time>2017-07-24T09:50:04Z</time>
      </trkpt>
      <trkpt lat="44.5687540" lon="6.9525150">
        <ele>2170.0</ele>
        <time>2017-07-24T09:50:05Z</time>
      </trkpt>
      <trkpt lat="44.5688190" lon="6.9525220">
        <ele>2169.2</ele>
        <time>2017-07-24T09:50:06Z</time>
      </trkpt>
      <trkpt lat="44.5688800" lon="6.9525400">
        <ele>2168.4</ele>
        <time>2017-07-24T09:50:07Z</time>
      </trkpt>
      <trkpt lat="44.5689380" lon="6.9525540">
        <ele>2167.8</ele>
        <time>2017-07-24T09:50:08Z</time>
      </trkpt>
      <trkpt lat="44.5689910" lon="6.9525580">
        <ele>2167.4</ele>
        <time>2017-07-24T09:50:09Z</time>
      </trkpt>
      <trkpt lat="44.5690790" lon="6.9526030">
        <ele>2166.8</ele>
        <time>2017-07-24T09:50:11Z</time>
      </trkpt>
      <trkpt lat="44.5691070" lon="6.9526410">
        <ele>2166.4</ele>
        <time>2017-07-24T09:50:12Z</time>
      </trkpt>
      <trkpt lat="44.5691390" lon="6.9526700">
        <ele>2165.4</ele>
        <time>2017-07-24T09:50:13Z</time>
      </trkpt>
      <trkpt lat="44.5692030" lon="6.9527280">
        <ele>2164.2</ele>
        <time>2017-07-24T09:50:15Z</time>
      </trkpt>
      <trkpt lat="44.5692330" lon="6.9527680">
        <ele>2164.4</ele>
        <time>2017-07-24T09:50:16Z</time>
      </trkpt>
      <trkpt lat="44.5692630" lon="6.9527910">
        <ele>2163.8</ele>
        <time>2017-07-24T09:50:17Z</time>
      </trkpt>
      <trkpt lat="44.5693060" lon="6.9527440">
        <ele>2162.8</ele>
        <time>2017-07-24T09:50:19Z</time>
      </trkpt>
      <trkpt lat="44.5692970" lon="6.9526510">
        <ele>2161.8</ele>
        <time>2017-07-24T09:50:21Z</time>
      </trkpt>
      <trkpt lat="44.5692770" lon="6.9525490">
        <ele>2160.6</ele>
        <time>2017-07-24T09:50:23Z</time>
      </trkpt>
      <trkpt lat="44.5692370" lon="6.9524570">
        <ele>2159.6</ele>
        <time>2017-07-24T09:50:25Z</time>
      </trkpt>
      <trkpt lat="44.5692260" lon="6.9524100">
        <ele>2159.0</ele>
        <time>2017-07-24T09:50:26Z</time>
      </trkpt>
      <trkpt lat="44.5692090" lon="6.9523670">
        <ele>2158.4</ele>
        <time>2017-07-24T09:50:27Z</time>
      </trkpt>
      <trkpt lat="44.5691560" lon="6.9522970">
        <ele>2157.2</ele>
        <time>2017-07-24T09:50:29Z</time>
      </trkpt>
      <trkpt lat="44.5691460" lon="6.9522440">
        <ele>2155.2</ele>
        <time>2017-07-24T09:50:31Z</time>
      </trkpt>
      <trkpt lat="44.5691670" lon="6.9522420">
        <ele>2154.6</ele>
        <time>2017-07-24T09:50:32Z</time>
      </trkpt>
      <trkpt lat="44.5692010" lon="6.9522450">
        <ele>2154.0</ele>
        <time>2017-07-24T09:50:33Z</time>
      </trkpt>
      <trkpt lat="44.5692390" lon="6.9522350">
        <ele>2153.2</ele>
        <time>2017-07-24T09:50:34Z</time>
      </trkpt>
      <trkpt lat="44.5692790" lon="6.9522200">
        <ele>2152.6</ele>
        <time>2017-07-24T09:50:35Z</time>
      </trkpt>
      <trkpt lat="44.5693290" lon="6.9522200">
        <ele>2151.8</ele>
        <time>2017-07-24T09:50:36Z</time>
      </trkpt>
      <trkpt lat="44.5693890" lon="6.9522260">
        <ele>2151.0</ele>
        <time>2017-07-24T09:50:37Z</time>
      </trkpt>
      <trkpt lat="44.5695140" lon="6.9522330">
        <ele>2149.6</ele>
        <time>2017-07-24T09:50:39Z</time>
      </trkpt>
      <trkpt lat="44.5695650" lon="6.9522480">
        <ele>2149.0</ele>
        <time>2017-07-24T09:50:40Z</time>
      </trkpt>
      <trkpt lat="44.5696070" lon="6.9522630">
        <ele>2148.4</ele>
        <time>2017-07-24T09:50:41Z</time>
      </trkpt>
      <trkpt lat="44.5696710" lon="6.9522650">
        <ele>2146.8</ele>
        <time>2017-07-24T09:50:43Z</time>
      </trkpt>
      <trkpt lat="44.5697390" lon="6.9522930">
        <ele>2145.2</ele>
        <time>2017-07-24T09:50:45Z</time>
      </trkpt>
      <trkpt lat="44.5697730" lon="6.9522840">
        <ele>2144.4</ele>
        <time>2017-07-24T09:50:46Z</time>
      </trkpt>
      <trkpt lat="44.5697960" lon="6.9522460">
        <ele>2143.6</ele>
        <time>2017-07-24T09:50:47Z</time>
      </trkpt>
      <trkpt lat="44.5698010" lon="6.9521340">
        <ele>2141.8</ele>
        <time>2017-07-24T09:50:49Z</time>
      </trkpt>
      <trkpt lat="44.5697420" lon="6.9520240">
        <ele>2140.2</ele>
        <time>2017-07-24T09:50:51Z</time>
      </trkpt>
      <trkpt lat="44.5696950" lon="6.9519840">
        <ele>2139.6</ele>
        <time>2017-07-24T09:50:52Z</time>
      </trkpt>
      <trkpt lat="44.5696420" lon="6.9519540">
        <ele>2139.2</ele>
        <time>2017-07-24T09:50:53Z</time>
      </trkpt>
      <trkpt lat="44.5695410" lon="6.9519140">
        <ele>2137.2</ele>
        <time>2017-07-24T09:50:55Z</time>
      </trkpt>
      <trkpt lat="44.5694930" lon="6.9519240">
        <ele>2136.8</ele>
        <time>2017-07-24T09:50:56Z</time>
      </trkpt>
      <trkpt lat="44.5694540" lon="6.9519270">
        <ele>2136.0</ele>
        <time>2017-07-24T09:50:57Z</time>
      </trkpt>
      <trkpt lat="44.5693840" lon="6.9518970">
        <ele>2135.2</ele>
        <time>2017-07-24T09:50:59Z</time>
      </trkpt>
      <trkpt lat="44.5693500" lon="6.9518820">
        <ele>2134.6</ele>
        <time>2017-07-24T09:51:00Z</time>
      </trkpt>
      <trkpt lat="44.5693030" lon="6.9518320">
        <ele>2133.2</ele>
        <time>2017-07-24T09:51:02Z</time>
      </trkpt>
      <trkpt lat="44.5692880" lon="6.9518140">
        <ele>2132.8</ele>
        <time>2017-07-24T09:51:03Z</time>
      </trkpt>
      <trkpt lat="44.5692900" lon="6.9518170">
        <ele>2132.2</ele>
        <time>2017-07-24T09:51:04Z</time>
      </trkpt>
      <trkpt lat="44.5693050" lon="6.9518220">
        <ele>2131.6</ele>
        <time>2017-07-24T09:51:05Z</time>
      </trkpt>
      <trkpt lat="44.5693180" lon="6.9518040">
        <ele>2131.0</ele>
        <time>2017-07-24T09:51:06Z</time>
      </trkpt>
      <trkpt lat="44.5693220" lon="6.9517600">
        <ele>2130.0</ele>
        <time>2017-07-24T09:51:08Z</time>
      </trkpt>
      <trkpt lat="44.5693220" lon="6.9517360">
        <ele>2129.6</ele>
        <time>2017-07-24T09:51:09Z</time>
      </trkpt>
      <trkpt lat="44.5693240" lon="6.9517180">
        <ele>2128.8</ele>
        <time>2017-07-24T09:51:10Z</time>
      </trkpt>
      <trkpt lat="44.5693270" lon="6.9517040">
        <ele>2128.2</ele>
        <time>2017-07-24T09:51:11Z</time>
      </trkpt>
      <trkpt lat="44.5693440" lon="6.9516640">
        <ele>2126.0</ele>
        <time>2017-07-24T09:51:15Z</time>
      </trkpt>
      <trkpt lat="44.5693710" lon="6.9516590">
        <ele>2125.2</ele>
        <time>2017-07-24T09:51:16Z</time>
      </trkpt>
      <trkpt lat="44.5694110" lon="6.9516680">
        <ele>2124.6</ele>
        <time>2017-07-24T09:51:17Z</time>
      </trkpt>
      <trkpt lat="44.5694470" lon="6.9516700">
        <ele>2123.8</ele>
        <time>2017-07-24T09:51:18Z</time>
      </trkpt>
      <trkpt lat="44.5694750" lon="6.9516470">
        <ele>2122.2</ele>
        <time>2017-07-24T09:51:19Z</time>
      </trkpt>
      <trkpt lat="44.5695300" lon="6.9516100">
        <ele>2120.6</ele>
        <time>2017-07-24T09:51:21Z</time>
      </trkpt>
      <trkpt lat="44.5695860" lon="6.9516030">
        <ele>2119.0</ele>
        <time>2017-07-24T09:51:23Z</time>
      </trkpt>
      <trkpt lat="44.5696090" lon="6.9516230">
        <ele>2118.2</ele>
        <time>2017-07-24T09:51:24Z</time>
      </trkpt>
      <trkpt lat="44.5696270" lon="6.9516320">
        <ele>2117.4</ele>
        <time>2017-07-24T09:51:25Z</time>
      </trkpt>
      <trkpt lat="44.5696690" lon="6.9516170">
        <ele>2116.0</ele>
        <time>2017-07-24T09:51:27Z</time>
      </trkpt>
      <trkpt lat="44.5696860" lon="6.9515960">
        <ele>2115.2</ele>
        <time>2017-07-24T09:51:28Z</time>
      </trkpt>
      <trkpt lat="44.5696980" lon="6.9515680">
        <ele>2114.2</ele>
        <time>2017-07-24T09:51:29Z</time>
      </trkpt>
      <trkpt lat="44.5697210" lon="6.9515140">
        <ele>2112.6</ele>
        <time>2017-07-24T09:51:31Z</time>
      </trkpt>
      <trkpt lat="44.5697460" lon="6.9514990">
        <ele>2112.0</ele>
        <time>2017-07-24T09:51:32Z</time>
      </trkpt>
      <trkpt lat="44.5697700" lon="6.9514960">
        <ele>2111.0</ele>
        <time>2017-07-24T09:51:33Z</time>
      </trkpt>
      <trkpt lat="44.5698090" lon="6.9514570">
        <ele>2109.8</ele>
        <time>2017-07-24T09:51:35Z</time>
      </trkpt>
      <trkpt lat="44.5698230" lon="6.9514200">
        <ele>2109.2</ele>
        <time>2017-07-24T09:51:36Z</time>
      </trkpt>
      <trkpt lat="44.5698290" lon="6.9513850">
        <ele>2108.6</ele>
        <time>2017-07-24T09:51:37Z</time>
      </trkpt>
      <trkpt lat="44.5698330" lon="6.9513540">
        <ele>2108.0</ele>
        <time>2017-07-24T09:51:38Z</time>
      </trkpt>
      <trkpt lat="44.5698440" lon="6.9513290">
        <ele>2107.4</ele>
        <time>2017-07-24T09:51:39Z</time>
      </trkpt>
      <trkpt lat="44.5698790" lon="6.9512990">
        <ele>2106.8</ele>
        <time>2017-07-24T09:51:41Z</time>
      </trkpt>
      <trkpt lat="44.5699110" lon="6.9513100">
        <ele>2106.4</ele>
        <time>2017-07-24T09:51:42Z</time>
      </trkpt>
      <trkpt lat="44.5700150" lon="6.9513730">
        <ele>2105.2</ele>
        <time>2017-07-24T09:51:45Z</time>
      </trkpt>
      <trkpt lat="44.5700590" lon="6.9513860">
        <ele>2105.0</ele>
        <time>2017-07-24T09:51:46Z</time>
      </trkpt>
      <trkpt lat="44.5701340" lon="6.9513600">
        <ele>2104.0</ele>
        <time>2017-07-24T09:51:48Z</time>
      </trkpt>
      <trkpt lat="44.5702790" lon="6.9513170">
        <ele>2103.0</ele>
        <time>2017-07-24T09:51:51Z</time>
      </trkpt>
      <trkpt lat="44.5703200" lon="6.9513040">
        <ele>2102.8</ele>
        <time>2017-07-24T09:51:52Z</time>
      </trkpt>
      <trkpt lat="44.5703600" lon="6.9513140">
        <ele>2102.2</ele>
        <time>2017-07-24T09:51:53Z</time>
      </trkpt>
      <trkpt lat="44.5704020" lon="6.9513320">
        <ele>2101.6</ele>
        <time>2017-07-24T09:51:54Z</time>
      </trkpt>
      <trkpt lat="44.5704780" lon="6.9513230">
        <ele>2100.6</ele>
        <time>2017-07-24T09:51:56Z</time>
      </trkpt>
      <trkpt lat="44.5705210" lon="6.9513370">
        <ele>2100.4</ele>
        <time>2017-07-24T09:51:57Z</time>
      </trkpt>
      <trkpt lat="44.5705720" lon="6.9513600">
        <ele>2099.8</ele>
        <time>2017-07-24T09:51:58Z</time>
      </trkpt>
      <trkpt lat="44.5706330" lon="6.9513780">
        <ele>2099.2</ele>
        <time>2017-07-24T09:51:59Z</time>
      </trkpt>
      <trkpt lat="44.5706890" lon="6.9513690">
        <ele>2098.0</ele>
        <time>2017-07-24T09:52:00Z</time>
      </trkpt>
      <trkpt lat="44.5708080" lon="6.9513460">
        <ele>2096.4</ele>
        <time>2017-07-24T09:52:02Z</time>
      </trkpt>
      <trkpt lat="44.5708760" lon="6.9513020">
        <ele>2095.6</ele>
        <time>2017-07-24T09:52:03Z</time>
      </trkpt>
      <trkpt lat="44.5709440" lon="6.9512550">
        <ele>2094.4</ele>
        <time>2017-07-24T09:52:04Z</time>
      </trkpt>
      <trkpt lat="44.5710830" lon="6.9512070">
        <ele>2093.0</ele>
        <time>2017-07-24T09:52:06Z</time>
      </trkpt>
      <trkpt lat="44.5711520" lon="6.9512040">
        <ele>2092.0</ele>
        <time>2017-07-24T09:52:07Z</time>
      </trkpt>
      <trkpt lat="44.5712840" lon="6.9512560">
        <ele>2090.6</ele>
        <time>2017-07-24T09:52:09Z</time>
      </trkpt>
      <trkpt lat="44.5713420" lon="6.9513020">
        <ele>2090.0</ele>
        <time>2017-07-24T09:52:10Z</time>
      </trkpt>
      <trkpt lat="44.5713950" lon="6.9513640">
        <ele>2089.6</ele>
        <time>2017-07-24T09:52:11Z</time>
      </trkpt>
      <trkpt lat="44.5714420" lon="6.9514270">
        <ele>2089.4</ele>
        <time>2017-07-24T09:52:12Z</time>
      </trkpt>
      <trkpt lat="44.5714840" lon="6.9514670">
        <ele>2088.8</ele>
        <time>2017-07-24T09:52:13Z</time>
      </trkpt>
      <trkpt lat="44.5715240" lon="6.9514960">
        <ele>2088.4</ele>
        <time>2017-07-24T09:52:14Z</time>
      </trkpt>
      <trkpt lat="44.5715900" lon="6.9516080">
        <ele>2087.0</ele>
        <time>2017-07-24T09:52:17Z</time>
      </trkpt>
      <trkpt lat="44.5716180" lon="6.9517670">
        <ele>2086.2</ele>
        <time>2017-07-24T09:52:20Z</time>
      </trkpt>
      <trkpt lat="44.5716320" lon="6.9518290">
        <ele>2085.8</ele>
        <time>2017-07-24T09:52:21Z</time>
      </trkpt>
      <trkpt lat="44.5716380" lon="6.9519140">
        <ele>2085.4</ele>
        <time>2017-07-24T09:52:22Z</time>
      </trkpt>
      <trkpt lat="44.5716500" lon="6.9521100">
        <ele>2084.8</ele>
        <time>2017-07-24T09:52:24Z</time>
      </trkpt>
      <trkpt lat="44.5716760" lon="6.9524730">
        <ele>2083.4</ele>
        <time>2017-07-24T09:52:28Z</time>
      </trkpt>
      <trkpt lat="44.5717200" lon="6.9525650">
        <ele>2082.8</ele>
        <time>2017-07-24T09:52:30Z</time>
      </trkpt>
      <trkpt lat="44.5717510" lon="6.9526080">
        <ele>2081.8</ele>
        <time>2017-07-24T09:52:31Z</time>
      </trkpt>
      <trkpt lat="44.5718910" lon="6.9527710">
        <ele>2080.4</ele>
        <time>2017-07-24T09:52:34Z</time>
      </trkpt>
      <trkpt lat="44.5719950" lon="6.9529170">
        <ele>2079.4</ele>
        <time>2017-07-24T09:52:36Z</time>
      </trkpt>
      <trkpt lat="44.5720480" lon="6.9530020">
        <ele>2079.0</ele>
        <time>2017-07-24T09:52:37Z</time>
      </trkpt>
      <trkpt lat="44.5721020" lon="6.9530940">
        <ele>2078.4</ele>
        <time>2017-07-24T09:52:38Z</time>
      </trkpt>
      <trkpt lat="44.5721560" lon="6.9531920">
        <ele>2077.8</ele>
        <time>2017-07-24T09:52:39Z</time>
      </trkpt>
      <trkpt lat="44.5722630" lon="6.9533870">
        <ele>2076.4</ele>
        <time>2017-07-24T09:52:41Z</time>
      </trkpt>
      <trkpt lat="44.5723880" lon="6.9535430">
        <ele>2075.0</ele>
        <time>2017-07-24T09:52:43Z</time>
      </trkpt>
      <trkpt lat="44.5725260" lon="6.9536870">
        <ele>2073.8</ele>
        <time>2017-07-24T09:52:45Z</time>
      </trkpt>
      <trkpt lat="44.5726550" lon="6.9538560">
        <ele>2072.2</ele>
        <time>2017-07-24T09:52:47Z</time>
      </trkpt>
      <trkpt lat="44.5727230" lon="6.9539410">
        <ele>2071.2</ele>
        <time>2017-07-24T09:52:48Z</time>
      </trkpt>
      <trkpt lat="44.5727930" lon="6.9540310">
        <ele>2070.2</ele>
        <time>2017-07-24T09:52:49Z</time>
      </trkpt>
      <trkpt lat="44.5728630" lon="6.9541380">
        <ele>2069.4</ele>
        <time>2017-07-24T09:52:50Z</time>
      </trkpt>
      <trkpt lat="44.5729310" lon="6.9542590">
        <ele>2068.2</ele>
        <time>2017-07-24T09:52:51Z</time>
      </trkpt>
      <trkpt lat="44.5729970" lon="6.9543860">
        <ele>2067.0</ele>
        <time>2017-07-24T09:52:52Z</time>
      </trkpt>
      <trkpt lat="44.5730570" lon="6.9545200">
        <ele>2065.6</ele>
        <time>2017-07-24T09:52:53Z</time>
      </trkpt>
      <trkpt lat="44.5731170" lon="6.9546560">
        <ele>2064.6</ele>
        <time>2017-07-24T09:52:54Z</time>
      </trkpt>
      <trkpt lat="44.5731800" lon="6.9547870">
        <ele>2062.2</ele>
        <time>2017-07-24T09:52:55Z</time>
      </trkpt>
      <trkpt lat="44.5733060" lon="6.9550620">
        <ele>2060.2</ele>
        <time>2017-07-24T09:52:57Z</time>
      </trkpt>
      <trkpt lat="44.5733710" lon="6.9552020">
        <ele>2059.2</ele>
        <time>2017-07-24T09:52:58Z</time>
      </trkpt>
      <trkpt lat="44.5734400" lon="6.9553410">
        <ele>2057.6</ele>
        <time>2017-07-24T09:52:59Z</time>
      </trkpt>
      <trkpt lat="44.5735740" lon="6.9556170">
        <ele>2055.6</ele>
        <time>2017-07-24T09:53:01Z</time>
      </trkpt>
      <trkpt lat="44.5737030" lon="6.9558910">
        <ele>2053.6</ele>
        <time>2017-07-24T09:53:03Z</time>
      </trkpt>
      <trkpt lat="44.5737620" lon="6.9560160">
        <ele>2052.6</ele>
        <time>2017-07-24T09:53:04Z</time>
      </trkpt>
      <trkpt lat="44.5738030" lon="6.9561200">
        <ele>2051.6</ele>
        <time>2017-07-24T09:53:05Z</time>
      </trkpt>
      <trkpt lat="44.5738290" lon="6.9562260">
        <ele>2050.4</ele>
        <time>2017-07-24T09:53:06Z</time>
      </trkpt>
      <trkpt lat="44.5737930" lon="6.9563860">
        <ele>2048.6</ele>
        <time>2017-07-24T09:53:08Z</time>
      </trkpt>
      <trkpt lat="44.5737000" lon="6.9564830">
        <ele>2047.0</ele>
        <time>2017-07-24T09:53:10Z</time>
      </trkpt>
      <trkpt lat="44.5736440" lon="6.9565180">
        <ele>2046.2</ele>
        <time>2017-07-24T09:53:11Z</time>
      </trkpt>
      <trkpt lat="44.5735890" lon="6.9565620">
        <ele>2045.8</ele>
        <time>2017-07-24T09:53:12Z</time>
      </trkpt>
      <trkpt lat="44.5734810" lon="6.9566540">
        <ele>2044.2</ele>
        <time>2017-07-24T09:53:14Z</time>
      </trkpt>
      <trkpt lat="44.5733560" lon="6.9567190">
        <ele>2043.2</ele>
        <time>2017-07-24T09:53:16Z</time>
      </trkpt>
      <trkpt lat="44.5732260" lon="6.9567680">
        <ele>2042.4</ele>
        <time>2017-07-24T09:53:18Z</time>
      </trkpt>
      <trkpt lat="44.5731660" lon="6.9568030">
        <ele>2041.6</ele>
        <time>2017-07-24T09:53:19Z</time>
      </trkpt>
      <trkpt lat="44.5730550" lon="6.9568230">
        <ele>2040.6</ele>
        <time>2017-07-24T09:53:21Z</time>
      </trkpt>
      <trkpt lat="44.5730010" lon="6.9568020">
        <ele>2040.4</ele>
        <time>2017-07-24T09:53:22Z</time>
      </trkpt>
      <trkpt lat="44.5728370" lon="6.9567240">
        <ele>2039.8</ele>
        <time>2017-07-24T09:53:25Z</time>
      </trkpt>
      <trkpt lat="44.5727210" lon="6.9566980">
        <ele>2039.4</ele>
        <time>2017-07-24T09:53:27Z</time>
      </trkpt>
      <trkpt lat="44.5726630" lon="6.9566950">
        <ele>2039.2</ele>
        <time>2017-07-24T09:53:28Z</time>
      </trkpt>
      <trkpt lat="44.5725550" lon="6.9566790">
        <ele>2038.8</ele>
        <time>2017-07-24T09:53:30Z</time>
      </trkpt>
      <trkpt lat="44.5724470" lon="6.9566800">
        <ele>2038.4</ele>
        <time>2017-07-24T09:53:32Z</time>
      </trkpt>
      <trkpt lat="44.5723980" lon="6.9567020">
        <ele>2038.2</ele>
        <time>2017-07-24T09:53:33Z</time>
      </trkpt>
      <trkpt lat="44.5723510" lon="6.9567440">
        <ele>2037.8</ele>
        <time>2017-07-24T09:53:34Z</time>
      </trkpt>
      <trkpt lat="44.5723050" lon="6.9568070">
        <ele>2037.2</ele>
        <time>2017-07-24T09:53:35Z</time>
      </trkpt>
      <trkpt lat="44.5722140" lon="6.9569780">
        <ele>2036.4</ele>
        <time>2017-07-24T09:53:37Z</time>
      </trkpt>
      <trkpt lat="44.5721910" lon="6.9570970">
        <ele>2035.8</ele>
        <time>2017-07-24T09:53:38Z</time>
      </trkpt>
      <trkpt lat="44.5721890" lon="6.9572250">
        <ele>2035.2</ele>
        <time>2017-07-24T09:53:39Z</time>
      </trkpt>
      <trkpt lat="44.5722190" lon="6.9573720">
        <ele>2034.2</ele>
        <time>2017-07-24T09:53:40Z</time>
      </trkpt>
      <trkpt lat="44.5722540" lon="6.9575100">
        <ele>2033.4</ele>
        <time>2017-07-24T09:53:41Z</time>
      </trkpt>
      <trkpt lat="44.5722860" lon="6.9576350">
        <ele>2032.4</ele>
        <time>2017-07-24T09:53:42Z</time>
      </trkpt>
      <trkpt lat="44.5723170" lon="6.9577500">
        <ele>2031.0</ele>
        <time>2017-07-24T09:53:43Z</time>
      </trkpt>
      <trkpt lat="44.5723730" lon="6.9579650">
        <ele>2029.4</ele>
        <time>2017-07-24T09:53:45Z</time>
      </trkpt>
      <trkpt lat="44.5724340" lon="6.9581520">
        <ele>2027.8</ele>
        <time>2017-07-24T09:53:47Z</time>
      </trkpt>
      <trkpt lat="44.5724590" lon="6.9582210">
        <ele>2026.6</ele>
        <time>2017-07-24T09:53:48Z</time>
      </trkpt>
      <trkpt lat="44.5724970" lon="6.9582640">
        <ele>2025.6</ele>
        <time>2017-07-24T09:53:49Z</time>
      </trkpt>
      <trkpt lat="44.5725460" lon="6.9582970">
        <ele>2024.4</ele>
        <time>2017-07-24T09:53:50Z</time>
      </trkpt>
      <trkpt lat="44.5726370" lon="6.9582830">
        <ele>2023.4</ele>
        <time>2017-07-24T09:53:51Z</time>
      </trkpt>
      <trkpt lat="44.5727140" lon="6.9582780">
        <ele>2022.4</ele>
        <time>2017-07-24T09:53:52Z</time>
      </trkpt>
      <trkpt lat="44.5728000" lon="6.9582580">
        <ele>2021.2</ele>
        <time>2017-07-24T09:53:53Z</time>
      </trkpt>
      <trkpt lat="44.5728630" lon="6.9582590">
        <ele>2020.2</ele>
        <time>2017-07-24T09:53:54Z</time>
      </trkpt>
      <trkpt lat="44.5729280" lon="6.9582580">
        <ele>2018.8</ele>
        <time>2017-07-24T09:53:55Z</time>
      </trkpt>
      <trkpt lat="44.5729940" lon="6.9582690">
        <ele>2017.6</ele>
        <time>2017-07-24T09:53:56Z</time>
      </trkpt>
      <trkpt lat="44.5730570" lon="6.9582880">
        <ele>2016.4</ele>
        <time>2017-07-24T09:53:57Z</time>
      </trkpt>
      <trkpt lat="44.5731210" lon="6.9583100">
        <ele>2015.0</ele>
        <time>2017-07-24T09:53:58Z</time>
      </trkpt>
      <trkpt lat="44.5732110" lon="6.9583160">
        <ele>2014.0</ele>
        <time>2017-07-24T09:53:59Z</time>
      </trkpt>
      <trkpt lat="44.5733260" lon="6.9583120">
        <ele>2013.2</ele>
        <time>2017-07-24T09:54:00Z</time>
      </trkpt>
      <trkpt lat="44.5734970" lon="6.9583810">
        <ele>2011.4</ele>
        <time>2017-07-24T09:54:02Z</time>
      </trkpt>
      <trkpt lat="44.5735700" lon="6.9584330">
        <ele>2010.0</ele>
        <time>2017-07-24T09:54:03Z</time>
      </trkpt>
      <trkpt lat="44.5736470" lon="6.9584480">
        <ele>2008.8</ele>
        <time>2017-07-24T09:54:04Z</time>
      </trkpt>
      <trkpt lat="44.5737330" lon="6.9584510">
        <ele>2007.0</ele>
        <time>2017-07-24T09:54:05Z</time>
      </trkpt>
      <trkpt lat="44.5738210" lon="6.9584680">
        <ele>2005.8</ele>
        <time>2017-07-24T09:54:06Z</time>
      </trkpt>
      <trkpt lat="44.5739120" lon="6.9585020">
        <ele>2003.6</ele>
        <time>2017-07-24T09:54:07Z</time>
      </trkpt>
      <trkpt lat="44.5740070" lon="6.9585340">
        <ele>2002.2</ele>
        <time>2017-07-24T09:54:08Z</time>
      </trkpt>
      <trkpt lat="44.5740930" lon="6.9585700">
        <ele>2000.6</ele>
        <time>2017-07-24T09:54:09Z</time>
      </trkpt>
      <trkpt lat="44.5741710" lon="6.9585970">
        <ele>1999.0</ele>
        <time>2017-07-24T09:54:10Z</time>
      </trkpt>
      <trkpt lat="44.5742630" lon="6.9586220">
        <ele>1997.8</ele>
        <time>2017-07-24T09:54:11Z</time>
      </trkpt>
      <trkpt lat="44.5743310" lon="6.9586510">
        <ele>1996.6</ele>
        <time>2017-07-24T09:54:12Z</time>
      </trkpt>
      <trkpt lat="44.5743880" lon="6.9586960">
        <ele>1995.2</ele>
        <time>2017-07-24T09:54:13Z</time>
      </trkpt>
      <trkpt lat="44.5744250" lon="6.9587610">
        <ele>1993.6</ele>
        <time>2017-07-24T09:54:14Z</time>
      </trkpt>
      <trkpt lat="44.5744560" lon="6.9588320">
        <ele>1992.2</ele>
        <time>2017-07-24T09:54:15Z</time>
      </trkpt>
      <trkpt lat="44.5744920" lon="6.9589090">
        <ele>1990.8</ele>
        <time>2017-07-24T09:54:16Z</time>
      </trkpt>
      <trkpt lat="44.5745280" lon="6.9590110">
        <ele>1989.4</ele>
        <time>2017-07-24T09:54:17Z</time>
      </trkpt>
      <trkpt lat="44.5745580" lon="6.9591350">
        <ele>1987.8</ele>
        <time>2017-07-24T09:54:18Z</time>
      </trkpt>
      <trkpt lat="44.5745790" lon="6.9592600">
        <ele>1986.2</ele>
        <time>2017-07-24T09:54:19Z</time>
      </trkpt>
      <trkpt lat="44.5745950" lon="6.9593830">
        <ele>1984.6</ele>
        <time>2017-07-24T09:54:20Z</time>
      </trkpt>
      <trkpt lat="44.5746270" lon="6.9595050">
        <ele>1983.2</ele>
        <time>2017-07-24T09:54:21Z</time>
      </trkpt>
      <trkpt lat="44.5746630" lon="6.9596150">
        <ele>1982.2</ele>
        <time>2017-07-24T09:54:22Z</time>
      </trkpt>
      <trkpt lat="44.5746920" lon="6.9597210">
        <ele>1981.0</ele>
        <time>2017-07-24T09:54:23Z</time>
      </trkpt>
      <trkpt lat="44.5747220" lon="6.9598180">
        <ele>1979.8</ele>
        <time>2017-07-24T09:54:24Z</time>
      </trkpt>
      <trkpt lat="44.5747540" lon="6.9599020">
        <ele>1978.6</ele>
        <time>2017-07-24T09:54:25Z</time>
      </trkpt>
      <trkpt lat="44.5747940" lon="6.9599900">
        <ele>1977.2</ele>
        <time>2017-07-24T09:54:26Z</time>
      </trkpt>
      <trkpt lat="44.5748230" lon="6.9600800">
        <ele>1976.2</ele>
        <time>2017-07-24T09:54:27Z</time>
      </trkpt>
      <trkpt lat="44.5748600" lon="6.9601830">
        <ele>1974.6</ele>
        <time>2017-07-24T09:54:28Z</time>
      </trkpt>
      <trkpt lat="44.5748990" lon="6.9602900">
        <ele>1973.0</ele>
        <time>2017-07-24T09:54:29Z</time>
      </trkpt>
      <trkpt lat="44.5749160" lon="6.9604010">
        <ele>1971.4</ele>
        <time>2017-07-24T09:54:30Z</time>
      </trkpt>
      <trkpt lat="44.5749410" lon="6.9604750">
        <ele>1969.8</ele>
        <time>2017-07-24T09:54:31Z</time>
      </trkpt>
      <trkpt lat="44.5749940" lon="6.9605560">
        <ele>1968.8</ele>
        <time>2017-07-24T09:54:32Z</time>
      </trkpt>
      <trkpt lat="44.5749900" lon="6.9606330">
        <ele>1967.8</ele>
        <time>2017-07-24T09:54:33Z</time>
      </trkpt>
      <trkpt lat="44.5749570" lon="6.9607100">
        <ele>1966.8</ele>
        <time>2017-07-24T09:54:34Z</time>
      </trkpt>
      <trkpt lat="44.5749210" lon="6.9607970">
        <ele>1965.6</ele>
        <time>2017-07-24T09:54:35Z</time>
      </trkpt>
      <trkpt lat="44.5748610" lon="6.9609980">
        <ele>1963.6</ele>
        <time>2017-07-24T09:54:37Z</time>
      </trkpt>
      <trkpt lat="44.5748680" lon="6.9611100">
        <ele>1963.0</ele>
        <time>2017-07-24T09:54:38Z</time>
      </trkpt>
      <trkpt lat="44.5748900" lon="6.9612340">
        <ele>1962.2</ele>
        <time>2017-07-24T09:54:39Z</time>
      </trkpt>
      <trkpt lat="44.5749520" lon="6.9614710">
        <ele>1960.2</ele>
        <time>2017-07-24T09:54:41Z</time>
      </trkpt>
      <trkpt lat="44.5750060" lon="6.9616910">
        <ele>1958.6</ele>
        <time>2017-07-24T09:54:43Z</time>
      </trkpt>
      <trkpt lat="44.5750270" lon="6.9618100">
        <ele>1958.0</ele>
        <time>2017-07-24T09:54:44Z</time>
      </trkpt>
      <trkpt lat="44.5750330" lon="6.9619450">
        <ele>1957.2</ele>
        <time>2017-07-24T09:54:45Z</time>
      </trkpt>
      <trkpt lat="44.5750690" lon="6.9621790">
        <ele>1956.2</ele>
        <time>2017-07-24T09:54:47Z</time>
      </trkpt>
      <trkpt lat="44.5750710" lon="6.9622970">
        <ele>1955.8</ele>
        <time>2017-07-24T09:54:48Z</time>
      </trkpt>
      <trkpt lat="44.5750570" lon="6.9624380">
        <ele>1955.0</ele>
        <time>2017-07-24T09:54:49Z</time>
      </trkpt>
      <trkpt lat="44.5750470" lon="6.9625890">
        <ele>1954.0</ele>
        <time>2017-07-24T09:54:50Z</time>
      </trkpt>
      <trkpt lat="44.5750510" lon="6.9628670">
        <ele>1952.6</ele>
        <time>2017-07-24T09:54:52Z</time>
      </trkpt>
      <trkpt lat="44.5751000" lon="6.9631380">
        <ele>1951.0</ele>
        <time>2017-07-24T09:54:54Z</time>
      </trkpt>
      <trkpt lat="44.5751330" lon="6.9632800">
        <ele>1949.8</ele>
        <time>2017-07-24T09:54:55Z</time>
      </trkpt>
      <trkpt lat="44.5752090" lon="6.9635810">
        <ele>1947.8</ele>
        <time>2017-07-24T09:54:57Z</time>
      </trkpt>
      <trkpt lat="44.5752840" lon="6.9638760">
        <ele>1946.2</ele>
        <time>2017-07-24T09:54:59Z</time>
      </trkpt>
      <trkpt lat="44.5753340" lon="6.9641730">
        <ele>1945.2</ele>
        <time>2017-07-24T09:55:01Z</time>
      </trkpt>
      <trkpt lat="44.5753550" lon="6.9644600">
        <ele>1943.8</ele>
        <time>2017-07-24T09:55:03Z</time>
      </trkpt>
      <trkpt lat="44.5753600" lon="6.9646040">
        <ele>1942.6</ele>
        <time>2017-07-24T09:55:04Z</time>
      </trkpt>
      <trkpt lat="44.5753560" lon="6.9648840">
        <ele>1940.8</ele>
        <time>2017-07-24T09:55:06Z</time>
      </trkpt>
      <trkpt lat="44.5753500" lon="6.9650200">
        <ele>1940.2</ele>
        <time>2017-07-24T09:55:07Z</time>
      </trkpt>
      <trkpt lat="44.5753500" lon="6.9651530">
        <ele>1939.6</ele>
        <time>2017-07-24T09:55:08Z</time>
      </trkpt>
      <trkpt lat="44.5753560" lon="6.9654110">
        <ele>1938.0</ele>
        <time>2017-07-24T09:55:10Z</time>
      </trkpt>
      <trkpt lat="44.5753700" lon="6.9655240">
        <ele>1937.2</ele>
        <time>2017-07-24T09:55:11Z</time>
      </trkpt>
      <trkpt lat="44.5753860" lon="6.9656270">
        <ele>1936.2</ele>
        <time>2017-07-24T09:55:12Z</time>
      </trkpt>
      <trkpt lat="44.5754280" lon="6.9658070">
        <ele>1934.4</ele>
        <time>2017-07-24T09:55:14Z</time>
      </trkpt>
      <trkpt lat="44.5754380" lon="6.9660040">
        <ele>1932.4</ele>
        <time>2017-07-24T09:55:16Z</time>
      </trkpt>
      <trkpt lat="44.5754200" lon="6.9661890">
        <ele>1930.2</ele>
        <time>2017-07-24T09:55:18Z</time>
      </trkpt>
      <trkpt lat="44.5754090" lon="6.9662730">
        <ele>1929.2</ele>
        <time>2017-07-24T09:55:19Z</time>
      </trkpt>
      <trkpt lat="44.5753860" lon="6.9663560">
        <ele>1926.8</ele>
        <time>2017-07-24T09:55:20Z</time>
      </trkpt>
      <trkpt lat="44.5753200" lon="6.9665040">
        <ele>1924.8</ele>
        <time>2017-07-24T09:55:22Z</time>
      </trkpt>
      <trkpt lat="44.5752900" lon="6.9666760">
        <ele>1923.0</ele>
        <time>2017-07-24T09:55:24Z</time>
      </trkpt>
      <trkpt lat="44.5752720" lon="6.9668170">
        <ele>1921.4</ele>
        <time>2017-07-24T09:55:26Z</time>
      </trkpt>
      <trkpt lat="44.5752460" lon="6.9668840">
        <ele>1920.2</ele>
        <time>2017-07-24T09:55:27Z</time>
      </trkpt>
      <trkpt lat="44.5751850" lon="6.9669480">
        <ele>1919.0</ele>
        <time>2017-07-24T09:55:28Z</time>
      </trkpt>
      <trkpt lat="44.5751140" lon="6.9670190">
        <ele>1918.0</ele>
        <time>2017-07-24T09:55:29Z</time>
      </trkpt>
      <trkpt lat="44.5750490" lon="6.9670980">
        <ele>1917.0</ele>
        <time>2017-07-24T09:55:30Z</time>
      </trkpt>
      <trkpt lat="44.5749920" lon="6.9671820">
        <ele>1915.8</ele>
        <time>2017-07-24T09:55:31Z</time>
      </trkpt>
      <trkpt lat="44.5749340" lon="6.9672730">
        <ele>1914.8</ele>
        <time>2017-07-24T09:55:32Z</time>
      </trkpt>
      <trkpt lat="44.5748360" lon="6.9675020">
        <ele>1913.4</ele>
        <time>2017-07-24T09:55:34Z</time>
      </trkpt>
      <trkpt lat="44.5747870" lon="6.9676340">
        <ele>1912.2</ele>
        <time>2017-07-24T09:55:35Z</time>
      </trkpt>
      <trkpt lat="44.5746950" lon="6.9679130">
        <ele>1910.2</ele>
        <time>2017-07-24T09:55:37Z</time>
      </trkpt>
      <trkpt lat="44.5746070" lon="6.9682120">
        <ele>1908.4</ele>
        <time>2017-07-24T09:55:39Z</time>
      </trkpt>
      <trkpt lat="44.5745620" lon="6.9683640">
        <ele>1907.6</ele>
        <time>2017-07-24T09:55:40Z</time>
      </trkpt>
      <trkpt lat="44.5745210" lon="6.9685150">
        <ele>1906.4</ele>
        <time>2017-07-24T09:55:41Z</time>
      </trkpt>
      <trkpt lat="44.5744840" lon="6.9686620">
        <ele>1905.2</ele>
        <time>2017-07-24T09:55:42Z</time>
      </trkpt>
      <trkpt lat="44.5744200" lon="6.9689370">
        <ele>1902.4</ele>
        <time>2017-07-24T09:55:44Z</time>
      </trkpt>
      <trkpt lat="44.5743860" lon="6.9690620">
        <ele>1901.2</ele>
        <time>2017-07-24T09:55:45Z</time>
      </trkpt>
      <trkpt lat="44.5743540" lon="6.9691750">
        <ele>1899.8</ele>
        <time>2017-07-24T09:55:46Z</time>
      </trkpt>
      <trkpt lat="44.5743180" lon="6.9692770">
        <ele>1898.6</ele>
        <time>2017-07-24T09:55:47Z</time>
      </trkpt>
      <trkpt lat="44.5742740" lon="6.9693640">
        <ele>1897.4</ele>
        <time>2017-07-24T09:55:48Z</time>
      </trkpt>
      <trkpt lat="44.5742210" lon="6.9694340">
        <ele>1896.2</ele>
        <time>2017-07-24T09:55:49Z</time>
      </trkpt>
      <trkpt lat="44.5741120" lon="6.9695750">
        <ele>1894.2</ele>
        <time>2017-07-24T09:55:51Z</time>
      </trkpt>
      <trkpt lat="44.5740570" lon="6.9696500">
        <ele>1893.0</ele>
        <time>2017-07-24T09:55:52Z</time>
      </trkpt>
      <trkpt lat="44.5740140" lon="6.9697550">
        <ele>1891.8</ele>
        <time>2017-07-24T09:55:53Z</time>
      </trkpt>
      <trkpt lat="44.5739720" lon="6.9698700">
        <ele>1890.8</ele>
        <time>2017-07-24T09:55:54Z</time>
      </trkpt>
      <trkpt lat="44.5739300" lon="6.9699920">
        <ele>1889.6</ele>
        <time>2017-07-24T09:55:55Z</time>
      </trkpt>
      <trkpt lat="44.5738420" lon="6.9702410">
        <ele>1887.4</ele>
        <time>2017-07-24T09:55:57Z</time>
      </trkpt>
      <trkpt lat="44.5737970" lon="6.9703650">
        <ele>1886.2</ele>
        <time>2017-07-24T09:55:58Z</time>
      </trkpt>
      <trkpt lat="44.5737610" lon="6.9704750">
        <ele>1884.8</ele>
        <time>2017-07-24T09:55:59Z</time>
      </trkpt>
      <trkpt lat="44.5737310" lon="6.9705810">
        <ele>1883.4</ele>
        <time>2017-07-24T09:56:00Z</time>
      </trkpt>
      <trkpt lat="44.5737120" lon="6.9706860">
        <ele>1882.2</ele>
        <time>2017-07-24T09:56:01Z</time>
      </trkpt>
      <trkpt lat="44.5737050" lon="6.9707970">
        <ele>1881.0</ele>
        <time>2017-07-24T09:56:02Z</time>
      </trkpt>
      <trkpt lat="44.5737090" lon="6.9709130">
        <ele>1880.0</ele>
        <time>2017-07-24T09:56:03Z</time>
      </trkpt>
      <trkpt lat="44.5737190" lon="6.9710340">
        <ele>1878.8</ele>
        <time>2017-07-24T09:56:04Z</time>
      </trkpt>
      <trkpt lat="44.5737310" lon="6.9711520">
        <ele>1877.6</ele>
        <time>2017-07-24T09:56:05Z</time>
      </trkpt>
      <trkpt lat="44.5737420" lon="6.9712690">
        <ele>1876.2</ele>
        <time>2017-07-24T09:56:06Z</time>
      </trkpt>
      <trkpt lat="44.5737550" lon="6.9713700">
        <ele>1874.8</ele>
        <time>2017-07-24T09:56:07Z</time>
      </trkpt>
      <trkpt lat="44.5737610" lon="6.9714630">
        <ele>1872.2</ele>
        <time>2017-07-24T09:56:08Z</time>
      </trkpt>
      <trkpt lat="44.5737660" lon="6.9715600">
        <ele>1871.0</ele>
        <time>2017-07-24T09:56:09Z</time>
      </trkpt>
      <trkpt lat="44.5737670" lon="6.9716620">
        <ele>1869.6</ele>
        <time>2017-07-24T09:56:10Z</time>
      </trkpt>
      <trkpt lat="44.5737670" lon="6.9717610">
        <ele>1868.2</ele>
        <time>2017-07-24T09:56:11Z</time>
      </trkpt>
      <trkpt lat="44.5737670" lon="6.9718640">
        <ele>1866.8</ele>
        <time>2017-07-24T09:56:12Z</time>
      </trkpt>
      <trkpt lat="44.5737650" lon="6.9719720">
        <ele>1865.0</ele>
        <time>2017-07-24T09:56:13Z</time>
      </trkpt>
      <trkpt lat="44.5737590" lon="6.9720850">
        <ele>1863.4</ele>
        <time>2017-07-24T09:56:14Z</time>
      </trkpt>
      <trkpt lat="44.5737450" lon="6.9721920">
        <ele>1861.6</ele>
        <time>2017-07-24T09:56:15Z</time>
      </trkpt>
      <trkpt lat="44.5737290" lon="6.9722920">
        <ele>1859.6</ele>
        <time>2017-07-24T09:56:16Z</time>
      </trkpt>
      <trkpt lat="44.5737120" lon="6.9723930">
        <ele>1858.2</ele>
        <time>2017-07-24T09:56:17Z</time>
      </trkpt>
      <trkpt lat="44.5736910" lon="6.9724970">
        <ele>1856.8</ele>
        <time>2017-07-24T09:56:18Z</time>
      </trkpt>
      <trkpt lat="44.5736330" lon="6.9726050">
        <ele>1855.6</ele>
        <time>2017-07-24T09:56:19Z</time>
      </trkpt>
      <trkpt lat="44.5735690" lon="6.9727200">
        <ele>1853.4</ele>
        <time>2017-07-24T09:56:20Z</time>
      </trkpt>
      <trkpt lat="44.5734990" lon="6.9728380">
        <ele>1852.0</ele>
        <time>2017-07-24T09:56:21Z</time>
      </trkpt>
      <trkpt lat="44.5734380" lon="6.9729550">
        <ele>1850.6</ele>
        <time>2017-07-24T09:56:22Z</time>
      </trkpt>
      <trkpt lat="44.5733860" lon="6.9730690">
        <ele>1849.4</ele>
        <time>2017-07-24T09:56:23Z</time>
      </trkpt>
      <trkpt lat="44.5733540" lon="6.9731840">
        <ele>1847.6</ele>
        <time>2017-07-24T09:56:24Z</time>
      </trkpt>
      <trkpt lat="44.5733610" lon="6.9732790">
        <ele>1846.4</ele>
        <time>2017-07-24T09:56:25Z</time>
      </trkpt>
      <trkpt lat="44.5733870" lon="6.9733740">
        <ele>1845.2</ele>
        <time>2017-07-24T09:56:26Z</time>
      </trkpt>
      <trkpt lat="44.5734060" lon="6.9734770">
        <ele>1844.2</ele>
        <time>2017-07-24T09:56:27Z</time>
      </trkpt>
      <trkpt lat="44.5734160" lon="6.9735840">
        <ele>1843.2</ele>
        <time>2017-07-24T09:56:28Z</time>
      </trkpt>
      <trkpt lat="44.5734230" lon="6.9736870">
        <ele>1842.2</ele>
        <time>2017-07-24T09:56:29Z</time>
      </trkpt>
      <trkpt lat="44.5734300" lon="6.9737910">
        <ele>1841.4</ele>
        <time>2017-07-24T09:56:30Z</time>
      </trkpt>
      <trkpt lat="44.5734490" lon="6.9739920">
        <ele>1839.6</ele>
        <time>2017-07-24T09:56:32Z</time>
      </trkpt>
      <trkpt lat="44.5734920" lon="6.9742260">
        <ele>1837.8</ele>
        <time>2017-07-24T09:56:34Z</time>
      </trkpt>
      <trkpt lat="44.5735680" lon="6.9744830">
        <ele>1836.4</ele>
        <time>2017-07-24T09:56:36Z</time>
      </trkpt>
      <trkpt lat="44.5736170" lon="6.9746270">
        <ele>1835.8</ele>
        <time>2017-07-24T09:56:37Z</time>
      </trkpt>
      <trkpt lat="44.5736710" lon="6.9747720">
        <ele>1834.6</ele>
        <time>2017-07-24T09:56:38Z</time>
      </trkpt>
      <trkpt lat="44.5737840" lon="6.9750570">
        <ele>1833.0</ele>
        <time>2017-07-24T09:56:40Z</time>
      </trkpt>
      <trkpt lat="44.5738960" lon="6.9753550">
        <ele>1831.6</ele>
        <time>2017-07-24T09:56:42Z</time>
      </trkpt>
      <trkpt lat="44.5739810" lon="6.9756630">
        <ele>1829.8</ele>
        <time>2017-07-24T09:56:44Z</time>
      </trkpt>
      <trkpt lat="44.5740510" lon="6.9759440">
        <ele>1828.2</ele>
        <time>2017-07-24T09:56:46Z</time>
      </trkpt>
      <trkpt lat="44.5741130" lon="6.9761610">
        <ele>1826.4</ele>
        <time>2017-07-24T09:56:48Z</time>
      </trkpt>
      <trkpt lat="44.5741820" lon="6.9763700">
        <ele>1825.2</ele>
        <time>2017-07-24T09:56:50Z</time>
      </trkpt>
      <trkpt lat="44.5742220" lon="6.9765430">
        <ele>1823.8</ele>
        <time>2017-07-24T09:56:52Z</time>
      </trkpt>
      <trkpt lat="44.5742430" lon="6.9766160">
        <ele>1822.8</ele>
        <time>2017-07-24T09:56:53Z</time>
      </trkpt>
      <trkpt lat="44.5742590" lon="6.9766800">
        <ele>1822.2</ele>
        <time>2017-07-24T09:56:54Z</time>
      </trkpt>
      <trkpt lat="44.5741770" lon="6.9766400">
        <ele>1813.2</ele>
        <time>2017-07-24T10:02:32Z</time>
      </trkpt>
      <trkpt lat="44.5742270" lon="6.9766910">
        <ele>1813.2</ele>
        <time>2017-07-24T10:02:35Z</time>
      </trkpt>
      <trkpt lat="44.5742740" lon="6.9767730">
        <ele>1812.6</ele>
        <time>2017-07-24T10:02:37Z</time>
      </trkpt>
      <trkpt lat="44.5743010" lon="6.9768190">
        <ele>1812.4</ele>
        <time>2017-07-24T10:02:38Z</time>
      </trkpt>
      <trkpt lat="44.5743290" lon="6.9768680">
        <ele>1812.0</ele>
        <time>2017-07-24T10:02:39Z</time>
      </trkpt>
      <trkpt lat="44.5744690" lon="6.9771060">
        <ele>1811.4</ele>
        <time>2017-07-24T10:02:43Z</time>
      </trkpt>
      <trkpt lat="44.5745730" lon="6.9773330">
        <ele>1811.0</ele>
        <time>2017-07-24T10:02:46Z</time>
      </trkpt>
      <trkpt lat="44.5746110" lon="6.9775280">
        <ele>1811.0</ele>
        <time>2017-07-24T10:02:48Z</time>
      </trkpt>
      <trkpt lat="44.5746020" lon="6.9778630">
        <ele>1811.2</ele>
        <time>2017-07-24T10:02:51Z</time>
      </trkpt>
      <trkpt lat="44.5745890" lon="6.9779840">
        <ele>1811.0</ele>
        <time>2017-07-24T10:02:52Z</time>
      </trkpt>
      <trkpt lat="44.5745670" lon="6.9781060">
        <ele>1810.6</ele>
        <time>2017-07-24T10:02:53Z</time>
      </trkpt>
      <trkpt lat="44.5745190" lon="6.9783530">
        <ele>1809.8</ele>
        <time>2017-07-24T10:02:55Z</time>
      </trkpt>
      <trkpt lat="44.5744900" lon="6.9784770">
        <ele>1809.4</ele>
        <time>2017-07-24T10:02:56Z</time>
      </trkpt>
      <trkpt lat="44.5743980" lon="6.9788650">
        <ele>1808.6</ele>
        <time>2017-07-24T10:02:59Z</time>
      </trkpt>
      <trkpt lat="44.5742940" lon="6.9794320">
        <ele>1808.2</ele>
        <time>2017-07-24T10:03:03Z</time>
      </trkpt>
      <trkpt lat="44.5742470" lon="6.9797260">
        <ele>1808.2</ele>
        <time>2017-07-24T10:03:05Z</time>
      </trkpt>
      <trkpt lat="44.5742090" lon="6.9800210">
        <ele>1807.6</ele>
        <time>2017-07-24T10:03:07Z</time>
      </trkpt>
      <trkpt lat="44.5741850" lon="6.9804500">
        <ele>1807.2</ele>
        <time>2017-07-24T10:03:10Z</time>
      </trkpt>
      <trkpt lat="44.5741750" lon="6.9807310">
        <ele>1806.4</ele>
        <time>2017-07-24T10:03:12Z</time>
      </trkpt>
      <trkpt lat="44.5741770" lon="6.9811580">
        <ele>1805.4</ele>
        <time>2017-07-24T10:03:15Z</time>
      </trkpt>
      <trkpt lat="44.5741750" lon="6.9817300">
        <ele>1804.0</ele>
        <time>2017-07-24T10:03:19Z</time>
      </trkpt>
      <trkpt lat="44.5741750" lon="6.9818760">
        <ele>1803.2</ele>
        <time>2017-07-24T10:03:20Z</time>
      </trkpt>
      <trkpt lat="44.5741740" lon="6.9820220">
        <ele>1802.8</ele>
        <time>2017-07-24T10:03:21Z</time>
      </trkpt>
      <trkpt lat="44.5741680" lon="6.9824700">
        <ele>1801.4</ele>
        <time>2017-07-24T10:03:24Z</time>
      </trkpt>
      <trkpt lat="44.5741370" lon="6.9829070">
        <ele>1800.6</ele>
        <time>2017-07-24T10:03:27Z</time>
      </trkpt>
      <trkpt lat="44.5741230" lon="6.9830490">
        <ele>1800.4</ele>
        <time>2017-07-24T10:03:28Z</time>
      </trkpt>
      <trkpt lat="44.5740810" lon="6.9833300">
        <ele>1799.8</ele>
        <time>2017-07-24T10:03:30Z</time>
      </trkpt>
      <trkpt lat="44.5740190" lon="6.9836070">
        <ele>1799.0</ele>
        <time>2017-07-24T10:03:32Z</time>
      </trkpt>
      <trkpt lat="44.5739830" lon="6.9837430">
        <ele>1798.8</ele>
        <time>2017-07-24T10:03:33Z</time>
      </trkpt>
      <trkpt lat="44.5739030" lon="6.9840080">
        <ele>1797.8</ele>
        <time>2017-07-24T10:03:35Z</time>
      </trkpt>
      <trkpt lat="44.5738010" lon="6.9844090">
        <ele>1796.8</ele>
        <time>2017-07-24T10:03:38Z</time>
      </trkpt>
      <trkpt lat="44.5737350" lon="6.9846820">
        <ele>1795.6</ele>
        <time>2017-07-24T10:03:40Z</time>
      </trkpt>
      <trkpt lat="44.5736570" lon="6.9851070">
        <ele>1794.4</ele>
        <time>2017-07-24T10:03:43Z</time>
      </trkpt>
      <trkpt lat="44.5736390" lon="6.9852510">
        <ele>1793.2</ele>
        <time>2017-07-24T10:03:44Z</time>
      </trkpt>
      <trkpt lat="44.5736110" lon="6.9855420">
        <ele>1792.0</ele>
        <time>2017-07-24T10:03:46Z</time>
      </trkpt>
      <trkpt lat="44.5735910" lon="6.9858320">
        <ele>1790.6</ele>
        <time>2017-07-24T10:03:48Z</time>
      </trkpt>
      <trkpt lat="44.5735770" lon="6.9861250">
        <ele>1789.4</ele>
        <time>2017-07-24T10:03:50Z</time>
      </trkpt>
      <trkpt lat="44.5735700" lon="6.9864210">
        <ele>1788.0</ele>
        <time>2017-07-24T10:03:52Z</time>
      </trkpt>
      <trkpt lat="44.5735560" lon="6.9867170">
        <ele>1786.4</ele>
        <time>2017-07-24T10:03:54Z</time>
      </trkpt>
      <trkpt lat="44.5735370" lon="6.9870210">
        <ele>1785.0</ele>
        <time>2017-07-24T10:03:56Z</time>
      </trkpt>
      <trkpt lat="44.5735090" lon="6.9873230">
        <ele>1783.8</ele>
        <time>2017-07-24T10:03:58Z</time>
      </trkpt>
      <trkpt lat="44.5734690" lon="6.9876250">
        <ele>1782.6</ele>
        <time>2017-07-24T10:04:00Z</time>
      </trkpt>
      <trkpt lat="44.5733940" lon="6.9879160">
        <ele>1781.4</ele>
        <time>2017-07-24T10:04:02Z</time>
      </trkpt>
      <trkpt lat="44.5732900" lon="6.9881910">
        <ele>1780.2</ele>
        <time>2017-07-24T10:04:04Z</time>
      </trkpt>
      <trkpt lat="44.5731890" lon="6.9884510">
        <ele>1778.8</ele>
        <time>2017-07-24T10:04:06Z</time>
      </trkpt>
      <trkpt lat="44.5731140" lon="6.9886770">
        <ele>1777.0</ele>
        <time>2017-07-24T10:04:08Z</time>
      </trkpt>
      <trkpt lat="44.5730900" lon="6.9887900">
        <ele>1776.4</ele>
        <time>2017-07-24T10:04:09Z</time>
      </trkpt>
      <trkpt lat="44.5730980" lon="6.9889100">
        <ele>1775.8</ele>
        <time>2017-07-24T10:04:10Z</time>
      </trkpt>
      <trkpt lat="44.5731310" lon="6.9890240">
        <ele>1775.2</ele>
        <time>2017-07-24T10:04:11Z</time>
      </trkpt>
      <trkpt lat="44.5731830" lon="6.9891440">
        <ele>1774.6</ele>
        <time>2017-07-24T10:04:12Z</time>
      </trkpt>
      <trkpt lat="44.5732410" lon="6.9892650">
        <ele>1773.8</ele>
        <time>2017-07-24T10:04:13Z</time>
      </trkpt>
      <trkpt lat="44.5733210" lon="6.9893820">
        <ele>1772.8</ele>
        <time>2017-07-24T10:04:14Z</time>
      </trkpt>
      <trkpt lat="44.5735310" lon="6.9896200">
        <ele>1771.0</ele>
        <time>2017-07-24T10:04:16Z</time>
      </trkpt>
      <trkpt lat="44.5736390" lon="6.9897440">
        <ele>1770.2</ele>
        <time>2017-07-24T10:04:17Z</time>
      </trkpt>
      <trkpt lat="44.5737390" lon="6.9898730">
        <ele>1769.2</ele>
        <time>2017-07-24T10:04:18Z</time>
      </trkpt>
      <trkpt lat="44.5739360" lon="6.9901380">
        <ele>1767.4</ele>
        <time>2017-07-24T10:04:20Z</time>
      </trkpt>
      <trkpt lat="44.5740090" lon="6.9902850">
        <ele>1766.6</ele>
        <time>2017-07-24T10:04:21Z</time>
      </trkpt>
      <trkpt lat="44.5740520" lon="6.9904460">
        <ele>1765.8</ele>
        <time>2017-07-24T10:04:22Z</time>
      </trkpt>
      <trkpt lat="44.5740650" lon="6.9906140">
        <ele>1765.2</ele>
        <time>2017-07-24T10:04:23Z</time>
      </trkpt>
      <trkpt lat="44.5740560" lon="6.9907800">
        <ele>1764.4</ele>
        <time>2017-07-24T10:04:24Z</time>
      </trkpt>
      <trkpt lat="44.5740190" lon="6.9909370">
        <ele>1763.6</ele>
        <time>2017-07-24T10:04:25Z</time>
      </trkpt>
      <trkpt lat="44.5739690" lon="6.9910860">
        <ele>1762.8</ele>
        <time>2017-07-24T10:04:26Z</time>
      </trkpt>
      <trkpt lat="44.5739070" lon="6.9914030">
        <ele>1761.0</ele>
        <time>2017-07-24T10:04:28Z</time>
      </trkpt>
      <trkpt lat="44.5739400" lon="6.9917430">
        <ele>1759.4</ele>
        <time>2017-07-24T10:04:30Z</time>
      </trkpt>
      <trkpt lat="44.5740400" lon="6.9920750">
        <ele>1757.0</ele>
        <time>2017-07-24T10:04:32Z</time>
      </trkpt>
      <trkpt lat="44.5740980" lon="6.9922360">
        <ele>1756.2</ele>
        <time>2017-07-24T10:04:33Z</time>
      </trkpt>
      <trkpt lat="44.5741540" lon="6.9923960">
        <ele>1755.4</ele>
        <time>2017-07-24T10:04:34Z</time>
      </trkpt>
      <trkpt lat="44.5742700" lon="6.9927120">
        <ele>1754.0</ele>
        <time>2017-07-24T10:04:36Z</time>
      </trkpt>
      <trkpt lat="44.5744020" lon="6.9930060">
        <ele>1752.6</ele>
        <time>2017-07-24T10:04:38Z</time>
      </trkpt>
      <trkpt lat="44.5744750" lon="6.9931400">
        <ele>1751.8</ele>
        <time>2017-07-24T10:04:39Z</time>
      </trkpt>
      <trkpt lat="44.5745430" lon="6.9932740">
        <ele>1751.4</ele>
        <time>2017-07-24T10:04:40Z</time>
      </trkpt>
      <trkpt lat="44.5747360" lon="6.9936590">
        <ele>1749.8</ele>
        <time>2017-07-24T10:04:43Z</time>
      </trkpt>
      <trkpt lat="44.5747890" lon="6.9937930">
        <ele>1749.4</ele>
        <time>2017-07-24T10:04:44Z</time>
      </trkpt>
      <trkpt lat="44.5748800" lon="6.9940530">
        <ele>1748.6</ele>
        <time>2017-07-24T10:04:46Z</time>
      </trkpt>
      <trkpt lat="44.5749320" lon="6.9941750">
        <ele>1748.4</ele>
        <time>2017-07-24T10:04:47Z</time>
      </trkpt>
      <trkpt lat="44.5749960" lon="6.9942810">
        <ele>1748.2</ele>
        <time>2017-07-24T10:04:48Z</time>
      </trkpt>
      <trkpt lat="44.5751540" lon="6.9944490">
        <ele>1747.6</ele>
        <time>2017-07-24T10:04:50Z</time>
      </trkpt>
      <trkpt lat="44.5752440" lon="6.9945190">
        <ele>1747.2</ele>
        <time>2017-07-24T10:04:51Z</time>
      </trkpt>
      <trkpt lat="44.5753360" lon="6.9945900">
        <ele>1746.8</ele>
        <time>2017-07-24T10:04:52Z</time>
      </trkpt>
      <trkpt lat="44.5754260" lon="6.9946610">
        <ele>1746.4</ele>
        <time>2017-07-24T10:04:53Z</time>
      </trkpt>
      <trkpt lat="44.5757800" lon="6.9949430">
        <ele>1745.2</ele>
        <time>2017-07-24T10:04:57Z</time>
      </trkpt>
      <trkpt lat="44.5760430" lon="6.9951440">
        <ele>1744.4</ele>
        <time>2017-07-24T10:05:00Z</time>
      </trkpt>
      <trkpt lat="44.5761260" lon="6.9952180">
        <ele>1744.2</ele>
        <time>2017-07-24T10:05:01Z</time>
      </trkpt>
      <trkpt lat="44.5763640" lon="6.9954740">
        <ele>1743.4</ele>
        <time>2017-07-24T10:05:04Z</time>
      </trkpt>
      <trkpt lat="44.5764260" lon="6.9955900">
        <ele>1743.0</ele>
        <time>2017-07-24T10:05:05Z</time>
      </trkpt>
      <trkpt lat="44.5765860" lon="6.9959720">
        <ele>1741.8</ele>
        <time>2017-07-24T10:05:08Z</time>
      </trkpt>
      <trkpt lat="44.5766420" lon="6.9961040">
        <ele>1741.8</ele>
        <time>2017-07-24T10:05:09Z</time>
      </trkpt>
      <trkpt lat="44.5766780" lon="6.9962510">
        <ele>1741.6</ele>
        <time>2017-07-24T10:05:10Z</time>
      </trkpt>
      <trkpt lat="44.5766870" lon="6.9965770">
        <ele>1740.6</ele>
        <time>2017-07-24T10:05:12Z</time>
      </trkpt>
      <trkpt lat="44.5766680" lon="6.9969200">
        <ele>1739.4</ele>
        <time>2017-07-24T10:05:14Z</time>
      </trkpt>
      <trkpt lat="44.5766860" lon="6.9972720">
        <ele>1738.6</ele>
        <time>2017-07-24T10:05:16Z</time>
      </trkpt>
      <trkpt lat="44.5767330" lon="6.9974350">
        <ele>1738.0</ele>
        <time>2017-07-24T10:05:17Z</time>
      </trkpt>
      <trkpt lat="44.5767890" lon="6.9975900">
        <ele>1737.6</ele>
        <time>2017-07-24T10:05:18Z</time>
      </trkpt>
      <trkpt lat="44.5768570" lon="6.9977450">
        <ele>1737.0</ele>
        <time>2017-07-24T10:05:19Z</time>
      </trkpt>
      <trkpt lat="44.5769380" lon="6.9978890">
        <ele>1735.8</ele>
        <time>2017-07-24T10:05:20Z</time>
      </trkpt>
      <trkpt lat="44.5770200" lon="6.9980330">
        <ele>1735.2</ele>
        <time>2017-07-24T10:05:21Z</time>
      </trkpt>
      <trkpt lat="44.5771100" lon="6.9981640">
        <ele>1734.8</ele>
        <time>2017-07-24T10:05:22Z</time>
      </trkpt>
      <trkpt lat="44.5772920" lon="6.9983960">
        <ele>1733.6</ele>
        <time>2017-07-24T10:05:24Z</time>
      </trkpt>
      <trkpt lat="44.5773780" lon="6.9985020">
        <ele>1733.2</ele>
        <time>2017-07-24T10:05:25Z</time>
      </trkpt>
      <trkpt lat="44.5775290" lon="6.9987160">
        <ele>1732.6</ele>
        <time>2017-07-24T10:05:27Z</time>
      </trkpt>
      <trkpt lat="44.5776810" lon="6.9988980">
        <ele>1732.2</ele>
        <time>2017-07-24T10:05:29Z</time>
      </trkpt>
      <trkpt lat="44.5779740" lon="6.9990490">
        <ele>1731.2</ele>
        <time>2017-07-24T10:05:32Z</time>
      </trkpt>
      <trkpt lat="44.5782890" lon="6.9992760">
        <ele>1730.0</ele>
        <time>2017-07-24T10:05:35Z</time>
      </trkpt>
      <trkpt lat="44.5783810" lon="6.9993960">
        <ele>1729.2</ele>
        <time>2017-07-24T10:05:36Z</time>
      </trkpt>
      <trkpt lat="44.5784460" lon="6.9995600">
        <ele>1728.4</ele>
        <time>2017-07-24T10:05:37Z</time>
      </trkpt>
      <trkpt lat="44.5785110" lon="6.9999470">
        <ele>1726.4</ele>
        <time>2017-07-24T10:05:39Z</time>
      </trkpt>
      <trkpt lat="44.5785190" lon="7.0001500">
        <ele>1725.4</ele>
        <time>2017-07-24T10:05:40Z</time>
      </trkpt>
      <trkpt lat="44.5785190" lon="7.0003570">
        <ele>1724.4</ele>
        <time>2017-07-24T10:05:41Z</time>
      </trkpt>
      <trkpt lat="44.5785130" lon="7.0005650">
        <ele>1723.6</ele>
        <time>2017-07-24T10:05:43Z</time>
      </trkpt>
      <trkpt lat="44.5785020" lon="7.0009610">
        <ele>1720.6</ele>
        <time>2017-07-24T10:05:45Z</time>
      </trkpt>
      <trkpt lat="44.5785100" lon="7.0011600">
        <ele>1719.6</ele>
        <time>2017-07-24T10:05:46Z</time>
      </trkpt>
      <trkpt lat="44.5785270" lon="7.0013590">
        <ele>1718.4</ele>
        <time>2017-07-24T10:05:47Z</time>
      </trkpt>
      <trkpt lat="44.5785620" lon="7.0015550">
        <ele>1717.4</ele>
        <time>2017-07-24T10:05:48Z</time>
      </trkpt>
      <trkpt lat="44.5786140" lon="7.0017460">
        <ele>1716.4</ele>
        <time>2017-07-24T10:05:49Z</time>
      </trkpt>
      <trkpt lat="44.5786770" lon="7.0019350">
        <ele>1715.6</ele>
        <time>2017-07-24T10:05:50Z</time>
      </trkpt>
      <trkpt lat="44.5787450" lon="7.0021210">
        <ele>1714.4</ele>
        <time>2017-07-24T10:05:51Z</time>
      </trkpt>
      <trkpt lat="44.5788130" lon="7.0023090">
        <ele>1713.4</ele>
        <time>2017-07-24T10:05:52Z</time>
      </trkpt>
      <trkpt lat="44.5788760" lon="7.0025000">
        <ele>1712.2</ele>
        <time>2017-07-24T10:05:53Z</time>
      </trkpt>
      <trkpt lat="44.5789280" lon="7.0027040">
        <ele>1711.2</ele>
        <time>2017-07-24T10:05:54Z</time>
      </trkpt>
      <trkpt lat="44.5789570" lon="7.0029250">
        <ele>1710.2</ele>
        <time>2017-07-24T10:05:55Z</time>
      </trkpt>
      <trkpt lat="44.5789600" lon="7.0031460">
        <ele>1709.2</ele>
        <time>2017-07-24T10:05:56Z</time>
      </trkpt>
      <trkpt lat="44.5789430" lon="7.0033710">
        <ele>1708.2</ele>
        <time>2017-07-24T10:05:57Z</time>
      </trkpt>
      <trkpt lat="44.5789200" lon="7.0035900">
        <ele>1707.0</ele>
        <time>2017-07-24T10:05:58Z</time>
      </trkpt>
      <trkpt lat="44.5788880" lon="7.0038100">
        <ele>1705.8</ele>
        <time>2017-07-24T10:05:59Z</time>
      </trkpt>
      <trkpt lat="44.5788580" lon="7.0040220">
        <ele>1704.6</ele>
        <time>2017-07-24T10:06:00Z</time>
      </trkpt>
      <trkpt lat="44.5788260" lon="7.0042320">
        <ele>1703.4</ele>
        <time>2017-07-24T10:06:01Z</time>
      </trkpt>
      <trkpt lat="44.5787620" lon="7.0046450">
        <ele>1701.4</ele>
        <time>2017-07-24T10:06:03Z</time>
      </trkpt>
      <trkpt lat="44.5787000" lon="7.0050460">
        <ele>1699.4</ele>
        <time>2017-07-24T10:06:05Z</time>
      </trkpt>
      <trkpt lat="44.5786760" lon="7.0052420">
        <ele>1698.4</ele>
        <time>2017-07-24T10:06:06Z</time>
      </trkpt>
      <trkpt lat="44.5786570" lon="7.0054340">
        <ele>1697.2</ele>
        <time>2017-07-24T10:06:07Z</time>
      </trkpt>
      <trkpt lat="44.5786530" lon="7.0056250">
        <ele>1696.2</ele>
        <time>2017-07-24T10:06:08Z</time>
      </trkpt>
      <trkpt lat="44.5786710" lon="7.0058130">
        <ele>1694.4</ele>
        <time>2017-07-24T10:06:09Z</time>
      </trkpt>
      <trkpt lat="44.5787030" lon="7.0059960">
        <ele>1693.2</ele>
        <time>2017-07-24T10:06:10Z</time>
      </trkpt>
      <trkpt lat="44.5787330" lon="7.0061830">
        <ele>1692.0</ele>
        <time>2017-07-24T10:06:11Z</time>
      </trkpt>
      <trkpt lat="44.5787650" lon="7.0063700">
        <ele>1691.0</ele>
        <time>2017-07-24T10:06:12Z</time>
      </trkpt>
      <trkpt lat="44.5788300" lon="7.0067480">
        <ele>1689.4</ele>
        <time>2017-07-24T10:06:14Z</time>
      </trkpt>
      <trkpt lat="44.5788780" lon="7.0071360">
        <ele>1687.8</ele>
        <time>2017-07-24T10:06:16Z</time>
      </trkpt>
      <trkpt lat="44.5788950" lon="7.0073290">
        <ele>1686.8</ele>
        <time>2017-07-24T10:06:17Z</time>
      </trkpt>
      <trkpt lat="44.5789080" lon="7.0075220">
        <ele>1686.0</ele>
        <time>2017-07-24T10:06:18Z</time>
      </trkpt>
      <trkpt lat="44.5789490" lon="7.0079060">
        <ele>1684.2</ele>
        <time>2017-07-24T10:06:20Z</time>
      </trkpt>
      <trkpt lat="44.5789780" lon="7.0081010">
        <ele>1683.2</ele>
        <time>2017-07-24T10:06:21Z</time>
      </trkpt>
      <trkpt lat="44.5790090" lon="7.0082970">
        <ele>1682.0</ele>
        <time>2017-07-24T10:06:22Z</time>
      </trkpt>
      <trkpt lat="44.5791000" lon="7.0086800">
        <ele>1680.2</ele>
        <time>2017-07-24T10:06:24Z</time>
      </trkpt>
      <trkpt lat="44.5791740" lon="7.0088590">
        <ele>1679.2</ele>
        <time>2017-07-24T10:06:25Z</time>
      </trkpt>
      <trkpt lat="44.5792550" lon="7.0090100">
        <ele>1678.2</ele>
        <time>2017-07-24T10:06:26Z</time>
      </trkpt>
      <trkpt lat="44.5793390" lon="7.0091240">
        <ele>1677.2</ele>
        <time>2017-07-24T10:06:27Z</time>
      </trkpt>
      <trkpt lat="44.5794230" lon="7.0092070">
        <ele>1676.2</ele>
        <time>2017-07-24T10:06:28Z</time>
      </trkpt>
      <trkpt lat="44.5795220" lon="7.0092450">
        <ele>1675.0</ele>
        <time>2017-07-24T10:06:29Z</time>
      </trkpt>
      <trkpt lat="44.5796210" lon="7.0092140">
        <ele>1674.0</ele>
        <time>2017-07-24T10:06:30Z</time>
      </trkpt>
      <trkpt lat="44.5797710" lon="7.0090310">
        <ele>1672.0</ele>
        <time>2017-07-24T10:06:32Z</time>
      </trkpt>
      <trkpt lat="44.5798300" lon="7.0089180">
        <ele>1670.4</ele>
        <time>2017-07-24T10:06:33Z</time>
      </trkpt>
      <trkpt lat="44.5799780" lon="7.0087590">
        <ele>1669.0</ele>
        <time>2017-07-24T10:06:35Z</time>
      </trkpt>
      <trkpt lat="44.5801570" lon="7.0086860">
        <ele>1667.4</ele>
        <time>2017-07-24T10:06:37Z</time>
      </trkpt>
      <trkpt lat="44.5802340" lon="7.0086790">
        <ele>1666.4</ele>
        <time>2017-07-24T10:06:38Z</time>
      </trkpt>
      <trkpt lat="44.5802990" lon="7.0086920">
        <ele>1665.6</ele>
        <time>2017-07-24T10:06:39Z</time>
      </trkpt>
      <trkpt lat="44.5803790" lon="7.0088170">
        <ele>1663.6</ele>
        <time>2017-07-24T10:06:41Z</time>
      </trkpt>
      <trkpt lat="44.5803600" lon="7.0091190">
        <ele>1661.8</ele>
        <time>2017-07-24T10:06:43Z</time>
      </trkpt>
      <trkpt lat="44.5802840" lon="7.0093140">
        <ele>1660.6</ele>
        <time>2017-07-24T10:06:44Z</time>
      </trkpt>
      <trkpt lat="44.5802170" lon="7.0095070">
        <ele>1659.4</ele>
        <time>2017-07-24T10:06:45Z</time>
      </trkpt>
      <trkpt lat="44.5801660" lon="7.0096990">
        <ele>1658.2</ele>
        <time>2017-07-24T10:06:46Z</time>
      </trkpt>
      <trkpt lat="44.5800390" lon="7.0099900">
        <ele>1657.0</ele>
        <time>2017-07-24T10:06:47Z</time>
      </trkpt>
      <trkpt lat="44.5799970" lon="7.0102150">
        <ele>1656.2</ele>
        <time>2017-07-24T10:06:48Z</time>
      </trkpt>
      <trkpt lat="44.5800160" lon="7.0104010">
        <ele>1655.2</ele>
        <time>2017-07-24T10:06:49Z</time>
      </trkpt>
      <trkpt lat="44.5800710" lon="7.0105670">
        <ele>1654.2</ele>
        <time>2017-07-24T10:06:50Z</time>
      </trkpt>
      <trkpt lat="44.5801500" lon="7.0107090">
        <ele>1653.0</ele>
        <time>2017-07-24T10:06:51Z</time>
      </trkpt>
      <trkpt lat="44.5802420" lon="7.0108320">
        <ele>1652.0</ele>
        <time>2017-07-24T10:06:52Z</time>
      </trkpt>
      <trkpt lat="44.5803430" lon="7.0109520">
        <ele>1650.8</ele>
        <time>2017-07-24T10:06:53Z</time>
      </trkpt>
      <trkpt lat="44.5804580" lon="7.0110630">
        <ele>1649.6</ele>
        <time>2017-07-24T10:06:54Z</time>
      </trkpt>
      <trkpt lat="44.5805740" lon="7.0111720">
        <ele>1648.4</ele>
        <time>2017-07-24T10:06:55Z</time>
      </trkpt>
      <trkpt lat="44.5806950" lon="7.0112880">
        <ele>1647.0</ele>
        <time>2017-07-24T10:06:56Z</time>
      </trkpt>
      <trkpt lat="44.5807970" lon="7.0113940">
        <ele>1645.2</ele>
        <time>2017-07-24T10:06:57Z</time>
      </trkpt>
      <trkpt lat="44.5809180" lon="7.0114740">
        <ele>1644.2</ele>
        <time>2017-07-24T10:06:58Z</time>
      </trkpt>
      <trkpt lat="44.5810430" lon="7.0115270">
        <ele>1643.4</ele>
        <time>2017-07-24T10:06:59Z</time>
      </trkpt>
      <trkpt lat="44.5811690" lon="7.0115750">
        <ele>1642.2</ele>
        <time>2017-07-24T10:07:00Z</time>
      </trkpt>
      <trkpt lat="44.5812880" lon="7.0116410">
        <ele>1641.2</ele>
        <time>2017-07-24T10:07:01Z</time>
      </trkpt>
      <trkpt lat="44.5813990" lon="7.0117130">
        <ele>1640.0</ele>
        <time>2017-07-24T10:07:02Z</time>
      </trkpt>
      <trkpt lat="44.5815010" lon="7.0117930">
        <ele>1639.0</ele>
        <time>2017-07-24T10:07:03Z</time>
      </trkpt>
      <trkpt lat="44.5815690" lon="7.0118810">
        <ele>1637.8</ele>
        <time>2017-07-24T10:07:04Z</time>
      </trkpt>
      <trkpt lat="44.5815070" lon="7.0120610">
        <ele>1636.8</ele>
        <time>2017-07-24T10:07:05Z</time>
      </trkpt>
      <trkpt lat="44.5814400" lon="7.0122290">
        <ele>1635.8</ele>
        <time>2017-07-24T10:07:06Z</time>
      </trkpt>
      <trkpt lat="44.5813860" lon="7.0123820">
        <ele>1634.6</ele>
        <time>2017-07-24T10:07:07Z</time>
      </trkpt>
      <trkpt lat="44.5813380" lon="7.0125280">
        <ele>1633.6</ele>
        <time>2017-07-24T10:07:08Z</time>
      </trkpt>
      <trkpt lat="44.5812920" lon="7.0126670">
        <ele>1632.6</ele>
        <time>2017-07-24T10:07:09Z</time>
      </trkpt>
      <trkpt lat="44.5812490" lon="7.0128010">
        <ele>1631.6</ele>
        <time>2017-07-24T10:07:10Z</time>
      </trkpt>
      <trkpt lat="44.5812060" lon="7.0129320">
        <ele>1630.6</ele>
        <time>2017-07-24T10:07:11Z</time>
      </trkpt>
      <trkpt lat="44.5811520" lon="7.0130530">
        <ele>1629.6</ele>
        <time>2017-07-24T10:07:12Z</time>
      </trkpt>
      <trkpt lat="44.5810810" lon="7.0131670">
        <ele>1628.6</ele>
        <time>2017-07-24T10:07:13Z</time>
      </trkpt>
      <trkpt lat="44.5810160" lon="7.0132890">
        <ele>1627.6</ele>
        <time>2017-07-24T10:07:14Z</time>
      </trkpt>
      <trkpt lat="44.5809690" lon="7.0134250">
        <ele>1626.6</ele>
        <time>2017-07-24T10:07:15Z</time>
      </trkpt>
      <trkpt lat="44.5809410" lon="7.0135710">
        <ele>1625.8</ele>
        <time>2017-07-24T10:07:16Z</time>
      </trkpt>
      <trkpt lat="44.5809090" lon="7.0138720">
        <ele>1625.0</ele>
        <time>2017-07-24T10:07:18Z</time>
      </trkpt>
      <trkpt lat="44.5808820" lon="7.0140140">
        <ele>1624.4</ele>
        <time>2017-07-24T10:07:19Z</time>
      </trkpt>
      <trkpt lat="44.5808150" lon="7.0142900">
        <ele>1622.4</ele>
        <time>2017-07-24T10:07:21Z</time>
      </trkpt>
      <trkpt lat="44.5807060" lon="7.0145400">
        <ele>1621.0</ele>
        <time>2017-07-24T10:07:23Z</time>
      </trkpt>
      <trkpt lat="44.5806550" lon="7.0146560">
        <ele>1620.4</ele>
        <time>2017-07-24T10:07:24Z</time>
      </trkpt>
      <trkpt lat="44.5805520" lon="7.0148820">
        <ele>1619.6</ele>
        <time>2017-07-24T10:07:26Z</time>
      </trkpt>
      <trkpt lat="44.5805260" lon="7.0150010">
        <ele>1619.0</ele>
        <time>2017-07-24T10:07:27Z</time>
      </trkpt>
      <trkpt lat="44.5805200" lon="7.0151180">
        <ele>1618.6</ele>
        <time>2017-07-24T10:07:28Z</time>
      </trkpt>
      <trkpt lat="44.5805260" lon="7.0152380">
        <ele>1618.4</ele>
        <time>2017-07-24T10:07:29Z</time>
      </trkpt>
      <trkpt lat="44.5805700" lon="7.0154910">
        <ele>1618.2</ele>
        <time>2017-07-24T10:07:31Z</time>
      </trkpt>
      <trkpt lat="44.5806230" lon="7.0157740">
        <ele>1617.4</ele>
        <time>2017-07-24T10:07:33Z</time>
      </trkpt>
      <trkpt lat="44.5806380" lon="7.0159250">
        <ele>1617.0</ele>
        <time>2017-07-24T10:07:34Z</time>
      </trkpt>
      <trkpt lat="44.5807270" lon="7.0163360">
        <ele>1616.0</ele>
        <time>2017-07-24T10:07:37Z</time>
      </trkpt>
      <trkpt lat="44.5807910" lon="7.0164510">
        <ele>1615.6</ele>
        <time>2017-07-24T10:07:38Z</time>
      </trkpt>
      <trkpt lat="44.5810420" lon="7.0166810">
        <ele>1614.8</ele>
        <time>2017-07-24T10:07:41Z</time>
      </trkpt>
      <trkpt lat="44.5811170" lon="7.0167660">
        <ele>1614.6</ele>
        <time>2017-07-24T10:07:42Z</time>
      </trkpt>
      <trkpt lat="44.5812400" lon="7.0169770">
        <ele>1614.2</ele>
        <time>2017-07-24T10:07:44Z</time>
      </trkpt>
      <trkpt lat="44.5812870" lon="7.0170880">
        <ele>1613.4</ele>
        <time>2017-07-24T10:07:45Z</time>
      </trkpt>
      <trkpt lat="44.5813550" lon="7.0173510">
        <ele>1613.0</ele>
        <time>2017-07-24T10:07:47Z</time>
      </trkpt>
      <trkpt lat="44.5813170" lon="7.0177040">
        <ele>1612.0</ele>
        <time>2017-07-24T10:07:49Z</time>
      </trkpt>
      <trkpt lat="44.5812820" lon="7.0178800">
        <ele>1611.6</ele>
        <time>2017-07-24T10:07:50Z</time>
      </trkpt>
      <trkpt lat="44.5812380" lon="7.0180480">
        <ele>1611.0</ele>
        <time>2017-07-24T10:07:51Z</time>
      </trkpt>
      <trkpt lat="44.5811910" lon="7.0182070">
        <ele>1610.6</ele>
        <time>2017-07-24T10:07:52Z</time>
      </trkpt>
      <trkpt lat="44.5811190" lon="7.0185360">
        <ele>1609.8</ele>
        <time>2017-07-24T10:07:54Z</time>
      </trkpt>
      <trkpt lat="44.5810980" lon="7.0188830">
        <ele>1608.8</ele>
        <time>2017-07-24T10:07:56Z</time>
      </trkpt>
      <trkpt lat="44.5811070" lon="7.0190490">
        <ele>1608.2</ele>
        <time>2017-07-24T10:07:57Z</time>
      </trkpt>
      <trkpt lat="44.5811750" lon="7.0193560">
        <ele>1607.0</ele>
        <time>2017-07-24T10:07:59Z</time>
      </trkpt>
      <trkpt lat="44.5813270" lon="7.0196140">
        <ele>1605.4</ele>
        <time>2017-07-24T10:08:01Z</time>
      </trkpt>
      <trkpt lat="44.5814170" lon="7.0197190">
        <ele>1604.6</ele>
        <time>2017-07-24T10:08:02Z</time>
      </trkpt>
      <trkpt lat="44.5815080" lon="7.0198080">
        <ele>1604.2</ele>
        <time>2017-07-24T10:08:03Z</time>
      </trkpt>
      <trkpt lat="44.5816810" lon="7.0199420">
        <ele>1603.0</ele>
        <time>2017-07-24T10:08:05Z</time>
      </trkpt>
      <trkpt lat="44.5818440" lon="7.0200460">
        <ele>1601.4</ele>
        <time>2017-07-24T10:08:07Z</time>
      </trkpt>
      <trkpt lat="44.5819220" lon="7.0200970">
        <ele>1600.4</ele>
        <time>2017-07-24T10:08:08Z</time>
      </trkpt>
      <trkpt lat="44.5820250" lon="7.0201830">
        <ele>1598.0</ele>
        <time>2017-07-24T10:08:10Z</time>
      </trkpt>
      <trkpt lat="44.5820720" lon="7.0202100">
        <ele>1597.2</ele>
        <time>2017-07-24T10:08:11Z</time>
      </trkpt>
      <trkpt lat="44.5821100" lon="7.0202060">
        <ele>1596.4</ele>
        <time>2017-07-24T10:08:12Z</time>
      </trkpt>
      <trkpt lat="44.5821490" lon="7.0201780">
        <ele>1595.6</ele>
        <time>2017-07-24T10:08:13Z</time>
      </trkpt>
      <trkpt lat="44.5821880" lon="7.0201540">
        <ele>1595.2</ele>
        <time>2017-07-24T10:08:14Z</time>
      </trkpt>
      <trkpt lat="44.5822330" lon="7.0201450">
        <ele>1595.0</ele>
        <time>2017-07-24T10:08:15Z</time>
      </trkpt>
      <trkpt lat="44.5823320" lon="7.0201270">
        <ele>1594.4</ele>
        <time>2017-07-24T10:08:17Z</time>
      </trkpt>
      <trkpt lat="44.5823830" lon="7.0201260">
        <ele>1594.2</ele>
        <time>2017-07-24T10:08:18Z</time>
      </trkpt>
      <trkpt lat="44.5824320" lon="7.0201200">
        <ele>1593.8</ele>
        <time>2017-07-24T10:08:19Z</time>
      </trkpt>
      <trkpt lat="44.5825140" lon="7.0201060">
        <ele>1593.6</ele>
        <time>2017-07-24T10:08:21Z</time>
      </trkpt>
      <trkpt lat="44.5825860" lon="7.0200980">
        <ele>1593.6</ele>
        <time>2017-07-24T10:08:23Z</time>
      </trkpt>
      <trkpt lat="44.5826800" lon="7.0200850">
        <ele>1593.6</ele>
        <time>2017-07-24T10:08:26Z</time>
      </trkpt>
      <trkpt lat="44.5827760" lon="7.0200490">
        <ele>1594.2</ele>
        <time>2017-07-24T10:08:29Z</time>
      </trkpt>
      <trkpt lat="44.5828280" lon="7.0200490">
        <ele>1594.8</ele>
        <time>2017-07-24T10:08:31Z</time>
      </trkpt>
      <trkpt lat="44.5828720" lon="7.0200720">
        <ele>1594.6</ele>
        <time>2017-07-24T10:08:33Z</time>
      </trkpt>
      <trkpt lat="44.5829130" lon="7.0201100">
        <ele>1595.6</ele>
        <time>2017-07-24T10:08:35Z</time>
      </trkpt>
      <trkpt lat="44.5829460" lon="7.0202130">
        <ele>1596.4</ele>
        <time>2017-07-24T10:08:37Z</time>
      </trkpt>
      <trkpt lat="44.5829690" lon="7.0202680">
        <ele>1596.8</ele>
        <time>2017-07-24T10:08:38Z</time>
      </trkpt>
      <trkpt lat="44.5829860" lon="7.0203210">
        <ele>1597.0</ele>
        <time>2017-07-24T10:08:39Z</time>
      </trkpt>
      <trkpt lat="44.5830070" lon="7.0205220">
        <ele>1597.6</ele>
        <time>2017-07-24T10:08:43Z</time>
      </trkpt>
      <trkpt lat="44.5829970" lon="7.0205720">
        <ele>1598.0</ele>
        <time>2017-07-24T10:08:44Z</time>
      </trkpt>
      <trkpt lat="44.5829600" lon="7.0206900">
        <ele>1599.2</ele>
        <time>2017-07-24T10:08:47Z</time>
      </trkpt>
      <trkpt lat="44.5829370" lon="7.0207380">
        <ele>1599.8</ele>
        <time>2017-07-24T10:08:49Z</time>
      </trkpt>
      <trkpt lat="44.5829100" lon="7.0207910">
        <ele>1600.4</ele>
        <time>2017-07-24T10:08:51Z</time>
      </trkpt>
      <trkpt lat="44.5828680" lon="7.0209770">
        <ele>1601.0</ele>
        <time>2017-07-24T10:08:54Z</time>
      </trkpt>
      <trkpt lat="44.5828410" lon="7.0212080">
        <ele>1601.8</ele>
        <time>2017-07-24T10:08:58Z</time>
      </trkpt>
      <trkpt lat="44.5828420" lon="7.0212860">
        <ele>1602.6</ele>
        <time>2017-07-24T10:09:00Z</time>
      </trkpt>
      <trkpt lat="44.5829050" lon="7.0214120">
        <ele>1603.0</ele>
        <time>2017-07-24T10:09:04Z</time>
      </trkpt>
      <trkpt lat="44.5829370" lon="7.0214680">
        <ele>1603.4</ele>
        <time>2017-07-24T10:09:06Z</time>
      </trkpt>
      <trkpt lat="44.5830150" lon="7.0216110">
        <ele>1604.2</ele>
        <time>2017-07-24T10:09:11Z</time>
      </trkpt>
      <trkpt lat="44.5830490" lon="7.0216800">
        <ele>1605.2</ele>
        <time>2017-07-24T10:09:14Z</time>
      </trkpt>
      <trkpt lat="44.5830880" lon="7.0217670">
        <ele>1606.6</ele>
        <time>2017-07-24T10:09:18Z</time>
      </trkpt>
      <trkpt lat="44.5831050" lon="7.0218240">
        <ele>1607.4</ele>
        <time>2017-07-24T10:09:20Z</time>
      </trkpt>
      <trkpt lat="44.5831140" lon="7.0218540">
        <ele>1608.0</ele>
        <time>2017-07-24T10:09:21Z</time>
      </trkpt>
      <trkpt lat="44.5831500" lon="7.0219480">
        <ele>1609.0</ele>
        <time>2017-07-24T10:09:24Z</time>
      </trkpt>
      <trkpt lat="44.5831780" lon="7.0220730">
        <ele>1610.2</ele>
        <time>2017-07-24T10:09:28Z</time>
      </trkpt>
      <trkpt lat="44.5832070" lon="7.0222040">
        <ele>1611.6</ele>
        <time>2017-07-24T10:09:32Z</time>
      </trkpt>
      <trkpt lat="44.5832170" lon="7.0222870">
        <ele>1612.4</ele>
        <time>2017-07-24T10:09:35Z</time>
      </trkpt>
      <trkpt lat="44.5832130" lon="7.0223130">
        <ele>1612.8</ele>
        <time>2017-07-24T10:09:36Z</time>
      </trkpt>
      <trkpt lat="44.5832130" lon="7.0223970">
        <ele>1614.0</ele>
        <time>2017-07-24T10:09:39Z</time>
      </trkpt>
      <trkpt lat="44.5832250" lon="7.0224300">
        <ele>1614.4</ele>
        <time>2017-07-24T10:09:40Z</time>
      </trkpt>
      <trkpt lat="44.5832870" lon="7.0225170">
        <ele>1614.8</ele>
        <time>2017-07-24T10:09:43Z</time>
      </trkpt>
      <trkpt lat="44.5833160" lon="7.0225610">
        <ele>1615.2</ele>
        <time>2017-07-24T10:09:45Z</time>
      </trkpt>
      <trkpt lat="44.5833270" lon="7.0225790">
        <ele>1615.8</ele>
        <time>2017-07-24T10:09:46Z</time>
      </trkpt>
      <trkpt lat="44.5833690" lon="7.0226320">
        <ele>1616.4</ele>
        <time>2017-07-24T10:09:49Z</time>
      </trkpt>
      <trkpt lat="44.5834150" lon="7.0227200">
        <ele>1617.4</ele>
        <time>2017-07-24T10:09:53Z</time>
      </trkpt>
      <trkpt lat="44.5834170" lon="7.0227470">
        <ele>1617.8</ele>
        <time>2017-07-24T10:09:54Z</time>
      </trkpt>
      <trkpt lat="44.5834490" lon="7.0228480">
        <ele>1618.8</ele>
        <time>2017-07-24T10:09:58Z</time>
      </trkpt>
      <trkpt lat="44.5834890" lon="7.0229160">
        <ele>1619.6</ele>
        <time>2017-07-24T10:10:01Z</time>
      </trkpt>
      <trkpt lat="44.5835010" lon="7.0229380">
        <ele>1620.0</ele>
        <time>2017-07-24T10:10:02Z</time>
      </trkpt>
      <trkpt lat="44.5835520" lon="7.0230600">
        <ele>1621.2</ele>
        <time>2017-07-24T10:10:08Z</time>
      </trkpt>
      <trkpt lat="44.5835480" lon="7.0230890">
        <ele>1621.4</ele>
        <time>2017-07-24T10:10:09Z</time>
      </trkpt>
      <trkpt lat="44.5835700" lon="7.0232280">
        <ele>1622.2</ele>
        <time>2017-07-24T10:10:14Z</time>
      </trkpt>
      <trkpt lat="44.5836530" lon="7.0234050">
        <ele>1623.2</ele>
        <time>2017-07-24T10:10:22Z</time>
      </trkpt>
      <trkpt lat="44.5836610" lon="7.0234280">
        <ele>1623.4</ele>
        <time>2017-07-24T10:10:23Z</time>
      </trkpt>
      <trkpt lat="44.5837360" lon="7.0235510">
        <ele>1624.2</ele>
        <time>2017-07-24T10:10:29Z</time>
      </trkpt>
      <trkpt lat="44.5837550" lon="7.0235860">
        <ele>1624.6</ele>
        <time>2017-07-24T10:10:31Z</time>
      </trkpt>
      <trkpt lat="44.5837820" lon="7.0235990">
        <ele>1625.0</ele>
        <time>2017-07-24T10:10:33Z</time>
      </trkpt>
      <trkpt lat="44.5838410" lon="7.0236160">
        <ele>1625.2</ele>
        <time>2017-07-24T10:10:36Z</time>
      </trkpt>
      <trkpt lat="44.5838770" lon="7.0236380">
        <ele>1625.4</ele>
        <time>2017-07-24T10:10:38Z</time>
      </trkpt>
      <trkpt lat="44.5839600" lon="7.0236930">
        <ele>1625.8</ele>
        <time>2017-07-24T10:10:42Z</time>
      </trkpt>
      <trkpt lat="44.5840850" lon="7.0237730">
        <ele>1626.0</ele>
        <time>2017-07-24T10:10:48Z</time>
      </trkpt>
      <trkpt lat="44.5842360" lon="7.0238630">
        <ele>1626.2</ele>
        <time>2017-07-24T10:10:55Z</time>
      </trkpt>
      <trkpt lat="44.5842630" lon="7.0238560">
        <ele>1626.6</ele>
        <time>2017-07-24T10:10:56Z</time>
      </trkpt>
      <trkpt lat="44.5843180" lon="7.0238470">
        <ele>1627.8</ele>
        <time>2017-07-24T10:10:58Z</time>
      </trkpt>
      <trkpt lat="44.5844220" lon="7.0238420">
        <ele>1629.0</ele>
        <time>2017-07-24T10:11:02Z</time>
      </trkpt>
      <trkpt lat="44.5844840" lon="7.0238750">
        <ele>1630.4</ele>
        <time>2017-07-24T10:11:05Z</time>
      </trkpt>
      <trkpt lat="44.5845560" lon="7.0238870">
        <ele>1631.8</ele>
        <time>2017-07-24T10:11:08Z</time>
      </trkpt>
      <trkpt lat="44.5846610" lon="7.0238990">
        <ele>1633.0</ele>
        <time>2017-07-24T10:11:12Z</time>
      </trkpt>
      <trkpt lat="44.5847630" lon="7.0239030">
        <ele>1633.8</ele>
        <time>2017-07-24T10:11:16Z</time>
      </trkpt>
      <trkpt lat="44.5847870" lon="7.0239120">
        <ele>1634.2</ele>
        <time>2017-07-24T10:11:17Z</time>
      </trkpt>
      <trkpt lat="44.5849110" lon="7.0239700">
        <ele>1635.6</ele>
        <time>2017-07-24T10:11:22Z</time>
      </trkpt>
      <trkpt lat="44.5849580" lon="7.0240030">
        <ele>1636.0</ele>
        <time>2017-07-24T10:11:24Z</time>
      </trkpt>
      <trkpt lat="44.5849810" lon="7.0240720">
        <ele>1636.4</ele>
        <time>2017-07-24T10:11:26Z</time>
      </trkpt>
      <trkpt lat="44.5849920" lon="7.0241030">
        <ele>1636.6</ele>
        <time>2017-07-24T10:11:27Z</time>
      </trkpt>
      <trkpt lat="44.5849720" lon="7.0242260">
        <ele>1637.6</ele>
        <time>2017-07-24T10:11:30Z</time>
      </trkpt>
      <trkpt lat="44.5848940" lon="7.0244570">
        <ele>1638.8</ele>
        <time>2017-07-24T10:11:36Z</time>
      </trkpt>
      <trkpt lat="44.5848510" lon="7.0245650">
        <ele>1639.8</ele>
        <time>2017-07-24T10:11:39Z</time>
      </trkpt>
      <trkpt lat="44.5848140" lon="7.0246690">
        <ele>1640.8</ele>
        <time>2017-07-24T10:11:42Z</time>
      </trkpt>
      <trkpt lat="44.5848110" lon="7.0247030">
        <ele>1641.0</ele>
        <time>2017-07-24T10:11:43Z</time>
      </trkpt>
      <trkpt lat="44.5848170" lon="7.0247400">
        <ele>1641.4</ele>
        <time>2017-07-24T10:11:44Z</time>
      </trkpt>
      <trkpt lat="44.5848340" lon="7.0247650">
        <ele>1642.0</ele>
        <time>2017-07-24T10:11:45Z</time>
      </trkpt>
      <trkpt lat="44.5848500" lon="7.0247840">
        <ele>1642.8</ele>
        <time>2017-07-24T10:11:46Z</time>
      </trkpt>
      <trkpt lat="44.5848720" lon="7.0247910">
        <ele>1643.0</ele>
        <time>2017-07-24T10:11:47Z</time>
      </trkpt>
      <trkpt lat="44.5849460" lon="7.0248380">
        <ele>1643.6</ele>
        <time>2017-07-24T10:11:50Z</time>
      </trkpt>
      <trkpt lat="44.5849950" lon="7.0248640">
        <ele>1643.8</ele>
        <time>2017-07-24T10:11:52Z</time>
      </trkpt>
      <trkpt lat="44.5850210" lon="7.0248750">
        <ele>1644.2</ele>
        <time>2017-07-24T10:11:53Z</time>
      </trkpt>
      <trkpt lat="44.5850930" lon="7.0248950">
        <ele>1644.8</ele>
        <time>2017-07-24T10:11:56Z</time>
      </trkpt>
      <trkpt lat="44.5851400" lon="7.0249120">
        <ele>1645.2</ele>
        <time>2017-07-24T10:11:58Z</time>
      </trkpt>
      <trkpt lat="44.5851870" lon="7.0249920">
        <ele>1645.4</ele>
        <time>2017-07-24T10:12:01Z</time>
      </trkpt>
      <trkpt lat="44.5851940" lon="7.0251430">
        <ele>1645.6</ele>
        <time>2017-07-24T10:12:05Z</time>
      </trkpt>
      <trkpt lat="44.5851970" lon="7.0252190">
        <ele>1646.2</ele>
        <time>2017-07-24T10:12:07Z</time>
      </trkpt>
      <trkpt lat="44.5852140" lon="7.0253120">
        <ele>1647.4</ele>
        <time>2017-07-24T10:12:10Z</time>
      </trkpt>
      <trkpt lat="44.5852310" lon="7.0254040">
        <ele>1648.0</ele>
        <time>2017-07-24T10:12:13Z</time>
      </trkpt>
      <trkpt lat="44.5852390" lon="7.0254710">
        <ele>1648.6</ele>
        <time>2017-07-24T10:12:15Z</time>
      </trkpt>
      <trkpt lat="44.5852640" lon="7.0255530">
        <ele>1649.4</ele>
        <time>2017-07-24T10:12:18Z</time>
      </trkpt>
      <trkpt lat="44.5852830" lon="7.0255750">
        <ele>1649.8</ele>
        <time>2017-07-24T10:12:19Z</time>
      </trkpt>
      <trkpt lat="44.5853710" lon="7.0256180">
        <ele>1650.6</ele>
        <time>2017-07-24T10:12:23Z</time>
      </trkpt>
      <trkpt lat="44.5853950" lon="7.0256260">
        <ele>1650.8</ele>
        <time>2017-07-24T10:12:24Z</time>
      </trkpt>
      <trkpt lat="44.5854790" lon="7.0256480">
        <ele>1652.0</ele>
        <time>2017-07-24T10:12:28Z</time>
      </trkpt>
      <trkpt lat="44.5854990" lon="7.0256540">
        <ele>1652.2</ele>
        <time>2017-07-24T10:12:29Z</time>
      </trkpt>
      <trkpt lat="44.5855570" lon="7.0256470">
        <ele>1653.0</ele>
        <time>2017-07-24T10:12:32Z</time>
      </trkpt>
      <trkpt lat="44.5856220" lon="7.0256220">
        <ele>1654.2</ele>
        <time>2017-07-24T10:12:35Z</time>
      </trkpt>
      <trkpt lat="44.5856450" lon="7.0256300">
        <ele>1654.6</ele>
        <time>2017-07-24T10:12:36Z</time>
      </trkpt>
      <trkpt lat="44.5856990" lon="7.0256900">
        <ele>1655.2</ele>
        <time>2017-07-24T10:12:39Z</time>
      </trkpt>
      <trkpt lat="44.5857200" lon="7.0257360">
        <ele>1655.6</ele>
        <time>2017-07-24T10:12:41Z</time>
      </trkpt>
      <trkpt lat="44.5857620" lon="7.0258000">
        <ele>1656.4</ele>
        <time>2017-07-24T10:12:44Z</time>
      </trkpt>
      <trkpt lat="44.5858010" lon="7.0258260">
        <ele>1657.0</ele>
        <time>2017-07-24T10:12:46Z</time>
      </trkpt>
      <trkpt lat="44.5858420" lon="7.0258480">
        <ele>1657.4</ele>
        <time>2017-07-24T10:12:48Z</time>
      </trkpt>
      <trkpt lat="44.5858590" lon="7.0258670">
        <ele>1657.4</ele>
        <time>2017-07-24T10:12:49Z</time>
      </trkpt>
      <trkpt lat="44.5859060" lon="7.0259690">
        <ele>1658.4</ele>
        <time>2017-07-24T10:12:53Z</time>
      </trkpt>
      <trkpt lat="44.5859220" lon="7.0259900">
        <ele>1658.6</ele>
        <time>2017-07-24T10:12:54Z</time>
      </trkpt>
      <trkpt lat="44.5860000" lon="7.0260150">
        <ele>1660.0</ele>
        <time>2017-07-24T10:12:58Z</time>
      </trkpt>
      <trkpt lat="44.5860220" lon="7.0260110">
        <ele>1660.2</ele>
        <time>2017-07-24T10:12:59Z</time>
      </trkpt>
      <trkpt lat="44.5860410" lon="7.0260240">
        <ele>1660.6</ele>
        <time>2017-07-24T10:13:00Z</time>
      </trkpt>
      <trkpt lat="44.5860890" lon="7.0260820">
        <ele>1661.0</ele>
        <time>2017-07-24T10:13:03Z</time>
      </trkpt>
      <trkpt lat="44.5860940" lon="7.0261120">
        <ele>1661.2</ele>
        <time>2017-07-24T10:13:04Z</time>
      </trkpt>
      <trkpt lat="44.5860950" lon="7.0261740">
        <ele>1661.6</ele>
        <time>2017-07-24T10:13:06Z</time>
      </trkpt>
      <trkpt lat="44.5861060" lon="7.0262330">
        <ele>1662.2</ele>
        <time>2017-07-24T10:13:08Z</time>
      </trkpt>
      <trkpt lat="44.5861110" lon="7.0263520">
        <ele>1663.2</ele>
        <time>2017-07-24T10:13:12Z</time>
      </trkpt>
      <trkpt lat="44.5861300" lon="7.0263990">
        <ele>1664.0</ele>
        <time>2017-07-24T10:13:14Z</time>
      </trkpt>
      <trkpt lat="44.5861430" lon="7.0264170">
        <ele>1664.2</ele>
        <time>2017-07-24T10:13:15Z</time>
      </trkpt>
      <trkpt lat="44.5862030" lon="7.0264310">
        <ele>1665.2</ele>
        <time>2017-07-24T10:13:18Z</time>
      </trkpt>
      <trkpt lat="44.5862250" lon="7.0264230">
        <ele>1665.6</ele>
        <time>2017-07-24T10:13:19Z</time>
      </trkpt>
      <trkpt lat="44.5862850" lon="7.0263920">
        <ele>1667.2</ele>
        <time>2017-07-24T10:13:22Z</time>
      </trkpt>
      <trkpt lat="44.5863430" lon="7.0263930">
        <ele>1668.2</ele>
        <time>2017-07-24T10:13:25Z</time>
      </trkpt>
      <trkpt lat="44.5864200" lon="7.0263940">
        <ele>1669.4</ele>
        <time>2017-07-24T10:13:29Z</time>
      </trkpt>
      <trkpt lat="44.5864810" lon="7.0264110">
        <ele>1670.4</ele>
        <time>2017-07-24T10:13:32Z</time>
      </trkpt>
      <trkpt lat="44.5865010" lon="7.0264150">
        <ele>1670.6</ele>
        <time>2017-07-24T10:13:33Z</time>
      </trkpt>
      <trkpt lat="44.5865730" lon="7.0264980">
        <ele>1671.6</ele>
        <time>2017-07-24T10:13:38Z</time>
      </trkpt>
      <trkpt lat="44.5866820" lon="7.0266130">
        <ele>1672.8</ele>
        <time>2017-07-24T10:13:45Z</time>
      </trkpt>
      <trkpt lat="44.5867150" lon="7.0266470">
        <ele>1673.4</ele>
        <time>2017-07-24T10:13:47Z</time>
      </trkpt>
      <trkpt lat="44.5867480" lon="7.0266750">
        <ele>1674.2</ele>
        <time>2017-07-24T10:13:49Z</time>
      </trkpt>
      <trkpt lat="44.5868280" lon="7.0267240">
        <ele>1675.4</ele>
        <time>2017-07-24T10:13:53Z</time>
      </trkpt>
      <trkpt lat="44.5868500" lon="7.0267260">
        <ele>1675.8</ele>
        <time>2017-07-24T10:13:54Z</time>
      </trkpt>
      <trkpt lat="44.5868840" lon="7.0267190">
        <ele>1676.4</ele>
        <time>2017-07-24T10:13:56Z</time>
      </trkpt>
      <trkpt lat="44.5869230" lon="7.0267460">
        <ele>1677.2</ele>
        <time>2017-07-24T10:13:58Z</time>
      </trkpt>
      <trkpt lat="44.5869450" lon="7.0267580">
        <ele>1677.6</ele>
        <time>2017-07-24T10:13:59Z</time>
      </trkpt>
      <trkpt lat="44.5870130" lon="7.0268610">
        <ele>1678.8</ele>
        <time>2017-07-24T10:14:03Z</time>
      </trkpt>
      <trkpt lat="44.5871160" lon="7.0270700">
        <ele>1679.4</ele>
        <time>2017-07-24T10:14:08Z</time>
      </trkpt>
      <trkpt lat="44.5871600" lon="7.0271370">
        <ele>1680.0</ele>
        <time>2017-07-24T10:14:10Z</time>
      </trkpt>
      <trkpt lat="44.5872530" lon="7.0272180">
        <ele>1681.0</ele>
        <time>2017-07-24T10:14:14Z</time>
      </trkpt>
      <trkpt lat="44.5872690" lon="7.0272300">
        <ele>1681.4</ele>
        <time>2017-07-24T10:14:15Z</time>
      </trkpt>
      <trkpt lat="44.5873090" lon="7.0272660">
        <ele>1682.6</ele>
        <time>2017-07-24T10:14:18Z</time>
      </trkpt>
      <trkpt lat="44.5873410" lon="7.0272860">
        <ele>1683.2</ele>
        <time>2017-07-24T10:14:20Z</time>
      </trkpt>
      <trkpt lat="44.5873750" lon="7.0273080">
        <ele>1683.8</ele>
        <time>2017-07-24T10:14:22Z</time>
      </trkpt>
      <trkpt lat="44.5874340" lon="7.0273680">
        <ele>1685.0</ele>
        <time>2017-07-24T10:14:26Z</time>
      </trkpt>
      <trkpt lat="44.5874660" lon="7.0274230">
        <ele>1685.8</ele>
        <time>2017-07-24T10:14:29Z</time>
      </trkpt>
      <trkpt lat="44.5874650" lon="7.0274530">
        <ele>1686.0</ele>
        <time>2017-07-24T10:14:30Z</time>
      </trkpt>
      <trkpt lat="44.5874610" lon="7.0275240">
        <ele>1687.0</ele>
        <time>2017-07-24T10:14:33Z</time>
      </trkpt>
      <trkpt lat="44.5874570" lon="7.0275560">
        <ele>1687.6</ele>
        <time>2017-07-24T10:14:34Z</time>
      </trkpt>
      <trkpt lat="44.5874450" lon="7.0276650">
        <ele>1688.8</ele>
        <time>2017-07-24T10:14:37Z</time>
      </trkpt>
      <trkpt lat="44.5874740" lon="7.0277330">
        <ele>1689.8</ele>
        <time>2017-07-24T10:14:40Z</time>
      </trkpt>
      <trkpt lat="44.5874890" lon="7.0277550">
        <ele>1690.0</ele>
        <time>2017-07-24T10:14:41Z</time>
      </trkpt>
      <trkpt lat="44.5875140" lon="7.0277890">
        <ele>1690.8</ele>
        <time>2017-07-24T10:14:43Z</time>
      </trkpt>
      <trkpt lat="44.5875670" lon="7.0278590">
        <ele>1692.0</ele>
        <time>2017-07-24T10:14:47Z</time>
      </trkpt>
      <trkpt lat="44.5875900" lon="7.0279000">
        <ele>1692.4</ele>
        <time>2017-07-24T10:14:49Z</time>
      </trkpt>
      <trkpt lat="44.5876050" lon="7.0279580">
        <ele>1693.0</ele>
        <time>2017-07-24T10:14:51Z</time>
      </trkpt>
      <trkpt lat="44.5876090" lon="7.0279840">
        <ele>1693.2</ele>
        <time>2017-07-24T10:14:52Z</time>
      </trkpt>
      <trkpt lat="44.5876120" lon="7.0280080">
        <ele>1693.4</ele>
        <time>2017-07-24T10:14:53Z</time>
      </trkpt>
      <trkpt lat="44.5876220" lon="7.0280520">
        <ele>1694.0</ele>
        <time>2017-07-24T10:14:55Z</time>
      </trkpt>
      <trkpt lat="44.5876390" lon="7.0281350">
        <ele>1695.4</ele>
        <time>2017-07-24T10:14:58Z</time>
      </trkpt>
      <trkpt lat="44.5876510" lon="7.0281610">
        <ele>1695.8</ele>
        <time>2017-07-24T10:14:59Z</time>
      </trkpt>
      <trkpt lat="44.5876620" lon="7.0282190">
        <ele>1696.4</ele>
        <time>2017-07-24T10:15:01Z</time>
      </trkpt>
      <trkpt lat="44.5877020" lon="7.0282870">
        <ele>1697.6</ele>
        <time>2017-07-24T10:15:04Z</time>
      </trkpt>
      <trkpt lat="44.5877180" lon="7.0283030">
        <ele>1698.0</ele>
        <time>2017-07-24T10:15:05Z</time>
      </trkpt>
      <trkpt lat="44.5877810" lon="7.0283240">
        <ele>1698.8</ele>
        <time>2017-07-24T10:15:08Z</time>
      </trkpt>
      <trkpt lat="44.5878450" lon="7.0283410">
        <ele>1699.6</ele>
        <time>2017-07-24T10:15:11Z</time>
      </trkpt>
      <trkpt lat="44.5878640" lon="7.0283480">
        <ele>1699.8</ele>
        <time>2017-07-24T10:15:12Z</time>
      </trkpt>
      <trkpt lat="44.5879770" lon="7.0284110">
        <ele>1701.0</ele>
        <time>2017-07-24T10:15:18Z</time>
      </trkpt>
      <trkpt lat="44.5880740" lon="7.0284170">
        <ele>1702.0</ele>
        <time>2017-07-24T10:15:23Z</time>
      </trkpt>
      <trkpt lat="44.5881340" lon="7.0284380">
        <ele>1702.8</ele>
        <time>2017-07-24T10:15:26Z</time>
      </trkpt>
      <trkpt lat="44.5881740" lon="7.0284460">
        <ele>1703.2</ele>
        <time>2017-07-24T10:15:28Z</time>
      </trkpt>
      <trkpt lat="44.5882380" lon="7.0285210">
        <ele>1704.0</ele>
        <time>2017-07-24T10:15:32Z</time>
      </trkpt>
      <trkpt lat="44.5882450" lon="7.0285480">
        <ele>1704.4</ele>
        <time>2017-07-24T10:15:33Z</time>
      </trkpt>
      <trkpt lat="44.5882560" lon="7.0287020">
        <ele>1705.2</ele>
        <time>2017-07-24T10:15:38Z</time>
      </trkpt>
      <trkpt lat="44.5882610" lon="7.0287350">
        <ele>1705.4</ele>
        <time>2017-07-24T10:15:39Z</time>
      </trkpt>
      <trkpt lat="44.5883050" lon="7.0288930">
        <ele>1706.2</ele>
        <time>2017-07-24T10:15:44Z</time>
      </trkpt>
      <trkpt lat="44.5883200" lon="7.0289180">
        <ele>1706.4</ele>
        <time>2017-07-24T10:15:45Z</time>
      </trkpt>
      <trkpt lat="44.5883530" lon="7.0290030">
        <ele>1707.6</ele>
        <time>2017-07-24T10:15:48Z</time>
      </trkpt>
      <trkpt lat="44.5883740" lon="7.0290860">
        <ele>1708.4</ele>
        <time>2017-07-24T10:15:51Z</time>
      </trkpt>
      <trkpt lat="44.5883780" lon="7.0291130">
        <ele>1708.6</ele>
        <time>2017-07-24T10:15:52Z</time>
      </trkpt>
      <trkpt lat="44.5884120" lon="7.0292240">
        <ele>1709.8</ele>
        <time>2017-07-24T10:15:56Z</time>
      </trkpt>
      <trkpt lat="44.5884280" lon="7.0292870">
        <ele>1710.2</ele>
        <time>2017-07-24T10:15:58Z</time>
      </trkpt>
      <trkpt lat="44.5884510" lon="7.0293990">
        <ele>1711.0</ele>
        <time>2017-07-24T10:16:01Z</time>
      </trkpt>
      <trkpt lat="44.5884500" lon="7.0294750">
        <ele>1711.8</ele>
        <time>2017-07-24T10:16:03Z</time>
      </trkpt>
      <trkpt lat="44.5884440" lon="7.0295130">
        <ele>1712.0</ele>
        <time>2017-07-24T10:16:04Z</time>
      </trkpt>
      <trkpt lat="44.5884330" lon="7.0295540">
        <ele>1712.4</ele>
        <time>2017-07-24T10:16:05Z</time>
      </trkpt>
      <trkpt lat="44.5883710" lon="7.0297560">
        <ele>1713.6</ele>
        <time>2017-07-24T10:16:09Z</time>
      </trkpt>
      <trkpt lat="44.5883650" lon="7.0298100">
        <ele>1714.2</ele>
        <time>2017-07-24T10:16:10Z</time>
      </trkpt>
      <trkpt lat="44.5883520" lon="7.0299260">
        <ele>1714.8</ele>
        <time>2017-07-24T10:16:12Z</time>
      </trkpt>
      <trkpt lat="44.5883310" lon="7.0300900">
        <ele>1716.0</ele>
        <time>2017-07-24T10:16:15Z</time>
      </trkpt>
      <trkpt lat="44.5883250" lon="7.0301430">
        <ele>1716.2</ele>
        <time>2017-07-24T10:16:16Z</time>
      </trkpt>
      <trkpt lat="44.5883340" lon="7.0302550">
        <ele>1717.0</ele>
        <time>2017-07-24T10:16:18Z</time>
      </trkpt>
      <trkpt lat="44.5883770" lon="7.0304170">
        <ele>1718.0</ele>
        <time>2017-07-24T10:16:21Z</time>
      </trkpt>
      <trkpt lat="44.5884650" lon="7.0306980">
        <ele>1719.0</ele>
        <time>2017-07-24T10:16:26Z</time>
      </trkpt>
      <trkpt lat="44.5885130" lon="7.0308340">
        <ele>1719.8</ele>
        <time>2017-07-24T10:16:29Z</time>
      </trkpt>
      <trkpt lat="44.5885420" lon="7.0308310">
        <ele>1720.0</ele>
        <time>2017-07-24T10:16:30Z</time>
      </trkpt>
      <trkpt lat="44.5885710" lon="7.0308030">
        <ele>1720.4</ele>
        <time>2017-07-24T10:16:31Z</time>
      </trkpt>
      <trkpt lat="44.5885770" lon="7.0306830">
        <ele>1721.4</ele>
        <time>2017-07-24T10:16:34Z</time>
      </trkpt>
      <trkpt lat="44.5885490" lon="7.0306170">
        <ele>1721.8</ele>
        <time>2017-07-24T10:16:36Z</time>
      </trkpt>
      <trkpt lat="44.5885240" lon="7.0305040">
        <ele>1722.0</ele>
        <time>2017-07-24T10:16:39Z</time>
      </trkpt>
      <trkpt lat="44.5885030" lon="7.0303320">
        <ele>1722.6</ele>
        <time>2017-07-24T10:16:45Z</time>
      </trkpt>
      <trkpt lat="44.5885000" lon="7.0303040">
        <ele>1722.8</ele>
        <time>2017-07-24T10:16:46Z</time>
      </trkpt>
      <trkpt lat="44.5885220" lon="7.0301870">
        <ele>1723.8</ele>
        <time>2017-07-24T10:16:50Z</time>
      </trkpt>
      <trkpt lat="44.5885480" lon="7.0301350">
        <ele>1724.6</ele>
        <time>2017-07-24T10:16:52Z</time>
      </trkpt>
      <trkpt lat="44.5885680" lon="7.0300820">
        <ele>1725.0</ele>
        <time>2017-07-24T10:16:54Z</time>
      </trkpt>
      <trkpt lat="44.5886160" lon="7.0299890">
        <ele>1726.2</ele>
        <time>2017-07-24T10:16:58Z</time>
      </trkpt>
      <trkpt lat="44.5886370" lon="7.0299380">
        <ele>1726.6</ele>
        <time>2017-07-24T10:17:00Z</time>
      </trkpt>
      <trkpt lat="44.5886560" lon="7.0298850">
        <ele>1727.2</ele>
        <time>2017-07-24T10:17:02Z</time>
      </trkpt>
      <trkpt lat="44.5887040" lon="7.0297160">
        <ele>1728.4</ele>
        <time>2017-07-24T10:17:08Z</time>
      </trkpt>
      <trkpt lat="44.5887350" lon="7.0296020">
        <ele>1729.4</ele>
        <time>2017-07-24T10:17:12Z</time>
      </trkpt>
      <trkpt lat="44.5887670" lon="7.0295000">
        <ele>1730.4</ele>
        <time>2017-07-24T10:17:16Z</time>
      </trkpt>
      <trkpt lat="44.5887780" lon="7.0294470">
        <ele>1731.2</ele>
        <time>2017-07-24T10:17:18Z</time>
      </trkpt>
      <trkpt lat="44.5887850" lon="7.0294210">
        <ele>1731.4</ele>
        <time>2017-07-24T10:17:19Z</time>
      </trkpt>
      <trkpt lat="44.5888000" lon="7.0293060">
        <ele>1732.8</ele>
        <time>2017-07-24T10:17:23Z</time>
      </trkpt>
      <trkpt lat="44.5888070" lon="7.0292530">
        <ele>1733.2</ele>
        <time>2017-07-24T10:17:25Z</time>
      </trkpt>
      <trkpt lat="44.5888100" lon="7.0292030">
        <ele>1733.8</ele>
        <time>2017-07-24T10:17:27Z</time>
      </trkpt>
      <trkpt lat="44.5888140" lon="7.0290820">
        <ele>1734.8</ele>
        <time>2017-07-24T10:17:31Z</time>
      </trkpt>
      <trkpt lat="44.5888150" lon="7.0289530">
        <ele>1736.2</ele>
        <time>2017-07-24T10:17:36Z</time>
      </trkpt>
      <trkpt lat="44.5888150" lon="7.0288930">
        <ele>1736.6</ele>
        <time>2017-07-24T10:17:38Z</time>
      </trkpt>
      <trkpt lat="44.5888060" lon="7.0287990">
        <ele>1737.2</ele>
        <time>2017-07-24T10:17:41Z</time>
      </trkpt>
      <trkpt lat="44.5887980" lon="7.0286830">
        <ele>1738.4</ele>
        <time>2017-07-24T10:17:45Z</time>
      </trkpt>
      <trkpt lat="44.5887960" lon="7.0285530">
        <ele>1739.4</ele>
        <time>2017-07-24T10:17:50Z</time>
      </trkpt>
      <trkpt lat="44.5887910" lon="7.0285240">
        <ele>1739.6</ele>
        <time>2017-07-24T10:17:51Z</time>
      </trkpt>
      <trkpt lat="44.5887540" lon="7.0283770">
        <ele>1740.8</ele>
        <time>2017-07-24T10:17:56Z</time>
      </trkpt>
      <trkpt lat="44.5887560" lon="7.0282290">
        <ele>1741.8</ele>
        <time>2017-07-24T10:18:02Z</time>
      </trkpt>
      <trkpt lat="44.5887970" lon="7.0281880">
        <ele>1742.2</ele>
        <time>2017-07-24T10:18:05Z</time>
      </trkpt>
      <trkpt lat="44.5888290" lon="7.0281870">
        <ele>1742.8</ele>
        <time>2017-07-24T10:18:07Z</time>
      </trkpt>
      <trkpt lat="44.5888450" lon="7.0281940">
        <ele>1742.8</ele>
        <time>2017-07-24T10:18:08Z</time>
      </trkpt>
      <trkpt lat="44.5888830" lon="7.0282930">
        <ele>1743.2</ele>
        <time>2017-07-24T10:18:12Z</time>
      </trkpt>
      <trkpt lat="44.5889000" lon="7.0284450">
        <ele>1743.8</ele>
        <time>2017-07-24T10:18:17Z</time>
      </trkpt>
      <trkpt lat="44.5889070" lon="7.0284730">
        <ele>1744.0</ele>
        <time>2017-07-24T10:18:18Z</time>
      </trkpt>
      <trkpt lat="44.5889640" lon="7.0286710">
        <ele>1745.0</ele>
        <time>2017-07-24T10:18:25Z</time>
      </trkpt>
      <trkpt lat="44.5889700" lon="7.0286970">
        <ele>1745.2</ele>
        <time>2017-07-24T10:18:26Z</time>
      </trkpt>
      <trkpt lat="44.5890110" lon="7.0287930">
        <ele>1746.2</ele>
        <time>2017-07-24T10:18:30Z</time>
      </trkpt>
      <trkpt lat="44.5890360" lon="7.0288440">
        <ele>1746.6</ele>
        <time>2017-07-24T10:18:32Z</time>
      </trkpt>
      <trkpt lat="44.5890550" lon="7.0288940">
        <ele>1747.4</ele>
        <time>2017-07-24T10:18:34Z</time>
      </trkpt>
      <trkpt lat="44.5891070" lon="7.0289760">
        <ele>1748.4</ele>
        <time>2017-07-24T10:18:38Z</time>
      </trkpt>
      <trkpt lat="44.5891280" lon="7.0289870">
        <ele>1748.8</ele>
        <time>2017-07-24T10:18:39Z</time>
      </trkpt>
      <trkpt lat="44.5891730" lon="7.0290780">
        <ele>1749.6</ele>
        <time>2017-07-24T10:18:43Z</time>
      </trkpt>
      <trkpt lat="44.5891840" lon="7.0291000">
        <ele>1750.0</ele>
        <time>2017-07-24T10:18:44Z</time>
      </trkpt>
      <trkpt lat="44.5892040" lon="7.0291590">
        <ele>1750.6</ele>
        <time>2017-07-24T10:18:46Z</time>
      </trkpt>
      <trkpt lat="44.5892340" lon="7.0292810">
        <ele>1751.8</ele>
        <time>2017-07-24T10:18:50Z</time>
      </trkpt>
      <trkpt lat="44.5892660" lon="7.0294160">
        <ele>1752.8</ele>
        <time>2017-07-24T10:18:55Z</time>
      </trkpt>
      <trkpt lat="44.5892720" lon="7.0294420">
        <ele>1753.2</ele>
        <time>2017-07-24T10:18:56Z</time>
      </trkpt>
      <trkpt lat="44.5892880" lon="7.0295190">
        <ele>1754.0</ele>
        <time>2017-07-24T10:18:59Z</time>
      </trkpt>
      <trkpt lat="44.5893030" lon="7.0295930">
        <ele>1754.6</ele>
        <time>2017-07-24T10:19:02Z</time>
      </trkpt>
      <trkpt lat="44.5893030" lon="7.0296410">
        <ele>1755.2</ele>
        <time>2017-07-24T10:19:04Z</time>
      </trkpt>
      <trkpt lat="44.5893140" lon="7.0297330">
        <ele>1756.0</ele>
        <time>2017-07-24T10:19:08Z</time>
      </trkpt>
      <trkpt lat="44.5893190" lon="7.0297530">
        <ele>1756.2</ele>
        <time>2017-07-24T10:19:09Z</time>
      </trkpt>
      <trkpt lat="44.5893270" lon="7.0298410">
        <ele>1757.2</ele>
        <time>2017-07-24T10:19:13Z</time>
      </trkpt>
      <trkpt lat="44.5893290" lon="7.0298630">
        <ele>1757.4</ele>
        <time>2017-07-24T10:19:14Z</time>
      </trkpt>
      <trkpt lat="44.5893310" lon="7.0299210">
        <ele>1758.4</ele>
        <time>2017-07-24T10:19:17Z</time>
      </trkpt>
      <trkpt lat="44.5893420" lon="7.0299880">
        <ele>1759.4</ele>
        <time>2017-07-24T10:19:20Z</time>
      </trkpt>
      <trkpt lat="44.5893510" lon="7.0300340">
        <ele>1760.2</ele>
        <time>2017-07-24T10:19:22Z</time>
      </trkpt>
      <trkpt lat="44.5893540" lon="7.0300590">
        <ele>1760.4</ele>
        <time>2017-07-24T10:19:23Z</time>
      </trkpt>
      <trkpt lat="44.5893820" lon="7.0301960">
        <ele>1761.6</ele>
        <time>2017-07-24T10:19:29Z</time>
      </trkpt>
      <trkpt lat="44.5894160" lon="7.0302970">
        <ele>1762.6</ele>
        <time>2017-07-24T10:19:33Z</time>
      </trkpt>
      <trkpt lat="44.5894470" lon="7.0303760">
        <ele>1763.4</ele>
        <time>2017-07-24T10:19:36Z</time>
      </trkpt>
      <trkpt lat="44.5894760" lon="7.0304260">
        <ele>1763.8</ele>
        <time>2017-07-24T10:19:38Z</time>
      </trkpt>
      <trkpt lat="44.5895280" lon="7.0305170">
        <ele>1765.0</ele>
        <time>2017-07-24T10:19:42Z</time>
      </trkpt>
      <trkpt lat="44.5895440" lon="7.0305410">
        <ele>1765.2</ele>
        <time>2017-07-24T10:19:43Z</time>
      </trkpt>
      <trkpt lat="44.5895930" lon="7.0306010">
        <ele>1766.4</ele>
        <time>2017-07-24T10:19:46Z</time>
      </trkpt>
      <trkpt lat="44.5896370" lon="7.0306620">
        <ele>1767.4</ele>
        <time>2017-07-24T10:19:49Z</time>
      </trkpt>
      <trkpt lat="44.5896540" lon="7.0306780">
        <ele>1767.8</ele>
        <time>2017-07-24T10:19:50Z</time>
      </trkpt>
      <trkpt lat="44.5897010" lon="7.0307050">
        <ele>1769.0</ele>
        <time>2017-07-24T10:19:53Z</time>
      </trkpt>
      <trkpt lat="44.5897180" lon="7.0306960">
        <ele>1769.2</ele>
        <time>2017-07-24T10:19:54Z</time>
      </trkpt>
      <trkpt lat="44.5897340" lon="7.0306820">
        <ele>1769.6</ele>
        <time>2017-07-24T10:19:55Z</time>
      </trkpt>
      <trkpt lat="44.5897410" lon="7.0306310">
        <ele>1770.2</ele>
        <time>2017-07-24T10:19:57Z</time>
      </trkpt>
      <trkpt lat="44.5897240" lon="7.0305890">
        <ele>1770.6</ele>
        <time>2017-07-24T10:19:59Z</time>
      </trkpt>
      <trkpt lat="44.5896920" lon="7.0305540">
        <ele>1771.2</ele>
        <time>2017-07-24T10:20:01Z</time>
      </trkpt>
      <trkpt lat="44.5896340" lon="7.0304840">
        <ele>1772.0</ele>
        <time>2017-07-24T10:20:05Z</time>
      </trkpt>
      <trkpt lat="44.5896240" lon="7.0304630">
        <ele>1772.2</ele>
        <time>2017-07-24T10:20:06Z</time>
      </trkpt>
      <trkpt lat="44.5896000" lon="7.0303660">
        <ele>1773.6</ele>
        <time>2017-07-24T10:20:10Z</time>
      </trkpt>
      <trkpt lat="44.5896040" lon="7.0303370">
        <ele>1774.0</ele>
        <time>2017-07-24T10:20:11Z</time>
      </trkpt>
      <trkpt lat="44.5896120" lon="7.0302880">
        <ele>1774.6</ele>
        <time>2017-07-24T10:20:13Z</time>
      </trkpt>
      <trkpt lat="44.5896120" lon="7.0302210">
        <ele>1775.6</ele>
        <time>2017-07-24T10:20:16Z</time>
      </trkpt>
      <trkpt lat="44.5896120" lon="7.0301970">
        <ele>1776.0</ele>
        <time>2017-07-24T10:20:17Z</time>
      </trkpt>
      <trkpt lat="44.5896300" lon="7.0301210">
        <ele>1776.8</ele>
        <time>2017-07-24T10:20:20Z</time>
      </trkpt>
      <trkpt lat="44.5896460" lon="7.0300330">
        <ele>1778.0</ele>
        <time>2017-07-24T10:20:23Z</time>
      </trkpt>
      <trkpt lat="44.5896720" lon="7.0298740">
        <ele>1779.2</ele>
        <time>2017-07-24T10:20:28Z</time>
      </trkpt>
      <trkpt lat="44.5896750" lon="7.0298330">
        <ele>1779.6</ele>
        <time>2017-07-24T10:20:29Z</time>
      </trkpt>
      <trkpt lat="44.5896820" lon="7.0297270">
        <ele>1780.0</ele>
        <time>2017-07-24T10:20:32Z</time>
      </trkpt>
      <trkpt lat="44.5896810" lon="7.0296920">
        <ele>1780.2</ele>
        <time>2017-07-24T10:20:33Z</time>
      </trkpt>
      <trkpt lat="44.5896960" lon="7.0295740">
        <ele>1781.2</ele>
        <time>2017-07-24T10:20:36Z</time>
      </trkpt>
      <trkpt lat="44.5897150" lon="7.0295520">
        <ele>1781.4</ele>
        <time>2017-07-24T10:20:37Z</time>
      </trkpt>
      <trkpt lat="44.5897570" lon="7.0295460">
        <ele>1781.8</ele>
        <time>2017-07-24T10:20:39Z</time>
      </trkpt>
      <trkpt lat="44.5897590" lon="7.0296270">
        <ele>1782.4</ele>
        <time>2017-07-24T10:20:42Z</time>
      </trkpt>
      <trkpt lat="44.5897530" lon="7.0296870">
        <ele>1782.8</ele>
        <time>2017-07-24T10:20:44Z</time>
      </trkpt>
      <trkpt lat="44.5897390" lon="7.0298450">
        <ele>1783.4</ele>
        <time>2017-07-24T10:20:49Z</time>
      </trkpt>
      <trkpt lat="44.5897610" lon="7.0299340">
        <ele>1783.6</ele>
        <time>2017-07-24T10:20:52Z</time>
      </trkpt>
      <trkpt lat="44.5897930" lon="7.0300250">
        <ele>1784.2</ele>
        <time>2017-07-24T10:20:56Z</time>
      </trkpt>
      <trkpt lat="44.5898100" lon="7.0300690">
        <ele>1784.6</ele>
        <time>2017-07-24T10:20:58Z</time>
      </trkpt>
      <trkpt lat="44.5898530" lon="7.0301910">
        <ele>1785.8</ele>
        <time>2017-07-24T10:21:03Z</time>
      </trkpt>
      <trkpt lat="44.5898910" lon="7.0302850">
        <ele>1786.8</ele>
        <time>2017-07-24T10:21:07Z</time>
      </trkpt>
      <trkpt lat="44.5899210" lon="7.0303490">
        <ele>1787.8</ele>
        <time>2017-07-24T10:21:10Z</time>
      </trkpt>
      <trkpt lat="44.5899340" lon="7.0303710">
        <ele>1788.2</ele>
        <time>2017-07-24T10:21:11Z</time>
      </trkpt>
      <trkpt lat="44.5899810" lon="7.0304420">
        <ele>1789.2</ele>
        <time>2017-07-24T10:21:15Z</time>
      </trkpt>
      <trkpt lat="44.5900120" lon="7.0304770">
        <ele>1789.8</ele>
        <time>2017-07-24T10:21:17Z</time>
      </trkpt>
      <trkpt lat="44.5900620" lon="7.0305220">
        <ele>1790.2</ele>
        <time>2017-07-24T10:21:20Z</time>
      </trkpt>
      <trkpt lat="44.5901510" lon="7.0305830">
        <ele>1791.4</ele>
        <time>2017-07-24T10:21:25Z</time>
      </trkpt>
      <trkpt lat="44.5902570" lon="7.0306310">
        <ele>1792.6</ele>
        <time>2017-07-24T10:21:31Z</time>
      </trkpt>
      <trkpt lat="44.5902720" lon="7.0306360">
        <ele>1792.8</ele>
        <time>2017-07-24T10:21:32Z</time>
      </trkpt>
      <trkpt lat="44.5903370" lon="7.0306670">
        <ele>1793.8</ele>
        <time>2017-07-24T10:21:36Z</time>
      </trkpt>
      <trkpt lat="44.5903740" lon="7.0306790">
        <ele>1794.2</ele>
        <time>2017-07-24T10:21:38Z</time>
      </trkpt>
      <trkpt lat="44.5904670" lon="7.0307120">
        <ele>1795.0</ele>
        <time>2017-07-24T10:21:43Z</time>
      </trkpt>
      <trkpt lat="44.5904860" lon="7.0307140">
        <ele>1795.2</ele>
        <time>2017-07-24T10:21:44Z</time>
      </trkpt>
      <trkpt lat="44.5905260" lon="7.0307200">
        <ele>1796.4</ele>
        <time>2017-07-24T10:21:46Z</time>
      </trkpt>
      <trkpt lat="44.5906010" lon="7.0307500">
        <ele>1797.6</ele>
        <time>2017-07-24T10:21:50Z</time>
      </trkpt>
      <trkpt lat="44.5906360" lon="7.0307450">
        <ele>1798.2</ele>
        <time>2017-07-24T10:21:52Z</time>
      </trkpt>
      <trkpt lat="44.5906690" lon="7.0307300">
        <ele>1799.0</ele>
        <time>2017-07-24T10:21:54Z</time>
      </trkpt>
      <trkpt lat="44.5907450" lon="7.0307270">
        <ele>1800.0</ele>
        <time>2017-07-24T10:21:58Z</time>
      </trkpt>
      <trkpt lat="44.5907630" lon="7.0307230">
        <ele>1800.2</ele>
        <time>2017-07-24T10:21:59Z</time>
      </trkpt>
      <trkpt lat="44.5908190" lon="7.0307080">
        <ele>1801.0</ele>
        <time>2017-07-24T10:22:02Z</time>
      </trkpt>
      <trkpt lat="44.5908930" lon="7.0306980">
        <ele>1802.2</ele>
        <time>2017-07-24T10:22:06Z</time>
      </trkpt>
      <trkpt lat="44.5909810" lon="7.0306920">
        <ele>1803.2</ele>
        <time>2017-07-24T10:22:11Z</time>
      </trkpt>
      <trkpt lat="44.5910370" lon="7.0306940">
        <ele>1804.0</ele>
        <time>2017-07-24T10:22:14Z</time>
      </trkpt>
      <trkpt lat="44.5910940" lon="7.0307120">
        <ele>1804.4</ele>
        <time>2017-07-24T10:22:17Z</time>
      </trkpt>
      <trkpt lat="44.5911720" lon="7.0307570">
        <ele>1805.2</ele>
        <time>2017-07-24T10:22:22Z</time>
      </trkpt>
      <trkpt lat="44.5911910" lon="7.0307550">
        <ele>1805.6</ele>
        <time>2017-07-24T10:22:23Z</time>
      </trkpt>
      <trkpt lat="44.5912620" lon="7.0307570">
        <ele>1806.6</ele>
        <time>2017-07-24T10:22:27Z</time>
      </trkpt>
      <trkpt lat="44.5913240" lon="7.0307290">
        <ele>1807.8</ele>
        <time>2017-07-24T10:22:31Z</time>
      </trkpt>
      <trkpt lat="44.5913560" lon="7.0306990">
        <ele>1808.4</ele>
        <time>2017-07-24T10:22:33Z</time>
      </trkpt>
      <trkpt lat="44.5913720" lon="7.0306810">
        <ele>1809.2</ele>
        <time>2017-07-24T10:22:34Z</time>
      </trkpt>
      <trkpt lat="44.5914100" lon="7.0306150">
        <ele>1810.4</ele>
        <time>2017-07-24T10:22:37Z</time>
      </trkpt>
      <trkpt lat="44.5914270" lon="7.0305740">
        <ele>1811.0</ele>
        <time>2017-07-24T10:22:39Z</time>
      </trkpt>
      <trkpt lat="44.5914350" lon="7.0305260">
        <ele>1811.6</ele>
        <time>2017-07-24T10:22:41Z</time>
      </trkpt>
      <trkpt lat="44.5914660" lon="7.0304300">
        <ele>1813.0</ele>
        <time>2017-07-24T10:22:45Z</time>
      </trkpt>
      <trkpt lat="44.5914960" lon="7.0303800">
        <ele>1813.8</ele>
        <time>2017-07-24T10:22:47Z</time>
      </trkpt>
      <trkpt lat="44.5915110" lon="7.0303550">
        <ele>1814.2</ele>
        <time>2017-07-24T10:22:48Z</time>
      </trkpt>
      <trkpt lat="44.5915760" lon="7.0302780">
        <ele>1815.6</ele>
        <time>2017-07-24T10:22:52Z</time>
      </trkpt>
      <trkpt lat="44.5916500" lon="7.0302150">
        <ele>1816.8</ele>
        <time>2017-07-24T10:22:56Z</time>
      </trkpt>
      <trkpt lat="44.5917050" lon="7.0301430">
        <ele>1818.2</ele>
        <time>2017-07-24T10:22:59Z</time>
      </trkpt>
      <trkpt lat="44.5917280" lon="7.0301230">
        <ele>1818.6</ele>
        <time>2017-07-24T10:23:00Z</time>
      </trkpt>
      <trkpt lat="44.5917820" lon="7.0300590">
        <ele>1819.4</ele>
        <time>2017-07-24T10:23:03Z</time>
      </trkpt>
      <trkpt lat="44.5918610" lon="7.0299860">
        <ele>1820.8</ele>
        <time>2017-07-24T10:23:08Z</time>
      </trkpt>
      <trkpt lat="44.5919110" lon="7.0299490">
        <ele>1821.8</ele>
        <time>2017-07-24T10:23:11Z</time>
      </trkpt>
      <trkpt lat="44.5919770" lon="7.0299190">
        <ele>1822.6</ele>
        <time>2017-07-24T10:23:15Z</time>
      </trkpt>
      <trkpt lat="44.5919900" lon="7.0299070">
        <ele>1823.0</ele>
        <time>2017-07-24T10:23:16Z</time>
      </trkpt>
      <trkpt lat="44.5920880" lon="7.0298610">
        <ele>1824.0</ele>
        <time>2017-07-24T10:23:21Z</time>
      </trkpt>
      <trkpt lat="44.5921190" lon="7.0298440">
        <ele>1825.0</ele>
        <time>2017-07-24T10:23:23Z</time>
      </trkpt>
      <trkpt lat="44.5921760" lon="7.0297890">
        <ele>1826.2</ele>
        <time>2017-07-24T10:23:27Z</time>
      </trkpt>
      <trkpt lat="44.5922400" lon="7.0297510">
        <ele>1827.2</ele>
        <time>2017-07-24T10:23:31Z</time>
      </trkpt>
      <trkpt lat="44.5922820" lon="7.0297060">
        <ele>1828.0</ele>
        <time>2017-07-24T10:23:34Z</time>
      </trkpt>
      <trkpt lat="44.5922970" lon="7.0296910">
        <ele>1828.4</ele>
        <time>2017-07-24T10:23:35Z</time>
      </trkpt>
      <trkpt lat="44.5923590" lon="7.0296150">
        <ele>1829.6</ele>
        <time>2017-07-24T10:23:40Z</time>
      </trkpt>
      <trkpt lat="44.5924190" lon="7.0295480">
        <ele>1830.6</ele>
        <time>2017-07-24T10:23:44Z</time>
      </trkpt>
      <trkpt lat="44.5924600" lon="7.0295230">
        <ele>1831.6</ele>
        <time>2017-07-24T10:23:47Z</time>
      </trkpt>
      <trkpt lat="44.5924770" lon="7.0295230">
        <ele>1831.8</ele>
        <time>2017-07-24T10:23:48Z</time>
      </trkpt>
      <trkpt lat="44.5925790" lon="7.0295580">
        <ele>1832.8</ele>
        <time>2017-07-24T10:23:54Z</time>
      </trkpt>
      <trkpt lat="44.5925990" lon="7.0295660">
        <ele>1833.2</ele>
        <time>2017-07-24T10:23:55Z</time>
      </trkpt>
      <trkpt lat="44.5926760" lon="7.0295580">
        <ele>1834.2</ele>
        <time>2017-07-24T10:23:59Z</time>
      </trkpt>
      <trkpt lat="44.5927320" lon="7.0295740">
        <ele>1834.8</ele>
        <time>2017-07-24T10:24:02Z</time>
      </trkpt>
      <trkpt lat="44.5927710" lon="7.0295900">
        <ele>1835.2</ele>
        <time>2017-07-24T10:24:04Z</time>
      </trkpt>
      <trkpt lat="44.5928310" lon="7.0296580">
        <ele>1836.2</ele>
        <time>2017-07-24T10:24:08Z</time>
      </trkpt>
      <trkpt lat="44.5928440" lon="7.0296810">
        <ele>1836.4</ele>
        <time>2017-07-24T10:24:09Z</time>
      </trkpt>
      <trkpt lat="44.5929010" lon="7.0298020">
        <ele>1837.6</ele>
        <time>2017-07-24T10:24:14Z</time>
      </trkpt>
      <trkpt lat="44.5929460" lon="7.0298530">
        <ele>1838.0</ele>
        <time>2017-07-24T10:24:17Z</time>
      </trkpt>
      <trkpt lat="44.5929740" lon="7.0298880">
        <ele>1838.6</ele>
        <time>2017-07-24T10:24:19Z</time>
      </trkpt>
      <trkpt lat="44.5930310" lon="7.0299730">
        <ele>1839.6</ele>
        <time>2017-07-24T10:24:23Z</time>
      </trkpt>
      <trkpt lat="44.5930470" lon="7.0300190">
        <ele>1840.0</ele>
        <time>2017-07-24T10:24:25Z</time>
      </trkpt>
      <trkpt lat="44.5930700" lon="7.0300620">
        <ele>1840.6</ele>
        <time>2017-07-24T10:24:27Z</time>
      </trkpt>
      <trkpt lat="44.5931220" lon="7.0301250">
        <ele>1842.0</ele>
        <time>2017-07-24T10:24:31Z</time>
      </trkpt>
      <trkpt lat="44.5931320" lon="7.0301440">
        <ele>1842.2</ele>
        <time>2017-07-24T10:24:32Z</time>
      </trkpt>
      <trkpt lat="44.5931800" lon="7.0301870">
        <ele>1843.0</ele>
        <time>2017-07-24T10:24:35Z</time>
      </trkpt>
      <trkpt lat="44.5932270" lon="7.0302250">
        <ele>1844.0</ele>
        <time>2017-07-24T10:24:38Z</time>
      </trkpt>
      <trkpt lat="44.5932640" lon="7.0302170">
        <ele>1844.2</ele>
        <time>2017-07-24T10:24:40Z</time>
      </trkpt>
      <trkpt lat="44.5933180" lon="7.0301960">
        <ele>1845.0</ele>
        <time>2017-07-24T10:24:43Z</time>
      </trkpt>
      <trkpt lat="44.5933570" lon="7.0301850">
        <ele>1845.4</ele>
        <time>2017-07-24T10:24:45Z</time>
      </trkpt>
      <trkpt lat="44.5934270" lon="7.0301480">
        <ele>1846.6</ele>
        <time>2017-07-24T10:24:49Z</time>
      </trkpt>
      <trkpt lat="44.5934450" lon="7.0301410">
        <ele>1846.8</ele>
        <time>2017-07-24T10:24:50Z</time>
      </trkpt>
      <trkpt lat="44.5935330" lon="7.0301170">
        <ele>1847.6</ele>
        <time>2017-07-24T10:24:54Z</time>
      </trkpt>
      <trkpt lat="44.5936070" lon="7.0301110">
        <ele>1848.6</ele>
        <time>2017-07-24T10:24:58Z</time>
      </trkpt>
      <trkpt lat="44.5936260" lon="7.0301090">
        <ele>1848.6</ele>
        <time>2017-07-24T10:24:59Z</time>
      </trkpt>
      <trkpt lat="44.5937240" lon="7.0300640">
        <ele>1849.0</ele>
        <time>2017-07-24T10:25:05Z</time>
      </trkpt>
      <trkpt lat="44.5938280" lon="7.0300160">
        <ele>1849.6</ele>
        <time>2017-07-24T10:25:11Z</time>
      </trkpt>
      <trkpt lat="44.5938460" lon="7.0300080">
        <ele>1849.8</ele>
        <time>2017-07-24T10:25:12Z</time>
      </trkpt>
      <trkpt lat="44.5939470" lon="7.0299930">
        <ele>1850.6</ele>
        <time>2017-07-24T10:25:17Z</time>
      </trkpt>
      <trkpt lat="44.5940500" lon="7.0299550">
        <ele>1851.6</ele>
        <time>2017-07-24T10:25:22Z</time>
      </trkpt>
      <trkpt lat="44.5941040" lon="7.0299260">
        <ele>1852.4</ele>
        <time>2017-07-24T10:25:25Z</time>
      </trkpt>
      <trkpt lat="44.5941430" lon="7.0299150">
        <ele>1852.8</ele>
        <time>2017-07-24T10:25:27Z</time>
      </trkpt>
      <trkpt lat="44.5942250" lon="7.0298890">
        <ele>1853.6</ele>
        <time>2017-07-24T10:25:31Z</time>
      </trkpt>
      <trkpt lat="44.5942480" lon="7.0298810">
        <ele>1853.8</ele>
        <time>2017-07-24T10:25:32Z</time>
      </trkpt>
      <trkpt lat="44.5943390" lon="7.0299030">
        <ele>1854.8</ele>
        <time>2017-07-24T10:25:36Z</time>
      </trkpt>
      <trkpt lat="44.5943820" lon="7.0299300">
        <ele>1855.0</ele>
        <time>2017-07-24T10:25:38Z</time>
      </trkpt>
      <trkpt lat="44.5944670" lon="7.0300470">
        <ele>1855.6</ele>
        <time>2017-07-24T10:25:43Z</time>
      </trkpt>
      <trkpt lat="44.5945100" lon="7.0301340">
        <ele>1856.0</ele>
        <time>2017-07-24T10:25:46Z</time>
      </trkpt>
      <trkpt lat="44.5945920" lon="7.0302200">
        <ele>1856.4</ele>
        <time>2017-07-24T10:25:50Z</time>
      </trkpt>
      <trkpt lat="44.5946610" lon="7.0302440">
        <ele>1857.2</ele>
        <time>2017-07-24T10:25:53Z</time>
      </trkpt>
      <trkpt lat="44.5947330" lon="7.0302480">
        <ele>1858.2</ele>
        <time>2017-07-24T10:25:56Z</time>
      </trkpt>
      <trkpt lat="44.5947530" lon="7.0302490">
        <ele>1858.6</ele>
        <time>2017-07-24T10:25:57Z</time>
      </trkpt>
      <trkpt lat="44.5948420" lon="7.0302590">
        <ele>1859.6</ele>
        <time>2017-07-24T10:26:01Z</time>
      </trkpt>
      <trkpt lat="44.5949240" lon="7.0302580">
        <ele>1860.6</ele>
        <time>2017-07-24T10:26:05Z</time>
      </trkpt>
      <trkpt lat="44.5950020" lon="7.0302500">
        <ele>1862.0</ele>
        <time>2017-07-24T10:26:09Z</time>
      </trkpt>
      <trkpt lat="44.5950740" lon="7.0302470">
        <ele>1863.2</ele>
        <time>2017-07-24T10:26:13Z</time>
      </trkpt>
      <trkpt lat="44.5952190" lon="7.0302890">
        <ele>1864.4</ele>
        <time>2017-07-24T10:26:20Z</time>
      </trkpt>
      <trkpt lat="44.5952300" lon="7.0303110">
        <ele>1864.6</ele>
        <time>2017-07-24T10:26:21Z</time>
      </trkpt>
      <trkpt lat="44.5953250" lon="7.0303170">
        <ele>1864.8</ele>
        <time>2017-07-24T10:26:26Z</time>
      </trkpt>
      <trkpt lat="44.5953620" lon="7.0302650">
        <ele>1865.2</ele>
        <time>2017-07-24T10:26:28Z</time>
      </trkpt>
      <trkpt lat="44.5953770" lon="7.0302310">
        <ele>1865.4</ele>
        <time>2017-07-24T10:26:29Z</time>
      </trkpt>
      <trkpt lat="44.5953940" lon="7.0301950">
        <ele>1865.6</ele>
        <time>2017-07-24T10:26:30Z</time>
      </trkpt>
      <trkpt lat="44.5954310" lon="7.0301430">
        <ele>1866.0</ele>
        <time>2017-07-24T10:26:32Z</time>
      </trkpt>
      <trkpt lat="44.5954610" lon="7.0300810">
        <ele>1866.8</ele>
        <time>2017-07-24T10:26:34Z</time>
      </trkpt>
      <trkpt lat="44.5954820" lon="7.0300530">
        <ele>1867.4</ele>
        <time>2017-07-24T10:26:35Z</time>
      </trkpt>
      <trkpt lat="44.5955020" lon="7.0300310">
        <ele>1867.8</ele>
        <time>2017-07-24T10:26:36Z</time>
      </trkpt>
      <trkpt lat="44.5955840" lon="7.0299540">
        <ele>1869.0</ele>
        <time>2017-07-24T10:26:39Z</time>
      </trkpt>
      <trkpt lat="44.5956430" lon="7.0299290">
        <ele>1869.6</ele>
        <time>2017-07-24T10:26:41Z</time>
      </trkpt>
      <trkpt lat="44.5957050" lon="7.0299070">
        <ele>1870.2</ele>
        <time>2017-07-24T10:26:43Z</time>
      </trkpt>
      <trkpt lat="44.5958370" lon="7.0298500">
        <ele>1871.0</ele>
        <time>2017-07-24T10:26:47Z</time>
      </trkpt>
      <trkpt lat="44.5958710" lon="7.0298450">
        <ele>1871.2</ele>
        <time>2017-07-24T10:26:48Z</time>
      </trkpt>
      <trkpt lat="44.5959880" lon="7.0299160">
        <ele>1871.4</ele>
        <time>2017-07-24T10:26:51Z</time>
      </trkpt>
      <trkpt lat="44.5960060" lon="7.0299680">
        <ele>1871.4</ele>
        <time>2017-07-24T10:26:52Z</time>
      </trkpt>
      <trkpt lat="44.5959920" lon="7.0300890">
        <ele>1871.6</ele>
        <time>2017-07-24T10:26:54Z</time>
      </trkpt>
      <trkpt lat="44.5959740" lon="7.0303030">
        <ele>1872.0</ele>
        <time>2017-07-24T10:26:58Z</time>
      </trkpt>
      <trkpt lat="44.5959890" lon="7.0303470">
        <ele>1872.2</ele>
        <time>2017-07-24T10:26:59Z</time>
      </trkpt>
      <trkpt lat="44.5960490" lon="7.0304500">
        <ele>1873.0</ele>
        <time>2017-07-24T10:27:02Z</time>
      </trkpt>
      <trkpt lat="44.5960840" lon="7.0305130">
        <ele>1873.4</ele>
        <time>2017-07-24T10:27:04Z</time>
      </trkpt>
      <trkpt lat="44.5961270" lon="7.0305460">
        <ele>1874.2</ele>
        <time>2017-07-24T10:27:06Z</time>
      </trkpt>
      <trkpt lat="44.5961460" lon="7.0305590">
        <ele>1874.4</ele>
        <time>2017-07-24T10:27:07Z</time>
      </trkpt>
      <trkpt lat="44.5962230" lon="7.0305660">
        <ele>1875.6</ele>
        <time>2017-07-24T10:27:11Z</time>
      </trkpt>
      <trkpt lat="44.5962420" lon="7.0305650">
        <ele>1875.8</ele>
        <time>2017-07-24T10:27:12Z</time>
      </trkpt>
      <trkpt lat="44.5962980" lon="7.0305610">
        <ele>1876.6</ele>
        <time>2017-07-24T10:27:15Z</time>
      </trkpt>
      <trkpt lat="44.5963650" lon="7.0305490">
        <ele>1877.4</ele>
        <time>2017-07-24T10:27:19Z</time>
      </trkpt>
      <trkpt lat="44.5963810" lon="7.0305550">
        <ele>1877.6</ele>
        <time>2017-07-24T10:27:20Z</time>
      </trkpt>
      <trkpt lat="44.5964840" lon="7.0305880">
        <ele>1878.4</ele>
        <time>2017-07-24T10:27:26Z</time>
      </trkpt>
      <trkpt lat="44.5965310" lon="7.0306190">
        <ele>1878.6</ele>
        <time>2017-07-24T10:27:29Z</time>
      </trkpt>
      <trkpt lat="44.5965700" lon="7.0306410">
        <ele>1879.4</ele>
        <time>2017-07-24T10:27:32Z</time>
      </trkpt>
      <trkpt lat="44.5965970" lon="7.0306480">
        <ele>1880.0</ele>
        <time>2017-07-24T10:27:34Z</time>
      </trkpt>
      <trkpt lat="44.5966640" lon="7.0306740">
        <ele>1881.2</ele>
        <time>2017-07-24T10:27:38Z</time>
      </trkpt>
      <trkpt lat="44.5967050" lon="7.0306900">
        <ele>1882.0</ele>
        <time>2017-07-24T10:27:41Z</time>
      </trkpt>
      <trkpt lat="44.5967210" lon="7.0306950">
        <ele>1882.4</ele>
        <time>2017-07-24T10:27:42Z</time>
      </trkpt>
      <trkpt lat="44.5967570" lon="7.0307300">
        <ele>1883.4</ele>
        <time>2017-07-24T10:27:45Z</time>
      </trkpt>
      <trkpt lat="44.5967910" lon="7.0307860">
        <ele>1884.2</ele>
        <time>2017-07-24T10:27:48Z</time>
      </trkpt>
      <trkpt lat="44.5967960" lon="7.0308020">
        <ele>1884.4</ele>
        <time>2017-07-24T10:27:49Z</time>
      </trkpt>
      <trkpt lat="44.5968140" lon="7.0309200">
        <ele>1885.2</ele>
        <time>2017-07-24T10:27:55Z</time>
      </trkpt>
      <trkpt lat="44.5968200" lon="7.0309670">
        <ele>1885.4</ele>
        <time>2017-07-24T10:27:57Z</time>
      </trkpt>
      <trkpt lat="44.5968350" lon="7.0311070">
        <ele>1886.4</ele>
        <time>2017-07-24T10:28:03Z</time>
      </trkpt>
      <trkpt lat="44.5968330" lon="7.0311280">
        <ele>1886.6</ele>
        <time>2017-07-24T10:28:04Z</time>
      </trkpt>
      <trkpt lat="44.5968290" lon="7.0312420">
        <ele>1887.6</ele>
        <time>2017-07-24T10:28:09Z</time>
      </trkpt>
      <trkpt lat="44.5968230" lon="7.0312650">
        <ele>1887.8</ele>
        <time>2017-07-24T10:28:10Z</time>
      </trkpt>
      <trkpt lat="44.5968240" lon="7.0313330">
        <ele>1889.0</ele>
        <time>2017-07-24T10:28:14Z</time>
      </trkpt>
      <trkpt lat="44.5968250" lon="7.0313670">
        <ele>1889.8</ele>
        <time>2017-07-24T10:28:16Z</time>
      </trkpt>
      <trkpt lat="44.5968230" lon="7.0313870">
        <ele>1890.2</ele>
        <time>2017-07-24T10:28:17Z</time>
      </trkpt>
      <trkpt lat="44.5968220" lon="7.0314730">
        <ele>1891.2</ele>
        <time>2017-07-24T10:28:21Z</time>
      </trkpt>
      <trkpt lat="44.5968330" lon="7.0315110">
        <ele>1891.8</ele>
        <time>2017-07-24T10:28:23Z</time>
      </trkpt>
      <trkpt lat="44.5968550" lon="7.0315710">
        <ele>1892.4</ele>
        <time>2017-07-24T10:28:27Z</time>
      </trkpt>
      <trkpt lat="44.5968630" lon="7.0316100">
        <ele>1892.8</ele>
        <time>2017-07-24T10:28:29Z</time>
      </trkpt>
      <trkpt lat="44.5968880" lon="7.0316640">
        <ele>1893.6</ele>
        <time>2017-07-24T10:28:32Z</time>
      </trkpt>
      <trkpt lat="44.5969370" lon="7.0317290">
        <ele>1894.6</ele>
        <time>2017-07-24T10:28:37Z</time>
      </trkpt>
      <trkpt lat="44.5969750" lon="7.0317960">
        <ele>1895.8</ele>
        <time>2017-07-24T10:28:41Z</time>
      </trkpt>
      <trkpt lat="44.5970050" lon="7.0318450">
        <ele>1896.4</ele>
        <time>2017-07-24T10:28:44Z</time>
      </trkpt>
      <trkpt lat="44.5970370" lon="7.0318940">
        <ele>1896.8</ele>
        <time>2017-07-24T10:28:47Z</time>
      </trkpt>
      <trkpt lat="44.5970810" lon="7.0319800">
        <ele>1897.6</ele>
        <time>2017-07-24T10:28:52Z</time>
      </trkpt>
      <trkpt lat="44.5971020" lon="7.0320190">
        <ele>1898.0</ele>
        <time>2017-07-24T10:28:54Z</time>
      </trkpt>
      <trkpt lat="44.5971290" lon="7.0321120">
        <ele>1899.2</ele>
        <time>2017-07-24T10:28:59Z</time>
      </trkpt>
      <trkpt lat="44.5971570" lon="7.0321880">
        <ele>1900.4</ele>
        <time>2017-07-24T10:29:03Z</time>
      </trkpt>
      <trkpt lat="44.5971690" lon="7.0322520">
        <ele>1901.6</ele>
        <time>2017-07-24T10:29:06Z</time>
      </trkpt>
      <trkpt lat="44.5971710" lon="7.0322720">
        <ele>1901.8</ele>
        <time>2017-07-24T10:29:07Z</time>
      </trkpt>
      <trkpt lat="44.5971770" lon="7.0323300">
        <ele>1903.0</ele>
        <time>2017-07-24T10:29:10Z</time>
      </trkpt>
      <trkpt lat="44.5972000" lon="7.0323800">
        <ele>1904.0</ele>
        <time>2017-07-24T10:29:13Z</time>
      </trkpt>
      <trkpt lat="44.5972060" lon="7.0324000">
        <ele>1904.2</ele>
        <time>2017-07-24T10:29:14Z</time>
      </trkpt>
      <trkpt lat="44.5972240" lon="7.0324560">
        <ele>1905.2</ele>
        <time>2017-07-24T10:29:17Z</time>
      </trkpt>
      <trkpt lat="44.5972660" lon="7.0324770">
        <ele>1906.0</ele>
        <time>2017-07-24T10:29:20Z</time>
      </trkpt>
      <trkpt lat="44.5972920" lon="7.0325070">
        <ele>1906.4</ele>
        <time>2017-07-24T10:29:22Z</time>
      </trkpt>
      <trkpt lat="44.5973200" lon="7.0325630">
        <ele>1907.8</ele>
        <time>2017-07-24T10:29:25Z</time>
      </trkpt>
      <trkpt lat="44.5973330" lon="7.0325680">
        <ele>1908.0</ele>
        <time>2017-07-24T10:29:26Z</time>
      </trkpt>
      <trkpt lat="44.5973510" lon="7.0325930">
        <ele>1908.8</ele>
        <time>2017-07-24T10:29:28Z</time>
      </trkpt>
      <trkpt lat="44.5973690" lon="7.0326570">
        <ele>1910.0</ele>
        <time>2017-07-24T10:29:31Z</time>
      </trkpt>
      <trkpt lat="44.5973720" lon="7.0326960">
        <ele>1910.8</ele>
        <time>2017-07-24T10:29:33Z</time>
      </trkpt>
      <trkpt lat="44.5973720" lon="7.0327170">
        <ele>1911.0</ele>
        <time>2017-07-24T10:29:34Z</time>
      </trkpt>
      <trkpt lat="44.5973730" lon="7.0328110">
        <ele>1912.2</ele>
        <time>2017-07-24T10:29:38Z</time>
      </trkpt>
      <trkpt lat="44.5973580" lon="7.0328620">
        <ele>1912.8</ele>
        <time>2017-07-24T10:29:40Z</time>
      </trkpt>
      <trkpt lat="44.5973370" lon="7.0329080">
        <ele>1913.2</ele>
        <time>2017-07-24T10:29:42Z</time>
      </trkpt>
      <trkpt lat="44.5972980" lon="7.0330330">
        <ele>1914.6</ele>
        <time>2017-07-24T10:29:47Z</time>
      </trkpt>
      <trkpt lat="44.5972930" lon="7.0330570">
        <ele>1914.8</ele>
        <time>2017-07-24T10:29:48Z</time>
      </trkpt>
      <trkpt lat="44.5972900" lon="7.0331760">
        <ele>1915.8</ele>
        <time>2017-07-24T10:29:53Z</time>
      </trkpt>
      <trkpt lat="44.5973010" lon="7.0332180">
        <ele>1916.4</ele>
        <time>2017-07-24T10:29:55Z</time>
      </trkpt>
      <trkpt lat="44.5973260" lon="7.0332420">
        <ele>1917.0</ele>
        <time>2017-07-24T10:29:57Z</time>
      </trkpt>
      <trkpt lat="44.5973630" lon="7.0332920">
        <ele>1917.6</ele>
        <time>2017-07-24T10:30:01Z</time>
      </trkpt>
      <trkpt lat="44.5973710" lon="7.0333280">
        <ele>1918.2</ele>
        <time>2017-07-24T10:30:03Z</time>
      </trkpt>
      <trkpt lat="44.5973870" lon="7.0333780">
        <ele>1918.6</ele>
        <time>2017-07-24T10:30:06Z</time>
      </trkpt>
      <trkpt lat="44.5973970" lon="7.0334170">
        <ele>1919.0</ele>
        <time>2017-07-24T10:30:08Z</time>
      </trkpt>
      <trkpt lat="44.5974010" lon="7.0334360">
        <ele>1919.2</ele>
        <time>2017-07-24T10:30:09Z</time>
      </trkpt>
      <trkpt lat="44.5974190" lon="7.0334750">
        <ele>1920.4</ele>
        <time>2017-07-24T10:30:12Z</time>
      </trkpt>
      <trkpt lat="44.5974320" lon="7.0334810">
        <ele>1920.6</ele>
        <time>2017-07-24T10:30:13Z</time>
      </trkpt>
      <trkpt lat="44.5974550" lon="7.0334990">
        <ele>1920.8</ele>
        <time>2017-07-24T10:30:15Z</time>
      </trkpt>
      <trkpt lat="44.5974830" lon="7.0335400">
        <ele>1921.6</ele>
        <time>2017-07-24T10:30:18Z</time>
      </trkpt>
      <trkpt lat="44.5974940" lon="7.0335780">
        <ele>1922.0</ele>
        <time>2017-07-24T10:30:20Z</time>
      </trkpt>
      <trkpt lat="44.5975010" lon="7.0336230">
        <ele>1922.8</ele>
        <time>2017-07-24T10:30:22Z</time>
      </trkpt>
      <trkpt lat="44.5974910" lon="7.0336840">
        <ele>1923.0</ele>
        <time>2017-07-24T10:30:24Z</time>
      </trkpt>
      <trkpt lat="44.5974780" lon="7.0337070">
        <ele>1923.2</ele>
        <time>2017-07-24T10:30:25Z</time>
      </trkpt>
      <trkpt lat="44.5974250" lon="7.0337750">
        <ele>1923.8</ele>
        <time>2017-07-24T10:30:28Z</time>
      </trkpt>
      <trkpt lat="44.5973680" lon="7.0338360">
        <ele>1924.6</ele>
        <time>2017-07-24T10:30:31Z</time>
      </trkpt>
      <trkpt lat="44.5973370" lon="7.0338880">
        <ele>1925.0</ele>
        <time>2017-07-24T10:30:33Z</time>
      </trkpt>
      <trkpt lat="44.5972920" lon="7.0339380">
        <ele>1926.2</ele>
        <time>2017-07-24T10:30:36Z</time>
      </trkpt>
      <trkpt lat="44.5972830" lon="7.0339590">
        <ele>1926.6</ele>
        <time>2017-07-24T10:30:37Z</time>
      </trkpt>
      <trkpt lat="44.5972620" lon="7.0340310">
        <ele>1927.4</ele>
        <time>2017-07-24T10:30:40Z</time>
      </trkpt>
      <trkpt lat="44.5972550" lon="7.0341360">
        <ele>1928.6</ele>
        <time>2017-07-24T10:30:44Z</time>
      </trkpt>
      <trkpt lat="44.5972610" lon="7.0342260">
        <ele>1929.6</ele>
        <time>2017-07-24T10:30:48Z</time>
      </trkpt>
      <trkpt lat="44.5972620" lon="7.0342970">
        <ele>1930.2</ele>
        <time>2017-07-24T10:30:51Z</time>
      </trkpt>
      <trkpt lat="44.5972510" lon="7.0343650">
        <ele>1930.6</ele>
        <time>2017-07-24T10:30:54Z</time>
      </trkpt>
      <trkpt lat="44.5972230" lon="7.0344770">
        <ele>1932.0</ele>
        <time>2017-07-24T10:30:59Z</time>
      </trkpt>
      <trkpt lat="44.5972150" lon="7.0344990">
        <ele>1932.2</ele>
        <time>2017-07-24T10:31:00Z</time>
      </trkpt>
      <trkpt lat="44.5971840" lon="7.0345580">
        <ele>1933.0</ele>
        <time>2017-07-24T10:31:03Z</time>
      </trkpt>
      <trkpt lat="44.5971500" lon="7.0346520">
        <ele>1934.4</ele>
        <time>2017-07-24T10:31:08Z</time>
      </trkpt>
      <trkpt lat="44.5971440" lon="7.0346660">
        <ele>1934.6</ele>
        <time>2017-07-24T10:31:09Z</time>
      </trkpt>
      <trkpt lat="44.5971200" lon="7.0347510">
        <ele>1935.6</ele>
        <time>2017-07-24T10:31:13Z</time>
      </trkpt>
      <trkpt lat="44.5971180" lon="7.0347730">
        <ele>1936.0</ele>
        <time>2017-07-24T10:31:14Z</time>
      </trkpt>
      <trkpt lat="44.5971190" lon="7.0348590">
        <ele>1936.8</ele>
        <time>2017-07-24T10:31:18Z</time>
      </trkpt>
      <trkpt lat="44.5971120" lon="7.0349430">
        <ele>1938.0</ele>
        <time>2017-07-24T10:31:22Z</time>
      </trkpt>
      <trkpt lat="44.5971120" lon="7.0349660">
        <ele>1938.4</ele>
        <time>2017-07-24T10:31:23Z</time>
      </trkpt>
      <trkpt lat="44.5971070" lon="7.0350340">
        <ele>1939.2</ele>
        <time>2017-07-24T10:31:26Z</time>
      </trkpt>
      <trkpt lat="44.5971040" lon="7.0351190">
        <ele>1940.2</ele>
        <time>2017-07-24T10:31:30Z</time>
      </trkpt>
      <trkpt lat="44.5971060" lon="7.0351430">
        <ele>1940.4</ele>
        <time>2017-07-24T10:31:31Z</time>
      </trkpt>
      <trkpt lat="44.5971080" lon="7.0352320">
        <ele>1941.4</ele>
        <time>2017-07-24T10:31:35Z</time>
      </trkpt>
      <trkpt lat="44.5971050" lon="7.0353320">
        <ele>1942.6</ele>
        <time>2017-07-24T10:31:40Z</time>
      </trkpt>
      <trkpt lat="44.5971170" lon="7.0353930">
        <ele>1943.6</ele>
        <time>2017-07-24T10:31:43Z</time>
      </trkpt>
      <trkpt lat="44.5971210" lon="7.0354790">
        <ele>1944.8</ele>
        <time>2017-07-24T10:31:47Z</time>
      </trkpt>
      <trkpt lat="44.5971080" lon="7.0356040">
        <ele>1946.2</ele>
        <time>2017-07-24T10:31:52Z</time>
      </trkpt>
      <trkpt lat="44.5970910" lon="7.0356720">
        <ele>1946.8</ele>
        <time>2017-07-24T10:31:55Z</time>
      </trkpt>
      <trkpt lat="44.5970710" lon="7.0357060">
        <ele>1947.4</ele>
        <time>2017-07-24T10:31:57Z</time>
      </trkpt>
      <trkpt lat="44.5970430" lon="7.0357920">
        <ele>1948.6</ele>
        <time>2017-07-24T10:32:01Z</time>
      </trkpt>
      <trkpt lat="44.5970350" lon="7.0358130">
        <ele>1948.8</ele>
        <time>2017-07-24T10:32:02Z</time>
      </trkpt>
      <trkpt lat="44.5970170" lon="7.0358850">
        <ele>1949.6</ele>
        <time>2017-07-24T10:32:05Z</time>
      </trkpt>
      <trkpt lat="44.5969890" lon="7.0360020">
        <ele>1950.6</ele>
        <time>2017-07-24T10:32:10Z</time>
      </trkpt>
      <trkpt lat="44.5969850" lon="7.0360260">
        <ele>1951.0</ele>
        <time>2017-07-24T10:32:11Z</time>
      </trkpt>
      <trkpt lat="44.5969890" lon="7.0360680">
        <ele>1951.4</ele>
        <time>2017-07-24T10:32:13Z</time>
      </trkpt>
      <trkpt lat="44.5970180" lon="7.0360970">
        <ele>1952.0</ele>
        <time>2017-07-24T10:32:15Z</time>
      </trkpt>
      <trkpt lat="44.5970350" lon="7.0360990">
        <ele>1952.2</ele>
        <time>2017-07-24T10:32:16Z</time>
      </trkpt>
      <trkpt lat="44.5970660" lon="7.0360830">
        <ele>1952.8</ele>
        <time>2017-07-24T10:32:18Z</time>
      </trkpt>
      <trkpt lat="44.5970920" lon="7.0360500">
        <ele>1953.4</ele>
        <time>2017-07-24T10:32:20Z</time>
      </trkpt>
      <trkpt lat="44.5971400" lon="7.0359810">
        <ele>1954.4</ele>
        <time>2017-07-24T10:32:24Z</time>
      </trkpt>
      <trkpt lat="44.5971870" lon="7.0359230">
        <ele>1955.4</ele>
        <time>2017-07-24T10:32:28Z</time>
      </trkpt>
      <trkpt lat="44.5972720" lon="7.0358610">
        <ele>1956.6</ele>
        <time>2017-07-24T10:32:33Z</time>
      </trkpt>
      <trkpt lat="44.5973060" lon="7.0358580">
        <ele>1957.2</ele>
        <time>2017-07-24T10:32:35Z</time>
      </trkpt>
      <trkpt lat="44.5973390" lon="7.0358680">
        <ele>1957.8</ele>
        <time>2017-07-24T10:32:37Z</time>
      </trkpt>
      <trkpt lat="44.5974160" lon="7.0358870">
        <ele>1958.8</ele>
        <time>2017-07-24T10:32:42Z</time>
      </trkpt>
      <trkpt lat="44.5974820" lon="7.0358650">
        <ele>1959.8</ele>
        <time>2017-07-24T10:32:47Z</time>
      </trkpt>
      <trkpt lat="44.5974970" lon="7.0358530">
        <ele>1960.0</ele>
        <time>2017-07-24T10:32:48Z</time>
      </trkpt>
      <trkpt lat="44.5975630" lon="7.0357140">
        <ele>1960.8</ele>
        <time>2017-07-24T10:32:54Z</time>
      </trkpt>
      <trkpt lat="44.5975970" lon="7.0356160">
        <ele>1962.2</ele>
        <time>2017-07-24T10:32:59Z</time>
      </trkpt>
      <trkpt lat="44.5976180" lon="7.0355820">
        <ele>1962.8</ele>
        <time>2017-07-24T10:33:01Z</time>
      </trkpt>
      <trkpt lat="44.5976360" lon="7.0355310">
        <ele>1963.2</ele>
        <time>2017-07-24T10:33:04Z</time>
      </trkpt>
      <trkpt lat="44.5976710" lon="7.0354860">
        <ele>1964.0</ele>
        <time>2017-07-24T10:33:07Z</time>
      </trkpt>
      <trkpt lat="44.5976820" lon="7.0354690">
        <ele>1964.2</ele>
        <time>2017-07-24T10:33:08Z</time>
      </trkpt>
      <trkpt lat="44.5976910" lon="7.0354550">
        <ele>1964.4</ele>
        <time>2017-07-24T10:33:09Z</time>
      </trkpt>
      <trkpt lat="44.5977450" lon="7.0353720">
        <ele>1965.6</ele>
        <time>2017-07-24T10:33:14Z</time>
      </trkpt>
      <trkpt lat="44.5977570" lon="7.0353520">
        <ele>1965.8</ele>
        <time>2017-07-24T10:33:15Z</time>
      </trkpt>
      <trkpt lat="44.5978030" lon="7.0352900">
        <ele>1966.6</ele>
        <time>2017-07-24T10:33:19Z</time>
      </trkpt>
      <trkpt lat="44.5978430" lon="7.0352560">
        <ele>1967.2</ele>
        <time>2017-07-24T10:33:22Z</time>
      </trkpt>
      <trkpt lat="44.5978570" lon="7.0352440">
        <ele>1967.6</ele>
        <time>2017-07-24T10:33:23Z</time>
      </trkpt>
      <trkpt lat="44.5979040" lon="7.0351830">
        <ele>1968.8</ele>
        <time>2017-07-24T10:33:27Z</time>
      </trkpt>
      <trkpt lat="44.5979310" lon="7.0351650">
        <ele>1969.4</ele>
        <time>2017-07-24T10:33:29Z</time>
      </trkpt>
      <trkpt lat="44.5979680" lon="7.0351310">
        <ele>1970.0</ele>
        <time>2017-07-24T10:33:32Z</time>
      </trkpt>
      <trkpt lat="44.5980010" lon="7.0350880">
        <ele>1971.0</ele>
        <time>2017-07-24T10:33:35Z</time>
      </trkpt>
      <trkpt lat="44.5980100" lon="7.0350700">
        <ele>1971.2</ele>
        <time>2017-07-24T10:33:36Z</time>
      </trkpt>
      <trkpt lat="44.5980570" lon="7.0349750">
        <ele>1972.4</ele>
        <time>2017-07-24T10:33:41Z</time>
      </trkpt>
      <trkpt lat="44.5980650" lon="7.0349520">
        <ele>1972.6</ele>
        <time>2017-07-24T10:33:42Z</time>
      </trkpt>
      <trkpt lat="44.5981060" lon="7.0348380">
        <ele>1973.6</ele>
        <time>2017-07-24T10:33:48Z</time>
      </trkpt>
      <trkpt lat="44.5981240" lon="7.0348100">
        <ele>1974.0</ele>
        <time>2017-07-24T10:33:50Z</time>
      </trkpt>
      <trkpt lat="44.5981560" lon="7.0347590">
        <ele>1974.8</ele>
        <time>2017-07-24T10:33:53Z</time>
      </trkpt>
      <trkpt lat="44.5981940" lon="7.0346770">
        <ele>1975.6</ele>
        <time>2017-07-24T10:33:58Z</time>
      </trkpt>
      <trkpt lat="44.5982050" lon="7.0346630">
        <ele>1976.0</ele>
        <time>2017-07-24T10:33:59Z</time>
      </trkpt>
      <trkpt lat="44.5982600" lon="7.0345920">
        <ele>1977.2</ele>
        <time>2017-07-24T10:34:04Z</time>
      </trkpt>
      <trkpt lat="44.5982900" lon="7.0345630">
        <ele>1977.6</ele>
        <time>2017-07-24T10:34:06Z</time>
      </trkpt>
      <trkpt lat="44.5983190" lon="7.0345250">
        <ele>1978.2</ele>
        <time>2017-07-24T10:34:09Z</time>
      </trkpt>
      <trkpt lat="44.5983500" lon="7.0344690">
        <ele>1979.2</ele>
        <time>2017-07-24T10:34:12Z</time>
      </trkpt>
      <trkpt lat="44.5983610" lon="7.0344480">
        <ele>1979.4</ele>
        <time>2017-07-24T10:34:13Z</time>
      </trkpt>
      <trkpt lat="44.5983930" lon="7.0343830">
        <ele>1980.6</ele>
        <time>2017-07-24T10:34:16Z</time>
      </trkpt>
      <trkpt lat="44.5984230" lon="7.0342920">
        <ele>1981.6</ele>
        <time>2017-07-24T10:34:20Z</time>
      </trkpt>
      <trkpt lat="44.5984270" lon="7.0342710">
        <ele>1981.8</ele>
        <time>2017-07-24T10:34:21Z</time>
      </trkpt>
      <trkpt lat="44.5984390" lon="7.0342360">
        <ele>1982.4</ele>
        <time>2017-07-24T10:34:23Z</time>
      </trkpt>
      <trkpt lat="44.5984490" lon="7.0342210">
        <ele>1982.8</ele>
        <time>2017-07-24T10:34:24Z</time>
      </trkpt>
      <trkpt lat="44.5984560" lon="7.0342030">
        <ele>1983.0</ele>
        <time>2017-07-24T10:34:25Z</time>
      </trkpt>
      <trkpt lat="44.5984760" lon="7.0341520">
        <ele>1983.8</ele>
        <time>2017-07-24T10:34:28Z</time>
      </trkpt>
      <trkpt lat="44.5985060" lon="7.0340740">
        <ele>1985.0</ele>
        <time>2017-07-24T10:34:33Z</time>
      </trkpt>
      <trkpt lat="44.5985160" lon="7.0340420">
        <ele>1986.0</ele>
        <time>2017-07-24T10:34:35Z</time>
      </trkpt>
      <trkpt lat="44.5985380" lon="7.0339870">
        <ele>1987.2</ele>
        <time>2017-07-24T10:34:39Z</time>
      </trkpt>
      <trkpt lat="44.5985560" lon="7.0339440">
        <ele>1988.0</ele>
        <time>2017-07-24T10:34:42Z</time>
      </trkpt>
      <trkpt lat="44.5985780" lon="7.0339230">
        <ele>1988.4</ele>
        <time>2017-07-24T10:34:44Z</time>
      </trkpt>
      <trkpt lat="44.5985960" lon="7.0338970">
        <ele>1989.0</ele>
        <time>2017-07-24T10:34:46Z</time>
      </trkpt>
      <trkpt lat="44.5986220" lon="7.0338460">
        <ele>1989.6</ele>
        <time>2017-07-24T10:34:50Z</time>
      </trkpt>
      <trkpt lat="44.5986750" lon="7.0338030">
        <ele>1990.6</ele>
        <time>2017-07-24T10:34:55Z</time>
      </trkpt>
      <trkpt lat="44.5986990" lon="7.0337880">
        <ele>1991.2</ele>
        <time>2017-07-24T10:34:57Z</time>
      </trkpt>
      <trkpt lat="44.5987320" lon="7.0337750">
        <ele>1991.8</ele>
        <time>2017-07-24T10:35:00Z</time>
      </trkpt>
      <trkpt lat="44.5987640" lon="7.0337630">
        <ele>1992.6</ele>
        <time>2017-07-24T10:35:03Z</time>
      </trkpt>
      <trkpt lat="44.5988040" lon="7.0337530">
        <ele>1993.0</ele>
        <time>2017-07-24T10:35:06Z</time>
      </trkpt>
      <trkpt lat="44.5988510" lon="7.0337500">
        <ele>1993.8</ele>
        <time>2017-07-24T10:35:10Z</time>
      </trkpt>
      <trkpt lat="44.5988760" lon="7.0337580">
        <ele>1994.0</ele>
        <time>2017-07-24T10:35:12Z</time>
      </trkpt>
      <trkpt lat="44.5989190" lon="7.0337560">
        <ele>1994.6</ele>
        <time>2017-07-24T10:35:16Z</time>
      </trkpt>
      <trkpt lat="44.5989270" lon="7.0337460">
        <ele>1994.8</ele>
        <time>2017-07-24T10:35:17Z</time>
      </trkpt>
      <trkpt lat="44.5989360" lon="7.0337330">
        <ele>1995.0</ele>
        <time>2017-07-24T10:35:18Z</time>
      </trkpt>
      <trkpt lat="44.5989660" lon="7.0336620">
        <ele>1995.6</ele>
        <time>2017-07-24T10:35:22Z</time>
      </trkpt>
      <trkpt lat="44.5989720" lon="7.0336430">
        <ele>1996.0</ele>
        <time>2017-07-24T10:35:23Z</time>
      </trkpt>
      <trkpt lat="44.5989790" lon="7.0336210">
        <ele>1996.2</ele>
        <time>2017-07-24T10:35:24Z</time>
      </trkpt>
      <trkpt lat="44.5989990" lon="7.0335120">
        <ele>1996.8</ele>
        <time>2017-07-24T10:35:29Z</time>
      </trkpt>
      <trkpt lat="44.5990140" lon="7.0334450">
        <ele>1995.6</ele>
        <time>2017-07-24T10:36:34Z</time>
      </trkpt>
      <trkpt lat="44.5990140" lon="7.0334170">
        <ele>1995.6</ele>
        <time>2017-07-24T10:36:35Z</time>
      </trkpt>
      <trkpt lat="44.5990430" lon="7.0332860">
        <ele>1996.0</ele>
        <time>2017-07-24T10:36:41Z</time>
      </trkpt>
      <trkpt lat="44.5990650" lon="7.0332490">
        <ele>1996.6</ele>
        <time>2017-07-24T10:36:43Z</time>
      </trkpt>
      <trkpt lat="44.5990790" lon="7.0332140">
        <ele>1997.2</ele>
        <time>2017-07-24T10:36:45Z</time>
      </trkpt>
      <trkpt lat="44.5991020" lon="7.0331220">
        <ele>1998.0</ele>
        <time>2017-07-24T10:36:49Z</time>
      </trkpt>
      <trkpt lat="44.5991150" lon="7.0330800">
        <ele>1998.4</ele>
        <time>2017-07-24T10:36:51Z</time>
      </trkpt>
      <trkpt lat="44.5991390" lon="7.0329750">
        <ele>1999.4</ele>
        <time>2017-07-24T10:36:56Z</time>
      </trkpt>
      <trkpt lat="44.5991430" lon="7.0329370">
        <ele>2000.0</ele>
        <time>2017-07-24T10:36:58Z</time>
      </trkpt>
      <trkpt lat="44.5991520" lon="7.0329220">
        <ele>2000.4</ele>
        <time>2017-07-24T10:36:59Z</time>
      </trkpt>
      <trkpt lat="44.5991620" lon="7.0329070">
        <ele>2000.8</ele>
        <time>2017-07-24T10:37:00Z</time>
      </trkpt>
      <trkpt lat="44.5991840" lon="7.0328530">
        <ele>2001.8</ele>
        <time>2017-07-24T10:37:03Z</time>
      </trkpt>
      <trkpt lat="44.5991870" lon="7.0328310">
        <ele>2002.2</ele>
        <time>2017-07-24T10:37:04Z</time>
      </trkpt>
      <trkpt lat="44.5992080" lon="7.0327470">
        <ele>2003.2</ele>
        <time>2017-07-24T10:37:08Z</time>
      </trkpt>
      <trkpt lat="44.5992090" lon="7.0327260">
        <ele>2003.6</ele>
        <time>2017-07-24T10:37:09Z</time>
      </trkpt>
      <trkpt lat="44.5992110" lon="7.0327030">
        <ele>2003.8</ele>
        <time>2017-07-24T10:37:10Z</time>
      </trkpt>
      <trkpt lat="44.5992170" lon="7.0326410">
        <ele>2004.4</ele>
        <time>2017-07-24T10:37:13Z</time>
      </trkpt>
      <trkpt lat="44.5992150" lon="7.0326250">
        <ele>2004.6</ele>
        <time>2017-07-24T10:37:14Z</time>
      </trkpt>
      <trkpt lat="44.5992040" lon="7.0325900">
        <ele>2005.2</ele>
        <time>2017-07-24T10:37:16Z</time>
      </trkpt>
      <trkpt lat="44.5992060" lon="7.0325720">
        <ele>2005.6</ele>
        <time>2017-07-24T10:37:17Z</time>
      </trkpt>
      <trkpt lat="44.5992100" lon="7.0325020">
        <ele>2006.8</ele>
        <time>2017-07-24T10:37:21Z</time>
      </trkpt>
      <trkpt lat="44.5992080" lon="7.0324470">
        <ele>2008.0</ele>
        <time>2017-07-24T10:37:24Z</time>
      </trkpt>
      <trkpt lat="44.5991820" lon="7.0323540">
        <ele>2009.2</ele>
        <time>2017-07-24T10:37:29Z</time>
      </trkpt>
      <trkpt lat="44.5991480" lon="7.0322600">
        <ele>2010.2</ele>
        <time>2017-07-24T10:37:34Z</time>
      </trkpt>
      <trkpt lat="44.5991420" lon="7.0322430">
        <ele>2010.4</ele>
        <time>2017-07-24T10:37:35Z</time>
      </trkpt>
      <trkpt lat="44.5991340" lon="7.0322260">
        <ele>2010.8</ele>
        <time>2017-07-24T10:37:36Z</time>
      </trkpt>
      <trkpt lat="44.5991250" lon="7.0321900">
        <ele>2011.2</ele>
        <time>2017-07-24T10:37:38Z</time>
      </trkpt>
      <trkpt lat="44.5991130" lon="7.0321130">
        <ele>2012.2</ele>
        <time>2017-07-24T10:37:42Z</time>
      </trkpt>
      <trkpt lat="44.5991140" lon="7.0320930">
        <ele>2012.6</ele>
        <time>2017-07-24T10:37:43Z</time>
      </trkpt>
      <trkpt lat="44.5991060" lon="7.0320120">
        <ele>2013.6</ele>
        <time>2017-07-24T10:37:47Z</time>
      </trkpt>
      <trkpt lat="44.5991060" lon="7.0319720">
        <ele>2014.2</ele>
        <time>2017-07-24T10:37:49Z</time>
      </trkpt>
      <trkpt lat="44.5991090" lon="7.0319090">
        <ele>2014.8</ele>
        <time>2017-07-24T10:37:52Z</time>
      </trkpt>
      <trkpt lat="44.5990990" lon="7.0318000">
        <ele>2016.0</ele>
        <time>2017-07-24T10:37:57Z</time>
      </trkpt>
      <trkpt lat="44.5990840" lon="7.0316860">
        <ele>2017.0</ele>
        <time>2017-07-24T10:38:03Z</time>
      </trkpt>
      <trkpt lat="44.5990800" lon="7.0316660">
        <ele>2017.2</ele>
        <time>2017-07-24T10:38:04Z</time>
      </trkpt>
      <trkpt lat="44.5990720" lon="7.0315890">
        <ele>2018.2</ele>
        <time>2017-07-24T10:38:08Z</time>
      </trkpt>
      <trkpt lat="44.5990740" lon="7.0315510">
        <ele>2018.4</ele>
        <time>2017-07-24T10:38:10Z</time>
      </trkpt>
      <trkpt lat="44.5990680" lon="7.0315340">
        <ele>2019.0</ele>
        <time>2017-07-24T10:38:11Z</time>
      </trkpt>
      <trkpt lat="44.5990640" lon="7.0315150">
        <ele>2019.2</ele>
        <time>2017-07-24T10:38:12Z</time>
      </trkpt>
      <trkpt lat="44.5990490" lon="7.0314180">
        <ele>2020.2</ele>
        <time>2017-07-24T10:38:17Z</time>
      </trkpt>
      <trkpt lat="44.5990490" lon="7.0313980">
        <ele>2020.8</ele>
        <time>2017-07-24T10:38:18Z</time>
      </trkpt>
      <trkpt lat="44.5990500" lon="7.0313590">
        <ele>2021.4</ele>
        <time>2017-07-24T10:38:20Z</time>
      </trkpt>
      <trkpt lat="44.5990520" lon="7.0312900">
        <ele>2022.6</ele>
        <time>2017-07-24T10:38:24Z</time>
      </trkpt>
      <trkpt lat="44.5990520" lon="7.0312730">
        <ele>2022.8</ele>
        <time>2017-07-24T10:38:25Z</time>
      </trkpt>
      <trkpt lat="44.5990670" lon="7.0311910">
        <ele>2023.6</ele>
        <time>2017-07-24T10:38:29Z</time>
      </trkpt>
      <trkpt lat="44.5990800" lon="7.0311360">
        <ele>2024.4</ele>
        <time>2017-07-24T10:38:32Z</time>
      </trkpt>
      <trkpt lat="44.5990870" lon="7.0311200">
        <ele>2024.8</ele>
        <time>2017-07-24T10:38:33Z</time>
      </trkpt>
      <trkpt lat="44.5991090" lon="7.0310790">
        <ele>2026.0</ele>
        <time>2017-07-24T10:38:36Z</time>
      </trkpt>
      <trkpt lat="44.5991220" lon="7.0310520">
        <ele>2026.6</ele>
        <time>2017-07-24T10:38:38Z</time>
      </trkpt>
      <trkpt lat="44.5991330" lon="7.0310180">
        <ele>2027.0</ele>
        <time>2017-07-24T10:38:40Z</time>
      </trkpt>
      <trkpt lat="44.5991580" lon="7.0309220">
        <ele>2028.0</ele>
        <time>2017-07-24T10:38:45Z</time>
      </trkpt>
      <trkpt lat="44.5991650" lon="7.0309060">
        <ele>2028.0</ele>
        <time>2017-07-24T10:38:46Z</time>
      </trkpt>
      <trkpt lat="44.5991920" lon="7.0307680">
        <ele>2029.0</ele>
        <time>2017-07-24T10:38:53Z</time>
      </trkpt>
      <trkpt lat="44.5992100" lon="7.0306810">
        <ele>2030.0</ele>
        <time>2017-07-24T10:38:57Z</time>
      </trkpt>
      <trkpt lat="44.5992100" lon="7.0306600">
        <ele>2030.2</ele>
        <time>2017-07-24T10:38:58Z</time>
      </trkpt>
      <trkpt lat="44.5992120" lon="7.0306370">
        <ele>2030.4</ele>
        <time>2017-07-24T10:38:59Z</time>
      </trkpt>
      <trkpt lat="44.5992280" lon="7.0305580">
        <ele>2031.4</ele>
        <time>2017-07-24T10:39:03Z</time>
      </trkpt>
      <trkpt lat="44.5992490" lon="7.0305100">
        <ele>2032.2</ele>
        <time>2017-07-24T10:39:06Z</time>
      </trkpt>
      <trkpt lat="44.5992530" lon="7.0304950">
        <ele>2032.4</ele>
        <time>2017-07-24T10:39:07Z</time>
      </trkpt>
      <trkpt lat="44.5992690" lon="7.0304220">
        <ele>2033.4</ele>
        <time>2017-07-24T10:39:11Z</time>
      </trkpt>
      <trkpt lat="44.5992730" lon="7.0304040">
        <ele>2033.6</ele>
        <time>2017-07-24T10:39:12Z</time>
      </trkpt>
      <trkpt lat="44.5992910" lon="7.0303580">
        <ele>2034.6</ele>
        <time>2017-07-24T10:39:15Z</time>
      </trkpt>
      <trkpt lat="44.5993060" lon="7.0303080">
        <ele>2035.6</ele>
        <time>2017-07-24T10:39:18Z</time>
      </trkpt>
      <trkpt lat="44.5993190" lon="7.0302930">
        <ele>2036.0</ele>
        <time>2017-07-24T10:39:19Z</time>
      </trkpt>
      <trkpt lat="44.5993620" lon="7.0302700">
        <ele>2036.8</ele>
        <time>2017-07-24T10:39:22Z</time>
      </trkpt>
      <trkpt lat="44.5993750" lon="7.0302690">
        <ele>2037.4</ele>
        <time>2017-07-24T10:39:23Z</time>
      </trkpt>
      <trkpt lat="44.5993870" lon="7.0302630">
        <ele>2037.8</ele>
        <time>2017-07-24T10:39:24Z</time>
      </trkpt>
      <trkpt lat="44.5994330" lon="7.0302080">
        <ele>2038.8</ele>
        <time>2017-07-24T10:39:28Z</time>
      </trkpt>
      <trkpt lat="44.5994440" lon="7.0301620">
        <ele>2039.4</ele>
        <time>2017-07-24T10:39:30Z</time>
      </trkpt>
      <trkpt lat="44.5994110" lon="7.0300780">
        <ele>2040.0</ele>
        <time>2017-07-24T10:39:34Z</time>
      </trkpt>
      <trkpt lat="44.5993990" lon="7.0300610">
        <ele>2040.4</ele>
        <time>2017-07-24T10:39:35Z</time>
      </trkpt>
      <trkpt lat="44.5993570" lon="7.0299910">
        <ele>2041.2</ele>
        <time>2017-07-24T10:39:39Z</time>
      </trkpt>
      <trkpt lat="44.5993420" lon="7.0299310">
        <ele>2041.8</ele>
        <time>2017-07-24T10:39:42Z</time>
      </trkpt>
      <trkpt lat="44.5993320" lon="7.0298900">
        <ele>2042.2</ele>
        <time>2017-07-24T10:39:44Z</time>
      </trkpt>
      <trkpt lat="44.5993280" lon="7.0298680">
        <ele>2042.6</ele>
        <time>2017-07-24T10:39:45Z</time>
      </trkpt>
      <trkpt lat="44.5993250" lon="7.0297790">
        <ele>2043.2</ele>
        <time>2017-07-24T10:39:49Z</time>
      </trkpt>
      <trkpt lat="44.5993270" lon="7.0297180">
        <ele>2043.6</ele>
        <time>2017-07-24T10:39:52Z</time>
      </trkpt>
      <trkpt lat="44.5993590" lon="7.0296730">
        <ele>2044.4</ele>
        <time>2017-07-24T10:39:55Z</time>
      </trkpt>
      <trkpt lat="44.5994430" lon="7.0296800">
        <ele>2045.6</ele>
        <time>2017-07-24T10:40:01Z</time>
      </trkpt>
      <trkpt lat="44.5995170" lon="7.0297170">
        <ele>2046.6</ele>
        <time>2017-07-24T10:40:06Z</time>
      </trkpt>
      <trkpt lat="44.5995330" lon="7.0297270">
        <ele>2046.6</ele>
        <time>2017-07-24T10:40:07Z</time>
      </trkpt>
      <trkpt lat="44.5995940" lon="7.0297570">
        <ele>2047.8</ele>
        <time>2017-07-24T10:40:11Z</time>
      </trkpt>
      <trkpt lat="44.5996490" lon="7.0297710">
        <ele>2048.8</ele>
        <time>2017-07-24T10:40:15Z</time>
      </trkpt>
      <trkpt lat="44.5997120" lon="7.0297720">
        <ele>2049.8</ele>
        <time>2017-07-24T10:40:19Z</time>
      </trkpt>
      <trkpt lat="44.5997360" lon="7.0297730">
        <ele>2050.4</ele>
        <time>2017-07-24T10:40:21Z</time>
      </trkpt>
      <trkpt lat="44.5997900" lon="7.0297810">
        <ele>2051.0</ele>
        <time>2017-07-24T10:40:25Z</time>
      </trkpt>
      <trkpt lat="44.5998350" lon="7.0297790">
        <ele>2052.0</ele>
        <time>2017-07-24T10:40:28Z</time>
      </trkpt>
      <trkpt lat="44.5998520" lon="7.0297760">
        <ele>2052.2</ele>
        <time>2017-07-24T10:40:29Z</time>
      </trkpt>
      <trkpt lat="44.5999230" lon="7.0297450">
        <ele>2053.4</ele>
        <time>2017-07-24T10:40:34Z</time>
      </trkpt>
      <trkpt lat="44.5999980" lon="7.0297200">
        <ele>2054.6</ele>
        <time>2017-07-24T10:40:39Z</time>
      </trkpt>
      <trkpt lat="44.6000130" lon="7.0297150">
        <ele>2054.8</ele>
        <time>2017-07-24T10:40:40Z</time>
      </trkpt>
      <trkpt lat="44.6000730" lon="7.0296900">
        <ele>2055.8</ele>
        <time>2017-07-24T10:40:44Z</time>
      </trkpt>
      <trkpt lat="44.6001000" lon="7.0296980">
        <ele>2056.2</ele>
        <time>2017-07-24T10:40:46Z</time>
      </trkpt>
      <trkpt lat="44.6001380" lon="7.0297280">
        <ele>2056.8</ele>
        <time>2017-07-24T10:40:49Z</time>
      </trkpt>
      <trkpt lat="44.6001440" lon="7.0297450">
        <ele>2057.0</ele>
        <time>2017-07-24T10:40:50Z</time>
      </trkpt>
      <trkpt lat="44.6001620" lon="7.0297840">
        <ele>2057.4</ele>
        <time>2017-07-24T10:40:52Z</time>
      </trkpt>
      <trkpt lat="44.6001830" lon="7.0298230">
        <ele>2057.8</ele>
        <time>2017-07-24T10:40:54Z</time>
      </trkpt>
      <trkpt lat="44.6002290" lon="7.0298850">
        <ele>2059.0</ele>
        <time>2017-07-24T10:40:58Z</time>
      </trkpt>
      <trkpt lat="44.6002400" lon="7.0299010">
        <ele>2059.6</ele>
        <time>2017-07-24T10:40:59Z</time>
      </trkpt>
      <trkpt lat="44.6002650" lon="7.0299280">
        <ele>2060.2</ele>
        <time>2017-07-24T10:41:01Z</time>
      </trkpt>
      <trkpt lat="44.6003210" lon="7.0299980">
        <ele>2061.2</ele>
        <time>2017-07-24T10:41:06Z</time>
      </trkpt>
      <trkpt lat="44.6003450" lon="7.0300880">
        <ele>2062.2</ele>
        <time>2017-07-24T10:41:11Z</time>
      </trkpt>
      <trkpt lat="44.6003550" lon="7.0301270">
        <ele>2062.6</ele>
        <time>2017-07-24T10:41:13Z</time>
      </trkpt>
      <trkpt lat="44.6003680" lon="7.0301840">
        <ele>2063.2</ele>
        <time>2017-07-24T10:41:16Z</time>
      </trkpt>
      <trkpt lat="44.6003780" lon="7.0302970">
        <ele>2064.2</ele>
        <time>2017-07-24T10:41:21Z</time>
      </trkpt>
      <trkpt lat="44.6003820" lon="7.0303180">
        <ele>2064.4</ele>
        <time>2017-07-24T10:41:22Z</time>
      </trkpt>
      <trkpt lat="44.6003870" lon="7.0303850">
        <ele>2065.4</ele>
        <time>2017-07-24T10:41:25Z</time>
      </trkpt>
      <trkpt lat="44.6003940" lon="7.0304290">
        <ele>2065.8</ele>
        <time>2017-07-24T10:41:27Z</time>
      </trkpt>
      <trkpt lat="44.6004020" lon="7.0304920">
        <ele>2066.6</ele>
        <time>2017-07-24T10:41:30Z</time>
      </trkpt>
      <trkpt lat="44.6004030" lon="7.0305970">
        <ele>2067.8</ele>
        <time>2017-07-24T10:41:35Z</time>
      </trkpt>
      <trkpt lat="44.6004200" lon="7.0307200">
        <ele>2069.0</ele>
        <time>2017-07-24T10:41:41Z</time>
      </trkpt>
      <trkpt lat="44.6004210" lon="7.0307420">
        <ele>2069.2</ele>
        <time>2017-07-24T10:41:42Z</time>
      </trkpt>
      <trkpt lat="44.6004190" lon="7.0308420">
        <ele>2070.4</ele>
        <time>2017-07-24T10:41:47Z</time>
      </trkpt>
      <trkpt lat="44.6004160" lon="7.0308850">
        <ele>2071.0</ele>
        <time>2017-07-24T10:41:49Z</time>
      </trkpt>
      <trkpt lat="44.6004190" lon="7.0309080">
        <ele>2071.0</ele>
        <time>2017-07-24T10:41:50Z</time>
      </trkpt>
      <trkpt lat="44.6004150" lon="7.0309520">
        <ele>2071.4</ele>
        <time>2017-07-24T10:41:52Z</time>
      </trkpt>
      <trkpt lat="44.6004200" lon="7.0310610">
        <ele>2072.6</ele>
        <time>2017-07-24T10:41:57Z</time>
      </trkpt>
      <trkpt lat="44.6004150" lon="7.0312310">
        <ele>2073.8</ele>
        <time>2017-07-24T10:42:05Z</time>
      </trkpt>
      <trkpt lat="44.6004010" lon="7.0313120">
        <ele>2074.8</ele>
        <time>2017-07-24T10:42:09Z</time>
      </trkpt>
      <trkpt lat="44.6003920" lon="7.0313760">
        <ele>2075.6</ele>
        <time>2017-07-24T10:42:12Z</time>
      </trkpt>
      <trkpt lat="44.6003820" lon="7.0314200">
        <ele>2076.2</ele>
        <time>2017-07-24T10:42:14Z</time>
      </trkpt>
      <trkpt lat="44.6003670" lon="7.0315390">
        <ele>2077.4</ele>
        <time>2017-07-24T10:42:19Z</time>
      </trkpt>
      <trkpt lat="44.6003620" lon="7.0315820">
        <ele>2077.8</ele>
        <time>2017-07-24T10:42:21Z</time>
      </trkpt>
      <trkpt lat="44.6003560" lon="7.0316350">
        <ele>2078.6</ele>
        <time>2017-07-24T10:42:24Z</time>
      </trkpt>
      <trkpt lat="44.6003470" lon="7.0317130">
        <ele>2079.4</ele>
        <time>2017-07-24T10:42:28Z</time>
      </trkpt>
      <trkpt lat="44.6003430" lon="7.0317350">
        <ele>2079.8</ele>
        <time>2017-07-24T10:42:29Z</time>
      </trkpt>
      <trkpt lat="44.6003340" lon="7.0318420">
        <ele>2080.8</ele>
        <time>2017-07-24T10:42:34Z</time>
      </trkpt>
      <trkpt lat="44.6003260" lon="7.0319000">
        <ele>2082.0</ele>
        <time>2017-07-24T10:42:37Z</time>
      </trkpt>
      <trkpt lat="44.6003250" lon="7.0319630">
        <ele>2083.0</ele>
        <time>2017-07-24T10:42:40Z</time>
      </trkpt>
      <trkpt lat="44.6003230" lon="7.0320320">
        <ele>2083.6</ele>
        <time>2017-07-24T10:42:43Z</time>
      </trkpt>
      <trkpt lat="44.6003270" lon="7.0320700">
        <ele>2084.2</ele>
        <time>2017-07-24T10:42:45Z</time>
      </trkpt>
      <trkpt lat="44.6003370" lon="7.0321440">
        <ele>2085.4</ele>
        <time>2017-07-24T10:42:49Z</time>
      </trkpt>
      <trkpt lat="44.6003500" lon="7.0322530">
        <ele>2086.4</ele>
        <time>2017-07-24T10:42:54Z</time>
      </trkpt>
      <trkpt lat="44.6003550" lon="7.0322880">
        <ele>2086.8</ele>
        <time>2017-07-24T10:42:56Z</time>
      </trkpt>
      <trkpt lat="44.6003740" lon="7.0323400">
        <ele>2087.8</ele>
        <time>2017-07-24T10:42:59Z</time>
      </trkpt>
      <trkpt lat="44.6003780" lon="7.0324270">
        <ele>2089.0</ele>
        <time>2017-07-24T10:43:03Z</time>
      </trkpt>
      <trkpt lat="44.6003840" lon="7.0324470">
        <ele>2089.2</ele>
        <time>2017-07-24T10:43:04Z</time>
      </trkpt>
      <trkpt lat="44.6003890" lon="7.0325310">
        <ele>2090.0</ele>
        <time>2017-07-24T10:43:08Z</time>
      </trkpt>
      <trkpt lat="44.6003900" lon="7.0325990">
        <ele>2090.6</ele>
        <time>2017-07-24T10:43:11Z</time>
      </trkpt>
      <trkpt lat="44.6003920" lon="7.0326500">
        <ele>2091.0</ele>
        <time>2017-07-24T10:43:13Z</time>
      </trkpt>
      <trkpt lat="44.6003940" lon="7.0326720">
        <ele>2091.2</ele>
        <time>2017-07-24T10:43:14Z</time>
      </trkpt>
      <trkpt lat="44.6004050" lon="7.0327080">
        <ele>2091.6</ele>
        <time>2017-07-24T10:43:16Z</time>
      </trkpt>
      <trkpt lat="44.6004580" lon="7.0327370">
        <ele>2092.4</ele>
        <time>2017-07-24T10:43:20Z</time>
      </trkpt>
      <trkpt lat="44.6004720" lon="7.0327320">
        <ele>2092.6</ele>
        <time>2017-07-24T10:43:21Z</time>
      </trkpt>
      <trkpt lat="44.6005190" lon="7.0326740">
        <ele>2093.4</ele>
        <time>2017-07-24T10:43:25Z</time>
      </trkpt>
      <trkpt lat="44.6005360" lon="7.0326450">
        <ele>2093.6</ele>
        <time>2017-07-24T10:43:27Z</time>
      </trkpt>
      <trkpt lat="44.6005560" lon="7.0326170">
        <ele>2093.8</ele>
        <time>2017-07-24T10:43:29Z</time>
      </trkpt>
      <trkpt lat="44.6006050" lon="7.0325940">
        <ele>2094.4</ele>
        <time>2017-07-24T10:43:32Z</time>
      </trkpt>
      <trkpt lat="44.6006260" lon="7.0325920">
        <ele>2094.6</ele>
        <time>2017-07-24T10:43:33Z</time>
      </trkpt>
      <trkpt lat="44.6007150" lon="7.0325980">
        <ele>2095.2</ele>
        <time>2017-07-24T10:43:38Z</time>
      </trkpt>
      <trkpt lat="44.6007540" lon="7.0326110">
        <ele>2095.6</ele>
        <time>2017-07-24T10:43:40Z</time>
      </trkpt>
      <trkpt lat="44.6008620" lon="7.0326320">
        <ele>2096.8</ele>
        <time>2017-07-24T10:43:45Z</time>
      </trkpt>
      <trkpt lat="44.6009460" lon="7.0326240">
        <ele>2098.0</ele>
        <time>2017-07-24T10:43:49Z</time>
      </trkpt>
      <trkpt lat="44.6010140" lon="7.0325740">
        <ele>2099.0</ele>
        <time>2017-07-24T10:43:53Z</time>
      </trkpt>
      <trkpt lat="44.6010300" lon="7.0325630">
        <ele>2099.4</ele>
        <time>2017-07-24T10:43:54Z</time>
      </trkpt>
      <trkpt lat="44.6010990" lon="7.0324900">
        <ele>2100.6</ele>
        <time>2017-07-24T10:43:59Z</time>
      </trkpt>
      <trkpt lat="44.6011560" lon="7.0323960">
        <ele>2101.6</ele>
        <time>2017-07-24T10:44:04Z</time>
      </trkpt>
      <trkpt lat="44.6011880" lon="7.0323600">
        <ele>2102.0</ele>
        <time>2017-07-24T10:44:07Z</time>
      </trkpt>
      <trkpt lat="44.6012170" lon="7.0323160">
        <ele>2102.8</ele>
        <time>2017-07-24T10:44:10Z</time>
      </trkpt>
      <trkpt lat="44.6012560" lon="7.0322830">
        <ele>2103.4</ele>
        <time>2017-07-24T10:44:13Z</time>
      </trkpt>
      <trkpt lat="44.6012890" lon="7.0322440">
        <ele>2103.8</ele>
        <time>2017-07-24T10:44:16Z</time>
      </trkpt>
      <trkpt lat="44.6013260" lon="7.0322080">
        <ele>2104.4</ele>
        <time>2017-07-24T10:44:19Z</time>
      </trkpt>
      <trkpt lat="44.6014050" lon="7.0321380">
        <ele>2105.0</ele>
        <time>2017-07-24T10:44:25Z</time>
      </trkpt>
      <trkpt lat="44.6014160" lon="7.0321240">
        <ele>2105.2</ele>
        <time>2017-07-24T10:44:26Z</time>
      </trkpt>
      <trkpt lat="44.6014280" lon="7.0321120">
        <ele>2105.4</ele>
        <time>2017-07-24T10:44:27Z</time>
      </trkpt>
      <trkpt lat="44.6014740" lon="7.0319950">
        <ele>2106.0</ele>
        <time>2017-07-24T10:44:33Z</time>
      </trkpt>
      <trkpt lat="44.6014880" lon="7.0319220">
        <ele>2106.8</ele>
        <time>2017-07-24T10:44:37Z</time>
      </trkpt>
      <trkpt lat="44.6014920" lon="7.0318790">
        <ele>2107.4</ele>
        <time>2017-07-24T10:44:39Z</time>
      </trkpt>
      <trkpt lat="44.6014980" lon="7.0318570">
        <ele>2107.6</ele>
        <time>2017-07-24T10:44:40Z</time>
      </trkpt>
      <trkpt lat="44.6015330" lon="7.0317260">
        <ele>2108.2</ele>
        <time>2017-07-24T10:44:46Z</time>
      </trkpt>
      <trkpt lat="44.6015380" lon="7.0317100">
        <ele>2108.6</ele>
        <time>2017-07-24T10:44:47Z</time>
      </trkpt>
      <trkpt lat="44.6015810" lon="7.0315910">
        <ele>2109.6</ele>
        <time>2017-07-24T10:44:53Z</time>
      </trkpt>
      <trkpt lat="44.6015910" lon="7.0315730">
        <ele>2110.0</ele>
        <time>2017-07-24T10:44:54Z</time>
      </trkpt>
      <trkpt lat="44.6016220" lon="7.0315180">
        <ele>2110.8</ele>
        <time>2017-07-24T10:44:57Z</time>
      </trkpt>
      <trkpt lat="44.6016740" lon="7.0314310">
        <ele>2112.0</ele>
        <time>2017-07-24T10:45:02Z</time>
      </trkpt>
      <trkpt lat="44.6017380" lon="7.0313660">
        <ele>2113.2</ele>
        <time>2017-07-24T10:45:07Z</time>
      </trkpt>
      <trkpt lat="44.6017500" lon="7.0313510">
        <ele>2113.2</ele>
        <time>2017-07-24T10:45:08Z</time>
      </trkpt>
      <trkpt lat="44.6017820" lon="7.0312880">
        <ele>2114.2</ele>
        <time>2017-07-24T10:45:12Z</time>
      </trkpt>
      <trkpt lat="44.6017910" lon="7.0312730">
        <ele>2114.4</ele>
        <time>2017-07-24T10:45:13Z</time>
      </trkpt>
      <trkpt lat="44.6018370" lon="7.0311890">
        <ele>2115.4</ele>
        <time>2017-07-24T10:45:18Z</time>
      </trkpt>
      <trkpt lat="44.6018480" lon="7.0311700">
        <ele>2115.6</ele>
        <time>2017-07-24T10:45:19Z</time>
      </trkpt>
      <trkpt lat="44.6018790" lon="7.0311150">
        <ele>2116.4</ele>
        <time>2017-07-24T10:45:22Z</time>
      </trkpt>
      <trkpt lat="44.6018960" lon="7.0310730">
        <ele>2116.8</ele>
        <time>2017-07-24T10:45:24Z</time>
      </trkpt>
      <trkpt lat="44.6019020" lon="7.0310490">
        <ele>2117.0</ele>
        <time>2017-07-24T10:45:25Z</time>
      </trkpt>
      <trkpt lat="44.6019090" lon="7.0310270">
        <ele>2117.4</ele>
        <time>2017-07-24T10:45:26Z</time>
      </trkpt>
      <trkpt lat="44.6019390" lon="7.0308910">
        <ele>2118.6</ele>
        <time>2017-07-24T10:45:32Z</time>
      </trkpt>
      <trkpt lat="44.6019420" lon="7.0308140">
        <ele>2119.6</ele>
        <time>2017-07-24T10:45:35Z</time>
      </trkpt>
      <trkpt lat="44.6019490" lon="7.0307350">
        <ele>2120.6</ele>
        <time>2017-07-24T10:45:38Z</time>
      </trkpt>
      <trkpt lat="44.6019510" lon="7.0307100">
        <ele>2120.8</ele>
        <time>2017-07-24T10:45:39Z</time>
      </trkpt>
      <trkpt lat="44.6019580" lon="7.0306090">
        <ele>2121.8</ele>
        <time>2017-07-24T10:45:43Z</time>
      </trkpt>
      <trkpt lat="44.6019680" lon="7.0305420">
        <ele>2122.4</ele>
        <time>2017-07-24T10:45:46Z</time>
      </trkpt>
      <trkpt lat="44.6019730" lon="7.0304960">
        <ele>2123.0</ele>
        <time>2017-07-24T10:45:48Z</time>
      </trkpt>
      <trkpt lat="44.6019920" lon="7.0303850">
        <ele>2124.2</ele>
        <time>2017-07-24T10:45:53Z</time>
      </trkpt>
      <trkpt lat="44.6020000" lon="7.0302340">
        <ele>2125.2</ele>
        <time>2017-07-24T10:45:59Z</time>
      </trkpt>
      <trkpt lat="44.6020070" lon="7.0301920">
        <ele>2125.6</ele>
        <time>2017-07-24T10:46:01Z</time>
      </trkpt>
      <trkpt lat="44.6020150" lon="7.0301170">
        <ele>2126.4</ele>
        <time>2017-07-24T10:46:04Z</time>
      </trkpt>
      <trkpt lat="44.6020180" lon="7.0300490">
        <ele>2126.6</ele>
        <time>2017-07-24T10:46:07Z</time>
      </trkpt>
      <trkpt lat="44.6020220" lon="7.0299200">
        <ele>2127.4</ele>
        <time>2017-07-24T10:46:12Z</time>
      </trkpt>
      <trkpt lat="44.6020430" lon="7.0296940">
        <ele>2128.4</ele>
        <time>2017-07-24T10:46:18Z</time>
      </trkpt>
      <trkpt lat="44.6020430" lon="7.0296560">
        <ele>2128.6</ele>
        <time>2017-07-24T10:46:19Z</time>
      </trkpt>
      <trkpt lat="44.6020440" lon="7.0294370">
        <ele>2129.6</ele>
        <time>2017-07-24T10:46:24Z</time>
      </trkpt>
      <trkpt lat="44.6020460" lon="7.0294010">
        <ele>2129.6</ele>
        <time>2017-07-24T10:46:25Z</time>
      </trkpt>
      <trkpt lat="44.6020280" lon="7.0291600">
        <ele>2130.6</ele>
        <time>2017-07-24T10:46:31Z</time>
      </trkpt>
      <trkpt lat="44.6020250" lon="7.0291150">
        <ele>2130.8</ele>
        <time>2017-07-24T10:46:32Z</time>
      </trkpt>
      <trkpt lat="44.6019920" lon="7.0287630">
        <ele>2131.8</ele>
        <time>2017-07-24T10:46:40Z</time>
      </trkpt>
      <trkpt lat="44.6020160" lon="7.0286610">
        <ele>2132.4</ele>
        <time>2017-07-24T10:46:43Z</time>
      </trkpt>
      <trkpt lat="44.6020370" lon="7.0286580">
        <ele>2132.6</ele>
        <time>2017-07-24T10:46:44Z</time>
      </trkpt>
      <trkpt lat="44.6020800" lon="7.0286910">
        <ele>2132.8</ele>
        <time>2017-07-24T10:46:46Z</time>
      </trkpt>
      <trkpt lat="44.6021080" lon="7.0287420">
        <ele>2133.2</ele>
        <time>2017-07-24T10:46:48Z</time>
      </trkpt>
      <trkpt lat="44.6021220" lon="7.0287940">
        <ele>2133.6</ele>
        <time>2017-07-24T10:46:50Z</time>
      </trkpt>
      <trkpt lat="44.6021380" lon="7.0288430">
        <ele>2134.0</ele>
        <time>2017-07-24T10:46:52Z</time>
      </trkpt>
      <trkpt lat="44.6021560" lon="7.0288960">
        <ele>2134.4</ele>
        <time>2017-07-24T10:46:54Z</time>
      </trkpt>
      <trkpt lat="44.6021860" lon="7.0289810">
        <ele>2135.2</ele>
        <time>2017-07-24T10:46:57Z</time>
      </trkpt>
      <trkpt lat="44.6022290" lon="7.0290920">
        <ele>2136.2</ele>
        <time>2017-07-24T10:47:01Z</time>
      </trkpt>
      <trkpt lat="44.6022450" lon="7.0291150">
        <ele>2136.6</ele>
        <time>2017-07-24T10:47:02Z</time>
      </trkpt>
      <trkpt lat="44.6022860" lon="7.0291890">
        <ele>2137.4</ele>
        <time>2017-07-24T10:47:05Z</time>
      </trkpt>
      <trkpt lat="44.6023090" lon="7.0292750">
        <ele>2138.4</ele>
        <time>2017-07-24T10:47:08Z</time>
      </trkpt>
      <trkpt lat="44.6023520" lon="7.0293840">
        <ele>2139.6</ele>
        <time>2017-07-24T10:47:12Z</time>
      </trkpt>
      <trkpt lat="44.6023800" lon="7.0294730">
        <ele>2140.4</ele>
        <time>2017-07-24T10:47:15Z</time>
      </trkpt>
      <trkpt lat="44.6023940" lon="7.0295330">
        <ele>2140.8</ele>
        <time>2017-07-24T10:47:17Z</time>
      </trkpt>
      <trkpt lat="44.6024240" lon="7.0296590">
        <ele>2141.8</ele>
        <time>2017-07-24T10:47:21Z</time>
      </trkpt>
      <trkpt lat="44.6024330" lon="7.0296940">
        <ele>2142.0</ele>
        <time>2017-07-24T10:47:22Z</time>
      </trkpt>
      <trkpt lat="44.6024460" lon="7.0298640">
        <ele>2143.2</ele>
        <time>2017-07-24T10:47:27Z</time>
      </trkpt>
      <trkpt lat="44.6024510" lon="7.0299280">
        <ele>2143.8</ele>
        <time>2017-07-24T10:47:29Z</time>
      </trkpt>
      <trkpt lat="44.6024570" lon="7.0299850">
        <ele>2144.2</ele>
        <time>2017-07-24T10:47:31Z</time>
      </trkpt>
      <trkpt lat="44.6024920" lon="7.0301770">
        <ele>2145.2</ele>
        <time>2017-07-24T10:47:37Z</time>
      </trkpt>
      <trkpt lat="44.6024990" lon="7.0302090">
        <ele>2145.2</ele>
        <time>2017-07-24T10:47:38Z</time>
      </trkpt>
      <trkpt lat="44.6025400" lon="7.0303760">
        <ele>2146.4</ele>
        <time>2017-07-24T10:47:44Z</time>
      </trkpt>
      <trkpt lat="44.6025500" lon="7.0304050">
        <ele>2146.4</ele>
        <time>2017-07-24T10:47:45Z</time>
      </trkpt>
      <trkpt lat="44.6025930" lon="7.0305220">
        <ele>2147.6</ele>
        <time>2017-07-24T10:47:49Z</time>
      </trkpt>
      <trkpt lat="44.6026310" lon="7.0306640">
        <ele>2148.4</ele>
        <time>2017-07-24T10:47:54Z</time>
      </trkpt>
      <trkpt lat="44.6026420" lon="7.0306950">
        <ele>2148.6</ele>
        <time>2017-07-24T10:47:55Z</time>
      </trkpt>
      <trkpt lat="44.6026860" lon="7.0308390">
        <ele>2149.4</ele>
        <time>2017-07-24T10:48:00Z</time>
      </trkpt>
      <trkpt lat="44.6026920" lon="7.0308660">
        <ele>2149.8</ele>
        <time>2017-07-24T10:48:01Z</time>
      </trkpt>
      <trkpt lat="44.6027140" lon="7.0310160">
        <ele>2150.8</ele>
        <time>2017-07-24T10:48:07Z</time>
      </trkpt>
      <trkpt lat="44.6027510" lon="7.0312090">
        <ele>2152.0</ele>
        <time>2017-07-24T10:48:14Z</time>
      </trkpt>
      <trkpt lat="44.6028120" lon="7.0314030">
        <ele>2153.2</ele>
        <time>2017-07-24T10:48:22Z</time>
      </trkpt>
      <trkpt lat="44.6028470" lon="7.0315030">
        <ele>2154.2</ele>
        <time>2017-07-24T10:48:27Z</time>
      </trkpt>
      <trkpt lat="44.6028680" lon="7.0315460">
        <ele>2154.6</ele>
        <time>2017-07-24T10:48:29Z</time>
      </trkpt>
      <trkpt lat="44.6028900" lon="7.0316130">
        <ele>2155.2</ele>
        <time>2017-07-24T10:48:32Z</time>
      </trkpt>
      <trkpt lat="44.6029170" lon="7.0317040">
        <ele>2156.6</ele>
        <time>2017-07-24T10:48:36Z</time>
      </trkpt>
      <trkpt lat="44.6029250" lon="7.0317280">
        <ele>2156.8</ele>
        <time>2017-07-24T10:48:37Z</time>
      </trkpt>
      <trkpt lat="44.6029520" lon="7.0318200">
        <ele>2157.8</ele>
        <time>2017-07-24T10:48:41Z</time>
      </trkpt>
      <trkpt lat="44.6029690" lon="7.0318930">
        <ele>2158.2</ele>
        <time>2017-07-24T10:48:44Z</time>
      </trkpt>
      <trkpt lat="44.6029750" lon="7.0319450">
        <ele>2158.8</ele>
        <time>2017-07-24T10:48:46Z</time>
      </trkpt>
      <trkpt lat="44.6029690" lon="7.0320690">
        <ele>2160.0</ele>
        <time>2017-07-24T10:48:51Z</time>
      </trkpt>
      <trkpt lat="44.6029510" lon="7.0321890">
        <ele>2161.2</ele>
        <time>2017-07-24T10:48:56Z</time>
      </trkpt>
      <trkpt lat="44.6029490" lon="7.0322100">
        <ele>2161.4</ele>
        <time>2017-07-24T10:48:57Z</time>
      </trkpt>
      <trkpt lat="44.6029400" lon="7.0323190">
        <ele>2162.4</ele>
        <time>2017-07-24T10:49:02Z</time>
      </trkpt>
      <trkpt lat="44.6029320" lon="7.0323640">
        <ele>2162.6</ele>
        <time>2017-07-24T10:49:04Z</time>
      </trkpt>
      <trkpt lat="44.6029260" lon="7.0324470">
        <ele>2163.4</ele>
        <time>2017-07-24T10:49:08Z</time>
      </trkpt>
      <trkpt lat="44.6029250" lon="7.0324900">
        <ele>2163.8</ele>
        <time>2017-07-24T10:49:10Z</time>
      </trkpt>
      <trkpt lat="44.6029300" lon="7.0325990">
        <ele>2164.6</ele>
        <time>2017-07-24T10:49:15Z</time>
      </trkpt>
      <trkpt lat="44.6029560" lon="7.0327150">
        <ele>2164.4</ele>
        <time>2017-07-24T10:49:20Z</time>
      </trkpt>
      <trkpt lat="44.6029730" lon="7.0327500">
        <ele>2164.4</ele>
        <time>2017-07-24T10:49:22Z</time>
      </trkpt>
      <trkpt lat="44.6029860" lon="7.0328170">
        <ele>2164.2</ele>
        <time>2017-07-24T10:49:25Z</time>
      </trkpt>
      <trkpt lat="44.6029870" lon="7.0328390">
        <ele>2164.2</ele>
        <time>2017-07-24T10:49:26Z</time>
      </trkpt>
      <trkpt lat="44.6030240" lon="7.0329730">
        <ele>2164.8</ele>
        <time>2017-07-24T10:49:33Z</time>
      </trkpt>
      <trkpt lat="44.6030460" lon="7.0331110">
        <ele>2165.6</ele>
        <time>2017-07-24T10:49:39Z</time>
      </trkpt>
      <trkpt lat="44.6030500" lon="7.0331320">
        <ele>2166.0</ele>
        <time>2017-07-24T10:49:40Z</time>
      </trkpt>
      <trkpt lat="44.6030640" lon="7.0331980">
        <ele>2167.0</ele>
        <time>2017-07-24T10:49:43Z</time>
      </trkpt>
      <trkpt lat="44.6030840" lon="7.0332840">
        <ele>2168.2</ele>
        <time>2017-07-24T10:49:47Z</time>
      </trkpt>
      <trkpt lat="44.6030930" lon="7.0333370">
        <ele>2169.2</ele>
        <time>2017-07-24T10:49:49Z</time>
      </trkpt>
      <trkpt lat="44.6031020" lon="7.0334270">
        <ele>2170.2</ele>
        <time>2017-07-24T10:49:53Z</time>
      </trkpt>
      <trkpt lat="44.6030920" lon="7.0335210">
        <ele>2171.4</ele>
        <time>2017-07-24T10:49:57Z</time>
      </trkpt>
      <trkpt lat="44.6030740" lon="7.0336090">
        <ele>2172.6</ele>
        <time>2017-07-24T10:50:01Z</time>
      </trkpt>
      <trkpt lat="44.6030490" lon="7.0336940">
        <ele>2173.6</ele>
        <time>2017-07-24T10:50:05Z</time>
      </trkpt>
      <trkpt lat="44.6030210" lon="7.0337590">
        <ele>2174.6</ele>
        <time>2017-07-24T10:50:08Z</time>
      </trkpt>
      <trkpt lat="44.6030140" lon="7.0337790">
        <ele>2174.8</ele>
        <time>2017-07-24T10:50:09Z</time>
      </trkpt>
      <trkpt lat="44.6029860" lon="7.0338360">
        <ele>2176.2</ele>
        <time>2017-07-24T10:50:12Z</time>
      </trkpt>
      <trkpt lat="44.6029460" lon="7.0338990">
        <ele>2176.8</ele>
        <time>2017-07-24T10:50:16Z</time>
      </trkpt>
      <trkpt lat="44.6029360" lon="7.0339120">
        <ele>2177.2</ele>
        <time>2017-07-24T10:50:17Z</time>
      </trkpt>
      <trkpt lat="44.6028730" lon="7.0339830">
        <ele>2178.2</ele>
        <time>2017-07-24T10:50:22Z</time>
      </trkpt>
      <trkpt lat="44.6028110" lon="7.0340690">
        <ele>2179.6</ele>
        <time>2017-07-24T10:50:28Z</time>
      </trkpt>
      <trkpt lat="44.6028020" lon="7.0340870">
        <ele>2179.8</ele>
        <time>2017-07-24T10:50:29Z</time>
      </trkpt>
      <trkpt lat="44.6027810" lon="7.0341130">
        <ele>2180.4</ele>
        <time>2017-07-24T10:50:31Z</time>
      </trkpt>
      <trkpt lat="44.6027550" lon="7.0341340">
        <ele>2180.8</ele>
        <time>2017-07-24T10:50:33Z</time>
      </trkpt>
      <trkpt lat="44.6027440" lon="7.0341700">
        <ele>2181.0</ele>
        <time>2017-07-24T10:50:35Z</time>
      </trkpt>
      <trkpt lat="44.6027410" lon="7.0341880">
        <ele>2181.4</ele>
        <time>2017-07-24T10:50:36Z</time>
      </trkpt>
      <trkpt lat="44.6027150" lon="7.0342600">
        <ele>2181.8</ele>
        <time>2017-07-24T10:50:40Z</time>
      </trkpt>
      <trkpt lat="44.6027110" lon="7.0342790">
        <ele>2182.0</ele>
        <time>2017-07-24T10:50:41Z</time>
      </trkpt>
      <trkpt lat="44.6027120" lon="7.0343010">
        <ele>2182.2</ele>
        <time>2017-07-24T10:50:42Z</time>
      </trkpt>
      <trkpt lat="44.6027080" lon="7.0343870">
        <ele>2182.6</ele>
        <time>2017-07-24T10:50:46Z</time>
      </trkpt>
      <trkpt lat="44.6027120" lon="7.0344290">
        <ele>2182.8</ele>
        <time>2017-07-24T10:50:48Z</time>
      </trkpt>
      <trkpt lat="44.6027210" lon="7.0344710">
        <ele>2183.0</ele>
        <time>2017-07-24T10:50:50Z</time>
      </trkpt>
      <trkpt lat="44.6027630" lon="7.0345680">
        <ele>2183.6</ele>
        <time>2017-07-24T10:50:56Z</time>
      </trkpt>
      <trkpt lat="44.6027690" lon="7.0345900">
        <ele>2183.8</ele>
        <time>2017-07-24T10:50:57Z</time>
      </trkpt>
      <trkpt lat="44.6027720" lon="7.0346340">
        <ele>2184.0</ele>
        <time>2017-07-24T10:50:59Z</time>
      </trkpt>
      <trkpt lat="44.6027740" lon="7.0346750">
        <ele>2184.2</ele>
        <time>2017-07-24T10:51:01Z</time>
      </trkpt>
      <trkpt lat="44.6027700" lon="7.0347390">
        <ele>2184.6</ele>
        <time>2017-07-24T10:51:04Z</time>
      </trkpt>
      <trkpt lat="44.6027500" lon="7.0348250">
        <ele>2185.0</ele>
        <time>2017-07-24T10:51:08Z</time>
      </trkpt>
      <trkpt lat="44.6027130" lon="7.0349420">
        <ele>2186.2</ele>
        <time>2017-07-24T10:51:14Z</time>
      </trkpt>
      <trkpt lat="44.6027070" lon="7.0349580">
        <ele>2186.4</ele>
        <time>2017-07-24T10:51:15Z</time>
      </trkpt>
      <trkpt lat="44.6026870" lon="7.0350120">
        <ele>2187.2</ele>
        <time>2017-07-24T10:51:18Z</time>
      </trkpt>
      <trkpt lat="44.6026830" lon="7.0350740">
        <ele>2188.0</ele>
        <time>2017-07-24T10:51:21Z</time>
      </trkpt>
      <trkpt lat="44.6026810" lon="7.0350970">
        <ele>2188.4</ele>
        <time>2017-07-24T10:51:22Z</time>
      </trkpt>
      <trkpt lat="44.6026860" lon="7.0351780">
        <ele>2189.4</ele>
        <time>2017-07-24T10:51:26Z</time>
      </trkpt>
      <trkpt lat="44.6026890" lon="7.0352320">
        <ele>2190.2</ele>
        <time>2017-07-24T10:51:29Z</time>
      </trkpt>
      <trkpt lat="44.6026920" lon="7.0352720">
        <ele>2190.8</ele>
        <time>2017-07-24T10:51:31Z</time>
      </trkpt>
      <trkpt lat="44.6027020" lon="7.0353060">
        <ele>2191.4</ele>
        <time>2017-07-24T10:51:33Z</time>
      </trkpt>
      <trkpt lat="44.6027150" lon="7.0353410">
        <ele>2192.0</ele>
        <time>2017-07-24T10:51:35Z</time>
      </trkpt>
      <trkpt lat="44.6027220" lon="7.0353540">
        <ele>2192.2</ele>
        <time>2017-07-24T10:51:36Z</time>
      </trkpt>
      <trkpt lat="44.6027400" lon="7.0353800">
        <ele>2193.2</ele>
        <time>2017-07-24T10:51:38Z</time>
      </trkpt>
      <trkpt lat="44.6027760" lon="7.0354180">
        <ele>2194.2</ele>
        <time>2017-07-24T10:51:41Z</time>
      </trkpt>
      <trkpt lat="44.6027820" lon="7.0354380">
        <ele>2194.8</ele>
        <time>2017-07-24T10:51:42Z</time>
      </trkpt>
      <trkpt lat="44.6027820" lon="7.0354560">
        <ele>2195.2</ele>
        <time>2017-07-24T10:51:43Z</time>
      </trkpt>
      <trkpt lat="44.6027850" lon="7.0354740">
        <ele>2195.6</ele>
        <time>2017-07-24T10:51:44Z</time>
      </trkpt>
      <trkpt lat="44.6027750" lon="7.0355140">
        <ele>2196.6</ele>
        <time>2017-07-24T10:51:46Z</time>
      </trkpt>
      <trkpt lat="44.6027680" lon="7.0355330">
        <ele>2197.2</ele>
        <time>2017-07-24T10:51:47Z</time>
      </trkpt>
      <trkpt lat="44.6027610" lon="7.0355520">
        <ele>2198.0</ele>
        <time>2017-07-24T10:51:48Z</time>
      </trkpt>
      <trkpt lat="44.6027560" lon="7.0355740">
        <ele>2198.2</ele>
        <time>2017-07-24T10:51:49Z</time>
      </trkpt>
      <trkpt lat="44.6027320" lon="7.0356350">
        <ele>2199.4</ele>
        <time>2017-07-24T10:51:52Z</time>
      </trkpt>
      <trkpt lat="44.6027040" lon="7.0356970">
        <ele>2200.2</ele>
        <time>2017-07-24T10:51:55Z</time>
      </trkpt>
      <trkpt lat="44.6026920" lon="7.0357360">
        <ele>2200.6</ele>
        <time>2017-07-24T10:51:57Z</time>
      </trkpt>
      <trkpt lat="44.6026620" lon="7.0358070">
        <ele>2201.8</ele>
        <time>2017-07-24T10:52:01Z</time>
      </trkpt>
      <trkpt lat="44.6026520" lon="7.0358230">
        <ele>2202.2</ele>
        <time>2017-07-24T10:52:02Z</time>
      </trkpt>
      <trkpt lat="44.6026310" lon="7.0358530">
        <ele>2203.0</ele>
        <time>2017-07-24T10:52:04Z</time>
      </trkpt>
      <trkpt lat="44.6025870" lon="7.0359190">
        <ele>2204.2</ele>
        <time>2017-07-24T10:52:08Z</time>
      </trkpt>
      <trkpt lat="44.6025750" lon="7.0359720">
        <ele>2205.2</ele>
        <time>2017-07-24T10:52:11Z</time>
      </trkpt>
      <trkpt lat="44.6025750" lon="7.0359930">
        <ele>2205.6</ele>
        <time>2017-07-24T10:52:12Z</time>
      </trkpt>
      <trkpt lat="44.6025710" lon="7.0360330">
        <ele>2206.4</ele>
        <time>2017-07-24T10:52:14Z</time>
      </trkpt>
      <trkpt lat="44.6025660" lon="7.0360510">
        <ele>2206.6</ele>
        <time>2017-07-24T10:52:15Z</time>
      </trkpt>
      <trkpt lat="44.6025610" lon="7.0360880">
        <ele>2207.2</ele>
        <time>2017-07-24T10:52:17Z</time>
      </trkpt>
      <trkpt lat="44.6025550" lon="7.0361010">
        <ele>2207.6</ele>
        <time>2017-07-24T10:52:18Z</time>
      </trkpt>
      <trkpt lat="44.6025590" lon="7.0361390">
        <ele>2208.8</ele>
        <time>2017-07-24T10:52:21Z</time>
      </trkpt>
      <trkpt lat="44.6025800" lon="7.0361480">
        <ele>2209.6</ele>
        <time>2017-07-24T10:52:23Z</time>
      </trkpt>
      <trkpt lat="44.6025950" lon="7.0361500">
        <ele>2209.8</ele>
        <time>2017-07-24T10:52:24Z</time>
      </trkpt>
      <trkpt lat="44.6026240" lon="7.0361430">
        <ele>2210.6</ele>
        <time>2017-07-24T10:52:26Z</time>
      </trkpt>
      <trkpt lat="44.6026380" lon="7.0361320">
        <ele>2210.8</ele>
        <time>2017-07-24T10:52:27Z</time>
      </trkpt>
      <trkpt lat="44.6026780" lon="7.0360690">
        <ele>2211.6</ele>
        <time>2017-07-24T10:52:31Z</time>
      </trkpt>
      <trkpt lat="44.6026900" lon="7.0360490">
        <ele>2212.0</ele>
        <time>2017-07-24T10:52:32Z</time>
      </trkpt>
      <trkpt lat="44.6027330" lon="7.0359670">
        <ele>2213.0</ele>
        <time>2017-07-24T10:52:36Z</time>
      </trkpt>
      <trkpt lat="44.6027610" lon="7.0359270">
        <ele>2213.6</ele>
        <time>2017-07-24T10:52:38Z</time>
      </trkpt>
      <trkpt lat="44.6028040" lon="7.0358670">
        <ele>2214.2</ele>
        <time>2017-07-24T10:52:41Z</time>
      </trkpt>
      <trkpt lat="44.6028260" lon="7.0358240">
        <ele>2214.8</ele>
        <time>2017-07-24T10:52:43Z</time>
      </trkpt>
      <trkpt lat="44.6028570" lon="7.0357780">
        <ele>2215.2</ele>
        <time>2017-07-24T10:52:45Z</time>
      </trkpt>
      <trkpt lat="44.6029350" lon="7.0357150">
        <ele>2216.4</ele>
        <time>2017-07-24T10:52:49Z</time>
      </trkpt>
      <trkpt lat="44.6030160" lon="7.0356740">
        <ele>2217.6</ele>
        <time>2017-07-24T10:52:53Z</time>
      </trkpt>
      <trkpt lat="44.6030710" lon="7.0356390">
        <ele>2218.6</ele>
        <time>2017-07-24T10:52:56Z</time>
      </trkpt>
      <trkpt lat="44.6030900" lon="7.0356210">
        <ele>2218.6</ele>
        <time>2017-07-24T10:52:57Z</time>
      </trkpt>
      <trkpt lat="44.6031070" lon="7.0355900">
        <ele>2218.8</ele>
        <time>2017-07-24T10:52:58Z</time>
      </trkpt>
      <trkpt lat="44.6031380" lon="7.0355150">
        <ele>2219.2</ele>
        <time>2017-07-24T10:53:00Z</time>
      </trkpt>
      <trkpt lat="44.6032490" lon="7.0353710">
        <ele>2219.8</ele>
        <time>2017-07-24T10:53:06Z</time>
      </trkpt>
      <trkpt lat="44.6032740" lon="7.0353650">
        <ele>2220.0</ele>
        <time>2017-07-24T10:53:07Z</time>
      </trkpt>
      <trkpt lat="44.6034750" lon="7.0352950">
        <ele>2220.8</ele>
        <time>2017-07-24T10:53:15Z</time>
      </trkpt>
      <trkpt lat="44.6035580" lon="7.0352600">
        <ele>2221.2</ele>
        <time>2017-07-24T10:53:18Z</time>
      </trkpt>
      <trkpt lat="44.6035870" lon="7.0352030">
        <ele>2221.6</ele>
        <time>2017-07-24T10:53:20Z</time>
      </trkpt>
      <trkpt lat="44.6035990" lon="7.0351360">
        <ele>2222.0</ele>
        <time>2017-07-24T10:53:22Z</time>
      </trkpt>
      <trkpt lat="44.6036090" lon="7.0350680">
        <ele>2222.2</ele>
        <time>2017-07-24T10:53:24Z</time>
      </trkpt>
      <trkpt lat="44.6036170" lon="7.0350120">
        <ele>2223.0</ele>
        <time>2017-07-24T10:53:26Z</time>
      </trkpt>
      <trkpt lat="44.6036230" lon="7.0349830">
        <ele>2223.2</ele>
        <time>2017-07-24T10:53:27Z</time>
      </trkpt>
      <trkpt lat="44.6036490" lon="7.0348220">
        <ele>2224.4</ele>
        <time>2017-07-24T10:53:33Z</time>
      </trkpt>
      <trkpt lat="44.6036720" lon="7.0346270">
        <ele>2225.4</ele>
        <time>2017-07-24T10:53:40Z</time>
      </trkpt>
      <trkpt lat="44.6036750" lon="7.0345950">
        <ele>2225.6</ele>
        <time>2017-07-24T10:53:41Z</time>
      </trkpt>
      <trkpt lat="44.6036860" lon="7.0344580">
        <ele>2226.6</ele>
        <time>2017-07-24T10:53:46Z</time>
      </trkpt>
      <trkpt lat="44.6036920" lon="7.0344040">
        <ele>2226.8</ele>
        <time>2017-07-24T10:53:48Z</time>
      </trkpt>
      <trkpt lat="44.6037150" lon="7.0342970">
        <ele>2227.6</ele>
        <time>2017-07-24T10:53:52Z</time>
      </trkpt>
      <trkpt lat="44.6037300" lon="7.0342580">
        <ele>2228.0</ele>
        <time>2017-07-24T10:53:54Z</time>
      </trkpt>
      <trkpt lat="44.6037780" lon="7.0341760">
        <ele>2229.0</ele>
        <time>2017-07-24T10:53:58Z</time>
      </trkpt>
      <trkpt lat="44.6038140" lon="7.0340740">
        <ele>2229.6</ele>
        <time>2017-07-24T10:54:02Z</time>
      </trkpt>
      <trkpt lat="44.6038230" lon="7.0340200">
        <ele>2230.0</ele>
        <time>2017-07-24T10:54:04Z</time>
      </trkpt>
      <trkpt lat="44.6038120" lon="7.0339230">
        <ele>2231.0</ele>
        <time>2017-07-24T10:54:07Z</time>
      </trkpt>
      <trkpt lat="44.6038050" lon="7.0338890">
        <ele>2231.2</ele>
        <time>2017-07-24T10:54:08Z</time>
      </trkpt>
      <trkpt lat="44.6038240" lon="7.0337430">
        <ele>2232.2</ele>
        <time>2017-07-24T10:54:12Z</time>
      </trkpt>
      <trkpt lat="44.6038310" lon="7.0337160">
        <ele>2232.8</ele>
        <time>2017-07-24T10:54:13Z</time>
      </trkpt>
      <trkpt lat="44.6038420" lon="7.0336550">
        <ele>2233.2</ele>
        <time>2017-07-24T10:54:15Z</time>
      </trkpt>
      <trkpt lat="44.6038500" lon="7.0335410">
        <ele>2234.2</ele>
        <time>2017-07-24T10:54:19Z</time>
      </trkpt>
      <trkpt lat="44.6038570" lon="7.0335160">
        <ele>2234.4</ele>
        <time>2017-07-24T10:54:20Z</time>
      </trkpt>
      <trkpt lat="44.6038880" lon="7.0333510">
        <ele>2235.4</ele>
        <time>2017-07-24T10:54:26Z</time>
      </trkpt>
      <trkpt lat="44.6038890" lon="7.0333180">
        <ele>2235.6</ele>
        <time>2017-07-24T10:54:27Z</time>
      </trkpt>
      <trkpt lat="44.6039100" lon="7.0331590">
        <ele>2236.6</ele>
        <time>2017-07-24T10:54:33Z</time>
      </trkpt>
      <trkpt lat="44.6039150" lon="7.0331310">
        <ele>2236.6</ele>
        <time>2017-07-24T10:54:34Z</time>
      </trkpt>
      <trkpt lat="44.6039360" lon="7.0330070">
        <ele>2237.6</ele>
        <time>2017-07-24T10:54:39Z</time>
      </trkpt>
      <trkpt lat="44.6039470" lon="7.0329470">
        <ele>2238.2</ele>
        <time>2017-07-24T10:54:42Z</time>
      </trkpt>
      <trkpt lat="44.6039610" lon="7.0329060">
        <ele>2238.8</ele>
        <time>2017-07-24T10:54:44Z</time>
      </trkpt>
      <trkpt lat="44.6039980" lon="7.0328310">
        <ele>2239.6</ele>
        <time>2017-07-24T10:54:48Z</time>
      </trkpt>
      <trkpt lat="44.6040110" lon="7.0328110">
        <ele>2239.8</ele>
        <time>2017-07-24T10:54:49Z</time>
      </trkpt>
      <trkpt lat="44.6040550" lon="7.0327260">
        <ele>2241.2</ele>
        <time>2017-07-24T10:54:54Z</time>
      </trkpt>
      <trkpt lat="44.6040660" lon="7.0326890">
        <ele>2241.4</ele>
        <time>2017-07-24T10:54:56Z</time>
      </trkpt>
      <trkpt lat="44.6040900" lon="7.0326080">
        <ele>2242.4</ele>
        <time>2017-07-24T10:55:00Z</time>
      </trkpt>
      <trkpt lat="44.6041280" lon="7.0325040">
        <ele>2243.6</ele>
        <time>2017-07-24T10:55:05Z</time>
      </trkpt>
      <trkpt lat="44.6041580" lon="7.0324000">
        <ele>2244.8</ele>
        <time>2017-07-24T10:55:10Z</time>
      </trkpt>
      <trkpt lat="44.6041730" lon="7.0323580">
        <ele>2245.2</ele>
        <time>2017-07-24T10:55:12Z</time>
      </trkpt>
      <trkpt lat="44.6041980" lon="7.0322990">
        <ele>2245.8</ele>
        <time>2017-07-24T10:55:15Z</time>
      </trkpt>
      <trkpt lat="44.6042220" lon="7.0321880">
        <ele>2246.8</ele>
        <time>2017-07-24T10:55:20Z</time>
      </trkpt>
      <trkpt lat="44.6042430" lon="7.0320190">
        <ele>2248.0</ele>
        <time>2017-07-24T10:55:26Z</time>
      </trkpt>
      <trkpt lat="44.6042700" lon="7.0318910">
        <ele>2249.0</ele>
        <time>2017-07-24T10:55:31Z</time>
      </trkpt>
      <trkpt lat="44.6043000" lon="7.0317790">
        <ele>2249.4</ele>
        <time>2017-07-24T10:55:35Z</time>
      </trkpt>
      <trkpt lat="44.6043340" lon="7.0316270">
        <ele>2250.2</ele>
        <time>2017-07-24T10:55:41Z</time>
      </trkpt>
      <trkpt lat="44.6043380" lon="7.0315970">
        <ele>2250.4</ele>
        <time>2017-07-24T10:55:42Z</time>
      </trkpt>
      <trkpt lat="44.6043800" lon="7.0315050">
        <ele>2251.2</ele>
        <time>2017-07-24T10:55:46Z</time>
      </trkpt>
      <trkpt lat="44.6044120" lon="7.0314990">
        <ele>2252.0</ele>
        <time>2017-07-24T10:55:48Z</time>
      </trkpt>
      <trkpt lat="44.6044230" lon="7.0315050">
        <ele>2252.6</ele>
        <time>2017-07-24T10:55:49Z</time>
      </trkpt>
      <trkpt lat="44.6046060" lon="7.0315050">
        <ele>2250.4</ele>
        <time>2017-07-24T10:56:13Z</time>
      </trkpt>
      <trkpt lat="44.6046240" lon="7.0314870">
        <ele>2250.2</ele>
        <time>2017-07-24T10:56:14Z</time>
      </trkpt>
      <trkpt lat="44.6046800" lon="7.0314360">
        <ele>2248.8</ele>
        <time>2017-07-24T10:56:17Z</time>
      </trkpt>
      <trkpt lat="44.6047020" lon="7.0314190">
        <ele>2248.2</ele>
        <time>2017-07-24T10:56:18Z</time>
      </trkpt>
      <trkpt lat="44.6047260" lon="7.0314050">
        <ele>2247.8</ele>
        <time>2017-07-24T10:56:19Z</time>
      </trkpt>
      <trkpt lat="44.6047930" lon="7.0313370">
        <ele>2246.2</ele>
        <time>2017-07-24T10:56:22Z</time>
      </trkpt>
      <trkpt lat="44.6048210" lon="7.0312890">
        <ele>2245.6</ele>
        <time>2017-07-24T10:56:23Z</time>
      </trkpt>
      <trkpt lat="44.6048550" lon="7.0312320">
        <ele>2245.2</ele>
        <time>2017-07-24T10:56:24Z</time>
      </trkpt>
      <trkpt lat="44.6049290" lon="7.0311490">
        <ele>2243.8</ele>
        <time>2017-07-24T10:56:26Z</time>
      </trkpt>
      <trkpt lat="44.6049990" lon="7.0310940">
        <ele>2242.6</ele>
        <time>2017-07-24T10:56:28Z</time>
      </trkpt>
      <trkpt lat="44.6050490" lon="7.0310240">
        <ele>2241.4</ele>
        <time>2017-07-24T10:56:30Z</time>
      </trkpt>
      <trkpt lat="44.6051130" lon="7.0309390">
        <ele>2240.4</ele>
        <time>2017-07-24T10:56:32Z</time>
      </trkpt>
      <trkpt lat="44.6051940" lon="7.0308330">
        <ele>2239.2</ele>
        <time>2017-07-24T10:56:34Z</time>
      </trkpt>
      <trkpt lat="44.6052830" lon="7.0307090">
        <ele>2238.2</ele>
        <time>2017-07-24T10:56:36Z</time>
      </trkpt>
      <trkpt lat="44.6053290" lon="7.0306520">
        <ele>2236.4</ele>
        <time>2017-07-24T10:56:37Z</time>
      </trkpt>
      <trkpt lat="44.6054310" lon="7.0305300">
        <ele>2235.0</ele>
        <time>2017-07-24T10:56:39Z</time>
      </trkpt>
      <trkpt lat="44.6054760" lon="7.0304770">
        <ele>2234.8</ele>
        <time>2017-07-24T10:56:40Z</time>
      </trkpt>
      <trkpt lat="44.6055150" lon="7.0304270">
        <ele>2234.0</ele>
        <time>2017-07-24T10:56:41Z</time>
      </trkpt>
      <trkpt lat="44.6055910" lon="7.0303280">
        <ele>2232.8</ele>
        <time>2017-07-24T10:56:43Z</time>
      </trkpt>
      <trkpt lat="44.6056350" lon="7.0302810">
        <ele>2232.4</ele>
        <time>2017-07-24T10:56:44Z</time>
      </trkpt>
      <trkpt lat="44.6056770" lon="7.0302330">
        <ele>2231.6</ele>
        <time>2017-07-24T10:56:45Z</time>
      </trkpt>
      <trkpt lat="44.6057160" lon="7.0301820">
        <ele>2231.0</ele>
        <time>2017-07-24T10:56:46Z</time>
      </trkpt>
      <trkpt lat="44.6057520" lon="7.0301330">
        <ele>2230.6</ele>
        <time>2017-07-24T10:56:47Z</time>
      </trkpt>
      <trkpt lat="44.6057920" lon="7.0301020">
        <ele>2230.0</ele>
        <time>2017-07-24T10:56:48Z</time>
      </trkpt>
      <trkpt lat="44.6058260" lon="7.0300710">
        <ele>2229.4</ele>
        <time>2017-07-24T10:56:49Z</time>
      </trkpt>
      <trkpt lat="44.6058540" lon="7.0300430">
        <ele>2228.8</ele>
        <time>2017-07-24T10:56:50Z</time>
      </trkpt>
      <trkpt lat="44.6058800" lon="7.0300040">
        <ele>2228.2</ele>
        <time>2017-07-24T10:56:51Z</time>
      </trkpt>
      <trkpt lat="44.6059420" lon="7.0299370">
        <ele>2227.2</ele>
        <time>2017-07-24T10:56:54Z</time>
      </trkpt>
      <trkpt lat="44.6059500" lon="7.0299390">
        <ele>2227.0</ele>
        <time>2017-07-24T10:56:55Z</time>
      </trkpt>
      <trkpt lat="44.6059850" lon="7.0299480">
        <ele>2226.2</ele>
        <time>2017-07-24T10:56:59Z</time>
      </trkpt>
      <trkpt lat="44.6060000" lon="7.0299620">
        <ele>2225.8</ele>
        <time>2017-07-24T10:57:00Z</time>
      </trkpt>
      <trkpt lat="44.6060660" lon="7.0299840">
        <ele>2224.8</ele>
        <time>2017-07-24T10:57:03Z</time>
      </trkpt>
      <trkpt lat="44.6060900" lon="7.0299820">
        <ele>2224.8</ele>
        <time>2017-07-24T10:57:04Z</time>
      </trkpt>
      <trkpt lat="44.6061140" lon="7.0299850">
        <ele>2224.6</ele>
        <time>2017-07-24T10:57:05Z</time>
      </trkpt>
      <trkpt lat="44.6062600" lon="7.0299450">
        <ele>2224.4</ele>
        <time>2017-07-24T10:57:11Z</time>
      </trkpt>
      <trkpt lat="44.6064380" lon="7.0298870">
        <ele>2224.6</ele>
        <time>2017-07-24T10:57:16Z</time>
      </trkpt>
      <trkpt lat="44.6065680" lon="7.0298230">
        <ele>2224.4</ele>
        <time>2017-07-24T10:57:19Z</time>
      </trkpt>
      <trkpt lat="44.6066530" lon="7.0297590">
        <ele>2224.4</ele>
        <time>2017-07-24T10:57:22Z</time>
      </trkpt>
      <trkpt lat="44.6067160" lon="7.0296920">
        <ele>2225.0</ele>
        <time>2017-07-24T10:57:25Z</time>
      </trkpt>
      <trkpt lat="44.6067460" lon="7.0296540">
        <ele>2225.2</ele>
        <time>2017-07-24T10:57:27Z</time>
      </trkpt>
      <trkpt lat="44.6067930" lon="7.0296220">
        <ele>2225.4</ele>
        <time>2017-07-24T10:57:29Z</time>
      </trkpt>
      <trkpt lat="44.6068900" lon="7.0295980">
        <ele>2225.2</ele>
        <time>2017-07-24T10:57:31Z</time>
      </trkpt>
      <trkpt lat="44.6071610" lon="7.0295530">
        <ele>2224.4</ele>
        <time>2017-07-24T10:57:35Z</time>
      </trkpt>
      <trkpt lat="44.6073470" lon="7.0295860">
        <ele>2223.8</ele>
        <time>2017-07-24T10:57:38Z</time>
      </trkpt>
      <trkpt lat="44.6074570" lon="7.0296080">
        <ele>2223.6</ele>
        <time>2017-07-24T10:57:40Z</time>
      </trkpt>
      <trkpt lat="44.6075090" lon="7.0296240">
        <ele>2223.8</ele>
        <time>2017-07-24T10:57:41Z</time>
      </trkpt>
      <trkpt lat="44.6076300" lon="7.0296650">
        <ele>2223.0</ele>
        <time>2017-07-24T10:57:44Z</time>
      </trkpt>
      <trkpt lat="44.6077330" lon="7.0296560">
        <ele>2223.6</ele>
        <time>2017-07-24T10:57:48Z</time>
      </trkpt>
      <trkpt lat="44.6078350" lon="7.0296460">
        <ele>2224.8</ele>
        <time>2017-07-24T10:57:52Z</time>
      </trkpt>
      <trkpt lat="44.6078930" lon="7.0296130">
        <ele>2225.4</ele>
        <time>2017-07-24T10:57:54Z</time>
      </trkpt>
      <trkpt lat="44.6079160" lon="7.0294390">
        <ele>2225.0</ele>
        <time>2017-07-24T10:57:57Z</time>
      </trkpt>
      <trkpt lat="44.6079150" lon="7.0293660">
        <ele>2224.6</ele>
        <time>2017-07-24T10:57:58Z</time>
      </trkpt>
      <trkpt lat="44.6079200" lon="7.0292990">
        <ele>2224.6</ele>
        <time>2017-07-24T10:57:59Z</time>
      </trkpt>
      <trkpt lat="44.6079530" lon="7.0291640">
        <ele>2224.0</ele>
        <time>2017-07-24T10:58:01Z</time>
      </trkpt>
      <trkpt lat="44.6079580" lon="7.0290810">
        <ele>2223.6</ele>
        <time>2017-07-24T10:58:02Z</time>
      </trkpt>
      <trkpt lat="44.6079420" lon="7.0288890">
        <ele>2222.6</ele>
        <time>2017-07-24T10:58:04Z</time>
      </trkpt>
      <trkpt lat="44.6079240" lon="7.0287930">
        <ele>2222.2</ele>
        <time>2017-07-24T10:58:05Z</time>
      </trkpt>
      <trkpt lat="44.6079070" lon="7.0287050">
        <ele>2222.0</ele>
        <time>2017-07-24T10:58:06Z</time>
      </trkpt>
      <trkpt lat="44.6078890" lon="7.0285390">
        <ele>2221.2</ele>
        <time>2017-07-24T10:58:08Z</time>
      </trkpt>
      <trkpt lat="44.6078830" lon="7.0284670">
        <ele>2221.0</ele>
        <time>2017-07-24T10:58:09Z</time>
      </trkpt>
      <trkpt lat="44.6078690" lon="7.0283060">
        <ele>2220.6</ele>
        <time>2017-07-24T10:58:12Z</time>
      </trkpt>
      <trkpt lat="44.6078260" lon="7.0280380">
        <ele>2220.6</ele>
        <time>2017-07-24T10:58:17Z</time>
      </trkpt>
      <trkpt lat="44.6078340" lon="7.0279760">
        <ele>2220.6</ele>
        <time>2017-07-24T10:58:18Z</time>
      </trkpt>
      <trkpt lat="44.6078290" lon="7.0278480">
        <ele>2220.0</ele>
        <time>2017-07-24T10:58:20Z</time>
      </trkpt>
      <trkpt lat="44.6078230" lon="7.0277810">
        <ele>2219.6</ele>
        <time>2017-07-24T10:58:21Z</time>
      </trkpt>
      <trkpt lat="44.6078480" lon="7.0276300">
        <ele>2219.0</ele>
        <time>2017-07-24T10:58:24Z</time>
      </trkpt>
      <trkpt lat="44.6078660" lon="7.0275740">
        <ele>2218.2</ele>
        <time>2017-07-24T10:58:25Z</time>
      </trkpt>
      <trkpt lat="44.6078700" lon="7.0275110">
        <ele>2218.0</ele>
        <time>2017-07-24T10:58:26Z</time>
      </trkpt>
      <trkpt lat="44.6078720" lon="7.0274400">
        <ele>2217.2</ele>
        <time>2017-07-24T10:58:27Z</time>
      </trkpt>
      <trkpt lat="44.6078690" lon="7.0273700">
        <ele>2216.6</ele>
        <time>2017-07-24T10:58:28Z</time>
      </trkpt>
      <trkpt lat="44.6078600" lon="7.0273090">
        <ele>2215.8</ele>
        <time>2017-07-24T10:58:29Z</time>
      </trkpt>
      <trkpt lat="44.6078520" lon="7.0272110">
        <ele>2214.6</ele>
        <time>2017-07-24T10:58:31Z</time>
      </trkpt>
      <trkpt lat="44.6078480" lon="7.0271590">
        <ele>2214.0</ele>
        <time>2017-07-24T10:58:32Z</time>
      </trkpt>
      <trkpt lat="44.6078480" lon="7.0271050">
        <ele>2213.0</ele>
        <time>2017-07-24T10:58:33Z</time>
      </trkpt>
      <trkpt lat="44.6078660" lon="7.0270590">
        <ele>2212.4</ele>
        <time>2017-07-24T10:58:34Z</time>
      </trkpt>
      <trkpt lat="44.6078710" lon="7.0270120">
        <ele>2211.4</ele>
        <time>2017-07-24T10:58:35Z</time>
      </trkpt>
      <trkpt lat="44.6078730" lon="7.0269720">
        <ele>2210.6</ele>
        <time>2017-07-24T10:58:36Z</time>
      </trkpt>
      <trkpt lat="44.6078850" lon="7.0269530">
        <ele>2209.6</ele>
        <time>2017-07-24T10:58:37Z</time>
      </trkpt>
      <trkpt lat="44.6078970" lon="7.0269440">
        <ele>2207.6</ele>
        <time>2017-07-24T10:58:38Z</time>
      </trkpt>
      <trkpt lat="44.6079240" lon="7.0269720">
        <ele>2206.8</ele>
        <time>2017-07-24T10:58:39Z</time>
      </trkpt>
      <trkpt lat="44.6079510" lon="7.0270030">
        <ele>2206.0</ele>
        <time>2017-07-24T10:58:40Z</time>
      </trkpt>
      <trkpt lat="44.6079730" lon="7.0270380">
        <ele>2205.0</ele>
        <time>2017-07-24T10:58:41Z</time>
      </trkpt>
      <trkpt lat="44.6080300" lon="7.0270840">
        <ele>2203.2</ele>
        <time>2017-07-24T10:58:43Z</time>
      </trkpt>
      <trkpt lat="44.6080880" lon="7.0271210">
        <ele>2201.4</ele>
        <time>2017-07-24T10:58:45Z</time>
      </trkpt>
      <trkpt lat="44.6081490" lon="7.0272130">
        <ele>2199.4</ele>
        <time>2017-07-24T10:58:47Z</time>
      </trkpt>
      <trkpt lat="44.6082180" lon="7.0273370">
        <ele>2197.6</ele>
        <time>2017-07-24T10:58:49Z</time>
      </trkpt>
      <trkpt lat="44.6082530" lon="7.0273910">
        <ele>2196.4</ele>
        <time>2017-07-24T10:58:50Z</time>
      </trkpt>
      <trkpt lat="44.6082810" lon="7.0274370">
        <ele>2195.0</ele>
        <time>2017-07-24T10:58:51Z</time>
      </trkpt>
      <trkpt lat="44.6083040" lon="7.0274800">
        <ele>2194.0</ele>
        <time>2017-07-24T10:58:52Z</time>
      </trkpt>
      <trkpt lat="44.6083280" lon="7.0275120">
        <ele>2193.0</ele>
        <time>2017-07-24T10:58:53Z</time>
      </trkpt>
      <trkpt lat="44.6083810" lon="7.0275720">
        <ele>2191.0</ele>
        <time>2017-07-24T10:58:55Z</time>
      </trkpt>
      <trkpt lat="44.6084070" lon="7.0275830">
        <ele>2190.0</ele>
        <time>2017-07-24T10:58:56Z</time>
      </trkpt>
      <trkpt lat="44.6084260" lon="7.0275780">
        <ele>2189.0</ele>
        <time>2017-07-24T10:58:57Z</time>
      </trkpt>
      <trkpt lat="44.6084450" lon="7.0275650">
        <ele>2187.8</ele>
        <time>2017-07-24T10:58:58Z</time>
      </trkpt>
      <trkpt lat="44.6084600" lon="7.0274910">
        <ele>2185.8</ele>
        <time>2017-07-24T10:59:00Z</time>
      </trkpt>
      <trkpt lat="44.6084740" lon="7.0274590">
        <ele>2184.8</ele>
        <time>2017-07-24T10:59:01Z</time>
      </trkpt>
      <trkpt lat="44.6084920" lon="7.0274610">
        <ele>2182.4</ele>
        <time>2017-07-24T10:59:02Z</time>
      </trkpt>
      <trkpt lat="44.6085130" lon="7.0274610">
        <ele>2181.4</ele>
        <time>2017-07-24T10:59:03Z</time>
      </trkpt>
      <trkpt lat="44.6085230" lon="7.0274500">
        <ele>2180.2</ele>
        <time>2017-07-24T10:59:04Z</time>
      </trkpt>
      <trkpt lat="44.6085270" lon="7.0274310">
        <ele>2179.2</ele>
        <time>2017-07-24T10:59:05Z</time>
      </trkpt>
      <trkpt lat="44.6085290" lon="7.0274030">
        <ele>2178.2</ele>
        <time>2017-07-24T10:59:06Z</time>
      </trkpt>
      <trkpt lat="44.6085520" lon="7.0273640">
        <ele>2176.2</ele>
        <time>2017-07-24T10:59:08Z</time>
      </trkpt>
      <trkpt lat="44.6085600" lon="7.0273110">
        <ele>2174.2</ele>
        <time>2017-07-24T10:59:10Z</time>
      </trkpt>
      <trkpt lat="44.6085940" lon="7.0272870">
        <ele>2172.4</ele>
        <time>2017-07-24T10:59:12Z</time>
      </trkpt>
      <trkpt lat="44.6086140" lon="7.0272780">
        <ele>2171.4</ele>
        <time>2017-07-24T10:59:13Z</time>
      </trkpt>
      <trkpt lat="44.6086270" lon="7.0272560">
        <ele>2170.4</ele>
        <time>2017-07-24T10:59:14Z</time>
      </trkpt>
      <trkpt lat="44.6086320" lon="7.0271990">
        <ele>2168.6</ele>
        <time>2017-07-24T10:59:16Z</time>
      </trkpt>
      <trkpt lat="44.6086670" lon="7.0271670">
        <ele>2166.8</ele>
        <time>2017-07-24T10:59:18Z</time>
      </trkpt>
      <trkpt lat="44.6087060" lon="7.0272190">
        <ele>2165.0</ele>
        <time>2017-07-24T10:59:20Z</time>
      </trkpt>
      <trkpt lat="44.6087390" lon="7.0271920">
        <ele>2163.0</ele>
        <time>2017-07-24T10:59:22Z</time>
      </trkpt>
      <trkpt lat="44.6087500" lon="7.0271960">
        <ele>2162.0</ele>
        <time>2017-07-24T10:59:23Z</time>
      </trkpt>
      <trkpt lat="44.6087760" lon="7.0272430">
        <ele>2160.2</ele>
        <time>2017-07-24T10:59:25Z</time>
      </trkpt>
      <trkpt lat="44.6087910" lon="7.0272720">
        <ele>2158.8</ele>
        <time>2017-07-24T10:59:26Z</time>
      </trkpt>
      <trkpt lat="44.6088130" lon="7.0272790">
        <ele>2157.8</ele>
        <time>2017-07-24T10:59:27Z</time>
      </trkpt>
      <trkpt lat="44.6088220" lon="7.0272640">
        <ele>2157.0</ele>
        <time>2017-07-24T10:59:28Z</time>
      </trkpt>
      <trkpt lat="44.6088560" lon="7.0272170">
        <ele>2155.2</ele>
        <time>2017-07-24T10:59:30Z</time>
      </trkpt>
      <trkpt lat="44.6088760" lon="7.0271420">
        <ele>2153.6</ele>
        <time>2017-07-24T10:59:32Z</time>
      </trkpt>
      <trkpt lat="44.6088830" lon="7.0270940">
        <ele>2152.6</ele>
        <time>2017-07-24T10:59:33Z</time>
      </trkpt>
      <trkpt lat="44.6088950" lon="7.0270530">
        <ele>2151.8</ele>
        <time>2017-07-24T10:59:34Z</time>
      </trkpt>
      <trkpt lat="44.6089280" lon="7.0270460">
        <ele>2150.0</ele>
        <time>2017-07-24T10:59:36Z</time>
      </trkpt>
      <trkpt lat="44.6089600" lon="7.0270690">
        <ele>2148.2</ele>
        <time>2017-07-24T10:59:38Z</time>
      </trkpt>
      <trkpt lat="44.6089700" lon="7.0270590">
        <ele>2147.4</ele>
        <time>2017-07-24T10:59:39Z</time>
      </trkpt>
      <trkpt lat="44.6089780" lon="7.0270430">
        <ele>2146.4</ele>
        <time>2017-07-24T10:59:40Z</time>
      </trkpt>
      <trkpt lat="44.6089910" lon="7.0270420">
        <ele>2145.8</ele>
        <time>2017-07-24T10:59:41Z</time>
      </trkpt>
      <trkpt lat="44.6090040" lon="7.0270500">
        <ele>2145.0</ele>
        <time>2017-07-24T10:59:42Z</time>
      </trkpt>
      <trkpt lat="44.6090380" lon="7.0270830">
        <ele>2143.2</ele>
        <time>2017-07-24T10:59:44Z</time>
      </trkpt>
      <trkpt lat="44.6090550" lon="7.0270840">
        <ele>2142.4</ele>
        <time>2017-07-24T10:59:45Z</time>
      </trkpt>
      <trkpt lat="44.6090660" lon="7.0270750">
        <ele>2141.6</ele>
        <time>2017-07-24T10:59:46Z</time>
      </trkpt>
      <trkpt lat="44.6090780" lon="7.0270300">
        <ele>2140.2</ele>
        <time>2017-07-24T10:59:48Z</time>
      </trkpt>
      <trkpt lat="44.6090780" lon="7.0269970">
        <ele>2139.4</ele>
        <time>2017-07-24T10:59:49Z</time>
      </trkpt>
      <trkpt lat="44.6090880" lon="7.0269770">
        <ele>2137.6</ele>
        <time>2017-07-24T10:59:50Z</time>
      </trkpt>
      <trkpt lat="44.6091180" lon="7.0269510">
        <ele>2136.0</ele>
        <time>2017-07-24T10:59:52Z</time>
      </trkpt>
      <trkpt lat="44.6091440" lon="7.0269060">
        <ele>2134.4</ele>
        <time>2017-07-24T10:59:54Z</time>
      </trkpt>
      <trkpt lat="44.6091710" lon="7.0269190">
        <ele>2132.8</ele>
        <time>2017-07-24T10:59:56Z</time>
      </trkpt>
      <trkpt lat="44.6092080" lon="7.0269420">
        <ele>2131.2</ele>
        <time>2017-07-24T10:59:58Z</time>
      </trkpt>
      <trkpt lat="44.6092550" lon="7.0269350">
        <ele>2129.6</ele>
        <time>2017-07-24T11:00:00Z</time>
      </trkpt>
      <trkpt lat="44.6092760" lon="7.0269150">
        <ele>2128.6</ele>
        <time>2017-07-24T11:00:01Z</time>
      </trkpt>
      <trkpt lat="44.6092860" lon="7.0268880">
        <ele>2127.8</ele>
        <time>2017-07-24T11:00:02Z</time>
      </trkpt>
      <trkpt lat="44.6093120" lon="7.0268400">
        <ele>2126.2</ele>
        <time>2017-07-24T11:00:04Z</time>
      </trkpt>
      <trkpt lat="44.6093460" lon="7.0268930">
        <ele>2124.4</ele>
        <time>2017-07-24T11:00:06Z</time>
      </trkpt>
      <trkpt lat="44.6093660" lon="7.0269240">
        <ele>2123.8</ele>
        <time>2017-07-24T11:00:07Z</time>
      </trkpt>
      <trkpt lat="44.6093840" lon="7.0269480">
        <ele>2122.8</ele>
        <time>2017-07-24T11:00:08Z</time>
      </trkpt>
      <trkpt lat="44.6093940" lon="7.0269390">
        <ele>2122.0</ele>
        <time>2017-07-24T11:00:09Z</time>
      </trkpt>
      <trkpt lat="44.6094030" lon="7.0269170">
        <ele>2121.0</ele>
        <time>2017-07-24T11:00:10Z</time>
      </trkpt>
      <trkpt lat="44.6094210" lon="7.0268410">
        <ele>2119.6</ele>
        <time>2017-07-24T11:00:12Z</time>
      </trkpt>
      <trkpt lat="44.6094300" lon="7.0268040">
        <ele>2119.0</ele>
        <time>2017-07-24T11:00:13Z</time>
      </trkpt>
      <trkpt lat="44.6094380" lon="7.0267730">
        <ele>2117.6</ele>
        <time>2017-07-24T11:00:14Z</time>
      </trkpt>
      <trkpt lat="44.6094450" lon="7.0267670">
        <ele>2116.8</ele>
        <time>2017-07-24T11:00:15Z</time>
      </trkpt>
      <trkpt lat="44.6094550" lon="7.0267930">
        <ele>2116.0</ele>
        <time>2017-07-24T11:00:16Z</time>
      </trkpt>
      <trkpt lat="44.6094890" lon="7.0267770">
        <ele>2114.6</ele>
        <time>2017-07-24T11:00:18Z</time>
      </trkpt>
      <trkpt lat="44.6095270" lon="7.0267650">
        <ele>2113.2</ele>
        <time>2017-07-24T11:00:20Z</time>
      </trkpt>
      <trkpt lat="44.6095450" lon="7.0267830">
        <ele>2112.4</ele>
        <time>2017-07-24T11:00:21Z</time>
      </trkpt>
      <trkpt lat="44.6095520" lon="7.0268200">
        <ele>2111.8</ele>
        <time>2017-07-24T11:00:22Z</time>
      </trkpt>
      <trkpt lat="44.6095600" lon="7.0268640">
        <ele>2111.0</ele>
        <time>2017-07-24T11:00:23Z</time>
      </trkpt>
      <trkpt lat="44.6095720" lon="7.0269210">
        <ele>2110.4</ele>
        <time>2017-07-24T11:00:24Z</time>
      </trkpt>
      <trkpt lat="44.6095970" lon="7.0270360">
        <ele>2108.8</ele>
        <time>2017-07-24T11:00:26Z</time>
      </trkpt>
      <trkpt lat="44.6096290" lon="7.0271600">
        <ele>2107.2</ele>
        <time>2017-07-24T11:00:28Z</time>
      </trkpt>
      <trkpt lat="44.6096580" lon="7.0272660">
        <ele>2105.4</ele>
        <time>2017-07-24T11:00:30Z</time>
      </trkpt>
      <trkpt lat="44.6096750" lon="7.0273680">
        <ele>2103.8</ele>
        <time>2017-07-24T11:00:32Z</time>
      </trkpt>
      <trkpt lat="44.6096950" lon="7.0274250">
        <ele>2102.8</ele>
        <time>2017-07-24T11:00:33Z</time>
      </trkpt>
      <trkpt lat="44.6097080" lon="7.0274870">
        <ele>2102.2</ele>
        <time>2017-07-24T11:00:34Z</time>
      </trkpt>
      <trkpt lat="44.6097230" lon="7.0276190">
        <ele>2100.8</ele>
        <time>2017-07-24T11:00:36Z</time>
      </trkpt>
      <trkpt lat="44.6097250" lon="7.0276680">
        <ele>2099.6</ele>
        <time>2017-07-24T11:00:37Z</time>
      </trkpt>
      <trkpt lat="44.6097300" lon="7.0277240">
        <ele>2098.0</ele>
        <time>2017-07-24T11:00:38Z</time>
      </trkpt>
      <trkpt lat="44.6097590" lon="7.0277780">
        <ele>2097.2</ele>
        <time>2017-07-24T11:00:39Z</time>
      </trkpt>
      <trkpt lat="44.6097730" lon="7.0278350">
        <ele>2096.2</ele>
        <time>2017-07-24T11:00:40Z</time>
      </trkpt>
      <trkpt lat="44.6097840" lon="7.0278880">
        <ele>2095.4</ele>
        <time>2017-07-24T11:00:41Z</time>
      </trkpt>
      <trkpt lat="44.6098080" lon="7.0279680">
        <ele>2094.6</ele>
        <time>2017-07-24T11:00:42Z</time>
      </trkpt>
      <trkpt lat="44.6098630" lon="7.0280370">
        <ele>2093.0</ele>
        <time>2017-07-24T11:00:44Z</time>
      </trkpt>
      <trkpt lat="44.6099120" lon="7.0281380">
        <ele>2091.2</ele>
        <time>2017-07-24T11:00:46Z</time>
      </trkpt>
      <trkpt lat="44.6099600" lon="7.0282400">
        <ele>2089.8</ele>
        <time>2017-07-24T11:00:48Z</time>
      </trkpt>
      <trkpt lat="44.6100250" lon="7.0283270">
        <ele>2088.2</ele>
        <time>2017-07-24T11:00:50Z</time>
      </trkpt>
      <trkpt lat="44.6100900" lon="7.0284400">
        <ele>2086.4</ele>
        <time>2017-07-24T11:00:52Z</time>
      </trkpt>
      <trkpt lat="44.6101500" lon="7.0285460">
        <ele>2084.8</ele>
        <time>2017-07-24T11:00:54Z</time>
      </trkpt>
      <trkpt lat="44.6102230" lon="7.0286340">
        <ele>2082.8</ele>
        <time>2017-07-24T11:00:56Z</time>
      </trkpt>
      <trkpt lat="44.6102570" lon="7.0286820">
        <ele>2082.2</ele>
        <time>2017-07-24T11:00:57Z</time>
      </trkpt>
      <trkpt lat="44.6102870" lon="7.0287210">
        <ele>2081.4</ele>
        <time>2017-07-24T11:00:58Z</time>
      </trkpt>
      <trkpt lat="44.6103310" lon="7.0287820">
        <ele>2080.0</ele>
        <time>2017-07-24T11:01:00Z</time>
      </trkpt>
      <trkpt lat="44.6103860" lon="7.0288460">
        <ele>2077.8</ele>
        <time>2017-07-24T11:01:02Z</time>
      </trkpt>
      <trkpt lat="44.6104380" lon="7.0289100">
        <ele>2076.0</ele>
        <time>2017-07-24T11:01:04Z</time>
      </trkpt>
      <trkpt lat="44.6104800" lon="7.0289620">
        <ele>2074.6</ele>
        <time>2017-07-24T11:01:06Z</time>
      </trkpt>
      <trkpt lat="44.6105260" lon="7.0290280">
        <ele>2073.0</ele>
        <time>2017-07-24T11:01:08Z</time>
      </trkpt>
      <trkpt lat="44.6105470" lon="7.0290520">
        <ele>2072.2</ele>
        <time>2017-07-24T11:01:09Z</time>
      </trkpt>
      <trkpt lat="44.6105670" lon="7.0290760">
        <ele>2071.4</ele>
        <time>2017-07-24T11:01:10Z</time>
      </trkpt>
      <trkpt lat="44.6106180" lon="7.0291450">
        <ele>2069.6</ele>
        <time>2017-07-24T11:01:12Z</time>
      </trkpt>
      <trkpt lat="44.6106600" lon="7.0291870">
        <ele>2068.0</ele>
        <time>2017-07-24T11:01:14Z</time>
      </trkpt>
      <trkpt lat="44.6107010" lon="7.0291850">
        <ele>2066.4</ele>
        <time>2017-07-24T11:01:16Z</time>
      </trkpt>
      <trkpt lat="44.6107390" lon="7.0291530">
        <ele>2064.6</ele>
        <time>2017-07-24T11:01:18Z</time>
      </trkpt>
      <trkpt lat="44.6107550" lon="7.0291390">
        <ele>2063.6</ele>
        <time>2017-07-24T11:01:19Z</time>
      </trkpt>
      <trkpt lat="44.6107650" lon="7.0291190">
        <ele>2062.8</ele>
        <time>2017-07-24T11:01:20Z</time>
      </trkpt>
      <trkpt lat="44.6107710" lon="7.0290910">
        <ele>2061.8</ele>
        <time>2017-07-24T11:01:21Z</time>
      </trkpt>
      <trkpt lat="44.6107850" lon="7.0290760">
        <ele>2061.0</ele>
        <time>2017-07-24T11:01:22Z</time>
      </trkpt>
      <trkpt lat="44.6107990" lon="7.0290710">
        <ele>2060.2</ele>
        <time>2017-07-24T11:01:23Z</time>
      </trkpt>
      <trkpt lat="44.6108140" lon="7.0290710">
        <ele>2059.4</ele>
        <time>2017-07-24T11:01:24Z</time>
      </trkpt>
      <trkpt lat="44.6108270" lon="7.0290810">
        <ele>2058.4</ele>
        <time>2017-07-24T11:01:25Z</time>
      </trkpt>
      <trkpt lat="44.6108560" lon="7.0290930">
        <ele>2056.6</ele>
        <time>2017-07-24T11:01:26Z</time>
      </trkpt>
      <trkpt lat="44.6108830" lon="7.0290990">
        <ele>2055.6</ele>
        <time>2017-07-24T11:01:27Z</time>
      </trkpt>
      <trkpt lat="44.6109040" lon="7.0291040">
        <ele>2054.8</ele>
        <time>2017-07-24T11:01:28Z</time>
      </trkpt>
      <trkpt lat="44.6109380" lon="7.0291380">
        <ele>2053.2</ele>
        <time>2017-07-24T11:01:30Z</time>
      </trkpt>
      <trkpt lat="44.6109690" lon="7.0291960">
        <ele>2051.6</ele>
        <time>2017-07-24T11:01:32Z</time>
      </trkpt>
      <trkpt lat="44.6109970" lon="7.0291700">
        <ele>2049.8</ele>
        <time>2017-07-24T11:01:34Z</time>
      </trkpt>
      <trkpt lat="44.6110090" lon="7.0291380">
        <ele>2049.2</ele>
        <time>2017-07-24T11:01:35Z</time>
      </trkpt>
      <trkpt lat="44.6110130" lon="7.0290990">
        <ele>2048.4</ele>
        <time>2017-07-24T11:01:36Z</time>
      </trkpt>
      <trkpt lat="44.6110270" lon="7.0290410">
        <ele>2046.8</ele>
        <time>2017-07-24T11:01:38Z</time>
      </trkpt>
      <trkpt lat="44.6110380" lon="7.0290120">
        <ele>2045.8</ele>
        <time>2017-07-24T11:01:39Z</time>
      </trkpt>
      <trkpt lat="44.6110520" lon="7.0289770">
        <ele>2045.0</ele>
        <time>2017-07-24T11:01:40Z</time>
      </trkpt>
      <trkpt lat="44.6110720" lon="7.0288890">
        <ele>2043.4</ele>
        <time>2017-07-24T11:01:42Z</time>
      </trkpt>
      <trkpt lat="44.6110820" lon="7.0287920">
        <ele>2041.6</ele>
        <time>2017-07-24T11:01:44Z</time>
      </trkpt>
      <trkpt lat="44.6110880" lon="7.0286840">
        <ele>2039.6</ele>
        <time>2017-07-24T11:01:46Z</time>
      </trkpt>
      <trkpt lat="44.6110860" lon="7.0285900">
        <ele>2037.8</ele>
        <time>2017-07-24T11:01:48Z</time>
      </trkpt>
      <trkpt lat="44.6110880" lon="7.0285470">
        <ele>2036.8</ele>
        <time>2017-07-24T11:01:49Z</time>
      </trkpt>
      <trkpt lat="44.6110940" lon="7.0285140">
        <ele>2034.6</ele>
        <time>2017-07-24T11:01:50Z</time>
      </trkpt>
      <trkpt lat="44.6111020" lon="7.0284440">
        <ele>2032.8</ele>
        <time>2017-07-24T11:01:52Z</time>
      </trkpt>
      <trkpt lat="44.6111180" lon="7.0283560">
        <ele>2031.0</ele>
        <time>2017-07-24T11:01:54Z</time>
      </trkpt>
      <trkpt lat="44.6111140" lon="7.0282960">
        <ele>2029.0</ele>
        <time>2017-07-24T11:01:56Z</time>
      </trkpt>
      <trkpt lat="44.6111210" lon="7.0282640">
        <ele>2028.0</ele>
        <time>2017-07-24T11:01:57Z</time>
      </trkpt>
      <trkpt lat="44.6111240" lon="7.0282270">
        <ele>2026.8</ele>
        <time>2017-07-24T11:01:58Z</time>
      </trkpt>
      <trkpt lat="44.6111250" lon="7.0281550">
        <ele>2025.0</ele>
        <time>2017-07-24T11:02:00Z</time>
      </trkpt>
      <trkpt lat="44.6111320" lon="7.0280720">
        <ele>2023.2</ele>
        <time>2017-07-24T11:02:02Z</time>
      </trkpt>
      <trkpt lat="44.6111370" lon="7.0280450">
        <ele>2022.4</ele>
        <time>2017-07-24T11:02:03Z</time>
      </trkpt>
      <trkpt lat="44.6111460" lon="7.0280320">
        <ele>2021.4</ele>
        <time>2017-07-24T11:02:04Z</time>
      </trkpt>
      <trkpt lat="44.6111650" lon="7.0280320">
        <ele>2020.6</ele>
        <time>2017-07-24T11:02:05Z</time>
      </trkpt>
      <trkpt lat="44.6111880" lon="7.0280410">
        <ele>2019.6</ele>
        <time>2017-07-24T11:02:06Z</time>
      </trkpt>
      <trkpt lat="44.6112210" lon="7.0280860">
        <ele>2017.8</ele>
        <time>2017-07-24T11:02:08Z</time>
      </trkpt>
      <trkpt lat="44.6112550" lon="7.0281050">
        <ele>2016.2</ele>
        <time>2017-07-24T11:02:10Z</time>
      </trkpt>
      <trkpt lat="44.6112710" lon="7.0281000">
        <ele>2015.4</ele>
        <time>2017-07-24T11:02:11Z</time>
      </trkpt>
      <trkpt lat="44.6112840" lon="7.0280990">
        <ele>2014.6</ele>
        <time>2017-07-24T11:02:12Z</time>
      </trkpt>
      <trkpt lat="44.6112990" lon="7.0280580">
        <ele>2012.4</ele>
        <time>2017-07-24T11:02:14Z</time>
      </trkpt>
      <trkpt lat="44.6113180" lon="7.0280290">
        <ele>2010.6</ele>
        <time>2017-07-24T11:02:16Z</time>
      </trkpt>
      <trkpt lat="44.6113530" lon="7.0279850">
        <ele>2009.0</ele>
        <time>2017-07-24T11:02:18Z</time>
      </trkpt>
      <trkpt lat="44.6113660" lon="7.0279050">
        <ele>2007.2</ele>
        <time>2017-07-24T11:02:20Z</time>
      </trkpt>
      <trkpt lat="44.6113750" lon="7.0278430">
        <ele>2005.4</ele>
        <time>2017-07-24T11:02:22Z</time>
      </trkpt>
      <trkpt lat="44.6113760" lon="7.0278150">
        <ele>2003.6</ele>
        <time>2017-07-24T11:02:24Z</time>
      </trkpt>
      <trkpt lat="44.6114010" lon="7.0278610">
        <ele>2002.8</ele>
        <time>2017-07-24T11:02:25Z</time>
      </trkpt>
      <trkpt lat="44.6114220" lon="7.0278960">
        <ele>2002.0</ele>
        <time>2017-07-24T11:02:26Z</time>
      </trkpt>
      <trkpt lat="44.6114640" lon="7.0279330">
        <ele>2000.6</ele>
        <time>2017-07-24T11:02:28Z</time>
      </trkpt>
      <trkpt lat="44.6115010" lon="7.0279670">
        <ele>1998.8</ele>
        <time>2017-07-24T11:02:30Z</time>
      </trkpt>
      <trkpt lat="44.6115140" lon="7.0279760">
        <ele>1998.0</ele>
        <time>2017-07-24T11:02:31Z</time>
      </trkpt>
      <trkpt lat="44.6115290" lon="7.0279790">
        <ele>1997.2</ele>
        <time>2017-07-24T11:02:32Z</time>
      </trkpt>
      <trkpt lat="44.6115550" lon="7.0279690">
        <ele>1996.6</ele>
        <time>2017-07-24T11:02:33Z</time>
      </trkpt>
      <trkpt lat="44.6115790" lon="7.0279800">
        <ele>1995.8</ele>
        <time>2017-07-24T11:02:34Z</time>
      </trkpt>
      <trkpt lat="44.6115990" lon="7.0279970">
        <ele>1995.0</ele>
        <time>2017-07-24T11:02:35Z</time>
      </trkpt>
      <trkpt lat="44.6116190" lon="7.0280010">
        <ele>1994.2</ele>
        <time>2017-07-24T11:02:36Z</time>
      </trkpt>
      <trkpt lat="44.6116380" lon="7.0280060">
        <ele>1993.4</ele>
        <time>2017-07-24T11:02:37Z</time>
      </trkpt>
      <trkpt lat="44.6116530" lon="7.0280060">
        <ele>1992.0</ele>
        <time>2017-07-24T11:02:38Z</time>
      </trkpt>
      <trkpt lat="44.6116850" lon="7.0279890">
        <ele>1990.4</ele>
        <time>2017-07-24T11:02:40Z</time>
      </trkpt>
      <trkpt lat="44.6117180" lon="7.0279390">
        <ele>1988.6</ele>
        <time>2017-07-24T11:02:42Z</time>
      </trkpt>
      <trkpt lat="44.6117430" lon="7.0278700">
        <ele>1987.0</ele>
        <time>2017-07-24T11:02:44Z</time>
      </trkpt>
      <trkpt lat="44.6117580" lon="7.0278440">
        <ele>1986.2</ele>
        <time>2017-07-24T11:02:45Z</time>
      </trkpt>
      <trkpt lat="44.6117710" lon="7.0278370">
        <ele>1985.4</ele>
        <time>2017-07-24T11:02:46Z</time>
      </trkpt>
      <trkpt lat="44.6118550" lon="7.0278090">
        <ele>1977.2</ele>
        <time>2017-07-24T11:02:59Z</time>
      </trkpt>
      <trkpt lat="44.6118710" lon="7.0278060">
        <ele>1976.8</ele>
        <time>2017-07-24T11:03:00Z</time>
      </trkpt>
      <trkpt lat="44.6118840" lon="7.0278180">
        <ele>1976.2</ele>
        <time>2017-07-24T11:03:01Z</time>
      </trkpt>
      <trkpt lat="44.6118910" lon="7.0278380">
        <ele>1975.0</ele>
        <time>2017-07-24T11:03:02Z</time>
      </trkpt>
      <trkpt lat="44.6119050" lon="7.0278460">
        <ele>1974.6</ele>
        <time>2017-07-24T11:03:03Z</time>
      </trkpt>
      <trkpt lat="44.6119220" lon="7.0278520">
        <ele>1974.2</ele>
        <time>2017-07-24T11:03:04Z</time>
      </trkpt>
      <trkpt lat="44.6119440" lon="7.0278560">
        <ele>1973.4</ele>
        <time>2017-07-24T11:03:05Z</time>
      </trkpt>
      <trkpt lat="44.6119880" lon="7.0278660">
        <ele>1972.0</ele>
        <time>2017-07-24T11:03:07Z</time>
      </trkpt>
      <trkpt lat="44.6120120" lon="7.0278540">
        <ele>1971.6</ele>
        <time>2017-07-24T11:03:08Z</time>
      </trkpt>
      <trkpt lat="44.6120250" lon="7.0278420">
        <ele>1971.0</ele>
        <time>2017-07-24T11:03:09Z</time>
      </trkpt>
      <trkpt lat="44.6120360" lon="7.0278220">
        <ele>1970.6</ele>
        <time>2017-07-24T11:03:10Z</time>
      </trkpt>
      <trkpt lat="44.6120330" lon="7.0277700">
        <ele>1969.2</ele>
        <time>2017-07-24T11:03:12Z</time>
      </trkpt>
      <trkpt lat="44.6120370" lon="7.0277520">
        <ele>1968.6</ele>
        <time>2017-07-24T11:03:13Z</time>
      </trkpt>
      <trkpt lat="44.6120480" lon="7.0277380">
        <ele>1968.0</ele>
        <time>2017-07-24T11:03:14Z</time>
      </trkpt>
      <trkpt lat="44.6121560" lon="7.0277450">
        <ele>1963.2</ele>
        <time>2017-07-24T11:03:21Z</time>
      </trkpt>
      <trkpt lat="44.6121660" lon="7.0277160">
        <ele>1962.6</ele>
        <time>2017-07-24T11:03:22Z</time>
      </trkpt>
      <trkpt lat="44.6121660" lon="7.0276850">
        <ele>1962.2</ele>
        <time>2017-07-24T11:03:23Z</time>
      </trkpt>
      <trkpt lat="44.6121720" lon="7.0276400">
        <ele>1960.8</ele>
        <time>2017-07-24T11:03:25Z</time>
      </trkpt>
      <trkpt lat="44.6121820" lon="7.0276280">
        <ele>1959.2</ele>
        <time>2017-07-24T11:03:26Z</time>
      </trkpt>
      <trkpt lat="44.6122020" lon="7.0276260">
        <ele>1958.6</ele>
        <time>2017-07-24T11:03:27Z</time>
      </trkpt>
      <trkpt lat="44.6122200" lon="7.0276140">
        <ele>1958.0</ele>
        <time>2017-07-24T11:03:28Z</time>
      </trkpt>
      <trkpt lat="44.6122600" lon="7.0276160">
        <ele>1956.4</ele>
        <time>2017-07-24T11:03:30Z</time>
      </trkpt>
      <trkpt lat="44.6122950" lon="7.0276510">
        <ele>1954.8</ele>
        <time>2017-07-24T11:03:32Z</time>
      </trkpt>
      <trkpt lat="44.6123130" lon="7.0276570">
        <ele>1954.2</ele>
        <time>2017-07-24T11:03:33Z</time>
      </trkpt>
      <trkpt lat="44.6123290" lon="7.0276570">
        <ele>1953.4</ele>
        <time>2017-07-24T11:03:34Z</time>
      </trkpt>
      <trkpt lat="44.6123430" lon="7.0276600">
        <ele>1953.0</ele>
        <time>2017-07-24T11:03:35Z</time>
      </trkpt>
      <trkpt lat="44.6123620" lon="7.0276800">
        <ele>1952.2</ele>
        <time>2017-07-24T11:03:36Z</time>
      </trkpt>
      <trkpt lat="44.6123990" lon="7.0277090">
        <ele>1950.6</ele>
        <time>2017-07-24T11:03:38Z</time>
      </trkpt>
      <trkpt lat="44.6124560" lon="7.0277210">
        <ele>1949.2</ele>
        <time>2017-07-24T11:03:40Z</time>
      </trkpt>
      <trkpt lat="44.6125170" lon="7.0277690">
        <ele>1948.0</ele>
        <time>2017-07-24T11:03:42Z</time>
      </trkpt>
      <trkpt lat="44.6125660" lon="7.0278270">
        <ele>1946.2</ele>
        <time>2017-07-24T11:03:44Z</time>
      </trkpt>
      <trkpt lat="44.6125870" lon="7.0278500">
        <ele>1945.4</ele>
        <time>2017-07-24T11:03:45Z</time>
      </trkpt>
      <trkpt lat="44.6126080" lon="7.0278630">
        <ele>1944.4</ele>
        <time>2017-07-24T11:03:46Z</time>
      </trkpt>
      <trkpt lat="44.6126190" lon="7.0278650">
        <ele>1943.8</ele>
        <time>2017-07-24T11:03:47Z</time>
      </trkpt>
      <trkpt lat="44.6126380" lon="7.0278630">
        <ele>1942.8</ele>
        <time>2017-07-24T11:03:48Z</time>
      </trkpt>
      <trkpt lat="44.6126580" lon="7.0278560">
        <ele>1940.6</ele>
        <time>2017-07-24T11:03:50Z</time>
      </trkpt>
      <trkpt lat="44.6126910" lon="7.0278150">
        <ele>1937.2</ele>
        <time>2017-07-24T11:03:55Z</time>
      </trkpt>
      <trkpt lat="44.6127250" lon="7.0278370">
        <ele>1935.4</ele>
        <time>2017-07-24T11:03:57Z</time>
      </trkpt>
      <trkpt lat="44.6127830" lon="7.0278910">
        <ele>1933.6</ele>
        <time>2017-07-24T11:03:59Z</time>
      </trkpt>
      <trkpt lat="44.6128180" lon="7.0279040">
        <ele>1932.8</ele>
        <time>2017-07-24T11:04:00Z</time>
      </trkpt>
      <trkpt lat="44.6128670" lon="7.0279150">
        <ele>1931.8</ele>
        <time>2017-07-24T11:04:01Z</time>
      </trkpt>
      <trkpt lat="44.6129640" lon="7.0279240">
        <ele>1929.8</ele>
        <time>2017-07-24T11:04:03Z</time>
      </trkpt>
      <trkpt lat="44.6130550" lon="7.0279700">
        <ele>1928.0</ele>
        <time>2017-07-24T11:04:05Z</time>
      </trkpt>
      <trkpt lat="44.6131040" lon="7.0280230">
        <ele>1926.2</ele>
        <time>2017-07-24T11:04:07Z</time>
      </trkpt>
      <trkpt lat="44.6131450" lon="7.0280600">
        <ele>1924.8</ele>
        <time>2017-07-24T11:04:09Z</time>
      </trkpt>
      <trkpt lat="44.6131610" lon="7.0280740">
        <ele>1923.8</ele>
        <time>2017-07-24T11:04:10Z</time>
      </trkpt>
      <trkpt lat="44.6131820" lon="7.0280840">
        <ele>1922.8</ele>
        <time>2017-07-24T11:04:11Z</time>
      </trkpt>
      <trkpt lat="44.6132320" lon="7.0281000">
        <ele>1921.0</ele>
        <time>2017-07-24T11:04:13Z</time>
      </trkpt>
      <trkpt lat="44.6132640" lon="7.0281150">
        <ele>1919.4</ele>
        <time>2017-07-24T11:04:14Z</time>
      </trkpt>
      <trkpt lat="44.6132950" lon="7.0281370">
        <ele>1918.4</ele>
        <time>2017-07-24T11:04:15Z</time>
      </trkpt>
      <trkpt lat="44.6133320" lon="7.0281660">
        <ele>1917.2</ele>
        <time>2017-07-24T11:04:16Z</time>
      </trkpt>
      <trkpt lat="44.6133940" lon="7.0282450">
        <ele>1915.8</ele>
        <time>2017-07-24T11:04:18Z</time>
      </trkpt>
      <trkpt lat="44.6134140" lon="7.0283250">
        <ele>1914.2</ele>
        <time>2017-07-24T11:04:20Z</time>
      </trkpt>
      <trkpt lat="44.6134230" lon="7.0283610">
        <ele>1913.0</ele>
        <time>2017-07-24T11:04:21Z</time>
      </trkpt>
      <trkpt lat="44.6134700" lon="7.0284550">
        <ele>1911.4</ele>
        <time>2017-07-24T11:04:23Z</time>
      </trkpt>
      <trkpt lat="44.6135220" lon="7.0285790">
        <ele>1910.0</ele>
        <time>2017-07-24T11:04:25Z</time>
      </trkpt>
      <trkpt lat="44.6135440" lon="7.0286480">
        <ele>1909.2</ele>
        <time>2017-07-24T11:04:26Z</time>
      </trkpt>
      <trkpt lat="44.6135660" lon="7.0287060">
        <ele>1908.2</ele>
        <time>2017-07-24T11:04:27Z</time>
      </trkpt>
      <trkpt lat="44.6135870" lon="7.0287440">
        <ele>1907.0</ele>
        <time>2017-07-24T11:04:28Z</time>
      </trkpt>
      <trkpt lat="44.6136230" lon="7.0288040">
        <ele>1905.2</ele>
        <time>2017-07-24T11:04:30Z</time>
      </trkpt>
      <trkpt lat="44.6136600" lon="7.0288640">
        <ele>1903.8</ele>
        <time>2017-07-24T11:04:32Z</time>
      </trkpt>
      <trkpt lat="44.6136920" lon="7.0289440">
        <ele>1902.0</ele>
        <time>2017-07-24T11:04:34Z</time>
      </trkpt>
      <trkpt lat="44.6137190" lon="7.0290110">
        <ele>1900.2</ele>
        <time>2017-07-24T11:04:36Z</time>
      </trkpt>
      <trkpt lat="44.6137530" lon="7.0290730">
        <ele>1897.4</ele>
        <time>2017-07-24T11:04:38Z</time>
      </trkpt>
      <trkpt lat="44.6137940" lon="7.0291360">
        <ele>1895.8</ele>
        <time>2017-07-24T11:04:40Z</time>
      </trkpt>
      <trkpt lat="44.6138120" lon="7.0291770">
        <ele>1894.8</ele>
        <time>2017-07-24T11:04:41Z</time>
      </trkpt>
      <trkpt lat="44.6138290" lon="7.0292190">
        <ele>1893.8</ele>
        <time>2017-07-24T11:04:42Z</time>
      </trkpt>
      <trkpt lat="44.6138490" lon="7.0292650">
        <ele>1893.0</ele>
        <time>2017-07-24T11:04:43Z</time>
      </trkpt>
      <trkpt lat="44.6138780" lon="7.0293500">
        <ele>1891.2</ele>
        <time>2017-07-24T11:04:45Z</time>
      </trkpt>
      <trkpt lat="44.6138910" lon="7.0293530">
        <ele>1890.4</ele>
        <time>2017-07-24T11:04:46Z</time>
      </trkpt>
      <trkpt lat="44.6139040" lon="7.0293500">
        <ele>1889.6</ele>
        <time>2017-07-24T11:04:47Z</time>
      </trkpt>
      <trkpt lat="44.6139360" lon="7.0293730">
        <ele>1887.8</ele>
        <time>2017-07-24T11:04:49Z</time>
      </trkpt>
      <trkpt lat="44.6139610" lon="7.0293610">
        <ele>1886.2</ele>
        <time>2017-07-24T11:04:51Z</time>
      </trkpt>
      <trkpt lat="44.6139770" lon="7.0293500">
        <ele>1885.4</ele>
        <time>2017-07-24T11:04:52Z</time>
      </trkpt>
      <trkpt lat="44.6139990" lon="7.0293450">
        <ele>1884.4</ele>
        <time>2017-07-24T11:04:53Z</time>
      </trkpt>
      <trkpt lat="44.6140440" lon="7.0293860">
        <ele>1882.8</ele>
        <time>2017-07-24T11:04:55Z</time>
      </trkpt>
      <trkpt lat="44.6140610" lon="7.0294050">
        <ele>1882.0</ele>
        <time>2017-07-24T11:04:56Z</time>
      </trkpt>
      <trkpt lat="44.6140500" lon="7.0294490">
        <ele>1881.4</ele>
        <time>2017-07-24T11:04:57Z</time>
      </trkpt>
      <trkpt lat="44.6140500" lon="7.0295210">
        <ele>1880.2</ele>
        <time>2017-07-24T11:04:59Z</time>
      </trkpt>
      <trkpt lat="44.6140340" lon="7.0295690">
        <ele>1879.6</ele>
        <time>2017-07-24T11:05:00Z</time>
      </trkpt>
      <trkpt lat="44.6140170" lon="7.0296120">
        <ele>1878.8</ele>
        <time>2017-07-24T11:05:01Z</time>
      </trkpt>
      <trkpt lat="44.6140020" lon="7.0296480">
        <ele>1877.4</ele>
        <time>2017-07-24T11:05:02Z</time>
      </trkpt>
      <trkpt lat="44.6139760" lon="7.0297040">
        <ele>1875.8</ele>
        <time>2017-07-24T11:05:04Z</time>
      </trkpt>
      <trkpt lat="44.6139630" lon="7.0297730">
        <ele>1874.4</ele>
        <time>2017-07-24T11:05:06Z</time>
      </trkpt>
      <trkpt lat="44.6139610" lon="7.0298470">
        <ele>1872.6</ele>
        <time>2017-07-24T11:05:08Z</time>
      </trkpt>
      <trkpt lat="44.6139870" lon="7.0299400">
        <ele>1871.0</ele>
        <time>2017-07-24T11:05:10Z</time>
      </trkpt>
      <trkpt lat="44.6139990" lon="7.0299850">
        <ele>1870.2</ele>
        <time>2017-07-24T11:05:11Z</time>
      </trkpt>
      <trkpt lat="44.6140080" lon="7.0300260">
        <ele>1869.4</ele>
        <time>2017-07-24T11:05:12Z</time>
      </trkpt>
      <trkpt lat="44.6140200" lon="7.0301010">
        <ele>1867.4</ele>
        <time>2017-07-24T11:05:14Z</time>
      </trkpt>
      <trkpt lat="44.6140230" lon="7.0301710">
        <ele>1865.6</ele>
        <time>2017-07-24T11:05:16Z</time>
      </trkpt>
      <trkpt lat="44.6140190" lon="7.0302070">
        <ele>1864.8</ele>
        <time>2017-07-24T11:05:17Z</time>
      </trkpt>
      <trkpt lat="44.6140170" lon="7.0302460">
        <ele>1863.8</ele>
        <time>2017-07-24T11:05:18Z</time>
      </trkpt>
      <trkpt lat="44.6140250" lon="7.0302900">
        <ele>1862.4</ele>
        <time>2017-07-24T11:05:20Z</time>
      </trkpt>
      <trkpt lat="44.6140510" lon="7.0303020">
        <ele>1860.2</ele>
        <time>2017-07-24T11:05:23Z</time>
      </trkpt>
      <trkpt lat="44.6140780" lon="7.0302900">
        <ele>1858.4</ele>
        <time>2017-07-24T11:05:25Z</time>
      </trkpt>
      <trkpt lat="44.6140870" lon="7.0302640">
        <ele>1856.6</ele>
        <time>2017-07-24T11:05:26Z</time>
      </trkpt>
      <trkpt lat="44.6141460" lon="7.0301580">
        <ele>1855.0</ele>
        <time>2017-07-24T11:05:28Z</time>
      </trkpt>
      <trkpt lat="44.6142060" lon="7.0300840">
        <ele>1853.4</ele>
        <time>2017-07-24T11:05:30Z</time>
      </trkpt>
      <trkpt lat="44.6142380" lon="7.0300760">
        <ele>1851.8</ele>
        <time>2017-07-24T11:05:32Z</time>
      </trkpt>
      <trkpt lat="44.6142500" lon="7.0300740">
        <ele>1851.2</ele>
        <time>2017-07-24T11:05:33Z</time>
      </trkpt>
      <trkpt lat="44.6142650" lon="7.0300770">
        <ele>1850.4</ele>
        <time>2017-07-24T11:05:34Z</time>
      </trkpt>
      <trkpt lat="44.6142900" lon="7.0300870">
        <ele>1849.0</ele>
        <time>2017-07-24T11:05:36Z</time>
      </trkpt>
      <trkpt lat="44.6143320" lon="7.0300710">
        <ele>1847.4</ele>
        <time>2017-07-24T11:05:38Z</time>
      </trkpt>
      <trkpt lat="44.6143510" lon="7.0300590">
        <ele>1846.8</ele>
        <time>2017-07-24T11:05:39Z</time>
      </trkpt>
      <trkpt lat="44.6143720" lon="7.0300500">
        <ele>1846.2</ele>
        <time>2017-07-24T11:05:40Z</time>
      </trkpt>
      <trkpt lat="44.6144230" lon="7.0300500">
        <ele>1844.6</ele>
        <time>2017-07-24T11:05:42Z</time>
      </trkpt>
      <trkpt lat="44.6144600" lon="7.0300790">
        <ele>1843.4</ele>
        <time>2017-07-24T11:05:44Z</time>
      </trkpt>
      <trkpt lat="44.6144680" lon="7.0301120">
        <ele>1842.0</ele>
        <time>2017-07-24T11:05:46Z</time>
      </trkpt>
      <trkpt lat="44.6145150" lon="7.0301090">
        <ele>1835.6</ele>
        <time>2017-07-24T11:05:54Z</time>
      </trkpt>
      <trkpt lat="44.6145340" lon="7.0301090">
        <ele>1834.8</ele>
        <time>2017-07-24T11:05:55Z</time>
      </trkpt>
      <trkpt lat="44.6145600" lon="7.0301010">
        <ele>1834.2</ele>
        <time>2017-07-24T11:05:56Z</time>
      </trkpt>
      <trkpt lat="44.6146090" lon="7.0300660">
        <ele>1832.8</ele>
        <time>2017-07-24T11:05:58Z</time>
      </trkpt>
      <trkpt lat="44.6146550" lon="7.0300520">
        <ele>1831.2</ele>
        <time>2017-07-24T11:06:00Z</time>
      </trkpt>
      <trkpt lat="44.6147110" lon="7.0300210">
        <ele>1829.6</ele>
        <time>2017-07-24T11:06:02Z</time>
      </trkpt>
      <trkpt lat="44.6147770" lon="7.0299730">
        <ele>1828.0</ele>
        <time>2017-07-24T11:06:04Z</time>
      </trkpt>
      <trkpt lat="44.6148090" lon="7.0299520">
        <ele>1827.0</ele>
        <time>2017-07-24T11:06:05Z</time>
      </trkpt>
      <trkpt lat="44.6148400" lon="7.0299360">
        <ele>1826.2</ele>
        <time>2017-07-24T11:06:06Z</time>
      </trkpt>
      <trkpt lat="44.6148840" lon="7.0299200">
        <ele>1824.6</ele>
        <time>2017-07-24T11:06:08Z</time>
      </trkpt>
      <trkpt lat="44.6149320" lon="7.0299050">
        <ele>1823.0</ele>
        <time>2017-07-24T11:06:10Z</time>
      </trkpt>
      <trkpt lat="44.6149570" lon="7.0299000">
        <ele>1822.2</ele>
        <time>2017-07-24T11:06:11Z</time>
      </trkpt>
      <trkpt lat="44.6149790" lon="7.0299100">
        <ele>1821.2</ele>
        <time>2017-07-24T11:06:12Z</time>
      </trkpt>
      <trkpt lat="44.6149900" lon="7.0299130">
        <ele>1820.2</ele>
        <time>2017-07-24T11:06:13Z</time>
      </trkpt>
      <trkpt lat="44.6150010" lon="7.0299310">
        <ele>1818.2</ele>
        <time>2017-07-24T11:06:14Z</time>
      </trkpt>
      <trkpt lat="44.6150120" lon="7.0299460">
        <ele>1817.4</ele>
        <time>2017-07-24T11:06:15Z</time>
      </trkpt>
      <trkpt lat="44.6150130" lon="7.0300140">
        <ele>1816.6</ele>
        <time>2017-07-24T11:06:16Z</time>
      </trkpt>
      <trkpt lat="44.6150190" lon="7.0300720">
        <ele>1815.4</ele>
        <time>2017-07-24T11:06:17Z</time>
      </trkpt>
      <trkpt lat="44.6150230" lon="7.0301160">
        <ele>1814.4</ele>
        <time>2017-07-24T11:06:18Z</time>
      </trkpt>
      <trkpt lat="44.6150250" lon="7.0301510">
        <ele>1813.4</ele>
        <time>2017-07-24T11:06:19Z</time>
      </trkpt>
      <trkpt lat="44.6150490" lon="7.0301320">
        <ele>1812.6</ele>
        <time>2017-07-24T11:06:20Z</time>
      </trkpt>
      <trkpt lat="44.6150610" lon="7.0301210">
        <ele>1811.6</ele>
        <time>2017-07-24T11:06:21Z</time>
      </trkpt>
      <trkpt lat="44.6150970" lon="7.0300650">
        <ele>1809.8</ele>
        <time>2017-07-24T11:06:23Z</time>
      </trkpt>
      <trkpt lat="44.6151270" lon="7.0300120">
        <ele>1808.0</ele>
        <time>2017-07-24T11:06:25Z</time>
      </trkpt>
      <trkpt lat="44.6151410" lon="7.0300000">
        <ele>1807.4</ele>
        <time>2017-07-24T11:06:26Z</time>
      </trkpt>
      <trkpt lat="44.6151520" lon="7.0299940">
        <ele>1806.4</ele>
        <time>2017-07-24T11:06:27Z</time>
      </trkpt>
      <trkpt lat="44.6151840" lon="7.0299930">
        <ele>1804.6</ele>
        <time>2017-07-24T11:06:29Z</time>
      </trkpt>
      <trkpt lat="44.6152020" lon="7.0300040">
        <ele>1803.8</ele>
        <time>2017-07-24T11:06:30Z</time>
      </trkpt>
      <trkpt lat="44.6152160" lon="7.0300290">
        <ele>1803.2</ele>
        <time>2017-07-24T11:06:31Z</time>
      </trkpt>
      <trkpt lat="44.6152580" lon="7.0300710">
        <ele>1801.6</ele>
        <time>2017-07-24T11:06:33Z</time>
      </trkpt>
      <trkpt lat="44.6152900" lon="7.0301320">
        <ele>1800.2</ele>
        <time>2017-07-24T11:06:35Z</time>
      </trkpt>
      <trkpt lat="44.6152950" lon="7.0301640">
        <ele>1799.6</ele>
        <time>2017-07-24T11:06:36Z</time>
      </trkpt>
      <trkpt lat="44.6153030" lon="7.0302130">
        <ele>1798.8</ele>
        <time>2017-07-24T11:06:37Z</time>
      </trkpt>
      <trkpt lat="44.6153050" lon="7.0302580">
        <ele>1797.4</ele>
        <time>2017-07-24T11:06:38Z</time>
      </trkpt>
      <trkpt lat="44.6153110" lon="7.0302980">
        <ele>1795.8</ele>
        <time>2017-07-24T11:06:40Z</time>
      </trkpt>
      <trkpt lat="44.6153750" lon="7.0302470">
        <ele>1792.4</ele>
        <time>2017-07-24T11:06:44Z</time>
      </trkpt>
      <trkpt lat="44.6153980" lon="7.0302140">
        <ele>1791.2</ele>
        <time>2017-07-24T11:06:45Z</time>
      </trkpt>
      <trkpt lat="44.6154310" lon="7.0301850">
        <ele>1789.4</ele>
        <time>2017-07-24T11:06:47Z</time>
      </trkpt>
      <trkpt lat="44.6154510" lon="7.0302310">
        <ele>1787.8</ele>
        <time>2017-07-24T11:06:49Z</time>
      </trkpt>
      <trkpt lat="44.6154630" lon="7.0303150">
        <ele>1786.0</ele>
        <time>2017-07-24T11:06:51Z</time>
      </trkpt>
      <trkpt lat="44.6154580" lon="7.0304010">
        <ele>1784.6</ele>
        <time>2017-07-24T11:06:53Z</time>
      </trkpt>
      <trkpt lat="44.6154590" lon="7.0304760">
        <ele>1783.2</ele>
        <time>2017-07-24T11:06:55Z</time>
      </trkpt>
      <trkpt lat="44.6155110" lon="7.0304410">
        <ele>1779.2</ele>
        <time>2017-07-24T11:07:00Z</time>
      </trkpt>
      <trkpt lat="44.6155490" lon="7.0303990">
        <ele>1776.8</ele>
        <time>2017-07-24T11:07:02Z</time>
      </trkpt>
      <trkpt lat="44.6155910" lon="7.0303430">
        <ele>1775.2</ele>
        <time>2017-07-24T11:07:04Z</time>
      </trkpt>
      <trkpt lat="44.6156470" lon="7.0302940">
        <ele>1773.8</ele>
        <time>2017-07-24T11:07:06Z</time>
      </trkpt>
      <trkpt lat="44.6156710" lon="7.0302700">
        <ele>1772.8</ele>
        <time>2017-07-24T11:07:07Z</time>
      </trkpt>
      <trkpt lat="44.6156940" lon="7.0302540">
        <ele>1771.8</ele>
        <time>2017-07-24T11:07:08Z</time>
      </trkpt>
      <trkpt lat="44.6157250" lon="7.0302330">
        <ele>1770.8</ele>
        <time>2017-07-24T11:07:09Z</time>
      </trkpt>
      <trkpt lat="44.6157880" lon="7.0301670">
        <ele>1769.0</ele>
        <time>2017-07-24T11:07:11Z</time>
      </trkpt>
      <trkpt lat="44.6158130" lon="7.0301330">
        <ele>1768.0</ele>
        <time>2017-07-24T11:07:12Z</time>
      </trkpt>
      <trkpt lat="44.6158430" lon="7.0301110">
        <ele>1767.4</ele>
        <time>2017-07-24T11:07:13Z</time>
      </trkpt>
      <trkpt lat="44.6159110" lon="7.0300870">
        <ele>1765.6</ele>
        <time>2017-07-24T11:07:15Z</time>
      </trkpt>
      <trkpt lat="44.6159650" lon="7.0301060">
        <ele>1763.8</ele>
        <time>2017-07-24T11:07:17Z</time>
      </trkpt>
      <trkpt lat="44.6160030" lon="7.0300910">
        <ele>1762.0</ele>
        <time>2017-07-24T11:07:19Z</time>
      </trkpt>
      <trkpt lat="44.6160450" lon="7.0300280">
        <ele>1760.0</ele>
        <time>2017-07-24T11:07:21Z</time>
      </trkpt>
      <trkpt lat="44.6160620" lon="7.0299900">
        <ele>1759.4</ele>
        <time>2017-07-24T11:07:22Z</time>
      </trkpt>
      <trkpt lat="44.6160890" lon="7.0299440">
        <ele>1758.4</ele>
        <time>2017-07-24T11:07:23Z</time>
      </trkpt>
      <trkpt lat="44.6161410" lon="7.0298700">
        <ele>1756.6</ele>
        <time>2017-07-24T11:07:25Z</time>
      </trkpt>
      <trkpt lat="44.6161590" lon="7.0298290">
        <ele>1754.8</ele>
        <time>2017-07-24T11:07:26Z</time>
      </trkpt>
      <trkpt lat="44.6161740" lon="7.0297970">
        <ele>1753.8</ele>
        <time>2017-07-24T11:07:27Z</time>
      </trkpt>
      <trkpt lat="44.6161990" lon="7.0297380">
        <ele>1752.0</ele>
        <time>2017-07-24T11:07:29Z</time>
      </trkpt>
      <trkpt lat="44.6162160" lon="7.0297300">
        <ele>1751.0</ele>
        <time>2017-07-24T11:07:30Z</time>
      </trkpt>
      <trkpt lat="44.6162760" lon="7.0297250">
        <ele>1747.2</ele>
        <time>2017-07-24T11:07:34Z</time>
      </trkpt>
      <trkpt lat="44.6163180" lon="7.0297250">
        <ele>1745.4</ele>
        <time>2017-07-24T11:07:36Z</time>
      </trkpt>
      <trkpt lat="44.6163440" lon="7.0297270">
        <ele>1744.4</ele>
        <time>2017-07-24T11:07:37Z</time>
      </trkpt>
      <trkpt lat="44.6164010" lon="7.0297080">
        <ele>1742.6</ele>
        <time>2017-07-24T11:07:39Z</time>
      </trkpt>
      <trkpt lat="44.6164260" lon="7.0296980">
        <ele>1741.6</ele>
        <time>2017-07-24T11:07:40Z</time>
      </trkpt>
      <trkpt lat="44.6164510" lon="7.0296870">
        <ele>1740.8</ele>
        <time>2017-07-24T11:07:41Z</time>
      </trkpt>
      <trkpt lat="44.6165000" lon="7.0296500">
        <ele>1739.0</ele>
        <time>2017-07-24T11:07:43Z</time>
      </trkpt>
      <trkpt lat="44.6165460" lon="7.0295950">
        <ele>1737.0</ele>
        <time>2017-07-24T11:07:45Z</time>
      </trkpt>
      <trkpt lat="44.6165620" lon="7.0295560">
        <ele>1736.0</ele>
        <time>2017-07-24T11:07:46Z</time>
      </trkpt>
      <trkpt lat="44.6165950" lon="7.0295220">
        <ele>1734.2</ele>
        <time>2017-07-24T11:07:48Z</time>
      </trkpt>
      <trkpt lat="44.6166540" lon="7.0295080">
        <ele>1730.2</ele>
        <time>2017-07-24T11:07:52Z</time>
      </trkpt>
      <trkpt lat="44.6166770" lon="7.0294850">
        <ele>1729.2</ele>
        <time>2017-07-24T11:07:53Z</time>
      </trkpt>
      <trkpt lat="44.6167190" lon="7.0294510">
        <ele>1727.4</ele>
        <time>2017-07-24T11:07:55Z</time>
      </trkpt>
      <trkpt lat="44.6167620" lon="7.0294210">
        <ele>1725.8</ele>
        <time>2017-07-24T11:07:57Z</time>
      </trkpt>
      <trkpt lat="44.6168020" lon="7.0293940">
        <ele>1724.0</ele>
        <time>2017-07-24T11:07:59Z</time>
      </trkpt>
      <trkpt lat="44.6168560" lon="7.0293780">
        <ele>1722.2</ele>
        <time>2017-07-24T11:08:01Z</time>
      </trkpt>
      <trkpt lat="44.6169020" lon="7.0293720">
        <ele>1720.8</ele>
        <time>2017-07-24T11:08:03Z</time>
      </trkpt>
      <trkpt lat="44.6169410" lon="7.0293810">
        <ele>1719.2</ele>
        <time>2017-07-24T11:08:05Z</time>
      </trkpt>
      <trkpt lat="44.6169810" lon="7.0293650">
        <ele>1717.4</ele>
        <time>2017-07-24T11:08:07Z</time>
      </trkpt>
      <trkpt lat="44.6170180" lon="7.0293370">
        <ele>1716.0</ele>
        <time>2017-07-24T11:08:09Z</time>
      </trkpt>
      <trkpt lat="44.6170510" lon="7.0293250">
        <ele>1714.6</ele>
        <time>2017-07-24T11:08:11Z</time>
      </trkpt>
      <trkpt lat="44.6170640" lon="7.0293230">
        <ele>1714.0</ele>
        <time>2017-07-24T11:08:12Z</time>
      </trkpt>
      <trkpt lat="44.6170810" lon="7.0293190">
        <ele>1713.2</ele>
        <time>2017-07-24T11:08:13Z</time>
      </trkpt>
      <trkpt lat="44.6170970" lon="7.0293170">
        <ele>1711.4</ele>
        <time>2017-07-24T11:08:14Z</time>
      </trkpt>
      <trkpt lat="44.6171410" lon="7.0292840">
        <ele>1710.0</ele>
        <time>2017-07-24T11:08:16Z</time>
      </trkpt>
      <trkpt lat="44.6171990" lon="7.0291940">
        <ele>1708.4</ele>
        <time>2017-07-24T11:08:18Z</time>
      </trkpt>
      <trkpt lat="44.6172510" lon="7.0290840">
        <ele>1706.8</ele>
        <time>2017-07-24T11:08:20Z</time>
      </trkpt>
      <trkpt lat="44.6172800" lon="7.0290330">
        <ele>1706.0</ele>
        <time>2017-07-24T11:08:21Z</time>
      </trkpt>
      <trkpt lat="44.6173040" lon="7.0289830">
        <ele>1705.2</ele>
        <time>2017-07-24T11:08:22Z</time>
      </trkpt>
      <trkpt lat="44.6173520" lon="7.0288950">
        <ele>1703.2</ele>
        <time>2017-07-24T11:08:24Z</time>
      </trkpt>
      <trkpt lat="44.6173970" lon="7.0288260">
        <ele>1701.8</ele>
        <time>2017-07-24T11:08:26Z</time>
      </trkpt>
      <trkpt lat="44.6174430" lon="7.0287850">
        <ele>1700.0</ele>
        <time>2017-07-24T11:08:28Z</time>
      </trkpt>
      <trkpt lat="44.6174700" lon="7.0287700">
        <ele>1699.0</ele>
        <time>2017-07-24T11:08:29Z</time>
      </trkpt>
      <trkpt lat="44.6175090" lon="7.0287390">
        <ele>1697.2</ele>
        <time>2017-07-24T11:08:31Z</time>
      </trkpt>
      <trkpt lat="44.6175460" lon="7.0286980">
        <ele>1695.6</ele>
        <time>2017-07-24T11:08:33Z</time>
      </trkpt>
      <trkpt lat="44.6175930" lon="7.0286530">
        <ele>1693.8</ele>
        <time>2017-07-24T11:08:35Z</time>
      </trkpt>
      <trkpt lat="44.6176470" lon="7.0286040">
        <ele>1692.0</ele>
        <time>2017-07-24T11:08:37Z</time>
      </trkpt>
      <trkpt lat="44.6176750" lon="7.0285870">
        <ele>1690.0</ele>
        <time>2017-07-24T11:08:38Z</time>
      </trkpt>
      <trkpt lat="44.6177000" lon="7.0285730">
        <ele>1689.0</ele>
        <time>2017-07-24T11:08:39Z</time>
      </trkpt>
      <trkpt lat="44.6177520" lon="7.0285670">
        <ele>1687.2</ele>
        <time>2017-07-24T11:08:41Z</time>
      </trkpt>
      <trkpt lat="44.6178160" lon="7.0285830">
        <ele>1685.6</ele>
        <time>2017-07-24T11:08:43Z</time>
      </trkpt>
      <trkpt lat="44.6178740" lon="7.0285830">
        <ele>1683.8</ele>
        <time>2017-07-24T11:08:45Z</time>
      </trkpt>
      <trkpt lat="44.6179080" lon="7.0285670">
        <ele>1682.2</ele>
        <time>2017-07-24T11:08:47Z</time>
      </trkpt>
      <trkpt lat="44.6178520" lon="7.0285190">
        <ele>1679.8</ele>
        <time>2017-07-24T11:08:50Z</time>
      </trkpt>
      <trkpt lat="44.6177870" lon="7.0284740">
        <ele>1678.2</ele>
        <time>2017-07-24T11:08:52Z</time>
      </trkpt>
      <trkpt lat="44.6177490" lon="7.0284220">
        <ele>1676.4</ele>
        <time>2017-07-24T11:08:54Z</time>
      </trkpt>
      <trkpt lat="44.6177310" lon="7.0283910">
        <ele>1675.6</ele>
        <time>2017-07-24T11:08:55Z</time>
      </trkpt>
      <trkpt lat="44.6177120" lon="7.0283550">
        <ele>1675.0</ele>
        <time>2017-07-24T11:08:56Z</time>
      </trkpt>
      <trkpt lat="44.6177130" lon="7.0282990">
        <ele>1674.2</ele>
        <time>2017-07-24T11:08:57Z</time>
      </trkpt>
      <trkpt lat="44.6177160" lon="7.0282310">
        <ele>1673.4</ele>
        <time>2017-07-24T11:08:58Z</time>
      </trkpt>
      <trkpt lat="44.6177320" lon="7.0281520">
        <ele>1671.8</ele>
        <time>2017-07-24T11:09:00Z</time>
      </trkpt>
      <trkpt lat="44.6177460" lon="7.0280980">
        <ele>1669.8</ele>
        <time>2017-07-24T11:09:02Z</time>
      </trkpt>
      <trkpt lat="44.6177800" lon="7.0281120">
        <ele>1669.0</ele>
        <time>2017-07-24T11:09:03Z</time>
      </trkpt>
      <trkpt lat="44.6178050" lon="7.0281310">
        <ele>1668.2</ele>
        <time>2017-07-24T11:09:04Z</time>
      </trkpt>
      <trkpt lat="44.6178610" lon="7.0281990">
        <ele>1666.4</ele>
        <time>2017-07-24T11:09:06Z</time>
      </trkpt>
      <trkpt lat="44.6178860" lon="7.0282060">
        <ele>1665.4</ele>
        <time>2017-07-24T11:09:07Z</time>
      </trkpt>
      <trkpt lat="44.6179060" lon="7.0282110">
        <ele>1664.8</ele>
        <time>2017-07-24T11:09:08Z</time>
      </trkpt>
      <trkpt lat="44.6179300" lon="7.0282100">
        <ele>1664.2</ele>
        <time>2017-07-24T11:09:09Z</time>
      </trkpt>
      <trkpt lat="44.6179510" lon="7.0282110">
        <ele>1663.4</ele>
        <time>2017-07-24T11:09:10Z</time>
      </trkpt>
      <trkpt lat="44.6179800" lon="7.0282150">
        <ele>1661.8</ele>
        <time>2017-07-24T11:09:12Z</time>
      </trkpt>
      <trkpt lat="44.6180140" lon="7.0282120">
        <ele>1660.4</ele>
        <time>2017-07-24T11:09:14Z</time>
      </trkpt>
      <trkpt lat="44.6180370" lon="7.0282350">
        <ele>1659.8</ele>
        <time>2017-07-24T11:09:15Z</time>
      </trkpt>
      <trkpt lat="44.6180590" lon="7.0282420">
        <ele>1659.2</ele>
        <time>2017-07-24T11:09:16Z</time>
      </trkpt>
      <trkpt lat="44.6181270" lon="7.0282800">
        <ele>1658.0</ele>
        <time>2017-07-24T11:09:18Z</time>
      </trkpt>
      <trkpt lat="44.6182140" lon="7.0283140">
        <ele>1656.8</ele>
        <time>2017-07-24T11:09:20Z</time>
      </trkpt>
      <trkpt lat="44.6183140" lon="7.0283620">
        <ele>1656.0</ele>
        <time>2017-07-24T11:09:22Z</time>
      </trkpt>
      <trkpt lat="44.6183660" lon="7.0283810">
        <ele>1655.4</ele>
        <time>2017-07-24T11:09:23Z</time>
      </trkpt>
      <trkpt lat="44.6184150" lon="7.0283990">
        <ele>1654.8</ele>
        <time>2017-07-24T11:09:24Z</time>
      </trkpt>
      <trkpt lat="44.6184650" lon="7.0284070">
        <ele>1654.0</ele>
        <time>2017-07-24T11:09:25Z</time>
      </trkpt>
      <trkpt lat="44.6185170" lon="7.0284130">
        <ele>1652.6</ele>
        <time>2017-07-24T11:09:26Z</time>
      </trkpt>
      <trkpt lat="44.6185620" lon="7.0284480">
        <ele>1651.6</ele>
        <time>2017-07-24T11:09:27Z</time>
      </trkpt>
      <trkpt lat="44.6186040" lon="7.0284790">
        <ele>1650.8</ele>
        <time>2017-07-24T11:09:28Z</time>
      </trkpt>
      <trkpt lat="44.6186500" lon="7.0285040">
        <ele>1649.8</ele>
        <time>2017-07-24T11:09:29Z</time>
      </trkpt>
      <trkpt lat="44.6186970" lon="7.0285600">
        <ele>1648.8</ele>
        <time>2017-07-24T11:09:30Z</time>
      </trkpt>
      <trkpt lat="44.6187560" lon="7.0285870">
        <ele>1647.8</ele>
        <time>2017-07-24T11:09:31Z</time>
      </trkpt>
      <trkpt lat="44.6188120" lon="7.0286150">
        <ele>1646.8</ele>
        <time>2017-07-24T11:09:32Z</time>
      </trkpt>
      <trkpt lat="44.6188690" lon="7.0286460">
        <ele>1646.0</ele>
        <time>2017-07-24T11:09:33Z</time>
      </trkpt>
      <trkpt lat="44.6189350" lon="7.0286730">
        <ele>1644.8</ele>
        <time>2017-07-24T11:09:34Z</time>
      </trkpt>
      <trkpt lat="44.6190680" lon="7.0287190">
        <ele>1643.0</ele>
        <time>2017-07-24T11:09:36Z</time>
      </trkpt>
      <trkpt lat="44.6191340" lon="7.0287550">
        <ele>1642.2</ele>
        <time>2017-07-24T11:09:37Z</time>
      </trkpt>
      <trkpt lat="44.6191990" lon="7.0287930">
        <ele>1640.6</ele>
        <time>2017-07-24T11:09:38Z</time>
      </trkpt>
      <trkpt lat="44.6192710" lon="7.0288240">
        <ele>1639.6</ele>
        <time>2017-07-24T11:09:39Z</time>
      </trkpt>
      <trkpt lat="44.6193500" lon="7.0288570">
        <ele>1638.2</ele>
        <time>2017-07-24T11:09:40Z</time>
      </trkpt>
      <trkpt lat="44.6194260" lon="7.0288930">
        <ele>1636.8</ele>
        <time>2017-07-24T11:09:41Z</time>
      </trkpt>
      <trkpt lat="44.6194960" lon="7.0289090">
        <ele>1635.4</ele>
        <time>2017-07-24T11:09:42Z</time>
      </trkpt>
      <trkpt lat="44.6195590" lon="7.0289070">
        <ele>1634.4</ele>
        <time>2017-07-24T11:09:43Z</time>
      </trkpt>
      <trkpt lat="44.6196130" lon="7.0289050">
        <ele>1633.2</ele>
        <time>2017-07-24T11:09:44Z</time>
      </trkpt>
      <trkpt lat="44.6196880" lon="7.0289100">
        <ele>1632.0</ele>
        <time>2017-07-24T11:09:45Z</time>
      </trkpt>
      <trkpt lat="44.6197630" lon="7.0289250">
        <ele>1630.6</ele>
        <time>2017-07-24T11:09:46Z</time>
      </trkpt>
      <trkpt lat="44.6198320" lon="7.0289450">
        <ele>1629.6</ele>
        <time>2017-07-24T11:09:47Z</time>
      </trkpt>
      <trkpt lat="44.6198970" lon="7.0289720">
        <ele>1628.4</ele>
        <time>2017-07-24T11:09:48Z</time>
      </trkpt>
      <trkpt lat="44.6199400" lon="7.0289910">
        <ele>1627.2</ele>
        <time>2017-07-24T11:09:49Z</time>
      </trkpt>
      <trkpt lat="44.6199800" lon="7.0290250">
        <ele>1624.2</ele>
        <time>2017-07-24T11:09:50Z</time>
      </trkpt>
      <trkpt lat="44.6200190" lon="7.0290740">
        <ele>1623.2</ele>
        <time>2017-07-24T11:09:51Z</time>
      </trkpt>
      <trkpt lat="44.6200400" lon="7.0291360">
        <ele>1622.0</ele>
        <time>2017-07-24T11:09:52Z</time>
      </trkpt>
      <trkpt lat="44.6200610" lon="7.0291820">
        <ele>1620.6</ele>
        <time>2017-07-24T11:09:53Z</time>
      </trkpt>
      <trkpt lat="44.6200730" lon="7.0292230">
        <ele>1619.4</ele>
        <time>2017-07-24T11:09:54Z</time>
      </trkpt>
      <trkpt lat="44.6200680" lon="7.0292670">
        <ele>1618.4</ele>
        <time>2017-07-24T11:09:55Z</time>
      </trkpt>
      <trkpt lat="44.6200470" lon="7.0292830">
        <ele>1617.4</ele>
        <time>2017-07-24T11:09:56Z</time>
      </trkpt>
      <trkpt lat="44.6200220" lon="7.0292960">
        <ele>1616.4</ele>
        <time>2017-07-24T11:09:57Z</time>
      </trkpt>
      <trkpt lat="44.6199600" lon="7.0293710">
        <ele>1614.6</ele>
        <time>2017-07-24T11:09:59Z</time>
      </trkpt>
      <trkpt lat="44.6199270" lon="7.0294910">
        <ele>1613.2</ele>
        <time>2017-07-24T11:10:01Z</time>
      </trkpt>
      <trkpt lat="44.6199070" lon="7.0296140">
        <ele>1612.2</ele>
        <time>2017-07-24T11:10:03Z</time>
      </trkpt>
      <trkpt lat="44.6198950" lon="7.0296670">
        <ele>1611.8</ele>
        <time>2017-07-24T11:10:04Z</time>
      </trkpt>
      <trkpt lat="44.6198260" lon="7.0298560">
        <ele>1611.0</ele>
        <time>2017-07-24T11:10:08Z</time>
      </trkpt>
      <trkpt lat="44.6198010" lon="7.0298950">
        <ele>1610.8</ele>
        <time>2017-07-24T11:10:09Z</time>
      </trkpt>
      <trkpt lat="44.6197430" lon="7.0299760">
        <ele>1610.6</ele>
        <time>2017-07-24T11:10:11Z</time>
      </trkpt>
      <trkpt lat="44.6196340" lon="7.0301050">
        <ele>1610.6</ele>
        <time>2017-07-24T11:10:14Z</time>
      </trkpt>
      <trkpt lat="44.6195950" lon="7.0301420">
        <ele>1610.6</ele>
        <time>2017-07-24T11:10:15Z</time>
      </trkpt>
      <trkpt lat="44.6193910" lon="7.0303140">
        <ele>1610.8</ele>
        <time>2017-07-24T11:10:20Z</time>
      </trkpt>
      <trkpt lat="44.6193430" lon="7.0303380">
        <ele>1610.8</ele>
        <time>2017-07-24T11:10:21Z</time>
      </trkpt>
      <trkpt lat="44.6192930" lon="7.0303520">
        <ele>1611.0</ele>
        <time>2017-07-24T11:10:22Z</time>
      </trkpt>
      <trkpt lat="44.6191000" lon="7.0304050">
        <ele>1611.4</ele>
        <time>2017-07-24T11:10:26Z</time>
      </trkpt>
      <trkpt lat="44.6189630" lon="7.0304330">
        <ele>1612.0</ele>
        <time>2017-07-24T11:10:29Z</time>
      </trkpt>
      <trkpt lat="44.6188090" lon="7.0304750">
        <ele>1612.2</ele>
        <time>2017-07-24T11:10:32Z</time>
      </trkpt>
      <trkpt lat="44.6186390" lon="7.0306400">
        <ele>1612.6</ele>
        <time>2017-07-24T11:10:36Z</time>
      </trkpt>
      <trkpt lat="44.6185600" lon="7.0307270">
        <ele>1613.2</ele>
        <time>2017-07-24T11:10:38Z</time>
      </trkpt>
      <trkpt lat="44.6184360" lon="7.0309060">
        <ele>1614.0</ele>
        <time>2017-07-24T11:10:42Z</time>
      </trkpt>
      <trkpt lat="44.6184040" lon="7.0309530">
        <ele>1614.2</ele>
        <time>2017-07-24T11:10:43Z</time>
      </trkpt>
      <trkpt lat="44.6182650" lon="7.0311660">
        <ele>1615.6</ele>
        <time>2017-07-24T11:10:48Z</time>
      </trkpt>
      <trkpt lat="44.6182350" lon="7.0312030">
        <ele>1615.8</ele>
        <time>2017-07-24T11:10:49Z</time>
      </trkpt>
      <trkpt lat="44.6181340" lon="7.0313830">
        <ele>1616.8</ele>
        <time>2017-07-24T11:10:53Z</time>
      </trkpt>
      <trkpt lat="44.6180780" lon="7.0315170">
        <ele>1617.6</ele>
        <time>2017-07-24T11:10:56Z</time>
      </trkpt>
      <trkpt lat="44.6180470" lon="7.0316060">
        <ele>1618.0</ele>
        <time>2017-07-24T11:10:58Z</time>
      </trkpt>
      <trkpt lat="44.6179880" lon="7.0317630">
        <ele>1619.6</ele>
        <time>2017-07-24T11:11:02Z</time>
      </trkpt>
      <trkpt lat="44.6179200" lon="7.0319130">
        <ele>1620.8</ele>
        <time>2017-07-24T11:11:06Z</time>
      </trkpt>
      <trkpt lat="44.6178550" lon="7.0320120">
        <ele>1621.8</ele>
        <time>2017-07-24T11:11:09Z</time>
      </trkpt>
      <trkpt lat="44.6178370" lon="7.0320500">
        <ele>1622.0</ele>
        <time>2017-07-24T11:11:10Z</time>
      </trkpt>
      <trkpt lat="44.6177780" lon="7.0321150">
        <ele>1622.8</ele>
        <time>2017-07-24T11:11:13Z</time>
      </trkpt>
      <trkpt lat="44.6177570" lon="7.0321220">
        <ele>1623.2</ele>
        <time>2017-07-24T11:11:14Z</time>
      </trkpt>
      <trkpt lat="44.6176720" lon="7.0321060">
        <ele>1623.6</ele>
        <time>2017-07-24T11:11:17Z</time>
      </trkpt>
      <trkpt lat="44.6176420" lon="7.0321140">
        <ele>1623.8</ele>
        <time>2017-07-24T11:11:18Z</time>
      </trkpt>
      <trkpt lat="44.6175850" lon="7.0322390">
        <ele>1623.8</ele>
        <time>2017-07-24T11:11:21Z</time>
      </trkpt>
      <trkpt lat="44.6175580" lon="7.0323400">
        <ele>1624.2</ele>
        <time>2017-07-24T11:11:23Z</time>
      </trkpt>
      <trkpt lat="44.6175650" lon="7.0324660">
        <ele>1625.2</ele>
        <time>2017-07-24T11:11:26Z</time>
      </trkpt>
      <trkpt lat="44.6175670" lon="7.0324940">
        <ele>1625.4</ele>
        <time>2017-07-24T11:11:27Z</time>
      </trkpt>
      <trkpt lat="44.6175600" lon="7.0325940">
        <ele>1626.8</ele>
        <time>2017-07-24T11:11:31Z</time>
      </trkpt>
      <trkpt lat="44.6175170" lon="7.0327320">
        <ele>1628.0</ele>
        <time>2017-07-24T11:11:35Z</time>
      </trkpt>
      <trkpt lat="44.6174710" lon="7.0327980">
        <ele>1628.6</ele>
        <time>2017-07-24T11:11:37Z</time>
      </trkpt>
      <trkpt lat="44.6174370" lon="7.0328720">
        <ele>1629.2</ele>
        <time>2017-07-24T11:11:39Z</time>
      </trkpt>
      <trkpt lat="44.6173930" lon="7.0329640">
        <ele>1630.2</ele>
        <time>2017-07-24T11:11:42Z</time>
      </trkpt>
      <trkpt lat="44.6173890" lon="7.0329930">
        <ele>1630.4</ele>
        <time>2017-07-24T11:11:43Z</time>
      </trkpt>
      <trkpt lat="44.6172830" lon="7.0332040">
        <ele>1631.4</ele>
        <time>2017-07-24T11:11:48Z</time>
      </trkpt>
      <trkpt lat="44.6172160" lon="7.0333200">
        <ele>1632.6</ele>
        <time>2017-07-24T11:11:51Z</time>
      </trkpt>
      <trkpt lat="44.6171310" lon="7.0334900">
        <ele>1633.4</ele>
        <time>2017-07-24T11:11:55Z</time>
      </trkpt>
      <trkpt lat="44.6171060" lon="7.0335860">
        <ele>1634.0</ele>
        <time>2017-07-24T11:11:57Z</time>
      </trkpt>
      <trkpt lat="44.6170520" lon="7.0337170">
        <ele>1634.6</ele>
        <time>2017-07-24T11:12:00Z</time>
      </trkpt>
      <trkpt lat="44.6170190" lon="7.0337910">
        <ele>1635.0</ele>
        <time>2017-07-24T11:12:02Z</time>
      </trkpt>
      <trkpt lat="44.6170340" lon="7.0338980">
        <ele>1635.4</ele>
        <time>2017-07-24T11:12:04Z</time>
      </trkpt>
      <trkpt lat="44.6170430" lon="7.0339480">
        <ele>1635.6</ele>
        <time>2017-07-24T11:12:05Z</time>
      </trkpt>
      <trkpt lat="44.6169920" lon="7.0341020">
        <ele>1636.0</ele>
        <time>2017-07-24T11:12:08Z</time>
      </trkpt>
      <trkpt lat="44.6169680" lon="7.0341480">
        <ele>1636.2</ele>
        <time>2017-07-24T11:12:09Z</time>
      </trkpt>
      <trkpt lat="44.6169080" lon="7.0342370">
        <ele>1636.4</ele>
        <time>2017-07-24T11:12:11Z</time>
      </trkpt>
      <trkpt lat="44.6168220" lon="7.0343150">
        <ele>1636.4</ele>
        <time>2017-07-24T11:12:13Z</time>
      </trkpt>
      <trkpt lat="44.6167210" lon="7.0344610">
        <ele>1636.8</ele>
        <time>2017-07-24T11:12:16Z</time>
      </trkpt>
      <trkpt lat="44.6166760" lon="7.0345790">
        <ele>1637.2</ele>
        <time>2017-07-24T11:12:18Z</time>
      </trkpt>
      <trkpt lat="44.6166170" lon="7.0346790">
        <ele>1637.4</ele>
        <time>2017-07-24T11:12:20Z</time>
      </trkpt>
      <trkpt lat="44.6164900" lon="7.0348470">
        <ele>1637.8</ele>
        <time>2017-07-24T11:12:24Z</time>
      </trkpt>
      <trkpt lat="44.6164250" lon="7.0349410">
        <ele>1638.2</ele>
        <time>2017-07-24T11:12:26Z</time>
      </trkpt>
      <trkpt lat="44.6163360" lon="7.0350870">
        <ele>1638.6</ele>
        <time>2017-07-24T11:12:29Z</time>
      </trkpt>
      <trkpt lat="44.6162740" lon="7.0351750">
        <ele>1639.0</ele>
        <time>2017-07-24T11:12:31Z</time>
      </trkpt>
      <trkpt lat="44.6161850" lon="7.0353120">
        <ele>1639.4</ele>
        <time>2017-07-24T11:12:34Z</time>
      </trkpt>
      <trkpt lat="44.6161150" lon="7.0353360">
        <ele>1639.8</ele>
        <time>2017-07-24T11:12:36Z</time>
      </trkpt>
      <trkpt lat="44.6160530" lon="7.0353300">
        <ele>1640.6</ele>
        <time>2017-07-24T11:12:38Z</time>
      </trkpt>
      <trkpt lat="44.6160310" lon="7.0353300">
        <ele>1640.8</ele>
        <time>2017-07-24T11:12:39Z</time>
      </trkpt>
      <trkpt lat="44.6159760" lon="7.0353550">
        <ele>1641.4</ele>
        <time>2017-07-24T11:12:41Z</time>
      </trkpt>
      <trkpt lat="44.6159510" lon="7.0353720">
        <ele>1641.6</ele>
        <time>2017-07-24T11:12:42Z</time>
      </trkpt>
      <trkpt lat="44.6159400" lon="7.0354140">
        <ele>1641.8</ele>
        <time>2017-07-24T11:12:43Z</time>
      </trkpt>
      <trkpt lat="44.6159460" lon="7.0355730">
        <ele>1642.0</ele>
        <time>2017-07-24T11:12:45Z</time>
      </trkpt>
      <trkpt lat="44.6158730" lon="7.0357910">
        <ele>1642.0</ele>
        <time>2017-07-24T11:12:48Z</time>
      </trkpt>
      <trkpt lat="44.6157980" lon="7.0359130">
        <ele>1642.2</ele>
        <time>2017-07-24T11:12:50Z</time>
      </trkpt>
      <trkpt lat="44.6156280" lon="7.0361500">
        <ele>1641.6</ele>
        <time>2017-07-24T11:12:54Z</time>
      </trkpt>
      <trkpt lat="44.6155740" lon="7.0361980">
        <ele>1641.4</ele>
        <time>2017-07-24T11:12:55Z</time>
      </trkpt>
      <trkpt lat="44.6153620" lon="7.0363040">
        <ele>1640.2</ele>
        <time>2017-07-24T11:12:58Z</time>
      </trkpt>
      <trkpt lat="44.6152390" lon="7.0364030">
        <ele>1638.8</ele>
        <time>2017-07-24T11:13:00Z</time>
      </trkpt>
      <trkpt lat="44.6151710" lon="7.0364520">
        <ele>1638.2</ele>
        <time>2017-07-24T11:13:01Z</time>
      </trkpt>
      <trkpt lat="44.6151120" lon="7.0365090">
        <ele>1636.8</ele>
        <time>2017-07-24T11:13:02Z</time>
      </trkpt>
      <trkpt lat="44.6150440" lon="7.0365460">
        <ele>1636.2</ele>
        <time>2017-07-24T11:13:03Z</time>
      </trkpt>
      <trkpt lat="44.6149710" lon="7.0365760">
        <ele>1635.6</ele>
        <time>2017-07-24T11:13:04Z</time>
      </trkpt>
      <trkpt lat="44.6149070" lon="7.0366190">
        <ele>1635.2</ele>
        <time>2017-07-24T11:13:05Z</time>
      </trkpt>
      <trkpt lat="44.6148400" lon="7.0366660">
        <ele>1634.6</ele>
        <time>2017-07-24T11:13:06Z</time>
      </trkpt>
      <trkpt lat="44.6147080" lon="7.0367740">
        <ele>1633.8</ele>
        <time>2017-07-24T11:13:08Z</time>
      </trkpt>
      <trkpt lat="44.6146530" lon="7.0368350">
        <ele>1633.2</ele>
        <time>2017-07-24T11:13:09Z</time>
      </trkpt>
      <trkpt lat="44.6145930" lon="7.0368910">
        <ele>1633.0</ele>
        <time>2017-07-24T11:13:10Z</time>
      </trkpt>
      <trkpt lat="44.6143830" lon="7.0371310">
        <ele>1632.0</ele>
        <time>2017-07-24T11:13:14Z</time>
      </trkpt>
      <trkpt lat="44.6143290" lon="7.0371780">
        <ele>1631.8</ele>
        <time>2017-07-24T11:13:15Z</time>
      </trkpt>
      <trkpt lat="44.6142710" lon="7.0372090">
        <ele>1631.4</ele>
        <time>2017-07-24T11:13:16Z</time>
      </trkpt>
      <trkpt lat="44.6142120" lon="7.0372470">
        <ele>1631.0</ele>
        <time>2017-07-24T11:13:17Z</time>
      </trkpt>
      <trkpt lat="44.6141890" lon="7.0372910">
        <ele>1630.4</ele>
        <time>2017-07-24T11:13:18Z</time>
      </trkpt>
      <trkpt lat="44.6141900" lon="7.0373970">
        <ele>1630.0</ele>
        <time>2017-07-24T11:13:20Z</time>
      </trkpt>
      <trkpt lat="44.6141690" lon="7.0374410">
        <ele>1630.0</ele>
        <time>2017-07-24T11:13:21Z</time>
      </trkpt>
      <trkpt lat="44.6141470" lon="7.0374920">
        <ele>1629.8</ele>
        <time>2017-07-24T11:13:22Z</time>
      </trkpt>
      <trkpt lat="44.6140850" lon="7.0375850">
        <ele>1629.0</ele>
        <time>2017-07-24T11:13:24Z</time>
      </trkpt>
      <trkpt lat="44.6140510" lon="7.0376420">
        <ele>1628.6</ele>
        <time>2017-07-24T11:13:25Z</time>
      </trkpt>
      <trkpt lat="44.6140150" lon="7.0377000">
        <ele>1628.4</ele>
        <time>2017-07-24T11:13:26Z</time>
      </trkpt>
      <trkpt lat="44.6139810" lon="7.0377730">
        <ele>1627.8</ele>
        <time>2017-07-24T11:13:27Z</time>
      </trkpt>
      <trkpt lat="44.6139510" lon="7.0378450">
        <ele>1627.6</ele>
        <time>2017-07-24T11:13:28Z</time>
      </trkpt>
      <trkpt lat="44.6138460" lon="7.0380590">
        <ele>1627.2</ele>
        <time>2017-07-24T11:13:31Z</time>
      </trkpt>
      <trkpt lat="44.6137680" lon="7.0382280">
        <ele>1626.4</ele>
        <time>2017-07-24T11:13:33Z</time>
      </trkpt>
      <trkpt lat="44.6136510" lon="7.0384800">
        <ele>1625.4</ele>
        <time>2017-07-24T11:13:36Z</time>
      </trkpt>
      <trkpt lat="44.6136120" lon="7.0385670">
        <ele>1625.4</ele>
        <time>2017-07-24T11:13:37Z</time>
      </trkpt>
      <trkpt lat="44.6134510" lon="7.0389590">
        <ele>1624.2</ele>
        <time>2017-07-24T11:13:41Z</time>
      </trkpt>
      <trkpt lat="44.6133150" lon="7.0393860">
        <ele>1623.0</ele>
        <time>2017-07-24T11:13:45Z</time>
      </trkpt>
      <trkpt lat="44.6132740" lon="7.0394770">
        <ele>1623.0</ele>
        <time>2017-07-24T11:13:46Z</time>
      </trkpt>
      <trkpt lat="44.6132270" lon="7.0395750">
        <ele>1622.8</ele>
        <time>2017-07-24T11:13:47Z</time>
      </trkpt>
      <trkpt lat="44.6131760" lon="7.0396670">
        <ele>1622.6</ele>
        <time>2017-07-24T11:13:48Z</time>
      </trkpt>
      <trkpt lat="44.6131200" lon="7.0397570">
        <ele>1622.2</ele>
        <time>2017-07-24T11:13:49Z</time>
      </trkpt>
      <trkpt lat="44.6130680" lon="7.0398380">
        <ele>1622.0</ele>
        <time>2017-07-24T11:13:50Z</time>
      </trkpt>
      <trkpt lat="44.6130040" lon="7.0399060">
        <ele>1621.2</ele>
        <time>2017-07-24T11:13:51Z</time>
      </trkpt>
      <trkpt lat="44.6129430" lon="7.0399730">
        <ele>1621.0</ele>
        <time>2017-07-24T11:13:52Z</time>
      </trkpt>
      <trkpt lat="44.6128370" lon="7.0401320">
        <ele>1620.6</ele>
        <time>2017-07-24T11:13:54Z</time>
      </trkpt>
      <trkpt lat="44.6127070" lon="7.0403610">
        <ele>1619.8</ele>
        <time>2017-07-24T11:13:57Z</time>
      </trkpt>
      <trkpt lat="44.6125900" lon="7.0403710">
        <ele>1619.4</ele>
        <time>2017-07-24T11:13:59Z</time>
      </trkpt>
      <trkpt lat="44.6125470" lon="7.0404370">
        <ele>1619.2</ele>
        <time>2017-07-24T11:14:00Z</time>
      </trkpt>
      <trkpt lat="44.6125140" lon="7.0405260">
        <ele>1619.0</ele>
        <time>2017-07-24T11:14:01Z</time>
      </trkpt>
      <trkpt lat="44.6125140" lon="7.0406250">
        <ele>1618.6</ele>
        <time>2017-07-24T11:14:02Z</time>
      </trkpt>
      <trkpt lat="44.6125090" lon="7.0408160">
        <ele>1618.2</ele>
        <time>2017-07-24T11:14:04Z</time>
      </trkpt>
      <trkpt lat="44.6124890" lon="7.0409200">
        <ele>1618.2</ele>
        <time>2017-07-24T11:14:05Z</time>
      </trkpt>
      <trkpt lat="44.6124530" lon="7.0411060">
        <ele>1617.6</ele>
        <time>2017-07-24T11:14:07Z</time>
      </trkpt>
      <trkpt lat="44.6124380" lon="7.0411990">
        <ele>1617.4</ele>
        <time>2017-07-24T11:14:08Z</time>
      </trkpt>
      <trkpt lat="44.6123700" lon="7.0415960">
        <ele>1616.6</ele>
        <time>2017-07-24T11:14:12Z</time>
      </trkpt>
      <trkpt lat="44.6123110" lon="7.0418920">
        <ele>1615.8</ele>
        <time>2017-07-24T11:14:15Z</time>
      </trkpt>
      <trkpt lat="44.6122760" lon="7.0420700">
        <ele>1615.6</ele>
        <time>2017-07-24T11:14:17Z</time>
      </trkpt>
      <trkpt lat="44.6121910" lon="7.0423530">
        <ele>1615.2</ele>
        <time>2017-07-24T11:14:20Z</time>
      </trkpt>
      <trkpt lat="44.6121140" lon="7.0427800">
        <ele>1614.4</ele>
        <time>2017-07-24T11:14:24Z</time>
      </trkpt>
      <trkpt lat="44.6120980" lon="7.0428880">
        <ele>1614.4</ele>
        <time>2017-07-24T11:14:25Z</time>
      </trkpt>
      <trkpt lat="44.6120500" lon="7.0430950">
        <ele>1614.0</ele>
        <time>2017-07-24T11:14:27Z</time>
      </trkpt>
      <trkpt lat="44.6119870" lon="7.0432790">
        <ele>1613.8</ele>
        <time>2017-07-24T11:14:29Z</time>
      </trkpt>
      <trkpt lat="44.6119010" lon="7.0434590">
        <ele>1613.4</ele>
        <time>2017-07-24T11:14:31Z</time>
      </trkpt>
      <trkpt lat="44.6118560" lon="7.0435570">
        <ele>1613.4</ele>
        <time>2017-07-24T11:14:32Z</time>
      </trkpt>
      <trkpt lat="44.6117950" lon="7.0437780">
        <ele>1613.0</ele>
        <time>2017-07-24T11:14:34Z</time>
      </trkpt>
      <trkpt lat="44.6117660" lon="7.0441050">
        <ele>1612.8</ele>
        <time>2017-07-24T11:14:37Z</time>
      </trkpt>
      <trkpt lat="44.6117530" lon="7.0442100">
        <ele>1612.8</ele>
        <time>2017-07-24T11:14:38Z</time>
      </trkpt>
      <trkpt lat="44.6117460" lon="7.0445180">
        <ele>1612.4</ele>
        <time>2017-07-24T11:14:41Z</time>
      </trkpt>
      <trkpt lat="44.6117640" lon="7.0446160">
        <ele>1612.2</ele>
        <time>2017-07-24T11:14:42Z</time>
      </trkpt>
      <trkpt lat="44.6117830" lon="7.0447130">
        <ele>1612.2</ele>
        <time>2017-07-24T11:14:43Z</time>
      </trkpt>
      <trkpt lat="44.6118080" lon="7.0450090">
        <ele>1612.2</ele>
        <time>2017-07-24T11:14:46Z</time>
      </trkpt>
      <trkpt lat="44.6117650" lon="7.0451750">
        <ele>1612.2</ele>
        <time>2017-07-24T11:14:48Z</time>
      </trkpt>
      <trkpt lat="44.6116470" lon="7.0453030">
        <ele>1612.2</ele>
        <time>2017-07-24T11:14:51Z</time>
      </trkpt>
      <trkpt lat="44.6115920" lon="7.0453440">
        <ele>1612.2</ele>
        <time>2017-07-24T11:14:52Z</time>
      </trkpt>
      <trkpt lat="44.6114860" lon="7.0454540">
        <ele>1612.4</ele>
        <time>2017-07-24T11:14:54Z</time>
      </trkpt>
      <trkpt lat="44.6114240" lon="7.0456150">
        <ele>1612.4</ele>
        <time>2017-07-24T11:14:56Z</time>
      </trkpt>
      <trkpt lat="44.6114590" lon="7.0458820">
        <ele>1612.2</ele>
        <time>2017-07-24T11:14:59Z</time>
      </trkpt>
      <trkpt lat="44.6115100" lon="7.0460530">
        <ele>1612.4</ele>
        <time>2017-07-24T11:15:01Z</time>
      </trkpt>
      <trkpt lat="44.6115800" lon="7.0463030">
        <ele>1612.4</ele>
        <time>2017-07-24T11:15:04Z</time>
      </trkpt>
      <trkpt lat="44.6115780" lon="7.0465690">
        <ele>1612.6</ele>
        <time>2017-07-24T11:15:07Z</time>
      </trkpt>
      <trkpt lat="44.6116170" lon="7.0470120">
        <ele>1612.0</ele>
        <time>2017-07-24T11:15:11Z</time>
      </trkpt>
      <trkpt lat="44.6116090" lon="7.0471180">
        <ele>1611.6</ele>
        <time>2017-07-24T11:15:12Z</time>
      </trkpt>
      <trkpt lat="44.6115970" lon="7.0472300">
        <ele>1611.0</ele>
        <time>2017-07-24T11:15:13Z</time>
      </trkpt>
      <trkpt lat="44.6116220" lon="7.0474450">
        <ele>1610.8</ele>
        <time>2017-07-24T11:15:15Z</time>
      </trkpt>
      <trkpt lat="44.6117160" lon="7.0476130">
        <ele>1610.0</ele>
        <time>2017-07-24T11:15:17Z</time>
      </trkpt>
      <trkpt lat="44.6117500" lon="7.0477050">
        <ele>1609.2</ele>
        <time>2017-07-24T11:15:18Z</time>
      </trkpt>
      <trkpt lat="44.6117850" lon="7.0477860">
        <ele>1608.8</ele>
        <time>2017-07-24T11:15:19Z</time>
      </trkpt>
      <trkpt lat="44.6117880" lon="7.0478940">
        <ele>1607.8</ele>
        <time>2017-07-24T11:15:20Z</time>
      </trkpt>
      <trkpt lat="44.6118250" lon="7.0479840">
        <ele>1607.4</ele>
        <time>2017-07-24T11:15:21Z</time>
      </trkpt>
      <trkpt lat="44.6119550" lon="7.0480970">
        <ele>1606.0</ele>
        <time>2017-07-24T11:15:23Z</time>
      </trkpt>
      <trkpt lat="44.6120860" lon="7.0481800">
        <ele>1605.0</ele>
        <time>2017-07-24T11:15:25Z</time>
      </trkpt>
      <trkpt lat="44.6121520" lon="7.0482310">
        <ele>1604.6</ele>
        <time>2017-07-24T11:15:26Z</time>
      </trkpt>
      <trkpt lat="44.6122170" lon="7.0482840">
        <ele>1603.6</ele>
        <time>2017-07-24T11:15:27Z</time>
      </trkpt>
      <trkpt lat="44.6122840" lon="7.0483410">
        <ele>1603.0</ele>
        <time>2017-07-24T11:15:28Z</time>
      </trkpt>
      <trkpt lat="44.6124100" lon="7.0484710">
        <ele>1602.4</ele>
        <time>2017-07-24T11:15:30Z</time>
      </trkpt>
      <trkpt lat="44.6125900" lon="7.0486930">
        <ele>1601.2</ele>
        <time>2017-07-24T11:15:33Z</time>
      </trkpt>
      <trkpt lat="44.6126450" lon="7.0487710">
        <ele>1600.8</ele>
        <time>2017-07-24T11:15:34Z</time>
      </trkpt>
      <trkpt lat="44.6127460" lon="7.0489410">
        <ele>1600.2</ele>
        <time>2017-07-24T11:15:36Z</time>
      </trkpt>
      <trkpt lat="44.6128860" lon="7.0492190">
        <ele>1599.4</ele>
        <time>2017-07-24T11:15:39Z</time>
      </trkpt>
      <trkpt lat="44.6129270" lon="7.0493160">
        <ele>1599.2</ele>
        <time>2017-07-24T11:15:40Z</time>
      </trkpt>
      <trkpt lat="44.6131180" lon="7.0499160">
        <ele>1598.0</ele>
        <time>2017-07-24T11:15:46Z</time>
      </trkpt>
      <trkpt lat="44.6132000" lon="7.0500680">
        <ele>1598.0</ele>
        <time>2017-07-24T11:15:48Z</time>
      </trkpt>
      <trkpt lat="44.6132680" lon="7.0500980">
        <ele>1597.8</ele>
        <time>2017-07-24T11:15:49Z</time>
      </trkpt>
      <trkpt lat="44.6134500" lon="7.0501650">
        <ele>1597.8</ele>
        <time>2017-07-24T11:15:52Z</time>
      </trkpt>
      <trkpt lat="44.6135230" lon="7.0501710">
        <ele>1597.8</ele>
        <time>2017-07-24T11:15:53Z</time>
      </trkpt>
      <trkpt lat="44.6138310" lon="7.0501150">
        <ele>1597.6</ele>
        <time>2017-07-24T11:15:57Z</time>
      </trkpt>
      <trkpt lat="44.6140650" lon="7.0500370">
        <ele>1597.4</ele>
        <time>2017-07-24T11:16:00Z</time>
      </trkpt>
      <trkpt lat="44.6142130" lon="7.0499210">
        <ele>1597.2</ele>
        <time>2017-07-24T11:16:02Z</time>
      </trkpt>
      <trkpt lat="44.6144300" lon="7.0497450">
        <ele>1597.0</ele>
        <time>2017-07-24T11:16:05Z</time>
      </trkpt>
      <trkpt lat="44.6144940" lon="7.0496670">
        <ele>1597.0</ele>
        <time>2017-07-24T11:16:06Z</time>
      </trkpt>
      <trkpt lat="44.6145250" lon="7.0495670">
        <ele>1596.8</ele>
        <time>2017-07-24T11:16:07Z</time>
      </trkpt>
      <trkpt lat="44.6145550" lon="7.0494030">
        <ele>1596.8</ele>
        <time>2017-07-24T11:16:09Z</time>
      </trkpt>
      <trkpt lat="44.6146310" lon="7.0494080">
        <ele>1596.8</ele>
        <time>2017-07-24T11:16:11Z</time>
      </trkpt>
      <trkpt lat="44.6146600" lon="7.0495210">
        <ele>1596.8</ele>
        <time>2017-07-24T11:16:13Z</time>
      </trkpt>
      <trkpt lat="44.6146840" lon="7.0496630">
        <ele>1597.2</ele>
        <time>2017-07-24T11:16:15Z</time>
      </trkpt>
      <trkpt lat="44.6147190" lon="7.0498940">
        <ele>1597.4</ele>
        <time>2017-07-24T11:16:18Z</time>
      </trkpt>
      <trkpt lat="44.6147550" lon="7.0502490">
        <ele>1597.4</ele>
        <time>2017-07-24T11:16:22Z</time>
      </trkpt>
      <trkpt lat="44.6147610" lon="7.0503150">
        <ele>1597.2</ele>
        <time>2017-07-24T11:16:23Z</time>
      </trkpt>
      <trkpt lat="44.6147440" lon="7.0503400">
        <ele>1597.0</ele>
        <time>2017-07-24T11:16:24Z</time>
      </trkpt>
      <trkpt lat="44.6147230" lon="7.0503450">
        <ele>1597.0</ele>
        <time>2017-07-24T11:16:25Z</time>
      </trkpt>
      <trkpt lat="44.6147130" lon="7.0502510">
        <ele>1596.6</ele>
        <time>2017-07-24T11:16:27Z</time>
      </trkpt>
      <trkpt lat="44.6147080" lon="7.0502950">
        <ele>1596.0</ele>
        <time>2017-07-24T11:16:29Z</time>
      </trkpt>
      <trkpt lat="44.6147030" lon="7.0503290">
        <ele>1595.8</ele>
        <time>2017-07-24T11:16:30Z</time>
      </trkpt>
      <trkpt lat="44.6146800" lon="7.0505250">
        <ele>1594.6</ele>
        <time>2017-07-24T11:16:33Z</time>
      </trkpt>
      <trkpt lat="44.6146800" lon="7.0506080">
        <ele>1594.2</ele>
        <time>2017-07-24T11:16:34Z</time>
      </trkpt>
      <trkpt lat="44.6146890" lon="7.0506980">
        <ele>1593.6</ele>
        <time>2017-07-24T11:16:35Z</time>
      </trkpt>
      <trkpt lat="44.6147430" lon="7.0508810">
        <ele>1592.4</ele>
        <time>2017-07-24T11:16:37Z</time>
      </trkpt>
      <trkpt lat="44.6147770" lon="7.0509700">
        <ele>1592.2</ele>
        <time>2017-07-24T11:16:38Z</time>
      </trkpt>
      <trkpt lat="44.6148090" lon="7.0510720">
        <ele>1591.0</ele>
        <time>2017-07-24T11:16:39Z</time>
      </trkpt>
      <trkpt lat="44.6148320" lon="7.0511940">
        <ele>1589.6</ele>
        <time>2017-07-24T11:16:40Z</time>
      </trkpt>
      <trkpt lat="44.6148550" lon="7.0514590">
        <ele>1588.2</ele>
        <time>2017-07-24T11:16:42Z</time>
      </trkpt>
      <trkpt lat="44.6148940" lon="7.0518520">
        <ele>1587.0</ele>
        <time>2017-07-24T11:16:45Z</time>
      </trkpt>
      <trkpt lat="44.6148940" lon="7.0519550">
        <ele>1586.4</ele>
        <time>2017-07-24T11:16:46Z</time>
      </trkpt>
      <trkpt lat="44.6148740" lon="7.0520490">
        <ele>1585.6</ele>
        <time>2017-07-24T11:16:47Z</time>
      </trkpt>
      <trkpt lat="44.6148040" lon="7.0521660">
        <ele>1584.6</ele>
        <time>2017-07-24T11:16:49Z</time>
      </trkpt>
      <trkpt lat="44.6147200" lon="7.0522950">
        <ele>1583.4</ele>
        <time>2017-07-24T11:16:51Z</time>
      </trkpt>
      <trkpt lat="44.6146110" lon="7.0523600">
        <ele>1582.4</ele>
        <time>2017-07-24T11:16:53Z</time>
      </trkpt>
      <trkpt lat="44.6144980" lon="7.0523560">
        <ele>1582.0</ele>
        <time>2017-07-24T11:16:55Z</time>
      </trkpt>
      <trkpt lat="44.6144480" lon="7.0523630">
        <ele>1581.8</ele>
        <time>2017-07-24T11:16:56Z</time>
      </trkpt>
      <trkpt lat="44.6144040" lon="7.0523760">
        <ele>1581.6</ele>
        <time>2017-07-24T11:16:57Z</time>
      </trkpt>
      <trkpt lat="44.6143470" lon="7.0524290">
        <ele>1581.4</ele>
        <time>2017-07-24T11:16:59Z</time>
      </trkpt>
      <trkpt lat="44.6143430" lon="7.0524820">
        <ele>1581.4</ele>
        <time>2017-07-24T11:17:00Z</time>
      </trkpt>
      <trkpt lat="44.6143230" lon="7.0525240">
        <ele>1581.4</ele>
        <time>2017-07-24T11:17:01Z</time>
      </trkpt>
      <trkpt lat="44.6142380" lon="7.0526260">
        <ele>1581.2</ele>
        <time>2017-07-24T11:17:04Z</time>
      </trkpt>
      <trkpt lat="44.6142100" lon="7.0526590">
        <ele>1581.4</ele>
        <time>2017-07-24T11:17:05Z</time>
      </trkpt>
      <trkpt lat="44.6141300" lon="7.0526880">
        <ele>1581.4</ele>
        <time>2017-07-24T11:17:07Z</time>
      </trkpt>
      <trkpt lat="44.6140330" lon="7.0527080">
        <ele>1581.6</ele>
        <time>2017-07-24T11:17:09Z</time>
      </trkpt>
      <trkpt lat="44.6138440" lon="7.0527550">
        <ele>1582.2</ele>
        <time>2017-07-24T11:17:13Z</time>
      </trkpt>
      <trkpt lat="44.6138040" lon="7.0527780">
        <ele>1582.4</ele>
        <time>2017-07-24T11:17:14Z</time>
      </trkpt>
      <trkpt lat="44.6137250" lon="7.0528240">
        <ele>1582.8</ele>
        <time>2017-07-24T11:17:16Z</time>
      </trkpt>
      <trkpt lat="44.6136360" lon="7.0528620">
        <ele>1583.4</ele>
        <time>2017-07-24T11:17:18Z</time>
      </trkpt>
      <trkpt lat="44.6135890" lon="7.0528750">
        <ele>1583.6</ele>
        <time>2017-07-24T11:17:19Z</time>
      </trkpt>
      <trkpt lat="44.6134920" lon="7.0529030">
        <ele>1584.2</ele>
        <time>2017-07-24T11:17:21Z</time>
      </trkpt>
      <trkpt lat="44.6133930" lon="7.0529220">
        <ele>1584.8</ele>
        <time>2017-07-24T11:17:23Z</time>
      </trkpt>
      <trkpt lat="44.6132930" lon="7.0529620">
        <ele>1585.0</ele>
        <time>2017-07-24T11:17:25Z</time>
      </trkpt>
      <trkpt lat="44.6130670" lon="7.0530620">
        <ele>1585.2</ele>
        <time>2017-07-24T11:17:29Z</time>
      </trkpt>
      <trkpt lat="44.6126910" lon="7.0531730">
        <ele>1584.4</ele>
        <time>2017-07-24T11:17:34Z</time>
      </trkpt>
      <trkpt lat="44.6124210" lon="7.0532290">
        <ele>1583.6</ele>
        <time>2017-07-24T11:17:37Z</time>
      </trkpt>
      <trkpt lat="44.6122600" lon="7.0532660">
        <ele>1582.6</ele>
        <time>2017-07-24T11:17:39Z</time>
      </trkpt>
      <trkpt lat="44.6121330" lon="7.0533500">
        <ele>1581.0</ele>
        <time>2017-07-24T11:17:41Z</time>
      </trkpt>
      <trkpt lat="44.6120680" lon="7.0534190">
        <ele>1580.4</ele>
        <time>2017-07-24T11:17:42Z</time>
      </trkpt>
      <trkpt lat="44.6120060" lon="7.0534860">
        <ele>1579.8</ele>
        <time>2017-07-24T11:17:43Z</time>
      </trkpt>
      <trkpt lat="44.6118720" lon="7.0536520">
        <ele>1578.8</ele>
        <time>2017-07-24T11:17:45Z</time>
      </trkpt>
      <trkpt lat="44.6117270" lon="7.0538220">
        <ele>1576.8</ele>
        <time>2017-07-24T11:17:47Z</time>
      </trkpt>
      <trkpt lat="44.6116540" lon="7.0539000">
        <ele>1575.8</ele>
        <time>2017-07-24T11:17:48Z</time>
      </trkpt>
      <trkpt lat="44.6115670" lon="7.0539670">
        <ele>1575.0</ele>
        <time>2017-07-24T11:17:49Z</time>
      </trkpt>
      <trkpt lat="44.6113780" lon="7.0541140">
        <ele>1573.0</ele>
        <time>2017-07-24T11:17:51Z</time>
      </trkpt>
      <trkpt lat="44.6112750" lon="7.0541880">
        <ele>1571.8</ele>
        <time>2017-07-24T11:17:52Z</time>
      </trkpt>
      <trkpt lat="44.6110800" lon="7.0542690">
        <ele>1570.2</ele>
        <time>2017-07-24T11:17:54Z</time>
      </trkpt>
      <trkpt lat="44.6108660" lon="7.0542610">
        <ele>1568.4</ele>
        <time>2017-07-24T11:17:56Z</time>
      </trkpt>
      <trkpt lat="44.6107640" lon="7.0542190">
        <ele>1567.2</ele>
        <time>2017-07-24T11:17:57Z</time>
      </trkpt>
      <trkpt lat="44.6106940" lon="7.0542280">
        <ele>1566.2</ele>
        <time>2017-07-24T11:17:58Z</time>
      </trkpt>
      <trkpt lat="44.6106400" lon="7.0542390">
        <ele>1564.6</ele>
        <time>2017-07-24T11:17:59Z</time>
      </trkpt>
      <trkpt lat="44.6105960" lon="7.0542520">
        <ele>1563.6</ele>
        <time>2017-07-24T11:18:00Z</time>
      </trkpt>
      <trkpt lat="44.6105640" lon="7.0542560">
        <ele>1562.4</ele>
        <time>2017-07-24T11:18:01Z</time>
      </trkpt>
      <trkpt lat="44.6105370" lon="7.0542570">
        <ele>1561.4</ele>
        <time>2017-07-24T11:18:02Z</time>
      </trkpt>
      <trkpt lat="44.6105140" lon="7.0542010">
        <ele>1560.4</ele>
        <time>2017-07-24T11:18:03Z</time>
      </trkpt>
      <trkpt lat="44.6105500" lon="7.0540420">
        <ele>1558.6</ele>
        <time>2017-07-24T11:18:05Z</time>
      </trkpt>
      <trkpt lat="44.6105910" lon="7.0539560">
        <ele>1557.4</ele>
        <time>2017-07-24T11:18:06Z</time>
      </trkpt>
      <trkpt lat="44.6106290" lon="7.0538800">
        <ele>1556.2</ele>
        <time>2017-07-24T11:18:07Z</time>
      </trkpt>
      <trkpt lat="44.6106680" lon="7.0538140">
        <ele>1555.0</ele>
        <time>2017-07-24T11:18:08Z</time>
      </trkpt>
      <trkpt lat="44.6107150" lon="7.0537570">
        <ele>1554.0</ele>
        <time>2017-07-24T11:18:09Z</time>
      </trkpt>
      <trkpt lat="44.6107760" lon="7.0537150">
        <ele>1553.0</ele>
        <time>2017-07-24T11:18:10Z</time>
      </trkpt>
      <trkpt lat="44.6108220" lon="7.0536720">
        <ele>1552.0</ele>
        <time>2017-07-24T11:18:11Z</time>
      </trkpt>
      <trkpt lat="44.6108500" lon="7.0536340">
        <ele>1550.8</ele>
        <time>2017-07-24T11:18:12Z</time>
      </trkpt>
      <trkpt lat="44.6108580" lon="7.0536110">
        <ele>1549.8</ele>
        <time>2017-07-24T11:18:13Z</time>
      </trkpt>
      <trkpt lat="44.6108510" lon="7.0535910">
        <ele>1547.6</ele>
        <time>2017-07-24T11:18:14Z</time>
      </trkpt>
      <trkpt lat="44.6108170" lon="7.0535440">
        <ele>1546.0</ele>
        <time>2017-07-24T11:18:16Z</time>
      </trkpt>
      <trkpt lat="44.6107380" lon="7.0534680">
        <ele>1544.2</ele>
        <time>2017-07-24T11:18:18Z</time>
      </trkpt>
      <trkpt lat="44.6106830" lon="7.0534590">
        <ele>1543.0</ele>
        <time>2017-07-24T11:18:19Z</time>
      </trkpt>
      <trkpt lat="44.6105760" lon="7.0535750">
        <ele>1541.6</ele>
        <time>2017-07-24T11:18:20Z</time>
      </trkpt>
      <trkpt lat="44.6104910" lon="7.0536710">
        <ele>1540.6</ele>
        <time>2017-07-24T11:18:21Z</time>
      </trkpt>
      <trkpt lat="44.6104220" lon="7.0537560">
        <ele>1539.4</ele>
        <time>2017-07-24T11:18:22Z</time>
      </trkpt>
      <trkpt lat="44.6102840" lon="7.0539910">
        <ele>1537.4</ele>
        <time>2017-07-24T11:18:24Z</time>
      </trkpt>
      <trkpt lat="44.6101840" lon="7.0542630">
        <ele>1535.4</ele>
        <time>2017-07-24T11:18:26Z</time>
      </trkpt>
      <trkpt lat="44.6101470" lon="7.0543890">
        <ele>1534.4</ele>
        <time>2017-07-24T11:18:27Z</time>
      </trkpt>
      <trkpt lat="44.6100600" lon="7.0546340">
        <ele>1532.4</ele>
        <time>2017-07-24T11:18:29Z</time>
      </trkpt>
      <trkpt lat="44.6099550" lon="7.0548890">
        <ele>1530.4</ele>
        <time>2017-07-24T11:18:31Z</time>
      </trkpt>
      <trkpt lat="44.6099020" lon="7.0550130">
        <ele>1529.8</ele>
        <time>2017-07-24T11:18:32Z</time>
      </trkpt>
      <trkpt lat="44.6098550" lon="7.0551330">
        <ele>1528.8</ele>
        <time>2017-07-24T11:18:33Z</time>
      </trkpt>
      <trkpt lat="44.6097980" lon="7.0552480">
        <ele>1527.8</ele>
        <time>2017-07-24T11:18:34Z</time>
      </trkpt>
      <trkpt lat="44.6096860" lon="7.0554470">
        <ele>1526.8</ele>
        <time>2017-07-24T11:18:36Z</time>
      </trkpt>
      <trkpt lat="44.6096290" lon="7.0555210">
        <ele>1526.6</ele>
        <time>2017-07-24T11:18:37Z</time>
      </trkpt>
      <trkpt lat="44.6095080" lon="7.0556300">
        <ele>1525.2</ele>
        <time>2017-07-24T11:18:39Z</time>
      </trkpt>
      <trkpt lat="44.6093700" lon="7.0557180">
        <ele>1524.2</ele>
        <time>2017-07-24T11:18:41Z</time>
      </trkpt>
      <trkpt lat="44.6092940" lon="7.0557550">
        <ele>1523.8</ele>
        <time>2017-07-24T11:18:42Z</time>
      </trkpt>
      <trkpt lat="44.6090450" lon="7.0558960">
        <ele>1522.4</ele>
        <time>2017-07-24T11:18:45Z</time>
      </trkpt>
      <trkpt lat="44.6089620" lon="7.0559080">
        <ele>1521.2</ele>
        <time>2017-07-24T11:18:46Z</time>
      </trkpt>
      <trkpt lat="44.6088270" lon="7.0559130">
        <ele>1520.2</ele>
        <time>2017-07-24T11:18:48Z</time>
      </trkpt>
      <trkpt lat="44.6086920" lon="7.0558420">
        <ele>1518.6</ele>
        <time>2017-07-24T11:18:50Z</time>
      </trkpt>
      <trkpt lat="44.6086250" lon="7.0557920">
        <ele>1517.2</ele>
        <time>2017-07-24T11:18:51Z</time>
      </trkpt>
      <trkpt lat="44.6085110" lon="7.0557830">
        <ele>1515.4</ele>
        <time>2017-07-24T11:18:53Z</time>
      </trkpt>
      <trkpt lat="44.6084480" lon="7.0558200">
        <ele>1514.8</ele>
        <time>2017-07-24T11:18:54Z</time>
      </trkpt>
      <trkpt lat="44.6083690" lon="7.0558560">
        <ele>1514.0</ele>
        <time>2017-07-24T11:18:55Z</time>
      </trkpt>
      <trkpt lat="44.6081900" lon="7.0559290">
        <ele>1512.2</ele>
        <time>2017-07-24T11:18:57Z</time>
      </trkpt>
      <trkpt lat="44.6079960" lon="7.0559900">
        <ele>1510.4</ele>
        <time>2017-07-24T11:18:59Z</time>
      </trkpt>
      <trkpt lat="44.6078090" lon="7.0560850">
        <ele>1508.8</ele>
        <time>2017-07-24T11:19:01Z</time>
      </trkpt>
      <trkpt lat="44.6077310" lon="7.0561590">
        <ele>1508.0</ele>
        <time>2017-07-24T11:19:02Z</time>
      </trkpt>
      <trkpt lat="44.6076620" lon="7.0562350">
        <ele>1506.6</ele>
        <time>2017-07-24T11:19:03Z</time>
      </trkpt>
      <trkpt lat="44.6075360" lon="7.0563800">
        <ele>1505.2</ele>
        <time>2017-07-24T11:19:05Z</time>
      </trkpt>
      <trkpt lat="44.6074110" lon="7.0565280">
        <ele>1504.0</ele>
        <time>2017-07-24T11:19:07Z</time>
      </trkpt>
      <trkpt lat="44.6072850" lon="7.0566440">
        <ele>1503.4</ele>
        <time>2017-07-24T11:19:09Z</time>
      </trkpt>
      <trkpt lat="44.6072220" lon="7.0567030">
        <ele>1502.6</ele>
        <time>2017-07-24T11:19:10Z</time>
      </trkpt>
      <trkpt lat="44.6070540" lon="7.0569110">
        <ele>1501.6</ele>
        <time>2017-07-24T11:19:13Z</time>
      </trkpt>
      <trkpt lat="44.6070020" lon="7.0569850">
        <ele>1501.2</ele>
        <time>2017-07-24T11:19:14Z</time>
      </trkpt>
      <trkpt lat="44.6069020" lon="7.0571490">
        <ele>1500.6</ele>
        <time>2017-07-24T11:19:16Z</time>
      </trkpt>
      <trkpt lat="44.6068500" lon="7.0572290">
        <ele>1500.2</ele>
        <time>2017-07-24T11:19:17Z</time>
      </trkpt>
      <trkpt lat="44.6067480" lon="7.0573910">
        <ele>1499.6</ele>
        <time>2017-07-24T11:19:19Z</time>
      </trkpt>
      <trkpt lat="44.6066900" lon="7.0575700">
        <ele>1499.4</ele>
        <time>2017-07-24T11:19:21Z</time>
      </trkpt>
      <trkpt lat="44.6066700" lon="7.0576640">
        <ele>1499.0</ele>
        <time>2017-07-24T11:19:22Z</time>
      </trkpt>
      <trkpt lat="44.6066540" lon="7.0577560">
        <ele>1498.8</ele>
        <time>2017-07-24T11:19:23Z</time>
      </trkpt>
      <trkpt lat="44.6066670" lon="7.0578650">
        <ele>1498.6</ele>
        <time>2017-07-24T11:19:24Z</time>
      </trkpt>
      <trkpt lat="44.6067160" lon="7.0580690">
        <ele>1498.0</ele>
        <time>2017-07-24T11:19:26Z</time>
      </trkpt>
      <trkpt lat="44.6067290" lon="7.0581730">
        <ele>1497.6</ele>
        <time>2017-07-24T11:19:27Z</time>
      </trkpt>
      <trkpt lat="44.6067130" lon="7.0583620">
        <ele>1497.2</ele>
        <time>2017-07-24T11:19:29Z</time>
      </trkpt>
      <trkpt lat="44.6066930" lon="7.0584560">
        <ele>1496.8</ele>
        <time>2017-07-24T11:19:30Z</time>
      </trkpt>
      <trkpt lat="44.6066660" lon="7.0585500">
        <ele>1496.8</ele>
        <time>2017-07-24T11:19:31Z</time>
      </trkpt>
      <trkpt lat="44.6065710" lon="7.0588300">
        <ele>1496.2</ele>
        <time>2017-07-24T11:19:34Z</time>
      </trkpt>
      <trkpt lat="44.6065270" lon="7.0589150">
        <ele>1496.0</ele>
        <time>2017-07-24T11:19:35Z</time>
      </trkpt>
      <trkpt lat="44.6064160" lon="7.0590700">
        <ele>1495.6</ele>
        <time>2017-07-24T11:19:37Z</time>
      </trkpt>
      <trkpt lat="44.6062870" lon="7.0591650">
        <ele>1495.4</ele>
        <time>2017-07-24T11:19:39Z</time>
      </trkpt>
      <trkpt lat="44.6062160" lon="7.0591970">
        <ele>1495.2</ele>
        <time>2017-07-24T11:19:40Z</time>
      </trkpt>
      <trkpt lat="44.6060280" lon="7.0593500">
        <ele>1494.8</ele>
        <time>2017-07-24T11:19:43Z</time>
      </trkpt>
      <trkpt lat="44.6058860" lon="7.0595760">
        <ele>1494.8</ele>
        <time>2017-07-24T11:19:46Z</time>
      </trkpt>
      <trkpt lat="44.6058450" lon="7.0596580">
        <ele>1494.8</ele>
        <time>2017-07-24T11:19:47Z</time>
      </trkpt>
      <trkpt lat="44.6056760" lon="7.0601170">
        <ele>1494.6</ele>
        <time>2017-07-24T11:19:52Z</time>
      </trkpt>
      <trkpt lat="44.6056370" lon="7.0601750">
        <ele>1494.6</ele>
        <time>2017-07-24T11:19:53Z</time>
      </trkpt>
      <trkpt lat="44.6055930" lon="7.0601940">
        <ele>1494.8</ele>
        <time>2017-07-24T11:19:54Z</time>
      </trkpt>
      <trkpt lat="44.6055050" lon="7.0601200">
        <ele>1495.0</ele>
        <time>2017-07-24T11:19:57Z</time>
      </trkpt>
      <trkpt lat="44.6054700" lon="7.0600860">
        <ele>1494.8</ele>
        <time>2017-07-24T11:19:58Z</time>
      </trkpt>
      <trkpt lat="44.6054330" lon="7.0600440">
        <ele>1494.8</ele>
        <time>2017-07-24T11:19:59Z</time>
      </trkpt>
      <trkpt lat="44.6053240" lon="7.0598970">
        <ele>1495.0</ele>
        <time>2017-07-24T11:20:02Z</time>
      </trkpt>
      <trkpt lat="44.6052330" lon="7.0597990">
        <ele>1495.2</ele>
        <time>2017-07-24T11:20:05Z</time>
      </trkpt>
      <trkpt lat="44.6052000" lon="7.0597930">
        <ele>1495.2</ele>
        <time>2017-07-24T11:20:06Z</time>
      </trkpt>
      <trkpt lat="44.6051090" lon="7.0598890">
        <ele>1495.6</ele>
        <time>2017-07-24T11:20:09Z</time>
      </trkpt>
      <trkpt lat="44.6050840" lon="7.0599500">
        <ele>1495.8</ele>
        <time>2017-07-24T11:20:10Z</time>
      </trkpt>
      <trkpt lat="44.6050450" lon="7.0600740">
        <ele>1496.0</ele>
        <time>2017-07-24T11:20:12Z</time>
      </trkpt>
      <trkpt lat="44.6049790" lon="7.0602540">
        <ele>1496.4</ele>
        <time>2017-07-24T11:20:15Z</time>
      </trkpt>
      <trkpt lat="44.6048510" lon="7.0605200">
        <ele>1496.6</ele>
        <time>2017-07-24T11:20:19Z</time>
      </trkpt>
      <trkpt lat="44.6047890" lon="7.0606450">
        <ele>1496.6</ele>
        <time>2017-07-24T11:20:21Z</time>
      </trkpt>
      <trkpt lat="44.6047280" lon="7.0607470">
        <ele>1496.8</ele>
        <time>2017-07-24T11:20:23Z</time>
      </trkpt>
      <trkpt lat="44.6046960" lon="7.0607940">
        <ele>1497.2</ele>
        <time>2017-07-24T11:20:24Z</time>
      </trkpt>
      <trkpt lat="44.6045460" lon="7.0609220">
        <ele>1498.0</ele>
        <time>2017-07-24T11:20:28Z</time>
      </trkpt>
      <trkpt lat="44.6044680" lon="7.0609940">
        <ele>1498.2</ele>
        <time>2017-07-24T11:20:30Z</time>
      </trkpt>
      <trkpt lat="44.6043520" lon="7.0611080">
        <ele>1498.8</ele>
        <time>2017-07-24T11:20:33Z</time>
      </trkpt>
      <trkpt lat="44.6043140" lon="7.0611490">
        <ele>1498.8</ele>
        <time>2017-07-24T11:20:34Z</time>
      </trkpt>
      <trkpt lat="44.6042730" lon="7.0611860">
        <ele>1499.0</ele>
        <time>2017-07-24T11:20:35Z</time>
      </trkpt>
      <trkpt lat="44.6041110" lon="7.0613310">
        <ele>1500.4</ele>
        <time>2017-07-24T11:20:39Z</time>
      </trkpt>
      <trkpt lat="44.6040770" lon="7.0613710">
        <ele>1500.6</ele>
        <time>2017-07-24T11:20:40Z</time>
      </trkpt>
      <trkpt lat="44.6038750" lon="7.0616010">
        <ele>1501.6</ele>
        <time>2017-07-24T11:20:45Z</time>
      </trkpt>
      <trkpt lat="44.6038360" lon="7.0616410">
        <ele>1501.8</ele>
        <time>2017-07-24T11:20:46Z</time>
      </trkpt>
      <trkpt lat="44.6036160" lon="7.0618370">
        <ele>1502.4</ele>
        <time>2017-07-24T11:20:51Z</time>
      </trkpt>
      <trkpt lat="44.6035180" lon="7.0619230">
        <ele>1502.8</ele>
        <time>2017-07-24T11:20:53Z</time>
      </trkpt>
      <trkpt lat="44.6032100" lon="7.0621540">
        <ele>1502.4</ele>
        <time>2017-07-24T11:20:59Z</time>
      </trkpt>
      <trkpt lat="44.6030180" lon="7.0623050">
        <ele>1502.0</ele>
        <time>2017-07-24T11:21:02Z</time>
      </trkpt>
      <trkpt lat="44.6029540" lon="7.0623560">
        <ele>1501.4</ele>
        <time>2017-07-24T11:21:03Z</time>
      </trkpt>
      <trkpt lat="44.6027450" lon="7.0625360">
        <ele>1500.8</ele>
        <time>2017-07-24T11:21:06Z</time>
      </trkpt>
      <trkpt lat="44.6026050" lon="7.0626360">
        <ele>1500.4</ele>
        <time>2017-07-24T11:21:08Z</time>
      </trkpt>
      <trkpt lat="44.6023730" lon="7.0627350">
        <ele>1499.2</ele>
        <time>2017-07-24T11:21:11Z</time>
      </trkpt>
      <trkpt lat="44.6022990" lon="7.0627730">
        <ele>1498.6</ele>
        <time>2017-07-24T11:21:12Z</time>
      </trkpt>
      <trkpt lat="44.6022260" lon="7.0628200">
        <ele>1497.8</ele>
        <time>2017-07-24T11:21:13Z</time>
      </trkpt>
      <trkpt lat="44.6020880" lon="7.0629160">
        <ele>1496.4</ele>
        <time>2017-07-24T11:21:15Z</time>
      </trkpt>
      <trkpt lat="44.6019780" lon="7.0630240">
        <ele>1495.6</ele>
        <time>2017-07-24T11:21:17Z</time>
      </trkpt>
      <trkpt lat="44.6019370" lon="7.0630720">
        <ele>1494.8</ele>
        <time>2017-07-24T11:21:18Z</time>
      </trkpt>
      <trkpt lat="44.6018990" lon="7.0631130">
        <ele>1494.2</ele>
        <time>2017-07-24T11:21:19Z</time>
      </trkpt>
      <trkpt lat="44.6018610" lon="7.0631470">
        <ele>1493.2</ele>
        <time>2017-07-24T11:21:20Z</time>
      </trkpt>
      <trkpt lat="44.6018220" lon="7.0631740">
        <ele>1492.4</ele>
        <time>2017-07-24T11:21:21Z</time>
      </trkpt>
      <trkpt lat="44.6017800" lon="7.0631930">
        <ele>1491.6</ele>
        <time>2017-07-24T11:21:22Z</time>
      </trkpt>
      <trkpt lat="44.6017060" lon="7.0632470">
        <ele>1489.8</ele>
        <time>2017-07-24T11:21:24Z</time>
      </trkpt>
      <trkpt lat="44.6016690" lon="7.0632830">
        <ele>1488.8</ele>
        <time>2017-07-24T11:21:25Z</time>
      </trkpt>
      <trkpt lat="44.6016200" lon="7.0633270">
        <ele>1487.8</ele>
        <time>2017-07-24T11:21:26Z</time>
      </trkpt>
      <trkpt lat="44.6015680" lon="7.0633770">
        <ele>1485.8</ele>
        <time>2017-07-24T11:21:27Z</time>
      </trkpt>
      <trkpt lat="44.6015110" lon="7.0634260">
        <ele>1485.2</ele>
        <time>2017-07-24T11:21:28Z</time>
      </trkpt>
      <trkpt lat="44.6014500" lon="7.0634710">
        <ele>1484.4</ele>
        <time>2017-07-24T11:21:29Z</time>
      </trkpt>
      <trkpt lat="44.6013040" lon="7.0635640">
        <ele>1482.6</ele>
        <time>2017-07-24T11:21:31Z</time>
      </trkpt>
      <trkpt lat="44.6012270" lon="7.0636030">
        <ele>1481.8</ele>
        <time>2017-07-24T11:21:32Z</time>
      </trkpt>
      <trkpt lat="44.6011600" lon="7.0636320">
        <ele>1481.0</ele>
        <time>2017-07-24T11:21:33Z</time>
      </trkpt>
      <trkpt lat="44.6010230" lon="7.0637000">
        <ele>1479.2</ele>
        <time>2017-07-24T11:21:35Z</time>
      </trkpt>
      <trkpt lat="44.6009060" lon="7.0638360">
        <ele>1477.4</ele>
        <time>2017-07-24T11:21:37Z</time>
      </trkpt>
      <trkpt lat="44.6008130" lon="7.0640070">
        <ele>1475.8</ele>
        <time>2017-07-24T11:21:39Z</time>
      </trkpt>
      <trkpt lat="44.6007110" lon="7.0641520">
        <ele>1474.6</ele>
        <time>2017-07-24T11:21:41Z</time>
      </trkpt>
      <trkpt lat="44.6006550" lon="7.0642190">
        <ele>1474.0</ele>
        <time>2017-07-24T11:21:42Z</time>
      </trkpt>
      <trkpt lat="44.6005930" lon="7.0642800">
        <ele>1473.2</ele>
        <time>2017-07-24T11:21:43Z</time>
      </trkpt>
      <trkpt lat="44.6004680" lon="7.0643890">
        <ele>1472.0</ele>
        <time>2017-07-24T11:21:45Z</time>
      </trkpt>
      <trkpt lat="44.6004130" lon="7.0644450">
        <ele>1471.4</ele>
        <time>2017-07-24T11:21:46Z</time>
      </trkpt>
      <trkpt lat="44.6003580" lon="7.0645120">
        <ele>1470.6</ele>
        <time>2017-07-24T11:21:47Z</time>
      </trkpt>
      <trkpt lat="44.6002470" lon="7.0646430">
        <ele>1468.8</ele>
        <time>2017-07-24T11:21:49Z</time>
      </trkpt>
      <trkpt lat="44.6001290" lon="7.0647790">
        <ele>1466.8</ele>
        <time>2017-07-24T11:21:51Z</time>
      </trkpt>
      <trkpt lat="44.6000060" lon="7.0649110">
        <ele>1465.8</ele>
        <time>2017-07-24T11:21:53Z</time>
      </trkpt>
      <trkpt lat="44.5998750" lon="7.0650490">
        <ele>1464.0</ele>
        <time>2017-07-24T11:21:55Z</time>
      </trkpt>
      <trkpt lat="44.5998070" lon="7.0651220">
        <ele>1462.8</ele>
        <time>2017-07-24T11:21:56Z</time>
      </trkpt>
      <trkpt lat="44.5996610" lon="7.0652880">
        <ele>1460.8</ele>
        <time>2017-07-24T11:21:58Z</time>
      </trkpt>
      <trkpt lat="44.5994880" lon="7.0654620">
        <ele>1458.8</ele>
        <time>2017-07-24T11:22:00Z</time>
      </trkpt>
      <trkpt lat="44.5993150" lon="7.0656010">
        <ele>1457.0</ele>
        <time>2017-07-24T11:22:02Z</time>
      </trkpt>
      <trkpt lat="44.5992330" lon="7.0656660">
        <ele>1455.8</ele>
        <time>2017-07-24T11:22:03Z</time>
      </trkpt>
      <trkpt lat="44.5991520" lon="7.0657180">
        <ele>1454.6</ele>
        <time>2017-07-24T11:22:04Z</time>
      </trkpt>
      <trkpt lat="44.5990780" lon="7.0657700">
        <ele>1453.4</ele>
        <time>2017-07-24T11:22:05Z</time>
      </trkpt>
      <trkpt lat="44.5989980" lon="7.0658060">
        <ele>1452.4</ele>
        <time>2017-07-24T11:22:06Z</time>
      </trkpt>
      <trkpt lat="44.5989190" lon="7.0658310">
        <ele>1451.2</ele>
        <time>2017-07-24T11:22:07Z</time>
      </trkpt>
      <trkpt lat="44.5988470" lon="7.0658630">
        <ele>1450.2</ele>
        <time>2017-07-24T11:22:08Z</time>
      </trkpt>
      <trkpt lat="44.5987880" lon="7.0659010">
        <ele>1449.0</ele>
        <time>2017-07-24T11:22:09Z</time>
      </trkpt>
      <trkpt lat="44.5987380" lon="7.0659440">
        <ele>1448.0</ele>
        <time>2017-07-24T11:22:10Z</time>
      </trkpt>
      <trkpt lat="44.5986320" lon="7.0660420">
        <ele>1445.8</ele>
        <time>2017-07-24T11:22:12Z</time>
      </trkpt>
      <trkpt lat="44.5985610" lon="7.0660740">
        <ele>1444.6</ele>
        <time>2017-07-24T11:22:13Z</time>
      </trkpt>
      <trkpt lat="44.5984860" lon="7.0661070">
        <ele>1443.4</ele>
        <time>2017-07-24T11:22:14Z</time>
      </trkpt>
      <trkpt lat="44.5983930" lon="7.0661230">
        <ele>1441.6</ele>
        <time>2017-07-24T11:22:15Z</time>
      </trkpt>
      <trkpt lat="44.5983010" lon="7.0661160">
        <ele>1440.4</ele>
        <time>2017-07-24T11:22:16Z</time>
      </trkpt>
      <trkpt lat="44.5982160" lon="7.0661180">
        <ele>1438.8</ele>
        <time>2017-07-24T11:22:17Z</time>
      </trkpt>
      <trkpt lat="44.5981450" lon="7.0661420">
        <ele>1436.8</ele>
        <time>2017-07-24T11:22:18Z</time>
      </trkpt>
      <trkpt lat="44.5980790" lon="7.0661770">
        <ele>1435.4</ele>
        <time>2017-07-24T11:22:19Z</time>
      </trkpt>
      <trkpt lat="44.5980220" lon="7.0662090">
        <ele>1434.2</ele>
        <time>2017-07-24T11:22:20Z</time>
      </trkpt>
      <trkpt lat="44.5979660" lon="7.0662520">
        <ele>1433.2</ele>
        <time>2017-07-24T11:22:21Z</time>
      </trkpt>
      <trkpt lat="44.5979180" lon="7.0662720">
        <ele>1431.8</ele>
        <time>2017-07-24T11:22:22Z</time>
      </trkpt>
      <trkpt lat="44.5978660" lon="7.0662700">
        <ele>1430.2</ele>
        <time>2017-07-24T11:22:23Z</time>
      </trkpt>
      <trkpt lat="44.5978110" lon="7.0662540">
        <ele>1428.8</ele>
        <time>2017-07-24T11:22:24Z</time>
      </trkpt>
      <trkpt lat="44.5977560" lon="7.0662430">
        <ele>1427.6</ele>
        <time>2017-07-24T11:22:25Z</time>
      </trkpt>
      <trkpt lat="44.5977110" lon="7.0662510">
        <ele>1426.4</ele>
        <time>2017-07-24T11:22:26Z</time>
      </trkpt>
      <trkpt lat="44.5976750" lon="7.0662840">
        <ele>1425.2</ele>
        <time>2017-07-24T11:22:27Z</time>
      </trkpt>
      <trkpt lat="44.5976460" lon="7.0663150">
        <ele>1423.8</ele>
        <time>2017-07-24T11:22:28Z</time>
      </trkpt>
      <trkpt lat="44.5976160" lon="7.0663370">
        <ele>1422.6</ele>
        <time>2017-07-24T11:22:29Z</time>
      </trkpt>
      <trkpt lat="44.5975840" lon="7.0663560">
        <ele>1421.4</ele>
        <time>2017-07-24T11:22:30Z</time>
      </trkpt>
      <trkpt lat="44.5975480" lon="7.0663740">
        <ele>1420.4</ele>
        <time>2017-07-24T11:22:31Z</time>
      </trkpt>
      <trkpt lat="44.5974830" lon="7.0663470">
        <ele>1419.4</ele>
        <time>2017-07-24T11:22:32Z</time>
      </trkpt>
      <trkpt lat="44.5974230" lon="7.0663160">
        <ele>1418.2</ele>
        <time>2017-07-24T11:22:33Z</time>
      </trkpt>
      <trkpt lat="44.5973650" lon="7.0662830">
        <ele>1416.8</ele>
        <time>2017-07-24T11:22:34Z</time>
      </trkpt>
      <trkpt lat="44.5973140" lon="7.0662480">
        <ele>1415.4</ele>
        <time>2017-07-24T11:22:35Z</time>
      </trkpt>
      <trkpt lat="44.5972570" lon="7.0662060">
        <ele>1414.4</ele>
        <time>2017-07-24T11:22:36Z</time>
      </trkpt>
      <trkpt lat="44.5972030" lon="7.0661690">
        <ele>1413.4</ele>
        <time>2017-07-24T11:22:37Z</time>
      </trkpt>
      <trkpt lat="44.5970750" lon="7.0660860">
        <ele>1411.0</ele>
        <time>2017-07-24T11:22:39Z</time>
      </trkpt>
      <trkpt lat="44.5970140" lon="7.0660590">
        <ele>1410.2</ele>
        <time>2017-07-24T11:22:40Z</time>
      </trkpt>
      <trkpt lat="44.5969590" lon="7.0660500">
        <ele>1409.4</ele>
        <time>2017-07-24T11:22:41Z</time>
      </trkpt>
      <trkpt lat="44.5969080" lon="7.0660520">
        <ele>1408.6</ele>
        <time>2017-07-24T11:22:42Z</time>
      </trkpt>
      <trkpt lat="44.5968650" lon="7.0660630">
        <ele>1407.6</ele>
        <time>2017-07-24T11:22:43Z</time>
      </trkpt>
      <trkpt lat="44.5968250" lon="7.0660770">
        <ele>1406.4</ele>
        <time>2017-07-24T11:22:44Z</time>
      </trkpt>
      <trkpt lat="44.5967870" lon="7.0660940">
        <ele>1405.4</ele>
        <time>2017-07-24T11:22:45Z</time>
      </trkpt>
      <trkpt lat="44.5967470" lon="7.0661150">
        <ele>1404.4</ele>
        <time>2017-07-24T11:22:46Z</time>
      </trkpt>
      <trkpt lat="44.5967050" lon="7.0661430">
        <ele>1403.6</ele>
        <time>2017-07-24T11:22:47Z</time>
      </trkpt>
      <trkpt lat="44.5966180" lon="7.0662020">
        <ele>1402.0</ele>
        <time>2017-07-24T11:22:49Z</time>
      </trkpt>
      <trkpt lat="44.5965210" lon="7.0662410">
        <ele>1400.2</ele>
        <time>2017-07-24T11:22:51Z</time>
      </trkpt>
      <trkpt lat="44.5964690" lon="7.0662610">
        <ele>1399.0</ele>
        <time>2017-07-24T11:22:52Z</time>
      </trkpt>
      <trkpt lat="44.5964190" lon="7.0662810">
        <ele>1398.0</ele>
        <time>2017-07-24T11:22:53Z</time>
      </trkpt>
      <trkpt lat="44.5963660" lon="7.0663050">
        <ele>1396.8</ele>
        <time>2017-07-24T11:22:54Z</time>
      </trkpt>
      <trkpt lat="44.5963110" lon="7.0663310">
        <ele>1395.8</ele>
        <time>2017-07-24T11:22:55Z</time>
      </trkpt>
      <trkpt lat="44.5962250" lon="7.0662960">
        <ele>1394.8</ele>
        <time>2017-07-24T11:22:56Z</time>
      </trkpt>
      <trkpt lat="44.5961340" lon="7.0662630">
        <ele>1393.6</ele>
        <time>2017-07-24T11:22:57Z</time>
      </trkpt>
      <trkpt lat="44.5960430" lon="7.0662300">
        <ele>1392.4</ele>
        <time>2017-07-24T11:22:58Z</time>
      </trkpt>
      <trkpt lat="44.5959690" lon="7.0662080">
        <ele>1391.2</ele>
        <time>2017-07-24T11:22:59Z</time>
      </trkpt>
      <trkpt lat="44.5958900" lon="7.0661970">
        <ele>1389.8</ele>
        <time>2017-07-24T11:23:00Z</time>
      </trkpt>
      <trkpt lat="44.5958020" lon="7.0662050">
        <ele>1388.4</ele>
        <time>2017-07-24T11:23:01Z</time>
      </trkpt>
      <trkpt lat="44.5957260" lon="7.0662060">
        <ele>1386.6</ele>
        <time>2017-07-24T11:23:02Z</time>
      </trkpt>
      <trkpt lat="44.5956460" lon="7.0662020">
        <ele>1384.0</ele>
        <time>2017-07-24T11:23:03Z</time>
      </trkpt>
      <trkpt lat="44.5955880" lon="7.0662060">
        <ele>1383.0</ele>
        <time>2017-07-24T11:23:04Z</time>
      </trkpt>
      <trkpt lat="44.5955380" lon="7.0662110">
        <ele>1382.0</ele>
        <time>2017-07-24T11:23:05Z</time>
      </trkpt>
      <trkpt lat="44.5954930" lon="7.0662380">
        <ele>1380.6</ele>
        <time>2017-07-24T11:23:06Z</time>
      </trkpt>
      <trkpt lat="44.5954620" lon="7.0662810">
        <ele>1379.4</ele>
        <time>2017-07-24T11:23:07Z</time>
      </trkpt>
      <trkpt lat="44.5954380" lon="7.0663340">
        <ele>1378.2</ele>
        <time>2017-07-24T11:23:08Z</time>
      </trkpt>
      <trkpt lat="44.5954180" lon="7.0663860">
        <ele>1377.2</ele>
        <time>2017-07-24T11:23:09Z</time>
      </trkpt>
      <trkpt lat="44.5954000" lon="7.0664420">
        <ele>1375.8</ele>
        <time>2017-07-24T11:23:10Z</time>
      </trkpt>
      <trkpt lat="44.5953910" lon="7.0664840">
        <ele>1374.8</ele>
        <time>2017-07-24T11:23:11Z</time>
      </trkpt>
      <trkpt lat="44.5953680" lon="7.0665660">
        <ele>1373.2</ele>
        <time>2017-07-24T11:23:13Z</time>
      </trkpt>
      <trkpt lat="44.5953360" lon="7.0666500">
        <ele>1371.6</ele>
        <time>2017-07-24T11:23:15Z</time>
      </trkpt>
      <trkpt lat="44.5953160" lon="7.0666910">
        <ele>1371.0</ele>
        <time>2017-07-24T11:23:16Z</time>
      </trkpt>
      <trkpt lat="44.5952720" lon="7.0667230">
        <ele>1370.2</ele>
        <time>2017-07-24T11:23:17Z</time>
      </trkpt>
      <trkpt lat="44.5951280" lon="7.0667740">
        <ele>1369.0</ele>
        <time>2017-07-24T11:23:19Z</time>
      </trkpt>
      <trkpt lat="44.5949560" lon="7.0668180">
        <ele>1367.6</ele>
        <time>2017-07-24T11:23:21Z</time>
      </trkpt>
      <trkpt lat="44.5947790" lon="7.0668790">
        <ele>1366.2</ele>
        <time>2017-07-24T11:23:23Z</time>
      </trkpt>
      <trkpt lat="44.5946890" lon="7.0669280">
        <ele>1365.8</ele>
        <time>2017-07-24T11:23:24Z</time>
      </trkpt>
      <trkpt lat="44.5946060" lon="7.0669770">
        <ele>1364.8</ele>
        <time>2017-07-24T11:23:25Z</time>
      </trkpt>
      <trkpt lat="44.5944640" lon="7.0670850">
        <ele>1362.8</ele>
        <time>2017-07-24T11:23:27Z</time>
      </trkpt>
      <trkpt lat="44.5943020" lon="7.0671570">
        <ele>1362.2</ele>
        <time>2017-07-24T11:23:29Z</time>
      </trkpt>
      <trkpt lat="44.5942020" lon="7.0671630">
        <ele>1361.8</ele>
        <time>2017-07-24T11:23:30Z</time>
      </trkpt>
      <trkpt lat="44.5939270" lon="7.0671070">
        <ele>1360.4</ele>
        <time>2017-07-24T11:23:33Z</time>
      </trkpt>
      <trkpt lat="44.5938680" lon="7.0670880">
        <ele>1359.8</ele>
        <time>2017-07-24T11:23:34Z</time>
      </trkpt>
      <trkpt lat="44.5938230" lon="7.0670660">
        <ele>1359.2</ele>
        <time>2017-07-24T11:23:35Z</time>
      </trkpt>
      <trkpt lat="44.5937980" lon="7.0670190">
        <ele>1358.0</ele>
        <time>2017-07-24T11:23:36Z</time>
      </trkpt>
      <trkpt lat="44.5938010" lon="7.0669580">
        <ele>1357.2</ele>
        <time>2017-07-24T11:23:37Z</time>
      </trkpt>
      <trkpt lat="44.5938110" lon="7.0669010">
        <ele>1356.2</ele>
        <time>2017-07-24T11:23:38Z</time>
      </trkpt>
      <trkpt lat="44.5938240" lon="7.0668230">
        <ele>1355.4</ele>
        <time>2017-07-24T11:23:39Z</time>
      </trkpt>
      <trkpt lat="44.5938270" lon="7.0667440">
        <ele>1354.6</ele>
        <time>2017-07-24T11:23:40Z</time>
      </trkpt>
      <trkpt lat="44.5938300" lon="7.0666670">
        <ele>1353.6</ele>
        <time>2017-07-24T11:23:41Z</time>
      </trkpt>
      <trkpt lat="44.5938220" lon="7.0665870">
        <ele>1352.8</ele>
        <time>2017-07-24T11:23:42Z</time>
      </trkpt>
      <trkpt lat="44.5938040" lon="7.0664690">
        <ele>1350.8</ele>
        <time>2017-07-24T11:23:44Z</time>
      </trkpt>
      <trkpt lat="44.5937820" lon="7.0663770">
        <ele>1349.6</ele>
        <time>2017-07-24T11:23:46Z</time>
      </trkpt>
      <trkpt lat="44.5937670" lon="7.0663990">
        <ele>1349.0</ele>
        <time>2017-07-24T11:23:47Z</time>
      </trkpt>
      <trkpt lat="44.5937490" lon="7.0664150">
        <ele>1348.4</ele>
        <time>2017-07-24T11:23:48Z</time>
      </trkpt>
      <trkpt lat="44.5937120" lon="7.0664700">
        <ele>1347.8</ele>
        <time>2017-07-24T11:23:49Z</time>
      </trkpt>
      <trkpt lat="44.5936830" lon="7.0666350">
        <ele>1347.2</ele>
        <time>2017-07-24T11:23:50Z</time>
      </trkpt>
      <trkpt lat="44.5935860" lon="7.0667380">
        <ele>1345.8</ele>
        <time>2017-07-24T11:23:52Z</time>
      </trkpt>
      <trkpt lat="44.5934670" lon="7.0668370">
        <ele>1344.8</ele>
        <time>2017-07-24T11:23:54Z</time>
      </trkpt>
      <trkpt lat="44.5934070" lon="7.0668980">
        <ele>1344.2</ele>
        <time>2017-07-24T11:23:55Z</time>
      </trkpt>
      <trkpt lat="44.5933460" lon="7.0669590">
        <ele>1343.6</ele>
        <time>2017-07-24T11:23:56Z</time>
      </trkpt>
      <trkpt lat="44.5932320" lon="7.0670600">
        <ele>1342.6</ele>
        <time>2017-07-24T11:23:58Z</time>
      </trkpt>
      <trkpt lat="44.5931050" lon="7.0671580">
        <ele>1342.0</ele>
        <time>2017-07-24T11:24:00Z</time>
      </trkpt>
      <trkpt lat="44.5930430" lon="7.0672060">
        <ele>1341.4</ele>
        <time>2017-07-24T11:24:01Z</time>
      </trkpt>
      <trkpt lat="44.5928620" lon="7.0673860">
        <ele>1340.2</ele>
        <time>2017-07-24T11:24:04Z</time>
      </trkpt>
      <trkpt lat="44.5926830" lon="7.0675710">
        <ele>1339.0</ele>
        <time>2017-07-24T11:24:07Z</time>
      </trkpt>
      <trkpt lat="44.5924960" lon="7.0677250">
        <ele>1338.2</ele>
        <time>2017-07-24T11:24:10Z</time>
      </trkpt>
      <trkpt lat="44.5924240" lon="7.0677610">
        <ele>1338.0</ele>
        <time>2017-07-24T11:24:11Z</time>
      </trkpt>
      <trkpt lat="44.5923540" lon="7.0677980">
        <ele>1337.6</ele>
        <time>2017-07-24T11:24:12Z</time>
      </trkpt>
      <trkpt lat="44.5921990" lon="7.0678410">
        <ele>1337.0</ele>
        <time>2017-07-24T11:24:14Z</time>
      </trkpt>
      <trkpt lat="44.5921170" lon="7.0678510">
        <ele>1336.2</ele>
        <time>2017-07-24T11:24:15Z</time>
      </trkpt>
      <trkpt lat="44.5920250" lon="7.0678480">
        <ele>1335.8</ele>
        <time>2017-07-24T11:24:16Z</time>
      </trkpt>
      <trkpt lat="44.5918210" lon="7.0678400">
        <ele>1335.0</ele>
        <time>2017-07-24T11:24:18Z</time>
      </trkpt>
      <trkpt lat="44.5914450" lon="7.0678390">
        <ele>1333.6</ele>
        <time>2017-07-24T11:24:21Z</time>
      </trkpt>
      <trkpt lat="44.5912100" lon="7.0679670">
        <ele>1332.4</ele>
        <time>2017-07-24T11:24:23Z</time>
      </trkpt>
      <trkpt lat="44.5910180" lon="7.0681930">
        <ele>1331.2</ele>
        <time>2017-07-24T11:24:25Z</time>
      </trkpt>
      <trkpt lat="44.5909280" lon="7.0683200">
        <ele>1330.6</ele>
        <time>2017-07-24T11:24:26Z</time>
      </trkpt>
      <trkpt lat="44.5908360" lon="7.0684430">
        <ele>1329.8</ele>
        <time>2017-07-24T11:24:27Z</time>
      </trkpt>
      <trkpt lat="44.5906190" lon="7.0686460">
        <ele>1328.4</ele>
        <time>2017-07-24T11:24:29Z</time>
      </trkpt>
      <trkpt lat="44.5903740" lon="7.0687900">
        <ele>1326.8</ele>
        <time>2017-07-24T11:24:31Z</time>
      </trkpt>
      <trkpt lat="44.5902500" lon="7.0688520">
        <ele>1326.0</ele>
        <time>2017-07-24T11:24:32Z</time>
      </trkpt>
      <trkpt lat="44.5901260" lon="7.0689100">
        <ele>1325.0</ele>
        <time>2017-07-24T11:24:33Z</time>
      </trkpt>
      <trkpt lat="44.5898940" lon="7.0690050">
        <ele>1323.6</ele>
        <time>2017-07-24T11:24:35Z</time>
      </trkpt>
      <trkpt lat="44.5897890" lon="7.0690310">
        <ele>1322.8</ele>
        <time>2017-07-24T11:24:36Z</time>
      </trkpt>
      <trkpt lat="44.5896980" lon="7.0690310">
        <ele>1321.8</ele>
        <time>2017-07-24T11:24:37Z</time>
      </trkpt>
      <trkpt lat="44.5895710" lon="7.0689400">
        <ele>1319.4</ele>
        <time>2017-07-24T11:24:39Z</time>
      </trkpt>
      <trkpt lat="44.5895020" lon="7.0687550">
        <ele>1317.6</ele>
        <time>2017-07-24T11:24:41Z</time>
      </trkpt>
      <trkpt lat="44.5894790" lon="7.0686390">
        <ele>1316.8</ele>
        <time>2017-07-24T11:24:42Z</time>
      </trkpt>
      <trkpt lat="44.5894540" lon="7.0685150">
        <ele>1316.0</ele>
        <time>2017-07-24T11:24:43Z</time>
      </trkpt>
      <trkpt lat="44.5893930" lon="7.0682600">
        <ele>1314.4</ele>
        <time>2017-07-24T11:24:45Z</time>
      </trkpt>
      <trkpt lat="44.5893340" lon="7.0679870">
        <ele>1313.0</ele>
        <time>2017-07-24T11:24:47Z</time>
      </trkpt>
      <trkpt lat="44.5892690" lon="7.0677120">
        <ele>1311.6</ele>
        <time>2017-07-24T11:24:49Z</time>
      </trkpt>
      <trkpt lat="44.5892230" lon="7.0675800">
        <ele>1311.0</ele>
        <time>2017-07-24T11:24:50Z</time>
      </trkpt>
      <trkpt lat="44.5891580" lon="7.0674610">
        <ele>1310.2</ele>
        <time>2017-07-24T11:24:51Z</time>
      </trkpt>
      <trkpt lat="44.5889870" lon="7.0672660">
        <ele>1309.0</ele>
        <time>2017-07-24T11:24:53Z</time>
      </trkpt>
      <trkpt lat="44.5888910" lon="7.0671840">
        <ele>1308.4</ele>
        <time>2017-07-24T11:24:54Z</time>
      </trkpt>
      <trkpt lat="44.5887960" lon="7.0671040">
        <ele>1307.8</ele>
        <time>2017-07-24T11:24:55Z</time>
      </trkpt>
      <trkpt lat="44.5886160" lon="7.0669430">
        <ele>1306.8</ele>
        <time>2017-07-24T11:24:57Z</time>
      </trkpt>
      <trkpt lat="44.5884450" lon="7.0668010">
        <ele>1305.8</ele>
        <time>2017-07-24T11:24:59Z</time>
      </trkpt>
      <trkpt lat="44.5883590" lon="7.0667320">
        <ele>1305.0</ele>
        <time>2017-07-24T11:25:00Z</time>
      </trkpt>
      <trkpt lat="44.5882730" lon="7.0666620">
        <ele>1304.4</ele>
        <time>2017-07-24T11:25:01Z</time>
      </trkpt>
      <trkpt lat="44.5881070" lon="7.0665210">
        <ele>1302.8</ele>
        <time>2017-07-24T11:25:03Z</time>
      </trkpt>
      <trkpt lat="44.5880350" lon="7.0664340">
        <ele>1302.4</ele>
        <time>2017-07-24T11:25:04Z</time>
      </trkpt>
      <trkpt lat="44.5879780" lon="7.0663420">
        <ele>1302.0</ele>
        <time>2017-07-24T11:25:05Z</time>
      </trkpt>
      <trkpt lat="44.5879330" lon="7.0662530">
        <ele>1301.6</ele>
        <time>2017-07-24T11:25:06Z</time>
      </trkpt>
      <trkpt lat="44.5878580" lon="7.0661480">
        <ele>1300.8</ele>
        <time>2017-07-24T11:25:08Z</time>
      </trkpt>
      <trkpt lat="44.5878230" lon="7.0661350">
        <ele>1300.4</ele>
        <time>2017-07-24T11:25:09Z</time>
      </trkpt>
      <trkpt lat="44.5877420" lon="7.0661360">
        <ele>1299.6</ele>
        <time>2017-07-24T11:25:11Z</time>
      </trkpt>
      <trkpt lat="44.5876980" lon="7.0661430">
        <ele>1299.0</ele>
        <time>2017-07-24T11:25:12Z</time>
      </trkpt>
      <trkpt lat="44.5876500" lon="7.0661540">
        <ele>1298.6</ele>
        <time>2017-07-24T11:25:13Z</time>
      </trkpt>
      <trkpt lat="44.5875460" lon="7.0661880">
        <ele>1297.8</ele>
        <time>2017-07-24T11:25:15Z</time>
      </trkpt>
      <trkpt lat="44.5874870" lon="7.0662080">
        <ele>1297.4</ele>
        <time>2017-07-24T11:25:16Z</time>
      </trkpt>
      <trkpt lat="44.5873630" lon="7.0662580">
        <ele>1296.8</ele>
        <time>2017-07-24T11:25:18Z</time>
      </trkpt>
      <trkpt lat="44.5871640" lon="7.0663540">
        <ele>1295.8</ele>
        <time>2017-07-24T11:25:21Z</time>
      </trkpt>
      <trkpt lat="44.5870520" lon="7.0664400">
        <ele>1295.4</ele>
        <time>2017-07-24T11:25:22Z</time>
      </trkpt>
      <trkpt lat="44.5868000" lon="7.0666430">
        <ele>1294.8</ele>
        <time>2017-07-24T11:25:24Z</time>
      </trkpt>
      <trkpt lat="44.5866920" lon="7.0667220">
        <ele>1294.4</ele>
        <time>2017-07-24T11:25:25Z</time>
      </trkpt>
      <trkpt lat="44.5864120" lon="7.0669010">
        <ele>1293.2</ele>
        <time>2017-07-24T11:25:28Z</time>
      </trkpt>
      <trkpt lat="44.5863250" lon="7.0669790">
        <ele>1292.8</ele>
        <time>2017-07-24T11:25:29Z</time>
      </trkpt>
      <trkpt lat="44.5862360" lon="7.0672560">
        <ele>1292.0</ele>
        <time>2017-07-24T11:25:32Z</time>
      </trkpt>
      <trkpt lat="44.5862470" lon="7.0673580">
        <ele>1291.6</ele>
        <time>2017-07-24T11:25:33Z</time>
      </trkpt>
      <trkpt lat="44.5862630" lon="7.0675700">
        <ele>1291.0</ele>
        <time>2017-07-24T11:25:35Z</time>
      </trkpt>
      <trkpt lat="44.5862600" lon="7.0676700">
        <ele>1290.6</ele>
        <time>2017-07-24T11:25:36Z</time>
      </trkpt>
      <trkpt lat="44.5861700" lon="7.0679610">
        <ele>1289.4</ele>
        <time>2017-07-24T11:25:39Z</time>
      </trkpt>
      <trkpt lat="44.5861230" lon="7.0680380">
        <ele>1289.0</ele>
        <time>2017-07-24T11:25:40Z</time>
      </trkpt>
      <trkpt lat="44.5860170" lon="7.0681870">
        <ele>1288.6</ele>
        <time>2017-07-24T11:25:42Z</time>
      </trkpt>
      <trkpt lat="44.5859620" lon="7.0682640">
        <ele>1288.2</ele>
        <time>2017-07-24T11:25:43Z</time>
      </trkpt>
      <trkpt lat="44.5859060" lon="7.0683440">
        <ele>1287.8</ele>
        <time>2017-07-24T11:25:44Z</time>
      </trkpt>
      <trkpt lat="44.5857590" lon="7.0686150">
        <ele>1287.0</ele>
        <time>2017-07-24T11:25:47Z</time>
      </trkpt>
      <trkpt lat="44.5857240" lon="7.0687190">
        <ele>1286.8</ele>
        <time>2017-07-24T11:25:48Z</time>
      </trkpt>
      <trkpt lat="44.5856560" lon="7.0690330">
        <ele>1286.2</ele>
        <time>2017-07-24T11:25:51Z</time>
      </trkpt>
      <trkpt lat="44.5856350" lon="7.0691220">
        <ele>1286.2</ele>
        <time>2017-07-24T11:25:52Z</time>
      </trkpt>
      <trkpt lat="44.5855450" lon="7.0694390">
        <ele>1286.0</ele>
        <time>2017-07-24T11:25:56Z</time>
      </trkpt>
      <trkpt lat="44.5855240" lon="7.0695230">
        <ele>1286.0</ele>
        <time>2017-07-24T11:25:57Z</time>
      </trkpt>
      <trkpt lat="44.5855060" lon="7.0696100">
        <ele>1286.0</ele>
        <time>2017-07-24T11:25:58Z</time>
      </trkpt>
      <trkpt lat="44.5854180" lon="7.0702500">
        <ele>1286.0</ele>
        <time>2017-07-24T11:26:05Z</time>
      </trkpt>
      <trkpt lat="44.5854090" lon="7.0707220">
        <ele>1286.0</ele>
        <time>2017-07-24T11:26:10Z</time>
      </trkpt>
      <trkpt lat="44.5854270" lon="7.0708190">
        <ele>1286.0</ele>
        <time>2017-07-24T11:26:11Z</time>
      </trkpt>
      <trkpt lat="44.5855000" lon="7.0709780">
        <ele>1285.4</ele>
        <time>2017-07-24T11:26:13Z</time>
      </trkpt>
      <trkpt lat="44.5855390" lon="7.0710720">
        <ele>1285.0</ele>
        <time>2017-07-24T11:26:14Z</time>
      </trkpt>
      <trkpt lat="44.5855740" lon="7.0712650">
        <ele>1284.2</ele>
        <time>2017-07-24T11:26:16Z</time>
      </trkpt>
      <trkpt lat="44.5855780" lon="7.0713550">
        <ele>1284.0</ele>
        <time>2017-07-24T11:26:17Z</time>
      </trkpt>
      <trkpt lat="44.5855840" lon="7.0714420">
        <ele>1283.8</ele>
        <time>2017-07-24T11:26:18Z</time>
      </trkpt>
      <trkpt lat="44.5855830" lon="7.0715270">
        <ele>1283.6</ele>
        <time>2017-07-24T11:26:19Z</time>
      </trkpt>
      <trkpt lat="44.5855700" lon="7.0716160">
        <ele>1283.4</ele>
        <time>2017-07-24T11:26:20Z</time>
      </trkpt>
      <trkpt lat="44.5855110" lon="7.0717970">
        <ele>1282.6</ele>
        <time>2017-07-24T11:26:22Z</time>
      </trkpt>
      <trkpt lat="44.5854280" lon="7.0719810">
        <ele>1281.6</ele>
        <time>2017-07-24T11:26:24Z</time>
      </trkpt>
      <trkpt lat="44.5852760" lon="7.0724030">
        <ele>1280.2</ele>
        <time>2017-07-24T11:26:28Z</time>
      </trkpt>
      <trkpt lat="44.5852500" lon="7.0725170">
        <ele>1280.0</ele>
        <time>2017-07-24T11:26:29Z</time>
      </trkpt>
      <trkpt lat="44.5851540" lon="7.0729600">
        <ele>1279.0</ele>
        <time>2017-07-24T11:26:33Z</time>
      </trkpt>
      <trkpt lat="44.5851000" lon="7.0731680">
        <ele>1278.8</ele>
        <time>2017-07-24T11:26:35Z</time>
      </trkpt>
      <trkpt lat="44.5850690" lon="7.0732720">
        <ele>1278.6</ele>
        <time>2017-07-24T11:26:36Z</time>
      </trkpt>
      <trkpt lat="44.5849740" lon="7.0735510">
        <ele>1277.8</ele>
        <time>2017-07-24T11:26:39Z</time>
      </trkpt>
      <trkpt lat="44.5848960" lon="7.0737120">
        <ele>1277.6</ele>
        <time>2017-07-24T11:26:41Z</time>
      </trkpt>
      <trkpt lat="44.5846720" lon="7.0741090">
        <ele>1276.8</ele>
        <time>2017-07-24T11:26:46Z</time>
      </trkpt>
      <trkpt lat="44.5846320" lon="7.0741990">
        <ele>1276.6</ele>
        <time>2017-07-24T11:26:47Z</time>
      </trkpt>
      <trkpt lat="44.5845940" lon="7.0745290">
        <ele>1276.2</ele>
        <time>2017-07-24T11:26:50Z</time>
      </trkpt>
      <trkpt lat="44.5845820" lon="7.0747340">
        <ele>1275.8</ele>
        <time>2017-07-24T11:26:52Z</time>
      </trkpt>
      <trkpt lat="44.5845670" lon="7.0748320">
        <ele>1275.8</ele>
        <time>2017-07-24T11:26:53Z</time>
      </trkpt>
      <trkpt lat="44.5845490" lon="7.0749220">
        <ele>1275.6</ele>
        <time>2017-07-24T11:26:54Z</time>
      </trkpt>
      <trkpt lat="44.5844140" lon="7.0755080">
        <ele>1274.6</ele>
        <time>2017-07-24T11:27:00Z</time>
      </trkpt>
      <trkpt lat="44.5843710" lon="7.0758100">
        <ele>1273.4</ele>
        <time>2017-07-24T11:27:03Z</time>
      </trkpt>
      <trkpt lat="44.5843250" lon="7.0760030">
        <ele>1272.8</ele>
        <time>2017-07-24T11:27:05Z</time>
      </trkpt>
      <trkpt lat="44.5842350" lon="7.0763340">
        <ele>1272.4</ele>
        <time>2017-07-24T11:27:09Z</time>
      </trkpt>
      <trkpt lat="44.5842140" lon="7.0764040">
        <ele>1272.4</ele>
        <time>2017-07-24T11:27:10Z</time>
      </trkpt>
      <trkpt lat="44.5841550" lon="7.0766790">
        <ele>1271.8</ele>
        <time>2017-07-24T11:27:14Z</time>
      </trkpt>
      <trkpt lat="44.5841000" lon="7.0768190">
        <ele>1271.6</ele>
        <time>2017-07-24T11:27:16Z</time>
      </trkpt>
      <trkpt lat="44.5840560" lon="7.0768860">
        <ele>1271.6</ele>
        <time>2017-07-24T11:27:17Z</time>
      </trkpt>
      <trkpt lat="44.5840150" lon="7.0769500">
        <ele>1271.2</ele>
        <time>2017-07-24T11:27:18Z</time>
      </trkpt>
      <trkpt lat="44.5839240" lon="7.0772300">
        <ele>1271.0</ele>
        <time>2017-07-24T11:27:21Z</time>
      </trkpt>
      <trkpt lat="44.5838320" lon="7.0775570">
        <ele>1270.2</ele>
        <time>2017-07-24T11:27:24Z</time>
      </trkpt>
      <trkpt lat="44.5838080" lon="7.0776700">
        <ele>1269.6</ele>
        <time>2017-07-24T11:27:25Z</time>
      </trkpt>
      <trkpt lat="44.5837870" lon="7.0778970">
        <ele>1268.8</ele>
        <time>2017-07-24T11:27:27Z</time>
      </trkpt>
      <trkpt lat="44.5838250" lon="7.0782530">
        <ele>1267.2</ele>
        <time>2017-07-24T11:27:30Z</time>
      </trkpt>
      <trkpt lat="44.5838620" lon="7.0783430">
        <ele>1266.6</ele>
        <time>2017-07-24T11:27:31Z</time>
      </trkpt>
      <trkpt lat="44.5838880" lon="7.0784350">
        <ele>1265.8</ele>
        <time>2017-07-24T11:27:32Z</time>
      </trkpt>
      <trkpt lat="44.5839230" lon="7.0785390">
        <ele>1264.8</ele>
        <time>2017-07-24T11:27:33Z</time>
      </trkpt>
      <trkpt lat="44.5839520" lon="7.0786650">
        <ele>1264.2</ele>
        <time>2017-07-24T11:27:34Z</time>
      </trkpt>
      <trkpt lat="44.5840020" lon="7.0789540">
        <ele>1262.4</ele>
        <time>2017-07-24T11:27:36Z</time>
      </trkpt>
      <trkpt lat="44.5840230" lon="7.0790960">
        <ele>1261.2</ele>
        <time>2017-07-24T11:27:37Z</time>
      </trkpt>
      <trkpt lat="44.5840380" lon="7.0792370">
        <ele>1260.0</ele>
        <time>2017-07-24T11:27:38Z</time>
      </trkpt>
      <trkpt lat="44.5840490" lon="7.0795240">
        <ele>1258.2</ele>
        <time>2017-07-24T11:27:40Z</time>
      </trkpt>
      <trkpt lat="44.5840780" lon="7.0798050">
        <ele>1257.0</ele>
        <time>2017-07-24T11:27:42Z</time>
      </trkpt>
      <trkpt lat="44.5841110" lon="7.0799360">
        <ele>1256.4</ele>
        <time>2017-07-24T11:27:43Z</time>
      </trkpt>
      <trkpt lat="44.5841500" lon="7.0800640">
        <ele>1255.6</ele>
        <time>2017-07-24T11:27:44Z</time>
      </trkpt>
      <trkpt lat="44.5842030" lon="7.0801840">
        <ele>1255.2</ele>
        <time>2017-07-24T11:27:45Z</time>
      </trkpt>
      <trkpt lat="44.5842570" lon="7.0803010">
        <ele>1254.6</ele>
        <time>2017-07-24T11:27:46Z</time>
      </trkpt>
      <trkpt lat="44.5843330" lon="7.0805100">
        <ele>1253.2</ele>
        <time>2017-07-24T11:27:48Z</time>
      </trkpt>
      <trkpt lat="44.5843360" lon="7.0807830">
        <ele>1252.2</ele>
        <time>2017-07-24T11:27:51Z</time>
      </trkpt>
      <trkpt lat="44.5843090" lon="7.0809380">
        <ele>1252.0</ele>
        <time>2017-07-24T11:27:53Z</time>
      </trkpt>
      <trkpt lat="44.5842900" lon="7.0811170">
        <ele>1251.2</ele>
        <time>2017-07-24T11:27:55Z</time>
      </trkpt>
      <trkpt lat="44.5842820" lon="7.0812110">
        <ele>1251.0</ele>
        <time>2017-07-24T11:27:56Z</time>
      </trkpt>
      <trkpt lat="44.5842370" lon="7.0814950">
        <ele>1251.0</ele>
        <time>2017-07-24T11:27:59Z</time>
      </trkpt>
      <trkpt lat="44.5841810" lon="7.0816770">
        <ele>1250.2</ele>
        <time>2017-07-24T11:28:01Z</time>
      </trkpt>
      <trkpt lat="44.5841230" lon="7.0818610">
        <ele>1250.0</ele>
        <time>2017-07-24T11:28:03Z</time>
      </trkpt>
      <trkpt lat="44.5840410" lon="7.0821190">
        <ele>1249.6</ele>
        <time>2017-07-24T11:28:06Z</time>
      </trkpt>
      <trkpt lat="44.5839980" lon="7.0822940">
        <ele>1249.4</ele>
        <time>2017-07-24T11:28:08Z</time>
      </trkpt>
      <trkpt lat="44.5839820" lon="7.0824650">
        <ele>1249.0</ele>
        <time>2017-07-24T11:28:10Z</time>
      </trkpt>
      <trkpt lat="44.5839910" lon="7.0825380">
        <ele>1248.8</ele>
        <time>2017-07-24T11:28:11Z</time>
      </trkpt>
      <trkpt lat="44.5839940" lon="7.0826090">
        <ele>1248.8</ele>
        <time>2017-07-24T11:28:12Z</time>
      </trkpt>
      <trkpt lat="44.5839860" lon="7.0828290">
        <ele>1248.8</ele>
        <time>2017-07-24T11:28:15Z</time>
      </trkpt>
      <trkpt lat="44.5839820" lon="7.0829080">
        <ele>1248.6</ele>
        <time>2017-07-24T11:28:16Z</time>
      </trkpt>
      <trkpt lat="44.5839790" lon="7.0830790">
        <ele>1248.0</ele>
        <time>2017-07-24T11:28:18Z</time>
      </trkpt>
      <trkpt lat="44.5839740" lon="7.0831730">
        <ele>1247.8</ele>
        <time>2017-07-24T11:28:19Z</time>
      </trkpt>
      <trkpt lat="44.5839780" lon="7.0833860">
        <ele>1247.2</ele>
        <time>2017-07-24T11:28:21Z</time>
      </trkpt>
      <trkpt lat="44.5839910" lon="7.0834900">
        <ele>1246.8</ele>
        <time>2017-07-24T11:28:22Z</time>
      </trkpt>
      <trkpt lat="44.5840170" lon="7.0835890">
        <ele>1246.4</ele>
        <time>2017-07-24T11:28:23Z</time>
      </trkpt>
      <trkpt lat="44.5840610" lon="7.0836820">
        <ele>1246.2</ele>
        <time>2017-07-24T11:28:24Z</time>
      </trkpt>
      <trkpt lat="44.5841640" lon="7.0838420">
        <ele>1245.4</ele>
        <time>2017-07-24T11:28:26Z</time>
      </trkpt>
      <trkpt lat="44.5841840" lon="7.0839130">
        <ele>1245.0</ele>
        <time>2017-07-24T11:28:27Z</time>
      </trkpt>
      <trkpt lat="44.5841850" lon="7.0839820">
        <ele>1244.8</ele>
        <time>2017-07-24T11:28:28Z</time>
      </trkpt>
      <trkpt lat="44.5841570" lon="7.0841830">
        <ele>1244.6</ele>
        <time>2017-07-24T11:28:31Z</time>
      </trkpt>
      <trkpt lat="44.5841460" lon="7.0842550">
        <ele>1244.2</ele>
        <time>2017-07-24T11:28:32Z</time>
      </trkpt>
      <trkpt lat="44.5841370" lon="7.0843310">
        <ele>1244.2</ele>
        <time>2017-07-24T11:28:33Z</time>
      </trkpt>
      <trkpt lat="44.5841370" lon="7.0844170">
        <ele>1244.0</ele>
        <time>2017-07-24T11:28:34Z</time>
      </trkpt>
      <trkpt lat="44.5841270" lon="7.0846100">
        <ele>1243.6</ele>
        <time>2017-07-24T11:28:36Z</time>
      </trkpt>
      <trkpt lat="44.5841240" lon="7.0847050">
        <ele>1243.6</ele>
        <time>2017-07-24T11:28:37Z</time>
      </trkpt>
      <trkpt lat="44.5841220" lon="7.0847770">
        <ele>1243.2</ele>
        <time>2017-07-24T11:28:38Z</time>
      </trkpt>
      <trkpt lat="44.5841560" lon="7.0848160">
        <ele>1242.0</ele>
        <time>2017-07-24T11:28:39Z</time>
      </trkpt>
      <trkpt lat="44.5841800" lon="7.0848620">
        <ele>1241.6</ele>
        <time>2017-07-24T11:28:40Z</time>
      </trkpt>
      <trkpt lat="44.5841820" lon="7.0849770">
        <ele>1240.4</ele>
        <time>2017-07-24T11:28:42Z</time>
      </trkpt>
      <trkpt lat="44.5841680" lon="7.0850380">
        <ele>1239.8</ele>
        <time>2017-07-24T11:28:43Z</time>
      </trkpt>
      <trkpt lat="44.5841420" lon="7.0851100">
        <ele>1239.0</ele>
        <time>2017-07-24T11:28:44Z</time>
      </trkpt>
      <trkpt lat="44.5841100" lon="7.0851920">
        <ele>1238.8</ele>
        <time>2017-07-24T11:28:45Z</time>
      </trkpt>
      <trkpt lat="44.5840780" lon="7.0852790">
        <ele>1238.4</ele>
        <time>2017-07-24T11:28:46Z</time>
      </trkpt>
      <trkpt lat="44.5840440" lon="7.0853670">
        <ele>1238.0</ele>
        <time>2017-07-24T11:28:47Z</time>
      </trkpt>
      <trkpt lat="44.5840170" lon="7.0854680">
        <ele>1237.4</ele>
        <time>2017-07-24T11:28:48Z</time>
      </trkpt>
      <trkpt lat="44.5839920" lon="7.0855750">
        <ele>1237.0</ele>
        <time>2017-07-24T11:28:49Z</time>
      </trkpt>
      <trkpt lat="44.5839300" lon="7.0857790">
        <ele>1236.0</ele>
        <time>2017-07-24T11:28:51Z</time>
      </trkpt>
      <trkpt lat="44.5838900" lon="7.0858720">
        <ele>1235.6</ele>
        <time>2017-07-24T11:28:52Z</time>
      </trkpt>
      <trkpt lat="44.5837480" lon="7.0862780">
        <ele>1234.2</ele>
        <time>2017-07-24T11:28:56Z</time>
      </trkpt>
      <trkpt lat="44.5836810" lon="7.0864760">
        <ele>1233.2</ele>
        <time>2017-07-24T11:28:58Z</time>
      </trkpt>
      <trkpt lat="44.5835870" lon="7.0867370">
        <ele>1232.0</ele>
        <time>2017-07-24T11:29:01Z</time>
      </trkpt>
      <trkpt lat="44.5835510" lon="7.0868220">
        <ele>1231.6</ele>
        <time>2017-07-24T11:29:02Z</time>
      </trkpt>
      <trkpt lat="44.5835100" lon="7.0869060">
        <ele>1230.8</ele>
        <time>2017-07-24T11:29:03Z</time>
      </trkpt>
      <trkpt lat="44.5833350" lon="7.0872300">
        <ele>1229.8</ele>
        <time>2017-07-24T11:29:07Z</time>
      </trkpt>
      <trkpt lat="44.5832900" lon="7.0873110">
        <ele>1229.6</ele>
        <time>2017-07-24T11:29:08Z</time>
      </trkpt>
      <trkpt lat="44.5832180" lon="7.0874470">
        <ele>1229.6</ele>
        <time>2017-07-24T11:29:10Z</time>
      </trkpt>
      <trkpt lat="44.5831560" lon="7.0875420">
        <ele>1229.8</ele>
        <time>2017-07-24T11:29:12Z</time>
      </trkpt>
      <trkpt lat="44.5830670" lon="7.0877420">
        <ele>1229.6</ele>
        <time>2017-07-24T11:29:15Z</time>
      </trkpt>
      <trkpt lat="44.5830420" lon="7.0878320">
        <ele>1229.8</ele>
        <time>2017-07-24T11:29:16Z</time>
      </trkpt>
      <trkpt lat="44.5830200" lon="7.0879260">
        <ele>1229.6</ele>
        <time>2017-07-24T11:29:17Z</time>
      </trkpt>
      <trkpt lat="44.5829710" lon="7.0881400">
        <ele>1228.8</ele>
        <time>2017-07-24T11:29:19Z</time>
      </trkpt>
      <trkpt lat="44.5829170" lon="7.0883920">
        <ele>1228.0</ele>
        <time>2017-07-24T11:29:21Z</time>
      </trkpt>
      <trkpt lat="44.5828870" lon="7.0885310">
        <ele>1227.4</ele>
        <time>2017-07-24T11:29:22Z</time>
      </trkpt>
      <trkpt lat="44.5827950" lon="7.0889410">
        <ele>1226.4</ele>
        <time>2017-07-24T11:29:25Z</time>
      </trkpt>
      <trkpt lat="44.5827290" lon="7.0892040">
        <ele>1224.8</ele>
        <time>2017-07-24T11:29:27Z</time>
      </trkpt>
      <trkpt lat="44.5826990" lon="7.0893320">
        <ele>1224.0</ele>
        <time>2017-07-24T11:29:28Z</time>
      </trkpt>
      <trkpt lat="44.5826660" lon="7.0894530">
        <ele>1223.4</ele>
        <time>2017-07-24T11:29:29Z</time>
      </trkpt>
      <trkpt lat="44.5825980" lon="7.0898120">
        <ele>1222.4</ele>
        <time>2017-07-24T11:29:32Z</time>
      </trkpt>
      <trkpt lat="44.5825840" lon="7.0899360">
        <ele>1221.8</ele>
        <time>2017-07-24T11:29:33Z</time>
      </trkpt>
      <trkpt lat="44.5825830" lon="7.0900570">
        <ele>1221.4</ele>
        <time>2017-07-24T11:29:34Z</time>
      </trkpt>
      <trkpt lat="44.5825840" lon="7.0901840">
        <ele>1220.8</ele>
        <time>2017-07-24T11:29:35Z</time>
      </trkpt>
      <trkpt lat="44.5826030" lon="7.0904160">
        <ele>1220.0</ele>
        <time>2017-07-24T11:29:37Z</time>
      </trkpt>
      <trkpt lat="44.5826250" lon="7.0905110">
        <ele>1219.8</ele>
        <time>2017-07-24T11:29:38Z</time>
      </trkpt>
      <trkpt lat="44.5826450" lon="7.0905990">
        <ele>1219.4</ele>
        <time>2017-07-24T11:29:39Z</time>
      </trkpt>
      <trkpt lat="44.5826950" lon="7.0907360">
        <ele>1218.6</ele>
        <time>2017-07-24T11:29:41Z</time>
      </trkpt>
      <trkpt lat="44.5827770" lon="7.0908350">
        <ele>1217.4</ele>
        <time>2017-07-24T11:29:43Z</time>
      </trkpt>
      <trkpt lat="44.5828750" lon="7.0909860">
        <ele>1216.6</ele>
        <time>2017-07-24T11:29:45Z</time>
      </trkpt>
      <trkpt lat="44.5829110" lon="7.0910840">
        <ele>1216.4</ele>
        <time>2017-07-24T11:29:46Z</time>
      </trkpt>
      <trkpt lat="44.5829430" lon="7.0912830">
        <ele>1215.6</ele>
        <time>2017-07-24T11:29:48Z</time>
      </trkpt>
      <trkpt lat="44.5829500" lon="7.0914810">
        <ele>1215.0</ele>
        <time>2017-07-24T11:29:50Z</time>
      </trkpt>
      <trkpt lat="44.5829860" lon="7.0916740">
        <ele>1214.6</ele>
        <time>2017-07-24T11:29:52Z</time>
      </trkpt>
      <trkpt lat="44.5830880" lon="7.0919100">
        <ele>1213.8</ele>
        <time>2017-07-24T11:29:55Z</time>
      </trkpt>
      <trkpt lat="44.5831450" lon="7.0919760">
        <ele>1213.8</ele>
        <time>2017-07-24T11:29:56Z</time>
      </trkpt>
      <trkpt lat="44.5832520" lon="7.0922390">
        <ele>1213.8</ele>
        <time>2017-07-24T11:29:59Z</time>
      </trkpt>
      <trkpt lat="44.5832910" lon="7.0923570">
        <ele>1213.2</ele>
        <time>2017-07-24T11:30:00Z</time>
      </trkpt>
      <trkpt lat="44.5833380" lon="7.0924640">
        <ele>1213.2</ele>
        <time>2017-07-24T11:30:01Z</time>
      </trkpt>
      <trkpt lat="44.5833820" lon="7.0925690">
        <ele>1212.6</ele>
        <time>2017-07-24T11:30:02Z</time>
      </trkpt>
      <trkpt lat="44.5834240" lon="7.0926900">
        <ele>1212.6</ele>
        <time>2017-07-24T11:30:03Z</time>
      </trkpt>
      <trkpt lat="44.5834550" lon="7.0928050">
        <ele>1212.0</ele>
        <time>2017-07-24T11:30:04Z</time>
      </trkpt>
      <trkpt lat="44.5834910" lon="7.0930170">
        <ele>1211.2</ele>
        <time>2017-07-24T11:30:06Z</time>
      </trkpt>
      <trkpt lat="44.5835140" lon="7.0932210">
        <ele>1210.6</ele>
        <time>2017-07-24T11:30:08Z</time>
      </trkpt>
      <trkpt lat="44.5835130" lon="7.0933230">
        <ele>1210.4</ele>
        <time>2017-07-24T11:30:09Z</time>
      </trkpt>
      <trkpt lat="44.5834950" lon="7.0934730">
        <ele>1210.2</ele>
        <time>2017-07-24T11:30:11Z</time>
      </trkpt>
      <trkpt lat="44.5834220" lon="7.0938300">
        <ele>1210.0</ele>
        <time>2017-07-24T11:30:15Z</time>
      </trkpt>
      <trkpt lat="44.5833700" lon="7.0944500">
        <ele>1209.2</ele>
        <time>2017-07-24T11:30:20Z</time>
      </trkpt>
      <trkpt lat="44.5833520" lon="7.0947150">
        <ele>1209.0</ele>
        <time>2017-07-24T11:30:22Z</time>
      </trkpt>
      <trkpt lat="44.5832910" lon="7.0955030">
        <ele>1207.8</ele>
        <time>2017-07-24T11:30:28Z</time>
      </trkpt>
      <trkpt lat="44.5832820" lon="7.0956290">
        <ele>1207.6</ele>
        <time>2017-07-24T11:30:29Z</time>
      </trkpt>
      <trkpt lat="44.5832240" lon="7.0963690">
        <ele>1206.8</ele>
        <time>2017-07-24T11:30:35Z</time>
      </trkpt>
      <trkpt lat="44.5831480" lon="7.0966070">
        <ele>1206.4</ele>
        <time>2017-07-24T11:30:37Z</time>
      </trkpt>
      <trkpt lat="44.5830580" lon="7.0968490">
        <ele>1205.8</ele>
        <time>2017-07-24T11:30:39Z</time>
      </trkpt>
      <trkpt lat="44.5829500" lon="7.0973680">
        <ele>1204.6</ele>
        <time>2017-07-24T11:30:43Z</time>
      </trkpt>
      <trkpt lat="44.5829290" lon="7.0975060">
        <ele>1204.2</ele>
        <time>2017-07-24T11:30:44Z</time>
      </trkpt>
      <trkpt lat="44.5828970" lon="7.0979290">
        <ele>1203.4</ele>
        <time>2017-07-24T11:30:47Z</time>
      </trkpt>
      <trkpt lat="44.5829080" lon="7.0982060">
        <ele>1203.0</ele>
        <time>2017-07-24T11:30:49Z</time>
      </trkpt>
      <trkpt lat="44.5829520" lon="7.0984680">
        <ele>1202.4</ele>
        <time>2017-07-24T11:30:51Z</time>
      </trkpt>
      <trkpt lat="44.5830440" lon="7.0988210">
        <ele>1201.2</ele>
        <time>2017-07-24T11:30:54Z</time>
      </trkpt>
      <trkpt lat="44.5829990" lon="7.0991280">
        <ele>1200.2</ele>
        <time>2017-07-24T11:30:57Z</time>
      </trkpt>
      <trkpt lat="44.5830810" lon="7.0994880">
        <ele>1199.0</ele>
        <time>2017-07-24T11:31:00Z</time>
      </trkpt>
      <trkpt lat="44.5831070" lon="7.0996090">
        <ele>1198.8</ele>
        <time>2017-07-24T11:31:01Z</time>
      </trkpt>
      <trkpt lat="44.5831770" lon="7.0999730">
        <ele>1198.0</ele>
        <time>2017-07-24T11:31:04Z</time>
      </trkpt>
      <trkpt lat="44.5831990" lon="7.1002370">
        <ele>1197.4</ele>
        <time>2017-07-24T11:31:06Z</time>
      </trkpt>
      <trkpt lat="44.5832060" lon="7.1005120">
        <ele>1196.6</ele>
        <time>2017-07-24T11:31:08Z</time>
      </trkpt>
      <trkpt lat="44.5832100" lon="7.1009560">
        <ele>1195.6</ele>
        <time>2017-07-24T11:31:11Z</time>
      </trkpt>
      <trkpt lat="44.5832040" lon="7.1014030">
        <ele>1194.2</ele>
        <time>2017-07-24T11:31:14Z</time>
      </trkpt>
      <trkpt lat="44.5832090" lon="7.1018340">
        <ele>1193.2</ele>
        <time>2017-07-24T11:31:17Z</time>
      </trkpt>
      <trkpt lat="44.5832280" lon="7.1021110">
        <ele>1192.6</ele>
        <time>2017-07-24T11:31:19Z</time>
      </trkpt>
      <trkpt lat="44.5832430" lon="7.1025190">
        <ele>1191.8</ele>
        <time>2017-07-24T11:31:22Z</time>
      </trkpt>
      <trkpt lat="44.5832710" lon="7.1032010">
        <ele>1190.8</ele>
        <time>2017-07-24T11:31:27Z</time>
      </trkpt>
      <trkpt lat="44.5832890" lon="7.1036130">
        <ele>1190.2</ele>
        <time>2017-07-24T11:31:30Z</time>
      </trkpt>
      <trkpt lat="44.5832990" lon="7.1038880">
        <ele>1189.8</ele>
        <time>2017-07-24T11:31:32Z</time>
      </trkpt>
      <trkpt lat="44.5833110" lon="7.1041700">
        <ele>1189.6</ele>
        <time>2017-07-24T11:31:34Z</time>
      </trkpt>
      <trkpt lat="44.5833500" lon="7.1050250">
        <ele>1188.4</ele>
        <time>2017-07-24T11:31:40Z</time>
      </trkpt>
      <trkpt lat="44.5833570" lon="7.1051690">
        <ele>1188.2</ele>
        <time>2017-07-24T11:31:41Z</time>
      </trkpt>
      <trkpt lat="44.5833730" lon="7.1054470">
        <ele>1187.8</ele>
        <time>2017-07-24T11:31:43Z</time>
      </trkpt>
      <trkpt lat="44.5833730" lon="7.1057100">
        <ele>1187.2</ele>
        <time>2017-07-24T11:31:45Z</time>
      </trkpt>
      <trkpt lat="44.5833550" lon="7.1058270">
        <ele>1186.8</ele>
        <time>2017-07-24T11:31:46Z</time>
      </trkpt>
      <trkpt lat="44.5832510" lon="7.1061360">
        <ele>1186.0</ele>
        <time>2017-07-24T11:31:49Z</time>
      </trkpt>
      <trkpt lat="44.5832060" lon="7.1062280">
        <ele>1185.8</ele>
        <time>2017-07-24T11:31:50Z</time>
      </trkpt>
      <trkpt lat="44.5831590" lon="7.1063110">
        <ele>1185.0</ele>
        <time>2017-07-24T11:31:51Z</time>
      </trkpt>
      <trkpt lat="44.5829910" lon="7.1065600">
        <ele>1184.0</ele>
        <time>2017-07-24T11:31:54Z</time>
      </trkpt>
      <trkpt lat="44.5828660" lon="7.1067310">
        <ele>1182.8</ele>
        <time>2017-07-24T11:31:56Z</time>
      </trkpt>
      <trkpt lat="44.5825970" lon="7.1070570">
        <ele>1181.6</ele>
        <time>2017-07-24T11:32:00Z</time>
      </trkpt>
      <trkpt lat="44.5825230" lon="7.1073920">
        <ele>1180.4</ele>
        <time>2017-07-24T11:32:03Z</time>
      </trkpt>
      <trkpt lat="44.5825150" lon="7.1075070">
        <ele>1180.0</ele>
        <time>2017-07-24T11:32:04Z</time>
      </trkpt>
      <trkpt lat="44.5825190" lon="7.1076190">
        <ele>1179.6</ele>
        <time>2017-07-24T11:32:05Z</time>
      </trkpt>
      <trkpt lat="44.5825260" lon="7.1077270">
        <ele>1179.2</ele>
        <time>2017-07-24T11:32:06Z</time>
      </trkpt>
      <trkpt lat="44.5825250" lon="7.1078360">
        <ele>1179.0</ele>
        <time>2017-07-24T11:32:07Z</time>
      </trkpt>
      <trkpt lat="44.5824740" lon="7.1081570">
        <ele>1178.2</ele>
        <time>2017-07-24T11:32:10Z</time>
      </trkpt>
      <trkpt lat="44.5824560" lon="7.1082660">
        <ele>1177.8</ele>
        <time>2017-07-24T11:32:11Z</time>
      </trkpt>
      <trkpt lat="44.5824550" lon="7.1083800">
        <ele>1177.2</ele>
        <time>2017-07-24T11:32:12Z</time>
      </trkpt>
      <trkpt lat="44.5824870" lon="7.1085950">
        <ele>1176.4</ele>
        <time>2017-07-24T11:32:14Z</time>
      </trkpt>
      <trkpt lat="44.5825140" lon="7.1086990">
        <ele>1176.0</ele>
        <time>2017-07-24T11:32:15Z</time>
      </trkpt>
      <trkpt lat="44.5825370" lon="7.1089150">
        <ele>1175.2</ele>
        <time>2017-07-24T11:32:17Z</time>
      </trkpt>
      <trkpt lat="44.5825120" lon="7.1090050">
        <ele>1175.0</ele>
        <time>2017-07-24T11:32:18Z</time>
      </trkpt>
      <trkpt lat="44.5824800" lon="7.1090750">
        <ele>1174.8</ele>
        <time>2017-07-24T11:32:19Z</time>
      </trkpt>
      <trkpt lat="44.5824110" lon="7.1091960">
        <ele>1174.8</ele>
        <time>2017-07-24T11:32:21Z</time>
      </trkpt>
      <trkpt lat="44.5823770" lon="7.1092540">
        <ele>1175.0</ele>
        <time>2017-07-24T11:32:22Z</time>
      </trkpt>
      <trkpt lat="44.5823190" lon="7.1093680">
        <ele>1175.2</ele>
        <time>2017-07-24T11:32:24Z</time>
      </trkpt>
      <trkpt lat="44.5822740" lon="7.1095150">
        <ele>1175.4</ele>
        <time>2017-07-24T11:32:26Z</time>
      </trkpt>
      <trkpt lat="44.5822520" lon="7.1095960">
        <ele>1175.4</ele>
        <time>2017-07-24T11:32:27Z</time>
      </trkpt>
      <trkpt lat="44.5822050" lon="7.1097430">
        <ele>1175.6</ele>
        <time>2017-07-24T11:32:29Z</time>
      </trkpt>
      <trkpt lat="44.5821840" lon="7.1098210">
        <ele>1175.6</ele>
        <time>2017-07-24T11:32:30Z</time>
      </trkpt>
      <trkpt lat="44.5821540" lon="7.1099920">
        <ele>1175.8</ele>
        <time>2017-07-24T11:32:32Z</time>
      </trkpt>
      <trkpt lat="44.5821420" lon="7.1100830">
        <ele>1175.8</ele>
        <time>2017-07-24T11:32:33Z</time>
      </trkpt>
      <trkpt lat="44.5820940" lon="7.1105150">
        <ele>1176.2</ele>
        <time>2017-07-24T11:32:37Z</time>
      </trkpt>
      <trkpt lat="44.5820520" lon="7.1109360">
        <ele>1174.8</ele>
        <time>2017-07-24T11:32:40Z</time>
      </trkpt>
      <trkpt lat="44.5820310" lon="7.1110750">
        <ele>1174.4</ele>
        <time>2017-07-24T11:32:41Z</time>
      </trkpt>
      <trkpt lat="44.5819780" lon="7.1113350">
        <ele>1173.6</ele>
        <time>2017-07-24T11:32:43Z</time>
      </trkpt>
      <trkpt lat="44.5819390" lon="7.1114510">
        <ele>1173.0</ele>
        <time>2017-07-24T11:32:44Z</time>
      </trkpt>
      <trkpt lat="44.5818950" lon="7.1115540">
        <ele>1172.6</ele>
        <time>2017-07-24T11:32:45Z</time>
      </trkpt>
      <trkpt lat="44.5817080" lon="7.1119670">
        <ele>1171.6</ele>
        <time>2017-07-24T11:32:49Z</time>
      </trkpt>
      <trkpt lat="44.5817060" lon="7.1120710">
        <ele>1171.0</ele>
        <time>2017-07-24T11:32:50Z</time>
      </trkpt>
      <trkpt lat="44.5817130" lon="7.1121730">
        <ele>1170.2</ele>
        <time>2017-07-24T11:32:51Z</time>
      </trkpt>
      <trkpt lat="44.5817300" lon="7.1123710">
        <ele>1169.8</ele>
        <time>2017-07-24T11:32:53Z</time>
      </trkpt>
      <trkpt lat="44.5817520" lon="7.1126930">
        <ele>1168.6</ele>
        <time>2017-07-24T11:32:56Z</time>
      </trkpt>
      <trkpt lat="44.5817560" lon="7.1128010">
        <ele>1168.2</ele>
        <time>2017-07-24T11:32:57Z</time>
      </trkpt>
      <trkpt lat="44.5817520" lon="7.1130170">
        <ele>1167.6</ele>
        <time>2017-07-24T11:32:59Z</time>
      </trkpt>
      <trkpt lat="44.5817250" lon="7.1133400">
        <ele>1166.4</ele>
        <time>2017-07-24T11:33:02Z</time>
      </trkpt>
      <trkpt lat="44.5816960" lon="7.1135500">
        <ele>1165.4</ele>
        <time>2017-07-24T11:33:04Z</time>
      </trkpt>
      <trkpt lat="44.5816650" lon="7.1137520">
        <ele>1164.6</ele>
        <time>2017-07-24T11:33:06Z</time>
      </trkpt>
      <trkpt lat="44.5816300" lon="7.1138120">
        <ele>1164.4</ele>
        <time>2017-07-24T11:33:07Z</time>
      </trkpt>
      <trkpt lat="44.5815910" lon="7.1138460">
        <ele>1164.2</ele>
        <time>2017-07-24T11:33:08Z</time>
      </trkpt>
      <trkpt lat="44.5814960" lon="7.1138450">
        <ele>1163.4</ele>
        <time>2017-07-24T11:33:10Z</time>
      </trkpt>
      <trkpt lat="44.5814400" lon="7.1138300">
        <ele>1163.2</ele>
        <time>2017-07-24T11:33:11Z</time>
      </trkpt>
      <trkpt lat="44.5812140" lon="7.1138190">
        <ele>1162.8</ele>
        <time>2017-07-24T11:33:15Z</time>
      </trkpt>
      <trkpt lat="44.5810650" lon="7.1139250">
        <ele>1162.6</ele>
        <time>2017-07-24T11:33:18Z</time>
      </trkpt>
      <trkpt lat="44.5809660" lon="7.1141380">
        <ele>1162.6</ele>
        <time>2017-07-24T11:33:21Z</time>
      </trkpt>
      <trkpt lat="44.5809040" lon="7.1143250">
        <ele>1163.4</ele>
        <time>2017-07-24T11:33:25Z</time>
      </trkpt>
      <trkpt lat="44.5808850" lon="7.1144290">
        <ele>1164.6</ele>
        <time>2017-07-24T11:33:28Z</time>
      </trkpt>
      <trkpt lat="44.5808660" lon="7.1145090">
        <ele>1165.6</ele>
        <time>2017-07-24T11:33:31Z</time>
      </trkpt>
      <trkpt lat="44.5808640" lon="7.1145350">
        <ele>1166.0</ele>
        <time>2017-07-24T11:33:32Z</time>
      </trkpt>
      <trkpt lat="44.5808540" lon="7.1146180">
        <ele>1167.0</ele>
        <time>2017-07-24T11:33:35Z</time>
      </trkpt>
      <trkpt lat="44.5808450" lon="7.1147000">
        <ele>1168.0</ele>
        <time>2017-07-24T11:33:38Z</time>
      </trkpt>
      <trkpt lat="44.5808390" lon="7.1147240">
        <ele>1168.4</ele>
        <time>2017-07-24T11:33:39Z</time>
      </trkpt>
      <trkpt lat="44.5808290" lon="7.1147740">
        <ele>1169.4</ele>
        <time>2017-07-24T11:33:41Z</time>
      </trkpt>
      <trkpt lat="44.5808010" lon="7.1148960">
        <ele>1169.8</ele>
        <time>2017-07-24T11:33:45Z</time>
      </trkpt>
      <trkpt lat="44.5807760" lon="7.1150180">
        <ele>1170.4</ele>
        <time>2017-07-24T11:33:48Z</time>
      </trkpt>
      <trkpt lat="44.5807340" lon="7.1151990">
        <ele>1171.0</ele>
        <time>2017-07-24T11:33:52Z</time>
      </trkpt>
      <trkpt lat="44.5806960" lon="7.1153490">
        <ele>1171.6</ele>
        <time>2017-07-24T11:33:55Z</time>
      </trkpt>
      <trkpt lat="44.5806910" lon="7.1155000">
        <ele>1172.0</ele>
        <time>2017-07-24T11:33:58Z</time>
      </trkpt>
      <trkpt lat="44.5807410" lon="7.1156550">
        <ele>1172.6</ele>
        <time>2017-07-24T11:34:02Z</time>
      </trkpt>
      <trkpt lat="44.5807640" lon="7.1156900">
        <ele>1173.0</ele>
        <time>2017-07-24T11:34:03Z</time>
      </trkpt>
      <trkpt lat="44.5807920" lon="7.1157710">
        <ele>1173.6</ele>
        <time>2017-07-24T11:34:05Z</time>
      </trkpt>
      <trkpt lat="44.5808450" lon="7.1159420">
        <ele>1174.8</ele>
        <time>2017-07-24T11:34:09Z</time>
      </trkpt>
      <trkpt lat="44.5808590" lon="7.1159880">
        <ele>1175.2</ele>
        <time>2017-07-24T11:34:10Z</time>
      </trkpt>
      <trkpt lat="44.5809050" lon="7.1161530">
        <ele>1176.0</ele>
        <time>2017-07-24T11:34:13Z</time>
      </trkpt>
      <trkpt lat="44.5809640" lon="7.1163260">
        <ele>1175.4</ele>
        <time>2017-07-24T11:34:16Z</time>
      </trkpt>
      <trkpt lat="44.5810140" lon="7.1165200">
        <ele>1177.0</ele>
        <time>2017-07-24T11:34:19Z</time>
      </trkpt>
      <trkpt lat="44.5810360" lon="7.1166860">
        <ele>1177.0</ele>
        <time>2017-07-24T11:34:21Z</time>
      </trkpt>
      <trkpt lat="44.5810600" lon="7.1169990">
        <ele>1176.8</ele>
        <time>2017-07-24T11:34:24Z</time>
      </trkpt>
      <trkpt lat="44.5810750" lon="7.1170980">
        <ele>1176.4</ele>
        <time>2017-07-24T11:34:25Z</time>
      </trkpt>
      <trkpt lat="44.5810830" lon="7.1171970">
        <ele>1176.0</ele>
        <time>2017-07-24T11:34:26Z</time>
      </trkpt>
      <trkpt lat="44.5810670" lon="7.1175100">
        <ele>1175.8</ele>
        <time>2017-07-24T11:34:29Z</time>
      </trkpt>
      <trkpt lat="44.5810650" lon="7.1177340">
        <ele>1175.4</ele>
        <time>2017-07-24T11:34:31Z</time>
      </trkpt>
      <trkpt lat="44.5810880" lon="7.1179500">
        <ele>1174.6</ele>
        <time>2017-07-24T11:34:33Z</time>
      </trkpt>
      <trkpt lat="44.5811380" lon="7.1181170">
        <ele>1174.0</ele>
        <time>2017-07-24T11:34:35Z</time>
      </trkpt>
      <trkpt lat="44.5811900" lon="7.1181780">
        <ele>1174.0</ele>
        <time>2017-07-24T11:34:36Z</time>
      </trkpt>
      <trkpt lat="44.5812500" lon="7.1182430">
        <ele>1173.8</ele>
        <time>2017-07-24T11:34:37Z</time>
      </trkpt>
      <trkpt lat="44.5813060" lon="7.1183140">
        <ele>1173.4</ele>
        <time>2017-07-24T11:34:38Z</time>
      </trkpt>
      <trkpt lat="44.5814350" lon="7.1184190">
        <ele>1171.4</ele>
        <time>2017-07-24T11:34:40Z</time>
      </trkpt>
      <trkpt lat="44.5815820" lon="7.1185120">
        <ele>1170.0</ele>
        <time>2017-07-24T11:34:42Z</time>
      </trkpt>
      <trkpt lat="44.5816310" lon="7.1185660">
        <ele>1169.2</ele>
        <time>2017-07-24T11:34:43Z</time>
      </trkpt>
      <trkpt lat="44.5816570" lon="7.1186320">
        <ele>1168.4</ele>
        <time>2017-07-24T11:34:44Z</time>
      </trkpt>
      <trkpt lat="44.5816700" lon="7.1187080">
        <ele>1167.8</ele>
        <time>2017-07-24T11:34:45Z</time>
      </trkpt>
      <trkpt lat="44.5816710" lon="7.1187990">
        <ele>1167.0</ele>
        <time>2017-07-24T11:34:46Z</time>
      </trkpt>
      <trkpt lat="44.5816720" lon="7.1188990">
        <ele>1166.0</ele>
        <time>2017-07-24T11:34:47Z</time>
      </trkpt>
      <trkpt lat="44.5816740" lon="7.1190110">
        <ele>1165.2</ele>
        <time>2017-07-24T11:34:48Z</time>
      </trkpt>
      <trkpt lat="44.5816960" lon="7.1192560">
        <ele>1163.8</ele>
        <time>2017-07-24T11:34:50Z</time>
      </trkpt>
      <trkpt lat="44.5817060" lon="7.1193800">
        <ele>1163.0</ele>
        <time>2017-07-24T11:34:51Z</time>
      </trkpt>
      <trkpt lat="44.5817190" lon="7.1195070">
        <ele>1162.2</ele>
        <time>2017-07-24T11:34:52Z</time>
      </trkpt>
      <trkpt lat="44.5817480" lon="7.1197540">
        <ele>1160.6</ele>
        <time>2017-07-24T11:34:54Z</time>
      </trkpt>
      <trkpt lat="44.5817770" lon="7.1199960">
        <ele>1158.8</ele>
        <time>2017-07-24T11:34:56Z</time>
      </trkpt>
      <trkpt lat="44.5818130" lon="7.1202240">
        <ele>1157.6</ele>
        <time>2017-07-24T11:34:58Z</time>
      </trkpt>
      <trkpt lat="44.5818310" lon="7.1203290">
        <ele>1157.0</ele>
        <time>2017-07-24T11:34:59Z</time>
      </trkpt>
      <trkpt lat="44.5818420" lon="7.1204360">
        <ele>1156.6</ele>
        <time>2017-07-24T11:35:00Z</time>
      </trkpt>
      <trkpt lat="44.5818470" lon="7.1205470">
        <ele>1156.2</ele>
        <time>2017-07-24T11:35:01Z</time>
      </trkpt>
      <trkpt lat="44.5818440" lon="7.1207440">
        <ele>1155.6</ele>
        <time>2017-07-24T11:35:03Z</time>
      </trkpt>
      <trkpt lat="44.5818520" lon="7.1208270">
        <ele>1155.0</ele>
        <time>2017-07-24T11:35:04Z</time>
      </trkpt>
      <trkpt lat="44.5818740" lon="7.1209560">
        <ele>1155.0</ele>
        <time>2017-07-24T11:35:06Z</time>
      </trkpt>
      <trkpt lat="44.5818800" lon="7.1210030">
        <ele>1155.2</ele>
        <time>2017-07-24T11:35:07Z</time>
      </trkpt>
      <trkpt lat="44.5818620" lon="7.1211060">
        <ele>1155.4</ele>
        <time>2017-07-24T11:35:10Z</time>
      </trkpt>
      <trkpt lat="44.5818520" lon="7.1211600">
        <ele>1156.0</ele>
        <time>2017-07-24T11:35:12Z</time>
      </trkpt>
      <trkpt lat="44.5818490" lon="7.1211900">
        <ele>1156.2</ele>
        <time>2017-07-24T11:35:13Z</time>
      </trkpt>
      <trkpt lat="44.5818500" lon="7.1212620">
        <ele>1156.8</ele>
        <time>2017-07-24T11:35:15Z</time>
      </trkpt>
      <trkpt lat="44.5818550" lon="7.1212990">
        <ele>1156.8</ele>
        <time>2017-07-24T11:35:16Z</time>
      </trkpt>
      <trkpt lat="44.5818600" lon="7.1213900">
        <ele>1157.2</ele>
        <time>2017-07-24T11:35:18Z</time>
      </trkpt>
      <trkpt lat="44.5818620" lon="7.1214460">
        <ele>1157.4</ele>
        <time>2017-07-24T11:35:19Z</time>
      </trkpt>
      <trkpt lat="44.5818610" lon="7.1215700">
        <ele>1157.6</ele>
        <time>2017-07-24T11:35:21Z</time>
      </trkpt>
      <trkpt lat="44.5818540" lon="7.1216340">
        <ele>1157.6</ele>
        <time>2017-07-24T11:35:22Z</time>
      </trkpt>
      <trkpt lat="44.5818440" lon="7.1218120">
        <ele>1158.2</ele>
        <time>2017-07-24T11:35:25Z</time>
      </trkpt>
      <trkpt lat="44.5818470" lon="7.1218730">
        <ele>1158.4</ele>
        <time>2017-07-24T11:35:26Z</time>
      </trkpt>
      <trkpt lat="44.5818490" lon="7.1219350">
        <ele>1158.6</ele>
        <time>2017-07-24T11:35:27Z</time>
      </trkpt>
      <trkpt lat="44.5818430" lon="7.1220420">
        <ele>1158.8</ele>
        <time>2017-07-24T11:35:29Z</time>
      </trkpt>
      <trkpt lat="44.5818330" lon="7.1221630">
        <ele>1158.6</ele>
        <time>2017-07-24T11:35:31Z</time>
      </trkpt>
      <trkpt lat="44.5818280" lon="7.1222270">
        <ele>1158.6</ele>
        <time>2017-07-24T11:35:32Z</time>
      </trkpt>
      <trkpt lat="44.5818960" lon="7.1225150">
        <ele>1158.2</ele>
        <time>2017-07-24T11:35:35Z</time>
      </trkpt>
      <trkpt lat="44.5819200" lon="7.1226110">
        <ele>1158.2</ele>
        <time>2017-07-24T11:35:36Z</time>
      </trkpt>
      <trkpt lat="44.5819280" lon="7.1228860">
        <ele>1157.4</ele>
        <time>2017-07-24T11:35:39Z</time>
      </trkpt>
      <trkpt lat="44.5818950" lon="7.1231070">
        <ele>1157.4</ele>
        <time>2017-07-24T11:35:42Z</time>
      </trkpt>
      <trkpt lat="44.5818830" lon="7.1232510">
        <ele>1157.2</ele>
        <time>2017-07-24T11:35:44Z</time>
      </trkpt>
      <trkpt lat="44.5818830" lon="7.1233970">
        <ele>1157.0</ele>
        <time>2017-07-24T11:35:46Z</time>
      </trkpt>
      <trkpt lat="44.5819180" lon="7.1236340">
        <ele>1156.0</ele>
        <time>2017-07-24T11:35:49Z</time>
      </trkpt>
      <trkpt lat="44.5819440" lon="7.1237970">
        <ele>1153.4</ele>
        <time>2017-07-24T11:35:51Z</time>
      </trkpt>
      <trkpt lat="44.5819750" lon="7.1239870">
        <ele>1156.0</ele>
        <time>2017-07-24T11:35:53Z</time>
      </trkpt>
      <trkpt lat="44.5819850" lon="7.1240940">
        <ele>1156.0</ele>
        <time>2017-07-24T11:35:54Z</time>
      </trkpt>
      <trkpt lat="44.5819880" lon="7.1241980">
        <ele>1155.8</ele>
        <time>2017-07-24T11:35:55Z</time>
      </trkpt>
      <trkpt lat="44.5819610" lon="7.1243560">
        <ele>1155.2</ele>
        <time>2017-07-24T11:35:57Z</time>
      </trkpt>
      <trkpt lat="44.5819390" lon="7.1243880">
        <ele>1154.8</ele>
        <time>2017-07-24T11:35:58Z</time>
      </trkpt>
      <trkpt lat="44.5819180" lon="7.1243990">
        <ele>1154.8</ele>
        <time>2017-07-24T11:35:59Z</time>
      </trkpt>
      <trkpt lat="44.5818900" lon="7.1244110">
        <ele>1155.0</ele>
        <time>2017-07-24T11:36:01Z</time>
      </trkpt>
      <trkpt lat="44.5818710" lon="7.1244030">
        <ele>1154.6</ele>
        <time>2017-07-24T11:36:03Z</time>
      </trkpt>
      <trkpt lat="44.5818390" lon="7.1244440">
        <ele>1153.4</ele>
        <time>2017-07-24T11:36:08Z</time>
      </trkpt>
      <trkpt lat="44.5818210" lon="7.1244950">
        <ele>1153.2</ele>
        <time>2017-07-24T11:36:10Z</time>
      </trkpt>
      <trkpt lat="44.5818090" lon="7.1246500">
        <ele>1152.8</ele>
        <time>2017-07-24T11:36:13Z</time>
      </trkpt>
      <trkpt lat="44.5818580" lon="7.1248270">
        <ele>1152.2</ele>
        <time>2017-07-24T11:36:15Z</time>
      </trkpt>
      <trkpt lat="44.5818680" lon="7.1249240">
        <ele>1151.6</ele>
        <time>2017-07-24T11:36:16Z</time>
      </trkpt>
      <trkpt lat="44.5818550" lon="7.1251450">
        <ele>1150.6</ele>
        <time>2017-07-24T11:36:18Z</time>
      </trkpt>
      <trkpt lat="44.5818430" lon="7.1252690">
        <ele>1150.4</ele>
        <time>2017-07-24T11:36:19Z</time>
      </trkpt>
      <trkpt lat="44.5818320" lon="7.1253980">
        <ele>1149.4</ele>
        <time>2017-07-24T11:36:20Z</time>
      </trkpt>
      <trkpt lat="44.5818220" lon="7.1255220">
        <ele>1149.2</ele>
        <time>2017-07-24T11:36:21Z</time>
      </trkpt>
      <trkpt lat="44.5818120" lon="7.1257170">
        <ele>1148.6</ele>
        <time>2017-07-24T11:36:23Z</time>
      </trkpt>
      <trkpt lat="44.5818080" lon="7.1257880">
        <ele>1148.2</ele>
        <time>2017-07-24T11:36:24Z</time>
      </trkpt>
      <trkpt lat="44.5818080" lon="7.1259020">
        <ele>1148.4</ele>
        <time>2017-07-24T11:36:26Z</time>
      </trkpt>
      <trkpt lat="44.5818130" lon="7.1259440">
        <ele>1148.6</ele>
        <time>2017-07-24T11:36:27Z</time>
      </trkpt>
      <trkpt lat="44.5818180" lon="7.1259840">
        <ele>1148.8</ele>
        <time>2017-07-24T11:36:28Z</time>
      </trkpt>
      <trkpt lat="44.5818360" lon="7.1260600">
        <ele>1149.2</ele>
        <time>2017-07-24T11:36:30Z</time>
      </trkpt>
      <trkpt lat="44.5818670" lon="7.1261370">
        <ele>1149.8</ele>
        <time>2017-07-24T11:36:32Z</time>
      </trkpt>
      <trkpt lat="44.5818920" lon="7.1262230">
        <ele>1150.6</ele>
        <time>2017-07-24T11:36:34Z</time>
      </trkpt>
      <trkpt lat="44.5819090" lon="7.1263010">
        <ele>1151.2</ele>
        <time>2017-07-24T11:36:36Z</time>
      </trkpt>
      <trkpt lat="44.5819140" lon="7.1263790">
        <ele>1151.8</ele>
        <time>2017-07-24T11:36:38Z</time>
      </trkpt>
      <trkpt lat="44.5819080" lon="7.1264660">
        <ele>1152.8</ele>
        <time>2017-07-24T11:36:40Z</time>
      </trkpt>
      <trkpt lat="44.5818920" lon="7.1265410">
        <ele>1153.6</ele>
        <time>2017-07-24T11:36:42Z</time>
      </trkpt>
      <trkpt lat="44.5818860" lon="7.1265780">
        <ele>1154.0</ele>
        <time>2017-07-24T11:36:43Z</time>
      </trkpt>
      <trkpt lat="44.5818670" lon="7.1266970">
        <ele>1155.0</ele>
        <time>2017-07-24T11:36:46Z</time>
      </trkpt>
      <trkpt lat="44.5818620" lon="7.1267320">
        <ele>1155.2</ele>
        <time>2017-07-24T11:36:47Z</time>
      </trkpt>
      <trkpt lat="44.5818330" lon="7.1268520">
        <ele>1156.4</ele>
        <time>2017-07-24T11:36:51Z</time>
      </trkpt>
      <trkpt lat="44.5818060" lon="7.1269040">
        <ele>1157.0</ele>
        <time>2017-07-24T11:36:53Z</time>
      </trkpt>
      <trkpt lat="44.5817740" lon="7.1269470">
        <ele>1157.4</ele>
        <time>2017-07-24T11:36:55Z</time>
      </trkpt>
      <trkpt lat="44.5817100" lon="7.1270170">
        <ele>1158.2</ele>
        <time>2017-07-24T11:36:59Z</time>
      </trkpt>
      <trkpt lat="44.5816970" lon="7.1270410">
        <ele>1158.6</ele>
        <time>2017-07-24T11:37:00Z</time>
      </trkpt>
      <trkpt lat="44.5816370" lon="7.1271860">
        <ele>1160.0</ele>
        <time>2017-07-24T11:37:04Z</time>
      </trkpt>
      <trkpt lat="44.5816270" lon="7.1272260">
        <ele>1160.2</ele>
        <time>2017-07-24T11:37:05Z</time>
      </trkpt>
      <trkpt lat="44.5816030" lon="7.1273630">
        <ele>1161.2</ele>
        <time>2017-07-24T11:37:08Z</time>
      </trkpt>
      <trkpt lat="44.5815750" lon="7.1275400">
        <ele>1162.2</ele>
        <time>2017-07-24T11:37:12Z</time>
      </trkpt>
      <trkpt lat="44.5815730" lon="7.1275920">
        <ele>1162.6</ele>
        <time>2017-07-24T11:37:13Z</time>
      </trkpt>
      <trkpt lat="44.5815800" lon="7.1277830">
        <ele>1163.4</ele>
        <time>2017-07-24T11:37:16Z</time>
      </trkpt>
      <trkpt lat="44.5815850" lon="7.1278400">
        <ele>1163.6</ele>
        <time>2017-07-24T11:37:17Z</time>
      </trkpt>
      <trkpt lat="44.5816220" lon="7.1280010">
        <ele>1164.6</ele>
        <time>2017-07-24T11:37:21Z</time>
      </trkpt>
      <trkpt lat="44.5816360" lon="7.1280310">
        <ele>1164.8</ele>
        <time>2017-07-24T11:37:22Z</time>
      </trkpt>
      <trkpt lat="44.5817100" lon="7.1282210">
        <ele>1165.8</ele>
        <time>2017-07-24T11:37:27Z</time>
      </trkpt>
      <trkpt lat="44.5817220" lon="7.1282510">
        <ele>1166.2</ele>
        <time>2017-07-24T11:37:28Z</time>
      </trkpt>
      <trkpt lat="44.5817650" lon="7.1284500">
        <ele>1166.8</ele>
        <time>2017-07-24T11:37:35Z</time>
      </trkpt>
      <trkpt lat="44.5817610" lon="7.1284740">
        <ele>1167.0</ele>
        <time>2017-07-24T11:37:36Z</time>
      </trkpt>
      <trkpt lat="44.5817330" lon="7.1285970">
        <ele>1167.6</ele>
        <time>2017-07-24T11:37:41Z</time>
      </trkpt>
      <trkpt lat="44.5817270" lon="7.1286530">
        <ele>1168.2</ele>
        <time>2017-07-24T11:37:43Z</time>
      </trkpt>
      <trkpt lat="44.5817180" lon="7.1287930">
        <ele>1169.2</ele>
        <time>2017-07-24T11:37:48Z</time>
      </trkpt>
      <trkpt lat="44.5817150" lon="7.1288150">
        <ele>1169.4</ele>
        <time>2017-07-24T11:37:49Z</time>
      </trkpt>
      <trkpt lat="44.5817090" lon="7.1288970">
        <ele>1170.6</ele>
        <time>2017-07-24T11:37:52Z</time>
      </trkpt>
      <trkpt lat="44.5816900" lon="7.1290100">
        <ele>1171.8</ele>
        <time>2017-07-24T11:37:56Z</time>
      </trkpt>
      <trkpt lat="44.5816850" lon="7.1290870">
        <ele>1172.8</ele>
        <time>2017-07-24T11:37:59Z</time>
      </trkpt>
      <trkpt lat="44.5816830" lon="7.1291920">
        <ele>1173.4</ele>
        <time>2017-07-24T11:38:02Z</time>
      </trkpt>
      <trkpt lat="44.5816850" lon="7.1292280">
        <ele>1173.8</ele>
        <time>2017-07-24T11:38:03Z</time>
      </trkpt>
      <trkpt lat="44.5817260" lon="7.1294330">
        <ele>1174.8</ele>
        <time>2017-07-24T11:38:08Z</time>
      </trkpt>
      <trkpt lat="44.5817350" lon="7.1294890">
        <ele>1175.2</ele>
        <time>2017-07-24T11:38:09Z</time>
      </trkpt>
      <trkpt lat="44.5817710" lon="7.1297270">
        <ele>1175.6</ele>
        <time>2017-07-24T11:38:12Z</time>
      </trkpt>
      <trkpt lat="44.5817810" lon="7.1299960">
        <ele>1174.6</ele>
        <time>2017-07-24T11:38:15Z</time>
      </trkpt>
      <trkpt lat="44.5817680" lon="7.1300890">
        <ele>1173.6</ele>
        <time>2017-07-24T11:38:16Z</time>
      </trkpt>
      <trkpt lat="44.5817390" lon="7.1302720">
        <ele>1172.4</ele>
        <time>2017-07-24T11:38:18Z</time>
      </trkpt>
      <trkpt lat="44.5817320" lon="7.1303740">
        <ele>1171.6</ele>
        <time>2017-07-24T11:38:19Z</time>
      </trkpt>
      <trkpt lat="44.5817300" lon="7.1304720">
        <ele>1171.2</ele>
        <time>2017-07-24T11:38:20Z</time>
      </trkpt>
      <trkpt lat="44.5817160" lon="7.1306710">
        <ele>1170.0</ele>
        <time>2017-07-24T11:38:22Z</time>
      </trkpt>
      <trkpt lat="44.5817010" lon="7.1307710">
        <ele>1169.2</ele>
        <time>2017-07-24T11:38:23Z</time>
      </trkpt>
      <trkpt lat="44.5816710" lon="7.1308480">
        <ele>1168.6</ele>
        <time>2017-07-24T11:38:24Z</time>
      </trkpt>
      <trkpt lat="44.5816390" lon="7.1309210">
        <ele>1168.0</ele>
        <time>2017-07-24T11:38:25Z</time>
      </trkpt>
      <trkpt lat="44.5816060" lon="7.1310150">
        <ele>1167.4</ele>
        <time>2017-07-24T11:38:26Z</time>
      </trkpt>
      <trkpt lat="44.5815430" lon="7.1312590">
        <ele>1166.0</ele>
        <time>2017-07-24T11:38:28Z</time>
      </trkpt>
      <trkpt lat="44.5814680" lon="7.1315100">
        <ele>1164.0</ele>
        <time>2017-07-24T11:38:30Z</time>
      </trkpt>
      <trkpt lat="44.5813600" lon="7.1317290">
        <ele>1162.4</ele>
        <time>2017-07-24T11:38:32Z</time>
      </trkpt>
      <trkpt lat="44.5812770" lon="7.1319610">
        <ele>1161.4</ele>
        <time>2017-07-24T11:38:34Z</time>
      </trkpt>
      <trkpt lat="44.5812840" lon="7.1320930">
        <ele>1161.0</ele>
        <time>2017-07-24T11:38:35Z</time>
      </trkpt>
      <trkpt lat="44.5813210" lon="7.1323480">
        <ele>1159.6</ele>
        <time>2017-07-24T11:38:37Z</time>
      </trkpt>
      <trkpt lat="44.5813190" lon="7.1324620">
        <ele>1159.0</ele>
        <time>2017-07-24T11:38:38Z</time>
      </trkpt>
      <trkpt lat="44.5812990" lon="7.1326830">
        <ele>1158.0</ele>
        <time>2017-07-24T11:38:40Z</time>
      </trkpt>
      <trkpt lat="44.5813210" lon="7.1328910">
        <ele>1156.4</ele>
        <time>2017-07-24T11:38:42Z</time>
      </trkpt>
      <trkpt lat="44.5813730" lon="7.1331340">
        <ele>1154.6</ele>
        <time>2017-07-24T11:38:44Z</time>
      </trkpt>
      <trkpt lat="44.5813930" lon="7.1332360">
        <ele>1153.6</ele>
        <time>2017-07-24T11:38:45Z</time>
      </trkpt>
      <trkpt lat="44.5814150" lon="7.1333090">
        <ele>1152.4</ele>
        <time>2017-07-24T11:38:46Z</time>
      </trkpt>
      <trkpt lat="44.5814420" lon="7.1333540">
        <ele>1151.2</ele>
        <time>2017-07-24T11:38:47Z</time>
      </trkpt>
      <trkpt lat="44.5814810" lon="7.1333630">
        <ele>1150.4</ele>
        <time>2017-07-24T11:38:48Z</time>
      </trkpt>
      <trkpt lat="44.5814970" lon="7.1333610">
        <ele>1149.4</ele>
        <time>2017-07-24T11:38:49Z</time>
      </trkpt>
      <trkpt lat="44.5815230" lon="7.1333060">
        <ele>1147.8</ele>
        <time>2017-07-24T11:38:51Z</time>
      </trkpt>
      <trkpt lat="44.5815380" lon="7.1332650">
        <ele>1147.0</ele>
        <time>2017-07-24T11:38:52Z</time>
      </trkpt>
      <trkpt lat="44.5815490" lon="7.1332200">
        <ele>1146.0</ele>
        <time>2017-07-24T11:38:53Z</time>
      </trkpt>
      <trkpt lat="44.5815920" lon="7.1331760">
        <ele>1145.2</ele>
        <time>2017-07-24T11:38:54Z</time>
      </trkpt>
      <trkpt lat="44.5816440" lon="7.1331490">
        <ele>1144.6</ele>
        <time>2017-07-24T11:38:55Z</time>
      </trkpt>
      <trkpt lat="44.5817680" lon="7.1331230">
        <ele>1143.0</ele>
        <time>2017-07-24T11:38:57Z</time>
      </trkpt>
      <trkpt lat="44.5818440" lon="7.1331070">
        <ele>1142.2</ele>
        <time>2017-07-24T11:38:58Z</time>
      </trkpt>
      <trkpt lat="44.5819220" lon="7.1330940">
        <ele>1141.6</ele>
        <time>2017-07-24T11:38:59Z</time>
      </trkpt>
      <trkpt lat="44.5819970" lon="7.1330930">
        <ele>1140.8</ele>
        <time>2017-07-24T11:39:00Z</time>
      </trkpt>
      <trkpt lat="44.5820740" lon="7.1331300">
        <ele>1139.8</ele>
        <time>2017-07-24T11:39:01Z</time>
      </trkpt>
      <trkpt lat="44.5821130" lon="7.1331940">
        <ele>1138.8</ele>
        <time>2017-07-24T11:39:02Z</time>
      </trkpt>
      <trkpt lat="44.5821370" lon="7.1332690">
        <ele>1137.8</ele>
        <time>2017-07-24T11:39:03Z</time>
      </trkpt>
      <trkpt lat="44.5821520" lon="7.1333560">
        <ele>1135.8</ele>
        <time>2017-07-24T11:39:04Z</time>
      </trkpt>
      <trkpt lat="44.5821460" lon="7.1334390">
        <ele>1134.6</ele>
        <time>2017-07-24T11:39:05Z</time>
      </trkpt>
      <trkpt lat="44.5820990" lon="7.1335250">
        <ele>1133.2</ele>
        <time>2017-07-24T11:39:07Z</time>
      </trkpt>
      <trkpt lat="44.5820640" lon="7.1335410">
        <ele>1132.2</ele>
        <time>2017-07-24T11:39:08Z</time>
      </trkpt>
      <trkpt lat="44.5820280" lon="7.1335620">
        <ele>1131.2</ele>
        <time>2017-07-24T11:39:09Z</time>
      </trkpt>
      <trkpt lat="44.5819530" lon="7.1336410">
        <ele>1129.8</ele>
        <time>2017-07-24T11:39:11Z</time>
      </trkpt>
      <trkpt lat="44.5819110" lon="7.1336900">
        <ele>1129.0</ele>
        <time>2017-07-24T11:39:12Z</time>
      </trkpt>
      <trkpt lat="44.5818690" lon="7.1337350">
        <ele>1128.2</ele>
        <time>2017-07-24T11:39:13Z</time>
      </trkpt>
      <trkpt lat="44.5817810" lon="7.1338230">
        <ele>1127.0</ele>
        <time>2017-07-24T11:39:15Z</time>
      </trkpt>
      <trkpt lat="44.5816930" lon="7.1339180">
        <ele>1125.8</ele>
        <time>2017-07-24T11:39:17Z</time>
      </trkpt>
      <trkpt lat="44.5816090" lon="7.1340160">
        <ele>1124.8</ele>
        <time>2017-07-24T11:39:19Z</time>
      </trkpt>
      <trkpt lat="44.5815720" lon="7.1340760">
        <ele>1124.6</ele>
        <time>2017-07-24T11:39:20Z</time>
      </trkpt>
      <trkpt lat="44.5814990" lon="7.1342450">
        <ele>1123.4</ele>
        <time>2017-07-24T11:39:22Z</time>
      </trkpt>
      <trkpt lat="44.5814360" lon="7.1344470">
        <ele>1122.4</ele>
        <time>2017-07-24T11:39:24Z</time>
      </trkpt>
      <trkpt lat="44.5813570" lon="7.1347320">
        <ele>1121.2</ele>
        <time>2017-07-24T11:39:27Z</time>
      </trkpt>
      <trkpt lat="44.5813230" lon="7.1348830">
        <ele>1120.2</ele>
        <time>2017-07-24T11:39:29Z</time>
      </trkpt>
      <trkpt lat="44.5813140" lon="7.1349680">
        <ele>1120.0</ele>
        <time>2017-07-24T11:39:30Z</time>
      </trkpt>
      <trkpt lat="44.5813110" lon="7.1350580">
        <ele>1120.0</ele>
        <time>2017-07-24T11:39:31Z</time>
      </trkpt>
      <trkpt lat="44.5812970" lon="7.1356120">
        <ele>1119.0</ele>
        <time>2017-07-24T11:39:37Z</time>
      </trkpt>
      <trkpt lat="44.5813080" lon="7.1359860">
        <ele>1118.0</ele>
        <time>2017-07-24T11:39:40Z</time>
      </trkpt>
      <trkpt lat="44.5812960" lon="7.1365880">
        <ele>1117.0</ele>
        <time>2017-07-24T11:39:45Z</time>
      </trkpt>
      <trkpt lat="44.5813120" lon="7.1367090">
        <ele>1116.4</ele>
        <time>2017-07-24T11:39:46Z</time>
      </trkpt>
      <trkpt lat="44.5813610" lon="7.1368770">
        <ele>1116.0</ele>
        <time>2017-07-24T11:39:48Z</time>
      </trkpt>
      <trkpt lat="44.5814790" lon="7.1371700">
        <ele>1115.6</ele>
        <time>2017-07-24T11:39:52Z</time>
      </trkpt>
      <trkpt lat="44.5815300" lon="7.1373190">
        <ele>1115.8</ele>
        <time>2017-07-24T11:39:54Z</time>
      </trkpt>
      <trkpt lat="44.5816010" lon="7.1376180">
        <ele>1115.4</ele>
        <time>2017-07-24T11:39:57Z</time>
      </trkpt>
      <trkpt lat="44.5816370" lon="7.1377530">
        <ele>1114.8</ele>
        <time>2017-07-24T11:39:58Z</time>
      </trkpt>
      <trkpt lat="44.5816730" lon="7.1378940">
        <ele>1114.2</ele>
        <time>2017-07-24T11:39:59Z</time>
      </trkpt>
      <trkpt lat="44.5817780" lon="7.1382660">
        <ele>1113.2</ele>
        <time>2017-07-24T11:40:02Z</time>
      </trkpt>
      <trkpt lat="44.5818870" lon="7.1386910">
        <ele>1112.2</ele>
        <time>2017-07-24T11:40:05Z</time>
      </trkpt>
      <trkpt lat="44.5819130" lon="7.1388440">
        <ele>1111.6</ele>
        <time>2017-07-24T11:40:06Z</time>
      </trkpt>
      <trkpt lat="44.5819350" lon="7.1389910">
        <ele>1111.4</ele>
        <time>2017-07-24T11:40:07Z</time>
      </trkpt>
      <trkpt lat="44.5819550" lon="7.1391320">
        <ele>1111.0</ele>
        <time>2017-07-24T11:40:08Z</time>
      </trkpt>
      <trkpt lat="44.5819990" lon="7.1395410">
        <ele>1109.6</ele>
        <time>2017-07-24T11:40:11Z</time>
      </trkpt>
      <trkpt lat="44.5820610" lon="7.1400720">
        <ele>1108.4</ele>
        <time>2017-07-24T11:40:15Z</time>
      </trkpt>
      <trkpt lat="44.5821310" lon="7.1404750">
        <ele>1107.6</ele>
        <time>2017-07-24T11:40:18Z</time>
      </trkpt>
      <trkpt lat="44.5821610" lon="7.1405990">
        <ele>1107.2</ele>
        <time>2017-07-24T11:40:19Z</time>
      </trkpt>
      <trkpt lat="44.5822000" lon="7.1407140">
        <ele>1106.8</ele>
        <time>2017-07-24T11:40:20Z</time>
      </trkpt>
      <trkpt lat="44.5822860" lon="7.1409200">
        <ele>1106.4</ele>
        <time>2017-07-24T11:40:22Z</time>
      </trkpt>
      <trkpt lat="44.5823620" lon="7.1410730">
        <ele>1105.8</ele>
        <time>2017-07-24T11:40:24Z</time>
      </trkpt>
      <trkpt lat="44.5823730" lon="7.1411560">
        <ele>1105.4</ele>
        <time>2017-07-24T11:40:25Z</time>
      </trkpt>
      <trkpt lat="44.5824110" lon="7.1413590">
        <ele>1105.0</ele>
        <time>2017-07-24T11:40:27Z</time>
      </trkpt>
      <trkpt lat="44.5824370" lon="7.1414730">
        <ele>1104.6</ele>
        <time>2017-07-24T11:40:28Z</time>
      </trkpt>
      <trkpt lat="44.5824570" lon="7.1415910">
        <ele>1103.8</ele>
        <time>2017-07-24T11:40:29Z</time>
      </trkpt>
      <trkpt lat="44.5824740" lon="7.1417020">
        <ele>1103.0</ele>
        <time>2017-07-24T11:40:30Z</time>
      </trkpt>
      <trkpt lat="44.5824970" lon="7.1419110">
        <ele>1101.8</ele>
        <time>2017-07-24T11:40:32Z</time>
      </trkpt>
      <trkpt lat="44.5824890" lon="7.1420150">
        <ele>1101.6</ele>
        <time>2017-07-24T11:40:33Z</time>
      </trkpt>
      <trkpt lat="44.5824700" lon="7.1422250">
        <ele>1100.8</ele>
        <time>2017-07-24T11:40:35Z</time>
      </trkpt>
      <trkpt lat="44.5824560" lon="7.1424500">
        <ele>1099.8</ele>
        <time>2017-07-24T11:40:37Z</time>
      </trkpt>
      <trkpt lat="44.5824420" lon="7.1426750">
        <ele>1099.0</ele>
        <time>2017-07-24T11:40:39Z</time>
      </trkpt>
      <trkpt lat="44.5824360" lon="7.1427910">
        <ele>1098.6</ele>
        <time>2017-07-24T11:40:40Z</time>
      </trkpt>
      <trkpt lat="44.5823630" lon="7.1432280">
        <ele>1097.4</ele>
        <time>2017-07-24T11:40:44Z</time>
      </trkpt>
      <trkpt lat="44.5823350" lon="7.1433260">
        <ele>1097.2</ele>
        <time>2017-07-24T11:40:45Z</time>
      </trkpt>
      <trkpt lat="44.5823010" lon="7.1434180">
        <ele>1096.8</ele>
        <time>2017-07-24T11:40:46Z</time>
      </trkpt>
      <trkpt lat="44.5822590" lon="7.1435060">
        <ele>1096.4</ele>
        <time>2017-07-24T11:40:47Z</time>
      </trkpt>
      <trkpt lat="44.5821560" lon="7.1436730">
        <ele>1095.4</ele>
        <time>2017-07-24T11:40:49Z</time>
      </trkpt>
      <trkpt lat="44.5820960" lon="7.1437500">
        <ele>1095.0</ele>
        <time>2017-07-24T11:40:50Z</time>
      </trkpt>
      <trkpt lat="44.5820400" lon="7.1438250">
        <ele>1094.8</ele>
        <time>2017-07-24T11:40:52Z</time>
      </trkpt>
      <trkpt lat="44.5818490" lon="7.1440440">
        <ele>1094.0</ele>
        <time>2017-07-24T11:40:55Z</time>
      </trkpt>
      <trkpt lat="44.5816200" lon="7.1444030">
        <ele>1093.2</ele>
        <time>2017-07-24T11:40:59Z</time>
      </trkpt>
      <trkpt lat="44.5815810" lon="7.1445120">
        <ele>1093.0</ele>
        <time>2017-07-24T11:41:00Z</time>
      </trkpt>
      <trkpt lat="44.5815450" lon="7.1446250">
        <ele>1092.8</ele>
        <time>2017-07-24T11:41:01Z</time>
      </trkpt>
      <trkpt lat="44.5814910" lon="7.1449890">
        <ele>1092.2</ele>
        <time>2017-07-24T11:41:04Z</time>
      </trkpt>
      <trkpt lat="44.5814950" lon="7.1452400">
        <ele>1091.6</ele>
        <time>2017-07-24T11:41:06Z</time>
      </trkpt>
      <trkpt lat="44.5815190" lon="7.1454910">
        <ele>1091.4</ele>
        <time>2017-07-24T11:41:08Z</time>
      </trkpt>
      <trkpt lat="44.5815130" lon="7.1457320">
        <ele>1091.0</ele>
        <time>2017-07-24T11:41:10Z</time>
      </trkpt>
      <trkpt lat="44.5814700" lon="7.1459420">
        <ele>1090.6</ele>
        <time>2017-07-24T11:41:12Z</time>
      </trkpt>
      <trkpt lat="44.5814410" lon="7.1460430">
        <ele>1090.4</ele>
        <time>2017-07-24T11:41:13Z</time>
      </trkpt>
      <trkpt lat="44.5814140" lon="7.1461460">
        <ele>1090.0</ele>
        <time>2017-07-24T11:41:14Z</time>
      </trkpt>
      <trkpt lat="44.5813590" lon="7.1464630">
        <ele>1089.4</ele>
        <time>2017-07-24T11:41:17Z</time>
      </trkpt>
      <trkpt lat="44.5813480" lon="7.1465830">
        <ele>1089.2</ele>
        <time>2017-07-24T11:41:18Z</time>
      </trkpt>
      <trkpt lat="44.5813170" lon="7.1467890">
        <ele>1088.4</ele>
        <time>2017-07-24T11:41:20Z</time>
      </trkpt>
      <trkpt lat="44.5812920" lon="7.1468630">
        <ele>1088.2</ele>
        <time>2017-07-24T11:41:21Z</time>
      </trkpt>
      <trkpt lat="44.5812010" lon="7.1472300">
        <ele>1087.6</ele>
        <time>2017-07-24T11:41:26Z</time>
      </trkpt>
      <trkpt lat="44.5811810" lon="7.1473090">
        <ele>1087.6</ele>
        <time>2017-07-24T11:41:27Z</time>
      </trkpt>
      <trkpt lat="44.5811260" lon="7.1474850">
        <ele>1087.0</ele>
        <time>2017-07-24T11:41:29Z</time>
      </trkpt>
      <trkpt lat="44.5810970" lon="7.1476030">
        <ele>1086.8</ele>
        <time>2017-07-24T11:41:30Z</time>
      </trkpt>
      <trkpt lat="44.5810730" lon="7.1477270">
        <ele>1086.4</ele>
        <time>2017-07-24T11:41:31Z</time>
      </trkpt>
      <trkpt lat="44.5810430" lon="7.1479610">
        <ele>1086.0</ele>
        <time>2017-07-24T11:41:33Z</time>
      </trkpt>
      <trkpt lat="44.5810370" lon="7.1481580">
        <ele>1085.4</ele>
        <time>2017-07-24T11:41:35Z</time>
      </trkpt>
      <trkpt lat="44.5810050" lon="7.1486710">
        <ele>1085.0</ele>
        <time>2017-07-24T11:41:40Z</time>
      </trkpt>
      <trkpt lat="44.5809970" lon="7.1487830">
        <ele>1084.8</ele>
        <time>2017-07-24T11:41:41Z</time>
      </trkpt>
      <trkpt lat="44.5809490" lon="7.1492130">
        <ele>1084.6</ele>
        <time>2017-07-24T11:41:45Z</time>
      </trkpt>
      <trkpt lat="44.5809290" lon="7.1493170">
        <ele>1084.6</ele>
        <time>2017-07-24T11:41:46Z</time>
      </trkpt>
      <trkpt lat="44.5808890" lon="7.1495330">
        <ele>1084.4</ele>
        <time>2017-07-24T11:41:48Z</time>
      </trkpt>
      <trkpt lat="44.5808410" lon="7.1497540">
        <ele>1084.4</ele>
        <time>2017-07-24T11:41:50Z</time>
      </trkpt>
      <trkpt lat="44.5807680" lon="7.1499550">
        <ele>1084.0</ele>
        <time>2017-07-24T11:41:52Z</time>
      </trkpt>
      <trkpt lat="44.5807180" lon="7.1500430">
        <ele>1083.6</ele>
        <time>2017-07-24T11:41:53Z</time>
      </trkpt>
      <trkpt lat="44.5805690" lon="7.1503150">
        <ele>1083.8</ele>
        <time>2017-07-24T11:41:56Z</time>
      </trkpt>
      <trkpt lat="44.5804650" lon="7.1505590">
        <ele>1084.0</ele>
        <time>2017-07-24T11:41:59Z</time>
      </trkpt>
      <trkpt lat="44.5803990" lon="7.1506920">
        <ele>1084.0</ele>
        <time>2017-07-24T11:42:01Z</time>
      </trkpt>
      <trkpt lat="44.5802880" lon="7.1508840">
        <ele>1083.8</ele>
        <time>2017-07-24T11:42:04Z</time>
      </trkpt>
      <trkpt lat="44.5801550" lon="7.1512940">
        <ele>1082.6</ele>
        <time>2017-07-24T11:42:08Z</time>
      </trkpt>
      <trkpt lat="44.5799860" lon="7.1516850">
        <ele>1081.4</ele>
        <time>2017-07-24T11:42:12Z</time>
      </trkpt>
      <trkpt lat="44.5799430" lon="7.1517670">
        <ele>1081.4</ele>
        <time>2017-07-24T11:42:13Z</time>
      </trkpt>
      <trkpt lat="44.5796530" lon="7.1522270">
        <ele>1080.8</ele>
        <time>2017-07-24T11:42:19Z</time>
      </trkpt>
      <trkpt lat="44.5795540" lon="7.1524720">
        <ele>1080.6</ele>
        <time>2017-07-24T11:42:23Z</time>
      </trkpt>
      <trkpt lat="44.5795170" lon="7.1524770">
        <ele>1080.8</ele>
        <time>2017-07-24T11:42:24Z</time>
      </trkpt>
      <trkpt lat="44.5794540" lon="7.1525120">
        <ele>1081.2</ele>
        <time>2017-07-24T11:42:26Z</time>
      </trkpt>
      <trkpt lat="44.5793740" lon="7.1525930">
        <ele>1081.8</ele>
        <time>2017-07-24T11:42:29Z</time>
      </trkpt>
      <trkpt lat="44.5793240" lon="7.1527160">
        <ele>1082.2</ele>
        <time>2017-07-24T11:42:32Z</time>
      </trkpt>
      <trkpt lat="44.5792920" lon="7.1528230">
        <ele>1082.2</ele>
        <time>2017-07-24T11:42:34Z</time>
      </trkpt>
      <trkpt lat="44.5792330" lon="7.1529630">
        <ele>1081.4</ele>
        <time>2017-07-24T11:42:37Z</time>
      </trkpt>
      <trkpt lat="44.5792120" lon="7.1531280">
        <ele>1081.2</ele>
        <time>2017-07-24T11:42:40Z</time>
      </trkpt>
      <trkpt lat="44.5792320" lon="7.1532230">
        <ele>1080.8</ele>
        <time>2017-07-24T11:42:41Z</time>
      </trkpt>
      <trkpt lat="44.5793250" lon="7.1535830">
        <ele>1080.2</ele>
        <time>2017-07-24T11:42:44Z</time>
      </trkpt>
      <trkpt lat="44.5793890" lon="7.1538730">
        <ele>1079.2</ele>
        <time>2017-07-24T11:42:46Z</time>
      </trkpt>
      <trkpt lat="44.5794440" lon="7.1541550">
        <ele>1078.2</ele>
        <time>2017-07-24T11:42:48Z</time>
      </trkpt>
      <trkpt lat="44.5794530" lon="7.1542870">
        <ele>1077.8</ele>
        <time>2017-07-24T11:42:49Z</time>
      </trkpt>
      <trkpt lat="44.5794320" lon="7.1544810">
        <ele>1077.8</ele>
        <time>2017-07-24T11:42:51Z</time>
      </trkpt>
      <trkpt lat="44.5793860" lon="7.1546160">
        <ele>1077.4</ele>
        <time>2017-07-24T11:42:53Z</time>
      </trkpt>
      <trkpt lat="44.5793460" lon="7.1547640">
        <ele>1077.4</ele>
        <time>2017-07-24T11:42:55Z</time>
      </trkpt>
      <trkpt lat="44.5792900" lon="7.1550480">
        <ele>1076.6</ele>
        <time>2017-07-24T11:42:58Z</time>
      </trkpt>
      <trkpt lat="44.5792670" lon="7.1551630">
        <ele>1076.4</ele>
        <time>2017-07-24T11:42:59Z</time>
      </trkpt>
      <trkpt lat="44.5792520" lon="7.1552860">
        <ele>1076.6</ele>
        <time>2017-07-24T11:43:00Z</time>
      </trkpt>
      <trkpt lat="44.5792490" lon="7.1555960">
        <ele>1075.8</ele>
        <time>2017-07-24T11:43:02Z</time>
      </trkpt>
      <trkpt lat="44.5792420" lon="7.1557700">
        <ele>1075.0</ele>
        <time>2017-07-24T11:43:03Z</time>
      </trkpt>
      <trkpt lat="44.5792250" lon="7.1561340">
        <ele>1073.6</ele>
        <time>2017-07-24T11:43:05Z</time>
      </trkpt>
      <trkpt lat="44.5792110" lon="7.1563040">
        <ele>1073.2</ele>
        <time>2017-07-24T11:43:06Z</time>
      </trkpt>
      <trkpt lat="44.5792000" lon="7.1564520">
        <ele>1072.4</ele>
        <time>2017-07-24T11:43:07Z</time>
      </trkpt>
      <trkpt lat="44.5791800" lon="7.1567130">
        <ele>1071.6</ele>
        <time>2017-07-24T11:43:09Z</time>
      </trkpt>
      <trkpt lat="44.5791750" lon="7.1569940">
        <ele>1070.8</ele>
        <time>2017-07-24T11:43:11Z</time>
      </trkpt>
      <trkpt lat="44.5791680" lon="7.1572930">
        <ele>1069.4</ele>
        <time>2017-07-24T11:43:13Z</time>
      </trkpt>
      <trkpt lat="44.5791530" lon="7.1575810">
        <ele>1068.4</ele>
        <time>2017-07-24T11:43:15Z</time>
      </trkpt>
      <trkpt lat="44.5791400" lon="7.1578550">
        <ele>1067.4</ele>
        <time>2017-07-24T11:43:17Z</time>
      </trkpt>
      <trkpt lat="44.5791360" lon="7.1579900">
        <ele>1067.0</ele>
        <time>2017-07-24T11:43:18Z</time>
      </trkpt>
      <trkpt lat="44.5791310" lon="7.1581190">
        <ele>1066.2</ele>
        <time>2017-07-24T11:43:19Z</time>
      </trkpt>
      <trkpt lat="44.5791310" lon="7.1582280">
        <ele>1065.6</ele>
        <time>2017-07-24T11:43:20Z</time>
      </trkpt>
      <trkpt lat="44.5791210" lon="7.1583320">
        <ele>1065.0</ele>
        <time>2017-07-24T11:43:21Z</time>
      </trkpt>
      <trkpt lat="44.5791020" lon="7.1584360">
        <ele>1064.6</ele>
        <time>2017-07-24T11:43:22Z</time>
      </trkpt>
      <trkpt lat="44.5790900" lon="7.1585470">
        <ele>1063.8</ele>
        <time>2017-07-24T11:43:23Z</time>
      </trkpt>
      <trkpt lat="44.5790930" lon="7.1586610">
        <ele>1063.0</ele>
        <time>2017-07-24T11:43:24Z</time>
      </trkpt>
      <trkpt lat="44.5790890" lon="7.1587770">
        <ele>1062.4</ele>
        <time>2017-07-24T11:43:25Z</time>
      </trkpt>
      <trkpt lat="44.5790890" lon="7.1588910">
        <ele>1062.0</ele>
        <time>2017-07-24T11:43:26Z</time>
      </trkpt>
      <trkpt lat="44.5790940" lon="7.1590050">
        <ele>1061.2</ele>
        <time>2017-07-24T11:43:27Z</time>
      </trkpt>
      <trkpt lat="44.5791250" lon="7.1591070">
        <ele>1060.6</ele>
        <time>2017-07-24T11:43:28Z</time>
      </trkpt>
      <trkpt lat="44.5791350" lon="7.1592040">
        <ele>1059.4</ele>
        <time>2017-07-24T11:43:29Z</time>
      </trkpt>
      <trkpt lat="44.5791640" lon="7.1592900">
        <ele>1058.8</ele>
        <time>2017-07-24T11:43:30Z</time>
      </trkpt>
      <trkpt lat="44.5791980" lon="7.1593730">
        <ele>1058.2</ele>
        <time>2017-07-24T11:43:31Z</time>
      </trkpt>
      <trkpt lat="44.5792680" lon="7.1595470">
        <ele>1057.4</ele>
        <time>2017-07-24T11:43:33Z</time>
      </trkpt>
      <trkpt lat="44.5793310" lon="7.1597370">
        <ele>1056.8</ele>
        <time>2017-07-24T11:43:35Z</time>
      </trkpt>
      <trkpt lat="44.5793830" lon="7.1599430">
        <ele>1056.0</ele>
        <time>2017-07-24T11:43:37Z</time>
      </trkpt>
      <trkpt lat="44.5794070" lon="7.1600490">
        <ele>1055.6</ele>
        <time>2017-07-24T11:43:38Z</time>
      </trkpt>
      <trkpt lat="44.5794870" lon="7.1604890">
        <ele>1054.6</ele>
        <time>2017-07-24T11:43:42Z</time>
      </trkpt>
      <trkpt lat="44.5795250" lon="7.1607050">
        <ele>1054.0</ele>
        <time>2017-07-24T11:43:44Z</time>
      </trkpt>
      <trkpt lat="44.5795770" lon="7.1610060">
        <ele>1053.4</ele>
        <time>2017-07-24T11:43:47Z</time>
      </trkpt>
      <trkpt lat="44.5796220" lon="7.1611860">
        <ele>1053.2</ele>
        <time>2017-07-24T11:43:49Z</time>
      </trkpt>
      <trkpt lat="44.5796470" lon="7.1612800">
        <ele>1053.0</ele>
        <time>2017-07-24T11:43:50Z</time>
      </trkpt>
      <trkpt lat="44.5796760" lon="7.1614970">
        <ele>1052.4</ele>
        <time>2017-07-24T11:43:52Z</time>
      </trkpt>
      <trkpt lat="44.5796740" lon="7.1616150">
        <ele>1052.0</ele>
        <time>2017-07-24T11:43:53Z</time>
      </trkpt>
      <trkpt lat="44.5796530" lon="7.1619540">
        <ele>1052.0</ele>
        <time>2017-07-24T11:43:56Z</time>
      </trkpt>
      <trkpt lat="44.5796120" lon="7.1621450">
        <ele>1051.4</ele>
        <time>2017-07-24T11:43:58Z</time>
      </trkpt>
      <trkpt lat="44.5795760" lon="7.1624500">
        <ele>1050.8</ele>
        <time>2017-07-24T11:44:01Z</time>
      </trkpt>
      <trkpt lat="44.5795880" lon="7.1625470">
        <ele>1050.4</ele>
        <time>2017-07-24T11:44:02Z</time>
      </trkpt>
      <trkpt lat="44.5795940" lon="7.1626420">
        <ele>1050.2</ele>
        <time>2017-07-24T11:44:03Z</time>
      </trkpt>
      <trkpt lat="44.5796240" lon="7.1629410">
        <ele>1049.8</ele>
        <time>2017-07-24T11:44:06Z</time>
      </trkpt>
      <trkpt lat="44.5796720" lon="7.1630330">
        <ele>1049.4</ele>
        <time>2017-07-24T11:44:07Z</time>
      </trkpt>
      <trkpt lat="44.5797290" lon="7.1632470">
        <ele>1049.0</ele>
        <time>2017-07-24T11:44:09Z</time>
      </trkpt>
      <trkpt lat="44.5797530" lon="7.1633580">
        <ele>1048.6</ele>
        <time>2017-07-24T11:44:10Z</time>
      </trkpt>
      <trkpt lat="44.5797980" lon="7.1636880">
        <ele>1047.8</ele>
        <time>2017-07-24T11:44:13Z</time>
      </trkpt>
      <trkpt lat="44.5798080" lon="7.1637950">
        <ele>1047.6</ele>
        <time>2017-07-24T11:44:14Z</time>
      </trkpt>
      <trkpt lat="44.5793030" lon="7.1640240">
        <ele>1046.2</ele>
        <time>2017-07-24T11:44:18Z</time>
      </trkpt>
      <trkpt lat="44.5792670" lon="7.1641260">
        <ele>1045.6</ele>
        <time>2017-07-24T11:44:19Z</time>
      </trkpt>
      <trkpt lat="44.5792490" lon="7.1642270">
        <ele>1045.0</ele>
        <time>2017-07-24T11:44:20Z</time>
      </trkpt>
      <trkpt lat="44.5792480" lon="7.1644390">
        <ele>1044.0</ele>
        <time>2017-07-24T11:44:22Z</time>
      </trkpt>
      <trkpt lat="44.5792620" lon="7.1645560">
        <ele>1043.8</ele>
        <time>2017-07-24T11:44:23Z</time>
      </trkpt>
      <trkpt lat="44.5793100" lon="7.1648430">
        <ele>1043.2</ele>
        <time>2017-07-24T11:44:26Z</time>
      </trkpt>
      <trkpt lat="44.5794090" lon="7.1650010">
        <ele>1042.6</ele>
        <time>2017-07-24T11:44:28Z</time>
      </trkpt>
      <trkpt lat="44.5794950" lon="7.1651670">
        <ele>1041.8</ele>
        <time>2017-07-24T11:44:30Z</time>
      </trkpt>
      <trkpt lat="44.5796370" lon="7.1653170">
        <ele>1041.8</ele>
        <time>2017-07-24T11:44:32Z</time>
      </trkpt>
      <trkpt lat="44.5797040" lon="7.1653950">
        <ele>1041.4</ele>
        <time>2017-07-24T11:44:33Z</time>
      </trkpt>
      <trkpt lat="44.5798190" lon="7.1655570">
        <ele>1040.8</ele>
        <time>2017-07-24T11:44:35Z</time>
      </trkpt>
      <trkpt lat="44.5800270" lon="7.1658850">
        <ele>1040.4</ele>
        <time>2017-07-24T11:44:39Z</time>
      </trkpt>
      <trkpt lat="44.5801370" lon="7.1660410">
        <ele>1040.2</ele>
        <time>2017-07-24T11:44:41Z</time>
      </trkpt>
      <trkpt lat="44.5803720" lon="7.1663630">
        <ele>1039.6</ele>
        <time>2017-07-24T11:44:45Z</time>
      </trkpt>
      <trkpt lat="44.5804940" lon="7.1665920">
        <ele>1039.4</ele>
        <time>2017-07-24T11:44:47Z</time>
      </trkpt>
      <trkpt lat="44.5805560" lon="7.1667240">
        <ele>1039.0</ele>
        <time>2017-07-24T11:44:48Z</time>
      </trkpt>
      <trkpt lat="44.5806600" lon="7.1669990">
        <ele>1038.8</ele>
        <time>2017-07-24T11:44:50Z</time>
      </trkpt>
      <trkpt lat="44.5807450" lon="7.1672790">
        <ele>1038.6</ele>
        <time>2017-07-24T11:44:52Z</time>
      </trkpt>
      <trkpt lat="44.5808130" lon="7.1676900">
        <ele>1037.8</ele>
        <time>2017-07-24T11:44:55Z</time>
      </trkpt>
      <trkpt lat="44.5808210" lon="7.1678190">
        <ele>1037.8</ele>
        <time>2017-07-24T11:44:56Z</time>
      </trkpt>
      <trkpt lat="44.5808770" lon="7.1683420">
        <ele>1036.8</ele>
        <time>2017-07-24T11:45:00Z</time>
      </trkpt>
      <trkpt lat="44.5809010" lon="7.1687170">
        <ele>1036.4</ele>
        <time>2017-07-24T11:45:03Z</time>
      </trkpt>
      <trkpt lat="44.5809080" lon="7.1688320">
        <ele>1035.8</ele>
        <time>2017-07-24T11:45:04Z</time>
      </trkpt>
      <trkpt lat="44.5808140" lon="7.1690110">
        <ele>1034.6</ele>
        <time>2017-07-24T11:45:06Z</time>
      </trkpt>
      <trkpt lat="44.5807610" lon="7.1691370">
        <ele>1034.2</ele>
        <time>2017-07-24T11:45:08Z</time>
      </trkpt>
      <trkpt lat="44.5807570" lon="7.1693050">
        <ele>1033.2</ele>
        <time>2017-07-24T11:45:11Z</time>
      </trkpt>
      <trkpt lat="44.5807610" lon="7.1693770">
        <ele>1032.8</ele>
        <time>2017-07-24T11:45:12Z</time>
      </trkpt>
      <trkpt lat="44.5807690" lon="7.1694620">
        <ele>1032.2</ele>
        <time>2017-07-24T11:45:13Z</time>
      </trkpt>
      <trkpt lat="44.5807320" lon="7.1696290">
        <ele>1030.6</ele>
        <time>2017-07-24T11:45:15Z</time>
      </trkpt>
      <trkpt lat="44.5806880" lon="7.1697090">
        <ele>1029.8</ele>
        <time>2017-07-24T11:45:16Z</time>
      </trkpt>
      <trkpt lat="44.5806380" lon="7.1698940">
        <ele>1029.2</ele>
        <time>2017-07-24T11:45:18Z</time>
      </trkpt>
      <trkpt lat="44.5805810" lon="7.1702000">
        <ele>1028.0</ele>
        <time>2017-07-24T11:45:21Z</time>
      </trkpt>
      <trkpt lat="44.5805020" lon="7.1705170">
        <ele>1026.6</ele>
        <time>2017-07-24T11:45:24Z</time>
      </trkpt>
      <trkpt lat="44.5804480" lon="7.1707390">
        <ele>1025.6</ele>
        <time>2017-07-24T11:45:26Z</time>
      </trkpt>
      <trkpt lat="44.5803740" lon="7.1710890">
        <ele>1024.6</ele>
        <time>2017-07-24T11:45:29Z</time>
      </trkpt>
      <trkpt lat="44.5803600" lon="7.1712080">
        <ele>1024.4</ele>
        <time>2017-07-24T11:45:30Z</time>
      </trkpt>
      <trkpt lat="44.5803560" lon="7.1714390">
        <ele>1024.0</ele>
        <time>2017-07-24T11:45:32Z</time>
      </trkpt>
      <trkpt lat="44.5803580" lon="7.1715480">
        <ele>1023.8</ele>
        <time>2017-07-24T11:45:33Z</time>
      </trkpt>
      <trkpt lat="44.5803780" lon="7.1717590">
        <ele>1023.2</ele>
        <time>2017-07-24T11:45:35Z</time>
      </trkpt>
      <trkpt lat="44.5804160" lon="7.1719620">
        <ele>1022.6</ele>
        <time>2017-07-24T11:45:37Z</time>
      </trkpt>
      <trkpt lat="44.5804470" lon="7.1720560">
        <ele>1022.4</ele>
        <time>2017-07-24T11:45:38Z</time>
      </trkpt>
      <trkpt lat="44.5804840" lon="7.1721530">
        <ele>1021.8</ele>
        <time>2017-07-24T11:45:39Z</time>
      </trkpt>
      <trkpt lat="44.5806860" lon="7.1727050">
        <ele>1020.8</ele>
        <time>2017-07-24T11:45:44Z</time>
      </trkpt>
      <trkpt lat="44.5806980" lon="7.1728320">
        <ele>1020.8</ele>
        <time>2017-07-24T11:45:45Z</time>
      </trkpt>
      <trkpt lat="44.5807010" lon="7.1731910">
        <ele>1020.4</ele>
        <time>2017-07-24T11:45:48Z</time>
      </trkpt>
      <trkpt lat="44.5806070" lon="7.1739070">
        <ele>1020.0</ele>
        <time>2017-07-24T11:45:54Z</time>
      </trkpt>
      <trkpt lat="44.5805610" lon="7.1741460">
        <ele>1019.6</ele>
        <time>2017-07-24T11:45:56Z</time>
      </trkpt>
      <trkpt lat="44.5804830" lon="7.1745180">
        <ele>1018.4</ele>
        <time>2017-07-24T11:45:59Z</time>
      </trkpt>
      <trkpt lat="44.5804260" lon="7.1747740">
        <ele>1017.8</ele>
        <time>2017-07-24T11:46:01Z</time>
      </trkpt>
      <trkpt lat="44.5803970" lon="7.1748940">
        <ele>1017.4</ele>
        <time>2017-07-24T11:46:02Z</time>
      </trkpt>
      <trkpt lat="44.5803220" lon="7.1751310">
        <ele>1016.6</ele>
        <time>2017-07-24T11:46:04Z</time>
      </trkpt>
      <trkpt lat="44.5802420" lon="7.1753680">
        <ele>1015.8</ele>
        <time>2017-07-24T11:46:06Z</time>
      </trkpt>
      <trkpt lat="44.5801950" lon="7.1754830">
        <ele>1015.4</ele>
        <time>2017-07-24T11:46:07Z</time>
      </trkpt>
      <trkpt lat="44.5801470" lon="7.1755870">
        <ele>1014.4</ele>
        <time>2017-07-24T11:46:08Z</time>
      </trkpt>
      <trkpt lat="44.5800330" lon="7.1757600">
        <ele>1013.0</ele>
        <time>2017-07-24T11:46:10Z</time>
      </trkpt>
      <trkpt lat="44.5799780" lon="7.1758320">
        <ele>1012.6</ele>
        <time>2017-07-24T11:46:11Z</time>
      </trkpt>
      <trkpt lat="44.5799230" lon="7.1758950">
        <ele>1012.0</ele>
        <time>2017-07-24T11:46:12Z</time>
      </trkpt>
      <trkpt lat="44.5797860" lon="7.1759680">
        <ele>1011.0</ele>
        <time>2017-07-24T11:46:14Z</time>
      </trkpt>
      <trkpt lat="44.5797200" lon="7.1759760">
        <ele>1010.8</ele>
        <time>2017-07-24T11:46:15Z</time>
      </trkpt>
      <trkpt lat="44.5796720" lon="7.1759790">
        <ele>1010.4</ele>
        <time>2017-07-24T11:46:16Z</time>
      </trkpt>
      <trkpt lat="44.5796000" lon="7.1759560">
        <ele>1010.0</ele>
        <time>2017-07-24T11:46:18Z</time>
      </trkpt>
      <trkpt lat="44.5795830" lon="7.1759440">
        <ele>1009.8</ele>
        <time>2017-07-24T11:46:19Z</time>
      </trkpt>
      <trkpt lat="44.5795640" lon="7.1758870">
        <ele>1009.2</ele>
        <time>2017-07-24T11:46:22Z</time>
      </trkpt>
      <trkpt lat="44.5796020" lon="7.1758410">
        <ele>1009.4</ele>
        <time>2017-07-24T11:46:24Z</time>
      </trkpt>
      <trkpt lat="44.5796360" lon="7.1758200">
        <ele>1009.4</ele>
        <time>2017-07-24T11:46:26Z</time>
      </trkpt>
      <trkpt lat="44.5797720" lon="7.1757900">
        <ele>1009.4</ele>
        <time>2017-07-24T11:46:29Z</time>
      </trkpt>
      <trkpt lat="44.5799050" lon="7.1757190">
        <ele>1009.6</ele>
        <time>2017-07-24T11:46:31Z</time>
      </trkpt>
      <trkpt lat="44.5801440" lon="7.1753870">
        <ele>1009.8</ele>
        <time>2017-07-24T11:46:35Z</time>
      </trkpt>
      <trkpt lat="44.5802440" lon="7.1750900">
        <ele>1010.0</ele>
        <time>2017-07-24T11:46:38Z</time>
      </trkpt>
      <trkpt lat="44.5802710" lon="7.1750080">
        <ele>1010.2</ele>
        <time>2017-07-24T11:46:39Z</time>
      </trkpt>
      <trkpt lat="44.5803480" lon="7.1747870">
        <ele>1010.8</ele>
        <time>2017-07-24T11:46:42Z</time>
      </trkpt>
      <trkpt lat="44.5803900" lon="7.1746330">
        <ele>1011.0</ele>
        <time>2017-07-24T11:46:44Z</time>
      </trkpt>
      <trkpt lat="44.5804070" lon="7.1744700">
        <ele>1011.4</ele>
        <time>2017-07-24T11:46:46Z</time>
      </trkpt>
      <trkpt lat="44.5804230" lon="7.1743920">
        <ele>1011.6</ele>
        <time>2017-07-24T11:46:47Z</time>
      </trkpt>
      <trkpt lat="44.5804720" lon="7.1741900">
        <ele>1012.0</ele>
        <time>2017-07-24T11:46:50Z</time>
      </trkpt>
      <trkpt lat="44.5804860" lon="7.1741190">
        <ele>1012.2</ele>
        <time>2017-07-24T11:46:51Z</time>
      </trkpt>
      <trkpt lat="44.5805300" lon="7.1739020">
        <ele>1012.6</ele>
        <time>2017-07-24T11:46:54Z</time>
      </trkpt>
      <trkpt lat="44.5805410" lon="7.1738340">
        <ele>1013.0</ele>
        <time>2017-07-24T11:46:55Z</time>
      </trkpt>
      <trkpt lat="44.5805710" lon="7.1736290">
        <ele>1014.0</ele>
        <time>2017-07-24T11:46:58Z</time>
      </trkpt>
      <trkpt lat="44.5806020" lon="7.1733730">
        <ele>1015.2</ele>
        <time>2017-07-24T11:47:02Z</time>
      </trkpt>
      <trkpt lat="44.5806220" lon="7.1731280">
        <ele>1016.6</ele>
        <time>2017-07-24T11:47:06Z</time>
      </trkpt>
      <trkpt lat="44.5806290" lon="7.1730690">
        <ele>1017.0</ele>
        <time>2017-07-24T11:47:07Z</time>
      </trkpt>
      <trkpt lat="44.5806570" lon="7.1728950">
        <ele>1017.8</ele>
        <time>2017-07-24T11:47:10Z</time>
      </trkpt>
      <trkpt lat="44.5806900" lon="7.1727240">
        <ele>1018.8</ele>
        <time>2017-07-24T11:47:13Z</time>
      </trkpt>
      <trkpt lat="44.5806970" lon="7.1726650">
        <ele>1019.0</ele>
        <time>2017-07-24T11:47:14Z</time>
      </trkpt>
      <trkpt lat="44.5806690" lon="7.1723960">
        <ele>1019.6</ele>
        <time>2017-07-24T11:47:19Z</time>
      </trkpt>
      <trkpt lat="44.5806410" lon="7.1722970">
        <ele>1020.2</ele>
        <time>2017-07-24T11:47:21Z</time>
      </trkpt>
      <trkpt lat="44.5805310" lon="7.1720770">
        <ele>1021.2</ele>
        <time>2017-07-24T11:47:25Z</time>
      </trkpt>
      <trkpt lat="44.5805090" lon="7.1720320">
        <ele>1021.4</ele>
        <time>2017-07-24T11:47:26Z</time>
      </trkpt>
      <trkpt lat="44.5803720" lon="7.1717400">
        <ele>1021.4</ele>
        <time>2017-07-24T11:47:33Z</time>
      </trkpt>
      <trkpt lat="44.5803180" lon="7.1714090">
        <ele>1021.6</ele>
        <time>2017-07-24T11:47:39Z</time>
      </trkpt>
      <trkpt lat="44.5803160" lon="7.1711410">
        <ele>1022.4</ele>
        <time>2017-07-24T11:47:43Z</time>
      </trkpt>
      <trkpt lat="44.5803290" lon="7.1709470">
        <ele>1022.8</ele>
        <time>2017-07-24T11:47:46Z</time>
      </trkpt>
      <trkpt lat="44.5803580" lon="7.1707630">
        <ele>1023.4</ele>
        <time>2017-07-24T11:47:49Z</time>
      </trkpt>
      <trkpt lat="44.5804100" lon="7.1705320">
        <ele>1024.2</ele>
        <time>2017-07-24T11:47:53Z</time>
      </trkpt>
      <trkpt lat="44.5804520" lon="7.1703870">
        <ele>1023.8</ele>
        <time>2017-07-24T11:47:56Z</time>
      </trkpt>
      <trkpt lat="44.5804510" lon="7.1703870">
        <ele>1023.4</ele>
        <time>2017-07-24T11:47:59Z</time>
      </trkpt>
      <trkpt lat="44.5804500" lon="7.1704750">
        <ele>1023.0</ele>
        <time>2017-07-24T11:48:01Z</time>
      </trkpt>
      <trkpt lat="44.5804360" lon="7.1706010">
        <ele>1022.0</ele>
        <time>2017-07-24T11:48:03Z</time>
      </trkpt>
      <trkpt lat="44.5804160" lon="7.1707460">
        <ele>1021.8</ele>
        <time>2017-07-24T11:48:05Z</time>
      </trkpt>
      <trkpt lat="44.5803880" lon="7.1709970">
        <ele>1021.8</ele>
        <time>2017-07-24T11:48:08Z</time>
      </trkpt>
      <trkpt lat="44.5803670" lon="7.1712740">
        <ele>1022.0</ele>
        <time>2017-07-24T11:48:11Z</time>
      </trkpt>
      <trkpt lat="44.5803750" lon="7.1715420">
        <ele>1022.4</ele>
        <time>2017-07-24T11:48:14Z</time>
      </trkpt>
      <trkpt lat="44.5804010" lon="7.1717190">
        <ele>1022.4</ele>
        <time>2017-07-24T11:48:16Z</time>
      </trkpt>
      <trkpt lat="44.5804230" lon="7.1718050">
        <ele>1022.2</ele>
        <time>2017-07-24T11:48:17Z</time>
      </trkpt>
      <trkpt lat="44.5804860" lon="7.1719720">
        <ele>1022.2</ele>
        <time>2017-07-24T11:48:19Z</time>
      </trkpt>
      <trkpt lat="44.5805180" lon="7.1720630">
        <ele>1022.2</ele>
        <time>2017-07-24T11:48:20Z</time>
      </trkpt>
      <trkpt lat="44.5806240" lon="7.1723440">
        <ele>1022.0</ele>
        <time>2017-07-24T11:48:23Z</time>
      </trkpt>
      <trkpt lat="44.5806990" lon="7.1725730">
        <ele>1022.0</ele>
        <time>2017-07-24T11:48:26Z</time>
      </trkpt>
      <trkpt lat="44.5807110" lon="7.1728720">
        <ele>1022.2</ele>
        <time>2017-07-24T11:48:30Z</time>
      </trkpt>
      <trkpt lat="44.5807080" lon="7.1729570">
        <ele>1022.4</ele>
        <time>2017-07-24T11:48:31Z</time>
      </trkpt>
      <trkpt lat="44.5806550" lon="7.1733360">
        <ele>1022.4</ele>
        <time>2017-07-24T11:48:35Z</time>
      </trkpt>
      <trkpt lat="44.5805500" lon="7.1741030">
        <ele>1021.6</ele>
        <time>2017-07-24T11:48:42Z</time>
      </trkpt>
      <trkpt lat="44.5805290" lon="7.1742140">
        <ele>1021.0</ele>
        <time>2017-07-24T11:48:43Z</time>
      </trkpt>
      <trkpt lat="44.5804700" lon="7.1744450">
        <ele>1019.8</ele>
        <time>2017-07-24T11:48:45Z</time>
      </trkpt>
      <trkpt lat="44.5803760" lon="7.1747940">
        <ele>1018.6</ele>
        <time>2017-07-24T11:48:48Z</time>
      </trkpt>
      <trkpt lat="44.5802890" lon="7.1751420">
        <ele>1017.0</ele>
        <time>2017-07-24T11:48:51Z</time>
      </trkpt>
      <trkpt lat="44.5802130" lon="7.1753740">
        <ele>1015.6</ele>
        <time>2017-07-24T11:48:53Z</time>
      </trkpt>
      <trkpt lat="44.5801250" lon="7.1755870">
        <ele>1014.8</ele>
        <time>2017-07-24T11:48:55Z</time>
      </trkpt>
      <trkpt lat="44.5800750" lon="7.1756870">
        <ele>1014.2</ele>
        <time>2017-07-24T11:48:56Z</time>
      </trkpt>
      <trkpt lat="44.5799750" lon="7.1758520">
        <ele>1013.2</ele>
        <time>2017-07-24T11:48:58Z</time>
      </trkpt>
      <trkpt lat="44.5799230" lon="7.1759120">
        <ele>1012.8</ele>
        <time>2017-07-24T11:48:59Z</time>
      </trkpt>
      <trkpt lat="44.5796950" lon="7.1760000">
        <ele>1012.2</ele>
        <time>2017-07-24T11:49:02Z</time>
      </trkpt>
      <trkpt lat="44.5795560" lon="7.1760810">
        <ele>1012.0</ele>
        <time>2017-07-24T11:49:04Z</time>
      </trkpt>
      <trkpt lat="44.5794290" lon="7.1762020">
        <ele>1011.6</ele>
        <time>2017-07-24T11:49:06Z</time>
      </trkpt>
      <trkpt lat="44.5793720" lon="7.1762780">
        <ele>1011.6</ele>
        <time>2017-07-24T11:49:07Z</time>
      </trkpt>
      <trkpt lat="44.5792370" lon="7.1765380">
        <ele>1011.8</ele>
        <time>2017-07-24T11:49:10Z</time>
      </trkpt>
      <trkpt lat="44.5791620" lon="7.1766880">
        <ele>1011.8</ele>
        <time>2017-07-24T11:49:12Z</time>
      </trkpt>
      <trkpt lat="44.5790910" lon="7.1768040">
        <ele>1011.4</ele>
        <time>2017-07-24T11:49:14Z</time>
      </trkpt>
      <trkpt lat="44.5790560" lon="7.1768510">
        <ele>1011.0</ele>
        <time>2017-07-24T11:49:15Z</time>
      </trkpt>
      <trkpt lat="44.5789740" lon="7.1769360">
        <ele>1010.6</ele>
        <time>2017-07-24T11:49:17Z</time>
      </trkpt>
      <trkpt lat="44.5788700" lon="7.1770160">
        <ele>1010.6</ele>
        <time>2017-07-24T11:49:19Z</time>
      </trkpt>
      <trkpt lat="44.5787230" lon="7.1770680">
        <ele>1009.6</ele>
        <time>2017-07-24T11:49:21Z</time>
      </trkpt>
      <trkpt lat="44.5785110" lon="7.1771740">
        <ele>1008.6</ele>
        <time>2017-07-24T11:49:24Z</time>
      </trkpt>
      <trkpt lat="44.5783260" lon="7.1774620">
        <ele>1007.8</ele>
        <time>2017-07-24T11:49:28Z</time>
      </trkpt>
      <trkpt lat="44.5782900" lon="7.1775430">
        <ele>1007.8</ele>
        <time>2017-07-24T11:49:29Z</time>
      </trkpt>
      <trkpt lat="44.5782320" lon="7.1777240">
        <ele>1007.8</ele>
        <time>2017-07-24T11:49:31Z</time>
      </trkpt>
      <trkpt lat="44.5781150" lon="7.1783390">
        <ele>1008.2</ele>
        <time>2017-07-24T11:49:37Z</time>
      </trkpt>
      <trkpt lat="44.5781050" lon="7.1785570">
        <ele>1008.4</ele>
        <time>2017-07-24T11:49:39Z</time>
      </trkpt>
      <trkpt lat="44.5781280" lon="7.1787770">
        <ele>1008.2</ele>
        <time>2017-07-24T11:49:41Z</time>
      </trkpt>
      <trkpt lat="44.5782250" lon="7.1792130">
        <ele>1007.8</ele>
        <time>2017-07-24T11:49:45Z</time>
      </trkpt>
      <trkpt lat="44.5782490" lon="7.1793230">
        <ele>1007.8</ele>
        <time>2017-07-24T11:49:46Z</time>
      </trkpt>
      <trkpt lat="44.5782900" lon="7.1796530">
        <ele>1007.4</ele>
        <time>2017-07-24T11:49:49Z</time>
      </trkpt>
      <trkpt lat="44.5783020" lon="7.1798720">
        <ele>1007.0</ele>
        <time>2017-07-24T11:49:51Z</time>
      </trkpt>
      <trkpt lat="44.5782590" lon="7.1805050">
        <ele>1006.2</ele>
        <time>2017-07-24T11:49:57Z</time>
      </trkpt>
      <trkpt lat="44.5781620" lon="7.1806270">
        <ele>1005.8</ele>
        <time>2017-07-24T11:50:00Z</time>
      </trkpt>
      <trkpt lat="44.5780480" lon="7.1806190">
        <ele>1005.2</ele>
        <time>2017-07-24T11:50:03Z</time>
      </trkpt>
      <trkpt lat="44.5779210" lon="7.1805720">
        <ele>1004.2</ele>
        <time>2017-07-24T11:50:06Z</time>
      </trkpt>
      <trkpt lat="44.5778720" lon="7.1805520">
        <ele>1004.0</ele>
        <time>2017-07-24T11:50:07Z</time>
      </trkpt>
      <trkpt lat="44.5777980" lon="7.1805550">
        <ele>1004.0</ele>
        <time>2017-07-24T11:50:08Z</time>
      </trkpt>
      <trkpt lat="44.5776360" lon="7.1806380">
        <ele>1004.2</ele>
        <time>2017-07-24T11:50:12Z</time>
      </trkpt>
      <trkpt lat="44.5776400" lon="7.1808360">
        <ele>1004.2</ele>
        <time>2017-07-24T11:50:14Z</time>
      </trkpt>
      <trkpt lat="44.5776290" lon="7.1809080">
        <ele>1004.2</ele>
        <time>2017-07-24T11:50:15Z</time>
      </trkpt>
      <trkpt lat="44.5775960" lon="7.1810970">
        <ele>1005.2</ele>
        <time>2017-07-24T11:50:18Z</time>
      </trkpt>
      <trkpt lat="44.5775880" lon="7.1811880">
        <ele>1006.0</ele>
        <time>2017-07-24T11:50:20Z</time>
      </trkpt>
      <trkpt lat="44.5775890" lon="7.1812300">
        <ele>1006.2</ele>
        <time>2017-07-24T11:50:21Z</time>
      </trkpt>
      <trkpt lat="44.5775830" lon="7.1813170">
        <ele>1006.8</ele>
        <time>2017-07-24T11:50:23Z</time>
      </trkpt>
      <trkpt lat="44.5775470" lon="7.1813680">
        <ele>1007.6</ele>
        <time>2017-07-24T11:50:26Z</time>
      </trkpt>
      <trkpt lat="44.5775270" lon="7.1813370">
        <ele>1008.4</ele>
        <time>2017-07-24T11:50:28Z</time>
      </trkpt>
      <trkpt lat="44.5775220" lon="7.1813160">
        <ele>1009.0</ele>
        <time>2017-07-24T11:50:29Z</time>
      </trkpt>
      <trkpt lat="44.5775190" lon="7.1812830">
        <ele>1009.4</ele>
        <time>2017-07-24T11:50:30Z</time>
      </trkpt>
      <trkpt lat="44.5775080" lon="7.1812250">
        <ele>1010.0</ele>
        <time>2017-07-24T11:50:32Z</time>
      </trkpt>
      <trkpt lat="44.5774880" lon="7.1811300">
        <ele>1011.2</ele>
        <time>2017-07-24T11:50:35Z</time>
      </trkpt>
      <trkpt lat="44.5774610" lon="7.1810450">
        <ele>1012.4</ele>
        <time>2017-07-24T11:50:38Z</time>
      </trkpt>
      <trkpt lat="44.5774530" lon="7.1810240">
        <ele>1012.8</ele>
        <time>2017-07-24T11:50:39Z</time>
      </trkpt>
      <trkpt lat="44.5774410" lon="7.1809830">
        <ele>1013.4</ele>
        <time>2017-07-24T11:50:41Z</time>
      </trkpt>
      <trkpt lat="44.5774230" lon="7.1809210">
        <ele>1014.8</ele>
        <time>2017-07-24T11:50:44Z</time>
      </trkpt>
      <trkpt lat="44.5774030" lon="7.1808580">
        <ele>1015.8</ele>
        <time>2017-07-24T11:50:47Z</time>
      </trkpt>
      <trkpt lat="44.5773720" lon="7.1807820">
        <ele>1016.4</ele>
        <time>2017-07-24T11:50:51Z</time>
      </trkpt>
      <trkpt lat="44.5773350" lon="7.1807840">
        <ele>1016.6</ele>
        <time>2017-07-24T11:50:54Z</time>
      </trkpt>
      <trkpt lat="44.5773380" lon="7.1808580">
        <ele>1016.4</ele>
        <time>2017-07-24T11:50:56Z</time>
      </trkpt>
      <trkpt lat="44.5773410" lon="7.1811120">
        <ele>1015.8</ele>
        <time>2017-07-24T11:51:03Z</time>
      </trkpt>
      <trkpt lat="44.5773050" lon="7.1813400">
        <ele>1015.4</ele>
        <time>2017-07-24T11:51:09Z</time>
      </trkpt>
      <trkpt lat="44.5772700" lon="7.1814290">
        <ele>1015.2</ele>
        <time>2017-07-24T11:51:11Z</time>
      </trkpt>
      <trkpt lat="44.5771720" lon="7.1815580">
        <ele>1015.2</ele>
        <time>2017-07-24T11:51:15Z</time>
      </trkpt>
      <trkpt lat="44.5771250" lon="7.1815640">
        <ele>1015.2</ele>
        <time>2017-07-24T11:51:17Z</time>
      </trkpt>
      <trkpt lat="44.5770740" lon="7.1815260">
        <ele>1015.0</ele>
        <time>2017-07-24T11:51:19Z</time>
      </trkpt>
      <trkpt lat="44.5769970" lon="7.1813950">
        <ele>1015.2</ele>
        <time>2017-07-24T11:51:23Z</time>
      </trkpt>
      <trkpt lat="44.5769420" lon="7.1813040">
        <ele>1015.8</ele>
        <time>2017-07-24T11:51:26Z</time>
      </trkpt>
      <trkpt lat="44.5768860" lon="7.1812240">
        <ele>1017.0</ele>
        <time>2017-07-24T11:51:29Z</time>
      </trkpt>
      <trkpt lat="44.5768530" lon="7.1811830">
        <ele>1018.4</ele>
        <time>2017-07-24T11:51:31Z</time>
      </trkpt>
      <trkpt lat="44.5768300" lon="7.1811470">
        <ele>1019.4</ele>
        <time>2017-07-24T11:51:33Z</time>
      </trkpt>
      <trkpt lat="44.5768160" lon="7.1811280">
        <ele>1019.8</ele>
        <time>2017-07-24T11:51:34Z</time>
      </trkpt>
      <trkpt lat="44.5767820" lon="7.1810870">
        <ele>1020.8</ele>
        <time>2017-07-24T11:51:36Z</time>
      </trkpt>
      <trkpt lat="44.5767380" lon="7.1809720">
        <ele>1021.8</ele>
        <time>2017-07-24T11:51:40Z</time>
      </trkpt>
      <trkpt lat="44.5766840" lon="7.1808750">
        <ele>1023.4</ele>
        <time>2017-07-24T11:55:00Z</time>
      </trkpt>
      <trkpt lat="44.5766690" lon="7.1808560">
        <ele>1023.6</ele>
        <time>2017-07-24T11:55:01Z</time>
      </trkpt>
      <trkpt lat="44.5766360" lon="7.1808240">
        <ele>1023.6</ele>
        <time>2017-07-24T11:55:02Z</time>
      </trkpt>
      <trkpt lat="44.5766030" lon="7.1807910">
        <ele>1023.8</ele>
        <time>2017-07-24T11:55:03Z</time>
      </trkpt>
      <trkpt lat="44.5764830" lon="7.1806990">
        <ele>1023.8</ele>
        <time>2017-07-24T11:55:07Z</time>
      </trkpt>
      <trkpt lat="44.5764560" lon="7.1806680">
        <ele>1024.0</ele>
        <time>2017-07-24T11:55:08Z</time>
      </trkpt>
      <trkpt lat="44.5763830" lon="7.1805770">
        <ele>1024.4</ele>
        <time>2017-07-24T11:55:11Z</time>
      </trkpt>
      <trkpt lat="44.5763570" lon="7.1805380">
        <ele>1024.8</ele>
        <time>2017-07-24T11:55:12Z</time>
      </trkpt>
      <trkpt lat="44.5763110" lon="7.1804650">
        <ele>1025.2</ele>
        <time>2017-07-24T11:55:14Z</time>
      </trkpt>
      <trkpt lat="44.5762660" lon="7.1803920">
        <ele>1026.0</ele>
        <time>2017-07-24T11:55:16Z</time>
      </trkpt>
      <trkpt lat="44.5762120" lon="7.1804000">
        <ele>1027.4</ele>
        <time>2017-07-24T11:55:18Z</time>
      </trkpt>
      <trkpt lat="44.5761920" lon="7.1804390">
        <ele>1028.0</ele>
        <time>2017-07-24T11:55:19Z</time>
      </trkpt>
      <trkpt lat="44.5761780" lon="7.1804840">
        <ele>1028.6</ele>
        <time>2017-07-24T11:55:20Z</time>
      </trkpt>
      <trkpt lat="44.5761770" lon="7.1805670">
        <ele>1030.0</ele>
        <time>2017-07-24T11:55:22Z</time>
      </trkpt>
      <trkpt lat="44.5761830" lon="7.1806110">
        <ele>1030.6</ele>
        <time>2017-07-24T11:55:23Z</time>
      </trkpt>
      <trkpt lat="44.5761980" lon="7.1806570">
        <ele>1031.2</ele>
        <time>2017-07-24T11:55:24Z</time>
      </trkpt>
      <trkpt lat="44.5762130" lon="7.1807360">
        <ele>1032.2</ele>
        <time>2017-07-24T11:55:26Z</time>
      </trkpt>
      <trkpt lat="44.5761990" lon="7.1806890">
        <ele>1034.0</ele>
        <time>2017-07-24T11:55:31Z</time>
      </trkpt>
      <trkpt lat="44.5761610" lon="7.1805740">
        <ele>1035.6</ele>
        <time>2017-07-24T11:55:40Z</time>
      </trkpt>
      <trkpt lat="44.5760950" lon="7.1805690">
        <ele>1035.8</ele>
        <time>2017-07-24T11:55:43Z</time>
      </trkpt>
      <trkpt lat="44.5760640" lon="7.1805550">
        <ele>1036.0</ele>
        <time>2017-07-24T11:55:45Z</time>
      </trkpt>
      <trkpt lat="44.5760160" lon="7.1805540">
        <ele>1037.8</ele>
        <time>2017-07-24T11:55:55Z</time>
      </trkpt>
      <trkpt lat="44.5760110" lon="7.1805530">
        <ele>1037.2</ele>
        <time>2017-07-24T11:55:56Z</time>
      </trkpt>
      <trkpt lat="44.5759740" lon="7.1805200">
        <ele>1035.6</ele>
        <time>2017-07-24T11:56:02Z</time>
      </trkpt>
      <trkpt lat="44.5759020" lon="7.1804540">
        <ele>1037.6</ele>
        <time>2017-07-24T11:56:08Z</time>
      </trkpt>
      <trkpt lat="44.5758960" lon="7.1804500">
        <ele>1036.2</ele>
        <time>2017-07-24T11:56:09Z</time>
      </trkpt>
      <trkpt lat="44.5758730" lon="7.1804260">
        <ele>1036.2</ele>
        <time>2017-07-24T11:56:12Z</time>
      </trkpt>
      <trkpt lat="44.5758310" lon="7.1803910">
        <ele>1037.8</ele>
        <time>2017-07-24T11:56:16Z</time>
      </trkpt>
      <trkpt lat="44.5758100" lon="7.1803720">
        <ele>1039.4</ele>
        <time>2017-07-24T11:56:18Z</time>
      </trkpt>
      <trkpt lat="44.5758010" lon="7.1803650">
        <ele>1039.6</ele>
        <time>2017-07-24T11:56:19Z</time>
      </trkpt>
      <trkpt lat="44.5757820" lon="7.1803510">
        <ele>1040.6</ele>
        <time>2017-07-24T11:56:21Z</time>
      </trkpt>
      <trkpt lat="44.5634670" lon="7.1704980">
        <ele>1482.6</ele>
        <time>2017-07-24T12:16:37Z</time>
      </trkpt>
      <trkpt lat="44.5634760" lon="7.1704710">
        <ele>1482.2</ele>
        <time>2017-07-24T12:16:38Z</time>
      </trkpt>
      <trkpt lat="44.5635140" lon="7.1703970">
        <ele>1481.4</ele>
        <time>2017-07-24T12:16:40Z</time>
      </trkpt>
      <trkpt lat="44.5635430" lon="7.1703560">
        <ele>1481.0</ele>
        <time>2017-07-24T12:16:41Z</time>
      </trkpt>
      <trkpt lat="44.5635790" lon="7.1703310">
        <ele>1480.8</ele>
        <time>2017-07-24T12:16:42Z</time>
      </trkpt>
      <trkpt lat="44.5636680" lon="7.1703070">
        <ele>1480.0</ele>
        <time>2017-07-24T12:16:44Z</time>
      </trkpt>
      <trkpt lat="44.5637580" lon="7.1702870">
        <ele>1479.8</ele>
        <time>2017-07-24T12:16:46Z</time>
      </trkpt>
      <trkpt lat="44.5638020" lon="7.1702750">
        <ele>1480.0</ele>
        <time>2017-07-24T12:16:47Z</time>
      </trkpt>
      <trkpt lat="44.5639600" lon="7.1702440">
        <ele>1480.4</ele>
        <time>2017-07-24T12:16:51Z</time>
      </trkpt>
      <trkpt lat="44.5640010" lon="7.1702580">
        <ele>1480.6</ele>
        <time>2017-07-24T12:16:52Z</time>
      </trkpt>
      <trkpt lat="44.5641120" lon="7.1702760">
        <ele>1481.2</ele>
        <time>2017-07-24T12:16:55Z</time>
      </trkpt>
      <trkpt lat="44.5641480" lon="7.1702630">
        <ele>1481.4</ele>
        <time>2017-07-24T12:16:56Z</time>
      </trkpt>
      <trkpt lat="44.5642290" lon="7.1701490">
        <ele>1481.4</ele>
        <time>2017-07-24T12:16:59Z</time>
      </trkpt>
      <trkpt lat="44.5643480" lon="7.1699730">
        <ele>1480.4</ele>
        <time>2017-07-24T12:17:04Z</time>
      </trkpt>
      <trkpt lat="44.5644150" lon="7.1700150">
        <ele>1480.6</ele>
        <time>2017-07-24T12:17:07Z</time>
      </trkpt>
      <trkpt lat="44.5644340" lon="7.1700430">
        <ele>1480.4</ele>
        <time>2017-07-24T12:17:08Z</time>
      </trkpt>
      <trkpt lat="44.5644820" lon="7.1701590">
        <ele>1480.2</ele>
        <time>2017-07-24T12:17:12Z</time>
      </trkpt>
      <trkpt lat="44.5644860" lon="7.1701800">
        <ele>1480.2</ele>
        <time>2017-07-24T12:17:13Z</time>
      </trkpt>
      <trkpt lat="44.5542300" lon="7.1548080">
        <ele>1837.2</ele>
        <time>2017-07-24T12:47:54Z</time>
      </trkpt>
      <trkpt lat="44.5542340" lon="7.1547740">
        <ele>1838.2</ele>
        <time>2017-07-24T12:48:10Z</time>
      </trkpt>
      <trkpt lat="44.5542340" lon="7.1547050">
        <ele>1838.0</ele>
        <time>2017-07-24T12:48:12Z</time>
      </trkpt>
      <trkpt lat="44.5542940" lon="7.1546320">
        <ele>1837.4</ele>
        <time>2017-07-24T12:48:15Z</time>
      </trkpt>
      <trkpt lat="44.5543240" lon="7.1546070">
        <ele>1837.2</ele>
        <time>2017-07-24T12:48:16Z</time>
      </trkpt>
      <trkpt lat="44.5544340" lon="7.1545580">
        <ele>1836.6</ele>
        <time>2017-07-24T12:48:19Z</time>
      </trkpt>
      <trkpt lat="44.5545260" lon="7.1545680">
        <ele>1836.6</ele>
        <time>2017-07-24T12:48:21Z</time>
      </trkpt>
      <trkpt lat="44.5546740" lon="7.1546670">
        <ele>1836.8</ele>
        <time>2017-07-24T12:48:24Z</time>
      </trkpt>
      <trkpt lat="44.5547170" lon="7.1546900">
        <ele>1836.6</ele>
        <time>2017-07-24T12:48:25Z</time>
      </trkpt>
      <trkpt lat="44.5548140" lon="7.1546700">
        <ele>1836.2</ele>
        <time>2017-07-24T12:48:27Z</time>
      </trkpt>
      <trkpt lat="44.5548430" lon="7.1546180">
        <ele>1835.8</ele>
        <time>2017-07-24T12:48:28Z</time>
      </trkpt>
      <trkpt lat="44.5548950" lon="7.1545250">
        <ele>1835.0</ele>
        <time>2017-07-24T12:48:30Z</time>
      </trkpt>
      <trkpt lat="44.5549610" lon="7.1544700">
        <ele>1834.6</ele>
        <time>2017-07-24T12:48:32Z</time>
      </trkpt>
      <trkpt lat="44.5549960" lon="7.1544450">
        <ele>1834.6</ele>
        <time>2017-07-24T12:48:33Z</time>
      </trkpt>
      <trkpt lat="44.5550710" lon="7.1544320">
        <ele>1834.8</ele>
        <time>2017-07-24T12:48:35Z</time>
      </trkpt>
      <trkpt lat="44.5551100" lon="7.1544210">
        <ele>1834.8</ele>
        <time>2017-07-24T12:48:36Z</time>
      </trkpt>
      <trkpt lat="44.5552200" lon="7.1543830">
        <ele>1834.2</ele>
        <time>2017-07-24T12:48:39Z</time>
      </trkpt>
      <trkpt lat="44.5552890" lon="7.1543700">
        <ele>1833.8</ele>
        <time>2017-07-24T12:48:41Z</time>
      </trkpt>
      <trkpt lat="44.5553580" lon="7.1543530">
        <ele>1833.6</ele>
        <time>2017-07-24T12:48:43Z</time>
      </trkpt>
      <trkpt lat="44.5554500" lon="7.1543330">
        <ele>1833.4</ele>
        <time>2017-07-24T12:48:46Z</time>
      </trkpt>
      <trkpt lat="44.5555400" lon="7.1543200">
        <ele>1833.2</ele>
        <time>2017-07-24T12:48:49Z</time>
      </trkpt>
      <trkpt lat="44.5555990" lon="7.1543090">
        <ele>1833.2</ele>
        <time>2017-07-24T12:48:51Z</time>
      </trkpt>
      <trkpt lat="44.5556810" lon="7.1542770">
        <ele>1833.8</ele>
        <time>2017-07-24T12:48:54Z</time>
      </trkpt>
      <trkpt lat="44.5557870" lon="7.1542420">
        <ele>1834.4</ele>
        <time>2017-07-24T12:48:58Z</time>
      </trkpt>
      <trkpt lat="44.5558700" lon="7.1542150">
        <ele>1834.8</ele>
        <time>2017-07-24T12:49:01Z</time>
      </trkpt>
      <trkpt lat="44.5559170" lon="7.1541730">
        <ele>1835.0</ele>
        <time>2017-07-24T12:49:03Z</time>
      </trkpt>
      <trkpt lat="44.5559660" lon="7.1541460">
        <ele>1834.4</ele>
        <time>2017-07-24T12:49:05Z</time>
      </trkpt>
      <trkpt lat="44.5560200" lon="7.1541390">
        <ele>1836.2</ele>
        <time>2017-07-24T12:49:07Z</time>
      </trkpt>
      <trkpt lat="44.5560940" lon="7.1540820">
        <ele>1837.4</ele>
        <time>2017-07-24T12:49:10Z</time>
      </trkpt>
      <trkpt lat="44.5562130" lon="7.1539960">
        <ele>1838.6</ele>
        <time>2017-07-24T12:49:15Z</time>
      </trkpt>
      <trkpt lat="44.5562370" lon="7.1539800">
        <ele>1839.0</ele>
        <time>2017-07-24T12:49:16Z</time>
      </trkpt>
      <trkpt lat="44.5562800" lon="7.1539490">
        <ele>1839.8</ele>
        <time>2017-07-24T12:49:18Z</time>
      </trkpt>
      <trkpt lat="44.5563760" lon="7.1539030">
        <ele>1840.8</ele>
        <time>2017-07-24T12:49:22Z</time>
      </trkpt>
      <trkpt lat="44.5564000" lon="7.1538930">
        <ele>1841.2</ele>
        <time>2017-07-24T12:49:23Z</time>
      </trkpt>
      <trkpt lat="44.5564780" lon="7.1538930">
        <ele>1842.2</ele>
        <time>2017-07-24T12:49:26Z</time>
      </trkpt>
      <trkpt lat="44.5565280" lon="7.1538950">
        <ele>1842.6</ele>
        <time>2017-07-24T12:49:28Z</time>
      </trkpt>
      <trkpt lat="44.5566880" lon="7.1539290">
        <ele>1843.2</ele>
        <time>2017-07-24T12:49:35Z</time>
      </trkpt>
      <trkpt lat="44.5567090" lon="7.1539360">
        <ele>1843.4</ele>
        <time>2017-07-24T12:49:36Z</time>
      </trkpt>
      <trkpt lat="44.5568500" lon="7.1539640">
        <ele>1844.2</ele>
        <time>2017-07-24T12:49:42Z</time>
      </trkpt>
      <trkpt lat="44.5568770" lon="7.1539740">
        <ele>1844.4</ele>
        <time>2017-07-24T12:49:43Z</time>
      </trkpt>
      <trkpt lat="44.5569870" lon="7.1540140">
        <ele>1845.6</ele>
        <time>2017-07-24T12:49:47Z</time>
      </trkpt>
      <trkpt lat="44.5570740" lon="7.1540520">
        <ele>1846.2</ele>
        <time>2017-07-24T12:49:50Z</time>
      </trkpt>
      <trkpt lat="44.5571040" lon="7.1540610">
        <ele>1846.6</ele>
        <time>2017-07-24T12:49:51Z</time>
      </trkpt>
      <trkpt lat="44.5572170" lon="7.1541030">
        <ele>1847.8</ele>
        <time>2017-07-24T12:49:55Z</time>
      </trkpt>
      <trkpt lat="44.5573010" lon="7.1541340">
        <ele>1849.0</ele>
        <time>2017-07-24T12:49:58Z</time>
      </trkpt>
      <trkpt lat="44.5573800" lon="7.1541690">
        <ele>1850.0</ele>
        <time>2017-07-24T12:50:01Z</time>
      </trkpt>
      <trkpt lat="44.5574300" lon="7.1541970">
        <ele>1851.2</ele>
        <time>2017-07-24T12:50:03Z</time>
      </trkpt>
      <trkpt lat="44.5575320" lon="7.1542360">
        <ele>1852.0</ele>
        <time>2017-07-24T12:50:07Z</time>
      </trkpt>
      <trkpt lat="44.5575840" lon="7.1542480">
        <ele>1852.4</ele>
        <time>2017-07-24T12:50:09Z</time>
      </trkpt>
      <trkpt lat="44.5576860" lon="7.1542620">
        <ele>1853.6</ele>
        <time>2017-07-24T12:50:13Z</time>
      </trkpt>
      <trkpt lat="44.5577090" lon="7.1542560">
        <ele>1853.8</ele>
        <time>2017-07-24T12:50:14Z</time>
      </trkpt>
      <trkpt lat="44.5577830" lon="7.1542530">
        <ele>1854.6</ele>
        <time>2017-07-24T12:50:17Z</time>
      </trkpt>
      <trkpt lat="44.5578700" lon="7.1542370">
        <ele>1855.8</ele>
        <time>2017-07-24T12:50:20Z</time>
      </trkpt>
      <trkpt lat="44.5578990" lon="7.1542310">
        <ele>1856.2</ele>
        <time>2017-07-24T12:50:21Z</time>
      </trkpt>
      <trkpt lat="44.5579920" lon="7.1542090">
        <ele>1857.2</ele>
        <time>2017-07-24T12:50:24Z</time>
      </trkpt>
      <trkpt lat="44.5581360" lon="7.1541980">
        <ele>1857.6</ele>
        <time>2017-07-24T12:50:28Z</time>
      </trkpt>
      <trkpt lat="44.5582050" lon="7.1541650">
        <ele>1857.8</ele>
        <time>2017-07-24T12:50:30Z</time>
      </trkpt>
      <trkpt lat="44.5582390" lon="7.1540840">
        <ele>1857.8</ele>
        <time>2017-07-24T12:50:32Z</time>
      </trkpt>
      <trkpt lat="44.5581770" lon="7.1540090">
        <ele>1857.8</ele>
        <time>2017-07-24T12:50:35Z</time>
      </trkpt>
      <trkpt lat="44.5581130" lon="7.1540240">
        <ele>1858.4</ele>
        <time>2017-07-24T12:50:37Z</time>
      </trkpt>
      <trkpt lat="44.5580810" lon="7.1540370">
        <ele>1858.4</ele>
        <time>2017-07-24T12:50:38Z</time>
      </trkpt>
      <trkpt lat="44.5580470" lon="7.1540510">
        <ele>1858.4</ele>
        <time>2017-07-24T12:50:39Z</time>
      </trkpt>
      <trkpt lat="44.5580140" lon="7.1540620">
        <ele>1858.4</ele>
        <time>2017-07-24T12:50:40Z</time>
      </trkpt>
      <trkpt lat="44.5578490" lon="7.1540860">
        <ele>1859.4</ele>
        <time>2017-07-24T12:50:45Z</time>
      </trkpt>
      <trkpt lat="44.5578140" lon="7.1540860">
        <ele>1859.6</ele>
        <time>2017-07-24T12:50:46Z</time>
      </trkpt>
      <trkpt lat="44.5576830" lon="7.1540710">
        <ele>1860.8</ele>
        <time>2017-07-24T12:50:50Z</time>
      </trkpt>
      <trkpt lat="44.5576230" lon="7.1540490">
        <ele>1861.2</ele>
        <time>2017-07-24T12:50:52Z</time>
      </trkpt>
      <trkpt lat="44.5574800" lon="7.1539420">
        <ele>1861.8</ele>
        <time>2017-07-24T12:50:57Z</time>
      </trkpt>
      <trkpt lat="44.5574530" lon="7.1539140">
        <ele>1862.2</ele>
        <time>2017-07-24T12:50:58Z</time>
      </trkpt>
      <trkpt lat="44.5572930" lon="7.1537570">
        <ele>1862.8</ele>
        <time>2017-07-24T12:51:04Z</time>
      </trkpt>
      <trkpt lat="44.5572690" lon="7.1537320">
        <ele>1863.0</ele>
        <time>2017-07-24T12:51:05Z</time>
      </trkpt>
      <trkpt lat="44.5572220" lon="7.1536780">
        <ele>1863.4</ele>
        <time>2017-07-24T12:51:07Z</time>
      </trkpt>
      <trkpt lat="44.5570800" lon="7.1535210">
        <ele>1864.0</ele>
        <time>2017-07-24T12:51:13Z</time>
      </trkpt>
      <trkpt lat="44.5570180" lon="7.1534430">
        <ele>1864.8</ele>
        <time>2017-07-24T12:51:16Z</time>
      </trkpt>
      <trkpt lat="44.5568870" lon="7.1532850">
        <ele>1865.2</ele>
        <time>2017-07-24T12:51:22Z</time>
      </trkpt>
      <trkpt lat="44.5568650" lon="7.1532560">
        <ele>1865.2</ele>
        <time>2017-07-24T12:51:23Z</time>
      </trkpt>
      <trkpt lat="44.5566870" lon="7.1530230">
        <ele>1866.2</ele>
        <time>2017-07-24T12:51:31Z</time>
      </trkpt>
      <trkpt lat="44.5565290" lon="7.1528810">
        <ele>1867.2</ele>
        <time>2017-07-24T12:51:38Z</time>
      </trkpt>
      <trkpt lat="44.5565060" lon="7.1528620">
        <ele>1867.4</ele>
        <time>2017-07-24T12:51:39Z</time>
      </trkpt>
      <trkpt lat="44.5564210" lon="7.1527810">
        <ele>1868.6</ele>
        <time>2017-07-24T12:51:43Z</time>
      </trkpt>
      <trkpt lat="44.5563450" lon="7.1527270">
        <ele>1870.0</ele>
        <time>2017-07-24T12:51:46Z</time>
      </trkpt>
      <trkpt lat="44.5562210" lon="7.1526460">
        <ele>1871.0</ele>
        <time>2017-07-24T12:51:51Z</time>
      </trkpt>
      <trkpt lat="44.5561500" lon="7.1526010">
        <ele>1871.8</ele>
        <time>2017-07-24T12:51:54Z</time>
      </trkpt>
      <trkpt lat="44.5560990" lon="7.1525720">
        <ele>1872.0</ele>
        <time>2017-07-24T12:51:56Z</time>
      </trkpt>
      <trkpt lat="44.5560720" lon="7.1525580">
        <ele>1872.2</ele>
        <time>2017-07-24T12:51:57Z</time>
      </trkpt>
      <trkpt lat="44.5559990" lon="7.1525050">
        <ele>1869.6</ele>
        <time>2017-07-24T12:52:00Z</time>
      </trkpt>
      <trkpt lat="44.5559720" lon="7.1524950">
        <ele>1865.2</ele>
        <time>2017-07-24T12:52:01Z</time>
      </trkpt>
      <trkpt lat="44.5559420" lon="7.1524910">
        <ele>1861.6</ele>
        <time>2017-07-24T12:52:02Z</time>
      </trkpt>
      <trkpt lat="44.5559140" lon="7.1524830">
        <ele>1866.2</ele>
        <time>2017-07-24T12:52:03Z</time>
      </trkpt>
      <trkpt lat="44.5558880" lon="7.1524720">
        <ele>1870.2</ele>
        <time>2017-07-24T12:52:04Z</time>
      </trkpt>
      <trkpt lat="44.5558610" lon="7.1524660">
        <ele>1873.6</ele>
        <time>2017-07-24T12:52:05Z</time>
      </trkpt>
      <trkpt lat="44.5558040" lon="7.1524620">
        <ele>1874.2</ele>
        <time>2017-07-24T12:52:07Z</time>
      </trkpt>
      <trkpt lat="44.5557740" lon="7.1524620">
        <ele>1874.8</ele>
        <time>2017-07-24T12:52:08Z</time>
      </trkpt>
      <trkpt lat="44.5556850" lon="7.1524640">
        <ele>1876.0</ele>
        <time>2017-07-24T12:52:11Z</time>
      </trkpt>
      <trkpt lat="44.5555470" lon="7.1524710">
        <ele>1877.2</ele>
        <time>2017-07-24T12:52:16Z</time>
      </trkpt>
      <trkpt lat="44.5554920" lon="7.1524670">
        <ele>1878.4</ele>
        <time>2017-07-24T12:52:18Z</time>
      </trkpt>
      <trkpt lat="44.5554110" lon="7.1524570">
        <ele>1880.0</ele>
        <time>2017-07-24T12:52:21Z</time>
      </trkpt>
      <trkpt lat="44.5553540" lon="7.1524640">
        <ele>1881.0</ele>
        <time>2017-07-24T12:52:23Z</time>
      </trkpt>
      <trkpt lat="44.5552670" lon="7.1524770">
        <ele>1882.6</ele>
        <time>2017-07-24T12:52:26Z</time>
      </trkpt>
      <trkpt lat="44.5552110" lon="7.1524930">
        <ele>1883.6</ele>
        <time>2017-07-24T12:52:28Z</time>
      </trkpt>
      <trkpt lat="44.5551550" lon="7.1525130">
        <ele>1884.6</ele>
        <time>2017-07-24T12:52:30Z</time>
      </trkpt>
      <trkpt lat="44.5550790" lon="7.1525570">
        <ele>1885.2</ele>
        <time>2017-07-24T12:52:33Z</time>
      </trkpt>
      <trkpt lat="44.5549970" lon="7.1525910">
        <ele>1885.8</ele>
        <time>2017-07-24T12:52:36Z</time>
      </trkpt>
      <trkpt lat="44.5548600" lon="7.1526260">
        <ele>1886.4</ele>
        <time>2017-07-24T12:52:41Z</time>
      </trkpt>
      <trkpt lat="44.5546170" lon="7.1526330">
        <ele>1887.0</ele>
        <time>2017-07-24T12:52:50Z</time>
      </trkpt>
      <trkpt lat="44.5545340" lon="7.1526290">
        <ele>1888.4</ele>
        <time>2017-07-24T12:52:53Z</time>
      </trkpt>
      <trkpt lat="44.5544550" lon="7.1526400">
        <ele>1888.8</ele>
        <time>2017-07-24T12:52:56Z</time>
      </trkpt>
      <trkpt lat="44.5544020" lon="7.1526420">
        <ele>1889.6</ele>
        <time>2017-07-24T12:52:58Z</time>
      </trkpt>
      <trkpt lat="44.5542450" lon="7.1526730">
        <ele>1890.4</ele>
        <time>2017-07-24T12:53:04Z</time>
      </trkpt>
      <trkpt lat="44.5542180" lon="7.1526800">
        <ele>1890.8</ele>
        <time>2017-07-24T12:53:05Z</time>
      </trkpt>
      <trkpt lat="44.5541450" lon="7.1527150">
        <ele>1892.0</ele>
        <time>2017-07-24T12:53:08Z</time>
      </trkpt>
      <trkpt lat="44.5540690" lon="7.1527440">
        <ele>1892.4</ele>
        <time>2017-07-24T12:53:11Z</time>
      </trkpt>
      <trkpt lat="44.5539940" lon="7.1527760">
        <ele>1893.2</ele>
        <time>2017-07-24T12:53:14Z</time>
      </trkpt>
      <trkpt lat="44.5538630" lon="7.1528220">
        <ele>1894.4</ele>
        <time>2017-07-24T12:53:19Z</time>
      </trkpt>
      <trkpt lat="44.5537360" lon="7.1528630">
        <ele>1895.6</ele>
        <time>2017-07-24T12:53:24Z</time>
      </trkpt>
      <trkpt lat="44.5536810" lon="7.1528700">
        <ele>1896.2</ele>
        <time>2017-07-24T12:53:26Z</time>
      </trkpt>
      <trkpt lat="44.5536530" lon="7.1528680">
        <ele>1896.6</ele>
        <time>2017-07-24T12:53:27Z</time>
      </trkpt>
      <trkpt lat="44.5535990" lon="7.1528810">
        <ele>1898.2</ele>
        <time>2017-07-24T12:53:29Z</time>
      </trkpt>
      <trkpt lat="44.5535480" lon="7.1528990">
        <ele>1899.4</ele>
        <time>2017-07-24T12:53:31Z</time>
      </trkpt>
      <trkpt lat="44.5535220" lon="7.1529040">
        <ele>1899.8</ele>
        <time>2017-07-24T12:53:32Z</time>
      </trkpt>
      <trkpt lat="44.5534500" lon="7.1529350">
        <ele>1900.8</ele>
        <time>2017-07-24T12:53:35Z</time>
      </trkpt>
      <trkpt lat="44.5533830" lon="7.1529820">
        <ele>1902.8</ele>
        <time>2017-07-24T12:53:38Z</time>
      </trkpt>
      <trkpt lat="44.5533380" lon="7.1530160">
        <ele>1904.0</ele>
        <time>2017-07-24T12:53:40Z</time>
      </trkpt>
      <trkpt lat="44.5532670" lon="7.1530640">
        <ele>1905.4</ele>
        <time>2017-07-24T12:53:43Z</time>
      </trkpt>
      <trkpt lat="44.5531950" lon="7.1531090">
        <ele>1906.6</ele>
        <time>2017-07-24T12:53:46Z</time>
      </trkpt>
      <trkpt lat="44.5531430" lon="7.1531310">
        <ele>1907.4</ele>
        <time>2017-07-24T12:53:48Z</time>
      </trkpt>
      <trkpt lat="44.5531170" lon="7.1531440">
        <ele>1907.8</ele>
        <time>2017-07-24T12:53:49Z</time>
      </trkpt>
      <trkpt lat="44.5530110" lon="7.1531730">
        <ele>1909.0</ele>
        <time>2017-07-24T12:53:53Z</time>
      </trkpt>
      <trkpt lat="44.5529580" lon="7.1531880">
        <ele>1909.6</ele>
        <time>2017-07-24T12:53:55Z</time>
      </trkpt>
      <trkpt lat="44.5529040" lon="7.1532070">
        <ele>1910.2</ele>
        <time>2017-07-24T12:53:57Z</time>
      </trkpt>
      <trkpt lat="44.5527780" lon="7.1532480">
        <ele>1911.4</ele>
        <time>2017-07-24T12:54:02Z</time>
      </trkpt>
      <trkpt lat="44.5527520" lon="7.1532600">
        <ele>1911.4</ele>
        <time>2017-07-24T12:54:03Z</time>
      </trkpt>
      <trkpt lat="44.5526450" lon="7.1532900">
        <ele>1912.4</ele>
        <time>2017-07-24T12:54:07Z</time>
      </trkpt>
      <trkpt lat="44.5525470" lon="7.1533230">
        <ele>1913.6</ele>
        <time>2017-07-24T12:54:11Z</time>
      </trkpt>
      <trkpt lat="44.5524430" lon="7.1533710">
        <ele>1914.8</ele>
        <time>2017-07-24T12:54:15Z</time>
      </trkpt>
      <trkpt lat="44.5523650" lon="7.1533960">
        <ele>1916.0</ele>
        <time>2017-07-24T12:54:18Z</time>
      </trkpt>
      <trkpt lat="44.5523130" lon="7.1534050">
        <ele>1917.0</ele>
        <time>2017-07-24T12:54:20Z</time>
      </trkpt>
      <trkpt lat="44.5522840" lon="7.1534030">
        <ele>1917.4</ele>
        <time>2017-07-24T12:54:21Z</time>
      </trkpt>
      <trkpt lat="44.5521990" lon="7.1533830">
        <ele>1918.6</ele>
        <time>2017-07-24T12:54:24Z</time>
      </trkpt>
      <trkpt lat="44.5521450" lon="7.1533710">
        <ele>1919.8</ele>
        <time>2017-07-24T12:54:26Z</time>
      </trkpt>
      <trkpt lat="44.5520700" lon="7.1533380">
        <ele>1921.0</ele>
        <time>2017-07-24T12:54:29Z</time>
      </trkpt>
      <trkpt lat="44.5519570" lon="7.1533050">
        <ele>1922.2</ele>
        <time>2017-07-24T12:54:33Z</time>
      </trkpt>
      <trkpt lat="44.5519310" lon="7.1532940">
        <ele>1922.4</ele>
        <time>2017-07-24T12:54:34Z</time>
      </trkpt>
      <trkpt lat="44.5518050" lon="7.1532620">
        <ele>1923.4</ele>
        <time>2017-07-24T12:54:38Z</time>
      </trkpt>
      <trkpt lat="44.5516800" lon="7.1532230">
        <ele>1924.2</ele>
        <time>2017-07-24T12:54:42Z</time>
      </trkpt>
      <trkpt lat="44.5514360" lon="7.1531560">
        <ele>1924.6</ele>
        <time>2017-07-24T12:54:50Z</time>
      </trkpt>
      <trkpt lat="44.5512890" lon="7.1531120">
        <ele>1925.6</ele>
        <time>2017-07-24T12:54:55Z</time>
      </trkpt>
      <trkpt lat="44.5512580" lon="7.1531080">
        <ele>1925.8</ele>
        <time>2017-07-24T12:54:56Z</time>
      </trkpt>
      <trkpt lat="44.5511670" lon="7.1530830">
        <ele>1927.0</ele>
        <time>2017-07-24T12:54:59Z</time>
      </trkpt>
      <trkpt lat="44.5510690" lon="7.1530730">
        <ele>1928.2</ele>
        <time>2017-07-24T12:55:02Z</time>
      </trkpt>
      <trkpt lat="44.5509770" lon="7.1530780">
        <ele>1929.4</ele>
        <time>2017-07-24T12:55:05Z</time>
      </trkpt>
      <trkpt lat="44.5508520" lon="7.1530780">
        <ele>1930.6</ele>
        <time>2017-07-24T12:55:09Z</time>
      </trkpt>
      <trkpt lat="44.5507920" lon="7.1530790">
        <ele>1931.4</ele>
        <time>2017-07-24T12:55:11Z</time>
      </trkpt>
      <trkpt lat="44.5507620" lon="7.1530760">
        <ele>1931.8</ele>
        <time>2017-07-24T12:55:12Z</time>
      </trkpt>
      <trkpt lat="44.5506430" lon="7.1530740">
        <ele>1933.0</ele>
        <time>2017-07-24T12:55:16Z</time>
      </trkpt>
      <trkpt lat="44.5505550" lon="7.1530750">
        <ele>1934.2</ele>
        <time>2017-07-24T12:55:19Z</time>
      </trkpt>
      <trkpt lat="44.5504730" lon="7.1530850">
        <ele>1935.4</ele>
        <time>2017-07-24T12:55:22Z</time>
      </trkpt>
      <trkpt lat="44.5503420" lon="7.1531020">
        <ele>1936.6</ele>
        <time>2017-07-24T12:55:27Z</time>
      </trkpt>
      <trkpt lat="44.5503160" lon="7.1531060">
        <ele>1937.0</ele>
        <time>2017-07-24T12:55:28Z</time>
      </trkpt>
      <trkpt lat="44.5500540" lon="7.1531740">
        <ele>1936.6</ele>
        <time>2017-07-24T12:55:38Z</time>
      </trkpt>
      <trkpt lat="44.5499450" lon="7.1532170">
        <ele>1937.6</ele>
        <time>2017-07-24T12:55:42Z</time>
      </trkpt>
      <trkpt lat="44.5498330" lon="7.1532770">
        <ele>1938.6</ele>
        <time>2017-07-24T12:55:46Z</time>
      </trkpt>
      <trkpt lat="44.5497300" lon="7.1533600">
        <ele>1937.2</ele>
        <time>2017-07-24T12:55:50Z</time>
      </trkpt>
      <trkpt lat="44.5497060" lon="7.1533830">
        <ele>1938.8</ele>
        <time>2017-07-24T12:55:51Z</time>
      </trkpt>
      <trkpt lat="44.5496610" lon="7.1534550">
        <ele>1940.4</ele>
        <time>2017-07-24T12:55:53Z</time>
      </trkpt>
      <trkpt lat="44.5496440" lon="7.1534950">
        <ele>1940.6</ele>
        <time>2017-07-24T12:55:54Z</time>
      </trkpt>
      <trkpt lat="44.5495290" lon="7.1536060">
        <ele>1941.8</ele>
        <time>2017-07-24T12:55:59Z</time>
      </trkpt>
      <trkpt lat="44.5495070" lon="7.1534920">
        <ele>1942.0</ele>
        <time>2017-07-24T12:56:02Z</time>
      </trkpt>
      <trkpt lat="44.5495900" lon="7.1533730">
        <ele>1942.6</ele>
        <time>2017-07-24T12:56:06Z</time>
      </trkpt>
      <trkpt lat="44.5496160" lon="7.1533520">
        <ele>1942.8</ele>
        <time>2017-07-24T12:56:07Z</time>
      </trkpt>
      <trkpt lat="44.5496410" lon="7.1533320">
        <ele>1943.0</ele>
        <time>2017-07-24T12:56:08Z</time>
      </trkpt>
      <trkpt lat="44.5497910" lon="7.1531960">
        <ele>1943.8</ele>
        <time>2017-07-24T12:56:14Z</time>
      </trkpt>
      <trkpt lat="44.5498160" lon="7.1531750">
        <ele>1944.0</ele>
        <time>2017-07-24T12:56:15Z</time>
      </trkpt>
      <trkpt lat="44.5499170" lon="7.1530820">
        <ele>1945.0</ele>
        <time>2017-07-24T12:56:19Z</time>
      </trkpt>
      <trkpt lat="44.5500580" lon="7.1529490">
        <ele>1945.8</ele>
        <time>2017-07-24T12:56:24Z</time>
      </trkpt>
      <trkpt lat="44.5500850" lon="7.1529290">
        <ele>1946.0</ele>
        <time>2017-07-24T12:56:25Z</time>
      </trkpt>
      <trkpt lat="44.5501400" lon="7.1528880">
        <ele>1947.2</ele>
        <time>2017-07-24T12:56:27Z</time>
      </trkpt>
      <trkpt lat="44.5502710" lon="7.1528120">
        <ele>1947.8</ele>
        <time>2017-07-24T12:56:32Z</time>
      </trkpt>
      <trkpt lat="44.5503250" lon="7.1527880">
        <ele>1948.2</ele>
        <time>2017-07-24T12:56:34Z</time>
      </trkpt>
      <trkpt lat="44.5504790" lon="7.1527080">
        <ele>1948.4</ele>
        <time>2017-07-24T12:56:40Z</time>
      </trkpt>
      <trkpt lat="44.5506260" lon="7.1526370">
        <ele>1949.0</ele>
        <time>2017-07-24T12:56:46Z</time>
      </trkpt>
      <trkpt lat="44.5506730" lon="7.1526110">
        <ele>1949.4</ele>
        <time>2017-07-24T12:56:48Z</time>
      </trkpt>
      <trkpt lat="44.5507710" lon="7.1525790">
        <ele>1950.6</ele>
        <time>2017-07-24T12:56:52Z</time>
      </trkpt>
      <trkpt lat="44.5507970" lon="7.1525660">
        <ele>1951.0</ele>
        <time>2017-07-24T12:56:53Z</time>
      </trkpt>
      <trkpt lat="44.5508220" lon="7.1525550">
        <ele>1951.6</ele>
        <time>2017-07-24T12:56:54Z</time>
      </trkpt>
      <trkpt lat="44.5509330" lon="7.1525270">
        <ele>1952.8</ele>
        <time>2017-07-24T12:56:58Z</time>
      </trkpt>
      <trkpt lat="44.5510110" lon="7.1525150">
        <ele>1953.4</ele>
        <time>2017-07-24T12:57:01Z</time>
      </trkpt>
      <trkpt lat="44.5510660" lon="7.1525120">
        <ele>1953.8</ele>
        <time>2017-07-24T12:57:03Z</time>
      </trkpt>
      <trkpt lat="44.5511600" lon="7.1525110">
        <ele>1955.0</ele>
        <time>2017-07-24T12:57:07Z</time>
      </trkpt>
      <trkpt lat="44.5512260" lon="7.1525160">
        <ele>1956.0</ele>
        <time>2017-07-24T12:57:10Z</time>
      </trkpt>
      <trkpt lat="44.5513000" lon="7.1525300">
        <ele>1957.2</ele>
        <time>2017-07-24T12:57:13Z</time>
      </trkpt>
      <trkpt lat="44.5513570" lon="7.1525470">
        <ele>1958.4</ele>
        <time>2017-07-24T12:57:15Z</time>
      </trkpt>
      <trkpt lat="44.5514470" lon="7.1525510">
        <ele>1959.6</ele>
        <time>2017-07-24T12:57:18Z</time>
      </trkpt>
      <trkpt lat="44.5515580" lon="7.1525450">
        <ele>1960.8</ele>
        <time>2017-07-24T12:57:22Z</time>
      </trkpt>
      <trkpt lat="44.5516470" lon="7.1525390">
        <ele>1961.8</ele>
        <time>2017-07-24T12:57:25Z</time>
      </trkpt>
      <trkpt lat="44.5517530" lon="7.1525510">
        <ele>1963.0</ele>
        <time>2017-07-24T12:57:29Z</time>
      </trkpt>
      <trkpt lat="44.5518730" lon="7.1525550">
        <ele>1964.0</ele>
        <time>2017-07-24T12:57:33Z</time>
      </trkpt>
      <trkpt lat="44.5520080" lon="7.1524620">
        <ele>1964.2</ele>
        <time>2017-07-24T12:57:38Z</time>
      </trkpt>
      <trkpt lat="44.5521170" lon="7.1522740">
        <ele>1964.4</ele>
        <time>2017-07-24T12:57:43Z</time>
      </trkpt>
      <trkpt lat="44.5522620" lon="7.1519520">
        <ele>1964.4</ele>
        <time>2017-07-24T12:57:50Z</time>
      </trkpt>
      <trkpt lat="44.5523760" lon="7.1516260">
        <ele>1964.6</ele>
        <time>2017-07-24T12:57:57Z</time>
      </trkpt>
      <trkpt lat="44.5524790" lon="7.1514330">
        <ele>1965.2</ele>
        <time>2017-07-24T12:58:02Z</time>
      </trkpt>
      <trkpt lat="44.5525260" lon="7.1513700">
        <ele>1965.6</ele>
        <time>2017-07-24T12:58:04Z</time>
      </trkpt>
      <trkpt lat="44.5525900" lon="7.1512790">
        <ele>1966.2</ele>
        <time>2017-07-24T12:58:07Z</time>
      </trkpt>
      <trkpt lat="44.5527000" lon="7.1511400">
        <ele>1967.6</ele>
        <time>2017-07-24T12:58:12Z</time>
      </trkpt>
      <trkpt lat="44.5527230" lon="7.1511160">
        <ele>1967.8</ele>
        <time>2017-07-24T12:58:13Z</time>
      </trkpt>
      <trkpt lat="44.5528180" lon="7.1510260">
        <ele>1968.6</ele>
        <time>2017-07-24T12:58:17Z</time>
      </trkpt>
      <trkpt lat="44.5529070" lon="7.1509820">
        <ele>1969.2</ele>
        <time>2017-07-24T12:58:20Z</time>
      </trkpt>
      <trkpt lat="44.5529680" lon="7.1509700">
        <ele>1969.8</ele>
        <time>2017-07-24T12:58:22Z</time>
      </trkpt>
      <trkpt lat="44.5531080" lon="7.1509920">
        <ele>1971.4</ele>
        <time>2017-07-24T12:58:27Z</time>
      </trkpt>
      <trkpt lat="44.5532150" lon="7.1510140">
        <ele>1972.8</ele>
        <time>2017-07-24T12:58:31Z</time>
      </trkpt>
      <trkpt lat="44.5533020" lon="7.1509980">
        <ele>1974.0</ele>
        <time>2017-07-24T12:58:34Z</time>
      </trkpt>
      <trkpt lat="44.5533910" lon="7.1509590">
        <ele>1975.4</ele>
        <time>2017-07-24T12:58:37Z</time>
      </trkpt>
      <trkpt lat="44.5534680" lon="7.1509320">
        <ele>1976.6</ele>
        <time>2017-07-24T12:58:40Z</time>
      </trkpt>
      <trkpt lat="44.5535520" lon="7.1508640">
        <ele>1977.8</ele>
        <time>2017-07-24T12:58:43Z</time>
      </trkpt>
      <trkpt lat="44.5536280" lon="7.1507880">
        <ele>1978.6</ele>
        <time>2017-07-24T12:58:46Z</time>
      </trkpt>
      <trkpt lat="44.5536780" lon="7.1507350">
        <ele>1979.0</ele>
        <time>2017-07-24T12:58:48Z</time>
      </trkpt>
      <trkpt lat="44.5537680" lon="7.1506160">
        <ele>1980.2</ele>
        <time>2017-07-24T12:58:52Z</time>
      </trkpt>
      <trkpt lat="44.5537940" lon="7.1505860">
        <ele>1980.6</ele>
        <time>2017-07-24T12:58:53Z</time>
      </trkpt>
      <trkpt lat="44.5538440" lon="7.1505280">
        <ele>1981.6</ele>
        <time>2017-07-24T12:58:55Z</time>
      </trkpt>
      <trkpt lat="44.5538850" lon="7.1504600">
        <ele>1982.6</ele>
        <time>2017-07-24T12:58:57Z</time>
      </trkpt>
      <trkpt lat="44.5539320" lon="7.1504040">
        <ele>1983.2</ele>
        <time>2017-07-24T12:58:59Z</time>
      </trkpt>
      <trkpt lat="44.5539720" lon="7.1503360">
        <ele>1983.8</ele>
        <time>2017-07-24T12:59:01Z</time>
      </trkpt>
      <trkpt lat="44.5540170" lon="7.1502890">
        <ele>1985.0</ele>
        <time>2017-07-24T12:59:03Z</time>
      </trkpt>
      <trkpt lat="44.5540610" lon="7.1502380">
        <ele>1985.6</ele>
        <time>2017-07-24T12:59:05Z</time>
      </trkpt>
      <trkpt lat="44.5540840" lon="7.1502070">
        <ele>1986.2</ele>
        <time>2017-07-24T12:59:06Z</time>
      </trkpt>
      <trkpt lat="44.5541370" lon="7.1501470">
        <ele>1987.2</ele>
        <time>2017-07-24T12:59:08Z</time>
      </trkpt>
      <trkpt lat="44.5542250" lon="7.1500620">
        <ele>1988.4</ele>
        <time>2017-07-24T12:59:11Z</time>
      </trkpt>
      <trkpt lat="44.5542820" lon="7.1500180">
        <ele>1989.2</ele>
        <time>2017-07-24T12:59:13Z</time>
      </trkpt>
      <trkpt lat="44.5543120" lon="7.1499970">
        <ele>1989.8</ele>
        <time>2017-07-24T12:59:14Z</time>
      </trkpt>
      <trkpt lat="44.5543440" lon="7.1499820">
        <ele>1990.6</ele>
        <time>2017-07-24T12:59:15Z</time>
      </trkpt>
      <trkpt lat="44.5543740" lon="7.1499660">
        <ele>1991.0</ele>
        <time>2017-07-24T12:59:16Z</time>
      </trkpt>
      <trkpt lat="44.5544590" lon="7.1499140">
        <ele>1992.2</ele>
        <time>2017-07-24T12:59:19Z</time>
      </trkpt>
      <trkpt lat="44.5545240" lon="7.1498840">
        <ele>1992.8</ele>
        <time>2017-07-24T12:59:21Z</time>
      </trkpt>
      <trkpt lat="44.5545820" lon="7.1498710">
        <ele>1993.6</ele>
        <time>2017-07-24T12:59:23Z</time>
      </trkpt>
      <trkpt lat="44.5546610" lon="7.1498300">
        <ele>1994.6</ele>
        <time>2017-07-24T12:59:26Z</time>
      </trkpt>
      <trkpt lat="44.5546880" lon="7.1498110">
        <ele>1994.8</ele>
        <time>2017-07-24T12:59:27Z</time>
      </trkpt>
      <trkpt lat="44.5547940" lon="7.1497610">
        <ele>1995.6</ele>
        <time>2017-07-24T12:59:31Z</time>
      </trkpt>
      <trkpt lat="44.5548980" lon="7.1497260">
        <ele>1996.2</ele>
        <time>2017-07-24T12:59:35Z</time>
      </trkpt>
      <trkpt lat="44.5549280" lon="7.1497230">
        <ele>1996.6</ele>
        <time>2017-07-24T12:59:36Z</time>
      </trkpt>
      <trkpt lat="44.5551150" lon="7.1497020">
        <ele>1997.2</ele>
        <time>2017-07-24T12:59:42Z</time>
      </trkpt>
      <trkpt lat="44.5553680" lon="7.1495930">
        <ele>1997.4</ele>
        <time>2017-07-24T12:59:51Z</time>
      </trkpt>
      <trkpt lat="44.5553710" lon="7.1494640">
        <ele>1997.8</ele>
        <time>2017-07-24T12:59:54Z</time>
      </trkpt>
      <trkpt lat="44.5553530" lon="7.1494270">
        <ele>1997.6</ele>
        <time>2017-07-24T12:59:55Z</time>
      </trkpt>
      <trkpt lat="44.5552510" lon="7.1493320">
        <ele>1997.6</ele>
        <time>2017-07-24T12:59:59Z</time>
      </trkpt>
      <trkpt lat="44.5552230" lon="7.1493130">
        <ele>1997.8</ele>
        <time>2017-07-24T13:00:00Z</time>
      </trkpt>
      <trkpt lat="44.5550360" lon="7.1491080">
        <ele>1998.4</ele>
        <time>2017-07-24T13:00:08Z</time>
      </trkpt>
      <trkpt lat="44.5549780" lon="7.1490130">
        <ele>1998.8</ele>
        <time>2017-07-24T13:00:11Z</time>
      </trkpt>
      <trkpt lat="44.5549280" lon="7.1489280">
        <ele>1999.2</ele>
        <time>2017-07-24T13:00:14Z</time>
      </trkpt>
      <trkpt lat="44.5548310" lon="7.1487190">
        <ele>2000.0</ele>
        <time>2017-07-24T13:00:21Z</time>
      </trkpt>
      <trkpt lat="44.5547680" lon="7.1485510">
        <ele>2001.2</ele>
        <time>2017-07-24T13:00:26Z</time>
      </trkpt>
      <trkpt lat="44.5547420" lon="7.1484880">
        <ele>2001.2</ele>
        <time>2017-07-24T13:00:28Z</time>
      </trkpt>
      <trkpt lat="44.5547110" lon="7.1484240">
        <ele>2002.6</ele>
        <time>2017-07-24T13:00:30Z</time>
      </trkpt>
      <trkpt lat="44.5546600" lon="7.1482760">
        <ele>2003.6</ele>
        <time>2017-07-24T13:00:34Z</time>
      </trkpt>
      <trkpt lat="44.5546440" lon="7.1482370">
        <ele>2003.6</ele>
        <time>2017-07-24T13:00:35Z</time>
      </trkpt>
      <trkpt lat="44.5545200" lon="7.1478910">
        <ele>2004.6</ele>
        <time>2017-07-24T13:00:44Z</time>
      </trkpt>
      <trkpt lat="44.5544650" lon="7.1476250">
        <ele>2005.6</ele>
        <time>2017-07-24T13:00:51Z</time>
      </trkpt>
      <trkpt lat="44.5544610" lon="7.1475840">
        <ele>2005.8</ele>
        <time>2017-07-24T13:00:52Z</time>
      </trkpt>
      <trkpt lat="44.5544230" lon="7.1473200">
        <ele>2006.8</ele>
        <time>2017-07-24T13:00:58Z</time>
      </trkpt>
      <trkpt lat="44.5543780" lon="7.1471380">
        <ele>2008.0</ele>
        <time>2017-07-24T13:01:03Z</time>
      </trkpt>
      <trkpt lat="44.5543280" lon="7.1470270">
        <ele>2008.4</ele>
        <time>2017-07-24T13:01:06Z</time>
      </trkpt>
      <trkpt lat="44.5542750" lon="7.1469120">
        <ele>2009.2</ele>
        <time>2017-07-24T13:01:09Z</time>
      </trkpt>
      <trkpt lat="44.5541870" lon="7.1467270">
        <ele>2010.4</ele>
        <time>2017-07-24T13:01:14Z</time>
      </trkpt>
      <trkpt lat="44.5541640" lon="7.1466850">
        <ele>2010.8</ele>
        <time>2017-07-24T13:01:15Z</time>
      </trkpt>
      <trkpt lat="44.5540690" lon="7.1464980">
        <ele>2011.6</ele>
        <time>2017-07-24T13:01:20Z</time>
      </trkpt>
      <trkpt lat="44.5540160" lon="7.1464060">
        <ele>2012.4</ele>
        <time>2017-07-24T13:01:23Z</time>
      </trkpt>
      <trkpt lat="44.5539830" lon="7.1463420">
        <ele>2012.6</ele>
        <time>2017-07-24T13:01:25Z</time>
      </trkpt>
      <trkpt lat="44.5539290" lon="7.1462060">
        <ele>2013.6</ele>
        <time>2017-07-24T13:01:29Z</time>
      </trkpt>
      <trkpt lat="44.5539000" lon="7.1461060">
        <ele>2014.4</ele>
        <time>2017-07-24T13:01:32Z</time>
      </trkpt>
      <trkpt lat="44.5538840" lon="7.1460360">
        <ele>2014.8</ele>
        <time>2017-07-24T13:01:34Z</time>
      </trkpt>
      <trkpt lat="44.5538500" lon="7.1458610">
        <ele>2016.2</ele>
        <time>2017-07-24T13:01:39Z</time>
      </trkpt>
      <trkpt lat="44.5538410" lon="7.1458230">
        <ele>2016.4</ele>
        <time>2017-07-24T13:01:40Z</time>
      </trkpt>
      <trkpt lat="44.5538190" lon="7.1456870">
        <ele>2017.4</ele>
        <time>2017-07-24T13:01:44Z</time>
      </trkpt>
      <trkpt lat="44.5538160" lon="7.1456530">
        <ele>2017.6</ele>
        <time>2017-07-24T13:01:45Z</time>
      </trkpt>
      <trkpt lat="44.5538210" lon="7.1455500">
        <ele>2018.4</ele>
        <time>2017-07-24T13:01:48Z</time>
      </trkpt>
      <trkpt lat="44.5538280" lon="7.1453750">
        <ele>2019.8</ele>
        <time>2017-07-24T13:01:53Z</time>
      </trkpt>
      <trkpt lat="44.5538290" lon="7.1453390">
        <ele>2020.0</ele>
        <time>2017-07-24T13:01:54Z</time>
      </trkpt>
      <trkpt lat="44.5538150" lon="7.1452020">
        <ele>2021.0</ele>
        <time>2017-07-24T13:01:58Z</time>
      </trkpt>
      <trkpt lat="44.5538140" lon="7.1451340">
        <ele>2021.4</ele>
        <time>2017-07-24T13:02:00Z</time>
      </trkpt>
      <trkpt lat="44.5538000" lon="7.1450280">
        <ele>2022.4</ele>
        <time>2017-07-24T13:02:03Z</time>
      </trkpt>
      <trkpt lat="44.5537670" lon="7.1448510">
        <ele>2023.4</ele>
        <time>2017-07-24T13:02:08Z</time>
      </trkpt>
      <trkpt lat="44.5537600" lon="7.1448150">
        <ele>2023.6</ele>
        <time>2017-07-24T13:02:09Z</time>
      </trkpt>
      <trkpt lat="44.5537390" lon="7.1445980">
        <ele>2024.6</ele>
        <time>2017-07-24T13:02:15Z</time>
      </trkpt>
      <trkpt lat="44.5537380" lon="7.1445520">
        <ele>2024.8</ele>
        <time>2017-07-24T13:02:16Z</time>
      </trkpt>
      <trkpt lat="44.5537040" lon="7.1442690">
        <ele>2025.8</ele>
        <time>2017-07-24T13:02:23Z</time>
      </trkpt>
      <trkpt lat="44.5536540" lon="7.1441430">
        <ele>2027.4</ele>
        <time>2017-07-24T13:02:27Z</time>
      </trkpt>
      <trkpt lat="44.5536080" lon="7.1440560">
        <ele>2028.0</ele>
        <time>2017-07-24T13:02:30Z</time>
      </trkpt>
      <trkpt lat="44.5535930" lon="7.1440280">
        <ele>2028.4</ele>
        <time>2017-07-24T13:02:31Z</time>
      </trkpt>
      <trkpt lat="44.5535310" lon="7.1439220">
        <ele>2029.4</ele>
        <time>2017-07-24T13:02:35Z</time>
      </trkpt>
      <trkpt lat="44.5534730" lon="7.1438010">
        <ele>2030.2</ele>
        <time>2017-07-24T13:02:39Z</time>
      </trkpt>
      <trkpt lat="44.5534450" lon="7.1437360">
        <ele>2030.4</ele>
        <time>2017-07-24T13:02:41Z</time>
      </trkpt>
      <trkpt lat="44.5533950" lon="7.1435330">
        <ele>2031.6</ele>
        <time>2017-07-24T13:02:47Z</time>
      </trkpt>
      <trkpt lat="44.5534000" lon="7.1433880">
        <ele>2032.8</ele>
        <time>2017-07-24T13:02:51Z</time>
      </trkpt>
      <trkpt lat="44.5534260" lon="7.1432580">
        <ele>2033.8</ele>
        <time>2017-07-24T13:02:55Z</time>
      </trkpt>
      <trkpt lat="44.5534380" lon="7.1432290">
        <ele>2034.2</ele>
        <time>2017-07-24T13:02:56Z</time>
      </trkpt>
      <trkpt lat="44.5534990" lon="7.1430570">
        <ele>2035.4</ele>
        <time>2017-07-24T13:03:01Z</time>
      </trkpt>
      <trkpt lat="44.5535110" lon="7.1430220">
        <ele>2035.4</ele>
        <time>2017-07-24T13:03:02Z</time>
      </trkpt>
      <trkpt lat="44.5535720" lon="7.1429010">
        <ele>2036.4</ele>
        <time>2017-07-24T13:03:06Z</time>
      </trkpt>
      <trkpt lat="44.5536210" lon="7.1428150">
        <ele>2037.2</ele>
        <time>2017-07-24T13:03:09Z</time>
      </trkpt>
      <trkpt lat="44.5536380" lon="7.1427840">
        <ele>2037.4</ele>
        <time>2017-07-24T13:03:10Z</time>
      </trkpt>
      <trkpt lat="44.5536570" lon="7.1427550">
        <ele>2037.8</ele>
        <time>2017-07-24T13:03:11Z</time>
      </trkpt>
      <trkpt lat="44.5537120" lon="7.1426180">
        <ele>2039.4</ele>
        <time>2017-07-24T13:03:15Z</time>
      </trkpt>
      <trkpt lat="44.5537280" lon="7.1425440">
        <ele>2039.8</ele>
        <time>2017-07-24T13:03:17Z</time>
      </trkpt>
      <trkpt lat="44.5537210" lon="7.1424690">
        <ele>2040.6</ele>
        <time>2017-07-24T13:03:19Z</time>
      </trkpt>
      <trkpt lat="44.5536940" lon="7.1423970">
        <ele>2041.8</ele>
        <time>2017-07-24T13:03:21Z</time>
      </trkpt>
      <trkpt lat="44.5536750" lon="7.1423620">
        <ele>2042.4</ele>
        <time>2017-07-24T13:03:22Z</time>
      </trkpt>
      <trkpt lat="44.5536540" lon="7.1423280">
        <ele>2042.8</ele>
        <time>2017-07-24T13:03:23Z</time>
      </trkpt>
      <trkpt lat="44.5535880" lon="7.1422270">
        <ele>2044.4</ele>
        <time>2017-07-24T13:03:26Z</time>
      </trkpt>
      <trkpt lat="44.5535400" lon="7.1421660">
        <ele>2045.4</ele>
        <time>2017-07-24T13:03:28Z</time>
      </trkpt>
      <trkpt lat="44.5534930" lon="7.1421040">
        <ele>2046.6</ele>
        <time>2017-07-24T13:03:30Z</time>
      </trkpt>
      <trkpt lat="44.5534470" lon="7.1420440">
        <ele>2047.8</ele>
        <time>2017-07-24T13:03:32Z</time>
      </trkpt>
      <trkpt lat="44.5533990" lon="7.1419890">
        <ele>2049.0</ele>
        <time>2017-07-24T13:03:34Z</time>
      </trkpt>
      <trkpt lat="44.5533330" lon="7.1419090">
        <ele>2050.4</ele>
        <time>2017-07-24T13:03:37Z</time>
      </trkpt>
      <trkpt lat="44.5532890" lon="7.1418600">
        <ele>2052.0</ele>
        <time>2017-07-24T13:03:39Z</time>
      </trkpt>
      <trkpt lat="44.5532640" lon="7.1418380">
        <ele>2052.6</ele>
        <time>2017-07-24T13:03:40Z</time>
      </trkpt>
      <trkpt lat="44.5532140" lon="7.1418060">
        <ele>2053.6</ele>
        <time>2017-07-24T13:03:42Z</time>
      </trkpt>
      <trkpt lat="44.5531620" lon="7.1417760">
        <ele>2054.6</ele>
        <time>2017-07-24T13:03:44Z</time>
      </trkpt>
      <trkpt lat="44.5530860" lon="7.1417240">
        <ele>2055.0</ele>
        <time>2017-07-24T13:03:47Z</time>
      </trkpt>
      <trkpt lat="44.5530590" lon="7.1417120">
        <ele>2056.8</ele>
        <time>2017-07-24T13:03:48Z</time>
      </trkpt>
      <trkpt lat="44.5530320" lon="7.1417010">
        <ele>2058.2</ele>
        <time>2017-07-24T13:03:49Z</time>
      </trkpt>
      <trkpt lat="44.5529310" lon="7.1416360">
        <ele>2057.0</ele>
        <time>2017-07-24T13:03:53Z</time>
      </trkpt>
      <trkpt lat="44.5529070" lon="7.1416180">
        <ele>2058.2</ele>
        <time>2017-07-24T13:03:54Z</time>
      </trkpt>
      <trkpt lat="44.5527450" lon="7.1414490">
        <ele>2058.8</ele>
        <time>2017-07-24T13:04:02Z</time>
      </trkpt>
      <trkpt lat="44.5526290" lon="7.1413180">
        <ele>2059.0</ele>
        <time>2017-07-24T13:04:08Z</time>
      </trkpt>
      <trkpt lat="44.5525930" lon="7.1412750">
        <ele>2059.4</ele>
        <time>2017-07-24T13:04:10Z</time>
      </trkpt>
      <trkpt lat="44.5524820" lon="7.1411370">
        <ele>2060.2</ele>
        <time>2017-07-24T13:04:16Z</time>
      </trkpt>
      <trkpt lat="44.5524220" lon="7.1410750">
        <ele>2060.4</ele>
        <time>2017-07-24T13:04:19Z</time>
      </trkpt>
      <trkpt lat="44.5522760" lon="7.1409910">
        <ele>2060.8</ele>
        <time>2017-07-24T13:04:25Z</time>
      </trkpt>
      <trkpt lat="44.5522290" lon="7.1409650">
        <ele>2061.4</ele>
        <time>2017-07-24T13:04:27Z</time>
      </trkpt>
      <trkpt lat="44.5521500" lon="7.1409410">
        <ele>2062.4</ele>
        <time>2017-07-24T13:04:30Z</time>
      </trkpt>
      <trkpt lat="44.5520960" lon="7.1409340">
        <ele>2062.8</ele>
        <time>2017-07-24T13:04:32Z</time>
      </trkpt>
      <trkpt lat="44.5519920" lon="7.1409100">
        <ele>2063.6</ele>
        <time>2017-07-24T13:04:36Z</time>
      </trkpt>
      <trkpt lat="44.5518900" lon="7.1409030">
        <ele>2064.2</ele>
        <time>2017-07-24T13:04:40Z</time>
      </trkpt>
      <trkpt lat="44.5518150" lon="7.1408850">
        <ele>2064.8</ele>
        <time>2017-07-24T13:04:43Z</time>
      </trkpt>
      <trkpt lat="44.5517120" lon="7.1408770">
        <ele>2066.0</ele>
        <time>2017-07-24T13:04:47Z</time>
      </trkpt>
      <trkpt lat="44.5516890" lon="7.1408690">
        <ele>2066.4</ele>
        <time>2017-07-24T13:04:48Z</time>
      </trkpt>
      <trkpt lat="44.5516380" lon="7.1408450">
        <ele>2067.2</ele>
        <time>2017-07-24T13:04:50Z</time>
      </trkpt>
      <trkpt lat="44.5515860" lon="7.1408260">
        <ele>2068.2</ele>
        <time>2017-07-24T13:04:52Z</time>
      </trkpt>
      <trkpt lat="44.5515100" lon="7.1407890">
        <ele>2069.4</ele>
        <time>2017-07-24T13:04:55Z</time>
      </trkpt>
      <trkpt lat="44.5514890" lon="7.1407740">
        <ele>2069.8</ele>
        <time>2017-07-24T13:04:56Z</time>
      </trkpt>
      <trkpt lat="44.5514450" lon="7.1407420">
        <ele>2070.4</ele>
        <time>2017-07-24T13:04:58Z</time>
      </trkpt>
      <trkpt lat="44.5513770" lon="7.1406980">
        <ele>2071.6</ele>
        <time>2017-07-24T13:05:01Z</time>
      </trkpt>
      <trkpt lat="44.5513290" lon="7.1406080">
        <ele>2072.6</ele>
        <time>2017-07-24T13:05:04Z</time>
      </trkpt>
      <trkpt lat="44.5513220" lon="7.1405700">
        <ele>2072.8</ele>
        <time>2017-07-24T13:05:05Z</time>
      </trkpt>
      <trkpt lat="44.5513360" lon="7.1404590">
        <ele>2074.0</ele>
        <time>2017-07-24T13:05:08Z</time>
      </trkpt>
      <trkpt lat="44.5513540" lon="7.1403250">
        <ele>2075.2</ele>
        <time>2017-07-24T13:05:12Z</time>
      </trkpt>
      <trkpt lat="44.5513570" lon="7.1402200">
        <ele>2077.0</ele>
        <time>2017-07-24T13:05:15Z</time>
      </trkpt>
      <trkpt lat="44.5513570" lon="7.1401090">
        <ele>2078.2</ele>
        <time>2017-07-24T13:05:18Z</time>
      </trkpt>
      <trkpt lat="44.5513580" lon="7.1400030">
        <ele>2079.2</ele>
        <time>2017-07-24T13:05:21Z</time>
      </trkpt>
      <trkpt lat="44.5513520" lon="7.1399350">
        <ele>2080.2</ele>
        <time>2017-07-24T13:05:23Z</time>
      </trkpt>
      <trkpt lat="44.5513460" lon="7.1399010">
        <ele>2080.6</ele>
        <time>2017-07-24T13:05:24Z</time>
      </trkpt>
      <trkpt lat="44.5513280" lon="7.1398000">
        <ele>2081.8</ele>
        <time>2017-07-24T13:05:27Z</time>
      </trkpt>
      <trkpt lat="44.5513080" lon="7.1396640">
        <ele>2083.0</ele>
        <time>2017-07-24T13:05:31Z</time>
      </trkpt>
      <trkpt lat="44.5512990" lon="7.1396330">
        <ele>2083.6</ele>
        <time>2017-07-24T13:05:32Z</time>
      </trkpt>
      <trkpt lat="44.5512810" lon="7.1395730">
        <ele>2084.2</ele>
        <time>2017-07-24T13:05:34Z</time>
      </trkpt>
      <trkpt lat="44.5512290" lon="7.1394460">
        <ele>2085.4</ele>
        <time>2017-07-24T13:05:38Z</time>
      </trkpt>
      <trkpt lat="44.5512070" lon="7.1393820">
        <ele>2086.0</ele>
        <time>2017-07-24T13:05:40Z</time>
      </trkpt>
      <trkpt lat="44.5511160" lon="7.1392210">
        <ele>2086.4</ele>
        <time>2017-07-24T13:05:45Z</time>
      </trkpt>
      <trkpt lat="44.5510950" lon="7.1391950">
        <ele>2086.4</ele>
        <time>2017-07-24T13:05:46Z</time>
      </trkpt>
      <trkpt lat="44.5509530" lon="7.1389590">
        <ele>2087.6</ele>
        <time>2017-07-24T13:05:54Z</time>
      </trkpt>
      <trkpt lat="44.5508480" lon="7.1387510">
        <ele>2088.6</ele>
        <time>2017-07-24T13:06:00Z</time>
      </trkpt>
      <trkpt lat="44.5508280" lon="7.1386820">
        <ele>2089.0</ele>
        <time>2017-07-24T13:06:02Z</time>
      </trkpt>
      <trkpt lat="44.5508160" lon="7.1386510">
        <ele>2089.6</ele>
        <time>2017-07-24T13:06:03Z</time>
      </trkpt>
      <trkpt lat="44.5507750" lon="7.1385100">
        <ele>2090.8</ele>
        <time>2017-07-24T13:06:07Z</time>
      </trkpt>
      <trkpt lat="44.5507450" lon="7.1384040">
        <ele>2092.0</ele>
        <time>2017-07-24T13:06:10Z</time>
      </trkpt>
      <trkpt lat="44.5507180" lon="7.1383040">
        <ele>2093.0</ele>
        <time>2017-07-24T13:06:13Z</time>
      </trkpt>
      <trkpt lat="44.5506910" lon="7.1382080">
        <ele>2094.0</ele>
        <time>2017-07-24T13:06:16Z</time>
      </trkpt>
      <trkpt lat="44.5506670" lon="7.1381460">
        <ele>2094.8</ele>
        <time>2017-07-24T13:06:18Z</time>
      </trkpt>
      <trkpt lat="44.5506580" lon="7.1381100">
        <ele>2095.2</ele>
        <time>2017-07-24T13:06:19Z</time>
      </trkpt>
      <trkpt lat="44.5506180" lon="7.1379780">
        <ele>2096.4</ele>
        <time>2017-07-24T13:06:23Z</time>
      </trkpt>
      <trkpt lat="44.5506020" lon="7.1379110">
        <ele>2097.2</ele>
        <time>2017-07-24T13:06:25Z</time>
      </trkpt>
      <trkpt lat="44.5505940" lon="7.1378710">
        <ele>2097.6</ele>
        <time>2017-07-24T13:06:26Z</time>
      </trkpt>
      <trkpt lat="44.5505610" lon="7.1377640">
        <ele>2098.6</ele>
        <time>2017-07-24T13:06:29Z</time>
      </trkpt>
      <trkpt lat="44.5505330" lon="7.1376660">
        <ele>2099.6</ele>
        <time>2017-07-24T13:06:32Z</time>
      </trkpt>
      <trkpt lat="44.5505200" lon="7.1376390">
        <ele>2099.8</ele>
        <time>2017-07-24T13:06:33Z</time>
      </trkpt>
      <trkpt lat="44.5504660" lon="7.1375720">
        <ele>2100.8</ele>
        <time>2017-07-24T13:06:36Z</time>
      </trkpt>
      <trkpt lat="44.5504490" lon="7.1375480">
        <ele>2101.0</ele>
        <time>2017-07-24T13:06:37Z</time>
      </trkpt>
      <trkpt lat="44.5504150" lon="7.1374970">
        <ele>2101.4</ele>
        <time>2017-07-24T13:06:39Z</time>
      </trkpt>
      <trkpt lat="44.5503760" lon="7.1374530">
        <ele>2102.0</ele>
        <time>2017-07-24T13:06:41Z</time>
      </trkpt>
      <trkpt lat="44.5502800" lon="7.1374010">
        <ele>2103.0</ele>
        <time>2017-07-24T13:06:45Z</time>
      </trkpt>
      <trkpt lat="44.5501490" lon="7.1373670">
        <ele>2104.2</ele>
        <time>2017-07-24T13:06:50Z</time>
      </trkpt>
      <trkpt lat="44.5500930" lon="7.1373630">
        <ele>2104.8</ele>
        <time>2017-07-24T13:06:52Z</time>
      </trkpt>
      <trkpt lat="44.5500450" lon="7.1373480">
        <ele>2105.4</ele>
        <time>2017-07-24T13:06:54Z</time>
      </trkpt>
      <trkpt lat="44.5499690" lon="7.1373740">
        <ele>2106.0</ele>
        <time>2017-07-24T13:06:57Z</time>
      </trkpt>
      <trkpt lat="44.5499190" lon="7.1373800">
        <ele>2106.4</ele>
        <time>2017-07-24T13:06:59Z</time>
      </trkpt>
      <trkpt lat="44.5497650" lon="7.1373960">
        <ele>2107.6</ele>
        <time>2017-07-24T13:07:05Z</time>
      </trkpt>
      <trkpt lat="44.5496640" lon="7.1373800">
        <ele>2108.8</ele>
        <time>2017-07-24T13:07:09Z</time>
      </trkpt>
      <trkpt lat="44.5495960" lon="7.1373430">
        <ele>2109.6</ele>
        <time>2017-07-24T13:07:12Z</time>
      </trkpt>
      <trkpt lat="44.5495550" lon="7.1372980">
        <ele>2110.0</ele>
        <time>2017-07-24T13:07:14Z</time>
      </trkpt>
      <trkpt lat="44.5494930" lon="7.1372370">
        <ele>2111.0</ele>
        <time>2017-07-24T13:07:17Z</time>
      </trkpt>
      <trkpt lat="44.5494490" lon="7.1371970">
        <ele>2111.4</ele>
        <time>2017-07-24T13:07:19Z</time>
      </trkpt>
      <trkpt lat="44.5493730" lon="7.1370900">
        <ele>2112.0</ele>
        <time>2017-07-24T13:07:23Z</time>
      </trkpt>
      <trkpt lat="44.5493390" lon="7.1369900">
        <ele>2111.8</ele>
        <time>2017-07-24T13:07:26Z</time>
      </trkpt>
      <trkpt lat="44.5492720" lon="7.1367190">
        <ele>2111.0</ele>
        <time>2017-07-24T13:07:34Z</time>
      </trkpt>
      <trkpt lat="44.5492590" lon="7.1366910">
        <ele>2111.0</ele>
        <time>2017-07-24T13:07:35Z</time>
      </trkpt>
      <trkpt lat="44.5491660" lon="7.1365690">
        <ele>2110.4</ele>
        <time>2017-07-24T13:07:40Z</time>
      </trkpt>
      <trkpt lat="44.5491160" lon="7.1365370">
        <ele>2110.2</ele>
        <time>2017-07-24T13:07:42Z</time>
      </trkpt>
      <trkpt lat="44.5489410" lon="7.1364790">
        <ele>2110.4</ele>
        <time>2017-07-24T13:07:49Z</time>
      </trkpt>
      <trkpt lat="44.5487170" lon="7.1364560">
        <ele>2110.2</ele>
        <time>2017-07-24T13:07:57Z</time>
      </trkpt>
      <trkpt lat="44.5485400" lon="7.1364330">
        <ele>2111.2</ele>
        <time>2017-07-24T13:08:04Z</time>
      </trkpt>
      <trkpt lat="44.5484290" lon="7.1363580">
        <ele>2112.2</ele>
        <time>2017-07-24T13:08:09Z</time>
      </trkpt>
      <trkpt lat="44.5483920" lon="7.1363140">
        <ele>2112.4</ele>
        <time>2017-07-24T13:08:11Z</time>
      </trkpt>
      <trkpt lat="44.5483230" lon="7.1362580">
        <ele>2113.2</ele>
        <time>2017-07-24T13:08:14Z</time>
      </trkpt>
      <trkpt lat="44.5482450" lon="7.1361920">
        <ele>2114.0</ele>
        <time>2017-07-24T13:08:17Z</time>
      </trkpt>
      <trkpt lat="44.5482020" lon="7.1361340">
        <ele>2114.4</ele>
        <time>2017-07-24T13:08:19Z</time>
      </trkpt>
      <trkpt lat="44.5481170" lon="7.1360320">
        <ele>2116.0</ele>
        <time>2017-07-24T13:08:23Z</time>
      </trkpt>
      <trkpt lat="44.5480990" lon="7.1360000">
        <ele>2116.6</ele>
        <time>2017-07-24T13:08:24Z</time>
      </trkpt>
      <trkpt lat="44.5480770" lon="7.1359760">
        <ele>2117.0</ele>
        <time>2017-07-24T13:08:25Z</time>
      </trkpt>
      <trkpt lat="44.5480260" lon="7.1359330">
        <ele>2118.6</ele>
        <time>2017-07-24T13:08:27Z</time>
      </trkpt>
      <trkpt lat="44.5479820" lon="7.1358820">
        <ele>2120.0</ele>
        <time>2017-07-24T13:08:29Z</time>
      </trkpt>
      <trkpt lat="44.5479620" lon="7.1358570">
        <ele>2120.6</ele>
        <time>2017-07-24T13:08:30Z</time>
      </trkpt>
      <trkpt lat="44.5479440" lon="7.1358310">
        <ele>2121.4</ele>
        <time>2017-07-24T13:08:31Z</time>
      </trkpt>
      <trkpt lat="44.5479070" lon="7.1357820">
        <ele>2122.6</ele>
        <time>2017-07-24T13:08:33Z</time>
      </trkpt>
      <trkpt lat="44.5478680" lon="7.1357220">
        <ele>2123.6</ele>
        <time>2017-07-24T13:08:35Z</time>
      </trkpt>
      <trkpt lat="44.5478350" lon="7.1356550">
        <ele>2124.8</ele>
        <time>2017-07-24T13:08:37Z</time>
      </trkpt>
      <trkpt lat="44.5478220" lon="7.1356190">
        <ele>2125.4</ele>
        <time>2017-07-24T13:08:38Z</time>
      </trkpt>
      <trkpt lat="44.5478070" lon="7.1355820">
        <ele>2125.8</ele>
        <time>2017-07-24T13:08:39Z</time>
      </trkpt>
      <trkpt lat="44.5477930" lon="7.1355080">
        <ele>2127.0</ele>
        <time>2017-07-24T13:08:41Z</time>
      </trkpt>
      <trkpt lat="44.5477780" lon="7.1354430">
        <ele>2128.0</ele>
        <time>2017-07-24T13:08:43Z</time>
      </trkpt>
      <trkpt lat="44.5477670" lon="7.1353750">
        <ele>2129.0</ele>
        <time>2017-07-24T13:08:45Z</time>
      </trkpt>
      <trkpt lat="44.5477580" lon="7.1353430">
        <ele>2129.2</ele>
        <time>2017-07-24T13:08:46Z</time>
      </trkpt>
      <trkpt lat="44.5477450" lon="7.1352760">
        <ele>2130.2</ele>
        <time>2017-07-24T13:08:48Z</time>
      </trkpt>
      <trkpt lat="44.5477390" lon="7.1351760">
        <ele>2132.2</ele>
        <time>2017-07-24T13:08:51Z</time>
      </trkpt>
      <trkpt lat="44.5477310" lon="7.1351440">
        <ele>2132.6</ele>
        <time>2017-07-24T13:08:52Z</time>
      </trkpt>
      <trkpt lat="44.5477180" lon="7.1350710">
        <ele>2133.2</ele>
        <time>2017-07-24T13:08:54Z</time>
      </trkpt>
      <trkpt lat="44.5477040" lon="7.1349590">
        <ele>2134.4</ele>
        <time>2017-07-24T13:08:57Z</time>
      </trkpt>
      <trkpt lat="44.5476960" lon="7.1348470">
        <ele>2134.4</ele>
        <time>2017-07-24T13:09:00Z</time>
      </trkpt>
      <trkpt lat="44.5476900" lon="7.1347030">
        <ele>2135.6</ele>
        <time>2017-07-24T13:09:04Z</time>
      </trkpt>
      <trkpt lat="44.5476950" lon="7.1346280">
        <ele>2137.0</ele>
        <time>2017-07-24T13:09:06Z</time>
      </trkpt>
      <trkpt lat="44.5476950" lon="7.1345210">
        <ele>2137.8</ele>
        <time>2017-07-24T13:09:09Z</time>
      </trkpt>
      <trkpt lat="44.5476910" lon="7.1344830">
        <ele>2138.2</ele>
        <time>2017-07-24T13:09:10Z</time>
      </trkpt>
      <trkpt lat="44.5477050" lon="7.1343050">
        <ele>2139.4</ele>
        <time>2017-07-24T13:09:15Z</time>
      </trkpt>
      <trkpt lat="44.5477040" lon="7.1342700">
        <ele>2139.6</ele>
        <time>2017-07-24T13:09:16Z</time>
      </trkpt>
      <trkpt lat="44.5477070" lon="7.1341740">
        <ele>2140.4</ele>
        <time>2017-07-24T13:09:19Z</time>
      </trkpt>
      <trkpt lat="44.5477100" lon="7.1340350">
        <ele>2140.8</ele>
        <time>2017-07-24T13:09:23Z</time>
      </trkpt>
      <trkpt lat="44.5477220" lon="7.1336840">
        <ele>2139.8</ele>
        <time>2017-07-24T13:09:32Z</time>
      </trkpt>
      <trkpt lat="44.5477350" lon="7.1334390">
        <ele>2139.6</ele>
        <time>2017-07-24T13:09:39Z</time>
      </trkpt>
      <trkpt lat="44.5477820" lon="7.1330950">
        <ele>2139.6</ele>
        <time>2017-07-24T13:09:48Z</time>
      </trkpt>
      <trkpt lat="44.5478200" lon="7.1328140">
        <ele>2140.0</ele>
        <time>2017-07-24T13:09:56Z</time>
      </trkpt>
      <trkpt lat="44.5478040" lon="7.1325640">
        <ele>2141.8</ele>
        <time>2017-07-24T13:10:03Z</time>
      </trkpt>
      <trkpt lat="44.5477520" lon="7.1324110">
        <ele>2143.0</ele>
        <time>2017-07-24T13:10:07Z</time>
      </trkpt>
      <trkpt lat="44.5477170" lon="7.1322880">
        <ele>2143.6</ele>
        <time>2017-07-24T13:10:10Z</time>
      </trkpt>
      <trkpt lat="44.5477090" lon="7.1322050">
        <ele>2144.2</ele>
        <time>2017-07-24T13:10:12Z</time>
      </trkpt>
      <trkpt lat="44.5477010" lon="7.1320850">
        <ele>2145.4</ele>
        <time>2017-07-24T13:10:15Z</time>
      </trkpt>
      <trkpt lat="44.5476970" lon="7.1320470">
        <ele>2145.8</ele>
        <time>2017-07-24T13:10:16Z</time>
      </trkpt>
      <trkpt lat="44.5476750" lon="7.1319810">
        <ele>2146.6</ele>
        <time>2017-07-24T13:10:18Z</time>
      </trkpt>
      <trkpt lat="44.5476180" lon="7.1318870">
        <ele>2147.4</ele>
        <time>2017-07-24T13:10:21Z</time>
      </trkpt>
      <trkpt lat="44.5475940" lon="7.1318560">
        <ele>2147.6</ele>
        <time>2017-07-24T13:10:22Z</time>
      </trkpt>
      <trkpt lat="44.5475140" lon="7.1317370">
        <ele>2148.6</ele>
        <time>2017-07-24T13:10:26Z</time>
      </trkpt>
      <trkpt lat="44.5474890" lon="7.1316360">
        <ele>2149.2</ele>
        <time>2017-07-24T13:10:29Z</time>
      </trkpt>
      <trkpt lat="44.5474820" lon="7.1315630">
        <ele>2149.8</ele>
        <time>2017-07-24T13:10:31Z</time>
      </trkpt>
      <trkpt lat="44.5474850" lon="7.1314220">
        <ele>2150.8</ele>
        <time>2017-07-24T13:10:35Z</time>
      </trkpt>
      <trkpt lat="44.5474880" lon="7.1313850">
        <ele>2151.0</ele>
        <time>2017-07-24T13:10:36Z</time>
      </trkpt>
      <trkpt lat="44.5475060" lon="7.1312800">
        <ele>2152.2</ele>
        <time>2017-07-24T13:10:39Z</time>
      </trkpt>
      <trkpt lat="44.5475190" lon="7.1311670">
        <ele>2153.4</ele>
        <time>2017-07-24T13:10:42Z</time>
      </trkpt>
      <trkpt lat="44.5475260" lon="7.1310940">
        <ele>2153.8</ele>
        <time>2017-07-24T13:10:44Z</time>
      </trkpt>
      <trkpt lat="44.5475570" lon="7.1309540">
        <ele>2154.4</ele>
        <time>2017-07-24T13:10:48Z</time>
      </trkpt>
      <trkpt lat="44.5475660" lon="7.1308520">
        <ele>2154.8</ele>
        <time>2017-07-24T13:10:51Z</time>
      </trkpt>
      <trkpt lat="44.5475960" lon="7.1307530">
        <ele>2155.6</ele>
        <time>2017-07-24T13:10:54Z</time>
      </trkpt>
      <trkpt lat="44.5476680" lon="7.1305790">
        <ele>2156.4</ele>
        <time>2017-07-24T13:11:00Z</time>
      </trkpt>
      <trkpt lat="44.5476830" lon="7.1305510">
        <ele>2156.6</ele>
        <time>2017-07-24T13:11:01Z</time>
      </trkpt>
      <trkpt lat="44.5477840" lon="7.1303450">
        <ele>2157.6</ele>
        <time>2017-07-24T13:11:08Z</time>
      </trkpt>
      <trkpt lat="44.5477830" lon="7.1302030">
        <ele>2158.2</ele>
        <time>2017-07-24T13:11:12Z</time>
      </trkpt>
      <trkpt lat="44.5477810" lon="7.1301680">
        <ele>2158.4</ele>
        <time>2017-07-24T13:11:13Z</time>
      </trkpt>
      <trkpt lat="44.5477690" lon="7.1301020">
        <ele>2158.8</ele>
        <time>2017-07-24T13:11:15Z</time>
      </trkpt>
      <trkpt lat="44.5477560" lon="7.1299290">
        <ele>2160.0</ele>
        <time>2017-07-24T13:11:20Z</time>
      </trkpt>
      <trkpt lat="44.5477560" lon="7.1298930">
        <ele>2160.4</ele>
        <time>2017-07-24T13:11:21Z</time>
      </trkpt>
      <trkpt lat="44.5477570" lon="7.1297860">
        <ele>2161.2</ele>
        <time>2017-07-24T13:11:24Z</time>
      </trkpt>
      <trkpt lat="44.5477650" lon="7.1296720">
        <ele>2162.2</ele>
        <time>2017-07-24T13:11:27Z</time>
      </trkpt>
      <trkpt lat="44.5477740" lon="7.1296320">
        <ele>2162.6</ele>
        <time>2017-07-24T13:11:28Z</time>
      </trkpt>
      <trkpt lat="44.5478100" lon="7.1295270">
        <ele>2163.4</ele>
        <time>2017-07-24T13:11:31Z</time>
      </trkpt>
      <trkpt lat="44.5478720" lon="7.1293620">
        <ele>2164.2</ele>
        <time>2017-07-24T13:11:36Z</time>
      </trkpt>
      <trkpt lat="44.5478950" lon="7.1292990">
        <ele>2164.4</ele>
        <time>2017-07-24T13:11:38Z</time>
      </trkpt>
      <trkpt lat="44.5479590" lon="7.1290640">
        <ele>2165.4</ele>
        <time>2017-07-24T13:11:45Z</time>
      </trkpt>
      <trkpt lat="44.5479640" lon="7.1290270">
        <ele>2165.6</ele>
        <time>2017-07-24T13:11:46Z</time>
      </trkpt>
      <trkpt lat="44.5479820" lon="7.1288170">
        <ele>2166.8</ele>
        <time>2017-07-24T13:11:52Z</time>
      </trkpt>
      <trkpt lat="44.5480150" lon="7.1287210">
        <ele>2167.4</ele>
        <time>2017-07-24T13:11:55Z</time>
      </trkpt>
      <trkpt lat="44.5480270" lon="7.1286860">
        <ele>2167.8</ele>
        <time>2017-07-24T13:11:56Z</time>
      </trkpt>
      <trkpt lat="44.5480840" lon="7.1285480">
        <ele>2168.8</ele>
        <time>2017-07-24T13:12:00Z</time>
      </trkpt>
      <trkpt lat="44.5481180" lon="7.1284340">
        <ele>2170.2</ele>
        <time>2017-07-24T13:12:03Z</time>
      </trkpt>
      <trkpt lat="44.5481430" lon="7.1283640">
        <ele>2171.4</ele>
        <time>2017-07-24T13:12:05Z</time>
      </trkpt>
      <trkpt lat="44.5481710" lon="7.1283000">
        <ele>2172.4</ele>
        <time>2017-07-24T13:12:07Z</time>
      </trkpt>
      <trkpt lat="44.5482090" lon="7.1282120">
        <ele>2173.8</ele>
        <time>2017-07-24T13:12:10Z</time>
      </trkpt>
      <trkpt lat="44.5482270" lon="7.1281430">
        <ele>2175.2</ele>
        <time>2017-07-24T13:12:12Z</time>
      </trkpt>
      <trkpt lat="44.5482520" lon="7.1280790">
        <ele>2176.6</ele>
        <time>2017-07-24T13:12:14Z</time>
      </trkpt>
      <trkpt lat="44.5482850" lon="7.1280250">
        <ele>2177.6</ele>
        <time>2017-07-24T13:12:16Z</time>
      </trkpt>
      <trkpt lat="44.5483110" lon="7.1279690">
        <ele>2179.0</ele>
        <time>2017-07-24T13:12:18Z</time>
      </trkpt>
      <trkpt lat="44.5483400" lon="7.1278750">
        <ele>2180.6</ele>
        <time>2017-07-24T13:12:21Z</time>
      </trkpt>
      <trkpt lat="44.5483830" lon="7.1277860">
        <ele>2181.8</ele>
        <time>2017-07-24T13:12:24Z</time>
      </trkpt>
      <trkpt lat="44.5484240" lon="7.1277010">
        <ele>2183.0</ele>
        <time>2017-07-24T13:12:27Z</time>
      </trkpt>
      <trkpt lat="44.5484350" lon="7.1276720">
        <ele>2183.2</ele>
        <time>2017-07-24T13:12:28Z</time>
      </trkpt>
      <trkpt lat="44.5484740" lon="7.1275800">
        <ele>2184.2</ele>
        <time>2017-07-24T13:12:31Z</time>
      </trkpt>
      <trkpt lat="44.5485290" lon="7.1275050">
        <ele>2185.4</ele>
        <time>2017-07-24T13:12:34Z</time>
      </trkpt>
      <trkpt lat="44.5485470" lon="7.1274810">
        <ele>2185.8</ele>
        <time>2017-07-24T13:12:35Z</time>
      </trkpt>
      <trkpt lat="44.5485770" lon="7.1274220">
        <ele>2186.4</ele>
        <time>2017-07-24T13:12:37Z</time>
      </trkpt>
      <trkpt lat="44.5486400" lon="7.1273280">
        <ele>2187.8</ele>
        <time>2017-07-24T13:12:41Z</time>
      </trkpt>
      <trkpt lat="44.5486740" lon="7.1272800">
        <ele>2188.4</ele>
        <time>2017-07-24T13:12:43Z</time>
      </trkpt>
      <trkpt lat="44.5487140" lon="7.1272360">
        <ele>2189.0</ele>
        <time>2017-07-24T13:12:45Z</time>
      </trkpt>
      <trkpt lat="44.5488150" lon="7.1271370">
        <ele>2190.0</ele>
        <time>2017-07-24T13:12:50Z</time>
      </trkpt>
      <trkpt lat="44.5488580" lon="7.1270890">
        <ele>2191.2</ele>
        <time>2017-07-24T13:12:52Z</time>
      </trkpt>
      <trkpt lat="44.5489280" lon="7.1270180">
        <ele>2192.4</ele>
        <time>2017-07-24T13:12:55Z</time>
      </trkpt>
      <trkpt lat="44.5489470" lon="7.1269780">
        <ele>2192.8</ele>
        <time>2017-07-24T13:12:56Z</time>
      </trkpt>
      <trkpt lat="44.5489900" lon="7.1269230">
        <ele>2193.6</ele>
        <time>2017-07-24T13:12:58Z</time>
      </trkpt>
      <trkpt lat="44.5490750" lon="7.1268280">
        <ele>2194.8</ele>
        <time>2017-07-24T13:13:02Z</time>
      </trkpt>
      <trkpt lat="44.5491570" lon="7.1267760">
        <ele>2196.0</ele>
        <time>2017-07-24T13:13:05Z</time>
      </trkpt>
      <trkpt lat="44.5492430" lon="7.1267370">
        <ele>2197.2</ele>
        <time>2017-07-24T13:13:08Z</time>
      </trkpt>
      <trkpt lat="44.5492700" lon="7.1267280">
        <ele>2197.8</ele>
        <time>2017-07-24T13:13:09Z</time>
      </trkpt>
      <trkpt lat="44.5493240" lon="7.1267190">
        <ele>2198.6</ele>
        <time>2017-07-24T13:13:11Z</time>
      </trkpt>
      <trkpt lat="44.5494030" lon="7.1267060">
        <ele>2199.8</ele>
        <time>2017-07-24T13:13:14Z</time>
      </trkpt>
      <trkpt lat="44.5494590" lon="7.1267020">
        <ele>2201.0</ele>
        <time>2017-07-24T13:13:16Z</time>
      </trkpt>
      <trkpt lat="44.5495410" lon="7.1267100">
        <ele>2201.8</ele>
        <time>2017-07-24T13:13:19Z</time>
      </trkpt>
      <trkpt lat="44.5495980" lon="7.1267200">
        <ele>2202.2</ele>
        <time>2017-07-24T13:13:21Z</time>
      </trkpt>
      <trkpt lat="44.5497580" lon="7.1267050">
        <ele>2203.2</ele>
        <time>2017-07-24T13:13:27Z</time>
      </trkpt>
      <trkpt lat="44.5497820" lon="7.1267030">
        <ele>2203.4</ele>
        <time>2017-07-24T13:13:28Z</time>
      </trkpt>
      <trkpt lat="44.5499610" lon="7.1266630">
        <ele>2203.4</ele>
        <time>2017-07-24T13:13:35Z</time>
      </trkpt>
      <trkpt lat="44.5501150" lon="7.1266570">
        <ele>2204.4</ele>
        <time>2017-07-24T13:13:41Z</time>
      </trkpt>
      <trkpt lat="44.5501690" lon="7.1266710">
        <ele>2205.0</ele>
        <time>2017-07-24T13:13:43Z</time>
      </trkpt>
      <trkpt lat="44.5502220" lon="7.1266800">
        <ele>2205.6</ele>
        <time>2017-07-24T13:13:45Z</time>
      </trkpt>
      <trkpt lat="44.5503240" lon="7.1266930">
        <ele>2207.0</ele>
        <time>2017-07-24T13:13:49Z</time>
      </trkpt>
      <trkpt lat="44.5503980" lon="7.1267040">
        <ele>2208.2</ele>
        <time>2017-07-24T13:13:52Z</time>
      </trkpt>
      <trkpt lat="44.5504660" lon="7.1267700">
        <ele>2209.4</ele>
        <time>2017-07-24T13:13:55Z</time>
      </trkpt>
      <trkpt lat="44.5505330" lon="7.1268100">
        <ele>2210.2</ele>
        <time>2017-07-24T13:13:57Z</time>
      </trkpt>
      <trkpt lat="44.5505930" lon="7.1268520">
        <ele>2210.2</ele>
        <time>2017-07-24T13:13:59Z</time>
      </trkpt>
      <trkpt lat="44.5506190" lon="7.1269360">
        <ele>2209.8</ele>
        <time>2017-07-24T13:14:01Z</time>
      </trkpt>
      <trkpt lat="44.5507500" lon="7.1270460">
        <ele>2208.2</ele>
        <time>2017-07-24T13:14:05Z</time>
      </trkpt>
      <trkpt lat="44.5508340" lon="7.1270350">
        <ele>2207.0</ele>
        <time>2017-07-24T13:14:07Z</time>
      </trkpt>
      <trkpt lat="44.5509190" lon="7.1270460">
        <ele>2205.6</ele>
        <time>2017-07-24T13:14:09Z</time>
      </trkpt>
      <trkpt lat="44.5510000" lon="7.1271350">
        <ele>2204.2</ele>
        <time>2017-07-24T13:14:11Z</time>
      </trkpt>
      <trkpt lat="44.5510420" lon="7.1272020">
        <ele>2203.6</ele>
        <time>2017-07-24T13:14:12Z</time>
      </trkpt>
      <trkpt lat="44.5510860" lon="7.1272710">
        <ele>2203.0</ele>
        <time>2017-07-24T13:14:13Z</time>
      </trkpt>
      <trkpt lat="44.5511330" lon="7.1273190">
        <ele>2202.6</ele>
        <time>2017-07-24T13:14:14Z</time>
      </trkpt>
      <trkpt lat="44.5511830" lon="7.1273500">
        <ele>2201.8</ele>
        <time>2017-07-24T13:14:15Z</time>
      </trkpt>
      <trkpt lat="44.5512340" lon="7.1273810">
        <ele>2200.8</ele>
        <time>2017-07-24T13:14:16Z</time>
      </trkpt>
      <trkpt lat="44.5512880" lon="7.1274120">
        <ele>2200.2</ele>
        <time>2017-07-24T13:14:17Z</time>
      </trkpt>
      <trkpt lat="44.5513990" lon="7.1274650">
        <ele>2199.0</ele>
        <time>2017-07-24T13:14:19Z</time>
      </trkpt>
      <trkpt lat="44.5514510" lon="7.1274740">
        <ele>2198.4</ele>
        <time>2017-07-24T13:14:20Z</time>
      </trkpt>
      <trkpt lat="44.5515010" lon="7.1274740">
        <ele>2197.8</ele>
        <time>2017-07-24T13:14:21Z</time>
      </trkpt>
      <trkpt lat="44.5516210" lon="7.1274510">
        <ele>2196.6</ele>
        <time>2017-07-24T13:14:24Z</time>
      </trkpt>
      <trkpt lat="44.5516550" lon="7.1274280">
        <ele>2196.2</ele>
        <time>2017-07-24T13:14:25Z</time>
      </trkpt>
      <trkpt lat="44.5517130" lon="7.1273920">
        <ele>2195.0</ele>
        <time>2017-07-24T13:14:27Z</time>
      </trkpt>
      <trkpt lat="44.5517390" lon="7.1273810">
        <ele>2194.8</ele>
        <time>2017-07-24T13:14:28Z</time>
      </trkpt>
      <trkpt lat="44.5517660" lon="7.1273680">
        <ele>2194.8</ele>
        <time>2017-07-24T13:14:29Z</time>
      </trkpt>
      <trkpt lat="44.5517980" lon="7.1273510">
        <ele>2194.6</ele>
        <time>2017-07-24T13:14:30Z</time>
      </trkpt>
      <trkpt lat="44.5518320" lon="7.1273310">
        <ele>2193.6</ele>
        <time>2017-07-24T13:14:31Z</time>
      </trkpt>
      <trkpt lat="44.5518930" lon="7.1272800">
        <ele>2192.6</ele>
        <time>2017-07-24T13:14:33Z</time>
      </trkpt>
      <trkpt lat="44.5519520" lon="7.1272260">
        <ele>2192.0</ele>
        <time>2017-07-24T13:14:35Z</time>
      </trkpt>
      <trkpt lat="44.5519790" lon="7.1271950">
        <ele>2191.4</ele>
        <time>2017-07-24T13:14:36Z</time>
      </trkpt>
      <trkpt lat="44.5520020" lon="7.1271760">
        <ele>2190.8</ele>
        <time>2017-07-24T13:14:37Z</time>
      </trkpt>
      <trkpt lat="44.5520260" lon="7.1271760">
        <ele>2190.4</ele>
        <time>2017-07-24T13:14:38Z</time>
      </trkpt>
      <trkpt lat="44.5520470" lon="7.1271900">
        <ele>2190.0</ele>
        <time>2017-07-24T13:14:39Z</time>
      </trkpt>
      <trkpt lat="44.5520740" lon="7.1272450">
        <ele>2188.8</ele>
        <time>2017-07-24T13:14:41Z</time>
      </trkpt>
      <trkpt lat="44.5520750" lon="7.1272860">
        <ele>2188.2</ele>
        <time>2017-07-24T13:14:42Z</time>
      </trkpt>
      <trkpt lat="44.5520660" lon="7.1273340">
        <ele>2187.4</ele>
        <time>2017-07-24T13:14:43Z</time>
      </trkpt>
      <trkpt lat="44.5520510" lon="7.1274360">
        <ele>2186.4</ele>
        <time>2017-07-24T13:14:45Z</time>
      </trkpt>
      <trkpt lat="44.5520540" lon="7.1274870">
        <ele>2185.8</ele>
        <time>2017-07-24T13:14:46Z</time>
      </trkpt>
      <trkpt lat="44.5520690" lon="7.1275380">
        <ele>2185.2</ele>
        <time>2017-07-24T13:14:47Z</time>
      </trkpt>
      <trkpt lat="44.5521220" lon="7.1276400">
        <ele>2183.8</ele>
        <time>2017-07-24T13:14:49Z</time>
      </trkpt>
      <trkpt lat="44.5521510" lon="7.1276910">
        <ele>2183.0</ele>
        <time>2017-07-24T13:14:50Z</time>
      </trkpt>
      <trkpt lat="44.5521730" lon="7.1277500">
        <ele>2182.4</ele>
        <time>2017-07-24T13:14:51Z</time>
      </trkpt>
      <trkpt lat="44.5521900" lon="7.1278160">
        <ele>2180.8</ele>
        <time>2017-07-24T13:14:52Z</time>
      </trkpt>
      <trkpt lat="44.5522090" lon="7.1279580">
        <ele>2179.6</ele>
        <time>2017-07-24T13:14:54Z</time>
      </trkpt>
      <trkpt lat="44.5522090" lon="7.1280270">
        <ele>2178.8</ele>
        <time>2017-07-24T13:14:55Z</time>
      </trkpt>
      <trkpt lat="44.5522130" lon="7.1280940">
        <ele>2177.4</ele>
        <time>2017-07-24T13:14:56Z</time>
      </trkpt>
      <trkpt lat="44.5522280" lon="7.1282130">
        <ele>2175.4</ele>
        <time>2017-07-24T13:14:58Z</time>
      </trkpt>
      <trkpt lat="44.5522370" lon="7.1282710">
        <ele>2175.0</ele>
        <time>2017-07-24T13:14:59Z</time>
      </trkpt>
      <trkpt lat="44.5522480" lon="7.1283270">
        <ele>2174.0</ele>
        <time>2017-07-24T13:15:00Z</time>
      </trkpt>
      <trkpt lat="44.5522630" lon="7.1283810">
        <ele>2173.2</ele>
        <time>2017-07-24T13:15:01Z</time>
      </trkpt>
      <trkpt lat="44.5522840" lon="7.1284360">
        <ele>2172.2</ele>
        <time>2017-07-24T13:15:02Z</time>
      </trkpt>
      <trkpt lat="44.5523210" lon="7.1285660">
        <ele>2170.8</ele>
        <time>2017-07-24T13:15:04Z</time>
      </trkpt>
      <trkpt lat="44.5523230" lon="7.1287270">
        <ele>2169.0</ele>
        <time>2017-07-24T13:15:06Z</time>
      </trkpt>
      <trkpt lat="44.5523240" lon="7.1288130">
        <ele>2167.8</ele>
        <time>2017-07-24T13:15:07Z</time>
      </trkpt>
      <trkpt lat="44.5523310" lon="7.1289030">
        <ele>2166.8</ele>
        <time>2017-07-24T13:15:08Z</time>
      </trkpt>
      <trkpt lat="44.5523450" lon="7.1289950">
        <ele>2166.2</ele>
        <time>2017-07-24T13:15:09Z</time>
      </trkpt>
      <trkpt lat="44.5523680" lon="7.1291780">
        <ele>2164.6</ele>
        <time>2017-07-24T13:15:11Z</time>
      </trkpt>
      <trkpt lat="44.5523640" lon="7.1292680">
        <ele>2163.8</ele>
        <time>2017-07-24T13:15:12Z</time>
      </trkpt>
      <trkpt lat="44.5523620" lon="7.1293530">
        <ele>2162.6</ele>
        <time>2017-07-24T13:15:13Z</time>
      </trkpt>
      <trkpt lat="44.5523910" lon="7.1295020">
        <ele>2160.6</ele>
        <time>2017-07-24T13:15:15Z</time>
      </trkpt>
      <trkpt lat="44.5524250" lon="7.1295660">
        <ele>2158.8</ele>
        <time>2017-07-24T13:15:16Z</time>
      </trkpt>
      <trkpt lat="44.5525090" lon="7.1296780">
        <ele>2157.0</ele>
        <time>2017-07-24T13:15:18Z</time>
      </trkpt>
      <trkpt lat="44.5525420" lon="7.1297370">
        <ele>2156.0</ele>
        <time>2017-07-24T13:15:19Z</time>
      </trkpt>
      <trkpt lat="44.5525660" lon="7.1298100">
        <ele>2155.0</ele>
        <time>2017-07-24T13:15:20Z</time>
      </trkpt>
      <trkpt lat="44.5525880" lon="7.1298800">
        <ele>2153.8</ele>
        <time>2017-07-24T13:15:21Z</time>
      </trkpt>
      <trkpt lat="44.5526100" lon="7.1299430">
        <ele>2152.8</ele>
        <time>2017-07-24T13:15:22Z</time>
      </trkpt>
      <trkpt lat="44.5526260" lon="7.1300100">
        <ele>2151.4</ele>
        <time>2017-07-24T13:15:23Z</time>
      </trkpt>
      <trkpt lat="44.5526350" lon="7.1300800">
        <ele>2150.2</ele>
        <time>2017-07-24T13:15:24Z</time>
      </trkpt>
      <trkpt lat="44.5526400" lon="7.1301550">
        <ele>2148.8</ele>
        <time>2017-07-24T13:15:25Z</time>
      </trkpt>
      <trkpt lat="44.5526440" lon="7.1303330">
        <ele>2147.0</ele>
        <time>2017-07-24T13:15:27Z</time>
      </trkpt>
      <trkpt lat="44.5526450" lon="7.1304340">
        <ele>2145.8</ele>
        <time>2017-07-24T13:15:28Z</time>
      </trkpt>
      <trkpt lat="44.5526430" lon="7.1305350">
        <ele>2144.8</ele>
        <time>2017-07-24T13:15:29Z</time>
      </trkpt>
      <trkpt lat="44.5526420" lon="7.1306330">
        <ele>2143.4</ele>
        <time>2017-07-24T13:15:30Z</time>
      </trkpt>
      <trkpt lat="44.5526380" lon="7.1307250">
        <ele>2142.2</ele>
        <time>2017-07-24T13:15:31Z</time>
      </trkpt>
      <trkpt lat="44.5526280" lon="7.1308120">
        <ele>2141.0</ele>
        <time>2017-07-24T13:15:32Z</time>
      </trkpt>
      <trkpt lat="44.5526120" lon="7.1308980">
        <ele>2140.0</ele>
        <time>2017-07-24T13:15:33Z</time>
      </trkpt>
      <trkpt lat="44.5525950" lon="7.1309810">
        <ele>2139.0</ele>
        <time>2017-07-24T13:15:34Z</time>
      </trkpt>
      <trkpt lat="44.5525780" lon="7.1310610">
        <ele>2137.8</ele>
        <time>2017-07-24T13:15:35Z</time>
      </trkpt>
      <trkpt lat="44.5525640" lon="7.1311390">
        <ele>2136.6</ele>
        <time>2017-07-24T13:15:36Z</time>
      </trkpt>
      <trkpt lat="44.5525610" lon="7.1312170">
        <ele>2135.2</ele>
        <time>2017-07-24T13:15:37Z</time>
      </trkpt>
      <trkpt lat="44.5525750" lon="7.1312900">
        <ele>2134.2</ele>
        <time>2017-07-24T13:15:38Z</time>
      </trkpt>
      <trkpt lat="44.5525940" lon="7.1313650">
        <ele>2133.0</ele>
        <time>2017-07-24T13:15:39Z</time>
      </trkpt>
      <trkpt lat="44.5526100" lon="7.1314480">
        <ele>2130.2</ele>
        <time>2017-07-24T13:15:40Z</time>
      </trkpt>
      <trkpt lat="44.5526220" lon="7.1315380">
        <ele>2128.8</ele>
        <time>2017-07-24T13:15:41Z</time>
      </trkpt>
      <trkpt lat="44.5526350" lon="7.1316330">
        <ele>2127.4</ele>
        <time>2017-07-24T13:15:42Z</time>
      </trkpt>
      <trkpt lat="44.5526460" lon="7.1317270">
        <ele>2126.2</ele>
        <time>2017-07-24T13:15:43Z</time>
      </trkpt>
      <trkpt lat="44.5526430" lon="7.1318310">
        <ele>2124.8</ele>
        <time>2017-07-24T13:15:44Z</time>
      </trkpt>
      <trkpt lat="44.5526270" lon="7.1319440">
        <ele>2123.8</ele>
        <time>2017-07-24T13:15:45Z</time>
      </trkpt>
      <trkpt lat="44.5526050" lon="7.1320580">
        <ele>2122.4</ele>
        <time>2017-07-24T13:15:46Z</time>
      </trkpt>
      <trkpt lat="44.5525830" lon="7.1321740">
        <ele>2121.0</ele>
        <time>2017-07-24T13:15:47Z</time>
      </trkpt>
      <trkpt lat="44.5525570" lon="7.1322920">
        <ele>2119.2</ele>
        <time>2017-07-24T13:15:48Z</time>
      </trkpt>
      <trkpt lat="44.5525270" lon="7.1324140">
        <ele>2118.0</ele>
        <time>2017-07-24T13:15:49Z</time>
      </trkpt>
      <trkpt lat="44.5524980" lon="7.1325380">
        <ele>2116.6</ele>
        <time>2017-07-24T13:15:50Z</time>
      </trkpt>
      <trkpt lat="44.5524760" lon="7.1326540">
        <ele>2115.6</ele>
        <time>2017-07-24T13:15:51Z</time>
      </trkpt>
      <trkpt lat="44.5524620" lon="7.1327500">
        <ele>2114.2</ele>
        <time>2017-07-24T13:15:52Z</time>
      </trkpt>
      <trkpt lat="44.5524540" lon="7.1328330">
        <ele>2113.0</ele>
        <time>2017-07-24T13:15:53Z</time>
      </trkpt>
      <trkpt lat="44.5524640" lon="7.1329000">
        <ele>2111.6</ele>
        <time>2017-07-24T13:15:54Z</time>
      </trkpt>
      <trkpt lat="44.5525000" lon="7.1329480">
        <ele>2110.4</ele>
        <time>2017-07-24T13:15:55Z</time>
      </trkpt>
      <trkpt lat="44.5525490" lon="7.1329910">
        <ele>2109.2</ele>
        <time>2017-07-24T13:15:56Z</time>
      </trkpt>
      <trkpt lat="44.5525950" lon="7.1330460">
        <ele>2108.0</ele>
        <time>2017-07-24T13:15:57Z</time>
      </trkpt>
      <trkpt lat="44.5526400" lon="7.1330990">
        <ele>2106.8</ele>
        <time>2017-07-24T13:15:58Z</time>
      </trkpt>
      <trkpt lat="44.5526830" lon="7.1331590">
        <ele>2105.4</ele>
        <time>2017-07-24T13:15:59Z</time>
      </trkpt>
      <trkpt lat="44.5527190" lon="7.1332240">
        <ele>2104.0</ele>
        <time>2017-07-24T13:16:00Z</time>
      </trkpt>
      <trkpt lat="44.5527500" lon="7.1332820">
        <ele>2102.6</ele>
        <time>2017-07-24T13:16:01Z</time>
      </trkpt>
      <trkpt lat="44.5527780" lon="7.1333370">
        <ele>2101.2</ele>
        <time>2017-07-24T13:16:02Z</time>
      </trkpt>
      <trkpt lat="44.5528160" lon="7.1333760">
        <ele>2099.8</ele>
        <time>2017-07-24T13:16:03Z</time>
      </trkpt>
      <trkpt lat="44.5528580" lon="7.1334140">
        <ele>2097.6</ele>
        <time>2017-07-24T13:16:04Z</time>
      </trkpt>
      <trkpt lat="44.5528980" lon="7.1334560">
        <ele>2096.2</ele>
        <time>2017-07-24T13:16:05Z</time>
      </trkpt>
      <trkpt lat="44.5529410" lon="7.1335040">
        <ele>2094.8</ele>
        <time>2017-07-24T13:16:06Z</time>
      </trkpt>
      <trkpt lat="44.5529860" lon="7.1335520">
        <ele>2093.4</ele>
        <time>2017-07-24T13:16:07Z</time>
      </trkpt>
      <trkpt lat="44.5530340" lon="7.1335900">
        <ele>2092.2</ele>
        <time>2017-07-24T13:16:08Z</time>
      </trkpt>
      <trkpt lat="44.5530890" lon="7.1336200">
        <ele>2090.8</ele>
        <time>2017-07-24T13:16:09Z</time>
      </trkpt>
      <trkpt lat="44.5531490" lon="7.1336510">
        <ele>2089.2</ele>
        <time>2017-07-24T13:16:10Z</time>
      </trkpt>
      <trkpt lat="44.5532070" lon="7.1336850">
        <ele>2087.8</ele>
        <time>2017-07-24T13:16:11Z</time>
      </trkpt>
      <trkpt lat="44.5532630" lon="7.1337170">
        <ele>2086.4</ele>
        <time>2017-07-24T13:16:12Z</time>
      </trkpt>
      <trkpt lat="44.5533170" lon="7.1337530">
        <ele>2085.0</ele>
        <time>2017-07-24T13:16:13Z</time>
      </trkpt>
      <trkpt lat="44.5533720" lon="7.1337930">
        <ele>2083.6</ele>
        <time>2017-07-24T13:16:14Z</time>
      </trkpt>
      <trkpt lat="44.5534290" lon="7.1338330">
        <ele>2082.2</ele>
        <time>2017-07-24T13:16:15Z</time>
      </trkpt>
      <trkpt lat="44.5534860" lon="7.1338750">
        <ele>2081.0</ele>
        <time>2017-07-24T13:16:16Z</time>
      </trkpt>
      <trkpt lat="44.5535410" lon="7.1339200">
        <ele>2079.8</ele>
        <time>2017-07-24T13:16:17Z</time>
      </trkpt>
      <trkpt lat="44.5535970" lon="7.1339660">
        <ele>2078.2</ele>
        <time>2017-07-24T13:16:18Z</time>
      </trkpt>
      <trkpt lat="44.5536550" lon="7.1340010">
        <ele>2076.6</ele>
        <time>2017-07-24T13:16:19Z</time>
      </trkpt>
      <trkpt lat="44.5537100" lon="7.1340280">
        <ele>2075.2</ele>
        <time>2017-07-24T13:16:20Z</time>
      </trkpt>
      <trkpt lat="44.5537580" lon="7.1340550">
        <ele>2073.8</ele>
        <time>2017-07-24T13:16:21Z</time>
      </trkpt>
      <trkpt lat="44.5538020" lon="7.1340800">
        <ele>2072.4</ele>
        <time>2017-07-24T13:16:22Z</time>
      </trkpt>
      <trkpt lat="44.5538470" lon="7.1341070">
        <ele>2071.0</ele>
        <time>2017-07-24T13:16:23Z</time>
      </trkpt>
      <trkpt lat="44.5538920" lon="7.1341360">
        <ele>2069.6</ele>
        <time>2017-07-24T13:16:24Z</time>
      </trkpt>
      <trkpt lat="44.5539380" lon="7.1341630">
        <ele>2068.4</ele>
        <time>2017-07-24T13:16:25Z</time>
      </trkpt>
      <trkpt lat="44.5539860" lon="7.1341860">
        <ele>2067.0</ele>
        <time>2017-07-24T13:16:26Z</time>
      </trkpt>
      <trkpt lat="44.5540370" lon="7.1342040">
        <ele>2065.4</ele>
        <time>2017-07-24T13:16:27Z</time>
      </trkpt>
      <trkpt lat="44.5540960" lon="7.1342230">
        <ele>2062.8</ele>
        <time>2017-07-24T13:16:28Z</time>
      </trkpt>
      <trkpt lat="44.5541600" lon="7.1342380">
        <ele>2061.4</ele>
        <time>2017-07-24T13:16:29Z</time>
      </trkpt>
      <trkpt lat="44.5542270" lon="7.1342440">
        <ele>2060.2</ele>
        <time>2017-07-24T13:16:30Z</time>
      </trkpt>
      <trkpt lat="44.5542960" lon="7.1342440">
        <ele>2059.0</ele>
        <time>2017-07-24T13:16:31Z</time>
      </trkpt>
      <trkpt lat="44.5543640" lon="7.1342440">
        <ele>2057.8</ele>
        <time>2017-07-24T13:16:32Z</time>
      </trkpt>
      <trkpt lat="44.5544290" lon="7.1342470">
        <ele>2056.8</ele>
        <time>2017-07-24T13:16:33Z</time>
      </trkpt>
      <trkpt lat="44.5544930" lon="7.1342560">
        <ele>2055.8</ele>
        <time>2017-07-24T13:16:34Z</time>
      </trkpt>
      <trkpt lat="44.5545560" lon="7.1342680">
        <ele>2054.8</ele>
        <time>2017-07-24T13:16:35Z</time>
      </trkpt>
      <trkpt lat="44.5546190" lon="7.1342820">
        <ele>2053.8</ele>
        <time>2017-07-24T13:16:36Z</time>
      </trkpt>
      <trkpt lat="44.5547510" lon="7.1343180">
        <ele>2052.0</ele>
        <time>2017-07-24T13:16:38Z</time>
      </trkpt>
      <trkpt lat="44.5548990" lon="7.1343620">
        <ele>2050.6</ele>
        <time>2017-07-24T13:16:40Z</time>
      </trkpt>
      <trkpt lat="44.5549770" lon="7.1343800">
        <ele>2049.6</ele>
        <time>2017-07-24T13:16:41Z</time>
      </trkpt>
      <trkpt lat="44.5550530" lon="7.1344130">
        <ele>2048.6</ele>
        <time>2017-07-24T13:16:42Z</time>
      </trkpt>
      <trkpt lat="44.5551290" lon="7.1344570">
        <ele>2047.4</ele>
        <time>2017-07-24T13:16:43Z</time>
      </trkpt>
      <trkpt lat="44.5552020" lon="7.1344910">
        <ele>2046.6</ele>
        <time>2017-07-24T13:16:44Z</time>
      </trkpt>
      <trkpt lat="44.5552720" lon="7.1345030">
        <ele>2045.8</ele>
        <time>2017-07-24T13:16:45Z</time>
      </trkpt>
      <trkpt lat="44.5554000" lon="7.1344980">
        <ele>2044.2</ele>
        <time>2017-07-24T13:16:47Z</time>
      </trkpt>
      <trkpt lat="44.5555150" lon="7.1344510">
        <ele>2042.8</ele>
        <time>2017-07-24T13:16:49Z</time>
      </trkpt>
      <trkpt lat="44.5556170" lon="7.1343850">
        <ele>2041.2</ele>
        <time>2017-07-24T13:16:51Z</time>
      </trkpt>
      <trkpt lat="44.5556600" lon="7.1343570">
        <ele>2039.6</ele>
        <time>2017-07-24T13:16:52Z</time>
      </trkpt>
      <trkpt lat="44.5557490" lon="7.1343810">
        <ele>2038.4</ele>
        <time>2017-07-24T13:16:54Z</time>
      </trkpt>
      <trkpt lat="44.5557950" lon="7.1344040">
        <ele>2038.0</ele>
        <time>2017-07-24T13:16:55Z</time>
      </trkpt>
      <trkpt lat="44.5559540" lon="7.1344990">
        <ele>2036.8</ele>
        <time>2017-07-24T13:16:58Z</time>
      </trkpt>
      <trkpt lat="44.5560110" lon="7.1345480">
        <ele>2036.2</ele>
        <time>2017-07-24T13:16:59Z</time>
      </trkpt>
      <trkpt lat="44.5560640" lon="7.1346090">
        <ele>2035.2</ele>
        <time>2017-07-24T13:17:00Z</time>
      </trkpt>
      <trkpt lat="44.5561710" lon="7.1347200">
        <ele>2034.0</ele>
        <time>2017-07-24T13:17:02Z</time>
      </trkpt>
      <trkpt lat="44.5562250" lon="7.1347650">
        <ele>2033.4</ele>
        <time>2017-07-24T13:17:03Z</time>
      </trkpt>
      <trkpt lat="44.5562850" lon="7.1348020">
        <ele>2032.6</ele>
        <time>2017-07-24T13:17:04Z</time>
      </trkpt>
      <trkpt lat="44.5564240" lon="7.1348690">
        <ele>2030.8</ele>
        <time>2017-07-24T13:17:06Z</time>
      </trkpt>
      <trkpt lat="44.5565960" lon="7.1349390">
        <ele>2029.0</ele>
        <time>2017-07-24T13:17:08Z</time>
      </trkpt>
      <trkpt lat="44.5566940" lon="7.1349690">
        <ele>2028.0</ele>
        <time>2017-07-24T13:17:09Z</time>
      </trkpt>
      <trkpt lat="44.5567790" lon="7.1350070">
        <ele>2026.8</ele>
        <time>2017-07-24T13:17:10Z</time>
      </trkpt>
      <trkpt lat="44.5568510" lon="7.1350350">
        <ele>2025.4</ele>
        <time>2017-07-24T13:17:11Z</time>
      </trkpt>
      <trkpt lat="44.5569760" lon="7.1350610">
        <ele>2023.6</ele>
        <time>2017-07-24T13:17:13Z</time>
      </trkpt>
      <trkpt lat="44.5570390" lon="7.1350590">
        <ele>2022.6</ele>
        <time>2017-07-24T13:17:14Z</time>
      </trkpt>
      <trkpt lat="44.5571020" lon="7.1350460">
        <ele>2021.0</ele>
        <time>2017-07-24T13:17:15Z</time>
      </trkpt>
      <trkpt lat="44.5571650" lon="7.1350220">
        <ele>2019.0</ele>
        <time>2017-07-24T13:17:16Z</time>
      </trkpt>
      <trkpt lat="44.5572910" lon="7.1349390">
        <ele>2017.6</ele>
        <time>2017-07-24T13:17:18Z</time>
      </trkpt>
      <trkpt lat="44.5573570" lon="7.1348720">
        <ele>2016.4</ele>
        <time>2017-07-24T13:17:19Z</time>
      </trkpt>
      <trkpt lat="44.5574280" lon="7.1347940">
        <ele>2015.4</ele>
        <time>2017-07-24T13:17:20Z</time>
      </trkpt>
      <trkpt lat="44.5575040" lon="7.1347160">
        <ele>2014.4</ele>
        <time>2017-07-24T13:17:21Z</time>
      </trkpt>
      <trkpt lat="44.5575810" lon="7.1346390">
        <ele>2013.2</ele>
        <time>2017-07-24T13:17:22Z</time>
      </trkpt>
      <trkpt lat="44.5576490" lon="7.1345620">
        <ele>2011.6</ele>
        <time>2017-07-24T13:17:23Z</time>
      </trkpt>
      <trkpt lat="44.5577100" lon="7.1344850">
        <ele>2010.4</ele>
        <time>2017-07-24T13:17:24Z</time>
      </trkpt>
      <trkpt lat="44.5577670" lon="7.1344080">
        <ele>2009.4</ele>
        <time>2017-07-24T13:17:25Z</time>
      </trkpt>
      <trkpt lat="44.5577960" lon="7.1343340">
        <ele>2008.4</ele>
        <time>2017-07-24T13:17:26Z</time>
      </trkpt>
      <trkpt lat="44.5578130" lon="7.1342840">
        <ele>2007.4</ele>
        <time>2017-07-24T13:17:27Z</time>
      </trkpt>
      <trkpt lat="44.5578300" lon="7.1342230">
        <ele>2005.6</ele>
        <time>2017-07-24T13:17:29Z</time>
      </trkpt>
      <trkpt lat="44.5578650" lon="7.1341750">
        <ele>2004.4</ele>
        <time>2017-07-24T13:17:31Z</time>
      </trkpt>
      <trkpt lat="44.5579550" lon="7.1341460">
        <ele>2002.6</ele>
        <time>2017-07-24T13:17:33Z</time>
      </trkpt>
      <trkpt lat="44.5580190" lon="7.1341370">
        <ele>2002.0</ele>
        <time>2017-07-24T13:17:34Z</time>
      </trkpt>
      <trkpt lat="44.5580880" lon="7.1341330">
        <ele>2001.4</ele>
        <time>2017-07-24T13:17:35Z</time>
      </trkpt>
      <trkpt lat="44.5582160" lon="7.1341410">
        <ele>2000.4</ele>
        <time>2017-07-24T13:17:37Z</time>
      </trkpt>
      <trkpt lat="44.5583240" lon="7.1341740">
        <ele>1998.6</ele>
        <time>2017-07-24T13:17:39Z</time>
      </trkpt>
      <trkpt lat="44.5583730" lon="7.1342060">
        <ele>1997.2</ele>
        <time>2017-07-24T13:17:40Z</time>
      </trkpt>
      <trkpt lat="44.5584820" lon="7.1342790">
        <ele>1995.8</ele>
        <time>2017-07-24T13:17:42Z</time>
      </trkpt>
      <trkpt lat="44.5585820" lon="7.1343590">
        <ele>1994.2</ele>
        <time>2017-07-24T13:17:44Z</time>
      </trkpt>
      <trkpt lat="44.5586260" lon="7.1344140">
        <ele>1993.6</ele>
        <time>2017-07-24T13:17:45Z</time>
      </trkpt>
      <trkpt lat="44.5586700" lon="7.1344810">
        <ele>1993.2</ele>
        <time>2017-07-24T13:17:46Z</time>
      </trkpt>
      <trkpt lat="44.5587150" lon="7.1345540">
        <ele>1992.2</ele>
        <time>2017-07-24T13:17:47Z</time>
      </trkpt>
      <trkpt lat="44.5587610" lon="7.1346330">
        <ele>1991.0</ele>
        <time>2017-07-24T13:17:48Z</time>
      </trkpt>
      <trkpt lat="44.5588110" lon="7.1347110">
        <ele>1990.0</ele>
        <time>2017-07-24T13:17:49Z</time>
      </trkpt>
      <trkpt lat="44.5588670" lon="7.1347810">
        <ele>1989.2</ele>
        <time>2017-07-24T13:17:50Z</time>
      </trkpt>
      <trkpt lat="44.5589190" lon="7.1348450">
        <ele>1988.4</ele>
        <time>2017-07-24T13:17:51Z</time>
      </trkpt>
      <trkpt lat="44.5589640" lon="7.1349000">
        <ele>1987.4</ele>
        <time>2017-07-24T13:17:52Z</time>
      </trkpt>
      <trkpt lat="44.5590080" lon="7.1349940">
        <ele>1985.8</ele>
        <time>2017-07-24T13:17:54Z</time>
      </trkpt>
      <trkpt lat="44.5590380" lon="7.1350650">
        <ele>1983.8</ele>
        <time>2017-07-24T13:17:56Z</time>
      </trkpt>
      <trkpt lat="44.5590860" lon="7.1350890">
        <ele>1982.4</ele>
        <time>2017-07-24T13:17:58Z</time>
      </trkpt>
      <trkpt lat="44.5591260" lon="7.1351280">
        <ele>1980.4</ele>
        <time>2017-07-24T13:18:00Z</time>
      </trkpt>
      <trkpt lat="44.5591570" lon="7.1352170">
        <ele>1978.6</ele>
        <time>2017-07-24T13:18:02Z</time>
      </trkpt>
      <trkpt lat="44.5592100" lon="7.1353030">
        <ele>1975.4</ele>
        <time>2017-07-24T13:18:04Z</time>
      </trkpt>
      <trkpt lat="44.5592370" lon="7.1353410">
        <ele>1974.2</ele>
        <time>2017-07-24T13:18:05Z</time>
      </trkpt>
      <trkpt lat="44.5592820" lon="7.1354130">
        <ele>1972.2</ele>
        <time>2017-07-24T13:18:07Z</time>
      </trkpt>
      <trkpt lat="44.5593360" lon="7.1354700">
        <ele>1970.4</ele>
        <time>2017-07-24T13:18:09Z</time>
      </trkpt>
      <trkpt lat="44.5593770" lon="7.1355330">
        <ele>1968.2</ele>
        <time>2017-07-24T13:18:11Z</time>
      </trkpt>
      <trkpt lat="44.5593930" lon="7.1355730">
        <ele>1966.8</ele>
        <time>2017-07-24T13:18:12Z</time>
      </trkpt>
      <trkpt lat="44.5594080" lon="7.1356190">
        <ele>1965.6</ele>
        <time>2017-07-24T13:18:13Z</time>
      </trkpt>
      <trkpt lat="44.5594260" lon="7.1356660">
        <ele>1964.6</ele>
        <time>2017-07-24T13:18:14Z</time>
      </trkpt>
      <trkpt lat="44.5594440" lon="7.1357140">
        <ele>1963.4</ele>
        <time>2017-07-24T13:18:15Z</time>
      </trkpt>
      <trkpt lat="44.5594640" lon="7.1357640">
        <ele>1962.4</ele>
        <time>2017-07-24T13:18:16Z</time>
      </trkpt>
      <trkpt lat="44.5594890" lon="7.1358150">
        <ele>1961.2</ele>
        <time>2017-07-24T13:18:17Z</time>
      </trkpt>
      <trkpt lat="44.5595190" lon="7.1358610">
        <ele>1960.0</ele>
        <time>2017-07-24T13:18:18Z</time>
      </trkpt>
      <trkpt lat="44.5595500" lon="7.1358940">
        <ele>1958.8</ele>
        <time>2017-07-24T13:18:19Z</time>
      </trkpt>
      <trkpt lat="44.5595780" lon="7.1359250">
        <ele>1957.4</ele>
        <time>2017-07-24T13:18:20Z</time>
      </trkpt>
      <trkpt lat="44.5596000" lon="7.1359530">
        <ele>1956.4</ele>
        <time>2017-07-24T13:18:21Z</time>
      </trkpt>
      <trkpt lat="44.5596140" lon="7.1359860">
        <ele>1955.2</ele>
        <time>2017-07-24T13:18:22Z</time>
      </trkpt>
      <trkpt lat="44.5596220" lon="7.1360220">
        <ele>1953.8</ele>
        <time>2017-07-24T13:18:23Z</time>
      </trkpt>
      <trkpt lat="44.5596310" lon="7.1360620">
        <ele>1952.6</ele>
        <time>2017-07-24T13:18:24Z</time>
      </trkpt>
      <trkpt lat="44.5596400" lon="7.1361110">
        <ele>1951.4</ele>
        <time>2017-07-24T13:18:25Z</time>
      </trkpt>
      <trkpt lat="44.5596520" lon="7.1361610">
        <ele>1950.4</ele>
        <time>2017-07-24T13:18:26Z</time>
      </trkpt>
      <trkpt lat="44.5596650" lon="7.1362080">
        <ele>1949.4</ele>
        <time>2017-07-24T13:18:27Z</time>
      </trkpt>
      <trkpt lat="44.5596810" lon="7.1362500">
        <ele>1947.0</ele>
        <time>2017-07-24T13:18:28Z</time>
      </trkpt>
      <trkpt lat="44.5597000" lon="7.1362870">
        <ele>1946.0</ele>
        <time>2017-07-24T13:18:29Z</time>
      </trkpt>
      <trkpt lat="44.5597190" lon="7.1363240">
        <ele>1944.8</ele>
        <time>2017-07-24T13:18:30Z</time>
      </trkpt>
      <trkpt lat="44.5597460" lon="7.1364030">
        <ele>1942.6</ele>
        <time>2017-07-24T13:18:32Z</time>
      </trkpt>
      <trkpt lat="44.5597540" lon="7.1364320">
        <ele>1941.4</ele>
        <time>2017-07-24T13:18:33Z</time>
      </trkpt>
      <trkpt lat="44.5597580" lon="7.1364620">
        <ele>1940.2</ele>
        <time>2017-07-24T13:18:34Z</time>
      </trkpt>
      <trkpt lat="44.5597620" lon="7.1364930">
        <ele>1939.2</ele>
        <time>2017-07-24T13:18:35Z</time>
      </trkpt>
      <trkpt lat="44.5597670" lon="7.1365230">
        <ele>1938.2</ele>
        <time>2017-07-24T13:18:36Z</time>
      </trkpt>
      <trkpt lat="44.5597780" lon="7.1365900">
        <ele>1936.2</ele>
        <time>2017-07-24T13:18:38Z</time>
      </trkpt>
      <trkpt lat="44.5597820" lon="7.1366230">
        <ele>1935.2</ele>
        <time>2017-07-24T13:18:39Z</time>
      </trkpt>
      <trkpt lat="44.5597850" lon="7.1366530">
        <ele>1934.0</ele>
        <time>2017-07-24T13:18:40Z</time>
      </trkpt>
      <trkpt lat="44.5597900" lon="7.1366820">
        <ele>1932.8</ele>
        <time>2017-07-24T13:18:41Z</time>
      </trkpt>
      <trkpt lat="44.5597990" lon="7.1367170">
        <ele>1931.6</ele>
        <time>2017-07-24T13:18:42Z</time>
      </trkpt>
      <trkpt lat="44.5598200" lon="7.1367810">
        <ele>1929.4</ele>
        <time>2017-07-24T13:18:44Z</time>
      </trkpt>
      <trkpt lat="44.5598300" lon="7.1368090">
        <ele>1928.4</ele>
        <time>2017-07-24T13:18:45Z</time>
      </trkpt>
      <trkpt lat="44.5598370" lon="7.1368360">
        <ele>1927.4</ele>
        <time>2017-07-24T13:18:46Z</time>
      </trkpt>
      <trkpt lat="44.5598420" lon="7.1368640">
        <ele>1926.2</ele>
        <time>2017-07-24T13:18:47Z</time>
      </trkpt>
      <trkpt lat="44.5598460" lon="7.1368980">
        <ele>1925.2</ele>
        <time>2017-07-24T13:18:48Z</time>
      </trkpt>
      <trkpt lat="44.5598520" lon="7.1369260">
        <ele>1924.2</ele>
        <time>2017-07-24T13:18:49Z</time>
      </trkpt>
      <trkpt lat="44.5598560" lon="7.1369540">
        <ele>1923.2</ele>
        <time>2017-07-24T13:18:50Z</time>
      </trkpt>
      <trkpt lat="44.5598670" lon="7.1370020">
        <ele>1920.6</ele>
        <time>2017-07-24T13:18:52Z</time>
      </trkpt>
      <trkpt lat="44.5598870" lon="7.1370730">
        <ele>1918.8</ele>
        <time>2017-07-24T13:18:54Z</time>
      </trkpt>
      <trkpt lat="44.5598980" lon="7.1371270">
        <ele>1917.6</ele>
        <time>2017-07-24T13:18:55Z</time>
      </trkpt>
      <trkpt lat="44.5599060" lon="7.1371900">
        <ele>1916.6</ele>
        <time>2017-07-24T13:18:56Z</time>
      </trkpt>
      <trkpt lat="44.5599130" lon="7.1372660">
        <ele>1915.4</ele>
        <time>2017-07-24T13:18:57Z</time>
      </trkpt>
      <trkpt lat="44.5599300" lon="7.1374290">
        <ele>1913.8</ele>
        <time>2017-07-24T13:18:59Z</time>
      </trkpt>
      <trkpt lat="44.5599450" lon="7.1375060">
        <ele>1912.6</ele>
        <time>2017-07-24T13:19:00Z</time>
      </trkpt>
      <trkpt lat="44.5599660" lon="7.1375860">
        <ele>1911.2</ele>
        <time>2017-07-24T13:19:01Z</time>
      </trkpt>
      <trkpt lat="44.5599920" lon="7.1376670">
        <ele>1910.0</ele>
        <time>2017-07-24T13:19:02Z</time>
      </trkpt>
      <trkpt lat="44.5600250" lon="7.1377450">
        <ele>1908.8</ele>
        <time>2017-07-24T13:19:03Z</time>
      </trkpt>
      <trkpt lat="44.5600570" lon="7.1378230">
        <ele>1907.8</ele>
        <time>2017-07-24T13:19:04Z</time>
      </trkpt>
      <trkpt lat="44.5600820" lon="7.1378960">
        <ele>1906.6</ele>
        <time>2017-07-24T13:19:05Z</time>
      </trkpt>
      <trkpt lat="44.5601030" lon="7.1379640">
        <ele>1905.4</ele>
        <time>2017-07-24T13:19:06Z</time>
      </trkpt>
      <trkpt lat="44.5601180" lon="7.1380310">
        <ele>1904.4</ele>
        <time>2017-07-24T13:19:07Z</time>
      </trkpt>
      <trkpt lat="44.5601270" lon="7.1380990">
        <ele>1903.2</ele>
        <time>2017-07-24T13:19:08Z</time>
      </trkpt>
      <trkpt lat="44.5601340" lon="7.1381750">
        <ele>1902.0</ele>
        <time>2017-07-24T13:19:09Z</time>
      </trkpt>
      <trkpt lat="44.5601410" lon="7.1382560">
        <ele>1901.0</ele>
        <time>2017-07-24T13:19:10Z</time>
      </trkpt>
      <trkpt lat="44.5601460" lon="7.1383420">
        <ele>1899.8</ele>
        <time>2017-07-24T13:19:11Z</time>
      </trkpt>
      <trkpt lat="44.5601450" lon="7.1385290">
        <ele>1897.6</ele>
        <time>2017-07-24T13:19:13Z</time>
      </trkpt>
      <trkpt lat="44.5601380" lon="7.1387470">
        <ele>1895.4</ele>
        <time>2017-07-24T13:19:15Z</time>
      </trkpt>
      <trkpt lat="44.5601370" lon="7.1388600">
        <ele>1892.6</ele>
        <time>2017-07-24T13:19:16Z</time>
      </trkpt>
      <trkpt lat="44.5601340" lon="7.1389760">
        <ele>1891.4</ele>
        <time>2017-07-24T13:19:17Z</time>
      </trkpt>
      <trkpt lat="44.5601250" lon="7.1390940">
        <ele>1890.2</ele>
        <time>2017-07-24T13:19:18Z</time>
      </trkpt>
      <trkpt lat="44.5600920" lon="7.1393160">
        <ele>1887.6</ele>
        <time>2017-07-24T13:19:20Z</time>
      </trkpt>
      <trkpt lat="44.5600740" lon="7.1394170">
        <ele>1886.6</ele>
        <time>2017-07-24T13:19:21Z</time>
      </trkpt>
      <trkpt lat="44.5600580" lon="7.1395150">
        <ele>1885.8</ele>
        <time>2017-07-24T13:19:22Z</time>
      </trkpt>
      <trkpt lat="44.5600460" lon="7.1396120">
        <ele>1885.0</ele>
        <time>2017-07-24T13:19:23Z</time>
      </trkpt>
      <trkpt lat="44.5600380" lon="7.1397970">
        <ele>1882.6</ele>
        <time>2017-07-24T13:19:25Z</time>
      </trkpt>
      <trkpt lat="44.5600430" lon="7.1398830">
        <ele>1881.8</ele>
        <time>2017-07-24T13:19:26Z</time>
      </trkpt>
      <trkpt lat="44.5600550" lon="7.1399660">
        <ele>1880.6</ele>
        <time>2017-07-24T13:19:27Z</time>
      </trkpt>
      <trkpt lat="44.5600960" lon="7.1401200">
        <ele>1879.0</ele>
        <time>2017-07-24T13:19:29Z</time>
      </trkpt>
      <trkpt lat="44.5601260" lon="7.1401920">
        <ele>1878.0</ele>
        <time>2017-07-24T13:19:30Z</time>
      </trkpt>
      <trkpt lat="44.5601560" lon="7.1402670">
        <ele>1876.6</ele>
        <time>2017-07-24T13:19:31Z</time>
      </trkpt>
      <trkpt lat="44.5601860" lon="7.1403440">
        <ele>1875.2</ele>
        <time>2017-07-24T13:19:32Z</time>
      </trkpt>
      <trkpt lat="44.5602130" lon="7.1404200">
        <ele>1874.2</ele>
        <time>2017-07-24T13:19:33Z</time>
      </trkpt>
      <trkpt lat="44.5602400" lon="7.1404940">
        <ele>1873.0</ele>
        <time>2017-07-24T13:19:34Z</time>
      </trkpt>
      <trkpt lat="44.5602720" lon="7.1405710">
        <ele>1872.0</ele>
        <time>2017-07-24T13:19:35Z</time>
      </trkpt>
      <trkpt lat="44.5603050" lon="7.1406470">
        <ele>1870.8</ele>
        <time>2017-07-24T13:19:36Z</time>
      </trkpt>
      <trkpt lat="44.5603360" lon="7.1407200">
        <ele>1869.6</ele>
        <time>2017-07-24T13:19:37Z</time>
      </trkpt>
      <trkpt lat="44.5603920" lon="7.1408710">
        <ele>1868.0</ele>
        <time>2017-07-24T13:19:39Z</time>
      </trkpt>
      <trkpt lat="44.5604160" lon="7.1409490">
        <ele>1865.2</ele>
        <time>2017-07-24T13:19:40Z</time>
      </trkpt>
      <trkpt lat="44.5604400" lon="7.1410260">
        <ele>1863.8</ele>
        <time>2017-07-24T13:19:41Z</time>
      </trkpt>
      <trkpt lat="44.5604670" lon="7.1411030">
        <ele>1862.6</ele>
        <time>2017-07-24T13:19:42Z</time>
      </trkpt>
      <trkpt lat="44.5604950" lon="7.1411790">
        <ele>1861.2</ele>
        <time>2017-07-24T13:19:43Z</time>
      </trkpt>
      <trkpt lat="44.5605230" lon="7.1412590">
        <ele>1860.0</ele>
        <time>2017-07-24T13:19:44Z</time>
      </trkpt>
      <trkpt lat="44.5605530" lon="7.1413460">
        <ele>1858.8</ele>
        <time>2017-07-24T13:19:45Z</time>
      </trkpt>
      <trkpt lat="44.5605850" lon="7.1414350">
        <ele>1857.6</ele>
        <time>2017-07-24T13:19:46Z</time>
      </trkpt>
      <trkpt lat="44.5606160" lon="7.1415290">
        <ele>1856.4</ele>
        <time>2017-07-24T13:19:47Z</time>
      </trkpt>
      <trkpt lat="44.5606440" lon="7.1416260">
        <ele>1855.0</ele>
        <time>2017-07-24T13:19:48Z</time>
      </trkpt>
      <trkpt lat="44.5606720" lon="7.1417250">
        <ele>1853.6</ele>
        <time>2017-07-24T13:19:49Z</time>
      </trkpt>
      <trkpt lat="44.5607060" lon="7.1418260">
        <ele>1852.0</ele>
        <time>2017-07-24T13:19:50Z</time>
      </trkpt>
      <trkpt lat="44.5607410" lon="7.1419250">
        <ele>1851.0</ele>
        <time>2017-07-24T13:19:51Z</time>
      </trkpt>
      <trkpt lat="44.5607750" lon="7.1420240">
        <ele>1849.6</ele>
        <time>2017-07-24T13:19:52Z</time>
      </trkpt>
      <trkpt lat="44.5608080" lon="7.1421240">
        <ele>1848.4</ele>
        <time>2017-07-24T13:19:53Z</time>
      </trkpt>
      <trkpt lat="44.5608360" lon="7.1422350">
        <ele>1847.2</ele>
        <time>2017-07-24T13:19:54Z</time>
      </trkpt>
      <trkpt lat="44.5608640" lon="7.1423470">
        <ele>1845.8</ele>
        <time>2017-07-24T13:19:55Z</time>
      </trkpt>
      <trkpt lat="44.5608890" lon="7.1424580">
        <ele>1844.4</ele>
        <time>2017-07-24T13:19:56Z</time>
      </trkpt>
      <trkpt lat="44.5609080" lon="7.1425620">
        <ele>1843.2</ele>
        <time>2017-07-24T13:19:57Z</time>
      </trkpt>
      <trkpt lat="44.5609220" lon="7.1426660">
        <ele>1842.2</ele>
        <time>2017-07-24T13:19:58Z</time>
      </trkpt>
      <trkpt lat="44.5609230" lon="7.1427760">
        <ele>1840.6</ele>
        <time>2017-07-24T13:19:59Z</time>
      </trkpt>
      <trkpt lat="44.5609230" lon="7.1428810">
        <ele>1839.0</ele>
        <time>2017-07-24T13:20:00Z</time>
      </trkpt>
      <trkpt lat="44.5609230" lon="7.1429750">
        <ele>1837.0</ele>
        <time>2017-07-24T13:20:01Z</time>
      </trkpt>
      <trkpt lat="44.5609260" lon="7.1430570">
        <ele>1835.4</ele>
        <time>2017-07-24T13:20:02Z</time>
      </trkpt>
      <trkpt lat="44.5609310" lon="7.1431370">
        <ele>1833.8</ele>
        <time>2017-07-24T13:20:03Z</time>
      </trkpt>
      <trkpt lat="44.5609450" lon="7.1432110">
        <ele>1830.8</ele>
        <time>2017-07-24T13:20:04Z</time>
      </trkpt>
      <trkpt lat="44.5609640" lon="7.1432790">
        <ele>1829.2</ele>
        <time>2017-07-24T13:20:05Z</time>
      </trkpt>
      <trkpt lat="44.5609920" lon="7.1433480">
        <ele>1828.0</ele>
        <time>2017-07-24T13:20:06Z</time>
      </trkpt>
      <trkpt lat="44.5610220" lon="7.1434060">
        <ele>1826.6</ele>
        <time>2017-07-24T13:20:07Z</time>
      </trkpt>
      <trkpt lat="44.5610530" lon="7.1434680">
        <ele>1825.4</ele>
        <time>2017-07-24T13:20:08Z</time>
      </trkpt>
      <trkpt lat="44.5610810" lon="7.1435220">
        <ele>1823.8</ele>
        <time>2017-07-24T13:20:09Z</time>
      </trkpt>
      <trkpt lat="44.5611060" lon="7.1435740">
        <ele>1822.4</ele>
        <time>2017-07-24T13:20:10Z</time>
      </trkpt>
      <trkpt lat="44.5611340" lon="7.1436270">
        <ele>1821.2</ele>
        <time>2017-07-24T13:20:11Z</time>
      </trkpt>
      <trkpt lat="44.5611620" lon="7.1436810">
        <ele>1820.0</ele>
        <time>2017-07-24T13:20:12Z</time>
      </trkpt>
      <trkpt lat="44.5611920" lon="7.1437310">
        <ele>1818.8</ele>
        <time>2017-07-24T13:20:13Z</time>
      </trkpt>
      <trkpt lat="44.5612240" lon="7.1437830">
        <ele>1817.6</ele>
        <time>2017-07-24T13:20:14Z</time>
      </trkpt>
      <trkpt lat="44.5612560" lon="7.1438360">
        <ele>1816.2</ele>
        <time>2017-07-24T13:20:15Z</time>
      </trkpt>
      <trkpt lat="44.5612920" lon="7.1438880">
        <ele>1814.8</ele>
        <time>2017-07-24T13:20:16Z</time>
      </trkpt>
      <trkpt lat="44.5613290" lon="7.1439360">
        <ele>1813.4</ele>
        <time>2017-07-24T13:20:17Z</time>
      </trkpt>
      <trkpt lat="44.5613680" lon="7.1439840">
        <ele>1812.2</ele>
        <time>2017-07-24T13:20:18Z</time>
      </trkpt>
      <trkpt lat="44.5614090" lon="7.1440360">
        <ele>1811.0</ele>
        <time>2017-07-24T13:20:19Z</time>
      </trkpt>
      <trkpt lat="44.5614470" lon="7.1440990">
        <ele>1810.0</ele>
        <time>2017-07-24T13:20:20Z</time>
      </trkpt>
      <trkpt lat="44.5614850" lon="7.1441680">
        <ele>1808.6</ele>
        <time>2017-07-24T13:20:21Z</time>
      </trkpt>
      <trkpt lat="44.5615240" lon="7.1442380">
        <ele>1807.2</ele>
        <time>2017-07-24T13:20:22Z</time>
      </trkpt>
      <trkpt lat="44.5615590" lon="7.1443000">
        <ele>1806.0</ele>
        <time>2017-07-24T13:20:23Z</time>
      </trkpt>
      <trkpt lat="44.5616260" lon="7.1443970">
        <ele>1803.8</ele>
        <time>2017-07-24T13:20:25Z</time>
      </trkpt>
      <trkpt lat="44.5616640" lon="7.1444410">
        <ele>1802.2</ele>
        <time>2017-07-24T13:20:26Z</time>
      </trkpt>
      <trkpt lat="44.5617070" lon="7.1444820">
        <ele>1801.0</ele>
        <time>2017-07-24T13:20:27Z</time>
      </trkpt>
      <trkpt lat="44.5617510" lon="7.1445170">
        <ele>1799.2</ele>
        <time>2017-07-24T13:20:28Z</time>
      </trkpt>
      <trkpt lat="44.5617960" lon="7.1445490">
        <ele>1798.0</ele>
        <time>2017-07-24T13:20:29Z</time>
      </trkpt>
      <trkpt lat="44.5618420" lon="7.1445790">
        <ele>1796.8</ele>
        <time>2017-07-24T13:20:30Z</time>
      </trkpt>
      <trkpt lat="44.5618910" lon="7.1446060">
        <ele>1795.2</ele>
        <time>2017-07-24T13:20:31Z</time>
      </trkpt>
      <trkpt lat="44.5619410" lon="7.1446350">
        <ele>1793.8</ele>
        <time>2017-07-24T13:20:32Z</time>
      </trkpt>
      <trkpt lat="44.5619920" lon="7.1446810">
        <ele>1792.6</ele>
        <time>2017-07-24T13:20:33Z</time>
      </trkpt>
      <trkpt lat="44.5620430" lon="7.1447480">
        <ele>1791.2</ele>
        <time>2017-07-24T13:20:34Z</time>
      </trkpt>
      <trkpt lat="44.5620940" lon="7.1448370">
        <ele>1790.0</ele>
        <time>2017-07-24T13:20:35Z</time>
      </trkpt>
      <trkpt lat="44.5621440" lon="7.1449320">
        <ele>1788.6</ele>
        <time>2017-07-24T13:20:36Z</time>
      </trkpt>
      <trkpt lat="44.5621860" lon="7.1450190">
        <ele>1787.4</ele>
        <time>2017-07-24T13:20:37Z</time>
      </trkpt>
      <trkpt lat="44.5622590" lon="7.1451790">
        <ele>1785.6</ele>
        <time>2017-07-24T13:20:39Z</time>
      </trkpt>
      <trkpt lat="44.5623020" lon="7.1452490">
        <ele>1784.8</ele>
        <time>2017-07-24T13:20:40Z</time>
      </trkpt>
      <trkpt lat="44.5623440" lon="7.1453090">
        <ele>1783.6</ele>
        <time>2017-07-24T13:20:41Z</time>
      </trkpt>
      <trkpt lat="44.5623820" lon="7.1453650">
        <ele>1782.2</ele>
        <time>2017-07-24T13:20:42Z</time>
      </trkpt>
      <trkpt lat="44.5624130" lon="7.1454240">
        <ele>1780.8</ele>
        <time>2017-07-24T13:20:43Z</time>
      </trkpt>
      <trkpt lat="44.5624430" lon="7.1454790">
        <ele>1779.8</ele>
        <time>2017-07-24T13:20:44Z</time>
      </trkpt>
      <trkpt lat="44.5625010" lon="7.1455810">
        <ele>1778.0</ele>
        <time>2017-07-24T13:20:46Z</time>
      </trkpt>
      <trkpt lat="44.5625340" lon="7.1456310">
        <ele>1777.0</ele>
        <time>2017-07-24T13:20:47Z</time>
      </trkpt>
      <trkpt lat="44.5625690" lon="7.1456830">
        <ele>1775.6</ele>
        <time>2017-07-24T13:20:48Z</time>
      </trkpt>
      <trkpt lat="44.5626030" lon="7.1457320">
        <ele>1774.0</ele>
        <time>2017-07-24T13:20:49Z</time>
      </trkpt>
      <trkpt lat="44.5626380" lon="7.1457860">
        <ele>1772.8</ele>
        <time>2017-07-24T13:20:50Z</time>
      </trkpt>
      <trkpt lat="44.5626770" lon="7.1458390">
        <ele>1771.4</ele>
        <time>2017-07-24T13:20:51Z</time>
      </trkpt>
      <trkpt lat="44.5627160" lon="7.1458930">
        <ele>1769.0</ele>
        <time>2017-07-24T13:20:52Z</time>
      </trkpt>
      <trkpt lat="44.5627570" lon="7.1459560">
        <ele>1768.0</ele>
        <time>2017-07-24T13:20:53Z</time>
      </trkpt>
      <trkpt lat="44.5627990" lon="7.1460220">
        <ele>1766.6</ele>
        <time>2017-07-24T13:20:54Z</time>
      </trkpt>
      <trkpt lat="44.5628410" lon="7.1460830">
        <ele>1765.2</ele>
        <time>2017-07-24T13:20:55Z</time>
      </trkpt>
      <trkpt lat="44.5628840" lon="7.1461280">
        <ele>1763.8</ele>
        <time>2017-07-24T13:20:56Z</time>
      </trkpt>
      <trkpt lat="44.5629280" lon="7.1461680">
        <ele>1762.6</ele>
        <time>2017-07-24T13:20:57Z</time>
      </trkpt>
      <trkpt lat="44.5629730" lon="7.1462050">
        <ele>1761.4</ele>
        <time>2017-07-24T13:20:58Z</time>
      </trkpt>
      <trkpt lat="44.5630190" lon="7.1462440">
        <ele>1760.2</ele>
        <time>2017-07-24T13:20:59Z</time>
      </trkpt>
      <trkpt lat="44.5630750" lon="7.1462830">
        <ele>1759.2</ele>
        <time>2017-07-24T13:21:00Z</time>
      </trkpt>
      <trkpt lat="44.5631360" lon="7.1463250">
        <ele>1758.4</ele>
        <time>2017-07-24T13:21:01Z</time>
      </trkpt>
      <trkpt lat="44.5631990" lon="7.1463700">
        <ele>1756.8</ele>
        <time>2017-07-24T13:21:02Z</time>
      </trkpt>
      <trkpt lat="44.5632620" lon="7.1464110">
        <ele>1755.6</ele>
        <time>2017-07-24T13:21:03Z</time>
      </trkpt>
      <trkpt lat="44.5633220" lon="7.1464460">
        <ele>1754.0</ele>
        <time>2017-07-24T13:21:04Z</time>
      </trkpt>
      <trkpt lat="44.5633800" lon="7.1464760">
        <ele>1752.8</ele>
        <time>2017-07-24T13:21:05Z</time>
      </trkpt>
      <trkpt lat="44.5634360" lon="7.1465040">
        <ele>1750.8</ele>
        <time>2017-07-24T13:21:06Z</time>
      </trkpt>
      <trkpt lat="44.5634910" lon="7.1465410">
        <ele>1749.6</ele>
        <time>2017-07-24T13:21:07Z</time>
      </trkpt>
      <trkpt lat="44.5635460" lon="7.1465820">
        <ele>1748.0</ele>
        <time>2017-07-24T13:21:08Z</time>
      </trkpt>
      <trkpt lat="44.5636030" lon="7.1466270">
        <ele>1746.8</ele>
        <time>2017-07-24T13:21:09Z</time>
      </trkpt>
      <trkpt lat="44.5636670" lon="7.1466720">
        <ele>1745.4</ele>
        <time>2017-07-24T13:21:10Z</time>
      </trkpt>
      <trkpt lat="44.5637250" lon="7.1467080">
        <ele>1744.0</ele>
        <time>2017-07-24T13:21:11Z</time>
      </trkpt>
      <trkpt lat="44.5637790" lon="7.1467390">
        <ele>1742.8</ele>
        <time>2017-07-24T13:21:12Z</time>
      </trkpt>
      <trkpt lat="44.5638280" lon="7.1467660">
        <ele>1741.4</ele>
        <time>2017-07-24T13:21:13Z</time>
      </trkpt>
      <trkpt lat="44.5638730" lon="7.1467920">
        <ele>1740.4</ele>
        <time>2017-07-24T13:21:14Z</time>
      </trkpt>
      <trkpt lat="44.5639180" lon="7.1468100">
        <ele>1739.0</ele>
        <time>2017-07-24T13:21:15Z</time>
      </trkpt>
      <trkpt lat="44.5639640" lon="7.1468270">
        <ele>1736.6</ele>
        <time>2017-07-24T13:21:16Z</time>
      </trkpt>
      <trkpt lat="44.5640130" lon="7.1468390">
        <ele>1735.2</ele>
        <time>2017-07-24T13:21:17Z</time>
      </trkpt>
      <trkpt lat="44.5640640" lon="7.1468450">
        <ele>1733.4</ele>
        <time>2017-07-24T13:21:18Z</time>
      </trkpt>
      <trkpt lat="44.5641200" lon="7.1468490">
        <ele>1732.0</ele>
        <time>2017-07-24T13:21:19Z</time>
      </trkpt>
      <trkpt lat="44.5641760" lon="7.1468600">
        <ele>1730.8</ele>
        <time>2017-07-24T13:21:20Z</time>
      </trkpt>
      <trkpt lat="44.5642360" lon="7.1468800">
        <ele>1729.8</ele>
        <time>2017-07-24T13:21:21Z</time>
      </trkpt>
      <trkpt lat="44.5642980" lon="7.1469190">
        <ele>1728.8</ele>
        <time>2017-07-24T13:21:22Z</time>
      </trkpt>
      <trkpt lat="44.5643610" lon="7.1469780">
        <ele>1727.2</ele>
        <time>2017-07-24T13:21:23Z</time>
      </trkpt>
      <trkpt lat="44.5644320" lon="7.1470530">
        <ele>1725.8</ele>
        <time>2017-07-24T13:21:24Z</time>
      </trkpt>
      <trkpt lat="44.5645030" lon="7.1471350">
        <ele>1724.0</ele>
        <time>2017-07-24T13:21:25Z</time>
      </trkpt>
      <trkpt lat="44.5645720" lon="7.1472100">
        <ele>1723.0</ele>
        <time>2017-07-24T13:21:26Z</time>
      </trkpt>
      <trkpt lat="44.5646400" lon="7.1472870">
        <ele>1721.8</ele>
        <time>2017-07-24T13:21:27Z</time>
      </trkpt>
      <trkpt lat="44.5647070" lon="7.1473710">
        <ele>1720.4</ele>
        <time>2017-07-24T13:21:28Z</time>
      </trkpt>
      <trkpt lat="44.5647730" lon="7.1474500">
        <ele>1719.0</ele>
        <time>2017-07-24T13:21:29Z</time>
      </trkpt>
      <trkpt lat="44.5648360" lon="7.1475220">
        <ele>1717.6</ele>
        <time>2017-07-24T13:21:30Z</time>
      </trkpt>
      <trkpt lat="44.5648960" lon="7.1475930">
        <ele>1716.2</ele>
        <time>2017-07-24T13:21:31Z</time>
      </trkpt>
      <trkpt lat="44.5649640" lon="7.1476540">
        <ele>1714.8</ele>
        <time>2017-07-24T13:21:32Z</time>
      </trkpt>
      <trkpt lat="44.5650340" lon="7.1477110">
        <ele>1713.6</ele>
        <time>2017-07-24T13:21:33Z</time>
      </trkpt>
      <trkpt lat="44.5650960" lon="7.1477590">
        <ele>1712.4</ele>
        <time>2017-07-24T13:21:34Z</time>
      </trkpt>
      <trkpt lat="44.5651460" lon="7.1478080">
        <ele>1711.0</ele>
        <time>2017-07-24T13:21:35Z</time>
      </trkpt>
      <trkpt lat="44.5651910" lon="7.1478650">
        <ele>1709.8</ele>
        <time>2017-07-24T13:21:36Z</time>
      </trkpt>
      <trkpt lat="44.5652340" lon="7.1479440">
        <ele>1708.4</ele>
        <time>2017-07-24T13:21:37Z</time>
      </trkpt>
      <trkpt lat="44.5652840" lon="7.1480310">
        <ele>1707.0</ele>
        <time>2017-07-24T13:21:38Z</time>
      </trkpt>
      <trkpt lat="44.5653410" lon="7.1481180">
        <ele>1705.6</ele>
        <time>2017-07-24T13:21:39Z</time>
      </trkpt>
      <trkpt lat="44.5653990" lon="7.1482030">
        <ele>1703.0</ele>
        <time>2017-07-24T13:21:40Z</time>
      </trkpt>
      <trkpt lat="44.5654570" lon="7.1482790">
        <ele>1701.8</ele>
        <time>2017-07-24T13:21:41Z</time>
      </trkpt>
      <trkpt lat="44.5655130" lon="7.1483300">
        <ele>1700.4</ele>
        <time>2017-07-24T13:21:42Z</time>
      </trkpt>
      <trkpt lat="44.5655720" lon="7.1483660">
        <ele>1699.0</ele>
        <time>2017-07-24T13:21:43Z</time>
      </trkpt>
      <trkpt lat="44.5656310" lon="7.1483830">
        <ele>1697.2</ele>
        <time>2017-07-24T13:21:44Z</time>
      </trkpt>
      <trkpt lat="44.5656760" lon="7.1483930">
        <ele>1695.2</ele>
        <time>2017-07-24T13:21:45Z</time>
      </trkpt>
      <trkpt lat="44.5657010" lon="7.1484060">
        <ele>1693.6</ele>
        <time>2017-07-24T13:21:46Z</time>
      </trkpt>
      <trkpt lat="44.5657150" lon="7.1484260">
        <ele>1692.2</ele>
        <time>2017-07-24T13:21:47Z</time>
      </trkpt>
      <trkpt lat="44.5657110" lon="7.1484470">
        <ele>1691.0</ele>
        <time>2017-07-24T13:21:48Z</time>
      </trkpt>
      <trkpt lat="44.5656840" lon="7.1484630">
        <ele>1689.6</ele>
        <time>2017-07-24T13:21:49Z</time>
      </trkpt>
      <trkpt lat="44.5656460" lon="7.1484820">
        <ele>1688.0</ele>
        <time>2017-07-24T13:21:50Z</time>
      </trkpt>
      <trkpt lat="44.5656230" lon="7.1485100">
        <ele>1686.8</ele>
        <time>2017-07-24T13:21:51Z</time>
      </trkpt>
      <trkpt lat="44.5656240" lon="7.1485380">
        <ele>1685.6</ele>
        <time>2017-07-24T13:21:52Z</time>
      </trkpt>
      <trkpt lat="44.5656870" lon="7.1485320">
        <ele>1683.8</ele>
        <time>2017-07-24T13:21:54Z</time>
      </trkpt>
      <trkpt lat="44.5657920" lon="7.1484790">
        <ele>1681.6</ele>
        <time>2017-07-24T13:21:56Z</time>
      </trkpt>
      <trkpt lat="44.5658510" lon="7.1484630">
        <ele>1680.6</ele>
        <time>2017-07-24T13:21:57Z</time>
      </trkpt>
      <trkpt lat="44.5659190" lon="7.1484600">
        <ele>1679.2</ele>
        <time>2017-07-24T13:21:58Z</time>
      </trkpt>
      <trkpt lat="44.5660870" lon="7.1484840">
        <ele>1677.2</ele>
        <time>2017-07-24T13:22:00Z</time>
      </trkpt>
      <trkpt lat="44.5662420" lon="7.1485130">
        <ele>1674.8</ele>
        <time>2017-07-24T13:22:02Z</time>
      </trkpt>
      <trkpt lat="44.5662970" lon="7.1485100">
        <ele>1673.6</ele>
        <time>2017-07-24T13:22:03Z</time>
      </trkpt>
      <trkpt lat="44.5663390" lon="7.1485150">
        <ele>1672.0</ele>
        <time>2017-07-24T13:22:04Z</time>
      </trkpt>
      <trkpt lat="44.5663530" lon="7.1485660">
        <ele>1670.4</ele>
        <time>2017-07-24T13:22:06Z</time>
      </trkpt>
      <trkpt lat="44.5662960" lon="7.1485930">
        <ele>1668.6</ele>
        <time>2017-07-24T13:22:08Z</time>
      </trkpt>
      <trkpt lat="44.5662560" lon="7.1486090">
        <ele>1667.8</ele>
        <time>2017-07-24T13:22:09Z</time>
      </trkpt>
      <trkpt lat="44.5662090" lon="7.1486340">
        <ele>1666.8</ele>
        <time>2017-07-24T13:22:10Z</time>
      </trkpt>
      <trkpt lat="44.5661570" lon="7.1486700">
        <ele>1666.0</ele>
        <time>2017-07-24T13:22:11Z</time>
      </trkpt>
      <trkpt lat="44.5661010" lon="7.1487170">
        <ele>1665.2</ele>
        <time>2017-07-24T13:22:12Z</time>
      </trkpt>
      <trkpt lat="44.5660100" lon="7.1488190">
        <ele>1663.6</ele>
        <time>2017-07-24T13:22:14Z</time>
      </trkpt>
      <trkpt lat="44.5660030" lon="7.1488650">
        <ele>1662.8</ele>
        <time>2017-07-24T13:22:15Z</time>
      </trkpt>
      <trkpt lat="44.5660200" lon="7.1488920">
        <ele>1662.0</ele>
        <time>2017-07-24T13:22:16Z</time>
      </trkpt>
      <trkpt lat="44.5660540" lon="7.1489030">
        <ele>1661.2</ele>
        <time>2017-07-24T13:22:17Z</time>
      </trkpt>
      <trkpt lat="44.5660940" lon="7.1489130">
        <ele>1660.4</ele>
        <time>2017-07-24T13:22:18Z</time>
      </trkpt>
      <trkpt lat="44.5661650" lon="7.1489650">
        <ele>1659.0</ele>
        <time>2017-07-24T13:22:20Z</time>
      </trkpt>
      <trkpt lat="44.5662000" lon="7.1489850">
        <ele>1658.4</ele>
        <time>2017-07-24T13:22:21Z</time>
      </trkpt>
      <trkpt lat="44.5662180" lon="7.1490040">
        <ele>1657.6</ele>
        <time>2017-07-24T13:22:22Z</time>
      </trkpt>
      <trkpt lat="44.5662420" lon="7.1490690">
        <ele>1656.6</ele>
        <time>2017-07-24T13:22:24Z</time>
      </trkpt>
      <trkpt lat="44.5662380" lon="7.1491160">
        <ele>1656.2</ele>
        <time>2017-07-24T13:22:25Z</time>
      </trkpt>
      <trkpt lat="44.5662240" lon="7.1492130">
        <ele>1654.4</ele>
        <time>2017-07-24T13:22:27Z</time>
      </trkpt>
      <trkpt lat="44.5662220" lon="7.1492700">
        <ele>1653.0</ele>
        <time>2017-07-24T13:22:28Z</time>
      </trkpt>
      <trkpt lat="44.5662210" lon="7.1493200">
        <ele>1652.6</ele>
        <time>2017-07-24T13:22:29Z</time>
      </trkpt>
      <trkpt lat="44.5662210" lon="7.1493680">
        <ele>1652.0</ele>
        <time>2017-07-24T13:22:30Z</time>
      </trkpt>
      <trkpt lat="44.5662180" lon="7.1494700">
        <ele>1650.4</ele>
        <time>2017-07-24T13:22:32Z</time>
      </trkpt>
      <trkpt lat="44.5662190" lon="7.1495260">
        <ele>1649.6</ele>
        <time>2017-07-24T13:22:33Z</time>
      </trkpt>
      <trkpt lat="44.5662200" lon="7.1495820">
        <ele>1649.0</ele>
        <time>2017-07-24T13:22:34Z</time>
      </trkpt>
      <trkpt lat="44.5662160" lon="7.1496920">
        <ele>1647.4</ele>
        <time>2017-07-24T13:22:36Z</time>
      </trkpt>
      <trkpt lat="44.5662050" lon="7.1497780">
        <ele>1646.2</ele>
        <time>2017-07-24T13:22:38Z</time>
      </trkpt>
      <trkpt lat="44.5661930" lon="7.1498140">
        <ele>1645.4</ele>
        <time>2017-07-24T13:22:39Z</time>
      </trkpt>
      <trkpt lat="44.5661810" lon="7.1498380">
        <ele>1644.4</ele>
        <time>2017-07-24T13:22:40Z</time>
      </trkpt>
      <trkpt lat="44.5661680" lon="7.1498540">
        <ele>1643.4</ele>
        <time>2017-07-24T13:22:41Z</time>
      </trkpt>
      <trkpt lat="44.5661480" lon="7.1498700">
        <ele>1641.6</ele>
        <time>2017-07-24T13:22:43Z</time>
      </trkpt>
      <trkpt lat="44.5661420" lon="7.1499380">
        <ele>1633.2</ele>
        <time>2017-07-24T13:23:01Z</time>
      </trkpt>
      <trkpt lat="44.5661490" lon="7.1499920">
        <ele>1633.0</ele>
        <time>2017-07-24T13:23:03Z</time>
      </trkpt>
      <trkpt lat="44.5661710" lon="7.1501280">
        <ele>1632.0</ele>
        <time>2017-07-24T13:23:06Z</time>
      </trkpt>
      <trkpt lat="44.5661920" lon="7.1502450">
        <ele>1631.4</ele>
        <time>2017-07-24T13:23:08Z</time>
      </trkpt>
      <trkpt lat="44.5662140" lon="7.1503540">
        <ele>1631.0</ele>
        <time>2017-07-24T13:23:10Z</time>
      </trkpt>
      <trkpt lat="44.5662330" lon="7.1504100">
        <ele>1630.4</ele>
        <time>2017-07-24T13:23:11Z</time>
      </trkpt>
      <trkpt lat="44.5662570" lon="7.1504690">
        <ele>1630.0</ele>
        <time>2017-07-24T13:23:12Z</time>
      </trkpt>
      <trkpt lat="44.5662860" lon="7.1505300">
        <ele>1629.6</ele>
        <time>2017-07-24T13:23:13Z</time>
      </trkpt>
      <trkpt lat="44.5663490" lon="7.1506550">
        <ele>1628.6</ele>
        <time>2017-07-24T13:23:15Z</time>
      </trkpt>
      <trkpt lat="44.5663790" lon="7.1507130">
        <ele>1627.6</ele>
        <time>2017-07-24T13:23:16Z</time>
      </trkpt>
      <trkpt lat="44.5664490" lon="7.1508240">
        <ele>1626.0</ele>
        <time>2017-07-24T13:23:18Z</time>
      </trkpt>
      <trkpt lat="44.5665340" lon="7.1509380">
        <ele>1624.4</ele>
        <time>2017-07-24T13:23:20Z</time>
      </trkpt>
      <trkpt lat="44.5666080" lon="7.1510280">
        <ele>1622.8</ele>
        <time>2017-07-24T13:23:22Z</time>
      </trkpt>
      <trkpt lat="44.5666640" lon="7.1511080">
        <ele>1621.4</ele>
        <time>2017-07-24T13:23:24Z</time>
      </trkpt>
      <trkpt lat="44.5667260" lon="7.1512150">
        <ele>1619.6</ele>
        <time>2017-07-24T13:23:26Z</time>
      </trkpt>
      <trkpt lat="44.5667670" lon="7.1512630">
        <ele>1618.6</ele>
        <time>2017-07-24T13:23:27Z</time>
      </trkpt>
      <trkpt lat="44.5668520" lon="7.1513600">
        <ele>1616.8</ele>
        <time>2017-07-24T13:23:29Z</time>
      </trkpt>
      <trkpt lat="44.5668940" lon="7.1514100">
        <ele>1615.8</ele>
        <time>2017-07-24T13:23:30Z</time>
      </trkpt>
      <trkpt lat="44.5669420" lon="7.1514540">
        <ele>1615.0</ele>
        <time>2017-07-24T13:23:31Z</time>
      </trkpt>
      <trkpt lat="44.5669900" lon="7.1514920">
        <ele>1614.0</ele>
        <time>2017-07-24T13:23:32Z</time>
      </trkpt>
      <trkpt lat="44.5670860" lon="7.1515690">
        <ele>1612.2</ele>
        <time>2017-07-24T13:23:34Z</time>
      </trkpt>
      <trkpt lat="44.5671270" lon="7.1516050">
        <ele>1611.2</ele>
        <time>2017-07-24T13:23:35Z</time>
      </trkpt>
      <trkpt lat="44.5671610" lon="7.1516510">
        <ele>1610.2</ele>
        <time>2017-07-24T13:23:36Z</time>
      </trkpt>
      <trkpt lat="44.5671950" lon="7.1517040">
        <ele>1609.2</ele>
        <time>2017-07-24T13:23:37Z</time>
      </trkpt>
      <trkpt lat="44.5672390" lon="7.1517530">
        <ele>1608.0</ele>
        <time>2017-07-24T13:23:38Z</time>
      </trkpt>
      <trkpt lat="44.5672830" lon="7.1518010">
        <ele>1607.0</ele>
        <time>2017-07-24T13:23:39Z</time>
      </trkpt>
      <trkpt lat="44.5673280" lon="7.1518460">
        <ele>1605.0</ele>
        <time>2017-07-24T13:23:40Z</time>
      </trkpt>
      <trkpt lat="44.5673730" lon="7.1519000">
        <ele>1604.0</ele>
        <time>2017-07-24T13:23:41Z</time>
      </trkpt>
      <trkpt lat="44.5674190" lon="7.1519640">
        <ele>1602.8</ele>
        <time>2017-07-24T13:23:42Z</time>
      </trkpt>
      <trkpt lat="44.5674670" lon="7.1520240">
        <ele>1601.6</ele>
        <time>2017-07-24T13:23:43Z</time>
      </trkpt>
      <trkpt lat="44.5675170" lon="7.1520840">
        <ele>1600.2</ele>
        <time>2017-07-24T13:23:44Z</time>
      </trkpt>
      <trkpt lat="44.5675660" lon="7.1521520">
        <ele>1599.0</ele>
        <time>2017-07-24T13:23:45Z</time>
      </trkpt>
      <trkpt lat="44.5676120" lon="7.1522160">
        <ele>1597.6</ele>
        <time>2017-07-24T13:23:46Z</time>
      </trkpt>
      <trkpt lat="44.5676600" lon="7.1522760">
        <ele>1596.4</ele>
        <time>2017-07-24T13:23:47Z</time>
      </trkpt>
      <trkpt lat="44.5677100" lon="7.1523310">
        <ele>1595.0</ele>
        <time>2017-07-24T13:23:48Z</time>
      </trkpt>
      <trkpt lat="44.5677650" lon="7.1523780">
        <ele>1593.6</ele>
        <time>2017-07-24T13:23:49Z</time>
      </trkpt>
      <trkpt lat="44.5678240" lon="7.1524190">
        <ele>1592.6</ele>
        <time>2017-07-24T13:23:50Z</time>
      </trkpt>
      <trkpt lat="44.5678800" lon="7.1524620">
        <ele>1591.2</ele>
        <time>2017-07-24T13:23:51Z</time>
      </trkpt>
      <trkpt lat="44.5679350" lon="7.1525040">
        <ele>1590.0</ele>
        <time>2017-07-24T13:23:52Z</time>
      </trkpt>
      <trkpt lat="44.5679870" lon="7.1525470">
        <ele>1588.4</ele>
        <time>2017-07-24T13:23:53Z</time>
      </trkpt>
      <trkpt lat="44.5680370" lon="7.1525830">
        <ele>1587.0</ele>
        <time>2017-07-24T13:23:54Z</time>
      </trkpt>
      <trkpt lat="44.5680800" lon="7.1526140">
        <ele>1585.6</ele>
        <time>2017-07-24T13:23:55Z</time>
      </trkpt>
      <trkpt lat="44.5681130" lon="7.1526480">
        <ele>1584.0</ele>
        <time>2017-07-24T13:23:56Z</time>
      </trkpt>
      <trkpt lat="44.5681450" lon="7.1526800">
        <ele>1582.6</ele>
        <time>2017-07-24T13:23:57Z</time>
      </trkpt>
      <trkpt lat="44.5681800" lon="7.1527000">
        <ele>1581.2</ele>
        <time>2017-07-24T13:23:58Z</time>
      </trkpt>
      <trkpt lat="44.5682120" lon="7.1527230">
        <ele>1579.8</ele>
        <time>2017-07-24T13:23:59Z</time>
      </trkpt>
      <trkpt lat="44.5682420" lon="7.1527470">
        <ele>1578.4</ele>
        <time>2017-07-24T13:24:00Z</time>
      </trkpt>
      <trkpt lat="44.5682700" lon="7.1527780">
        <ele>1577.0</ele>
        <time>2017-07-24T13:24:01Z</time>
      </trkpt>
      <trkpt lat="44.5683030" lon="7.1528160">
        <ele>1575.8</ele>
        <time>2017-07-24T13:24:02Z</time>
      </trkpt>
      <trkpt lat="44.5683380" lon="7.1528480">
        <ele>1574.6</ele>
        <time>2017-07-24T13:24:03Z</time>
      </trkpt>
      <trkpt lat="44.5683720" lon="7.1528870">
        <ele>1572.0</ele>
        <time>2017-07-24T13:24:04Z</time>
      </trkpt>
      <trkpt lat="44.5684040" lon="7.1529310">
        <ele>1570.8</ele>
        <time>2017-07-24T13:24:05Z</time>
      </trkpt>
      <trkpt lat="44.5684360" lon="7.1529740">
        <ele>1569.6</ele>
        <time>2017-07-24T13:24:06Z</time>
      </trkpt>
      <trkpt lat="44.5684720" lon="7.1530140">
        <ele>1568.4</ele>
        <time>2017-07-24T13:24:07Z</time>
      </trkpt>
      <trkpt lat="44.5685090" lon="7.1530470">
        <ele>1567.0</ele>
        <time>2017-07-24T13:24:08Z</time>
      </trkpt>
      <trkpt lat="44.5685460" lon="7.1530770">
        <ele>1565.8</ele>
        <time>2017-07-24T13:24:09Z</time>
      </trkpt>
      <trkpt lat="44.5685860" lon="7.1531080">
        <ele>1564.4</ele>
        <time>2017-07-24T13:24:10Z</time>
      </trkpt>
      <trkpt lat="44.5686220" lon="7.1531590">
        <ele>1563.2</ele>
        <time>2017-07-24T13:24:11Z</time>
      </trkpt>
      <trkpt lat="44.5686650" lon="7.1532220">
        <ele>1562.0</ele>
        <time>2017-07-24T13:24:12Z</time>
      </trkpt>
      <trkpt lat="44.5687120" lon="7.1532880">
        <ele>1560.8</ele>
        <time>2017-07-24T13:24:13Z</time>
      </trkpt>
      <trkpt lat="44.5687630" lon="7.1533550">
        <ele>1559.4</ele>
        <time>2017-07-24T13:24:14Z</time>
      </trkpt>
      <trkpt lat="44.5688180" lon="7.1534200">
        <ele>1558.0</ele>
        <time>2017-07-24T13:24:15Z</time>
      </trkpt>
      <trkpt lat="44.5688740" lon="7.1534860">
        <ele>1556.6</ele>
        <time>2017-07-24T13:24:16Z</time>
      </trkpt>
      <trkpt lat="44.5689290" lon="7.1535540">
        <ele>1555.2</ele>
        <time>2017-07-24T13:24:17Z</time>
      </trkpt>
      <trkpt lat="44.5689890" lon="7.1536200">
        <ele>1553.8</ele>
        <time>2017-07-24T13:24:18Z</time>
      </trkpt>
      <trkpt lat="44.5690550" lon="7.1536840">
        <ele>1552.4</ele>
        <time>2017-07-24T13:24:19Z</time>
      </trkpt>
      <trkpt lat="44.5691190" lon="7.1537450">
        <ele>1550.8</ele>
        <time>2017-07-24T13:24:20Z</time>
      </trkpt>
      <trkpt lat="44.5691850" lon="7.1537820">
        <ele>1549.4</ele>
        <time>2017-07-24T13:24:21Z</time>
      </trkpt>
      <trkpt lat="44.5692490" lon="7.1538160">
        <ele>1548.0</ele>
        <time>2017-07-24T13:24:22Z</time>
      </trkpt>
      <trkpt lat="44.5693100" lon="7.1538530">
        <ele>1546.8</ele>
        <time>2017-07-24T13:24:23Z</time>
      </trkpt>
      <trkpt lat="44.5693610" lon="7.1538970">
        <ele>1545.6</ele>
        <time>2017-07-24T13:24:24Z</time>
      </trkpt>
      <trkpt lat="44.5694070" lon="7.1539360">
        <ele>1544.4</ele>
        <time>2017-07-24T13:24:25Z</time>
      </trkpt>
      <trkpt lat="44.5694500" lon="7.1539760">
        <ele>1543.2</ele>
        <time>2017-07-24T13:24:26Z</time>
      </trkpt>
      <trkpt lat="44.5694930" lon="7.1540140">
        <ele>1541.8</ele>
        <time>2017-07-24T13:24:27Z</time>
      </trkpt>
      <trkpt lat="44.5695350" lon="7.1540500">
        <ele>1539.0</ele>
        <time>2017-07-24T13:24:28Z</time>
      </trkpt>
      <trkpt lat="44.5695770" lon="7.1540740">
        <ele>1537.8</ele>
        <time>2017-07-24T13:24:29Z</time>
      </trkpt>
      <trkpt lat="44.5696180" lon="7.1540950">
        <ele>1536.6</ele>
        <time>2017-07-24T13:24:30Z</time>
      </trkpt>
      <trkpt lat="44.5696590" lon="7.1541130">
        <ele>1535.4</ele>
        <time>2017-07-24T13:24:31Z</time>
      </trkpt>
      <trkpt lat="44.5697000" lon="7.1541290">
        <ele>1534.2</ele>
        <time>2017-07-24T13:24:32Z</time>
      </trkpt>
      <trkpt lat="44.5697810" lon="7.1541530">
        <ele>1532.0</ele>
        <time>2017-07-24T13:24:34Z</time>
      </trkpt>
      <trkpt lat="44.5698160" lon="7.1541730">
        <ele>1530.8</ele>
        <time>2017-07-24T13:24:35Z</time>
      </trkpt>
      <trkpt lat="44.5698470" lon="7.1541980">
        <ele>1529.6</ele>
        <time>2017-07-24T13:24:36Z</time>
      </trkpt>
      <trkpt lat="44.5698780" lon="7.1542310">
        <ele>1528.2</ele>
        <time>2017-07-24T13:24:37Z</time>
      </trkpt>
      <trkpt lat="44.5699120" lon="7.1542640">
        <ele>1527.0</ele>
        <time>2017-07-24T13:24:38Z</time>
      </trkpt>
      <trkpt lat="44.5699500" lon="7.1542920">
        <ele>1525.8</ele>
        <time>2017-07-24T13:24:39Z</time>
      </trkpt>
      <trkpt lat="44.5699920" lon="7.1543090">
        <ele>1524.4</ele>
        <time>2017-07-24T13:24:40Z</time>
      </trkpt>
      <trkpt lat="44.5700380" lon="7.1543210">
        <ele>1523.2</ele>
        <time>2017-07-24T13:24:41Z</time>
      </trkpt>
      <trkpt lat="44.5700890" lon="7.1543430">
        <ele>1522.2</ele>
        <time>2017-07-24T13:24:42Z</time>
      </trkpt>
      <trkpt lat="44.5701370" lon="7.1543910">
        <ele>1521.0</ele>
        <time>2017-07-24T13:24:43Z</time>
      </trkpt>
      <trkpt lat="44.5701870" lon="7.1544530">
        <ele>1520.0</ele>
        <time>2017-07-24T13:24:44Z</time>
      </trkpt>
      <trkpt lat="44.5702400" lon="7.1545190">
        <ele>1518.6</ele>
        <time>2017-07-24T13:24:45Z</time>
      </trkpt>
      <trkpt lat="44.5702970" lon="7.1545960">
        <ele>1517.4</ele>
        <time>2017-07-24T13:24:46Z</time>
      </trkpt>
      <trkpt lat="44.5703610" lon="7.1546540">
        <ele>1516.2</ele>
        <time>2017-07-24T13:24:47Z</time>
      </trkpt>
      <trkpt lat="44.5704240" lon="7.1547080">
        <ele>1514.8</ele>
        <time>2017-07-24T13:24:48Z</time>
      </trkpt>
      <trkpt lat="44.5704880" lon="7.1547670">
        <ele>1513.6</ele>
        <time>2017-07-24T13:24:49Z</time>
      </trkpt>
      <trkpt lat="44.5705460" lon="7.1548270">
        <ele>1512.0</ele>
        <time>2017-07-24T13:24:50Z</time>
      </trkpt>
      <trkpt lat="44.5706030" lon="7.1548740">
        <ele>1510.8</ele>
        <time>2017-07-24T13:24:51Z</time>
      </trkpt>
      <trkpt lat="44.5706610" lon="7.1549090">
        <ele>1508.6</ele>
        <time>2017-07-24T13:24:52Z</time>
      </trkpt>
      <trkpt lat="44.5707130" lon="7.1549400">
        <ele>1507.4</ele>
        <time>2017-07-24T13:24:53Z</time>
      </trkpt>
      <trkpt lat="44.5707490" lon="7.1549700">
        <ele>1506.2</ele>
        <time>2017-07-24T13:24:54Z</time>
      </trkpt>
      <trkpt lat="44.5707770" lon="7.1550020">
        <ele>1504.8</ele>
        <time>2017-07-24T13:24:55Z</time>
      </trkpt>
      <trkpt lat="44.5707920" lon="7.1550330">
        <ele>1503.6</ele>
        <time>2017-07-24T13:24:56Z</time>
      </trkpt>
      <trkpt lat="44.5707950" lon="7.1550550">
        <ele>1502.4</ele>
        <time>2017-07-24T13:24:57Z</time>
      </trkpt>
      <trkpt lat="44.5707890" lon="7.1550680">
        <ele>1501.0</ele>
        <time>2017-07-24T13:24:58Z</time>
      </trkpt>
      <trkpt lat="44.5707750" lon="7.1550700">
        <ele>1499.8</ele>
        <time>2017-07-24T13:24:59Z</time>
      </trkpt>
      <trkpt lat="44.5707540" lon="7.1550730">
        <ele>1498.2</ele>
        <time>2017-07-24T13:25:00Z</time>
      </trkpt>
      <trkpt lat="44.5707250" lon="7.1550810">
        <ele>1497.2</ele>
        <time>2017-07-24T13:25:01Z</time>
      </trkpt>
      <trkpt lat="44.5706920" lon="7.1550930">
        <ele>1495.6</ele>
        <time>2017-07-24T13:25:02Z</time>
      </trkpt>
      <trkpt lat="44.5706560" lon="7.1551020">
        <ele>1494.4</ele>
        <time>2017-07-24T13:25:03Z</time>
      </trkpt>
      <trkpt lat="44.5706210" lon="7.1551110">
        <ele>1493.0</ele>
        <time>2017-07-24T13:25:04Z</time>
      </trkpt>
      <trkpt lat="44.5705820" lon="7.1551010">
        <ele>1491.8</ele>
        <time>2017-07-24T13:25:05Z</time>
      </trkpt>
      <trkpt lat="44.5705450" lon="7.1550870">
        <ele>1490.6</ele>
        <time>2017-07-24T13:25:06Z</time>
      </trkpt>
      <trkpt lat="44.5705100" lon="7.1550720">
        <ele>1489.4</ele>
        <time>2017-07-24T13:25:07Z</time>
      </trkpt>
      <trkpt lat="44.5704740" lon="7.1550550">
        <ele>1488.0</ele>
        <time>2017-07-24T13:25:08Z</time>
      </trkpt>
      <trkpt lat="44.5704400" lon="7.1550390">
        <ele>1486.8</ele>
        <time>2017-07-24T13:25:09Z</time>
      </trkpt>
      <trkpt lat="44.5704060" lon="7.1550400">
        <ele>1485.8</ele>
        <time>2017-07-24T13:25:10Z</time>
      </trkpt>
      <trkpt lat="44.5703740" lon="7.1550380">
        <ele>1484.8</ele>
        <time>2017-07-24T13:25:11Z</time>
      </trkpt>
      <trkpt lat="44.5703410" lon="7.1550450">
        <ele>1483.4</ele>
        <time>2017-07-24T13:25:12Z</time>
      </trkpt>
      <trkpt lat="44.5703150" lon="7.1550560">
        <ele>1482.4</ele>
        <time>2017-07-24T13:25:13Z</time>
      </trkpt>
      <trkpt lat="44.5702960" lon="7.1550710">
        <ele>1481.2</ele>
        <time>2017-07-24T13:25:14Z</time>
      </trkpt>
      <trkpt lat="44.5702900" lon="7.1550990">
        <ele>1480.4</ele>
        <time>2017-07-24T13:25:15Z</time>
      </trkpt>
      <trkpt lat="44.5702900" lon="7.1551360">
        <ele>1478.2</ele>
        <time>2017-07-24T13:25:16Z</time>
      </trkpt>
      <trkpt lat="44.5702990" lon="7.1552150">
        <ele>1476.4</ele>
        <time>2017-07-24T13:25:18Z</time>
      </trkpt>
      <trkpt lat="44.5703380" lon="7.1552660">
        <ele>1474.2</ele>
        <time>2017-07-24T13:25:20Z</time>
      </trkpt>
      <trkpt lat="44.5703620" lon="7.1552890">
        <ele>1473.2</ele>
        <time>2017-07-24T13:25:21Z</time>
      </trkpt>
      <trkpt lat="44.5703910" lon="7.1553140">
        <ele>1472.0</ele>
        <time>2017-07-24T13:25:22Z</time>
      </trkpt>
      <trkpt lat="44.5704500" lon="7.1553740">
        <ele>1470.4</ele>
        <time>2017-07-24T13:25:24Z</time>
      </trkpt>
      <trkpt lat="44.5705130" lon="7.1554530">
        <ele>1468.6</ele>
        <time>2017-07-24T13:25:26Z</time>
      </trkpt>
      <trkpt lat="44.5705500" lon="7.1554930">
        <ele>1467.6</ele>
        <time>2017-07-24T13:25:27Z</time>
      </trkpt>
      <trkpt lat="44.5705820" lon="7.1555400">
        <ele>1466.6</ele>
        <time>2017-07-24T13:25:28Z</time>
      </trkpt>
      <trkpt lat="44.5706510" lon="7.1556130">
        <ele>1464.4</ele>
        <time>2017-07-24T13:25:30Z</time>
      </trkpt>
      <trkpt lat="44.5706760" lon="7.1556480">
        <ele>1463.4</ele>
        <time>2017-07-24T13:25:31Z</time>
      </trkpt>
      <trkpt lat="44.5706890" lon="7.1557030">
        <ele>1461.6</ele>
        <time>2017-07-24T13:25:33Z</time>
      </trkpt>
      <trkpt lat="44.5706820" lon="7.1557120">
        <ele>1460.6</ele>
        <time>2017-07-24T13:25:34Z</time>
      </trkpt>
      <trkpt lat="44.5706720" lon="7.1557110">
        <ele>1459.6</ele>
        <time>2017-07-24T13:25:35Z</time>
      </trkpt>
      <trkpt lat="44.5706250" lon="7.1556930">
        <ele>1457.8</ele>
        <time>2017-07-24T13:25:37Z</time>
      </trkpt>
      <trkpt lat="44.5706000" lon="7.1557020">
        <ele>1456.6</ele>
        <time>2017-07-24T13:25:38Z</time>
      </trkpt>
      <trkpt lat="44.5705640" lon="7.1557290">
        <ele>1454.0</ele>
        <time>2017-07-24T13:25:40Z</time>
      </trkpt>
      <trkpt lat="44.5705470" lon="7.1557830">
        <ele>1452.2</ele>
        <time>2017-07-24T13:25:42Z</time>
      </trkpt>
      <trkpt lat="44.5705460" lon="7.1558200">
        <ele>1451.2</ele>
        <time>2017-07-24T13:25:43Z</time>
      </trkpt>
      <trkpt lat="44.5705460" lon="7.1558610">
        <ele>1450.4</ele>
        <time>2017-07-24T13:25:44Z</time>
      </trkpt>
      <trkpt lat="44.5705620" lon="7.1559000">
        <ele>1449.4</ele>
        <time>2017-07-24T13:25:45Z</time>
      </trkpt>
      <trkpt lat="44.5705810" lon="7.1559390">
        <ele>1448.4</ele>
        <time>2017-07-24T13:25:46Z</time>
      </trkpt>
      <trkpt lat="44.5706040" lon="7.1559960">
        <ele>1446.4</ele>
        <time>2017-07-24T13:25:48Z</time>
      </trkpt>
      <trkpt lat="44.5706230" lon="7.1560220">
        <ele>1445.2</ele>
        <time>2017-07-24T13:25:49Z</time>
      </trkpt>
      <trkpt lat="44.5707170" lon="7.1560900">
        <ele>1443.2</ele>
        <time>2017-07-24T13:25:51Z</time>
      </trkpt>
      <trkpt lat="44.5707660" lon="7.1561230">
        <ele>1442.2</ele>
        <time>2017-07-24T13:25:52Z</time>
      </trkpt>
      <trkpt lat="44.5708100" lon="7.1561560">
        <ele>1440.6</ele>
        <time>2017-07-24T13:25:53Z</time>
      </trkpt>
      <trkpt lat="44.5709370" lon="7.1562250">
        <ele>1438.8</ele>
        <time>2017-07-24T13:25:55Z</time>
      </trkpt>
      <trkpt lat="44.5710790" lon="7.1562910">
        <ele>1436.6</ele>
        <time>2017-07-24T13:25:57Z</time>
      </trkpt>
      <trkpt lat="44.5711360" lon="7.1563300">
        <ele>1435.4</ele>
        <time>2017-07-24T13:25:58Z</time>
      </trkpt>
      <trkpt lat="44.5712050" lon="7.1563770">
        <ele>1434.2</ele>
        <time>2017-07-24T13:25:59Z</time>
      </trkpt>
      <trkpt lat="44.5712640" lon="7.1564240">
        <ele>1433.0</ele>
        <time>2017-07-24T13:26:00Z</time>
      </trkpt>
      <trkpt lat="44.5713140" lon="7.1564750">
        <ele>1432.0</ele>
        <time>2017-07-24T13:26:01Z</time>
      </trkpt>
      <trkpt lat="44.5714210" lon="7.1565850">
        <ele>1430.2</ele>
        <time>2017-07-24T13:26:03Z</time>
      </trkpt>
      <trkpt lat="44.5714720" lon="7.1566410">
        <ele>1427.8</ele>
        <time>2017-07-24T13:26:04Z</time>
      </trkpt>
      <trkpt lat="44.5715220" lon="7.1566980">
        <ele>1426.8</ele>
        <time>2017-07-24T13:26:05Z</time>
      </trkpt>
      <trkpt lat="44.5715680" lon="7.1567590">
        <ele>1425.6</ele>
        <time>2017-07-24T13:26:06Z</time>
      </trkpt>
      <trkpt lat="44.5716150" lon="7.1568170">
        <ele>1424.4</ele>
        <time>2017-07-24T13:26:07Z</time>
      </trkpt>
      <trkpt lat="44.5716660" lon="7.1568670">
        <ele>1423.2</ele>
        <time>2017-07-24T13:26:08Z</time>
      </trkpt>
      <trkpt lat="44.5717140" lon="7.1569150">
        <ele>1422.4</ele>
        <time>2017-07-24T13:26:09Z</time>
      </trkpt>
      <trkpt lat="44.5717630" lon="7.1569610">
        <ele>1421.2</ele>
        <time>2017-07-24T13:26:10Z</time>
      </trkpt>
      <trkpt lat="44.5718570" lon="7.1570600">
        <ele>1419.2</ele>
        <time>2017-07-24T13:26:12Z</time>
      </trkpt>
      <trkpt lat="44.5719430" lon="7.1571490">
        <ele>1417.0</ele>
        <time>2017-07-24T13:26:14Z</time>
      </trkpt>
      <trkpt lat="44.5719830" lon="7.1571900">
        <ele>1415.8</ele>
        <time>2017-07-24T13:26:15Z</time>
      </trkpt>
      <trkpt lat="44.5720230" lon="7.1572220">
        <ele>1414.6</ele>
        <time>2017-07-24T13:26:16Z</time>
      </trkpt>
      <trkpt lat="44.5720670" lon="7.1572440">
        <ele>1413.4</ele>
        <time>2017-07-24T13:26:17Z</time>
      </trkpt>
      <trkpt lat="44.5721080" lon="7.1572670">
        <ele>1412.2</ele>
        <time>2017-07-24T13:26:18Z</time>
      </trkpt>
      <trkpt lat="44.5721490" lon="7.1572970">
        <ele>1411.0</ele>
        <time>2017-07-24T13:26:19Z</time>
      </trkpt>
      <trkpt lat="44.5721890" lon="7.1573330">
        <ele>1409.6</ele>
        <time>2017-07-24T13:26:20Z</time>
      </trkpt>
      <trkpt lat="44.5722290" lon="7.1573710">
        <ele>1408.6</ele>
        <time>2017-07-24T13:26:21Z</time>
      </trkpt>
      <trkpt lat="44.5722720" lon="7.1574080">
        <ele>1407.4</ele>
        <time>2017-07-24T13:26:22Z</time>
      </trkpt>
      <trkpt lat="44.5723590" lon="7.1574790">
        <ele>1405.4</ele>
        <time>2017-07-24T13:26:24Z</time>
      </trkpt>
      <trkpt lat="44.5723990" lon="7.1575150">
        <ele>1404.2</ele>
        <time>2017-07-24T13:26:25Z</time>
      </trkpt>
      <trkpt lat="44.5724350" lon="7.1575410">
        <ele>1402.8</ele>
        <time>2017-07-24T13:26:26Z</time>
      </trkpt>
      <trkpt lat="44.5724700" lon="7.1575700">
        <ele>1401.6</ele>
        <time>2017-07-24T13:26:27Z</time>
      </trkpt>
      <trkpt lat="44.5725030" lon="7.1576030">
        <ele>1399.0</ele>
        <time>2017-07-24T13:26:28Z</time>
      </trkpt>
      <trkpt lat="44.5725390" lon="7.1576350">
        <ele>1397.8</ele>
        <time>2017-07-24T13:26:29Z</time>
      </trkpt>
      <trkpt lat="44.5725710" lon="7.1576820">
        <ele>1396.8</ele>
        <time>2017-07-24T13:26:30Z</time>
      </trkpt>
      <trkpt lat="44.5726030" lon="7.1577380">
        <ele>1395.6</ele>
        <time>2017-07-24T13:26:31Z</time>
      </trkpt>
      <trkpt lat="44.5726440" lon="7.1577920">
        <ele>1394.4</ele>
        <time>2017-07-24T13:26:32Z</time>
      </trkpt>
      <trkpt lat="44.5726940" lon="7.1578260">
        <ele>1393.2</ele>
        <time>2017-07-24T13:26:33Z</time>
      </trkpt>
      <trkpt lat="44.5727470" lon="7.1578560">
        <ele>1392.0</ele>
        <time>2017-07-24T13:26:34Z</time>
      </trkpt>
      <trkpt lat="44.5728570" lon="7.1579270">
        <ele>1389.8</ele>
        <time>2017-07-24T13:26:36Z</time>
      </trkpt>
      <trkpt lat="44.5729060" lon="7.1579710">
        <ele>1388.4</ele>
        <time>2017-07-24T13:26:37Z</time>
      </trkpt>
      <trkpt lat="44.5729500" lon="7.1580090">
        <ele>1387.0</ele>
        <time>2017-07-24T13:26:38Z</time>
      </trkpt>
      <trkpt lat="44.5729860" lon="7.1580430">
        <ele>1385.6</ele>
        <time>2017-07-24T13:26:39Z</time>
      </trkpt>
      <trkpt lat="44.5730160" lon="7.1580780">
        <ele>1384.0</ele>
        <time>2017-07-24T13:26:40Z</time>
      </trkpt>
      <trkpt lat="44.5730400" lon="7.1581200">
        <ele>1382.4</ele>
        <time>2017-07-24T13:26:41Z</time>
      </trkpt>
      <trkpt lat="44.5730630" lon="7.1581690">
        <ele>1381.2</ele>
        <time>2017-07-24T13:26:42Z</time>
      </trkpt>
      <trkpt lat="44.5730880" lon="7.1582140">
        <ele>1380.2</ele>
        <time>2017-07-24T13:26:43Z</time>
      </trkpt>
      <trkpt lat="44.5730970" lon="7.1582660">
        <ele>1378.6</ele>
        <time>2017-07-24T13:26:44Z</time>
      </trkpt>
      <trkpt lat="44.5731030" lon="7.1583180">
        <ele>1377.4</ele>
        <time>2017-07-24T13:26:45Z</time>
      </trkpt>
      <trkpt lat="44.5730970" lon="7.1583530">
        <ele>1375.6</ele>
        <time>2017-07-24T13:26:46Z</time>
      </trkpt>
      <trkpt lat="44.5730750" lon="7.1583740">
        <ele>1374.2</ele>
        <time>2017-07-24T13:26:47Z</time>
      </trkpt>
      <trkpt lat="44.5730450" lon="7.1583820">
        <ele>1372.2</ele>
        <time>2017-07-24T13:26:48Z</time>
      </trkpt>
      <trkpt lat="44.5730100" lon="7.1583730">
        <ele>1370.6</ele>
        <time>2017-07-24T13:26:49Z</time>
      </trkpt>
      <trkpt lat="44.5729680" lon="7.1583480">
        <ele>1369.2</ele>
        <time>2017-07-24T13:26:50Z</time>
      </trkpt>
      <trkpt lat="44.5729230" lon="7.1583200">
        <ele>1367.8</ele>
        <time>2017-07-24T13:26:51Z</time>
      </trkpt>
      <trkpt lat="44.5728750" lon="7.1583020">
        <ele>1365.4</ele>
        <time>2017-07-24T13:26:52Z</time>
      </trkpt>
      <trkpt lat="44.5728230" lon="7.1582990">
        <ele>1364.2</ele>
        <time>2017-07-24T13:26:53Z</time>
      </trkpt>
      <trkpt lat="44.5727710" lon="7.1583030">
        <ele>1363.0</ele>
        <time>2017-07-24T13:26:54Z</time>
      </trkpt>
      <trkpt lat="44.5727210" lon="7.1583090">
        <ele>1361.8</ele>
        <time>2017-07-24T13:26:55Z</time>
      </trkpt>
      <trkpt lat="44.5726760" lon="7.1583060">
        <ele>1360.8</ele>
        <time>2017-07-24T13:26:56Z</time>
      </trkpt>
      <trkpt lat="44.5726290" lon="7.1583070">
        <ele>1359.4</ele>
        <time>2017-07-24T13:26:57Z</time>
      </trkpt>
      <trkpt lat="44.5725850" lon="7.1583200">
        <ele>1358.4</ele>
        <time>2017-07-24T13:26:58Z</time>
      </trkpt>
      <trkpt lat="44.5725420" lon="7.1583240">
        <ele>1357.2</ele>
        <time>2017-07-24T13:26:59Z</time>
      </trkpt>
      <trkpt lat="44.5725040" lon="7.1583100">
        <ele>1356.0</ele>
        <time>2017-07-24T13:27:00Z</time>
      </trkpt>
      <trkpt lat="44.5724710" lon="7.1583020">
        <ele>1354.8</ele>
        <time>2017-07-24T13:27:01Z</time>
      </trkpt>
      <trkpt lat="44.5724370" lon="7.1583080">
        <ele>1353.8</ele>
        <time>2017-07-24T13:27:02Z</time>
      </trkpt>
      <trkpt lat="44.5723980" lon="7.1583150">
        <ele>1352.8</ele>
        <time>2017-07-24T13:27:03Z</time>
      </trkpt>
      <trkpt lat="44.5723610" lon="7.1583280">
        <ele>1351.6</ele>
        <time>2017-07-24T13:27:04Z</time>
      </trkpt>
      <trkpt lat="44.5723250" lon="7.1583580">
        <ele>1350.4</ele>
        <time>2017-07-24T13:27:05Z</time>
      </trkpt>
      <trkpt lat="44.5722850" lon="7.1583880">
        <ele>1349.0</ele>
        <time>2017-07-24T13:27:06Z</time>
      </trkpt>
      <trkpt lat="44.5722400" lon="7.1584170">
        <ele>1348.0</ele>
        <time>2017-07-24T13:27:07Z</time>
      </trkpt>
      <trkpt lat="44.5721920" lon="7.1584340">
        <ele>1347.0</ele>
        <time>2017-07-24T13:27:08Z</time>
      </trkpt>
      <trkpt lat="44.5721400" lon="7.1584470">
        <ele>1345.8</ele>
        <time>2017-07-24T13:27:09Z</time>
      </trkpt>
      <trkpt lat="44.5720860" lon="7.1584580">
        <ele>1344.8</ele>
        <time>2017-07-24T13:27:10Z</time>
      </trkpt>
      <trkpt lat="44.5720300" lon="7.1584680">
        <ele>1343.6</ele>
        <time>2017-07-24T13:27:11Z</time>
      </trkpt>
      <trkpt lat="44.5719770" lon="7.1584760">
        <ele>1342.6</ele>
        <time>2017-07-24T13:27:12Z</time>
      </trkpt>
      <trkpt lat="44.5719310" lon="7.1584820">
        <ele>1341.4</ele>
        <time>2017-07-24T13:27:13Z</time>
      </trkpt>
      <trkpt lat="44.5718820" lon="7.1584870">
        <ele>1340.4</ele>
        <time>2017-07-24T13:27:14Z</time>
      </trkpt>
      <trkpt lat="44.5718320" lon="7.1584930">
        <ele>1339.4</ele>
        <time>2017-07-24T13:27:15Z</time>
      </trkpt>
      <trkpt lat="44.5717870" lon="7.1584880">
        <ele>1337.2</ele>
        <time>2017-07-24T13:27:16Z</time>
      </trkpt>
      <trkpt lat="44.5717170" lon="7.1584910">
        <ele>1335.4</ele>
        <time>2017-07-24T13:27:18Z</time>
      </trkpt>
      <trkpt lat="44.5716930" lon="7.1585090">
        <ele>1334.4</ele>
        <time>2017-07-24T13:27:19Z</time>
      </trkpt>
      <trkpt lat="44.5716730" lon="7.1585580">
        <ele>1332.4</ele>
        <time>2017-07-24T13:27:21Z</time>
      </trkpt>
      <trkpt lat="44.5716790" lon="7.1585750">
        <ele>1331.8</ele>
        <time>2017-07-24T13:27:22Z</time>
      </trkpt>
      <trkpt lat="44.5716930" lon="7.1585900">
        <ele>1330.8</ele>
        <time>2017-07-24T13:27:23Z</time>
      </trkpt>
      <trkpt lat="44.5717600" lon="7.1586340">
        <ele>1329.4</ele>
        <time>2017-07-24T13:27:25Z</time>
      </trkpt>
      <trkpt lat="44.5718130" lon="7.1586620">
        <ele>1328.4</ele>
        <time>2017-07-24T13:27:26Z</time>
      </trkpt>
      <trkpt lat="44.5719240" lon="7.1587040">
        <ele>1326.6</ele>
        <time>2017-07-24T13:27:28Z</time>
      </trkpt>
      <trkpt lat="44.5720370" lon="7.1587560">
        <ele>1324.8</ele>
        <time>2017-07-24T13:27:30Z</time>
      </trkpt>
      <trkpt lat="44.5720890" lon="7.1587790">
        <ele>1324.0</ele>
        <time>2017-07-24T13:27:31Z</time>
      </trkpt>
      <trkpt lat="44.5721440" lon="7.1588010">
        <ele>1323.0</ele>
        <time>2017-07-24T13:27:32Z</time>
      </trkpt>
      <trkpt lat="44.5721950" lon="7.1588330">
        <ele>1322.0</ele>
        <time>2017-07-24T13:27:33Z</time>
      </trkpt>
      <trkpt lat="44.5722460" lon="7.1588650">
        <ele>1321.0</ele>
        <time>2017-07-24T13:27:34Z</time>
      </trkpt>
      <trkpt lat="44.5722900" lon="7.1588900">
        <ele>1320.2</ele>
        <time>2017-07-24T13:27:35Z</time>
      </trkpt>
      <trkpt lat="44.5723430" lon="7.1589090">
        <ele>1319.2</ele>
        <time>2017-07-24T13:27:36Z</time>
      </trkpt>
      <trkpt lat="44.5723900" lon="7.1589430">
        <ele>1318.2</ele>
        <time>2017-07-24T13:27:37Z</time>
      </trkpt>
      <trkpt lat="44.5724220" lon="7.1590010">
        <ele>1317.2</ele>
        <time>2017-07-24T13:27:38Z</time>
      </trkpt>
      <trkpt lat="44.5724550" lon="7.1590600">
        <ele>1316.2</ele>
        <time>2017-07-24T13:27:39Z</time>
      </trkpt>
      <trkpt lat="44.5724830" lon="7.1591290">
        <ele>1314.2</ele>
        <time>2017-07-24T13:27:40Z</time>
      </trkpt>
      <trkpt lat="44.5725200" lon="7.1591980">
        <ele>1312.8</ele>
        <time>2017-07-24T13:27:41Z</time>
      </trkpt>
      <trkpt lat="44.5725600" lon="7.1592610">
        <ele>1311.6</ele>
        <time>2017-07-24T13:27:42Z</time>
      </trkpt>
      <trkpt lat="44.5726170" lon="7.1593160">
        <ele>1310.4</ele>
        <time>2017-07-24T13:27:43Z</time>
      </trkpt>
      <trkpt lat="44.5726770" lon="7.1593690">
        <ele>1309.2</ele>
        <time>2017-07-24T13:27:44Z</time>
      </trkpt>
      <trkpt lat="44.5727520" lon="7.1594200">
        <ele>1308.2</ele>
        <time>2017-07-24T13:27:45Z</time>
      </trkpt>
      <trkpt lat="44.5728200" lon="7.1594550">
        <ele>1307.0</ele>
        <time>2017-07-24T13:27:46Z</time>
      </trkpt>
      <trkpt lat="44.5728730" lon="7.1594770">
        <ele>1305.8</ele>
        <time>2017-07-24T13:27:47Z</time>
      </trkpt>
      <trkpt lat="44.5729770" lon="7.1595150">
        <ele>1303.8</ele>
        <time>2017-07-24T13:27:49Z</time>
      </trkpt>
      <trkpt lat="44.5730760" lon="7.1595100">
        <ele>1301.6</ele>
        <time>2017-07-24T13:27:51Z</time>
      </trkpt>
      <trkpt lat="44.5731210" lon="7.1595150">
        <ele>1300.6</ele>
        <time>2017-07-24T13:27:52Z</time>
      </trkpt>
      <trkpt lat="44.5731630" lon="7.1595240">
        <ele>1299.6</ele>
        <time>2017-07-24T13:27:53Z</time>
      </trkpt>
      <trkpt lat="44.5732400" lon="7.1595540">
        <ele>1297.6</ele>
        <time>2017-07-24T13:27:55Z</time>
      </trkpt>
      <trkpt lat="44.5732820" lon="7.1595720">
        <ele>1296.4</ele>
        <time>2017-07-24T13:27:56Z</time>
      </trkpt>
      <trkpt lat="44.5733260" lon="7.1595930">
        <ele>1295.4</ele>
        <time>2017-07-24T13:27:57Z</time>
      </trkpt>
      <trkpt lat="44.5733670" lon="7.1596140">
        <ele>1294.2</ele>
        <time>2017-07-24T13:27:58Z</time>
      </trkpt>
      <trkpt lat="44.5734080" lon="7.1596320">
        <ele>1293.2</ele>
        <time>2017-07-24T13:27:59Z</time>
      </trkpt>
      <trkpt lat="44.5734450" lon="7.1596520">
        <ele>1292.0</ele>
        <time>2017-07-24T13:28:00Z</time>
      </trkpt>
      <trkpt lat="44.5735100" lon="7.1597070">
        <ele>1290.2</ele>
        <time>2017-07-24T13:28:02Z</time>
      </trkpt>
      <trkpt lat="44.5735910" lon="7.1597910">
        <ele>1287.0</ele>
        <time>2017-07-24T13:28:04Z</time>
      </trkpt>
      <trkpt lat="44.5736370" lon="7.1598380">
        <ele>1285.8</ele>
        <time>2017-07-24T13:28:05Z</time>
      </trkpt>
      <trkpt lat="44.5736950" lon="7.1598970">
        <ele>1285.0</ele>
        <time>2017-07-24T13:28:06Z</time>
      </trkpt>
      <trkpt lat="44.5737580" lon="7.1599590">
        <ele>1283.8</ele>
        <time>2017-07-24T13:28:07Z</time>
      </trkpt>
      <trkpt lat="44.5738220" lon="7.1600220">
        <ele>1282.4</ele>
        <time>2017-07-24T13:28:08Z</time>
      </trkpt>
      <trkpt lat="44.5738780" lon="7.1600860">
        <ele>1281.2</ele>
        <time>2017-07-24T13:28:09Z</time>
      </trkpt>
      <trkpt lat="44.5739300" lon="7.1601570">
        <ele>1280.0</ele>
        <time>2017-07-24T13:28:10Z</time>
      </trkpt>
      <trkpt lat="44.5739730" lon="7.1602320">
        <ele>1279.0</ele>
        <time>2017-07-24T13:28:11Z</time>
      </trkpt>
      <trkpt lat="44.5740070" lon="7.1603050">
        <ele>1277.6</ele>
        <time>2017-07-24T13:28:12Z</time>
      </trkpt>
      <trkpt lat="44.5740290" lon="7.1603920">
        <ele>1276.4</ele>
        <time>2017-07-24T13:28:13Z</time>
      </trkpt>
      <trkpt lat="44.5740450" lon="7.1604850">
        <ele>1275.2</ele>
        <time>2017-07-24T13:28:14Z</time>
      </trkpt>
      <trkpt lat="44.5740500" lon="7.1605770">
        <ele>1274.0</ele>
        <time>2017-07-24T13:28:15Z</time>
      </trkpt>
      <trkpt lat="44.5740490" lon="7.1606610">
        <ele>1272.8</ele>
        <time>2017-07-24T13:28:16Z</time>
      </trkpt>
      <trkpt lat="44.5740440" lon="7.1607390">
        <ele>1271.6</ele>
        <time>2017-07-24T13:28:17Z</time>
      </trkpt>
      <trkpt lat="44.5740380" lon="7.1608150">
        <ele>1270.6</ele>
        <time>2017-07-24T13:28:18Z</time>
      </trkpt>
      <trkpt lat="44.5740370" lon="7.1608980">
        <ele>1269.4</ele>
        <time>2017-07-24T13:28:19Z</time>
      </trkpt>
      <trkpt lat="44.5740420" lon="7.1609920">
        <ele>1268.0</ele>
        <time>2017-07-24T13:28:20Z</time>
      </trkpt>
      <trkpt lat="44.5740500" lon="7.1610730">
        <ele>1266.8</ele>
        <time>2017-07-24T13:28:21Z</time>
      </trkpt>
      <trkpt lat="44.5740730" lon="7.1611270">
        <ele>1265.4</ele>
        <time>2017-07-24T13:28:22Z</time>
      </trkpt>
      <trkpt lat="44.5741030" lon="7.1611690">
        <ele>1264.4</ele>
        <time>2017-07-24T13:28:23Z</time>
      </trkpt>
      <trkpt lat="44.5741310" lon="7.1612090">
        <ele>1263.0</ele>
        <time>2017-07-24T13:28:24Z</time>
      </trkpt>
      <trkpt lat="44.5741550" lon="7.1612620">
        <ele>1261.8</ele>
        <time>2017-07-24T13:28:25Z</time>
      </trkpt>
      <trkpt lat="44.5741700" lon="7.1613250">
        <ele>1260.4</ele>
        <time>2017-07-24T13:28:26Z</time>
      </trkpt>
      <trkpt lat="44.5741770" lon="7.1613880">
        <ele>1259.0</ele>
        <time>2017-07-24T13:28:27Z</time>
      </trkpt>
      <trkpt lat="44.5741680" lon="7.1614350">
        <ele>1255.8</ele>
        <time>2017-07-24T13:28:28Z</time>
      </trkpt>
      <trkpt lat="44.5741530" lon="7.1614500">
        <ele>1254.4</ele>
        <time>2017-07-24T13:28:29Z</time>
      </trkpt>
      <trkpt lat="44.5741380" lon="7.1614450">
        <ele>1253.0</ele>
        <time>2017-07-24T13:28:30Z</time>
      </trkpt>
      <trkpt lat="44.5741300" lon="7.1614190">
        <ele>1252.0</ele>
        <time>2017-07-24T13:28:31Z</time>
      </trkpt>
      <trkpt lat="44.5741180" lon="7.1613840">
        <ele>1251.0</ele>
        <time>2017-07-24T13:28:32Z</time>
      </trkpt>
      <trkpt lat="44.5740930" lon="7.1613540">
        <ele>1249.8</ele>
        <time>2017-07-24T13:28:33Z</time>
      </trkpt>
      <trkpt lat="44.5740680" lon="7.1613430">
        <ele>1248.6</ele>
        <time>2017-07-24T13:28:34Z</time>
      </trkpt>
      <trkpt lat="44.5740470" lon="7.1613510">
        <ele>1247.4</ele>
        <time>2017-07-24T13:28:35Z</time>
      </trkpt>
      <trkpt lat="44.5740340" lon="7.1613700">
        <ele>1246.4</ele>
        <time>2017-07-24T13:28:36Z</time>
      </trkpt>
      <trkpt lat="44.5740270" lon="7.1613990">
        <ele>1245.4</ele>
        <time>2017-07-24T13:28:37Z</time>
      </trkpt>
      <trkpt lat="44.5740320" lon="7.1614850">
        <ele>1243.2</ele>
        <time>2017-07-24T13:28:39Z</time>
      </trkpt>
      <trkpt lat="44.5740450" lon="7.1615320">
        <ele>1242.4</ele>
        <time>2017-07-24T13:28:40Z</time>
      </trkpt>
      <trkpt lat="44.5740650" lon="7.1615740">
        <ele>1241.4</ele>
        <time>2017-07-24T13:28:41Z</time>
      </trkpt>
      <trkpt lat="44.5741200" lon="7.1616330">
        <ele>1239.8</ele>
        <time>2017-07-24T13:28:43Z</time>
      </trkpt>
      <trkpt lat="44.5741590" lon="7.1616610">
        <ele>1239.0</ele>
        <time>2017-07-24T13:28:44Z</time>
      </trkpt>
      <trkpt lat="44.5742060" lon="7.1617010">
        <ele>1238.2</ele>
        <time>2017-07-24T13:28:45Z</time>
      </trkpt>
      <trkpt lat="44.5743090" lon="7.1617910">
        <ele>1236.4</ele>
        <time>2017-07-24T13:28:47Z</time>
      </trkpt>
      <trkpt lat="44.5744070" lon="7.1618640">
        <ele>1234.6</ele>
        <time>2017-07-24T13:28:49Z</time>
      </trkpt>
      <trkpt lat="44.5744520" lon="7.1618940">
        <ele>1233.6</ele>
        <time>2017-07-24T13:28:50Z</time>
      </trkpt>
      <trkpt lat="44.5744980" lon="7.1619240">
        <ele>1232.6</ele>
        <time>2017-07-24T13:28:51Z</time>
      </trkpt>
      <trkpt lat="44.5745460" lon="7.1619530">
        <ele>1230.2</ele>
        <time>2017-07-24T13:28:52Z</time>
      </trkpt>
      <trkpt lat="44.5745970" lon="7.1619750">
        <ele>1229.2</ele>
        <time>2017-07-24T13:28:53Z</time>
      </trkpt>
      <trkpt lat="44.5746550" lon="7.1619910">
        <ele>1228.4</ele>
        <time>2017-07-24T13:28:54Z</time>
      </trkpt>
      <trkpt lat="44.5747100" lon="7.1620080">
        <ele>1227.6</ele>
        <time>2017-07-24T13:28:55Z</time>
      </trkpt>
      <trkpt lat="44.5747550" lon="7.1620300">
        <ele>1226.6</ele>
        <time>2017-07-24T13:28:56Z</time>
      </trkpt>
      <trkpt lat="44.5748260" lon="7.1621160">
        <ele>1224.8</ele>
        <time>2017-07-24T13:28:58Z</time>
      </trkpt>
      <trkpt lat="44.5748570" lon="7.1621900">
        <ele>1223.8</ele>
        <time>2017-07-24T13:28:59Z</time>
      </trkpt>
      <trkpt lat="44.5748870" lon="7.1622610">
        <ele>1222.8</ele>
        <time>2017-07-24T13:29:00Z</time>
      </trkpt>
      <trkpt lat="44.5749210" lon="7.1623250">
        <ele>1221.8</ele>
        <time>2017-07-24T13:29:01Z</time>
      </trkpt>
      <trkpt lat="44.5749680" lon="7.1623870">
        <ele>1220.8</ele>
        <time>2017-07-24T13:29:02Z</time>
      </trkpt>
      <trkpt lat="44.5750360" lon="7.1625190">
        <ele>1219.0</ele>
        <time>2017-07-24T13:29:04Z</time>
      </trkpt>
      <trkpt lat="44.5750540" lon="7.1625890">
        <ele>1217.8</ele>
        <time>2017-07-24T13:29:05Z</time>
      </trkpt>
      <trkpt lat="44.5750650" lon="7.1626500">
        <ele>1216.6</ele>
        <time>2017-07-24T13:29:06Z</time>
      </trkpt>
      <trkpt lat="44.5750930" lon="7.1627610">
        <ele>1215.2</ele>
        <time>2017-07-24T13:29:08Z</time>
      </trkpt>
      <trkpt lat="44.5751300" lon="7.1628690">
        <ele>1213.4</ele>
        <time>2017-07-24T13:29:10Z</time>
      </trkpt>
      <trkpt lat="44.5751400" lon="7.1629280">
        <ele>1212.2</ele>
        <time>2017-07-24T13:29:11Z</time>
      </trkpt>
      <trkpt lat="44.5751470" lon="7.1629910">
        <ele>1211.4</ele>
        <time>2017-07-24T13:29:12Z</time>
      </trkpt>
      <trkpt lat="44.5751590" lon="7.1630540">
        <ele>1210.6</ele>
        <time>2017-07-24T13:29:13Z</time>
      </trkpt>
      <trkpt lat="44.5751970" lon="7.1631500">
        <ele>1209.2</ele>
        <time>2017-07-24T13:29:15Z</time>
      </trkpt>
      <trkpt lat="44.5752140" lon="7.1631920">
        <ele>1207.2</ele>
        <time>2017-07-24T13:29:16Z</time>
      </trkpt>
      <trkpt lat="44.5752310" lon="7.1632330">
        <ele>1206.4</ele>
        <time>2017-07-24T13:29:17Z</time>
      </trkpt>
      <trkpt lat="44.5752450" lon="7.1632760">
        <ele>1205.6</ele>
        <time>2017-07-24T13:29:18Z</time>
      </trkpt>
      <trkpt lat="44.5752670" lon="7.1633670">
        <ele>1203.4</ele>
        <time>2017-07-24T13:29:20Z</time>
      </trkpt>
      <trkpt lat="44.5752830" lon="7.1634050">
        <ele>1202.2</ele>
        <time>2017-07-24T13:29:21Z</time>
      </trkpt>
      <trkpt lat="44.5753160" lon="7.1634430">
        <ele>1201.2</ele>
        <time>2017-07-24T13:29:22Z</time>
      </trkpt>
      <trkpt lat="44.5753620" lon="7.1634810">
        <ele>1200.2</ele>
        <time>2017-07-24T13:29:23Z</time>
      </trkpt>
      <trkpt lat="44.5754010" lon="7.1635260">
        <ele>1199.0</ele>
        <time>2017-07-24T13:29:24Z</time>
      </trkpt>
      <trkpt lat="44.5754420" lon="7.1635800">
        <ele>1197.8</ele>
        <time>2017-07-24T13:29:25Z</time>
      </trkpt>
      <trkpt lat="44.5754810" lon="7.1636400">
        <ele>1196.6</ele>
        <time>2017-07-24T13:29:26Z</time>
      </trkpt>
      <trkpt lat="44.5755190" lon="7.1637020">
        <ele>1195.6</ele>
        <time>2017-07-24T13:29:27Z</time>
      </trkpt>
      <trkpt lat="44.5755580" lon="7.1637550">
        <ele>1194.6</ele>
        <time>2017-07-24T13:29:28Z</time>
      </trkpt>
      <trkpt lat="44.5756000" lon="7.1638070">
        <ele>1193.6</ele>
        <time>2017-07-24T13:29:29Z</time>
      </trkpt>
      <trkpt lat="44.5756450" lon="7.1638490">
        <ele>1192.4</ele>
        <time>2017-07-24T13:29:30Z</time>
      </trkpt>
      <trkpt lat="44.5756860" lon="7.1638850">
        <ele>1191.4</ele>
        <time>2017-07-24T13:29:31Z</time>
      </trkpt>
      <trkpt lat="44.5757210" lon="7.1639160">
        <ele>1190.2</ele>
        <time>2017-07-24T13:29:32Z</time>
      </trkpt>
      <trkpt lat="44.5757530" lon="7.1639450">
        <ele>1189.0</ele>
        <time>2017-07-24T13:29:33Z</time>
      </trkpt>
      <trkpt lat="44.5757720" lon="7.1639600">
        <ele>1187.4</ele>
        <time>2017-07-24T13:29:34Z</time>
      </trkpt>
      <trkpt lat="44.5757860" lon="7.1640000">
        <ele>1180.4</ele>
        <time>2017-07-24T13:29:41Z</time>
      </trkpt>
      <trkpt lat="44.5758250" lon="7.1640650">
        <ele>1178.8</ele>
        <time>2017-07-24T13:29:43Z</time>
      </trkpt>
      <trkpt lat="44.5758910" lon="7.1641190">
        <ele>1177.0</ele>
        <time>2017-07-24T13:29:45Z</time>
      </trkpt>
      <trkpt lat="44.5759620" lon="7.1641680">
        <ele>1175.0</ele>
        <time>2017-07-24T13:29:47Z</time>
      </trkpt>
      <trkpt lat="44.5760210" lon="7.1642740">
        <ele>1173.2</ele>
        <time>2017-07-24T13:29:49Z</time>
      </trkpt>
      <trkpt lat="44.5760760" lon="7.1644110">
        <ele>1171.2</ele>
        <time>2017-07-24T13:29:51Z</time>
      </trkpt>
      <trkpt lat="44.5761040" lon="7.1644760">
        <ele>1170.4</ele>
        <time>2017-07-24T13:29:52Z</time>
      </trkpt>
      <trkpt lat="44.5761310" lon="7.1645440">
        <ele>1169.6</ele>
        <time>2017-07-24T13:29:53Z</time>
      </trkpt>
      <trkpt lat="44.5761910" lon="7.1646760">
        <ele>1167.6</ele>
        <time>2017-07-24T13:29:55Z</time>
      </trkpt>
      <trkpt lat="44.5762660" lon="7.1647800">
        <ele>1165.8</ele>
        <time>2017-07-24T13:29:57Z</time>
      </trkpt>
      <trkpt lat="44.5762990" lon="7.1648270">
        <ele>1164.6</ele>
        <time>2017-07-24T13:29:58Z</time>
      </trkpt>
      <trkpt lat="44.5763310" lon="7.1648790">
        <ele>1163.2</ele>
        <time>2017-07-24T13:29:59Z</time>
      </trkpt>
      <trkpt lat="44.5763680" lon="7.1649360">
        <ele>1162.0</ele>
        <time>2017-07-24T13:30:00Z</time>
      </trkpt>
      <trkpt lat="44.5764040" lon="7.1649880">
        <ele>1160.8</ele>
        <time>2017-07-24T13:30:01Z</time>
      </trkpt>
      <trkpt lat="44.5764340" lon="7.1650460">
        <ele>1159.8</ele>
        <time>2017-07-24T13:30:02Z</time>
      </trkpt>
      <trkpt lat="44.5764590" lon="7.1651000">
        <ele>1158.6</ele>
        <time>2017-07-24T13:30:03Z</time>
      </trkpt>
      <trkpt lat="44.5764670" lon="7.1651560">
        <ele>1156.4</ele>
        <time>2017-07-24T13:30:04Z</time>
      </trkpt>
      <trkpt lat="44.5764570" lon="7.1652760">
        <ele>1154.2</ele>
        <time>2017-07-24T13:30:06Z</time>
      </trkpt>
      <trkpt lat="44.5764520" lon="7.1653430">
        <ele>1153.0</ele>
        <time>2017-07-24T13:30:07Z</time>
      </trkpt>
      <trkpt lat="44.5764490" lon="7.1654130">
        <ele>1151.8</ele>
        <time>2017-07-24T13:30:08Z</time>
      </trkpt>
      <trkpt lat="44.5764490" lon="7.1654840">
        <ele>1150.8</ele>
        <time>2017-07-24T13:30:09Z</time>
      </trkpt>
      <trkpt lat="44.5764520" lon="7.1655490">
        <ele>1149.6</ele>
        <time>2017-07-24T13:30:10Z</time>
      </trkpt>
      <trkpt lat="44.5764700" lon="7.1656060">
        <ele>1148.6</ele>
        <time>2017-07-24T13:30:11Z</time>
      </trkpt>
      <trkpt lat="44.5764930" lon="7.1656570">
        <ele>1147.2</ele>
        <time>2017-07-24T13:30:12Z</time>
      </trkpt>
      <trkpt lat="44.5765260" lon="7.1657630">
        <ele>1145.4</ele>
        <time>2017-07-24T13:30:14Z</time>
      </trkpt>
      <trkpt lat="44.5765270" lon="7.1658050">
        <ele>1144.4</ele>
        <time>2017-07-24T13:30:15Z</time>
      </trkpt>
      <trkpt lat="44.5765170" lon="7.1658300">
        <ele>1143.2</ele>
        <time>2017-07-24T13:30:16Z</time>
      </trkpt>
      <trkpt lat="44.5764950" lon="7.1658510">
        <ele>1141.8</ele>
        <time>2017-07-24T13:30:17Z</time>
      </trkpt>
      <trkpt lat="44.5764700" lon="7.1658670">
        <ele>1140.6</ele>
        <time>2017-07-24T13:30:18Z</time>
      </trkpt>
      <trkpt lat="44.5764490" lon="7.1658910">
        <ele>1139.4</ele>
        <time>2017-07-24T13:30:19Z</time>
      </trkpt>
      <trkpt lat="44.5764490" lon="7.1659250">
        <ele>1138.2</ele>
        <time>2017-07-24T13:30:20Z</time>
      </trkpt>
      <trkpt lat="44.5764560" lon="7.1659640">
        <ele>1137.2</ele>
        <time>2017-07-24T13:30:21Z</time>
      </trkpt>
      <trkpt lat="44.5764780" lon="7.1660080">
        <ele>1136.4</ele>
        <time>2017-07-24T13:30:22Z</time>
      </trkpt>
      <trkpt lat="44.5765100" lon="7.1660390">
        <ele>1135.4</ele>
        <time>2017-07-24T13:30:23Z</time>
      </trkpt>
      <trkpt lat="44.5765460" lon="7.1660690">
        <ele>1134.4</ele>
        <time>2017-07-24T13:30:24Z</time>
      </trkpt>
      <trkpt lat="44.5765780" lon="7.1661090">
        <ele>1133.2</ele>
        <time>2017-07-24T13:30:25Z</time>
      </trkpt>
      <trkpt lat="44.5766090" lon="7.1661540">
        <ele>1131.8</ele>
        <time>2017-07-24T13:30:26Z</time>
      </trkpt>
      <trkpt lat="44.5766400" lon="7.1662040">
        <ele>1130.6</ele>
        <time>2017-07-24T13:30:27Z</time>
      </trkpt>
      <trkpt lat="44.5766750" lon="7.1662560">
        <ele>1128.2</ele>
        <time>2017-07-24T13:30:28Z</time>
      </trkpt>
      <trkpt lat="44.5767090" lon="7.1663070">
        <ele>1127.0</ele>
        <time>2017-07-24T13:30:29Z</time>
      </trkpt>
      <trkpt lat="44.5767390" lon="7.1663610">
        <ele>1125.8</ele>
        <time>2017-07-24T13:30:30Z</time>
      </trkpt>
      <trkpt lat="44.5767660" lon="7.1664160">
        <ele>1124.6</ele>
        <time>2017-07-24T13:30:31Z</time>
      </trkpt>
      <trkpt lat="44.5767840" lon="7.1664850">
        <ele>1123.0</ele>
        <time>2017-07-24T13:30:32Z</time>
      </trkpt>
      <trkpt lat="44.5767990" lon="7.1665570">
        <ele>1121.4</ele>
        <time>2017-07-24T13:30:33Z</time>
      </trkpt>
      <trkpt lat="44.5768150" lon="7.1666320">
        <ele>1120.4</ele>
        <time>2017-07-24T13:30:34Z</time>
      </trkpt>
      <trkpt lat="44.5768340" lon="7.1667050">
        <ele>1119.2</ele>
        <time>2017-07-24T13:30:35Z</time>
      </trkpt>
      <trkpt lat="44.5768550" lon="7.1667700">
        <ele>1118.0</ele>
        <time>2017-07-24T13:30:36Z</time>
      </trkpt>
      <trkpt lat="44.5768780" lon="7.1668380">
        <ele>1116.6</ele>
        <time>2017-07-24T13:30:37Z</time>
      </trkpt>
      <trkpt lat="44.5769030" lon="7.1669010">
        <ele>1115.4</ele>
        <time>2017-07-24T13:30:38Z</time>
      </trkpt>
      <trkpt lat="44.5769230" lon="7.1669710">
        <ele>1114.2</ele>
        <time>2017-07-24T13:30:39Z</time>
      </trkpt>
      <trkpt lat="44.5769530" lon="7.1670390">
        <ele>1112.8</ele>
        <time>2017-07-24T13:30:40Z</time>
      </trkpt>
      <trkpt lat="44.5769900" lon="7.1671130">
        <ele>1111.6</ele>
        <time>2017-07-24T13:30:41Z</time>
      </trkpt>
      <trkpt lat="44.5770280" lon="7.1671860">
        <ele>1110.4</ele>
        <time>2017-07-24T13:30:42Z</time>
      </trkpt>
      <trkpt lat="44.5770670" lon="7.1672570">
        <ele>1109.2</ele>
        <time>2017-07-24T13:30:43Z</time>
      </trkpt>
      <trkpt lat="44.5771080" lon="7.1673110">
        <ele>1107.8</ele>
        <time>2017-07-24T13:30:44Z</time>
      </trkpt>
      <trkpt lat="44.5771500" lon="7.1673380">
        <ele>1106.2</ele>
        <time>2017-07-24T13:30:45Z</time>
      </trkpt>
      <trkpt lat="44.5771940" lon="7.1673520">
        <ele>1105.0</ele>
        <time>2017-07-24T13:30:46Z</time>
      </trkpt>
      <trkpt lat="44.5772420" lon="7.1673610">
        <ele>1103.8</ele>
        <time>2017-07-24T13:30:47Z</time>
      </trkpt>
      <trkpt lat="44.5772880" lon="7.1673680">
        <ele>1102.6</ele>
        <time>2017-07-24T13:30:48Z</time>
      </trkpt>
      <trkpt lat="44.5773330" lon="7.1673710">
        <ele>1101.4</ele>
        <time>2017-07-24T13:30:49Z</time>
      </trkpt>
      <trkpt lat="44.5773840" lon="7.1673540">
        <ele>1100.4</ele>
        <time>2017-07-24T13:30:50Z</time>
      </trkpt>
      <trkpt lat="44.5774320" lon="7.1673360">
        <ele>1099.0</ele>
        <time>2017-07-24T13:30:51Z</time>
      </trkpt>
      <trkpt lat="44.5774760" lon="7.1673150">
        <ele>1096.6</ele>
        <time>2017-07-24T13:30:52Z</time>
      </trkpt>
      <trkpt lat="44.5775210" lon="7.1673000">
        <ele>1095.4</ele>
        <time>2017-07-24T13:30:53Z</time>
      </trkpt>
      <trkpt lat="44.5775660" lon="7.1672840">
        <ele>1094.2</ele>
        <time>2017-07-24T13:30:54Z</time>
      </trkpt>
      <trkpt lat="44.5776110" lon="7.1672720">
        <ele>1093.2</ele>
        <time>2017-07-24T13:30:55Z</time>
      </trkpt>
      <trkpt lat="44.5776560" lon="7.1672600">
        <ele>1092.2</ele>
        <time>2017-07-24T13:30:56Z</time>
      </trkpt>
      <trkpt lat="44.5777020" lon="7.1672530">
        <ele>1091.0</ele>
        <time>2017-07-24T13:30:57Z</time>
      </trkpt>
      <trkpt lat="44.5777990" lon="7.1672510">
        <ele>1089.4</ele>
        <time>2017-07-24T13:30:59Z</time>
      </trkpt>
      <trkpt lat="44.5778520" lon="7.1672530">
        <ele>1088.6</ele>
        <time>2017-07-24T13:31:00Z</time>
      </trkpt>
      <trkpt lat="44.5779090" lon="7.1672540">
        <ele>1087.6</ele>
        <time>2017-07-24T13:31:01Z</time>
      </trkpt>
      <trkpt lat="44.5779630" lon="7.1672640">
        <ele>1086.4</ele>
        <time>2017-07-24T13:31:02Z</time>
      </trkpt>
      <trkpt lat="44.5780680" lon="7.1672960">
        <ele>1084.2</ele>
        <time>2017-07-24T13:31:04Z</time>
      </trkpt>
      <trkpt lat="44.5781240" lon="7.1673050">
        <ele>1083.4</ele>
        <time>2017-07-24T13:31:05Z</time>
      </trkpt>
      <trkpt lat="44.5781820" lon="7.1673070">
        <ele>1082.6</ele>
        <time>2017-07-24T13:31:06Z</time>
      </trkpt>
      <trkpt lat="44.5782380" lon="7.1672940">
        <ele>1081.6</ele>
        <time>2017-07-24T13:31:07Z</time>
      </trkpt>
      <trkpt lat="44.5782900" lon="7.1672780">
        <ele>1080.4</ele>
        <time>2017-07-24T13:31:08Z</time>
      </trkpt>
      <trkpt lat="44.5783370" lon="7.1672730">
        <ele>1079.0</ele>
        <time>2017-07-24T13:31:09Z</time>
      </trkpt>
      <trkpt lat="44.5783840" lon="7.1672760">
        <ele>1078.2</ele>
        <time>2017-07-24T13:31:10Z</time>
      </trkpt>
      <trkpt lat="44.5784290" lon="7.1673030">
        <ele>1077.2</ele>
        <time>2017-07-24T13:31:11Z</time>
      </trkpt>
      <trkpt lat="44.5785180" lon="7.1673720">
        <ele>1075.6</ele>
        <time>2017-07-24T13:31:13Z</time>
      </trkpt>
      <trkpt lat="44.5785680" lon="7.1674060">
        <ele>1074.6</ele>
        <time>2017-07-24T13:31:14Z</time>
      </trkpt>
      <trkpt lat="44.5786260" lon="7.1674290">
        <ele>1073.8</ele>
        <time>2017-07-24T13:31:15Z</time>
      </trkpt>
      <trkpt lat="44.5786850" lon="7.1674450">
        <ele>1072.0</ele>
        <time>2017-07-24T13:31:16Z</time>
      </trkpt>
      <trkpt lat="44.5787430" lon="7.1674620">
        <ele>1071.4</ele>
        <time>2017-07-24T13:31:17Z</time>
      </trkpt>
      <trkpt lat="44.5788000" lon="7.1674750">
        <ele>1070.4</ele>
        <time>2017-07-24T13:31:18Z</time>
      </trkpt>
      <trkpt lat="44.5789160" lon="7.1674820">
        <ele>1068.4</ele>
        <time>2017-07-24T13:31:20Z</time>
      </trkpt>
      <trkpt lat="44.5790390" lon="7.1674590">
        <ele>1066.6</ele>
        <time>2017-07-24T13:31:22Z</time>
      </trkpt>
      <trkpt lat="44.5790990" lon="7.1674390">
        <ele>1065.6</ele>
        <time>2017-07-24T13:31:23Z</time>
      </trkpt>
      <trkpt lat="44.5792150" lon="7.1674150">
        <ele>1063.4</ele>
        <time>2017-07-24T13:31:25Z</time>
      </trkpt>
      <trkpt lat="44.5793350" lon="7.1674070">
        <ele>1061.4</ele>
        <time>2017-07-24T13:31:27Z</time>
      </trkpt>
      <trkpt lat="44.5793880" lon="7.1674140">
        <ele>1060.4</ele>
        <time>2017-07-24T13:31:28Z</time>
      </trkpt>
      <trkpt lat="44.5794480" lon="7.1674310">
        <ele>1059.6</ele>
        <time>2017-07-24T13:31:29Z</time>
      </trkpt>
      <trkpt lat="44.5795170" lon="7.1674660">
        <ele>1058.6</ele>
        <time>2017-07-24T13:31:30Z</time>
      </trkpt>
      <trkpt lat="44.5795840" lon="7.1674980">
        <ele>1057.4</ele>
        <time>2017-07-24T13:31:31Z</time>
      </trkpt>
      <trkpt lat="44.5796510" lon="7.1675290">
        <ele>1056.2</ele>
        <time>2017-07-24T13:31:32Z</time>
      </trkpt>
      <trkpt lat="44.5797780" lon="7.1675900">
        <ele>1054.0</ele>
        <time>2017-07-24T13:31:34Z</time>
      </trkpt>
      <trkpt lat="44.5799120" lon="7.1676450">
        <ele>1051.8</ele>
        <time>2017-07-24T13:31:36Z</time>
      </trkpt>
      <trkpt lat="44.5800410" lon="7.1676860">
        <ele>1049.4</ele>
        <time>2017-07-24T13:31:38Z</time>
      </trkpt>
      <trkpt lat="44.5801060" lon="7.1677040">
        <ele>1048.0</ele>
        <time>2017-07-24T13:31:39Z</time>
      </trkpt>
      <trkpt lat="44.5801640" lon="7.1677280">
        <ele>1045.4</ele>
        <time>2017-07-24T13:31:40Z</time>
      </trkpt>
      <trkpt lat="44.5802130" lon="7.1677630">
        <ele>1044.2</ele>
        <time>2017-07-24T13:31:41Z</time>
      </trkpt>
      <trkpt lat="44.5802560" lon="7.1678250">
        <ele>1043.4</ele>
        <time>2017-07-24T13:31:42Z</time>
      </trkpt>
      <trkpt lat="44.5802810" lon="7.1678990">
        <ele>1042.4</ele>
        <time>2017-07-24T13:31:43Z</time>
      </trkpt>
      <trkpt lat="44.5802910" lon="7.1679750">
        <ele>1041.2</ele>
        <time>2017-07-24T13:31:44Z</time>
      </trkpt>
      <trkpt lat="44.5802840" lon="7.1680490">
        <ele>1040.2</ele>
        <time>2017-07-24T13:31:45Z</time>
      </trkpt>
      <trkpt lat="44.5802330" lon="7.1681580">
        <ele>1039.0</ele>
        <time>2017-07-24T13:31:46Z</time>
      </trkpt>
      <trkpt lat="44.5801740" lon="7.1682740">
        <ele>1038.0</ele>
        <time>2017-07-24T13:31:47Z</time>
      </trkpt>
      <trkpt lat="44.5801200" lon="7.1683910">
        <ele>1037.0</ele>
        <time>2017-07-24T13:31:48Z</time>
      </trkpt>
      <trkpt lat="44.5800210" lon="7.1686110">
        <ele>1035.4</ele>
        <time>2017-07-24T13:31:50Z</time>
      </trkpt>
      <trkpt lat="44.5799940" lon="7.1687080">
        <ele>1034.6</ele>
        <time>2017-07-24T13:31:51Z</time>
      </trkpt>
      <trkpt lat="44.5799890" lon="7.1688030">
        <ele>1034.0</ele>
        <time>2017-07-24T13:31:52Z</time>
      </trkpt>
      <trkpt lat="44.5800300" lon="7.1689410">
        <ele>1032.6</ele>
        <time>2017-07-24T13:31:54Z</time>
      </trkpt>
      <trkpt lat="44.5800730" lon="7.1689850">
        <ele>1031.8</ele>
        <time>2017-07-24T13:31:55Z</time>
      </trkpt>
      <trkpt lat="44.5801340" lon="7.1690120">
        <ele>1031.0</ele>
        <time>2017-07-24T13:31:56Z</time>
      </trkpt>
      <trkpt lat="44.5803110" lon="7.1690390">
        <ele>1029.8</ele>
        <time>2017-07-24T13:31:58Z</time>
      </trkpt>
      <trkpt lat="44.5804680" lon="7.1690830">
        <ele>1028.4</ele>
        <time>2017-07-24T13:32:00Z</time>
      </trkpt>
      <trkpt lat="44.5805090" lon="7.1691460">
        <ele>1027.6</ele>
        <time>2017-07-24T13:32:01Z</time>
      </trkpt>
      <trkpt lat="44.5805340" lon="7.1692190">
        <ele>1026.8</ele>
        <time>2017-07-24T13:32:02Z</time>
      </trkpt>
      <trkpt lat="44.5805390" lon="7.1693780">
        <ele>1024.6</ele>
        <time>2017-07-24T13:32:04Z</time>
      </trkpt>
      <trkpt lat="44.5805310" lon="7.1695550">
        <ele>1023.0</ele>
        <time>2017-07-24T13:32:06Z</time>
      </trkpt>
      <trkpt lat="44.5805110" lon="7.1697530">
        <ele>1021.8</ele>
        <time>2017-07-24T13:32:08Z</time>
      </trkpt>
      <trkpt lat="44.5804960" lon="7.1698590">
        <ele>1021.4</ele>
        <time>2017-07-24T13:32:09Z</time>
      </trkpt>
      <trkpt lat="44.5804570" lon="7.1700920">
        <ele>1020.4</ele>
        <time>2017-07-24T13:32:11Z</time>
      </trkpt>
      <trkpt lat="44.5804090" lon="7.1703250">
        <ele>1019.6</ele>
        <time>2017-07-24T13:32:13Z</time>
      </trkpt>
      <trkpt lat="44.5803860" lon="7.1704410">
        <ele>1019.2</ele>
        <time>2017-07-24T13:32:14Z</time>
      </trkpt>
      <trkpt lat="44.5803190" lon="7.1707860">
        <ele>1018.0</ele>
        <time>2017-07-24T13:32:17Z</time>
      </trkpt>
      <trkpt lat="44.5802710" lon="7.1712700">
        <ele>1017.2</ele>
        <time>2017-07-24T13:32:21Z</time>
      </trkpt>
      <trkpt lat="44.5802700" lon="7.1713960">
        <ele>1016.8</ele>
        <time>2017-07-24T13:32:22Z</time>
      </trkpt>
      <trkpt lat="44.5802870" lon="7.1715120">
        <ele>1016.6</ele>
        <time>2017-07-24T13:32:23Z</time>
      </trkpt>
      <trkpt lat="44.5803400" lon="7.1717360">
        <ele>1016.0</ele>
        <time>2017-07-24T13:32:25Z</time>
      </trkpt>
      <trkpt lat="44.5803740" lon="7.1718470">
        <ele>1015.8</ele>
        <time>2017-07-24T13:32:26Z</time>
      </trkpt>
      <trkpt lat="44.5804720" lon="7.1720870">
        <ele>1014.8</ele>
        <time>2017-07-24T13:32:28Z</time>
      </trkpt>
      <trkpt lat="44.5805770" lon="7.1723290">
        <ele>1014.0</ele>
        <time>2017-07-24T13:32:30Z</time>
      </trkpt>
      <trkpt lat="44.5806210" lon="7.1724460">
        <ele>1013.6</ele>
        <time>2017-07-24T13:32:31Z</time>
      </trkpt>
      <trkpt lat="44.5806550" lon="7.1725770">
        <ele>1013.2</ele>
        <time>2017-07-24T13:32:32Z</time>
      </trkpt>
      <trkpt lat="44.5806760" lon="7.1728490">
        <ele>1013.0</ele>
        <time>2017-07-24T13:32:34Z</time>
      </trkpt>
      <trkpt lat="44.5806680" lon="7.1729790">
        <ele>1012.8</ele>
        <time>2017-07-24T13:32:35Z</time>
      </trkpt>
      <trkpt lat="44.5806550" lon="7.1731070">
        <ele>1012.6</ele>
        <time>2017-07-24T13:32:36Z</time>
      </trkpt>
      <trkpt lat="44.5806410" lon="7.1732360">
        <ele>1012.4</ele>
        <time>2017-07-24T13:32:37Z</time>
      </trkpt>
      <trkpt lat="44.5806260" lon="7.1733670">
        <ele>1012.2</ele>
        <time>2017-07-24T13:32:38Z</time>
      </trkpt>
      <trkpt lat="44.5805010" lon="7.1741560">
        <ele>1010.8</ele>
        <time>2017-07-24T13:32:44Z</time>
      </trkpt>
      <trkpt lat="44.5804710" lon="7.1742830">
        <ele>1010.6</ele>
        <time>2017-07-24T13:32:45Z</time>
      </trkpt>
      <trkpt lat="44.5804160" lon="7.1745560">
        <ele>1009.6</ele>
        <time>2017-07-24T13:32:47Z</time>
      </trkpt>
      <trkpt lat="44.5803490" lon="7.1748210">
        <ele>1008.6</ele>
        <time>2017-07-24T13:32:49Z</time>
      </trkpt>
      <trkpt lat="44.5803130" lon="7.1749530">
        <ele>1008.2</ele>
        <time>2017-07-24T13:32:50Z</time>
      </trkpt>
      <trkpt lat="44.5802730" lon="7.1750850">
        <ele>1007.4</ele>
        <time>2017-07-24T13:32:51Z</time>
      </trkpt>
      <trkpt lat="44.5801910" lon="7.1753360">
        <ele>1006.2</ele>
        <time>2017-07-24T13:32:53Z</time>
      </trkpt>
      <trkpt lat="44.5801410" lon="7.1754470">
        <ele>1005.4</ele>
        <time>2017-07-24T13:32:54Z</time>
      </trkpt>
      <trkpt lat="44.5800870" lon="7.1755440">
        <ele>1004.8</ele>
        <time>2017-07-24T13:32:55Z</time>
      </trkpt>
      <trkpt lat="44.5799650" lon="7.1756840">
        <ele>1003.6</ele>
        <time>2017-07-24T13:32:57Z</time>
      </trkpt>
      <trkpt lat="44.5798900" lon="7.1757190">
        <ele>1003.0</ele>
        <time>2017-07-24T13:32:58Z</time>
      </trkpt>
      <trkpt lat="44.5798140" lon="7.1757340">
        <ele>1002.6</ele>
        <time>2017-07-24T13:32:59Z</time>
      </trkpt>
      <trkpt lat="44.5796720" lon="7.1757880">
        <ele>1001.4</ele>
        <time>2017-07-24T13:33:01Z</time>
      </trkpt>
      <trkpt lat="44.5796030" lon="7.1758410">
        <ele>1001.2</ele>
        <time>2017-07-24T13:33:02Z</time>
      </trkpt>
      <trkpt lat="44.5795350" lon="7.1759030">
        <ele>1001.2</ele>
        <time>2017-07-24T13:33:03Z</time>
      </trkpt>
      <trkpt lat="44.5793370" lon="7.1761080">
        <ele>1000.6</ele>
        <time>2017-07-24T13:33:06Z</time>
      </trkpt>
      <trkpt lat="44.5792810" lon="7.1761920">
        <ele>1000.4</ele>
        <time>2017-07-24T13:33:07Z</time>
      </trkpt>
      <trkpt lat="44.5790950" lon="7.1765230">
        <ele>1000.2</ele>
        <time>2017-07-24T13:33:11Z</time>
      </trkpt>
      <trkpt lat="44.5789070" lon="7.1765800">
        <ele>999.8</ele>
        <time>2017-07-24T13:33:14Z</time>
      </trkpt>
      <trkpt lat="44.5787440" lon="7.1765930">
        <ele>999.0</ele>
        <time>2017-07-24T13:33:16Z</time>
      </trkpt>
      <trkpt lat="44.5785890" lon="7.1766330">
        <ele>998.8</ele>
        <time>2017-07-24T13:33:18Z</time>
      </trkpt>
      <trkpt lat="44.5785200" lon="7.1766930">
        <ele>998.4</ele>
        <time>2017-07-24T13:33:19Z</time>
      </trkpt>
      <trkpt lat="44.5783920" lon="7.1768430">
        <ele>998.0</ele>
        <time>2017-07-24T13:33:21Z</time>
      </trkpt>
      <trkpt lat="44.5782290" lon="7.1770880">
        <ele>997.8</ele>
        <time>2017-07-24T13:33:24Z</time>
      </trkpt>
      <trkpt lat="44.5781980" lon="7.1771890">
        <ele>997.4</ele>
        <time>2017-07-24T13:33:25Z</time>
      </trkpt>
      <trkpt lat="44.5781540" lon="7.1774120">
        <ele>997.0</ele>
        <time>2017-07-24T13:33:27Z</time>
      </trkpt>
      <trkpt lat="44.5780860" lon="7.1777600">
        <ele>997.0</ele>
        <time>2017-07-24T13:33:30Z</time>
      </trkpt>
      <trkpt lat="44.5780260" lon="7.1781360">
        <ele>997.2</ele>
        <time>2017-07-24T13:33:33Z</time>
      </trkpt>
      <trkpt lat="44.5780220" lon="7.1783950">
        <ele>997.4</ele>
        <time>2017-07-24T13:33:35Z</time>
      </trkpt>
      <trkpt lat="44.5780460" lon="7.1786530">
        <ele>997.4</ele>
        <time>2017-07-24T13:33:37Z</time>
      </trkpt>
      <trkpt lat="44.5781850" lon="7.1792930">
        <ele>997.0</ele>
        <time>2017-07-24T13:33:42Z</time>
      </trkpt>
      <trkpt lat="44.5782010" lon="7.1794170">
        <ele>997.0</ele>
        <time>2017-07-24T13:33:43Z</time>
      </trkpt>
      <trkpt lat="44.5782050" lon="7.1796680">
        <ele>996.4</ele>
        <time>2017-07-24T13:33:45Z</time>
      </trkpt>
      <trkpt lat="44.5781840" lon="7.1799160">
        <ele>995.8</ele>
        <time>2017-07-24T13:33:47Z</time>
      </trkpt>
      <trkpt lat="44.5781420" lon="7.1801530">
        <ele>995.8</ele>
        <time>2017-07-24T13:33:49Z</time>
      </trkpt>
      <trkpt lat="44.5781030" lon="7.1804800">
        <ele>994.8</ele>
        <time>2017-07-24T13:33:52Z</time>
      </trkpt>
      <trkpt lat="44.5781070" lon="7.1805610">
        <ele>994.2</ele>
        <time>2017-07-24T13:33:53Z</time>
      </trkpt>
      <trkpt lat="44.5781670" lon="7.1806490">
        <ele>993.8</ele>
        <time>2017-07-24T13:33:56Z</time>
      </trkpt>
      <trkpt lat="44.5783160" lon="7.1806910">
        <ele>994.2</ele>
        <time>2017-07-24T13:33:59Z</time>
      </trkpt>
      <trkpt lat="44.5783730" lon="7.1807050">
        <ele>994.0</ele>
        <time>2017-07-24T13:34:00Z</time>
      </trkpt>
      <trkpt lat="44.5784780" lon="7.1807560">
        <ele>993.6</ele>
        <time>2017-07-24T13:34:02Z</time>
      </trkpt>
      <trkpt lat="44.5785470" lon="7.1808620">
        <ele>993.2</ele>
        <time>2017-07-24T13:34:04Z</time>
      </trkpt>
      <trkpt lat="44.5785170" lon="7.1810860">
        <ele>993.6</ele>
        <time>2017-07-24T13:34:07Z</time>
      </trkpt>
      <trkpt lat="44.5783730" lon="7.1812660">
        <ele>993.2</ele>
        <time>2017-07-24T13:34:10Z</time>
      </trkpt>
      <trkpt lat="44.5783300" lon="7.1813240">
        <ele>993.0</ele>
        <time>2017-07-24T13:34:11Z</time>
      </trkpt>
      <trkpt lat="44.5782330" lon="7.1815060">
        <ele>992.8</ele>
        <time>2017-07-24T13:34:13Z</time>
      </trkpt>
      <trkpt lat="44.5781950" lon="7.1816120">
        <ele>992.6</ele>
        <time>2017-07-24T13:34:14Z</time>
      </trkpt>
      <trkpt lat="44.5781500" lon="7.1818630">
        <ele>991.4</ele>
        <time>2017-07-24T13:34:16Z</time>
      </trkpt>
      <trkpt lat="44.5781340" lon="7.1820030">
        <ele>991.0</ele>
        <time>2017-07-24T13:34:17Z</time>
      </trkpt>
      <trkpt lat="44.5780620" lon="7.1823680">
        <ele>990.2</ele>
        <time>2017-07-24T13:34:20Z</time>
      </trkpt>
      <trkpt lat="44.5780480" lon="7.1824900">
        <ele>990.0</ele>
        <time>2017-07-24T13:34:21Z</time>
      </trkpt>
      <trkpt lat="44.5780320" lon="7.1828730">
        <ele>989.2</ele>
        <time>2017-07-24T13:34:24Z</time>
      </trkpt>
      <trkpt lat="44.5780700" lon="7.1831150">
        <ele>988.6</ele>
        <time>2017-07-24T13:34:26Z</time>
      </trkpt>
      <trkpt lat="44.5781380" lon="7.1833480">
        <ele>988.0</ele>
        <time>2017-07-24T13:34:28Z</time>
      </trkpt>
      <trkpt lat="44.5781980" lon="7.1835560">
        <ele>988.0</ele>
        <time>2017-07-24T13:34:30Z</time>
      </trkpt>
      <trkpt lat="44.5782630" lon="7.1838460">
        <ele>989.0</ele>
        <time>2017-07-24T13:34:34Z</time>
      </trkpt>
      <trkpt lat="44.5783150" lon="7.1840480">
        <ele>990.0</ele>
        <time>2017-07-24T13:34:37Z</time>
      </trkpt>
      <trkpt lat="44.5783250" lon="7.1841230">
        <ele>990.4</ele>
        <time>2017-07-24T13:34:38Z</time>
      </trkpt>
      <trkpt lat="44.5783310" lon="7.1842090">
        <ele>990.6</ele>
        <time>2017-07-24T13:34:39Z</time>
      </trkpt>
      <trkpt lat="44.5783030" lon="7.1844600">
        <ele>991.0</ele>
        <time>2017-07-24T13:34:42Z</time>
      </trkpt>
      <trkpt lat="44.5782870" lon="7.1845420">
        <ele>991.2</ele>
        <time>2017-07-24T13:34:43Z</time>
      </trkpt>
      <trkpt lat="44.5782210" lon="7.1847860">
        <ele>991.0</ele>
        <time>2017-07-24T13:34:46Z</time>
      </trkpt>
      <trkpt lat="44.5781670" lon="7.1850350">
        <ele>991.0</ele>
        <time>2017-07-24T13:34:49Z</time>
      </trkpt>
      <trkpt lat="44.5781720" lon="7.1851010">
        <ele>990.8</ele>
        <time>2017-07-24T13:34:50Z</time>
      </trkpt>
      <trkpt lat="44.5782370" lon="7.1851830">
        <ele>990.4</ele>
        <time>2017-07-24T13:34:52Z</time>
      </trkpt>
      <trkpt lat="44.5783200" lon="7.1852140">
        <ele>990.2</ele>
        <time>2017-07-24T13:34:54Z</time>
      </trkpt>
      <trkpt lat="44.5784320" lon="7.1852620">
        <ele>991.0</ele>
        <time>2017-07-24T13:34:57Z</time>
      </trkpt>
      <trkpt lat="44.5784960" lon="7.1852760">
        <ele>991.6</ele>
        <time>2017-07-24T13:34:59Z</time>
      </trkpt>
      <trkpt lat="44.5786550" lon="7.1853290">
        <ele>992.8</ele>
        <time>2017-07-24T13:35:04Z</time>
      </trkpt>
      <trkpt lat="44.5787230" lon="7.1853690">
        <ele>994.0</ele>
        <time>2017-07-24T13:35:07Z</time>
      </trkpt>
      <trkpt lat="44.5787670" lon="7.1853950">
        <ele>995.0</ele>
        <time>2017-07-24T13:35:09Z</time>
      </trkpt>
      <trkpt lat="44.5787840" lon="7.1854010">
        <ele>995.4</ele>
        <time>2017-07-24T13:35:10Z</time>
      </trkpt>
      <trkpt lat="44.5788290" lon="7.1854170">
        <ele>996.2</ele>
        <time>2017-07-24T13:35:12Z</time>
      </trkpt>
      <trkpt lat="44.5789150" lon="7.1854540">
        <ele>997.8</ele>
        <time>2017-07-24T13:35:15Z</time>
      </trkpt>
      <trkpt lat="44.5790030" lon="7.1854530">
        <ele>999.4</ele>
        <time>2017-07-24T13:35:18Z</time>
      </trkpt>
      <trkpt lat="44.5790790" lon="7.1854700">
        <ele>1000.8</ele>
        <time>2017-07-24T13:35:21Z</time>
      </trkpt>
      <trkpt lat="44.5791230" lon="7.1854920">
        <ele>1001.8</ele>
        <time>2017-07-24T13:35:23Z</time>
      </trkpt>
      <trkpt lat="44.5791450" lon="7.1854980">
        <ele>1002.2</ele>
        <time>2017-07-24T13:35:24Z</time>
      </trkpt>
      <trkpt lat="44.5791920" lon="7.1855080">
        <ele>1003.2</ele>
        <time>2017-07-24T13:35:26Z</time>
      </trkpt>
      <trkpt lat="44.5792400" lon="7.1855080">
        <ele>1004.4</ele>
        <time>2017-07-24T13:35:28Z</time>
      </trkpt>
      <trkpt lat="44.5792980" lon="7.1855020">
        <ele>1005.2</ele>
        <time>2017-07-24T13:35:30Z</time>
      </trkpt>
      <trkpt lat="44.5793270" lon="7.1855030">
        <ele>1005.4</ele>
        <time>2017-07-24T13:35:31Z</time>
      </trkpt>
      <trkpt lat="44.5793970" lon="7.1855400">
        <ele>1005.8</ele>
        <time>2017-07-24T13:35:34Z</time>
      </trkpt>
      <trkpt lat="44.5794180" lon="7.1855690">
        <ele>1006.0</ele>
        <time>2017-07-24T13:35:35Z</time>
      </trkpt>
      <trkpt lat="44.5794350" lon="7.1855970">
        <ele>1006.4</ele>
        <time>2017-07-24T13:35:36Z</time>
      </trkpt>
      <trkpt lat="44.5794640" lon="7.1856980">
        <ele>1007.6</ele>
        <time>2017-07-24T13:35:39Z</time>
      </trkpt>
      <trkpt lat="44.5794670" lon="7.1857370">
        <ele>1007.8</ele>
        <time>2017-07-24T13:35:40Z</time>
      </trkpt>
      <trkpt lat="44.5794720" lon="7.1858230">
        <ele>1009.0</ele>
        <time>2017-07-24T13:35:42Z</time>
      </trkpt>
      <trkpt lat="44.5794790" lon="7.1859600">
        <ele>1010.4</ele>
        <time>2017-07-24T13:35:45Z</time>
      </trkpt>
      <trkpt lat="44.5794830" lon="7.1861030">
        <ele>1011.4</ele>
        <time>2017-07-24T13:35:48Z</time>
      </trkpt>
      <trkpt lat="44.5794790" lon="7.1862500">
        <ele>1012.6</ele>
        <time>2017-07-24T13:35:51Z</time>
      </trkpt>
      <trkpt lat="44.5794520" lon="7.1863610">
        <ele>1013.2</ele>
        <time>2017-07-24T13:35:53Z</time>
      </trkpt>
      <trkpt lat="44.5794390" lon="7.1864210">
        <ele>1013.6</ele>
        <time>2017-07-24T13:35:54Z</time>
      </trkpt>
      <trkpt lat="44.5794070" lon="7.1867350">
        <ele>1014.6</ele>
        <time>2017-07-24T13:35:58Z</time>
      </trkpt>
      <trkpt lat="44.5794000" lon="7.1869400">
        <ele>1014.8</ele>
        <time>2017-07-24T13:36:00Z</time>
      </trkpt>
      <trkpt lat="44.5793890" lon="7.1871720">
        <ele>1015.2</ele>
        <time>2017-07-24T13:36:02Z</time>
      </trkpt>
      <trkpt lat="44.5794060" lon="7.1872840">
        <ele>1015.2</ele>
        <time>2017-07-24T13:36:03Z</time>
      </trkpt>
      <trkpt lat="44.5794580" lon="7.1876510">
        <ele>1014.6</ele>
        <time>2017-07-24T13:36:06Z</time>
      </trkpt>
      <trkpt lat="44.5794740" lon="7.1880020">
        <ele>1013.6</ele>
        <time>2017-07-24T13:36:09Z</time>
      </trkpt>
      <trkpt lat="44.5794750" lon="7.1881590">
        <ele>1012.8</ele>
        <time>2017-07-24T13:36:11Z</time>
      </trkpt>
      <trkpt lat="44.5794740" lon="7.1882100">
        <ele>1012.4</ele>
        <time>2017-07-24T13:36:12Z</time>
      </trkpt>
      <trkpt lat="44.5794450" lon="7.1882650">
        <ele>1011.8</ele>
        <time>2017-07-24T13:36:14Z</time>
      </trkpt>
      <trkpt lat="44.5794290" lon="7.1882880">
        <ele>1011.4</ele>
        <time>2017-07-24T13:36:15Z</time>
      </trkpt>
      <trkpt lat="44.5794580" lon="7.1883500">
        <ele>1010.6</ele>
        <time>2017-07-24T13:36:17Z</time>
      </trkpt>
      <trkpt lat="44.5795010" lon="7.1883580">
        <ele>1010.2</ele>
        <time>2017-07-24T13:36:19Z</time>
      </trkpt>
      <trkpt lat="44.5795040" lon="7.1883440">
        <ele>1009.8</ele>
        <time>2017-07-24T13:36:20Z</time>
      </trkpt>
      <trkpt lat="44.5794880" lon="7.1883260">
        <ele>1009.4</ele>
        <time>2017-07-24T13:36:21Z</time>
      </trkpt>
      <trkpt lat="44.5794700" lon="7.1883330">
        <ele>1009.2</ele>
        <time>2017-07-24T13:36:22Z</time>
      </trkpt>
      <trkpt lat="44.5794400" lon="7.1883760">
        <ele>1008.6</ele>
        <time>2017-07-24T13:36:24Z</time>
      </trkpt>
      <trkpt lat="44.5794280" lon="7.1883830">
        <ele>1008.4</ele>
        <time>2017-07-24T13:36:25Z</time>
      </trkpt>
      <trkpt lat="44.5794650" lon="7.1882830">
        <ele>989.6</ele>
        <time>2017-07-25T06:49:36Z</time>
      </trkpt>
      <trkpt lat="44.5794720" lon="7.1882760">
        <ele>988.0</ele>
        <time>2017-07-25T06:55:00Z</time>
      </trkpt>
      <trkpt lat="44.5794640" lon="7.1882430">
        <ele>993.2</ele>
        <time>2017-07-25T06:58:03Z</time>
      </trkpt>
      <trkpt lat="44.5794540" lon="7.1882670">
        <ele>993.2</ele>
        <time>2017-07-25T06:58:04Z</time>
      </trkpt>
      <trkpt lat="44.5794480" lon="7.1882950">
        <ele>993.2</ele>
        <time>2017-07-25T06:58:05Z</time>
      </trkpt>
      <trkpt lat="44.5794410" lon="7.1883440">
        <ele>993.2</ele>
        <time>2017-07-25T06:58:07Z</time>
      </trkpt>
      <trkpt lat="44.5794400" lon="7.1883870">
        <ele>993.4</ele>
        <time>2017-07-25T06:58:09Z</time>
      </trkpt>
      <trkpt lat="44.5794420" lon="7.1884200">
        <ele>993.6</ele>
        <time>2017-07-25T06:58:11Z</time>
      </trkpt>
      <trkpt lat="44.5794350" lon="7.1884540">
        <ele>993.8</ele>
        <time>2017-07-25T06:58:12Z</time>
      </trkpt>
      <trkpt lat="44.5794160" lon="7.1885490">
        <ele>994.2</ele>
        <time>2017-07-25T06:58:14Z</time>
      </trkpt>
      <trkpt lat="44.5793820" lon="7.1886770">
        <ele>994.6</ele>
        <time>2017-07-25T06:58:16Z</time>
      </trkpt>
      <trkpt lat="44.5793360" lon="7.1887970">
        <ele>995.2</ele>
        <time>2017-07-25T06:58:18Z</time>
      </trkpt>
      <trkpt lat="44.5792720" lon="7.1889870">
        <ele>996.0</ele>
        <time>2017-07-25T06:58:21Z</time>
      </trkpt>
      <trkpt lat="44.5792270" lon="7.1891150">
        <ele>996.2</ele>
        <time>2017-07-25T06:58:23Z</time>
      </trkpt>
      <trkpt lat="44.5791770" lon="7.1892370">
        <ele>996.8</ele>
        <time>2017-07-25T06:58:25Z</time>
      </trkpt>
      <trkpt lat="44.5791540" lon="7.1892980">
        <ele>997.4</ele>
        <time>2017-07-25T06:58:26Z</time>
      </trkpt>
      <trkpt lat="44.5791170" lon="7.1894770">
        <ele>998.6</ele>
        <time>2017-07-25T06:58:29Z</time>
      </trkpt>
      <trkpt lat="44.5791120" lon="7.1896040">
        <ele>999.0</ele>
        <time>2017-07-25T06:58:31Z</time>
      </trkpt>
      <trkpt lat="44.5790920" lon="7.1897070">
        <ele>999.6</ele>
        <time>2017-07-25T06:58:33Z</time>
      </trkpt>
      <trkpt lat="44.5790660" lon="7.1899050">
        <ele>1001.0</ele>
        <time>2017-07-25T06:58:37Z</time>
      </trkpt>
      <trkpt lat="44.5790380" lon="7.1900020">
        <ele>1001.6</ele>
        <time>2017-07-25T06:58:39Z</time>
      </trkpt>
      <trkpt lat="44.5789940" lon="7.1901390">
        <ele>1002.0</ele>
        <time>2017-07-25T06:58:42Z</time>
      </trkpt>
      <trkpt lat="44.5789370" lon="7.1903580">
        <ele>1003.0</ele>
        <time>2017-07-25T06:58:47Z</time>
      </trkpt>
      <trkpt lat="44.5789240" lon="7.1904010">
        <ele>1003.2</ele>
        <time>2017-07-25T06:58:48Z</time>
      </trkpt>
      <trkpt lat="44.5789020" lon="7.1906400">
        <ele>1004.2</ele>
        <time>2017-07-25T06:58:53Z</time>
      </trkpt>
      <trkpt lat="44.5788800" lon="7.1908520">
        <ele>1005.2</ele>
        <time>2017-07-25T06:58:57Z</time>
      </trkpt>
      <trkpt lat="44.5788710" lon="7.1909010">
        <ele>1005.4</ele>
        <time>2017-07-25T06:58:58Z</time>
      </trkpt>
      <trkpt lat="44.5788380" lon="7.1910810">
        <ele>1006.4</ele>
        <time>2017-07-25T06:59:02Z</time>
      </trkpt>
      <trkpt lat="44.5788370" lon="7.1913300">
        <ele>1007.4</ele>
        <time>2017-07-25T06:59:07Z</time>
      </trkpt>
      <trkpt lat="44.5788210" lon="7.1913890">
        <ele>1007.6</ele>
        <time>2017-07-25T06:59:08Z</time>
      </trkpt>
      <trkpt lat="44.5788020" lon="7.1916780">
        <ele>1008.0</ele>
        <time>2017-07-25T06:59:13Z</time>
      </trkpt>
      <trkpt lat="44.5788110" lon="7.1917380">
        <ele>1008.4</ele>
        <time>2017-07-25T06:59:14Z</time>
      </trkpt>
      <trkpt lat="44.5788390" lon="7.1919140">
        <ele>1008.6</ele>
        <time>2017-07-25T06:59:17Z</time>
      </trkpt>
      <trkpt lat="44.5788950" lon="7.1919990">
        <ele>1008.6</ele>
        <time>2017-07-25T06:59:19Z</time>
      </trkpt>
      <trkpt lat="44.5789570" lon="7.1920290">
        <ele>1008.6</ele>
        <time>2017-07-25T06:59:20Z</time>
      </trkpt>
      <trkpt lat="44.5790660" lon="7.1921570">
        <ele>1008.2</ele>
        <time>2017-07-25T06:59:22Z</time>
      </trkpt>
      <trkpt lat="44.5790840" lon="7.1922470">
        <ele>1008.0</ele>
        <time>2017-07-25T06:59:23Z</time>
      </trkpt>
      <trkpt lat="44.5790770" lon="7.1925070">
        <ele>1007.8</ele>
        <time>2017-07-25T06:59:26Z</time>
      </trkpt>
      <trkpt lat="44.5790150" lon="7.1926460">
        <ele>1007.6</ele>
        <time>2017-07-25T06:59:28Z</time>
      </trkpt>
      <trkpt lat="44.5789910" lon="7.1927150">
        <ele>1007.6</ele>
        <time>2017-07-25T06:59:29Z</time>
      </trkpt>
      <trkpt lat="44.5789780" lon="7.1927700">
        <ele>1007.6</ele>
        <time>2017-07-25T06:59:30Z</time>
      </trkpt>
      <trkpt lat="44.5790260" lon="7.1928660">
        <ele>1007.8</ele>
        <time>2017-07-25T06:59:32Z</time>
      </trkpt>
      <trkpt lat="44.5790500" lon="7.1928990">
        <ele>1008.0</ele>
        <time>2017-07-25T06:59:33Z</time>
      </trkpt>
      <trkpt lat="44.5791720" lon="7.1929690">
        <ele>1008.6</ele>
        <time>2017-07-25T06:59:37Z</time>
      </trkpt>
      <trkpt lat="44.5791960" lon="7.1929460">
        <ele>1009.2</ele>
        <time>2017-07-25T06:59:38Z</time>
      </trkpt>
      <trkpt lat="44.5792430" lon="7.1928930">
        <ele>1009.8</ele>
        <time>2017-07-25T06:59:40Z</time>
      </trkpt>
      <trkpt lat="44.5792800" lon="7.1928780">
        <ele>1010.2</ele>
        <time>2017-07-25T06:59:42Z</time>
      </trkpt>
      <trkpt lat="44.5793340" lon="7.1928730">
        <ele>1011.0</ele>
        <time>2017-07-25T06:59:45Z</time>
      </trkpt>
      <trkpt lat="44.5793460" lon="7.1928700">
        <ele>1011.4</ele>
        <time>2017-07-25T06:59:46Z</time>
      </trkpt>
      <trkpt lat="44.5802160" lon="7.1927730">
        <ele>1032.6</ele>
        <time>2017-07-25T07:01:24Z</time>
      </trkpt>
      <trkpt lat="44.5802310" lon="7.1927780">
        <ele>1032.8</ele>
        <time>2017-07-25T07:01:25Z</time>
      </trkpt>
      <trkpt lat="44.5802430" lon="7.1927770">
        <ele>1032.8</ele>
        <time>2017-07-25T07:01:26Z</time>
      </trkpt>
      <trkpt lat="44.5811050" lon="7.1930260">
        <ele>1055.2</ele>
        <time>2017-07-25T07:02:58Z</time>
      </trkpt>
      <trkpt lat="44.5811340" lon="7.1930360">
        <ele>1055.8</ele>
        <time>2017-07-25T07:03:01Z</time>
      </trkpt>
      <trkpt lat="44.5811800" lon="7.1930530">
        <ele>1056.6</ele>
        <time>2017-07-25T07:03:05Z</time>
      </trkpt>
      <trkpt lat="44.5811970" lon="7.1930610">
        <ele>1057.0</ele>
        <time>2017-07-25T07:03:07Z</time>
      </trkpt>
      <trkpt lat="44.5810890" lon="7.1939330">
        <ele>1088.8</ele>
        <time>2017-07-25T07:05:55Z</time>
      </trkpt>
      <trkpt lat="44.5811290" lon="7.1939570">
        <ele>1089.6</ele>
        <time>2017-07-25T07:05:58Z</time>
      </trkpt>
      <trkpt lat="44.5811430" lon="7.1939630">
        <ele>1090.0</ele>
        <time>2017-07-25T07:05:59Z</time>
      </trkpt>
      <trkpt lat="44.5813370" lon="7.1953920">
        <ele>1121.6</ele>
        <time>2017-07-25T07:08:32Z</time>
      </trkpt>
      <trkpt lat="44.5813710" lon="7.1958010">
        <ele>1126.4</ele>
        <time>2017-07-25T07:08:52Z</time>
      </trkpt>
      <trkpt lat="44.5813780" lon="7.1959120">
        <ele>1127.6</ele>
        <time>2017-07-25T07:08:56Z</time>
      </trkpt>
      <trkpt lat="44.5813850" lon="7.1960780">
        <ele>1129.4</ele>
        <time>2017-07-25T07:09:04Z</time>
      </trkpt>
      <trkpt lat="44.5813980" lon="7.1961510">
        <ele>1130.2</ele>
        <time>2017-07-25T07:09:07Z</time>
      </trkpt>
      <trkpt lat="44.5813970" lon="7.1962030">
        <ele>1130.6</ele>
        <time>2017-07-25T07:09:09Z</time>
      </trkpt>
      <trkpt lat="44.5814030" lon="7.1963180">
        <ele>1131.6</ele>
        <time>2017-07-25T07:09:14Z</time>
      </trkpt>
      <trkpt lat="44.5813990" lon="7.1964020">
        <ele>1132.6</ele>
        <time>2017-07-25T07:09:17Z</time>
      </trkpt>
      <trkpt lat="44.5814140" lon="7.1964930">
        <ele>1133.8</ele>
        <time>2017-07-25T07:09:21Z</time>
      </trkpt>
      <trkpt lat="44.5814160" lon="7.1966190">
        <ele>1134.8</ele>
        <time>2017-07-25T07:09:26Z</time>
      </trkpt>
      <trkpt lat="44.5814110" lon="7.1966950">
        <ele>1135.4</ele>
        <time>2017-07-25T07:09:29Z</time>
      </trkpt>
      <trkpt lat="44.5814270" lon="7.1967650">
        <ele>1136.0</ele>
        <time>2017-07-25T07:09:32Z</time>
      </trkpt>
      <trkpt lat="44.5814430" lon="7.1968590">
        <ele>1136.8</ele>
        <time>2017-07-25T07:09:36Z</time>
      </trkpt>
      <trkpt lat="44.5814500" lon="7.1968860">
        <ele>1137.2</ele>
        <time>2017-07-25T07:09:37Z</time>
      </trkpt>
      <trkpt lat="44.5814720" lon="7.1970020">
        <ele>1138.4</ele>
        <time>2017-07-25T07:09:41Z</time>
      </trkpt>
      <trkpt lat="44.5814770" lon="7.1970290">
        <ele>1138.6</ele>
        <time>2017-07-25T07:09:42Z</time>
      </trkpt>
      <trkpt lat="44.5814810" lon="7.1971260">
        <ele>1139.6</ele>
        <time>2017-07-25T07:09:46Z</time>
      </trkpt>
      <trkpt lat="44.5814830" lon="7.1972300">
        <ele>1140.6</ele>
        <time>2017-07-25T07:09:50Z</time>
      </trkpt>
      <trkpt lat="44.5814910" lon="7.1972640">
        <ele>1140.8</ele>
        <time>2017-07-25T07:09:51Z</time>
      </trkpt>
      <trkpt lat="44.5815130" lon="7.1973740">
        <ele>1142.0</ele>
        <time>2017-07-25T07:09:55Z</time>
      </trkpt>
      <trkpt lat="44.5815170" lon="7.1974100">
        <ele>1142.2</ele>
        <time>2017-07-25T07:09:56Z</time>
      </trkpt>
      <trkpt lat="44.5815240" lon="7.1975040">
        <ele>1143.0</ele>
        <time>2017-07-25T07:09:59Z</time>
      </trkpt>
      <trkpt lat="44.5815270" lon="7.1976620">
        <ele>1144.2</ele>
        <time>2017-07-25T07:10:03Z</time>
      </trkpt>
      <trkpt lat="44.5815320" lon="7.1977460">
        <ele>1144.6</ele>
        <time>2017-07-25T07:10:05Z</time>
      </trkpt>
      <trkpt lat="44.5815620" lon="7.1979310">
        <ele>1145.2</ele>
        <time>2017-07-25T07:10:10Z</time>
      </trkpt>
      <trkpt lat="44.5815820" lon="7.1980310">
        <ele>1145.8</ele>
        <time>2017-07-25T07:10:13Z</time>
      </trkpt>
      <trkpt lat="44.5816130" lon="7.1981260">
        <ele>1146.2</ele>
        <time>2017-07-25T07:10:16Z</time>
      </trkpt>
      <trkpt lat="44.5816430" lon="7.1982480">
        <ele>1147.2</ele>
        <time>2017-07-25T07:10:20Z</time>
      </trkpt>
      <trkpt lat="44.5816610" lon="7.1983180">
        <ele>1148.2</ele>
        <time>2017-07-25T07:10:24Z</time>
      </trkpt>
      <trkpt lat="44.5816880" lon="7.1983770">
        <ele>1149.2</ele>
        <time>2017-07-25T07:10:27Z</time>
      </trkpt>
      <trkpt lat="44.5816960" lon="7.1983940">
        <ele>1149.4</ele>
        <time>2017-07-25T07:10:28Z</time>
      </trkpt>
      <trkpt lat="44.5817350" lon="7.1984810">
        <ele>1150.4</ele>
        <time>2017-07-25T07:10:32Z</time>
      </trkpt>
      <trkpt lat="44.5817600" lon="7.1985500">
        <ele>1151.2</ele>
        <time>2017-07-25T07:10:35Z</time>
      </trkpt>
      <trkpt lat="44.5817740" lon="7.1985970">
        <ele>1151.8</ele>
        <time>2017-07-25T07:10:37Z</time>
      </trkpt>
      <trkpt lat="44.5818070" lon="7.1986980">
        <ele>1152.8</ele>
        <time>2017-07-25T07:10:41Z</time>
      </trkpt>
      <trkpt lat="44.5818210" lon="7.1987250">
        <ele>1153.0</ele>
        <time>2017-07-25T07:10:42Z</time>
      </trkpt>
      <trkpt lat="44.5818520" lon="7.1988150">
        <ele>1153.8</ele>
        <time>2017-07-25T07:10:45Z</time>
      </trkpt>
      <trkpt lat="44.5818700" lon="7.1989370">
        <ele>1154.6</ele>
        <time>2017-07-25T07:10:48Z</time>
      </trkpt>
      <trkpt lat="44.5818940" lon="7.1990720">
        <ele>1155.0</ele>
        <time>2017-07-25T07:10:51Z</time>
      </trkpt>
      <trkpt lat="44.5819260" lon="7.1991740">
        <ele>1154.6</ele>
        <time>2017-07-25T07:10:53Z</time>
      </trkpt>
      <trkpt lat="44.5819500" lon="7.1992210">
        <ele>1154.6</ele>
        <time>2017-07-25T07:10:54Z</time>
      </trkpt>
      <trkpt lat="44.5821470" lon="7.1995070">
        <ele>1154.0</ele>
        <time>2017-07-25T07:11:01Z</time>
      </trkpt>
      <trkpt lat="44.5822840" lon="7.1997120">
        <ele>1154.6</ele>
        <time>2017-07-25T07:11:06Z</time>
      </trkpt>
      <trkpt lat="44.5823100" lon="7.1997640">
        <ele>1154.4</ele>
        <time>2017-07-25T07:11:07Z</time>
      </trkpt>
      <trkpt lat="44.5823540" lon="7.1998710">
        <ele>1154.4</ele>
        <time>2017-07-25T07:11:09Z</time>
      </trkpt>
      <trkpt lat="44.5823790" lon="7.2000420">
        <ele>1154.4</ele>
        <time>2017-07-25T07:11:12Z</time>
      </trkpt>
      <trkpt lat="44.5823810" lon="7.2001120">
        <ele>1154.2</ele>
        <time>2017-07-25T07:11:13Z</time>
      </trkpt>
      <trkpt lat="44.5823920" lon="7.2002710">
        <ele>1154.0</ele>
        <time>2017-07-25T07:11:15Z</time>
      </trkpt>
      <trkpt lat="44.5823970" lon="7.2003560">
        <ele>1153.8</ele>
        <time>2017-07-25T07:11:16Z</time>
      </trkpt>
      <trkpt lat="44.5824070" lon="7.2004430">
        <ele>1153.8</ele>
        <time>2017-07-25T07:11:17Z</time>
      </trkpt>
      <trkpt lat="44.5824830" lon="7.2007570">
        <ele>1153.4</ele>
        <time>2017-07-25T07:11:20Z</time>
      </trkpt>
      <trkpt lat="44.5825750" lon="7.2009460">
        <ele>1153.0</ele>
        <time>2017-07-25T07:11:22Z</time>
      </trkpt>
      <trkpt lat="44.5826090" lon="7.2010380">
        <ele>1152.6</ele>
        <time>2017-07-25T07:11:23Z</time>
      </trkpt>
      <trkpt lat="44.5826310" lon="7.2012220">
        <ele>1152.4</ele>
        <time>2017-07-25T07:11:25Z</time>
      </trkpt>
      <trkpt lat="44.5826290" lon="7.2013030">
        <ele>1152.4</ele>
        <time>2017-07-25T07:11:26Z</time>
      </trkpt>
      <trkpt lat="44.5826020" lon="7.2015330">
        <ele>1152.0</ele>
        <time>2017-07-25T07:11:29Z</time>
      </trkpt>
      <trkpt lat="44.5826060" lon="7.2016080">
        <ele>1152.0</ele>
        <time>2017-07-25T07:11:30Z</time>
      </trkpt>
      <trkpt lat="44.5826110" lon="7.2016780">
        <ele>1151.8</ele>
        <time>2017-07-25T07:11:31Z</time>
      </trkpt>
      <trkpt lat="44.5826400" lon="7.2019910">
        <ele>1153.4</ele>
        <time>2017-07-25T07:11:37Z</time>
      </trkpt>
      <trkpt lat="44.5826440" lon="7.2020830">
        <ele>1153.8</ele>
        <time>2017-07-25T07:11:39Z</time>
      </trkpt>
      <trkpt lat="44.5826250" lon="7.2022690">
        <ele>1154.8</ele>
        <time>2017-07-25T07:11:43Z</time>
      </trkpt>
      <trkpt lat="44.5826130" lon="7.2023150">
        <ele>1155.0</ele>
        <time>2017-07-25T07:11:44Z</time>
      </trkpt>
      <trkpt lat="44.5825870" lon="7.2023570">
        <ele>1155.2</ele>
        <time>2017-07-25T07:11:45Z</time>
      </trkpt>
      <trkpt lat="44.5825370" lon="7.2024700">
        <ele>1155.8</ele>
        <time>2017-07-25T07:11:47Z</time>
      </trkpt>
      <trkpt lat="44.5824970" lon="7.2025930">
        <ele>1156.0</ele>
        <time>2017-07-25T07:11:49Z</time>
      </trkpt>
      <trkpt lat="44.5824350" lon="7.2028520">
        <ele>1156.6</ele>
        <time>2017-07-25T07:11:53Z</time>
      </trkpt>
      <trkpt lat="44.5824200" lon="7.2029120">
        <ele>1156.8</ele>
        <time>2017-07-25T07:11:54Z</time>
      </trkpt>
      <trkpt lat="44.5824010" lon="7.2030070">
        <ele>1157.0</ele>
        <time>2017-07-25T07:11:56Z</time>
      </trkpt>
      <trkpt lat="44.5824110" lon="7.2030300">
        <ele>1157.2</ele>
        <time>2017-07-25T07:11:57Z</time>
      </trkpt>
      <trkpt lat="44.5824600" lon="7.2029800">
        <ele>1158.0</ele>
        <time>2017-07-25T07:12:00Z</time>
      </trkpt>
      <trkpt lat="44.5824770" lon="7.2029510">
        <ele>1158.4</ele>
        <time>2017-07-25T07:12:01Z</time>
      </trkpt>
      <trkpt lat="44.5825780" lon="7.2027990">
        <ele>1159.2</ele>
        <time>2017-07-25T07:12:06Z</time>
      </trkpt>
      <trkpt lat="44.5825970" lon="7.2027670">
        <ele>1159.4</ele>
        <time>2017-07-25T07:12:07Z</time>
      </trkpt>
      <trkpt lat="44.5827170" lon="7.2025770">
        <ele>1160.6</ele>
        <time>2017-07-25T07:12:13Z</time>
      </trkpt>
      <trkpt lat="44.5827900" lon="7.2024630">
        <ele>1161.6</ele>
        <time>2017-07-25T07:12:17Z</time>
      </trkpt>
      <trkpt lat="44.5828370" lon="7.2023720">
        <ele>1162.8</ele>
        <time>2017-07-25T07:12:20Z</time>
      </trkpt>
      <trkpt lat="44.5828500" lon="7.2023400">
        <ele>1163.0</ele>
        <time>2017-07-25T07:12:21Z</time>
      </trkpt>
      <trkpt lat="44.5828760" lon="7.2022760">
        <ele>1164.0</ele>
        <time>2017-07-25T07:12:23Z</time>
      </trkpt>
      <trkpt lat="44.5829200" lon="7.2021920">
        <ele>1165.0</ele>
        <time>2017-07-25T07:12:26Z</time>
      </trkpt>
      <trkpt lat="44.5829520" lon="7.2021260">
        <ele>1166.2</ele>
        <time>2017-07-25T07:12:28Z</time>
      </trkpt>
      <trkpt lat="44.5829680" lon="7.2020920">
        <ele>1166.6</ele>
        <time>2017-07-25T07:12:29Z</time>
      </trkpt>
      <trkpt lat="44.5830020" lon="7.2020310">
        <ele>1167.4</ele>
        <time>2017-07-25T07:12:31Z</time>
      </trkpt>
      <trkpt lat="44.5830370" lon="7.2019280">
        <ele>1168.4</ele>
        <time>2017-07-25T07:12:34Z</time>
      </trkpt>
      <trkpt lat="44.5830560" lon="7.2018590">
        <ele>1169.0</ele>
        <time>2017-07-25T07:12:36Z</time>
      </trkpt>
      <trkpt lat="44.5830650" lon="7.2018230">
        <ele>1169.4</ele>
        <time>2017-07-25T07:12:37Z</time>
      </trkpt>
      <trkpt lat="44.5830850" lon="7.2017180">
        <ele>1170.6</ele>
        <time>2017-07-25T07:12:40Z</time>
      </trkpt>
      <trkpt lat="44.5831050" lon="7.2016250">
        <ele>1171.6</ele>
        <time>2017-07-25T07:12:43Z</time>
      </trkpt>
      <trkpt lat="44.5831240" lon="7.2015330">
        <ele>1172.8</ele>
        <time>2017-07-25T07:12:46Z</time>
      </trkpt>
      <trkpt lat="44.5831420" lon="7.2014450">
        <ele>1173.8</ele>
        <time>2017-07-25T07:12:49Z</time>
      </trkpt>
      <trkpt lat="44.5831450" lon="7.2013810">
        <ele>1174.8</ele>
        <time>2017-07-25T07:12:51Z</time>
      </trkpt>
      <trkpt lat="44.5831620" lon="7.2012950">
        <ele>1176.0</ele>
        <time>2017-07-25T07:12:54Z</time>
      </trkpt>
      <trkpt lat="44.5831640" lon="7.2011740">
        <ele>1177.0</ele>
        <time>2017-07-25T07:12:58Z</time>
      </trkpt>
      <trkpt lat="44.5831720" lon="7.2010830">
        <ele>1178.2</ele>
        <time>2017-07-25T07:13:01Z</time>
      </trkpt>
      <trkpt lat="44.5831850" lon="7.2009890">
        <ele>1179.0</ele>
        <time>2017-07-25T07:13:04Z</time>
      </trkpt>
      <trkpt lat="44.5831940" lon="7.2009600">
        <ele>1179.4</ele>
        <time>2017-07-25T07:13:05Z</time>
      </trkpt>
      <trkpt lat="44.5832120" lon="7.2008130">
        <ele>1180.6</ele>
        <time>2017-07-25T07:13:09Z</time>
      </trkpt>
      <trkpt lat="44.5832110" lon="7.2007340">
        <ele>1181.0</ele>
        <time>2017-07-25T07:13:11Z</time>
      </trkpt>
      <trkpt lat="44.5832080" lon="7.2006190">
        <ele>1181.8</ele>
        <time>2017-07-25T07:13:14Z</time>
      </trkpt>
      <trkpt lat="44.5831780" lon="7.2004590">
        <ele>1182.6</ele>
        <time>2017-07-25T07:13:18Z</time>
      </trkpt>
      <trkpt lat="44.5831680" lon="7.2004050">
        <ele>1183.0</ele>
        <time>2017-07-25T07:13:19Z</time>
      </trkpt>
      <trkpt lat="44.5831770" lon="7.2002380">
        <ele>1184.0</ele>
        <time>2017-07-25T07:13:23Z</time>
      </trkpt>
      <trkpt lat="44.5831800" lon="7.2002060">
        <ele>1184.2</ele>
        <time>2017-07-25T07:13:24Z</time>
      </trkpt>
      <trkpt lat="44.5831570" lon="7.2000440">
        <ele>1185.2</ele>
        <time>2017-07-25T07:13:28Z</time>
      </trkpt>
      <trkpt lat="44.5831450" lon="7.1999650">
        <ele>1185.8</ele>
        <time>2017-07-25T07:13:30Z</time>
      </trkpt>
      <trkpt lat="44.5831410" lon="7.1998870">
        <ele>1186.4</ele>
        <time>2017-07-25T07:13:32Z</time>
      </trkpt>
      <trkpt lat="44.5831500" lon="7.1997630">
        <ele>1187.6</ele>
        <time>2017-07-25T07:13:36Z</time>
      </trkpt>
      <trkpt lat="44.5831490" lon="7.1997330">
        <ele>1187.8</ele>
        <time>2017-07-25T07:13:37Z</time>
      </trkpt>
      <trkpt lat="44.5831450" lon="7.1996710">
        <ele>1188.4</ele>
        <time>2017-07-25T07:13:39Z</time>
      </trkpt>
      <trkpt lat="44.5831400" lon="7.1996380">
        <ele>1189.0</ele>
        <time>2017-07-25T07:13:40Z</time>
      </trkpt>
      <trkpt lat="44.5831290" lon="7.1995590">
        <ele>1189.8</ele>
        <time>2017-07-25T07:13:43Z</time>
      </trkpt>
      <trkpt lat="44.5831300" lon="7.1995130">
        <ele>1190.2</ele>
        <time>2017-07-25T07:13:45Z</time>
      </trkpt>
      <trkpt lat="44.5831360" lon="7.1994070">
        <ele>1191.4</ele>
        <time>2017-07-25T07:13:49Z</time>
      </trkpt>
      <trkpt lat="44.5831400" lon="7.1993800">
        <ele>1191.6</ele>
        <time>2017-07-25T07:13:50Z</time>
      </trkpt>
      <trkpt lat="44.5831440" lon="7.1992510">
        <ele>1192.6</ele>
        <time>2017-07-25T07:13:55Z</time>
      </trkpt>
      <trkpt lat="44.5831430" lon="7.1991980">
        <ele>1193.0</ele>
        <time>2017-07-25T07:13:57Z</time>
      </trkpt>
      <trkpt lat="44.5831470" lon="7.1991450">
        <ele>1193.6</ele>
        <time>2017-07-25T07:13:59Z</time>
      </trkpt>
      <trkpt lat="44.5831720" lon="7.1990270">
        <ele>1194.8</ele>
        <time>2017-07-25T07:14:03Z</time>
      </trkpt>
      <trkpt lat="44.5831800" lon="7.1989950">
        <ele>1195.2</ele>
        <time>2017-07-25T07:14:04Z</time>
      </trkpt>
      <trkpt lat="44.5831870" lon="7.1989020">
        <ele>1195.8</ele>
        <time>2017-07-25T07:14:06Z</time>
      </trkpt>
      <trkpt lat="44.5831840" lon="7.1988560">
        <ele>1196.0</ele>
        <time>2017-07-25T07:14:07Z</time>
      </trkpt>
      <trkpt lat="44.5831820" lon="7.1988100">
        <ele>1196.2</ele>
        <time>2017-07-25T07:14:08Z</time>
      </trkpt>
      <trkpt lat="44.5831800" lon="7.1986940">
        <ele>1197.0</ele>
        <time>2017-07-25T07:14:11Z</time>
      </trkpt>
      <trkpt lat="44.5831640" lon="7.1985870">
        <ele>1197.4</ele>
        <time>2017-07-25T07:14:14Z</time>
      </trkpt>
      <trkpt lat="44.5831430" lon="7.1985100">
        <ele>1198.0</ele>
        <time>2017-07-25T07:14:16Z</time>
      </trkpt>
      <trkpt lat="44.5831060" lon="7.1983430">
        <ele>1199.2</ele>
        <time>2017-07-25T07:14:21Z</time>
      </trkpt>
      <trkpt lat="44.5831050" lon="7.1983060">
        <ele>1199.6</ele>
        <time>2017-07-25T07:14:22Z</time>
      </trkpt>
      <trkpt lat="44.5831230" lon="7.1982520">
        <ele>1200.0</ele>
        <time>2017-07-25T07:14:24Z</time>
      </trkpt>
      <trkpt lat="44.5831410" lon="7.1982510">
        <ele>1200.0</ele>
        <time>2017-07-25T07:14:25Z</time>
      </trkpt>
      <trkpt lat="44.5831710" lon="7.1983080">
        <ele>1200.6</ele>
        <time>2017-07-25T07:14:28Z</time>
      </trkpt>
      <trkpt lat="44.5831920" lon="7.1983560">
        <ele>1201.0</ele>
        <time>2017-07-25T07:14:30Z</time>
      </trkpt>
      <trkpt lat="44.5832350" lon="7.1984280">
        <ele>1201.8</ele>
        <time>2017-07-25T07:14:33Z</time>
      </trkpt>
      <trkpt lat="44.5833370" lon="7.1985630">
        <ele>1203.0</ele>
        <time>2017-07-25T07:14:39Z</time>
      </trkpt>
      <trkpt lat="44.5833990" lon="7.1986430">
        <ele>1204.2</ele>
        <time>2017-07-25T07:14:43Z</time>
      </trkpt>
      <trkpt lat="44.5834520" lon="7.1986910">
        <ele>1204.6</ele>
        <time>2017-07-25T07:14:46Z</time>
      </trkpt>
      <trkpt lat="44.5835070" lon="7.1987840">
        <ele>1205.2</ele>
        <time>2017-07-25T07:14:52Z</time>
      </trkpt>
      <trkpt lat="44.5835190" lon="7.1987850">
        <ele>1205.2</ele>
        <time>2017-07-25T07:14:53Z</time>
      </trkpt>
      <trkpt lat="44.5835290" lon="7.1987660">
        <ele>1205.6</ele>
        <time>2017-07-25T07:14:55Z</time>
      </trkpt>
      <trkpt lat="44.5835280" lon="7.1987430">
        <ele>1206.0</ele>
        <time>2017-07-25T07:14:57Z</time>
      </trkpt>
      <trkpt lat="44.5835210" lon="7.1987250">
        <ele>1206.4</ele>
        <time>2017-07-25T07:14:58Z</time>
      </trkpt>
      <trkpt lat="44.5834860" lon="7.1986560">
        <ele>1207.4</ele>
        <time>2017-07-25T07:15:02Z</time>
      </trkpt>
      <trkpt lat="44.5834770" lon="7.1986130">
        <ele>1208.2</ele>
        <time>2017-07-25T07:15:04Z</time>
      </trkpt>
      <trkpt lat="44.5834690" lon="7.1985900">
        <ele>1208.6</ele>
        <time>2017-07-25T07:15:05Z</time>
      </trkpt>
      <trkpt lat="44.5834530" lon="7.1985180">
        <ele>1209.6</ele>
        <time>2017-07-25T07:15:08Z</time>
      </trkpt>
      <trkpt lat="44.5834280" lon="7.1984500">
        <ele>1210.6</ele>
        <time>2017-07-25T07:15:11Z</time>
      </trkpt>
      <trkpt lat="44.5834290" lon="7.1984270">
        <ele>1211.0</ele>
        <time>2017-07-25T07:15:12Z</time>
      </trkpt>
      <trkpt lat="44.5834580" lon="7.1984030">
        <ele>1211.8</ele>
        <time>2017-07-25T07:15:15Z</time>
      </trkpt>
      <trkpt lat="44.5834730" lon="7.1984110">
        <ele>1212.6</ele>
        <time>2017-07-25T07:15:16Z</time>
      </trkpt>
      <trkpt lat="44.5834850" lon="7.1984210">
        <ele>1213.0</ele>
        <time>2017-07-25T07:15:17Z</time>
      </trkpt>
      <trkpt lat="44.5835120" lon="7.1984680">
        <ele>1214.0</ele>
        <time>2017-07-25T07:15:20Z</time>
      </trkpt>
      <trkpt lat="44.5835230" lon="7.1984830">
        <ele>1214.4</ele>
        <time>2017-07-25T07:15:21Z</time>
      </trkpt>
      <trkpt lat="44.5835520" lon="7.1985160">
        <ele>1215.2</ele>
        <time>2017-07-25T07:15:24Z</time>
      </trkpt>
      <trkpt lat="44.5835960" lon="7.1985590">
        <ele>1216.0</ele>
        <time>2017-07-25T07:15:27Z</time>
      </trkpt>
      <trkpt lat="44.5836110" lon="7.1985750">
        <ele>1216.4</ele>
        <time>2017-07-25T07:15:28Z</time>
      </trkpt>
      <trkpt lat="44.5836680" lon="7.1986450">
        <ele>1217.4</ele>
        <time>2017-07-25T07:15:32Z</time>
      </trkpt>
      <trkpt lat="44.5837090" lon="7.1986890">
        <ele>1218.0</ele>
        <time>2017-07-25T07:15:35Z</time>
      </trkpt>
      <trkpt lat="44.5837890" lon="7.1987300">
        <ele>1218.6</ele>
        <time>2017-07-25T07:15:39Z</time>
      </trkpt>
      <trkpt lat="44.5838390" lon="7.1987590">
        <ele>1219.2</ele>
        <time>2017-07-25T07:15:42Z</time>
      </trkpt>
      <trkpt lat="44.5838690" lon="7.1987840">
        <ele>1219.6</ele>
        <time>2017-07-25T07:15:44Z</time>
      </trkpt>
      <trkpt lat="44.5839280" lon="7.1988240">
        <ele>1220.8</ele>
        <time>2017-07-25T07:15:48Z</time>
      </trkpt>
      <trkpt lat="44.5839870" lon="7.1988860">
        <ele>1222.2</ele>
        <time>2017-07-25T07:15:52Z</time>
      </trkpt>
      <trkpt lat="44.5840280" lon="7.1989390">
        <ele>1223.2</ele>
        <time>2017-07-25T07:15:55Z</time>
      </trkpt>
      <trkpt lat="44.5840440" lon="7.1989560">
        <ele>1223.4</ele>
        <time>2017-07-25T07:15:56Z</time>
      </trkpt>
      <trkpt lat="44.5840860" lon="7.1990000">
        <ele>1223.6</ele>
        <time>2017-07-25T07:15:59Z</time>
      </trkpt>
      <trkpt lat="44.5841210" lon="7.1990130">
        <ele>1223.8</ele>
        <time>2017-07-25T07:16:01Z</time>
      </trkpt>
      <trkpt lat="44.5841810" lon="7.1990750">
        <ele>1224.2</ele>
        <time>2017-07-25T07:16:05Z</time>
      </trkpt>
      <trkpt lat="44.5842050" lon="7.1991140">
        <ele>1224.6</ele>
        <time>2017-07-25T07:16:07Z</time>
      </trkpt>
      <trkpt lat="44.5842330" lon="7.1991440">
        <ele>1224.8</ele>
        <time>2017-07-25T07:16:09Z</time>
      </trkpt>
      <trkpt lat="44.5842640" lon="7.1991420">
        <ele>1225.0</ele>
        <time>2017-07-25T07:16:11Z</time>
      </trkpt>
      <trkpt lat="44.5842850" lon="7.1990750">
        <ele>1225.8</ele>
        <time>2017-07-25T07:16:14Z</time>
      </trkpt>
      <trkpt lat="44.5842780" lon="7.1990460">
        <ele>1226.2</ele>
        <time>2017-07-25T07:16:15Z</time>
      </trkpt>
      <trkpt lat="44.5842460" lon="7.1989620">
        <ele>1227.0</ele>
        <time>2017-07-25T07:16:18Z</time>
      </trkpt>
      <trkpt lat="44.5842250" lon="7.1989010">
        <ele>1227.4</ele>
        <time>2017-07-25T07:16:20Z</time>
      </trkpt>
      <trkpt lat="44.5842120" lon="7.1988710">
        <ele>1227.6</ele>
        <time>2017-07-25T07:16:21Z</time>
      </trkpt>
      <trkpt lat="44.5841980" lon="7.1988350">
        <ele>1228.0</ele>
        <time>2017-07-25T07:16:22Z</time>
      </trkpt>
      <trkpt lat="44.5841320" lon="7.1987200">
        <ele>1229.2</ele>
        <time>2017-07-25T07:16:26Z</time>
      </trkpt>
      <trkpt lat="44.5841110" lon="7.1986920">
        <ele>1229.6</ele>
        <time>2017-07-25T07:16:27Z</time>
      </trkpt>
      <trkpt lat="44.5840710" lon="7.1986310">
        <ele>1230.4</ele>
        <time>2017-07-25T07:16:29Z</time>
      </trkpt>
      <trkpt lat="44.5840230" lon="7.1985440">
        <ele>1231.6</ele>
        <time>2017-07-25T07:16:32Z</time>
      </trkpt>
      <trkpt lat="44.5839860" lon="7.1984900">
        <ele>1232.2</ele>
        <time>2017-07-25T07:16:34Z</time>
      </trkpt>
      <trkpt lat="44.5839700" lon="7.1984600">
        <ele>1232.6</ele>
        <time>2017-07-25T07:16:35Z</time>
      </trkpt>
      <trkpt lat="44.5839120" lon="7.1983320">
        <ele>1233.8</ele>
        <time>2017-07-25T07:16:39Z</time>
      </trkpt>
      <trkpt lat="44.5839010" lon="7.1982550">
        <ele>1234.4</ele>
        <time>2017-07-25T07:16:41Z</time>
      </trkpt>
      <trkpt lat="44.5838930" lon="7.1981760">
        <ele>1235.0</ele>
        <time>2017-07-25T07:16:43Z</time>
      </trkpt>
      <trkpt lat="44.5838980" lon="7.1980600">
        <ele>1236.0</ele>
        <time>2017-07-25T07:16:46Z</time>
      </trkpt>
      <trkpt lat="44.5839160" lon="7.1979860">
        <ele>1236.8</ele>
        <time>2017-07-25T07:16:48Z</time>
      </trkpt>
      <trkpt lat="44.5839300" lon="7.1979520">
        <ele>1237.2</ele>
        <time>2017-07-25T07:16:49Z</time>
      </trkpt>
      <trkpt lat="44.5840020" lon="7.1978880">
        <ele>1238.2</ele>
        <time>2017-07-25T07:16:52Z</time>
      </trkpt>
      <trkpt lat="44.5840340" lon="7.1978830">
        <ele>1238.6</ele>
        <time>2017-07-25T07:16:53Z</time>
      </trkpt>
      <trkpt lat="44.5841300" lon="7.1979060">
        <ele>1239.4</ele>
        <time>2017-07-25T07:16:56Z</time>
      </trkpt>
      <trkpt lat="44.5841960" lon="7.1979490">
        <ele>1240.0</ele>
        <time>2017-07-25T07:16:58Z</time>
      </trkpt>
      <trkpt lat="44.5842660" lon="7.1979920">
        <ele>1240.6</ele>
        <time>2017-07-25T07:17:00Z</time>
      </trkpt>
      <trkpt lat="44.5843950" lon="7.1980400">
        <ele>1241.4</ele>
        <time>2017-07-25T07:17:03Z</time>
      </trkpt>
      <trkpt lat="44.5844400" lon="7.1980420">
        <ele>1241.6</ele>
        <time>2017-07-25T07:17:04Z</time>
      </trkpt>
      <trkpt lat="44.5844860" lon="7.1980410">
        <ele>1242.0</ele>
        <time>2017-07-25T07:17:05Z</time>
      </trkpt>
      <trkpt lat="44.5847150" lon="7.1979950">
        <ele>1243.0</ele>
        <time>2017-07-25T07:17:10Z</time>
      </trkpt>
      <trkpt lat="44.5847610" lon="7.1979810">
        <ele>1243.2</ele>
        <time>2017-07-25T07:17:11Z</time>
      </trkpt>
      <trkpt lat="44.5849060" lon="7.1979450">
        <ele>1244.2</ele>
        <time>2017-07-25T07:17:14Z</time>
      </trkpt>
      <trkpt lat="44.5850030" lon="7.1979370">
        <ele>1244.8</ele>
        <time>2017-07-25T07:17:16Z</time>
      </trkpt>
      <trkpt lat="44.5850960" lon="7.1979570">
        <ele>1245.4</ele>
        <time>2017-07-25T07:17:18Z</time>
      </trkpt>
      <trkpt lat="44.5851910" lon="7.1980010">
        <ele>1245.6</ele>
        <time>2017-07-25T07:17:20Z</time>
      </trkpt>
      <trkpt lat="44.5854310" lon="7.1981210">
        <ele>1246.6</ele>
        <time>2017-07-25T07:17:25Z</time>
      </trkpt>
      <trkpt lat="44.5854760" lon="7.1981450">
        <ele>1246.8</ele>
        <time>2017-07-25T07:17:26Z</time>
      </trkpt>
      <trkpt lat="44.5855970" lon="7.1982310">
        <ele>1247.4</ele>
        <time>2017-07-25T07:17:29Z</time>
      </trkpt>
      <trkpt lat="44.5856800" lon="7.1983010">
        <ele>1247.6</ele>
        <time>2017-07-25T07:17:31Z</time>
      </trkpt>
      <trkpt lat="44.5859080" lon="7.1983820">
        <ele>1247.8</ele>
        <time>2017-07-25T07:17:35Z</time>
      </trkpt>
      <trkpt lat="44.5863100" lon="7.1984330">
        <ele>1248.2</ele>
        <time>2017-07-25T07:17:41Z</time>
      </trkpt>
      <trkpt lat="44.5867840" lon="7.1984300">
        <ele>1248.2</ele>
        <time>2017-07-25T07:17:48Z</time>
      </trkpt>
      <trkpt lat="44.5868520" lon="7.1984060">
        <ele>1248.2</ele>
        <time>2017-07-25T07:17:49Z</time>
      </trkpt>
      <trkpt lat="44.5870380" lon="7.1982830">
        <ele>1248.0</ele>
        <time>2017-07-25T07:17:52Z</time>
      </trkpt>
      <trkpt lat="44.5871540" lon="7.1981620">
        <ele>1247.8</ele>
        <time>2017-07-25T07:17:54Z</time>
      </trkpt>
      <trkpt lat="44.5872670" lon="7.1980050">
        <ele>1247.6</ele>
        <time>2017-07-25T07:17:56Z</time>
      </trkpt>
      <trkpt lat="44.5875010" lon="7.1976370">
        <ele>1246.8</ele>
        <time>2017-07-25T07:18:00Z</time>
      </trkpt>
      <trkpt lat="44.5875670" lon="7.1975850">
        <ele>1246.6</ele>
        <time>2017-07-25T07:18:01Z</time>
      </trkpt>
      <trkpt lat="44.5877730" lon="7.1975700">
        <ele>1245.8</ele>
        <time>2017-07-25T07:18:04Z</time>
      </trkpt>
      <trkpt lat="44.5878890" lon="7.1976250">
        <ele>1245.4</ele>
        <time>2017-07-25T07:18:06Z</time>
      </trkpt>
      <trkpt lat="44.5879860" lon="7.1976740">
        <ele>1245.4</ele>
        <time>2017-07-25T07:18:08Z</time>
      </trkpt>
      <trkpt lat="44.5880800" lon="7.1977150">
        <ele>1245.6</ele>
        <time>2017-07-25T07:18:10Z</time>
      </trkpt>
      <trkpt lat="44.5882200" lon="7.1977830">
        <ele>1246.0</ele>
        <time>2017-07-25T07:18:13Z</time>
      </trkpt>
      <trkpt lat="44.5882690" lon="7.1978040">
        <ele>1246.0</ele>
        <time>2017-07-25T07:18:14Z</time>
      </trkpt>
      <trkpt lat="44.5884170" lon="7.1978690">
        <ele>1246.4</ele>
        <time>2017-07-25T07:18:17Z</time>
      </trkpt>
      <trkpt lat="44.5886000" lon="7.1979410">
        <ele>1247.4</ele>
        <time>2017-07-25T07:18:21Z</time>
      </trkpt>
      <trkpt lat="44.5886450" lon="7.1979530">
        <ele>1247.6</ele>
        <time>2017-07-25T07:18:22Z</time>
      </trkpt>
      <trkpt lat="44.5887360" lon="7.1979540">
        <ele>1248.0</ele>
        <time>2017-07-25T07:18:24Z</time>
      </trkpt>
      <trkpt lat="44.5888230" lon="7.1978940">
        <ele>1248.4</ele>
        <time>2017-07-25T07:18:26Z</time>
      </trkpt>
      <trkpt lat="44.5888790" lon="7.1977890">
        <ele>1248.8</ele>
        <time>2017-07-25T07:18:28Z</time>
      </trkpt>
      <trkpt lat="44.5889050" lon="7.1976660">
        <ele>1249.2</ele>
        <time>2017-07-25T07:18:30Z</time>
      </trkpt>
      <trkpt lat="44.5889240" lon="7.1974650">
        <ele>1249.8</ele>
        <time>2017-07-25T07:18:33Z</time>
      </trkpt>
      <trkpt lat="44.5889390" lon="7.1973670">
        <ele>1250.4</ele>
        <time>2017-07-25T07:18:35Z</time>
      </trkpt>
      <trkpt lat="44.5889540" lon="7.1972900">
        <ele>1250.8</ele>
        <time>2017-07-25T07:18:37Z</time>
      </trkpt>
      <trkpt lat="44.5889820" lon="7.1972010">
        <ele>1251.6</ele>
        <time>2017-07-25T07:18:40Z</time>
      </trkpt>
      <trkpt lat="44.5889990" lon="7.1971750">
        <ele>1251.8</ele>
        <time>2017-07-25T07:18:41Z</time>
      </trkpt>
      <trkpt lat="44.5890880" lon="7.1971210">
        <ele>1252.8</ele>
        <time>2017-07-25T07:18:45Z</time>
      </trkpt>
      <trkpt lat="44.5891380" lon="7.1971030">
        <ele>1253.0</ele>
        <time>2017-07-25T07:18:47Z</time>
      </trkpt>
      <trkpt lat="44.5892100" lon="7.1971110">
        <ele>1253.6</ele>
        <time>2017-07-25T07:18:50Z</time>
      </trkpt>
      <trkpt lat="44.5892270" lon="7.1971320">
        <ele>1253.6</ele>
        <time>2017-07-25T07:18:51Z</time>
      </trkpt>
      <trkpt lat="44.5892420" lon="7.1971570">
        <ele>1254.0</ele>
        <time>2017-07-25T07:18:52Z</time>
      </trkpt>
      <trkpt lat="44.5892660" lon="7.1972030">
        <ele>1254.8</ele>
        <time>2017-07-25T07:18:54Z</time>
      </trkpt>
      <trkpt lat="44.5892750" lon="7.1972260">
        <ele>1255.2</ele>
        <time>2017-07-25T07:18:55Z</time>
      </trkpt>
      <trkpt lat="44.5892520" lon="7.1972730">
        <ele>1255.8</ele>
        <time>2017-07-25T07:18:58Z</time>
      </trkpt>
      <trkpt lat="44.5892280" lon="7.1973010">
        <ele>1256.4</ele>
        <time>2017-07-25T07:19:00Z</time>
      </trkpt>
      <trkpt lat="44.5891670" lon="7.1973690">
        <ele>1257.6</ele>
        <time>2017-07-25T07:19:04Z</time>
      </trkpt>
      <trkpt lat="44.5891540" lon="7.1973890">
        <ele>1257.8</ele>
        <time>2017-07-25T07:19:05Z</time>
      </trkpt>
      <trkpt lat="44.5891460" lon="7.1974550">
        <ele>1258.4</ele>
        <time>2017-07-25T07:19:08Z</time>
      </trkpt>
      <trkpt lat="44.5891560" lon="7.1974770">
        <ele>1258.6</ele>
        <time>2017-07-25T07:19:09Z</time>
      </trkpt>
      <trkpt lat="44.5892100" lon="7.1975430">
        <ele>1259.6</ele>
        <time>2017-07-25T07:19:14Z</time>
      </trkpt>
      <trkpt lat="44.5892400" lon="7.1975800">
        <ele>1260.8</ele>
        <time>2017-07-25T07:19:18Z</time>
      </trkpt>
      <trkpt lat="44.5892470" lon="7.1975880">
        <ele>1260.8</ele>
        <time>2017-07-25T07:19:19Z</time>
      </trkpt>
      <trkpt lat="44.5893390" lon="7.1977090">
        <ele>1262.4</ele>
        <time>2017-07-25T07:19:31Z</time>
      </trkpt>
      <trkpt lat="44.5893640" lon="7.1977910">
        <ele>1262.8</ele>
        <time>2017-07-25T07:19:37Z</time>
      </trkpt>
      <trkpt lat="44.5893650" lon="7.1978040">
        <ele>1263.0</ele>
        <time>2017-07-25T07:19:38Z</time>
      </trkpt>
      <trkpt lat="44.5893680" lon="7.1978320">
        <ele>1263.6</ele>
        <time>2017-07-25T07:19:40Z</time>
      </trkpt>
      <trkpt lat="44.5893930" lon="7.1978570">
        <ele>1264.8</ele>
        <time>2017-07-25T07:19:44Z</time>
      </trkpt>
      <trkpt lat="44.5894620" lon="7.1978370">
        <ele>1267.8</ele>
        <time>2017-07-25T07:19:57Z</time>
      </trkpt>
      <trkpt lat="44.5895130" lon="7.1977860">
        <ele>1268.2</ele>
        <time>2017-07-25T07:20:00Z</time>
      </trkpt>
      <trkpt lat="44.5895520" lon="7.1977500">
        <ele>1268.4</ele>
        <time>2017-07-25T07:20:02Z</time>
      </trkpt>
      <trkpt lat="44.5895960" lon="7.1977300">
        <ele>1269.0</ele>
        <time>2017-07-25T07:20:04Z</time>
      </trkpt>
      <trkpt lat="44.5896370" lon="7.1977280">
        <ele>1269.4</ele>
        <time>2017-07-25T07:20:06Z</time>
      </trkpt>
      <trkpt lat="44.5896910" lon="7.1977290">
        <ele>1270.2</ele>
        <time>2017-07-25T07:20:09Z</time>
      </trkpt>
      <trkpt lat="44.5897690" lon="7.1977120">
        <ele>1271.4</ele>
        <time>2017-07-25T07:20:13Z</time>
      </trkpt>
      <trkpt lat="44.5898390" lon="7.1976890">
        <ele>1272.6</ele>
        <time>2017-07-25T07:20:17Z</time>
      </trkpt>
      <trkpt lat="44.5898870" lon="7.1977130">
        <ele>1273.8</ele>
        <time>2017-07-25T07:20:20Z</time>
      </trkpt>
      <trkpt lat="44.5899020" lon="7.1977360">
        <ele>1274.0</ele>
        <time>2017-07-25T07:20:21Z</time>
      </trkpt>
      <trkpt lat="44.5899310" lon="7.1978020">
        <ele>1275.0</ele>
        <time>2017-07-25T07:20:24Z</time>
      </trkpt>
      <trkpt lat="44.5899460" lon="7.1978460">
        <ele>1275.6</ele>
        <time>2017-07-25T07:20:26Z</time>
      </trkpt>
      <trkpt lat="44.5899630" lon="7.1978900">
        <ele>1276.6</ele>
        <time>2017-07-25T07:20:28Z</time>
      </trkpt>
      <trkpt lat="44.5899910" lon="7.1979540">
        <ele>1277.6</ele>
        <time>2017-07-25T07:20:31Z</time>
      </trkpt>
      <trkpt lat="44.5900100" lon="7.1980110">
        <ele>1278.6</ele>
        <time>2017-07-25T07:20:34Z</time>
      </trkpt>
      <trkpt lat="44.5900180" lon="7.1980280">
        <ele>1279.0</ele>
        <time>2017-07-25T07:20:35Z</time>
      </trkpt>
      <trkpt lat="44.5900550" lon="7.1980740">
        <ele>1280.4</ele>
        <time>2017-07-25T07:20:39Z</time>
      </trkpt>
      <trkpt lat="44.5900690" lon="7.1980780">
        <ele>1280.6</ele>
        <time>2017-07-25T07:20:40Z</time>
      </trkpt>
      <trkpt lat="44.5900950" lon="7.1980820">
        <ele>1281.4</ele>
        <time>2017-07-25T07:20:42Z</time>
      </trkpt>
      <trkpt lat="44.5915670" lon="7.1993490">
        <ele>1343.6</ele>
        <time>2017-07-25T07:25:01Z</time>
      </trkpt>
      <trkpt lat="44.5915650" lon="7.1993590">
        <ele>1343.8</ele>
        <time>2017-07-25T07:25:02Z</time>
      </trkpt>
      <trkpt lat="44.5915800" lon="7.1994730">
        <ele>1345.8</ele>
        <time>2017-07-25T07:25:12Z</time>
      </trkpt>
      <trkpt lat="44.5915540" lon="7.1995360">
        <ele>1346.4</ele>
        <time>2017-07-25T07:25:14Z</time>
      </trkpt>
      <trkpt lat="44.5914630" lon="7.1998260">
        <ele>1346.8</ele>
        <time>2017-07-25T07:25:20Z</time>
      </trkpt>
      <trkpt lat="44.5914320" lon="7.2001010">
        <ele>1347.4</ele>
        <time>2017-07-25T07:25:25Z</time>
      </trkpt>
      <trkpt lat="44.5914170" lon="7.2002850">
        <ele>1348.0</ele>
        <time>2017-07-25T07:25:29Z</time>
      </trkpt>
      <trkpt lat="44.5914010" lon="7.2004470">
        <ele>1348.8</ele>
        <time>2017-07-25T07:25:33Z</time>
      </trkpt>
      <trkpt lat="44.5913910" lon="7.2004840">
        <ele>1349.2</ele>
        <time>2017-07-25T07:25:34Z</time>
      </trkpt>
      <trkpt lat="44.5913550" lon="7.2006750">
        <ele>1350.2</ele>
        <time>2017-07-25T07:25:39Z</time>
      </trkpt>
      <trkpt lat="44.5913390" lon="7.2007550">
        <ele>1351.0</ele>
        <time>2017-07-25T07:25:41Z</time>
      </trkpt>
      <trkpt lat="44.5913270" lon="7.2007950">
        <ele>1351.4</ele>
        <time>2017-07-25T07:25:42Z</time>
      </trkpt>
      <trkpt lat="44.5912750" lon="7.2008980">
        <ele>1352.4</ele>
        <time>2017-07-25T07:25:45Z</time>
      </trkpt>
      <trkpt lat="44.5912570" lon="7.2009540">
        <ele>1353.2</ele>
        <time>2017-07-25T07:25:47Z</time>
      </trkpt>
      <trkpt lat="44.5912510" lon="7.2009800">
        <ele>1353.8</ele>
        <time>2017-07-25T07:25:48Z</time>
      </trkpt>
      <trkpt lat="44.5912500" lon="7.2010100">
        <ele>1354.2</ele>
        <time>2017-07-25T07:25:49Z</time>
      </trkpt>
      <trkpt lat="44.5912630" lon="7.2010390">
        <ele>1354.8</ele>
        <time>2017-07-25T07:25:50Z</time>
      </trkpt>
      <trkpt lat="44.5912820" lon="7.2010580">
        <ele>1355.2</ele>
        <time>2017-07-25T07:25:51Z</time>
      </trkpt>
      <trkpt lat="44.5913260" lon="7.2010600">
        <ele>1356.2</ele>
        <time>2017-07-25T07:25:53Z</time>
      </trkpt>
      <trkpt lat="44.5913530" lon="7.2010530">
        <ele>1356.8</ele>
        <time>2017-07-25T07:25:54Z</time>
      </trkpt>
      <trkpt lat="44.5913830" lon="7.2010430">
        <ele>1357.2</ele>
        <time>2017-07-25T07:25:55Z</time>
      </trkpt>
      <trkpt lat="44.5914120" lon="7.2010310">
        <ele>1357.6</ele>
        <time>2017-07-25T07:25:56Z</time>
      </trkpt>
      <trkpt lat="44.5914910" lon="7.2009720">
        <ele>1358.8</ele>
        <time>2017-07-25T07:25:59Z</time>
      </trkpt>
      <trkpt lat="44.5915330" lon="7.2009140">
        <ele>1359.6</ele>
        <time>2017-07-25T07:26:01Z</time>
      </trkpt>
      <trkpt lat="44.5915510" lon="7.2008830">
        <ele>1360.0</ele>
        <time>2017-07-25T07:26:02Z</time>
      </trkpt>
      <trkpt lat="44.5915840" lon="7.2008180">
        <ele>1361.4</ele>
        <time>2017-07-25T07:26:04Z</time>
      </trkpt>
      <trkpt lat="44.5916340" lon="7.2007230">
        <ele>1362.8</ele>
        <time>2017-07-25T07:26:07Z</time>
      </trkpt>
      <trkpt lat="44.5916500" lon="7.2006910">
        <ele>1363.0</ele>
        <time>2017-07-25T07:26:08Z</time>
      </trkpt>
      <trkpt lat="44.5917090" lon="7.2006030">
        <ele>1364.0</ele>
        <time>2017-07-25T07:26:11Z</time>
      </trkpt>
      <trkpt lat="44.5917680" lon="7.2005210">
        <ele>1364.8</ele>
        <time>2017-07-25T07:26:14Z</time>
      </trkpt>
      <trkpt lat="44.5917860" lon="7.2004910">
        <ele>1365.0</ele>
        <time>2017-07-25T07:26:15Z</time>
      </trkpt>
      <trkpt lat="44.5919010" lon="7.2003300">
        <ele>1366.0</ele>
        <time>2017-07-25T07:26:21Z</time>
      </trkpt>
      <trkpt lat="44.5919160" lon="7.2003000">
        <ele>1366.2</ele>
        <time>2017-07-25T07:26:22Z</time>
      </trkpt>
      <trkpt lat="44.5919670" lon="7.2001370">
        <ele>1367.6</ele>
        <time>2017-07-25T07:26:27Z</time>
      </trkpt>
      <trkpt lat="44.5919860" lon="7.2001170">
        <ele>1368.0</ele>
        <time>2017-07-25T07:26:28Z</time>
      </trkpt>
      <trkpt lat="44.5920250" lon="7.2001470">
        <ele>1368.0</ele>
        <time>2017-07-25T07:26:30Z</time>
      </trkpt>
      <trkpt lat="44.5920090" lon="7.2002860">
        <ele>1368.4</ele>
        <time>2017-07-25T07:26:33Z</time>
      </trkpt>
      <trkpt lat="44.5919810" lon="7.2003800">
        <ele>1368.6</ele>
        <time>2017-07-25T07:26:35Z</time>
      </trkpt>
      <trkpt lat="44.5919250" lon="7.2006400">
        <ele>1368.8</ele>
        <time>2017-07-25T07:26:40Z</time>
      </trkpt>
      <trkpt lat="44.5918460" lon="7.2009830">
        <ele>1369.8</ele>
        <time>2017-07-25T07:26:47Z</time>
      </trkpt>
      <trkpt lat="44.5917680" lon="7.2012030">
        <ele>1370.6</ele>
        <time>2017-07-25T07:26:52Z</time>
      </trkpt>
      <trkpt lat="44.5917430" lon="7.2012440">
        <ele>1370.8</ele>
        <time>2017-07-25T07:26:53Z</time>
      </trkpt>
      <trkpt lat="44.5916940" lon="7.2013400">
        <ele>1370.8</ele>
        <time>2017-07-25T07:26:55Z</time>
      </trkpt>
      <trkpt lat="44.5916260" lon="7.2014290">
        <ele>1370.8</ele>
        <time>2017-07-25T07:26:57Z</time>
      </trkpt>
      <trkpt lat="44.5914300" lon="7.2015610">
        <ele>1370.8</ele>
        <time>2017-07-25T07:27:01Z</time>
      </trkpt>
      <trkpt lat="44.5913740" lon="7.2015850">
        <ele>1371.2</ele>
        <time>2017-07-25T07:27:02Z</time>
      </trkpt>
      <trkpt lat="44.5912080" lon="7.2016280">
        <ele>1371.8</ele>
        <time>2017-07-25T07:27:05Z</time>
      </trkpt>
      <trkpt lat="44.5911050" lon="7.2016400">
        <ele>1372.6</ele>
        <time>2017-07-25T07:27:07Z</time>
      </trkpt>
      <trkpt lat="44.5910530" lon="7.2016480">
        <ele>1372.8</ele>
        <time>2017-07-25T07:27:08Z</time>
      </trkpt>
      <trkpt lat="44.5910040" lon="7.2016450">
        <ele>1373.2</ele>
        <time>2017-07-25T07:27:09Z</time>
      </trkpt>
      <trkpt lat="44.5909100" lon="7.2016670">
        <ele>1373.6</ele>
        <time>2017-07-25T07:27:11Z</time>
      </trkpt>
      <trkpt lat="44.5909110" lon="7.2017050">
        <ele>1373.8</ele>
        <time>2017-07-25T07:27:12Z</time>
      </trkpt>
      <trkpt lat="44.5909730" lon="7.2017190">
        <ele>1374.6</ele>
        <time>2017-07-25T07:27:14Z</time>
      </trkpt>
      <trkpt lat="44.5910120" lon="7.2017130">
        <ele>1375.0</ele>
        <time>2017-07-25T07:27:15Z</time>
      </trkpt>
      <trkpt lat="44.5911570" lon="7.2017020">
        <ele>1376.2</ele>
        <time>2017-07-25T07:27:18Z</time>
      </trkpt>
      <trkpt lat="44.5912630" lon="7.2017000">
        <ele>1376.8</ele>
        <time>2017-07-25T07:27:20Z</time>
      </trkpt>
      <trkpt lat="44.5913620" lon="7.2017010">
        <ele>1377.6</ele>
        <time>2017-07-25T07:27:22Z</time>
      </trkpt>
      <trkpt lat="44.5915060" lon="7.2016610">
        <ele>1378.6</ele>
        <time>2017-07-25T07:27:25Z</time>
      </trkpt>
      <trkpt lat="44.5917280" lon="7.2015700">
        <ele>1379.6</ele>
        <time>2017-07-25T07:27:30Z</time>
      </trkpt>
      <trkpt lat="44.5918080" lon="7.2015350">
        <ele>1380.2</ele>
        <time>2017-07-25T07:27:32Z</time>
      </trkpt>
      <trkpt lat="44.5918800" lon="7.2014870">
        <ele>1380.8</ele>
        <time>2017-07-25T07:27:34Z</time>
      </trkpt>
      <trkpt lat="44.5919950" lon="7.2014000">
        <ele>1382.0</ele>
        <time>2017-07-25T07:27:38Z</time>
      </trkpt>
      <trkpt lat="44.5920780" lon="7.2013380">
        <ele>1383.4</ele>
        <time>2017-07-25T07:27:41Z</time>
      </trkpt>
      <trkpt lat="44.5921660" lon="7.2012850">
        <ele>1384.6</ele>
        <time>2017-07-25T07:27:44Z</time>
      </trkpt>
      <trkpt lat="44.5922190" lon="7.2012460">
        <ele>1385.4</ele>
        <time>2017-07-25T07:27:46Z</time>
      </trkpt>
      <trkpt lat="44.5922430" lon="7.2012290">
        <ele>1385.8</ele>
        <time>2017-07-25T07:27:47Z</time>
      </trkpt>
      <trkpt lat="44.5923410" lon="7.2011450">
        <ele>1387.0</ele>
        <time>2017-07-25T07:27:51Z</time>
      </trkpt>
      <trkpt lat="44.5923870" lon="7.2011030">
        <ele>1387.6</ele>
        <time>2017-07-25T07:27:53Z</time>
      </trkpt>
      <trkpt lat="44.5925630" lon="7.2009360">
        <ele>1388.2</ele>
        <time>2017-07-25T07:28:00Z</time>
      </trkpt>
      <trkpt lat="44.5925900" lon="7.2009170">
        <ele>1388.2</ele>
        <time>2017-07-25T07:28:01Z</time>
      </trkpt>
      <trkpt lat="44.5927840" lon="7.2007300">
        <ele>1389.2</ele>
        <time>2017-07-25T07:28:09Z</time>
      </trkpt>
      <trkpt lat="44.5929040" lon="7.2006120">
        <ele>1390.4</ele>
        <time>2017-07-25T07:28:14Z</time>
      </trkpt>
      <trkpt lat="44.5929250" lon="7.2005780">
        <ele>1390.4</ele>
        <time>2017-07-25T07:28:15Z</time>
      </trkpt>
      <trkpt lat="44.5929820" lon="7.2004700">
        <ele>1391.4</ele>
        <time>2017-07-25T07:28:18Z</time>
      </trkpt>
      <trkpt lat="44.5930410" lon="7.2003680">
        <ele>1392.0</ele>
        <time>2017-07-25T07:28:21Z</time>
      </trkpt>
      <trkpt lat="44.5930870" lon="7.2003130">
        <ele>1392.6</ele>
        <time>2017-07-25T07:28:23Z</time>
      </trkpt>
      <trkpt lat="44.5931770" lon="7.2001940">
        <ele>1393.6</ele>
        <time>2017-07-25T07:28:27Z</time>
      </trkpt>
      <trkpt lat="44.5932210" lon="7.2001350">
        <ele>1394.2</ele>
        <time>2017-07-25T07:28:29Z</time>
      </trkpt>
      <trkpt lat="44.5932670" lon="7.2000800">
        <ele>1394.6</ele>
        <time>2017-07-25T07:28:31Z</time>
      </trkpt>
      <trkpt lat="44.5933550" lon="7.1999690">
        <ele>1395.4</ele>
        <time>2017-07-25T07:28:35Z</time>
      </trkpt>
      <trkpt lat="44.5933970" lon="7.1999120">
        <ele>1395.8</ele>
        <time>2017-07-25T07:28:37Z</time>
      </trkpt>
      <trkpt lat="44.5934780" lon="7.1998110">
        <ele>1396.8</ele>
        <time>2017-07-25T07:28:41Z</time>
      </trkpt>
      <trkpt lat="44.5935010" lon="7.1997870">
        <ele>1396.8</ele>
        <time>2017-07-25T07:28:42Z</time>
      </trkpt>
      <trkpt lat="44.5935810" lon="7.1996660">
        <ele>1398.0</ele>
        <time>2017-07-25T07:28:46Z</time>
      </trkpt>
      <trkpt lat="44.5936060" lon="7.1996460">
        <ele>1398.4</ele>
        <time>2017-07-25T07:28:47Z</time>
      </trkpt>
      <trkpt lat="44.5937070" lon="7.1995690">
        <ele>1399.2</ele>
        <time>2017-07-25T07:28:51Z</time>
      </trkpt>
      <trkpt lat="44.5937860" lon="7.1995090">
        <ele>1400.4</ele>
        <time>2017-07-25T07:28:54Z</time>
      </trkpt>
      <trkpt lat="44.5938060" lon="7.1994870">
        <ele>1400.6</ele>
        <time>2017-07-25T07:28:55Z</time>
      </trkpt>
      <trkpt lat="44.5939080" lon="7.1994150">
        <ele>1401.4</ele>
        <time>2017-07-25T07:28:59Z</time>
      </trkpt>
      <trkpt lat="44.5939600" lon="7.1993740">
        <ele>1402.0</ele>
        <time>2017-07-25T07:29:01Z</time>
      </trkpt>
      <trkpt lat="44.5940080" lon="7.1993330">
        <ele>1402.6</ele>
        <time>2017-07-25T07:29:03Z</time>
      </trkpt>
      <trkpt lat="44.5940800" lon="7.1992800">
        <ele>1404.0</ele>
        <time>2017-07-25T07:29:06Z</time>
      </trkpt>
      <trkpt lat="44.5941390" lon="7.1992530">
        <ele>1404.8</ele>
        <time>2017-07-25T07:29:08Z</time>
      </trkpt>
      <trkpt lat="44.5941650" lon="7.1992390">
        <ele>1405.2</ele>
        <time>2017-07-25T07:29:09Z</time>
      </trkpt>
      <trkpt lat="44.5942400" lon="7.1991750">
        <ele>1406.6</ele>
        <time>2017-07-25T07:29:12Z</time>
      </trkpt>
      <trkpt lat="44.5942890" lon="7.1991310">
        <ele>1407.4</ele>
        <time>2017-07-25T07:29:14Z</time>
      </trkpt>
      <trkpt lat="44.5943140" lon="7.1991100">
        <ele>1407.8</ele>
        <time>2017-07-25T07:29:15Z</time>
      </trkpt>
      <trkpt lat="44.5943740" lon="7.1990730">
        <ele>1409.0</ele>
        <time>2017-07-25T07:29:17Z</time>
      </trkpt>
      <trkpt lat="44.5944810" lon="7.1989740">
        <ele>1410.2</ele>
        <time>2017-07-25T07:29:21Z</time>
      </trkpt>
      <trkpt lat="44.5945080" lon="7.1989490">
        <ele>1410.2</ele>
        <time>2017-07-25T07:29:22Z</time>
      </trkpt>
      <trkpt lat="44.5946320" lon="7.1988300">
        <ele>1411.2</ele>
        <time>2017-07-25T07:29:27Z</time>
      </trkpt>
      <trkpt lat="44.5947050" lon="7.1987550">
        <ele>1411.4</ele>
        <time>2017-07-25T07:29:30Z</time>
      </trkpt>
      <trkpt lat="44.5948080" lon="7.1986200">
        <ele>1412.4</ele>
        <time>2017-07-25T07:29:35Z</time>
      </trkpt>
      <trkpt lat="44.5948520" lon="7.1985690">
        <ele>1412.8</ele>
        <time>2017-07-25T07:29:37Z</time>
      </trkpt>
      <trkpt lat="44.5949170" lon="7.1984940">
        <ele>1413.6</ele>
        <time>2017-07-25T07:29:40Z</time>
      </trkpt>
      <trkpt lat="44.5949960" lon="7.1983840">
        <ele>1414.6</ele>
        <time>2017-07-25T07:29:44Z</time>
      </trkpt>
      <trkpt lat="44.5950150" lon="7.1983550">
        <ele>1415.0</ele>
        <time>2017-07-25T07:29:45Z</time>
      </trkpt>
      <trkpt lat="44.5950670" lon="7.1982600">
        <ele>1416.0</ele>
        <time>2017-07-25T07:29:48Z</time>
      </trkpt>
      <trkpt lat="44.5951140" lon="7.1981610">
        <ele>1417.0</ele>
        <time>2017-07-25T07:29:51Z</time>
      </trkpt>
      <trkpt lat="44.5951960" lon="7.1980730">
        <ele>1418.0</ele>
        <time>2017-07-25T07:29:55Z</time>
      </trkpt>
      <trkpt lat="44.5952210" lon="7.1980880">
        <ele>1418.2</ele>
        <time>2017-07-25T07:29:56Z</time>
      </trkpt>
      <trkpt lat="44.5952280" lon="7.1982070">
        <ele>1418.4</ele>
        <time>2017-07-25T07:29:59Z</time>
      </trkpt>
      <trkpt lat="44.5951910" lon="7.1983530">
        <ele>1419.0</ele>
        <time>2017-07-25T07:30:02Z</time>
      </trkpt>
      <trkpt lat="44.5951760" lon="7.1984030">
        <ele>1419.0</ele>
        <time>2017-07-25T07:30:03Z</time>
      </trkpt>
      <trkpt lat="44.5951450" lon="7.1985090">
        <ele>1419.6</ele>
        <time>2017-07-25T07:30:05Z</time>
      </trkpt>
      <trkpt lat="44.5950950" lon="7.1986610">
        <ele>1420.2</ele>
        <time>2017-07-25T07:30:08Z</time>
      </trkpt>
      <trkpt lat="44.5950180" lon="7.1988890">
        <ele>1421.2</ele>
        <time>2017-07-25T07:30:13Z</time>
      </trkpt>
      <trkpt lat="44.5949250" lon="7.1990790">
        <ele>1422.4</ele>
        <time>2017-07-25T07:30:18Z</time>
      </trkpt>
      <trkpt lat="44.5948870" lon="7.1991510">
        <ele>1423.0</ele>
        <time>2017-07-25T07:30:20Z</time>
      </trkpt>
      <trkpt lat="44.5948450" lon="7.1992170">
        <ele>1423.4</ele>
        <time>2017-07-25T07:30:22Z</time>
      </trkpt>
      <trkpt lat="44.5947600" lon="7.1993900">
        <ele>1424.4</ele>
        <time>2017-07-25T07:30:27Z</time>
      </trkpt>
      <trkpt lat="44.5946930" lon="7.1995360">
        <ele>1425.8</ele>
        <time>2017-07-25T07:30:31Z</time>
      </trkpt>
      <trkpt lat="44.5946700" lon="7.1996070">
        <ele>1426.6</ele>
        <time>2017-07-25T07:30:33Z</time>
      </trkpt>
      <trkpt lat="44.5946570" lon="7.1996440">
        <ele>1427.0</ele>
        <time>2017-07-25T07:30:34Z</time>
      </trkpt>
      <trkpt lat="44.5945740" lon="7.1998540">
        <ele>1429.4</ele>
        <time>2017-07-25T07:30:40Z</time>
      </trkpt>
      <trkpt lat="44.5945600" lon="7.1998870">
        <ele>1430.0</ele>
        <time>2017-07-25T07:30:41Z</time>
      </trkpt>
      <trkpt lat="44.5945310" lon="7.1999610">
        <ele>1430.6</ele>
        <time>2017-07-25T07:30:43Z</time>
      </trkpt>
      <trkpt lat="44.5944670" lon="7.2001640">
        <ele>1431.8</ele>
        <time>2017-07-25T07:30:48Z</time>
      </trkpt>
      <trkpt lat="44.5944300" lon="7.2003930">
        <ele>1433.0</ele>
        <time>2017-07-25T07:30:53Z</time>
      </trkpt>
      <trkpt lat="44.5944060" lon="7.2005260">
        <ele>1433.8</ele>
        <time>2017-07-25T07:30:56Z</time>
      </trkpt>
      <trkpt lat="44.5944020" lon="7.2005690">
        <ele>1434.0</ele>
        <time>2017-07-25T07:30:57Z</time>
      </trkpt>
      <trkpt lat="44.5943600" lon="7.2007340">
        <ele>1435.4</ele>
        <time>2017-07-25T07:31:01Z</time>
      </trkpt>
      <trkpt lat="44.5943280" lon="7.2008510">
        <ele>1436.6</ele>
        <time>2017-07-25T07:31:04Z</time>
      </trkpt>
      <trkpt lat="44.5943080" lon="7.2009250">
        <ele>1437.4</ele>
        <time>2017-07-25T07:31:06Z</time>
      </trkpt>
      <trkpt lat="44.5942970" lon="7.2009630">
        <ele>1438.0</ele>
        <time>2017-07-25T07:31:07Z</time>
      </trkpt>
      <trkpt lat="44.5942650" lon="7.2010700">
        <ele>1439.2</ele>
        <time>2017-07-25T07:31:10Z</time>
      </trkpt>
      <trkpt lat="44.5942330" lon="7.2011760">
        <ele>1440.2</ele>
        <time>2017-07-25T07:31:13Z</time>
      </trkpt>
      <trkpt lat="44.5941880" lon="7.2013420">
        <ele>1441.4</ele>
        <time>2017-07-25T07:31:17Z</time>
      </trkpt>
      <trkpt lat="44.5941410" lon="7.2014610">
        <ele>1442.0</ele>
        <time>2017-07-25T07:31:20Z</time>
      </trkpt>
      <trkpt lat="44.5941270" lon="7.2014990">
        <ele>1442.4</ele>
        <time>2017-07-25T07:31:21Z</time>
      </trkpt>
      <trkpt lat="44.5940640" lon="7.2016280">
        <ele>1443.6</ele>
        <time>2017-07-25T07:31:25Z</time>
      </trkpt>
      <trkpt lat="44.5940520" lon="7.2016600">
        <ele>1444.0</ele>
        <time>2017-07-25T07:31:26Z</time>
      </trkpt>
      <trkpt lat="44.5940340" lon="7.2017250">
        <ele>1444.8</ele>
        <time>2017-07-25T07:31:28Z</time>
      </trkpt>
      <trkpt lat="44.5939870" lon="7.2017990">
        <ele>1446.0</ele>
        <time>2017-07-25T07:31:31Z</time>
      </trkpt>
      <trkpt lat="44.5939410" lon="7.2018760">
        <ele>1447.2</ele>
        <time>2017-07-25T07:31:34Z</time>
      </trkpt>
      <trkpt lat="44.5938630" lon="7.2020100">
        <ele>1448.2</ele>
        <time>2017-07-25T07:31:39Z</time>
      </trkpt>
      <trkpt lat="44.5938520" lon="7.2020420">
        <ele>1448.6</ele>
        <time>2017-07-25T07:31:40Z</time>
      </trkpt>
      <trkpt lat="44.5937650" lon="7.2021620">
        <ele>1449.8</ele>
        <time>2017-07-25T07:31:45Z</time>
      </trkpt>
      <trkpt lat="44.5937100" lon="7.2022490">
        <ele>1451.0</ele>
        <time>2017-07-25T07:31:48Z</time>
      </trkpt>
      <trkpt lat="44.5936660" lon="7.2023340">
        <ele>1452.0</ele>
        <time>2017-07-25T07:31:51Z</time>
      </trkpt>
      <trkpt lat="44.5936400" lon="7.2023930">
        <ele>1453.0</ele>
        <time>2017-07-25T07:31:53Z</time>
      </trkpt>
      <trkpt lat="44.5936250" lon="7.2024230">
        <ele>1453.2</ele>
        <time>2017-07-25T07:31:54Z</time>
      </trkpt>
      <trkpt lat="44.5935790" lon="7.2025150">
        <ele>1454.4</ele>
        <time>2017-07-25T07:31:57Z</time>
      </trkpt>
      <trkpt lat="44.5935400" lon="7.2026110">
        <ele>1455.4</ele>
        <time>2017-07-25T07:32:00Z</time>
      </trkpt>
      <trkpt lat="44.5935040" lon="7.2027010">
        <ele>1456.6</ele>
        <time>2017-07-25T07:32:03Z</time>
      </trkpt>
      <trkpt lat="44.5934620" lon="7.2027940">
        <ele>1457.6</ele>
        <time>2017-07-25T07:32:06Z</time>
      </trkpt>
      <trkpt lat="44.5934340" lon="7.2028550">
        <ele>1458.2</ele>
        <time>2017-07-25T07:32:08Z</time>
      </trkpt>
      <trkpt lat="44.5934020" lon="7.2029110">
        <ele>1458.8</ele>
        <time>2017-07-25T07:32:10Z</time>
      </trkpt>
      <trkpt lat="44.5933220" lon="7.2030450">
        <ele>1459.6</ele>
        <time>2017-07-25T07:32:16Z</time>
      </trkpt>
      <trkpt lat="44.5932770" lon="7.2031950">
        <ele>1459.8</ele>
        <time>2017-07-25T07:32:21Z</time>
      </trkpt>
      <trkpt lat="44.5932870" lon="7.2032620">
        <ele>1460.0</ele>
        <time>2017-07-25T07:32:23Z</time>
      </trkpt>
      <trkpt lat="44.5933620" lon="7.2032800">
        <ele>1460.4</ele>
        <time>2017-07-25T07:32:26Z</time>
      </trkpt>
      <trkpt lat="44.5933900" lon="7.2032720">
        <ele>1460.6</ele>
        <time>2017-07-25T07:32:27Z</time>
      </trkpt>
      <trkpt lat="44.5934150" lon="7.2032570">
        <ele>1460.8</ele>
        <time>2017-07-25T07:32:28Z</time>
      </trkpt>
      <trkpt lat="44.5934710" lon="7.2032170">
        <ele>1462.0</ele>
        <time>2017-07-25T07:32:31Z</time>
      </trkpt>
      <trkpt lat="44.5934890" lon="7.2031990">
        <ele>1462.2</ele>
        <time>2017-07-25T07:32:32Z</time>
      </trkpt>
      <trkpt lat="44.5935370" lon="7.2031710">
        <ele>1463.0</ele>
        <time>2017-07-25T07:32:34Z</time>
      </trkpt>
      <trkpt lat="44.5936150" lon="7.2031230">
        <ele>1464.0</ele>
        <time>2017-07-25T07:32:37Z</time>
      </trkpt>
      <trkpt lat="44.5936400" lon="7.2031120">
        <ele>1464.4</ele>
        <time>2017-07-25T07:32:38Z</time>
      </trkpt>
      <trkpt lat="44.5937580" lon="7.2030920">
        <ele>1465.2</ele>
        <time>2017-07-25T07:32:42Z</time>
      </trkpt>
      <trkpt lat="44.5938300" lon="7.2030680">
        <ele>1465.8</ele>
        <time>2017-07-25T07:32:45Z</time>
      </trkpt>
      <trkpt lat="44.5938950" lon="7.2030460">
        <ele>1466.2</ele>
        <time>2017-07-25T07:32:48Z</time>
      </trkpt>
      <trkpt lat="44.5939790" lon="7.2029850">
        <ele>1466.8</ele>
        <time>2017-07-25T07:32:52Z</time>
      </trkpt>
      <trkpt lat="44.5940210" lon="7.2029540">
        <ele>1467.2</ele>
        <time>2017-07-25T07:32:54Z</time>
      </trkpt>
      <trkpt lat="44.5941360" lon="7.2028560">
        <ele>1468.2</ele>
        <time>2017-07-25T07:33:00Z</time>
      </trkpt>
      <trkpt lat="44.5941550" lon="7.2028410">
        <ele>1468.4</ele>
        <time>2017-07-25T07:33:01Z</time>
      </trkpt>
      <trkpt lat="44.5942440" lon="7.2027600">
        <ele>1469.4</ele>
        <time>2017-07-25T07:33:06Z</time>
      </trkpt>
      <trkpt lat="44.5943050" lon="7.2027360">
        <ele>1470.0</ele>
        <time>2017-07-25T07:33:09Z</time>
      </trkpt>
      <trkpt lat="44.5943420" lon="7.2027150">
        <ele>1470.4</ele>
        <time>2017-07-25T07:33:11Z</time>
      </trkpt>
      <trkpt lat="44.5944420" lon="7.2026350">
        <ele>1471.6</ele>
        <time>2017-07-25T07:33:16Z</time>
      </trkpt>
      <trkpt lat="44.5944580" lon="7.2026150">
        <ele>1472.2</ele>
        <time>2017-07-25T07:33:17Z</time>
      </trkpt>
      <trkpt lat="44.5944920" lon="7.2025790">
        <ele>1472.6</ele>
        <time>2017-07-25T07:33:19Z</time>
      </trkpt>
      <trkpt lat="44.5945570" lon="7.2025240">
        <ele>1473.8</ele>
        <time>2017-07-25T07:33:23Z</time>
      </trkpt>
      <trkpt lat="44.5945740" lon="7.2025150">
        <ele>1474.4</ele>
        <time>2017-07-25T07:33:24Z</time>
      </trkpt>
      <trkpt lat="44.5945900" lon="7.2025020">
        <ele>1475.0</ele>
        <time>2017-07-25T07:33:25Z</time>
      </trkpt>
      <trkpt lat="44.5946390" lon="7.2024390">
        <ele>1476.0</ele>
        <time>2017-07-25T07:33:28Z</time>
      </trkpt>
      <trkpt lat="44.5946730" lon="7.2024030">
        <ele>1476.6</ele>
        <time>2017-07-25T07:33:30Z</time>
      </trkpt>
      <trkpt lat="44.5946910" lon="7.2023850">
        <ele>1477.0</ele>
        <time>2017-07-25T07:33:31Z</time>
      </trkpt>
      <trkpt lat="44.5947300" lon="7.2023500">
        <ele>1478.2</ele>
        <time>2017-07-25T07:33:33Z</time>
      </trkpt>
      <trkpt lat="44.5948090" lon="7.2022800">
        <ele>1479.2</ele>
        <time>2017-07-25T07:33:37Z</time>
      </trkpt>
      <trkpt lat="44.5948510" lon="7.2022400">
        <ele>1480.2</ele>
        <time>2017-07-25T07:33:39Z</time>
      </trkpt>
      <trkpt lat="44.5948700" lon="7.2022160">
        <ele>1480.6</ele>
        <time>2017-07-25T07:33:40Z</time>
      </trkpt>
      <trkpt lat="44.5949280" lon="7.2021390">
        <ele>1481.8</ele>
        <time>2017-07-25T07:33:43Z</time>
      </trkpt>
      <trkpt lat="44.5949760" lon="7.2020640">
        <ele>1483.0</ele>
        <time>2017-07-25T07:33:46Z</time>
      </trkpt>
      <trkpt lat="44.5949950" lon="7.2020460">
        <ele>1483.4</ele>
        <time>2017-07-25T07:33:47Z</time>
      </trkpt>
      <trkpt lat="44.5950340" lon="7.2019990">
        <ele>1484.2</ele>
        <time>2017-07-25T07:33:49Z</time>
      </trkpt>
      <trkpt lat="44.5950920" lon="7.2019330">
        <ele>1485.4</ele>
        <time>2017-07-25T07:33:52Z</time>
      </trkpt>
      <trkpt lat="44.5951280" lon="7.2018860">
        <ele>1486.2</ele>
        <time>2017-07-25T07:33:54Z</time>
      </trkpt>
      <trkpt lat="44.5951480" lon="7.2018650">
        <ele>1486.6</ele>
        <time>2017-07-25T07:33:55Z</time>
      </trkpt>
      <trkpt lat="44.5952090" lon="7.2018000">
        <ele>1487.8</ele>
        <time>2017-07-25T07:33:58Z</time>
      </trkpt>
      <trkpt lat="44.5952750" lon="7.2017370">
        <ele>1489.0</ele>
        <time>2017-07-25T07:34:01Z</time>
      </trkpt>
      <trkpt lat="44.5953430" lon="7.2016990">
        <ele>1490.2</ele>
        <time>2017-07-25T07:34:04Z</time>
      </trkpt>
      <trkpt lat="44.5953850" lon="7.2016640">
        <ele>1491.4</ele>
        <time>2017-07-25T07:34:06Z</time>
      </trkpt>
      <trkpt lat="44.5954510" lon="7.2016150">
        <ele>1492.0</ele>
        <time>2017-07-25T07:34:09Z</time>
      </trkpt>
      <trkpt lat="44.5954950" lon="7.2015800">
        <ele>1492.6</ele>
        <time>2017-07-25T07:34:11Z</time>
      </trkpt>
      <trkpt lat="44.5956030" lon="7.2014720">
        <ele>1493.8</ele>
        <time>2017-07-25T07:34:16Z</time>
      </trkpt>
      <trkpt lat="44.5956790" lon="7.2013830">
        <ele>1495.0</ele>
        <time>2017-07-25T07:34:20Z</time>
      </trkpt>
      <trkpt lat="44.5957420" lon="7.2012760">
        <ele>1496.0</ele>
        <time>2017-07-25T07:34:24Z</time>
      </trkpt>
      <trkpt lat="44.5957820" lon="7.2011960">
        <ele>1497.0</ele>
        <time>2017-07-25T07:34:27Z</time>
      </trkpt>
      <trkpt lat="44.5957930" lon="7.2011740">
        <ele>1497.4</ele>
        <time>2017-07-25T07:34:28Z</time>
      </trkpt>
      <trkpt lat="44.5958290" lon="7.2011510">
        <ele>1498.0</ele>
        <time>2017-07-25T07:34:30Z</time>
      </trkpt>
      <trkpt lat="44.5958490" lon="7.2011650">
        <ele>1498.0</ele>
        <time>2017-07-25T07:34:31Z</time>
      </trkpt>
      <trkpt lat="44.5958620" lon="7.2012440">
        <ele>1498.6</ele>
        <time>2017-07-25T07:34:34Z</time>
      </trkpt>
      <trkpt lat="44.5958610" lon="7.2012720">
        <ele>1499.0</ele>
        <time>2017-07-25T07:34:35Z</time>
      </trkpt>
      <trkpt lat="44.5958370" lon="7.2013570">
        <ele>1499.8</ele>
        <time>2017-07-25T07:34:38Z</time>
      </trkpt>
      <trkpt lat="44.5958160" lon="7.2014270">
        <ele>1500.4</ele>
        <time>2017-07-25T07:34:40Z</time>
      </trkpt>
      <trkpt lat="44.5957930" lon="7.2015250">
        <ele>1501.0</ele>
        <time>2017-07-25T07:34:43Z</time>
      </trkpt>
      <trkpt lat="44.5957420" lon="7.2016430">
        <ele>1501.4</ele>
        <time>2017-07-25T07:34:47Z</time>
      </trkpt>
      <trkpt lat="44.5957190" lon="7.2016980">
        <ele>1502.0</ele>
        <time>2017-07-25T07:34:49Z</time>
      </trkpt>
      <trkpt lat="44.5957190" lon="7.2017890">
        <ele>1502.6</ele>
        <time>2017-07-25T07:34:52Z</time>
      </trkpt>
      <trkpt lat="44.5957380" lon="7.2018040">
        <ele>1503.0</ele>
        <time>2017-07-25T07:34:53Z</time>
      </trkpt>
      <trkpt lat="44.5957610" lon="7.2017990">
        <ele>1503.6</ele>
        <time>2017-07-25T07:34:54Z</time>
      </trkpt>
      <trkpt lat="44.5958180" lon="7.2017420">
        <ele>1504.4</ele>
        <time>2017-07-25T07:34:57Z</time>
      </trkpt>
      <trkpt lat="44.5958360" lon="7.2017170">
        <ele>1504.8</ele>
        <time>2017-07-25T07:34:58Z</time>
      </trkpt>
      <trkpt lat="44.5958680" lon="7.2016680">
        <ele>1505.4</ele>
        <time>2017-07-25T07:35:00Z</time>
      </trkpt>
      <trkpt lat="44.5958880" lon="7.2016480">
        <ele>1505.8</ele>
        <time>2017-07-25T07:35:01Z</time>
      </trkpt>
      <trkpt lat="44.5959230" lon="7.2016040">
        <ele>1506.6</ele>
        <time>2017-07-25T07:35:03Z</time>
      </trkpt>
      <trkpt lat="44.5959420" lon="7.2015820">
        <ele>1507.0</ele>
        <time>2017-07-25T07:35:04Z</time>
      </trkpt>
      <trkpt lat="44.5959990" lon="7.2015040">
        <ele>1508.2</ele>
        <time>2017-07-25T07:35:07Z</time>
      </trkpt>
      <trkpt lat="44.5960510" lon="7.2014110">
        <ele>1509.2</ele>
        <time>2017-07-25T07:35:10Z</time>
      </trkpt>
      <trkpt lat="44.5961150" lon="7.2012990">
        <ele>1510.6</ele>
        <time>2017-07-25T07:35:14Z</time>
      </trkpt>
      <trkpt lat="44.5961610" lon="7.2012140">
        <ele>1511.6</ele>
        <time>2017-07-25T07:35:17Z</time>
      </trkpt>
      <trkpt lat="44.5962070" lon="7.2011040">
        <ele>1512.8</ele>
        <time>2017-07-25T07:35:20Z</time>
      </trkpt>
      <trkpt lat="44.5962580" lon="7.2009950">
        <ele>1513.6</ele>
        <time>2017-07-25T07:35:23Z</time>
      </trkpt>
      <trkpt lat="44.5962730" lon="7.2009580">
        <ele>1514.0</ele>
        <time>2017-07-25T07:35:24Z</time>
      </trkpt>
      <trkpt lat="44.5964020" lon="7.2007520">
        <ele>1515.2</ele>
        <time>2017-07-25T07:35:30Z</time>
      </trkpt>
      <trkpt lat="44.5965880" lon="7.2006000">
        <ele>1516.4</ele>
        <time>2017-07-25T07:35:36Z</time>
      </trkpt>
      <trkpt lat="44.5966240" lon="7.2005690">
        <ele>1516.6</ele>
        <time>2017-07-25T07:35:37Z</time>
      </trkpt>
      <trkpt lat="44.5968290" lon="7.2004530">
        <ele>1517.4</ele>
        <time>2017-07-25T07:35:42Z</time>
      </trkpt>
      <trkpt lat="44.5970410" lon="7.2003780">
        <ele>1518.6</ele>
        <time>2017-07-25T07:35:47Z</time>
      </trkpt>
      <trkpt lat="44.5971240" lon="7.2003760">
        <ele>1519.2</ele>
        <time>2017-07-25T07:35:49Z</time>
      </trkpt>
      <trkpt lat="44.5972260" lon="7.2003980">
        <ele>1519.6</ele>
        <time>2017-07-25T07:35:52Z</time>
      </trkpt>
      <trkpt lat="44.5973030" lon="7.2004020">
        <ele>1520.2</ele>
        <time>2017-07-25T07:35:54Z</time>
      </trkpt>
      <trkpt lat="44.5973740" lon="7.2003880">
        <ele>1520.6</ele>
        <time>2017-07-25T07:35:56Z</time>
      </trkpt>
      <trkpt lat="44.5974560" lon="7.2003490">
        <ele>1521.4</ele>
        <time>2017-07-25T07:35:59Z</time>
      </trkpt>
      <trkpt lat="44.5974850" lon="7.2003340">
        <ele>1521.8</ele>
        <time>2017-07-25T07:36:00Z</time>
      </trkpt>
      <trkpt lat="44.5975930" lon="7.2002970">
        <ele>1522.8</ele>
        <time>2017-07-25T07:36:04Z</time>
      </trkpt>
      <trkpt lat="44.5976210" lon="7.2002900">
        <ele>1523.0</ele>
        <time>2017-07-25T07:36:05Z</time>
      </trkpt>
      <trkpt lat="44.5978050" lon="7.2002870">
        <ele>1523.0</ele>
        <time>2017-07-25T07:36:12Z</time>
      </trkpt>
      <trkpt lat="44.5979090" lon="7.2003930">
        <ele>1522.8</ele>
        <time>2017-07-25T07:36:17Z</time>
      </trkpt>
      <trkpt lat="44.5978710" lon="7.2005430">
        <ele>1523.2</ele>
        <time>2017-07-25T07:36:21Z</time>
      </trkpt>
      <trkpt lat="44.5978240" lon="7.2006050">
        <ele>1523.8</ele>
        <time>2017-07-25T07:36:23Z</time>
      </trkpt>
      <trkpt lat="44.5978040" lon="7.2006340">
        <ele>1524.2</ele>
        <time>2017-07-25T07:36:24Z</time>
      </trkpt>
      <trkpt lat="44.5977460" lon="7.2006990">
        <ele>1525.4</ele>
        <time>2017-07-25T07:36:27Z</time>
      </trkpt>
      <trkpt lat="44.5977280" lon="7.2007200">
        <ele>1525.8</ele>
        <time>2017-07-25T07:36:28Z</time>
      </trkpt>
      <trkpt lat="44.5976900" lon="7.2007620">
        <ele>1527.2</ele>
        <time>2017-07-25T07:36:30Z</time>
      </trkpt>
      <trkpt lat="44.5976410" lon="7.2008390">
        <ele>1528.6</ele>
        <time>2017-07-25T07:36:33Z</time>
      </trkpt>
      <trkpt lat="44.5976020" lon="7.2008840">
        <ele>1529.4</ele>
        <time>2017-07-25T07:36:35Z</time>
      </trkpt>
      <trkpt lat="44.5975870" lon="7.2009130">
        <ele>1529.8</ele>
        <time>2017-07-25T07:36:36Z</time>
      </trkpt>
      <trkpt lat="44.5975530" lon="7.2010060">
        <ele>1530.8</ele>
        <time>2017-07-25T07:36:39Z</time>
      </trkpt>
      <trkpt lat="44.5975270" lon="7.2010770">
        <ele>1531.6</ele>
        <time>2017-07-25T07:36:41Z</time>
      </trkpt>
      <trkpt lat="44.5975130" lon="7.2011130">
        <ele>1532.0</ele>
        <time>2017-07-25T07:36:42Z</time>
      </trkpt>
      <trkpt lat="44.5974750" lon="7.2012340">
        <ele>1533.2</ele>
        <time>2017-07-25T07:36:45Z</time>
      </trkpt>
      <trkpt lat="44.5974430" lon="7.2013480">
        <ele>1534.0</ele>
        <time>2017-07-25T07:36:48Z</time>
      </trkpt>
      <trkpt lat="44.5974360" lon="7.2013880">
        <ele>1534.2</ele>
        <time>2017-07-25T07:36:49Z</time>
      </trkpt>
      <trkpt lat="44.5973770" lon="7.2015320">
        <ele>1535.4</ele>
        <time>2017-07-25T07:36:53Z</time>
      </trkpt>
      <trkpt lat="44.5973320" lon="7.2015900">
        <ele>1536.6</ele>
        <time>2017-07-25T07:36:55Z</time>
      </trkpt>
      <trkpt lat="44.5972480" lon="7.2016930">
        <ele>1537.6</ele>
        <time>2017-07-25T07:36:59Z</time>
      </trkpt>
      <trkpt lat="44.5972020" lon="7.2017510">
        <ele>1538.2</ele>
        <time>2017-07-25T07:37:01Z</time>
      </trkpt>
      <trkpt lat="44.5971790" lon="7.2017790">
        <ele>1538.6</ele>
        <time>2017-07-25T07:37:02Z</time>
      </trkpt>
      <trkpt lat="44.5970870" lon="7.2019170">
        <ele>1540.0</ele>
        <time>2017-07-25T07:37:06Z</time>
      </trkpt>
      <trkpt lat="44.5970640" lon="7.2019900">
        <ele>1540.6</ele>
        <time>2017-07-25T07:37:08Z</time>
      </trkpt>
      <trkpt lat="44.5970430" lon="7.2021420">
        <ele>1541.0</ele>
        <time>2017-07-25T07:37:12Z</time>
      </trkpt>
      <trkpt lat="44.5970170" lon="7.2022820">
        <ele>1541.6</ele>
        <time>2017-07-25T07:37:16Z</time>
      </trkpt>
      <trkpt lat="44.5970410" lon="7.2025150">
        <ele>1542.2</ele>
        <time>2017-07-25T07:37:22Z</time>
      </trkpt>
      <trkpt lat="44.5971690" lon="7.2026440">
        <ele>1542.6</ele>
        <time>2017-07-25T07:37:27Z</time>
      </trkpt>
      <trkpt lat="44.5973360" lon="7.2027420">
        <ele>1543.2</ele>
        <time>2017-07-25T07:37:32Z</time>
      </trkpt>
      <trkpt lat="44.5974130" lon="7.2027870">
        <ele>1543.6</ele>
        <time>2017-07-25T07:37:34Z</time>
      </trkpt>
      <trkpt lat="44.5975350" lon="7.2028530">
        <ele>1544.4</ele>
        <time>2017-07-25T07:37:37Z</time>
      </trkpt>
      <trkpt lat="44.5976890" lon="7.2029600">
        <ele>1545.4</ele>
        <time>2017-07-25T07:37:41Z</time>
      </trkpt>
      <trkpt lat="44.5979110" lon="7.2031090">
        <ele>1546.0</ele>
        <time>2017-07-25T07:37:47Z</time>
      </trkpt>
      <trkpt lat="44.5979920" lon="7.2031590">
        <ele>1546.2</ele>
        <time>2017-07-25T07:37:49Z</time>
      </trkpt>
      <trkpt lat="44.5980310" lon="7.2031870">
        <ele>1546.4</ele>
        <time>2017-07-25T07:37:50Z</time>
      </trkpt>
      <trkpt lat="44.5981390" lon="7.2032690">
        <ele>1546.8</ele>
        <time>2017-07-25T07:37:53Z</time>
      </trkpt>
      <trkpt lat="44.5982740" lon="7.2033780">
        <ele>1547.6</ele>
        <time>2017-07-25T07:37:57Z</time>
      </trkpt>
      <trkpt lat="44.5984070" lon="7.2034900">
        <ele>1548.4</ele>
        <time>2017-07-25T07:38:01Z</time>
      </trkpt>
      <trkpt lat="44.5984710" lon="7.2035400">
        <ele>1549.0</ele>
        <time>2017-07-25T07:38:03Z</time>
      </trkpt>
      <trkpt lat="44.5985680" lon="7.2036280">
        <ele>1550.2</ele>
        <time>2017-07-25T07:38:06Z</time>
      </trkpt>
      <trkpt lat="44.5986220" lon="7.2036890">
        <ele>1550.4</ele>
        <time>2017-07-25T07:38:08Z</time>
      </trkpt>
      <trkpt lat="44.5987940" lon="7.2038980">
        <ele>1551.2</ele>
        <time>2017-07-25T07:38:14Z</time>
      </trkpt>
      <trkpt lat="44.5988200" lon="7.2039360">
        <ele>1551.4</ele>
        <time>2017-07-25T07:38:15Z</time>
      </trkpt>
      <trkpt lat="44.5989060" lon="7.2040420">
        <ele>1552.4</ele>
        <time>2017-07-25T07:38:18Z</time>
      </trkpt>
      <trkpt lat="44.5989920" lon="7.2041340">
        <ele>1553.4</ele>
        <time>2017-07-25T07:38:21Z</time>
      </trkpt>
      <trkpt lat="44.5990220" lon="7.2041530">
        <ele>1553.6</ele>
        <time>2017-07-25T07:38:22Z</time>
      </trkpt>
      <trkpt lat="44.5990980" lon="7.2042180">
        <ele>1554.8</ele>
        <time>2017-07-25T07:38:25Z</time>
      </trkpt>
      <trkpt lat="44.5991570" lon="7.2042910">
        <ele>1555.8</ele>
        <time>2017-07-25T07:38:28Z</time>
      </trkpt>
      <trkpt lat="44.5991960" lon="7.2043300">
        <ele>1557.0</ele>
        <time>2017-07-25T07:38:30Z</time>
      </trkpt>
      <trkpt lat="44.5992700" lon="7.2044000">
        <ele>1558.4</ele>
        <time>2017-07-25T07:38:33Z</time>
      </trkpt>
      <trkpt lat="44.5992930" lon="7.2044210">
        <ele>1558.8</ele>
        <time>2017-07-25T07:38:34Z</time>
      </trkpt>
      <trkpt lat="44.5993360" lon="7.2044630">
        <ele>1559.6</ele>
        <time>2017-07-25T07:38:36Z</time>
      </trkpt>
      <trkpt lat="44.5993970" lon="7.2045320">
        <ele>1560.6</ele>
        <time>2017-07-25T07:38:39Z</time>
      </trkpt>
      <trkpt lat="44.5994270" lon="7.2045810">
        <ele>1561.2</ele>
        <time>2017-07-25T07:38:41Z</time>
      </trkpt>
      <trkpt lat="44.5994450" lon="7.2046050">
        <ele>1561.6</ele>
        <time>2017-07-25T07:38:42Z</time>
      </trkpt>
      <trkpt lat="44.5994990" lon="7.2046810">
        <ele>1562.6</ele>
        <time>2017-07-25T07:38:45Z</time>
      </trkpt>
      <trkpt lat="44.5995510" lon="7.2047930">
        <ele>1563.6</ele>
        <time>2017-07-25T07:38:48Z</time>
      </trkpt>
      <trkpt lat="44.5995630" lon="7.2048240">
        <ele>1564.0</ele>
        <time>2017-07-25T07:38:49Z</time>
      </trkpt>
      <trkpt lat="44.5996060" lon="7.2049540">
        <ele>1565.2</ele>
        <time>2017-07-25T07:38:53Z</time>
      </trkpt>
      <trkpt lat="44.5996220" lon="7.2050180">
        <ele>1566.2</ele>
        <time>2017-07-25T07:38:55Z</time>
      </trkpt>
      <trkpt lat="44.5996300" lon="7.2050520">
        <ele>1566.4</ele>
        <time>2017-07-25T07:38:56Z</time>
      </trkpt>
      <trkpt lat="44.5996780" lon="7.2051970">
        <ele>1567.4</ele>
        <time>2017-07-25T07:39:00Z</time>
      </trkpt>
      <trkpt lat="44.5997320" lon="7.2052980">
        <ele>1568.2</ele>
        <time>2017-07-25T07:39:03Z</time>
      </trkpt>
      <trkpt lat="44.5997700" lon="7.2053630">
        <ele>1568.6</ele>
        <time>2017-07-25T07:39:05Z</time>
      </trkpt>
      <trkpt lat="44.5998850" lon="7.2054850">
        <ele>1569.0</ele>
        <time>2017-07-25T07:39:09Z</time>
      </trkpt>
      <trkpt lat="44.5999130" lon="7.2055310">
        <ele>1569.0</ele>
        <time>2017-07-25T07:39:10Z</time>
      </trkpt>
      <trkpt lat="44.5999820" lon="7.2057450">
        <ele>1569.2</ele>
        <time>2017-07-25T07:39:14Z</time>
      </trkpt>
      <trkpt lat="44.5999890" lon="7.2058050">
        <ele>1569.4</ele>
        <time>2017-07-25T07:39:15Z</time>
      </trkpt>
      <trkpt lat="44.5999930" lon="7.2058590">
        <ele>1569.6</ele>
        <time>2017-07-25T07:39:16Z</time>
      </trkpt>
      <trkpt lat="44.6000020" lon="7.2060320">
        <ele>1570.8</ele>
        <time>2017-07-25T07:39:19Z</time>
      </trkpt>
      <trkpt lat="44.6000090" lon="7.2060850">
        <ele>1571.2</ele>
        <time>2017-07-25T07:39:20Z</time>
      </trkpt>
      <trkpt lat="44.6000510" lon="7.2061860">
        <ele>1571.6</ele>
        <time>2017-07-25T07:39:22Z</time>
      </trkpt>
      <trkpt lat="44.6001070" lon="7.2062780">
        <ele>1572.2</ele>
        <time>2017-07-25T07:39:24Z</time>
      </trkpt>
      <trkpt lat="44.6002670" lon="7.2065150">
        <ele>1573.4</ele>
        <time>2017-07-25T07:39:29Z</time>
      </trkpt>
      <trkpt lat="44.6003200" lon="7.2065960">
        <ele>1573.6</ele>
        <time>2017-07-25T07:39:31Z</time>
      </trkpt>
      <trkpt lat="44.6004630" lon="7.2067800">
        <ele>1574.6</ele>
        <time>2017-07-25T07:39:36Z</time>
      </trkpt>
      <trkpt lat="44.6004860" lon="7.2068220">
        <ele>1574.8</ele>
        <time>2017-07-25T07:39:37Z</time>
      </trkpt>
      <trkpt lat="44.6005910" lon="7.2069580">
        <ele>1575.6</ele>
        <time>2017-07-25T07:39:41Z</time>
      </trkpt>
      <trkpt lat="44.6006560" lon="7.2070100">
        <ele>1576.4</ele>
        <time>2017-07-25T07:39:43Z</time>
      </trkpt>
      <trkpt lat="44.6007190" lon="7.2070490">
        <ele>1577.0</ele>
        <time>2017-07-25T07:39:45Z</time>
      </trkpt>
      <trkpt lat="44.6007760" lon="7.2071280">
        <ele>1577.4</ele>
        <time>2017-07-25T07:39:47Z</time>
      </trkpt>
      <trkpt lat="44.6008250" lon="7.2072130">
        <ele>1578.0</ele>
        <time>2017-07-25T07:39:49Z</time>
      </trkpt>
      <trkpt lat="44.6008700" lon="7.2073500">
        <ele>1578.6</ele>
        <time>2017-07-25T07:39:52Z</time>
      </trkpt>
      <trkpt lat="44.6008880" lon="7.2074630">
        <ele>1579.0</ele>
        <time>2017-07-25T07:39:54Z</time>
      </trkpt>
      <trkpt lat="44.6009130" lon="7.2075650">
        <ele>1579.4</ele>
        <time>2017-07-25T07:39:56Z</time>
      </trkpt>
      <trkpt lat="44.6009590" lon="7.2077170">
        <ele>1580.2</ele>
        <time>2017-07-25T07:39:59Z</time>
      </trkpt>
      <trkpt lat="44.6009910" lon="7.2078210">
        <ele>1580.6</ele>
        <time>2017-07-25T07:40:01Z</time>
      </trkpt>
      <trkpt lat="44.6010610" lon="7.2080200">
        <ele>1581.0</ele>
        <time>2017-07-25T07:40:05Z</time>
      </trkpt>
      <trkpt lat="44.6011150" lon="7.2081200">
        <ele>1581.2</ele>
        <time>2017-07-25T07:40:07Z</time>
      </trkpt>
      <trkpt lat="44.6011400" lon="7.2081740">
        <ele>1581.4</ele>
        <time>2017-07-25T07:40:08Z</time>
      </trkpt>
      <trkpt lat="44.6012480" lon="7.2083940">
        <ele>1581.8</ele>
        <time>2017-07-25T07:40:13Z</time>
      </trkpt>
      <trkpt lat="44.6013830" lon="7.2085000">
        <ele>1582.2</ele>
        <time>2017-07-25T07:40:17Z</time>
      </trkpt>
      <trkpt lat="44.6014400" lon="7.2085740">
        <ele>1582.4</ele>
        <time>2017-07-25T07:40:19Z</time>
      </trkpt>
      <trkpt lat="44.6015090" lon="7.2087200">
        <ele>1582.2</ele>
        <time>2017-07-25T07:40:22Z</time>
      </trkpt>
      <trkpt lat="44.6015930" lon="7.2089470">
        <ele>1582.4</ele>
        <time>2017-07-25T07:40:26Z</time>
      </trkpt>
      <trkpt lat="44.6016500" lon="7.2090700">
        <ele>1582.0</ele>
        <time>2017-07-25T07:40:28Z</time>
      </trkpt>
      <trkpt lat="44.6017010" lon="7.2092080">
        <ele>1581.8</ele>
        <time>2017-07-25T07:40:30Z</time>
      </trkpt>
      <trkpt lat="44.6017030" lon="7.2093600">
        <ele>1581.8</ele>
        <time>2017-07-25T07:40:32Z</time>
      </trkpt>
      <trkpt lat="44.6015710" lon="7.2095290">
        <ele>1582.0</ele>
        <time>2017-07-25T07:40:35Z</time>
      </trkpt>
      <trkpt lat="44.6015210" lon="7.2095510">
        <ele>1582.0</ele>
        <time>2017-07-25T07:40:36Z</time>
      </trkpt>
      <trkpt lat="44.6014110" lon="7.2095750">
        <ele>1582.4</ele>
        <time>2017-07-25T07:40:38Z</time>
      </trkpt>
      <trkpt lat="44.6012100" lon="7.2097630">
        <ele>1582.4</ele>
        <time>2017-07-25T07:40:42Z</time>
      </trkpt>
      <trkpt lat="44.6011560" lon="7.2099110">
        <ele>1582.6</ele>
        <time>2017-07-25T07:40:44Z</time>
      </trkpt>
      <trkpt lat="44.6010910" lon="7.2100410">
        <ele>1583.2</ele>
        <time>2017-07-25T07:40:46Z</time>
      </trkpt>
      <trkpt lat="44.6010570" lon="7.2100880">
        <ele>1583.4</ele>
        <time>2017-07-25T07:40:47Z</time>
      </trkpt>
      <trkpt lat="44.6009620" lon="7.2102270">
        <ele>1583.8</ele>
        <time>2017-07-25T07:40:50Z</time>
      </trkpt>
      <trkpt lat="44.6008660" lon="7.2105080">
        <ele>1583.8</ele>
        <time>2017-07-25T07:40:54Z</time>
      </trkpt>
      <trkpt lat="44.6008440" lon="7.2105830">
        <ele>1583.6</ele>
        <time>2017-07-25T07:40:55Z</time>
      </trkpt>
      <trkpt lat="44.6008310" lon="7.2106640">
        <ele>1583.6</ele>
        <time>2017-07-25T07:40:56Z</time>
      </trkpt>
      <trkpt lat="44.6008140" lon="7.2109050">
        <ele>1582.8</ele>
        <time>2017-07-25T07:40:59Z</time>
      </trkpt>
      <trkpt lat="44.6007800" lon="7.2110640">
        <ele>1582.4</ele>
        <time>2017-07-25T07:41:01Z</time>
      </trkpt>
      <trkpt lat="44.6007160" lon="7.2112080">
        <ele>1581.8</ele>
        <time>2017-07-25T07:41:03Z</time>
      </trkpt>
      <trkpt lat="44.6006850" lon="7.2112780">
        <ele>1581.8</ele>
        <time>2017-07-25T07:41:04Z</time>
      </trkpt>
      <trkpt lat="44.6006280" lon="7.2114210">
        <ele>1582.0</ele>
        <time>2017-07-25T07:41:06Z</time>
      </trkpt>
      <trkpt lat="44.6005820" lon="7.2116470">
        <ele>1581.8</ele>
        <time>2017-07-25T07:41:09Z</time>
      </trkpt>
      <trkpt lat="44.6005310" lon="7.2117730">
        <ele>1581.8</ele>
        <time>2017-07-25T07:41:11Z</time>
      </trkpt>
      <trkpt lat="44.6004770" lon="7.2118930">
        <ele>1582.6</ele>
        <time>2017-07-25T07:41:13Z</time>
      </trkpt>
      <trkpt lat="44.6004120" lon="7.2120810">
        <ele>1582.8</ele>
        <time>2017-07-25T07:41:16Z</time>
      </trkpt>
      <trkpt lat="44.6003780" lon="7.2122010">
        <ele>1583.4</ele>
        <time>2017-07-25T07:41:18Z</time>
      </trkpt>
      <trkpt lat="44.6003590" lon="7.2122620">
        <ele>1584.0</ele>
        <time>2017-07-25T07:41:19Z</time>
      </trkpt>
      <trkpt lat="44.6003510" lon="7.2123250">
        <ele>1584.4</ele>
        <time>2017-07-25T07:41:20Z</time>
      </trkpt>
      <trkpt lat="44.6003520" lon="7.2123910">
        <ele>1584.8</ele>
        <time>2017-07-25T07:41:21Z</time>
      </trkpt>
      <trkpt lat="44.6003840" lon="7.2125230">
        <ele>1585.2</ele>
        <time>2017-07-25T07:41:23Z</time>
      </trkpt>
      <trkpt lat="44.6004020" lon="7.2125960">
        <ele>1585.4</ele>
        <time>2017-07-25T07:41:24Z</time>
      </trkpt>
      <trkpt lat="44.6004110" lon="7.2126710">
        <ele>1585.6</ele>
        <time>2017-07-25T07:41:25Z</time>
      </trkpt>
      <trkpt lat="44.6004290" lon="7.2128810">
        <ele>1585.6</ele>
        <time>2017-07-25T07:41:28Z</time>
      </trkpt>
      <trkpt lat="44.6004380" lon="7.2130020">
        <ele>1585.8</ele>
        <time>2017-07-25T07:41:30Z</time>
      </trkpt>
      <trkpt lat="44.6004390" lon="7.2132510">
        <ele>1586.4</ele>
        <time>2017-07-25T07:41:34Z</time>
      </trkpt>
      <trkpt lat="44.6004510" lon="7.2133830">
        <ele>1586.8</ele>
        <time>2017-07-25T07:41:36Z</time>
      </trkpt>
      <trkpt lat="44.6004910" lon="7.2137190">
        <ele>1587.8</ele>
        <time>2017-07-25T07:41:41Z</time>
      </trkpt>
      <trkpt lat="44.6005020" lon="7.2137860">
        <ele>1588.2</ele>
        <time>2017-07-25T07:41:42Z</time>
      </trkpt>
      <trkpt lat="44.6005780" lon="7.2139600">
        <ele>1588.4</ele>
        <time>2017-07-25T07:41:45Z</time>
      </trkpt>
      <trkpt lat="44.6006510" lon="7.2140530">
        <ele>1588.8</ele>
        <time>2017-07-25T07:41:47Z</time>
      </trkpt>
      <trkpt lat="44.6006810" lon="7.2140970">
        <ele>1589.0</ele>
        <time>2017-07-25T07:41:48Z</time>
      </trkpt>
      <trkpt lat="44.6006900" lon="7.2141470">
        <ele>1589.2</ele>
        <time>2017-07-25T07:41:49Z</time>
      </trkpt>
      <trkpt lat="44.6006880" lon="7.2141960">
        <ele>1589.6</ele>
        <time>2017-07-25T07:41:50Z</time>
      </trkpt>
      <trkpt lat="44.6006120" lon="7.2143220">
        <ele>1590.2</ele>
        <time>2017-07-25T07:41:53Z</time>
      </trkpt>
      <trkpt lat="44.6005650" lon="7.2145770">
        <ele>1591.2</ele>
        <time>2017-07-25T07:41:57Z</time>
      </trkpt>
      <trkpt lat="44.6005990" lon="7.2148770">
        <ele>1592.0</ele>
        <time>2017-07-25T07:42:01Z</time>
      </trkpt>
      <trkpt lat="44.6006090" lon="7.2149450">
        <ele>1592.4</ele>
        <time>2017-07-25T07:42:02Z</time>
      </trkpt>
      <trkpt lat="44.6006260" lon="7.2150090">
        <ele>1592.6</ele>
        <time>2017-07-25T07:42:03Z</time>
      </trkpt>
      <trkpt lat="44.6006500" lon="7.2152050">
        <ele>1593.0</ele>
        <time>2017-07-25T07:42:06Z</time>
      </trkpt>
      <trkpt lat="44.6006520" lon="7.2152740">
        <ele>1593.0</ele>
        <time>2017-07-25T07:42:07Z</time>
      </trkpt>
      <trkpt lat="44.6006120" lon="7.2154630">
        <ele>1593.4</ele>
        <time>2017-07-25T07:42:10Z</time>
      </trkpt>
      <trkpt lat="44.6005930" lon="7.2155230">
        <ele>1593.4</ele>
        <time>2017-07-25T07:42:11Z</time>
      </trkpt>
      <trkpt lat="44.6005750" lon="7.2155850">
        <ele>1593.6</ele>
        <time>2017-07-25T07:42:12Z</time>
      </trkpt>
      <trkpt lat="44.6004310" lon="7.2160600">
        <ele>1593.0</ele>
        <time>2017-07-25T07:42:19Z</time>
      </trkpt>
      <trkpt lat="44.6003960" lon="7.2161210">
        <ele>1593.0</ele>
        <time>2017-07-25T07:42:20Z</time>
      </trkpt>
      <trkpt lat="44.6003010" lon="7.2162100">
        <ele>1593.0</ele>
        <time>2017-07-25T07:42:22Z</time>
      </trkpt>
      <trkpt lat="44.6001400" lon="7.2164310">
        <ele>1592.8</ele>
        <time>2017-07-25T07:42:26Z</time>
      </trkpt>
      <trkpt lat="44.6000960" lon="7.2166440">
        <ele>1593.4</ele>
        <time>2017-07-25T07:42:29Z</time>
      </trkpt>
      <trkpt lat="44.6000920" lon="7.2167100">
        <ele>1593.6</ele>
        <time>2017-07-25T07:42:30Z</time>
      </trkpt>
      <trkpt lat="44.6001090" lon="7.2169770">
        <ele>1594.4</ele>
        <time>2017-07-25T07:42:34Z</time>
      </trkpt>
      <trkpt lat="44.6001140" lon="7.2170430">
        <ele>1594.6</ele>
        <time>2017-07-25T07:42:35Z</time>
      </trkpt>
      <trkpt lat="44.6001330" lon="7.2172350">
        <ele>1596.0</ele>
        <time>2017-07-25T07:42:38Z</time>
      </trkpt>
      <trkpt lat="44.6001370" lon="7.2173550">
        <ele>1596.6</ele>
        <time>2017-07-25T07:42:40Z</time>
      </trkpt>
      <trkpt lat="44.6001360" lon="7.2174180">
        <ele>1597.0</ele>
        <time>2017-07-25T07:42:41Z</time>
      </trkpt>
      <trkpt lat="44.6001300" lon="7.2175550">
        <ele>1597.2</ele>
        <time>2017-07-25T07:42:43Z</time>
      </trkpt>
      <trkpt lat="44.6001320" lon="7.2176250">
        <ele>1597.4</ele>
        <time>2017-07-25T07:42:44Z</time>
      </trkpt>
      <trkpt lat="44.6001470" lon="7.2177570">
        <ele>1598.2</ele>
        <time>2017-07-25T07:42:46Z</time>
      </trkpt>
      <trkpt lat="44.6001540" lon="7.2178250">
        <ele>1598.4</ele>
        <time>2017-07-25T07:42:47Z</time>
      </trkpt>
      <trkpt lat="44.6001780" lon="7.2180960">
        <ele>1599.4</ele>
        <time>2017-07-25T07:42:51Z</time>
      </trkpt>
      <trkpt lat="44.6001870" lon="7.2182310">
        <ele>1600.0</ele>
        <time>2017-07-25T07:42:53Z</time>
      </trkpt>
      <trkpt lat="44.6002040" lon="7.2183600">
        <ele>1600.6</ele>
        <time>2017-07-25T07:42:55Z</time>
      </trkpt>
      <trkpt lat="44.6002240" lon="7.2184190">
        <ele>1601.0</ele>
        <time>2017-07-25T07:42:56Z</time>
      </trkpt>
      <trkpt lat="44.6002600" lon="7.2185300">
        <ele>1601.4</ele>
        <time>2017-07-25T07:42:58Z</time>
      </trkpt>
      <trkpt lat="44.6002820" lon="7.2185820">
        <ele>1601.8</ele>
        <time>2017-07-25T07:42:59Z</time>
      </trkpt>
      <trkpt lat="44.6003540" lon="7.2188340">
        <ele>1602.8</ele>
        <time>2017-07-25T07:43:04Z</time>
      </trkpt>
      <trkpt lat="44.6003330" lon="7.2188770">
        <ele>1602.8</ele>
        <time>2017-07-25T07:43:05Z</time>
      </trkpt>
      <trkpt lat="44.6002770" lon="7.2189580">
        <ele>1603.0</ele>
        <time>2017-07-25T07:43:07Z</time>
      </trkpt>
      <trkpt lat="44.6002370" lon="7.2191720">
        <ele>1603.4</ele>
        <time>2017-07-25T07:43:10Z</time>
      </trkpt>
      <trkpt lat="44.6002560" lon="7.2194640">
        <ele>1603.2</ele>
        <time>2017-07-25T07:43:13Z</time>
      </trkpt>
      <trkpt lat="44.6002310" lon="7.2196540">
        <ele>1603.2</ele>
        <time>2017-07-25T07:43:15Z</time>
      </trkpt>
      <trkpt lat="44.6002180" lon="7.2198520">
        <ele>1603.2</ele>
        <time>2017-07-25T07:43:17Z</time>
      </trkpt>
      <trkpt lat="44.6001690" lon="7.2201630">
        <ele>1603.0</ele>
        <time>2017-07-25T07:43:20Z</time>
      </trkpt>
      <trkpt lat="44.6001440" lon="7.2203640">
        <ele>1603.0</ele>
        <time>2017-07-25T07:43:22Z</time>
      </trkpt>
      <trkpt lat="44.6001970" lon="7.2207500">
        <ele>1602.8</ele>
        <time>2017-07-25T07:43:26Z</time>
      </trkpt>
      <trkpt lat="44.6002260" lon="7.2208400">
        <ele>1602.6</ele>
        <time>2017-07-25T07:43:27Z</time>
      </trkpt>
      <trkpt lat="44.6003590" lon="7.2210810">
        <ele>1602.0</ele>
        <time>2017-07-25T07:43:30Z</time>
      </trkpt>
      <trkpt lat="44.6004100" lon="7.2211580">
        <ele>1601.6</ele>
        <time>2017-07-25T07:43:31Z</time>
      </trkpt>
      <trkpt lat="44.6005690" lon="7.2213690">
        <ele>1600.8</ele>
        <time>2017-07-25T07:43:34Z</time>
      </trkpt>
      <trkpt lat="44.6006320" lon="7.2214210">
        <ele>1600.4</ele>
        <time>2017-07-25T07:43:35Z</time>
      </trkpt>
      <trkpt lat="44.6007050" lon="7.2214470">
        <ele>1600.0</ele>
        <time>2017-07-25T07:43:36Z</time>
      </trkpt>
      <trkpt lat="44.6008400" lon="7.2215480">
        <ele>1599.4</ele>
        <time>2017-07-25T07:43:38Z</time>
      </trkpt>
      <trkpt lat="44.6009550" lon="7.2217060">
        <ele>1598.6</ele>
        <time>2017-07-25T07:43:40Z</time>
      </trkpt>
      <trkpt lat="44.6010050" lon="7.2217910">
        <ele>1598.2</ele>
        <time>2017-07-25T07:43:41Z</time>
      </trkpt>
      <trkpt lat="44.6011090" lon="7.2218800">
        <ele>1597.4</ele>
        <time>2017-07-25T07:43:43Z</time>
      </trkpt>
      <trkpt lat="44.6011730" lon="7.2218870">
        <ele>1597.0</ele>
        <time>2017-07-25T07:43:44Z</time>
      </trkpt>
      <trkpt lat="44.6012760" lon="7.2219540">
        <ele>1596.6</ele>
        <time>2017-07-25T07:43:46Z</time>
      </trkpt>
      <trkpt lat="44.6012880" lon="7.2220760">
        <ele>1597.0</ele>
        <time>2017-07-25T07:43:48Z</time>
      </trkpt>
      <trkpt lat="44.6011980" lon="7.2222430">
        <ele>1597.0</ele>
        <time>2017-07-25T07:43:51Z</time>
      </trkpt>
      <trkpt lat="44.6011780" lon="7.2223970">
        <ele>1597.0</ele>
        <time>2017-07-25T07:43:53Z</time>
      </trkpt>
      <trkpt lat="44.6011730" lon="7.2224810">
        <ele>1596.8</ele>
        <time>2017-07-25T07:43:54Z</time>
      </trkpt>
      <trkpt lat="44.6011930" lon="7.2226420">
        <ele>1597.2</ele>
        <time>2017-07-25T07:43:56Z</time>
      </trkpt>
      <trkpt lat="44.6012670" lon="7.2227440">
        <ele>1597.4</ele>
        <time>2017-07-25T07:43:58Z</time>
      </trkpt>
      <trkpt lat="44.6013970" lon="7.2228410">
        <ele>1598.2</ele>
        <time>2017-07-25T07:44:01Z</time>
      </trkpt>
      <trkpt lat="44.6014580" lon="7.2229910">
        <ele>1599.2</ele>
        <time>2017-07-25T07:44:04Z</time>
      </trkpt>
      <trkpt lat="44.6014780" lon="7.2230430">
        <ele>1599.6</ele>
        <time>2017-07-25T07:44:05Z</time>
      </trkpt>
      <trkpt lat="44.6014970" lon="7.2230860">
        <ele>1600.2</ele>
        <time>2017-07-25T07:44:06Z</time>
      </trkpt>
      <trkpt lat="44.6015210" lon="7.2231370">
        <ele>1600.6</ele>
        <time>2017-07-25T07:44:07Z</time>
      </trkpt>
      <trkpt lat="44.6015970" lon="7.2232680">
        <ele>1601.6</ele>
        <time>2017-07-25T07:44:10Z</time>
      </trkpt>
      <trkpt lat="44.6016270" lon="7.2233130">
        <ele>1601.8</ele>
        <time>2017-07-25T07:44:11Z</time>
      </trkpt>
      <trkpt lat="44.6017670" lon="7.2235220">
        <ele>1603.0</ele>
        <time>2017-07-25T07:44:15Z</time>
      </trkpt>
      <trkpt lat="44.6018030" lon="7.2235870">
        <ele>1603.2</ele>
        <time>2017-07-25T07:44:16Z</time>
      </trkpt>
      <trkpt lat="44.6018920" lon="7.2238220">
        <ele>1603.8</ele>
        <time>2017-07-25T07:44:19Z</time>
      </trkpt>
      <trkpt lat="44.6019340" lon="7.2239820">
        <ele>1603.8</ele>
        <time>2017-07-25T07:44:21Z</time>
      </trkpt>
      <trkpt lat="44.6019660" lon="7.2240500">
        <ele>1603.8</ele>
        <time>2017-07-25T07:44:22Z</time>
      </trkpt>
      <trkpt lat="44.6020730" lon="7.2243310">
        <ele>1603.8</ele>
        <time>2017-07-25T07:44:26Z</time>
      </trkpt>
      <trkpt lat="44.6020880" lon="7.2245630">
        <ele>1603.6</ele>
        <time>2017-07-25T07:44:29Z</time>
      </trkpt>
      <trkpt lat="44.6020630" lon="7.2247060">
        <ele>1603.4</ele>
        <time>2017-07-25T07:44:31Z</time>
      </trkpt>
      <trkpt lat="44.6020620" lon="7.2247790">
        <ele>1603.6</ele>
        <time>2017-07-25T07:44:32Z</time>
      </trkpt>
      <trkpt lat="44.6020760" lon="7.2248490">
        <ele>1603.6</ele>
        <time>2017-07-25T07:44:33Z</time>
      </trkpt>
      <trkpt lat="44.6021440" lon="7.2250540">
        <ele>1603.2</ele>
        <time>2017-07-25T07:44:36Z</time>
      </trkpt>
      <trkpt lat="44.6021600" lon="7.2251260">
        <ele>1603.2</ele>
        <time>2017-07-25T07:44:37Z</time>
      </trkpt>
      <trkpt lat="44.6021920" lon="7.2253460">
        <ele>1603.0</ele>
        <time>2017-07-25T07:44:40Z</time>
      </trkpt>
      <trkpt lat="44.6022300" lon="7.2255580">
        <ele>1603.0</ele>
        <time>2017-07-25T07:44:43Z</time>
      </trkpt>
      <trkpt lat="44.6022690" lon="7.2256710">
        <ele>1603.2</ele>
        <time>2017-07-25T07:44:45Z</time>
      </trkpt>
      <trkpt lat="44.6023280" lon="7.2257860">
        <ele>1603.0</ele>
        <time>2017-07-25T07:44:47Z</time>
      </trkpt>
      <trkpt lat="44.6023570" lon="7.2258410">
        <ele>1603.0</ele>
        <time>2017-07-25T07:44:48Z</time>
      </trkpt>
      <trkpt lat="44.6024080" lon="7.2259660">
        <ele>1603.2</ele>
        <time>2017-07-25T07:44:50Z</time>
      </trkpt>
      <trkpt lat="44.6024470" lon="7.2261920">
        <ele>1603.6</ele>
        <time>2017-07-25T07:44:53Z</time>
      </trkpt>
      <trkpt lat="44.6024890" lon="7.2264910">
        <ele>1603.8</ele>
        <time>2017-07-25T07:44:57Z</time>
      </trkpt>
      <trkpt lat="44.6025130" lon="7.2265600">
        <ele>1604.2</ele>
        <time>2017-07-25T07:44:58Z</time>
      </trkpt>
      <trkpt lat="44.6026170" lon="7.2269600">
        <ele>1604.6</ele>
        <time>2017-07-25T07:45:03Z</time>
      </trkpt>
      <trkpt lat="44.6026310" lon="7.2270370">
        <ele>1604.8</ele>
        <time>2017-07-25T07:45:04Z</time>
      </trkpt>
      <trkpt lat="44.6026780" lon="7.2272570">
        <ele>1605.2</ele>
        <time>2017-07-25T07:45:07Z</time>
      </trkpt>
      <trkpt lat="44.6027330" lon="7.2274720">
        <ele>1605.4</ele>
        <time>2017-07-25T07:45:10Z</time>
      </trkpt>
      <trkpt lat="44.6027470" lon="7.2275420">
        <ele>1605.6</ele>
        <time>2017-07-25T07:45:11Z</time>
      </trkpt>
      <trkpt lat="44.6028200" lon="7.2278190">
        <ele>1605.8</ele>
        <time>2017-07-25T07:45:15Z</time>
      </trkpt>
      <trkpt lat="44.6028820" lon="7.2279280">
        <ele>1606.4</ele>
        <time>2017-07-25T07:45:17Z</time>
      </trkpt>
      <trkpt lat="44.6029930" lon="7.2280480">
        <ele>1607.0</ele>
        <time>2017-07-25T07:45:20Z</time>
      </trkpt>
      <trkpt lat="44.6030660" lon="7.2281370">
        <ele>1607.4</ele>
        <time>2017-07-25T07:45:22Z</time>
      </trkpt>
      <trkpt lat="44.6031780" lon="7.2282740">
        <ele>1607.6</ele>
        <time>2017-07-25T07:45:25Z</time>
      </trkpt>
      <trkpt lat="44.6032210" lon="7.2283130">
        <ele>1607.8</ele>
        <time>2017-07-25T07:45:26Z</time>
      </trkpt>
      <trkpt lat="44.6032650" lon="7.2283440">
        <ele>1608.0</ele>
        <time>2017-07-25T07:45:27Z</time>
      </trkpt>
      <trkpt lat="44.6033420" lon="7.2284130">
        <ele>1608.4</ele>
        <time>2017-07-25T07:45:29Z</time>
      </trkpt>
      <trkpt lat="44.6033670" lon="7.2284530">
        <ele>1608.8</ele>
        <time>2017-07-25T07:45:30Z</time>
      </trkpt>
      <trkpt lat="44.6033860" lon="7.2285000">
        <ele>1609.2</ele>
        <time>2017-07-25T07:45:31Z</time>
      </trkpt>
      <trkpt lat="44.6034100" lon="7.2286200">
        <ele>1609.8</ele>
        <time>2017-07-25T07:45:33Z</time>
      </trkpt>
      <trkpt lat="44.6034200" lon="7.2286820">
        <ele>1610.0</ele>
        <time>2017-07-25T07:45:34Z</time>
      </trkpt>
      <trkpt lat="44.6034280" lon="7.2287480">
        <ele>1610.2</ele>
        <time>2017-07-25T07:45:35Z</time>
      </trkpt>
      <trkpt lat="44.6034470" lon="7.2289470">
        <ele>1611.0</ele>
        <time>2017-07-25T07:45:38Z</time>
      </trkpt>
      <trkpt lat="44.6034840" lon="7.2291620">
        <ele>1611.6</ele>
        <time>2017-07-25T07:45:41Z</time>
      </trkpt>
      <trkpt lat="44.6035060" lon="7.2292260">
        <ele>1611.8</ele>
        <time>2017-07-25T07:45:42Z</time>
      </trkpt>
      <trkpt lat="44.6035490" lon="7.2293480">
        <ele>1612.4</ele>
        <time>2017-07-25T07:45:44Z</time>
      </trkpt>
      <trkpt lat="44.6035820" lon="7.2294640">
        <ele>1612.4</ele>
        <time>2017-07-25T07:45:46Z</time>
      </trkpt>
      <trkpt lat="44.6035880" lon="7.2295280">
        <ele>1612.4</ele>
        <time>2017-07-25T07:45:47Z</time>
      </trkpt>
      <trkpt lat="44.6035730" lon="7.2296630">
        <ele>1613.4</ele>
        <time>2017-07-25T07:45:49Z</time>
      </trkpt>
      <trkpt lat="44.6035410" lon="7.2297780">
        <ele>1613.8</ele>
        <time>2017-07-25T07:45:51Z</time>
      </trkpt>
      <trkpt lat="44.6035270" lon="7.2298370">
        <ele>1614.0</ele>
        <time>2017-07-25T07:45:52Z</time>
      </trkpt>
      <trkpt lat="44.6035190" lon="7.2298990">
        <ele>1614.2</ele>
        <time>2017-07-25T07:45:53Z</time>
      </trkpt>
      <trkpt lat="44.6035240" lon="7.2299630">
        <ele>1614.6</ele>
        <time>2017-07-25T07:45:54Z</time>
      </trkpt>
      <trkpt lat="44.6035570" lon="7.2300770">
        <ele>1615.6</ele>
        <time>2017-07-25T07:45:56Z</time>
      </trkpt>
      <trkpt lat="44.6035750" lon="7.2301420">
        <ele>1616.0</ele>
        <time>2017-07-25T07:45:57Z</time>
      </trkpt>
      <trkpt lat="44.6035750" lon="7.2302030">
        <ele>1616.4</ele>
        <time>2017-07-25T07:45:58Z</time>
      </trkpt>
      <trkpt lat="44.6035200" lon="7.2302950">
        <ele>1617.0</ele>
        <time>2017-07-25T07:46:00Z</time>
      </trkpt>
      <trkpt lat="44.6034590" lon="7.2304030">
        <ele>1617.6</ele>
        <time>2017-07-25T07:46:02Z</time>
      </trkpt>
      <trkpt lat="44.6034560" lon="7.2305400">
        <ele>1618.2</ele>
        <time>2017-07-25T07:46:04Z</time>
      </trkpt>
      <trkpt lat="44.6034690" lon="7.2306710">
        <ele>1618.6</ele>
        <time>2017-07-25T07:46:06Z</time>
      </trkpt>
      <trkpt lat="44.6034620" lon="7.2307980">
        <ele>1619.4</ele>
        <time>2017-07-25T07:46:08Z</time>
      </trkpt>
      <trkpt lat="44.6034350" lon="7.2309160">
        <ele>1619.6</ele>
        <time>2017-07-25T07:46:10Z</time>
      </trkpt>
      <trkpt lat="44.6033720" lon="7.2312200">
        <ele>1620.4</ele>
        <time>2017-07-25T07:46:15Z</time>
      </trkpt>
      <trkpt lat="44.6033580" lon="7.2313500">
        <ele>1620.6</ele>
        <time>2017-07-25T07:46:17Z</time>
      </trkpt>
      <trkpt lat="44.6033480" lon="7.2318350">
        <ele>1620.8</ele>
        <time>2017-07-25T07:46:24Z</time>
      </trkpt>
      <trkpt lat="44.6033620" lon="7.2322470">
        <ele>1620.8</ele>
        <time>2017-07-25T07:46:30Z</time>
      </trkpt>
      <trkpt lat="44.6033730" lon="7.2325550">
        <ele>1620.8</ele>
        <time>2017-07-25T07:46:34Z</time>
      </trkpt>
      <trkpt lat="44.6033990" lon="7.2327280">
        <ele>1620.6</ele>
        <time>2017-07-25T07:46:36Z</time>
      </trkpt>
      <trkpt lat="44.6034770" lon="7.2331210">
        <ele>1620.8</ele>
        <time>2017-07-25T07:46:41Z</time>
      </trkpt>
      <trkpt lat="44.6034860" lon="7.2331950">
        <ele>1621.0</ele>
        <time>2017-07-25T07:46:42Z</time>
      </trkpt>
      <trkpt lat="44.6036110" lon="7.2334880">
        <ele>1620.8</ele>
        <time>2017-07-25T07:46:46Z</time>
      </trkpt>
      <trkpt lat="44.6036460" lon="7.2335740">
        <ele>1621.2</ele>
        <time>2017-07-25T07:46:47Z</time>
      </trkpt>
      <trkpt lat="44.6036690" lon="7.2337670">
        <ele>1621.0</ele>
        <time>2017-07-25T07:46:49Z</time>
      </trkpt>
      <trkpt lat="44.6036100" lon="7.2340370">
        <ele>1620.6</ele>
        <time>2017-07-25T07:46:52Z</time>
      </trkpt>
      <trkpt lat="44.6035620" lon="7.2343900">
        <ele>1620.4</ele>
        <time>2017-07-25T07:46:56Z</time>
      </trkpt>
      <trkpt lat="44.6036500" lon="7.2346480">
        <ele>1620.2</ele>
        <time>2017-07-25T07:46:59Z</time>
      </trkpt>
      <trkpt lat="44.6036870" lon="7.2347310">
        <ele>1620.2</ele>
        <time>2017-07-25T07:47:00Z</time>
      </trkpt>
      <trkpt lat="44.6037380" lon="7.2347920">
        <ele>1620.2</ele>
        <time>2017-07-25T07:47:01Z</time>
      </trkpt>
      <trkpt lat="44.6038640" lon="7.2348740">
        <ele>1620.2</ele>
        <time>2017-07-25T07:47:03Z</time>
      </trkpt>
      <trkpt lat="44.6040670" lon="7.2349730">
        <ele>1620.0</ele>
        <time>2017-07-25T07:47:06Z</time>
      </trkpt>
      <trkpt lat="44.6041390" lon="7.2349610">
        <ele>1619.8</ele>
        <time>2017-07-25T07:47:07Z</time>
      </trkpt>
      <trkpt lat="44.6043270" lon="7.2350670">
        <ele>1619.6</ele>
        <time>2017-07-25T07:47:10Z</time>
      </trkpt>
      <trkpt lat="44.6043870" lon="7.2351140">
        <ele>1619.4</ele>
        <time>2017-07-25T07:47:11Z</time>
      </trkpt>
      <trkpt lat="44.6045230" lon="7.2351730">
        <ele>1618.8</ele>
        <time>2017-07-25T07:47:13Z</time>
      </trkpt>
      <trkpt lat="44.6045960" lon="7.2352000">
        <ele>1618.6</ele>
        <time>2017-07-25T07:47:14Z</time>
      </trkpt>
      <trkpt lat="44.6047340" lon="7.2352770">
        <ele>1618.2</ele>
        <time>2017-07-25T07:47:16Z</time>
      </trkpt>
      <trkpt lat="44.6050070" lon="7.2354110">
        <ele>1617.4</ele>
        <time>2017-07-25T07:47:20Z</time>
      </trkpt>
      <trkpt lat="44.6050740" lon="7.2354510">
        <ele>1617.2</ele>
        <time>2017-07-25T07:47:21Z</time>
      </trkpt>
      <trkpt lat="44.6051380" lon="7.2355090">
        <ele>1616.8</ele>
        <time>2017-07-25T07:47:22Z</time>
      </trkpt>
      <trkpt lat="44.6052500" lon="7.2356530">
        <ele>1616.0</ele>
        <time>2017-07-25T07:47:24Z</time>
      </trkpt>
      <trkpt lat="44.6053570" lon="7.2357750">
        <ele>1615.6</ele>
        <time>2017-07-25T07:47:26Z</time>
      </trkpt>
      <trkpt lat="44.6054280" lon="7.2358040">
        <ele>1615.8</ele>
        <time>2017-07-25T07:47:27Z</time>
      </trkpt>
      <trkpt lat="44.6055020" lon="7.2358020">
        <ele>1615.8</ele>
        <time>2017-07-25T07:47:28Z</time>
      </trkpt>
      <trkpt lat="44.6056890" lon="7.2357620">
        <ele>1615.0</ele>
        <time>2017-07-25T07:47:31Z</time>
      </trkpt>
      <trkpt lat="44.6058690" lon="7.2358620">
        <ele>1614.8</ele>
        <time>2017-07-25T07:47:34Z</time>
      </trkpt>
      <trkpt lat="44.6061320" lon="7.2358780">
        <ele>1614.8</ele>
        <time>2017-07-25T07:47:38Z</time>
      </trkpt>
      <trkpt lat="44.6061950" lon="7.2358730">
        <ele>1614.8</ele>
        <time>2017-07-25T07:47:39Z</time>
      </trkpt>
      <trkpt lat="44.6062620" lon="7.2358780">
        <ele>1614.6</ele>
        <time>2017-07-25T07:47:40Z</time>
      </trkpt>
      <trkpt lat="44.6064380" lon="7.2359360">
        <ele>1614.6</ele>
        <time>2017-07-25T07:47:43Z</time>
      </trkpt>
      <trkpt lat="44.6065870" lon="7.2360260">
        <ele>1614.8</ele>
        <time>2017-07-25T07:47:46Z</time>
      </trkpt>
      <trkpt lat="44.6066970" lon="7.2360890">
        <ele>1614.6</ele>
        <time>2017-07-25T07:47:48Z</time>
      </trkpt>
      <trkpt lat="44.6068210" lon="7.2361300">
        <ele>1614.6</ele>
        <time>2017-07-25T07:47:50Z</time>
      </trkpt>
      <trkpt lat="44.6068880" lon="7.2361320">
        <ele>1614.8</ele>
        <time>2017-07-25T07:47:51Z</time>
      </trkpt>
      <trkpt lat="44.6069540" lon="7.2361500">
        <ele>1614.8</ele>
        <time>2017-07-25T07:47:52Z</time>
      </trkpt>
      <trkpt lat="44.6071930" lon="7.2362770">
        <ele>1614.6</ele>
        <time>2017-07-25T07:47:56Z</time>
      </trkpt>
      <trkpt lat="44.6073010" lon="7.2363170">
        <ele>1614.8</ele>
        <time>2017-07-25T07:47:58Z</time>
      </trkpt>
      <trkpt lat="44.6073970" lon="7.2363640">
        <ele>1614.8</ele>
        <time>2017-07-25T07:48:00Z</time>
      </trkpt>
      <trkpt lat="44.6075070" lon="7.2365340">
        <ele>1615.2</ele>
        <time>2017-07-25T07:48:04Z</time>
      </trkpt>
      <trkpt lat="44.6076160" lon="7.2366590">
        <ele>1616.0</ele>
        <time>2017-07-25T07:48:08Z</time>
      </trkpt>
      <trkpt lat="44.6076480" lon="7.2366800">
        <ele>1616.2</ele>
        <time>2017-07-25T07:48:09Z</time>
      </trkpt>
      <trkpt lat="44.6077360" lon="7.2368230">
        <ele>1616.8</ele>
        <time>2017-07-25T07:48:13Z</time>
      </trkpt>
      <trkpt lat="44.6077600" lon="7.2368600">
        <ele>1617.2</ele>
        <time>2017-07-25T07:48:14Z</time>
      </trkpt>
      <trkpt lat="44.6078590" lon="7.2369810">
        <ele>1618.4</ele>
        <time>2017-07-25T07:48:18Z</time>
      </trkpt>
      <trkpt lat="44.6078840" lon="7.2370000">
        <ele>1618.6</ele>
        <time>2017-07-25T07:48:19Z</time>
      </trkpt>
      <trkpt lat="44.6079170" lon="7.2370800">
        <ele>1619.0</ele>
        <time>2017-07-25T07:48:21Z</time>
      </trkpt>
      <trkpt lat="44.6079070" lon="7.2371270">
        <ele>1619.2</ele>
        <time>2017-07-25T07:48:22Z</time>
      </trkpt>
      <trkpt lat="44.6078770" lon="7.2371640">
        <ele>1619.6</ele>
        <time>2017-07-25T07:48:23Z</time>
      </trkpt>
      <trkpt lat="44.6078080" lon="7.2372300">
        <ele>1620.2</ele>
        <time>2017-07-25T07:48:25Z</time>
      </trkpt>
      <trkpt lat="44.6077770" lon="7.2372750">
        <ele>1620.4</ele>
        <time>2017-07-25T07:48:26Z</time>
      </trkpt>
      <trkpt lat="44.6077470" lon="7.2373260">
        <ele>1620.6</ele>
        <time>2017-07-25T07:48:27Z</time>
      </trkpt>
      <trkpt lat="44.6076780" lon="7.2375040">
        <ele>1621.6</ele>
        <time>2017-07-25T07:48:30Z</time>
      </trkpt>
      <trkpt lat="44.6075950" lon="7.2376770">
        <ele>1623.0</ele>
        <time>2017-07-25T07:48:33Z</time>
      </trkpt>
      <trkpt lat="44.6075030" lon="7.2377390">
        <ele>1623.6</ele>
        <time>2017-07-25T07:48:35Z</time>
      </trkpt>
      <trkpt lat="44.6074190" lon="7.2377930">
        <ele>1624.4</ele>
        <time>2017-07-25T07:48:37Z</time>
      </trkpt>
      <trkpt lat="44.6073820" lon="7.2378260">
        <ele>1624.8</ele>
        <time>2017-07-25T07:48:38Z</time>
      </trkpt>
      <trkpt lat="44.6073460" lon="7.2378570">
        <ele>1625.4</ele>
        <time>2017-07-25T07:48:39Z</time>
      </trkpt>
      <trkpt lat="44.6072860" lon="7.2379190">
        <ele>1626.0</ele>
        <time>2017-07-25T07:48:41Z</time>
      </trkpt>
      <trkpt lat="44.6072470" lon="7.2379250">
        <ele>1626.4</ele>
        <time>2017-07-25T07:48:42Z</time>
      </trkpt>
      <trkpt lat="44.6071610" lon="7.2380040">
        <ele>1627.4</ele>
        <time>2017-07-25T07:48:45Z</time>
      </trkpt>
      <trkpt lat="44.6071260" lon="7.2381830">
        <ele>1627.8</ele>
        <time>2017-07-25T07:48:49Z</time>
      </trkpt>
      <trkpt lat="44.6071950" lon="7.2382950">
        <ele>1628.2</ele>
        <time>2017-07-25T07:48:52Z</time>
      </trkpt>
      <trkpt lat="44.6072610" lon="7.2383410">
        <ele>1628.6</ele>
        <time>2017-07-25T07:48:54Z</time>
      </trkpt>
      <trkpt lat="44.6073060" lon="7.2384070">
        <ele>1628.6</ele>
        <time>2017-07-25T07:48:56Z</time>
      </trkpt>
      <trkpt lat="44.6073420" lon="7.2384820">
        <ele>1628.4</ele>
        <time>2017-07-25T07:48:58Z</time>
      </trkpt>
      <trkpt lat="44.6073870" lon="7.2386390">
        <ele>1628.4</ele>
        <time>2017-07-25T07:49:02Z</time>
      </trkpt>
      <trkpt lat="44.6074850" lon="7.2387350">
        <ele>1629.0</ele>
        <time>2017-07-25T07:49:06Z</time>
      </trkpt>
      <trkpt lat="44.6075510" lon="7.2389000">
        <ele>1628.8</ele>
        <time>2017-07-25T07:49:10Z</time>
      </trkpt>
      <trkpt lat="44.6075190" lon="7.2391470">
        <ele>1629.2</ele>
        <time>2017-07-25T07:49:15Z</time>
      </trkpt>
      <trkpt lat="44.6074540" lon="7.2392020">
        <ele>1629.8</ele>
        <time>2017-07-25T07:49:17Z</time>
      </trkpt>
      <trkpt lat="44.6073970" lon="7.2392330">
        <ele>1630.4</ele>
        <time>2017-07-25T07:49:19Z</time>
      </trkpt>
      <trkpt lat="44.6073370" lon="7.2392530">
        <ele>1630.8</ele>
        <time>2017-07-25T07:49:21Z</time>
      </trkpt>
      <trkpt lat="44.6071980" lon="7.2393600">
        <ele>1631.6</ele>
        <time>2017-07-25T07:49:26Z</time>
      </trkpt>
      <trkpt lat="44.6071660" lon="7.2393800">
        <ele>1632.0</ele>
        <time>2017-07-25T07:49:27Z</time>
      </trkpt>
      <trkpt lat="44.6071300" lon="7.2393790">
        <ele>1632.2</ele>
        <time>2017-07-25T07:49:28Z</time>
      </trkpt>
      <trkpt lat="44.6070740" lon="7.2394060">
        <ele>1632.2</ele>
        <time>2017-07-25T07:49:30Z</time>
      </trkpt>
      <trkpt lat="44.6069600" lon="7.2395520">
        <ele>1633.0</ele>
        <time>2017-07-25T07:49:35Z</time>
      </trkpt>
      <trkpt lat="44.6069400" lon="7.2395880">
        <ele>1633.0</ele>
        <time>2017-07-25T07:49:36Z</time>
      </trkpt>
      <trkpt lat="44.6068990" lon="7.2397550">
        <ele>1634.0</ele>
        <time>2017-07-25T07:49:40Z</time>
      </trkpt>
      <trkpt lat="44.6068920" lon="7.2398010">
        <ele>1634.2</ele>
        <time>2017-07-25T07:49:41Z</time>
      </trkpt>
      <trkpt lat="44.6068740" lon="7.2399870">
        <ele>1635.4</ele>
        <time>2017-07-25T07:49:45Z</time>
      </trkpt>
      <trkpt lat="44.6068680" lon="7.2400780">
        <ele>1636.0</ele>
        <time>2017-07-25T07:49:47Z</time>
      </trkpt>
      <trkpt lat="44.6068680" lon="7.2402100">
        <ele>1636.6</ele>
        <time>2017-07-25T07:49:50Z</time>
      </trkpt>
      <trkpt lat="44.6068390" lon="7.2403600">
        <ele>1637.4</ele>
        <time>2017-07-25T07:49:54Z</time>
      </trkpt>
      <trkpt lat="44.6068300" lon="7.2404340">
        <ele>1637.6</ele>
        <time>2017-07-25T07:49:56Z</time>
      </trkpt>
      <trkpt lat="44.6068510" lon="7.2405960">
        <ele>1638.6</ele>
        <time>2017-07-25T07:50:00Z</time>
      </trkpt>
      <trkpt lat="44.6068580" lon="7.2406330">
        <ele>1638.8</ele>
        <time>2017-07-25T07:50:01Z</time>
      </trkpt>
      <trkpt lat="44.6068750" lon="7.2408520">
        <ele>1639.8</ele>
        <time>2017-07-25T07:50:07Z</time>
      </trkpt>
      <trkpt lat="44.6068760" lon="7.2409340">
        <ele>1640.0</ele>
        <time>2017-07-25T07:50:09Z</time>
      </trkpt>
      <trkpt lat="44.6068470" lon="7.2410900">
        <ele>1641.0</ele>
        <time>2017-07-25T07:50:13Z</time>
      </trkpt>
      <trkpt lat="44.6068450" lon="7.2411280">
        <ele>1641.2</ele>
        <time>2017-07-25T07:50:14Z</time>
      </trkpt>
      <trkpt lat="44.6068620" lon="7.2412930">
        <ele>1641.8</ele>
        <time>2017-07-25T07:50:18Z</time>
      </trkpt>
      <trkpt lat="44.6068610" lon="7.2414220">
        <ele>1642.2</ele>
        <time>2017-07-25T07:50:21Z</time>
      </trkpt>
      <trkpt lat="44.6068220" lon="7.2414970">
        <ele>1642.4</ele>
        <time>2017-07-25T07:50:23Z</time>
      </trkpt>
      <trkpt lat="44.6067780" lon="7.2416840">
        <ele>1643.4</ele>
        <time>2017-07-25T07:50:28Z</time>
      </trkpt>
      <trkpt lat="44.6067630" lon="7.2417630">
        <ele>1644.4</ele>
        <time>2017-07-25T07:50:30Z</time>
      </trkpt>
      <trkpt lat="44.6067510" lon="7.2419250">
        <ele>1645.6</ele>
        <time>2017-07-25T07:50:34Z</time>
      </trkpt>
      <trkpt lat="44.6067490" lon="7.2420050">
        <ele>1646.4</ele>
        <time>2017-07-25T07:50:36Z</time>
      </trkpt>
      <trkpt lat="44.6067490" lon="7.2420420">
        <ele>1646.8</ele>
        <time>2017-07-25T07:50:37Z</time>
      </trkpt>
      <trkpt lat="44.6067620" lon="7.2421550">
        <ele>1647.8</ele>
        <time>2017-07-25T07:50:40Z</time>
      </trkpt>
      <trkpt lat="44.6067780" lon="7.2422840">
        <ele>1649.2</ele>
        <time>2017-07-25T07:50:43Z</time>
      </trkpt>
      <trkpt lat="44.6067860" lon="7.2424400">
        <ele>1650.2</ele>
        <time>2017-07-25T07:50:47Z</time>
      </trkpt>
      <trkpt lat="44.6068030" lon="7.2425180">
        <ele>1650.8</ele>
        <time>2017-07-25T07:50:49Z</time>
      </trkpt>
      <trkpt lat="44.6068290" lon="7.2425890">
        <ele>1651.2</ele>
        <time>2017-07-25T07:50:51Z</time>
      </trkpt>
      <trkpt lat="44.6068820" lon="7.2427190">
        <ele>1652.4</ele>
        <time>2017-07-25T07:50:55Z</time>
      </trkpt>
      <trkpt lat="44.6068990" lon="7.2429200">
        <ele>1653.0</ele>
        <time>2017-07-25T07:51:01Z</time>
      </trkpt>
      <trkpt lat="44.6068820" lon="7.2429490">
        <ele>1653.0</ele>
        <time>2017-07-25T07:51:02Z</time>
      </trkpt>
      <trkpt lat="44.6068090" lon="7.2430000">
        <ele>1653.2</ele>
        <time>2017-07-25T07:51:05Z</time>
      </trkpt>
      <trkpt lat="44.6067830" lon="7.2430040">
        <ele>1653.4</ele>
        <time>2017-07-25T07:51:06Z</time>
      </trkpt>
      <trkpt lat="44.6067020" lon="7.2430310">
        <ele>1654.0</ele>
        <time>2017-07-25T07:51:09Z</time>
      </trkpt>
      <trkpt lat="44.6066560" lon="7.2430610">
        <ele>1654.6</ele>
        <time>2017-07-25T07:51:11Z</time>
      </trkpt>
      <trkpt lat="44.6065940" lon="7.2431580">
        <ele>1655.6</ele>
        <time>2017-07-25T07:51:15Z</time>
      </trkpt>
      <trkpt lat="44.6065680" lon="7.2432340">
        <ele>1655.8</ele>
        <time>2017-07-25T07:51:17Z</time>
      </trkpt>
      <trkpt lat="44.6065400" lon="7.2434310">
        <ele>1657.0</ele>
        <time>2017-07-25T07:51:22Z</time>
      </trkpt>
      <trkpt lat="44.6065400" lon="7.2434720">
        <ele>1657.4</ele>
        <time>2017-07-25T07:51:23Z</time>
      </trkpt>
      <trkpt lat="44.6065800" lon="7.2436400">
        <ele>1658.2</ele>
        <time>2017-07-25T07:51:27Z</time>
      </trkpt>
      <trkpt lat="44.6066000" lon="7.2436720">
        <ele>1658.6</ele>
        <time>2017-07-25T07:51:28Z</time>
      </trkpt>
      <trkpt lat="44.6066260" lon="7.2437930">
        <ele>1659.4</ele>
        <time>2017-07-25T07:51:31Z</time>
      </trkpt>
      <trkpt lat="44.6066240" lon="7.2438810">
        <ele>1660.0</ele>
        <time>2017-07-25T07:51:33Z</time>
      </trkpt>
      <trkpt lat="44.6066140" lon="7.2439250">
        <ele>1660.4</ele>
        <time>2017-07-25T07:51:34Z</time>
      </trkpt>
      <trkpt lat="44.6065910" lon="7.2439580">
        <ele>1660.2</ele>
        <time>2017-07-25T07:51:35Z</time>
      </trkpt>
      <trkpt lat="44.6065440" lon="7.2440140">
        <ele>1660.0</ele>
        <time>2017-07-25T07:51:37Z</time>
      </trkpt>
      <trkpt lat="44.6064620" lon="7.2440810">
        <ele>1661.6</ele>
        <time>2017-07-25T07:51:40Z</time>
      </trkpt>
      <trkpt lat="44.6064140" lon="7.2441130">
        <ele>1662.8</ele>
        <time>2017-07-25T07:51:42Z</time>
      </trkpt>
      <trkpt lat="44.6063750" lon="7.2441370">
        <ele>1663.6</ele>
        <time>2017-07-25T07:51:44Z</time>
      </trkpt>
      <trkpt lat="44.6063390" lon="7.2441700">
        <ele>1664.0</ele>
        <time>2017-07-25T07:51:46Z</time>
      </trkpt>
      <trkpt lat="44.6062670" lon="7.2442320">
        <ele>1665.0</ele>
        <time>2017-07-25T07:51:49Z</time>
      </trkpt>
      <trkpt lat="44.6062400" lon="7.2442450">
        <ele>1665.2</ele>
        <time>2017-07-25T07:51:50Z</time>
      </trkpt>
      <trkpt lat="44.6061960" lon="7.2442870">
        <ele>1665.2</ele>
        <time>2017-07-25T07:51:52Z</time>
      </trkpt>
      <trkpt lat="44.6061510" lon="7.2443730">
        <ele>1665.4</ele>
        <time>2017-07-25T07:51:55Z</time>
      </trkpt>
      <trkpt lat="44.6060930" lon="7.2444540">
        <ele>1666.2</ele>
        <time>2017-07-25T07:51:58Z</time>
      </trkpt>
      <trkpt lat="44.6060320" lon="7.2445320">
        <ele>1666.4</ele>
        <time>2017-07-25T07:52:01Z</time>
      </trkpt>
      <trkpt lat="44.6059810" lon="7.2447400">
        <ele>1667.0</ele>
        <time>2017-07-25T07:52:07Z</time>
      </trkpt>
      <trkpt lat="44.6059800" lon="7.2447770">
        <ele>1667.2</ele>
        <time>2017-07-25T07:52:08Z</time>
      </trkpt>
      <trkpt lat="44.6059860" lon="7.2450240">
        <ele>1668.2</ele>
        <time>2017-07-25T07:52:14Z</time>
      </trkpt>
      <trkpt lat="44.6059900" lon="7.2451850">
        <ele>1669.4</ele>
        <time>2017-07-25T07:52:18Z</time>
      </trkpt>
      <trkpt lat="44.6060130" lon="7.2453040">
        <ele>1670.4</ele>
        <time>2017-07-25T07:52:21Z</time>
      </trkpt>
      <trkpt lat="44.6060240" lon="7.2453390">
        <ele>1670.8</ele>
        <time>2017-07-25T07:52:22Z</time>
      </trkpt>
      <trkpt lat="44.6060480" lon="7.2454070">
        <ele>1671.6</ele>
        <time>2017-07-25T07:52:24Z</time>
      </trkpt>
      <trkpt lat="44.6060450" lon="7.2455110">
        <ele>1672.6</ele>
        <time>2017-07-25T07:52:27Z</time>
      </trkpt>
      <trkpt lat="44.6060360" lon="7.2455390">
        <ele>1673.0</ele>
        <time>2017-07-25T07:52:28Z</time>
      </trkpt>
      <trkpt lat="44.6060100" lon="7.2456070">
        <ele>1673.8</ele>
        <time>2017-07-25T07:52:30Z</time>
      </trkpt>
      <trkpt lat="44.6059650" lon="7.2456820">
        <ele>1675.0</ele>
        <time>2017-07-25T07:52:32Z</time>
      </trkpt>
      <trkpt lat="44.6059290" lon="7.2457530">
        <ele>1675.6</ele>
        <time>2017-07-25T07:52:34Z</time>
      </trkpt>
      <trkpt lat="44.6058870" lon="7.2458140">
        <ele>1676.2</ele>
        <time>2017-07-25T07:52:36Z</time>
      </trkpt>
      <trkpt lat="44.6058030" lon="7.2459500">
        <ele>1677.4</ele>
        <time>2017-07-25T07:52:40Z</time>
      </trkpt>
      <trkpt lat="44.6056930" lon="7.2461420">
        <ele>1678.0</ele>
        <time>2017-07-25T07:52:46Z</time>
      </trkpt>
      <trkpt lat="44.6056780" lon="7.2462560">
        <ele>1678.6</ele>
        <time>2017-07-25T07:52:49Z</time>
      </trkpt>
      <trkpt lat="44.6056780" lon="7.2463710">
        <ele>1679.2</ele>
        <time>2017-07-25T07:52:52Z</time>
      </trkpt>
      <trkpt lat="44.6056060" lon="7.2466010">
        <ele>1679.4</ele>
        <time>2017-07-25T07:52:58Z</time>
      </trkpt>
      <trkpt lat="44.6055820" lon="7.2466240">
        <ele>1679.4</ele>
        <time>2017-07-25T07:52:59Z</time>
      </trkpt>
      <trkpt lat="44.6055470" lon="7.2467380">
        <ele>1679.4</ele>
        <time>2017-07-25T07:53:02Z</time>
      </trkpt>
      <trkpt lat="44.6055140" lon="7.2467900">
        <ele>1679.8</ele>
        <time>2017-07-25T07:53:04Z</time>
      </trkpt>
      <trkpt lat="44.6054730" lon="7.2468410">
        <ele>1680.0</ele>
        <time>2017-07-25T07:53:06Z</time>
      </trkpt>
      <trkpt lat="44.6054540" lon="7.2468680">
        <ele>1680.2</ele>
        <time>2017-07-25T07:53:07Z</time>
      </trkpt>
      <trkpt lat="44.6053860" lon="7.2469380">
        <ele>1680.8</ele>
        <time>2017-07-25T07:53:10Z</time>
      </trkpt>
      <trkpt lat="44.6053290" lon="7.2470310">
        <ele>1681.0</ele>
        <time>2017-07-25T07:53:13Z</time>
      </trkpt>
      <trkpt lat="44.6052890" lon="7.2472590">
        <ele>1681.6</ele>
        <time>2017-07-25T07:53:19Z</time>
      </trkpt>
      <trkpt lat="44.6053150" lon="7.2474990">
        <ele>1681.8</ele>
        <time>2017-07-25T07:53:25Z</time>
      </trkpt>
      <trkpt lat="44.6053460" lon="7.2476400">
        <ele>1683.0</ele>
        <time>2017-07-25T07:53:29Z</time>
      </trkpt>
      <trkpt lat="44.6053730" lon="7.2476990">
        <ele>1683.4</ele>
        <time>2017-07-25T07:53:31Z</time>
      </trkpt>
      <trkpt lat="44.6053730" lon="7.2478830">
        <ele>1684.0</ele>
        <time>2017-07-25T07:53:36Z</time>
      </trkpt>
      <trkpt lat="44.6053640" lon="7.2479550">
        <ele>1684.0</ele>
        <time>2017-07-25T07:53:38Z</time>
      </trkpt>
      <trkpt lat="44.6053370" lon="7.2480940">
        <ele>1685.2</ele>
        <time>2017-07-25T07:53:42Z</time>
      </trkpt>
      <trkpt lat="44.6053300" lon="7.2481320">
        <ele>1685.8</ele>
        <time>2017-07-25T07:53:43Z</time>
      </trkpt>
      <trkpt lat="44.6053250" lon="7.2481680">
        <ele>1686.2</ele>
        <time>2017-07-25T07:53:44Z</time>
      </trkpt>
      <trkpt lat="44.6053030" lon="7.2482860">
        <ele>1687.4</ele>
        <time>2017-07-25T07:53:47Z</time>
      </trkpt>
      <trkpt lat="44.6052600" lon="7.2483770">
        <ele>1688.4</ele>
        <time>2017-07-25T07:53:50Z</time>
      </trkpt>
      <trkpt lat="44.6051640" lon="7.2486420">
        <ele>1689.6</ele>
        <time>2017-07-25T07:53:57Z</time>
      </trkpt>
      <trkpt lat="44.6051620" lon="7.2486850">
        <ele>1689.6</ele>
        <time>2017-07-25T07:53:58Z</time>
      </trkpt>
      <trkpt lat="44.6051450" lon="7.2488340">
        <ele>1690.8</ele>
        <time>2017-07-25T07:54:02Z</time>
      </trkpt>
      <trkpt lat="44.6051140" lon="7.2489500">
        <ele>1691.6</ele>
        <time>2017-07-25T07:54:05Z</time>
      </trkpt>
      <trkpt lat="44.6050990" lon="7.2489810">
        <ele>1692.0</ele>
        <time>2017-07-25T07:54:06Z</time>
      </trkpt>
      <trkpt lat="44.6050670" lon="7.2490650">
        <ele>1693.0</ele>
        <time>2017-07-25T07:54:09Z</time>
      </trkpt>
      <trkpt lat="44.6050520" lon="7.2491420">
        <ele>1693.4</ele>
        <time>2017-07-25T07:54:11Z</time>
      </trkpt>
      <trkpt lat="44.6050270" lon="7.2492570">
        <ele>1694.2</ele>
        <time>2017-07-25T07:54:14Z</time>
      </trkpt>
      <trkpt lat="44.6050190" lon="7.2494280">
        <ele>1695.0</ele>
        <time>2017-07-25T07:54:18Z</time>
      </trkpt>
      <trkpt lat="44.6050190" lon="7.2495440">
        <ele>1695.4</ele>
        <time>2017-07-25T07:54:21Z</time>
      </trkpt>
      <trkpt lat="44.6050050" lon="7.2496230">
        <ele>1695.6</ele>
        <time>2017-07-25T07:54:23Z</time>
      </trkpt>
      <trkpt lat="44.6050280" lon="7.2498980">
        <ele>1696.4</ele>
        <time>2017-07-25T07:54:29Z</time>
      </trkpt>
      <trkpt lat="44.6050340" lon="7.2499440">
        <ele>1696.8</ele>
        <time>2017-07-25T07:54:30Z</time>
      </trkpt>
      <trkpt lat="44.6050460" lon="7.2501670">
        <ele>1697.0</ele>
        <time>2017-07-25T07:54:35Z</time>
      </trkpt>
      <trkpt lat="44.6050720" lon="7.2504980">
        <ele>1697.2</ele>
        <time>2017-07-25T07:54:42Z</time>
      </trkpt>
      <trkpt lat="44.6050130" lon="7.2507450">
        <ele>1697.0</ele>
        <time>2017-07-25T07:54:47Z</time>
      </trkpt>
      <trkpt lat="44.6050350" lon="7.2509480">
        <ele>1697.6</ele>
        <time>2017-07-25T07:54:51Z</time>
      </trkpt>
      <trkpt lat="44.6051460" lon="7.2510130">
        <ele>1697.8</ele>
        <time>2017-07-25T07:54:54Z</time>
      </trkpt>
      <trkpt lat="44.6051930" lon="7.2509910">
        <ele>1698.2</ele>
        <time>2017-07-25T07:54:55Z</time>
      </trkpt>
      <trkpt lat="44.6053080" lon="7.2509300">
        <ele>1698.2</ele>
        <time>2017-07-25T07:54:57Z</time>
      </trkpt>
      <trkpt lat="44.6055920" lon="7.2507550">
        <ele>1698.6</ele>
        <time>2017-07-25T07:55:01Z</time>
      </trkpt>
      <trkpt lat="44.6058230" lon="7.2506040">
        <ele>1697.8</ele>
        <time>2017-07-25T07:55:04Z</time>
      </trkpt>
      <trkpt lat="44.6059900" lon="7.2506830">
        <ele>1697.0</ele>
        <time>2017-07-25T07:55:06Z</time>
      </trkpt>
      <trkpt lat="44.6061710" lon="7.2506850">
        <ele>1696.6</ele>
        <time>2017-07-25T07:55:08Z</time>
      </trkpt>
      <trkpt lat="44.6062550" lon="7.2506580">
        <ele>1696.4</ele>
        <time>2017-07-25T07:55:09Z</time>
      </trkpt>
      <trkpt lat="44.6064320" lon="7.2506330">
        <ele>1695.4</ele>
        <time>2017-07-25T07:55:11Z</time>
      </trkpt>
      <trkpt lat="44.6066060" lon="7.2505800">
        <ele>1694.0</ele>
        <time>2017-07-25T07:55:13Z</time>
      </trkpt>
      <trkpt lat="44.6066970" lon="7.2505630">
        <ele>1693.6</ele>
        <time>2017-07-25T07:55:14Z</time>
      </trkpt>
      <trkpt lat="44.6067870" lon="7.2505570">
        <ele>1693.0</ele>
        <time>2017-07-25T07:55:15Z</time>
      </trkpt>
      <trkpt lat="44.6069750" lon="7.2505650">
        <ele>1691.6</ele>
        <time>2017-07-25T07:55:17Z</time>
      </trkpt>
      <trkpt lat="44.6070710" lon="7.2505830">
        <ele>1691.2</ele>
        <time>2017-07-25T07:55:18Z</time>
      </trkpt>
      <trkpt lat="44.6071690" lon="7.2505980">
        <ele>1689.6</ele>
        <time>2017-07-25T07:55:19Z</time>
      </trkpt>
      <trkpt lat="44.6074510" lon="7.2506320">
        <ele>1688.0</ele>
        <time>2017-07-25T07:55:22Z</time>
      </trkpt>
      <trkpt lat="44.6076360" lon="7.2506420">
        <ele>1686.2</ele>
        <time>2017-07-25T07:55:24Z</time>
      </trkpt>
      <trkpt lat="44.6078180" lon="7.2506210">
        <ele>1685.8</ele>
        <time>2017-07-25T07:55:26Z</time>
      </trkpt>
      <trkpt lat="44.6080060" lon="7.2505910">
        <ele>1684.6</ele>
        <time>2017-07-25T07:55:28Z</time>
      </trkpt>
      <trkpt lat="44.6081940" lon="7.2505270">
        <ele>1682.6</ele>
        <time>2017-07-25T07:55:30Z</time>
      </trkpt>
      <trkpt lat="44.6082820" lon="7.2504790">
        <ele>1681.6</ele>
        <time>2017-07-25T07:55:31Z</time>
      </trkpt>
      <trkpt lat="44.6083700" lon="7.2504250">
        <ele>1680.8</ele>
        <time>2017-07-25T07:55:32Z</time>
      </trkpt>
      <trkpt lat="44.6086360" lon="7.2502460">
        <ele>1679.4</ele>
        <time>2017-07-25T07:55:35Z</time>
      </trkpt>
      <trkpt lat="44.6087210" lon="7.2501870">
        <ele>1678.8</ele>
        <time>2017-07-25T07:55:36Z</time>
      </trkpt>
      <trkpt lat="44.6087950" lon="7.2501350">
        <ele>1677.8</ele>
        <time>2017-07-25T07:55:37Z</time>
      </trkpt>
      <trkpt lat="44.6089510" lon="7.2500520">
        <ele>1675.6</ele>
        <time>2017-07-25T07:55:39Z</time>
      </trkpt>
      <trkpt lat="44.6090410" lon="7.2500120">
        <ele>1675.0</ele>
        <time>2017-07-25T07:55:40Z</time>
      </trkpt>
      <trkpt lat="44.6091330" lon="7.2499790">
        <ele>1674.0</ele>
        <time>2017-07-25T07:55:41Z</time>
      </trkpt>
      <trkpt lat="44.6093210" lon="7.2499470">
        <ele>1671.4</ele>
        <time>2017-07-25T07:55:43Z</time>
      </trkpt>
      <trkpt lat="44.6094100" lon="7.2499300">
        <ele>1670.4</ele>
        <time>2017-07-25T07:55:44Z</time>
      </trkpt>
      <trkpt lat="44.6095060" lon="7.2499050">
        <ele>1669.8</ele>
        <time>2017-07-25T07:55:45Z</time>
      </trkpt>
      <trkpt lat="44.6096990" lon="7.2498560">
        <ele>1668.4</ele>
        <time>2017-07-25T07:55:47Z</time>
      </trkpt>
      <trkpt lat="44.6098810" lon="7.2498720">
        <ele>1665.8</ele>
        <time>2017-07-25T07:55:49Z</time>
      </trkpt>
      <trkpt lat="44.6099730" lon="7.2499090">
        <ele>1664.4</ele>
        <time>2017-07-25T07:55:50Z</time>
      </trkpt>
      <trkpt lat="44.6101340" lon="7.2500250">
        <ele>1662.6</ele>
        <time>2017-07-25T07:55:52Z</time>
      </trkpt>
      <trkpt lat="44.6102940" lon="7.2501330">
        <ele>1661.0</ele>
        <time>2017-07-25T07:55:54Z</time>
      </trkpt>
      <trkpt lat="44.6103830" lon="7.2501350">
        <ele>1660.2</ele>
        <time>2017-07-25T07:55:55Z</time>
      </trkpt>
      <trkpt lat="44.6104750" lon="7.2501300">
        <ele>1659.2</ele>
        <time>2017-07-25T07:55:56Z</time>
      </trkpt>
      <trkpt lat="44.6105670" lon="7.2501210">
        <ele>1658.0</ele>
        <time>2017-07-25T07:55:57Z</time>
      </trkpt>
      <trkpt lat="44.6107520" lon="7.2501070">
        <ele>1656.6</ele>
        <time>2017-07-25T07:55:59Z</time>
      </trkpt>
      <trkpt lat="44.6109390" lon="7.2500550">
        <ele>1654.6</ele>
        <time>2017-07-25T07:56:01Z</time>
      </trkpt>
      <trkpt lat="44.6111050" lon="7.2500090">
        <ele>1652.6</ele>
        <time>2017-07-25T07:56:03Z</time>
      </trkpt>
      <trkpt lat="44.6111920" lon="7.2500130">
        <ele>1651.6</ele>
        <time>2017-07-25T07:56:04Z</time>
      </trkpt>
      <trkpt lat="44.6112790" lon="7.2500470">
        <ele>1650.6</ele>
        <time>2017-07-25T07:56:05Z</time>
      </trkpt>
      <trkpt lat="44.6114410" lon="7.2501670">
        <ele>1647.6</ele>
        <time>2017-07-25T07:56:07Z</time>
      </trkpt>
      <trkpt lat="44.6115190" lon="7.2502210">
        <ele>1646.4</ele>
        <time>2017-07-25T07:56:08Z</time>
      </trkpt>
      <trkpt lat="44.6116850" lon="7.2503180">
        <ele>1644.4</ele>
        <time>2017-07-25T07:56:10Z</time>
      </trkpt>
      <trkpt lat="44.6118640" lon="7.2504110">
        <ele>1643.0</ele>
        <time>2017-07-25T07:56:12Z</time>
      </trkpt>
      <trkpt lat="44.6120370" lon="7.2505260">
        <ele>1641.4</ele>
        <time>2017-07-25T07:56:14Z</time>
      </trkpt>
      <trkpt lat="44.6122190" lon="7.2506320">
        <ele>1640.2</ele>
        <time>2017-07-25T07:56:16Z</time>
      </trkpt>
      <trkpt lat="44.6124040" lon="7.2507370">
        <ele>1638.4</ele>
        <time>2017-07-25T07:56:18Z</time>
      </trkpt>
      <trkpt lat="44.6124840" lon="7.2508100">
        <ele>1637.0</ele>
        <time>2017-07-25T07:56:19Z</time>
      </trkpt>
      <trkpt lat="44.6125640" lon="7.2508770">
        <ele>1635.6</ele>
        <time>2017-07-25T07:56:20Z</time>
      </trkpt>
      <trkpt lat="44.6126400" lon="7.2509410">
        <ele>1634.4</ele>
        <time>2017-07-25T07:56:21Z</time>
      </trkpt>
      <trkpt lat="44.6127970" lon="7.2510550">
        <ele>1632.6</ele>
        <time>2017-07-25T07:56:23Z</time>
      </trkpt>
      <trkpt lat="44.6128640" lon="7.2511270">
        <ele>1631.8</ele>
        <time>2017-07-25T07:56:24Z</time>
      </trkpt>
      <trkpt lat="44.6129270" lon="7.2512120">
        <ele>1630.0</ele>
        <time>2017-07-25T07:56:25Z</time>
      </trkpt>
      <trkpt lat="44.6130300" lon="7.2513560">
        <ele>1628.0</ele>
        <time>2017-07-25T07:56:27Z</time>
      </trkpt>
      <trkpt lat="44.6131010" lon="7.2513760">
        <ele>1627.2</ele>
        <time>2017-07-25T07:56:28Z</time>
      </trkpt>
      <trkpt lat="44.6131730" lon="7.2514130">
        <ele>1626.2</ele>
        <time>2017-07-25T07:56:29Z</time>
      </trkpt>
      <trkpt lat="44.6132460" lon="7.2514690">
        <ele>1625.2</ele>
        <time>2017-07-25T07:56:30Z</time>
      </trkpt>
      <trkpt lat="44.6133140" lon="7.2515310">
        <ele>1623.2</ele>
        <time>2017-07-25T07:56:31Z</time>
      </trkpt>
      <trkpt lat="44.6133760" lon="7.2515770">
        <ele>1622.4</ele>
        <time>2017-07-25T07:56:32Z</time>
      </trkpt>
      <trkpt lat="44.6134330" lon="7.2516210">
        <ele>1621.8</ele>
        <time>2017-07-25T07:56:33Z</time>
      </trkpt>
      <trkpt lat="44.6134860" lon="7.2516660">
        <ele>1620.6</ele>
        <time>2017-07-25T07:56:34Z</time>
      </trkpt>
      <trkpt lat="44.6135410" lon="7.2517150">
        <ele>1619.4</ele>
        <time>2017-07-25T07:56:35Z</time>
      </trkpt>
      <trkpt lat="44.6135970" lon="7.2517750">
        <ele>1618.4</ele>
        <time>2017-07-25T07:56:36Z</time>
      </trkpt>
      <trkpt lat="44.6136540" lon="7.2518360">
        <ele>1617.6</ele>
        <time>2017-07-25T07:56:37Z</time>
      </trkpt>
      <trkpt lat="44.6137140" lon="7.2518940">
        <ele>1616.8</ele>
        <time>2017-07-25T07:56:38Z</time>
      </trkpt>
      <trkpt lat="44.6138410" lon="7.2520000">
        <ele>1615.0</ele>
        <time>2017-07-25T07:56:40Z</time>
      </trkpt>
      <trkpt lat="44.6139160" lon="7.2520360">
        <ele>1614.0</ele>
        <time>2017-07-25T07:56:41Z</time>
      </trkpt>
      <trkpt lat="44.6139940" lon="7.2520680">
        <ele>1613.0</ele>
        <time>2017-07-25T07:56:42Z</time>
      </trkpt>
      <trkpt lat="44.6140700" lon="7.2521010">
        <ele>1611.6</ele>
        <time>2017-07-25T07:56:43Z</time>
      </trkpt>
      <trkpt lat="44.6141470" lon="7.2521120">
        <ele>1611.2</ele>
        <time>2017-07-25T07:56:44Z</time>
      </trkpt>
      <trkpt lat="44.6142290" lon="7.2521190">
        <ele>1610.4</ele>
        <time>2017-07-25T07:56:45Z</time>
      </trkpt>
      <trkpt lat="44.6143850" lon="7.2521220">
        <ele>1608.8</ele>
        <time>2017-07-25T07:56:47Z</time>
      </trkpt>
      <trkpt lat="44.6145410" lon="7.2521080">
        <ele>1607.8</ele>
        <time>2017-07-25T07:56:49Z</time>
      </trkpt>
      <trkpt lat="44.6146990" lon="7.2520310">
        <ele>1606.6</ele>
        <time>2017-07-25T07:56:51Z</time>
      </trkpt>
      <trkpt lat="44.6148530" lon="7.2519370">
        <ele>1604.8</ele>
        <time>2017-07-25T07:56:53Z</time>
      </trkpt>
      <trkpt lat="44.6149230" lon="7.2518740">
        <ele>1604.0</ele>
        <time>2017-07-25T07:56:54Z</time>
      </trkpt>
      <trkpt lat="44.6149600" lon="7.2517950">
        <ele>1603.6</ele>
        <time>2017-07-25T07:56:55Z</time>
      </trkpt>
      <trkpt lat="44.6150390" lon="7.2516880">
        <ele>1602.2</ele>
        <time>2017-07-25T07:56:57Z</time>
      </trkpt>
      <trkpt lat="44.6150680" lon="7.2516880">
        <ele>1601.4</ele>
        <time>2017-07-25T07:56:58Z</time>
      </trkpt>
      <trkpt lat="44.6150890" lon="7.2517120">
        <ele>1600.6</ele>
        <time>2017-07-25T07:56:59Z</time>
      </trkpt>
      <trkpt lat="44.6150960" lon="7.2517490">
        <ele>1600.2</ele>
        <time>2017-07-25T07:57:00Z</time>
      </trkpt>
      <trkpt lat="44.6150640" lon="7.2517900">
        <ele>1599.6</ele>
        <time>2017-07-25T07:57:01Z</time>
      </trkpt>
      <trkpt lat="44.6150440" lon="7.2518350">
        <ele>1599.2</ele>
        <time>2017-07-25T07:57:02Z</time>
      </trkpt>
      <trkpt lat="44.6150140" lon="7.2519010">
        <ele>1598.6</ele>
        <time>2017-07-25T07:57:03Z</time>
      </trkpt>
      <trkpt lat="44.6149550" lon="7.2520780">
        <ele>1597.4</ele>
        <time>2017-07-25T07:57:05Z</time>
      </trkpt>
      <trkpt lat="44.6149030" lon="7.2522870">
        <ele>1596.0</ele>
        <time>2017-07-25T07:57:07Z</time>
      </trkpt>
      <trkpt lat="44.6148730" lon="7.2523990">
        <ele>1594.8</ele>
        <time>2017-07-25T07:57:08Z</time>
      </trkpt>
      <trkpt lat="44.6147900" lon="7.2525650">
        <ele>1593.8</ele>
        <time>2017-07-25T07:57:10Z</time>
      </trkpt>
      <trkpt lat="44.6146970" lon="7.2526930">
        <ele>1592.0</ele>
        <time>2017-07-25T07:57:13Z</time>
      </trkpt>
      <trkpt lat="44.6147160" lon="7.2527480">
        <ele>1590.6</ele>
        <time>2017-07-25T07:57:15Z</time>
      </trkpt>
      <trkpt lat="44.6147540" lon="7.2527310">
        <ele>1590.4</ele>
        <time>2017-07-25T07:57:16Z</time>
      </trkpt>
      <trkpt lat="44.6148250" lon="7.2526810">
        <ele>1589.4</ele>
        <time>2017-07-25T07:57:18Z</time>
      </trkpt>
      <trkpt lat="44.6149150" lon="7.2526220">
        <ele>1588.6</ele>
        <time>2017-07-25T07:57:20Z</time>
      </trkpt>
      <trkpt lat="44.6149650" lon="7.2525870">
        <ele>1588.2</ele>
        <time>2017-07-25T07:57:21Z</time>
      </trkpt>
      <trkpt lat="44.6150130" lon="7.2525200">
        <ele>1588.2</ele>
        <time>2017-07-25T07:57:22Z</time>
      </trkpt>
      <trkpt lat="44.6150890" lon="7.2523400">
        <ele>1587.4</ele>
        <time>2017-07-25T07:57:24Z</time>
      </trkpt>
      <trkpt lat="44.6151130" lon="7.2522340">
        <ele>1587.0</ele>
        <time>2017-07-25T07:57:25Z</time>
      </trkpt>
      <trkpt lat="44.6151920" lon="7.2520350">
        <ele>1587.0</ele>
        <time>2017-07-25T07:57:27Z</time>
      </trkpt>
      <trkpt lat="44.6153960" lon="7.2516330">
        <ele>1585.6</ele>
        <time>2017-07-25T07:57:31Z</time>
      </trkpt>
      <trkpt lat="44.6154930" lon="7.2514150">
        <ele>1584.2</ele>
        <time>2017-07-25T07:57:33Z</time>
      </trkpt>
      <trkpt lat="44.6156900" lon="7.2509670">
        <ele>1582.8</ele>
        <time>2017-07-25T07:57:37Z</time>
      </trkpt>
      <trkpt lat="44.6157850" lon="7.2507230">
        <ele>1581.2</ele>
        <time>2017-07-25T07:57:39Z</time>
      </trkpt>
      <trkpt lat="44.6158360" lon="7.2506100">
        <ele>1580.6</ele>
        <time>2017-07-25T07:57:40Z</time>
      </trkpt>
      <trkpt lat="44.6158880" lon="7.2504950">
        <ele>1579.8</ele>
        <time>2017-07-25T07:57:41Z</time>
      </trkpt>
      <trkpt lat="44.6159540" lon="7.2503990">
        <ele>1579.6</ele>
        <time>2017-07-25T07:57:42Z</time>
      </trkpt>
      <trkpt lat="44.6160130" lon="7.2503020">
        <ele>1578.6</ele>
        <time>2017-07-25T07:57:43Z</time>
      </trkpt>
      <trkpt lat="44.6160830" lon="7.2502210">
        <ele>1577.6</ele>
        <time>2017-07-25T07:57:44Z</time>
      </trkpt>
      <trkpt lat="44.6161500" lon="7.2501400">
        <ele>1576.6</ele>
        <time>2017-07-25T07:57:45Z</time>
      </trkpt>
      <trkpt lat="44.6162450" lon="7.2500000">
        <ele>1575.4</ele>
        <time>2017-07-25T07:57:47Z</time>
      </trkpt>
      <trkpt lat="44.6162630" lon="7.2499330">
        <ele>1574.8</ele>
        <time>2017-07-25T07:57:48Z</time>
      </trkpt>
      <trkpt lat="44.6162930" lon="7.2498870">
        <ele>1574.0</ele>
        <time>2017-07-25T07:57:49Z</time>
      </trkpt>
      <trkpt lat="44.6163870" lon="7.2498150">
        <ele>1572.4</ele>
        <time>2017-07-25T07:57:51Z</time>
      </trkpt>
      <trkpt lat="44.6164620" lon="7.2496990">
        <ele>1571.2</ele>
        <time>2017-07-25T07:57:53Z</time>
      </trkpt>
      <trkpt lat="44.6165030" lon="7.2495350">
        <ele>1569.8</ele>
        <time>2017-07-25T07:57:55Z</time>
      </trkpt>
      <trkpt lat="44.6165660" lon="7.2494300">
        <ele>1568.6</ele>
        <time>2017-07-25T07:57:57Z</time>
      </trkpt>
      <trkpt lat="44.6166020" lon="7.2493960">
        <ele>1568.0</ele>
        <time>2017-07-25T07:57:58Z</time>
      </trkpt>
      <trkpt lat="44.6166400" lon="7.2493770">
        <ele>1567.4</ele>
        <time>2017-07-25T07:57:59Z</time>
      </trkpt>
      <trkpt lat="44.6166990" lon="7.2494540">
        <ele>1565.8</ele>
        <time>2017-07-25T07:58:01Z</time>
      </trkpt>
      <trkpt lat="44.6167190" lon="7.2496440">
        <ele>1564.4</ele>
        <time>2017-07-25T07:58:03Z</time>
      </trkpt>
      <trkpt lat="44.6167320" lon="7.2498310">
        <ele>1562.8</ele>
        <time>2017-07-25T07:58:05Z</time>
      </trkpt>
      <trkpt lat="44.6167290" lon="7.2500460">
        <ele>1560.4</ele>
        <time>2017-07-25T07:58:07Z</time>
      </trkpt>
      <trkpt lat="44.6167540" lon="7.2502720">
        <ele>1558.8</ele>
        <time>2017-07-25T07:58:09Z</time>
      </trkpt>
      <trkpt lat="44.6167620" lon="7.2503860">
        <ele>1558.2</ele>
        <time>2017-07-25T07:58:10Z</time>
      </trkpt>
      <trkpt lat="44.6167610" lon="7.2504990">
        <ele>1557.0</ele>
        <time>2017-07-25T07:58:11Z</time>
      </trkpt>
      <trkpt lat="44.6167580" lon="7.2506240">
        <ele>1556.0</ele>
        <time>2017-07-25T07:58:12Z</time>
      </trkpt>
      <trkpt lat="44.6167570" lon="7.2507490">
        <ele>1554.8</ele>
        <time>2017-07-25T07:58:13Z</time>
      </trkpt>
      <trkpt lat="44.6167620" lon="7.2508780">
        <ele>1554.4</ele>
        <time>2017-07-25T07:58:14Z</time>
      </trkpt>
      <trkpt lat="44.6167690" lon="7.2510070">
        <ele>1553.8</ele>
        <time>2017-07-25T07:58:15Z</time>
      </trkpt>
      <trkpt lat="44.6167880" lon="7.2512570">
        <ele>1552.2</ele>
        <time>2017-07-25T07:58:17Z</time>
      </trkpt>
      <trkpt lat="44.6168300" lon="7.2514850">
        <ele>1550.8</ele>
        <time>2017-07-25T07:58:19Z</time>
      </trkpt>
      <trkpt lat="44.6168670" lon="7.2515880">
        <ele>1550.0</ele>
        <time>2017-07-25T07:58:20Z</time>
      </trkpt>
      <trkpt lat="44.6169180" lon="7.2516950">
        <ele>1549.2</ele>
        <time>2017-07-25T07:58:21Z</time>
      </trkpt>
      <trkpt lat="44.6171000" lon="7.2519650">
        <ele>1548.0</ele>
        <time>2017-07-25T07:58:24Z</time>
      </trkpt>
      <trkpt lat="44.6172690" lon="7.2520870">
        <ele>1546.6</ele>
        <time>2017-07-25T07:58:26Z</time>
      </trkpt>
      <trkpt lat="44.6173470" lon="7.2521390">
        <ele>1546.0</ele>
        <time>2017-07-25T07:58:27Z</time>
      </trkpt>
      <trkpt lat="44.6174180" lon="7.2521990">
        <ele>1545.0</ele>
        <time>2017-07-25T07:58:28Z</time>
      </trkpt>
      <trkpt lat="44.6174940" lon="7.2523750">
        <ele>1543.8</ele>
        <time>2017-07-25T07:58:30Z</time>
      </trkpt>
      <trkpt lat="44.6175050" lon="7.2524800">
        <ele>1542.2</ele>
        <time>2017-07-25T07:58:31Z</time>
      </trkpt>
      <trkpt lat="44.6175180" lon="7.2525870">
        <ele>1541.8</ele>
        <time>2017-07-25T07:58:32Z</time>
      </trkpt>
      <trkpt lat="44.6175560" lon="7.2527940">
        <ele>1541.0</ele>
        <time>2017-07-25T07:58:34Z</time>
      </trkpt>
      <trkpt lat="44.6175560" lon="7.2529010">
        <ele>1540.4</ele>
        <time>2017-07-25T07:58:35Z</time>
      </trkpt>
      <trkpt lat="44.6175580" lon="7.2531010">
        <ele>1539.2</ele>
        <time>2017-07-25T07:58:37Z</time>
      </trkpt>
      <trkpt lat="44.6175920" lon="7.2532880">
        <ele>1538.2</ele>
        <time>2017-07-25T07:58:39Z</time>
      </trkpt>
      <trkpt lat="44.6176450" lon="7.2533580">
        <ele>1538.2</ele>
        <time>2017-07-25T07:58:40Z</time>
      </trkpt>
      <trkpt lat="44.6177670" lon="7.2534280">
        <ele>1537.2</ele>
        <time>2017-07-25T07:58:42Z</time>
      </trkpt>
      <trkpt lat="44.6178400" lon="7.2534370">
        <ele>1537.0</ele>
        <time>2017-07-25T07:58:43Z</time>
      </trkpt>
      <trkpt lat="44.6179140" lon="7.2534410">
        <ele>1536.8</ele>
        <time>2017-07-25T07:58:44Z</time>
      </trkpt>
      <trkpt lat="44.6180710" lon="7.2534570">
        <ele>1536.2</ele>
        <time>2017-07-25T07:58:46Z</time>
      </trkpt>
      <trkpt lat="44.6181550" lon="7.2534710">
        <ele>1536.0</ele>
        <time>2017-07-25T07:58:47Z</time>
      </trkpt>
      <trkpt lat="44.6185090" lon="7.2534980">
        <ele>1535.0</ele>
        <time>2017-07-25T07:58:51Z</time>
      </trkpt>
      <trkpt lat="44.6185990" lon="7.2534800">
        <ele>1534.2</ele>
        <time>2017-07-25T07:58:52Z</time>
      </trkpt>
      <trkpt lat="44.6187670" lon="7.2533940">
        <ele>1533.8</ele>
        <time>2017-07-25T07:58:54Z</time>
      </trkpt>
      <trkpt lat="44.6188420" lon="7.2533350">
        <ele>1534.2</ele>
        <time>2017-07-25T07:58:55Z</time>
      </trkpt>
      <trkpt lat="44.6190520" lon="7.2531390">
        <ele>1533.8</ele>
        <time>2017-07-25T07:58:58Z</time>
      </trkpt>
      <trkpt lat="44.6192700" lon="7.2529470">
        <ele>1533.6</ele>
        <time>2017-07-25T07:59:01Z</time>
      </trkpt>
      <trkpt lat="44.6194110" lon="7.2528020">
        <ele>1534.2</ele>
        <time>2017-07-25T07:59:03Z</time>
      </trkpt>
      <trkpt lat="44.6195380" lon="7.2526300">
        <ele>1533.6</ele>
        <time>2017-07-25T07:59:05Z</time>
      </trkpt>
      <trkpt lat="44.6197360" lon="7.2524310">
        <ele>1533.6</ele>
        <time>2017-07-25T07:59:08Z</time>
      </trkpt>
      <trkpt lat="44.6198150" lon="7.2524110">
        <ele>1533.2</ele>
        <time>2017-07-25T07:59:09Z</time>
      </trkpt>
      <trkpt lat="44.6198940" lon="7.2524390">
        <ele>1532.8</ele>
        <time>2017-07-25T07:59:10Z</time>
      </trkpt>
      <trkpt lat="44.6200470" lon="7.2524520">
        <ele>1532.2</ele>
        <time>2017-07-25T07:59:12Z</time>
      </trkpt>
      <trkpt lat="44.6201920" lon="7.2524800">
        <ele>1531.8</ele>
        <time>2017-07-25T07:59:14Z</time>
      </trkpt>
      <trkpt lat="44.6203360" lon="7.2525420">
        <ele>1531.2</ele>
        <time>2017-07-25T07:59:16Z</time>
      </trkpt>
      <trkpt lat="44.6205630" lon="7.2526280">
        <ele>1530.6</ele>
        <time>2017-07-25T07:59:19Z</time>
      </trkpt>
      <trkpt lat="44.6207260" lon="7.2526640">
        <ele>1530.2</ele>
        <time>2017-07-25T07:59:21Z</time>
      </trkpt>
      <trkpt lat="44.6208020" lon="7.2526840">
        <ele>1529.6</ele>
        <time>2017-07-25T07:59:22Z</time>
      </trkpt>
      <trkpt lat="44.6208750" lon="7.2527120">
        <ele>1529.4</ele>
        <time>2017-07-25T07:59:23Z</time>
      </trkpt>
      <trkpt lat="44.6210150" lon="7.2527510">
        <ele>1529.0</ele>
        <time>2017-07-25T07:59:25Z</time>
      </trkpt>
      <trkpt lat="44.6210830" lon="7.2527410">
        <ele>1528.6</ele>
        <time>2017-07-25T07:59:26Z</time>
      </trkpt>
      <trkpt lat="44.6212140" lon="7.2526780">
        <ele>1528.6</ele>
        <time>2017-07-25T07:59:28Z</time>
      </trkpt>
      <trkpt lat="44.6213250" lon="7.2525840">
        <ele>1528.8</ele>
        <time>2017-07-25T07:59:30Z</time>
      </trkpt>
      <trkpt lat="44.6213830" lon="7.2525430">
        <ele>1528.6</ele>
        <time>2017-07-25T07:59:31Z</time>
      </trkpt>
      <trkpt lat="44.6214440" lon="7.2525120">
        <ele>1528.6</ele>
        <time>2017-07-25T07:59:32Z</time>
      </trkpt>
      <trkpt lat="44.6216970" lon="7.2524470">
        <ele>1527.8</ele>
        <time>2017-07-25T07:59:36Z</time>
      </trkpt>
      <trkpt lat="44.6217680" lon="7.2524640">
        <ele>1527.8</ele>
        <time>2017-07-25T07:59:37Z</time>
      </trkpt>
      <trkpt lat="44.6218400" lon="7.2524780">
        <ele>1527.6</ele>
        <time>2017-07-25T07:59:38Z</time>
      </trkpt>
      <trkpt lat="44.6220580" lon="7.2525090">
        <ele>1526.4</ele>
        <time>2017-07-25T07:59:41Z</time>
      </trkpt>
      <trkpt lat="44.6222030" lon="7.2525260">
        <ele>1526.6</ele>
        <time>2017-07-25T07:59:43Z</time>
      </trkpt>
      <trkpt lat="44.6224870" lon="7.2525880">
        <ele>1525.2</ele>
        <time>2017-07-25T07:59:47Z</time>
      </trkpt>
      <trkpt lat="44.6225570" lon="7.2525990">
        <ele>1524.8</ele>
        <time>2017-07-25T07:59:48Z</time>
      </trkpt>
      <trkpt lat="44.6226280" lon="7.2525960">
        <ele>1524.4</ele>
        <time>2017-07-25T07:59:49Z</time>
      </trkpt>
      <trkpt lat="44.6228320" lon="7.2525500">
        <ele>1524.6</ele>
        <time>2017-07-25T07:59:52Z</time>
      </trkpt>
      <trkpt lat="44.6229470" lon="7.2524530">
        <ele>1524.2</ele>
        <time>2017-07-25T07:59:54Z</time>
      </trkpt>
      <trkpt lat="44.6230440" lon="7.2523240">
        <ele>1524.4</ele>
        <time>2017-07-25T07:59:56Z</time>
      </trkpt>
      <trkpt lat="44.6231450" lon="7.2522150">
        <ele>1524.4</ele>
        <time>2017-07-25T07:59:58Z</time>
      </trkpt>
      <trkpt lat="44.6232040" lon="7.2521830">
        <ele>1524.2</ele>
        <time>2017-07-25T07:59:59Z</time>
      </trkpt>
      <trkpt lat="44.6234730" lon="7.2521920">
        <ele>1524.2</ele>
        <time>2017-07-25T08:00:03Z</time>
      </trkpt>
      <trkpt lat="44.6236170" lon="7.2522050">
        <ele>1523.6</ele>
        <time>2017-07-25T08:00:05Z</time>
      </trkpt>
      <trkpt lat="44.6237600" lon="7.2521830">
        <ele>1523.4</ele>
        <time>2017-07-25T08:00:07Z</time>
      </trkpt>
      <trkpt lat="44.6238320" lon="7.2521850">
        <ele>1523.0</ele>
        <time>2017-07-25T08:00:08Z</time>
      </trkpt>
      <trkpt lat="44.6239710" lon="7.2522300">
        <ele>1522.0</ele>
        <time>2017-07-25T08:00:10Z</time>
      </trkpt>
      <trkpt lat="44.6240400" lon="7.2522570">
        <ele>1521.8</ele>
        <time>2017-07-25T08:00:11Z</time>
      </trkpt>
      <trkpt lat="44.6241100" lon="7.2522830">
        <ele>1521.6</ele>
        <time>2017-07-25T08:00:12Z</time>
      </trkpt>
      <trkpt lat="44.6243110" lon="7.2523760">
        <ele>1520.6</ele>
        <time>2017-07-25T08:00:15Z</time>
      </trkpt>
      <trkpt lat="44.6243770" lon="7.2524020">
        <ele>1520.6</ele>
        <time>2017-07-25T08:00:16Z</time>
      </trkpt>
      <trkpt lat="44.6246880" lon="7.2524750">
        <ele>1519.8</ele>
        <time>2017-07-25T08:00:21Z</time>
      </trkpt>
      <trkpt lat="44.6247340" lon="7.2524950">
        <ele>1519.4</ele>
        <time>2017-07-25T08:00:23Z</time>
      </trkpt>
      <trkpt lat="44.6247340" lon="7.2524980">
        <ele>1515.6</ele>
        <time>2017-07-25T08:00:48Z</time>
      </trkpt>
      <trkpt lat="44.6247290" lon="7.2525760">
        <ele>1515.2</ele>
        <time>2017-07-25T08:00:50Z</time>
      </trkpt>
      <trkpt lat="44.6247300" lon="7.2526850">
        <ele>1514.8</ele>
        <time>2017-07-25T08:00:52Z</time>
      </trkpt>
      <trkpt lat="44.6247370" lon="7.2528080">
        <ele>1514.6</ele>
        <time>2017-07-25T08:00:54Z</time>
      </trkpt>
      <trkpt lat="44.6247380" lon="7.2528700">
        <ele>1515.0</ele>
        <time>2017-07-25T08:00:55Z</time>
      </trkpt>
      <trkpt lat="44.6247370" lon="7.2529370">
        <ele>1515.2</ele>
        <time>2017-07-25T08:00:56Z</time>
      </trkpt>
      <trkpt lat="44.6247390" lon="7.2530620">
        <ele>1516.0</ele>
        <time>2017-07-25T08:00:58Z</time>
      </trkpt>
      <trkpt lat="44.6247350" lon="7.2531510">
        <ele>1517.0</ele>
        <time>2017-07-25T08:01:00Z</time>
      </trkpt>
      <trkpt lat="44.6247390" lon="7.2531820">
        <ele>1517.6</ele>
        <time>2017-07-25T08:01:01Z</time>
      </trkpt>
      <trkpt lat="44.6247450" lon="7.2532090">
        <ele>1518.2</ele>
        <time>2017-07-25T08:01:02Z</time>
      </trkpt>
      <trkpt lat="44.6247580" lon="7.2532510">
        <ele>1519.6</ele>
        <time>2017-07-25T08:01:04Z</time>
      </trkpt>
      <trkpt lat="44.6247610" lon="7.2532740">
        <ele>1520.4</ele>
        <time>2017-07-25T08:01:05Z</time>
      </trkpt>
      <trkpt lat="44.6247610" lon="7.2533030">
        <ele>1521.0</ele>
        <time>2017-07-25T08:01:06Z</time>
      </trkpt>
      <trkpt lat="44.6247490" lon="7.2533760">
        <ele>1522.2</ele>
        <time>2017-07-25T08:01:08Z</time>
      </trkpt>
      <trkpt lat="44.6247290" lon="7.2534470">
        <ele>1523.4</ele>
        <time>2017-07-25T08:01:10Z</time>
      </trkpt>
      <trkpt lat="44.6247200" lon="7.2534800">
        <ele>1523.8</ele>
        <time>2017-07-25T08:01:11Z</time>
      </trkpt>
      <trkpt lat="44.6247110" lon="7.2535130">
        <ele>1524.4</ele>
        <time>2017-07-25T08:01:12Z</time>
      </trkpt>
      <trkpt lat="44.6247050" lon="7.2535820">
        <ele>1525.6</ele>
        <time>2017-07-25T08:01:14Z</time>
      </trkpt>
      <trkpt lat="44.6246940" lon="7.2536390">
        <ele>1526.8</ele>
        <time>2017-07-25T08:01:16Z</time>
      </trkpt>
      <trkpt lat="44.6246810" lon="7.2537290">
        <ele>1528.8</ele>
        <time>2017-07-25T08:01:19Z</time>
      </trkpt>
      <trkpt lat="44.6246790" lon="7.2537930">
        <ele>1530.2</ele>
        <time>2017-07-25T08:01:21Z</time>
      </trkpt>
      <trkpt lat="44.6246800" lon="7.2538820">
        <ele>1531.6</ele>
        <time>2017-07-25T08:01:24Z</time>
      </trkpt>
      <trkpt lat="44.6246810" lon="7.2539460">
        <ele>1533.6</ele>
        <time>2017-07-25T08:01:29Z</time>
      </trkpt>
      <trkpt lat="44.6246870" lon="7.2539970">
        <ele>1534.6</ele>
        <time>2017-07-25T08:01:33Z</time>
      </trkpt>
      <trkpt lat="44.6246870" lon="7.2540140">
        <ele>1534.8</ele>
        <time>2017-07-25T08:01:34Z</time>
      </trkpt>
      <trkpt lat="44.6246920" lon="7.2540850">
        <ele>1535.8</ele>
        <time>2017-07-25T08:01:39Z</time>
      </trkpt>
      <trkpt lat="44.6246910" lon="7.2541260">
        <ele>1536.8</ele>
        <time>2017-07-25T08:01:42Z</time>
      </trkpt>
      <trkpt lat="44.6246920" lon="7.2541380">
        <ele>1537.2</ele>
        <time>2017-07-25T08:01:43Z</time>
      </trkpt>
      <trkpt lat="44.6247020" lon="7.2541880">
        <ele>1538.2</ele>
        <time>2017-07-25T08:01:47Z</time>
      </trkpt>
      <trkpt lat="44.6247040" lon="7.2542120">
        <ele>1538.6</ele>
        <time>2017-07-25T08:01:49Z</time>
      </trkpt>
      <trkpt lat="44.6247080" lon="7.2542300">
        <ele>1539.2</ele>
        <time>2017-07-25T08:01:51Z</time>
      </trkpt>
      <trkpt lat="44.6247090" lon="7.2542450">
        <ele>1539.4</ele>
        <time>2017-07-25T08:01:52Z</time>
      </trkpt>
      <trkpt lat="44.6247120" lon="7.2543410">
        <ele>1540.4</ele>
        <time>2017-07-25T08:01:58Z</time>
      </trkpt>
      <trkpt lat="44.6247140" lon="7.2543580">
        <ele>1540.6</ele>
        <time>2017-07-25T08:01:59Z</time>
      </trkpt>
      <trkpt lat="44.6247180" lon="7.2543690">
        <ele>1540.8</ele>
        <time>2017-07-25T08:02:00Z</time>
      </trkpt>
      <trkpt lat="44.6247200" lon="7.2544120">
        <ele>1541.4</ele>
        <time>2017-07-25T08:02:04Z</time>
      </trkpt>
      <trkpt lat="44.6247190" lon="7.2544260">
        <ele>1541.6</ele>
        <time>2017-07-25T08:02:05Z</time>
      </trkpt>
      <trkpt lat="44.6247180" lon="7.2545070">
        <ele>1542.8</ele>
        <time>2017-07-25T08:02:11Z</time>
      </trkpt>
      <trkpt lat="44.6247160" lon="7.2545200">
        <ele>1542.8</ele>
        <time>2017-07-25T08:02:12Z</time>
      </trkpt>
      <trkpt lat="44.6247120" lon="7.2546020">
        <ele>1543.4</ele>
        <time>2017-07-25T08:02:17Z</time>
      </trkpt>
      <trkpt lat="44.6247110" lon="7.2546260">
        <ele>1543.8</ele>
        <time>2017-07-25T08:02:19Z</time>
      </trkpt>
      <trkpt lat="44.6247230" lon="7.2547060">
        <ele>1543.4</ele>
        <time>2017-07-25T08:02:26Z</time>
      </trkpt>
      <trkpt lat="44.6247230" lon="7.2547340">
        <ele>1546.4</ele>
        <time>2017-07-25T08:02:28Z</time>
      </trkpt>
      <trkpt lat="44.6247250" lon="7.2548260">
        <ele>1547.4</ele>
        <time>2017-07-25T08:02:33Z</time>
      </trkpt>
      <trkpt lat="44.6247250" lon="7.2548430">
        <ele>1547.4</ele>
        <time>2017-07-25T08:02:34Z</time>
      </trkpt>
      <trkpt lat="44.6247340" lon="7.2549320">
        <ele>1548.4</ele>
        <time>2017-07-25T08:02:40Z</time>
      </trkpt>
      <trkpt lat="44.6247350" lon="7.2549450">
        <ele>1548.6</ele>
        <time>2017-07-25T08:02:41Z</time>
      </trkpt>
      <trkpt lat="44.6247400" lon="7.2550200">
        <ele>1549.6</ele>
        <time>2017-07-25T08:02:47Z</time>
      </trkpt>
      <trkpt lat="44.6247460" lon="7.2550670">
        <ele>1550.4</ele>
        <time>2017-07-25T08:02:50Z</time>
      </trkpt>
      <trkpt lat="44.6247460" lon="7.2551010">
        <ele>1550.8</ele>
        <time>2017-07-25T08:02:52Z</time>
      </trkpt>
      <trkpt lat="44.6247460" lon="7.2551480">
        <ele>1551.8</ele>
        <time>2017-07-25T08:02:56Z</time>
      </trkpt>
      <trkpt lat="44.6247470" lon="7.2551580">
        <ele>1552.0</ele>
        <time>2017-07-25T08:02:57Z</time>
      </trkpt>
      <trkpt lat="44.6247500" lon="7.2551940">
        <ele>1553.0</ele>
        <time>2017-07-25T08:03:00Z</time>
      </trkpt>
      <trkpt lat="44.6247550" lon="7.2552640">
        <ele>1554.0</ele>
        <time>2017-07-25T08:03:05Z</time>
      </trkpt>
      <trkpt lat="44.6247580" lon="7.2552790">
        <ele>1554.2</ele>
        <time>2017-07-25T08:03:06Z</time>
      </trkpt>
      <trkpt lat="44.6247580" lon="7.2553220">
        <ele>1555.0</ele>
        <time>2017-07-25T08:03:10Z</time>
      </trkpt>
      <trkpt lat="44.6247530" lon="7.2553770">
        <ele>1556.2</ele>
        <time>2017-07-25T08:03:15Z</time>
      </trkpt>
      <trkpt lat="44.6247560" lon="7.2554030">
        <ele>1556.6</ele>
        <time>2017-07-25T08:03:17Z</time>
      </trkpt>
      <trkpt lat="44.6247490" lon="7.2554310">
        <ele>1557.0</ele>
        <time>2017-07-25T08:03:20Z</time>
      </trkpt>
      <trkpt lat="44.6247500" lon="7.2554560">
        <ele>1557.2</ele>
        <time>2017-07-25T08:03:22Z</time>
      </trkpt>
      <trkpt lat="44.6247530" lon="7.2555140">
        <ele>1558.0</ele>
        <time>2017-07-25T08:03:27Z</time>
      </trkpt>
      <trkpt lat="44.6247530" lon="7.2555400">
        <ele>1558.2</ele>
        <time>2017-07-25T08:03:29Z</time>
      </trkpt>
      <trkpt lat="44.6247540" lon="7.2556180">
        <ele>1559.0</ele>
        <time>2017-07-25T08:03:35Z</time>
      </trkpt>
      <trkpt lat="44.6247560" lon="7.2556450">
        <ele>1559.2</ele>
        <time>2017-07-25T08:03:37Z</time>
      </trkpt>
      <trkpt lat="44.6247580" lon="7.2556670">
        <ele>1559.8</ele>
        <time>2017-07-25T08:03:39Z</time>
      </trkpt>
      <trkpt lat="44.6247550" lon="7.2556900">
        <ele>1560.2</ele>
        <time>2017-07-25T08:03:41Z</time>
      </trkpt>
      <trkpt lat="44.6247540" lon="7.2557150">
        <ele>1560.6</ele>
        <time>2017-07-25T08:03:43Z</time>
      </trkpt>
      <trkpt lat="44.6247570" lon="7.2557760">
        <ele>1561.8</ele>
        <time>2017-07-25T08:03:48Z</time>
      </trkpt>
      <trkpt lat="44.6247570" lon="7.2557850">
        <ele>1562.0</ele>
        <time>2017-07-25T08:03:49Z</time>
      </trkpt>
      <trkpt lat="44.6247560" lon="7.2558210">
        <ele>1562.6</ele>
        <time>2017-07-25T08:03:52Z</time>
      </trkpt>
      <trkpt lat="44.6247580" lon="7.2558340">
        <ele>1563.0</ele>
        <time>2017-07-25T08:03:53Z</time>
      </trkpt>
      <trkpt lat="44.6247560" lon="7.2558710">
        <ele>1563.6</ele>
        <time>2017-07-25T08:03:56Z</time>
      </trkpt>
      <trkpt lat="44.6247570" lon="7.2558920">
        <ele>1564.2</ele>
        <time>2017-07-25T08:03:58Z</time>
      </trkpt>
      <trkpt lat="44.6247560" lon="7.2559280">
        <ele>1565.0</ele>
        <time>2017-07-25T08:04:02Z</time>
      </trkpt>
      <trkpt lat="44.6247550" lon="7.2559380">
        <ele>1565.2</ele>
        <time>2017-07-25T08:04:03Z</time>
      </trkpt>
      <trkpt lat="44.6247600" lon="7.2559910">
        <ele>1566.4</ele>
        <time>2017-07-25T08:04:07Z</time>
      </trkpt>
      <trkpt lat="44.6247610" lon="7.2560190">
        <ele>1566.8</ele>
        <time>2017-07-25T08:04:09Z</time>
      </trkpt>
      <trkpt lat="44.6247630" lon="7.2560550">
        <ele>1567.4</ele>
        <time>2017-07-25T08:04:12Z</time>
      </trkpt>
      <trkpt lat="44.6247610" lon="7.2561040">
        <ele>1568.2</ele>
        <time>2017-07-25T08:04:16Z</time>
      </trkpt>
      <trkpt lat="44.6247620" lon="7.2561290">
        <ele>1568.8</ele>
        <time>2017-07-25T08:04:18Z</time>
      </trkpt>
      <trkpt lat="44.6247610" lon="7.2561750">
        <ele>1570.0</ele>
        <time>2017-07-25T08:04:22Z</time>
      </trkpt>
      <trkpt lat="44.6247590" lon="7.2562130">
        <ele>1570.6</ele>
        <time>2017-07-25T08:04:25Z</time>
      </trkpt>
      <trkpt lat="44.6247580" lon="7.2562390">
        <ele>1571.0</ele>
        <time>2017-07-25T08:04:27Z</time>
      </trkpt>
      <trkpt lat="44.6247570" lon="7.2563020">
        <ele>1572.2</ele>
        <time>2017-07-25T08:04:31Z</time>
      </trkpt>
      <trkpt lat="44.6247540" lon="7.2563260">
        <ele>1572.6</ele>
        <time>2017-07-25T08:04:33Z</time>
      </trkpt>
      <trkpt lat="44.6247500" lon="7.2563640">
        <ele>1573.2</ele>
        <time>2017-07-25T08:04:36Z</time>
      </trkpt>
      <trkpt lat="44.6247510" lon="7.2564110">
        <ele>1574.2</ele>
        <time>2017-07-25T08:04:40Z</time>
      </trkpt>
      <trkpt lat="44.6247500" lon="7.2564220">
        <ele>1574.6</ele>
        <time>2017-07-25T08:04:41Z</time>
      </trkpt>
      <trkpt lat="44.6247520" lon="7.2564660">
        <ele>1575.4</ele>
        <time>2017-07-25T08:04:45Z</time>
      </trkpt>
      <trkpt lat="44.6247570" lon="7.2565170">
        <ele>1576.4</ele>
        <time>2017-07-25T08:04:50Z</time>
      </trkpt>
      <trkpt lat="44.6247590" lon="7.2565280">
        <ele>1576.6</ele>
        <time>2017-07-25T08:04:51Z</time>
      </trkpt>
      <trkpt lat="44.6247620" lon="7.2565710">
        <ele>1578.0</ele>
        <time>2017-07-25T08:04:55Z</time>
      </trkpt>
      <trkpt lat="44.6247610" lon="7.2566090">
        <ele>1579.0</ele>
        <time>2017-07-25T08:04:58Z</time>
      </trkpt>
      <trkpt lat="44.6247630" lon="7.2566190">
        <ele>1579.2</ele>
        <time>2017-07-25T08:04:59Z</time>
      </trkpt>
      <trkpt lat="44.6247630" lon="7.2566670">
        <ele>1580.4</ele>
        <time>2017-07-25T08:05:03Z</time>
      </trkpt>
      <trkpt lat="44.6247660" lon="7.2567020">
        <ele>1581.2</ele>
        <time>2017-07-25T08:05:06Z</time>
      </trkpt>
      <trkpt lat="44.6247640" lon="7.2567250">
        <ele>1581.4</ele>
        <time>2017-07-25T08:05:08Z</time>
      </trkpt>
      <trkpt lat="44.6247700" lon="7.2567980">
        <ele>1582.6</ele>
        <time>2017-07-25T08:05:14Z</time>
      </trkpt>
      <trkpt lat="44.6247710" lon="7.2568110">
        <ele>1583.0</ele>
        <time>2017-07-25T08:05:15Z</time>
      </trkpt>
      <trkpt lat="44.6247780" lon="7.2568470">
        <ele>1583.8</ele>
        <time>2017-07-25T08:05:18Z</time>
      </trkpt>
      <trkpt lat="44.6247900" lon="7.2568810">
        <ele>1585.0</ele>
        <time>2017-07-25T08:05:21Z</time>
      </trkpt>
      <trkpt lat="44.6247940" lon="7.2568920">
        <ele>1585.4</ele>
        <time>2017-07-25T08:05:22Z</time>
      </trkpt>
      <trkpt lat="44.6247990" lon="7.2569100">
        <ele>1586.0</ele>
        <time>2017-07-25T08:05:24Z</time>
      </trkpt>
      <trkpt lat="44.6248090" lon="7.2569550">
        <ele>1587.0</ele>
        <time>2017-07-25T08:05:28Z</time>
      </trkpt>
      <trkpt lat="44.6248110" lon="7.2569650">
        <ele>1587.4</ele>
        <time>2017-07-25T08:05:29Z</time>
      </trkpt>
      <trkpt lat="44.6248150" lon="7.2569740">
        <ele>1587.6</ele>
        <time>2017-07-25T08:05:30Z</time>
      </trkpt>
      <trkpt lat="44.6248280" lon="7.2570350">
        <ele>1588.6</ele>
        <time>2017-07-25T08:05:35Z</time>
      </trkpt>
      <trkpt lat="44.6248410" lon="7.2570800">
        <ele>1589.8</ele>
        <time>2017-07-25T08:05:39Z</time>
      </trkpt>
      <trkpt lat="44.6248440" lon="7.2570900">
        <ele>1590.0</ele>
        <time>2017-07-25T08:05:40Z</time>
      </trkpt>
      <trkpt lat="44.6248520" lon="7.2571160">
        <ele>1590.2</ele>
        <time>2017-07-25T08:05:42Z</time>
      </trkpt>
      <trkpt lat="44.6248550" lon="7.2571300">
        <ele>1591.0</ele>
        <time>2017-07-25T08:05:43Z</time>
      </trkpt>
      <trkpt lat="44.6248780" lon="7.2571880">
        <ele>1592.2</ele>
        <time>2017-07-25T08:05:48Z</time>
      </trkpt>
      <trkpt lat="44.6248910" lon="7.2572190">
        <ele>1593.2</ele>
        <time>2017-07-25T08:05:51Z</time>
      </trkpt>
      <trkpt lat="44.6249050" lon="7.2572590">
        <ele>1594.4</ele>
        <time>2017-07-25T08:05:55Z</time>
      </trkpt>
      <trkpt lat="44.6249170" lon="7.2573000">
        <ele>1595.4</ele>
        <time>2017-07-25T08:05:59Z</time>
      </trkpt>
      <trkpt lat="44.6249220" lon="7.2573080">
        <ele>1595.6</ele>
        <time>2017-07-25T08:06:00Z</time>
      </trkpt>
      <trkpt lat="44.6249370" lon="7.2573480">
        <ele>1596.4</ele>
        <time>2017-07-25T08:06:04Z</time>
      </trkpt>
      <trkpt lat="44.6249440" lon="7.2573770">
        <ele>1597.6</ele>
        <time>2017-07-25T08:06:07Z</time>
      </trkpt>
      <trkpt lat="44.6249530" lon="7.2574040">
        <ele>1598.6</ele>
        <time>2017-07-25T08:06:10Z</time>
      </trkpt>
      <trkpt lat="44.6249710" lon="7.2574290">
        <ele>1599.8</ele>
        <time>2017-07-25T08:06:13Z</time>
      </trkpt>
      <trkpt lat="44.6249750" lon="7.2574400">
        <ele>1600.2</ele>
        <time>2017-07-25T08:06:14Z</time>
      </trkpt>
      <trkpt lat="44.6249880" lon="7.2574720">
        <ele>1601.0</ele>
        <time>2017-07-25T08:06:17Z</time>
      </trkpt>
      <trkpt lat="44.6249930" lon="7.2575080">
        <ele>1602.0</ele>
        <time>2017-07-25T08:06:20Z</time>
      </trkpt>
      <trkpt lat="44.6249960" lon="7.2575170">
        <ele>1602.2</ele>
        <time>2017-07-25T08:06:21Z</time>
      </trkpt>
      <trkpt lat="44.6250030" lon="7.2575240">
        <ele>1602.4</ele>
        <time>2017-07-25T08:06:22Z</time>
      </trkpt>
      <trkpt lat="44.6250180" lon="7.2575530">
        <ele>1603.2</ele>
        <time>2017-07-25T08:06:25Z</time>
      </trkpt>
      <trkpt lat="44.6250290" lon="7.2575860">
        <ele>1604.0</ele>
        <time>2017-07-25T08:06:28Z</time>
      </trkpt>
      <trkpt lat="44.6250380" lon="7.2576130">
        <ele>1604.4</ele>
        <time>2017-07-25T08:06:30Z</time>
      </trkpt>
      <trkpt lat="44.6250640" lon="7.2576760">
        <ele>1605.4</ele>
        <time>2017-07-25T08:06:36Z</time>
      </trkpt>
      <trkpt lat="44.6250670" lon="7.2576880">
        <ele>1605.8</ele>
        <time>2017-07-25T08:06:37Z</time>
      </trkpt>
      <trkpt lat="44.6250700" lon="7.2577200">
        <ele>1606.4</ele>
        <time>2017-07-25T08:06:40Z</time>
      </trkpt>
      <trkpt lat="44.6250730" lon="7.2577680">
        <ele>1607.6</ele>
        <time>2017-07-25T08:06:45Z</time>
      </trkpt>
      <trkpt lat="44.6250730" lon="7.2577770">
        <ele>1607.8</ele>
        <time>2017-07-25T08:06:46Z</time>
      </trkpt>
      <trkpt lat="44.6250710" lon="7.2578070">
        <ele>1608.4</ele>
        <time>2017-07-25T08:06:49Z</time>
      </trkpt>
      <trkpt lat="44.6250670" lon="7.2578290">
        <ele>1608.6</ele>
        <time>2017-07-25T08:06:51Z</time>
      </trkpt>
      <trkpt lat="44.6250660" lon="7.2578390">
        <ele>1608.8</ele>
        <time>2017-07-25T08:06:52Z</time>
      </trkpt>
      <trkpt lat="44.6250660" lon="7.2579000">
        <ele>1609.8</ele>
        <time>2017-07-25T08:06:58Z</time>
      </trkpt>
      <trkpt lat="44.6250630" lon="7.2579180">
        <ele>1610.2</ele>
        <time>2017-07-25T08:07:00Z</time>
      </trkpt>
      <trkpt lat="44.6250610" lon="7.2579670">
        <ele>1611.0</ele>
        <time>2017-07-25T08:07:05Z</time>
      </trkpt>
      <trkpt lat="44.6250600" lon="7.2580060">
        <ele>1612.0</ele>
        <time>2017-07-25T08:07:09Z</time>
      </trkpt>
      <trkpt lat="44.6250540" lon="7.2580540">
        <ele>1613.0</ele>
        <time>2017-07-25T08:07:14Z</time>
      </trkpt>
      <trkpt lat="44.6250540" lon="7.2580770">
        <ele>1613.2</ele>
        <time>2017-07-25T08:07:16Z</time>
      </trkpt>
      <trkpt lat="44.6250530" lon="7.2581210">
        <ele>1614.2</ele>
        <time>2017-07-25T08:07:20Z</time>
      </trkpt>
      <trkpt lat="44.6250500" lon="7.2581600">
        <ele>1615.4</ele>
        <time>2017-07-25T08:07:24Z</time>
      </trkpt>
      <trkpt lat="44.6250480" lon="7.2582140">
        <ele>1616.6</ele>
        <time>2017-07-25T08:07:29Z</time>
      </trkpt>
      <trkpt lat="44.6250440" lon="7.2582320">
        <ele>1617.0</ele>
        <time>2017-07-25T08:07:31Z</time>
      </trkpt>
      <trkpt lat="44.6250420" lon="7.2582470">
        <ele>1617.6</ele>
        <time>2017-07-25T08:07:33Z</time>
      </trkpt>
      <trkpt lat="44.6250340" lon="7.2582830">
        <ele>1618.8</ele>
        <time>2017-07-25T08:07:37Z</time>
      </trkpt>
      <trkpt lat="44.6250330" lon="7.2582910">
        <ele>1619.2</ele>
        <time>2017-07-25T08:07:38Z</time>
      </trkpt>
      <trkpt lat="44.6250350" lon="7.2583140">
        <ele>1619.8</ele>
        <time>2017-07-25T08:07:40Z</time>
      </trkpt>
      <trkpt lat="44.6250350" lon="7.2583510">
        <ele>1621.0</ele>
        <time>2017-07-25T08:07:44Z</time>
      </trkpt>
      <trkpt lat="44.6250350" lon="7.2583700">
        <ele>1621.6</ele>
        <time>2017-07-25T08:07:46Z</time>
      </trkpt>
      <trkpt lat="44.6250360" lon="7.2583810">
        <ele>1622.0</ele>
        <time>2017-07-25T08:07:47Z</time>
      </trkpt>
      <trkpt lat="44.6250460" lon="7.2584130">
        <ele>1623.2</ele>
        <time>2017-07-25T08:07:50Z</time>
      </trkpt>
      <trkpt lat="44.6250490" lon="7.2584430">
        <ele>1624.2</ele>
        <time>2017-07-25T08:07:53Z</time>
      </trkpt>
      <trkpt lat="44.6250470" lon="7.2584690">
        <ele>1625.2</ele>
        <time>2017-07-25T08:07:56Z</time>
      </trkpt>
      <trkpt lat="44.6250490" lon="7.2584930">
        <ele>1626.6</ele>
        <time>2017-07-25T08:07:59Z</time>
      </trkpt>
      <trkpt lat="44.6250490" lon="7.2585050">
        <ele>1626.8</ele>
        <time>2017-07-25T08:08:00Z</time>
      </trkpt>
      <trkpt lat="44.6250460" lon="7.2585280">
        <ele>1627.6</ele>
        <time>2017-07-25T08:08:03Z</time>
      </trkpt>
      <trkpt lat="44.6250430" lon="7.2585420">
        <ele>1628.4</ele>
        <time>2017-07-25T08:08:05Z</time>
      </trkpt>
      <trkpt lat="44.6250420" lon="7.2585480">
        <ele>1628.8</ele>
        <time>2017-07-25T08:08:06Z</time>
      </trkpt>
      <trkpt lat="44.6250410" lon="7.2585600">
        <ele>1630.0</ele>
        <time>2017-07-25T08:08:08Z</time>
      </trkpt>
      <trkpt lat="44.6250450" lon="7.2585880">
        <ele>1631.4</ele>
        <time>2017-07-25T08:08:11Z</time>
      </trkpt>
      <trkpt lat="44.6250440" lon="7.2585950">
        <ele>1631.8</ele>
        <time>2017-07-25T08:08:12Z</time>
      </trkpt>
      <trkpt lat="44.6250420" lon="7.2586030">
        <ele>1632.4</ele>
        <time>2017-07-25T08:08:13Z</time>
      </trkpt>
      <trkpt lat="44.6250390" lon="7.2586260">
        <ele>1633.4</ele>
        <time>2017-07-25T08:08:16Z</time>
      </trkpt>
      <trkpt lat="44.6250360" lon="7.2586420">
        <ele>1634.6</ele>
        <time>2017-07-25T08:08:19Z</time>
      </trkpt>
      <trkpt lat="44.6250340" lon="7.2586680">
        <ele>1636.0</ele>
        <time>2017-07-25T08:08:22Z</time>
      </trkpt>
      <trkpt lat="44.6250300" lon="7.2586980">
        <ele>1637.4</ele>
        <time>2017-07-25T08:08:25Z</time>
      </trkpt>
      <trkpt lat="44.6250310" lon="7.2587070">
        <ele>1638.0</ele>
        <time>2017-07-25T08:08:26Z</time>
      </trkpt>
      <trkpt lat="44.6250320" lon="7.2587180">
        <ele>1638.4</ele>
        <time>2017-07-25T08:08:27Z</time>
      </trkpt>
      <trkpt lat="44.6250250" lon="7.2587350">
        <ele>1639.4</ele>
        <time>2017-07-25T08:08:30Z</time>
      </trkpt>
      <trkpt lat="44.6250260" lon="7.2587550">
        <ele>1640.4</ele>
        <time>2017-07-25T08:08:32Z</time>
      </trkpt>
      <trkpt lat="44.6250250" lon="7.2587670">
        <ele>1640.6</ele>
        <time>2017-07-25T08:08:33Z</time>
      </trkpt>
      <trkpt lat="44.6247530" lon="7.2613910">
        <ele>1705.6</ele>
        <time>2017-07-25T08:13:44Z</time>
      </trkpt>
      <trkpt lat="44.6247410" lon="7.2614050">
        <ele>1705.8</ele>
        <time>2017-07-25T08:13:45Z</time>
      </trkpt>
      <trkpt lat="44.6247140" lon="7.2614380">
        <ele>1706.2</ele>
        <time>2017-07-25T08:13:47Z</time>
      </trkpt>
      <trkpt lat="44.6246850" lon="7.2614700">
        <ele>1706.8</ele>
        <time>2017-07-25T08:13:49Z</time>
      </trkpt>
      <trkpt lat="44.6245910" lon="7.2615390">
        <ele>1708.0</ele>
        <time>2017-07-25T08:13:54Z</time>
      </trkpt>
      <trkpt lat="44.6245270" lon="7.2615850">
        <ele>1709.2</ele>
        <time>2017-07-25T08:13:58Z</time>
      </trkpt>
      <trkpt lat="44.6245010" lon="7.2616060">
        <ele>1709.8</ele>
        <time>2017-07-25T08:14:00Z</time>
      </trkpt>
      <trkpt lat="44.6244870" lon="7.2616190">
        <ele>1710.2</ele>
        <time>2017-07-25T08:14:01Z</time>
      </trkpt>
      <trkpt lat="44.6244380" lon="7.2616590">
        <ele>1711.4</ele>
        <time>2017-07-25T08:14:04Z</time>
      </trkpt>
      <trkpt lat="44.6243950" lon="7.2617030">
        <ele>1712.4</ele>
        <time>2017-07-25T08:14:07Z</time>
      </trkpt>
      <trkpt lat="44.6243830" lon="7.2617210">
        <ele>1713.2</ele>
        <time>2017-07-25T08:14:08Z</time>
      </trkpt>
      <trkpt lat="44.6243690" lon="7.2617340">
        <ele>1713.4</ele>
        <time>2017-07-25T08:14:09Z</time>
      </trkpt>
      <trkpt lat="44.6243290" lon="7.2617790">
        <ele>1714.6</ele>
        <time>2017-07-25T08:14:12Z</time>
      </trkpt>
      <trkpt lat="44.6242820" lon="7.2618300">
        <ele>1715.4</ele>
        <time>2017-07-25T08:14:15Z</time>
      </trkpt>
      <trkpt lat="44.6242640" lon="7.2618430">
        <ele>1715.6</ele>
        <time>2017-07-25T08:14:16Z</time>
      </trkpt>
      <trkpt lat="44.6242090" lon="7.2619040">
        <ele>1717.0</ele>
        <time>2017-07-25T08:14:20Z</time>
      </trkpt>
      <trkpt lat="44.6241640" lon="7.2619460">
        <ele>1718.2</ele>
        <time>2017-07-25T08:14:23Z</time>
      </trkpt>
      <trkpt lat="44.6241050" lon="7.2620200">
        <ele>1719.0</ele>
        <time>2017-07-25T08:14:26Z</time>
      </trkpt>
      <trkpt lat="44.6240860" lon="7.2620490">
        <ele>1719.4</ele>
        <time>2017-07-25T08:14:27Z</time>
      </trkpt>
      <trkpt lat="44.6240470" lon="7.2621000">
        <ele>1720.6</ele>
        <time>2017-07-25T08:14:29Z</time>
      </trkpt>
      <trkpt lat="44.6240000" lon="7.2622140">
        <ele>1722.4</ele>
        <time>2017-07-25T08:14:32Z</time>
      </trkpt>
      <trkpt lat="44.6239690" lon="7.2623020">
        <ele>1723.6</ele>
        <time>2017-07-25T08:14:34Z</time>
      </trkpt>
      <trkpt lat="44.6239530" lon="7.2623780">
        <ele>1724.8</ele>
        <time>2017-07-25T08:14:36Z</time>
      </trkpt>
      <trkpt lat="44.6239470" lon="7.2624210">
        <ele>1725.2</ele>
        <time>2017-07-25T08:14:37Z</time>
      </trkpt>
      <trkpt lat="44.6239200" lon="7.2625250">
        <ele>1725.8</ele>
        <time>2017-07-25T08:14:39Z</time>
      </trkpt>
      <trkpt lat="44.6238540" lon="7.2627480">
        <ele>1725.8</ele>
        <time>2017-07-25T08:14:42Z</time>
      </trkpt>
      <trkpt lat="44.6237630" lon="7.2630530">
        <ele>1725.4</ele>
        <time>2017-07-25T08:14:45Z</time>
      </trkpt>
      <trkpt lat="44.6237450" lon="7.2631630">
        <ele>1725.0</ele>
        <time>2017-07-25T08:14:46Z</time>
      </trkpt>
      <trkpt lat="44.6237380" lon="7.2633860">
        <ele>1724.8</ele>
        <time>2017-07-25T08:14:48Z</time>
      </trkpt>
      <trkpt lat="44.6237410" lon="7.2634940">
        <ele>1724.6</ele>
        <time>2017-07-25T08:14:49Z</time>
      </trkpt>
      <trkpt lat="44.6237450" lon="7.2635950">
        <ele>1724.6</ele>
        <time>2017-07-25T08:14:50Z</time>
      </trkpt>
      <trkpt lat="44.6237550" lon="7.2636870">
        <ele>1724.6</ele>
        <time>2017-07-25T08:14:51Z</time>
      </trkpt>
      <trkpt lat="44.6237520" lon="7.2638530">
        <ele>1724.8</ele>
        <time>2017-07-25T08:14:53Z</time>
      </trkpt>
      <trkpt lat="44.6236690" lon="7.2641960">
        <ele>1723.4</ele>
        <time>2017-07-25T08:14:57Z</time>
      </trkpt>
      <trkpt lat="44.6236100" lon="7.2643560">
        <ele>1722.8</ele>
        <time>2017-07-25T08:14:59Z</time>
      </trkpt>
      <trkpt lat="44.6235570" lon="7.2645200">
        <ele>1722.2</ele>
        <time>2017-07-25T08:15:01Z</time>
      </trkpt>
      <trkpt lat="44.6234970" lon="7.2646840">
        <ele>1722.0</ele>
        <time>2017-07-25T08:15:03Z</time>
      </trkpt>
      <trkpt lat="44.6233670" lon="7.2650350">
        <ele>1721.2</ele>
        <time>2017-07-25T08:15:07Z</time>
      </trkpt>
      <trkpt lat="44.6232710" lon="7.2653330">
        <ele>1720.2</ele>
        <time>2017-07-25T08:15:10Z</time>
      </trkpt>
      <trkpt lat="44.6231590" lon="7.2657350">
        <ele>1719.4</ele>
        <time>2017-07-25T08:15:14Z</time>
      </trkpt>
      <trkpt lat="44.6231260" lon="7.2658280">
        <ele>1719.4</ele>
        <time>2017-07-25T08:15:15Z</time>
      </trkpt>
      <trkpt lat="44.6230580" lon="7.2660240">
        <ele>1718.8</ele>
        <time>2017-07-25T08:15:17Z</time>
      </trkpt>
      <trkpt lat="44.6230210" lon="7.2661000">
        <ele>1718.0</ele>
        <time>2017-07-25T08:15:18Z</time>
      </trkpt>
      <trkpt lat="44.6229830" lon="7.2661640">
        <ele>1717.6</ele>
        <time>2017-07-25T08:15:19Z</time>
      </trkpt>
      <trkpt lat="44.6229470" lon="7.2662110">
        <ele>1716.4</ele>
        <time>2017-07-25T08:15:20Z</time>
      </trkpt>
      <trkpt lat="44.6228750" lon="7.2663100">
        <ele>1715.2</ele>
        <time>2017-07-25T08:15:22Z</time>
      </trkpt>
      <trkpt lat="44.6228420" lon="7.2663530">
        <ele>1714.0</ele>
        <time>2017-07-25T08:15:23Z</time>
      </trkpt>
      <trkpt lat="44.6228010" lon="7.2663990">
        <ele>1713.0</ele>
        <time>2017-07-25T08:15:24Z</time>
      </trkpt>
      <trkpt lat="44.6227530" lon="7.2664470">
        <ele>1711.6</ele>
        <time>2017-07-25T08:15:25Z</time>
      </trkpt>
      <trkpt lat="44.6226960" lon="7.2665030">
        <ele>1710.2</ele>
        <time>2017-07-25T08:15:26Z</time>
      </trkpt>
      <trkpt lat="44.6226290" lon="7.2665550">
        <ele>1708.6</ele>
        <time>2017-07-25T08:15:27Z</time>
      </trkpt>
      <trkpt lat="44.6225620" lon="7.2666110">
        <ele>1707.2</ele>
        <time>2017-07-25T08:15:28Z</time>
      </trkpt>
      <trkpt lat="44.6224930" lon="7.2666690">
        <ele>1706.0</ele>
        <time>2017-07-25T08:15:29Z</time>
      </trkpt>
      <trkpt lat="44.6224210" lon="7.2667360">
        <ele>1704.2</ele>
        <time>2017-07-25T08:15:30Z</time>
      </trkpt>
      <trkpt lat="44.6223450" lon="7.2668130">
        <ele>1702.4</ele>
        <time>2017-07-25T08:15:31Z</time>
      </trkpt>
      <trkpt lat="44.6222610" lon="7.2668980">
        <ele>1700.2</ele>
        <time>2017-07-25T08:15:32Z</time>
      </trkpt>
      <trkpt lat="44.6221760" lon="7.2669890">
        <ele>1698.8</ele>
        <time>2017-07-25T08:15:33Z</time>
      </trkpt>
      <trkpt lat="44.6220930" lon="7.2670860">
        <ele>1697.0</ele>
        <time>2017-07-25T08:15:34Z</time>
      </trkpt>
      <trkpt lat="44.6220070" lon="7.2671800">
        <ele>1695.8</ele>
        <time>2017-07-25T08:15:35Z</time>
      </trkpt>
      <trkpt lat="44.6219220" lon="7.2672760">
        <ele>1694.4</ele>
        <time>2017-07-25T08:15:36Z</time>
      </trkpt>
      <trkpt lat="44.6218400" lon="7.2673660">
        <ele>1693.4</ele>
        <time>2017-07-25T08:15:37Z</time>
      </trkpt>
      <trkpt lat="44.6217600" lon="7.2674520">
        <ele>1692.2</ele>
        <time>2017-07-25T08:15:38Z</time>
      </trkpt>
      <trkpt lat="44.6216120" lon="7.2676010">
        <ele>1690.6</ele>
        <time>2017-07-25T08:15:40Z</time>
      </trkpt>
      <trkpt lat="44.6215480" lon="7.2676650">
        <ele>1690.2</ele>
        <time>2017-07-25T08:15:41Z</time>
      </trkpt>
      <trkpt lat="44.6214900" lon="7.2677270">
        <ele>1689.4</ele>
        <time>2017-07-25T08:15:42Z</time>
      </trkpt>
      <trkpt lat="44.6213950" lon="7.2678480">
        <ele>1688.2</ele>
        <time>2017-07-25T08:15:44Z</time>
      </trkpt>
      <trkpt lat="44.6213590" lon="7.2679030">
        <ele>1687.8</ele>
        <time>2017-07-25T08:15:45Z</time>
      </trkpt>
      <trkpt lat="44.6212910" lon="7.2679900">
        <ele>1687.2</ele>
        <time>2017-07-25T08:15:47Z</time>
      </trkpt>
      <trkpt lat="44.6211870" lon="7.2681230">
        <ele>1686.8</ele>
        <time>2017-07-25T08:15:50Z</time>
      </trkpt>
      <trkpt lat="44.6211540" lon="7.2681800">
        <ele>1686.6</ele>
        <time>2017-07-25T08:15:51Z</time>
      </trkpt>
      <trkpt lat="44.6210930" lon="7.2682420">
        <ele>1686.4</ele>
        <time>2017-07-25T08:15:53Z</time>
      </trkpt>
      <trkpt lat="44.6210330" lon="7.2682920">
        <ele>1686.2</ele>
        <time>2017-07-25T08:15:55Z</time>
      </trkpt>
      <trkpt lat="44.6209990" lon="7.2683130">
        <ele>1686.2</ele>
        <time>2017-07-25T08:15:56Z</time>
      </trkpt>
      <trkpt lat="44.6209560" lon="7.2683290">
        <ele>1686.2</ele>
        <time>2017-07-25T08:15:57Z</time>
      </trkpt>
      <trkpt lat="44.6209170" lon="7.2683520">
        <ele>1686.2</ele>
        <time>2017-07-25T08:15:58Z</time>
      </trkpt>
      <trkpt lat="44.6207630" lon="7.2684270">
        <ele>1686.2</ele>
        <time>2017-07-25T08:16:02Z</time>
      </trkpt>
      <trkpt lat="44.6207220" lon="7.2684450">
        <ele>1686.4</ele>
        <time>2017-07-25T08:16:03Z</time>
      </trkpt>
      <trkpt lat="44.6206440" lon="7.2685070">
        <ele>1686.4</ele>
        <time>2017-07-25T08:16:05Z</time>
      </trkpt>
      <trkpt lat="44.6205740" lon="7.2685920">
        <ele>1686.8</ele>
        <time>2017-07-25T08:16:07Z</time>
      </trkpt>
      <trkpt lat="44.6204520" lon="7.2686700">
        <ele>1687.0</ele>
        <time>2017-07-25T08:16:10Z</time>
      </trkpt>
      <trkpt lat="44.6204130" lon="7.2686940">
        <ele>1687.0</ele>
        <time>2017-07-25T08:16:11Z</time>
      </trkpt>
      <trkpt lat="44.6203700" lon="7.2687200">
        <ele>1687.2</ele>
        <time>2017-07-25T08:16:12Z</time>
      </trkpt>
      <trkpt lat="44.6202910" lon="7.2687830">
        <ele>1687.4</ele>
        <time>2017-07-25T08:16:14Z</time>
      </trkpt>
      <trkpt lat="44.6202230" lon="7.2688570">
        <ele>1687.2</ele>
        <time>2017-07-25T08:16:16Z</time>
      </trkpt>
      <trkpt lat="44.6199920" lon="7.2690680">
        <ele>1687.8</ele>
        <time>2017-07-25T08:16:22Z</time>
      </trkpt>
      <trkpt lat="44.6199070" lon="7.2691450">
        <ele>1688.4</ele>
        <time>2017-07-25T08:16:24Z</time>
      </trkpt>
      <trkpt lat="44.6197490" lon="7.2692500">
        <ele>1688.2</ele>
        <time>2017-07-25T08:16:28Z</time>
      </trkpt>
      <trkpt lat="44.6194990" lon="7.2694070">
        <ele>1689.6</ele>
        <time>2017-07-25T08:16:35Z</time>
      </trkpt>
      <trkpt lat="44.6193140" lon="7.2695640">
        <ele>1690.8</ele>
        <time>2017-07-25T08:16:41Z</time>
      </trkpt>
      <trkpt lat="44.6191160" lon="7.2697220">
        <ele>1691.8</ele>
        <time>2017-07-25T08:16:47Z</time>
      </trkpt>
      <trkpt lat="44.6190520" lon="7.2697690">
        <ele>1692.4</ele>
        <time>2017-07-25T08:16:49Z</time>
      </trkpt>
      <trkpt lat="44.6189330" lon="7.2698480">
        <ele>1692.8</ele>
        <time>2017-07-25T08:16:53Z</time>
      </trkpt>
      <trkpt lat="44.6188770" lon="7.2699030">
        <ele>1693.2</ele>
        <time>2017-07-25T08:16:55Z</time>
      </trkpt>
      <trkpt lat="44.6188190" lon="7.2699680">
        <ele>1694.0</ele>
        <time>2017-07-25T08:16:57Z</time>
      </trkpt>
      <trkpt lat="44.6187140" lon="7.2700900">
        <ele>1694.2</ele>
        <time>2017-07-25T08:17:00Z</time>
      </trkpt>
      <trkpt lat="44.6185730" lon="7.2702520">
        <ele>1694.4</ele>
        <time>2017-07-25T08:17:05Z</time>
      </trkpt>
      <trkpt lat="44.6184660" lon="7.2703970">
        <ele>1695.4</ele>
        <time>2017-07-25T08:17:10Z</time>
      </trkpt>
      <trkpt lat="44.6184560" lon="7.2704140">
        <ele>1695.6</ele>
        <time>2017-07-25T08:17:11Z</time>
      </trkpt>
      <trkpt lat="44.6183830" lon="7.2705200">
        <ele>1698.4</ele>
        <time>2017-07-25T08:17:24Z</time>
      </trkpt>
      <trkpt lat="44.6183710" lon="7.2705390">
        <ele>1698.8</ele>
        <time>2017-07-25T08:17:25Z</time>
      </trkpt>
      <trkpt lat="44.6183250" lon="7.2706760">
        <ele>1699.0</ele>
        <time>2017-07-25T08:17:30Z</time>
      </trkpt>
      <trkpt lat="44.6182540" lon="7.2707710">
        <ele>1698.4</ele>
        <time>2017-07-25T08:17:34Z</time>
      </trkpt>
      <trkpt lat="44.6182430" lon="7.2708230">
        <ele>1698.2</ele>
        <time>2017-07-25T08:17:35Z</time>
      </trkpt>
      <trkpt lat="44.6181920" lon="7.2710460">
        <ele>1697.2</ele>
        <time>2017-07-25T08:17:38Z</time>
      </trkpt>
      <trkpt lat="44.6181730" lon="7.2711170">
        <ele>1696.8</ele>
        <time>2017-07-25T08:17:39Z</time>
      </trkpt>
      <trkpt lat="44.6181570" lon="7.2711790">
        <ele>1696.0</ele>
        <time>2017-07-25T08:17:40Z</time>
      </trkpt>
      <trkpt lat="44.6181300" lon="7.2712930">
        <ele>1694.8</ele>
        <time>2017-07-25T08:17:42Z</time>
      </trkpt>
      <trkpt lat="44.6181180" lon="7.2713570">
        <ele>1694.6</ele>
        <time>2017-07-25T08:17:43Z</time>
      </trkpt>
      <trkpt lat="44.6181080" lon="7.2714220">
        <ele>1693.8</ele>
        <time>2017-07-25T08:17:44Z</time>
      </trkpt>
      <trkpt lat="44.6180970" lon="7.2714940">
        <ele>1693.0</ele>
        <time>2017-07-25T08:17:45Z</time>
      </trkpt>
      <trkpt lat="44.6180910" lon="7.2715440">
        <ele>1692.6</ele>
        <time>2017-07-25T08:17:46Z</time>
      </trkpt>
      <trkpt lat="44.6180720" lon="7.2716460">
        <ele>1691.4</ele>
        <time>2017-07-25T08:17:48Z</time>
      </trkpt>
      <trkpt lat="44.6180260" lon="7.2717830">
        <ele>1690.2</ele>
        <time>2017-07-25T08:17:50Z</time>
      </trkpt>
      <trkpt lat="44.6179660" lon="7.2719300">
        <ele>1688.6</ele>
        <time>2017-07-25T08:17:52Z</time>
      </trkpt>
      <trkpt lat="44.6179050" lon="7.2720710">
        <ele>1686.8</ele>
        <time>2017-07-25T08:17:54Z</time>
      </trkpt>
      <trkpt lat="44.6178730" lon="7.2721230">
        <ele>1685.4</ele>
        <time>2017-07-25T08:17:55Z</time>
      </trkpt>
      <trkpt lat="44.6178420" lon="7.2721560">
        <ele>1684.6</ele>
        <time>2017-07-25T08:17:56Z</time>
      </trkpt>
      <trkpt lat="44.6178140" lon="7.2721750">
        <ele>1684.0</ele>
        <time>2017-07-25T08:17:57Z</time>
      </trkpt>
      <trkpt lat="44.6177570" lon="7.2722030">
        <ele>1679.2</ele>
        <time>2017-07-25T08:18:06Z</time>
      </trkpt>
      <trkpt lat="44.6177400" lon="7.2722050">
        <ele>1677.6</ele>
        <time>2017-07-25T08:18:09Z</time>
      </trkpt>
      <trkpt lat="44.6177040" lon="7.2722110">
        <ele>1676.4</ele>
        <time>2017-07-25T08:18:14Z</time>
      </trkpt>
      <trkpt lat="44.6176790" lon="7.2722110">
        <ele>1676.2</ele>
        <time>2017-07-25T08:18:15Z</time>
      </trkpt>
      <trkpt lat="44.6176070" lon="7.2721930">
        <ele>1675.8</ele>
        <time>2017-07-25T08:18:19Z</time>
      </trkpt>
      <trkpt lat="44.6175930" lon="7.2722080">
        <ele>1675.6</ele>
        <time>2017-07-25T08:18:20Z</time>
      </trkpt>
      <trkpt lat="44.6174840" lon="7.2723250">
        <ele>1675.4</ele>
        <time>2017-07-25T08:18:24Z</time>
      </trkpt>
      <trkpt lat="44.6173820" lon="7.2723850">
        <ele>1675.2</ele>
        <time>2017-07-25T08:18:26Z</time>
      </trkpt>
      <trkpt lat="44.6172700" lon="7.2724660">
        <ele>1674.8</ele>
        <time>2017-07-25T08:18:28Z</time>
      </trkpt>
      <trkpt lat="44.6172160" lon="7.2724990">
        <ele>1674.2</ele>
        <time>2017-07-25T08:18:29Z</time>
      </trkpt>
      <trkpt lat="44.6171610" lon="7.2725070">
        <ele>1673.6</ele>
        <time>2017-07-25T08:18:30Z</time>
      </trkpt>
      <trkpt lat="44.6170260" lon="7.2725340">
        <ele>1672.4</ele>
        <time>2017-07-25T08:18:32Z</time>
      </trkpt>
      <trkpt lat="44.6169240" lon="7.2726010">
        <ele>1671.2</ele>
        <time>2017-07-25T08:18:34Z</time>
      </trkpt>
      <trkpt lat="44.6169110" lon="7.2726100">
        <ele>1671.0</ele>
        <time>2017-07-25T08:18:35Z</time>
      </trkpt>
      <trkpt lat="44.6168670" lon="7.2726700">
        <ele>1669.6</ele>
        <time>2017-07-25T08:18:43Z</time>
      </trkpt>
      <trkpt lat="44.6168610" lon="7.2726810">
        <ele>1669.6</ele>
        <time>2017-07-25T08:18:44Z</time>
      </trkpt>
      <trkpt lat="44.6168570" lon="7.2726950">
        <ele>1669.6</ele>
        <time>2017-07-25T08:18:45Z</time>
      </trkpt>
      <trkpt lat="44.6168480" lon="7.2727150">
        <ele>1669.2</ele>
        <time>2017-07-25T08:18:47Z</time>
      </trkpt>
      <trkpt lat="44.6168320" lon="7.2727280">
        <ele>1669.2</ele>
        <time>2017-07-25T08:18:49Z</time>
      </trkpt>
      <trkpt lat="44.6167790" lon="7.2727770">
        <ele>1669.2</ele>
        <time>2017-07-25T08:18:55Z</time>
      </trkpt>
      <trkpt lat="44.6167270" lon="7.2728590">
        <ele>1668.6</ele>
        <time>2017-07-25T08:19:08Z</time>
      </trkpt>
      <trkpt lat="44.6167200" lon="7.2728930">
        <ele>1668.4</ele>
        <time>2017-07-25T08:19:10Z</time>
      </trkpt>
      <trkpt lat="44.6167020" lon="7.2729720">
        <ele>1668.8</ele>
        <time>2017-07-25T08:19:16Z</time>
      </trkpt>
      <trkpt lat="44.6166940" lon="7.2730030">
        <ele>1669.8</ele>
        <time>2017-07-25T08:19:20Z</time>
      </trkpt>
      <trkpt lat="44.6166870" lon="7.2730220">
        <ele>1670.0</ele>
        <time>2017-07-25T08:19:22Z</time>
      </trkpt>
      <trkpt lat="44.6166870" lon="7.2730370">
        <ele>1670.2</ele>
        <time>2017-07-25T08:19:23Z</time>
      </trkpt>
      <trkpt lat="44.6166700" lon="7.2730550">
        <ele>1670.6</ele>
        <time>2017-07-25T08:19:26Z</time>
      </trkpt>
      <trkpt lat="44.6166670" lon="7.2730610">
        <ele>1670.8</ele>
        <time>2017-07-25T08:19:27Z</time>
      </trkpt>
      <trkpt lat="44.6166380" lon="7.2730690">
        <ele>1671.6</ele>
        <time>2017-07-25T08:19:32Z</time>
      </trkpt>
      <trkpt lat="44.6166320" lon="7.2730660">
        <ele>1672.0</ele>
        <time>2017-07-25T08:19:33Z</time>
      </trkpt>
      <trkpt lat="44.6166030" lon="7.2730600">
        <ele>1673.0</ele>
        <time>2017-07-25T08:19:37Z</time>
      </trkpt>
      <trkpt lat="44.6165850" lon="7.2730540">
        <ele>1673.4</ele>
        <time>2017-07-25T08:19:39Z</time>
      </trkpt>
      <trkpt lat="44.6165660" lon="7.2730770">
        <ele>1674.0</ele>
        <time>2017-07-25T08:19:42Z</time>
      </trkpt>
      <trkpt lat="44.6165580" lon="7.2730780">
        <ele>1674.2</ele>
        <time>2017-07-25T08:19:43Z</time>
      </trkpt>
      <trkpt lat="44.6165460" lon="7.2730830">
        <ele>1674.4</ele>
        <time>2017-07-25T08:19:44Z</time>
      </trkpt>
      <trkpt lat="44.6164870" lon="7.2731200">
        <ele>1675.0</ele>
        <time>2017-07-25T08:19:50Z</time>
      </trkpt>
      <trkpt lat="44.6164690" lon="7.2731320">
        <ele>1675.0</ele>
        <time>2017-07-25T08:19:52Z</time>
      </trkpt>
      <trkpt lat="44.6164440" lon="7.2731790">
        <ele>1674.8</ele>
        <time>2017-07-25T08:19:56Z</time>
      </trkpt>
      <trkpt lat="44.6164050" lon="7.2732140">
        <ele>1675.2</ele>
        <time>2017-07-25T08:20:01Z</time>
      </trkpt>
      <trkpt lat="44.6163880" lon="7.2732230">
        <ele>1675.6</ele>
        <time>2017-07-25T08:20:03Z</time>
      </trkpt>
      <trkpt lat="44.6163790" lon="7.2732300">
        <ele>1675.8</ele>
        <time>2017-07-25T08:20:04Z</time>
      </trkpt>
      <trkpt lat="44.6163620" lon="7.2732470">
        <ele>1676.2</ele>
        <time>2017-07-25T08:20:06Z</time>
      </trkpt>
      <trkpt lat="44.6163300" lon="7.2732530">
        <ele>1677.2</ele>
        <time>2017-07-25T08:20:10Z</time>
      </trkpt>
      <trkpt lat="44.6163100" lon="7.2732500">
        <ele>1677.6</ele>
        <time>2017-07-25T08:20:12Z</time>
      </trkpt>
      <trkpt lat="44.6162720" lon="7.2732660">
        <ele>1678.4</ele>
        <time>2017-07-25T08:20:15Z</time>
      </trkpt>
      <trkpt lat="44.6162450" lon="7.2732990">
        <ele>1678.4</ele>
        <time>2017-07-25T08:20:18Z</time>
      </trkpt>
      <trkpt lat="44.6162390" lon="7.2733420">
        <ele>1678.8</ele>
        <time>2017-07-25T08:20:21Z</time>
      </trkpt>
      <trkpt lat="44.6162240" lon="7.2733620">
        <ele>1678.6</ele>
        <time>2017-07-25T08:20:23Z</time>
      </trkpt>
      <trkpt lat="44.6162130" lon="7.2733710">
        <ele>1678.6</ele>
        <time>2017-07-25T08:20:24Z</time>
      </trkpt>
      <trkpt lat="44.6162010" lon="7.2733790">
        <ele>1678.6</ele>
        <time>2017-07-25T08:20:25Z</time>
      </trkpt>
      <trkpt lat="44.6161550" lon="7.2734460">
        <ele>1678.2</ele>
        <time>2017-07-25T08:20:32Z</time>
      </trkpt>
      <trkpt lat="44.6161080" lon="7.2734990">
        <ele>1678.4</ele>
        <time>2017-07-25T08:20:39Z</time>
      </trkpt>
      <trkpt lat="44.6161010" lon="7.2734990">
        <ele>1678.8</ele>
        <time>2017-07-25T08:20:40Z</time>
      </trkpt>
      <trkpt lat="44.6160800" lon="7.2735150">
        <ele>1679.4</ele>
        <time>2017-07-25T08:20:43Z</time>
      </trkpt>
      <trkpt lat="44.6159930" lon="7.2736530">
        <ele>1679.6</ele>
        <time>2017-07-25T08:20:58Z</time>
      </trkpt>
      <trkpt lat="44.6159580" lon="7.2736880">
        <ele>1680.4</ele>
        <time>2017-07-25T08:21:03Z</time>
      </trkpt>
      <trkpt lat="44.6159430" lon="7.2736970">
        <ele>1680.6</ele>
        <time>2017-07-25T08:21:05Z</time>
      </trkpt>
      <trkpt lat="44.6159130" lon="7.2737100">
        <ele>1681.4</ele>
        <time>2017-07-25T08:21:09Z</time>
      </trkpt>
      <trkpt lat="44.6159040" lon="7.2737140">
        <ele>1681.4</ele>
        <time>2017-07-25T08:21:10Z</time>
      </trkpt>
      <trkpt lat="44.6158920" lon="7.2737120">
        <ele>1681.6</ele>
        <time>2017-07-25T08:21:11Z</time>
      </trkpt>
      <trkpt lat="44.6158650" lon="7.2737160">
        <ele>1682.6</ele>
        <time>2017-07-25T08:21:14Z</time>
      </trkpt>
      <trkpt lat="44.6158490" lon="7.2737320">
        <ele>1682.6</ele>
        <time>2017-07-25T08:21:16Z</time>
      </trkpt>
      <trkpt lat="44.6157770" lon="7.2737640">
        <ele>1683.2</ele>
        <time>2017-07-25T08:21:24Z</time>
      </trkpt>
      <trkpt lat="44.6157120" lon="7.2738370">
        <ele>1682.8</ele>
        <time>2017-07-25T08:21:32Z</time>
      </trkpt>
      <trkpt lat="44.6156730" lon="7.2738950">
        <ele>1682.6</ele>
        <time>2017-07-25T08:21:37Z</time>
      </trkpt>
      <trkpt lat="44.6156440" lon="7.2739130">
        <ele>1682.2</ele>
        <time>2017-07-25T08:21:40Z</time>
      </trkpt>
      <trkpt lat="44.6155780" lon="7.2739670">
        <ele>1682.6</ele>
        <time>2017-07-25T08:21:47Z</time>
      </trkpt>
      <trkpt lat="44.6154950" lon="7.2740460">
        <ele>1683.2</ele>
        <time>2017-07-25T08:21:53Z</time>
      </trkpt>
      <trkpt lat="44.6153570" lon="7.2742430">
        <ele>1683.2</ele>
        <time>2017-07-25T08:21:58Z</time>
      </trkpt>
      <trkpt lat="44.6153000" lon="7.2743730">
        <ele>1683.0</ele>
        <time>2017-07-25T08:22:00Z</time>
      </trkpt>
      <trkpt lat="44.6152660" lon="7.2745070">
        <ele>1683.2</ele>
        <time>2017-07-25T08:22:02Z</time>
      </trkpt>
      <trkpt lat="44.6152310" lon="7.2746010">
        <ele>1683.0</ele>
        <time>2017-07-25T08:22:04Z</time>
      </trkpt>
      <trkpt lat="44.6152110" lon="7.2746160">
        <ele>1682.8</ele>
        <time>2017-07-25T08:22:05Z</time>
      </trkpt>
      <trkpt lat="44.6151580" lon="7.2746930">
        <ele>1681.8</ele>
        <time>2017-07-25T08:22:09Z</time>
      </trkpt>
      <trkpt lat="44.6151510" lon="7.2747200">
        <ele>1680.8</ele>
        <time>2017-07-25T08:22:10Z</time>
      </trkpt>
      <trkpt lat="44.6151230" lon="7.2747660">
        <ele>1680.0</ele>
        <time>2017-07-25T08:22:12Z</time>
      </trkpt>
      <trkpt lat="44.6151090" lon="7.2747880">
        <ele>1679.6</ele>
        <time>2017-07-25T08:22:13Z</time>
      </trkpt>
      <trkpt lat="44.6150960" lon="7.2747950">
        <ele>1678.8</ele>
        <time>2017-07-25T08:22:14Z</time>
      </trkpt>
      <trkpt lat="44.6150820" lon="7.2747950">
        <ele>1678.4</ele>
        <time>2017-07-25T08:22:15Z</time>
      </trkpt>
      <trkpt lat="44.6150680" lon="7.2747940">
        <ele>1677.8</ele>
        <time>2017-07-25T08:22:16Z</time>
      </trkpt>
      <trkpt lat="44.6150530" lon="7.2747890">
        <ele>1677.2</ele>
        <time>2017-07-25T08:22:17Z</time>
      </trkpt>
      <trkpt lat="44.6150260" lon="7.2747700">
        <ele>1675.8</ele>
        <time>2017-07-25T08:22:19Z</time>
      </trkpt>
      <trkpt lat="44.6150150" lon="7.2747740">
        <ele>1675.2</ele>
        <time>2017-07-25T08:22:20Z</time>
      </trkpt>
      <trkpt lat="44.6150110" lon="7.2747800">
        <ele>1674.6</ele>
        <time>2017-07-25T08:22:21Z</time>
      </trkpt>
      <trkpt lat="44.6149690" lon="7.2749120">
        <ele>1663.6</ele>
        <time>2017-07-25T08:22:46Z</time>
      </trkpt>
      <trkpt lat="44.6149560" lon="7.2749330">
        <ele>1663.4</ele>
        <time>2017-07-25T08:22:47Z</time>
      </trkpt>
      <trkpt lat="44.6149170" lon="7.2750020">
        <ele>1662.2</ele>
        <time>2017-07-25T08:22:50Z</time>
      </trkpt>
      <trkpt lat="44.6148640" lon="7.2750880">
        <ele>1660.8</ele>
        <time>2017-07-25T08:22:53Z</time>
      </trkpt>
      <trkpt lat="44.6148280" lon="7.2751700">
        <ele>1659.6</ele>
        <time>2017-07-25T08:22:55Z</time>
      </trkpt>
      <trkpt lat="44.6148090" lon="7.2752550">
        <ele>1658.6</ele>
        <time>2017-07-25T08:22:57Z</time>
      </trkpt>
      <trkpt lat="44.6147990" lon="7.2752970">
        <ele>1656.8</ele>
        <time>2017-07-25T08:22:58Z</time>
      </trkpt>
      <trkpt lat="44.6147840" lon="7.2753820">
        <ele>1655.4</ele>
        <time>2017-07-25T08:23:00Z</time>
      </trkpt>
      <trkpt lat="44.6147740" lon="7.2754520">
        <ele>1653.6</ele>
        <time>2017-07-25T08:23:02Z</time>
      </trkpt>
      <trkpt lat="44.6147640" lon="7.2754680">
        <ele>1652.8</ele>
        <time>2017-07-25T08:23:03Z</time>
      </trkpt>
      <trkpt lat="44.6147540" lon="7.2754840">
        <ele>1652.4</ele>
        <time>2017-07-25T08:23:04Z</time>
      </trkpt>
      <trkpt lat="44.6147370" lon="7.2755300">
        <ele>1651.0</ele>
        <time>2017-07-25T08:23:06Z</time>
      </trkpt>
      <trkpt lat="44.6147290" lon="7.2755730">
        <ele>1649.4</ele>
        <time>2017-07-25T08:23:08Z</time>
      </trkpt>
      <trkpt lat="44.6147260" lon="7.2755970">
        <ele>1648.6</ele>
        <time>2017-07-25T08:23:09Z</time>
      </trkpt>
      <trkpt lat="44.6147210" lon="7.2756100">
        <ele>1648.0</ele>
        <time>2017-07-25T08:23:10Z</time>
      </trkpt>
      <trkpt lat="44.6147070" lon="7.2756540">
        <ele>1646.6</ele>
        <time>2017-07-25T08:23:12Z</time>
      </trkpt>
      <trkpt lat="44.6146980" lon="7.2756760">
        <ele>1645.8</ele>
        <time>2017-07-25T08:23:13Z</time>
      </trkpt>
      <trkpt lat="44.6146880" lon="7.2756950">
        <ele>1644.8</ele>
        <time>2017-07-25T08:23:14Z</time>
      </trkpt>
      <trkpt lat="44.6146780" lon="7.2757260">
        <ele>1643.4</ele>
        <time>2017-07-25T08:23:16Z</time>
      </trkpt>
      <trkpt lat="44.6146840" lon="7.2757620">
        <ele>1642.2</ele>
        <time>2017-07-25T08:23:18Z</time>
      </trkpt>
      <trkpt lat="44.6146810" lon="7.2757840">
        <ele>1641.8</ele>
        <time>2017-07-25T08:23:19Z</time>
      </trkpt>
      <trkpt lat="44.6146780" lon="7.2758060">
        <ele>1641.2</ele>
        <time>2017-07-25T08:23:20Z</time>
      </trkpt>
      <trkpt lat="44.6146620" lon="7.2758480">
        <ele>1639.2</ele>
        <time>2017-07-25T08:23:22Z</time>
      </trkpt>
      <trkpt lat="44.6146460" lon="7.2758910">
        <ele>1637.8</ele>
        <time>2017-07-25T08:23:24Z</time>
      </trkpt>
      <trkpt lat="44.6146260" lon="7.2759220">
        <ele>1636.2</ele>
        <time>2017-07-25T08:23:26Z</time>
      </trkpt>
      <trkpt lat="44.6146040" lon="7.2759600">
        <ele>1635.0</ele>
        <time>2017-07-25T08:23:28Z</time>
      </trkpt>
      <trkpt lat="44.6145840" lon="7.2760150">
        <ele>1633.2</ele>
        <time>2017-07-25T08:23:30Z</time>
      </trkpt>
      <trkpt lat="44.6145590" lon="7.2760730">
        <ele>1631.6</ele>
        <time>2017-07-25T08:23:32Z</time>
      </trkpt>
      <trkpt lat="44.6145360" lon="7.2761350">
        <ele>1630.0</ele>
        <time>2017-07-25T08:23:34Z</time>
      </trkpt>
      <trkpt lat="44.6145090" lon="7.2761960">
        <ele>1628.4</ele>
        <time>2017-07-25T08:23:36Z</time>
      </trkpt>
      <trkpt lat="44.6144820" lon="7.2762550">
        <ele>1627.0</ele>
        <time>2017-07-25T08:23:38Z</time>
      </trkpt>
      <trkpt lat="44.6144550" lon="7.2762820">
        <ele>1625.4</ele>
        <time>2017-07-25T08:23:40Z</time>
      </trkpt>
      <trkpt lat="44.6144290" lon="7.2763130">
        <ele>1624.0</ele>
        <time>2017-07-25T08:23:42Z</time>
      </trkpt>
      <trkpt lat="44.6144030" lon="7.2763580">
        <ele>1622.6</ele>
        <time>2017-07-25T08:23:44Z</time>
      </trkpt>
      <trkpt lat="44.6143820" lon="7.2764040">
        <ele>1619.6</ele>
        <time>2017-07-25T08:23:46Z</time>
      </trkpt>
      <trkpt lat="44.6143720" lon="7.2764280">
        <ele>1618.8</ele>
        <time>2017-07-25T08:23:47Z</time>
      </trkpt>
      <trkpt lat="44.6143600" lon="7.2764500">
        <ele>1618.0</ele>
        <time>2017-07-25T08:23:48Z</time>
      </trkpt>
      <trkpt lat="44.6143360" lon="7.2764940">
        <ele>1616.0</ele>
        <time>2017-07-25T08:23:50Z</time>
      </trkpt>
      <trkpt lat="44.6143230" lon="7.2765240">
        <ele>1615.0</ele>
        <time>2017-07-25T08:23:51Z</time>
      </trkpt>
      <trkpt lat="44.6142960" lon="7.2765800">
        <ele>1613.4</ele>
        <time>2017-07-25T08:23:53Z</time>
      </trkpt>
      <trkpt lat="44.6142820" lon="7.2766120">
        <ele>1612.4</ele>
        <time>2017-07-25T08:23:54Z</time>
      </trkpt>
      <trkpt lat="44.6142740" lon="7.2766460">
        <ele>1611.4</ele>
        <time>2017-07-25T08:23:55Z</time>
      </trkpt>
      <trkpt lat="44.6142610" lon="7.2766800">
        <ele>1610.2</ele>
        <time>2017-07-25T08:23:56Z</time>
      </trkpt>
      <trkpt lat="44.6142360" lon="7.2767600">
        <ele>1608.6</ele>
        <time>2017-07-25T08:23:58Z</time>
      </trkpt>
      <trkpt lat="44.6142200" lon="7.2768330">
        <ele>1607.8</ele>
        <time>2017-07-25T08:23:59Z</time>
      </trkpt>
      <trkpt lat="44.6142060" lon="7.2769120">
        <ele>1606.8</ele>
        <time>2017-07-25T08:24:00Z</time>
      </trkpt>
      <trkpt lat="44.6141770" lon="7.2770820">
        <ele>1604.8</ele>
        <time>2017-07-25T08:24:02Z</time>
      </trkpt>
      <trkpt lat="44.6141330" lon="7.2772560">
        <ele>1602.8</ele>
        <time>2017-07-25T08:24:04Z</time>
      </trkpt>
      <trkpt lat="44.6141060" lon="7.2773390">
        <ele>1601.6</ele>
        <time>2017-07-25T08:24:05Z</time>
      </trkpt>
      <trkpt lat="44.6140740" lon="7.2774120">
        <ele>1600.4</ele>
        <time>2017-07-25T08:24:06Z</time>
      </trkpt>
      <trkpt lat="44.6139830" lon="7.2775210">
        <ele>1599.0</ele>
        <time>2017-07-25T08:24:08Z</time>
      </trkpt>
      <trkpt lat="44.6138760" lon="7.2776230">
        <ele>1596.4</ele>
        <time>2017-07-25T08:24:10Z</time>
      </trkpt>
      <trkpt lat="44.6138220" lon="7.2776750">
        <ele>1595.2</ele>
        <time>2017-07-25T08:24:11Z</time>
      </trkpt>
      <trkpt lat="44.6137010" lon="7.2777980">
        <ele>1593.2</ele>
        <time>2017-07-25T08:24:13Z</time>
      </trkpt>
      <trkpt lat="44.6136410" lon="7.2778740">
        <ele>1592.4</ele>
        <time>2017-07-25T08:24:14Z</time>
      </trkpt>
      <trkpt lat="44.6135790" lon="7.2779460">
        <ele>1591.2</ele>
        <time>2017-07-25T08:24:15Z</time>
      </trkpt>
      <trkpt lat="44.6134560" lon="7.2781010">
        <ele>1589.2</ele>
        <time>2017-07-25T08:24:17Z</time>
      </trkpt>
      <trkpt lat="44.6133960" lon="7.2781990">
        <ele>1588.2</ele>
        <time>2017-07-25T08:24:18Z</time>
      </trkpt>
      <trkpt lat="44.6133360" lon="7.2782930">
        <ele>1587.2</ele>
        <time>2017-07-25T08:24:19Z</time>
      </trkpt>
      <trkpt lat="44.6132810" lon="7.2783830">
        <ele>1586.2</ele>
        <time>2017-07-25T08:24:20Z</time>
      </trkpt>
      <trkpt lat="44.6132400" lon="7.2784450">
        <ele>1585.2</ele>
        <time>2017-07-25T08:24:21Z</time>
      </trkpt>
      <trkpt lat="44.6132010" lon="7.2785010">
        <ele>1584.0</ele>
        <time>2017-07-25T08:24:22Z</time>
      </trkpt>
      <trkpt lat="44.6131610" lon="7.2785600">
        <ele>1583.2</ele>
        <time>2017-07-25T08:24:23Z</time>
      </trkpt>
      <trkpt lat="44.6131230" lon="7.2786190">
        <ele>1581.8</ele>
        <time>2017-07-25T08:24:24Z</time>
      </trkpt>
      <trkpt lat="44.6130910" lon="7.2786820">
        <ele>1581.2</ele>
        <time>2017-07-25T08:24:25Z</time>
      </trkpt>
      <trkpt lat="44.6130640" lon="7.2787510">
        <ele>1580.0</ele>
        <time>2017-07-25T08:24:26Z</time>
      </trkpt>
      <trkpt lat="44.6130390" lon="7.2788190">
        <ele>1578.8</ele>
        <time>2017-07-25T08:24:27Z</time>
      </trkpt>
      <trkpt lat="44.6130090" lon="7.2788860">
        <ele>1577.4</ele>
        <time>2017-07-25T08:24:28Z</time>
      </trkpt>
      <trkpt lat="44.6129770" lon="7.2789580">
        <ele>1576.0</ele>
        <time>2017-07-25T08:24:29Z</time>
      </trkpt>
      <trkpt lat="44.6129400" lon="7.2790470">
        <ele>1574.8</ele>
        <time>2017-07-25T08:24:30Z</time>
      </trkpt>
      <trkpt lat="44.6129030" lon="7.2791440">
        <ele>1573.2</ele>
        <time>2017-07-25T08:24:31Z</time>
      </trkpt>
      <trkpt lat="44.6128620" lon="7.2792520">
        <ele>1572.0</ele>
        <time>2017-07-25T08:24:32Z</time>
      </trkpt>
      <trkpt lat="44.6127740" lon="7.2795100">
        <ele>1568.4</ele>
        <time>2017-07-25T08:24:34Z</time>
      </trkpt>
      <trkpt lat="44.6127250" lon="7.2796540">
        <ele>1566.8</ele>
        <time>2017-07-25T08:24:35Z</time>
      </trkpt>
      <trkpt lat="44.6126750" lon="7.2797990">
        <ele>1565.6</ele>
        <time>2017-07-25T08:24:36Z</time>
      </trkpt>
      <trkpt lat="44.6126230" lon="7.2799410">
        <ele>1564.4</ele>
        <time>2017-07-25T08:24:37Z</time>
      </trkpt>
      <trkpt lat="44.6125750" lon="7.2800820">
        <ele>1563.2</ele>
        <time>2017-07-25T08:24:38Z</time>
      </trkpt>
      <trkpt lat="44.6125310" lon="7.2802130">
        <ele>1562.0</ele>
        <time>2017-07-25T08:24:39Z</time>
      </trkpt>
      <trkpt lat="44.6124660" lon="7.2804230">
        <ele>1560.2</ele>
        <time>2017-07-25T08:24:41Z</time>
      </trkpt>
      <trkpt lat="44.6124130" lon="7.2805400">
        <ele>1559.0</ele>
        <time>2017-07-25T08:24:43Z</time>
      </trkpt>
      <trkpt lat="44.6123850" lon="7.2805890">
        <ele>1558.6</ele>
        <time>2017-07-25T08:24:44Z</time>
      </trkpt>
      <trkpt lat="44.6123580" lon="7.2806450">
        <ele>1557.8</ele>
        <time>2017-07-25T08:24:45Z</time>
      </trkpt>
      <trkpt lat="44.6122900" lon="7.2808740">
        <ele>1556.8</ele>
        <time>2017-07-25T08:24:48Z</time>
      </trkpt>
      <trkpt lat="44.6122680" lon="7.2809510">
        <ele>1556.4</ele>
        <time>2017-07-25T08:24:49Z</time>
      </trkpt>
      <trkpt lat="44.6122070" lon="7.2810900">
        <ele>1555.8</ele>
        <time>2017-07-25T08:24:51Z</time>
      </trkpt>
      <trkpt lat="44.6121680" lon="7.2811610">
        <ele>1555.2</ele>
        <time>2017-07-25T08:24:52Z</time>
      </trkpt>
      <trkpt lat="44.6121250" lon="7.2812390">
        <ele>1554.4</ele>
        <time>2017-07-25T08:24:53Z</time>
      </trkpt>
      <trkpt lat="44.6120840" lon="7.2813250">
        <ele>1553.4</ele>
        <time>2017-07-25T08:24:54Z</time>
      </trkpt>
      <trkpt lat="44.6120500" lon="7.2814200">
        <ele>1552.6</ele>
        <time>2017-07-25T08:24:55Z</time>
      </trkpt>
      <trkpt lat="44.6120270" lon="7.2815290">
        <ele>1551.8</ele>
        <time>2017-07-25T08:24:56Z</time>
      </trkpt>
      <trkpt lat="44.6120110" lon="7.2816480">
        <ele>1551.0</ele>
        <time>2017-07-25T08:24:57Z</time>
      </trkpt>
      <trkpt lat="44.6119920" lon="7.2817450">
        <ele>1548.6</ele>
        <time>2017-07-25T08:24:58Z</time>
      </trkpt>
      <trkpt lat="44.6119440" lon="7.2818850">
        <ele>1547.0</ele>
        <time>2017-07-25T08:25:00Z</time>
      </trkpt>
      <trkpt lat="44.6118940" lon="7.2820290">
        <ele>1545.0</ele>
        <time>2017-07-25T08:25:02Z</time>
      </trkpt>
      <trkpt lat="44.6118710" lon="7.2820970">
        <ele>1543.6</ele>
        <time>2017-07-25T08:25:03Z</time>
      </trkpt>
      <trkpt lat="44.6118590" lon="7.2821660">
        <ele>1542.6</ele>
        <time>2017-07-25T08:25:04Z</time>
      </trkpt>
      <trkpt lat="44.6118600" lon="7.2822370">
        <ele>1541.0</ele>
        <time>2017-07-25T08:25:05Z</time>
      </trkpt>
      <trkpt lat="44.6118710" lon="7.2823250">
        <ele>1539.6</ele>
        <time>2017-07-25T08:25:06Z</time>
      </trkpt>
      <trkpt lat="44.6118800" lon="7.2824470">
        <ele>1538.2</ele>
        <time>2017-07-25T08:25:07Z</time>
      </trkpt>
      <trkpt lat="44.6118850" lon="7.2825740">
        <ele>1537.0</ele>
        <time>2017-07-25T08:25:08Z</time>
      </trkpt>
      <trkpt lat="44.6118780" lon="7.2827190">
        <ele>1535.8</ele>
        <time>2017-07-25T08:25:09Z</time>
      </trkpt>
      <trkpt lat="44.6118630" lon="7.2828620">
        <ele>1534.8</ele>
        <time>2017-07-25T08:25:10Z</time>
      </trkpt>
      <trkpt lat="44.6118250" lon="7.2830070">
        <ele>1533.2</ele>
        <time>2017-07-25T08:25:11Z</time>
      </trkpt>
      <trkpt lat="44.6117810" lon="7.2831490">
        <ele>1531.4</ele>
        <time>2017-07-25T08:25:12Z</time>
      </trkpt>
      <trkpt lat="44.6117330" lon="7.2832830">
        <ele>1530.0</ele>
        <time>2017-07-25T08:25:13Z</time>
      </trkpt>
      <trkpt lat="44.6116820" lon="7.2833920">
        <ele>1529.4</ele>
        <time>2017-07-25T08:25:14Z</time>
      </trkpt>
      <trkpt lat="44.6116290" lon="7.2834920">
        <ele>1529.0</ele>
        <time>2017-07-25T08:25:15Z</time>
      </trkpt>
      <trkpt lat="44.6115790" lon="7.2835860">
        <ele>1528.2</ele>
        <time>2017-07-25T08:25:16Z</time>
      </trkpt>
      <trkpt lat="44.6114850" lon="7.2837930">
        <ele>1526.8</ele>
        <time>2017-07-25T08:25:18Z</time>
      </trkpt>
      <trkpt lat="44.6114450" lon="7.2839170">
        <ele>1526.2</ele>
        <time>2017-07-25T08:25:19Z</time>
      </trkpt>
      <trkpt lat="44.6114160" lon="7.2840540">
        <ele>1525.4</ele>
        <time>2017-07-25T08:25:20Z</time>
      </trkpt>
      <trkpt lat="44.6113560" lon="7.2842870">
        <ele>1523.4</ele>
        <time>2017-07-25T08:25:22Z</time>
      </trkpt>
      <trkpt lat="44.6113180" lon="7.2843570">
        <ele>1523.0</ele>
        <time>2017-07-25T08:25:23Z</time>
      </trkpt>
      <trkpt lat="44.6112740" lon="7.2843900">
        <ele>1522.2</ele>
        <time>2017-07-25T08:25:24Z</time>
      </trkpt>
      <trkpt lat="44.6112350" lon="7.2843930">
        <ele>1522.0</ele>
        <time>2017-07-25T08:25:25Z</time>
      </trkpt>
      <trkpt lat="44.6111400" lon="7.2842350">
        <ele>1520.6</ele>
        <time>2017-07-25T08:25:28Z</time>
      </trkpt>
      <trkpt lat="44.6111120" lon="7.2840310">
        <ele>1519.4</ele>
        <time>2017-07-25T08:25:30Z</time>
      </trkpt>
      <trkpt lat="44.6111070" lon="7.2839140">
        <ele>1519.0</ele>
        <time>2017-07-25T08:25:31Z</time>
      </trkpt>
      <trkpt lat="44.6111020" lon="7.2837930">
        <ele>1518.4</ele>
        <time>2017-07-25T08:25:32Z</time>
      </trkpt>
      <trkpt lat="44.6110960" lon="7.2835710">
        <ele>1517.4</ele>
        <time>2017-07-25T08:25:34Z</time>
      </trkpt>
      <trkpt lat="44.6110710" lon="7.2834640">
        <ele>1516.8</ele>
        <time>2017-07-25T08:25:35Z</time>
      </trkpt>
      <trkpt lat="44.6110410" lon="7.2833620">
        <ele>1516.2</ele>
        <time>2017-07-25T08:25:36Z</time>
      </trkpt>
      <trkpt lat="44.6109910" lon="7.2831750">
        <ele>1515.0</ele>
        <time>2017-07-25T08:25:38Z</time>
      </trkpt>
      <trkpt lat="44.6109570" lon="7.2829970">
        <ele>1513.0</ele>
        <time>2017-07-25T08:25:40Z</time>
      </trkpt>
      <trkpt lat="44.6109430" lon="7.2828990">
        <ele>1512.4</ele>
        <time>2017-07-25T08:25:41Z</time>
      </trkpt>
      <trkpt lat="44.6109650" lon="7.2827630">
        <ele>1511.6</ele>
        <time>2017-07-25T08:25:42Z</time>
      </trkpt>
      <trkpt lat="44.6109820" lon="7.2826140">
        <ele>1510.6</ele>
        <time>2017-07-25T08:25:43Z</time>
      </trkpt>
      <trkpt lat="44.6109810" lon="7.2824560">
        <ele>1509.6</ele>
        <time>2017-07-25T08:25:44Z</time>
      </trkpt>
      <trkpt lat="44.6109440" lon="7.2821660">
        <ele>1507.0</ele>
        <time>2017-07-25T08:25:46Z</time>
      </trkpt>
      <trkpt lat="44.6108970" lon="7.2819240">
        <ele>1505.4</ele>
        <time>2017-07-25T08:25:48Z</time>
      </trkpt>
      <trkpt lat="44.6108820" lon="7.2817990">
        <ele>1504.0</ele>
        <time>2017-07-25T08:25:49Z</time>
      </trkpt>
      <trkpt lat="44.6108740" lon="7.2816680">
        <ele>1502.6</ele>
        <time>2017-07-25T08:25:50Z</time>
      </trkpt>
      <trkpt lat="44.6108820" lon="7.2813780">
        <ele>1500.6</ele>
        <time>2017-07-25T08:25:52Z</time>
      </trkpt>
      <trkpt lat="44.6109070" lon="7.2812330">
        <ele>1499.6</ele>
        <time>2017-07-25T08:25:53Z</time>
      </trkpt>
      <trkpt lat="44.6109370" lon="7.2811130">
        <ele>1498.6</ele>
        <time>2017-07-25T08:25:54Z</time>
      </trkpt>
      <trkpt lat="44.6109600" lon="7.2808400">
        <ele>1496.6</ele>
        <time>2017-07-25T08:25:56Z</time>
      </trkpt>
      <trkpt lat="44.6109590" lon="7.2806970">
        <ele>1495.6</ele>
        <time>2017-07-25T08:25:57Z</time>
      </trkpt>
      <trkpt lat="44.6109520" lon="7.2805610">
        <ele>1494.4</ele>
        <time>2017-07-25T08:25:58Z</time>
      </trkpt>
      <trkpt lat="44.6109550" lon="7.2803940">
        <ele>1492.2</ele>
        <time>2017-07-25T08:26:00Z</time>
      </trkpt>
      <trkpt lat="44.6109560" lon="7.2803690">
        <ele>1491.0</ele>
        <time>2017-07-25T08:26:01Z</time>
      </trkpt>
      <trkpt lat="44.6109480" lon="7.2803930">
        <ele>1489.6</ele>
        <time>2017-07-25T08:26:02Z</time>
      </trkpt>
      <trkpt lat="44.6109460" lon="7.2804260">
        <ele>1488.4</ele>
        <time>2017-07-25T08:26:03Z</time>
      </trkpt>
      <trkpt lat="44.6109390" lon="7.2804620">
        <ele>1487.4</ele>
        <time>2017-07-25T08:26:04Z</time>
      </trkpt>
      <trkpt lat="44.6109190" lon="7.2805340">
        <ele>1486.4</ele>
        <time>2017-07-25T08:26:05Z</time>
      </trkpt>
      <trkpt lat="44.6109080" lon="7.2806100">
        <ele>1485.8</ele>
        <time>2017-07-25T08:26:06Z</time>
      </trkpt>
      <trkpt lat="44.6108770" lon="7.2807880">
        <ele>1484.0</ele>
        <time>2017-07-25T08:26:08Z</time>
      </trkpt>
      <trkpt lat="44.6108590" lon="7.2808760">
        <ele>1483.0</ele>
        <time>2017-07-25T08:26:09Z</time>
      </trkpt>
      <trkpt lat="44.6108340" lon="7.2809700">
        <ele>1480.8</ele>
        <time>2017-07-25T08:26:10Z</time>
      </trkpt>
      <trkpt lat="44.6107750" lon="7.2811740">
        <ele>1479.4</ele>
        <time>2017-07-25T08:26:12Z</time>
      </trkpt>
      <trkpt lat="44.6107050" lon="7.2813810">
        <ele>1478.2</ele>
        <time>2017-07-25T08:26:14Z</time>
      </trkpt>
      <trkpt lat="44.6106390" lon="7.2815940">
        <ele>1477.2</ele>
        <time>2017-07-25T08:26:16Z</time>
      </trkpt>
      <trkpt lat="44.6105330" lon="7.2819020">
        <ele>1476.0</ele>
        <time>2017-07-25T08:26:19Z</time>
      </trkpt>
      <trkpt lat="44.6104610" lon="7.2821310">
        <ele>1474.8</ele>
        <time>2017-07-25T08:26:21Z</time>
      </trkpt>
      <trkpt lat="44.6104260" lon="7.2822540">
        <ele>1473.8</ele>
        <time>2017-07-25T08:26:22Z</time>
      </trkpt>
      <trkpt lat="44.6103860" lon="7.2823740">
        <ele>1472.8</ele>
        <time>2017-07-25T08:26:23Z</time>
      </trkpt>
      <trkpt lat="44.6103370" lon="7.2824880">
        <ele>1471.8</ele>
        <time>2017-07-25T08:26:24Z</time>
      </trkpt>
      <trkpt lat="44.6102820" lon="7.2825900">
        <ele>1471.2</ele>
        <time>2017-07-25T08:26:25Z</time>
      </trkpt>
      <trkpt lat="44.6102270" lon="7.2826970">
        <ele>1470.4</ele>
        <time>2017-07-25T08:26:26Z</time>
      </trkpt>
      <trkpt lat="44.6101850" lon="7.2828260">
        <ele>1468.8</ele>
        <time>2017-07-25T08:26:27Z</time>
      </trkpt>
      <trkpt lat="44.6101500" lon="7.2829690">
        <ele>1467.4</ele>
        <time>2017-07-25T08:26:28Z</time>
      </trkpt>
      <trkpt lat="44.6101160" lon="7.2831180">
        <ele>1466.2</ele>
        <time>2017-07-25T08:26:29Z</time>
      </trkpt>
      <trkpt lat="44.6100480" lon="7.2834170">
        <ele>1464.2</ele>
        <time>2017-07-25T08:26:31Z</time>
      </trkpt>
      <trkpt lat="44.6100090" lon="7.2835400">
        <ele>1463.4</ele>
        <time>2017-07-25T08:26:32Z</time>
      </trkpt>
      <trkpt lat="44.6099650" lon="7.2836460">
        <ele>1462.2</ele>
        <time>2017-07-25T08:26:33Z</time>
      </trkpt>
      <trkpt lat="44.6099210" lon="7.2837310">
        <ele>1460.0</ele>
        <time>2017-07-25T08:26:34Z</time>
      </trkpt>
      <trkpt lat="44.6098290" lon="7.2838900">
        <ele>1458.2</ele>
        <time>2017-07-25T08:26:36Z</time>
      </trkpt>
      <trkpt lat="44.6097780" lon="7.2839680">
        <ele>1457.2</ele>
        <time>2017-07-25T08:26:37Z</time>
      </trkpt>
      <trkpt lat="44.6097180" lon="7.2840330">
        <ele>1456.4</ele>
        <time>2017-07-25T08:26:38Z</time>
      </trkpt>
      <trkpt lat="44.6095920" lon="7.2841320">
        <ele>1455.2</ele>
        <time>2017-07-25T08:26:40Z</time>
      </trkpt>
      <trkpt lat="44.6095300" lon="7.2841460">
        <ele>1454.2</ele>
        <time>2017-07-25T08:26:41Z</time>
      </trkpt>
      <trkpt lat="44.6094600" lon="7.2841210">
        <ele>1453.6</ele>
        <time>2017-07-25T08:26:42Z</time>
      </trkpt>
      <trkpt lat="44.6092860" lon="7.2841330">
        <ele>1452.0</ele>
        <time>2017-07-25T08:26:44Z</time>
      </trkpt>
      <trkpt lat="44.6091800" lon="7.2841680">
        <ele>1450.8</ele>
        <time>2017-07-25T08:26:45Z</time>
      </trkpt>
      <trkpt lat="44.6089820" lon="7.2842640">
        <ele>1449.2</ele>
        <time>2017-07-25T08:26:47Z</time>
      </trkpt>
      <trkpt lat="44.6088970" lon="7.2843000">
        <ele>1448.4</ele>
        <time>2017-07-25T08:26:48Z</time>
      </trkpt>
      <trkpt lat="44.6088310" lon="7.2843530">
        <ele>1447.0</ele>
        <time>2017-07-25T08:26:49Z</time>
      </trkpt>
      <trkpt lat="44.6087290" lon="7.2845090">
        <ele>1445.4</ele>
        <time>2017-07-25T08:26:51Z</time>
      </trkpt>
      <trkpt lat="44.6086120" lon="7.2846630">
        <ele>1444.4</ele>
        <time>2017-07-25T08:26:53Z</time>
      </trkpt>
      <trkpt lat="44.6085320" lon="7.2847160">
        <ele>1443.8</ele>
        <time>2017-07-25T08:26:54Z</time>
      </trkpt>
      <trkpt lat="44.6084440" lon="7.2847590">
        <ele>1443.2</ele>
        <time>2017-07-25T08:26:55Z</time>
      </trkpt>
      <trkpt lat="44.6083550" lon="7.2848040">
        <ele>1442.0</ele>
        <time>2017-07-25T08:26:56Z</time>
      </trkpt>
      <trkpt lat="44.6082610" lon="7.2848470">
        <ele>1440.8</ele>
        <time>2017-07-25T08:26:57Z</time>
      </trkpt>
      <trkpt lat="44.6081760" lon="7.2848830">
        <ele>1438.8</ele>
        <time>2017-07-25T08:26:58Z</time>
      </trkpt>
      <trkpt lat="44.6080890" lon="7.2849050">
        <ele>1438.0</ele>
        <time>2017-07-25T08:26:59Z</time>
      </trkpt>
      <trkpt lat="44.6080010" lon="7.2849160">
        <ele>1437.0</ele>
        <time>2017-07-25T08:27:00Z</time>
      </trkpt>
      <trkpt lat="44.6079030" lon="7.2849170">
        <ele>1435.8</ele>
        <time>2017-07-25T08:27:01Z</time>
      </trkpt>
      <trkpt lat="44.6078000" lon="7.2849240">
        <ele>1434.6</ele>
        <time>2017-07-25T08:27:02Z</time>
      </trkpt>
      <trkpt lat="44.6076140" lon="7.2849370">
        <ele>1433.0</ele>
        <time>2017-07-25T08:27:04Z</time>
      </trkpt>
      <trkpt lat="44.6074390" lon="7.2849160">
        <ele>1431.0</ele>
        <time>2017-07-25T08:27:06Z</time>
      </trkpt>
      <trkpt lat="44.6073570" lon="7.2848880">
        <ele>1429.8</ele>
        <time>2017-07-25T08:27:07Z</time>
      </trkpt>
      <trkpt lat="44.6072820" lon="7.2848640">
        <ele>1428.4</ele>
        <time>2017-07-25T08:27:08Z</time>
      </trkpt>
      <trkpt lat="44.6072130" lon="7.2848390">
        <ele>1427.2</ele>
        <time>2017-07-25T08:27:09Z</time>
      </trkpt>
      <trkpt lat="44.6071570" lon="7.2848140">
        <ele>1426.0</ele>
        <time>2017-07-25T08:27:10Z</time>
      </trkpt>
      <trkpt lat="44.6071120" lon="7.2847910">
        <ele>1424.8</ele>
        <time>2017-07-25T08:27:11Z</time>
      </trkpt>
      <trkpt lat="44.6070710" lon="7.2847710">
        <ele>1423.8</ele>
        <time>2017-07-25T08:27:12Z</time>
      </trkpt>
      <trkpt lat="44.6070380" lon="7.2847750">
        <ele>1422.8</ele>
        <time>2017-07-25T08:27:13Z</time>
      </trkpt>
      <trkpt lat="44.6070130" lon="7.2847830">
        <ele>1422.0</ele>
        <time>2017-07-25T08:27:14Z</time>
      </trkpt>
      <trkpt lat="44.6069920" lon="7.2848030">
        <ele>1421.2</ele>
        <time>2017-07-25T08:27:15Z</time>
      </trkpt>
      <trkpt lat="44.6069730" lon="7.2848240">
        <ele>1420.2</ele>
        <time>2017-07-25T08:27:16Z</time>
      </trkpt>
      <trkpt lat="44.6069600" lon="7.2848520">
        <ele>1419.2</ele>
        <time>2017-07-25T08:27:17Z</time>
      </trkpt>
      <trkpt lat="44.6069500" lon="7.2849260">
        <ele>1418.0</ele>
        <time>2017-07-25T08:27:19Z</time>
      </trkpt>
      <trkpt lat="44.6069490" lon="7.2849690">
        <ele>1417.4</ele>
        <time>2017-07-25T08:27:20Z</time>
      </trkpt>
      <trkpt lat="44.6069400" lon="7.2850150">
        <ele>1417.0</ele>
        <time>2017-07-25T08:27:21Z</time>
      </trkpt>
      <trkpt lat="44.6069260" lon="7.2851460">
        <ele>1415.8</ele>
        <time>2017-07-25T08:27:24Z</time>
      </trkpt>
      <trkpt lat="44.6069200" lon="7.2851870">
        <ele>1415.8</ele>
        <time>2017-07-25T08:27:25Z</time>
      </trkpt>
      <trkpt lat="44.6068420" lon="7.2853280">
        <ele>1415.6</ele>
        <time>2017-07-25T08:27:30Z</time>
      </trkpt>
      <trkpt lat="44.6066800" lon="7.2853510">
        <ele>1416.0</ele>
        <time>2017-07-25T08:27:35Z</time>
      </trkpt>
      <trkpt lat="44.6065710" lon="7.2854010">
        <ele>1416.8</ele>
        <time>2017-07-25T08:27:39Z</time>
      </trkpt>
      <trkpt lat="44.6065500" lon="7.2854110">
        <ele>1417.2</ele>
        <time>2017-07-25T08:27:40Z</time>
      </trkpt>
      <trkpt lat="44.6064960" lon="7.2854440">
        <ele>1418.0</ele>
        <time>2017-07-25T08:27:43Z</time>
      </trkpt>
      <trkpt lat="44.6064550" lon="7.2854820">
        <ele>1419.2</ele>
        <time>2017-07-25T08:27:46Z</time>
      </trkpt>
      <trkpt lat="44.6063770" lon="7.2855180">
        <ele>1420.4</ele>
        <time>2017-07-25T08:27:51Z</time>
      </trkpt>
      <trkpt lat="44.6063200" lon="7.2855520">
        <ele>1421.0</ele>
        <time>2017-07-25T08:27:54Z</time>
      </trkpt>
      <trkpt lat="44.6063060" lon="7.2855620">
        <ele>1421.2</ele>
        <time>2017-07-25T08:27:55Z</time>
      </trkpt>
      <trkpt lat="44.6062900" lon="7.2855700">
        <ele>1421.4</ele>
        <time>2017-07-25T08:27:56Z</time>
      </trkpt>
      <trkpt lat="44.6062090" lon="7.2856330">
        <ele>1422.6</ele>
        <time>2017-07-25T08:28:01Z</time>
      </trkpt>
      <trkpt lat="44.6061260" lon="7.2856690">
        <ele>1423.6</ele>
        <time>2017-07-25T08:28:06Z</time>
      </trkpt>
      <trkpt lat="44.6060970" lon="7.2856780">
        <ele>1424.2</ele>
        <time>2017-07-25T08:28:08Z</time>
      </trkpt>
      <trkpt lat="44.6060670" lon="7.2856920">
        <ele>1425.0</ele>
        <time>2017-07-25T08:28:10Z</time>
      </trkpt>
      <trkpt lat="44.6059680" lon="7.2857050">
        <ele>1426.2</ele>
        <time>2017-07-25T08:28:15Z</time>
      </trkpt>
      <trkpt lat="44.6058620" lon="7.2857270">
        <ele>1427.4</ele>
        <time>2017-07-25T08:28:20Z</time>
      </trkpt>
      <trkpt lat="44.6058080" lon="7.2857420">
        <ele>1427.6</ele>
        <time>2017-07-25T08:28:22Z</time>
      </trkpt>
      <trkpt lat="44.6057820" lon="7.2857530">
        <ele>1427.8</ele>
        <time>2017-07-25T08:28:23Z</time>
      </trkpt>
      <trkpt lat="44.6056690" lon="7.2858070">
        <ele>1428.4</ele>
        <time>2017-07-25T08:28:27Z</time>
      </trkpt>
      <trkpt lat="44.6056450" lon="7.2858150">
        <ele>1428.8</ele>
        <time>2017-07-25T08:28:28Z</time>
      </trkpt>
      <trkpt lat="44.6055520" lon="7.2858660">
        <ele>1429.8</ele>
        <time>2017-07-25T08:28:32Z</time>
      </trkpt>
      <trkpt lat="44.6055340" lon="7.2858860">
        <ele>1430.0</ele>
        <time>2017-07-25T08:28:33Z</time>
      </trkpt>
      <trkpt lat="44.6055160" lon="7.2859000">
        <ele>1430.6</ele>
        <time>2017-07-25T08:28:34Z</time>
      </trkpt>
      <trkpt lat="44.6054990" lon="7.2859140">
        <ele>1430.8</ele>
        <time>2017-07-25T08:28:35Z</time>
      </trkpt>
      <trkpt lat="44.6054400" lon="7.2859790">
        <ele>1431.6</ele>
        <time>2017-07-25T08:28:39Z</time>
      </trkpt>
      <trkpt lat="44.6054310" lon="7.2859960">
        <ele>1431.8</ele>
        <time>2017-07-25T08:28:40Z</time>
      </trkpt>
      <trkpt lat="44.6054240" lon="7.2860180">
        <ele>1431.8</ele>
        <time>2017-07-25T08:28:41Z</time>
      </trkpt>
      <trkpt lat="44.6054160" lon="7.2860460">
        <ele>1432.0</ele>
        <time>2017-07-25T08:28:42Z</time>
      </trkpt>
      <trkpt lat="44.6054040" lon="7.2860750">
        <ele>1432.0</ele>
        <time>2017-07-25T08:28:43Z</time>
      </trkpt>
      <trkpt lat="44.6053580" lon="7.2861700">
        <ele>1432.6</ele>
        <time>2017-07-25T08:28:46Z</time>
      </trkpt>
      <trkpt lat="44.6053470" lon="7.2862080">
        <ele>1432.8</ele>
        <time>2017-07-25T08:28:47Z</time>
      </trkpt>
      <trkpt lat="44.6053340" lon="7.2862490">
        <ele>1433.0</ele>
        <time>2017-07-25T08:28:48Z</time>
      </trkpt>
      <trkpt lat="44.6053200" lon="7.2862970">
        <ele>1433.0</ele>
        <time>2017-07-25T08:28:49Z</time>
      </trkpt>
      <trkpt lat="44.6053100" lon="7.2863360">
        <ele>1433.4</ele>
        <time>2017-07-25T08:28:50Z</time>
      </trkpt>
      <trkpt lat="44.6052910" lon="7.2864210">
        <ele>1433.4</ele>
        <time>2017-07-25T08:28:52Z</time>
      </trkpt>
      <trkpt lat="44.6052840" lon="7.2864710">
        <ele>1433.4</ele>
        <time>2017-07-25T08:28:53Z</time>
      </trkpt>
      <trkpt lat="44.6052740" lon="7.2865180">
        <ele>1433.4</ele>
        <time>2017-07-25T08:28:54Z</time>
      </trkpt>
      <trkpt lat="44.6052660" lon="7.2865580">
        <ele>1433.4</ele>
        <time>2017-07-25T08:28:55Z</time>
      </trkpt>
      <trkpt lat="44.6052590" lon="7.2866000">
        <ele>1433.6</ele>
        <time>2017-07-25T08:28:56Z</time>
      </trkpt>
      <trkpt lat="44.6052540" lon="7.2866370">
        <ele>1433.8</ele>
        <time>2017-07-25T08:28:57Z</time>
      </trkpt>
      <trkpt lat="44.6052490" lon="7.2866770">
        <ele>1434.0</ele>
        <time>2017-07-25T08:28:58Z</time>
      </trkpt>
      <trkpt lat="44.6052380" lon="7.2867160">
        <ele>1434.2</ele>
        <time>2017-07-25T08:28:59Z</time>
      </trkpt>
      <trkpt lat="44.6052240" lon="7.2867540">
        <ele>1434.2</ele>
        <time>2017-07-25T08:29:00Z</time>
      </trkpt>
      <trkpt lat="44.6051140" lon="7.2870070">
        <ele>1435.2</ele>
        <time>2017-07-25T08:29:06Z</time>
      </trkpt>
      <trkpt lat="44.6050870" lon="7.2870410">
        <ele>1435.4</ele>
        <time>2017-07-25T08:29:07Z</time>
      </trkpt>
      <trkpt lat="44.6049670" lon="7.2871700">
        <ele>1436.4</ele>
        <time>2017-07-25T08:29:11Z</time>
      </trkpt>
      <trkpt lat="44.6048830" lon="7.2872650">
        <ele>1437.0</ele>
        <time>2017-07-25T08:29:14Z</time>
      </trkpt>
      <trkpt lat="44.6048390" lon="7.2873330">
        <ele>1437.4</ele>
        <time>2017-07-25T08:29:16Z</time>
      </trkpt>
      <trkpt lat="44.6047790" lon="7.2874840">
        <ele>1438.0</ele>
        <time>2017-07-25T08:29:20Z</time>
      </trkpt>
      <trkpt lat="44.6047470" lon="7.2875710">
        <ele>1438.6</ele>
        <time>2017-07-25T08:29:23Z</time>
      </trkpt>
      <trkpt lat="44.6046930" lon="7.2876470">
        <ele>1438.8</ele>
        <time>2017-07-25T08:29:26Z</time>
      </trkpt>
      <trkpt lat="44.6046240" lon="7.2877180">
        <ele>1439.8</ele>
        <time>2017-07-25T08:29:29Z</time>
      </trkpt>
      <trkpt lat="44.6045580" lon="7.2878220">
        <ele>1440.8</ele>
        <time>2017-07-25T08:29:33Z</time>
      </trkpt>
      <trkpt lat="44.6045420" lon="7.2878470">
        <ele>1441.2</ele>
        <time>2017-07-25T08:29:34Z</time>
      </trkpt>
      <trkpt lat="44.6045020" lon="7.2879330">
        <ele>1442.0</ele>
        <time>2017-07-25T08:29:37Z</time>
      </trkpt>
      <trkpt lat="44.6044610" lon="7.2880100">
        <ele>1443.0</ele>
        <time>2017-07-25T08:29:40Z</time>
      </trkpt>
      <trkpt lat="44.6044380" lon="7.2880320">
        <ele>1443.2</ele>
        <time>2017-07-25T08:29:41Z</time>
      </trkpt>
      <trkpt lat="44.6043560" lon="7.2881310">
        <ele>1444.4</ele>
        <time>2017-07-25T08:29:45Z</time>
      </trkpt>
      <trkpt lat="44.6043150" lon="7.2881840">
        <ele>1445.8</ele>
        <time>2017-07-25T08:29:48Z</time>
      </trkpt>
      <trkpt lat="44.6042770" lon="7.2882430">
        <ele>1446.2</ele>
        <time>2017-07-25T08:29:53Z</time>
      </trkpt>
      <trkpt lat="44.6042460" lon="7.2882980">
        <ele>1446.4</ele>
        <time>2017-07-25T08:29:55Z</time>
      </trkpt>
      <trkpt lat="44.6041670" lon="7.2884230">
        <ele>1446.8</ele>
        <time>2017-07-25T08:30:00Z</time>
      </trkpt>
      <trkpt lat="44.6041410" lon="7.2884780">
        <ele>1447.0</ele>
        <time>2017-07-25T08:30:02Z</time>
      </trkpt>
      <trkpt lat="44.6040760" lon="7.2886410">
        <ele>1448.0</ele>
        <time>2017-07-25T08:30:07Z</time>
      </trkpt>
      <trkpt lat="44.6040630" lon="7.2886740">
        <ele>1448.0</ele>
        <time>2017-07-25T08:30:08Z</time>
      </trkpt>
      <trkpt lat="44.6040350" lon="7.2887380">
        <ele>1449.0</ele>
        <time>2017-07-25T08:30:10Z</time>
      </trkpt>
      <trkpt lat="44.6039870" lon="7.2888280">
        <ele>1450.0</ele>
        <time>2017-07-25T08:30:14Z</time>
      </trkpt>
      <trkpt lat="44.6038860" lon="7.2890080">
        <ele>1451.2</ele>
        <time>2017-07-25T08:30:20Z</time>
      </trkpt>
      <trkpt lat="44.6038170" lon="7.2891980">
        <ele>1452.2</ele>
        <time>2017-07-25T08:30:26Z</time>
      </trkpt>
      <trkpt lat="44.6037390" lon="7.2894200">
        <ele>1452.8</ele>
        <time>2017-07-25T08:30:32Z</time>
      </trkpt>
      <trkpt lat="44.6036530" lon="7.2897210">
        <ele>1452.0</ele>
        <time>2017-07-25T08:30:39Z</time>
      </trkpt>
      <trkpt lat="44.6036160" lon="7.2899290">
        <ele>1451.4</ele>
        <time>2017-07-25T08:30:44Z</time>
      </trkpt>
      <trkpt lat="44.6036420" lon="7.2902040">
        <ele>1451.4</ele>
        <time>2017-07-25T08:30:50Z</time>
      </trkpt>
      <trkpt lat="44.6036720" lon="7.2904580">
        <ele>1451.4</ele>
        <time>2017-07-25T08:30:56Z</time>
      </trkpt>
      <trkpt lat="44.6036260" lon="7.2906940">
        <ele>1451.4</ele>
        <time>2017-07-25T08:31:01Z</time>
      </trkpt>
      <trkpt lat="44.6035720" lon="7.2909390">
        <ele>1452.2</ele>
        <time>2017-07-25T08:31:07Z</time>
      </trkpt>
      <trkpt lat="44.6035460" lon="7.2911730">
        <ele>1453.2</ele>
        <time>2017-07-25T08:31:13Z</time>
      </trkpt>
      <trkpt lat="44.6035210" lon="7.2912620">
        <ele>1454.4</ele>
        <time>2017-07-25T08:31:16Z</time>
      </trkpt>
      <trkpt lat="44.6034810" lon="7.2913690">
        <ele>1455.6</ele>
        <time>2017-07-25T08:31:19Z</time>
      </trkpt>
      <trkpt lat="44.6034620" lon="7.2914310">
        <ele>1456.8</ele>
        <time>2017-07-25T08:31:21Z</time>
      </trkpt>
      <trkpt lat="44.6034560" lon="7.2914610">
        <ele>1457.8</ele>
        <time>2017-07-25T08:31:22Z</time>
      </trkpt>
      <trkpt lat="44.6034530" lon="7.2915350">
        <ele>1459.2</ele>
        <time>2017-07-25T08:31:25Z</time>
      </trkpt>
      <trkpt lat="44.6034270" lon="7.2915990">
        <ele>1460.2</ele>
        <time>2017-07-25T08:31:27Z</time>
      </trkpt>
      <trkpt lat="44.6033810" lon="7.2917070">
        <ele>1461.4</ele>
        <time>2017-07-25T08:31:30Z</time>
      </trkpt>
      <trkpt lat="44.6033480" lon="7.2918210">
        <ele>1462.4</ele>
        <time>2017-07-25T08:31:33Z</time>
      </trkpt>
      <trkpt lat="44.6033430" lon="7.2919080">
        <ele>1463.2</ele>
        <time>2017-07-25T08:31:36Z</time>
      </trkpt>
      <trkpt lat="44.6033400" lon="7.2919340">
        <ele>1463.6</ele>
        <time>2017-07-25T08:31:37Z</time>
      </trkpt>
      <trkpt lat="44.6033400" lon="7.2919990">
        <ele>1464.8</ele>
        <time>2017-07-25T08:31:40Z</time>
      </trkpt>
      <trkpt lat="44.6033440" lon="7.2920620">
        <ele>1465.4</ele>
        <time>2017-07-25T08:31:43Z</time>
      </trkpt>
      <trkpt lat="44.6033500" lon="7.2921120">
        <ele>1466.0</ele>
        <time>2017-07-25T08:31:45Z</time>
      </trkpt>
      <trkpt lat="44.6033420" lon="7.2921860">
        <ele>1467.2</ele>
        <time>2017-07-25T08:31:48Z</time>
      </trkpt>
      <trkpt lat="44.6033360" lon="7.2922310">
        <ele>1468.0</ele>
        <time>2017-07-25T08:31:50Z</time>
      </trkpt>
      <trkpt lat="44.6033250" lon="7.2922710">
        <ele>1468.6</ele>
        <time>2017-07-25T08:31:52Z</time>
      </trkpt>
      <trkpt lat="44.6033080" lon="7.2923660">
        <ele>1469.8</ele>
        <time>2017-07-25T08:31:56Z</time>
      </trkpt>
      <trkpt lat="44.6032610" lon="7.2926290">
        <ele>1472.2</ele>
        <time>2017-07-25T08:32:15Z</time>
      </trkpt>
      <trkpt lat="44.6032290" lon="7.2927670">
        <ele>1473.2</ele>
        <time>2017-07-25T08:32:20Z</time>
      </trkpt>
      <trkpt lat="44.6031860" lon="7.2928640">
        <ele>1474.4</ele>
        <time>2017-07-25T08:32:24Z</time>
      </trkpt>
      <trkpt lat="44.6031300" lon="7.2929470">
        <ele>1475.4</ele>
        <time>2017-07-25T08:32:27Z</time>
      </trkpt>
      <trkpt lat="44.6031100" lon="7.2929730">
        <ele>1475.8</ele>
        <time>2017-07-25T08:32:28Z</time>
      </trkpt>
      <trkpt lat="44.6030480" lon="7.2930800">
        <ele>1477.0</ele>
        <time>2017-07-25T08:32:32Z</time>
      </trkpt>
      <trkpt lat="44.6030120" lon="7.2931340">
        <ele>1477.8</ele>
        <time>2017-07-25T08:32:34Z</time>
      </trkpt>
      <trkpt lat="44.6029680" lon="7.2931790">
        <ele>1478.2</ele>
        <time>2017-07-25T08:32:36Z</time>
      </trkpt>
      <trkpt lat="44.6028900" lon="7.2932570">
        <ele>1479.0</ele>
        <time>2017-07-25T08:32:39Z</time>
      </trkpt>
      <trkpt lat="44.6028690" lon="7.2932920">
        <ele>1479.2</ele>
        <time>2017-07-25T08:32:40Z</time>
      </trkpt>
      <trkpt lat="44.6027680" lon="7.2934860">
        <ele>1480.2</ele>
        <time>2017-07-25T08:32:47Z</time>
      </trkpt>
      <trkpt lat="44.6027530" lon="7.2935160">
        <ele>1480.4</ele>
        <time>2017-07-25T08:32:48Z</time>
      </trkpt>
      <trkpt lat="44.6026690" lon="7.2936830">
        <ele>1481.4</ele>
        <time>2017-07-25T08:32:53Z</time>
      </trkpt>
      <trkpt lat="44.6026430" lon="7.2937920">
        <ele>1482.6</ele>
        <time>2017-07-25T08:32:57Z</time>
      </trkpt>
      <trkpt lat="44.6026340" lon="7.2938470">
        <ele>1483.0</ele>
        <time>2017-07-25T08:32:59Z</time>
      </trkpt>
      <trkpt lat="44.6026200" lon="7.2940770">
        <ele>1483.2</ele>
        <time>2017-07-25T08:33:04Z</time>
      </trkpt>
      <trkpt lat="44.6026140" lon="7.2941910">
        <ele>1483.6</ele>
        <time>2017-07-25T08:33:06Z</time>
      </trkpt>
      <trkpt lat="44.6025630" lon="7.2945080">
        <ele>1484.2</ele>
        <time>2017-07-25T08:33:12Z</time>
      </trkpt>
      <trkpt lat="44.6025300" lon="7.2946020">
        <ele>1484.6</ele>
        <time>2017-07-25T08:33:14Z</time>
      </trkpt>
      <trkpt lat="44.6024630" lon="7.2948690">
        <ele>1485.2</ele>
        <time>2017-07-25T08:33:19Z</time>
      </trkpt>
      <trkpt lat="44.6023890" lon="7.2950920">
        <ele>1485.2</ele>
        <time>2017-07-25T08:33:24Z</time>
      </trkpt>
      <trkpt lat="44.6023490" lon="7.2953390">
        <ele>1485.4</ele>
        <time>2017-07-25T08:33:30Z</time>
      </trkpt>
      <trkpt lat="44.6022780" lon="7.2955890">
        <ele>1485.6</ele>
        <time>2017-07-25T08:33:35Z</time>
      </trkpt>
      <trkpt lat="44.6022550" lon="7.2956460">
        <ele>1485.8</ele>
        <time>2017-07-25T08:33:36Z</time>
      </trkpt>
      <trkpt lat="44.6021850" lon="7.2958840">
        <ele>1486.0</ele>
        <time>2017-07-25T08:33:40Z</time>
      </trkpt>
      <trkpt lat="44.6021100" lon="7.2960940">
        <ele>1486.6</ele>
        <time>2017-07-25T08:33:44Z</time>
      </trkpt>
      <trkpt lat="44.6020850" lon="7.2961930">
        <ele>1486.8</ele>
        <time>2017-07-25T08:33:46Z</time>
      </trkpt>
      <trkpt lat="44.6020380" lon="7.2964090">
        <ele>1487.4</ele>
        <time>2017-07-25T08:33:50Z</time>
      </trkpt>
      <trkpt lat="44.6019500" lon="7.2966240">
        <ele>1487.0</ele>
        <time>2017-07-25T08:33:54Z</time>
      </trkpt>
      <trkpt lat="44.6019230" lon="7.2966820">
        <ele>1487.0</ele>
        <time>2017-07-25T08:33:55Z</time>
      </trkpt>
      <trkpt lat="44.6018570" lon="7.2967850">
        <ele>1487.0</ele>
        <time>2017-07-25T08:33:57Z</time>
      </trkpt>
      <trkpt lat="44.6017420" lon="7.2969650">
        <ele>1486.8</ele>
        <time>2017-07-25T08:34:00Z</time>
      </trkpt>
      <trkpt lat="44.6017140" lon="7.2970300">
        <ele>1486.6</ele>
        <time>2017-07-25T08:34:01Z</time>
      </trkpt>
      <trkpt lat="44.6016140" lon="7.2972980">
        <ele>1486.2</ele>
        <time>2017-07-25T08:34:05Z</time>
      </trkpt>
      <trkpt lat="44.6015970" lon="7.2973670">
        <ele>1486.2</ele>
        <time>2017-07-25T08:34:06Z</time>
      </trkpt>
      <trkpt lat="44.6015620" lon="7.2975040">
        <ele>1486.4</ele>
        <time>2017-07-25T08:34:09Z</time>
      </trkpt>
      <trkpt lat="44.6014950" lon="7.2977510">
        <ele>1487.2</ele>
        <time>2017-07-25T08:34:15Z</time>
      </trkpt>
      <trkpt lat="44.6014950" lon="7.2979170">
        <ele>1487.8</ele>
        <time>2017-07-25T08:34:19Z</time>
      </trkpt>
      <trkpt lat="44.6014970" lon="7.2980470">
        <ele>1487.8</ele>
        <time>2017-07-25T08:34:22Z</time>
      </trkpt>
      <trkpt lat="44.6014920" lon="7.2981780">
        <ele>1488.2</ele>
        <time>2017-07-25T08:34:25Z</time>
      </trkpt>
      <trkpt lat="44.6014560" lon="7.2984490">
        <ele>1489.0</ele>
        <time>2017-07-25T08:34:31Z</time>
      </trkpt>
      <trkpt lat="44.6014750" lon="7.2986180">
        <ele>1490.2</ele>
        <time>2017-07-25T08:34:35Z</time>
      </trkpt>
      <trkpt lat="44.6014960" lon="7.2987180">
        <ele>1490.6</ele>
        <time>2017-07-25T08:34:37Z</time>
      </trkpt>
      <trkpt lat="44.6015390" lon="7.2988420">
        <ele>1490.8</ele>
        <time>2017-07-25T08:34:40Z</time>
      </trkpt>
      <trkpt lat="44.6015480" lon="7.2989610">
        <ele>1491.2</ele>
        <time>2017-07-25T08:34:43Z</time>
      </trkpt>
      <trkpt lat="44.6015230" lon="7.2991710">
        <ele>1491.2</ele>
        <time>2017-07-25T08:34:46Z</time>
      </trkpt>
      <trkpt lat="44.6015130" lon="7.2992320">
        <ele>1491.0</ele>
        <time>2017-07-25T08:34:47Z</time>
      </trkpt>
      <trkpt lat="44.6015150" lon="7.2995220">
        <ele>1490.4</ele>
        <time>2017-07-25T08:34:52Z</time>
      </trkpt>
      <trkpt lat="44.6015140" lon="7.2995800">
        <ele>1490.2</ele>
        <time>2017-07-25T08:34:53Z</time>
      </trkpt>
      <trkpt lat="44.6015090" lon="7.2996410">
        <ele>1490.0</ele>
        <time>2017-07-25T08:34:54Z</time>
      </trkpt>
      <trkpt lat="44.6014670" lon="7.2998280">
        <ele>1490.0</ele>
        <time>2017-07-25T08:34:57Z</time>
      </trkpt>
      <trkpt lat="44.6013810" lon="7.3001630">
        <ele>1491.0</ele>
        <time>2017-07-25T08:35:03Z</time>
      </trkpt>
      <trkpt lat="44.6013360" lon="7.3002800">
        <ele>1491.2</ele>
        <time>2017-07-25T08:35:05Z</time>
      </trkpt>
      <trkpt lat="44.6012470" lon="7.3004720">
        <ele>1491.8</ele>
        <time>2017-07-25T08:35:09Z</time>
      </trkpt>
      <trkpt lat="44.6011980" lon="7.3005680">
        <ele>1491.8</ele>
        <time>2017-07-25T08:35:11Z</time>
      </trkpt>
      <trkpt lat="44.6011610" lon="7.3006900">
        <ele>1491.4</ele>
        <time>2017-07-25T08:35:13Z</time>
      </trkpt>
      <trkpt lat="44.6011180" lon="7.3008060">
        <ele>1491.2</ele>
        <time>2017-07-25T08:35:15Z</time>
      </trkpt>
      <trkpt lat="44.6010400" lon="7.3009000">
        <ele>1490.8</ele>
        <time>2017-07-25T08:35:17Z</time>
      </trkpt>
      <trkpt lat="44.6009540" lon="7.3009830">
        <ele>1490.2</ele>
        <time>2017-07-25T08:35:19Z</time>
      </trkpt>
      <trkpt lat="44.6008720" lon="7.3010640">
        <ele>1490.0</ele>
        <time>2017-07-25T08:35:21Z</time>
      </trkpt>
      <trkpt lat="44.6007470" lon="7.3012020">
        <ele>1489.8</ele>
        <time>2017-07-25T08:35:24Z</time>
      </trkpt>
      <trkpt lat="44.6007150" lon="7.3012550">
        <ele>1490.0</ele>
        <time>2017-07-25T08:35:25Z</time>
      </trkpt>
      <trkpt lat="44.6006310" lon="7.3013840">
        <ele>1490.4</ele>
        <time>2017-07-25T08:35:28Z</time>
      </trkpt>
      <trkpt lat="44.6005170" lon="7.3015580">
        <ele>1490.8</ele>
        <time>2017-07-25T08:35:32Z</time>
      </trkpt>
      <trkpt lat="44.6004600" lon="7.3016630">
        <ele>1491.2</ele>
        <time>2017-07-25T08:35:34Z</time>
      </trkpt>
      <trkpt lat="44.6004310" lon="7.3017080">
        <ele>1491.4</ele>
        <time>2017-07-25T08:35:35Z</time>
      </trkpt>
      <trkpt lat="44.6004150" lon="7.3017040">
        <ele>1491.4</ele>
        <time>2017-07-25T08:35:37Z</time>
      </trkpt>
      <trkpt lat="44.6003230" lon="7.3018010">
        <ele>1491.8</ele>
        <time>2017-07-25T08:35:42Z</time>
      </trkpt>
      <trkpt lat="44.6002270" lon="7.3019170">
        <ele>1491.2</ele>
        <time>2017-07-25T08:35:47Z</time>
      </trkpt>
      <trkpt lat="44.6001400" lon="7.3020010">
        <ele>1491.4</ele>
        <time>2017-07-25T08:35:50Z</time>
      </trkpt>
      <trkpt lat="44.6000680" lon="7.3021160">
        <ele>1490.6</ele>
        <time>2017-07-25T08:35:52Z</time>
      </trkpt>
      <trkpt lat="44.5999570" lon="7.3023210">
        <ele>1490.8</ele>
        <time>2017-07-25T08:35:56Z</time>
      </trkpt>
      <trkpt lat="44.5999260" lon="7.3023680">
        <ele>1490.6</ele>
        <time>2017-07-25T08:35:57Z</time>
      </trkpt>
      <trkpt lat="44.5998630" lon="7.3024760">
        <ele>1490.4</ele>
        <time>2017-07-25T08:35:59Z</time>
      </trkpt>
      <trkpt lat="44.5997550" lon="7.3026290">
        <ele>1490.4</ele>
        <time>2017-07-25T08:36:02Z</time>
      </trkpt>
      <trkpt lat="44.5997120" lon="7.3026790">
        <ele>1490.2</ele>
        <time>2017-07-25T08:36:03Z</time>
      </trkpt>
      <trkpt lat="44.5996730" lon="7.3027300">
        <ele>1490.0</ele>
        <time>2017-07-25T08:36:04Z</time>
      </trkpt>
      <trkpt lat="44.5996420" lon="7.3027860">
        <ele>1489.8</ele>
        <time>2017-07-25T08:36:05Z</time>
      </trkpt>
      <trkpt lat="44.5995790" lon="7.3028870">
        <ele>1490.0</ele>
        <time>2017-07-25T08:36:07Z</time>
      </trkpt>
      <trkpt lat="44.5994260" lon="7.3031110">
        <ele>1489.8</ele>
        <time>2017-07-25T08:36:11Z</time>
      </trkpt>
      <trkpt lat="44.5994010" lon="7.3031640">
        <ele>1489.6</ele>
        <time>2017-07-25T08:36:12Z</time>
      </trkpt>
      <trkpt lat="44.5993290" lon="7.3033200">
        <ele>1489.8</ele>
        <time>2017-07-25T08:36:16Z</time>
      </trkpt>
      <trkpt lat="44.5992980" lon="7.3034570">
        <ele>1490.4</ele>
        <time>2017-07-25T08:36:19Z</time>
      </trkpt>
      <trkpt lat="44.5992690" lon="7.3035290">
        <ele>1490.8</ele>
        <time>2017-07-25T08:36:21Z</time>
      </trkpt>
      <trkpt lat="44.5992510" lon="7.3035650">
        <ele>1491.0</ele>
        <time>2017-07-25T08:36:22Z</time>
      </trkpt>
      <trkpt lat="44.5992080" lon="7.3036540">
        <ele>1491.4</ele>
        <time>2017-07-25T08:36:24Z</time>
      </trkpt>
      <trkpt lat="44.5991780" lon="7.3037060">
        <ele>1491.2</ele>
        <time>2017-07-25T08:36:25Z</time>
      </trkpt>
      <trkpt lat="44.5991300" lon="7.3038090">
        <ele>1491.4</ele>
        <time>2017-07-25T08:36:27Z</time>
      </trkpt>
      <trkpt lat="44.5990540" lon="7.3039640">
        <ele>1491.2</ele>
        <time>2017-07-25T08:36:31Z</time>
      </trkpt>
      <trkpt lat="44.5990290" lon="7.3040170">
        <ele>1491.0</ele>
        <time>2017-07-25T08:36:32Z</time>
      </trkpt>
      <trkpt lat="44.5988950" lon="7.3043020">
        <ele>1492.2</ele>
        <time>2017-07-25T08:36:38Z</time>
      </trkpt>
      <trkpt lat="44.5988760" lon="7.3043390">
        <ele>1492.4</ele>
        <time>2017-07-25T08:36:39Z</time>
      </trkpt>
      <trkpt lat="44.5987710" lon="7.3045670">
        <ele>1493.0</ele>
        <time>2017-07-25T08:36:44Z</time>
      </trkpt>
      <trkpt lat="44.5987500" lon="7.3046510">
        <ele>1493.4</ele>
        <time>2017-07-25T08:36:46Z</time>
      </trkpt>
      <trkpt lat="44.5986790" lon="7.3048190">
        <ele>1493.8</ele>
        <time>2017-07-25T08:36:50Z</time>
      </trkpt>
      <trkpt lat="44.5986010" lon="7.3050740">
        <ele>1493.8</ele>
        <time>2017-07-25T08:36:54Z</time>
      </trkpt>
      <trkpt lat="44.5985580" lon="7.3051930">
        <ele>1494.0</ele>
        <time>2017-07-25T08:36:56Z</time>
      </trkpt>
      <trkpt lat="44.5985200" lon="7.3053120">
        <ele>1494.2</ele>
        <time>2017-07-25T08:36:58Z</time>
      </trkpt>
      <trkpt lat="44.5984860" lon="7.3054340">
        <ele>1494.2</ele>
        <time>2017-07-25T08:37:00Z</time>
      </trkpt>
      <trkpt lat="44.5984810" lon="7.3055000">
        <ele>1494.2</ele>
        <time>2017-07-25T08:37:01Z</time>
      </trkpt>
      <trkpt lat="44.5985010" lon="7.3056970">
        <ele>1494.6</ele>
        <time>2017-07-25T08:37:04Z</time>
      </trkpt>
      <trkpt lat="44.5985370" lon="7.3057490">
        <ele>1494.6</ele>
        <time>2017-07-25T08:37:05Z</time>
      </trkpt>
      <trkpt lat="44.5986200" lon="7.3058470">
        <ele>1494.4</ele>
        <time>2017-07-25T08:37:07Z</time>
      </trkpt>
      <trkpt lat="44.5986490" lon="7.3058420">
        <ele>1494.4</ele>
        <time>2017-07-25T08:37:08Z</time>
      </trkpt>
      <trkpt lat="44.5987400" lon="7.3058500">
        <ele>1494.2</ele>
        <time>2017-07-25T08:37:11Z</time>
      </trkpt>
      <trkpt lat="44.5987720" lon="7.3058820">
        <ele>1494.0</ele>
        <time>2017-07-25T08:37:12Z</time>
      </trkpt>
      <trkpt lat="44.5988240" lon="7.3059660">
        <ele>1493.6</ele>
        <time>2017-07-25T08:37:14Z</time>
      </trkpt>
      <trkpt lat="44.5988480" lon="7.3060110">
        <ele>1493.4</ele>
        <time>2017-07-25T08:37:15Z</time>
      </trkpt>
      <trkpt lat="44.5988910" lon="7.3061100">
        <ele>1492.8</ele>
        <time>2017-07-25T08:37:17Z</time>
      </trkpt>
      <trkpt lat="44.5989080" lon="7.3061580">
        <ele>1492.6</ele>
        <time>2017-07-25T08:37:18Z</time>
      </trkpt>
      <trkpt lat="44.5989470" lon="7.3062560">
        <ele>1491.6</ele>
        <time>2017-07-25T08:37:21Z</time>
      </trkpt>
      <trkpt lat="44.5989640" lon="7.3063130">
        <ele>1490.6</ele>
        <time>2017-07-25T08:37:22Z</time>
      </trkpt>
      <trkpt lat="44.5990110" lon="7.3064600">
        <ele>1489.4</ele>
        <time>2017-07-25T08:37:25Z</time>
      </trkpt>
      <trkpt lat="44.5990290" lon="7.3065230">
        <ele>1489.0</ele>
        <time>2017-07-25T08:37:26Z</time>
      </trkpt>
      <trkpt lat="44.5990370" lon="7.3066430">
        <ele>1488.2</ele>
        <time>2017-07-25T08:37:28Z</time>
      </trkpt>
      <trkpt lat="44.5990320" lon="7.3067040">
        <ele>1488.0</ele>
        <time>2017-07-25T08:37:29Z</time>
      </trkpt>
      <trkpt lat="44.5990080" lon="7.3068200">
        <ele>1487.4</ele>
        <time>2017-07-25T08:37:31Z</time>
      </trkpt>
      <trkpt lat="44.5989970" lon="7.3068560">
        <ele>1487.0</ele>
        <time>2017-07-25T08:37:32Z</time>
      </trkpt>
      <trkpt lat="44.5989800" lon="7.3068780">
        <ele>1486.8</ele>
        <time>2017-07-25T08:37:33Z</time>
      </trkpt>
      <trkpt lat="44.5989320" lon="7.3070460">
        <ele>1486.0</ele>
        <time>2017-07-25T08:37:37Z</time>
      </trkpt>
      <trkpt lat="44.5989150" lon="7.3071090">
        <ele>1485.8</ele>
        <time>2017-07-25T08:37:38Z</time>
      </trkpt>
      <trkpt lat="44.5988970" lon="7.3072340">
        <ele>1485.8</ele>
        <time>2017-07-25T08:37:40Z</time>
      </trkpt>
      <trkpt lat="44.5988780" lon="7.3074610">
        <ele>1485.2</ele>
        <time>2017-07-25T08:37:44Z</time>
      </trkpt>
      <trkpt lat="44.5988670" lon="7.3075820">
        <ele>1485.0</ele>
        <time>2017-07-25T08:37:46Z</time>
      </trkpt>
      <trkpt lat="44.5988360" lon="7.3077840">
        <ele>1484.6</ele>
        <time>2017-07-25T08:37:49Z</time>
      </trkpt>
      <trkpt lat="44.5987760" lon="7.3081370">
        <ele>1483.8</ele>
        <time>2017-07-25T08:37:55Z</time>
      </trkpt>
      <trkpt lat="44.5987550" lon="7.3082320">
        <ele>1483.6</ele>
        <time>2017-07-25T08:37:57Z</time>
      </trkpt>
      <trkpt lat="44.5987060" lon="7.3084980">
        <ele>1483.0</ele>
        <time>2017-07-25T08:38:03Z</time>
      </trkpt>
      <trkpt lat="44.5986970" lon="7.3085500">
        <ele>1482.8</ele>
        <time>2017-07-25T08:38:04Z</time>
      </trkpt>
      <trkpt lat="44.5985880" lon="7.3088580">
        <ele>1483.2</ele>
        <time>2017-07-25T08:38:10Z</time>
      </trkpt>
      <trkpt lat="44.5984450" lon="7.3092280">
        <ele>1483.8</ele>
        <time>2017-07-25T08:38:17Z</time>
      </trkpt>
      <trkpt lat="44.5984110" lon="7.3093560">
        <ele>1484.0</ele>
        <time>2017-07-25T08:38:19Z</time>
      </trkpt>
      <trkpt lat="44.5983910" lon="7.3094870">
        <ele>1484.0</ele>
        <time>2017-07-25T08:38:21Z</time>
      </trkpt>
      <trkpt lat="44.5983710" lon="7.3095850">
        <ele>1483.6</ele>
        <time>2017-07-25T08:38:23Z</time>
      </trkpt>
      <trkpt lat="44.5983670" lon="7.3097160">
        <ele>1483.4</ele>
        <time>2017-07-25T08:38:25Z</time>
      </trkpt>
      <trkpt lat="44.5983850" lon="7.3098340">
        <ele>1483.0</ele>
        <time>2017-07-25T08:38:27Z</time>
      </trkpt>
      <trkpt lat="44.5983810" lon="7.3099700">
        <ele>1481.6</ele>
        <time>2017-07-25T08:38:30Z</time>
      </trkpt>
      <trkpt lat="44.5983710" lon="7.3100330">
        <ele>1481.0</ele>
        <time>2017-07-25T08:38:31Z</time>
      </trkpt>
      <trkpt lat="44.5983560" lon="7.3100970">
        <ele>1480.4</ele>
        <time>2017-07-25T08:38:32Z</time>
      </trkpt>
      <trkpt lat="44.5983220" lon="7.3102330">
        <ele>1478.4</ele>
        <time>2017-07-25T08:38:34Z</time>
      </trkpt>
      <trkpt lat="44.5983180" lon="7.3102960">
        <ele>1477.4</ele>
        <time>2017-07-25T08:38:36Z</time>
      </trkpt>
      <trkpt lat="44.5983120" lon="7.3103120">
        <ele>1476.8</ele>
        <time>2017-07-25T08:38:37Z</time>
      </trkpt>
      <trkpt lat="44.5983050" lon="7.3103290">
        <ele>1476.4</ele>
        <time>2017-07-25T08:38:38Z</time>
      </trkpt>
      <trkpt lat="44.5982740" lon="7.3104260">
        <ele>1474.8</ele>
        <time>2017-07-25T08:38:41Z</time>
      </trkpt>
      <trkpt lat="44.5982490" lon="7.3104960">
        <ele>1474.0</ele>
        <time>2017-07-25T08:38:42Z</time>
      </trkpt>
      <trkpt lat="44.5982380" lon="7.3105610">
        <ele>1473.2</ele>
        <time>2017-07-25T08:38:43Z</time>
      </trkpt>
      <trkpt lat="44.5982300" lon="7.3106530">
        <ele>1472.0</ele>
        <time>2017-07-25T08:38:45Z</time>
      </trkpt>
      <trkpt lat="44.5982330" lon="7.3106670">
        <ele>1471.6</ele>
        <time>2017-07-25T08:38:46Z</time>
      </trkpt>
      <trkpt lat="44.5982340" lon="7.3106740">
        <ele>1471.2</ele>
        <time>2017-07-25T08:38:47Z</time>
      </trkpt>
      <trkpt lat="44.5981700" lon="7.3108160">
        <ele>1465.0</ele>
        <time>2017-07-25T08:39:08Z</time>
      </trkpt>
      <trkpt lat="44.5981470" lon="7.3108410">
        <ele>1464.8</ele>
        <time>2017-07-25T08:39:09Z</time>
      </trkpt>
      <trkpt lat="44.5980670" lon="7.3110740">
        <ele>1463.6</ele>
        <time>2017-07-25T08:39:13Z</time>
      </trkpt>
      <trkpt lat="44.5980200" lon="7.3111970">
        <ele>1462.4</ele>
        <time>2017-07-25T08:39:15Z</time>
      </trkpt>
      <trkpt lat="44.5980060" lon="7.3112660">
        <ele>1462.0</ele>
        <time>2017-07-25T08:39:16Z</time>
      </trkpt>
      <trkpt lat="44.5979820" lon="7.3114790">
        <ele>1461.4</ele>
        <time>2017-07-25T08:39:19Z</time>
      </trkpt>
      <trkpt lat="44.5979560" lon="7.3116930">
        <ele>1459.8</ele>
        <time>2017-07-25T08:39:22Z</time>
      </trkpt>
      <trkpt lat="44.5979610" lon="7.3117560">
        <ele>1459.8</ele>
        <time>2017-07-25T08:39:23Z</time>
      </trkpt>
      <trkpt lat="44.5979600" lon="7.3118320">
        <ele>1459.2</ele>
        <time>2017-07-25T08:39:25Z</time>
      </trkpt>
      <trkpt lat="44.5979350" lon="7.3118920">
        <ele>1458.8</ele>
        <time>2017-07-25T08:39:27Z</time>
      </trkpt>
      <trkpt lat="44.5979400" lon="7.3119560">
        <ele>1458.2</ele>
        <time>2017-07-25T08:39:29Z</time>
      </trkpt>
      <trkpt lat="44.5979610" lon="7.3119920">
        <ele>1457.8</ele>
        <time>2017-07-25T08:39:30Z</time>
      </trkpt>
      <trkpt lat="44.5979910" lon="7.3120190">
        <ele>1457.4</ele>
        <time>2017-07-25T08:39:31Z</time>
      </trkpt>
      <trkpt lat="44.5981090" lon="7.3120730">
        <ele>1456.4</ele>
        <time>2017-07-25T08:39:34Z</time>
      </trkpt>
      <trkpt lat="44.5981510" lon="7.3120980">
        <ele>1456.0</ele>
        <time>2017-07-25T08:39:35Z</time>
      </trkpt>
      <trkpt lat="44.5982270" lon="7.3121470">
        <ele>1455.4</ele>
        <time>2017-07-25T08:39:37Z</time>
      </trkpt>
      <trkpt lat="44.5983140" lon="7.3122120">
        <ele>1454.8</ele>
        <time>2017-07-25T08:39:39Z</time>
      </trkpt>
      <trkpt lat="44.5983560" lon="7.3122350">
        <ele>1454.4</ele>
        <time>2017-07-25T08:39:40Z</time>
      </trkpt>
      <trkpt lat="44.5984870" lon="7.3122420">
        <ele>1453.6</ele>
        <time>2017-07-25T08:39:44Z</time>
      </trkpt>
      <trkpt lat="44.5985080" lon="7.3122460">
        <ele>1453.4</ele>
        <time>2017-07-25T08:39:45Z</time>
      </trkpt>
      <trkpt lat="44.5985630" lon="7.3122740">
        <ele>1452.4</ele>
        <time>2017-07-25T08:39:48Z</time>
      </trkpt>
      <trkpt lat="44.5985720" lon="7.3122820">
        <ele>1452.0</ele>
        <time>2017-07-25T08:39:49Z</time>
      </trkpt>
      <trkpt lat="44.5985920" lon="7.3122840">
        <ele>1451.2</ele>
        <time>2017-07-25T08:39:51Z</time>
      </trkpt>
      <trkpt lat="44.5986480" lon="7.3123160">
        <ele>1450.0</ele>
        <time>2017-07-25T08:39:54Z</time>
      </trkpt>
      <trkpt lat="44.5986980" lon="7.3124190">
        <ele>1448.6</ele>
        <time>2017-07-25T08:39:57Z</time>
      </trkpt>
      <trkpt lat="44.5987540" lon="7.3125390">
        <ele>1447.2</ele>
        <time>2017-07-25T08:39:59Z</time>
      </trkpt>
      <trkpt lat="44.5988570" lon="7.3126510">
        <ele>1445.8</ele>
        <time>2017-07-25T08:40:01Z</time>
      </trkpt>
      <trkpt lat="44.5989430" lon="7.3127640">
        <ele>1444.0</ele>
        <time>2017-07-25T08:40:03Z</time>
      </trkpt>
      <trkpt lat="44.5989960" lon="7.3128010">
        <ele>1443.2</ele>
        <time>2017-07-25T08:40:04Z</time>
      </trkpt>
      <trkpt lat="44.5990450" lon="7.3128320">
        <ele>1442.6</ele>
        <time>2017-07-25T08:40:05Z</time>
      </trkpt>
      <trkpt lat="44.5991290" lon="7.3128980">
        <ele>1441.0</ele>
        <time>2017-07-25T08:40:07Z</time>
      </trkpt>
      <trkpt lat="44.5991800" lon="7.3129390">
        <ele>1439.2</ele>
        <time>2017-07-25T08:40:09Z</time>
      </trkpt>
      <trkpt lat="44.5992140" lon="7.3130080">
        <ele>1436.8</ele>
        <time>2017-07-25T08:40:11Z</time>
      </trkpt>
      <trkpt lat="44.5992430" lon="7.3130860">
        <ele>1435.4</ele>
        <time>2017-07-25T08:40:13Z</time>
      </trkpt>
      <trkpt lat="44.5992790" lon="7.3131730">
        <ele>1434.0</ele>
        <time>2017-07-25T08:40:15Z</time>
      </trkpt>
      <trkpt lat="44.5993320" lon="7.3132870">
        <ele>1432.6</ele>
        <time>2017-07-25T08:40:17Z</time>
      </trkpt>
      <trkpt lat="44.5993990" lon="7.3134150">
        <ele>1430.8</ele>
        <time>2017-07-25T08:40:19Z</time>
      </trkpt>
      <trkpt lat="44.5994380" lon="7.3134760">
        <ele>1429.8</ele>
        <time>2017-07-25T08:40:20Z</time>
      </trkpt>
      <trkpt lat="44.5995110" lon="7.3135670">
        <ele>1428.6</ele>
        <time>2017-07-25T08:40:22Z</time>
      </trkpt>
      <trkpt lat="44.5995460" lon="7.3136030">
        <ele>1427.6</ele>
        <time>2017-07-25T08:40:23Z</time>
      </trkpt>
      <trkpt lat="44.5995780" lon="7.3136570">
        <ele>1426.2</ele>
        <time>2017-07-25T08:40:24Z</time>
      </trkpt>
      <trkpt lat="44.5996010" lon="7.3137280">
        <ele>1424.8</ele>
        <time>2017-07-25T08:40:25Z</time>
      </trkpt>
      <trkpt lat="44.5996650" lon="7.3138640">
        <ele>1423.2</ele>
        <time>2017-07-25T08:40:27Z</time>
      </trkpt>
      <trkpt lat="44.5996960" lon="7.3139580">
        <ele>1422.2</ele>
        <time>2017-07-25T08:40:28Z</time>
      </trkpt>
      <trkpt lat="44.5997250" lon="7.3140700">
        <ele>1421.2</ele>
        <time>2017-07-25T08:40:29Z</time>
      </trkpt>
      <trkpt lat="44.5997480" lon="7.3141960">
        <ele>1420.2</ele>
        <time>2017-07-25T08:40:30Z</time>
      </trkpt>
      <trkpt lat="44.5997790" lon="7.3143130">
        <ele>1419.4</ele>
        <time>2017-07-25T08:40:31Z</time>
      </trkpt>
      <trkpt lat="44.5998580" lon="7.3145070">
        <ele>1417.6</ele>
        <time>2017-07-25T08:40:33Z</time>
      </trkpt>
      <trkpt lat="44.5998980" lon="7.3146110">
        <ele>1417.0</ele>
        <time>2017-07-25T08:40:34Z</time>
      </trkpt>
      <trkpt lat="44.5999350" lon="7.3147160">
        <ele>1415.8</ele>
        <time>2017-07-25T08:40:35Z</time>
      </trkpt>
      <trkpt lat="44.6000060" lon="7.3149260">
        <ele>1414.6</ele>
        <time>2017-07-25T08:40:37Z</time>
      </trkpt>
      <trkpt lat="44.6001550" lon="7.3152230">
        <ele>1413.0</ele>
        <time>2017-07-25T08:40:40Z</time>
      </trkpt>
      <trkpt lat="44.6002670" lon="7.3154020">
        <ele>1412.0</ele>
        <time>2017-07-25T08:40:42Z</time>
      </trkpt>
      <trkpt lat="44.6003890" lon="7.3155410">
        <ele>1410.8</ele>
        <time>2017-07-25T08:40:44Z</time>
      </trkpt>
      <trkpt lat="44.6004500" lon="7.3156150">
        <ele>1410.2</ele>
        <time>2017-07-25T08:40:45Z</time>
      </trkpt>
      <trkpt lat="44.6005890" lon="7.3157340">
        <ele>1409.6</ele>
        <time>2017-07-25T08:40:47Z</time>
      </trkpt>
      <trkpt lat="44.6007160" lon="7.3158800">
        <ele>1408.2</ele>
        <time>2017-07-25T08:40:49Z</time>
      </trkpt>
      <trkpt lat="44.6009770" lon="7.3162100">
        <ele>1406.4</ele>
        <time>2017-07-25T08:40:53Z</time>
      </trkpt>
      <trkpt lat="44.6010230" lon="7.3162880">
        <ele>1405.8</ele>
        <time>2017-07-25T08:40:54Z</time>
      </trkpt>
      <trkpt lat="44.6010540" lon="7.3163810">
        <ele>1405.4</ele>
        <time>2017-07-25T08:40:55Z</time>
      </trkpt>
      <trkpt lat="44.6010850" lon="7.3165910">
        <ele>1404.2</ele>
        <time>2017-07-25T08:40:57Z</time>
      </trkpt>
      <trkpt lat="44.6011050" lon="7.3166870">
        <ele>1403.0</ele>
        <time>2017-07-25T08:40:58Z</time>
      </trkpt>
      <trkpt lat="44.6011300" lon="7.3167690">
        <ele>1401.0</ele>
        <time>2017-07-25T08:40:59Z</time>
      </trkpt>
      <trkpt lat="44.6012410" lon="7.3168600">
        <ele>1399.4</ele>
        <time>2017-07-25T08:41:01Z</time>
      </trkpt>
      <trkpt lat="44.6013020" lon="7.3169120">
        <ele>1398.8</ele>
        <time>2017-07-25T08:41:02Z</time>
      </trkpt>
      <trkpt lat="44.6013640" lon="7.3169790">
        <ele>1398.4</ele>
        <time>2017-07-25T08:41:03Z</time>
      </trkpt>
      <trkpt lat="44.6014160" lon="7.3170630">
        <ele>1397.8</ele>
        <time>2017-07-25T08:41:04Z</time>
      </trkpt>
      <trkpt lat="44.6014700" lon="7.3171460">
        <ele>1397.2</ele>
        <time>2017-07-25T08:41:05Z</time>
      </trkpt>
      <trkpt lat="44.6015960" lon="7.3173100">
        <ele>1396.0</ele>
        <time>2017-07-25T08:41:07Z</time>
      </trkpt>
      <trkpt lat="44.6017760" lon="7.3175830">
        <ele>1394.6</ele>
        <time>2017-07-25T08:41:10Z</time>
      </trkpt>
      <trkpt lat="44.6018310" lon="7.3176780">
        <ele>1394.4</ele>
        <time>2017-07-25T08:41:11Z</time>
      </trkpt>
      <trkpt lat="44.6019280" lon="7.3178620">
        <ele>1393.4</ele>
        <time>2017-07-25T08:41:13Z</time>
      </trkpt>
      <trkpt lat="44.6019550" lon="7.3179560">
        <ele>1393.0</ele>
        <time>2017-07-25T08:41:14Z</time>
      </trkpt>
      <trkpt lat="44.6020180" lon="7.3181310">
        <ele>1393.0</ele>
        <time>2017-07-25T08:41:16Z</time>
      </trkpt>
      <trkpt lat="44.6020780" lon="7.3183220">
        <ele>1392.2</ele>
        <time>2017-07-25T08:41:18Z</time>
      </trkpt>
      <trkpt lat="44.6021660" lon="7.3186730">
        <ele>1391.4</ele>
        <time>2017-07-25T08:41:21Z</time>
      </trkpt>
      <trkpt lat="44.6021930" lon="7.3188090">
        <ele>1391.0</ele>
        <time>2017-07-25T08:41:22Z</time>
      </trkpt>
      <trkpt lat="44.6022350" lon="7.3190820">
        <ele>1389.4</ele>
        <time>2017-07-25T08:41:24Z</time>
      </trkpt>
      <trkpt lat="44.6022560" lon="7.3193460">
        <ele>1387.6</ele>
        <time>2017-07-25T08:41:26Z</time>
      </trkpt>
      <trkpt lat="44.6022730" lon="7.3195990">
        <ele>1386.0</ele>
        <time>2017-07-25T08:41:28Z</time>
      </trkpt>
      <trkpt lat="44.6023020" lon="7.3198510">
        <ele>1384.8</ele>
        <time>2017-07-25T08:41:30Z</time>
      </trkpt>
      <trkpt lat="44.6023370" lon="7.3200750">
        <ele>1383.6</ele>
        <time>2017-07-25T08:41:32Z</time>
      </trkpt>
      <trkpt lat="44.6023670" lon="7.3201770">
        <ele>1383.2</ele>
        <time>2017-07-25T08:41:33Z</time>
      </trkpt>
      <trkpt lat="44.6024450" lon="7.3203640">
        <ele>1382.4</ele>
        <time>2017-07-25T08:41:35Z</time>
      </trkpt>
      <trkpt lat="44.6024970" lon="7.3204630">
        <ele>1381.8</ele>
        <time>2017-07-25T08:41:36Z</time>
      </trkpt>
      <trkpt lat="44.6025500" lon="7.3205630">
        <ele>1381.4</ele>
        <time>2017-07-25T08:41:37Z</time>
      </trkpt>
      <trkpt lat="44.6027000" lon="7.3208640">
        <ele>1379.6</ele>
        <time>2017-07-25T08:41:40Z</time>
      </trkpt>
      <trkpt lat="44.6027260" lon="7.3209690">
        <ele>1378.8</ele>
        <time>2017-07-25T08:41:41Z</time>
      </trkpt>
      <trkpt lat="44.6027760" lon="7.3211690">
        <ele>1378.4</ele>
        <time>2017-07-25T08:41:43Z</time>
      </trkpt>
      <trkpt lat="44.6028160" lon="7.3215670">
        <ele>1377.2</ele>
        <time>2017-07-25T08:41:47Z</time>
      </trkpt>
      <trkpt lat="44.6027620" lon="7.3218730">
        <ele>1376.4</ele>
        <time>2017-07-25T08:41:50Z</time>
      </trkpt>
      <trkpt lat="44.6027230" lon="7.3219840">
        <ele>1376.4</ele>
        <time>2017-07-25T08:41:51Z</time>
      </trkpt>
      <trkpt lat="44.6026970" lon="7.3220940">
        <ele>1376.2</ele>
        <time>2017-07-25T08:41:52Z</time>
      </trkpt>
      <trkpt lat="44.6026130" lon="7.3224160">
        <ele>1376.0</ele>
        <time>2017-07-25T08:41:55Z</time>
      </trkpt>
      <trkpt lat="44.6025250" lon="7.3227170">
        <ele>1375.6</ele>
        <time>2017-07-25T08:41:58Z</time>
      </trkpt>
      <trkpt lat="44.6023820" lon="7.3230960">
        <ele>1375.2</ele>
        <time>2017-07-25T08:42:02Z</time>
      </trkpt>
      <trkpt lat="44.6022680" lon="7.3233360">
        <ele>1376.0</ele>
        <time>2017-07-25T08:42:05Z</time>
      </trkpt>
      <trkpt lat="44.6022070" lon="7.3235100">
        <ele>1376.4</ele>
        <time>2017-07-25T08:42:07Z</time>
      </trkpt>
      <trkpt lat="44.6021200" lon="7.3238880">
        <ele>1377.4</ele>
        <time>2017-07-25T08:42:11Z</time>
      </trkpt>
      <trkpt lat="44.6020580" lon="7.3241890">
        <ele>1378.0</ele>
        <time>2017-07-25T08:42:14Z</time>
      </trkpt>
      <trkpt lat="44.6020150" lon="7.3244080">
        <ele>1378.0</ele>
        <time>2017-07-25T08:42:16Z</time>
      </trkpt>
      <trkpt lat="44.6019590" lon="7.3246080">
        <ele>1378.0</ele>
        <time>2017-07-25T08:42:18Z</time>
      </trkpt>
      <trkpt lat="44.6019180" lon="7.3247970">
        <ele>1377.4</ele>
        <time>2017-07-25T08:42:20Z</time>
      </trkpt>
      <trkpt lat="44.6019800" lon="7.3250730">
        <ele>1376.2</ele>
        <time>2017-07-25T08:42:23Z</time>
      </trkpt>
      <trkpt lat="44.6020050" lon="7.3251710">
        <ele>1376.0</ele>
        <time>2017-07-25T08:42:24Z</time>
      </trkpt>
      <trkpt lat="44.6020470" lon="7.3253840">
        <ele>1374.6</ele>
        <time>2017-07-25T08:42:26Z</time>
      </trkpt>
      <trkpt lat="44.6020860" lon="7.3255440">
        <ele>1373.2</ele>
        <time>2017-07-25T08:42:28Z</time>
      </trkpt>
      <trkpt lat="44.6020840" lon="7.3256440">
        <ele>1371.8</ele>
        <time>2017-07-25T08:42:30Z</time>
      </trkpt>
      <trkpt lat="44.6020710" lon="7.3256960">
        <ele>1371.0</ele>
        <time>2017-07-25T08:42:31Z</time>
      </trkpt>
      <trkpt lat="44.6020530" lon="7.3257570">
        <ele>1370.4</ele>
        <time>2017-07-25T08:42:32Z</time>
      </trkpt>
      <trkpt lat="44.6019380" lon="7.3259070">
        <ele>1368.4</ele>
        <time>2017-07-25T08:42:35Z</time>
      </trkpt>
      <trkpt lat="44.6018040" lon="7.3261060">
        <ele>1367.0</ele>
        <time>2017-07-25T08:42:38Z</time>
      </trkpt>
      <trkpt lat="44.6017780" lon="7.3261890">
        <ele>1366.6</ele>
        <time>2017-07-25T08:42:39Z</time>
      </trkpt>
      <trkpt lat="44.6017070" lon="7.3263370">
        <ele>1365.6</ele>
        <time>2017-07-25T08:42:41Z</time>
      </trkpt>
      <trkpt lat="44.6016690" lon="7.3264000">
        <ele>1365.2</ele>
        <time>2017-07-25T08:42:42Z</time>
      </trkpt>
      <trkpt lat="44.6015960" lon="7.3265050">
        <ele>1365.0</ele>
        <time>2017-07-25T08:42:44Z</time>
      </trkpt>
      <trkpt lat="44.6013390" lon="7.3269230">
        <ele>1366.0</ele>
        <time>2017-07-25T08:42:51Z</time>
      </trkpt>
      <trkpt lat="44.6012620" lon="7.3271290">
        <ele>1366.6</ele>
        <time>2017-07-25T08:42:54Z</time>
      </trkpt>
      <trkpt lat="44.6011550" lon="7.3273100">
        <ele>1366.8</ele>
        <time>2017-07-25T08:42:57Z</time>
      </trkpt>
      <trkpt lat="44.6009490" lon="7.3276920">
        <ele>1367.2</ele>
        <time>2017-07-25T08:43:03Z</time>
      </trkpt>
      <trkpt lat="44.6009160" lon="7.3277620">
        <ele>1367.2</ele>
        <time>2017-07-25T08:43:04Z</time>
      </trkpt>
      <trkpt lat="44.6008440" lon="7.3279940">
        <ele>1367.6</ele>
        <time>2017-07-25T08:43:07Z</time>
      </trkpt>
      <trkpt lat="44.6008140" lon="7.3281500">
        <ele>1368.0</ele>
        <time>2017-07-25T08:43:09Z</time>
      </trkpt>
      <trkpt lat="44.6008120" lon="7.3283010">
        <ele>1368.2</ele>
        <time>2017-07-25T08:43:11Z</time>
      </trkpt>
      <trkpt lat="44.6008650" lon="7.3284240">
        <ele>1368.4</ele>
        <time>2017-07-25T08:43:13Z</time>
      </trkpt>
      <trkpt lat="44.6008920" lon="7.3284830">
        <ele>1368.8</ele>
        <time>2017-07-25T08:43:14Z</time>
      </trkpt>
      <trkpt lat="44.6010460" lon="7.3288820">
        <ele>1369.2</ele>
        <time>2017-07-25T08:43:20Z</time>
      </trkpt>
      <trkpt lat="44.6009770" lon="7.3291630">
        <ele>1368.4</ele>
        <time>2017-07-25T08:43:24Z</time>
      </trkpt>
      <trkpt lat="44.6009570" lon="7.3292420">
        <ele>1368.4</ele>
        <time>2017-07-25T08:43:25Z</time>
      </trkpt>
      <trkpt lat="44.6008700" lon="7.3294510">
        <ele>1367.8</ele>
        <time>2017-07-25T08:43:28Z</time>
      </trkpt>
      <trkpt lat="44.6007880" lon="7.3295450">
        <ele>1368.0</ele>
        <time>2017-07-25T08:43:30Z</time>
      </trkpt>
      <trkpt lat="44.6007040" lon="7.3296110">
        <ele>1368.2</ele>
        <time>2017-07-25T08:43:32Z</time>
      </trkpt>
      <trkpt lat="44.6006380" lon="7.3296930">
        <ele>1368.8</ele>
        <time>2017-07-25T08:43:34Z</time>
      </trkpt>
      <trkpt lat="44.6006140" lon="7.3297510">
        <ele>1368.8</ele>
        <time>2017-07-25T08:43:35Z</time>
      </trkpt>
      <trkpt lat="44.6005630" lon="7.3300440">
        <ele>1369.4</ele>
        <time>2017-07-25T08:43:39Z</time>
      </trkpt>
      <trkpt lat="44.6004460" lon="7.3302790">
        <ele>1369.4</ele>
        <time>2017-07-25T08:43:43Z</time>
      </trkpt>
      <trkpt lat="44.6003900" lon="7.3304010">
        <ele>1369.6</ele>
        <time>2017-07-25T08:43:45Z</time>
      </trkpt>
      <trkpt lat="44.6003330" lon="7.3305220">
        <ele>1370.0</ele>
        <time>2017-07-25T08:43:47Z</time>
      </trkpt>
      <trkpt lat="44.6002560" lon="7.3306010">
        <ele>1370.8</ele>
        <time>2017-07-25T08:43:49Z</time>
      </trkpt>
      <trkpt lat="44.6002220" lon="7.3306270">
        <ele>1371.0</ele>
        <time>2017-07-25T08:43:50Z</time>
      </trkpt>
      <trkpt lat="44.6001290" lon="7.3307180">
        <ele>1372.0</ele>
        <time>2017-07-25T08:43:53Z</time>
      </trkpt>
      <trkpt lat="44.6000500" lon="7.3308550">
        <ele>1373.2</ele>
        <time>2017-07-25T08:43:56Z</time>
      </trkpt>
      <trkpt lat="44.5999930" lon="7.3309590">
        <ele>1373.6</ele>
        <time>2017-07-25T08:43:58Z</time>
      </trkpt>
      <trkpt lat="44.5999300" lon="7.3310630">
        <ele>1374.2</ele>
        <time>2017-07-25T08:44:00Z</time>
      </trkpt>
      <trkpt lat="44.5998720" lon="7.3311830">
        <ele>1374.8</ele>
        <time>2017-07-25T08:44:02Z</time>
      </trkpt>
      <trkpt lat="44.5998120" lon="7.3313360">
        <ele>1374.6</ele>
        <time>2017-07-25T08:44:04Z</time>
      </trkpt>
      <trkpt lat="44.5998050" lon="7.3317200">
        <ele>1374.6</ele>
        <time>2017-07-25T08:44:08Z</time>
      </trkpt>
      <trkpt lat="44.5998170" lon="7.3318140">
        <ele>1374.6</ele>
        <time>2017-07-25T08:44:09Z</time>
      </trkpt>
      <trkpt lat="44.5998530" lon="7.3322910">
        <ele>1374.4</ele>
        <time>2017-07-25T08:44:14Z</time>
      </trkpt>
      <trkpt lat="44.5998360" lon="7.3323920">
        <ele>1374.4</ele>
        <time>2017-07-25T08:44:15Z</time>
      </trkpt>
      <trkpt lat="44.5997190" lon="7.3326570">
        <ele>1374.4</ele>
        <time>2017-07-25T08:44:18Z</time>
      </trkpt>
      <trkpt lat="44.5995860" lon="7.3328790">
        <ele>1373.6</ele>
        <time>2017-07-25T08:44:21Z</time>
      </trkpt>
      <trkpt lat="44.5995430" lon="7.3329700">
        <ele>1373.6</ele>
        <time>2017-07-25T08:44:22Z</time>
      </trkpt>
      <trkpt lat="44.5994860" lon="7.3330390">
        <ele>1373.4</ele>
        <time>2017-07-25T08:44:23Z</time>
      </trkpt>
      <trkpt lat="44.5993500" lon="7.3331380">
        <ele>1373.6</ele>
        <time>2017-07-25T08:44:25Z</time>
      </trkpt>
      <trkpt lat="44.5991810" lon="7.3332960">
        <ele>1373.2</ele>
        <time>2017-07-25T08:44:28Z</time>
      </trkpt>
      <trkpt lat="44.5991310" lon="7.3333640">
        <ele>1373.4</ele>
        <time>2017-07-25T08:44:29Z</time>
      </trkpt>
      <trkpt lat="44.5990440" lon="7.3334980">
        <ele>1374.0</ele>
        <time>2017-07-25T08:44:31Z</time>
      </trkpt>
      <trkpt lat="44.5989360" lon="7.3337550">
        <ele>1374.0</ele>
        <time>2017-07-25T08:44:34Z</time>
      </trkpt>
      <trkpt lat="44.5986970" lon="7.3342240">
        <ele>1373.2</ele>
        <time>2017-07-25T08:44:39Z</time>
      </trkpt>
      <trkpt lat="44.5986330" lon="7.3343040">
        <ele>1372.8</ele>
        <time>2017-07-25T08:44:40Z</time>
      </trkpt>
      <trkpt lat="44.5985030" lon="7.3344500">
        <ele>1371.8</ele>
        <time>2017-07-25T08:44:42Z</time>
      </trkpt>
      <trkpt lat="44.5981610" lon="7.3348940">
        <ele>1370.4</ele>
        <time>2017-07-25T08:44:48Z</time>
      </trkpt>
      <trkpt lat="44.5980860" lon="7.3349490">
        <ele>1370.0</ele>
        <time>2017-07-25T08:44:49Z</time>
      </trkpt>
      <trkpt lat="44.5979260" lon="7.3350170">
        <ele>1369.2</ele>
        <time>2017-07-25T08:44:51Z</time>
      </trkpt>
      <trkpt lat="44.5977590" lon="7.3350900">
        <ele>1368.2</ele>
        <time>2017-07-25T08:44:53Z</time>
      </trkpt>
      <trkpt lat="44.5974450" lon="7.3352480">
        <ele>1367.4</ele>
        <time>2017-07-25T08:44:57Z</time>
      </trkpt>
      <trkpt lat="44.5972910" lon="7.3353390">
        <ele>1367.0</ele>
        <time>2017-07-25T08:44:59Z</time>
      </trkpt>
      <trkpt lat="44.5971700" lon="7.3354820">
        <ele>1367.0</ele>
        <time>2017-07-25T08:45:01Z</time>
      </trkpt>
      <trkpt lat="44.5969660" lon="7.3356900">
        <ele>1366.4</ele>
        <time>2017-07-25T08:45:04Z</time>
      </trkpt>
      <trkpt lat="44.5968120" lon="7.3357730">
        <ele>1365.8</ele>
        <time>2017-07-25T08:45:06Z</time>
      </trkpt>
      <trkpt lat="44.5965930" lon="7.3359810">
        <ele>1366.0</ele>
        <time>2017-07-25T08:45:09Z</time>
      </trkpt>
      <trkpt lat="44.5965220" lon="7.3360680">
        <ele>1365.6</ele>
        <time>2017-07-25T08:45:10Z</time>
      </trkpt>
      <trkpt lat="44.5963880" lon="7.3362320">
        <ele>1364.8</ele>
        <time>2017-07-25T08:45:12Z</time>
      </trkpt>
      <trkpt lat="44.5962500" lon="7.3363880">
        <ele>1364.4</ele>
        <time>2017-07-25T08:45:14Z</time>
      </trkpt>
      <trkpt lat="44.5962110" lon="7.3364730">
        <ele>1364.0</ele>
        <time>2017-07-25T08:45:15Z</time>
      </trkpt>
      <trkpt lat="44.5961850" lon="7.3365670">
        <ele>1363.6</ele>
        <time>2017-07-25T08:45:16Z</time>
      </trkpt>
      <trkpt lat="44.5961320" lon="7.3367630">
        <ele>1363.4</ele>
        <time>2017-07-25T08:45:18Z</time>
      </trkpt>
      <trkpt lat="44.5960010" lon="7.3369740">
        <ele>1362.8</ele>
        <time>2017-07-25T08:45:21Z</time>
      </trkpt>
      <trkpt lat="44.5959820" lon="7.3370650">
        <ele>1362.4</ele>
        <time>2017-07-25T08:45:22Z</time>
      </trkpt>
      <trkpt lat="44.5959940" lon="7.3371610">
        <ele>1361.8</ele>
        <time>2017-07-25T08:45:23Z</time>
      </trkpt>
      <trkpt lat="44.5960240" lon="7.3373320">
        <ele>1361.4</ele>
        <time>2017-07-25T08:45:25Z</time>
      </trkpt>
      <trkpt lat="44.5960750" lon="7.3375960">
        <ele>1360.8</ele>
        <time>2017-07-25T08:45:28Z</time>
      </trkpt>
      <trkpt lat="44.5961010" lon="7.3377620">
        <ele>1360.2</ele>
        <time>2017-07-25T08:45:30Z</time>
      </trkpt>
      <trkpt lat="44.5961390" lon="7.3381090">
        <ele>1359.6</ele>
        <time>2017-07-25T08:45:34Z</time>
      </trkpt>
      <trkpt lat="44.5961570" lon="7.3381850">
        <ele>1359.6</ele>
        <time>2017-07-25T08:45:35Z</time>
      </trkpt>
      <trkpt lat="44.5961960" lon="7.3384070">
        <ele>1359.8</ele>
        <time>2017-07-25T08:45:38Z</time>
      </trkpt>
      <trkpt lat="44.5961990" lon="7.3385400">
        <ele>1360.4</ele>
        <time>2017-07-25T08:45:40Z</time>
      </trkpt>
      <trkpt lat="44.5962190" lon="7.3388210">
        <ele>1360.8</ele>
        <time>2017-07-25T08:45:44Z</time>
      </trkpt>
      <trkpt lat="44.5962330" lon="7.3388950">
        <ele>1361.0</ele>
        <time>2017-07-25T08:45:45Z</time>
      </trkpt>
      <trkpt lat="44.5962640" lon="7.3389970">
        <ele>1360.8</ele>
        <time>2017-07-25T08:45:46Z</time>
      </trkpt>
      <trkpt lat="44.5963130" lon="7.3392020">
        <ele>1360.8</ele>
        <time>2017-07-25T08:45:48Z</time>
      </trkpt>
      <trkpt lat="44.5963450" lon="7.3394160">
        <ele>1360.2</ele>
        <time>2017-07-25T08:45:50Z</time>
      </trkpt>
      <trkpt lat="44.5963710" lon="7.3397340">
        <ele>1359.0</ele>
        <time>2017-07-25T08:45:53Z</time>
      </trkpt>
      <trkpt lat="44.5963900" lon="7.3399500">
        <ele>1358.0</ele>
        <time>2017-07-25T08:45:55Z</time>
      </trkpt>
      <trkpt lat="44.5964060" lon="7.3401700">
        <ele>1356.4</ele>
        <time>2017-07-25T08:45:57Z</time>
      </trkpt>
      <trkpt lat="44.5963850" lon="7.3403690">
        <ele>1354.8</ele>
        <time>2017-07-25T08:45:59Z</time>
      </trkpt>
      <trkpt lat="44.5963130" lon="7.3406160">
        <ele>1353.8</ele>
        <time>2017-07-25T08:46:02Z</time>
      </trkpt>
      <trkpt lat="44.5962730" lon="7.3408430">
        <ele>1353.4</ele>
        <time>2017-07-25T08:46:05Z</time>
      </trkpt>
      <trkpt lat="44.5962730" lon="7.3409980">
        <ele>1352.8</ele>
        <time>2017-07-25T08:46:07Z</time>
      </trkpt>
      <trkpt lat="44.5962580" lon="7.3410780">
        <ele>1352.4</ele>
        <time>2017-07-25T08:46:08Z</time>
      </trkpt>
      <trkpt lat="44.5962280" lon="7.3411540">
        <ele>1352.6</ele>
        <time>2017-07-25T08:46:09Z</time>
      </trkpt>
      <trkpt lat="44.5961320" lon="7.3413790">
        <ele>1351.6</ele>
        <time>2017-07-25T08:46:12Z</time>
      </trkpt>
      <trkpt lat="44.5959950" lon="7.3416750">
        <ele>1351.8</ele>
        <time>2017-07-25T08:46:16Z</time>
      </trkpt>
      <trkpt lat="44.5959520" lon="7.3417430">
        <ele>1351.8</ele>
        <time>2017-07-25T08:46:17Z</time>
      </trkpt>
      <trkpt lat="44.5958430" lon="7.3419530">
        <ele>1352.2</ele>
        <time>2017-07-25T08:46:20Z</time>
      </trkpt>
      <trkpt lat="44.5958380" lon="7.3420590">
        <ele>1352.2</ele>
        <time>2017-07-25T08:46:21Z</time>
      </trkpt>
      <trkpt lat="44.5958620" lon="7.3424430">
        <ele>1351.4</ele>
        <time>2017-07-25T08:46:24Z</time>
      </trkpt>
      <trkpt lat="44.5958680" lon="7.3426940">
        <ele>1350.6</ele>
        <time>2017-07-25T08:46:26Z</time>
      </trkpt>
      <trkpt lat="44.5958610" lon="7.3428160">
        <ele>1350.2</ele>
        <time>2017-07-25T08:46:27Z</time>
      </trkpt>
      <trkpt lat="44.5958470" lon="7.3429430">
        <ele>1349.8</ele>
        <time>2017-07-25T08:46:28Z</time>
      </trkpt>
      <trkpt lat="44.5958330" lon="7.3430700">
        <ele>1349.0</ele>
        <time>2017-07-25T08:46:29Z</time>
      </trkpt>
      <trkpt lat="44.5958010" lon="7.3434490">
        <ele>1347.8</ele>
        <time>2017-07-25T08:46:32Z</time>
      </trkpt>
      <trkpt lat="44.5957880" lon="7.3438110">
        <ele>1346.6</ele>
        <time>2017-07-25T08:46:35Z</time>
      </trkpt>
      <trkpt lat="44.5957670" lon="7.3439490">
        <ele>1346.2</ele>
        <time>2017-07-25T08:46:36Z</time>
      </trkpt>
      <trkpt lat="44.5957090" lon="7.3442040">
        <ele>1345.4</ele>
        <time>2017-07-25T08:46:38Z</time>
      </trkpt>
      <trkpt lat="44.5955920" lon="7.3445650">
        <ele>1344.6</ele>
        <time>2017-07-25T08:46:41Z</time>
      </trkpt>
      <trkpt lat="44.5954850" lon="7.3447690">
        <ele>1344.2</ele>
        <time>2017-07-25T08:46:43Z</time>
      </trkpt>
      <trkpt lat="44.5953580" lon="7.3449460">
        <ele>1343.8</ele>
        <time>2017-07-25T08:46:45Z</time>
      </trkpt>
      <trkpt lat="44.5952880" lon="7.3450140">
        <ele>1343.6</ele>
        <time>2017-07-25T08:46:46Z</time>
      </trkpt>
      <trkpt lat="44.5952200" lon="7.3450740">
        <ele>1343.6</ele>
        <time>2017-07-25T08:46:47Z</time>
      </trkpt>
      <trkpt lat="44.5950900" lon="7.3451950">
        <ele>1343.0</ele>
        <time>2017-07-25T08:46:49Z</time>
      </trkpt>
      <trkpt lat="44.5949760" lon="7.3453510">
        <ele>1341.6</ele>
        <time>2017-07-25T08:46:51Z</time>
      </trkpt>
      <trkpt lat="44.5948530" lon="7.3455600">
        <ele>1340.2</ele>
        <time>2017-07-25T08:46:53Z</time>
      </trkpt>
      <trkpt lat="44.5947990" lon="7.3456820">
        <ele>1339.4</ele>
        <time>2017-07-25T08:46:54Z</time>
      </trkpt>
      <trkpt lat="44.5947500" lon="7.3458010">
        <ele>1338.2</ele>
        <time>2017-07-25T08:46:55Z</time>
      </trkpt>
      <trkpt lat="44.5947090" lon="7.3459030">
        <ele>1336.8</ele>
        <time>2017-07-25T08:46:56Z</time>
      </trkpt>
      <trkpt lat="44.5946870" lon="7.3460040">
        <ele>1335.4</ele>
        <time>2017-07-25T08:46:57Z</time>
      </trkpt>
      <trkpt lat="44.5947140" lon="7.3461950">
        <ele>1332.4</ele>
        <time>2017-07-25T08:46:59Z</time>
      </trkpt>
      <trkpt lat="44.5947410" lon="7.3462850">
        <ele>1331.4</ele>
        <time>2017-07-25T08:47:00Z</time>
      </trkpt>
      <trkpt lat="44.5947770" lon="7.3463710">
        <ele>1330.8</ele>
        <time>2017-07-25T08:47:01Z</time>
      </trkpt>
      <trkpt lat="44.5948080" lon="7.3464860">
        <ele>1330.0</ele>
        <time>2017-07-25T08:47:02Z</time>
      </trkpt>
      <trkpt lat="44.5948220" lon="7.3466150">
        <ele>1329.4</ele>
        <time>2017-07-25T08:47:03Z</time>
      </trkpt>
      <trkpt lat="44.5948290" lon="7.3467350">
        <ele>1328.6</ele>
        <time>2017-07-25T08:47:04Z</time>
      </trkpt>
      <trkpt lat="44.5948320" lon="7.3468520">
        <ele>1327.8</ele>
        <time>2017-07-25T08:47:05Z</time>
      </trkpt>
      <trkpt lat="44.5948460" lon="7.3470830">
        <ele>1326.4</ele>
        <time>2017-07-25T08:47:07Z</time>
      </trkpt>
      <trkpt lat="44.5948660" lon="7.3474140">
        <ele>1325.2</ele>
        <time>2017-07-25T08:47:10Z</time>
      </trkpt>
      <trkpt lat="44.5948420" lon="7.3477510">
        <ele>1324.0</ele>
        <time>2017-07-25T08:47:13Z</time>
      </trkpt>
      <trkpt lat="44.5948200" lon="7.3479790">
        <ele>1323.2</ele>
        <time>2017-07-25T08:47:15Z</time>
      </trkpt>
      <trkpt lat="44.5948090" lon="7.3480960">
        <ele>1323.0</ele>
        <time>2017-07-25T08:47:16Z</time>
      </trkpt>
      <trkpt lat="44.5947630" lon="7.3485110">
        <ele>1321.6</ele>
        <time>2017-07-25T08:47:19Z</time>
      </trkpt>
      <trkpt lat="44.5947420" lon="7.3486440">
        <ele>1321.2</ele>
        <time>2017-07-25T08:47:20Z</time>
      </trkpt>
      <trkpt lat="44.5947140" lon="7.3487700">
        <ele>1320.6</ele>
        <time>2017-07-25T08:47:21Z</time>
      </trkpt>
      <trkpt lat="44.5946550" lon="7.3490180">
        <ele>1318.8</ele>
        <time>2017-07-25T08:47:23Z</time>
      </trkpt>
      <trkpt lat="44.5945860" lon="7.3492620">
        <ele>1317.8</ele>
        <time>2017-07-25T08:47:25Z</time>
      </trkpt>
      <trkpt lat="44.5945460" lon="7.3493740">
        <ele>1316.6</ele>
        <time>2017-07-25T08:47:26Z</time>
      </trkpt>
      <trkpt lat="44.5944430" lon="7.3495680">
        <ele>1315.2</ele>
        <time>2017-07-25T08:47:28Z</time>
      </trkpt>
      <trkpt lat="44.5943880" lon="7.3496600">
        <ele>1314.6</ele>
        <time>2017-07-25T08:47:29Z</time>
      </trkpt>
      <trkpt lat="44.5943310" lon="7.3497530">
        <ele>1313.4</ele>
        <time>2017-07-25T08:47:30Z</time>
      </trkpt>
      <trkpt lat="44.5942850" lon="7.3498440">
        <ele>1312.2</ele>
        <time>2017-07-25T08:47:31Z</time>
      </trkpt>
      <trkpt lat="44.5942510" lon="7.3499240">
        <ele>1311.4</ele>
        <time>2017-07-25T08:47:32Z</time>
      </trkpt>
      <trkpt lat="44.5942250" lon="7.3500000">
        <ele>1310.2</ele>
        <time>2017-07-25T08:47:33Z</time>
      </trkpt>
      <trkpt lat="44.5942360" lon="7.3500400">
        <ele>1309.2</ele>
        <time>2017-07-25T08:47:34Z</time>
      </trkpt>
      <trkpt lat="44.5942480" lon="7.3500810">
        <ele>1308.0</ele>
        <time>2017-07-25T08:47:35Z</time>
      </trkpt>
      <trkpt lat="44.5942970" lon="7.3501240">
        <ele>1306.2</ele>
        <time>2017-07-25T08:47:37Z</time>
      </trkpt>
      <trkpt lat="44.5943260" lon="7.3501440">
        <ele>1305.4</ele>
        <time>2017-07-25T08:47:38Z</time>
      </trkpt>
      <trkpt lat="44.5943630" lon="7.3501610">
        <ele>1304.6</ele>
        <time>2017-07-25T08:47:39Z</time>
      </trkpt>
      <trkpt lat="44.5944610" lon="7.3501870">
        <ele>1303.0</ele>
        <time>2017-07-25T08:47:41Z</time>
      </trkpt>
      <trkpt lat="44.5945310" lon="7.3502020">
        <ele>1302.0</ele>
        <time>2017-07-25T08:47:42Z</time>
      </trkpt>
      <trkpt lat="44.5945980" lon="7.3502150">
        <ele>1301.4</ele>
        <time>2017-07-25T08:47:43Z</time>
      </trkpt>
      <trkpt lat="44.5946700" lon="7.3502330">
        <ele>1300.8</ele>
        <time>2017-07-25T08:47:44Z</time>
      </trkpt>
      <trkpt lat="44.5947480" lon="7.3502600">
        <ele>1300.2</ele>
        <time>2017-07-25T08:47:45Z</time>
      </trkpt>
      <trkpt lat="44.5949000" lon="7.3503350">
        <ele>1297.4</ele>
        <time>2017-07-25T08:47:47Z</time>
      </trkpt>
      <trkpt lat="44.5949670" lon="7.3503880">
        <ele>1296.6</ele>
        <time>2017-07-25T08:47:48Z</time>
      </trkpt>
      <trkpt lat="44.5950300" lon="7.3504620">
        <ele>1295.6</ele>
        <time>2017-07-25T08:47:49Z</time>
      </trkpt>
      <trkpt lat="44.5950920" lon="7.3505640">
        <ele>1294.8</ele>
        <time>2017-07-25T08:47:50Z</time>
      </trkpt>
      <trkpt lat="44.5951550" lon="7.3506760">
        <ele>1294.0</ele>
        <time>2017-07-25T08:47:51Z</time>
      </trkpt>
      <trkpt lat="44.5952650" lon="7.3508940">
        <ele>1292.2</ele>
        <time>2017-07-25T08:47:53Z</time>
      </trkpt>
      <trkpt lat="44.5953610" lon="7.3510940">
        <ele>1290.8</ele>
        <time>2017-07-25T08:47:55Z</time>
      </trkpt>
      <trkpt lat="44.5954790" lon="7.3512870">
        <ele>1289.0</ele>
        <time>2017-07-25T08:47:57Z</time>
      </trkpt>
      <trkpt lat="44.5955390" lon="7.3513760">
        <ele>1287.8</ele>
        <time>2017-07-25T08:47:58Z</time>
      </trkpt>
      <trkpt lat="44.5955950" lon="7.3514650">
        <ele>1286.2</ele>
        <time>2017-07-25T08:47:59Z</time>
      </trkpt>
      <trkpt lat="44.5956420" lon="7.3515520">
        <ele>1285.2</ele>
        <time>2017-07-25T08:48:00Z</time>
      </trkpt>
      <trkpt lat="44.5956930" lon="7.3516340">
        <ele>1284.2</ele>
        <time>2017-07-25T08:48:01Z</time>
      </trkpt>
      <trkpt lat="44.5957430" lon="7.3516980">
        <ele>1283.0</ele>
        <time>2017-07-25T08:48:02Z</time>
      </trkpt>
      <trkpt lat="44.5957960" lon="7.3517240">
        <ele>1281.8</ele>
        <time>2017-07-25T08:48:03Z</time>
      </trkpt>
      <trkpt lat="44.5958560" lon="7.3517080">
        <ele>1280.6</ele>
        <time>2017-07-25T08:48:04Z</time>
      </trkpt>
      <trkpt lat="44.5959160" lon="7.3516670">
        <ele>1279.6</ele>
        <time>2017-07-25T08:48:05Z</time>
      </trkpt>
      <trkpt lat="44.5959720" lon="7.3516090">
        <ele>1278.8</ele>
        <time>2017-07-25T08:48:06Z</time>
      </trkpt>
      <trkpt lat="44.5960270" lon="7.3515400">
        <ele>1278.2</ele>
        <time>2017-07-25T08:48:07Z</time>
      </trkpt>
      <trkpt lat="44.5960840" lon="7.3514540">
        <ele>1277.4</ele>
        <time>2017-07-25T08:48:08Z</time>
      </trkpt>
      <trkpt lat="44.5961470" lon="7.3513620">
        <ele>1276.2</ele>
        <time>2017-07-25T08:48:09Z</time>
      </trkpt>
      <trkpt lat="44.5962180" lon="7.3512710">
        <ele>1275.0</ele>
        <time>2017-07-25T08:48:10Z</time>
      </trkpt>
      <trkpt lat="44.5962870" lon="7.3511840">
        <ele>1273.4</ele>
        <time>2017-07-25T08:48:11Z</time>
      </trkpt>
      <trkpt lat="44.5964280" lon="7.3510080">
        <ele>1272.2</ele>
        <time>2017-07-25T08:48:13Z</time>
      </trkpt>
      <trkpt lat="44.5965710" lon="7.3508290">
        <ele>1271.0</ele>
        <time>2017-07-25T08:48:15Z</time>
      </trkpt>
      <trkpt lat="44.5966380" lon="7.3507520">
        <ele>1270.2</ele>
        <time>2017-07-25T08:48:16Z</time>
      </trkpt>
      <trkpt lat="44.5966950" lon="7.3506830">
        <ele>1269.2</ele>
        <time>2017-07-25T08:48:17Z</time>
      </trkpt>
      <trkpt lat="44.5967580" lon="7.3506370">
        <ele>1268.2</ele>
        <time>2017-07-25T08:48:18Z</time>
      </trkpt>
      <trkpt lat="44.5968230" lon="7.3506210">
        <ele>1267.4</ele>
        <time>2017-07-25T08:48:19Z</time>
      </trkpt>
      <trkpt lat="44.5969720" lon="7.3506720">
        <ele>1265.8</ele>
        <time>2017-07-25T08:48:21Z</time>
      </trkpt>
      <trkpt lat="44.5970490" lon="7.3507130">
        <ele>1264.8</ele>
        <time>2017-07-25T08:48:22Z</time>
      </trkpt>
      <trkpt lat="44.5971260" lon="7.3507470">
        <ele>1264.0</ele>
        <time>2017-07-25T08:48:23Z</time>
      </trkpt>
      <trkpt lat="44.5972900" lon="7.3508270">
        <ele>1262.2</ele>
        <time>2017-07-25T08:48:25Z</time>
      </trkpt>
      <trkpt lat="44.5973810" lon="7.3508770">
        <ele>1261.0</ele>
        <time>2017-07-25T08:48:26Z</time>
      </trkpt>
      <trkpt lat="44.5974720" lon="7.3509320">
        <ele>1259.8</ele>
        <time>2017-07-25T08:48:27Z</time>
      </trkpt>
      <trkpt lat="44.5975620" lon="7.3509930">
        <ele>1258.8</ele>
        <time>2017-07-25T08:48:28Z</time>
      </trkpt>
      <trkpt lat="44.5977070" lon="7.3511070">
        <ele>1256.8</ele>
        <time>2017-07-25T08:48:30Z</time>
      </trkpt>
      <trkpt lat="44.5977830" lon="7.3511630">
        <ele>1255.6</ele>
        <time>2017-07-25T08:48:31Z</time>
      </trkpt>
      <trkpt lat="44.5978640" lon="7.3512200">
        <ele>1254.4</ele>
        <time>2017-07-25T08:48:32Z</time>
      </trkpt>
      <trkpt lat="44.5979450" lon="7.3512700">
        <ele>1253.4</ele>
        <time>2017-07-25T08:48:33Z</time>
      </trkpt>
      <trkpt lat="44.5980220" lon="7.3513180">
        <ele>1253.2</ele>
        <time>2017-07-25T08:48:34Z</time>
      </trkpt>
      <trkpt lat="44.5980990" lon="7.3513850">
        <ele>1251.2</ele>
        <time>2017-07-25T08:48:35Z</time>
      </trkpt>
      <trkpt lat="44.5981710" lon="7.3514520">
        <ele>1249.6</ele>
        <time>2017-07-25T08:48:36Z</time>
      </trkpt>
      <trkpt lat="44.5982460" lon="7.3515180">
        <ele>1248.8</ele>
        <time>2017-07-25T08:48:37Z</time>
      </trkpt>
      <trkpt lat="44.5983200" lon="7.3515840">
        <ele>1247.8</ele>
        <time>2017-07-25T08:48:38Z</time>
      </trkpt>
      <trkpt lat="44.5984690" lon="7.3517240">
        <ele>1246.8</ele>
        <time>2017-07-25T08:48:40Z</time>
      </trkpt>
      <trkpt lat="44.5985990" lon="7.3518450">
        <ele>1245.0</ele>
        <time>2017-07-25T08:48:42Z</time>
      </trkpt>
      <trkpt lat="44.5986650" lon="7.3519170">
        <ele>1243.8</ele>
        <time>2017-07-25T08:48:43Z</time>
      </trkpt>
      <trkpt lat="44.5987250" lon="7.3519930">
        <ele>1242.8</ele>
        <time>2017-07-25T08:48:44Z</time>
      </trkpt>
      <trkpt lat="44.5987690" lon="7.3520630">
        <ele>1241.6</ele>
        <time>2017-07-25T08:48:45Z</time>
      </trkpt>
      <trkpt lat="44.5987830" lon="7.3521180">
        <ele>1240.4</ele>
        <time>2017-07-25T08:48:46Z</time>
      </trkpt>
      <trkpt lat="44.5987700" lon="7.3521560">
        <ele>1239.0</ele>
        <time>2017-07-25T08:48:47Z</time>
      </trkpt>
      <trkpt lat="44.5987400" lon="7.3521860">
        <ele>1238.0</ele>
        <time>2017-07-25T08:48:48Z</time>
      </trkpt>
      <trkpt lat="44.5986580" lon="7.3522070">
        <ele>1236.0</ele>
        <time>2017-07-25T08:48:50Z</time>
      </trkpt>
      <trkpt lat="44.5985470" lon="7.3521580">
        <ele>1234.0</ele>
        <time>2017-07-25T08:48:52Z</time>
      </trkpt>
      <trkpt lat="44.5984740" lon="7.3521350">
        <ele>1233.2</ele>
        <time>2017-07-25T08:48:53Z</time>
      </trkpt>
      <trkpt lat="44.5983980" lon="7.3521210">
        <ele>1232.4</ele>
        <time>2017-07-25T08:48:54Z</time>
      </trkpt>
      <trkpt lat="44.5983020" lon="7.3521180">
        <ele>1231.4</ele>
        <time>2017-07-25T08:48:55Z</time>
      </trkpt>
      <trkpt lat="44.5981980" lon="7.3521030">
        <ele>1229.8</ele>
        <time>2017-07-25T08:48:56Z</time>
      </trkpt>
      <trkpt lat="44.5980960" lon="7.3521000">
        <ele>1228.0</ele>
        <time>2017-07-25T08:48:57Z</time>
      </trkpt>
      <trkpt lat="44.5980100" lon="7.3521010">
        <ele>1226.6</ele>
        <time>2017-07-25T08:48:58Z</time>
      </trkpt>
      <trkpt lat="44.5979220" lon="7.3521170">
        <ele>1223.8</ele>
        <time>2017-07-25T08:48:59Z</time>
      </trkpt>
      <trkpt lat="44.5978320" lon="7.3521360">
        <ele>1222.2</ele>
        <time>2017-07-25T08:49:00Z</time>
      </trkpt>
      <trkpt lat="44.5977410" lon="7.3521620">
        <ele>1221.4</ele>
        <time>2017-07-25T08:49:01Z</time>
      </trkpt>
      <trkpt lat="44.5976510" lon="7.3521800">
        <ele>1220.2</ele>
        <time>2017-07-25T08:49:02Z</time>
      </trkpt>
      <trkpt lat="44.5975590" lon="7.3521790">
        <ele>1219.2</ele>
        <time>2017-07-25T08:49:03Z</time>
      </trkpt>
      <trkpt lat="44.5974660" lon="7.3521520">
        <ele>1217.6</ele>
        <time>2017-07-25T08:49:04Z</time>
      </trkpt>
      <trkpt lat="44.5973770" lon="7.3521300">
        <ele>1216.2</ele>
        <time>2017-07-25T08:49:05Z</time>
      </trkpt>
      <trkpt lat="44.5972970" lon="7.3521250">
        <ele>1215.0</ele>
        <time>2017-07-25T08:49:06Z</time>
      </trkpt>
      <trkpt lat="44.5972300" lon="7.3521400">
        <ele>1214.0</ele>
        <time>2017-07-25T08:49:07Z</time>
      </trkpt>
      <trkpt lat="44.5971790" lon="7.3521780">
        <ele>1213.0</ele>
        <time>2017-07-25T08:49:08Z</time>
      </trkpt>
      <trkpt lat="44.5971420" lon="7.3522380">
        <ele>1212.2</ele>
        <time>2017-07-25T08:49:09Z</time>
      </trkpt>
      <trkpt lat="44.5971070" lon="7.3523170">
        <ele>1211.6</ele>
        <time>2017-07-25T08:49:10Z</time>
      </trkpt>
      <trkpt lat="44.5970740" lon="7.3524040">
        <ele>1210.6</ele>
        <time>2017-07-25T08:49:11Z</time>
      </trkpt>
      <trkpt lat="44.5970360" lon="7.3524970">
        <ele>1210.0</ele>
        <time>2017-07-25T08:49:12Z</time>
      </trkpt>
      <trkpt lat="44.5969880" lon="7.3526020">
        <ele>1208.8</ele>
        <time>2017-07-25T08:49:13Z</time>
      </trkpt>
      <trkpt lat="44.5969150" lon="7.3528300">
        <ele>1206.8</ele>
        <time>2017-07-25T08:49:15Z</time>
      </trkpt>
      <trkpt lat="44.5968580" lon="7.3530810">
        <ele>1205.2</ele>
        <time>2017-07-25T08:49:17Z</time>
      </trkpt>
      <trkpt lat="44.5967940" lon="7.3533460">
        <ele>1203.6</ele>
        <time>2017-07-25T08:49:19Z</time>
      </trkpt>
      <trkpt lat="44.5967690" lon="7.3534770">
        <ele>1202.6</ele>
        <time>2017-07-25T08:49:20Z</time>
      </trkpt>
      <trkpt lat="44.5967400" lon="7.3537470">
        <ele>1201.0</ele>
        <time>2017-07-25T08:49:22Z</time>
      </trkpt>
      <trkpt lat="44.5967270" lon="7.3538820">
        <ele>1199.6</ele>
        <time>2017-07-25T08:49:23Z</time>
      </trkpt>
      <trkpt lat="44.5966990" lon="7.3541400">
        <ele>1198.6</ele>
        <time>2017-07-25T08:49:25Z</time>
      </trkpt>
      <trkpt lat="44.5966790" lon="7.3543610">
        <ele>1197.6</ele>
        <time>2017-07-25T08:49:27Z</time>
      </trkpt>
      <trkpt lat="44.5966640" lon="7.3544590">
        <ele>1197.2</ele>
        <time>2017-07-25T08:49:28Z</time>
      </trkpt>
      <trkpt lat="44.5966200" lon="7.3547720">
        <ele>1196.2</ele>
        <time>2017-07-25T08:49:31Z</time>
      </trkpt>
      <trkpt lat="44.5966170" lon="7.3548880">
        <ele>1195.8</ele>
        <time>2017-07-25T08:49:32Z</time>
      </trkpt>
      <trkpt lat="44.5966320" lon="7.3550090">
        <ele>1195.2</ele>
        <time>2017-07-25T08:49:33Z</time>
      </trkpt>
      <trkpt lat="44.5966630" lon="7.3551300">
        <ele>1194.6</ele>
        <time>2017-07-25T08:49:34Z</time>
      </trkpt>
      <trkpt lat="44.5967410" lon="7.3553560">
        <ele>1193.8</ele>
        <time>2017-07-25T08:49:36Z</time>
      </trkpt>
      <trkpt lat="44.5968330" lon="7.3555750">
        <ele>1192.0</ele>
        <time>2017-07-25T08:49:38Z</time>
      </trkpt>
      <trkpt lat="44.5968670" lon="7.3556960">
        <ele>1191.2</ele>
        <time>2017-07-25T08:49:39Z</time>
      </trkpt>
      <trkpt lat="44.5968990" lon="7.3558130">
        <ele>1190.6</ele>
        <time>2017-07-25T08:49:40Z</time>
      </trkpt>
      <trkpt lat="44.5969100" lon="7.3559220">
        <ele>1189.6</ele>
        <time>2017-07-25T08:49:41Z</time>
      </trkpt>
      <trkpt lat="44.5969070" lon="7.3560270">
        <ele>1188.8</ele>
        <time>2017-07-25T08:49:42Z</time>
      </trkpt>
      <trkpt lat="44.5968560" lon="7.3562140">
        <ele>1187.6</ele>
        <time>2017-07-25T08:49:44Z</time>
      </trkpt>
      <trkpt lat="44.5967880" lon="7.3563770">
        <ele>1185.4</ele>
        <time>2017-07-25T08:49:46Z</time>
      </trkpt>
      <trkpt lat="44.5967630" lon="7.3564100">
        <ele>1183.2</ele>
        <time>2017-07-25T08:49:47Z</time>
      </trkpt>
      <trkpt lat="44.5967880" lon="7.3564370">
        <ele>1181.6</ele>
        <time>2017-07-25T08:49:49Z</time>
      </trkpt>
      <trkpt lat="44.5968110" lon="7.3564520">
        <ele>1180.6</ele>
        <time>2017-07-25T08:49:50Z</time>
      </trkpt>
      <trkpt lat="44.5968670" lon="7.3565060">
        <ele>1179.2</ele>
        <time>2017-07-25T08:49:51Z</time>
      </trkpt>
      <trkpt lat="44.5969140" lon="7.3565870">
        <ele>1178.0</ele>
        <time>2017-07-25T08:49:52Z</time>
      </trkpt>
      <trkpt lat="44.5969600" lon="7.3566700">
        <ele>1177.2</ele>
        <time>2017-07-25T08:49:53Z</time>
      </trkpt>
      <trkpt lat="44.5969950" lon="7.3567600">
        <ele>1176.2</ele>
        <time>2017-07-25T08:49:54Z</time>
      </trkpt>
      <trkpt lat="44.5970430" lon="7.3569230">
        <ele>1174.2</ele>
        <time>2017-07-25T08:49:56Z</time>
      </trkpt>
      <trkpt lat="44.5970530" lon="7.3570810">
        <ele>1172.2</ele>
        <time>2017-07-25T08:49:58Z</time>
      </trkpt>
      <trkpt lat="44.5970850" lon="7.3571410">
        <ele>1171.4</ele>
        <time>2017-07-25T08:49:59Z</time>
      </trkpt>
      <trkpt lat="44.5971340" lon="7.3572050">
        <ele>1170.2</ele>
        <time>2017-07-25T08:50:00Z</time>
      </trkpt>
      <trkpt lat="44.5971880" lon="7.3572720">
        <ele>1169.2</ele>
        <time>2017-07-25T08:50:01Z</time>
      </trkpt>
      <trkpt lat="44.5973010" lon="7.3573790">
        <ele>1167.4</ele>
        <time>2017-07-25T08:50:03Z</time>
      </trkpt>
      <trkpt lat="44.5974110" lon="7.3574490">
        <ele>1165.8</ele>
        <time>2017-07-25T08:50:05Z</time>
      </trkpt>
      <trkpt lat="44.5975160" lon="7.3575310">
        <ele>1163.8</ele>
        <time>2017-07-25T08:50:07Z</time>
      </trkpt>
      <trkpt lat="44.5975550" lon="7.3575780">
        <ele>1163.4</ele>
        <time>2017-07-25T08:50:08Z</time>
      </trkpt>
      <trkpt lat="44.5975900" lon="7.3576410">
        <ele>1162.4</ele>
        <time>2017-07-25T08:50:09Z</time>
      </trkpt>
      <trkpt lat="44.5976240" lon="7.3577100">
        <ele>1161.6</ele>
        <time>2017-07-25T08:50:10Z</time>
      </trkpt>
      <trkpt lat="44.5976600" lon="7.3577820">
        <ele>1159.4</ele>
        <time>2017-07-25T08:50:11Z</time>
      </trkpt>
      <trkpt lat="44.5977090" lon="7.3578380">
        <ele>1158.2</ele>
        <time>2017-07-25T08:50:12Z</time>
      </trkpt>
      <trkpt lat="44.5977700" lon="7.3578910">
        <ele>1157.0</ele>
        <time>2017-07-25T08:50:13Z</time>
      </trkpt>
      <trkpt lat="44.5978250" lon="7.3579490">
        <ele>1155.8</ele>
        <time>2017-07-25T08:50:14Z</time>
      </trkpt>
      <trkpt lat="44.5978670" lon="7.3580210">
        <ele>1154.6</ele>
        <time>2017-07-25T08:50:15Z</time>
      </trkpt>
      <trkpt lat="44.5979020" lon="7.3580930">
        <ele>1153.2</ele>
        <time>2017-07-25T08:50:16Z</time>
      </trkpt>
      <trkpt lat="44.5979360" lon="7.3581550">
        <ele>1151.8</ele>
        <time>2017-07-25T08:50:17Z</time>
      </trkpt>
      <trkpt lat="44.5979670" lon="7.3582210">
        <ele>1150.6</ele>
        <time>2017-07-25T08:50:18Z</time>
      </trkpt>
      <trkpt lat="44.5979860" lon="7.3583060">
        <ele>1149.4</ele>
        <time>2017-07-25T08:50:19Z</time>
      </trkpt>
      <trkpt lat="44.5980030" lon="7.3583910">
        <ele>1148.2</ele>
        <time>2017-07-25T08:50:20Z</time>
      </trkpt>
      <trkpt lat="44.5980340" lon="7.3584670">
        <ele>1147.0</ele>
        <time>2017-07-25T08:50:21Z</time>
      </trkpt>
      <trkpt lat="44.5980660" lon="7.3585370">
        <ele>1145.6</ele>
        <time>2017-07-25T08:50:22Z</time>
      </trkpt>
      <trkpt lat="44.5981000" lon="7.3586030">
        <ele>1144.4</ele>
        <time>2017-07-25T08:50:23Z</time>
      </trkpt>
      <trkpt lat="44.5981220" lon="7.3586710">
        <ele>1143.2</ele>
        <time>2017-07-25T08:50:24Z</time>
      </trkpt>
      <trkpt lat="44.5981420" lon="7.3587450">
        <ele>1141.4</ele>
        <time>2017-07-25T08:50:25Z</time>
      </trkpt>
      <trkpt lat="44.5981700" lon="7.3588190">
        <ele>1140.0</ele>
        <time>2017-07-25T08:50:26Z</time>
      </trkpt>
      <trkpt lat="44.5982040" lon="7.3588910">
        <ele>1138.6</ele>
        <time>2017-07-25T08:50:27Z</time>
      </trkpt>
      <trkpt lat="44.5982380" lon="7.3589660">
        <ele>1137.4</ele>
        <time>2017-07-25T08:50:28Z</time>
      </trkpt>
      <trkpt lat="44.5982730" lon="7.3590370">
        <ele>1136.0</ele>
        <time>2017-07-25T08:50:29Z</time>
      </trkpt>
      <trkpt lat="44.5983060" lon="7.3591060">
        <ele>1134.6</ele>
        <time>2017-07-25T08:50:30Z</time>
      </trkpt>
      <trkpt lat="44.5983380" lon="7.3591700">
        <ele>1133.0</ele>
        <time>2017-07-25T08:50:31Z</time>
      </trkpt>
      <trkpt lat="44.5983760" lon="7.3592260">
        <ele>1131.2</ele>
        <time>2017-07-25T08:50:32Z</time>
      </trkpt>
      <trkpt lat="44.5984220" lon="7.3592780">
        <ele>1130.0</ele>
        <time>2017-07-25T08:50:33Z</time>
      </trkpt>
      <trkpt lat="44.5984770" lon="7.3593190">
        <ele>1128.6</ele>
        <time>2017-07-25T08:50:34Z</time>
      </trkpt>
      <trkpt lat="44.5985350" lon="7.3593480">
        <ele>1125.8</ele>
        <time>2017-07-25T08:50:35Z</time>
      </trkpt>
      <trkpt lat="44.5986000" lon="7.3593850">
        <ele>1124.4</ele>
        <time>2017-07-25T08:50:36Z</time>
      </trkpt>
      <trkpt lat="44.5986590" lon="7.3594280">
        <ele>1122.8</ele>
        <time>2017-07-25T08:50:37Z</time>
      </trkpt>
      <trkpt lat="44.5987200" lon="7.3594650">
        <ele>1121.6</ele>
        <time>2017-07-25T08:50:38Z</time>
      </trkpt>
      <trkpt lat="44.5987800" lon="7.3594670">
        <ele>1120.4</ele>
        <time>2017-07-25T08:50:39Z</time>
      </trkpt>
      <trkpt lat="44.5988300" lon="7.3594500">
        <ele>1119.4</ele>
        <time>2017-07-25T08:50:40Z</time>
      </trkpt>
      <trkpt lat="44.5988650" lon="7.3594130">
        <ele>1118.2</ele>
        <time>2017-07-25T08:50:41Z</time>
      </trkpt>
      <trkpt lat="44.5989050" lon="7.3593730">
        <ele>1117.0</ele>
        <time>2017-07-25T08:50:42Z</time>
      </trkpt>
      <trkpt lat="44.5989540" lon="7.3593370">
        <ele>1115.6</ele>
        <time>2017-07-25T08:50:43Z</time>
      </trkpt>
      <trkpt lat="44.5989890" lon="7.3592860">
        <ele>1114.4</ele>
        <time>2017-07-25T08:50:44Z</time>
      </trkpt>
      <trkpt lat="44.5990270" lon="7.3592290">
        <ele>1113.2</ele>
        <time>2017-07-25T08:50:45Z</time>
      </trkpt>
      <trkpt lat="44.5990610" lon="7.3591660">
        <ele>1112.2</ele>
        <time>2017-07-25T08:50:46Z</time>
      </trkpt>
      <trkpt lat="44.5990950" lon="7.3590990">
        <ele>1111.0</ele>
        <time>2017-07-25T08:50:47Z</time>
      </trkpt>
      <trkpt lat="44.5991280" lon="7.3590360">
        <ele>1109.6</ele>
        <time>2017-07-25T08:50:48Z</time>
      </trkpt>
      <trkpt lat="44.5991520" lon="7.3589730">
        <ele>1108.4</ele>
        <time>2017-07-25T08:50:49Z</time>
      </trkpt>
      <trkpt lat="44.5991720" lon="7.3589060">
        <ele>1107.2</ele>
        <time>2017-07-25T08:50:50Z</time>
      </trkpt>
      <trkpt lat="44.5991820" lon="7.3588280">
        <ele>1106.0</ele>
        <time>2017-07-25T08:50:51Z</time>
      </trkpt>
      <trkpt lat="44.5991820" lon="7.3587560">
        <ele>1104.4</ele>
        <time>2017-07-25T08:50:52Z</time>
      </trkpt>
      <trkpt lat="44.5991770" lon="7.3587020">
        <ele>1103.0</ele>
        <time>2017-07-25T08:50:53Z</time>
      </trkpt>
      <trkpt lat="44.5991710" lon="7.3586640">
        <ele>1101.8</ele>
        <time>2017-07-25T08:50:54Z</time>
      </trkpt>
      <trkpt lat="44.5991760" lon="7.3586840">
        <ele>1099.8</ele>
        <time>2017-07-25T08:50:56Z</time>
      </trkpt>
      <trkpt lat="44.5991840" lon="7.3587330">
        <ele>1098.6</ele>
        <time>2017-07-25T08:50:57Z</time>
      </trkpt>
      <trkpt lat="44.5992030" lon="7.3588030">
        <ele>1097.6</ele>
        <time>2017-07-25T08:50:58Z</time>
      </trkpt>
      <trkpt lat="44.5992300" lon="7.3588810">
        <ele>1095.8</ele>
        <time>2017-07-25T08:50:59Z</time>
      </trkpt>
      <trkpt lat="44.5992610" lon="7.3589570">
        <ele>1094.6</ele>
        <time>2017-07-25T08:51:00Z</time>
      </trkpt>
      <trkpt lat="44.5992900" lon="7.3590260">
        <ele>1093.4</ele>
        <time>2017-07-25T08:51:01Z</time>
      </trkpt>
      <trkpt lat="44.5993240" lon="7.3590940">
        <ele>1092.0</ele>
        <time>2017-07-25T08:51:02Z</time>
      </trkpt>
      <trkpt lat="44.5993670" lon="7.3591550">
        <ele>1091.4</ele>
        <time>2017-07-25T08:51:03Z</time>
      </trkpt>
      <trkpt lat="44.5994280" lon="7.3592110">
        <ele>1090.6</ele>
        <time>2017-07-25T08:51:04Z</time>
      </trkpt>
      <trkpt lat="44.5995710" lon="7.3592870">
        <ele>1088.8</ele>
        <time>2017-07-25T08:51:06Z</time>
      </trkpt>
      <trkpt lat="44.5996330" lon="7.3593380">
        <ele>1087.6</ele>
        <time>2017-07-25T08:51:07Z</time>
      </trkpt>
      <trkpt lat="44.5997270" lon="7.3594800">
        <ele>1085.4</ele>
        <time>2017-07-25T08:51:09Z</time>
      </trkpt>
      <trkpt lat="44.5998220" lon="7.3596000">
        <ele>1083.4</ele>
        <time>2017-07-25T08:51:11Z</time>
      </trkpt>
      <trkpt lat="44.5998850" lon="7.3596220">
        <ele>1082.4</ele>
        <time>2017-07-25T08:51:12Z</time>
      </trkpt>
      <trkpt lat="44.5999480" lon="7.3596250">
        <ele>1081.4</ele>
        <time>2017-07-25T08:51:13Z</time>
      </trkpt>
      <trkpt lat="44.6000130" lon="7.3596300">
        <ele>1080.6</ele>
        <time>2017-07-25T08:51:14Z</time>
      </trkpt>
      <trkpt lat="44.6000760" lon="7.3596390">
        <ele>1079.4</ele>
        <time>2017-07-25T08:51:15Z</time>
      </trkpt>
      <trkpt lat="44.6001330" lon="7.3596450">
        <ele>1078.0</ele>
        <time>2017-07-25T08:51:16Z</time>
      </trkpt>
      <trkpt lat="44.6001810" lon="7.3596430">
        <ele>1076.6</ele>
        <time>2017-07-25T08:51:17Z</time>
      </trkpt>
      <trkpt lat="44.6002240" lon="7.3596370">
        <ele>1075.6</ele>
        <time>2017-07-25T08:51:18Z</time>
      </trkpt>
      <trkpt lat="44.6002800" lon="7.3596080">
        <ele>1074.4</ele>
        <time>2017-07-25T08:51:19Z</time>
      </trkpt>
      <trkpt lat="44.6003400" lon="7.3595610">
        <ele>1073.2</ele>
        <time>2017-07-25T08:51:20Z</time>
      </trkpt>
      <trkpt lat="44.6003890" lon="7.3595120">
        <ele>1071.8</ele>
        <time>2017-07-25T08:51:21Z</time>
      </trkpt>
      <trkpt lat="44.6004310" lon="7.3594650">
        <ele>1070.6</ele>
        <time>2017-07-25T08:51:22Z</time>
      </trkpt>
      <trkpt lat="44.6004770" lon="7.3594290">
        <ele>1068.2</ele>
        <time>2017-07-25T08:51:23Z</time>
      </trkpt>
      <trkpt lat="44.6005080" lon="7.3594020">
        <ele>1067.0</ele>
        <time>2017-07-25T08:51:24Z</time>
      </trkpt>
      <trkpt lat="44.6005420" lon="7.3593880">
        <ele>1065.8</ele>
        <time>2017-07-25T08:51:25Z</time>
      </trkpt>
      <trkpt lat="44.6005980" lon="7.3593720">
        <ele>1064.4</ele>
        <time>2017-07-25T08:51:26Z</time>
      </trkpt>
      <trkpt lat="44.6006610" lon="7.3593470">
        <ele>1063.4</ele>
        <time>2017-07-25T08:51:27Z</time>
      </trkpt>
      <trkpt lat="44.6007220" lon="7.3593240">
        <ele>1062.4</ele>
        <time>2017-07-25T08:51:28Z</time>
      </trkpt>
      <trkpt lat="44.6007790" lon="7.3593010">
        <ele>1061.4</ele>
        <time>2017-07-25T08:51:29Z</time>
      </trkpt>
      <trkpt lat="44.6008340" lon="7.3592800">
        <ele>1060.0</ele>
        <time>2017-07-25T08:51:30Z</time>
      </trkpt>
      <trkpt lat="44.6008920" lon="7.3592610">
        <ele>1058.8</ele>
        <time>2017-07-25T08:51:31Z</time>
      </trkpt>
      <trkpt lat="44.6009570" lon="7.3592440">
        <ele>1057.6</ele>
        <time>2017-07-25T08:51:32Z</time>
      </trkpt>
      <trkpt lat="44.6010190" lon="7.3592200">
        <ele>1056.8</ele>
        <time>2017-07-25T08:51:33Z</time>
      </trkpt>
      <trkpt lat="44.6010800" lon="7.3591900">
        <ele>1055.6</ele>
        <time>2017-07-25T08:51:34Z</time>
      </trkpt>
      <trkpt lat="44.6011320" lon="7.3591520">
        <ele>1054.4</ele>
        <time>2017-07-25T08:51:35Z</time>
      </trkpt>
      <trkpt lat="44.6011840" lon="7.3591100">
        <ele>1052.8</ele>
        <time>2017-07-25T08:51:36Z</time>
      </trkpt>
      <trkpt lat="44.6012310" lon="7.3590570">
        <ele>1051.6</ele>
        <time>2017-07-25T08:51:37Z</time>
      </trkpt>
      <trkpt lat="44.6013030" lon="7.3589540">
        <ele>1049.8</ele>
        <time>2017-07-25T08:51:39Z</time>
      </trkpt>
      <trkpt lat="44.6013450" lon="7.3589190">
        <ele>1048.6</ele>
        <time>2017-07-25T08:51:40Z</time>
      </trkpt>
      <trkpt lat="44.6014010" lon="7.3588900">
        <ele>1047.6</ele>
        <time>2017-07-25T08:51:41Z</time>
      </trkpt>
      <trkpt lat="44.6014620" lon="7.3588650">
        <ele>1047.0</ele>
        <time>2017-07-25T08:51:42Z</time>
      </trkpt>
      <trkpt lat="44.6015260" lon="7.3588470">
        <ele>1046.0</ele>
        <time>2017-07-25T08:51:43Z</time>
      </trkpt>
      <trkpt lat="44.6015940" lon="7.3588400">
        <ele>1044.8</ele>
        <time>2017-07-25T08:51:44Z</time>
      </trkpt>
      <trkpt lat="44.6016680" lon="7.3588220">
        <ele>1043.4</ele>
        <time>2017-07-25T08:51:45Z</time>
      </trkpt>
      <trkpt lat="44.6017390" lon="7.3587970">
        <ele>1042.2</ele>
        <time>2017-07-25T08:51:46Z</time>
      </trkpt>
      <trkpt lat="44.6018110" lon="7.3587910">
        <ele>1039.8</ele>
        <time>2017-07-25T08:51:47Z</time>
      </trkpt>
      <trkpt lat="44.6018990" lon="7.3588010">
        <ele>1038.6</ele>
        <time>2017-07-25T08:51:48Z</time>
      </trkpt>
      <trkpt lat="44.6019750" lon="7.3588390">
        <ele>1037.6</ele>
        <time>2017-07-25T08:51:49Z</time>
      </trkpt>
      <trkpt lat="44.6020390" lon="7.3588990">
        <ele>1036.4</ele>
        <time>2017-07-25T08:51:50Z</time>
      </trkpt>
      <trkpt lat="44.6021030" lon="7.3589630">
        <ele>1035.0</ele>
        <time>2017-07-25T08:51:51Z</time>
      </trkpt>
      <trkpt lat="44.6021640" lon="7.3590280">
        <ele>1033.8</ele>
        <time>2017-07-25T08:51:52Z</time>
      </trkpt>
      <trkpt lat="44.6021960" lon="7.3591040">
        <ele>1032.6</ele>
        <time>2017-07-25T08:51:53Z</time>
      </trkpt>
      <trkpt lat="44.6022290" lon="7.3591540">
        <ele>1031.6</ele>
        <time>2017-07-25T08:51:54Z</time>
      </trkpt>
      <trkpt lat="44.6022770" lon="7.3591750">
        <ele>1030.8</ele>
        <time>2017-07-25T08:51:55Z</time>
      </trkpt>
      <trkpt lat="44.6023670" lon="7.3592280">
        <ele>1029.0</ele>
        <time>2017-07-25T08:51:57Z</time>
      </trkpt>
      <trkpt lat="44.6024260" lon="7.3592680">
        <ele>1028.2</ele>
        <time>2017-07-25T08:51:58Z</time>
      </trkpt>
      <trkpt lat="44.6024670" lon="7.3593090">
        <ele>1027.2</ele>
        <time>2017-07-25T08:51:59Z</time>
      </trkpt>
      <trkpt lat="44.6025180" lon="7.3593730">
        <ele>1026.2</ele>
        <time>2017-07-25T08:52:00Z</time>
      </trkpt>
      <trkpt lat="44.6025460" lon="7.3593950">
        <ele>1025.4</ele>
        <time>2017-07-25T08:52:01Z</time>
      </trkpt>
      <trkpt lat="44.6026020" lon="7.3594050">
        <ele>1024.4</ele>
        <time>2017-07-25T08:52:02Z</time>
      </trkpt>
      <trkpt lat="44.6026440" lon="7.3593940">
        <ele>1024.0</ele>
        <time>2017-07-25T08:52:03Z</time>
      </trkpt>
      <trkpt lat="44.6026970" lon="7.3593770">
        <ele>1023.0</ele>
        <time>2017-07-25T08:52:04Z</time>
      </trkpt>
      <trkpt lat="44.6028200" lon="7.3593550">
        <ele>1021.0</ele>
        <time>2017-07-25T08:52:06Z</time>
      </trkpt>
      <trkpt lat="44.6029210" lon="7.3593270">
        <ele>1019.2</ele>
        <time>2017-07-25T08:52:08Z</time>
      </trkpt>
      <trkpt lat="44.6029730" lon="7.3593270">
        <ele>1018.4</ele>
        <time>2017-07-25T08:52:09Z</time>
      </trkpt>
      <trkpt lat="44.6030330" lon="7.3593360">
        <ele>1017.6</ele>
        <time>2017-07-25T08:52:10Z</time>
      </trkpt>
      <trkpt lat="44.6030960" lon="7.3593500">
        <ele>1015.6</ele>
        <time>2017-07-25T08:52:11Z</time>
      </trkpt>
      <trkpt lat="44.6031880" lon="7.3594080">
        <ele>1014.6</ele>
        <time>2017-07-25T08:52:12Z</time>
      </trkpt>
      <trkpt lat="44.6032790" lon="7.3594670">
        <ele>1013.0</ele>
        <time>2017-07-25T08:52:14Z</time>
      </trkpt>
      <trkpt lat="44.6033520" lon="7.3595100">
        <ele>1012.2</ele>
        <time>2017-07-25T08:52:15Z</time>
      </trkpt>
      <trkpt lat="44.6034230" lon="7.3595470">
        <ele>1011.0</ele>
        <time>2017-07-25T08:52:16Z</time>
      </trkpt>
      <trkpt lat="44.6034870" lon="7.3596100">
        <ele>1009.8</ele>
        <time>2017-07-25T08:52:17Z</time>
      </trkpt>
      <trkpt lat="44.6036130" lon="7.3597320">
        <ele>1008.0</ele>
        <time>2017-07-25T08:52:19Z</time>
      </trkpt>
      <trkpt lat="44.6037630" lon="7.3598380">
        <ele>1005.8</ele>
        <time>2017-07-25T08:52:21Z</time>
      </trkpt>
      <trkpt lat="44.6039030" lon="7.3598910">
        <ele>1004.4</ele>
        <time>2017-07-25T08:52:23Z</time>
      </trkpt>
      <trkpt lat="44.6040040" lon="7.3598710">
        <ele>1002.2</ele>
        <time>2017-07-25T08:52:25Z</time>
      </trkpt>
      <trkpt lat="44.6040590" lon="7.3598660">
        <ele>1001.2</ele>
        <time>2017-07-25T08:52:26Z</time>
      </trkpt>
      <trkpt lat="44.6041070" lon="7.3598520">
        <ele>1000.2</ele>
        <time>2017-07-25T08:52:27Z</time>
      </trkpt>
      <trkpt lat="44.6041680" lon="7.3598300">
        <ele>999.2</ele>
        <time>2017-07-25T08:52:28Z</time>
      </trkpt>
      <trkpt lat="44.6042200" lon="7.3597990">
        <ele>998.0</ele>
        <time>2017-07-25T08:52:29Z</time>
      </trkpt>
      <trkpt lat="44.6042880" lon="7.3597900">
        <ele>996.8</ele>
        <time>2017-07-25T08:52:30Z</time>
      </trkpt>
      <trkpt lat="44.6043390" lon="7.3598070">
        <ele>995.4</ele>
        <time>2017-07-25T08:52:31Z</time>
      </trkpt>
      <trkpt lat="44.6043880" lon="7.3598350">
        <ele>994.2</ele>
        <time>2017-07-25T08:52:32Z</time>
      </trkpt>
      <trkpt lat="44.6044470" lon="7.3598530">
        <ele>993.0</ele>
        <time>2017-07-25T08:52:33Z</time>
      </trkpt>
      <trkpt lat="44.6044990" lon="7.3598520">
        <ele>992.0</ele>
        <time>2017-07-25T08:52:34Z</time>
      </trkpt>
      <trkpt lat="44.6045610" lon="7.3598550">
        <ele>989.6</ele>
        <time>2017-07-25T08:52:35Z</time>
      </trkpt>
      <trkpt lat="44.6046830" lon="7.3598400">
        <ele>987.4</ele>
        <time>2017-07-25T08:52:37Z</time>
      </trkpt>
      <trkpt lat="44.6047410" lon="7.3598140">
        <ele>986.4</ele>
        <time>2017-07-25T08:52:38Z</time>
      </trkpt>
      <trkpt lat="44.6048030" lon="7.3597930">
        <ele>985.0</ele>
        <time>2017-07-25T08:52:39Z</time>
      </trkpt>
      <trkpt lat="44.6049350" lon="7.3597580">
        <ele>982.8</ele>
        <time>2017-07-25T08:52:41Z</time>
      </trkpt>
      <trkpt lat="44.6049770" lon="7.3597860">
        <ele>982.0</ele>
        <time>2017-07-25T08:52:42Z</time>
      </trkpt>
      <trkpt lat="44.6050330" lon="7.3598170">
        <ele>980.8</ele>
        <time>2017-07-25T08:52:43Z</time>
      </trkpt>
      <trkpt lat="44.6050780" lon="7.3598230">
        <ele>979.8</ele>
        <time>2017-07-25T08:52:44Z</time>
      </trkpt>
      <trkpt lat="44.6051450" lon="7.3598360">
        <ele>978.2</ele>
        <time>2017-07-25T08:52:45Z</time>
      </trkpt>
      <trkpt lat="44.6052240" lon="7.3598290">
        <ele>977.2</ele>
        <time>2017-07-25T08:52:46Z</time>
      </trkpt>
      <trkpt lat="44.6053880" lon="7.3597970">
        <ele>975.0</ele>
        <time>2017-07-25T08:52:48Z</time>
      </trkpt>
      <trkpt lat="44.6054700" lon="7.3597770">
        <ele>974.0</ele>
        <time>2017-07-25T08:52:49Z</time>
      </trkpt>
      <trkpt lat="44.6055530" lon="7.3597670">
        <ele>972.6</ele>
        <time>2017-07-25T08:52:50Z</time>
      </trkpt>
      <trkpt lat="44.6056360" lon="7.3597660">
        <ele>971.6</ele>
        <time>2017-07-25T08:52:51Z</time>
      </trkpt>
      <trkpt lat="44.6057200" lon="7.3597660">
        <ele>970.6</ele>
        <time>2017-07-25T08:52:52Z</time>
      </trkpt>
      <trkpt lat="44.6058910" lon="7.3597750">
        <ele>968.8</ele>
        <time>2017-07-25T08:52:54Z</time>
      </trkpt>
      <trkpt lat="44.6059560" lon="7.3597820">
        <ele>967.6</ele>
        <time>2017-07-25T08:52:55Z</time>
      </trkpt>
      <trkpt lat="44.6060130" lon="7.3597880">
        <ele>966.6</ele>
        <time>2017-07-25T08:52:56Z</time>
      </trkpt>
      <trkpt lat="44.6061110" lon="7.3597760">
        <ele>964.8</ele>
        <time>2017-07-25T08:52:58Z</time>
      </trkpt>
      <trkpt lat="44.6061320" lon="7.3597620">
        <ele>962.6</ele>
        <time>2017-07-25T08:52:59Z</time>
      </trkpt>
      <trkpt lat="44.6061250" lon="7.3597130">
        <ele>961.4</ele>
        <time>2017-07-25T08:53:00Z</time>
      </trkpt>
      <trkpt lat="44.6060940" lon="7.3596010">
        <ele>959.6</ele>
        <time>2017-07-25T08:53:02Z</time>
      </trkpt>
      <trkpt lat="44.6060400" lon="7.3594940">
        <ele>958.4</ele>
        <time>2017-07-25T08:53:04Z</time>
      </trkpt>
      <trkpt lat="44.6059640" lon="7.3593980">
        <ele>957.0</ele>
        <time>2017-07-25T08:53:06Z</time>
      </trkpt>
      <trkpt lat="44.6059270" lon="7.3593530">
        <ele>956.2</ele>
        <time>2017-07-25T08:53:07Z</time>
      </trkpt>
      <trkpt lat="44.6058890" lon="7.3593110">
        <ele>955.8</ele>
        <time>2017-07-25T08:53:08Z</time>
      </trkpt>
      <trkpt lat="44.6058070" lon="7.3592280">
        <ele>955.0</ele>
        <time>2017-07-25T08:53:10Z</time>
      </trkpt>
      <trkpt lat="44.6057670" lon="7.3591860">
        <ele>954.6</ele>
        <time>2017-07-25T08:53:11Z</time>
      </trkpt>
      <trkpt lat="44.6056380" lon="7.3591450">
        <ele>953.6</ele>
        <time>2017-07-25T08:53:13Z</time>
      </trkpt>
      <trkpt lat="44.6055790" lon="7.3591310">
        <ele>953.4</ele>
        <time>2017-07-25T08:53:14Z</time>
      </trkpt>
      <trkpt lat="44.6054610" lon="7.3590880">
        <ele>953.0</ele>
        <time>2017-07-25T08:53:16Z</time>
      </trkpt>
      <trkpt lat="44.6053410" lon="7.3589920">
        <ele>952.4</ele>
        <time>2017-07-25T08:53:18Z</time>
      </trkpt>
      <trkpt lat="44.6052830" lon="7.3589290">
        <ele>952.2</ele>
        <time>2017-07-25T08:53:19Z</time>
      </trkpt>
      <trkpt lat="44.6052230" lon="7.3588620">
        <ele>951.8</ele>
        <time>2017-07-25T08:53:20Z</time>
      </trkpt>
      <trkpt lat="44.6051270" lon="7.3588170">
        <ele>951.8</ele>
        <time>2017-07-25T08:53:21Z</time>
      </trkpt>
      <trkpt lat="44.6049690" lon="7.3587140">
        <ele>950.8</ele>
        <time>2017-07-25T08:53:23Z</time>
      </trkpt>
      <trkpt lat="44.6048300" lon="7.3585740">
        <ele>949.6</ele>
        <time>2017-07-25T08:53:25Z</time>
      </trkpt>
      <trkpt lat="44.6046150" lon="7.3583940">
        <ele>948.6</ele>
        <time>2017-07-25T08:53:28Z</time>
      </trkpt>
      <trkpt lat="44.6044980" lon="7.3583420">
        <ele>947.4</ele>
        <time>2017-07-25T08:53:30Z</time>
      </trkpt>
      <trkpt lat="44.6043990" lon="7.3583440">
        <ele>947.0</ele>
        <time>2017-07-25T08:53:31Z</time>
      </trkpt>
      <trkpt lat="44.6043040" lon="7.3583330">
        <ele>946.4</ele>
        <time>2017-07-25T08:53:32Z</time>
      </trkpt>
      <trkpt lat="44.6040970" lon="7.3582830">
        <ele>945.0</ele>
        <time>2017-07-25T08:53:35Z</time>
      </trkpt>
      <trkpt lat="44.6040310" lon="7.3582620">
        <ele>944.8</ele>
        <time>2017-07-25T08:53:36Z</time>
      </trkpt>
      <trkpt lat="44.6039170" lon="7.3582150">
        <ele>944.0</ele>
        <time>2017-07-25T08:53:38Z</time>
      </trkpt>
      <trkpt lat="44.6038680" lon="7.3581890">
        <ele>943.6</ele>
        <time>2017-07-25T08:53:39Z</time>
      </trkpt>
      <trkpt lat="44.6038080" lon="7.3580920">
        <ele>943.2</ele>
        <time>2017-07-25T08:53:41Z</time>
      </trkpt>
      <trkpt lat="44.6037790" lon="7.3580320">
        <ele>942.8</ele>
        <time>2017-07-25T08:53:42Z</time>
      </trkpt>
      <trkpt lat="44.6037570" lon="7.3579530">
        <ele>942.2</ele>
        <time>2017-07-25T08:53:44Z</time>
      </trkpt>
      <trkpt lat="44.6037030" lon="7.3579030">
        <ele>941.6</ele>
        <time>2017-07-25T08:53:46Z</time>
      </trkpt>
      <trkpt lat="44.6035760" lon="7.3578440">
        <ele>940.8</ele>
        <time>2017-07-25T08:53:49Z</time>
      </trkpt>
      <trkpt lat="44.6035360" lon="7.3578160">
        <ele>939.8</ele>
        <time>2017-07-25T08:53:50Z</time>
      </trkpt>
      <trkpt lat="44.6034390" lon="7.3577430">
        <ele>938.6</ele>
        <time>2017-07-25T08:53:52Z</time>
      </trkpt>
      <trkpt lat="44.6033760" lon="7.3577220">
        <ele>938.4</ele>
        <time>2017-07-25T08:53:53Z</time>
      </trkpt>
      <trkpt lat="44.6032180" lon="7.3576530">
        <ele>937.4</ele>
        <time>2017-07-25T08:53:56Z</time>
      </trkpt>
      <trkpt lat="44.6031780" lon="7.3576190">
        <ele>937.0</ele>
        <time>2017-07-25T08:53:57Z</time>
      </trkpt>
      <trkpt lat="44.6031270" lon="7.3575090">
        <ele>936.6</ele>
        <time>2017-07-25T08:54:00Z</time>
      </trkpt>
      <trkpt lat="44.6031520" lon="7.3574750">
        <ele>936.2</ele>
        <time>2017-07-25T08:54:01Z</time>
      </trkpt>
      <trkpt lat="44.6032260" lon="7.3573840">
        <ele>935.4</ele>
        <time>2017-07-25T08:54:03Z</time>
      </trkpt>
      <trkpt lat="44.6032930" lon="7.3572840">
        <ele>935.0</ele>
        <time>2017-07-25T08:54:05Z</time>
      </trkpt>
      <trkpt lat="44.6033090" lon="7.3572320">
        <ele>933.4</ele>
        <time>2017-07-25T08:54:07Z</time>
      </trkpt>
      <trkpt lat="44.6033120" lon="7.3572060">
        <ele>932.6</ele>
        <time>2017-07-25T08:54:08Z</time>
      </trkpt>
      <trkpt lat="44.6033150" lon="7.3571570">
        <ele>932.0</ele>
        <time>2017-07-25T08:54:09Z</time>
      </trkpt>
      <trkpt lat="44.6033150" lon="7.3570280">
        <ele>929.4</ele>
        <time>2017-07-25T08:54:11Z</time>
      </trkpt>
      <trkpt lat="44.6033230" lon="7.3569660">
        <ele>928.2</ele>
        <time>2017-07-25T08:54:12Z</time>
      </trkpt>
      <trkpt lat="44.6033290" lon="7.3568920">
        <ele>927.0</ele>
        <time>2017-07-25T08:54:13Z</time>
      </trkpt>
      <trkpt lat="44.6033490" lon="7.3567800">
        <ele>925.2</ele>
        <time>2017-07-25T08:54:15Z</time>
      </trkpt>
      <trkpt lat="44.6033580" lon="7.3567120">
        <ele>924.2</ele>
        <time>2017-07-25T08:54:16Z</time>
      </trkpt>
      <trkpt lat="44.6033450" lon="7.3566590">
        <ele>923.0</ele>
        <time>2017-07-25T08:54:17Z</time>
      </trkpt>
      <trkpt lat="44.6033190" lon="7.3566190">
        <ele>921.4</ele>
        <time>2017-07-25T08:54:18Z</time>
      </trkpt>
      <trkpt lat="44.6032910" lon="7.3565920">
        <ele>920.4</ele>
        <time>2017-07-25T08:54:19Z</time>
      </trkpt>
      <trkpt lat="44.6032680" lon="7.3565670">
        <ele>919.4</ele>
        <time>2017-07-25T08:54:20Z</time>
      </trkpt>
      <trkpt lat="44.6032470" lon="7.3565210">
        <ele>917.2</ele>
        <time>2017-07-25T08:54:22Z</time>
      </trkpt>
      <trkpt lat="44.6032560" lon="7.3564900">
        <ele>915.6</ele>
        <time>2017-07-25T08:54:24Z</time>
      </trkpt>
      <trkpt lat="44.6032840" lon="7.3565010">
        <ele>914.2</ele>
        <time>2017-07-25T08:54:26Z</time>
      </trkpt>
      <trkpt lat="44.6033240" lon="7.3565090">
        <ele>912.8</ele>
        <time>2017-07-25T08:54:28Z</time>
      </trkpt>
      <trkpt lat="44.6033680" lon="7.3565150">
        <ele>911.2</ele>
        <time>2017-07-25T08:54:30Z</time>
      </trkpt>
      <trkpt lat="44.6033930" lon="7.3565120">
        <ele>910.4</ele>
        <time>2017-07-25T08:54:31Z</time>
      </trkpt>
      <trkpt lat="44.6034210" lon="7.3565140">
        <ele>909.6</ele>
        <time>2017-07-25T08:54:32Z</time>
      </trkpt>
      <trkpt lat="44.6034760" lon="7.3565270">
        <ele>907.8</ele>
        <time>2017-07-25T08:54:34Z</time>
      </trkpt>
      <trkpt lat="44.6035030" lon="7.3565370">
        <ele>906.2</ele>
        <time>2017-07-25T08:54:35Z</time>
      </trkpt>
      <trkpt lat="44.6035370" lon="7.3565540">
        <ele>905.4</ele>
        <time>2017-07-25T08:54:36Z</time>
      </trkpt>
      <trkpt lat="44.6035690" lon="7.3565640">
        <ele>904.4</ele>
        <time>2017-07-25T08:54:37Z</time>
      </trkpt>
      <trkpt lat="44.6036360" lon="7.3565800">
        <ele>903.0</ele>
        <time>2017-07-25T08:54:39Z</time>
      </trkpt>
      <trkpt lat="44.6036930" lon="7.3566150">
        <ele>901.2</ele>
        <time>2017-07-25T08:54:41Z</time>
      </trkpt>
      <trkpt lat="44.6037010" lon="7.3566830">
        <ele>900.2</ele>
        <time>2017-07-25T08:54:42Z</time>
      </trkpt>
      <trkpt lat="44.6037170" lon="7.3567550">
        <ele>898.8</ele>
        <time>2017-07-25T08:54:43Z</time>
      </trkpt>
      <trkpt lat="44.6037350" lon="7.3568210">
        <ele>897.8</ele>
        <time>2017-07-25T08:54:44Z</time>
      </trkpt>
      <trkpt lat="44.6037570" lon="7.3568760">
        <ele>896.8</ele>
        <time>2017-07-25T08:54:45Z</time>
      </trkpt>
      <trkpt lat="44.6037850" lon="7.3569190">
        <ele>896.0</ele>
        <time>2017-07-25T08:54:46Z</time>
      </trkpt>
      <trkpt lat="44.6038600" lon="7.3569830">
        <ele>894.4</ele>
        <time>2017-07-25T08:54:48Z</time>
      </trkpt>
      <trkpt lat="44.6039040" lon="7.3570110">
        <ele>893.4</ele>
        <time>2017-07-25T08:54:49Z</time>
      </trkpt>
      <trkpt lat="44.6039530" lon="7.3570200">
        <ele>892.8</ele>
        <time>2017-07-25T08:54:50Z</time>
      </trkpt>
      <trkpt lat="44.6040730" lon="7.3569950">
        <ele>892.2</ele>
        <time>2017-07-25T08:54:52Z</time>
      </trkpt>
      <trkpt lat="44.6041130" lon="7.3569920">
        <ele>891.8</ele>
        <time>2017-07-25T08:54:53Z</time>
      </trkpt>
      <trkpt lat="44.6041690" lon="7.3569680">
        <ele>891.6</ele>
        <time>2017-07-25T08:54:54Z</time>
      </trkpt>
      <trkpt lat="44.6042480" lon="7.3569730">
        <ele>891.2</ele>
        <time>2017-07-25T08:54:56Z</time>
      </trkpt>
      <trkpt lat="44.6042900" lon="7.3569670">
        <ele>890.8</ele>
        <time>2017-07-25T08:54:57Z</time>
      </trkpt>
      <trkpt lat="44.6043910" lon="7.3569550">
        <ele>890.4</ele>
        <time>2017-07-25T08:54:59Z</time>
      </trkpt>
      <trkpt lat="44.6045080" lon="7.3569640">
        <ele>889.6</ele>
        <time>2017-07-25T08:55:01Z</time>
      </trkpt>
      <trkpt lat="44.6045580" lon="7.3569670">
        <ele>889.6</ele>
        <time>2017-07-25T08:55:02Z</time>
      </trkpt>
      <trkpt lat="44.6046050" lon="7.3569410">
        <ele>889.4</ele>
        <time>2017-07-25T08:55:03Z</time>
      </trkpt>
      <trkpt lat="44.6047740" lon="7.3567790">
        <ele>888.8</ele>
        <time>2017-07-25T08:55:07Z</time>
      </trkpt>
      <trkpt lat="44.6048130" lon="7.3567720">
        <ele>888.8</ele>
        <time>2017-07-25T08:55:08Z</time>
      </trkpt>
      <trkpt lat="44.6049030" lon="7.3567990">
        <ele>888.6</ele>
        <time>2017-07-25T08:55:10Z</time>
      </trkpt>
      <trkpt lat="44.6049480" lon="7.3568250">
        <ele>888.6</ele>
        <time>2017-07-25T08:55:11Z</time>
      </trkpt>
      <trkpt lat="44.6052850" lon="7.3569720">
        <ele>887.4</ele>
        <time>2017-07-25T08:55:17Z</time>
      </trkpt>
      <trkpt lat="44.6054410" lon="7.3569690">
        <ele>887.0</ele>
        <time>2017-07-25T08:55:19Z</time>
      </trkpt>
      <trkpt lat="44.6055350" lon="7.3569300">
        <ele>886.8</ele>
        <time>2017-07-25T08:55:20Z</time>
      </trkpt>
      <trkpt lat="44.6057340" lon="7.3567210">
        <ele>886.2</ele>
        <time>2017-07-25T08:55:23Z</time>
      </trkpt>
      <trkpt lat="44.6059510" lon="7.3566580">
        <ele>884.8</ele>
        <time>2017-07-25T08:55:26Z</time>
      </trkpt>
      <trkpt lat="44.6060210" lon="7.3566660">
        <ele>884.8</ele>
        <time>2017-07-25T08:55:27Z</time>
      </trkpt>
      <trkpt lat="44.6062760" lon="7.3566900">
        <ele>883.4</ele>
        <time>2017-07-25T08:55:30Z</time>
      </trkpt>
      <trkpt lat="44.6064790" lon="7.3566550">
        <ele>882.4</ele>
        <time>2017-07-25T08:55:33Z</time>
      </trkpt>
      <trkpt lat="44.6065480" lon="7.3566350">
        <ele>881.6</ele>
        <time>2017-07-25T08:55:35Z</time>
      </trkpt>
      <trkpt lat="44.6065320" lon="7.3565740">
        <ele>881.2</ele>
        <time>2017-07-25T08:55:36Z</time>
      </trkpt>
      <trkpt lat="44.6064340" lon="7.3562690">
        <ele>880.2</ele>
        <time>2017-07-25T08:55:40Z</time>
      </trkpt>
      <trkpt lat="44.6064200" lon="7.3561650">
        <ele>880.2</ele>
        <time>2017-07-25T08:55:41Z</time>
      </trkpt>
      <trkpt lat="44.6063630" lon="7.3558390">
        <ele>880.4</ele>
        <time>2017-07-25T08:55:45Z</time>
      </trkpt>
      <trkpt lat="44.6063640" lon="7.3557640">
        <ele>880.4</ele>
        <time>2017-07-25T08:55:46Z</time>
      </trkpt>
      <trkpt lat="44.6063320" lon="7.3555840">
        <ele>881.0</ele>
        <time>2017-07-25T08:55:50Z</time>
      </trkpt>
      <trkpt lat="44.6063340" lon="7.3555720">
        <ele>881.4</ele>
        <time>2017-07-25T08:55:51Z</time>
      </trkpt>
      <trkpt lat="44.6063560" lon="7.3555760">
        <ele>882.4</ele>
        <time>2017-07-25T08:55:55Z</time>
      </trkpt>
      <trkpt lat="44.6063800" lon="7.3556130">
        <ele>883.6</ele>
        <time>2017-07-25T08:55:59Z</time>
      </trkpt>
      <trkpt lat="44.6064130" lon="7.3556450">
        <ele>884.4</ele>
        <time>2017-07-25T08:56:02Z</time>
      </trkpt>
      <trkpt lat="44.6064360" lon="7.3556640">
        <ele>884.8</ele>
        <time>2017-07-25T08:56:03Z</time>
      </trkpt>
      <trkpt lat="44.6065350" lon="7.3557520">
        <ele>885.0</ele>
        <time>2017-07-25T08:56:07Z</time>
      </trkpt>
      <trkpt lat="44.6068340" lon="7.3558770">
        <ele>884.4</ele>
        <time>2017-07-25T08:56:13Z</time>
      </trkpt>
      <trkpt lat="44.6070720" lon="7.3559800">
        <ele>883.2</ele>
        <time>2017-07-25T08:56:16Z</time>
      </trkpt>
      <trkpt lat="44.6071630" lon="7.3559970">
        <ele>882.6</ele>
        <time>2017-07-25T08:56:17Z</time>
      </trkpt>
      <trkpt lat="44.6072680" lon="7.3559830">
        <ele>882.2</ele>
        <time>2017-07-25T08:56:18Z</time>
      </trkpt>
      <trkpt lat="44.6074740" lon="7.3559180">
        <ele>880.4</ele>
        <time>2017-07-25T08:56:20Z</time>
      </trkpt>
      <trkpt lat="44.6075270" lon="7.3558730">
        <ele>879.6</ele>
        <time>2017-07-25T08:56:21Z</time>
      </trkpt>
      <trkpt lat="44.6075920" lon="7.3558030">
        <ele>878.8</ele>
        <time>2017-07-25T08:56:22Z</time>
      </trkpt>
      <trkpt lat="44.6077020" lon="7.3557200">
        <ele>877.4</ele>
        <time>2017-07-25T08:56:24Z</time>
      </trkpt>
      <trkpt lat="44.6078000" lon="7.3556520">
        <ele>875.2</ele>
        <time>2017-07-25T08:56:26Z</time>
      </trkpt>
      <trkpt lat="44.6078480" lon="7.3556220">
        <ele>874.2</ele>
        <time>2017-07-25T08:56:27Z</time>
      </trkpt>
      <trkpt lat="44.6079710" lon="7.3555740">
        <ele>872.0</ele>
        <time>2017-07-25T08:56:29Z</time>
      </trkpt>
      <trkpt lat="44.6080220" lon="7.3555790">
        <ele>871.0</ele>
        <time>2017-07-25T08:56:30Z</time>
      </trkpt>
      <trkpt lat="44.6080660" lon="7.3555740">
        <ele>870.0</ele>
        <time>2017-07-25T08:56:31Z</time>
      </trkpt>
      <trkpt lat="44.6081490" lon="7.3555460">
        <ele>868.8</ele>
        <time>2017-07-25T08:56:32Z</time>
      </trkpt>
      <trkpt lat="44.6082190" lon="7.3555240">
        <ele>867.4</ele>
        <time>2017-07-25T08:56:33Z</time>
      </trkpt>
      <trkpt lat="44.6083000" lon="7.3554960">
        <ele>866.0</ele>
        <time>2017-07-25T08:56:34Z</time>
      </trkpt>
      <trkpt lat="44.6083960" lon="7.3554650">
        <ele>864.6</ele>
        <time>2017-07-25T08:56:35Z</time>
      </trkpt>
      <trkpt lat="44.6084950" lon="7.3554260">
        <ele>861.6</ele>
        <time>2017-07-25T08:56:36Z</time>
      </trkpt>
      <trkpt lat="44.6085960" lon="7.3553850">
        <ele>860.2</ele>
        <time>2017-07-25T08:56:37Z</time>
      </trkpt>
      <trkpt lat="44.6086900" lon="7.3553920">
        <ele>859.0</ele>
        <time>2017-07-25T08:56:38Z</time>
      </trkpt>
      <trkpt lat="44.6087860" lon="7.3553770">
        <ele>857.6</ele>
        <time>2017-07-25T08:56:39Z</time>
      </trkpt>
      <trkpt lat="44.6088520" lon="7.3554010">
        <ele>856.2</ele>
        <time>2017-07-25T08:56:40Z</time>
      </trkpt>
      <trkpt lat="44.6089440" lon="7.3553870">
        <ele>854.6</ele>
        <time>2017-07-25T08:56:41Z</time>
      </trkpt>
      <trkpt lat="44.6090260" lon="7.3553510">
        <ele>853.4</ele>
        <time>2017-07-25T08:56:42Z</time>
      </trkpt>
      <trkpt lat="44.6090950" lon="7.3552930">
        <ele>852.4</ele>
        <time>2017-07-25T08:56:43Z</time>
      </trkpt>
      <trkpt lat="44.6091560" lon="7.3552240">
        <ele>851.4</ele>
        <time>2017-07-25T08:56:44Z</time>
      </trkpt>
      <trkpt lat="44.6092120" lon="7.3551510">
        <ele>850.2</ele>
        <time>2017-07-25T08:56:45Z</time>
      </trkpt>
      <trkpt lat="44.6092640" lon="7.3550770">
        <ele>849.2</ele>
        <time>2017-07-25T08:56:46Z</time>
      </trkpt>
      <trkpt lat="44.6093580" lon="7.3549300">
        <ele>847.6</ele>
        <time>2017-07-25T08:56:48Z</time>
      </trkpt>
      <trkpt lat="44.6094020" lon="7.3548530">
        <ele>846.6</ele>
        <time>2017-07-25T08:56:49Z</time>
      </trkpt>
      <trkpt lat="44.6094930" lon="7.3547140">
        <ele>845.2</ele>
        <time>2017-07-25T08:56:51Z</time>
      </trkpt>
      <trkpt lat="44.6095800" lon="7.3545870">
        <ele>843.8</ele>
        <time>2017-07-25T08:56:53Z</time>
      </trkpt>
      <trkpt lat="44.6096220" lon="7.3545460">
        <ele>843.4</ele>
        <time>2017-07-25T08:56:54Z</time>
      </trkpt>
      <trkpt lat="44.6097230" lon="7.3544780">
        <ele>843.0</ele>
        <time>2017-07-25T08:56:56Z</time>
      </trkpt>
      <trkpt lat="44.6097810" lon="7.3544560">
        <ele>842.6</ele>
        <time>2017-07-25T08:56:57Z</time>
      </trkpt>
      <trkpt lat="44.6098330" lon="7.3544450">
        <ele>842.6</ele>
        <time>2017-07-25T08:56:58Z</time>
      </trkpt>
      <trkpt lat="44.6098870" lon="7.3544270">
        <ele>842.4</ele>
        <time>2017-07-25T08:56:59Z</time>
      </trkpt>
      <trkpt lat="44.6099890" lon="7.3543220">
        <ele>841.6</ele>
        <time>2017-07-25T08:57:01Z</time>
      </trkpt>
      <trkpt lat="44.6100560" lon="7.3541370">
        <ele>841.4</ele>
        <time>2017-07-25T08:57:04Z</time>
      </trkpt>
      <trkpt lat="44.6101010" lon="7.3539000">
        <ele>841.4</ele>
        <time>2017-07-25T08:57:07Z</time>
      </trkpt>
      <trkpt lat="44.6100940" lon="7.3537190">
        <ele>841.4</ele>
        <time>2017-07-25T08:57:09Z</time>
      </trkpt>
      <trkpt lat="44.6100860" lon="7.3532810">
        <ele>841.4</ele>
        <time>2017-07-25T08:57:14Z</time>
      </trkpt>
      <trkpt lat="44.6100990" lon="7.3532200">
        <ele>841.6</ele>
        <time>2017-07-25T08:57:15Z</time>
      </trkpt>
      <trkpt lat="44.6101760" lon="7.3531740">
        <ele>841.8</ele>
        <time>2017-07-25T08:57:17Z</time>
      </trkpt>
      <trkpt lat="44.6103100" lon="7.3531190">
        <ele>840.6</ele>
        <time>2017-07-25T08:57:20Z</time>
      </trkpt>
      <trkpt lat="44.6103750" lon="7.3530670">
        <ele>840.0</ele>
        <time>2017-07-25T08:57:21Z</time>
      </trkpt>
      <trkpt lat="44.6104270" lon="7.3530120">
        <ele>839.8</ele>
        <time>2017-07-25T08:57:22Z</time>
      </trkpt>
      <trkpt lat="44.6105350" lon="7.3528820">
        <ele>838.8</ele>
        <time>2017-07-25T08:57:24Z</time>
      </trkpt>
      <trkpt lat="44.6106740" lon="7.3527660">
        <ele>837.8</ele>
        <time>2017-07-25T08:57:26Z</time>
      </trkpt>
      <trkpt lat="44.6107450" lon="7.3527120">
        <ele>837.2</ele>
        <time>2017-07-25T08:57:27Z</time>
      </trkpt>
      <trkpt lat="44.6108320" lon="7.3526600">
        <ele>836.6</ele>
        <time>2017-07-25T08:57:28Z</time>
      </trkpt>
      <trkpt lat="44.6110130" lon="7.3525820">
        <ele>835.8</ele>
        <time>2017-07-25T08:57:30Z</time>
      </trkpt>
      <trkpt lat="44.6110930" lon="7.3525420">
        <ele>835.4</ele>
        <time>2017-07-25T08:57:31Z</time>
      </trkpt>
      <trkpt lat="44.6113270" lon="7.3524130">
        <ele>834.0</ele>
        <time>2017-07-25T08:57:34Z</time>
      </trkpt>
      <trkpt lat="44.6114020" lon="7.3523920">
        <ele>833.6</ele>
        <time>2017-07-25T08:57:35Z</time>
      </trkpt>
      <trkpt lat="44.6115690" lon="7.3523560">
        <ele>832.6</ele>
        <time>2017-07-25T08:57:37Z</time>
      </trkpt>
      <trkpt lat="44.6117260" lon="7.3523370">
        <ele>831.6</ele>
        <time>2017-07-25T08:57:39Z</time>
      </trkpt>
      <trkpt lat="44.6118000" lon="7.3523330">
        <ele>831.2</ele>
        <time>2017-07-25T08:57:40Z</time>
      </trkpt>
      <trkpt lat="44.6118870" lon="7.3523120">
        <ele>830.6</ele>
        <time>2017-07-25T08:57:41Z</time>
      </trkpt>
      <trkpt lat="44.6120600" lon="7.3522260">
        <ele>829.0</ele>
        <time>2017-07-25T08:57:43Z</time>
      </trkpt>
      <trkpt lat="44.6121340" lon="7.3521640">
        <ele>828.0</ele>
        <time>2017-07-25T08:57:44Z</time>
      </trkpt>
      <trkpt lat="44.6122320" lon="7.3520410">
        <ele>826.2</ele>
        <time>2017-07-25T08:57:46Z</time>
      </trkpt>
      <trkpt lat="44.6122620" lon="7.3519800">
        <ele>824.2</ele>
        <time>2017-07-25T08:57:47Z</time>
      </trkpt>
      <trkpt lat="44.6122770" lon="7.3519110">
        <ele>822.4</ele>
        <time>2017-07-25T08:57:48Z</time>
      </trkpt>
      <trkpt lat="44.6122850" lon="7.3516830">
        <ele>821.4</ele>
        <time>2017-07-25T08:57:51Z</time>
      </trkpt>
      <trkpt lat="44.6123180" lon="7.3514880">
        <ele>821.2</ele>
        <time>2017-07-25T08:57:53Z</time>
      </trkpt>
      <trkpt lat="44.6122930" lon="7.3511880">
        <ele>819.8</ele>
        <time>2017-07-25T08:57:55Z</time>
      </trkpt>
      <trkpt lat="44.6122350" lon="7.3508360">
        <ele>818.4</ele>
        <time>2017-07-25T08:57:57Z</time>
      </trkpt>
      <trkpt lat="44.6122190" lon="7.3506640">
        <ele>818.0</ele>
        <time>2017-07-25T08:57:58Z</time>
      </trkpt>
      <trkpt lat="44.6122080" lon="7.3504930">
        <ele>817.0</ele>
        <time>2017-07-25T08:57:59Z</time>
      </trkpt>
      <trkpt lat="44.6122130" lon="7.3503400">
        <ele>816.2</ele>
        <time>2017-07-25T08:58:00Z</time>
      </trkpt>
      <trkpt lat="44.6122070" lon="7.3501880">
        <ele>815.0</ele>
        <time>2017-07-25T08:58:01Z</time>
      </trkpt>
      <trkpt lat="44.6121710" lon="7.3498990">
        <ele>813.2</ele>
        <time>2017-07-25T08:58:03Z</time>
      </trkpt>
      <trkpt lat="44.6121580" lon="7.3498050">
        <ele>812.8</ele>
        <time>2017-07-25T08:58:04Z</time>
      </trkpt>
      <trkpt lat="44.6121350" lon="7.3496980">
        <ele>811.8</ele>
        <time>2017-07-25T08:58:05Z</time>
      </trkpt>
      <trkpt lat="44.6120730" lon="7.3494660">
        <ele>810.4</ele>
        <time>2017-07-25T08:58:07Z</time>
      </trkpt>
      <trkpt lat="44.6120270" lon="7.3493520">
        <ele>809.6</ele>
        <time>2017-07-25T08:58:08Z</time>
      </trkpt>
      <trkpt lat="44.6119790" lon="7.3492410">
        <ele>808.8</ele>
        <time>2017-07-25T08:58:09Z</time>
      </trkpt>
      <trkpt lat="44.6118970" lon="7.3489920">
        <ele>807.0</ele>
        <time>2017-07-25T08:58:11Z</time>
      </trkpt>
      <trkpt lat="44.6118660" lon="7.3488940">
        <ele>805.2</ele>
        <time>2017-07-25T08:58:12Z</time>
      </trkpt>
      <trkpt lat="44.6118340" lon="7.3487920">
        <ele>804.0</ele>
        <time>2017-07-25T08:58:13Z</time>
      </trkpt>
      <trkpt lat="44.6118100" lon="7.3487060">
        <ele>803.0</ele>
        <time>2017-07-25T08:58:14Z</time>
      </trkpt>
      <trkpt lat="44.6117860" lon="7.3486360">
        <ele>801.8</ele>
        <time>2017-07-25T08:58:15Z</time>
      </trkpt>
      <trkpt lat="44.6117210" lon="7.3485890">
        <ele>800.8</ele>
        <time>2017-07-25T08:58:16Z</time>
      </trkpt>
      <trkpt lat="44.6116450" lon="7.3485360">
        <ele>799.4</ele>
        <time>2017-07-25T08:58:17Z</time>
      </trkpt>
      <trkpt lat="44.6115660" lon="7.3484760">
        <ele>798.2</ele>
        <time>2017-07-25T08:58:18Z</time>
      </trkpt>
      <trkpt lat="44.6114900" lon="7.3484090">
        <ele>797.0</ele>
        <time>2017-07-25T08:58:19Z</time>
      </trkpt>
      <trkpt lat="44.6114170" lon="7.3483500">
        <ele>795.6</ele>
        <time>2017-07-25T08:58:20Z</time>
      </trkpt>
      <trkpt lat="44.6113450" lon="7.3483050">
        <ele>794.4</ele>
        <time>2017-07-25T08:58:21Z</time>
      </trkpt>
      <trkpt lat="44.6112490" lon="7.3482900">
        <ele>793.0</ele>
        <time>2017-07-25T08:58:22Z</time>
      </trkpt>
      <trkpt lat="44.6111530" lon="7.3482980">
        <ele>791.8</ele>
        <time>2017-07-25T08:58:23Z</time>
      </trkpt>
      <trkpt lat="44.6110710" lon="7.3483250">
        <ele>790.4</ele>
        <time>2017-07-25T08:58:24Z</time>
      </trkpt>
      <trkpt lat="44.6109990" lon="7.3483540">
        <ele>789.2</ele>
        <time>2017-07-25T08:58:25Z</time>
      </trkpt>
      <trkpt lat="44.6109310" lon="7.3483490">
        <ele>788.0</ele>
        <time>2017-07-25T08:58:26Z</time>
      </trkpt>
      <trkpt lat="44.6108580" lon="7.3483250">
        <ele>787.0</ele>
        <time>2017-07-25T08:58:27Z</time>
      </trkpt>
      <trkpt lat="44.6107390" lon="7.3482390">
        <ele>785.2</ele>
        <time>2017-07-25T08:58:29Z</time>
      </trkpt>
      <trkpt lat="44.6106870" lon="7.3481800">
        <ele>784.4</ele>
        <time>2017-07-25T08:58:30Z</time>
      </trkpt>
      <trkpt lat="44.6106380" lon="7.3481170">
        <ele>783.4</ele>
        <time>2017-07-25T08:58:31Z</time>
      </trkpt>
      <trkpt lat="44.6105800" lon="7.3480550">
        <ele>782.8</ele>
        <time>2017-07-25T08:58:32Z</time>
      </trkpt>
      <trkpt lat="44.6105340" lon="7.3479970">
        <ele>782.2</ele>
        <time>2017-07-25T08:58:33Z</time>
      </trkpt>
      <trkpt lat="44.6104440" lon="7.3478920">
        <ele>780.8</ele>
        <time>2017-07-25T08:58:35Z</time>
      </trkpt>
      <trkpt lat="44.6103610" lon="7.3477810">
        <ele>780.0</ele>
        <time>2017-07-25T08:58:37Z</time>
      </trkpt>
      <trkpt lat="44.6103220" lon="7.3477230">
        <ele>779.8</ele>
        <time>2017-07-25T08:58:38Z</time>
      </trkpt>
      <trkpt lat="44.6102200" lon="7.3476100">
        <ele>779.6</ele>
        <time>2017-07-25T08:58:40Z</time>
      </trkpt>
      <trkpt lat="44.6101110" lon="7.3474930">
        <ele>779.6</ele>
        <time>2017-07-25T08:58:42Z</time>
      </trkpt>
      <trkpt lat="44.6100360" lon="7.3473750">
        <ele>779.8</ele>
        <time>2017-07-25T08:58:44Z</time>
      </trkpt>
      <trkpt lat="44.6099800" lon="7.3473400">
        <ele>780.0</ele>
        <time>2017-07-25T08:58:45Z</time>
      </trkpt>
      <trkpt lat="44.6099330" lon="7.3473060">
        <ele>780.0</ele>
        <time>2017-07-25T08:58:46Z</time>
      </trkpt>
      <trkpt lat="44.6099330" lon="7.3471830">
        <ele>780.2</ele>
        <time>2017-07-25T08:58:48Z</time>
      </trkpt>
      <trkpt lat="44.6099460" lon="7.3471520">
        <ele>780.2</ele>
        <time>2017-07-25T08:58:49Z</time>
      </trkpt>
      <trkpt lat="44.6099530" lon="7.3470840">
        <ele>779.8</ele>
        <time>2017-07-25T08:58:52Z</time>
      </trkpt>
      <trkpt lat="44.6099550" lon="7.3470710">
        <ele>779.8</ele>
        <time>2017-07-25T08:58:53Z</time>
      </trkpt>
      <trkpt lat="44.6099680" lon="7.3471140">
        <ele>778.4</ele>
        <time>2017-07-25T08:59:08Z</time>
      </trkpt>
      <trkpt lat="44.6099790" lon="7.3471130">
        <ele>778.2</ele>
        <time>2017-07-25T08:59:09Z</time>
      </trkpt>
      <trkpt lat="44.6100600" lon="7.3471030">
        <ele>777.8</ele>
        <time>2017-07-25T08:59:11Z</time>
      </trkpt>
      <trkpt lat="44.6101790" lon="7.3470770">
        <ele>777.6</ele>
        <time>2017-07-25T08:59:13Z</time>
      </trkpt>
      <trkpt lat="44.6102350" lon="7.3470840">
        <ele>777.2</ele>
        <time>2017-07-25T08:59:14Z</time>
      </trkpt>
      <trkpt lat="44.6103730" lon="7.3471070">
        <ele>776.4</ele>
        <time>2017-07-25T08:59:16Z</time>
      </trkpt>
      <trkpt lat="44.6104450" lon="7.3471160">
        <ele>776.0</ele>
        <time>2017-07-25T08:59:17Z</time>
      </trkpt>
      <trkpt lat="44.6106050" lon="7.3471380">
        <ele>775.2</ele>
        <time>2017-07-25T08:59:19Z</time>
      </trkpt>
      <trkpt lat="44.6106850" lon="7.3471700">
        <ele>774.8</ele>
        <time>2017-07-25T08:59:20Z</time>
      </trkpt>
      <trkpt lat="44.6108560" lon="7.3472670">
        <ele>773.4</ele>
        <time>2017-07-25T08:59:22Z</time>
      </trkpt>
      <trkpt lat="44.6109400" lon="7.3473070">
        <ele>772.4</ele>
        <time>2017-07-25T08:59:23Z</time>
      </trkpt>
      <trkpt lat="44.6110440" lon="7.3473460">
        <ele>770.6</ele>
        <time>2017-07-25T08:59:24Z</time>
      </trkpt>
      <trkpt lat="44.6112010" lon="7.3474070">
        <ele>768.8</ele>
        <time>2017-07-25T08:59:26Z</time>
      </trkpt>
      <trkpt lat="44.6113990" lon="7.3474940">
        <ele>767.0</ele>
        <time>2017-07-25T08:59:28Z</time>
      </trkpt>
      <trkpt lat="44.6114770" lon="7.3475580">
        <ele>766.2</ele>
        <time>2017-07-25T08:59:29Z</time>
      </trkpt>
      <trkpt lat="44.6115620" lon="7.3476290">
        <ele>764.8</ele>
        <time>2017-07-25T08:59:30Z</time>
      </trkpt>
      <trkpt lat="44.6116590" lon="7.3476840">
        <ele>763.8</ele>
        <time>2017-07-25T08:59:31Z</time>
      </trkpt>
      <trkpt lat="44.6117440" lon="7.3477120">
        <ele>762.6</ele>
        <time>2017-07-25T08:59:32Z</time>
      </trkpt>
      <trkpt lat="44.6118360" lon="7.3477310">
        <ele>761.6</ele>
        <time>2017-07-25T08:59:33Z</time>
      </trkpt>
      <trkpt lat="44.6119250" lon="7.3477640">
        <ele>760.4</ele>
        <time>2017-07-25T08:59:34Z</time>
      </trkpt>
      <trkpt lat="44.6120150" lon="7.3478280">
        <ele>759.0</ele>
        <time>2017-07-25T08:59:35Z</time>
      </trkpt>
      <trkpt lat="44.6121110" lon="7.3479010">
        <ele>757.6</ele>
        <time>2017-07-25T08:59:36Z</time>
      </trkpt>
      <trkpt lat="44.6122100" lon="7.3479720">
        <ele>756.4</ele>
        <time>2017-07-25T08:59:37Z</time>
      </trkpt>
      <trkpt lat="44.6123190" lon="7.3480610">
        <ele>755.0</ele>
        <time>2017-07-25T08:59:38Z</time>
      </trkpt>
      <trkpt lat="44.6124280" lon="7.3481650">
        <ele>753.6</ele>
        <time>2017-07-25T08:59:39Z</time>
      </trkpt>
      <trkpt lat="44.6125280" lon="7.3482770">
        <ele>752.0</ele>
        <time>2017-07-25T08:59:40Z</time>
      </trkpt>
      <trkpt lat="44.6126190" lon="7.3483730">
        <ele>750.6</ele>
        <time>2017-07-25T08:59:41Z</time>
      </trkpt>
      <trkpt lat="44.6127190" lon="7.3484490">
        <ele>749.4</ele>
        <time>2017-07-25T08:59:42Z</time>
      </trkpt>
      <trkpt lat="44.6128350" lon="7.3485020">
        <ele>748.0</ele>
        <time>2017-07-25T08:59:43Z</time>
      </trkpt>
      <trkpt lat="44.6129610" lon="7.3485380">
        <ele>746.4</ele>
        <time>2017-07-25T08:59:44Z</time>
      </trkpt>
      <trkpt lat="44.6130910" lon="7.3485670">
        <ele>745.0</ele>
        <time>2017-07-25T08:59:45Z</time>
      </trkpt>
      <trkpt lat="44.6132240" lon="7.3485930">
        <ele>743.6</ele>
        <time>2017-07-25T08:59:46Z</time>
      </trkpt>
      <trkpt lat="44.6133550" lon="7.3486240">
        <ele>742.4</ele>
        <time>2017-07-25T08:59:47Z</time>
      </trkpt>
      <trkpt lat="44.6134830" lon="7.3486640">
        <ele>739.4</ele>
        <time>2017-07-25T08:59:48Z</time>
      </trkpt>
      <trkpt lat="44.6136080" lon="7.3487140">
        <ele>737.6</ele>
        <time>2017-07-25T08:59:49Z</time>
      </trkpt>
      <trkpt lat="44.6137350" lon="7.3487660">
        <ele>736.0</ele>
        <time>2017-07-25T08:59:50Z</time>
      </trkpt>
      <trkpt lat="44.6138540" lon="7.3488170">
        <ele>734.2</ele>
        <time>2017-07-25T08:59:51Z</time>
      </trkpt>
      <trkpt lat="44.6139750" lon="7.3488940">
        <ele>732.2</ele>
        <time>2017-07-25T08:59:52Z</time>
      </trkpt>
      <trkpt lat="44.6141070" lon="7.3489900">
        <ele>730.4</ele>
        <time>2017-07-25T08:59:53Z</time>
      </trkpt>
      <trkpt lat="44.6142370" lon="7.3490910">
        <ele>728.4</ele>
        <time>2017-07-25T08:59:54Z</time>
      </trkpt>
      <trkpt lat="44.6143670" lon="7.3491870">
        <ele>726.6</ele>
        <time>2017-07-25T08:59:55Z</time>
      </trkpt>
      <trkpt lat="44.6144920" lon="7.3492750">
        <ele>724.6</ele>
        <time>2017-07-25T08:59:56Z</time>
      </trkpt>
      <trkpt lat="44.6146170" lon="7.3493860">
        <ele>722.8</ele>
        <time>2017-07-25T08:59:57Z</time>
      </trkpt>
      <trkpt lat="44.6147110" lon="7.3495130">
        <ele>720.6</ele>
        <time>2017-07-25T08:59:58Z</time>
      </trkpt>
      <trkpt lat="44.6148200" lon="7.3496590">
        <ele>718.8</ele>
        <time>2017-07-25T08:59:59Z</time>
      </trkpt>
      <trkpt lat="44.6149330" lon="7.3498120">
        <ele>717.0</ele>
        <time>2017-07-25T09:00:00Z</time>
      </trkpt>
      <trkpt lat="44.6150290" lon="7.3499610">
        <ele>715.4</ele>
        <time>2017-07-25T09:00:01Z</time>
      </trkpt>
      <trkpt lat="44.6151190" lon="7.3500940">
        <ele>713.4</ele>
        <time>2017-07-25T09:00:02Z</time>
      </trkpt>
      <trkpt lat="44.6152200" lon="7.3502070">
        <ele>711.6</ele>
        <time>2017-07-25T09:00:03Z</time>
      </trkpt>
      <trkpt lat="44.6153280" lon="7.3503180">
        <ele>710.0</ele>
        <time>2017-07-25T09:00:04Z</time>
      </trkpt>
      <trkpt lat="44.6154440" lon="7.3504300">
        <ele>708.4</ele>
        <time>2017-07-25T09:00:05Z</time>
      </trkpt>
      <trkpt lat="44.6155620" lon="7.3505330">
        <ele>706.8</ele>
        <time>2017-07-25T09:00:06Z</time>
      </trkpt>
      <trkpt lat="44.6156480" lon="7.3506140">
        <ele>705.2</ele>
        <time>2017-07-25T09:00:07Z</time>
      </trkpt>
      <trkpt lat="44.6157610" lon="7.3506780">
        <ele>703.4</ele>
        <time>2017-07-25T09:00:08Z</time>
      </trkpt>
      <trkpt lat="44.6158530" lon="7.3507220">
        <ele>702.0</ele>
        <time>2017-07-25T09:00:09Z</time>
      </trkpt>
      <trkpt lat="44.6159670" lon="7.3507210">
        <ele>700.4</ele>
        <time>2017-07-25T09:00:10Z</time>
      </trkpt>
      <trkpt lat="44.6160900" lon="7.3507140">
        <ele>698.8</ele>
        <time>2017-07-25T09:00:11Z</time>
      </trkpt>
      <trkpt lat="44.6162210" lon="7.3507050">
        <ele>695.6</ele>
        <time>2017-07-25T09:00:12Z</time>
      </trkpt>
      <trkpt lat="44.6163550" lon="7.3506890">
        <ele>693.8</ele>
        <time>2017-07-25T09:00:13Z</time>
      </trkpt>
      <trkpt lat="44.6164690" lon="7.3506790">
        <ele>692.2</ele>
        <time>2017-07-25T09:00:14Z</time>
      </trkpt>
      <trkpt lat="44.6165710" lon="7.3506810">
        <ele>690.2</ele>
        <time>2017-07-25T09:00:15Z</time>
      </trkpt>
      <trkpt lat="44.6166730" lon="7.3507090">
        <ele>688.2</ele>
        <time>2017-07-25T09:00:16Z</time>
      </trkpt>
      <trkpt lat="44.6167740" lon="7.3507450">
        <ele>686.2</ele>
        <time>2017-07-25T09:00:17Z</time>
      </trkpt>
      <trkpt lat="44.6168660" lon="7.3508120">
        <ele>684.2</ele>
        <time>2017-07-25T09:00:18Z</time>
      </trkpt>
      <trkpt lat="44.6169450" lon="7.3508830">
        <ele>682.4</ele>
        <time>2017-07-25T09:00:19Z</time>
      </trkpt>
      <trkpt lat="44.6170020" lon="7.3509340">
        <ele>680.6</ele>
        <time>2017-07-25T09:00:20Z</time>
      </trkpt>
      <trkpt lat="44.6170420" lon="7.3509750">
        <ele>678.8</ele>
        <time>2017-07-25T09:00:21Z</time>
      </trkpt>
      <trkpt lat="44.6170640" lon="7.3510090">
        <ele>677.0</ele>
        <time>2017-07-25T09:00:22Z</time>
      </trkpt>
      <trkpt lat="44.6170730" lon="7.3510460">
        <ele>675.6</ele>
        <time>2017-07-25T09:00:23Z</time>
      </trkpt>
      <trkpt lat="44.6170790" lon="7.3510690">
        <ele>674.2</ele>
        <time>2017-07-25T09:00:24Z</time>
      </trkpt>
      <trkpt lat="44.6170860" lon="7.3511930">
        <ele>664.0</ele>
        <time>2017-07-25T09:03:52Z</time>
      </trkpt>
      <trkpt lat="44.6171020" lon="7.3512110">
        <ele>663.8</ele>
        <time>2017-07-25T09:03:53Z</time>
      </trkpt>
      <trkpt lat="44.6171740" lon="7.3512630">
        <ele>663.4</ele>
        <time>2017-07-25T09:03:55Z</time>
      </trkpt>
      <trkpt lat="44.6172100" lon="7.3512730">
        <ele>663.2</ele>
        <time>2017-07-25T09:03:56Z</time>
      </trkpt>
      <trkpt lat="44.6172490" lon="7.3512780">
        <ele>663.0</ele>
        <time>2017-07-25T09:03:57Z</time>
      </trkpt>
      <trkpt lat="44.6172910" lon="7.3512840">
        <ele>662.6</ele>
        <time>2017-07-25T09:03:58Z</time>
      </trkpt>
      <trkpt lat="44.6173280" lon="7.3513000">
        <ele>662.2</ele>
        <time>2017-07-25T09:03:59Z</time>
      </trkpt>
      <trkpt lat="44.6173650" lon="7.3513210">
        <ele>661.8</ele>
        <time>2017-07-25T09:04:00Z</time>
      </trkpt>
      <trkpt lat="44.6173830" lon="7.3513460">
        <ele>661.4</ele>
        <time>2017-07-25T09:04:01Z</time>
      </trkpt>
      <trkpt lat="44.6173610" lon="7.3514450">
        <ele>660.8</ele>
        <time>2017-07-25T09:04:03Z</time>
      </trkpt>
      <trkpt lat="44.6172490" lon="7.3515570">
        <ele>659.6</ele>
        <time>2017-07-25T09:04:05Z</time>
      </trkpt>
      <trkpt lat="44.6172610" lon="7.3516350">
        <ele>658.8</ele>
        <time>2017-07-25T09:04:06Z</time>
      </trkpt>
      <trkpt lat="44.6172940" lon="7.3517070">
        <ele>658.2</ele>
        <time>2017-07-25T09:04:07Z</time>
      </trkpt>
      <trkpt lat="44.6173820" lon="7.3518370">
        <ele>656.6</ele>
        <time>2017-07-25T09:04:09Z</time>
      </trkpt>
      <trkpt lat="44.6174570" lon="7.3519000">
        <ele>655.8</ele>
        <time>2017-07-25T09:04:10Z</time>
      </trkpt>
      <trkpt lat="44.6175330" lon="7.3519580">
        <ele>655.0</ele>
        <time>2017-07-25T09:04:11Z</time>
      </trkpt>
      <trkpt lat="44.6176360" lon="7.3520380">
        <ele>653.2</ele>
        <time>2017-07-25T09:04:12Z</time>
      </trkpt>
      <trkpt lat="44.6177440" lon="7.3521200">
        <ele>652.2</ele>
        <time>2017-07-25T09:04:13Z</time>
      </trkpt>
      <trkpt lat="44.6178390" lon="7.3522020">
        <ele>651.2</ele>
        <time>2017-07-25T09:04:14Z</time>
      </trkpt>
      <trkpt lat="44.6179370" lon="7.3522910">
        <ele>650.0</ele>
        <time>2017-07-25T09:04:15Z</time>
      </trkpt>
      <trkpt lat="44.6181320" lon="7.3524830">
        <ele>648.4</ele>
        <time>2017-07-25T09:04:17Z</time>
      </trkpt>
      <trkpt lat="44.6182570" lon="7.3525960">
        <ele>647.0</ele>
        <time>2017-07-25T09:04:18Z</time>
      </trkpt>
      <trkpt lat="44.6183500" lon="7.3527100">
        <ele>645.8</ele>
        <time>2017-07-25T09:04:19Z</time>
      </trkpt>
      <trkpt lat="44.6184420" lon="7.3528390">
        <ele>644.4</ele>
        <time>2017-07-25T09:04:20Z</time>
      </trkpt>
      <trkpt lat="44.6186650" lon="7.3531180">
        <ele>642.8</ele>
        <time>2017-07-25T09:04:22Z</time>
      </trkpt>
      <trkpt lat="44.6187760" lon="7.3532450">
        <ele>642.2</ele>
        <time>2017-07-25T09:04:23Z</time>
      </trkpt>
      <trkpt lat="44.6189050" lon="7.3533640">
        <ele>641.0</ele>
        <time>2017-07-25T09:04:24Z</time>
      </trkpt>
      <trkpt lat="44.6191330" lon="7.3536120">
        <ele>639.6</ele>
        <time>2017-07-25T09:04:26Z</time>
      </trkpt>
      <trkpt lat="44.6192370" lon="7.3537430">
        <ele>638.6</ele>
        <time>2017-07-25T09:04:27Z</time>
      </trkpt>
      <trkpt lat="44.6193480" lon="7.3538770">
        <ele>637.4</ele>
        <time>2017-07-25T09:04:28Z</time>
      </trkpt>
      <trkpt lat="44.6194670" lon="7.3540000">
        <ele>636.4</ele>
        <time>2017-07-25T09:04:29Z</time>
      </trkpt>
      <trkpt lat="44.6195710" lon="7.3541180">
        <ele>635.4</ele>
        <time>2017-07-25T09:04:30Z</time>
      </trkpt>
      <trkpt lat="44.6196760" lon="7.3542440">
        <ele>634.2</ele>
        <time>2017-07-25T09:04:31Z</time>
      </trkpt>
      <trkpt lat="44.6198070" lon="7.3543640">
        <ele>632.4</ele>
        <time>2017-07-25T09:04:32Z</time>
      </trkpt>
      <trkpt lat="44.6199650" lon="7.3544990">
        <ele>630.8</ele>
        <time>2017-07-25T09:04:33Z</time>
      </trkpt>
      <trkpt lat="44.6201240" lon="7.3546320">
        <ele>629.6</ele>
        <time>2017-07-25T09:04:34Z</time>
      </trkpt>
      <trkpt lat="44.6202400" lon="7.3547780">
        <ele>628.4</ele>
        <time>2017-07-25T09:04:35Z</time>
      </trkpt>
      <trkpt lat="44.6204070" lon="7.3549280">
        <ele>625.2</ele>
        <time>2017-07-25T09:04:36Z</time>
      </trkpt>
      <trkpt lat="44.6205660" lon="7.3550760">
        <ele>623.6</ele>
        <time>2017-07-25T09:04:37Z</time>
      </trkpt>
      <trkpt lat="44.6207100" lon="7.3552280">
        <ele>621.6</ele>
        <time>2017-07-25T09:04:38Z</time>
      </trkpt>
      <trkpt lat="44.6208350" lon="7.3553680">
        <ele>620.0</ele>
        <time>2017-07-25T09:04:39Z</time>
      </trkpt>
      <trkpt lat="44.6209420" lon="7.3555010">
        <ele>618.4</ele>
        <time>2017-07-25T09:04:40Z</time>
      </trkpt>
      <trkpt lat="44.6210210" lon="7.3556110">
        <ele>616.8</ele>
        <time>2017-07-25T09:04:41Z</time>
      </trkpt>
      <trkpt lat="44.6211290" lon="7.3557300">
        <ele>615.0</ele>
        <time>2017-07-25T09:04:42Z</time>
      </trkpt>
      <trkpt lat="44.6212360" lon="7.3558400">
        <ele>613.4</ele>
        <time>2017-07-25T09:04:43Z</time>
      </trkpt>
      <trkpt lat="44.6213660" lon="7.3559170">
        <ele>611.8</ele>
        <time>2017-07-25T09:04:44Z</time>
      </trkpt>
      <trkpt lat="44.6215100" lon="7.3559710">
        <ele>610.2</ele>
        <time>2017-07-25T09:04:45Z</time>
      </trkpt>
      <trkpt lat="44.6216580" lon="7.3560190">
        <ele>608.8</ele>
        <time>2017-07-25T09:04:46Z</time>
      </trkpt>
      <trkpt lat="44.6218080" lon="7.3560640">
        <ele>607.2</ele>
        <time>2017-07-25T09:04:47Z</time>
      </trkpt>
      <trkpt lat="44.6219510" lon="7.3561120">
        <ele>605.6</ele>
        <time>2017-07-25T09:04:48Z</time>
      </trkpt>
      <trkpt lat="44.6220970" lon="7.3561590">
        <ele>604.2</ele>
        <time>2017-07-25T09:04:49Z</time>
      </trkpt>
      <trkpt lat="44.6222460" lon="7.3562120">
        <ele>602.6</ele>
        <time>2017-07-25T09:04:50Z</time>
      </trkpt>
      <trkpt lat="44.6223780" lon="7.3562840">
        <ele>601.2</ele>
        <time>2017-07-25T09:04:51Z</time>
      </trkpt>
      <trkpt lat="44.6225190" lon="7.3563820">
        <ele>599.6</ele>
        <time>2017-07-25T09:04:52Z</time>
      </trkpt>
      <trkpt lat="44.6226530" lon="7.3564690">
        <ele>598.2</ele>
        <time>2017-07-25T09:04:53Z</time>
      </trkpt>
      <trkpt lat="44.6227930" lon="7.3565640">
        <ele>596.4</ele>
        <time>2017-07-25T09:04:54Z</time>
      </trkpt>
      <trkpt lat="44.6229120" lon="7.3566640">
        <ele>595.0</ele>
        <time>2017-07-25T09:04:55Z</time>
      </trkpt>
      <trkpt lat="44.6230020" lon="7.3567700">
        <ele>593.2</ele>
        <time>2017-07-25T09:04:56Z</time>
      </trkpt>
      <trkpt lat="44.6230640" lon="7.3568940">
        <ele>591.6</ele>
        <time>2017-07-25T09:04:57Z</time>
      </trkpt>
      <trkpt lat="44.6231120" lon="7.3570320">
        <ele>589.8</ele>
        <time>2017-07-25T09:04:58Z</time>
      </trkpt>
      <trkpt lat="44.6231430" lon="7.3571720">
        <ele>588.2</ele>
        <time>2017-07-25T09:04:59Z</time>
      </trkpt>
      <trkpt lat="44.6231990" lon="7.3573050">
        <ele>585.2</ele>
        <time>2017-07-25T09:05:00Z</time>
      </trkpt>
      <trkpt lat="44.6232640" lon="7.3574040">
        <ele>583.8</ele>
        <time>2017-07-25T09:05:01Z</time>
      </trkpt>
      <trkpt lat="44.6233290" lon="7.3574660">
        <ele>582.2</ele>
        <time>2017-07-25T09:05:02Z</time>
      </trkpt>
      <trkpt lat="44.6234020" lon="7.3574900">
        <ele>580.8</ele>
        <time>2017-07-25T09:05:03Z</time>
      </trkpt>
      <trkpt lat="44.6235070" lon="7.3574680">
        <ele>579.4</ele>
        <time>2017-07-25T09:05:04Z</time>
      </trkpt>
      <trkpt lat="44.6236080" lon="7.3574340">
        <ele>578.2</ele>
        <time>2017-07-25T09:05:05Z</time>
      </trkpt>
      <trkpt lat="44.6236850" lon="7.3574230">
        <ele>577.0</ele>
        <time>2017-07-25T09:05:06Z</time>
      </trkpt>
      <trkpt lat="44.6237970" lon="7.3574180">
        <ele>575.6</ele>
        <time>2017-07-25T09:05:07Z</time>
      </trkpt>
      <trkpt lat="44.6239150" lon="7.3574440">
        <ele>574.2</ele>
        <time>2017-07-25T09:05:08Z</time>
      </trkpt>
      <trkpt lat="44.6240180" lon="7.3575170">
        <ele>572.6</ele>
        <time>2017-07-25T09:05:09Z</time>
      </trkpt>
      <trkpt lat="44.6241120" lon="7.3576090">
        <ele>571.2</ele>
        <time>2017-07-25T09:05:10Z</time>
      </trkpt>
      <trkpt lat="44.6241700" lon="7.3577300">
        <ele>570.0</ele>
        <time>2017-07-25T09:05:11Z</time>
      </trkpt>
      <trkpt lat="44.6242160" lon="7.3578580">
        <ele>569.2</ele>
        <time>2017-07-25T09:05:12Z</time>
      </trkpt>
      <trkpt lat="44.6242680" lon="7.3579880">
        <ele>567.8</ele>
        <time>2017-07-25T09:05:13Z</time>
      </trkpt>
      <trkpt lat="44.6243190" lon="7.3581210">
        <ele>566.6</ele>
        <time>2017-07-25T09:05:14Z</time>
      </trkpt>
      <trkpt lat="44.6243760" lon="7.3582530">
        <ele>565.2</ele>
        <time>2017-07-25T09:05:15Z</time>
      </trkpt>
      <trkpt lat="44.6244380" lon="7.3583820">
        <ele>564.0</ele>
        <time>2017-07-25T09:05:16Z</time>
      </trkpt>
      <trkpt lat="44.6244960" lon="7.3585070">
        <ele>562.6</ele>
        <time>2017-07-25T09:05:17Z</time>
      </trkpt>
      <trkpt lat="44.6245700" lon="7.3586220">
        <ele>561.4</ele>
        <time>2017-07-25T09:05:18Z</time>
      </trkpt>
      <trkpt lat="44.6246540" lon="7.3587270">
        <ele>560.4</ele>
        <time>2017-07-25T09:05:19Z</time>
      </trkpt>
      <trkpt lat="44.6247440" lon="7.3588200">
        <ele>559.4</ele>
        <time>2017-07-25T09:05:20Z</time>
      </trkpt>
      <trkpt lat="44.6248370" lon="7.3589000">
        <ele>558.2</ele>
        <time>2017-07-25T09:05:21Z</time>
      </trkpt>
      <trkpt lat="44.6249380" lon="7.3589730">
        <ele>557.2</ele>
        <time>2017-07-25T09:05:22Z</time>
      </trkpt>
      <trkpt lat="44.6250410" lon="7.3590420">
        <ele>556.0</ele>
        <time>2017-07-25T09:05:23Z</time>
      </trkpt>
      <trkpt lat="44.6251360" lon="7.3591110">
        <ele>553.4</ele>
        <time>2017-07-25T09:05:24Z</time>
      </trkpt>
      <trkpt lat="44.6252120" lon="7.3591920">
        <ele>552.2</ele>
        <time>2017-07-25T09:05:25Z</time>
      </trkpt>
      <trkpt lat="44.6252730" lon="7.3593050">
        <ele>551.0</ele>
        <time>2017-07-25T09:05:26Z</time>
      </trkpt>
      <trkpt lat="44.6253020" lon="7.3594500">
        <ele>549.8</ele>
        <time>2017-07-25T09:05:27Z</time>
      </trkpt>
      <trkpt lat="44.6253190" lon="7.3596050">
        <ele>548.4</ele>
        <time>2017-07-25T09:05:28Z</time>
      </trkpt>
      <trkpt lat="44.6253460" lon="7.3597550">
        <ele>547.4</ele>
        <time>2017-07-25T09:05:29Z</time>
      </trkpt>
      <trkpt lat="44.6253840" lon="7.3599060">
        <ele>546.2</ele>
        <time>2017-07-25T09:05:30Z</time>
      </trkpt>
      <trkpt lat="44.6254180" lon="7.3600600">
        <ele>545.0</ele>
        <time>2017-07-25T09:05:31Z</time>
      </trkpt>
      <trkpt lat="44.6254420" lon="7.3602240">
        <ele>543.8</ele>
        <time>2017-07-25T09:05:32Z</time>
      </trkpt>
      <trkpt lat="44.6254490" lon="7.3603930">
        <ele>542.4</ele>
        <time>2017-07-25T09:05:33Z</time>
      </trkpt>
      <trkpt lat="44.6254480" lon="7.3605640">
        <ele>541.2</ele>
        <time>2017-07-25T09:05:34Z</time>
      </trkpt>
      <trkpt lat="44.6254570" lon="7.3607290">
        <ele>540.0</ele>
        <time>2017-07-25T09:05:35Z</time>
      </trkpt>
      <trkpt lat="44.6254760" lon="7.3608820">
        <ele>538.8</ele>
        <time>2017-07-25T09:05:36Z</time>
      </trkpt>
      <trkpt lat="44.6254690" lon="7.3610040">
        <ele>537.4</ele>
        <time>2017-07-25T09:05:37Z</time>
      </trkpt>
      <trkpt lat="44.6254910" lon="7.3611090">
        <ele>536.2</ele>
        <time>2017-07-25T09:05:38Z</time>
      </trkpt>
      <trkpt lat="44.6255310" lon="7.3611920">
        <ele>535.0</ele>
        <time>2017-07-25T09:05:39Z</time>
      </trkpt>
      <trkpt lat="44.6255890" lon="7.3612700">
        <ele>533.8</ele>
        <time>2017-07-25T09:05:40Z</time>
      </trkpt>
      <trkpt lat="44.6256500" lon="7.3613570">
        <ele>532.6</ele>
        <time>2017-07-25T09:05:41Z</time>
      </trkpt>
      <trkpt lat="44.6256960" lon="7.3614480">
        <ele>531.4</ele>
        <time>2017-07-25T09:05:42Z</time>
      </trkpt>
      <trkpt lat="44.6257440" lon="7.3615520">
        <ele>530.2</ele>
        <time>2017-07-25T09:05:43Z</time>
      </trkpt>
      <trkpt lat="44.6258090" lon="7.3616590">
        <ele>528.8</ele>
        <time>2017-07-25T09:05:44Z</time>
      </trkpt>
      <trkpt lat="44.6258780" lon="7.3617670">
        <ele>527.4</ele>
        <time>2017-07-25T09:05:45Z</time>
      </trkpt>
      <trkpt lat="44.6259270" lon="7.3618690">
        <ele>526.2</ele>
        <time>2017-07-25T09:05:46Z</time>
      </trkpt>
      <trkpt lat="44.6259570" lon="7.3619740">
        <ele>525.2</ele>
        <time>2017-07-25T09:05:47Z</time>
      </trkpt>
      <trkpt lat="44.6260010" lon="7.3620980">
        <ele>523.2</ele>
        <time>2017-07-25T09:05:48Z</time>
      </trkpt>
      <trkpt lat="44.6260170" lon="7.3622000">
        <ele>522.0</ele>
        <time>2017-07-25T09:05:49Z</time>
      </trkpt>
      <trkpt lat="44.6260430" lon="7.3622660">
        <ele>521.0</ele>
        <time>2017-07-25T09:05:50Z</time>
      </trkpt>
      <trkpt lat="44.6261000" lon="7.3623040">
        <ele>520.0</ele>
        <time>2017-07-25T09:05:51Z</time>
      </trkpt>
      <trkpt lat="44.6261730" lon="7.3623240">
        <ele>519.2</ele>
        <time>2017-07-25T09:05:52Z</time>
      </trkpt>
      <trkpt lat="44.6262520" lon="7.3623390">
        <ele>518.2</ele>
        <time>2017-07-25T09:05:53Z</time>
      </trkpt>
      <trkpt lat="44.6264040" lon="7.3623700">
        <ele>516.2</ele>
        <time>2017-07-25T09:05:55Z</time>
      </trkpt>
      <trkpt lat="44.6265310" lon="7.3624020">
        <ele>514.6</ele>
        <time>2017-07-25T09:05:57Z</time>
      </trkpt>
      <trkpt lat="44.6266650" lon="7.3624370">
        <ele>513.0</ele>
        <time>2017-07-25T09:05:59Z</time>
      </trkpt>
      <trkpt lat="44.6268110" lon="7.3624770">
        <ele>511.4</ele>
        <time>2017-07-25T09:06:01Z</time>
      </trkpt>
      <trkpt lat="44.6269930" lon="7.3625200">
        <ele>509.8</ele>
        <time>2017-07-25T09:06:03Z</time>
      </trkpt>
      <trkpt lat="44.6271840" lon="7.3625980">
        <ele>508.4</ele>
        <time>2017-07-25T09:06:05Z</time>
      </trkpt>
      <trkpt lat="44.6272680" lon="7.3626330">
        <ele>507.2</ele>
        <time>2017-07-25T09:06:06Z</time>
      </trkpt>
      <trkpt lat="44.6273430" lon="7.3626550">
        <ele>506.0</ele>
        <time>2017-07-25T09:06:07Z</time>
      </trkpt>
      <trkpt lat="44.6274590" lon="7.3626220">
        <ele>504.4</ele>
        <time>2017-07-25T09:06:09Z</time>
      </trkpt>
      <trkpt lat="44.6274960" lon="7.3625750">
        <ele>503.8</ele>
        <time>2017-07-25T09:06:10Z</time>
      </trkpt>
      <trkpt lat="44.6275230" lon="7.3625220">
        <ele>503.2</ele>
        <time>2017-07-25T09:06:11Z</time>
      </trkpt>
      <trkpt lat="44.6275490" lon="7.3624480">
        <ele>502.2</ele>
        <time>2017-07-25T09:06:12Z</time>
      </trkpt>
      <trkpt lat="44.6275700" lon="7.3623740">
        <ele>501.6</ele>
        <time>2017-07-25T09:06:13Z</time>
      </trkpt>
      <trkpt lat="44.6275680" lon="7.3622880">
        <ele>501.4</ele>
        <time>2017-07-25T09:06:14Z</time>
      </trkpt>
      <trkpt lat="44.6275660" lon="7.3622010">
        <ele>501.0</ele>
        <time>2017-07-25T09:06:15Z</time>
      </trkpt>
      <trkpt lat="44.6275870" lon="7.3620370">
        <ele>500.6</ele>
        <time>2017-07-25T09:06:17Z</time>
      </trkpt>
      <trkpt lat="44.6276270" lon="7.3617810">
        <ele>500.6</ele>
        <time>2017-07-25T09:06:20Z</time>
      </trkpt>
      <trkpt lat="44.6276600" lon="7.3615310">
        <ele>501.0</ele>
        <time>2017-07-25T09:06:23Z</time>
      </trkpt>
      <trkpt lat="44.6276560" lon="7.3613680">
        <ele>501.0</ele>
        <time>2017-07-25T09:06:25Z</time>
      </trkpt>
      <trkpt lat="44.6278570" lon="7.3609400">
        <ele>501.6</ele>
        <time>2017-07-25T09:06:31Z</time>
      </trkpt>
      <trkpt lat="44.6278960" lon="7.3608660">
        <ele>501.8</ele>
        <time>2017-07-25T09:06:32Z</time>
      </trkpt>
      <trkpt lat="44.6279650" lon="7.3607370">
        <ele>501.8</ele>
        <time>2017-07-25T09:06:34Z</time>
      </trkpt>
      <trkpt lat="44.6281110" lon="7.3603930">
        <ele>502.0</ele>
        <time>2017-07-25T09:06:39Z</time>
      </trkpt>
      <trkpt lat="44.6281480" lon="7.3603260">
        <ele>502.0</ele>
        <time>2017-07-25T09:06:40Z</time>
      </trkpt>
      <trkpt lat="44.6282150" lon="7.3601920">
        <ele>502.0</ele>
        <time>2017-07-25T09:06:42Z</time>
      </trkpt>
      <trkpt lat="44.6283140" lon="7.3600690">
        <ele>502.0</ele>
        <time>2017-07-25T09:06:44Z</time>
      </trkpt>
      <trkpt lat="44.6283410" lon="7.3597830">
        <ele>501.6</ele>
        <time>2017-07-25T09:06:47Z</time>
      </trkpt>
      <trkpt lat="44.6283110" lon="7.3595770">
        <ele>501.4</ele>
        <time>2017-07-25T09:06:49Z</time>
      </trkpt>
      <trkpt lat="44.6282920" lon="7.3593740">
        <ele>501.2</ele>
        <time>2017-07-25T09:06:51Z</time>
      </trkpt>
      <trkpt lat="44.6282830" lon="7.3592740">
        <ele>500.8</ele>
        <time>2017-07-25T09:06:52Z</time>
      </trkpt>
      <trkpt lat="44.6282180" lon="7.3584630">
        <ele>499.8</ele>
        <time>2017-07-25T09:07:00Z</time>
      </trkpt>
      <trkpt lat="44.6282090" lon="7.3583620">
        <ele>499.8</ele>
        <time>2017-07-25T09:07:01Z</time>
      </trkpt>
      <trkpt lat="44.6281360" lon="7.3575670">
        <ele>499.4</ele>
        <time>2017-07-25T09:07:09Z</time>
      </trkpt>
      <trkpt lat="44.6281190" lon="7.3573700">
        <ele>499.4</ele>
        <time>2017-07-25T09:07:11Z</time>
      </trkpt>
      <trkpt lat="44.6280350" lon="7.3565740">
        <ele>499.8</ele>
        <time>2017-07-25T09:07:19Z</time>
      </trkpt>
      <trkpt lat="44.6280140" lon="7.3563580">
        <ele>499.6</ele>
        <time>2017-07-25T09:07:21Z</time>
      </trkpt>
      <trkpt lat="44.6279420" lon="7.3555640">
        <ele>499.8</ele>
        <time>2017-07-25T09:07:28Z</time>
      </trkpt>
      <trkpt lat="44.6279170" lon="7.3553170">
        <ele>499.8</ele>
        <time>2017-07-25T09:07:30Z</time>
      </trkpt>
      <trkpt lat="44.6278780" lon="7.3545300">
        <ele>500.0</ele>
        <time>2017-07-25T09:07:36Z</time>
      </trkpt>
      <trkpt lat="44.6278780" lon="7.3543930">
        <ele>500.0</ele>
        <time>2017-07-25T09:07:37Z</time>
      </trkpt>
      <trkpt lat="44.6279170" lon="7.3538220">
        <ele>500.0</ele>
        <time>2017-07-25T09:07:41Z</time>
      </trkpt>
      <trkpt lat="44.6279390" lon="7.3536770">
        <ele>500.0</ele>
        <time>2017-07-25T09:07:42Z</time>
      </trkpt>
      <trkpt lat="44.6281040" lon="7.3529430">
        <ele>499.2</ele>
        <time>2017-07-25T09:07:47Z</time>
      </trkpt>
      <trkpt lat="44.6283270" lon="7.3522380">
        <ele>498.6</ele>
        <time>2017-07-25T09:07:52Z</time>
      </trkpt>
      <trkpt lat="44.6284290" lon="7.3519680">
        <ele>498.2</ele>
        <time>2017-07-25T09:07:54Z</time>
      </trkpt>
      <trkpt lat="44.6285900" lon="7.3515840">
        <ele>497.4</ele>
        <time>2017-07-25T09:07:57Z</time>
      </trkpt>
      <trkpt lat="44.6286970" lon="7.3513250">
        <ele>497.0</ele>
        <time>2017-07-25T09:07:59Z</time>
      </trkpt>
      <trkpt lat="44.6288500" lon="7.3509540">
        <ele>496.4</ele>
        <time>2017-07-25T09:08:02Z</time>
      </trkpt>
      <trkpt lat="44.6290410" lon="7.3504970">
        <ele>496.0</ele>
        <time>2017-07-25T09:08:06Z</time>
      </trkpt>
      <trkpt lat="44.6293450" lon="7.3497620">
        <ele>495.6</ele>
        <time>2017-07-25T09:08:13Z</time>
      </trkpt>
      <trkpt lat="44.6296300" lon="7.3490950">
        <ele>495.8</ele>
        <time>2017-07-25T09:08:20Z</time>
      </trkpt>
      <trkpt lat="44.6296680" lon="7.3490040">
        <ele>496.0</ele>
        <time>2017-07-25T09:08:21Z</time>
      </trkpt>
      <trkpt lat="44.6299280" lon="7.3483690">
        <ele>496.6</ele>
        <time>2017-07-25T09:08:29Z</time>
      </trkpt>
      <trkpt lat="44.6299670" lon="7.3482750">
        <ele>496.8</ele>
        <time>2017-07-25T09:08:30Z</time>
      </trkpt>
      <trkpt lat="44.6300470" lon="7.3480900">
        <ele>497.0</ele>
        <time>2017-07-25T09:08:32Z</time>
      </trkpt>
      <trkpt lat="44.6301580" lon="7.3478100">
        <ele>497.4</ele>
        <time>2017-07-25T09:08:35Z</time>
      </trkpt>
      <trkpt lat="44.6303540" lon="7.3473460">
        <ele>498.2</ele>
        <time>2017-07-25T09:08:40Z</time>
      </trkpt>
      <trkpt lat="44.6304340" lon="7.3471590">
        <ele>498.4</ele>
        <time>2017-07-25T09:08:42Z</time>
      </trkpt>
      <trkpt lat="44.6306300" lon="7.3466830">
        <ele>498.6</ele>
        <time>2017-07-25T09:08:47Z</time>
      </trkpt>
      <trkpt lat="44.6307880" lon="7.3462880">
        <ele>499.2</ele>
        <time>2017-07-25T09:08:51Z</time>
      </trkpt>
      <trkpt lat="44.6309090" lon="7.3459730">
        <ele>499.4</ele>
        <time>2017-07-25T09:08:54Z</time>
      </trkpt>
      <trkpt lat="44.6310910" lon="7.3454320">
        <ele>499.8</ele>
        <time>2017-07-25T09:08:59Z</time>
      </trkpt>
      <trkpt lat="44.6313110" lon="7.3447360">
        <ele>499.6</ele>
        <time>2017-07-25T09:09:05Z</time>
      </trkpt>
      <trkpt lat="44.6313770" lon="7.3444930">
        <ele>499.2</ele>
        <time>2017-07-25T09:09:07Z</time>
      </trkpt>
      <trkpt lat="44.6315890" lon="7.3436730">
        <ele>499.2</ele>
        <time>2017-07-25T09:09:14Z</time>
      </trkpt>
      <trkpt lat="44.6316430" lon="7.3434450">
        <ele>499.0</ele>
        <time>2017-07-25T09:09:16Z</time>
      </trkpt>
      <trkpt lat="44.6318280" lon="7.3426940">
        <ele>498.8</ele>
        <time>2017-07-25T09:09:23Z</time>
      </trkpt>
      <trkpt lat="44.6318540" lon="7.3425910">
        <ele>498.8</ele>
        <time>2017-07-25T09:09:24Z</time>
      </trkpt>
      <trkpt lat="44.6320580" lon="7.3417960">
        <ele>499.8</ele>
        <time>2017-07-25T09:09:32Z</time>
      </trkpt>
      <trkpt lat="44.6320850" lon="7.3417040">
        <ele>500.0</ele>
        <time>2017-07-25T09:09:33Z</time>
      </trkpt>
      <trkpt lat="44.6322120" lon="7.3412670">
        <ele>500.6</ele>
        <time>2017-07-25T09:09:38Z</time>
      </trkpt>
      <trkpt lat="44.6323010" lon="7.3410240">
        <ele>501.2</ele>
        <time>2017-07-25T09:09:41Z</time>
      </trkpt>
      <trkpt lat="44.6323610" lon="7.3408720">
        <ele>501.8</ele>
        <time>2017-07-25T09:09:43Z</time>
      </trkpt>
      <trkpt lat="44.6325140" lon="7.3405040">
        <ele>502.8</ele>
        <time>2017-07-25T09:09:48Z</time>
      </trkpt>
      <trkpt lat="44.6325830" lon="7.3403570">
        <ele>503.4</ele>
        <time>2017-07-25T09:09:50Z</time>
      </trkpt>
      <trkpt lat="44.6326530" lon="7.3402170">
        <ele>503.8</ele>
        <time>2017-07-25T09:09:52Z</time>
      </trkpt>
      <trkpt lat="44.6328350" lon="7.3398770">
        <ele>505.0</ele>
        <time>2017-07-25T09:09:57Z</time>
      </trkpt>
      <trkpt lat="44.6329080" lon="7.3397510">
        <ele>505.2</ele>
        <time>2017-07-25T09:09:59Z</time>
      </trkpt>
      <trkpt lat="44.6330500" lon="7.3394980">
        <ele>506.2</ele>
        <time>2017-07-25T09:10:03Z</time>
      </trkpt>
      <trkpt lat="44.6332000" lon="7.3392440">
        <ele>507.2</ele>
        <time>2017-07-25T09:10:07Z</time>
      </trkpt>
      <trkpt lat="44.6332380" lon="7.3391800">
        <ele>507.4</ele>
        <time>2017-07-25T09:10:08Z</time>
      </trkpt>
      <trkpt lat="44.6333150" lon="7.3390520">
        <ele>508.0</ele>
        <time>2017-07-25T09:10:10Z</time>
      </trkpt>
      <trkpt lat="44.6333880" lon="7.3389220">
        <ele>508.6</ele>
        <time>2017-07-25T09:10:12Z</time>
      </trkpt>
      <trkpt lat="44.6335340" lon="7.3386590">
        <ele>509.2</ele>
        <time>2017-07-25T09:10:16Z</time>
      </trkpt>
      <trkpt lat="44.6336190" lon="7.3385320">
        <ele>509.6</ele>
        <time>2017-07-25T09:10:18Z</time>
      </trkpt>
      <trkpt lat="44.6339010" lon="7.3380710">
        <ele>510.6</ele>
        <time>2017-07-25T09:10:25Z</time>
      </trkpt>
      <trkpt lat="44.6341920" lon="7.3375880">
        <ele>511.4</ele>
        <time>2017-07-25T09:10:32Z</time>
      </trkpt>
      <trkpt lat="44.6342810" lon="7.3374400">
        <ele>511.4</ele>
        <time>2017-07-25T09:10:34Z</time>
      </trkpt>
      <trkpt lat="44.6344190" lon="7.3372100">
        <ele>511.8</ele>
        <time>2017-07-25T09:10:37Z</time>
      </trkpt>
      <trkpt lat="44.6346020" lon="7.3368910">
        <ele>511.8</ele>
        <time>2017-07-25T09:10:41Z</time>
      </trkpt>
      <trkpt lat="44.6346500" lon="7.3368100">
        <ele>511.8</ele>
        <time>2017-07-25T09:10:42Z</time>
      </trkpt>
      <trkpt lat="44.6350000" lon="7.3362200">
        <ele>512.2</ele>
        <time>2017-07-25T09:10:49Z</time>
      </trkpt>
      <trkpt lat="44.6351060" lon="7.3360490">
        <ele>512.0</ele>
        <time>2017-07-25T09:10:51Z</time>
      </trkpt>
      <trkpt lat="44.6351590" lon="7.3359660">
        <ele>512.0</ele>
        <time>2017-07-25T09:10:52Z</time>
      </trkpt>
      <trkpt lat="44.6355340" lon="7.3353610">
        <ele>511.4</ele>
        <time>2017-07-25T09:10:59Z</time>
      </trkpt>
      <trkpt lat="44.6356410" lon="7.3351810">
        <ele>511.0</ele>
        <time>2017-07-25T09:11:01Z</time>
      </trkpt>
      <trkpt lat="44.6358060" lon="7.3349040">
        <ele>510.6</ele>
        <time>2017-07-25T09:11:04Z</time>
      </trkpt>
      <trkpt lat="44.6360980" lon="7.3344190">
        <ele>509.8</ele>
        <time>2017-07-25T09:11:09Z</time>
      </trkpt>
      <trkpt lat="44.6362190" lon="7.3342160">
        <ele>509.4</ele>
        <time>2017-07-25T09:11:11Z</time>
      </trkpt>
      <trkpt lat="44.6364710" lon="7.3337990">
        <ele>508.6</ele>
        <time>2017-07-25T09:11:15Z</time>
      </trkpt>
      <trkpt lat="44.6365390" lon="7.3336960">
        <ele>508.4</ele>
        <time>2017-07-25T09:11:16Z</time>
      </trkpt>
      <trkpt lat="44.6366900" lon="7.3334940">
        <ele>508.0</ele>
        <time>2017-07-25T09:11:18Z</time>
      </trkpt>
      <trkpt lat="44.6369360" lon="7.3332060">
        <ele>507.0</ele>
        <time>2017-07-25T09:11:21Z</time>
      </trkpt>
      <trkpt lat="44.6372070" lon="7.3329510">
        <ele>506.2</ele>
        <time>2017-07-25T09:11:24Z</time>
      </trkpt>
      <trkpt lat="44.6373030" lon="7.3328730">
        <ele>505.4</ele>
        <time>2017-07-25T09:11:25Z</time>
      </trkpt>
      <trkpt lat="44.6376020" lon="7.3326610">
        <ele>504.0</ele>
        <time>2017-07-25T09:11:28Z</time>
      </trkpt>
      <trkpt lat="44.6378090" lon="7.3325380">
        <ele>502.8</ele>
        <time>2017-07-25T09:11:30Z</time>
      </trkpt>
      <trkpt lat="44.6380210" lon="7.3324240">
        <ele>501.6</ele>
        <time>2017-07-25T09:11:32Z</time>
      </trkpt>
      <trkpt lat="44.6382350" lon="7.3323190">
        <ele>500.4</ele>
        <time>2017-07-25T09:11:34Z</time>
      </trkpt>
      <trkpt lat="44.6384430" lon="7.3322180">
        <ele>499.4</ele>
        <time>2017-07-25T09:11:36Z</time>
      </trkpt>
      <trkpt lat="44.6385460" lon="7.3321670">
        <ele>499.0</ele>
        <time>2017-07-25T09:11:37Z</time>
      </trkpt>
      <trkpt lat="44.6387520" lon="7.3320600">
        <ele>498.4</ele>
        <time>2017-07-25T09:11:39Z</time>
      </trkpt>
      <trkpt lat="44.6390580" lon="7.3319060">
        <ele>497.4</ele>
        <time>2017-07-25T09:11:42Z</time>
      </trkpt>
      <trkpt lat="44.6393630" lon="7.3317510">
        <ele>496.4</ele>
        <time>2017-07-25T09:11:45Z</time>
      </trkpt>
      <trkpt lat="44.6394650" lon="7.3316990">
        <ele>496.0</ele>
        <time>2017-07-25T09:11:46Z</time>
      </trkpt>
      <trkpt lat="44.6397630" lon="7.3315460">
        <ele>494.8</ele>
        <time>2017-07-25T09:11:49Z</time>
      </trkpt>
      <trkpt lat="44.6401550" lon="7.3313400">
        <ele>493.4</ele>
        <time>2017-07-25T09:11:53Z</time>
      </trkpt>
      <trkpt lat="44.6402550" lon="7.3312900">
        <ele>493.2</ele>
        <time>2017-07-25T09:11:54Z</time>
      </trkpt>
      <trkpt lat="44.6406530" lon="7.3310830">
        <ele>492.4</ele>
        <time>2017-07-25T09:11:58Z</time>
      </trkpt>
      <trkpt lat="44.6411600" lon="7.3308130">
        <ele>491.2</ele>
        <time>2017-07-25T09:12:03Z</time>
      </trkpt>
      <trkpt lat="44.6412600" lon="7.3307640">
        <ele>491.2</ele>
        <time>2017-07-25T09:12:04Z</time>
      </trkpt>
      <trkpt lat="44.6418600" lon="7.3304590">
        <ele>490.8</ele>
        <time>2017-07-25T09:12:10Z</time>
      </trkpt>
      <trkpt lat="44.6421600" lon="7.3303020">
        <ele>490.2</ele>
        <time>2017-07-25T09:12:13Z</time>
      </trkpt>
      <trkpt lat="44.6423620" lon="7.3302020">
        <ele>490.0</ele>
        <time>2017-07-25T09:12:15Z</time>
      </trkpt>
      <trkpt lat="44.6429490" lon="7.3298810">
        <ele>490.2</ele>
        <time>2017-07-25T09:12:21Z</time>
      </trkpt>
      <trkpt lat="44.6431300" lon="7.3297630">
        <ele>490.0</ele>
        <time>2017-07-25T09:12:23Z</time>
      </trkpt>
      <trkpt lat="44.6436150" lon="7.3293660">
        <ele>490.8</ele>
        <time>2017-07-25T09:12:29Z</time>
      </trkpt>
      <trkpt lat="44.6438430" lon="7.3291500">
        <ele>491.4</ele>
        <time>2017-07-25T09:12:32Z</time>
      </trkpt>
      <trkpt lat="44.6442770" lon="7.3287180">
        <ele>492.4</ele>
        <time>2017-07-25T09:12:38Z</time>
      </trkpt>
      <trkpt lat="44.6447810" lon="7.3282230">
        <ele>493.4</ele>
        <time>2017-07-25T09:12:45Z</time>
      </trkpt>
      <trkpt lat="44.6448500" lon="7.3281520">
        <ele>493.4</ele>
        <time>2017-07-25T09:12:46Z</time>
      </trkpt>
      <trkpt lat="44.6449870" lon="7.3280170">
        <ele>493.6</ele>
        <time>2017-07-25T09:12:48Z</time>
      </trkpt>
      <trkpt lat="44.6451830" lon="7.3278240">
        <ele>494.0</ele>
        <time>2017-07-25T09:12:51Z</time>
      </trkpt>
      <trkpt lat="44.6454320" lon="7.3275810">
        <ele>494.6</ele>
        <time>2017-07-25T09:12:55Z</time>
      </trkpt>
      <trkpt lat="44.6457920" lon="7.3272280">
        <ele>495.8</ele>
        <time>2017-07-25T09:13:01Z</time>
      </trkpt>
      <trkpt lat="44.6459610" lon="7.3270580">
        <ele>496.4</ele>
        <time>2017-07-25T09:13:04Z</time>
      </trkpt>
      <trkpt lat="44.6461270" lon="7.3268980">
        <ele>497.2</ele>
        <time>2017-07-25T09:13:07Z</time>
      </trkpt>
      <trkpt lat="44.6463990" lon="7.3266300">
        <ele>497.8</ele>
        <time>2017-07-25T09:13:12Z</time>
      </trkpt>
      <trkpt lat="44.6465060" lon="7.3265220">
        <ele>495.6</ele>
        <time>2017-07-25T09:13:14Z</time>
      </trkpt>
      <trkpt lat="44.6465590" lon="7.3264710">
        <ele>492.6</ele>
        <time>2017-07-25T09:13:15Z</time>
      </trkpt>
      <trkpt lat="44.6466110" lon="7.3264170">
        <ele>489.6</ele>
        <time>2017-07-25T09:13:16Z</time>
      </trkpt>
      <trkpt lat="44.6466620" lon="7.3263660">
        <ele>492.6</ele>
        <time>2017-07-25T09:13:17Z</time>
      </trkpt>
      <trkpt lat="44.6467130" lon="7.3263180">
        <ele>496.4</ele>
        <time>2017-07-25T09:13:18Z</time>
      </trkpt>
      <trkpt lat="44.6467650" lon="7.3262670">
        <ele>500.2</ele>
        <time>2017-07-25T09:13:19Z</time>
      </trkpt>
      <trkpt lat="44.6468160" lon="7.3262180">
        <ele>500.2</ele>
        <time>2017-07-25T09:13:20Z</time>
      </trkpt>
      <trkpt lat="44.6472280" lon="7.3258180">
        <ele>501.2</ele>
        <time>2017-07-25T09:13:28Z</time>
      </trkpt>
      <trkpt lat="44.6476880" lon="7.3253560">
        <ele>502.2</ele>
        <time>2017-07-25T09:13:37Z</time>
      </trkpt>
      <trkpt lat="44.6477410" lon="7.3253140">
        <ele>502.2</ele>
        <time>2017-07-25T09:13:38Z</time>
      </trkpt>
      <trkpt lat="44.6477960" lon="7.3252780">
        <ele>502.4</ele>
        <time>2017-07-25T09:13:39Z</time>
      </trkpt>
      <trkpt lat="44.6478790" lon="7.3251370">
        <ele>502.6</ele>
        <time>2017-07-25T09:13:41Z</time>
      </trkpt>
      <trkpt lat="44.6478740" lon="7.3248740">
        <ele>503.2</ele>
        <time>2017-07-25T09:13:44Z</time>
      </trkpt>
      <trkpt lat="44.6478210" lon="7.3247020">
        <ele>503.0</ele>
        <time>2017-07-25T09:13:46Z</time>
      </trkpt>
      <trkpt lat="44.6477550" lon="7.3244450">
        <ele>502.8</ele>
        <time>2017-07-25T09:13:49Z</time>
      </trkpt>
      <trkpt lat="44.6477330" lon="7.3242720">
        <ele>502.8</ele>
        <time>2017-07-25T09:13:51Z</time>
      </trkpt>
      <trkpt lat="44.6477270" lon="7.3240100">
        <ele>503.2</ele>
        <time>2017-07-25T09:13:54Z</time>
      </trkpt>
      <trkpt lat="44.6477260" lon="7.3239220">
        <ele>503.4</ele>
        <time>2017-07-25T09:13:55Z</time>
      </trkpt>
      <trkpt lat="44.6477540" lon="7.3233170">
        <ele>504.4</ele>
        <time>2017-07-25T09:14:02Z</time>
      </trkpt>
      <trkpt lat="44.6477650" lon="7.3232300">
        <ele>504.6</ele>
        <time>2017-07-25T09:14:03Z</time>
      </trkpt>
      <trkpt lat="44.6478100" lon="7.3229780">
        <ele>505.6</ele>
        <time>2017-07-25T09:14:06Z</time>
      </trkpt>
      <trkpt lat="44.6478840" lon="7.3226430">
        <ele>506.8</ele>
        <time>2017-07-25T09:14:10Z</time>
      </trkpt>
      <trkpt lat="44.6479610" lon="7.3223050">
        <ele>508.0</ele>
        <time>2017-07-25T09:14:14Z</time>
      </trkpt>
      <trkpt lat="44.6480370" lon="7.3219640">
        <ele>509.0</ele>
        <time>2017-07-25T09:14:18Z</time>
      </trkpt>
      <trkpt lat="44.6480690" lon="7.3217920">
        <ele>509.6</ele>
        <time>2017-07-25T09:14:20Z</time>
      </trkpt>
      <trkpt lat="44.6481230" lon="7.3215320">
        <ele>510.2</ele>
        <time>2017-07-25T09:14:23Z</time>
      </trkpt>
      <trkpt lat="44.6482320" lon="7.3210170">
        <ele>511.2</ele>
        <time>2017-07-25T09:14:29Z</time>
      </trkpt>
      <trkpt lat="44.6482660" lon="7.3208460">
        <ele>511.6</ele>
        <time>2017-07-25T09:14:31Z</time>
      </trkpt>
      <trkpt lat="44.6483210" lon="7.3205870">
        <ele>512.2</ele>
        <time>2017-07-25T09:14:34Z</time>
      </trkpt>
      <trkpt lat="44.6484090" lon="7.3201480">
        <ele>513.0</ele>
        <time>2017-07-25T09:14:39Z</time>
      </trkpt>
      <trkpt lat="44.6484450" lon="7.3199710">
        <ele>513.2</ele>
        <time>2017-07-25T09:14:41Z</time>
      </trkpt>
      <trkpt lat="44.6485370" lon="7.3195290">
        <ele>514.4</ele>
        <time>2017-07-25T09:14:46Z</time>
      </trkpt>
      <trkpt lat="44.6485750" lon="7.3193490">
        <ele>514.6</ele>
        <time>2017-07-25T09:14:48Z</time>
      </trkpt>
      <trkpt lat="44.6487580" lon="7.3187460">
        <ele>515.6</ele>
        <time>2017-07-25T09:14:55Z</time>
      </trkpt>
      <trkpt lat="44.6487910" lon="7.3186640">
        <ele>515.4</ele>
        <time>2017-07-25T09:14:56Z</time>
      </trkpt>
      <trkpt lat="44.6490630" lon="7.3181150">
        <ele>516.6</ele>
        <time>2017-07-25T09:15:03Z</time>
      </trkpt>
      <trkpt lat="44.6491030" lon="7.3180390">
        <ele>516.8</ele>
        <time>2017-07-25T09:15:04Z</time>
      </trkpt>
      <trkpt lat="44.6494400" lon="7.3174240">
        <ele>517.4</ele>
        <time>2017-07-25T09:15:12Z</time>
      </trkpt>
      <trkpt lat="44.6494790" lon="7.3173480">
        <ele>517.4</ele>
        <time>2017-07-25T09:15:13Z</time>
      </trkpt>
      <trkpt lat="44.6497320" lon="7.3168930">
        <ele>517.8</ele>
        <time>2017-07-25T09:15:19Z</time>
      </trkpt>
      <trkpt lat="44.6498610" lon="7.3166640">
        <ele>518.0</ele>
        <time>2017-07-25T09:15:22Z</time>
      </trkpt>
      <trkpt lat="44.6501180" lon="7.3162120">
        <ele>518.8</ele>
        <time>2017-07-25T09:15:28Z</time>
      </trkpt>
      <trkpt lat="44.6501970" lon="7.3160610">
        <ele>519.0</ele>
        <time>2017-07-25T09:15:30Z</time>
      </trkpt>
      <trkpt lat="44.6504810" lon="7.3155260">
        <ele>520.0</ele>
        <time>2017-07-25T09:15:37Z</time>
      </trkpt>
      <trkpt lat="44.6506020" lon="7.3152960">
        <ele>520.4</ele>
        <time>2017-07-25T09:15:40Z</time>
      </trkpt>
      <trkpt lat="44.6507660" lon="7.3149870">
        <ele>521.2</ele>
        <time>2017-07-25T09:15:44Z</time>
      </trkpt>
      <trkpt lat="44.6509730" lon="7.3146040">
        <ele>522.0</ele>
        <time>2017-07-25T09:15:49Z</time>
      </trkpt>
      <trkpt lat="44.6510150" lon="7.3145260">
        <ele>522.4</ele>
        <time>2017-07-25T09:15:50Z</time>
      </trkpt>
      <trkpt lat="44.6513060" lon="7.3139750">
        <ele>523.4</ele>
        <time>2017-07-25T09:15:57Z</time>
      </trkpt>
      <trkpt lat="44.6513920" lon="7.3138230">
        <ele>523.4</ele>
        <time>2017-07-25T09:15:59Z</time>
      </trkpt>
      <trkpt lat="44.6516450" lon="7.3133580">
        <ele>524.6</ele>
        <time>2017-07-25T09:16:05Z</time>
      </trkpt>
      <trkpt lat="44.6517690" lon="7.3131410">
        <ele>525.0</ele>
        <time>2017-07-25T09:16:08Z</time>
      </trkpt>
      <trkpt lat="44.6519220" lon="7.3128570">
        <ele>525.6</ele>
        <time>2017-07-25T09:16:12Z</time>
      </trkpt>
      <trkpt lat="44.6521060" lon="7.3125180">
        <ele>526.4</ele>
        <time>2017-07-25T09:16:17Z</time>
      </trkpt>
      <trkpt lat="44.6521720" lon="7.3123830">
        <ele>526.6</ele>
        <time>2017-07-25T09:16:19Z</time>
      </trkpt>
      <trkpt lat="44.6523450" lon="7.3120460">
        <ele>527.6</ele>
        <time>2017-07-25T09:16:24Z</time>
      </trkpt>
      <trkpt lat="44.6523810" lon="7.3119810">
        <ele>527.8</ele>
        <time>2017-07-25T09:16:25Z</time>
      </trkpt>
      <trkpt lat="44.6525250" lon="7.3117200">
        <ele>528.8</ele>
        <time>2017-07-25T09:16:29Z</time>
      </trkpt>
      <trkpt lat="44.6526970" lon="7.3114000">
        <ele>529.8</ele>
        <time>2017-07-25T09:16:34Z</time>
      </trkpt>
      <trkpt lat="44.6527310" lon="7.3113380">
        <ele>530.0</ele>
        <time>2017-07-25T09:16:35Z</time>
      </trkpt>
      <trkpt lat="44.6529050" lon="7.3110190">
        <ele>530.8</ele>
        <time>2017-07-25T09:16:40Z</time>
      </trkpt>
      <trkpt lat="44.6530000" lon="7.3108170">
        <ele>531.6</ele>
        <time>2017-07-25T09:16:43Z</time>
      </trkpt>
      <trkpt lat="44.6530710" lon="7.3106880">
        <ele>532.0</ele>
        <time>2017-07-25T09:16:45Z</time>
      </trkpt>
      <trkpt lat="44.6532470" lon="7.3103690">
        <ele>533.2</ele>
        <time>2017-07-25T09:16:50Z</time>
      </trkpt>
      <trkpt lat="44.6534440" lon="7.3099940">
        <ele>534.2</ele>
        <time>2017-07-25T09:16:56Z</time>
      </trkpt>
      <trkpt lat="44.6535120" lon="7.3098760">
        <ele>534.6</ele>
        <time>2017-07-25T09:16:58Z</time>
      </trkpt>
      <trkpt lat="44.6536460" lon="7.3096230">
        <ele>535.4</ele>
        <time>2017-07-25T09:17:02Z</time>
      </trkpt>
      <trkpt lat="44.6537810" lon="7.3093700">
        <ele>536.0</ele>
        <time>2017-07-25T09:17:06Z</time>
      </trkpt>
      <trkpt lat="44.6538490" lon="7.3092460">
        <ele>536.4</ele>
        <time>2017-07-25T09:17:08Z</time>
      </trkpt>
      <trkpt lat="44.6540440" lon="7.3088820">
        <ele>537.4</ele>
        <time>2017-07-25T09:17:14Z</time>
      </trkpt>
      <trkpt lat="44.6541070" lon="7.3087610">
        <ele>538.0</ele>
        <time>2017-07-25T09:17:16Z</time>
      </trkpt>
      <trkpt lat="44.6542390" lon="7.3085290">
        <ele>538.6</ele>
        <time>2017-07-25T09:17:20Z</time>
      </trkpt>
      <trkpt lat="44.6543840" lon="7.3083140">
        <ele>539.2</ele>
        <time>2017-07-25T09:17:24Z</time>
      </trkpt>
      <trkpt lat="44.6544600" lon="7.3082090">
        <ele>539.8</ele>
        <time>2017-07-25T09:17:26Z</time>
      </trkpt>
      <trkpt lat="44.6547020" lon="7.3079230">
        <ele>540.2</ele>
        <time>2017-07-25T09:17:32Z</time>
      </trkpt>
      <trkpt lat="44.6551080" lon="7.3075530">
        <ele>540.0</ele>
        <time>2017-07-25T09:17:41Z</time>
      </trkpt>
      <trkpt lat="44.6553440" lon="7.3074110">
        <ele>540.4</ele>
        <time>2017-07-25T09:17:46Z</time>
      </trkpt>
      <trkpt lat="44.6553910" lon="7.3074150">
        <ele>540.4</ele>
        <time>2017-07-25T09:17:47Z</time>
      </trkpt>
      <trkpt lat="44.6555570" lon="7.3074510">
        <ele>540.2</ele>
        <time>2017-07-25T09:17:50Z</time>
      </trkpt>
      <trkpt lat="44.6556200" lon="7.3074610">
        <ele>540.2</ele>
        <time>2017-07-25T09:17:51Z</time>
      </trkpt>
      <trkpt lat="44.6560030" lon="7.3075040">
        <ele>539.8</ele>
        <time>2017-07-25T09:17:57Z</time>
      </trkpt>
      <trkpt lat="44.6561960" lon="7.3074880">
        <ele>539.6</ele>
        <time>2017-07-25T09:18:00Z</time>
      </trkpt>
      <trkpt lat="44.6563830" lon="7.3074460">
        <ele>539.6</ele>
        <time>2017-07-25T09:18:03Z</time>
      </trkpt>
      <trkpt lat="44.6565090" lon="7.3074250">
        <ele>539.6</ele>
        <time>2017-07-25T09:18:05Z</time>
      </trkpt>
      <trkpt lat="44.6566380" lon="7.3074270">
        <ele>539.6</ele>
        <time>2017-07-25T09:18:07Z</time>
      </trkpt>
      <trkpt lat="44.6567630" lon="7.3074660">
        <ele>539.6</ele>
        <time>2017-07-25T09:18:09Z</time>
      </trkpt>
      <trkpt lat="44.6569480" lon="7.3075310">
        <ele>539.6</ele>
        <time>2017-07-25T09:18:12Z</time>
      </trkpt>
      <trkpt lat="44.6570750" lon="7.3075360">
        <ele>540.0</ele>
        <time>2017-07-25T09:18:14Z</time>
      </trkpt>
      <trkpt lat="44.6572540" lon="7.3075270">
        <ele>540.2</ele>
        <time>2017-07-25T09:18:17Z</time>
      </trkpt>
      <trkpt lat="44.6573730" lon="7.3074950">
        <ele>540.4</ele>
        <time>2017-07-25T09:18:19Z</time>
      </trkpt>
      <trkpt lat="44.6574330" lon="7.3074680">
        <ele>540.4</ele>
        <time>2017-07-25T09:18:20Z</time>
      </trkpt>
      <trkpt lat="44.6576510" lon="7.3073150">
        <ele>540.8</ele>
        <time>2017-07-25T09:18:24Z</time>
      </trkpt>
      <trkpt lat="44.6577050" lon="7.3072760">
        <ele>541.0</ele>
        <time>2017-07-25T09:18:25Z</time>
      </trkpt>
      <trkpt lat="44.6580600" lon="7.3070160">
        <ele>542.2</ele>
        <time>2017-07-25T09:18:32Z</time>
      </trkpt>
      <trkpt lat="44.6581080" lon="7.3069750">
        <ele>542.4</ele>
        <time>2017-07-25T09:18:33Z</time>
      </trkpt>
      <trkpt lat="44.6582030" lon="7.3068870">
        <ele>543.2</ele>
        <time>2017-07-25T09:18:35Z</time>
      </trkpt>
      <trkpt lat="44.6583340" lon="7.3067390">
        <ele>544.8</ele>
        <time>2017-07-25T09:18:38Z</time>
      </trkpt>
      <trkpt lat="44.6584160" lon="7.3066350">
        <ele>545.4</ele>
        <time>2017-07-25T09:18:40Z</time>
      </trkpt>
      <trkpt lat="44.6584990" lon="7.3065410">
        <ele>546.0</ele>
        <time>2017-07-25T09:18:42Z</time>
      </trkpt>
      <trkpt lat="44.6586440" lon="7.3064470">
        <ele>546.4</ele>
        <time>2017-07-25T09:18:45Z</time>
      </trkpt>
      <trkpt lat="44.6587430" lon="7.3064100">
        <ele>546.6</ele>
        <time>2017-07-25T09:18:47Z</time>
      </trkpt>
      <trkpt lat="44.6588450" lon="7.3063800">
        <ele>547.0</ele>
        <time>2017-07-25T09:18:49Z</time>
      </trkpt>
      <trkpt lat="44.6589460" lon="7.3063510">
        <ele>547.2</ele>
        <time>2017-07-25T09:18:51Z</time>
      </trkpt>
      <trkpt lat="44.6593050" lon="7.3062840">
        <ele>547.6</ele>
        <time>2017-07-25T09:18:58Z</time>
      </trkpt>
      <trkpt lat="44.6594120" lon="7.3062900">
        <ele>548.0</ele>
        <time>2017-07-25T09:19:00Z</time>
      </trkpt>
      <trkpt lat="44.6596870" lon="7.3063610">
        <ele>548.2</ele>
        <time>2017-07-25T09:19:05Z</time>
      </trkpt>
      <trkpt lat="44.6598620" lon="7.3064460">
        <ele>548.8</ele>
        <time>2017-07-25T09:19:08Z</time>
      </trkpt>
      <trkpt lat="44.6599660" lon="7.3065440">
        <ele>549.2</ele>
        <time>2017-07-25T09:19:10Z</time>
      </trkpt>
      <trkpt lat="44.6600810" lon="7.3066290">
        <ele>549.2</ele>
        <time>2017-07-25T09:19:12Z</time>
      </trkpt>
      <trkpt lat="44.6602150" lon="7.3066480">
        <ele>549.2</ele>
        <time>2017-07-25T09:19:14Z</time>
      </trkpt>
      <trkpt lat="44.6603520" lon="7.3066270">
        <ele>549.4</ele>
        <time>2017-07-25T09:19:16Z</time>
      </trkpt>
      <trkpt lat="44.6605560" lon="7.3066010">
        <ele>549.6</ele>
        <time>2017-07-25T09:19:19Z</time>
      </trkpt>
      <trkpt lat="44.6609030" lon="7.3066500">
        <ele>549.6</ele>
        <time>2017-07-25T09:19:24Z</time>
      </trkpt>
      <trkpt lat="44.6611890" lon="7.3067220">
        <ele>550.2</ele>
        <time>2017-07-25T09:19:28Z</time>
      </trkpt>
      <trkpt lat="44.6612610" lon="7.3067240">
        <ele>550.4</ele>
        <time>2017-07-25T09:19:29Z</time>
      </trkpt>
      <trkpt lat="44.6613320" lon="7.3067190">
        <ele>550.6</ele>
        <time>2017-07-25T09:19:30Z</time>
      </trkpt>
      <trkpt lat="44.6616010" lon="7.3066840">
        <ele>551.4</ele>
        <time>2017-07-25T09:19:34Z</time>
      </trkpt>
      <trkpt lat="44.6617440" lon="7.3066400">
        <ele>552.2</ele>
        <time>2017-07-25T09:19:36Z</time>
      </trkpt>
      <trkpt lat="44.6618920" lon="7.3065780">
        <ele>552.6</ele>
        <time>2017-07-25T09:19:38Z</time>
      </trkpt>
      <trkpt lat="44.6619690" lon="7.3065260">
        <ele>552.6</ele>
        <time>2017-07-25T09:19:39Z</time>
      </trkpt>
      <trkpt lat="44.6621230" lon="7.3064140">
        <ele>552.8</ele>
        <time>2017-07-25T09:19:41Z</time>
      </trkpt>
      <trkpt lat="44.6623790" lon="7.3063910">
        <ele>553.0</ele>
        <time>2017-07-25T09:19:44Z</time>
      </trkpt>
      <trkpt lat="44.6624670" lon="7.3063880">
        <ele>552.6</ele>
        <time>2017-07-25T09:19:45Z</time>
      </trkpt>
      <trkpt lat="44.6627200" lon="7.3063780">
        <ele>552.2</ele>
        <time>2017-07-25T09:19:48Z</time>
      </trkpt>
      <trkpt lat="44.6628780" lon="7.3063150">
        <ele>552.2</ele>
        <time>2017-07-25T09:19:50Z</time>
      </trkpt>
      <trkpt lat="44.6630960" lon="7.3061630">
        <ele>551.8</ele>
        <time>2017-07-25T09:19:53Z</time>
      </trkpt>
      <trkpt lat="44.6632220" lon="7.3060660">
        <ele>552.0</ele>
        <time>2017-07-25T09:19:55Z</time>
      </trkpt>
      <trkpt lat="44.6634530" lon="7.3059130">
        <ele>552.2</ele>
        <time>2017-07-25T09:19:59Z</time>
      </trkpt>
      <trkpt lat="44.6635600" lon="7.3058410">
        <ele>552.4</ele>
        <time>2017-07-25T09:20:01Z</time>
      </trkpt>
      <trkpt lat="44.6637570" lon="7.3057120">
        <ele>552.8</ele>
        <time>2017-07-25T09:20:05Z</time>
      </trkpt>
      <trkpt lat="44.6639380" lon="7.3055940">
        <ele>552.8</ele>
        <time>2017-07-25T09:20:09Z</time>
      </trkpt>
      <trkpt lat="44.6640670" lon="7.3055050">
        <ele>553.2</ele>
        <time>2017-07-25T09:20:12Z</time>
      </trkpt>
      <trkpt lat="44.6640960" lon="7.3054500">
        <ele>553.4</ele>
        <time>2017-07-25T09:20:13Z</time>
      </trkpt>
      <trkpt lat="44.6641190" lon="7.3053900">
        <ele>554.0</ele>
        <time>2017-07-25T09:20:14Z</time>
      </trkpt>
      <trkpt lat="44.6642080" lon="7.3051490">
        <ele>554.6</ele>
        <time>2017-07-25T09:20:18Z</time>
      </trkpt>
      <trkpt lat="44.6642330" lon="7.3050260">
        <ele>555.0</ele>
        <time>2017-07-25T09:20:20Z</time>
      </trkpt>
      <trkpt lat="44.6642530" lon="7.3048460">
        <ele>555.4</ele>
        <time>2017-07-25T09:20:23Z</time>
      </trkpt>
      <trkpt lat="44.6642650" lon="7.3047340">
        <ele>556.0</ele>
        <time>2017-07-25T09:20:25Z</time>
      </trkpt>
      <trkpt lat="44.6642920" lon="7.3045630">
        <ele>556.2</ele>
        <time>2017-07-25T09:20:28Z</time>
      </trkpt>
      <trkpt lat="44.6643090" lon="7.3044470">
        <ele>556.8</ele>
        <time>2017-07-25T09:20:30Z</time>
      </trkpt>
      <trkpt lat="44.6643500" lon="7.3042470">
        <ele>557.2</ele>
        <time>2017-07-25T09:20:34Z</time>
      </trkpt>
      <trkpt lat="44.6643730" lon="7.3041560">
        <ele>557.6</ele>
        <time>2017-07-25T09:20:36Z</time>
      </trkpt>
      <trkpt lat="44.6644150" lon="7.3039410">
        <ele>558.2</ele>
        <time>2017-07-25T09:20:40Z</time>
      </trkpt>
      <trkpt lat="44.6644510" lon="7.3037560">
        <ele>558.8</ele>
        <time>2017-07-25T09:20:43Z</time>
      </trkpt>
      <trkpt lat="44.6644830" lon="7.3035730">
        <ele>559.4</ele>
        <time>2017-07-25T09:20:46Z</time>
      </trkpt>
      <trkpt lat="44.6645360" lon="7.3032550">
        <ele>560.0</ele>
        <time>2017-07-25T09:20:51Z</time>
      </trkpt>
      <trkpt lat="44.6645560" lon="7.3031300">
        <ele>560.6</ele>
        <time>2017-07-25T09:20:53Z</time>
      </trkpt>
      <trkpt lat="44.6646000" lon="7.3028840">
        <ele>561.8</ele>
        <time>2017-07-25T09:20:57Z</time>
      </trkpt>
      <trkpt lat="44.6646230" lon="7.3027530">
        <ele>562.2</ele>
        <time>2017-07-25T09:20:59Z</time>
      </trkpt>
      <trkpt lat="44.6646730" lon="7.3024880">
        <ele>562.8</ele>
        <time>2017-07-25T09:21:03Z</time>
      </trkpt>
      <trkpt lat="44.6647140" lon="7.3022820">
        <ele>564.0</ele>
        <time>2017-07-25T09:21:06Z</time>
      </trkpt>
      <trkpt lat="44.6647390" lon="7.3021500">
        <ele>564.6</ele>
        <time>2017-07-25T09:21:08Z</time>
      </trkpt>
      <trkpt lat="44.6647560" lon="7.3020180">
        <ele>565.0</ele>
        <time>2017-07-25T09:21:10Z</time>
      </trkpt>
      <trkpt lat="44.6647850" lon="7.3018070">
        <ele>565.4</ele>
        <time>2017-07-25T09:21:14Z</time>
      </trkpt>
      <trkpt lat="44.6647920" lon="7.3017520">
        <ele>565.6</ele>
        <time>2017-07-25T09:21:15Z</time>
      </trkpt>
      <trkpt lat="44.6648000" lon="7.3016300">
        <ele>566.2</ele>
        <time>2017-07-25T09:21:17Z</time>
      </trkpt>
      <trkpt lat="44.6648090" lon="7.3014400">
        <ele>566.6</ele>
        <time>2017-07-25T09:21:20Z</time>
      </trkpt>
      <trkpt lat="44.6648400" lon="7.3012460">
        <ele>567.4</ele>
        <time>2017-07-25T09:21:23Z</time>
      </trkpt>
      <trkpt lat="44.6648360" lon="7.3011040">
        <ele>567.6</ele>
        <time>2017-07-25T09:21:26Z</time>
      </trkpt>
      <trkpt lat="44.6647780" lon="7.3010610">
        <ele>568.8</ele>
        <time>2017-07-25T09:21:29Z</time>
      </trkpt>
      <trkpt lat="44.6647540" lon="7.3010400">
        <ele>569.2</ele>
        <time>2017-07-25T09:21:30Z</time>
      </trkpt>
      <trkpt lat="44.6646230" lon="7.3009110">
        <ele>569.8</ele>
        <time>2017-07-25T09:21:33Z</time>
      </trkpt>
      <trkpt lat="44.6645720" lon="7.3008510">
        <ele>570.4</ele>
        <time>2017-07-25T09:21:34Z</time>
      </trkpt>
      <trkpt lat="44.6644120" lon="7.3005540">
        <ele>570.6</ele>
        <time>2017-07-25T09:21:39Z</time>
      </trkpt>
      <trkpt lat="44.6643840" lon="7.3005240">
        <ele>570.8</ele>
        <time>2017-07-25T09:21:40Z</time>
      </trkpt>
      <trkpt lat="44.6643310" lon="7.3005020">
        <ele>571.0</ele>
        <time>2017-07-25T09:21:41Z</time>
      </trkpt>
      <trkpt lat="44.6642060" lon="7.3005210">
        <ele>571.2</ele>
        <time>2017-07-25T09:21:43Z</time>
      </trkpt>
      <trkpt lat="44.6641070" lon="7.3005730">
        <ele>571.6</ele>
        <time>2017-07-25T09:21:45Z</time>
      </trkpt>
      <trkpt lat="44.6640670" lon="7.3006050">
        <ele>571.8</ele>
        <time>2017-07-25T09:21:46Z</time>
      </trkpt>
      <trkpt lat="44.6639840" lon="7.3006480">
        <ele>572.2</ele>
        <time>2017-07-25T09:21:48Z</time>
      </trkpt>
      <trkpt lat="44.6638780" lon="7.3006870">
        <ele>573.0</ele>
        <time>2017-07-25T09:21:51Z</time>
      </trkpt>
      <trkpt lat="44.6638680" lon="7.3006460">
        <ele>573.4</ele>
        <time>2017-07-25T09:21:52Z</time>
      </trkpt>
      <trkpt lat="44.6638770" lon="7.3006190">
        <ele>574.0</ele>
        <time>2017-07-25T09:21:53Z</time>
      </trkpt>
      <trkpt lat="44.6639820" lon="7.3005330">
        <ele>574.4</ele>
        <time>2017-07-25T09:21:56Z</time>
      </trkpt>
      <trkpt lat="44.6640240" lon="7.3004990">
        <ele>574.6</ele>
        <time>2017-07-25T09:21:57Z</time>
      </trkpt>
      <trkpt lat="44.6642340" lon="7.3003070">
        <ele>575.8</ele>
        <time>2017-07-25T09:22:02Z</time>
      </trkpt>
      <trkpt lat="44.6643170" lon="7.3002310">
        <ele>576.2</ele>
        <time>2017-07-25T09:22:04Z</time>
      </trkpt>
      <trkpt lat="44.6644390" lon="7.3001140">
        <ele>576.8</ele>
        <time>2017-07-25T09:22:07Z</time>
      </trkpt>
      <trkpt lat="44.6646460" lon="7.2999160">
        <ele>578.0</ele>
        <time>2017-07-25T09:22:12Z</time>
      </trkpt>
      <trkpt lat="44.6646840" lon="7.2998750">
        <ele>578.4</ele>
        <time>2017-07-25T09:22:13Z</time>
      </trkpt>
      <trkpt lat="44.6647680" lon="7.2997980">
        <ele>579.2</ele>
        <time>2017-07-25T09:22:15Z</time>
      </trkpt>
      <trkpt lat="44.6649900" lon="7.2996070">
        <ele>579.8</ele>
        <time>2017-07-25T09:22:20Z</time>
      </trkpt>
      <trkpt lat="44.6650360" lon="7.2995670">
        <ele>580.2</ele>
        <time>2017-07-25T09:22:21Z</time>
      </trkpt>
      <trkpt lat="44.6652480" lon="7.2993690">
        <ele>581.4</ele>
        <time>2017-07-25T09:22:26Z</time>
      </trkpt>
      <trkpt lat="44.6654570" lon="7.2991800">
        <ele>582.4</ele>
        <time>2017-07-25T09:22:31Z</time>
      </trkpt>
      <trkpt lat="44.6654990" lon="7.2991410">
        <ele>582.6</ele>
        <time>2017-07-25T09:22:32Z</time>
      </trkpt>
      <trkpt lat="44.6656550" lon="7.2989810">
        <ele>583.8</ele>
        <time>2017-07-25T09:22:36Z</time>
      </trkpt>
      <trkpt lat="44.6658520" lon="7.2987660">
        <ele>584.8</ele>
        <time>2017-07-25T09:22:41Z</time>
      </trkpt>
      <trkpt lat="44.6660100" lon="7.2985760">
        <ele>586.0</ele>
        <time>2017-07-25T09:22:45Z</time>
      </trkpt>
      <trkpt lat="44.6661210" lon="7.2984060">
        <ele>587.2</ele>
        <time>2017-07-25T09:22:48Z</time>
      </trkpt>
      <trkpt lat="44.6661580" lon="7.2983440">
        <ele>587.6</ele>
        <time>2017-07-25T09:22:49Z</time>
      </trkpt>
      <trkpt lat="44.6662330" lon="7.2982310">
        <ele>588.4</ele>
        <time>2017-07-25T09:22:51Z</time>
      </trkpt>
      <trkpt lat="44.6663380" lon="7.2980390">
        <ele>589.4</ele>
        <time>2017-07-25T09:22:54Z</time>
      </trkpt>
      <trkpt lat="44.6663700" lon="7.2979740">
        <ele>590.0</ele>
        <time>2017-07-25T09:22:55Z</time>
      </trkpt>
      <trkpt lat="44.6664370" lon="7.2978440">
        <ele>590.8</ele>
        <time>2017-07-25T09:22:57Z</time>
      </trkpt>
      <trkpt lat="44.6665260" lon="7.2976390">
        <ele>591.8</ele>
        <time>2017-07-25T09:23:00Z</time>
      </trkpt>
      <trkpt lat="44.6665880" lon="7.2974980">
        <ele>592.8</ele>
        <time>2017-07-25T09:23:02Z</time>
      </trkpt>
      <trkpt lat="44.6666190" lon="7.2974250">
        <ele>593.2</ele>
        <time>2017-07-25T09:23:03Z</time>
      </trkpt>
      <trkpt lat="44.6667110" lon="7.2972070">
        <ele>594.2</ele>
        <time>2017-07-25T09:23:06Z</time>
      </trkpt>
      <trkpt lat="44.6668020" lon="7.2969890">
        <ele>595.2</ele>
        <time>2017-07-25T09:23:09Z</time>
      </trkpt>
      <trkpt lat="44.6668910" lon="7.2967620">
        <ele>596.0</ele>
        <time>2017-07-25T09:23:12Z</time>
      </trkpt>
      <trkpt lat="44.6669510" lon="7.2966150">
        <ele>596.6</ele>
        <time>2017-07-25T09:23:14Z</time>
      </trkpt>
      <trkpt lat="44.6671040" lon="7.2962400">
        <ele>597.6</ele>
        <time>2017-07-25T09:23:19Z</time>
      </trkpt>
      <trkpt lat="44.6671940" lon="7.2960230">
        <ele>598.2</ele>
        <time>2017-07-25T09:23:22Z</time>
      </trkpt>
      <trkpt lat="44.6672890" lon="7.2957980">
        <ele>598.8</ele>
        <time>2017-07-25T09:23:25Z</time>
      </trkpt>
      <trkpt lat="44.6674220" lon="7.2954930">
        <ele>599.8</ele>
        <time>2017-07-25T09:23:29Z</time>
      </trkpt>
      <trkpt lat="44.6674550" lon="7.2954150">
        <ele>600.0</ele>
        <time>2017-07-25T09:23:30Z</time>
      </trkpt>
      <trkpt lat="44.6675820" lon="7.2951010">
        <ele>601.0</ele>
        <time>2017-07-25T09:23:34Z</time>
      </trkpt>
      <trkpt lat="44.6677150" lon="7.2947890">
        <ele>602.0</ele>
        <time>2017-07-25T09:23:38Z</time>
      </trkpt>
      <trkpt lat="44.6677780" lon="7.2946290">
        <ele>602.2</ele>
        <time>2017-07-25T09:23:40Z</time>
      </trkpt>
      <trkpt lat="44.6679450" lon="7.2942330">
        <ele>603.6</ele>
        <time>2017-07-25T09:23:45Z</time>
      </trkpt>
      <trkpt lat="44.6680430" lon="7.2939890">
        <ele>604.2</ele>
        <time>2017-07-25T09:23:48Z</time>
      </trkpt>
      <trkpt lat="44.6681470" lon="7.2937460">
        <ele>604.6</ele>
        <time>2017-07-25T09:23:51Z</time>
      </trkpt>
      <trkpt lat="44.6683460" lon="7.2932700">
        <ele>605.6</ele>
        <time>2017-07-25T09:23:57Z</time>
      </trkpt>
      <trkpt lat="44.6685530" lon="7.2926910">
        <ele>606.6</ele>
        <time>2017-07-25T09:24:04Z</time>
      </trkpt>
      <trkpt lat="44.6686090" lon="7.2925240">
        <ele>607.0</ele>
        <time>2017-07-25T09:24:06Z</time>
      </trkpt>
      <trkpt lat="44.6687540" lon="7.2920050">
        <ele>607.8</ele>
        <time>2017-07-25T09:24:12Z</time>
      </trkpt>
      <trkpt lat="44.6687990" lon="7.2918310">
        <ele>608.0</ele>
        <time>2017-07-25T09:24:14Z</time>
      </trkpt>
      <trkpt lat="44.6689690" lon="7.2911000">
        <ele>608.8</ele>
        <time>2017-07-25T09:24:22Z</time>
      </trkpt>
      <trkpt lat="44.6689900" lon="7.2910030">
        <ele>609.0</ele>
        <time>2017-07-25T09:24:23Z</time>
      </trkpt>
      <trkpt lat="44.6691500" lon="7.2902890">
        <ele>609.0</ele>
        <time>2017-07-25T09:24:30Z</time>
      </trkpt>
      <trkpt lat="44.6693320" lon="7.2895410">
        <ele>609.4</ele>
        <time>2017-07-25T09:24:37Z</time>
      </trkpt>
      <trkpt lat="44.6695060" lon="7.2887720">
        <ele>609.6</ele>
        <time>2017-07-25T09:24:44Z</time>
      </trkpt>
      <trkpt lat="44.6696300" lon="7.2882340">
        <ele>609.8</ele>
        <time>2017-07-25T09:24:49Z</time>
      </trkpt>
      <trkpt lat="44.6698520" lon="7.2875180">
        <ele>609.4</ele>
        <time>2017-07-25T09:24:56Z</time>
      </trkpt>
      <trkpt lat="44.6698960" lon="7.2874250">
        <ele>609.6</ele>
        <time>2017-07-25T09:24:57Z</time>
      </trkpt>
      <trkpt lat="44.6701540" lon="7.2870120">
        <ele>609.8</ele>
        <time>2017-07-25T09:25:02Z</time>
      </trkpt>
      <trkpt lat="44.6704710" lon="7.2866820">
        <ele>609.6</ele>
        <time>2017-07-25T09:25:07Z</time>
      </trkpt>
      <trkpt lat="44.6709510" lon="7.2862570">
        <ele>608.6</ele>
        <time>2017-07-25T09:25:14Z</time>
      </trkpt>
      <trkpt lat="44.6710200" lon="7.2861950">
        <ele>608.4</ele>
        <time>2017-07-25T09:25:15Z</time>
      </trkpt>
      <trkpt lat="44.6712980" lon="7.2859520">
        <ele>607.8</ele>
        <time>2017-07-25T09:25:19Z</time>
      </trkpt>
      <trkpt lat="44.6717230" lon="7.2855810">
        <ele>606.4</ele>
        <time>2017-07-25T09:25:25Z</time>
      </trkpt>
      <trkpt lat="44.6717920" lon="7.2855200">
        <ele>605.2</ele>
        <time>2017-07-25T09:25:26Z</time>
      </trkpt>
      <trkpt lat="44.6719370" lon="7.2854010">
        <ele>606.4</ele>
        <time>2017-07-25T09:25:28Z</time>
      </trkpt>
      <trkpt lat="44.6720090" lon="7.2853440">
        <ele>605.0</ele>
        <time>2017-07-25T09:25:29Z</time>
      </trkpt>
      <trkpt lat="44.6722170" lon="7.2851670">
        <ele>606.4</ele>
        <time>2017-07-25T09:25:32Z</time>
      </trkpt>
      <trkpt lat="44.6723510" lon="7.2850550">
        <ele>606.4</ele>
        <time>2017-07-25T09:25:34Z</time>
      </trkpt>
      <trkpt lat="44.6727810" lon="7.2846640">
        <ele>606.8</ele>
        <time>2017-07-25T09:25:41Z</time>
      </trkpt>
      <trkpt lat="44.6729610" lon="7.2845060">
        <ele>607.6</ele>
        <time>2017-07-25T09:25:44Z</time>
      </trkpt>
      <trkpt lat="44.6732530" lon="7.2842460">
        <ele>608.6</ele>
        <time>2017-07-25T09:25:49Z</time>
      </trkpt>
      <trkpt lat="44.6734840" lon="7.2840370">
        <ele>609.6</ele>
        <time>2017-07-25T09:25:53Z</time>
      </trkpt>
      <trkpt lat="44.6736460" lon="7.2838910">
        <ele>610.2</ele>
        <time>2017-07-25T09:25:56Z</time>
      </trkpt>
      <trkpt lat="44.6737580" lon="7.2837930">
        <ele>610.8</ele>
        <time>2017-07-25T09:25:58Z</time>
      </trkpt>
      <trkpt lat="44.6740380" lon="7.2835540">
        <ele>612.0</ele>
        <time>2017-07-25T09:26:03Z</time>
      </trkpt>
      <trkpt lat="44.6742020" lon="7.2834020">
        <ele>612.6</ele>
        <time>2017-07-25T09:26:06Z</time>
      </trkpt>
      <trkpt lat="44.6745170" lon="7.2831010">
        <ele>613.0</ele>
        <time>2017-07-25T09:26:12Z</time>
      </trkpt>
      <trkpt lat="44.6746170" lon="7.2830050">
        <ele>613.2</ele>
        <time>2017-07-25T09:26:14Z</time>
      </trkpt>
      <trkpt lat="44.6750350" lon="7.2825140">
        <ele>614.2</ele>
        <time>2017-07-25T09:26:23Z</time>
      </trkpt>
      <trkpt lat="44.6753530" lon="7.2821000">
        <ele>615.2</ele>
        <time>2017-07-25T09:26:30Z</time>
      </trkpt>
      <trkpt lat="44.6753980" lon="7.2820390">
        <ele>615.4</ele>
        <time>2017-07-25T09:26:31Z</time>
      </trkpt>
      <trkpt lat="44.6755730" lon="7.2817910">
        <ele>616.4</ele>
        <time>2017-07-25T09:26:35Z</time>
      </trkpt>
      <trkpt lat="44.6757420" lon="7.2815420">
        <ele>617.4</ele>
        <time>2017-07-25T09:26:39Z</time>
      </trkpt>
      <trkpt lat="44.6757840" lon="7.2814800">
        <ele>617.6</ele>
        <time>2017-07-25T09:26:40Z</time>
      </trkpt>
      <trkpt lat="44.6759440" lon="7.2812310">
        <ele>618.8</ele>
        <time>2017-07-25T09:26:44Z</time>
      </trkpt>
      <trkpt lat="44.6761470" lon="7.2809210">
        <ele>620.0</ele>
        <time>2017-07-25T09:26:49Z</time>
      </trkpt>
      <trkpt lat="44.6761880" lon="7.2808590">
        <ele>620.2</ele>
        <time>2017-07-25T09:26:50Z</time>
      </trkpt>
      <trkpt lat="44.6763150" lon="7.2806730">
        <ele>621.0</ele>
        <time>2017-07-25T09:26:53Z</time>
      </trkpt>
      <trkpt lat="44.6765120" lon="7.2803710">
        <ele>622.2</ele>
        <time>2017-07-25T09:26:58Z</time>
      </trkpt>
      <trkpt lat="44.6765900" lon="7.2802510">
        <ele>622.6</ele>
        <time>2017-07-25T09:27:00Z</time>
      </trkpt>
      <trkpt lat="44.6766990" lon="7.2800690">
        <ele>623.4</ele>
        <time>2017-07-25T09:27:03Z</time>
      </trkpt>
      <trkpt lat="44.6768320" lon="7.2798360">
        <ele>624.6</ele>
        <time>2017-07-25T09:27:07Z</time>
      </trkpt>
      <trkpt lat="44.6769310" lon="7.2796560">
        <ele>625.6</ele>
        <time>2017-07-25T09:27:10Z</time>
      </trkpt>
      <trkpt lat="44.6769640" lon="7.2795950">
        <ele>625.8</ele>
        <time>2017-07-25T09:27:11Z</time>
      </trkpt>
      <trkpt lat="44.6770600" lon="7.2794120">
        <ele>626.6</ele>
        <time>2017-07-25T09:27:14Z</time>
      </trkpt>
      <trkpt lat="44.6770940" lon="7.2793510">
        <ele>627.0</ele>
        <time>2017-07-25T09:27:15Z</time>
      </trkpt>
      <trkpt lat="44.6772210" lon="7.2791030">
        <ele>628.0</ele>
        <time>2017-07-25T09:27:19Z</time>
      </trkpt>
      <trkpt lat="44.6772640" lon="7.2790540">
        <ele>628.4</ele>
        <time>2017-07-25T09:27:20Z</time>
      </trkpt>
      <trkpt lat="44.6773110" lon="7.2790150">
        <ele>628.6</ele>
        <time>2017-07-25T09:27:21Z</time>
      </trkpt>
      <trkpt lat="44.6775920" lon="7.2787230">
        <ele>628.8</ele>
        <time>2017-07-25T09:27:27Z</time>
      </trkpt>
      <trkpt lat="44.6776340" lon="7.2786610">
        <ele>628.8</ele>
        <time>2017-07-25T09:27:28Z</time>
      </trkpt>
      <trkpt lat="44.6777160" lon="7.2785340">
        <ele>629.2</ele>
        <time>2017-07-25T09:27:30Z</time>
      </trkpt>
      <trkpt lat="44.6777950" lon="7.2784100">
        <ele>629.6</ele>
        <time>2017-07-25T09:27:32Z</time>
      </trkpt>
      <trkpt lat="44.6779470" lon="7.2781520">
        <ele>630.2</ele>
        <time>2017-07-25T09:27:36Z</time>
      </trkpt>
      <trkpt lat="44.6780700" lon="7.2779620">
        <ele>630.6</ele>
        <time>2017-07-25T09:27:39Z</time>
      </trkpt>
      <trkpt lat="44.6782020" lon="7.2777710">
        <ele>631.2</ele>
        <time>2017-07-25T09:27:42Z</time>
      </trkpt>
      <trkpt lat="44.6783700" lon="7.2775180">
        <ele>632.0</ele>
        <time>2017-07-25T09:27:46Z</time>
      </trkpt>
      <trkpt lat="44.6784110" lon="7.2774540">
        <ele>632.4</ele>
        <time>2017-07-25T09:27:47Z</time>
      </trkpt>
      <trkpt lat="44.6785710" lon="7.2772010">
        <ele>633.4</ele>
        <time>2017-07-25T09:27:51Z</time>
      </trkpt>
      <trkpt lat="44.6787200" lon="7.2769580">
        <ele>634.4</ele>
        <time>2017-07-25T09:27:55Z</time>
      </trkpt>
      <trkpt lat="44.6788980" lon="7.2766680">
        <ele>635.6</ele>
        <time>2017-07-25T09:28:00Z</time>
      </trkpt>
      <trkpt lat="44.6789320" lon="7.2766310">
        <ele>635.6</ele>
        <time>2017-07-25T09:28:01Z</time>
      </trkpt>
      <trkpt lat="44.6789760" lon="7.2766110">
        <ele>635.8</ele>
        <time>2017-07-25T09:28:02Z</time>
      </trkpt>
      <trkpt lat="44.6791440" lon="7.2765810">
        <ele>636.2</ele>
        <time>2017-07-25T09:28:05Z</time>
      </trkpt>
      <trkpt lat="44.6792070" lon="7.2765770">
        <ele>636.4</ele>
        <time>2017-07-25T09:28:06Z</time>
      </trkpt>
      <trkpt lat="44.6792750" lon="7.2765700">
        <ele>636.8</ele>
        <time>2017-07-25T09:28:07Z</time>
      </trkpt>
      <trkpt lat="44.6796250" lon="7.2765830">
        <ele>637.0</ele>
        <time>2017-07-25T09:28:12Z</time>
      </trkpt>
      <trkpt lat="44.6800460" lon="7.2766320">
        <ele>636.2</ele>
        <time>2017-07-25T09:28:17Z</time>
      </trkpt>
      <trkpt lat="44.6801270" lon="7.2766450">
        <ele>636.0</ele>
        <time>2017-07-25T09:28:18Z</time>
      </trkpt>
      <trkpt lat="44.6802770" lon="7.2766680">
        <ele>635.8</ele>
        <time>2017-07-25T09:28:20Z</time>
      </trkpt>
      <trkpt lat="44.6803520" lon="7.2766760">
        <ele>635.6</ele>
        <time>2017-07-25T09:28:21Z</time>
      </trkpt>
      <trkpt lat="44.6806370" lon="7.2766980">
        <ele>635.0</ele>
        <time>2017-07-25T09:28:25Z</time>
      </trkpt>
      <trkpt lat="44.6807740" lon="7.2767120">
        <ele>634.6</ele>
        <time>2017-07-25T09:28:27Z</time>
      </trkpt>
      <trkpt lat="44.6812670" lon="7.2767700">
        <ele>634.0</ele>
        <time>2017-07-25T09:28:34Z</time>
      </trkpt>
      <trkpt lat="44.6816950" lon="7.2768050">
        <ele>633.4</ele>
        <time>2017-07-25T09:28:40Z</time>
      </trkpt>
      <trkpt lat="44.6818380" lon="7.2768200">
        <ele>633.2</ele>
        <time>2017-07-25T09:28:42Z</time>
      </trkpt>
      <trkpt lat="44.6823170" lon="7.2768550">
        <ele>633.4</ele>
        <time>2017-07-25T09:28:49Z</time>
      </trkpt>
      <trkpt lat="44.6829130" lon="7.2769230">
        <ele>633.4</ele>
        <time>2017-07-25T09:28:58Z</time>
      </trkpt>
      <trkpt lat="44.6833800" lon="7.2769860">
        <ele>634.2</ele>
        <time>2017-07-25T09:29:05Z</time>
      </trkpt>
      <trkpt lat="44.6835160" lon="7.2770060">
        <ele>634.4</ele>
        <time>2017-07-25T09:29:07Z</time>
      </trkpt>
      <trkpt lat="44.6837970" lon="7.2770300">
        <ele>634.8</ele>
        <time>2017-07-25T09:29:11Z</time>
      </trkpt>
      <trkpt lat="44.6838700" lon="7.2769990">
        <ele>635.0</ele>
        <time>2017-07-25T09:29:12Z</time>
      </trkpt>
      <trkpt lat="44.6840570" lon="7.2768740">
        <ele>634.6</ele>
        <time>2017-07-25T09:29:15Z</time>
      </trkpt>
      <trkpt lat="44.6841160" lon="7.2768320">
        <ele>634.8</ele>
        <time>2017-07-25T09:29:16Z</time>
      </trkpt>
      <trkpt lat="44.6842870" lon="7.2767230">
        <ele>635.6</ele>
        <time>2017-07-25T09:29:19Z</time>
      </trkpt>
      <trkpt lat="44.6844500" lon="7.2766380">
        <ele>636.4</ele>
        <time>2017-07-25T09:29:22Z</time>
      </trkpt>
      <trkpt lat="44.6845080" lon="7.2766100">
        <ele>637.0</ele>
        <time>2017-07-25T09:29:23Z</time>
      </trkpt>
      <trkpt lat="44.6846910" lon="7.2765450">
        <ele>638.2</ele>
        <time>2017-07-25T09:29:26Z</time>
      </trkpt>
      <trkpt lat="44.6848220" lon="7.2765000">
        <ele>639.4</ele>
        <time>2017-07-25T09:29:28Z</time>
      </trkpt>
      <trkpt lat="44.6848930" lon="7.2764720">
        <ele>639.6</ele>
        <time>2017-07-25T09:29:29Z</time>
      </trkpt>
      <trkpt lat="44.6850960" lon="7.2764100">
        <ele>640.6</ele>
        <time>2017-07-25T09:29:32Z</time>
      </trkpt>
      <trkpt lat="44.6853760" lon="7.2763490">
        <ele>640.8</ele>
        <time>2017-07-25T09:29:36Z</time>
      </trkpt>
      <trkpt lat="44.6854470" lon="7.2763440">
        <ele>641.0</ele>
        <time>2017-07-25T09:29:37Z</time>
      </trkpt>
      <trkpt lat="44.6855910" lon="7.2763390">
        <ele>641.0</ele>
        <time>2017-07-25T09:29:39Z</time>
      </trkpt>
      <trkpt lat="44.6856570" lon="7.2763690">
        <ele>641.0</ele>
        <time>2017-07-25T09:29:40Z</time>
      </trkpt>
      <trkpt lat="44.6857820" lon="7.2764400">
        <ele>641.6</ele>
        <time>2017-07-25T09:29:42Z</time>
      </trkpt>
      <trkpt lat="44.6859700" lon="7.2765480">
        <ele>642.2</ele>
        <time>2017-07-25T09:29:45Z</time>
      </trkpt>
      <trkpt lat="44.6862810" lon="7.2766930">
        <ele>642.6</ele>
        <time>2017-07-25T09:29:50Z</time>
      </trkpt>
      <trkpt lat="44.6863470" lon="7.2767230">
        <ele>642.8</ele>
        <time>2017-07-25T09:29:51Z</time>
      </trkpt>
      <trkpt lat="44.6867820" lon="7.2768910">
        <ele>643.4</ele>
        <time>2017-07-25T09:29:58Z</time>
      </trkpt>
      <trkpt lat="44.6868410" lon="7.2769240">
        <ele>643.6</ele>
        <time>2017-07-25T09:29:59Z</time>
      </trkpt>
      <trkpt lat="44.6869310" lon="7.2769910">
        <ele>643.6</ele>
        <time>2017-07-25T09:30:00Z</time>
      </trkpt>
      <trkpt lat="44.6870800" lon="7.2771400">
        <ele>643.2</ele>
        <time>2017-07-25T09:30:02Z</time>
      </trkpt>
      <trkpt lat="44.6871380" lon="7.2772290">
        <ele>643.0</ele>
        <time>2017-07-25T09:30:03Z</time>
      </trkpt>
      <trkpt lat="44.6872380" lon="7.2774250">
        <ele>643.2</ele>
        <time>2017-07-25T09:30:05Z</time>
      </trkpt>
      <trkpt lat="44.6872310" lon="7.2778320">
        <ele>642.6</ele>
        <time>2017-07-25T09:30:08Z</time>
      </trkpt>
      <trkpt lat="44.6872650" lon="7.2781960">
        <ele>641.6</ele>
        <time>2017-07-25T09:30:11Z</time>
      </trkpt>
      <trkpt lat="44.6873170" lon="7.2784250">
        <ele>641.2</ele>
        <time>2017-07-25T09:30:13Z</time>
      </trkpt>
      <trkpt lat="44.6873610" lon="7.2785300">
        <ele>641.0</ele>
        <time>2017-07-25T09:30:14Z</time>
      </trkpt>
      <trkpt lat="44.6874130" lon="7.2786300">
        <ele>640.6</ele>
        <time>2017-07-25T09:30:15Z</time>
      </trkpt>
      <trkpt lat="44.6875250" lon="7.2788230">
        <ele>640.2</ele>
        <time>2017-07-25T09:30:17Z</time>
      </trkpt>
      <trkpt lat="44.6875840" lon="7.2789130">
        <ele>640.2</ele>
        <time>2017-07-25T09:30:18Z</time>
      </trkpt>
      <trkpt lat="44.6877550" lon="7.2791710">
        <ele>640.0</ele>
        <time>2017-07-25T09:30:21Z</time>
      </trkpt>
      <trkpt lat="44.6878780" lon="7.2792990">
        <ele>640.2</ele>
        <time>2017-07-25T09:30:23Z</time>
      </trkpt>
      <trkpt lat="44.6883920" lon="7.2797110">
        <ele>640.4</ele>
        <time>2017-07-25T09:30:31Z</time>
      </trkpt>
      <trkpt lat="44.6886310" lon="7.2799380">
        <ele>640.6</ele>
        <time>2017-07-25T09:30:35Z</time>
      </trkpt>
      <trkpt lat="44.6887430" lon="7.2800890">
        <ele>640.6</ele>
        <time>2017-07-25T09:30:37Z</time>
      </trkpt>
      <trkpt lat="44.6889740" lon="7.2805380">
        <ele>640.0</ele>
        <time>2017-07-25T09:30:42Z</time>
      </trkpt>
      <trkpt lat="44.6890400" lon="7.2807390">
        <ele>639.2</ele>
        <time>2017-07-25T09:30:44Z</time>
      </trkpt>
      <trkpt lat="44.6891830" lon="7.2810140">
        <ele>638.2</ele>
        <time>2017-07-25T09:30:47Z</time>
      </trkpt>
      <trkpt lat="44.6892200" lon="7.2811280">
        <ele>638.0</ele>
        <time>2017-07-25T09:30:48Z</time>
      </trkpt>
      <trkpt lat="44.6892780" lon="7.2813660">
        <ele>637.2</ele>
        <time>2017-07-25T09:30:50Z</time>
      </trkpt>
      <trkpt lat="44.6893090" lon="7.2814860">
        <ele>636.8</ele>
        <time>2017-07-25T09:30:51Z</time>
      </trkpt>
      <trkpt lat="44.6894070" lon="7.2818590">
        <ele>635.6</ele>
        <time>2017-07-25T09:30:54Z</time>
      </trkpt>
      <trkpt lat="44.6895040" lon="7.2822570">
        <ele>634.2</ele>
        <time>2017-07-25T09:30:57Z</time>
      </trkpt>
      <trkpt lat="44.6895220" lon="7.2824010">
        <ele>633.8</ele>
        <time>2017-07-25T09:30:58Z</time>
      </trkpt>
      <trkpt lat="44.6895310" lon="7.2826960">
        <ele>633.0</ele>
        <time>2017-07-25T09:31:00Z</time>
      </trkpt>
      <trkpt lat="44.6895400" lon="7.2831370">
        <ele>631.2</ele>
        <time>2017-07-25T09:31:03Z</time>
      </trkpt>
      <trkpt lat="44.6895460" lon="7.2835760">
        <ele>630.0</ele>
        <time>2017-07-25T09:31:06Z</time>
      </trkpt>
      <trkpt lat="44.6895600" lon="7.2840130">
        <ele>629.4</ele>
        <time>2017-07-25T09:31:09Z</time>
      </trkpt>
      <trkpt lat="44.6895730" lon="7.2843100">
        <ele>628.8</ele>
        <time>2017-07-25T09:31:11Z</time>
      </trkpt>
      <trkpt lat="44.6896370" lon="7.2849020">
        <ele>627.8</ele>
        <time>2017-07-25T09:31:15Z</time>
      </trkpt>
      <trkpt lat="44.6897190" lon="7.2854890">
        <ele>626.6</ele>
        <time>2017-07-25T09:31:19Z</time>
      </trkpt>
      <trkpt lat="44.6897700" lon="7.2857760">
        <ele>625.6</ele>
        <time>2017-07-25T09:31:21Z</time>
      </trkpt>
      <trkpt lat="44.6897920" lon="7.2859200">
        <ele>625.4</ele>
        <time>2017-07-25T09:31:22Z</time>
      </trkpt>
      <trkpt lat="44.6898750" lon="7.2863350">
        <ele>624.2</ele>
        <time>2017-07-25T09:31:25Z</time>
      </trkpt>
      <trkpt lat="44.6899550" lon="7.2865980">
        <ele>623.2</ele>
        <time>2017-07-25T09:31:27Z</time>
      </trkpt>
      <trkpt lat="44.6900000" lon="7.2867250">
        <ele>622.8</ele>
        <time>2017-07-25T09:31:28Z</time>
      </trkpt>
      <trkpt lat="44.6902030" lon="7.2871960">
        <ele>621.8</ele>
        <time>2017-07-25T09:31:32Z</time>
      </trkpt>
      <trkpt lat="44.6904470" lon="7.2876220">
        <ele>620.8</ele>
        <time>2017-07-25T09:31:36Z</time>
      </trkpt>
      <trkpt lat="44.6905840" lon="7.2878170">
        <ele>620.0</ele>
        <time>2017-07-25T09:31:38Z</time>
      </trkpt>
      <trkpt lat="44.6907310" lon="7.2879960">
        <ele>619.6</ele>
        <time>2017-07-25T09:31:40Z</time>
      </trkpt>
      <trkpt lat="44.6910230" lon="7.2883410">
        <ele>618.8</ele>
        <time>2017-07-25T09:31:44Z</time>
      </trkpt>
      <trkpt lat="44.6910940" lon="7.2884260">
        <ele>618.6</ele>
        <time>2017-07-25T09:31:45Z</time>
      </trkpt>
      <trkpt lat="44.6913570" lon="7.2888020">
        <ele>617.4</ele>
        <time>2017-07-25T09:31:49Z</time>
      </trkpt>
      <trkpt lat="44.6914190" lon="7.2888960">
        <ele>617.2</ele>
        <time>2017-07-25T09:31:50Z</time>
      </trkpt>
      <trkpt lat="44.6915970" lon="7.2891870">
        <ele>616.4</ele>
        <time>2017-07-25T09:31:53Z</time>
      </trkpt>
      <trkpt lat="44.6917690" lon="7.2894730">
        <ele>615.8</ele>
        <time>2017-07-25T09:31:56Z</time>
      </trkpt>
      <trkpt lat="44.6920910" lon="7.2899980">
        <ele>615.4</ele>
        <time>2017-07-25T09:32:02Z</time>
      </trkpt>
      <trkpt lat="44.6921330" lon="7.2900830">
        <ele>615.6</ele>
        <time>2017-07-25T09:32:03Z</time>
      </trkpt>
      <trkpt lat="44.6922490" lon="7.2903480">
        <ele>616.4</ele>
        <time>2017-07-25T09:32:06Z</time>
      </trkpt>
      <trkpt lat="44.6922980" lon="7.2905360">
        <ele>617.2</ele>
        <time>2017-07-25T09:32:08Z</time>
      </trkpt>
      <trkpt lat="44.6923110" lon="7.2906280">
        <ele>617.6</ele>
        <time>2017-07-25T09:32:09Z</time>
      </trkpt>
      <trkpt lat="44.6923280" lon="7.2907180">
        <ele>618.0</ele>
        <time>2017-07-25T09:32:10Z</time>
      </trkpt>
      <trkpt lat="44.6923820" lon="7.2908770">
        <ele>618.8</ele>
        <time>2017-07-25T09:32:12Z</time>
      </trkpt>
      <trkpt lat="44.6924160" lon="7.2909540">
        <ele>618.8</ele>
        <time>2017-07-25T09:32:13Z</time>
      </trkpt>
      <trkpt lat="44.6925670" lon="7.2912050">
        <ele>619.6</ele>
        <time>2017-07-25T09:32:17Z</time>
      </trkpt>
      <trkpt lat="44.6926090" lon="7.2912570">
        <ele>619.8</ele>
        <time>2017-07-25T09:32:18Z</time>
      </trkpt>
      <trkpt lat="44.6928910" lon="7.2914780">
        <ele>619.8</ele>
        <time>2017-07-25T09:32:24Z</time>
      </trkpt>
      <trkpt lat="44.6931170" lon="7.2916020">
        <ele>621.0</ele>
        <time>2017-07-25T09:32:29Z</time>
      </trkpt>
      <trkpt lat="44.6932080" lon="7.2916530">
        <ele>621.4</ele>
        <time>2017-07-25T09:32:31Z</time>
      </trkpt>
      <trkpt lat="44.6932500" lon="7.2916880">
        <ele>621.4</ele>
        <time>2017-07-25T09:32:32Z</time>
      </trkpt>
      <trkpt lat="44.6933880" lon="7.2918370">
        <ele>622.2</ele>
        <time>2017-07-25T09:32:35Z</time>
      </trkpt>
      <trkpt lat="44.6934320" lon="7.2918940">
        <ele>622.2</ele>
        <time>2017-07-25T09:32:36Z</time>
      </trkpt>
      <trkpt lat="44.6935010" lon="7.2920550">
        <ele>623.0</ele>
        <time>2017-07-25T09:32:38Z</time>
      </trkpt>
      <trkpt lat="44.6935180" lon="7.2921470">
        <ele>623.2</ele>
        <time>2017-07-25T09:32:39Z</time>
      </trkpt>
      <trkpt lat="44.6935370" lon="7.2922350">
        <ele>623.2</ele>
        <time>2017-07-25T09:32:40Z</time>
      </trkpt>
      <trkpt lat="44.6936960" lon="7.2930390">
        <ele>623.6</ele>
        <time>2017-07-25T09:32:49Z</time>
      </trkpt>
      <trkpt lat="44.6938360" lon="7.2937430">
        <ele>623.6</ele>
        <time>2017-07-25T09:32:57Z</time>
      </trkpt>
      <trkpt lat="44.6939970" lon="7.2943490">
        <ele>623.4</ele>
        <time>2017-07-25T09:33:04Z</time>
      </trkpt>
      <trkpt lat="44.6940360" lon="7.2944220">
        <ele>623.2</ele>
        <time>2017-07-25T09:33:05Z</time>
      </trkpt>
      <trkpt lat="44.6943390" lon="7.2947850">
        <ele>623.4</ele>
        <time>2017-07-25T09:33:11Z</time>
      </trkpt>
      <trkpt lat="44.6948480" lon="7.2952190">
        <ele>624.0</ele>
        <time>2017-07-25T09:33:20Z</time>
      </trkpt>
      <trkpt lat="44.6953130" lon="7.2956620">
        <ele>623.8</ele>
        <time>2017-07-25T09:33:29Z</time>
      </trkpt>
      <trkpt lat="44.6955540" lon="7.2960070">
        <ele>624.2</ele>
        <time>2017-07-25T09:33:35Z</time>
      </trkpt>
      <trkpt lat="44.6955940" lon="7.2960620">
        <ele>624.2</ele>
        <time>2017-07-25T09:33:36Z</time>
      </trkpt>
      <trkpt lat="44.6958290" lon="7.2963700">
        <ele>625.2</ele>
        <time>2017-07-25T09:33:42Z</time>
      </trkpt>
      <trkpt lat="44.6959450" lon="7.2964920">
        <ele>625.8</ele>
        <time>2017-07-25T09:33:45Z</time>
      </trkpt>
      <trkpt lat="44.6960200" lon="7.2965710">
        <ele>626.4</ele>
        <time>2017-07-25T09:33:47Z</time>
      </trkpt>
      <trkpt lat="44.6961720" lon="7.2967230">
        <ele>627.8</ele>
        <time>2017-07-25T09:33:51Z</time>
      </trkpt>
      <trkpt lat="44.6962900" lon="7.2968270">
        <ele>629.0</ele>
        <time>2017-07-25T09:33:54Z</time>
      </trkpt>
      <trkpt lat="44.6964040" lon="7.2969380">
        <ele>630.2</ele>
        <time>2017-07-25T09:33:57Z</time>
      </trkpt>
      <trkpt lat="44.6965160" lon="7.2970350">
        <ele>631.2</ele>
        <time>2017-07-25T09:34:00Z</time>
      </trkpt>
      <trkpt lat="44.6965520" lon="7.2970630">
        <ele>631.6</ele>
        <time>2017-07-25T09:34:01Z</time>
      </trkpt>
      <trkpt lat="44.6965900" lon="7.2970820">
        <ele>632.0</ele>
        <time>2017-07-25T09:34:02Z</time>
      </trkpt>
      <trkpt lat="44.6966300" lon="7.2970950">
        <ele>632.4</ele>
        <time>2017-07-25T09:34:03Z</time>
      </trkpt>
      <trkpt lat="44.6967110" lon="7.2971200">
        <ele>633.4</ele>
        <time>2017-07-25T09:34:05Z</time>
      </trkpt>
      <trkpt lat="44.6967520" lon="7.2971380">
        <ele>633.4</ele>
        <time>2017-07-25T09:34:06Z</time>
      </trkpt>
      <trkpt lat="44.6967970" lon="7.2971510">
        <ele>633.8</ele>
        <time>2017-07-25T09:34:07Z</time>
      </trkpt>
      <trkpt lat="44.6969010" lon="7.2971620">
        <ele>634.8</ele>
        <time>2017-07-25T09:34:09Z</time>
      </trkpt>
      <trkpt lat="44.6969550" lon="7.2971620">
        <ele>635.0</ele>
        <time>2017-07-25T09:34:10Z</time>
      </trkpt>
      <trkpt lat="44.6970050" lon="7.2971580">
        <ele>635.4</ele>
        <time>2017-07-25T09:34:11Z</time>
      </trkpt>
      <trkpt lat="44.6971030" lon="7.2971350">
        <ele>635.8</ele>
        <time>2017-07-25T09:34:13Z</time>
      </trkpt>
      <trkpt lat="44.6972220" lon="7.2971130">
        <ele>636.6</ele>
        <time>2017-07-25T09:34:16Z</time>
      </trkpt>
      <trkpt lat="44.6972450" lon="7.2971050">
        <ele>636.8</ele>
        <time>2017-07-25T09:34:17Z</time>
      </trkpt>
      <trkpt lat="44.6972580" lon="7.2970960">
        <ele>637.2</ele>
        <time>2017-07-25T09:34:18Z</time>
      </trkpt>
      <trkpt lat="44.6972880" lon="7.2971230">
        <ele>639.2</ele>
        <time>2017-07-25T09:35:01Z</time>
      </trkpt>
      <trkpt lat="44.6973070" lon="7.2971240">
        <ele>639.4</ele>
        <time>2017-07-25T09:35:02Z</time>
      </trkpt>
      <trkpt lat="44.6973560" lon="7.2971120">
        <ele>639.6</ele>
        <time>2017-07-25T09:35:04Z</time>
      </trkpt>
      <trkpt lat="44.6974850" lon="7.2971110">
        <ele>640.6</ele>
        <time>2017-07-25T09:35:08Z</time>
      </trkpt>
      <trkpt lat="44.6975220" lon="7.2971070">
        <ele>640.8</ele>
        <time>2017-07-25T09:35:09Z</time>
      </trkpt>
      <trkpt lat="44.6976750" lon="7.2971400">
        <ele>641.6</ele>
        <time>2017-07-25T09:35:13Z</time>
      </trkpt>
      <trkpt lat="44.6977100" lon="7.2971620">
        <ele>641.6</ele>
        <time>2017-07-25T09:35:14Z</time>
      </trkpt>
      <trkpt lat="44.6978920" lon="7.2973220">
        <ele>642.8</ele>
        <time>2017-07-25T09:35:20Z</time>
      </trkpt>
      <trkpt lat="44.6979940" lon="7.2974250">
        <ele>643.8</ele>
        <time>2017-07-25T09:35:24Z</time>
      </trkpt>
      <trkpt lat="44.6980620" lon="7.2974920">
        <ele>645.2</ele>
        <time>2017-07-25T09:35:27Z</time>
      </trkpt>
      <trkpt lat="44.6981300" lon="7.2975450">
        <ele>646.2</ele>
        <time>2017-07-25T09:35:30Z</time>
      </trkpt>
      <trkpt lat="44.6982320" lon="7.2976090">
        <ele>647.6</ele>
        <time>2017-07-25T09:35:34Z</time>
      </trkpt>
      <trkpt lat="44.6983030" lon="7.2976560">
        <ele>648.8</ele>
        <time>2017-07-25T09:35:37Z</time>
      </trkpt>
      <trkpt lat="44.6983630" lon="7.2976880">
        <ele>650.0</ele>
        <time>2017-07-25T09:35:40Z</time>
      </trkpt>
      <trkpt lat="44.6984000" lon="7.2977060">
        <ele>650.8</ele>
        <time>2017-07-25T09:35:42Z</time>
      </trkpt>
      <trkpt lat="44.6984220" lon="7.2977130">
        <ele>651.0</ele>
        <time>2017-07-25T09:35:43Z</time>
      </trkpt>
      <trkpt lat="44.6984970" lon="7.2977270">
        <ele>652.2</ele>
        <time>2017-07-25T09:35:46Z</time>
      </trkpt>
      <trkpt lat="44.6986130" lon="7.2977360">
        <ele>652.6</ele>
        <time>2017-07-25T09:35:49Z</time>
      </trkpt>
      <trkpt lat="44.6988020" lon="7.2976710">
        <ele>653.0</ele>
        <time>2017-07-25T09:35:53Z</time>
      </trkpt>
      <trkpt lat="44.6988900" lon="7.2975740">
        <ele>653.2</ele>
        <time>2017-07-25T09:35:55Z</time>
      </trkpt>
      <trkpt lat="44.6989760" lon="7.2975160">
        <ele>651.8</ele>
        <time>2017-07-25T09:35:57Z</time>
      </trkpt>
      <trkpt lat="44.6991060" lon="7.2974560">
        <ele>652.6</ele>
        <time>2017-07-25T09:36:00Z</time>
      </trkpt>
      <trkpt lat="44.6991800" lon="7.2973440">
        <ele>652.8</ele>
        <time>2017-07-25T09:36:02Z</time>
      </trkpt>
      <trkpt lat="44.6992360" lon="7.2970930">
        <ele>652.6</ele>
        <time>2017-07-25T09:36:05Z</time>
      </trkpt>
      <trkpt lat="44.6992780" lon="7.2969320">
        <ele>652.4</ele>
        <time>2017-07-25T09:36:07Z</time>
      </trkpt>
      <trkpt lat="44.6993480" lon="7.2968130">
        <ele>652.2</ele>
        <time>2017-07-25T09:36:10Z</time>
      </trkpt>
      <trkpt lat="44.6994820" lon="7.2968310">
        <ele>652.4</ele>
        <time>2017-07-25T09:36:13Z</time>
      </trkpt>
      <trkpt lat="44.6995390" lon="7.2968530">
        <ele>652.4</ele>
        <time>2017-07-25T09:36:14Z</time>
      </trkpt>
      <trkpt lat="44.6998360" lon="7.2970740">
        <ele>652.0</ele>
        <time>2017-07-25T09:36:18Z</time>
      </trkpt>
      <trkpt lat="44.6999900" lon="7.2972280">
        <ele>651.8</ele>
        <time>2017-07-25T09:36:20Z</time>
      </trkpt>
      <trkpt lat="44.7000540" lon="7.2972770">
        <ele>651.6</ele>
        <time>2017-07-25T09:36:21Z</time>
      </trkpt>
      <trkpt lat="44.7001130" lon="7.2972880">
        <ele>651.6</ele>
        <time>2017-07-25T09:36:22Z</time>
      </trkpt>
      <trkpt lat="44.7002860" lon="7.2971920">
        <ele>651.0</ele>
        <time>2017-07-25T09:36:26Z</time>
      </trkpt>
      <trkpt lat="44.7003420" lon="7.2970440">
        <ele>650.2</ele>
        <time>2017-07-25T09:36:28Z</time>
      </trkpt>
      <trkpt lat="44.7003790" lon="7.2969480">
        <ele>650.0</ele>
        <time>2017-07-25T09:36:29Z</time>
      </trkpt>
      <trkpt lat="44.7005020" lon="7.2966540">
        <ele>649.2</ele>
        <time>2017-07-25T09:36:32Z</time>
      </trkpt>
      <trkpt lat="44.7006060" lon="7.2965080">
        <ele>648.6</ele>
        <time>2017-07-25T09:36:34Z</time>
      </trkpt>
      <trkpt lat="44.7006710" lon="7.2964520">
        <ele>648.2</ele>
        <time>2017-07-25T09:36:35Z</time>
      </trkpt>
      <trkpt lat="44.7007950" lon="7.2963450">
        <ele>647.2</ele>
        <time>2017-07-25T09:36:37Z</time>
      </trkpt>
      <trkpt lat="44.7008530" lon="7.2963080">
        <ele>646.8</ele>
        <time>2017-07-25T09:36:38Z</time>
      </trkpt>
      <trkpt lat="44.7009090" lon="7.2962990">
        <ele>646.2</ele>
        <time>2017-07-25T09:36:39Z</time>
      </trkpt>
      <trkpt lat="44.7009630" lon="7.2963170">
        <ele>645.4</ele>
        <time>2017-07-25T09:36:40Z</time>
      </trkpt>
      <trkpt lat="44.7010070" lon="7.2963660">
        <ele>644.6</ele>
        <time>2017-07-25T09:36:41Z</time>
      </trkpt>
      <trkpt lat="44.7010380" lon="7.2964210">
        <ele>644.2</ele>
        <time>2017-07-25T09:36:42Z</time>
      </trkpt>
      <trkpt lat="44.7010830" lon="7.2965970">
        <ele>643.4</ele>
        <time>2017-07-25T09:36:45Z</time>
      </trkpt>
      <trkpt lat="44.7010910" lon="7.2966530">
        <ele>643.0</ele>
        <time>2017-07-25T09:36:46Z</time>
      </trkpt>
      <trkpt lat="44.7011100" lon="7.2967080">
        <ele>642.6</ele>
        <time>2017-07-25T09:36:47Z</time>
      </trkpt>
      <trkpt lat="44.7011630" lon="7.2968070">
        <ele>641.8</ele>
        <time>2017-07-25T09:36:49Z</time>
      </trkpt>
      <trkpt lat="44.7013020" lon="7.2969320">
        <ele>641.0</ele>
        <time>2017-07-25T09:36:52Z</time>
      </trkpt>
      <trkpt lat="44.7014020" lon="7.2970100">
        <ele>640.6</ele>
        <time>2017-07-25T09:36:54Z</time>
      </trkpt>
      <trkpt lat="44.7014990" lon="7.2970960">
        <ele>640.6</ele>
        <time>2017-07-25T09:36:56Z</time>
      </trkpt>
      <trkpt lat="44.7016130" lon="7.2971480">
        <ele>640.2</ele>
        <time>2017-07-25T09:36:58Z</time>
      </trkpt>
      <trkpt lat="44.7018010" lon="7.2970740">
        <ele>639.2</ele>
        <time>2017-07-25T09:37:01Z</time>
      </trkpt>
      <trkpt lat="44.7019640" lon="7.2968970">
        <ele>638.8</ele>
        <time>2017-07-25T09:37:04Z</time>
      </trkpt>
      <trkpt lat="44.7020140" lon="7.2968350">
        <ele>638.8</ele>
        <time>2017-07-25T09:37:05Z</time>
      </trkpt>
      <trkpt lat="44.7022880" lon="7.2964350">
        <ele>638.8</ele>
        <time>2017-07-25T09:37:11Z</time>
      </trkpt>
      <trkpt lat="44.7024740" lon="7.2960370">
        <ele>639.8</ele>
        <time>2017-07-25T09:37:17Z</time>
      </trkpt>
      <trkpt lat="44.7025510" lon="7.2959710">
        <ele>640.2</ele>
        <time>2017-07-25T09:37:20Z</time>
      </trkpt>
      <trkpt lat="44.7025410" lon="7.2960700">
        <ele>640.0</ele>
        <time>2017-07-25T09:37:22Z</time>
      </trkpt>
      <trkpt lat="44.7025500" lon="7.2963360">
        <ele>639.0</ele>
        <time>2017-07-25T09:37:25Z</time>
      </trkpt>
      <trkpt lat="44.7026200" lon="7.2966500">
        <ele>638.0</ele>
        <time>2017-07-25T09:37:28Z</time>
      </trkpt>
      <trkpt lat="44.7026840" lon="7.2968670">
        <ele>637.4</ele>
        <time>2017-07-25T09:37:30Z</time>
      </trkpt>
      <trkpt lat="44.7027560" lon="7.2970620">
        <ele>636.8</ele>
        <time>2017-07-25T09:37:32Z</time>
      </trkpt>
      <trkpt lat="44.7028800" lon="7.2974470">
        <ele>635.8</ele>
        <time>2017-07-25T09:37:36Z</time>
      </trkpt>
      <trkpt lat="44.7029030" lon="7.2975370">
        <ele>635.8</ele>
        <time>2017-07-25T09:37:37Z</time>
      </trkpt>
      <trkpt lat="44.7029400" lon="7.2977000">
        <ele>635.4</ele>
        <time>2017-07-25T09:37:39Z</time>
      </trkpt>
      <trkpt lat="44.7029580" lon="7.2977360">
        <ele>635.4</ele>
        <time>2017-07-25T09:37:40Z</time>
      </trkpt>
      <trkpt lat="44.7029910" lon="7.2977090">
        <ele>635.6</ele>
        <time>2017-07-25T09:37:43Z</time>
      </trkpt>
      <trkpt lat="44.7030200" lon="7.2976860">
        <ele>635.8</ele>
        <time>2017-07-25T09:37:45Z</time>
      </trkpt>
      <trkpt lat="44.7030730" lon="7.2975920">
        <ele>636.2</ele>
        <time>2017-07-25T09:37:49Z</time>
      </trkpt>
      <trkpt lat="44.7031050" lon="7.2974870">
        <ele>637.2</ele>
        <time>2017-07-25T09:37:52Z</time>
      </trkpt>
      <trkpt lat="44.7031590" lon="7.2973460">
        <ele>638.2</ele>
        <time>2017-07-25T09:37:56Z</time>
      </trkpt>
      <trkpt lat="44.7032160" lon="7.2971950">
        <ele>639.4</ele>
        <time>2017-07-25T09:38:01Z</time>
      </trkpt>
      <trkpt lat="44.7032290" lon="7.2971710">
        <ele>639.6</ele>
        <time>2017-07-25T09:38:02Z</time>
      </trkpt>
      <trkpt lat="44.7033290" lon="7.2970650">
        <ele>640.6</ele>
        <time>2017-07-25T09:38:08Z</time>
      </trkpt>
      <trkpt lat="44.7033460" lon="7.2970500">
        <ele>640.8</ele>
        <time>2017-07-25T09:38:09Z</time>
      </trkpt>
      <trkpt lat="44.7034010" lon="7.2969900">
        <ele>641.8</ele>
        <time>2017-07-25T09:38:13Z</time>
      </trkpt>
      <trkpt lat="44.7034450" lon="7.2969420">
        <ele>643.2</ele>
        <time>2017-07-25T09:38:16Z</time>
      </trkpt>
      <trkpt lat="44.7034580" lon="7.2969250">
        <ele>643.6</ele>
        <time>2017-07-25T09:38:17Z</time>
      </trkpt>
      <trkpt lat="44.7034820" lon="7.2968880">
        <ele>644.2</ele>
        <time>2017-07-25T09:38:19Z</time>
      </trkpt>
      <trkpt lat="44.7035060" lon="7.2968290">
        <ele>645.8</ele>
        <time>2017-07-25T09:38:22Z</time>
      </trkpt>
      <trkpt lat="44.7035170" lon="7.2967930">
        <ele>646.6</ele>
        <time>2017-07-25T09:38:24Z</time>
      </trkpt>
      <trkpt lat="44.7035240" lon="7.2967690">
        <ele>646.8</ele>
        <time>2017-07-25T09:38:25Z</time>
      </trkpt>
      <trkpt lat="44.7035450" lon="7.2966960">
        <ele>648.2</ele>
        <time>2017-07-25T09:38:28Z</time>
      </trkpt>
      <trkpt lat="44.7035580" lon="7.2966580">
        <ele>648.8</ele>
        <time>2017-07-25T09:38:30Z</time>
      </trkpt>
      <trkpt lat="44.7035650" lon="7.2966410">
        <ele>649.2</ele>
        <time>2017-07-25T09:38:31Z</time>
      </trkpt>
      <trkpt lat="44.7035900" lon="7.2965710">
        <ele>650.4</ele>
        <time>2017-07-25T09:38:34Z</time>
      </trkpt>
      <trkpt lat="44.7036150" lon="7.2964930">
        <ele>651.8</ele>
        <time>2017-07-25T09:38:37Z</time>
      </trkpt>
      <trkpt lat="44.7036530" lon="7.2964140">
        <ele>653.0</ele>
        <time>2017-07-25T09:38:40Z</time>
      </trkpt>
      <trkpt lat="44.7037050" lon="7.2963420">
        <ele>654.2</ele>
        <time>2017-07-25T09:38:43Z</time>
      </trkpt>
      <trkpt lat="44.7037860" lon="7.2962520">
        <ele>655.4</ele>
        <time>2017-07-25T09:38:47Z</time>
      </trkpt>
      <trkpt lat="44.7038670" lon="7.2961810">
        <ele>656.6</ele>
        <time>2017-07-25T09:38:51Z</time>
      </trkpt>
      <trkpt lat="44.7039640" lon="7.2960870">
        <ele>657.8</ele>
        <time>2017-07-25T09:38:55Z</time>
      </trkpt>
      <trkpt lat="44.7040130" lon="7.2960330">
        <ele>658.0</ele>
        <time>2017-07-25T09:38:57Z</time>
      </trkpt>
      <trkpt lat="44.7040720" lon="7.2959520">
        <ele>658.6</ele>
        <time>2017-07-25T09:38:59Z</time>
      </trkpt>
      <trkpt lat="44.7041080" lon="7.2958830">
        <ele>658.8</ele>
        <time>2017-07-25T09:39:00Z</time>
      </trkpt>
      <trkpt lat="44.7041370" lon="7.2958200">
        <ele>659.0</ele>
        <time>2017-07-25T09:39:01Z</time>
      </trkpt>
      <trkpt lat="44.7042830" lon="7.2954270">
        <ele>657.6</ele>
        <time>2017-07-25T09:39:06Z</time>
      </trkpt>
      <trkpt lat="44.7043300" lon="7.2952360">
        <ele>657.4</ele>
        <time>2017-07-25T09:39:08Z</time>
      </trkpt>
      <trkpt lat="44.7043580" lon="7.2950120">
        <ele>657.2</ele>
        <time>2017-07-25T09:39:10Z</time>
      </trkpt>
      <trkpt lat="44.7043240" lon="7.2946270">
        <ele>656.4</ele>
        <time>2017-07-25T09:39:13Z</time>
      </trkpt>
      <trkpt lat="44.7042680" lon="7.2944070">
        <ele>655.6</ele>
        <time>2017-07-25T09:39:15Z</time>
      </trkpt>
      <trkpt lat="44.7042810" lon="7.2943050">
        <ele>655.0</ele>
        <time>2017-07-25T09:39:17Z</time>
      </trkpt>
      <trkpt lat="44.7042970" lon="7.2943060">
        <ele>654.6</ele>
        <time>2017-07-25T09:39:18Z</time>
      </trkpt>
      <trkpt lat="44.7043550" lon="7.2943810">
        <ele>653.6</ele>
        <time>2017-07-25T09:39:20Z</time>
      </trkpt>
      <trkpt lat="44.7043870" lon="7.2944380">
        <ele>653.2</ele>
        <time>2017-07-25T09:39:21Z</time>
      </trkpt>
      <trkpt lat="44.7044870" lon="7.2945770">
        <ele>652.2</ele>
        <time>2017-07-25T09:39:23Z</time>
      </trkpt>
      <trkpt lat="44.7045980" lon="7.2947230">
        <ele>651.0</ele>
        <time>2017-07-25T09:39:25Z</time>
      </trkpt>
      <trkpt lat="44.7046420" lon="7.2947860">
        <ele>650.4</ele>
        <time>2017-07-25T09:39:26Z</time>
      </trkpt>
      <trkpt lat="44.7046990" lon="7.2948380">
        <ele>650.0</ele>
        <time>2017-07-25T09:39:27Z</time>
      </trkpt>
      <trkpt lat="44.7048270" lon="7.2948990">
        <ele>648.6</ele>
        <time>2017-07-25T09:39:29Z</time>
      </trkpt>
      <trkpt lat="44.7048970" lon="7.2949190">
        <ele>648.0</ele>
        <time>2017-07-25T09:39:30Z</time>
      </trkpt>
      <trkpt lat="44.7050310" lon="7.2949690">
        <ele>647.2</ele>
        <time>2017-07-25T09:39:32Z</time>
      </trkpt>
      <trkpt lat="44.7051570" lon="7.2950390">
        <ele>646.4</ele>
        <time>2017-07-25T09:39:34Z</time>
      </trkpt>
      <trkpt lat="44.7052120" lon="7.2950520">
        <ele>646.4</ele>
        <time>2017-07-25T09:39:35Z</time>
      </trkpt>
      <trkpt lat="44.7052600" lon="7.2950540">
        <ele>646.2</ele>
        <time>2017-07-25T09:39:36Z</time>
      </trkpt>
      <trkpt lat="44.7053080" lon="7.2950320">
        <ele>646.2</ele>
        <time>2017-07-25T09:39:37Z</time>
      </trkpt>
      <trkpt lat="44.7053990" lon="7.2949610">
        <ele>645.8</ele>
        <time>2017-07-25T09:39:39Z</time>
      </trkpt>
      <trkpt lat="44.7054440" lon="7.2949230">
        <ele>645.8</ele>
        <time>2017-07-25T09:39:40Z</time>
      </trkpt>
      <trkpt lat="44.7055290" lon="7.2948980">
        <ele>645.4</ele>
        <time>2017-07-25T09:39:42Z</time>
      </trkpt>
      <trkpt lat="44.7055730" lon="7.2949170">
        <ele>645.0</ele>
        <time>2017-07-25T09:39:43Z</time>
      </trkpt>
      <trkpt lat="44.7056230" lon="7.2949500">
        <ele>645.0</ele>
        <time>2017-07-25T09:39:44Z</time>
      </trkpt>
      <trkpt lat="44.7056760" lon="7.2949830">
        <ele>644.8</ele>
        <time>2017-07-25T09:39:45Z</time>
      </trkpt>
      <trkpt lat="44.7058680" lon="7.2950710">
        <ele>644.2</ele>
        <time>2017-07-25T09:39:48Z</time>
      </trkpt>
      <trkpt lat="44.7059290" lon="7.2950770">
        <ele>644.2</ele>
        <time>2017-07-25T09:39:49Z</time>
      </trkpt>
      <trkpt lat="44.7059910" lon="7.2950780">
        <ele>644.0</ele>
        <time>2017-07-25T09:39:50Z</time>
      </trkpt>
      <trkpt lat="44.7060780" lon="7.2951070">
        <ele>643.8</ele>
        <time>2017-07-25T09:39:51Z</time>
      </trkpt>
      <trkpt lat="44.7062580" lon="7.2951990">
        <ele>643.2</ele>
        <time>2017-07-25T09:39:53Z</time>
      </trkpt>
      <trkpt lat="44.7063470" lon="7.2952440">
        <ele>643.0</ele>
        <time>2017-07-25T09:39:54Z</time>
      </trkpt>
      <trkpt lat="44.7065910" lon="7.2953320">
        <ele>641.8</ele>
        <time>2017-07-25T09:39:57Z</time>
      </trkpt>
      <trkpt lat="44.7066770" lon="7.2953590">
        <ele>641.2</ele>
        <time>2017-07-25T09:39:58Z</time>
      </trkpt>
      <trkpt lat="44.7068470" lon="7.2954380">
        <ele>640.6</ele>
        <time>2017-07-25T09:40:00Z</time>
      </trkpt>
      <trkpt lat="44.7070010" lon="7.2955280">
        <ele>640.4</ele>
        <time>2017-07-25T09:40:02Z</time>
      </trkpt>
      <trkpt lat="44.7072060" lon="7.2956420">
        <ele>639.4</ele>
        <time>2017-07-25T09:40:05Z</time>
      </trkpt>
      <trkpt lat="44.7073150" lon="7.2956890">
        <ele>639.6</ele>
        <time>2017-07-25T09:40:07Z</time>
      </trkpt>
      <trkpt lat="44.7073670" lon="7.2957010">
        <ele>639.6</ele>
        <time>2017-07-25T09:40:08Z</time>
      </trkpt>
      <trkpt lat="44.7074730" lon="7.2956760">
        <ele>639.4</ele>
        <time>2017-07-25T09:40:10Z</time>
      </trkpt>
      <trkpt lat="44.7075930" lon="7.2955350">
        <ele>639.4</ele>
        <time>2017-07-25T09:40:13Z</time>
      </trkpt>
      <trkpt lat="44.7076810" lon="7.2953320">
        <ele>638.4</ele>
        <time>2017-07-25T09:40:15Z</time>
      </trkpt>
      <trkpt lat="44.7077190" lon="7.2952220">
        <ele>638.0</ele>
        <time>2017-07-25T09:40:16Z</time>
      </trkpt>
      <trkpt lat="44.7077510" lon="7.2950950">
        <ele>637.4</ele>
        <time>2017-07-25T09:40:17Z</time>
      </trkpt>
      <trkpt lat="44.7078210" lon="7.2947270">
        <ele>636.0</ele>
        <time>2017-07-25T09:40:20Z</time>
      </trkpt>
      <trkpt lat="44.7078270" lon="7.2946200">
        <ele>635.6</ele>
        <time>2017-07-25T09:40:21Z</time>
      </trkpt>
      <trkpt lat="44.7077840" lon="7.2944920">
        <ele>634.8</ele>
        <time>2017-07-25T09:40:22Z</time>
      </trkpt>
      <trkpt lat="44.7077000" lon="7.2942670">
        <ele>633.0</ele>
        <time>2017-07-25T09:40:24Z</time>
      </trkpt>
      <trkpt lat="44.7076260" lon="7.2940770">
        <ele>631.4</ele>
        <time>2017-07-25T09:40:26Z</time>
      </trkpt>
      <trkpt lat="44.7076040" lon="7.2939830">
        <ele>630.8</ele>
        <time>2017-07-25T09:40:27Z</time>
      </trkpt>
      <trkpt lat="44.7075910" lon="7.2938390">
        <ele>630.0</ele>
        <time>2017-07-25T09:40:28Z</time>
      </trkpt>
      <trkpt lat="44.7075600" lon="7.2935750">
        <ele>628.8</ele>
        <time>2017-07-25T09:40:30Z</time>
      </trkpt>
      <trkpt lat="44.7075260" lon="7.2934390">
        <ele>628.4</ele>
        <time>2017-07-25T09:40:31Z</time>
      </trkpt>
      <trkpt lat="44.7074550" lon="7.2932110">
        <ele>627.6</ele>
        <time>2017-07-25T09:40:33Z</time>
      </trkpt>
      <trkpt lat="44.7074160" lon="7.2931140">
        <ele>627.0</ele>
        <time>2017-07-25T09:40:34Z</time>
      </trkpt>
      <trkpt lat="44.7073780" lon="7.2930260">
        <ele>626.6</ele>
        <time>2017-07-25T09:40:35Z</time>
      </trkpt>
      <trkpt lat="44.7073320" lon="7.2929330">
        <ele>626.0</ele>
        <time>2017-07-25T09:40:36Z</time>
      </trkpt>
      <trkpt lat="44.7072580" lon="7.2927520">
        <ele>624.8</ele>
        <time>2017-07-25T09:40:38Z</time>
      </trkpt>
      <trkpt lat="44.7071870" lon="7.2926170">
        <ele>624.0</ele>
        <time>2017-07-25T09:40:40Z</time>
      </trkpt>
      <trkpt lat="44.7071520" lon="7.2925830">
        <ele>623.6</ele>
        <time>2017-07-25T09:40:41Z</time>
      </trkpt>
      <trkpt lat="44.7070970" lon="7.2925520">
        <ele>623.2</ele>
        <time>2017-07-25T09:40:43Z</time>
      </trkpt>
      <trkpt lat="44.7071260" lon="7.2925820">
        <ele>622.8</ele>
        <time>2017-07-25T09:40:46Z</time>
      </trkpt>
      <trkpt lat="44.7071490" lon="7.2925960">
        <ele>622.8</ele>
        <time>2017-07-25T09:40:47Z</time>
      </trkpt>
      <trkpt lat="44.7072820" lon="7.2926520">
        <ele>622.8</ele>
        <time>2017-07-25T09:40:49Z</time>
      </trkpt>
      <trkpt lat="44.7073580" lon="7.2926710">
        <ele>622.6</ele>
        <time>2017-07-25T09:40:50Z</time>
      </trkpt>
      <trkpt lat="44.7074260" lon="7.2926810">
        <ele>622.4</ele>
        <time>2017-07-25T09:40:51Z</time>
      </trkpt>
      <trkpt lat="44.7075490" lon="7.2926740">
        <ele>622.2</ele>
        <time>2017-07-25T09:40:53Z</time>
      </trkpt>
      <trkpt lat="44.7077240" lon="7.2926470">
        <ele>622.2</ele>
        <time>2017-07-25T09:40:56Z</time>
      </trkpt>
      <trkpt lat="44.7079050" lon="7.2925630">
        <ele>621.8</ele>
        <time>2017-07-25T09:41:00Z</time>
      </trkpt>
      <trkpt lat="44.7079880" lon="7.2924750">
        <ele>621.6</ele>
        <time>2017-07-25T09:41:02Z</time>
      </trkpt>
      <trkpt lat="44.7080800" lon="7.2923780">
        <ele>621.6</ele>
        <time>2017-07-25T09:41:04Z</time>
      </trkpt>
      <trkpt lat="44.7081160" lon="7.2923220">
        <ele>621.6</ele>
        <time>2017-07-25T09:41:05Z</time>
      </trkpt>
      <trkpt lat="44.7081670" lon="7.2922030">
        <ele>621.6</ele>
        <time>2017-07-25T09:41:07Z</time>
      </trkpt>
      <trkpt lat="44.7082220" lon="7.2920100">
        <ele>621.8</ele>
        <time>2017-07-25T09:41:10Z</time>
      </trkpt>
      <trkpt lat="44.7082540" lon="7.2919510">
        <ele>621.6</ele>
        <time>2017-07-25T09:41:12Z</time>
      </trkpt>
      <trkpt lat="44.7082660" lon="7.2919540">
        <ele>621.8</ele>
        <time>2017-07-25T09:41:13Z</time>
      </trkpt>
      <trkpt lat="44.7082750" lon="7.2919670">
        <ele>621.6</ele>
        <time>2017-07-25T09:41:14Z</time>
      </trkpt>
      <trkpt lat="44.7082890" lon="7.2920840">
        <ele>621.4</ele>
        <time>2017-07-25T09:41:17Z</time>
      </trkpt>
      <trkpt lat="44.7084530" lon="7.2923350">
        <ele>621.4</ele>
        <time>2017-07-25T09:41:22Z</time>
      </trkpt>
      <trkpt lat="44.7087010" lon="7.2925170">
        <ele>622.6</ele>
        <time>2017-07-25T09:41:27Z</time>
      </trkpt>
      <trkpt lat="44.7087950" lon="7.2925600">
        <ele>623.4</ele>
        <time>2017-07-25T09:41:29Z</time>
      </trkpt>
      <trkpt lat="44.7088870" lon="7.2925920">
        <ele>623.8</ele>
        <time>2017-07-25T09:41:31Z</time>
      </trkpt>
      <trkpt lat="44.7090160" lon="7.2926320">
        <ele>624.4</ele>
        <time>2017-07-25T09:41:34Z</time>
      </trkpt>
      <trkpt lat="44.7091690" lon="7.2927020">
        <ele>625.0</ele>
        <time>2017-07-25T09:41:38Z</time>
      </trkpt>
      <trkpt lat="44.7092420" lon="7.2927500">
        <ele>625.2</ele>
        <time>2017-07-25T09:41:39Z</time>
      </trkpt>
      <trkpt lat="44.7093050" lon="7.2928010">
        <ele>625.2</ele>
        <time>2017-07-25T09:41:40Z</time>
      </trkpt>
      <trkpt lat="44.7096870" lon="7.2930500">
        <ele>624.2</ele>
        <time>2017-07-25T09:41:45Z</time>
      </trkpt>
      <trkpt lat="44.7097460" lon="7.2930800">
        <ele>624.0</ele>
        <time>2017-07-25T09:41:46Z</time>
      </trkpt>
      <trkpt lat="44.7099120" lon="7.2931230">
        <ele>624.2</ele>
        <time>2017-07-25T09:41:49Z</time>
      </trkpt>
      <trkpt lat="44.7099590" lon="7.2931220">
        <ele>624.0</ele>
        <time>2017-07-25T09:41:50Z</time>
      </trkpt>
      <trkpt lat="44.7101920" lon="7.2929860">
        <ele>624.6</ele>
        <time>2017-07-25T09:41:55Z</time>
      </trkpt>
      <trkpt lat="44.7104430" lon="7.2927580">
        <ele>625.0</ele>
        <time>2017-07-25T09:42:00Z</time>
      </trkpt>
      <trkpt lat="44.7104870" lon="7.2927000">
        <ele>625.0</ele>
        <time>2017-07-25T09:42:01Z</time>
      </trkpt>
      <trkpt lat="44.7105200" lon="7.2926370">
        <ele>625.0</ele>
        <time>2017-07-25T09:42:02Z</time>
      </trkpt>
      <trkpt lat="44.7105760" lon="7.2925280">
        <ele>625.2</ele>
        <time>2017-07-25T09:42:04Z</time>
      </trkpt>
      <trkpt lat="44.7106020" lon="7.2925030">
        <ele>625.2</ele>
        <time>2017-07-25T09:42:05Z</time>
      </trkpt>
      <trkpt lat="44.7106670" lon="7.2924970">
        <ele>625.6</ele>
        <time>2017-07-25T09:42:07Z</time>
      </trkpt>
      <trkpt lat="44.7107600" lon="7.2925170">
        <ele>625.8</ele>
        <time>2017-07-25T09:42:09Z</time>
      </trkpt>
      <trkpt lat="44.7108090" lon="7.2925100">
        <ele>626.0</ele>
        <time>2017-07-25T09:42:10Z</time>
      </trkpt>
      <trkpt lat="44.7108690" lon="7.2925260">
        <ele>626.0</ele>
        <time>2017-07-25T09:42:11Z</time>
      </trkpt>
      <trkpt lat="44.7110110" lon="7.2926180">
        <ele>626.0</ele>
        <time>2017-07-25T09:42:13Z</time>
      </trkpt>
      <trkpt lat="44.7110660" lon="7.2926790">
        <ele>626.0</ele>
        <time>2017-07-25T09:42:14Z</time>
      </trkpt>
      <trkpt lat="44.7113340" lon="7.2929350">
        <ele>625.2</ele>
        <time>2017-07-25T09:42:19Z</time>
      </trkpt>
      <trkpt lat="44.7114220" lon="7.2930370">
        <ele>625.0</ele>
        <time>2017-07-25T09:42:21Z</time>
      </trkpt>
      <trkpt lat="44.7115070" lon="7.2931290">
        <ele>624.4</ele>
        <time>2017-07-25T09:42:23Z</time>
      </trkpt>
      <trkpt lat="44.7115910" lon="7.2932130">
        <ele>624.2</ele>
        <time>2017-07-25T09:42:25Z</time>
      </trkpt>
      <trkpt lat="44.7116750" lon="7.2932940">
        <ele>623.8</ele>
        <time>2017-07-25T09:42:27Z</time>
      </trkpt>
      <trkpt lat="44.7117590" lon="7.2933720">
        <ele>623.8</ele>
        <time>2017-07-25T09:42:29Z</time>
      </trkpt>
      <trkpt lat="44.7118430" lon="7.2934720">
        <ele>623.6</ele>
        <time>2017-07-25T09:42:31Z</time>
      </trkpt>
      <trkpt lat="44.7120110" lon="7.2937090">
        <ele>623.4</ele>
        <time>2017-07-25T09:42:35Z</time>
      </trkpt>
      <trkpt lat="44.7120650" lon="7.2937580">
        <ele>623.4</ele>
        <time>2017-07-25T09:42:36Z</time>
      </trkpt>
      <trkpt lat="44.7123460" lon="7.2938850">
        <ele>622.0</ele>
        <time>2017-07-25T09:42:40Z</time>
      </trkpt>
      <trkpt lat="44.7124360" lon="7.2939190">
        <ele>621.4</ele>
        <time>2017-07-25T09:42:41Z</time>
      </trkpt>
      <trkpt lat="44.7125270" lon="7.2939860">
        <ele>620.6</ele>
        <time>2017-07-25T09:42:42Z</time>
      </trkpt>
      <trkpt lat="44.7126050" lon="7.2940910">
        <ele>619.8</ele>
        <time>2017-07-25T09:42:43Z</time>
      </trkpt>
      <trkpt lat="44.7126820" lon="7.2941940">
        <ele>618.8</ele>
        <time>2017-07-25T09:42:44Z</time>
      </trkpt>
      <trkpt lat="44.7128560" lon="7.2943400">
        <ele>617.2</ele>
        <time>2017-07-25T09:42:46Z</time>
      </trkpt>
      <trkpt lat="44.7130050" lon="7.2944570">
        <ele>616.0</ele>
        <time>2017-07-25T09:42:48Z</time>
      </trkpt>
      <trkpt lat="44.7130660" lon="7.2945430">
        <ele>615.4</ele>
        <time>2017-07-25T09:42:49Z</time>
      </trkpt>
      <trkpt lat="44.7131060" lon="7.2946460">
        <ele>614.6</ele>
        <time>2017-07-25T09:42:50Z</time>
      </trkpt>
      <trkpt lat="44.7131620" lon="7.2948420">
        <ele>613.2</ele>
        <time>2017-07-25T09:42:52Z</time>
      </trkpt>
      <trkpt lat="44.7131930" lon="7.2949280">
        <ele>612.6</ele>
        <time>2017-07-25T09:42:53Z</time>
      </trkpt>
      <trkpt lat="44.7132400" lon="7.2949950">
        <ele>612.0</ele>
        <time>2017-07-25T09:42:54Z</time>
      </trkpt>
      <trkpt lat="44.7133560" lon="7.2951110">
        <ele>610.8</ele>
        <time>2017-07-25T09:42:56Z</time>
      </trkpt>
      <trkpt lat="44.7134110" lon="7.2951720">
        <ele>610.4</ele>
        <time>2017-07-25T09:42:57Z</time>
      </trkpt>
      <trkpt lat="44.7134620" lon="7.2952350">
        <ele>610.2</ele>
        <time>2017-07-25T09:42:58Z</time>
      </trkpt>
      <trkpt lat="44.7135040" lon="7.2953080">
        <ele>610.0</ele>
        <time>2017-07-25T09:42:59Z</time>
      </trkpt>
      <trkpt lat="44.7135390" lon="7.2953930">
        <ele>609.8</ele>
        <time>2017-07-25T09:43:00Z</time>
      </trkpt>
      <trkpt lat="44.7135680" lon="7.2954860">
        <ele>609.6</ele>
        <time>2017-07-25T09:43:01Z</time>
      </trkpt>
      <trkpt lat="44.7135750" lon="7.2958050">
        <ele>608.6</ele>
        <time>2017-07-25T09:43:04Z</time>
      </trkpt>
      <trkpt lat="44.7135400" lon="7.2960180">
        <ele>608.0</ele>
        <time>2017-07-25T09:43:06Z</time>
      </trkpt>
      <trkpt lat="44.7135270" lon="7.2961260">
        <ele>607.4</ele>
        <time>2017-07-25T09:43:07Z</time>
      </trkpt>
      <trkpt lat="44.7135050" lon="7.2963430">
        <ele>607.0</ele>
        <time>2017-07-25T09:43:09Z</time>
      </trkpt>
      <trkpt lat="44.7134870" lon="7.2966630">
        <ele>606.2</ele>
        <time>2017-07-25T09:43:12Z</time>
      </trkpt>
      <trkpt lat="44.7135020" lon="7.2968860">
        <ele>606.0</ele>
        <time>2017-07-25T09:43:14Z</time>
      </trkpt>
      <trkpt lat="44.7135090" lon="7.2971120">
        <ele>605.6</ele>
        <time>2017-07-25T09:43:16Z</time>
      </trkpt>
      <trkpt lat="44.7134350" lon="7.2973150">
        <ele>605.2</ele>
        <time>2017-07-25T09:43:18Z</time>
      </trkpt>
      <trkpt lat="44.7133800" lon="7.2974260">
        <ele>605.0</ele>
        <time>2017-07-25T09:43:19Z</time>
      </trkpt>
      <trkpt lat="44.7132820" lon="7.2976790">
        <ele>603.8</ele>
        <time>2017-07-25T09:43:21Z</time>
      </trkpt>
      <trkpt lat="44.7132330" lon="7.2978130">
        <ele>603.2</ele>
        <time>2017-07-25T09:43:22Z</time>
      </trkpt>
      <trkpt lat="44.7131840" lon="7.2979530">
        <ele>602.6</ele>
        <time>2017-07-25T09:43:23Z</time>
      </trkpt>
      <trkpt lat="44.7130920" lon="7.2982330">
        <ele>601.4</ele>
        <time>2017-07-25T09:43:25Z</time>
      </trkpt>
      <trkpt lat="44.7130420" lon="7.2984930">
        <ele>600.2</ele>
        <time>2017-07-25T09:43:27Z</time>
      </trkpt>
      <trkpt lat="44.7130530" lon="7.2986300">
        <ele>598.8</ele>
        <time>2017-07-25T09:43:28Z</time>
      </trkpt>
      <trkpt lat="44.7130910" lon="7.2989140">
        <ele>598.0</ele>
        <time>2017-07-25T09:43:30Z</time>
      </trkpt>
      <trkpt lat="44.7131000" lon="7.2990460">
        <ele>597.4</ele>
        <time>2017-07-25T09:43:31Z</time>
      </trkpt>
      <trkpt lat="44.7130980" lon="7.2992880">
        <ele>596.4</ele>
        <time>2017-07-25T09:43:33Z</time>
      </trkpt>
      <trkpt lat="44.7131160" lon="7.2996590">
        <ele>595.2</ele>
        <time>2017-07-25T09:43:36Z</time>
      </trkpt>
      <trkpt lat="44.7131330" lon="7.2997680">
        <ele>595.0</ele>
        <time>2017-07-25T09:43:37Z</time>
      </trkpt>
      <trkpt lat="44.7132290" lon="7.3000300">
        <ele>594.4</ele>
        <time>2017-07-25T09:43:40Z</time>
      </trkpt>
      <trkpt lat="44.7132710" lon="7.3001110">
        <ele>594.4</ele>
        <time>2017-07-25T09:43:41Z</time>
      </trkpt>
      <trkpt lat="44.7133430" lon="7.3002910">
        <ele>594.4</ele>
        <time>2017-07-25T09:43:43Z</time>
      </trkpt>
      <trkpt lat="44.7133480" lon="7.3003860">
        <ele>594.2</ele>
        <time>2017-07-25T09:43:44Z</time>
      </trkpt>
      <trkpt lat="44.7132760" lon="7.3005190">
        <ele>593.4</ele>
        <time>2017-07-25T09:43:46Z</time>
      </trkpt>
      <trkpt lat="44.7132210" lon="7.3005670">
        <ele>593.2</ele>
        <time>2017-07-25T09:43:47Z</time>
      </trkpt>
      <trkpt lat="44.7130970" lon="7.3006430">
        <ele>592.4</ele>
        <time>2017-07-25T09:43:49Z</time>
      </trkpt>
      <trkpt lat="44.7130350" lon="7.3006920">
        <ele>592.0</ele>
        <time>2017-07-25T09:43:50Z</time>
      </trkpt>
      <trkpt lat="44.7129380" lon="7.3008490">
        <ele>590.8</ele>
        <time>2017-07-25T09:43:52Z</time>
      </trkpt>
      <trkpt lat="44.7129190" lon="7.3009470">
        <ele>590.6</ele>
        <time>2017-07-25T09:43:53Z</time>
      </trkpt>
      <trkpt lat="44.7129260" lon="7.3012840">
        <ele>590.0</ele>
        <time>2017-07-25T09:43:56Z</time>
      </trkpt>
      <trkpt lat="44.7129440" lon="7.3013950">
        <ele>589.6</ele>
        <time>2017-07-25T09:43:57Z</time>
      </trkpt>
      <trkpt lat="44.7130280" lon="7.3017050">
        <ele>588.8</ele>
        <time>2017-07-25T09:44:00Z</time>
      </trkpt>
      <trkpt lat="44.7131090" lon="7.3018710">
        <ele>588.6</ele>
        <time>2017-07-25T09:44:02Z</time>
      </trkpt>
      <trkpt lat="44.7132180" lon="7.3019720">
        <ele>588.0</ele>
        <time>2017-07-25T09:44:04Z</time>
      </trkpt>
      <trkpt lat="44.7132900" lon="7.3020240">
        <ele>587.6</ele>
        <time>2017-07-25T09:44:05Z</time>
      </trkpt>
      <trkpt lat="44.7133710" lon="7.3020770">
        <ele>587.4</ele>
        <time>2017-07-25T09:44:06Z</time>
      </trkpt>
      <trkpt lat="44.7135520" lon="7.3022100">
        <ele>586.8</ele>
        <time>2017-07-25T09:44:08Z</time>
      </trkpt>
      <trkpt lat="44.7137360" lon="7.3023820">
        <ele>586.2</ele>
        <time>2017-07-25T09:44:10Z</time>
      </trkpt>
      <trkpt lat="44.7138400" lon="7.3024480">
        <ele>585.4</ele>
        <time>2017-07-25T09:44:11Z</time>
      </trkpt>
      <trkpt lat="44.7139390" lon="7.3024930">
        <ele>584.8</ele>
        <time>2017-07-25T09:44:12Z</time>
      </trkpt>
      <trkpt lat="44.7141480" lon="7.3024620">
        <ele>583.2</ele>
        <time>2017-07-25T09:44:14Z</time>
      </trkpt>
      <trkpt lat="44.7142630" lon="7.3024450">
        <ele>582.4</ele>
        <time>2017-07-25T09:44:15Z</time>
      </trkpt>
      <trkpt lat="44.7143700" lon="7.3024600">
        <ele>580.6</ele>
        <time>2017-07-25T09:44:16Z</time>
      </trkpt>
      <trkpt lat="44.7144880" lon="7.3024760">
        <ele>579.6</ele>
        <time>2017-07-25T09:44:17Z</time>
      </trkpt>
      <trkpt lat="44.7146070" lon="7.3024840">
        <ele>578.8</ele>
        <time>2017-07-25T09:44:18Z</time>
      </trkpt>
      <trkpt lat="44.7147280" lon="7.3024960">
        <ele>577.6</ele>
        <time>2017-07-25T09:44:19Z</time>
      </trkpt>
      <trkpt lat="44.7149750" lon="7.3025300">
        <ele>575.8</ele>
        <time>2017-07-25T09:44:21Z</time>
      </trkpt>
      <trkpt lat="44.7152210" lon="7.3025710">
        <ele>574.2</ele>
        <time>2017-07-25T09:44:23Z</time>
      </trkpt>
      <trkpt lat="44.7154520" lon="7.3026270">
        <ele>572.2</ele>
        <time>2017-07-25T09:44:25Z</time>
      </trkpt>
      <trkpt lat="44.7155610" lon="7.3026320">
        <ele>571.2</ele>
        <time>2017-07-25T09:44:26Z</time>
      </trkpt>
      <trkpt lat="44.7156720" lon="7.3026100">
        <ele>570.2</ele>
        <time>2017-07-25T09:44:27Z</time>
      </trkpt>
      <trkpt lat="44.7157760" lon="7.3025760">
        <ele>569.0</ele>
        <time>2017-07-25T09:44:28Z</time>
      </trkpt>
      <trkpt lat="44.7158830" lon="7.3025230">
        <ele>568.0</ele>
        <time>2017-07-25T09:44:29Z</time>
      </trkpt>
      <trkpt lat="44.7159820" lon="7.3024420">
        <ele>566.8</ele>
        <time>2017-07-25T09:44:30Z</time>
      </trkpt>
      <trkpt lat="44.7160690" lon="7.3023790">
        <ele>566.0</ele>
        <time>2017-07-25T09:44:31Z</time>
      </trkpt>
      <trkpt lat="44.7161470" lon="7.3023310">
        <ele>564.8</ele>
        <time>2017-07-25T09:44:32Z</time>
      </trkpt>
      <trkpt lat="44.7162220" lon="7.3023040">
        <ele>563.8</ele>
        <time>2017-07-25T09:44:33Z</time>
      </trkpt>
      <trkpt lat="44.7162960" lon="7.3022940">
        <ele>562.6</ele>
        <time>2017-07-25T09:44:34Z</time>
      </trkpt>
      <trkpt lat="44.7163690" lon="7.3022880">
        <ele>561.6</ele>
        <time>2017-07-25T09:44:35Z</time>
      </trkpt>
      <trkpt lat="44.7164480" lon="7.3022950">
        <ele>560.6</ele>
        <time>2017-07-25T09:44:36Z</time>
      </trkpt>
      <trkpt lat="44.7166180" lon="7.3023150">
        <ele>558.8</ele>
        <time>2017-07-25T09:44:38Z</time>
      </trkpt>
      <trkpt lat="44.7167100" lon="7.3023430">
        <ele>558.0</ele>
        <time>2017-07-25T09:44:39Z</time>
      </trkpt>
      <trkpt lat="44.7168130" lon="7.3023850">
        <ele>556.2</ele>
        <time>2017-07-25T09:44:40Z</time>
      </trkpt>
      <trkpt lat="44.7169420" lon="7.3024770">
        <ele>555.2</ele>
        <time>2017-07-25T09:44:41Z</time>
      </trkpt>
      <trkpt lat="44.7170640" lon="7.3025570">
        <ele>554.2</ele>
        <time>2017-07-25T09:44:42Z</time>
      </trkpt>
      <trkpt lat="44.7172770" lon="7.3026790">
        <ele>552.2</ele>
        <time>2017-07-25T09:44:44Z</time>
      </trkpt>
      <trkpt lat="44.7174740" lon="7.3027940">
        <ele>550.2</ele>
        <time>2017-07-25T09:44:46Z</time>
      </trkpt>
      <trkpt lat="44.7175710" lon="7.3028550">
        <ele>549.4</ele>
        <time>2017-07-25T09:44:47Z</time>
      </trkpt>
      <trkpt lat="44.7176730" lon="7.3029140">
        <ele>548.4</ele>
        <time>2017-07-25T09:44:48Z</time>
      </trkpt>
      <trkpt lat="44.7178590" lon="7.3030310">
        <ele>546.8</ele>
        <time>2017-07-25T09:44:50Z</time>
      </trkpt>
      <trkpt lat="44.7179360" lon="7.3031070">
        <ele>545.8</ele>
        <time>2017-07-25T09:44:51Z</time>
      </trkpt>
      <trkpt lat="44.7180060" lon="7.3031980">
        <ele>544.6</ele>
        <time>2017-07-25T09:44:52Z</time>
      </trkpt>
      <trkpt lat="44.7181620" lon="7.3033510">
        <ele>543.0</ele>
        <time>2017-07-25T09:44:54Z</time>
      </trkpt>
      <trkpt lat="44.7182450" lon="7.3034220">
        <ele>542.6</ele>
        <time>2017-07-25T09:44:55Z</time>
      </trkpt>
      <trkpt lat="44.7183290" lon="7.3034920">
        <ele>542.0</ele>
        <time>2017-07-25T09:44:56Z</time>
      </trkpt>
      <trkpt lat="44.7184990" lon="7.3036250">
        <ele>540.4</ele>
        <time>2017-07-25T09:44:58Z</time>
      </trkpt>
      <trkpt lat="44.7186740" lon="7.3037410">
        <ele>539.0</ele>
        <time>2017-07-25T09:45:00Z</time>
      </trkpt>
      <trkpt lat="44.7188560" lon="7.3038150">
        <ele>537.4</ele>
        <time>2017-07-25T09:45:02Z</time>
      </trkpt>
      <trkpt lat="44.7189310" lon="7.3038510">
        <ele>536.6</ele>
        <time>2017-07-25T09:45:03Z</time>
      </trkpt>
      <trkpt lat="44.7189920" lon="7.3038870">
        <ele>534.8</ele>
        <time>2017-07-25T09:45:04Z</time>
      </trkpt>
      <trkpt lat="44.7190400" lon="7.3039230">
        <ele>533.8</ele>
        <time>2017-07-25T09:45:05Z</time>
      </trkpt>
      <trkpt lat="44.7190820" lon="7.3039840">
        <ele>532.6</ele>
        <time>2017-07-25T09:45:06Z</time>
      </trkpt>
      <trkpt lat="44.7191210" lon="7.3040400">
        <ele>531.2</ele>
        <time>2017-07-25T09:45:07Z</time>
      </trkpt>
      <trkpt lat="44.7191450" lon="7.3041060">
        <ele>529.8</ele>
        <time>2017-07-25T09:45:08Z</time>
      </trkpt>
      <trkpt lat="44.7191670" lon="7.3041760">
        <ele>528.4</ele>
        <time>2017-07-25T09:45:09Z</time>
      </trkpt>
      <trkpt lat="44.7191690" lon="7.3042350">
        <ele>527.0</ele>
        <time>2017-07-25T09:45:10Z</time>
      </trkpt>
      <trkpt lat="44.7191780" lon="7.3042900">
        <ele>525.8</ele>
        <time>2017-07-25T09:45:11Z</time>
      </trkpt>
      <trkpt lat="44.7191820" lon="7.3043390">
        <ele>524.4</ele>
        <time>2017-07-25T09:45:12Z</time>
      </trkpt>
      <trkpt lat="44.7191850" lon="7.3043830">
        <ele>523.2</ele>
        <time>2017-07-25T09:45:13Z</time>
      </trkpt>
      <trkpt lat="44.7191960" lon="7.3044160">
        <ele>522.0</ele>
        <time>2017-07-25T09:45:14Z</time>
      </trkpt>
      <trkpt lat="44.7192170" lon="7.3044490">
        <ele>520.8</ele>
        <time>2017-07-25T09:45:15Z</time>
      </trkpt>
      <trkpt lat="44.7192530" lon="7.3044550">
        <ele>519.6</ele>
        <time>2017-07-25T09:45:16Z</time>
      </trkpt>
      <trkpt lat="44.7193160" lon="7.3044540">
        <ele>518.4</ele>
        <time>2017-07-25T09:45:17Z</time>
      </trkpt>
      <trkpt lat="44.7193960" lon="7.3044570">
        <ele>517.2</ele>
        <time>2017-07-25T09:45:18Z</time>
      </trkpt>
      <trkpt lat="44.7194780" lon="7.3044640">
        <ele>516.0</ele>
        <time>2017-07-25T09:45:19Z</time>
      </trkpt>
      <trkpt lat="44.7195740" lon="7.3044750">
        <ele>515.0</ele>
        <time>2017-07-25T09:45:20Z</time>
      </trkpt>
      <trkpt lat="44.7196740" lon="7.3044990">
        <ele>514.0</ele>
        <time>2017-07-25T09:45:21Z</time>
      </trkpt>
      <trkpt lat="44.7197680" lon="7.3045210">
        <ele>513.0</ele>
        <time>2017-07-25T09:45:22Z</time>
      </trkpt>
      <trkpt lat="44.7198660" lon="7.3045350">
        <ele>512.0</ele>
        <time>2017-07-25T09:45:23Z</time>
      </trkpt>
      <trkpt lat="44.7199540" lon="7.3045240">
        <ele>510.8</ele>
        <time>2017-07-25T09:45:24Z</time>
      </trkpt>
      <trkpt lat="44.7201290" lon="7.3044180">
        <ele>508.8</ele>
        <time>2017-07-25T09:45:26Z</time>
      </trkpt>
      <trkpt lat="44.7202200" lon="7.3043300">
        <ele>507.6</ele>
        <time>2017-07-25T09:45:27Z</time>
      </trkpt>
      <trkpt lat="44.7203020" lon="7.3042580">
        <ele>505.8</ele>
        <time>2017-07-25T09:45:28Z</time>
      </trkpt>
      <trkpt lat="44.7204450" lon="7.3041550">
        <ele>504.2</ele>
        <time>2017-07-25T09:45:30Z</time>
      </trkpt>
      <trkpt lat="44.7204630" lon="7.3040460">
        <ele>503.4</ele>
        <time>2017-07-25T09:45:31Z</time>
      </trkpt>
      <trkpt lat="44.7204850" lon="7.3039410">
        <ele>502.6</ele>
        <time>2017-07-25T09:45:32Z</time>
      </trkpt>
      <trkpt lat="44.7205220" lon="7.3037380">
        <ele>500.6</ele>
        <time>2017-07-25T09:45:34Z</time>
      </trkpt>
      <trkpt lat="44.7205160" lon="7.3035250">
        <ele>499.2</ele>
        <time>2017-07-25T09:45:36Z</time>
      </trkpt>
      <trkpt lat="44.7205560" lon="7.3033640">
        <ele>497.8</ele>
        <time>2017-07-25T09:45:38Z</time>
      </trkpt>
      <trkpt lat="44.7205880" lon="7.3033360">
        <ele>497.2</ele>
        <time>2017-07-25T09:45:39Z</time>
      </trkpt>
      <trkpt lat="44.7206170" lon="7.3033540">
        <ele>496.4</ele>
        <time>2017-07-25T09:45:40Z</time>
      </trkpt>
      <trkpt lat="44.7206360" lon="7.3034050">
        <ele>495.4</ele>
        <time>2017-07-25T09:45:41Z</time>
      </trkpt>
      <trkpt lat="44.7206550" lon="7.3034640">
        <ele>494.4</ele>
        <time>2017-07-25T09:45:42Z</time>
      </trkpt>
      <trkpt lat="44.7206780" lon="7.3035290">
        <ele>493.4</ele>
        <time>2017-07-25T09:45:43Z</time>
      </trkpt>
      <trkpt lat="44.7207080" lon="7.3035950">
        <ele>492.6</ele>
        <time>2017-07-25T09:45:44Z</time>
      </trkpt>
      <trkpt lat="44.7207810" lon="7.3037280">
        <ele>491.0</ele>
        <time>2017-07-25T09:45:46Z</time>
      </trkpt>
      <trkpt lat="44.7208110" lon="7.3037960">
        <ele>490.2</ele>
        <time>2017-07-25T09:45:47Z</time>
      </trkpt>
      <trkpt lat="44.7208470" lon="7.3038660">
        <ele>489.6</ele>
        <time>2017-07-25T09:45:48Z</time>
      </trkpt>
      <trkpt lat="44.7209080" lon="7.3040060">
        <ele>488.4</ele>
        <time>2017-07-25T09:45:50Z</time>
      </trkpt>
      <trkpt lat="44.7209730" lon="7.3041480">
        <ele>487.0</ele>
        <time>2017-07-25T09:45:52Z</time>
      </trkpt>
      <trkpt lat="44.7210710" lon="7.3042880">
        <ele>486.4</ele>
        <time>2017-07-25T09:45:54Z</time>
      </trkpt>
      <trkpt lat="44.7211720" lon="7.3044310">
        <ele>485.8</ele>
        <time>2017-07-25T09:45:56Z</time>
      </trkpt>
      <trkpt lat="44.7213640" lon="7.3047680">
        <ele>484.6</ele>
        <time>2017-07-25T09:46:00Z</time>
      </trkpt>
      <trkpt lat="44.7214040" lon="7.3048670">
        <ele>484.2</ele>
        <time>2017-07-25T09:46:01Z</time>
      </trkpt>
      <trkpt lat="44.7215180" lon="7.3051620">
        <ele>483.2</ele>
        <time>2017-07-25T09:46:04Z</time>
      </trkpt>
      <trkpt lat="44.7215540" lon="7.3052660">
        <ele>482.8</ele>
        <time>2017-07-25T09:46:05Z</time>
      </trkpt>
      <trkpt lat="44.7216140" lon="7.3054870">
        <ele>482.2</ele>
        <time>2017-07-25T09:46:07Z</time>
      </trkpt>
      <trkpt lat="44.7216980" lon="7.3056980">
        <ele>481.6</ele>
        <time>2017-07-25T09:46:09Z</time>
      </trkpt>
      <trkpt lat="44.7217470" lon="7.3057980">
        <ele>481.6</ele>
        <time>2017-07-25T09:46:10Z</time>
      </trkpt>
      <trkpt lat="44.7219000" lon="7.3060930">
        <ele>481.2</ele>
        <time>2017-07-25T09:46:13Z</time>
      </trkpt>
      <trkpt lat="44.7219520" lon="7.3061570">
        <ele>481.0</ele>
        <time>2017-07-25T09:46:14Z</time>
      </trkpt>
      <trkpt lat="44.7220040" lon="7.3062090">
        <ele>481.0</ele>
        <time>2017-07-25T09:46:15Z</time>
      </trkpt>
      <trkpt lat="44.7223720" lon="7.3065230">
        <ele>480.4</ele>
        <time>2017-07-25T09:46:21Z</time>
      </trkpt>
      <trkpt lat="44.7225750" lon="7.3066550">
        <ele>480.0</ele>
        <time>2017-07-25T09:46:24Z</time>
      </trkpt>
      <trkpt lat="44.7227510" lon="7.3067460">
        <ele>479.8</ele>
        <time>2017-07-25T09:46:26Z</time>
      </trkpt>
      <trkpt lat="44.7230740" lon="7.3068490">
        <ele>479.0</ele>
        <time>2017-07-25T09:46:29Z</time>
      </trkpt>
      <trkpt lat="44.7233250" lon="7.3068840">
        <ele>478.4</ele>
        <time>2017-07-25T09:46:31Z</time>
      </trkpt>
      <trkpt lat="44.7234590" lon="7.3069150">
        <ele>478.0</ele>
        <time>2017-07-25T09:46:32Z</time>
      </trkpt>
      <trkpt lat="44.7235910" lon="7.3069650">
        <ele>477.8</ele>
        <time>2017-07-25T09:46:33Z</time>
      </trkpt>
      <trkpt lat="44.7236730" lon="7.3070410">
        <ele>477.4</ele>
        <time>2017-07-25T09:46:34Z</time>
      </trkpt>
      <trkpt lat="44.7238490" lon="7.3071790">
        <ele>476.6</ele>
        <time>2017-07-25T09:46:36Z</time>
      </trkpt>
      <trkpt lat="44.7240000" lon="7.3073150">
        <ele>475.4</ele>
        <time>2017-07-25T09:46:38Z</time>
      </trkpt>
      <trkpt lat="44.7241520" lon="7.3073870">
        <ele>474.2</ele>
        <time>2017-07-25T09:46:40Z</time>
      </trkpt>
      <trkpt lat="44.7242260" lon="7.3074000">
        <ele>473.8</ele>
        <time>2017-07-25T09:46:41Z</time>
      </trkpt>
      <trkpt lat="44.7243790" lon="7.3073500">
        <ele>473.0</ele>
        <time>2017-07-25T09:46:43Z</time>
      </trkpt>
      <trkpt lat="44.7244550" lon="7.3073100">
        <ele>472.6</ele>
        <time>2017-07-25T09:46:44Z</time>
      </trkpt>
      <trkpt lat="44.7245260" lon="7.3072790">
        <ele>472.2</ele>
        <time>2017-07-25T09:46:45Z</time>
      </trkpt>
      <trkpt lat="44.7246660" lon="7.3072370">
        <ele>471.8</ele>
        <time>2017-07-25T09:46:47Z</time>
      </trkpt>
      <trkpt lat="44.7247350" lon="7.3072060">
        <ele>471.4</ele>
        <time>2017-07-25T09:46:48Z</time>
      </trkpt>
      <trkpt lat="44.7248010" lon="7.3071740">
        <ele>471.2</ele>
        <time>2017-07-25T09:46:49Z</time>
      </trkpt>
      <trkpt lat="44.7249300" lon="7.3071180">
        <ele>470.6</ele>
        <time>2017-07-25T09:46:51Z</time>
      </trkpt>
      <trkpt lat="44.7251820" lon="7.3070320">
        <ele>470.0</ele>
        <time>2017-07-25T09:46:55Z</time>
      </trkpt>
      <trkpt lat="44.7252430" lon="7.3070370">
        <ele>469.6</ele>
        <time>2017-07-25T09:46:56Z</time>
      </trkpt>
      <trkpt lat="44.7252950" lon="7.3070740">
        <ele>469.2</ele>
        <time>2017-07-25T09:46:57Z</time>
      </trkpt>
      <trkpt lat="44.7253270" lon="7.3071470">
        <ele>469.0</ele>
        <time>2017-07-25T09:46:58Z</time>
      </trkpt>
      <trkpt lat="44.7254120" lon="7.3074190">
        <ele>468.0</ele>
        <time>2017-07-25T09:47:01Z</time>
      </trkpt>
      <trkpt lat="44.7254440" lon="7.3075140">
        <ele>467.6</ele>
        <time>2017-07-25T09:47:02Z</time>
      </trkpt>
      <trkpt lat="44.7254860" lon="7.3076080">
        <ele>467.4</ele>
        <time>2017-07-25T09:47:03Z</time>
      </trkpt>
      <trkpt lat="44.7255260" lon="7.3077050">
        <ele>466.8</ele>
        <time>2017-07-25T09:47:04Z</time>
      </trkpt>
      <trkpt lat="44.7256000" lon="7.3079060">
        <ele>466.6</ele>
        <time>2017-07-25T09:47:06Z</time>
      </trkpt>
      <trkpt lat="44.7256570" lon="7.3081060">
        <ele>465.8</ele>
        <time>2017-07-25T09:47:08Z</time>
      </trkpt>
      <trkpt lat="44.7256900" lon="7.3081940">
        <ele>465.4</ele>
        <time>2017-07-25T09:47:09Z</time>
      </trkpt>
      <trkpt lat="44.7257320" lon="7.3082660">
        <ele>465.0</ele>
        <time>2017-07-25T09:47:10Z</time>
      </trkpt>
      <trkpt lat="44.7257920" lon="7.3083150">
        <ele>464.8</ele>
        <time>2017-07-25T09:47:11Z</time>
      </trkpt>
      <trkpt lat="44.7259300" lon="7.3083770">
        <ele>464.8</ele>
        <time>2017-07-25T09:47:13Z</time>
      </trkpt>
      <trkpt lat="44.7262960" lon="7.3085170">
        <ele>464.0</ele>
        <time>2017-07-25T09:47:18Z</time>
      </trkpt>
      <trkpt lat="44.7264330" lon="7.3086230">
        <ele>463.6</ele>
        <time>2017-07-25T09:47:20Z</time>
      </trkpt>
      <trkpt lat="44.7265980" lon="7.3088270">
        <ele>463.0</ele>
        <time>2017-07-25T09:47:23Z</time>
      </trkpt>
      <trkpt lat="44.7266360" lon="7.3091140">
        <ele>462.4</ele>
        <time>2017-07-25T09:47:26Z</time>
      </trkpt>
      <trkpt lat="44.7266560" lon="7.3092070">
        <ele>462.2</ele>
        <time>2017-07-25T09:47:27Z</time>
      </trkpt>
      <trkpt lat="44.7267440" lon="7.3093490">
        <ele>461.8</ele>
        <time>2017-07-25T09:47:29Z</time>
      </trkpt>
      <trkpt lat="44.7268490" lon="7.3094770">
        <ele>461.4</ele>
        <time>2017-07-25T09:47:31Z</time>
      </trkpt>
      <trkpt lat="44.7268980" lon="7.3095570">
        <ele>461.2</ele>
        <time>2017-07-25T09:47:32Z</time>
      </trkpt>
      <trkpt lat="44.7269800" lon="7.3097360">
        <ele>460.8</ele>
        <time>2017-07-25T09:47:34Z</time>
      </trkpt>
      <trkpt lat="44.7270400" lon="7.3099300">
        <ele>460.4</ele>
        <time>2017-07-25T09:47:36Z</time>
      </trkpt>
      <trkpt lat="44.7270770" lon="7.3101130">
        <ele>460.0</ele>
        <time>2017-07-25T09:47:38Z</time>
      </trkpt>
      <trkpt lat="44.7270950" lon="7.3101720">
        <ele>460.0</ele>
        <time>2017-07-25T09:47:39Z</time>
      </trkpt>
      <trkpt lat="44.7271200" lon="7.3101960">
        <ele>460.0</ele>
        <time>2017-07-25T09:47:40Z</time>
      </trkpt>
      <trkpt lat="44.7271980" lon="7.3101470">
        <ele>459.6</ele>
        <time>2017-07-25T09:47:43Z</time>
      </trkpt>
      <trkpt lat="44.7272620" lon="7.3099730">
        <ele>460.0</ele>
        <time>2017-07-25T09:47:46Z</time>
      </trkpt>
      <trkpt lat="44.7272790" lon="7.3099120">
        <ele>460.0</ele>
        <time>2017-07-25T09:47:47Z</time>
      </trkpt>
      <trkpt lat="44.7273240" lon="7.3097270">
        <ele>459.6</ele>
        <time>2017-07-25T09:47:50Z</time>
      </trkpt>
      <trkpt lat="44.7273910" lon="7.3094020">
        <ele>459.6</ele>
        <time>2017-07-25T09:47:55Z</time>
      </trkpt>
      <trkpt lat="44.7273980" lon="7.3093300">
        <ele>459.8</ele>
        <time>2017-07-25T09:47:56Z</time>
      </trkpt>
      <trkpt lat="44.7274320" lon="7.3088350">
        <ele>460.2</ele>
        <time>2017-07-25T09:48:03Z</time>
      </trkpt>
      <trkpt lat="44.7274340" lon="7.3087680">
        <ele>460.2</ele>
        <time>2017-07-25T09:48:04Z</time>
      </trkpt>
      <trkpt lat="44.7274590" lon="7.3081870">
        <ele>460.6</ele>
        <time>2017-07-25T09:48:13Z</time>
      </trkpt>
      <trkpt lat="44.7274730" lon="7.3081290">
        <ele>460.6</ele>
        <time>2017-07-25T09:48:14Z</time>
      </trkpt>
      <trkpt lat="44.7275400" lon="7.3079690">
        <ele>461.4</ele>
        <time>2017-07-25T09:48:17Z</time>
      </trkpt>
      <trkpt lat="44.7275650" lon="7.3079190">
        <ele>461.6</ele>
        <time>2017-07-25T09:48:18Z</time>
      </trkpt>
      <trkpt lat="44.7275900" lon="7.3078730">
        <ele>462.0</ele>
        <time>2017-07-25T09:48:19Z</time>
      </trkpt>
      <trkpt lat="44.7276410" lon="7.3077790">
        <ele>462.8</ele>
        <time>2017-07-25T09:48:21Z</time>
      </trkpt>
      <trkpt lat="44.7276830" lon="7.3076880">
        <ele>463.6</ele>
        <time>2017-07-25T09:48:23Z</time>
      </trkpt>
      <trkpt lat="44.7277060" lon="7.3076450">
        <ele>464.2</ele>
        <time>2017-07-25T09:48:24Z</time>
      </trkpt>
      <trkpt lat="44.7277740" lon="7.3075120">
        <ele>465.4</ele>
        <time>2017-07-25T09:48:27Z</time>
      </trkpt>
      <trkpt lat="44.7278440" lon="7.3073810">
        <ele>466.8</ele>
        <time>2017-07-25T09:48:30Z</time>
      </trkpt>
      <trkpt lat="44.7279050" lon="7.3072330">
        <ele>468.0</ele>
        <time>2017-07-25T09:48:33Z</time>
      </trkpt>
      <trkpt lat="44.7279210" lon="7.3071800">
        <ele>468.4</ele>
        <time>2017-07-25T09:48:34Z</time>
      </trkpt>
      <trkpt lat="44.7279410" lon="7.3070700">
        <ele>469.2</ele>
        <time>2017-07-25T09:48:36Z</time>
      </trkpt>
      <trkpt lat="44.7279490" lon="7.3070160">
        <ele>469.4</ele>
        <time>2017-07-25T09:48:37Z</time>
      </trkpt>
      <trkpt lat="44.7279710" lon="7.3068570">
        <ele>469.8</ele>
        <time>2017-07-25T09:48:40Z</time>
      </trkpt>
      <trkpt lat="44.7279950" lon="7.3067030">
        <ele>470.4</ele>
        <time>2017-07-25T09:48:43Z</time>
      </trkpt>
      <trkpt lat="44.7280460" lon="7.3063800">
        <ele>470.8</ele>
        <time>2017-07-25T09:48:49Z</time>
      </trkpt>
      <trkpt lat="44.7280570" lon="7.3062730">
        <ele>471.0</ele>
        <time>2017-07-25T09:48:51Z</time>
      </trkpt>
      <trkpt lat="44.7280770" lon="7.3060460">
        <ele>471.4</ele>
        <time>2017-07-25T09:48:55Z</time>
      </trkpt>
      <trkpt lat="44.7280830" lon="7.3059880">
        <ele>471.6</ele>
        <time>2017-07-25T09:48:56Z</time>
      </trkpt>
      <trkpt lat="44.7281050" lon="7.3056070">
        <ele>472.6</ele>
        <time>2017-07-25T09:49:03Z</time>
      </trkpt>
      <trkpt lat="44.7281090" lon="7.3055510">
        <ele>472.8</ele>
        <time>2017-07-25T09:49:04Z</time>
      </trkpt>
      <trkpt lat="44.7281800" lon="7.3051560">
        <ele>473.4</ele>
        <time>2017-07-25T09:49:11Z</time>
      </trkpt>
      <trkpt lat="44.7282080" lon="7.3050470">
        <ele>473.8</ele>
        <time>2017-07-25T09:49:13Z</time>
      </trkpt>
      <trkpt lat="44.7282770" lon="7.3047820">
        <ele>474.8</ele>
        <time>2017-07-25T09:49:18Z</time>
      </trkpt>
      <trkpt lat="44.7282880" lon="7.3047310">
        <ele>475.0</ele>
        <time>2017-07-25T09:49:19Z</time>
      </trkpt>
      <trkpt lat="44.7283440" lon="7.3045420">
        <ele>476.0</ele>
        <time>2017-07-25T09:49:23Z</time>
      </trkpt>
      <trkpt lat="44.7284050" lon="7.3043550">
        <ele>477.2</ele>
        <time>2017-07-25T09:49:27Z</time>
      </trkpt>
      <trkpt lat="44.7284220" lon="7.3043110">
        <ele>477.8</ele>
        <time>2017-07-25T09:49:28Z</time>
      </trkpt>
      <trkpt lat="44.7284570" lon="7.3042260">
        <ele>478.6</ele>
        <time>2017-07-25T09:49:30Z</time>
      </trkpt>
      <trkpt lat="44.7285250" lon="7.3041000">
        <ele>480.0</ele>
        <time>2017-07-25T09:49:33Z</time>
      </trkpt>
      <trkpt lat="44.7285670" lon="7.3040130">
        <ele>481.0</ele>
        <time>2017-07-25T09:49:35Z</time>
      </trkpt>
      <trkpt lat="44.7286010" lon="7.3039190">
        <ele>481.8</ele>
        <time>2017-07-25T09:49:37Z</time>
      </trkpt>
      <trkpt lat="44.7286320" lon="7.3038250">
        <ele>482.4</ele>
        <time>2017-07-25T09:49:39Z</time>
      </trkpt>
      <trkpt lat="44.7287000" lon="7.3035840">
        <ele>483.6</ele>
        <time>2017-07-25T09:49:44Z</time>
      </trkpt>
      <trkpt lat="44.7287150" lon="7.3035350">
        <ele>483.6</ele>
        <time>2017-07-25T09:49:45Z</time>
      </trkpt>
      <trkpt lat="44.7287300" lon="7.3034860">
        <ele>483.8</ele>
        <time>2017-07-25T09:49:46Z</time>
      </trkpt>
      <trkpt lat="44.7288090" lon="7.3033010">
        <ele>484.8</ele>
        <time>2017-07-25T09:49:50Z</time>
      </trkpt>
      <trkpt lat="44.7288540" lon="7.3032200">
        <ele>485.8</ele>
        <time>2017-07-25T09:49:52Z</time>
      </trkpt>
      <trkpt lat="44.7289380" lon="7.3030410">
        <ele>487.2</ele>
        <time>2017-07-25T09:49:56Z</time>
      </trkpt>
      <trkpt lat="44.7289880" lon="7.3028480">
        <ele>488.4</ele>
        <time>2017-07-25T09:50:00Z</time>
      </trkpt>
      <trkpt lat="44.7290840" lon="7.3024940">
        <ele>489.2</ele>
        <time>2017-07-25T09:50:07Z</time>
      </trkpt>
      <trkpt lat="44.7291070" lon="7.3024480">
        <ele>489.4</ele>
        <time>2017-07-25T09:50:08Z</time>
      </trkpt>
      <trkpt lat="44.7291990" lon="7.3022720">
        <ele>490.6</ele>
        <time>2017-07-25T09:50:12Z</time>
      </trkpt>
      <trkpt lat="44.7292560" lon="7.3021470">
        <ele>491.6</ele>
        <time>2017-07-25T09:50:15Z</time>
      </trkpt>
      <trkpt lat="44.7292720" lon="7.3020990">
        <ele>492.0</ele>
        <time>2017-07-25T09:50:16Z</time>
      </trkpt>
      <trkpt lat="44.7293870" lon="7.3016620">
        <ele>493.0</ele>
        <time>2017-07-25T09:50:25Z</time>
      </trkpt>
      <trkpt lat="44.7294750" lon="7.3012800">
        <ele>494.2</ele>
        <time>2017-07-25T09:50:33Z</time>
      </trkpt>
      <trkpt lat="44.7295010" lon="7.3011840">
        <ele>494.2</ele>
        <time>2017-07-25T09:50:35Z</time>
      </trkpt>
      <trkpt lat="44.7295630" lon="7.3009660">
        <ele>495.2</ele>
        <time>2017-07-25T09:50:40Z</time>
      </trkpt>
      <trkpt lat="44.7295840" lon="7.3008680">
        <ele>496.0</ele>
        <time>2017-07-25T09:50:42Z</time>
      </trkpt>
      <trkpt lat="44.7295940" lon="7.3008180">
        <ele>496.4</ele>
        <time>2017-07-25T09:50:43Z</time>
      </trkpt>
      <trkpt lat="44.7296230" lon="7.3006710">
        <ele>497.6</ele>
        <time>2017-07-25T09:50:46Z</time>
      </trkpt>
      <trkpt lat="44.7296320" lon="7.3004670">
        <ele>498.2</ele>
        <time>2017-07-25T09:50:50Z</time>
      </trkpt>
      <trkpt lat="44.7296140" lon="7.3003100">
        <ele>498.6</ele>
        <time>2017-07-25T09:50:53Z</time>
      </trkpt>
      <trkpt lat="44.7295860" lon="7.3000610">
        <ele>499.4</ele>
        <time>2017-07-25T09:50:58Z</time>
      </trkpt>
      <trkpt lat="44.7295780" lon="7.2999600">
        <ele>499.6</ele>
        <time>2017-07-25T09:51:00Z</time>
      </trkpt>
      <trkpt lat="44.7295540" lon="7.2996110">
        <ele>500.6</ele>
        <time>2017-07-25T09:51:07Z</time>
      </trkpt>
      <trkpt lat="44.7295540" lon="7.2995620">
        <ele>500.8</ele>
        <time>2017-07-25T09:51:08Z</time>
      </trkpt>
      <trkpt lat="44.7295640" lon="7.2993350">
        <ele>501.6</ele>
        <time>2017-07-25T09:51:13Z</time>
      </trkpt>
      <trkpt lat="44.7295700" lon="7.2992410">
        <ele>502.0</ele>
        <time>2017-07-25T09:51:15Z</time>
      </trkpt>
      <trkpt lat="44.7295930" lon="7.2990620">
        <ele>503.0</ele>
        <time>2017-07-25T09:51:19Z</time>
      </trkpt>
      <trkpt lat="44.7296020" lon="7.2989770">
        <ele>503.4</ele>
        <time>2017-07-25T09:51:21Z</time>
      </trkpt>
      <trkpt lat="44.7296260" lon="7.2988580">
        <ele>504.2</ele>
        <time>2017-07-25T09:51:24Z</time>
      </trkpt>
      <trkpt lat="44.7296520" lon="7.2986950">
        <ele>505.4</ele>
        <time>2017-07-25T09:51:28Z</time>
      </trkpt>
      <trkpt lat="44.7296610" lon="7.2986540">
        <ele>505.8</ele>
        <time>2017-07-25T09:51:29Z</time>
      </trkpt>
      <trkpt lat="44.7296830" lon="7.2985740">
        <ele>506.6</ele>
        <time>2017-07-25T09:51:31Z</time>
      </trkpt>
      <trkpt lat="44.7297120" lon="7.2984980">
        <ele>507.6</ele>
        <time>2017-07-25T09:51:33Z</time>
      </trkpt>
      <trkpt lat="44.7297440" lon="7.2984180">
        <ele>508.6</ele>
        <time>2017-07-25T09:51:35Z</time>
      </trkpt>
      <trkpt lat="44.7297730" lon="7.2983320">
        <ele>509.2</ele>
        <time>2017-07-25T09:51:37Z</time>
      </trkpt>
      <trkpt lat="44.7297970" lon="7.2982450">
        <ele>509.6</ele>
        <time>2017-07-25T09:51:39Z</time>
      </trkpt>
      <trkpt lat="44.7298380" lon="7.2980280">
        <ele>510.8</ele>
        <time>2017-07-25T09:51:44Z</time>
      </trkpt>
      <trkpt lat="44.7298620" lon="7.2978850">
        <ele>511.8</ele>
        <time>2017-07-25T09:51:47Z</time>
      </trkpt>
      <trkpt lat="44.7298800" lon="7.2975880">
        <ele>512.4</ele>
        <time>2017-07-25T09:51:53Z</time>
      </trkpt>
      <trkpt lat="44.7298740" lon="7.2973900">
        <ele>512.8</ele>
        <time>2017-07-25T09:51:57Z</time>
      </trkpt>
      <trkpt lat="44.7298610" lon="7.2971840">
        <ele>513.8</ele>
        <time>2017-07-25T09:52:01Z</time>
      </trkpt>
      <trkpt lat="44.7298560" lon="7.2970800">
        <ele>513.8</ele>
        <time>2017-07-25T09:52:03Z</time>
      </trkpt>
      <trkpt lat="44.7298540" lon="7.2970260">
        <ele>507.8</ele>
        <time>2017-07-25T09:52:04Z</time>
      </trkpt>
      <trkpt lat="44.7298520" lon="7.2969730">
        <ele>501.2</ele>
        <time>2017-07-25T09:52:05Z</time>
      </trkpt>
      <trkpt lat="44.7298480" lon="7.2969220">
        <ele>498.8</ele>
        <time>2017-07-25T09:52:06Z</time>
      </trkpt>
      <trkpt lat="44.7298460" lon="7.2968710">
        <ele>505.6</ele>
        <time>2017-07-25T09:52:07Z</time>
      </trkpt>
      <trkpt lat="44.7298430" lon="7.2968180">
        <ele>513.0</ele>
        <time>2017-07-25T09:52:08Z</time>
      </trkpt>
      <trkpt lat="44.7298410" lon="7.2967650">
        <ele>516.4</ele>
        <time>2017-07-25T09:52:09Z</time>
      </trkpt>
      <trkpt lat="44.7297690" lon="7.2964250">
        <ele>517.0</ele>
        <time>2017-07-25T09:52:16Z</time>
      </trkpt>
      <trkpt lat="44.7297090" lon="7.2962930">
        <ele>517.4</ele>
        <time>2017-07-25T09:52:19Z</time>
      </trkpt>
      <trkpt lat="44.7295940" lon="7.2960770">
        <ele>518.0</ele>
        <time>2017-07-25T09:52:24Z</time>
      </trkpt>
      <trkpt lat="44.7295480" lon="7.2959870">
        <ele>518.4</ele>
        <time>2017-07-25T09:52:26Z</time>
      </trkpt>
      <trkpt lat="44.7294760" lon="7.2958470">
        <ele>519.6</ele>
        <time>2017-07-25T09:52:29Z</time>
      </trkpt>
      <trkpt lat="44.7294250" lon="7.2957540">
        <ele>520.0</ele>
        <time>2017-07-25T09:52:31Z</time>
      </trkpt>
      <trkpt lat="44.7293430" lon="7.2956150">
        <ele>520.8</ele>
        <time>2017-07-25T09:52:34Z</time>
      </trkpt>
      <trkpt lat="44.7292330" lon="7.2954400">
        <ele>521.8</ele>
        <time>2017-07-25T09:52:38Z</time>
      </trkpt>
      <trkpt lat="44.7292090" lon="7.2953960">
        <ele>522.0</ele>
        <time>2017-07-25T09:52:39Z</time>
      </trkpt>
      <trkpt lat="44.7291660" lon="7.2953060">
        <ele>522.8</ele>
        <time>2017-07-25T09:52:41Z</time>
      </trkpt>
      <trkpt lat="44.7290500" lon="7.2951080">
        <ele>523.4</ele>
        <time>2017-07-25T09:52:46Z</time>
      </trkpt>
      <trkpt lat="44.7289400" lon="7.2949180">
        <ele>524.0</ele>
        <time>2017-07-25T09:52:51Z</time>
      </trkpt>
      <trkpt lat="44.7288400" lon="7.2947230">
        <ele>524.6</ele>
        <time>2017-07-25T09:52:56Z</time>
      </trkpt>
      <trkpt lat="44.7288040" lon="7.2946360">
        <ele>525.0</ele>
        <time>2017-07-25T09:52:58Z</time>
      </trkpt>
      <trkpt lat="44.7287490" lon="7.2943930">
        <ele>525.8</ele>
        <time>2017-07-25T09:53:03Z</time>
      </trkpt>
      <trkpt lat="44.7287430" lon="7.2943430">
        <ele>526.2</ele>
        <time>2017-07-25T09:53:04Z</time>
      </trkpt>
      <trkpt lat="44.7287430" lon="7.2940770">
        <ele>527.4</ele>
        <time>2017-07-25T09:53:09Z</time>
      </trkpt>
      <trkpt lat="44.7287470" lon="7.2940210">
        <ele>527.6</ele>
        <time>2017-07-25T09:53:10Z</time>
      </trkpt>
      <trkpt lat="44.7287930" lon="7.2937160">
        <ele>528.6</ele>
        <time>2017-07-25T09:53:16Z</time>
      </trkpt>
      <trkpt lat="44.7288200" lon="7.2936180">
        <ele>528.8</ele>
        <time>2017-07-25T09:53:18Z</time>
      </trkpt>
      <trkpt lat="44.7288330" lon="7.2935720">
        <ele>529.0</ele>
        <time>2017-07-25T09:53:19Z</time>
      </trkpt>
      <trkpt lat="44.7288630" lon="7.2934780">
        <ele>529.8</ele>
        <time>2017-07-25T09:53:21Z</time>
      </trkpt>
      <trkpt lat="44.7289300" lon="7.2933070">
        <ele>530.8</ele>
        <time>2017-07-25T09:53:25Z</time>
      </trkpt>
      <trkpt lat="44.7289860" lon="7.2931840">
        <ele>532.4</ele>
        <time>2017-07-25T09:53:28Z</time>
      </trkpt>
      <trkpt lat="44.7290370" lon="7.2930520">
        <ele>533.4</ele>
        <time>2017-07-25T09:53:31Z</time>
      </trkpt>
      <trkpt lat="44.7290890" lon="7.2929250">
        <ele>534.4</ele>
        <time>2017-07-25T09:53:34Z</time>
      </trkpt>
      <trkpt lat="44.7291030" lon="7.2928840">
        <ele>534.8</ele>
        <time>2017-07-25T09:53:35Z</time>
      </trkpt>
      <trkpt lat="44.7291470" lon="7.2927680">
        <ele>535.8</ele>
        <time>2017-07-25T09:53:38Z</time>
      </trkpt>
      <trkpt lat="44.7291820" lon="7.2926460">
        <ele>536.8</ele>
        <time>2017-07-25T09:53:41Z</time>
      </trkpt>
      <trkpt lat="44.7292430" lon="7.2924890">
        <ele>538.0</ele>
        <time>2017-07-25T09:53:45Z</time>
      </trkpt>
      <trkpt lat="44.7292900" lon="7.2923800">
        <ele>539.2</ele>
        <time>2017-07-25T09:53:48Z</time>
      </trkpt>
      <trkpt lat="44.7293690" lon="7.2921860">
        <ele>540.4</ele>
        <time>2017-07-25T09:53:53Z</time>
      </trkpt>
      <trkpt lat="44.7294060" lon="7.2921110">
        <ele>540.8</ele>
        <time>2017-07-25T09:53:55Z</time>
      </trkpt>
      <trkpt lat="44.7294460" lon="7.2920390">
        <ele>541.4</ele>
        <time>2017-07-25T09:53:57Z</time>
      </trkpt>
      <trkpt lat="44.7295140" lon="7.2919470">
        <ele>542.4</ele>
        <time>2017-07-25T09:54:00Z</time>
      </trkpt>
      <trkpt lat="44.7295400" lon="7.2919220">
        <ele>542.6</ele>
        <time>2017-07-25T09:54:01Z</time>
      </trkpt>
      <trkpt lat="44.7296140" lon="7.2918330">
        <ele>543.6</ele>
        <time>2017-07-25T09:54:04Z</time>
      </trkpt>
      <trkpt lat="44.7296880" lon="7.2917450">
        <ele>544.6</ele>
        <time>2017-07-25T09:54:07Z</time>
      </trkpt>
      <trkpt lat="44.7297110" lon="7.2917130">
        <ele>545.0</ele>
        <time>2017-07-25T09:54:08Z</time>
      </trkpt>
      <trkpt lat="44.7297840" lon="7.2916280">
        <ele>545.8</ele>
        <time>2017-07-25T09:54:11Z</time>
      </trkpt>
      <trkpt lat="44.7298830" lon="7.2915120">
        <ele>546.8</ele>
        <time>2017-07-25T09:54:15Z</time>
      </trkpt>
      <trkpt lat="44.7299090" lon="7.2914830">
        <ele>547.4</ele>
        <time>2017-07-25T09:54:16Z</time>
      </trkpt>
      <trkpt lat="44.7300070" lon="7.2913820">
        <ele>548.6</ele>
        <time>2017-07-25T09:54:20Z</time>
      </trkpt>
      <trkpt lat="44.7300660" lon="7.2912860">
        <ele>549.2</ele>
        <time>2017-07-25T09:54:23Z</time>
      </trkpt>
      <trkpt lat="44.7301010" lon="7.2912100">
        <ele>549.8</ele>
        <time>2017-07-25T09:54:25Z</time>
      </trkpt>
      <trkpt lat="44.7301720" lon="7.2910570">
        <ele>551.0</ele>
        <time>2017-07-25T09:54:29Z</time>
      </trkpt>
      <trkpt lat="44.7301840" lon="7.2910150">
        <ele>551.4</ele>
        <time>2017-07-25T09:54:30Z</time>
      </trkpt>
      <trkpt lat="44.7302400" lon="7.2907100">
        <ele>551.6</ele>
        <time>2017-07-25T09:54:37Z</time>
      </trkpt>
      <trkpt lat="44.7302940" lon="7.2904540">
        <ele>552.2</ele>
        <time>2017-07-25T09:54:43Z</time>
      </trkpt>
      <trkpt lat="44.7303070" lon="7.2903670">
        <ele>552.4</ele>
        <time>2017-07-25T09:54:45Z</time>
      </trkpt>
      <trkpt lat="44.7303350" lon="7.2901950">
        <ele>553.4</ele>
        <time>2017-07-25T09:54:49Z</time>
      </trkpt>
      <trkpt lat="44.7303580" lon="7.2900110">
        <ele>554.6</ele>
        <time>2017-07-25T09:54:53Z</time>
      </trkpt>
      <trkpt lat="44.7303690" lon="7.2899670">
        <ele>555.0</ele>
        <time>2017-07-25T09:54:54Z</time>
      </trkpt>
      <trkpt lat="44.7303910" lon="7.2898800">
        <ele>555.8</ele>
        <time>2017-07-25T09:54:56Z</time>
      </trkpt>
      <trkpt lat="44.7304210" lon="7.2897500">
        <ele>556.8</ele>
        <time>2017-07-25T09:54:59Z</time>
      </trkpt>
      <trkpt lat="44.7304520" lon="7.2895720">
        <ele>557.4</ele>
        <time>2017-07-25T09:55:03Z</time>
      </trkpt>
      <trkpt lat="44.7305200" lon="7.2891430">
        <ele>557.4</ele>
        <time>2017-07-25T09:55:13Z</time>
      </trkpt>
      <trkpt lat="44.7305610" lon="7.2889720">
        <ele>557.8</ele>
        <time>2017-07-25T09:55:17Z</time>
      </trkpt>
      <trkpt lat="44.7305840" lon="7.2888020">
        <ele>558.4</ele>
        <time>2017-07-25T09:55:21Z</time>
      </trkpt>
      <trkpt lat="44.7306320" lon="7.2886110">
        <ele>559.0</ele>
        <time>2017-07-25T09:55:26Z</time>
      </trkpt>
      <trkpt lat="44.7306500" lon="7.2884840">
        <ele>559.6</ele>
        <time>2017-07-25T09:55:29Z</time>
      </trkpt>
      <trkpt lat="44.7306820" lon="7.2882770">
        <ele>560.2</ele>
        <time>2017-07-25T09:55:34Z</time>
      </trkpt>
      <trkpt lat="44.7307090" lon="7.2881550">
        <ele>561.0</ele>
        <time>2017-07-25T09:55:37Z</time>
      </trkpt>
      <trkpt lat="44.7307300" lon="7.2880730">
        <ele>561.4</ele>
        <time>2017-07-25T09:55:39Z</time>
      </trkpt>
      <trkpt lat="44.7307700" lon="7.2878350">
        <ele>562.4</ele>
        <time>2017-07-25T09:55:45Z</time>
      </trkpt>
      <trkpt lat="44.7307730" lon="7.2877950">
        <ele>562.6</ele>
        <time>2017-07-25T09:55:46Z</time>
      </trkpt>
      <trkpt lat="44.7308190" lon="7.2875550">
        <ele>563.8</ele>
        <time>2017-07-25T09:55:52Z</time>
      </trkpt>
      <trkpt lat="44.7308370" lon="7.2874750">
        <ele>564.4</ele>
        <time>2017-07-25T09:55:54Z</time>
      </trkpt>
      <trkpt lat="44.7308500" lon="7.2873960">
        <ele>565.0</ele>
        <time>2017-07-25T09:55:56Z</time>
      </trkpt>
      <trkpt lat="44.7308800" lon="7.2872830">
        <ele>566.2</ele>
        <time>2017-07-25T09:56:00Z</time>
      </trkpt>
      <trkpt lat="44.7308970" lon="7.2871630">
        <ele>567.2</ele>
        <time>2017-07-25T09:56:03Z</time>
      </trkpt>
      <trkpt lat="44.7309020" lon="7.2871250">
        <ele>567.4</ele>
        <time>2017-07-25T09:56:04Z</time>
      </trkpt>
      <trkpt lat="44.7309270" lon="7.2869650">
        <ele>568.4</ele>
        <time>2017-07-25T09:56:08Z</time>
      </trkpt>
      <trkpt lat="44.7309440" lon="7.2868860">
        <ele>568.8</ele>
        <time>2017-07-25T09:56:10Z</time>
      </trkpt>
      <trkpt lat="44.7309600" lon="7.2867600">
        <ele>569.6</ele>
        <time>2017-07-25T09:56:13Z</time>
      </trkpt>
      <trkpt lat="44.7309840" lon="7.2866380">
        <ele>570.4</ele>
        <time>2017-07-25T09:56:16Z</time>
      </trkpt>
      <trkpt lat="44.7310000" lon="7.2865600">
        <ele>571.2</ele>
        <time>2017-07-25T09:56:18Z</time>
      </trkpt>
      <trkpt lat="44.7310220" lon="7.2864420">
        <ele>572.4</ele>
        <time>2017-07-25T09:56:21Z</time>
      </trkpt>
      <trkpt lat="44.7310280" lon="7.2864050">
        <ele>572.6</ele>
        <time>2017-07-25T09:56:22Z</time>
      </trkpt>
      <trkpt lat="44.7310470" lon="7.2863300">
        <ele>573.4</ele>
        <time>2017-07-25T09:56:24Z</time>
      </trkpt>
      <trkpt lat="44.7310660" lon="7.2861640">
        <ele>574.2</ele>
        <time>2017-07-25T09:56:28Z</time>
      </trkpt>
      <trkpt lat="44.7310710" lon="7.2861230">
        <ele>574.4</ele>
        <time>2017-07-25T09:56:29Z</time>
      </trkpt>
      <trkpt lat="44.7310890" lon="7.2860020">
        <ele>575.4</ele>
        <time>2017-07-25T09:56:32Z</time>
      </trkpt>
      <trkpt lat="44.7310940" lon="7.2858830">
        <ele>576.0</ele>
        <time>2017-07-25T09:56:35Z</time>
      </trkpt>
      <trkpt lat="44.7310940" lon="7.2857620">
        <ele>576.6</ele>
        <time>2017-07-25T09:56:38Z</time>
      </trkpt>
      <trkpt lat="44.7310750" lon="7.2856060">
        <ele>577.2</ele>
        <time>2017-07-25T09:56:42Z</time>
      </trkpt>
      <trkpt lat="44.7310730" lon="7.2855300">
        <ele>577.6</ele>
        <time>2017-07-25T09:56:44Z</time>
      </trkpt>
      <trkpt lat="44.7310570" lon="7.2853390">
        <ele>578.4</ele>
        <time>2017-07-25T09:56:49Z</time>
      </trkpt>
      <trkpt lat="44.7310440" lon="7.2851880">
        <ele>578.8</ele>
        <time>2017-07-25T09:56:53Z</time>
      </trkpt>
      <trkpt lat="44.7310240" lon="7.2850020">
        <ele>579.6</ele>
        <time>2017-07-25T09:56:58Z</time>
      </trkpt>
      <trkpt lat="44.7310080" lon="7.2848890">
        <ele>579.8</ele>
        <time>2017-07-25T09:57:01Z</time>
      </trkpt>
      <trkpt lat="44.7309900" lon="7.2847000">
        <ele>580.6</ele>
        <time>2017-07-25T09:57:06Z</time>
      </trkpt>
      <trkpt lat="44.7309720" lon="7.2845880">
        <ele>581.0</ele>
        <time>2017-07-25T09:57:09Z</time>
      </trkpt>
      <trkpt lat="44.7309440" lon="7.2843620">
        <ele>581.6</ele>
        <time>2017-07-25T09:57:15Z</time>
      </trkpt>
      <trkpt lat="44.7309320" lon="7.2842490">
        <ele>582.0</ele>
        <time>2017-07-25T09:57:18Z</time>
      </trkpt>
      <trkpt lat="44.7309310" lon="7.2841050">
        <ele>583.2</ele>
        <time>2017-07-25T09:57:22Z</time>
      </trkpt>
      <trkpt lat="44.7309290" lon="7.2840670">
        <ele>583.6</ele>
        <time>2017-07-25T09:57:23Z</time>
      </trkpt>
      <trkpt lat="44.7309240" lon="7.2839900">
        <ele>584.2</ele>
        <time>2017-07-25T09:57:25Z</time>
      </trkpt>
      <trkpt lat="44.7309250" lon="7.2838770">
        <ele>585.2</ele>
        <time>2017-07-25T09:57:28Z</time>
      </trkpt>
      <trkpt lat="44.7309130" lon="7.2838010">
        <ele>586.2</ele>
        <time>2017-07-25T09:57:30Z</time>
      </trkpt>
      <trkpt lat="44.7309130" lon="7.2837650">
        <ele>586.4</ele>
        <time>2017-07-25T09:57:31Z</time>
      </trkpt>
      <trkpt lat="44.7308990" lon="7.2836180">
        <ele>587.6</ele>
        <time>2017-07-25T09:57:35Z</time>
      </trkpt>
      <trkpt lat="44.7308860" lon="7.2835460">
        <ele>588.2</ele>
        <time>2017-07-25T09:57:37Z</time>
      </trkpt>
      <trkpt lat="44.7308800" lon="7.2835090">
        <ele>588.6</ele>
        <time>2017-07-25T09:57:38Z</time>
      </trkpt>
      <trkpt lat="44.7308750" lon="7.2834370">
        <ele>590.0</ele>
        <time>2017-07-25T09:57:40Z</time>
      </trkpt>
      <trkpt lat="44.7308720" lon="7.2834030">
        <ele>590.4</ele>
        <time>2017-07-25T09:57:41Z</time>
      </trkpt>
      <trkpt lat="44.7308620" lon="7.2833410">
        <ele>591.2</ele>
        <time>2017-07-25T09:57:43Z</time>
      </trkpt>
      <trkpt lat="44.7308520" lon="7.2833070">
        <ele>591.8</ele>
        <time>2017-07-25T09:57:44Z</time>
      </trkpt>
      <trkpt lat="44.7308470" lon="7.2832750">
        <ele>592.4</ele>
        <time>2017-07-25T09:57:45Z</time>
      </trkpt>
      <trkpt lat="44.7308300" lon="7.2832090">
        <ele>593.4</ele>
        <time>2017-07-25T09:57:47Z</time>
      </trkpt>
      <trkpt lat="44.7308060" lon="7.2831500">
        <ele>594.6</ele>
        <time>2017-07-25T09:57:49Z</time>
      </trkpt>
      <trkpt lat="44.7307840" lon="7.2830430">
        <ele>595.8</ele>
        <time>2017-07-25T09:57:52Z</time>
      </trkpt>
      <trkpt lat="44.7307810" lon="7.2829230">
        <ele>596.4</ele>
        <time>2017-07-25T09:57:55Z</time>
      </trkpt>
      <trkpt lat="44.7307800" lon="7.2828020">
        <ele>597.0</ele>
        <time>2017-07-25T09:57:58Z</time>
      </trkpt>
      <trkpt lat="44.7307900" lon="7.2826160">
        <ele>598.2</ele>
        <time>2017-07-25T09:58:03Z</time>
      </trkpt>
      <trkpt lat="44.7308250" lon="7.2823840">
        <ele>599.4</ele>
        <time>2017-07-25T09:58:09Z</time>
      </trkpt>
      <trkpt lat="44.7308180" lon="7.2822550">
        <ele>600.4</ele>
        <time>2017-07-25T09:58:12Z</time>
      </trkpt>
      <trkpt lat="44.7307960" lon="7.2821310">
        <ele>601.4</ele>
        <time>2017-07-25T09:58:15Z</time>
      </trkpt>
      <trkpt lat="44.7307900" lon="7.2820850">
        <ele>601.4</ele>
        <time>2017-07-25T09:58:16Z</time>
      </trkpt>
      <trkpt lat="44.7307740" lon="7.2819910">
        <ele>602.8</ele>
        <time>2017-07-25T09:58:18Z</time>
      </trkpt>
      <trkpt lat="44.7307450" lon="7.2818530">
        <ele>604.0</ele>
        <time>2017-07-25T09:58:21Z</time>
      </trkpt>
      <trkpt lat="44.7307230" lon="7.2817760">
        <ele>605.0</ele>
        <time>2017-07-25T09:58:23Z</time>
      </trkpt>
      <trkpt lat="44.7307040" lon="7.2817030">
        <ele>606.2</ele>
        <time>2017-07-25T09:58:25Z</time>
      </trkpt>
      <trkpt lat="44.7306910" lon="7.2815790">
        <ele>607.6</ele>
        <time>2017-07-25T09:58:28Z</time>
      </trkpt>
      <trkpt lat="44.7306830" lon="7.2814810">
        <ele>608.4</ele>
        <time>2017-07-25T09:58:30Z</time>
      </trkpt>
      <trkpt lat="44.7306750" lon="7.2814400">
        <ele>608.8</ele>
        <time>2017-07-25T09:58:31Z</time>
      </trkpt>
      <trkpt lat="44.7306630" lon="7.2813240">
        <ele>610.0</ele>
        <time>2017-07-25T09:58:34Z</time>
      </trkpt>
      <trkpt lat="44.7306600" lon="7.2812320">
        <ele>610.6</ele>
        <time>2017-07-25T09:58:36Z</time>
      </trkpt>
      <trkpt lat="44.7306610" lon="7.2811830">
        <ele>611.0</ele>
        <time>2017-07-25T09:58:37Z</time>
      </trkpt>
      <trkpt lat="44.7306710" lon="7.2809770">
        <ele>612.0</ele>
        <time>2017-07-25T09:58:41Z</time>
      </trkpt>
      <trkpt lat="44.7306790" lon="7.2808750">
        <ele>612.8</ele>
        <time>2017-07-25T09:58:43Z</time>
      </trkpt>
      <trkpt lat="44.7306870" lon="7.2808210">
        <ele>613.2</ele>
        <time>2017-07-25T09:58:44Z</time>
      </trkpt>
      <trkpt lat="44.7307230" lon="7.2805230">
        <ele>613.0</ele>
        <time>2017-07-25T09:58:50Z</time>
      </trkpt>
      <trkpt lat="44.7307040" lon="7.2803150">
        <ele>614.2</ele>
        <time>2017-07-25T09:58:55Z</time>
      </trkpt>
      <trkpt lat="44.7307000" lon="7.2802760">
        <ele>614.6</ele>
        <time>2017-07-25T09:58:56Z</time>
      </trkpt>
      <trkpt lat="44.7306890" lon="7.2801300">
        <ele>615.6</ele>
        <time>2017-07-25T09:59:00Z</time>
      </trkpt>
      <trkpt lat="44.7306990" lon="7.2799950">
        <ele>616.0</ele>
        <time>2017-07-25T09:59:03Z</time>
      </trkpt>
      <trkpt lat="44.7306970" lon="7.2798760">
        <ele>617.0</ele>
        <time>2017-07-25T09:59:06Z</time>
      </trkpt>
      <trkpt lat="44.7307040" lon="7.2797640">
        <ele>617.8</ele>
        <time>2017-07-25T09:59:09Z</time>
      </trkpt>
      <trkpt lat="44.7307070" lon="7.2797290">
        <ele>618.2</ele>
        <time>2017-07-25T09:59:10Z</time>
      </trkpt>
      <trkpt lat="44.7306940" lon="7.2795310">
        <ele>619.2</ele>
        <time>2017-07-25T09:59:15Z</time>
      </trkpt>
      <trkpt lat="44.7306820" lon="7.2793310">
        <ele>620.4</ele>
        <time>2017-07-25T09:59:20Z</time>
      </trkpt>
      <trkpt lat="44.7306760" lon="7.2792060">
        <ele>621.2</ele>
        <time>2017-07-25T09:59:23Z</time>
      </trkpt>
      <trkpt lat="44.7306750" lon="7.2791600">
        <ele>621.4</ele>
        <time>2017-07-25T09:59:24Z</time>
      </trkpt>
      <trkpt lat="44.7306870" lon="7.2788760">
        <ele>622.4</ele>
        <time>2017-07-25T09:59:31Z</time>
      </trkpt>
      <trkpt lat="44.7306610" lon="7.2787110">
        <ele>622.6</ele>
        <time>2017-07-25T09:59:35Z</time>
      </trkpt>
      <trkpt lat="44.7306330" lon="7.2786390">
        <ele>622.8</ele>
        <time>2017-07-25T09:59:37Z</time>
      </trkpt>
      <trkpt lat="44.7305870" lon="7.2785330">
        <ele>623.8</ele>
        <time>2017-07-25T09:59:40Z</time>
      </trkpt>
      <trkpt lat="44.7305310" lon="7.2784340">
        <ele>624.6</ele>
        <time>2017-07-25T09:59:43Z</time>
      </trkpt>
      <trkpt lat="44.7305140" lon="7.2783940">
        <ele>625.0</ele>
        <time>2017-07-25T09:59:44Z</time>
      </trkpt>
      <trkpt lat="44.7304750" lon="7.2782370">
        <ele>626.0</ele>
        <time>2017-07-25T09:59:48Z</time>
      </trkpt>
      <trkpt lat="44.7304720" lon="7.2782000">
        <ele>626.4</ele>
        <time>2017-07-25T09:59:49Z</time>
      </trkpt>
      <trkpt lat="44.7304700" lon="7.2780930">
        <ele>627.0</ele>
        <time>2017-07-25T09:59:52Z</time>
      </trkpt>
      <trkpt lat="44.7304730" lon="7.2780230">
        <ele>628.2</ele>
        <time>2017-07-25T09:59:54Z</time>
      </trkpt>
      <trkpt lat="44.7304840" lon="7.2779170">
        <ele>629.0</ele>
        <time>2017-07-25T09:59:57Z</time>
      </trkpt>
      <trkpt lat="44.7304870" lon="7.2778830">
        <ele>629.4</ele>
        <time>2017-07-25T09:59:58Z</time>
      </trkpt>
      <trkpt lat="44.7305020" lon="7.2777520">
        <ele>630.4</ele>
        <time>2017-07-25T10:00:02Z</time>
      </trkpt>
      <trkpt lat="44.7305190" lon="7.2775910">
        <ele>631.6</ele>
        <time>2017-07-25T10:00:07Z</time>
      </trkpt>
      <trkpt lat="44.7305200" lon="7.2774170">
        <ele>632.6</ele>
        <time>2017-07-25T10:00:12Z</time>
      </trkpt>
      <trkpt lat="44.7305130" lon="7.2773860">
        <ele>632.8</ele>
        <time>2017-07-25T10:00:13Z</time>
      </trkpt>
      <trkpt lat="44.7304770" lon="7.2772230">
        <ele>633.8</ele>
        <time>2017-07-25T10:00:18Z</time>
      </trkpt>
      <trkpt lat="44.7304660" lon="7.2771110">
        <ele>633.8</ele>
        <time>2017-07-25T10:00:21Z</time>
      </trkpt>
      <trkpt lat="44.7304780" lon="7.2768470">
        <ele>634.2</ele>
        <time>2017-07-25T10:00:28Z</time>
      </trkpt>
      <trkpt lat="44.7305100" lon="7.2766370">
        <ele>634.2</ele>
        <time>2017-07-25T10:00:34Z</time>
      </trkpt>
      <trkpt lat="44.7305380" lon="7.2765400">
        <ele>634.6</ele>
        <time>2017-07-25T10:00:37Z</time>
      </trkpt>
      <trkpt lat="44.7305500" lon="7.2764850">
        <ele>635.0</ele>
        <time>2017-07-25T10:00:39Z</time>
      </trkpt>
      <trkpt lat="44.7305420" lon="7.2763910">
        <ele>636.2</ele>
        <time>2017-07-25T10:00:42Z</time>
      </trkpt>
      <trkpt lat="44.7305350" lon="7.2763190">
        <ele>636.6</ele>
        <time>2017-07-25T10:00:44Z</time>
      </trkpt>
      <trkpt lat="44.7305250" lon="7.2762630">
        <ele>637.2</ele>
        <time>2017-07-25T10:00:46Z</time>
      </trkpt>
      <trkpt lat="44.7304940" lon="7.2761360">
        <ele>638.2</ele>
        <time>2017-07-25T10:00:50Z</time>
      </trkpt>
      <trkpt lat="44.7304800" lon="7.2761060">
        <ele>638.4</ele>
        <time>2017-07-25T10:00:51Z</time>
      </trkpt>
      <trkpt lat="44.7304390" lon="7.2759730">
        <ele>639.4</ele>
        <time>2017-07-25T10:00:55Z</time>
      </trkpt>
      <trkpt lat="44.7304040" lon="7.2758360">
        <ele>639.8</ele>
        <time>2017-07-25T10:00:59Z</time>
      </trkpt>
      <trkpt lat="44.7303950" lon="7.2757570">
        <ele>640.4</ele>
        <time>2017-07-25T10:01:01Z</time>
      </trkpt>
      <trkpt lat="44.7303710" lon="7.2756470">
        <ele>641.2</ele>
        <time>2017-07-25T10:01:04Z</time>
      </trkpt>
      <trkpt lat="44.7303590" lon="7.2756140">
        <ele>641.4</ele>
        <time>2017-07-25T10:01:05Z</time>
      </trkpt>
      <trkpt lat="44.7303340" lon="7.2755270">
        <ele>642.6</ele>
        <time>2017-07-25T10:01:08Z</time>
      </trkpt>
      <trkpt lat="44.7303050" lon="7.2754350">
        <ele>643.8</ele>
        <time>2017-07-25T10:01:11Z</time>
      </trkpt>
      <trkpt lat="44.7303050" lon="7.2753970">
        <ele>644.0</ele>
        <time>2017-07-25T10:01:12Z</time>
      </trkpt>
      <trkpt lat="44.7302850" lon="7.2752720">
        <ele>645.0</ele>
        <time>2017-07-25T10:01:16Z</time>
      </trkpt>
      <trkpt lat="44.7302800" lon="7.2751820">
        <ele>644.8</ele>
        <time>2017-07-25T10:01:19Z</time>
      </trkpt>
      <trkpt lat="44.7302690" lon="7.2749940">
        <ele>646.0</ele>
        <time>2017-07-25T10:01:25Z</time>
      </trkpt>
      <trkpt lat="44.7302660" lon="7.2749720">
        <ele>646.2</ele>
        <time>2017-07-25T10:01:26Z</time>
      </trkpt>
      <trkpt lat="44.7302610" lon="7.2748940">
        <ele>647.2</ele>
        <time>2017-07-25T10:01:29Z</time>
      </trkpt>
      <trkpt lat="44.7302620" lon="7.2748220">
        <ele>648.2</ele>
        <time>2017-07-25T10:01:32Z</time>
      </trkpt>
      <trkpt lat="44.7302590" lon="7.2747990">
        <ele>648.6</ele>
        <time>2017-07-25T10:01:33Z</time>
      </trkpt>
      <trkpt lat="44.7302670" lon="7.2747260">
        <ele>649.4</ele>
        <time>2017-07-25T10:01:36Z</time>
      </trkpt>
      <trkpt lat="44.7302830" lon="7.2746340">
        <ele>650.4</ele>
        <time>2017-07-25T10:01:39Z</time>
      </trkpt>
      <trkpt lat="44.7302880" lon="7.2746000">
        <ele>650.8</ele>
        <time>2017-07-25T10:01:40Z</time>
      </trkpt>
      <trkpt lat="44.7302930" lon="7.2745000">
        <ele>651.8</ele>
        <time>2017-07-25T10:01:43Z</time>
      </trkpt>
      <trkpt lat="44.7302810" lon="7.2743930">
        <ele>652.6</ele>
        <time>2017-07-25T10:01:46Z</time>
      </trkpt>
      <trkpt lat="44.7302850" lon="7.2743070">
        <ele>653.0</ele>
        <time>2017-07-25T10:01:48Z</time>
      </trkpt>
      <trkpt lat="44.7303160" lon="7.2741020">
        <ele>653.8</ele>
        <time>2017-07-25T10:01:52Z</time>
      </trkpt>
      <trkpt lat="44.7303220" lon="7.2740450">
        <ele>654.0</ele>
        <time>2017-07-25T10:01:53Z</time>
      </trkpt>
      <trkpt lat="44.7303450" lon="7.2739260">
        <ele>655.0</ele>
        <time>2017-07-25T10:01:55Z</time>
      </trkpt>
      <trkpt lat="44.7303770" lon="7.2737430">
        <ele>655.6</ele>
        <time>2017-07-25T10:01:58Z</time>
      </trkpt>
      <trkpt lat="44.7303880" lon="7.2736850">
        <ele>656.0</ele>
        <time>2017-07-25T10:01:59Z</time>
      </trkpt>
      <trkpt lat="44.7303960" lon="7.2736250">
        <ele>656.2</ele>
        <time>2017-07-25T10:02:00Z</time>
      </trkpt>
      <trkpt lat="44.7303920" lon="7.2733320">
        <ele>657.2</ele>
        <time>2017-07-25T10:02:05Z</time>
      </trkpt>
      <trkpt lat="44.7303820" lon="7.2731790">
        <ele>657.4</ele>
        <time>2017-07-25T10:02:08Z</time>
      </trkpt>
      <trkpt lat="44.7303780" lon="7.2730460">
        <ele>658.6</ele>
        <time>2017-07-25T10:02:11Z</time>
      </trkpt>
      <trkpt lat="44.7303600" lon="7.2727520">
        <ele>658.6</ele>
        <time>2017-07-25T10:02:18Z</time>
      </trkpt>
      <trkpt lat="44.7303500" lon="7.2725050">
        <ele>659.0</ele>
        <time>2017-07-25T10:02:24Z</time>
      </trkpt>
      <trkpt lat="44.7303420" lon="7.2723790">
        <ele>659.8</ele>
        <time>2017-07-25T10:02:28Z</time>
      </trkpt>
      <trkpt lat="44.7303340" lon="7.2723490">
        <ele>660.0</ele>
        <time>2017-07-25T10:02:29Z</time>
      </trkpt>
      <trkpt lat="44.7302810" lon="7.2722210">
        <ele>660.8</ele>
        <time>2017-07-25T10:02:33Z</time>
      </trkpt>
      <trkpt lat="44.7302370" lon="7.2721370">
        <ele>662.0</ele>
        <time>2017-07-25T10:02:36Z</time>
      </trkpt>
      <trkpt lat="44.7302170" lon="7.2721140">
        <ele>662.4</ele>
        <time>2017-07-25T10:02:37Z</time>
      </trkpt>
      <trkpt lat="44.7301320" lon="7.2720360">
        <ele>663.2</ele>
        <time>2017-07-25T10:02:40Z</time>
      </trkpt>
      <trkpt lat="44.7300760" lon="7.2719760">
        <ele>664.6</ele>
        <time>2017-07-25T10:02:42Z</time>
      </trkpt>
      <trkpt lat="44.7300490" lon="7.2719470">
        <ele>664.8</ele>
        <time>2017-07-25T10:02:43Z</time>
      </trkpt>
      <trkpt lat="44.7299640" lon="7.2718510">
        <ele>665.8</ele>
        <time>2017-07-25T10:02:46Z</time>
      </trkpt>
      <trkpt lat="44.7298700" lon="7.2717330">
        <ele>666.8</ele>
        <time>2017-07-25T10:02:49Z</time>
      </trkpt>
      <trkpt lat="44.7298440" lon="7.2716940">
        <ele>666.8</ele>
        <time>2017-07-25T10:02:50Z</time>
      </trkpt>
      <trkpt lat="44.7297550" lon="7.2715030">
        <ele>668.0</ele>
        <time>2017-07-25T10:02:54Z</time>
      </trkpt>
      <trkpt lat="44.7297380" lon="7.2714530">
        <ele>668.2</ele>
        <time>2017-07-25T10:02:55Z</time>
      </trkpt>
      <trkpt lat="44.7297030" lon="7.2712710">
        <ele>669.0</ele>
        <time>2017-07-25T10:02:59Z</time>
      </trkpt>
      <trkpt lat="44.7297080" lon="7.2711840">
        <ele>669.4</ele>
        <time>2017-07-25T10:03:01Z</time>
      </trkpt>
      <trkpt lat="44.7297830" lon="7.2708910">
        <ele>668.8</ele>
        <time>2017-07-25T10:03:07Z</time>
      </trkpt>
      <trkpt lat="44.7297870" lon="7.2708510">
        <ele>668.8</ele>
        <time>2017-07-25T10:03:08Z</time>
      </trkpt>
      <trkpt lat="44.7297470" lon="7.2707090">
        <ele>669.0</ele>
        <time>2017-07-25T10:03:12Z</time>
      </trkpt>
      <trkpt lat="44.7296770" lon="7.2705410">
        <ele>669.6</ele>
        <time>2017-07-25T10:03:18Z</time>
      </trkpt>
      <trkpt lat="44.7296480" lon="7.2705080">
        <ele>670.2</ele>
        <time>2017-07-25T10:03:20Z</time>
      </trkpt>
      <trkpt lat="44.7296140" lon="7.2704360">
        <ele>671.0</ele>
        <time>2017-07-25T10:03:23Z</time>
      </trkpt>
      <trkpt lat="44.7296020" lon="7.2704100">
        <ele>671.2</ele>
        <time>2017-07-25T10:03:24Z</time>
      </trkpt>
      <trkpt lat="44.7295480" lon="7.2703020">
        <ele>672.2</ele>
        <time>2017-07-25T10:03:28Z</time>
      </trkpt>
      <trkpt lat="44.7295330" lon="7.2702770">
        <ele>672.4</ele>
        <time>2017-07-25T10:03:29Z</time>
      </trkpt>
      <trkpt lat="44.7295080" lon="7.2702420">
        <ele>673.4</ele>
        <time>2017-07-25T10:03:31Z</time>
      </trkpt>
      <trkpt lat="44.7294700" lon="7.2701860">
        <ele>674.2</ele>
        <time>2017-07-25T10:03:34Z</time>
      </trkpt>
      <trkpt lat="44.7294570" lon="7.2701720">
        <ele>674.4</ele>
        <time>2017-07-25T10:03:35Z</time>
      </trkpt>
      <trkpt lat="44.7294120" lon="7.2700910">
        <ele>675.6</ele>
        <time>2017-07-25T10:03:39Z</time>
      </trkpt>
      <trkpt lat="44.7293780" lon="7.2700100">
        <ele>676.6</ele>
        <time>2017-07-25T10:03:43Z</time>
      </trkpt>
      <trkpt lat="44.7293660" lon="7.2698800">
        <ele>677.6</ele>
        <time>2017-07-25T10:03:48Z</time>
      </trkpt>
      <trkpt lat="44.7293650" lon="7.2698560">
        <ele>677.8</ele>
        <time>2017-07-25T10:03:49Z</time>
      </trkpt>
      <trkpt lat="44.7293680" lon="7.2697540">
        <ele>678.8</ele>
        <time>2017-07-25T10:03:53Z</time>
      </trkpt>
      <trkpt lat="44.7293690" lon="7.2697030">
        <ele>679.8</ele>
        <time>2017-07-25T10:03:56Z</time>
      </trkpt>
      <trkpt lat="44.7293510" lon="7.2696260">
        <ele>680.8</ele>
        <time>2017-07-25T10:04:00Z</time>
      </trkpt>
      <trkpt lat="44.7293420" lon="7.2696000">
        <ele>681.0</ele>
        <time>2017-07-25T10:04:01Z</time>
      </trkpt>
      <trkpt lat="44.7293390" lon="7.2695340">
        <ele>681.6</ele>
        <time>2017-07-25T10:04:04Z</time>
      </trkpt>
      <trkpt lat="44.7293220" lon="7.2694430">
        <ele>682.4</ele>
        <time>2017-07-25T10:04:07Z</time>
      </trkpt>
      <trkpt lat="44.7293100" lon="7.2693640">
        <ele>682.6</ele>
        <time>2017-07-25T10:04:10Z</time>
      </trkpt>
      <trkpt lat="44.7292930" lon="7.2692690">
        <ele>683.2</ele>
        <time>2017-07-25T10:04:14Z</time>
      </trkpt>
      <trkpt lat="44.7292880" lon="7.2692480">
        <ele>683.4</ele>
        <time>2017-07-25T10:04:15Z</time>
      </trkpt>
      <trkpt lat="44.7292850" lon="7.2692270">
        <ele>683.4</ele>
        <time>2017-07-25T10:04:16Z</time>
      </trkpt>
      <trkpt lat="44.7292530" lon="7.2691010">
        <ele>684.4</ele>
        <time>2017-07-25T10:04:21Z</time>
      </trkpt>
      <trkpt lat="44.7292490" lon="7.2690590">
        <ele>684.8</ele>
        <time>2017-07-25T10:04:23Z</time>
      </trkpt>
      <trkpt lat="44.7292300" lon="7.2689980">
        <ele>685.4</ele>
        <time>2017-07-25T10:04:26Z</time>
      </trkpt>
      <trkpt lat="44.7291850" lon="7.2688930">
        <ele>686.8</ele>
        <time>2017-07-25T10:04:31Z</time>
      </trkpt>
      <trkpt lat="44.7291540" lon="7.2688100">
        <ele>687.8</ele>
        <time>2017-07-25T10:04:35Z</time>
      </trkpt>
      <trkpt lat="44.7291380" lon="7.2687270">
        <ele>688.8</ele>
        <time>2017-07-25T10:04:39Z</time>
      </trkpt>
      <trkpt lat="44.7291320" lon="7.2687060">
        <ele>689.0</ele>
        <time>2017-07-25T10:04:40Z</time>
      </trkpt>
      <trkpt lat="44.7291060" lon="7.2686560">
        <ele>689.6</ele>
        <time>2017-07-25T10:04:42Z</time>
      </trkpt>
      <trkpt lat="44.7290890" lon="7.2686350">
        <ele>690.2</ele>
        <time>2017-07-25T10:04:43Z</time>
      </trkpt>
      <trkpt lat="44.7290690" lon="7.2685900">
        <ele>690.8</ele>
        <time>2017-07-25T10:04:45Z</time>
      </trkpt>
      <trkpt lat="44.7290460" lon="7.2685370">
        <ele>691.4</ele>
        <time>2017-07-25T10:04:47Z</time>
      </trkpt>
      <trkpt lat="44.7290200" lon="7.2684440">
        <ele>692.2</ele>
        <time>2017-07-25T10:04:50Z</time>
      </trkpt>
      <trkpt lat="44.7290110" lon="7.2684160">
        <ele>692.4</ele>
        <time>2017-07-25T10:04:51Z</time>
      </trkpt>
      <trkpt lat="44.7290070" lon="7.2683950">
        <ele>692.6</ele>
        <time>2017-07-25T10:04:52Z</time>
      </trkpt>
      <trkpt lat="44.7289880" lon="7.2683070">
        <ele>693.6</ele>
        <time>2017-07-25T10:04:56Z</time>
      </trkpt>
      <trkpt lat="44.7289740" lon="7.2682540">
        <ele>693.8</ele>
        <time>2017-07-25T10:04:58Z</time>
      </trkpt>
      <trkpt lat="44.7289600" lon="7.2680980">
        <ele>694.6</ele>
        <time>2017-07-25T10:05:03Z</time>
      </trkpt>
      <trkpt lat="44.7289600" lon="7.2680400">
        <ele>695.2</ele>
        <time>2017-07-25T10:05:05Z</time>
      </trkpt>
      <trkpt lat="44.7289640" lon="7.2679680">
        <ele>696.0</ele>
        <time>2017-07-25T10:05:07Z</time>
      </trkpt>
      <trkpt lat="44.7289990" lon="7.2678150">
        <ele>696.6</ele>
        <time>2017-07-25T10:05:11Z</time>
      </trkpt>
      <trkpt lat="44.7290410" lon="7.2676940">
        <ele>697.0</ele>
        <time>2017-07-25T10:05:14Z</time>
      </trkpt>
      <trkpt lat="44.7290840" lon="7.2675350">
        <ele>697.4</ele>
        <time>2017-07-25T10:05:18Z</time>
      </trkpt>
      <trkpt lat="44.7291110" lon="7.2673830">
        <ele>698.2</ele>
        <time>2017-07-25T10:05:22Z</time>
      </trkpt>
      <trkpt lat="44.7291280" lon="7.2673130">
        <ele>698.6</ele>
        <time>2017-07-25T10:05:24Z</time>
      </trkpt>
      <trkpt lat="44.7291620" lon="7.2671750">
        <ele>699.4</ele>
        <time>2017-07-25T10:05:28Z</time>
      </trkpt>
      <trkpt lat="44.7291940" lon="7.2670690">
        <ele>700.2</ele>
        <time>2017-07-25T10:05:31Z</time>
      </trkpt>
      <trkpt lat="44.7292510" lon="7.2669010">
        <ele>700.2</ele>
        <time>2017-07-25T10:05:37Z</time>
      </trkpt>
      <trkpt lat="44.7292620" lon="7.2668730">
        <ele>700.6</ele>
        <time>2017-07-25T10:05:38Z</time>
      </trkpt>
      <trkpt lat="44.7293120" lon="7.2667060">
        <ele>701.6</ele>
        <time>2017-07-25T10:05:43Z</time>
      </trkpt>
      <trkpt lat="44.7293230" lon="7.2666750">
        <ele>701.6</ele>
        <time>2017-07-25T10:05:44Z</time>
      </trkpt>
      <trkpt lat="44.7293550" lon="7.2664870">
        <ele>701.4</ele>
        <time>2017-07-25T10:05:49Z</time>
      </trkpt>
      <trkpt lat="44.7293910" lon="7.2662830">
        <ele>701.0</ele>
        <time>2017-07-25T10:05:54Z</time>
      </trkpt>
      <trkpt lat="44.7294050" lon="7.2660020">
        <ele>701.8</ele>
        <time>2017-07-25T10:06:00Z</time>
      </trkpt>
      <trkpt lat="44.7293040" lon="7.2657890">
        <ele>701.8</ele>
        <time>2017-07-25T10:06:05Z</time>
      </trkpt>
      <trkpt lat="44.7292030" lon="7.2657460">
        <ele>702.4</ele>
        <time>2017-07-25T10:06:09Z</time>
      </trkpt>
      <trkpt lat="44.7291800" lon="7.2657390">
        <ele>702.8</ele>
        <time>2017-07-25T10:06:10Z</time>
      </trkpt>
      <trkpt lat="44.7291160" lon="7.2657330">
        <ele>704.0</ele>
        <time>2017-07-25T10:06:14Z</time>
      </trkpt>
      <trkpt lat="44.7291000" lon="7.2657340">
        <ele>704.4</ele>
        <time>2017-07-25T10:06:15Z</time>
      </trkpt>
      <trkpt lat="44.7290700" lon="7.2657270">
        <ele>705.2</ele>
        <time>2017-07-25T10:06:17Z</time>
      </trkpt>
      <trkpt lat="44.7290340" lon="7.2657140">
        <ele>706.4</ele>
        <time>2017-07-25T10:06:19Z</time>
      </trkpt>
      <trkpt lat="44.7289430" lon="7.2656920">
        <ele>708.6</ele>
        <time>2017-07-25T10:06:24Z</time>
      </trkpt>
      <trkpt lat="44.7288840" lon="7.2656800">
        <ele>709.8</ele>
        <time>2017-07-25T10:06:28Z</time>
      </trkpt>
      <trkpt lat="44.7288310" lon="7.2656800">
        <ele>711.2</ele>
        <time>2017-07-25T10:06:31Z</time>
      </trkpt>
      <trkpt lat="44.7287800" lon="7.2656870">
        <ele>712.4</ele>
        <time>2017-07-25T10:06:34Z</time>
      </trkpt>
      <trkpt lat="44.7287250" lon="7.2656970">
        <ele>713.4</ele>
        <time>2017-07-25T10:06:37Z</time>
      </trkpt>
      <trkpt lat="44.7287090" lon="7.2656980">
        <ele>713.8</ele>
        <time>2017-07-25T10:06:38Z</time>
      </trkpt>
      <trkpt lat="44.7286780" lon="7.2657090">
        <ele>714.8</ele>
        <time>2017-07-25T10:06:41Z</time>
      </trkpt>
      <trkpt lat="44.7285560" lon="7.2657820">
        <ele>717.4</ele>
        <time>2017-07-25T10:06:53Z</time>
      </trkpt>
      <trkpt lat="44.7285180" lon="7.2657710">
        <ele>717.4</ele>
        <time>2017-07-25T10:06:55Z</time>
      </trkpt>
      <trkpt lat="44.7284990" lon="7.2657390">
        <ele>717.4</ele>
        <time>2017-07-25T10:06:57Z</time>
      </trkpt>
      <trkpt lat="44.7284980" lon="7.2656980">
        <ele>717.2</ele>
        <time>2017-07-25T10:06:59Z</time>
      </trkpt>
      <trkpt lat="44.7285090" lon="7.2656840">
        <ele>717.2</ele>
        <time>2017-07-25T10:07:00Z</time>
      </trkpt>
      <trkpt lat="44.7285580" lon="7.2656400">
        <ele>718.0</ele>
        <time>2017-07-25T10:07:04Z</time>
      </trkpt>
      <trkpt lat="44.7285790" lon="7.2656170">
        <ele>718.6</ele>
        <time>2017-07-25T10:07:06Z</time>
      </trkpt>
      <trkpt lat="44.7286120" lon="7.2655680">
        <ele>719.8</ele>
        <time>2017-07-25T10:07:09Z</time>
      </trkpt>
      <trkpt lat="44.7286470" lon="7.2655160">
        <ele>720.8</ele>
        <time>2017-07-25T10:07:12Z</time>
      </trkpt>
      <trkpt lat="44.7286590" lon="7.2655020">
        <ele>720.8</ele>
        <time>2017-07-25T10:07:13Z</time>
      </trkpt>
      <trkpt lat="44.7286860" lon="7.2654340">
        <ele>722.0</ele>
        <time>2017-07-25T10:07:16Z</time>
      </trkpt>
      <trkpt lat="44.7287040" lon="7.2653460">
        <ele>723.0</ele>
        <time>2017-07-25T10:07:19Z</time>
      </trkpt>
      <trkpt lat="44.7287190" lon="7.2653030">
        <ele>723.8</ele>
        <time>2017-07-25T10:07:21Z</time>
      </trkpt>
      <trkpt lat="44.7287370" lon="7.2652600">
        <ele>724.2</ele>
        <time>2017-07-25T10:07:23Z</time>
      </trkpt>
      <trkpt lat="44.7287630" lon="7.2651520">
        <ele>725.6</ele>
        <time>2017-07-25T10:07:27Z</time>
      </trkpt>
      <trkpt lat="44.7287960" lon="7.2650960">
        <ele>726.4</ele>
        <time>2017-07-25T10:07:30Z</time>
      </trkpt>
      <trkpt lat="44.7288120" lon="7.2650780">
        <ele>727.0</ele>
        <time>2017-07-25T10:07:31Z</time>
      </trkpt>
      <trkpt lat="44.7288520" lon="7.2650290">
        <ele>728.0</ele>
        <time>2017-07-25T10:07:34Z</time>
      </trkpt>
      <trkpt lat="44.7289070" lon="7.2649780">
        <ele>728.4</ele>
        <time>2017-07-25T10:07:37Z</time>
      </trkpt>
      <trkpt lat="44.7289390" lon="7.2649450">
        <ele>729.0</ele>
        <time>2017-07-25T10:07:39Z</time>
      </trkpt>
      <trkpt lat="44.7290010" lon="7.2648980">
        <ele>730.2</ele>
        <time>2017-07-25T10:07:43Z</time>
      </trkpt>
      <trkpt lat="44.7290180" lon="7.2648830">
        <ele>730.4</ele>
        <time>2017-07-25T10:07:44Z</time>
      </trkpt>
      <trkpt lat="44.7291220" lon="7.2648240">
        <ele>730.8</ele>
        <time>2017-07-25T10:07:50Z</time>
      </trkpt>
      <trkpt lat="44.7292130" lon="7.2648410">
        <ele>731.2</ele>
        <time>2017-07-25T10:07:55Z</time>
      </trkpt>
      <trkpt lat="44.7292490" lon="7.2648500">
        <ele>731.8</ele>
        <time>2017-07-25T10:07:57Z</time>
      </trkpt>
      <trkpt lat="44.7292950" lon="7.2648370">
        <ele>732.4</ele>
        <time>2017-07-25T10:08:00Z</time>
      </trkpt>
      <trkpt lat="44.7293500" lon="7.2648200">
        <ele>733.6</ele>
        <time>2017-07-25T10:08:04Z</time>
      </trkpt>
      <trkpt lat="44.7293930" lon="7.2647970">
        <ele>734.8</ele>
        <time>2017-07-25T10:08:07Z</time>
      </trkpt>
      <trkpt lat="44.7296770" lon="7.2645660">
        <ele>742.0</ele>
        <time>2017-07-25T10:08:25Z</time>
      </trkpt>
      <trkpt lat="44.7297280" lon="7.2645080">
        <ele>743.4</ele>
        <time>2017-07-25T10:08:28Z</time>
      </trkpt>
      <trkpt lat="44.7297700" lon="7.2644350">
        <ele>744.6</ele>
        <time>2017-07-25T10:08:32Z</time>
      </trkpt>
      <trkpt lat="44.7297810" lon="7.2644010">
        <ele>745.2</ele>
        <time>2017-07-25T10:08:34Z</time>
      </trkpt>
      <trkpt lat="44.7297870" lon="7.2643860">
        <ele>745.6</ele>
        <time>2017-07-25T10:08:35Z</time>
      </trkpt>
      <trkpt lat="44.7297970" lon="7.2643200">
        <ele>746.8</ele>
        <time>2017-07-25T10:08:38Z</time>
      </trkpt>
      <trkpt lat="44.7298330" lon="7.2642120">
        <ele>748.0</ele>
        <time>2017-07-25T10:08:42Z</time>
      </trkpt>
      <trkpt lat="44.7298370" lon="7.2641540">
        <ele>749.2</ele>
        <time>2017-07-25T10:08:44Z</time>
      </trkpt>
      <trkpt lat="44.7298390" lon="7.2640770">
        <ele>750.2</ele>
        <time>2017-07-25T10:08:47Z</time>
      </trkpt>
      <trkpt lat="44.7298390" lon="7.2639880">
        <ele>751.4</ele>
        <time>2017-07-25T10:08:50Z</time>
      </trkpt>
      <trkpt lat="44.7298360" lon="7.2638980">
        <ele>752.2</ele>
        <time>2017-07-25T10:08:53Z</time>
      </trkpt>
      <trkpt lat="44.7298370" lon="7.2638660">
        <ele>752.6</ele>
        <time>2017-07-25T10:08:54Z</time>
      </trkpt>
      <trkpt lat="44.7298310" lon="7.2636670">
        <ele>753.6</ele>
        <time>2017-07-25T10:08:59Z</time>
      </trkpt>
      <trkpt lat="44.7298350" lon="7.2634460">
        <ele>754.8</ele>
        <time>2017-07-25T10:09:04Z</time>
      </trkpt>
      <trkpt lat="44.7297930" lon="7.2632290">
        <ele>755.8</ele>
        <time>2017-07-25T10:09:08Z</time>
      </trkpt>
      <trkpt lat="44.7297290" lon="7.2630060">
        <ele>756.6</ele>
        <time>2017-07-25T10:09:12Z</time>
      </trkpt>
      <trkpt lat="44.7296730" lon="7.2629060">
        <ele>756.8</ele>
        <time>2017-07-25T10:09:14Z</time>
      </trkpt>
      <trkpt lat="44.7296420" lon="7.2628630">
        <ele>757.0</ele>
        <time>2017-07-25T10:09:15Z</time>
      </trkpt>
      <trkpt lat="44.7295250" lon="7.2626970">
        <ele>757.0</ele>
        <time>2017-07-25T10:09:19Z</time>
      </trkpt>
      <trkpt lat="44.7295730" lon="7.2626470">
        <ele>756.8</ele>
        <time>2017-07-25T10:09:21Z</time>
      </trkpt>
      <trkpt lat="44.7296190" lon="7.2626210">
        <ele>756.8</ele>
        <time>2017-07-25T10:09:22Z</time>
      </trkpt>
      <trkpt lat="44.7297340" lon="7.2625970">
        <ele>757.2</ele>
        <time>2017-07-25T10:09:26Z</time>
      </trkpt>
      <trkpt lat="44.7297570" lon="7.2625940">
        <ele>757.4</ele>
        <time>2017-07-25T10:09:27Z</time>
      </trkpt>
      <trkpt lat="44.7298470" lon="7.2625880">
        <ele>754.6</ele>
        <time>2017-07-25T10:09:31Z</time>
      </trkpt>
      <trkpt lat="44.7298980" lon="7.2625920">
        <ele>757.2</ele>
        <time>2017-07-25T10:09:33Z</time>
      </trkpt>
      <trkpt lat="44.7300850" lon="7.2626410">
        <ele>757.2</ele>
        <time>2017-07-25T10:09:40Z</time>
      </trkpt>
      <trkpt lat="44.7302300" lon="7.2626380">
        <ele>758.2</ele>
        <time>2017-07-25T10:09:45Z</time>
      </trkpt>
      <trkpt lat="44.7302510" lon="7.2626160">
        <ele>758.4</ele>
        <time>2017-07-25T10:09:46Z</time>
      </trkpt>
      <trkpt lat="44.7303170" lon="7.2625080">
        <ele>759.4</ele>
        <time>2017-07-25T10:09:50Z</time>
      </trkpt>
      <trkpt lat="44.7303460" lon="7.2624520">
        <ele>760.0</ele>
        <time>2017-07-25T10:09:52Z</time>
      </trkpt>
      <trkpt lat="44.7303690" lon="7.2623910">
        <ele>760.8</ele>
        <time>2017-07-25T10:09:54Z</time>
      </trkpt>
      <trkpt lat="44.7303970" lon="7.2623340">
        <ele>761.8</ele>
        <time>2017-07-25T10:09:56Z</time>
      </trkpt>
      <trkpt lat="44.7304430" lon="7.2622340">
        <ele>763.0</ele>
        <time>2017-07-25T10:10:00Z</time>
      </trkpt>
      <trkpt lat="44.7304870" lon="7.2621370">
        <ele>764.2</ele>
        <time>2017-07-25T10:10:04Z</time>
      </trkpt>
      <trkpt lat="44.7305200" lon="7.2620850">
        <ele>765.2</ele>
        <time>2017-07-25T10:10:07Z</time>
      </trkpt>
      <trkpt lat="44.7305310" lon="7.2620690">
        <ele>765.4</ele>
        <time>2017-07-25T10:10:08Z</time>
      </trkpt>
      <trkpt lat="44.7305620" lon="7.2620350">
        <ele>766.0</ele>
        <time>2017-07-25T10:10:10Z</time>
      </trkpt>
      <trkpt lat="44.7305860" lon="7.2619990">
        <ele>766.8</ele>
        <time>2017-07-25T10:10:12Z</time>
      </trkpt>
      <trkpt lat="44.7306120" lon="7.2619550">
        <ele>767.6</ele>
        <time>2017-07-25T10:10:14Z</time>
      </trkpt>
      <trkpt lat="44.7306260" lon="7.2619400">
        <ele>767.8</ele>
        <time>2017-07-25T10:10:15Z</time>
      </trkpt>
      <trkpt lat="44.7306750" lon="7.2618680">
        <ele>769.4</ele>
        <time>2017-07-25T10:10:19Z</time>
      </trkpt>
      <trkpt lat="44.7306850" lon="7.2618540">
        <ele>769.6</ele>
        <time>2017-07-25T10:10:20Z</time>
      </trkpt>
      <trkpt lat="44.7307100" lon="7.2617820">
        <ele>770.6</ele>
        <time>2017-07-25T10:10:23Z</time>
      </trkpt>
      <trkpt lat="44.7307360" lon="7.2616740">
        <ele>771.8</ele>
        <time>2017-07-25T10:10:27Z</time>
      </trkpt>
      <trkpt lat="44.7307390" lon="7.2615890">
        <ele>772.8</ele>
        <time>2017-07-25T10:10:31Z</time>
      </trkpt>
      <trkpt lat="44.7307380" lon="7.2615700">
        <ele>773.0</ele>
        <time>2017-07-25T10:10:32Z</time>
      </trkpt>
      <trkpt lat="44.7307420" lon="7.2615510">
        <ele>773.4</ele>
        <time>2017-07-25T10:10:33Z</time>
      </trkpt>
      <trkpt lat="44.7307380" lon="7.2614630">
        <ele>774.4</ele>
        <time>2017-07-25T10:10:37Z</time>
      </trkpt>
      <trkpt lat="44.7307340" lon="7.2614110">
        <ele>774.8</ele>
        <time>2017-07-25T10:10:39Z</time>
      </trkpt>
      <trkpt lat="44.7307140" lon="7.2613330">
        <ele>775.4</ele>
        <time>2017-07-25T10:10:42Z</time>
      </trkpt>
      <trkpt lat="44.7307250" lon="7.2611680">
        <ele>776.8</ele>
        <time>2017-07-25T10:10:49Z</time>
      </trkpt>
      <trkpt lat="44.7307380" lon="7.2611420">
        <ele>777.0</ele>
        <time>2017-07-25T10:10:50Z</time>
      </trkpt>
      <trkpt lat="44.7307720" lon="7.2610450">
        <ele>778.0</ele>
        <time>2017-07-25T10:10:54Z</time>
      </trkpt>
      <trkpt lat="44.7307900" lon="7.2609840">
        <ele>778.4</ele>
        <time>2017-07-25T10:10:57Z</time>
      </trkpt>
      <trkpt lat="44.7308060" lon="7.2609370">
        <ele>778.8</ele>
        <time>2017-07-25T10:10:59Z</time>
      </trkpt>
      <trkpt lat="44.7308170" lon="7.2609230">
        <ele>779.0</ele>
        <time>2017-07-25T10:11:00Z</time>
      </trkpt>
      <trkpt lat="44.7308720" lon="7.2607890">
        <ele>780.4</ele>
        <time>2017-07-25T10:11:06Z</time>
      </trkpt>
      <trkpt lat="44.7308860" lon="7.2607600">
        <ele>780.8</ele>
        <time>2017-07-25T10:11:07Z</time>
      </trkpt>
      <trkpt lat="44.7309190" lon="7.2606860">
        <ele>781.4</ele>
        <time>2017-07-25T10:11:10Z</time>
      </trkpt>
      <trkpt lat="44.7309510" lon="7.2606020">
        <ele>782.2</ele>
        <time>2017-07-25T10:11:14Z</time>
      </trkpt>
      <trkpt lat="44.7309520" lon="7.2605780">
        <ele>782.6</ele>
        <time>2017-07-25T10:11:15Z</time>
      </trkpt>
      <trkpt lat="44.7309890" lon="7.2604700">
        <ele>783.8</ele>
        <time>2017-07-25T10:11:20Z</time>
      </trkpt>
      <trkpt lat="44.7310030" lon="7.2604250">
        <ele>784.2</ele>
        <time>2017-07-25T10:11:22Z</time>
      </trkpt>
      <trkpt lat="44.7310150" lon="7.2603740">
        <ele>785.0</ele>
        <time>2017-07-25T10:11:24Z</time>
      </trkpt>
      <trkpt lat="44.7310340" lon="7.2602610">
        <ele>786.2</ele>
        <time>2017-07-25T10:11:28Z</time>
      </trkpt>
      <trkpt lat="44.7310430" lon="7.2602400">
        <ele>786.6</ele>
        <time>2017-07-25T10:11:29Z</time>
      </trkpt>
      <trkpt lat="44.7310530" lon="7.2601920">
        <ele>787.4</ele>
        <time>2017-07-25T10:11:31Z</time>
      </trkpt>
      <trkpt lat="44.7311060" lon="7.2600950">
        <ele>788.4</ele>
        <time>2017-07-25T10:11:35Z</time>
      </trkpt>
      <trkpt lat="44.7311210" lon="7.2600720">
        <ele>788.6</ele>
        <time>2017-07-25T10:11:36Z</time>
      </trkpt>
      <trkpt lat="44.7311560" lon="7.2600160">
        <ele>789.4</ele>
        <time>2017-07-25T10:11:39Z</time>
      </trkpt>
      <trkpt lat="44.7311900" lon="7.2599350">
        <ele>790.6</ele>
        <time>2017-07-25T10:11:43Z</time>
      </trkpt>
      <trkpt lat="44.7312130" lon="7.2598090">
        <ele>791.8</ele>
        <time>2017-07-25T10:11:49Z</time>
      </trkpt>
      <trkpt lat="44.7312140" lon="7.2597860">
        <ele>791.8</ele>
        <time>2017-07-25T10:11:50Z</time>
      </trkpt>
      <trkpt lat="44.7312110" lon="7.2597310">
        <ele>792.4</ele>
        <time>2017-07-25T10:11:53Z</time>
      </trkpt>
      <trkpt lat="44.7312050" lon="7.2596780">
        <ele>793.0</ele>
        <time>2017-07-25T10:11:55Z</time>
      </trkpt>
      <trkpt lat="44.7311960" lon="7.2596290">
        <ele>793.6</ele>
        <time>2017-07-25T10:11:57Z</time>
      </trkpt>
      <trkpt lat="44.7311890" lon="7.2595770">
        <ele>794.2</ele>
        <time>2017-07-25T10:11:59Z</time>
      </trkpt>
      <trkpt lat="44.7311970" lon="7.2594610">
        <ele>795.2</ele>
        <time>2017-07-25T10:12:04Z</time>
      </trkpt>
      <trkpt lat="44.7312040" lon="7.2594420">
        <ele>795.4</ele>
        <time>2017-07-25T10:12:05Z</time>
      </trkpt>
      <trkpt lat="44.7312200" lon="7.2593750">
        <ele>796.2</ele>
        <time>2017-07-25T10:12:08Z</time>
      </trkpt>
      <trkpt lat="44.7312440" lon="7.2592830">
        <ele>797.4</ele>
        <time>2017-07-25T10:12:12Z</time>
      </trkpt>
      <trkpt lat="44.7312560" lon="7.2592570">
        <ele>797.6</ele>
        <time>2017-07-25T10:12:13Z</time>
      </trkpt>
      <trkpt lat="44.7312940" lon="7.2591820">
        <ele>798.4</ele>
        <time>2017-07-25T10:12:17Z</time>
      </trkpt>
      <trkpt lat="44.7313120" lon="7.2591250">
        <ele>799.4</ele>
        <time>2017-07-25T10:12:20Z</time>
      </trkpt>
      <trkpt lat="44.7313150" lon="7.2591030">
        <ele>799.6</ele>
        <time>2017-07-25T10:12:21Z</time>
      </trkpt>
      <trkpt lat="44.7313130" lon="7.2589900">
        <ele>800.2</ele>
        <time>2017-07-25T10:12:26Z</time>
      </trkpt>
      <trkpt lat="44.7313130" lon="7.2589570">
        <ele>801.0</ele>
        <time>2017-07-25T10:12:28Z</time>
      </trkpt>
      <trkpt lat="44.7313220" lon="7.2588680">
        <ele>802.0</ele>
        <time>2017-07-25T10:12:32Z</time>
      </trkpt>
      <trkpt lat="44.7313250" lon="7.2588440">
        <ele>802.0</ele>
        <time>2017-07-25T10:12:33Z</time>
      </trkpt>
      <trkpt lat="44.7313400" lon="7.2587560">
        <ele>803.2</ele>
        <time>2017-07-25T10:12:37Z</time>
      </trkpt>
      <trkpt lat="44.7313440" lon="7.2587110">
        <ele>803.6</ele>
        <time>2017-07-25T10:12:39Z</time>
      </trkpt>
      <trkpt lat="44.7313530" lon="7.2586360">
        <ele>804.2</ele>
        <time>2017-07-25T10:12:42Z</time>
      </trkpt>
      <trkpt lat="44.7313570" lon="7.2585730">
        <ele>805.0</ele>
        <time>2017-07-25T10:12:45Z</time>
      </trkpt>
      <trkpt lat="44.7313670" lon="7.2585510">
        <ele>805.4</ele>
        <time>2017-07-25T10:12:46Z</time>
      </trkpt>
      <trkpt lat="44.7314000" lon="7.2584790">
        <ele>806.6</ele>
        <time>2017-07-25T10:12:50Z</time>
      </trkpt>
      <trkpt lat="44.7314000" lon="7.2584620">
        <ele>806.8</ele>
        <time>2017-07-25T10:12:51Z</time>
      </trkpt>
      <trkpt lat="44.7313910" lon="7.2583830">
        <ele>807.8</ele>
        <time>2017-07-25T10:12:55Z</time>
      </trkpt>
      <trkpt lat="44.7313860" lon="7.2583390">
        <ele>808.2</ele>
        <time>2017-07-25T10:12:57Z</time>
      </trkpt>
      <trkpt lat="44.7313900" lon="7.2582930">
        <ele>808.8</ele>
        <time>2017-07-25T10:12:59Z</time>
      </trkpt>
      <trkpt lat="44.7313860" lon="7.2582260">
        <ele>809.8</ele>
        <time>2017-07-25T10:13:03Z</time>
      </trkpt>
      <trkpt lat="44.7313760" lon="7.2581650">
        <ele>811.0</ele>
        <time>2017-07-25T10:13:06Z</time>
      </trkpt>
      <trkpt lat="44.7313640" lon="7.2580940">
        <ele>812.2</ele>
        <time>2017-07-25T10:13:10Z</time>
      </trkpt>
      <trkpt lat="44.7313670" lon="7.2580430">
        <ele>812.6</ele>
        <time>2017-07-25T10:13:12Z</time>
      </trkpt>
      <trkpt lat="44.7313690" lon="7.2580220">
        <ele>813.0</ele>
        <time>2017-07-25T10:13:13Z</time>
      </trkpt>
      <trkpt lat="44.7313670" lon="7.2579990">
        <ele>813.2</ele>
        <time>2017-07-25T10:13:14Z</time>
      </trkpt>
      <trkpt lat="44.7313710" lon="7.2578800">
        <ele>814.4</ele>
        <time>2017-07-25T10:13:19Z</time>
      </trkpt>
      <trkpt lat="44.7313700" lon="7.2578590">
        <ele>814.4</ele>
        <time>2017-07-25T10:13:20Z</time>
      </trkpt>
      <trkpt lat="44.7313690" lon="7.2577700">
        <ele>815.6</ele>
        <time>2017-07-25T10:13:24Z</time>
      </trkpt>
      <trkpt lat="44.7313740" lon="7.2577030">
        <ele>816.2</ele>
        <time>2017-07-25T10:13:27Z</time>
      </trkpt>
      <trkpt lat="44.7313970" lon="7.2575840">
        <ele>816.4</ele>
        <time>2017-07-25T10:13:33Z</time>
      </trkpt>
      <trkpt lat="44.7313970" lon="7.2575640">
        <ele>817.8</ele>
        <time>2017-07-25T10:13:34Z</time>
      </trkpt>
      <trkpt lat="44.7314790" lon="7.2574070">
        <ele>819.0</ele>
        <time>2017-07-25T10:13:52Z</time>
      </trkpt>
      <trkpt lat="44.7314870" lon="7.2573970">
        <ele>818.8</ele>
        <time>2017-07-25T10:13:53Z</time>
      </trkpt>
      <trkpt lat="44.7315590" lon="7.2572760">
        <ele>820.0</ele>
        <time>2017-07-25T10:14:01Z</time>
      </trkpt>
      <trkpt lat="44.7315870" lon="7.2572270">
        <ele>820.8</ele>
        <time>2017-07-25T10:14:04Z</time>
      </trkpt>
      <trkpt lat="44.7315940" lon="7.2571560">
        <ele>821.8</ele>
        <time>2017-07-25T10:14:08Z</time>
      </trkpt>
      <trkpt lat="44.7316000" lon="7.2571140">
        <ele>822.2</ele>
        <time>2017-07-25T10:14:10Z</time>
      </trkpt>
      <trkpt lat="44.7316040" lon="7.2570910">
        <ele>822.4</ele>
        <time>2017-07-25T10:14:11Z</time>
      </trkpt>
      <trkpt lat="44.7316030" lon="7.2570160">
        <ele>823.4</ele>
        <time>2017-07-25T10:14:15Z</time>
      </trkpt>
      <trkpt lat="44.7315940" lon="7.2568530">
        <ele>826.0</ele>
        <time>2017-07-25T10:14:24Z</time>
      </trkpt>
      <trkpt lat="44.7316100" lon="7.2567180">
        <ele>827.2</ele>
        <time>2017-07-25T10:14:29Z</time>
      </trkpt>
      <trkpt lat="44.7315970" lon="7.2566770">
        <ele>827.6</ele>
        <time>2017-07-25T10:14:31Z</time>
      </trkpt>
      <trkpt lat="44.7315780" lon="7.2566560">
        <ele>828.2</ele>
        <time>2017-07-25T10:14:33Z</time>
      </trkpt>
      <trkpt lat="44.7315410" lon="7.2566660">
        <ele>828.8</ele>
        <time>2017-07-25T10:14:36Z</time>
      </trkpt>
      <trkpt lat="44.7315190" lon="7.2566900">
        <ele>829.4</ele>
        <time>2017-07-25T10:14:38Z</time>
      </trkpt>
      <trkpt lat="44.7315120" lon="7.2567270">
        <ele>829.6</ele>
        <time>2017-07-25T10:14:40Z</time>
      </trkpt>
      <trkpt lat="44.7315090" lon="7.2567720">
        <ele>830.4</ele>
        <time>2017-07-25T10:14:42Z</time>
      </trkpt>
      <trkpt lat="44.7315150" lon="7.2568150">
        <ele>831.4</ele>
        <time>2017-07-25T10:14:44Z</time>
      </trkpt>
      <trkpt lat="44.7314890" lon="7.2569000">
        <ele>832.6</ele>
        <time>2017-07-25T10:14:48Z</time>
      </trkpt>
      <trkpt lat="44.7314860" lon="7.2569380">
        <ele>833.0</ele>
        <time>2017-07-25T10:14:50Z</time>
      </trkpt>
      <trkpt lat="44.7314380" lon="7.2569990">
        <ele>834.6</ele>
        <time>2017-07-25T10:14:56Z</time>
      </trkpt>
      <trkpt lat="44.7313600" lon="7.2570570">
        <ele>835.2</ele>
        <time>2017-07-25T10:15:02Z</time>
      </trkpt>
      <trkpt lat="44.7313300" lon="7.2571090">
        <ele>835.6</ele>
        <time>2017-07-25T10:15:05Z</time>
      </trkpt>
      <trkpt lat="44.7313020" lon="7.2572060">
        <ele>836.2</ele>
        <time>2017-07-25T10:15:11Z</time>
      </trkpt>
      <trkpt lat="44.7312080" lon="7.2573150">
        <ele>836.8</ele>
        <time>2017-07-25T10:15:15Z</time>
      </trkpt>
      <trkpt lat="44.7311940" lon="7.2573440">
        <ele>837.0</ele>
        <time>2017-07-25T10:15:16Z</time>
      </trkpt>
      <trkpt lat="44.7311320" lon="7.2574450">
        <ele>838.0</ele>
        <time>2017-07-25T10:15:21Z</time>
      </trkpt>
      <trkpt lat="44.7311080" lon="7.2574830">
        <ele>838.6</ele>
        <time>2017-07-25T10:15:23Z</time>
      </trkpt>
      <trkpt lat="44.7310960" lon="7.2575040">
        <ele>839.2</ele>
        <time>2017-07-25T10:15:25Z</time>
      </trkpt>
      <trkpt lat="44.7310600" lon="7.2575710">
        <ele>839.8</ele>
        <time>2017-07-25T10:15:28Z</time>
      </trkpt>
      <trkpt lat="44.7310340" lon="7.2576230">
        <ele>840.2</ele>
        <time>2017-07-25T10:15:30Z</time>
      </trkpt>
      <trkpt lat="44.7309660" lon="7.2577400">
        <ele>841.2</ele>
        <time>2017-07-25T10:15:34Z</time>
      </trkpt>
      <trkpt lat="44.7309490" lon="7.2577700">
        <ele>841.4</ele>
        <time>2017-07-25T10:15:35Z</time>
      </trkpt>
      <trkpt lat="44.7308810" lon="7.2578890">
        <ele>842.4</ele>
        <time>2017-07-25T10:15:39Z</time>
      </trkpt>
      <trkpt lat="44.7308610" lon="7.2579120">
        <ele>842.6</ele>
        <time>2017-07-25T10:15:40Z</time>
      </trkpt>
      <trkpt lat="44.7308150" lon="7.2580260">
        <ele>843.8</ele>
        <time>2017-07-25T10:15:45Z</time>
      </trkpt>
      <trkpt lat="44.7307710" lon="7.2581400">
        <ele>844.8</ele>
        <time>2017-07-25T10:15:49Z</time>
      </trkpt>
      <trkpt lat="44.7307320" lon="7.2582100">
        <ele>845.4</ele>
        <time>2017-07-25T10:15:52Z</time>
      </trkpt>
      <trkpt lat="44.7307130" lon="7.2582550">
        <ele>845.8</ele>
        <time>2017-07-25T10:15:54Z</time>
      </trkpt>
      <trkpt lat="44.7306650" lon="7.2583360">
        <ele>847.0</ele>
        <time>2017-07-25T10:15:58Z</time>
      </trkpt>
      <trkpt lat="44.7306100" lon="7.2584560">
        <ele>848.2</ele>
        <time>2017-07-25T10:16:04Z</time>
      </trkpt>
      <trkpt lat="44.7305950" lon="7.2584960">
        <ele>848.4</ele>
        <time>2017-07-25T10:16:06Z</time>
      </trkpt>
      <trkpt lat="44.7305400" lon="7.2585660">
        <ele>849.4</ele>
        <time>2017-07-25T10:16:09Z</time>
      </trkpt>
      <trkpt lat="44.7305170" lon="7.2586160">
        <ele>849.6</ele>
        <time>2017-07-25T10:16:11Z</time>
      </trkpt>
      <trkpt lat="44.7304850" lon="7.2586680">
        <ele>850.4</ele>
        <time>2017-07-25T10:16:14Z</time>
      </trkpt>
      <trkpt lat="44.7304550" lon="7.2587330">
        <ele>851.0</ele>
        <time>2017-07-25T10:16:17Z</time>
      </trkpt>
      <trkpt lat="44.7304430" lon="7.2587740">
        <ele>851.6</ele>
        <time>2017-07-25T10:16:19Z</time>
      </trkpt>
      <trkpt lat="44.7304270" lon="7.2588000">
        <ele>852.0</ele>
        <time>2017-07-25T10:16:21Z</time>
      </trkpt>
      <trkpt lat="44.7304070" lon="7.2588190">
        <ele>852.2</ele>
        <time>2017-07-25T10:16:23Z</time>
      </trkpt>
      <trkpt lat="44.7303360" lon="7.2587960">
        <ele>852.8</ele>
        <time>2017-07-25T10:16:28Z</time>
      </trkpt>
      <trkpt lat="44.7303230" lon="7.2587820">
        <ele>852.8</ele>
        <time>2017-07-25T10:16:29Z</time>
      </trkpt>
      <trkpt lat="44.7302830" lon="7.2586440">
        <ele>853.8</ele>
        <time>2017-07-25T10:16:35Z</time>
      </trkpt>
      <trkpt lat="44.7302790" lon="7.2586170">
        <ele>854.2</ele>
        <time>2017-07-25T10:16:36Z</time>
      </trkpt>
      <trkpt lat="44.7302510" lon="7.2584900">
        <ele>855.2</ele>
        <time>2017-07-25T10:16:42Z</time>
      </trkpt>
      <trkpt lat="44.7302270" lon="7.2584030">
        <ele>856.4</ele>
        <time>2017-07-25T10:16:46Z</time>
      </trkpt>
      <trkpt lat="44.7302310" lon="7.2582950">
        <ele>857.4</ele>
        <time>2017-07-25T10:16:50Z</time>
      </trkpt>
      <trkpt lat="44.7302400" lon="7.2582650">
        <ele>857.6</ele>
        <time>2017-07-25T10:16:51Z</time>
      </trkpt>
      <trkpt lat="44.7302690" lon="7.2581390">
        <ele>858.6</ele>
        <time>2017-07-25T10:16:56Z</time>
      </trkpt>
      <trkpt lat="44.7302740" lon="7.2581130">
        <ele>859.0</ele>
        <time>2017-07-25T10:16:57Z</time>
      </trkpt>
      <trkpt lat="44.7303050" lon="7.2580240">
        <ele>859.6</ele>
        <time>2017-07-25T10:17:00Z</time>
      </trkpt>
      <trkpt lat="44.7303350" lon="7.2579440">
        <ele>860.4</ele>
        <time>2017-07-25T10:17:03Z</time>
      </trkpt>
      <trkpt lat="44.7303470" lon="7.2578940">
        <ele>860.8</ele>
        <time>2017-07-25T10:17:05Z</time>
      </trkpt>
      <trkpt lat="44.7303690" lon="7.2578300">
        <ele>862.0</ele>
        <time>2017-07-25T10:17:08Z</time>
      </trkpt>
      <trkpt lat="44.7303940" lon="7.2577760">
        <ele>862.8</ele>
        <time>2017-07-25T10:17:11Z</time>
      </trkpt>
      <trkpt lat="44.7304140" lon="7.2577360">
        <ele>863.2</ele>
        <time>2017-07-25T10:17:13Z</time>
      </trkpt>
      <trkpt lat="44.7304470" lon="7.2576700">
        <ele>864.0</ele>
        <time>2017-07-25T10:17:17Z</time>
      </trkpt>
      <trkpt lat="44.7304520" lon="7.2576510">
        <ele>864.4</ele>
        <time>2017-07-25T10:17:18Z</time>
      </trkpt>
      <trkpt lat="44.7304530" lon="7.2575660">
        <ele>865.6</ele>
        <time>2017-07-25T10:17:23Z</time>
      </trkpt>
      <trkpt lat="44.7304560" lon="7.2575460">
        <ele>865.6</ele>
        <time>2017-07-25T10:17:24Z</time>
      </trkpt>
      <trkpt lat="44.7304630" lon="7.2575210">
        <ele>865.8</ele>
        <time>2017-07-25T10:17:25Z</time>
      </trkpt>
      <trkpt lat="44.7304750" lon="7.2574610">
        <ele>866.8</ele>
        <time>2017-07-25T10:17:28Z</time>
      </trkpt>
      <trkpt lat="44.7304780" lon="7.2573930">
        <ele>867.6</ele>
        <time>2017-07-25T10:17:32Z</time>
      </trkpt>
      <trkpt lat="44.7304790" lon="7.2573780">
        <ele>867.8</ele>
        <time>2017-07-25T10:17:33Z</time>
      </trkpt>
      <trkpt lat="44.7304660" lon="7.2572810">
        <ele>868.8</ele>
        <time>2017-07-25T10:17:38Z</time>
      </trkpt>
      <trkpt lat="44.7304630" lon="7.2572320">
        <ele>869.4</ele>
        <time>2017-07-25T10:17:40Z</time>
      </trkpt>
      <trkpt lat="44.7304720" lon="7.2571670">
        <ele>870.0</ele>
        <time>2017-07-25T10:17:43Z</time>
      </trkpt>
      <trkpt lat="44.7304700" lon="7.2570750">
        <ele>871.2</ele>
        <time>2017-07-25T10:17:48Z</time>
      </trkpt>
      <trkpt lat="44.7304870" lon="7.2568470">
        <ele>873.4</ele>
        <time>2017-07-25T10:17:58Z</time>
      </trkpt>
      <trkpt lat="44.7304970" lon="7.2567930">
        <ele>873.8</ele>
        <time>2017-07-25T10:18:01Z</time>
      </trkpt>
      <trkpt lat="44.7305070" lon="7.2567380">
        <ele>874.4</ele>
        <time>2017-07-25T10:18:04Z</time>
      </trkpt>
      <trkpt lat="44.7305770" lon="7.2557410">
        <ele>887.0</ele>
        <time>2017-07-25T10:19:00Z</time>
      </trkpt>
      <trkpt lat="44.7305720" lon="7.2557180">
        <ele>887.0</ele>
        <time>2017-07-25T10:19:01Z</time>
      </trkpt>
      <trkpt lat="44.7305490" lon="7.2556640">
        <ele>886.8</ele>
        <time>2017-07-25T10:19:04Z</time>
      </trkpt>
      <trkpt lat="44.7304880" lon="7.2556070">
        <ele>887.8</ele>
        <time>2017-07-25T10:19:09Z</time>
      </trkpt>
      <trkpt lat="44.7304740" lon="7.2555960">
        <ele>888.2</ele>
        <time>2017-07-25T10:19:10Z</time>
      </trkpt>
      <trkpt lat="44.7304110" lon="7.2555320">
        <ele>889.0</ele>
        <time>2017-07-25T10:19:16Z</time>
      </trkpt>
      <trkpt lat="44.7303970" lon="7.2555230">
        <ele>889.2</ele>
        <time>2017-07-25T10:19:17Z</time>
      </trkpt>
      <trkpt lat="44.7303800" lon="7.2554430">
        <ele>890.6</ele>
        <time>2017-07-25T10:19:22Z</time>
      </trkpt>
      <trkpt lat="44.7303800" lon="7.2554130">
        <ele>890.8</ele>
        <time>2017-07-25T10:19:23Z</time>
      </trkpt>
      <trkpt lat="44.7303710" lon="7.2553490">
        <ele>891.4</ele>
        <time>2017-07-25T10:19:26Z</time>
      </trkpt>
      <trkpt lat="44.7303460" lon="7.2552820">
        <ele>892.2</ele>
        <time>2017-07-25T10:19:29Z</time>
      </trkpt>
      <trkpt lat="44.7303330" lon="7.2552610">
        <ele>892.6</ele>
        <time>2017-07-25T10:19:30Z</time>
      </trkpt>
      <trkpt lat="44.7303190" lon="7.2552200">
        <ele>893.6</ele>
        <time>2017-07-25T10:19:32Z</time>
      </trkpt>
      <trkpt lat="44.7303070" lon="7.2551340">
        <ele>895.0</ele>
        <time>2017-07-25T10:19:36Z</time>
      </trkpt>
      <trkpt lat="44.7302800" lon="7.2550480">
        <ele>896.2</ele>
        <time>2017-07-25T10:19:41Z</time>
      </trkpt>
      <trkpt lat="44.7302690" lon="7.2550170">
        <ele>896.8</ele>
        <time>2017-07-25T10:19:43Z</time>
      </trkpt>
      <trkpt lat="44.7302730" lon="7.2549700">
        <ele>896.8</ele>
        <time>2017-07-25T10:19:45Z</time>
      </trkpt>
      <trkpt lat="44.7302810" lon="7.2549040">
        <ele>897.4</ele>
        <time>2017-07-25T10:19:48Z</time>
      </trkpt>
      <trkpt lat="44.7302830" lon="7.2548830">
        <ele>897.8</ele>
        <time>2017-07-25T10:19:49Z</time>
      </trkpt>
      <trkpt lat="44.7302890" lon="7.2548670">
        <ele>898.0</ele>
        <time>2017-07-25T10:19:50Z</time>
      </trkpt>
      <trkpt lat="44.7304020" lon="7.2545760">
        <ele>902.6</ele>
        <time>2017-07-25T10:20:08Z</time>
      </trkpt>
      <trkpt lat="44.7304110" lon="7.2545410">
        <ele>903.0</ele>
        <time>2017-07-25T10:20:10Z</time>
      </trkpt>
      <trkpt lat="44.7304350" lon="7.2544860">
        <ele>903.8</ele>
        <time>2017-07-25T10:20:13Z</time>
      </trkpt>
      <trkpt lat="44.7304460" lon="7.2544530">
        <ele>904.0</ele>
        <time>2017-07-25T10:20:15Z</time>
      </trkpt>
      <trkpt lat="44.7304550" lon="7.2544150">
        <ele>904.4</ele>
        <time>2017-07-25T10:20:17Z</time>
      </trkpt>
      <trkpt lat="44.7304610" lon="7.2543730">
        <ele>905.0</ele>
        <time>2017-07-25T10:20:19Z</time>
      </trkpt>
      <trkpt lat="44.7304860" lon="7.2542990">
        <ele>905.0</ele>
        <time>2017-07-25T10:20:23Z</time>
      </trkpt>
      <trkpt lat="44.7305160" lon="7.2542380">
        <ele>906.0</ele>
        <time>2017-07-25T10:20:27Z</time>
      </trkpt>
      <trkpt lat="44.7305450" lon="7.2541950">
        <ele>906.6</ele>
        <time>2017-07-25T10:20:31Z</time>
      </trkpt>
      <trkpt lat="44.7305700" lon="7.2541800">
        <ele>907.2</ele>
        <time>2017-07-25T10:20:33Z</time>
      </trkpt>
      <trkpt lat="44.7306230" lon="7.2541410">
        <ele>908.2</ele>
        <time>2017-07-25T10:20:37Z</time>
      </trkpt>
      <trkpt lat="44.7306470" lon="7.2541330">
        <ele>908.6</ele>
        <time>2017-07-25T10:20:39Z</time>
      </trkpt>
      <trkpt lat="44.7307050" lon="7.2541030">
        <ele>909.4</ele>
        <time>2017-07-25T10:20:44Z</time>
      </trkpt>
      <trkpt lat="44.7307300" lon="7.2540850">
        <ele>909.8</ele>
        <time>2017-07-25T10:20:46Z</time>
      </trkpt>
      <trkpt lat="44.7307670" lon="7.2540620">
        <ele>910.6</ele>
        <time>2017-07-25T10:20:49Z</time>
      </trkpt>
      <trkpt lat="44.7309020" lon="7.2539380">
        <ele>916.6</ele>
        <time>2017-07-25T10:21:18Z</time>
      </trkpt>
      <trkpt lat="44.7309130" lon="7.2539320">
        <ele>916.8</ele>
        <time>2017-07-25T10:21:19Z</time>
      </trkpt>
      <trkpt lat="44.7309620" lon="7.2538830">
        <ele>917.8</ele>
        <time>2017-07-25T10:21:24Z</time>
      </trkpt>
      <trkpt lat="44.7310410" lon="7.2537630">
        <ele>919.8</ele>
        <time>2017-07-25T10:21:32Z</time>
      </trkpt>
      <trkpt lat="44.7310850" lon="7.2536450">
        <ele>921.0</ele>
        <time>2017-07-25T10:21:37Z</time>
      </trkpt>
      <trkpt lat="44.7310970" lon="7.2536020">
        <ele>921.6</ele>
        <time>2017-07-25T10:21:39Z</time>
      </trkpt>
      <trkpt lat="44.7310980" lon="7.2535610">
        <ele>922.0</ele>
        <time>2017-07-25T10:21:41Z</time>
      </trkpt>
      <trkpt lat="44.7310920" lon="7.2534740">
        <ele>923.2</ele>
        <time>2017-07-25T10:21:45Z</time>
      </trkpt>
      <trkpt lat="44.7310910" lon="7.2534330">
        <ele>923.8</ele>
        <time>2017-07-25T10:21:47Z</time>
      </trkpt>
      <trkpt lat="44.7310880" lon="7.2534220">
        <ele>924.2</ele>
        <time>2017-07-25T10:21:48Z</time>
      </trkpt>
      <trkpt lat="44.7311010" lon="7.2533590">
        <ele>925.4</ele>
        <time>2017-07-25T10:21:52Z</time>
      </trkpt>
      <trkpt lat="44.7311080" lon="7.2533240">
        <ele>925.8</ele>
        <time>2017-07-25T10:21:54Z</time>
      </trkpt>
      <trkpt lat="44.7311120" lon="7.2533070">
        <ele>926.4</ele>
        <time>2017-07-25T10:21:55Z</time>
      </trkpt>
      <trkpt lat="44.7311180" lon="7.2532870">
        <ele>926.6</ele>
        <time>2017-07-25T10:21:56Z</time>
      </trkpt>
      <trkpt lat="44.7311630" lon="7.2530060">
        <ele>930.0</ele>
        <time>2017-07-25T10:22:11Z</time>
      </trkpt>
      <trkpt lat="44.7311670" lon="7.2529700">
        <ele>930.2</ele>
        <time>2017-07-25T10:22:13Z</time>
      </trkpt>
      <trkpt lat="44.7311630" lon="7.2529120">
        <ele>931.2</ele>
        <time>2017-07-25T10:22:16Z</time>
      </trkpt>
      <trkpt lat="44.7311580" lon="7.2528330">
        <ele>931.8</ele>
        <time>2017-07-25T10:22:20Z</time>
      </trkpt>
      <trkpt lat="44.7311560" lon="7.2528180">
        <ele>932.2</ele>
        <time>2017-07-25T10:22:21Z</time>
      </trkpt>
      <trkpt lat="44.7311480" lon="7.2527240">
        <ele>933.4</ele>
        <time>2017-07-25T10:22:26Z</time>
      </trkpt>
      <trkpt lat="44.7311390" lon="7.2526830">
        <ele>933.8</ele>
        <time>2017-07-25T10:22:28Z</time>
      </trkpt>
      <trkpt lat="44.7311370" lon="7.2526220">
        <ele>934.6</ele>
        <time>2017-07-25T10:22:31Z</time>
      </trkpt>
      <trkpt lat="44.7311380" lon="7.2525510">
        <ele>935.8</ele>
        <time>2017-07-25T10:22:35Z</time>
      </trkpt>
      <trkpt lat="44.7311300" lon="7.2524550">
        <ele>937.0</ele>
        <time>2017-07-25T10:22:40Z</time>
      </trkpt>
      <trkpt lat="44.7311280" lon="7.2524380">
        <ele>937.2</ele>
        <time>2017-07-25T10:22:41Z</time>
      </trkpt>
      <trkpt lat="44.7311200" lon="7.2523730">
        <ele>938.0</ele>
        <time>2017-07-25T10:22:44Z</time>
      </trkpt>
      <trkpt lat="44.7311140" lon="7.2523190">
        <ele>937.8</ele>
        <time>2017-07-25T10:22:47Z</time>
      </trkpt>
      <trkpt lat="44.7311050" lon="7.2522030">
        <ele>937.6</ele>
        <time>2017-07-25T10:22:53Z</time>
      </trkpt>
      <trkpt lat="44.7311010" lon="7.2521500">
        <ele>937.2</ele>
        <time>2017-07-25T10:22:56Z</time>
      </trkpt>
      <trkpt lat="44.7311030" lon="7.2520800">
        <ele>937.2</ele>
        <time>2017-07-25T10:23:00Z</time>
      </trkpt>
      <trkpt lat="44.7311010" lon="7.2520590">
        <ele>937.0</ele>
        <time>2017-07-25T10:23:01Z</time>
      </trkpt>
      <trkpt lat="44.7310970" lon="7.2520220">
        <ele>936.8</ele>
        <time>2017-07-25T10:23:03Z</time>
      </trkpt>
      <trkpt lat="44.7311020" lon="7.2519770">
        <ele>937.0</ele>
        <time>2017-07-25T10:23:06Z</time>
      </trkpt>
      <trkpt lat="44.7311050" lon="7.2519090">
        <ele>938.2</ele>
        <time>2017-07-25T10:23:10Z</time>
      </trkpt>
      <trkpt lat="44.7311070" lon="7.2518590">
        <ele>939.2</ele>
        <time>2017-07-25T10:23:13Z</time>
      </trkpt>
      <trkpt lat="44.7311120" lon="7.2518070">
        <ele>940.4</ele>
        <time>2017-07-25T10:23:16Z</time>
      </trkpt>
      <trkpt lat="44.7311210" lon="7.2517550">
        <ele>942.0</ele>
        <time>2017-07-25T10:23:19Z</time>
      </trkpt>
      <trkpt lat="44.7311250" lon="7.2517000">
        <ele>943.4</ele>
        <time>2017-07-25T10:23:22Z</time>
      </trkpt>
      <trkpt lat="44.7311280" lon="7.2516830">
        <ele>943.8</ele>
        <time>2017-07-25T10:23:23Z</time>
      </trkpt>
      <trkpt lat="44.7311360" lon="7.2516460">
        <ele>944.6</ele>
        <time>2017-07-25T10:23:25Z</time>
      </trkpt>
      <trkpt lat="44.7311390" lon="7.2516110">
        <ele>945.6</ele>
        <time>2017-07-25T10:23:27Z</time>
      </trkpt>
      <trkpt lat="44.7311570" lon="7.2515780">
        <ele>946.4</ele>
        <time>2017-07-25T10:23:29Z</time>
      </trkpt>
      <trkpt lat="44.7311650" lon="7.2515610">
        <ele>946.8</ele>
        <time>2017-07-25T10:23:30Z</time>
      </trkpt>
      <trkpt lat="44.7311720" lon="7.2515320">
        <ele>948.0</ele>
        <time>2017-07-25T10:23:32Z</time>
      </trkpt>
      <trkpt lat="44.7312250" lon="7.2511880">
        <ele>953.4</ele>
        <time>2017-07-25T10:23:50Z</time>
      </trkpt>
      <trkpt lat="44.7312350" lon="7.2511610">
        <ele>953.4</ele>
        <time>2017-07-25T10:23:51Z</time>
      </trkpt>
      <trkpt lat="44.7312660" lon="7.2510290">
        <ele>954.4</ele>
        <time>2017-07-25T10:23:57Z</time>
      </trkpt>
      <trkpt lat="44.7312660" lon="7.2509860">
        <ele>955.2</ele>
        <time>2017-07-25T10:24:00Z</time>
      </trkpt>
      <trkpt lat="44.7312650" lon="7.2509590">
        <ele>955.6</ele>
        <time>2017-07-25T10:24:02Z</time>
      </trkpt>
      <trkpt lat="44.7312910" lon="7.2508940">
        <ele>956.8</ele>
        <time>2017-07-25T10:24:06Z</time>
      </trkpt>
      <trkpt lat="44.7313040" lon="7.2508590">
        <ele>957.4</ele>
        <time>2017-07-25T10:24:08Z</time>
      </trkpt>
      <trkpt lat="44.7313240" lon="7.2508290">
        <ele>957.8</ele>
        <time>2017-07-25T10:24:10Z</time>
      </trkpt>
      <trkpt lat="44.7313610" lon="7.2507730">
        <ele>959.2</ele>
        <time>2017-07-25T10:24:14Z</time>
      </trkpt>
      <trkpt lat="44.7313780" lon="7.2507390">
        <ele>959.6</ele>
        <time>2017-07-25T10:24:16Z</time>
      </trkpt>
      <trkpt lat="44.7313940" lon="7.2507080">
        <ele>960.2</ele>
        <time>2017-07-25T10:24:18Z</time>
      </trkpt>
      <trkpt lat="44.7314830" lon="7.2504850">
        <ele>964.2</ele>
        <time>2017-07-25T10:24:32Z</time>
      </trkpt>
      <trkpt lat="44.7314980" lon="7.2504340">
        <ele>964.8</ele>
        <time>2017-07-25T10:24:35Z</time>
      </trkpt>
      <trkpt lat="44.7315070" lon="7.2504180">
        <ele>965.2</ele>
        <time>2017-07-25T10:24:36Z</time>
      </trkpt>
      <trkpt lat="44.7315970" lon="7.2502060">
        <ele>968.8</ele>
        <time>2017-07-25T10:24:49Z</time>
      </trkpt>
      <trkpt lat="44.7316190" lon="7.2501310">
        <ele>970.0</ele>
        <time>2017-07-25T10:24:53Z</time>
      </trkpt>
      <trkpt lat="44.7316410" lon="7.2500840">
        <ele>970.8</ele>
        <time>2017-07-25T10:24:56Z</time>
      </trkpt>
      <trkpt lat="44.7316490" lon="7.2500710">
        <ele>971.2</ele>
        <time>2017-07-25T10:24:57Z</time>
      </trkpt>
      <trkpt lat="44.7316530" lon="7.2500540">
        <ele>971.4</ele>
        <time>2017-07-25T10:24:58Z</time>
      </trkpt>
      <trkpt lat="44.7316850" lon="7.2499220">
        <ele>973.4</ele>
        <time>2017-07-25T10:25:06Z</time>
      </trkpt>
      <trkpt lat="44.7316910" lon="7.2499020">
        <ele>973.6</ele>
        <time>2017-07-25T10:25:07Z</time>
      </trkpt>
      <trkpt lat="44.7317050" lon="7.2498660">
        <ele>974.4</ele>
        <time>2017-07-25T10:25:09Z</time>
      </trkpt>
      <trkpt lat="44.7317110" lon="7.2498520">
        <ele>974.6</ele>
        <time>2017-07-25T10:25:10Z</time>
      </trkpt>
      <trkpt lat="44.7317150" lon="7.2498320">
        <ele>974.8</ele>
        <time>2017-07-25T10:25:11Z</time>
      </trkpt>
      <trkpt lat="44.7317270" lon="7.2498030">
        <ele>975.2</ele>
        <time>2017-07-25T10:25:13Z</time>
      </trkpt>
      <trkpt lat="44.7317370" lon="7.2497870">
        <ele>975.6</ele>
        <time>2017-07-25T10:25:14Z</time>
      </trkpt>
      <trkpt lat="44.7317750" lon="7.2496830">
        <ele>976.8</ele>
        <time>2017-07-25T10:25:19Z</time>
      </trkpt>
      <trkpt lat="44.7317790" lon="7.2496420">
        <ele>977.2</ele>
        <time>2017-07-25T10:25:21Z</time>
      </trkpt>
      <trkpt lat="44.7317770" lon="7.2495780">
        <ele>978.0</ele>
        <time>2017-07-25T10:25:24Z</time>
      </trkpt>
      <trkpt lat="44.7317750" lon="7.2495530">
        <ele>978.2</ele>
        <time>2017-07-25T10:25:25Z</time>
      </trkpt>
      <trkpt lat="44.7317460" lon="7.2495040">
        <ele>978.8</ele>
        <time>2017-07-25T10:25:28Z</time>
      </trkpt>
      <trkpt lat="44.7317350" lon="7.2494900">
        <ele>979.2</ele>
        <time>2017-07-25T10:25:29Z</time>
      </trkpt>
      <trkpt lat="44.7317190" lon="7.2494750">
        <ele>979.2</ele>
        <time>2017-07-25T10:25:30Z</time>
      </trkpt>
      <trkpt lat="44.7316660" lon="7.2494300">
        <ele>980.2</ele>
        <time>2017-07-25T10:25:33Z</time>
      </trkpt>
      <trkpt lat="44.7315920" lon="7.2493550">
        <ele>981.4</ele>
        <time>2017-07-25T10:25:37Z</time>
      </trkpt>
      <trkpt lat="44.7315750" lon="7.2493380">
        <ele>981.6</ele>
        <time>2017-07-25T10:25:38Z</time>
      </trkpt>
      <trkpt lat="44.7315040" lon="7.2492310">
        <ele>982.4</ele>
        <time>2017-07-25T10:25:44Z</time>
      </trkpt>
      <trkpt lat="44.7314680" lon="7.2491350">
        <ele>983.4</ele>
        <time>2017-07-25T10:25:49Z</time>
      </trkpt>
      <trkpt lat="44.7314420" lon="7.2490750">
        <ele>984.0</ele>
        <time>2017-07-25T10:25:52Z</time>
      </trkpt>
      <trkpt lat="44.7314110" lon="7.2490200">
        <ele>984.6</ele>
        <time>2017-07-25T10:25:55Z</time>
      </trkpt>
      <trkpt lat="44.7313710" lon="7.2489480">
        <ele>985.6</ele>
        <time>2017-07-25T10:25:59Z</time>
      </trkpt>
      <trkpt lat="44.7313550" lon="7.2489060">
        <ele>986.0</ele>
        <time>2017-07-25T10:26:01Z</time>
      </trkpt>
      <trkpt lat="44.7313040" lon="7.2488210">
        <ele>986.6</ele>
        <time>2017-07-25T10:26:05Z</time>
      </trkpt>
      <trkpt lat="44.7312630" lon="7.2487620">
        <ele>987.4</ele>
        <time>2017-07-25T10:26:08Z</time>
      </trkpt>
      <trkpt lat="44.7312430" lon="7.2487280">
        <ele>987.8</ele>
        <time>2017-07-25T10:26:10Z</time>
      </trkpt>
      <trkpt lat="44.7311740" lon="7.2486390">
        <ele>988.8</ele>
        <time>2017-07-25T10:26:15Z</time>
      </trkpt>
      <trkpt lat="44.7311620" lon="7.2486170">
        <ele>989.2</ele>
        <time>2017-07-25T10:26:16Z</time>
      </trkpt>
      <trkpt lat="44.7311320" lon="7.2485410">
        <ele>990.2</ele>
        <time>2017-07-25T10:26:20Z</time>
      </trkpt>
      <trkpt lat="44.7311240" lon="7.2485220">
        <ele>990.4</ele>
        <time>2017-07-25T10:26:21Z</time>
      </trkpt>
      <trkpt lat="44.7310910" lon="7.2484390">
        <ele>991.0</ele>
        <time>2017-07-25T10:26:24Z</time>
      </trkpt>
      <trkpt lat="44.7310780" lon="7.2484170">
        <ele>991.4</ele>
        <time>2017-07-25T10:26:25Z</time>
      </trkpt>
      <trkpt lat="44.7310100" lon="7.2482990">
        <ele>992.6</ele>
        <time>2017-07-25T10:26:31Z</time>
      </trkpt>
      <trkpt lat="44.7309740" lon="7.2481770">
        <ele>993.8</ele>
        <time>2017-07-25T10:26:36Z</time>
      </trkpt>
      <trkpt lat="44.7309670" lon="7.2481480">
        <ele>994.0</ele>
        <time>2017-07-25T10:26:37Z</time>
      </trkpt>
      <trkpt lat="44.7309530" lon="7.2480130">
        <ele>994.8</ele>
        <time>2017-07-25T10:26:41Z</time>
      </trkpt>
      <trkpt lat="44.7309420" lon="7.2479580">
        <ele>995.2</ele>
        <time>2017-07-25T10:26:43Z</time>
      </trkpt>
      <trkpt lat="44.7309430" lon="7.2478970">
        <ele>996.0</ele>
        <time>2017-07-25T10:26:45Z</time>
      </trkpt>
      <trkpt lat="44.7309320" lon="7.2477680">
        <ele>997.0</ele>
        <time>2017-07-25T10:26:49Z</time>
      </trkpt>
      <trkpt lat="44.7309280" lon="7.2477400">
        <ele>997.2</ele>
        <time>2017-07-25T10:26:50Z</time>
      </trkpt>
      <trkpt lat="44.7309030" lon="7.2476050">
        <ele>998.4</ele>
        <time>2017-07-25T10:26:55Z</time>
      </trkpt>
      <trkpt lat="44.7308780" lon="7.2475500">
        <ele>998.8</ele>
        <time>2017-07-25T10:26:57Z</time>
      </trkpt>
      <trkpt lat="44.7307660" lon="7.2474490">
        <ele>999.2</ele>
        <time>2017-07-25T10:27:02Z</time>
      </trkpt>
      <trkpt lat="44.7306180" lon="7.2474410">
        <ele>999.4</ele>
        <time>2017-07-25T10:27:07Z</time>
      </trkpt>
      <trkpt lat="44.7304660" lon="7.2473920">
        <ele>1000.0</ele>
        <time>2017-07-25T10:27:13Z</time>
      </trkpt>
      <trkpt lat="44.7302680" lon="7.2472370">
        <ele>1000.4</ele>
        <time>2017-07-25T10:27:20Z</time>
      </trkpt>
      <trkpt lat="44.7301130" lon="7.2471240">
        <ele>1001.0</ele>
        <time>2017-07-25T10:27:26Z</time>
      </trkpt>
      <trkpt lat="44.7298930" lon="7.2469840">
        <ele>1000.2</ele>
        <time>2017-07-25T10:27:33Z</time>
      </trkpt>
      <trkpt lat="44.7297950" lon="7.2469550">
        <ele>999.4</ele>
        <time>2017-07-25T10:27:36Z</time>
      </trkpt>
      <trkpt lat="44.7296900" lon="7.2469680">
        <ele>999.0</ele>
        <time>2017-07-25T10:27:39Z</time>
      </trkpt>
      <trkpt lat="44.7295320" lon="7.2469270">
        <ele>999.2</ele>
        <time>2017-07-25T10:27:43Z</time>
      </trkpt>
      <trkpt lat="44.7294230" lon="7.2468430">
        <ele>999.4</ele>
        <time>2017-07-25T10:27:46Z</time>
      </trkpt>
      <trkpt lat="44.7293590" lon="7.2467610">
        <ele>999.8</ele>
        <time>2017-07-25T10:27:48Z</time>
      </trkpt>
      <trkpt lat="44.7292410" lon="7.2466290">
        <ele>1000.4</ele>
        <time>2017-07-25T10:27:52Z</time>
      </trkpt>
      <trkpt lat="44.7292060" lon="7.2466150">
        <ele>1000.6</ele>
        <time>2017-07-25T10:27:53Z</time>
      </trkpt>
      <trkpt lat="44.7290970" lon="7.2465850">
        <ele>1001.6</ele>
        <time>2017-07-25T10:27:56Z</time>
      </trkpt>
      <trkpt lat="44.7290240" lon="7.2465440">
        <ele>1002.0</ele>
        <time>2017-07-25T10:27:58Z</time>
      </trkpt>
      <trkpt lat="44.7289300" lon="7.2464700">
        <ele>1002.8</ele>
        <time>2017-07-25T10:28:01Z</time>
      </trkpt>
      <trkpt lat="44.7288390" lon="7.2463900">
        <ele>1003.4</ele>
        <time>2017-07-25T10:28:04Z</time>
      </trkpt>
      <trkpt lat="44.7287520" lon="7.2463440">
        <ele>1004.0</ele>
        <time>2017-07-25T10:28:07Z</time>
      </trkpt>
      <trkpt lat="44.7286960" lon="7.2463230">
        <ele>1004.6</ele>
        <time>2017-07-25T10:28:09Z</time>
      </trkpt>
      <trkpt lat="44.7286650" lon="7.2463190">
        <ele>1005.0</ele>
        <time>2017-07-25T10:28:10Z</time>
      </trkpt>
      <trkpt lat="44.7284920" lon="7.2462940">
        <ele>1005.4</ele>
        <time>2017-07-25T10:28:15Z</time>
      </trkpt>
      <trkpt lat="44.7282860" lon="7.2461770">
        <ele>1005.2</ele>
        <time>2017-07-25T10:28:22Z</time>
      </trkpt>
      <trkpt lat="44.7281210" lon="7.2460920">
        <ele>1005.0</ele>
        <time>2017-07-25T10:28:28Z</time>
      </trkpt>
      <trkpt lat="44.7279530" lon="7.2459750">
        <ele>1005.4</ele>
        <time>2017-07-25T10:28:35Z</time>
      </trkpt>
      <trkpt lat="44.7277430" lon="7.2458810">
        <ele>1005.2</ele>
        <time>2017-07-25T10:28:42Z</time>
      </trkpt>
      <trkpt lat="44.7276970" lon="7.2458270">
        <ele>1006.2</ele>
        <time>2017-07-25T10:28:44Z</time>
      </trkpt>
      <trkpt lat="44.7276460" lon="7.2457500">
        <ele>1007.0</ele>
        <time>2017-07-25T10:28:47Z</time>
      </trkpt>
      <trkpt lat="44.7276290" lon="7.2457240">
        <ele>1007.2</ele>
        <time>2017-07-25T10:28:48Z</time>
      </trkpt>
      <trkpt lat="44.7275630" lon="7.2456400">
        <ele>1008.4</ele>
        <time>2017-07-25T10:28:51Z</time>
      </trkpt>
      <trkpt lat="44.7275360" lon="7.2455820">
        <ele>1009.0</ele>
        <time>2017-07-25T10:28:53Z</time>
      </trkpt>
      <trkpt lat="44.7275260" lon="7.2455510">
        <ele>1009.4</ele>
        <time>2017-07-25T10:28:54Z</time>
      </trkpt>
      <trkpt lat="44.7274700" lon="7.2454290">
        <ele>1010.4</ele>
        <time>2017-07-25T10:28:59Z</time>
      </trkpt>
      <trkpt lat="44.7274540" lon="7.2454100">
        <ele>1010.6</ele>
        <time>2017-07-25T10:29:00Z</time>
      </trkpt>
      <trkpt lat="44.7274200" lon="7.2454050">
        <ele>1011.0</ele>
        <time>2017-07-25T10:29:02Z</time>
      </trkpt>
      <trkpt lat="44.7273510" lon="7.2454190">
        <ele>1011.6</ele>
        <time>2017-07-25T10:29:05Z</time>
      </trkpt>
      <trkpt lat="44.7272270" lon="7.2453760">
        <ele>1012.4</ele>
        <time>2017-07-25T10:29:10Z</time>
      </trkpt>
      <trkpt lat="44.7272040" lon="7.2453570">
        <ele>1012.8</ele>
        <time>2017-07-25T10:29:11Z</time>
      </trkpt>
      <trkpt lat="44.7271810" lon="7.2453340">
        <ele>1012.8</ele>
        <time>2017-07-25T10:29:12Z</time>
      </trkpt>
      <trkpt lat="44.7271000" lon="7.2452190">
        <ele>1013.4</ele>
        <time>2017-07-25T10:29:16Z</time>
      </trkpt>
      <trkpt lat="44.7270020" lon="7.2450880">
        <ele>1013.8</ele>
        <time>2017-07-25T10:29:21Z</time>
      </trkpt>
      <trkpt lat="44.7269790" lon="7.2450670">
        <ele>1014.0</ele>
        <time>2017-07-25T10:29:22Z</time>
      </trkpt>
      <trkpt lat="44.7268600" lon="7.2449860">
        <ele>1014.8</ele>
        <time>2017-07-25T10:29:27Z</time>
      </trkpt>
      <trkpt lat="44.7268360" lon="7.2449760">
        <ele>1014.8</ele>
        <time>2017-07-25T10:29:28Z</time>
      </trkpt>
      <trkpt lat="44.7266900" lon="7.2449520">
        <ele>1015.8</ele>
        <time>2017-07-25T10:29:34Z</time>
      </trkpt>
      <trkpt lat="44.7266480" lon="7.2449420">
        <ele>1016.0</ele>
        <time>2017-07-25T10:29:36Z</time>
      </trkpt>
      <trkpt lat="44.7265810" lon="7.2448720">
        <ele>1016.2</ele>
        <time>2017-07-25T10:29:40Z</time>
      </trkpt>
      <trkpt lat="44.7265780" lon="7.2447710">
        <ele>1016.4</ele>
        <time>2017-07-25T10:29:43Z</time>
      </trkpt>
      <trkpt lat="44.7265810" lon="7.2447390">
        <ele>1016.6</ele>
        <time>2017-07-25T10:29:44Z</time>
      </trkpt>
      <trkpt lat="44.7265890" lon="7.2447120">
        <ele>1016.4</ele>
        <time>2017-07-25T10:29:45Z</time>
      </trkpt>
      <trkpt lat="44.7266280" lon="7.2446550">
        <ele>1017.0</ele>
        <time>2017-07-25T10:29:48Z</time>
      </trkpt>
      <trkpt lat="44.7266410" lon="7.2446330">
        <ele>1017.0</ele>
        <time>2017-07-25T10:29:49Z</time>
      </trkpt>
      <trkpt lat="44.7266930" lon="7.2444970">
        <ele>1017.6</ele>
        <time>2017-07-25T10:29:54Z</time>
      </trkpt>
      <trkpt lat="44.7267290" lon="7.2444210">
        <ele>1018.2</ele>
        <time>2017-07-25T10:29:57Z</time>
      </trkpt>
      <trkpt lat="44.7267660" lon="7.2443350">
        <ele>1019.0</ele>
        <time>2017-07-25T10:30:01Z</time>
      </trkpt>
      <trkpt lat="44.7267850" lon="7.2442970">
        <ele>1019.4</ele>
        <time>2017-07-25T10:30:03Z</time>
      </trkpt>
      <trkpt lat="44.7268140" lon="7.2442280">
        <ele>1020.0</ele>
        <time>2017-07-25T10:30:07Z</time>
      </trkpt>
      <trkpt lat="44.7268220" lon="7.2441610">
        <ele>1020.4</ele>
        <time>2017-07-25T10:30:09Z</time>
      </trkpt>
      <trkpt lat="44.7268160" lon="7.2440800">
        <ele>1021.2</ele>
        <time>2017-07-25T10:30:12Z</time>
      </trkpt>
      <trkpt lat="44.7268090" lon="7.2439990">
        <ele>1021.6</ele>
        <time>2017-07-25T10:30:15Z</time>
      </trkpt>
      <trkpt lat="44.7268060" lon="7.2438720">
        <ele>1023.0</ele>
        <time>2017-07-25T10:30:20Z</time>
      </trkpt>
      <trkpt lat="44.7268100" lon="7.2437570">
        <ele>1024.0</ele>
        <time>2017-07-25T10:30:25Z</time>
      </trkpt>
      <trkpt lat="44.7268270" lon="7.2436880">
        <ele>1025.0</ele>
        <time>2017-07-25T10:30:28Z</time>
      </trkpt>
      <trkpt lat="44.7268330" lon="7.2436620">
        <ele>1025.2</ele>
        <time>2017-07-25T10:30:29Z</time>
      </trkpt>
      <trkpt lat="44.7268370" lon="7.2436390">
        <ele>1025.4</ele>
        <time>2017-07-25T10:30:30Z</time>
      </trkpt>
      <trkpt lat="44.7268450" lon="7.2436180">
        <ele>1025.8</ele>
        <time>2017-07-25T10:30:31Z</time>
      </trkpt>
      <trkpt lat="44.7268630" lon="7.2435800">
        <ele>1026.4</ele>
        <time>2017-07-25T10:30:33Z</time>
      </trkpt>
      <trkpt lat="44.7268710" lon="7.2435620">
        <ele>1026.6</ele>
        <time>2017-07-25T10:30:34Z</time>
      </trkpt>
      <trkpt lat="44.7269080" lon="7.2435190">
        <ele>1027.6</ele>
        <time>2017-07-25T10:30:38Z</time>
      </trkpt>
      <trkpt lat="44.7269250" lon="7.2434930">
        <ele>1028.4</ele>
        <time>2017-07-25T10:30:40Z</time>
      </trkpt>
      <trkpt lat="44.7269460" lon="7.2434660">
        <ele>1028.8</ele>
        <time>2017-07-25T10:30:42Z</time>
      </trkpt>
      <trkpt lat="44.7269760" lon="7.2434280">
        <ele>1029.8</ele>
        <time>2017-07-25T10:30:45Z</time>
      </trkpt>
      <trkpt lat="44.7270280" lon="7.2433850">
        <ele>1031.2</ele>
        <time>2017-07-25T10:30:49Z</time>
      </trkpt>
      <trkpt lat="44.7270780" lon="7.2433240">
        <ele>1032.4</ele>
        <time>2017-07-25T10:30:53Z</time>
      </trkpt>
      <trkpt lat="44.7271340" lon="7.2432850">
        <ele>1033.4</ele>
        <time>2017-07-25T10:30:57Z</time>
      </trkpt>
      <trkpt lat="44.7271800" lon="7.2432340">
        <ele>1034.6</ele>
        <time>2017-07-25T10:31:01Z</time>
      </trkpt>
      <trkpt lat="44.7272110" lon="7.2431870">
        <ele>1035.4</ele>
        <time>2017-07-25T10:31:04Z</time>
      </trkpt>
      <trkpt lat="44.7272180" lon="7.2431680">
        <ele>1035.8</ele>
        <time>2017-07-25T10:31:05Z</time>
      </trkpt>
      <trkpt lat="44.7272300" lon="7.2431510">
        <ele>1036.0</ele>
        <time>2017-07-25T10:31:06Z</time>
      </trkpt>
      <trkpt lat="44.7272690" lon="7.2431120">
        <ele>1037.0</ele>
        <time>2017-07-25T10:31:09Z</time>
      </trkpt>
      <trkpt lat="44.7272800" lon="7.2431010">
        <ele>1037.2</ele>
        <time>2017-07-25T10:31:10Z</time>
      </trkpt>
      <trkpt lat="44.7272940" lon="7.2430690">
        <ele>1037.8</ele>
        <time>2017-07-25T10:31:12Z</time>
      </trkpt>
      <trkpt lat="44.7273020" lon="7.2430540">
        <ele>1038.0</ele>
        <time>2017-07-25T10:31:13Z</time>
      </trkpt>
      <trkpt lat="44.7273370" lon="7.2429880">
        <ele>1037.8</ele>
        <time>2017-07-25T10:31:17Z</time>
      </trkpt>
      <trkpt lat="44.7273450" lon="7.2429710">
        <ele>1036.6</ele>
        <time>2017-07-25T10:31:18Z</time>
      </trkpt>
      <trkpt lat="44.7273640" lon="7.2429390">
        <ele>1038.0</ele>
        <time>2017-07-25T10:31:20Z</time>
      </trkpt>
      <trkpt lat="44.7273760" lon="7.2429250">
        <ele>1039.6</ele>
        <time>2017-07-25T10:31:21Z</time>
      </trkpt>
      <trkpt lat="44.7274050" lon="7.2428580">
        <ele>1041.0</ele>
        <time>2017-07-25T10:31:25Z</time>
      </trkpt>
      <trkpt lat="44.7274470" lon="7.2427750">
        <ele>1042.0</ele>
        <time>2017-07-25T10:31:30Z</time>
      </trkpt>
      <trkpt lat="44.7274650" lon="7.2427470">
        <ele>1042.6</ele>
        <time>2017-07-25T10:31:32Z</time>
      </trkpt>
      <trkpt lat="44.7274850" lon="7.2427180">
        <ele>1043.2</ele>
        <time>2017-07-25T10:31:34Z</time>
      </trkpt>
      <trkpt lat="44.7275020" lon="7.2426810">
        <ele>1043.8</ele>
        <time>2017-07-25T10:31:36Z</time>
      </trkpt>
      <trkpt lat="44.7275220" lon="7.2426440">
        <ele>1044.2</ele>
        <time>2017-07-25T10:31:38Z</time>
      </trkpt>
      <trkpt lat="44.7275330" lon="7.2426260">
        <ele>1044.6</ele>
        <time>2017-07-25T10:31:39Z</time>
      </trkpt>
      <trkpt lat="44.7275630" lon="7.2425750">
        <ele>1045.4</ele>
        <time>2017-07-25T10:31:42Z</time>
      </trkpt>
      <trkpt lat="44.7275840" lon="7.2425400">
        <ele>1046.0</ele>
        <time>2017-07-25T10:31:44Z</time>
      </trkpt>
      <trkpt lat="44.7276050" lon="7.2425160">
        <ele>1046.6</ele>
        <time>2017-07-25T10:31:46Z</time>
      </trkpt>
      <trkpt lat="44.7276540" lon="7.2424680">
        <ele>1047.8</ele>
        <time>2017-07-25T10:31:50Z</time>
      </trkpt>
      <trkpt lat="44.7276770" lon="7.2424480">
        <ele>1048.2</ele>
        <time>2017-07-25T10:31:52Z</time>
      </trkpt>
      <trkpt lat="44.7276910" lon="7.2424410">
        <ele>1048.6</ele>
        <time>2017-07-25T10:31:53Z</time>
      </trkpt>
      <trkpt lat="44.7277030" lon="7.2424330">
        <ele>1048.8</ele>
        <time>2017-07-25T10:31:54Z</time>
      </trkpt>
      <trkpt lat="44.7277560" lon="7.2424180">
        <ele>1050.2</ele>
        <time>2017-07-25T10:31:58Z</time>
      </trkpt>
      <trkpt lat="44.7277820" lon="7.2424120">
        <ele>1050.6</ele>
        <time>2017-07-25T10:32:00Z</time>
      </trkpt>
      <trkpt lat="44.7278260" lon="7.2424030">
        <ele>1051.2</ele>
        <time>2017-07-25T10:32:03Z</time>
      </trkpt>
      <trkpt lat="44.7278560" lon="7.2423870">
        <ele>1051.8</ele>
        <time>2017-07-25T10:32:05Z</time>
      </trkpt>
      <trkpt lat="44.7278810" lon="7.2423690">
        <ele>1052.2</ele>
        <time>2017-07-25T10:32:07Z</time>
      </trkpt>
      <trkpt lat="44.7278950" lon="7.2423660">
        <ele>1052.4</ele>
        <time>2017-07-25T10:32:08Z</time>
      </trkpt>
      <trkpt lat="44.7279070" lon="7.2423650">
        <ele>1052.6</ele>
        <time>2017-07-25T10:32:09Z</time>
      </trkpt>
      <trkpt lat="44.7279510" lon="7.2423530">
        <ele>1053.6</ele>
        <time>2017-07-25T10:32:12Z</time>
      </trkpt>
      <trkpt lat="44.7279850" lon="7.2423280">
        <ele>1054.0</ele>
        <time>2017-07-25T10:32:14Z</time>
      </trkpt>
      <trkpt lat="44.7280290" lon="7.2422790">
        <ele>1054.8</ele>
        <time>2017-07-25T10:32:17Z</time>
      </trkpt>
      <trkpt lat="44.7280580" lon="7.2422270">
        <ele>1055.0</ele>
        <time>2017-07-25T10:32:19Z</time>
      </trkpt>
      <trkpt lat="44.7280860" lon="7.2421590">
        <ele>1055.8</ele>
        <time>2017-07-25T10:32:21Z</time>
      </trkpt>
      <trkpt lat="44.7281400" lon="7.2420200">
        <ele>1056.6</ele>
        <time>2017-07-25T10:32:25Z</time>
      </trkpt>
      <trkpt lat="44.7281530" lon="7.2419850">
        <ele>1056.8</ele>
        <time>2017-07-25T10:32:26Z</time>
      </trkpt>
      <trkpt lat="44.7281840" lon="7.2417920">
        <ele>1057.8</ele>
        <time>2017-07-25T10:32:31Z</time>
      </trkpt>
      <trkpt lat="44.7281620" lon="7.2416830">
        <ele>1059.0</ele>
        <time>2017-07-25T10:32:36Z</time>
      </trkpt>
      <trkpt lat="44.7281540" lon="7.2416660">
        <ele>1059.4</ele>
        <time>2017-07-25T10:32:37Z</time>
      </trkpt>
      <trkpt lat="44.7281260" lon="7.2416030">
        <ele>1060.2</ele>
        <time>2017-07-25T10:32:40Z</time>
      </trkpt>
      <trkpt lat="44.7280870" lon="7.2415040">
        <ele>1061.2</ele>
        <time>2017-07-25T10:32:44Z</time>
      </trkpt>
      <trkpt lat="44.7280770" lon="7.2414810">
        <ele>1061.4</ele>
        <time>2017-07-25T10:32:45Z</time>
      </trkpt>
      <trkpt lat="44.7279980" lon="7.2413630">
        <ele>1062.4</ele>
        <time>2017-07-25T10:32:51Z</time>
      </trkpt>
      <trkpt lat="44.7279650" lon="7.2413250">
        <ele>1062.8</ele>
        <time>2017-07-25T10:32:53Z</time>
      </trkpt>
      <trkpt lat="44.7278760" lon="7.2412540">
        <ele>1063.4</ele>
        <time>2017-07-25T10:32:58Z</time>
      </trkpt>
      <trkpt lat="44.7278590" lon="7.2412380">
        <ele>1063.6</ele>
        <time>2017-07-25T10:32:59Z</time>
      </trkpt>
      <trkpt lat="44.7277280" lon="7.2410970">
        <ele>1064.6</ele>
        <time>2017-07-25T10:33:06Z</time>
      </trkpt>
      <trkpt lat="44.7276170" lon="7.2409740">
        <ele>1065.6</ele>
        <time>2017-07-25T10:33:12Z</time>
      </trkpt>
      <trkpt lat="44.7276010" lon="7.2409510">
        <ele>1065.8</ele>
        <time>2017-07-25T10:33:13Z</time>
      </trkpt>
      <trkpt lat="44.7275340" lon="7.2408320">
        <ele>1066.8</ele>
        <time>2017-07-25T10:33:18Z</time>
      </trkpt>
      <trkpt lat="44.7275240" lon="7.2408070">
        <ele>1066.8</ele>
        <time>2017-07-25T10:33:19Z</time>
      </trkpt>
      <trkpt lat="44.7274700" lon="7.2406070">
        <ele>1067.8</ele>
        <time>2017-07-25T10:33:25Z</time>
      </trkpt>
      <trkpt lat="44.7274690" lon="7.2405670">
        <ele>1067.8</ele>
        <time>2017-07-25T10:33:26Z</time>
      </trkpt>
      <trkpt lat="44.7274690" lon="7.2405250">
        <ele>1068.0</ele>
        <time>2017-07-25T10:33:27Z</time>
      </trkpt>
      <trkpt lat="44.7274670" lon="7.2403870">
        <ele>1068.6</ele>
        <time>2017-07-25T10:33:31Z</time>
      </trkpt>
      <trkpt lat="44.7274650" lon="7.2403520">
        <ele>1069.0</ele>
        <time>2017-07-25T10:33:32Z</time>
      </trkpt>
      <trkpt lat="44.7274630" lon="7.2402690">
        <ele>1069.4</ele>
        <time>2017-07-25T10:33:35Z</time>
      </trkpt>
      <trkpt lat="44.7274620" lon="7.2402110">
        <ele>1069.6</ele>
        <time>2017-07-25T10:33:37Z</time>
      </trkpt>
      <trkpt lat="44.7274520" lon="7.2401510">
        <ele>1070.0</ele>
        <time>2017-07-25T10:33:39Z</time>
      </trkpt>
      <trkpt lat="44.7274130" lon="7.2400850">
        <ele>1070.4</ele>
        <time>2017-07-25T10:33:42Z</time>
      </trkpt>
      <trkpt lat="44.7273710" lon="7.2399880">
        <ele>1071.2</ele>
        <time>2017-07-25T10:33:46Z</time>
      </trkpt>
      <trkpt lat="44.7273590" lon="7.2399330">
        <ele>1071.6</ele>
        <time>2017-07-25T10:33:48Z</time>
      </trkpt>
      <trkpt lat="44.7273490" lon="7.2398530">
        <ele>1072.2</ele>
        <time>2017-07-25T10:33:51Z</time>
      </trkpt>
      <trkpt lat="44.7273480" lon="7.2397740">
        <ele>1073.0</ele>
        <time>2017-07-25T10:33:54Z</time>
      </trkpt>
      <trkpt lat="44.7273460" lon="7.2397220">
        <ele>1073.6</ele>
        <time>2017-07-25T10:33:56Z</time>
      </trkpt>
      <trkpt lat="44.7273680" lon="7.2395810">
        <ele>1074.0</ele>
        <time>2017-07-25T10:34:01Z</time>
      </trkpt>
      <trkpt lat="44.7274320" lon="7.2393820">
        <ele>1074.0</ele>
        <time>2017-07-25T10:34:05Z</time>
      </trkpt>
      <trkpt lat="44.7274550" lon="7.2391990">
        <ele>1073.8</ele>
        <time>2017-07-25T10:34:08Z</time>
      </trkpt>
      <trkpt lat="44.7274640" lon="7.2390790">
        <ele>1073.6</ele>
        <time>2017-07-25T10:34:10Z</time>
      </trkpt>
      <trkpt lat="44.7274790" lon="7.2387930">
        <ele>1073.6</ele>
        <time>2017-07-25T10:34:16Z</time>
      </trkpt>
      <trkpt lat="44.7275130" lon="7.2386560">
        <ele>1074.0</ele>
        <time>2017-07-25T10:34:20Z</time>
      </trkpt>
      <trkpt lat="44.7275410" lon="7.2385590">
        <ele>1074.8</ele>
        <time>2017-07-25T10:34:23Z</time>
      </trkpt>
      <trkpt lat="44.7275750" lon="7.2384310">
        <ele>1075.8</ele>
        <time>2017-07-25T10:34:27Z</time>
      </trkpt>
      <trkpt lat="44.7275850" lon="7.2384010">
        <ele>1076.0</ele>
        <time>2017-07-25T10:34:28Z</time>
      </trkpt>
      <trkpt lat="44.7275980" lon="7.2382360">
        <ele>1077.0</ele>
        <time>2017-07-25T10:34:33Z</time>
      </trkpt>
      <trkpt lat="44.7275960" lon="7.2382100">
        <ele>1077.2</ele>
        <time>2017-07-25T10:34:34Z</time>
      </trkpt>
      <trkpt lat="44.7276010" lon="7.2380970">
        <ele>1078.2</ele>
        <time>2017-07-25T10:34:38Z</time>
      </trkpt>
      <trkpt lat="44.7276130" lon="7.2379620">
        <ele>1079.2</ele>
        <time>2017-07-25T10:34:43Z</time>
      </trkpt>
      <trkpt lat="44.7276150" lon="7.2378710">
        <ele>1079.8</ele>
        <time>2017-07-25T10:34:46Z</time>
      </trkpt>
      <trkpt lat="44.7276150" lon="7.2377870">
        <ele>1080.4</ele>
        <time>2017-07-25T10:34:49Z</time>
      </trkpt>
      <trkpt lat="44.7276180" lon="7.2376880">
        <ele>1081.2</ele>
        <time>2017-07-25T10:34:53Z</time>
      </trkpt>
      <trkpt lat="44.7276120" lon="7.2375870">
        <ele>1081.4</ele>
        <time>2017-07-25T10:34:57Z</time>
      </trkpt>
      <trkpt lat="44.7276030" lon="7.2375340">
        <ele>1082.0</ele>
        <time>2017-07-25T10:34:59Z</time>
      </trkpt>
      <trkpt lat="44.7275910" lon="7.2373520">
        <ele>1082.8</ele>
        <time>2017-07-25T10:35:05Z</time>
      </trkpt>
      <trkpt lat="44.7275840" lon="7.2373230">
        <ele>1083.0</ele>
        <time>2017-07-25T10:35:06Z</time>
      </trkpt>
      <trkpt lat="44.7275570" lon="7.2372130">
        <ele>1084.0</ele>
        <time>2017-07-25T10:35:10Z</time>
      </trkpt>
      <trkpt lat="44.7275410" lon="7.2371370">
        <ele>1084.8</ele>
        <time>2017-07-25T10:35:13Z</time>
      </trkpt>
      <trkpt lat="44.7275300" lon="7.2370870">
        <ele>1085.2</ele>
        <time>2017-07-25T10:35:15Z</time>
      </trkpt>
      <trkpt lat="44.7275020" lon="7.2369870">
        <ele>1086.6</ele>
        <time>2017-07-25T10:35:19Z</time>
      </trkpt>
      <trkpt lat="44.7274990" lon="7.2369610">
        <ele>1086.8</ele>
        <time>2017-07-25T10:35:20Z</time>
      </trkpt>
      <trkpt lat="44.7274880" lon="7.2368770">
        <ele>1087.8</ele>
        <time>2017-07-25T10:35:23Z</time>
      </trkpt>
      <trkpt lat="44.7274430" lon="7.2367870">
        <ele>1089.0</ele>
        <time>2017-07-25T10:35:27Z</time>
      </trkpt>
      <trkpt lat="44.7274280" lon="7.2367660">
        <ele>1089.2</ele>
        <time>2017-07-25T10:35:28Z</time>
      </trkpt>
      <trkpt lat="44.7273970" lon="7.2367030">
        <ele>1090.0</ele>
        <time>2017-07-25T10:35:31Z</time>
      </trkpt>
      <trkpt lat="44.7273690" lon="7.2366340">
        <ele>1091.2</ele>
        <time>2017-07-25T10:35:34Z</time>
      </trkpt>
      <trkpt lat="44.7273670" lon="7.2366080">
        <ele>1091.6</ele>
        <time>2017-07-25T10:35:35Z</time>
      </trkpt>
      <trkpt lat="44.7273580" lon="7.2365560">
        <ele>1092.0</ele>
        <time>2017-07-25T10:35:37Z</time>
      </trkpt>
      <trkpt lat="44.7273520" lon="7.2365120">
        <ele>1092.6</ele>
        <time>2017-07-25T10:35:39Z</time>
      </trkpt>
      <trkpt lat="44.7273440" lon="7.2364360">
        <ele>1093.4</ele>
        <time>2017-07-25T10:35:42Z</time>
      </trkpt>
      <trkpt lat="44.7273410" lon="7.2364130">
        <ele>1093.6</ele>
        <time>2017-07-25T10:35:43Z</time>
      </trkpt>
      <trkpt lat="44.7273280" lon="7.2363540">
        <ele>1094.6</ele>
        <time>2017-07-25T10:35:46Z</time>
      </trkpt>
      <trkpt lat="44.7273180" lon="7.2362650">
        <ele>1095.4</ele>
        <time>2017-07-25T10:35:50Z</time>
      </trkpt>
      <trkpt lat="44.7273050" lon="7.2362230">
        <ele>1095.8</ele>
        <time>2017-07-25T10:35:52Z</time>
      </trkpt>
      <trkpt lat="44.7272550" lon="7.2361260">
        <ele>1096.8</ele>
        <time>2017-07-25T10:35:56Z</time>
      </trkpt>
      <trkpt lat="44.7272440" lon="7.2361020">
        <ele>1097.2</ele>
        <time>2017-07-25T10:35:57Z</time>
      </trkpt>
      <trkpt lat="44.7271940" lon="7.2359690">
        <ele>1097.8</ele>
        <time>2017-07-25T10:36:03Z</time>
      </trkpt>
      <trkpt lat="44.7271910" lon="7.2359430">
        <ele>1098.0</ele>
        <time>2017-07-25T10:36:04Z</time>
      </trkpt>
      <trkpt lat="44.7271570" lon="7.2357840">
        <ele>1099.0</ele>
        <time>2017-07-25T10:36:11Z</time>
      </trkpt>
      <trkpt lat="44.7271320" lon="7.2357130">
        <ele>1099.2</ele>
        <time>2017-07-25T10:36:14Z</time>
      </trkpt>
      <trkpt lat="44.7270960" lon="7.2356250">
        <ele>1100.0</ele>
        <time>2017-07-25T10:36:18Z</time>
      </trkpt>
      <trkpt lat="44.7270900" lon="7.2356050">
        <ele>1100.4</ele>
        <time>2017-07-25T10:36:19Z</time>
      </trkpt>
      <trkpt lat="44.7270730" lon="7.2355170">
        <ele>1101.4</ele>
        <time>2017-07-25T10:36:23Z</time>
      </trkpt>
      <trkpt lat="44.7270690" lon="7.2354960">
        <ele>1101.6</ele>
        <time>2017-07-25T10:36:24Z</time>
      </trkpt>
      <trkpt lat="44.7270250" lon="7.2353640">
        <ele>1102.4</ele>
        <time>2017-07-25T10:36:30Z</time>
      </trkpt>
      <trkpt lat="44.7270140" lon="7.2353450">
        <ele>1102.6</ele>
        <time>2017-07-25T10:36:31Z</time>
      </trkpt>
      <trkpt lat="44.7269650" lon="7.2352750">
        <ele>1103.2</ele>
        <time>2017-07-25T10:36:36Z</time>
      </trkpt>
      <trkpt lat="44.7269550" lon="7.2352570">
        <ele>1103.6</ele>
        <time>2017-07-25T10:36:37Z</time>
      </trkpt>
      <trkpt lat="44.7269000" lon="7.2351920">
        <ele>1104.4</ele>
        <time>2017-07-25T10:36:41Z</time>
      </trkpt>
      <trkpt lat="44.7268870" lon="7.2351800">
        <ele>1104.6</ele>
        <time>2017-07-25T10:36:42Z</time>
      </trkpt>
      <trkpt lat="44.7268770" lon="7.2351490">
        <ele>1104.6</ele>
        <time>2017-07-25T10:36:44Z</time>
      </trkpt>
      <trkpt lat="44.7268750" lon="7.2350880">
        <ele>1104.0</ele>
        <time>2017-07-25T10:36:46Z</time>
      </trkpt>
      <trkpt lat="44.7268980" lon="7.2349000">
        <ele>1104.2</ele>
        <time>2017-07-25T10:36:52Z</time>
      </trkpt>
      <trkpt lat="44.7269260" lon="7.2347690">
        <ele>1104.0</ele>
        <time>2017-07-25T10:36:57Z</time>
      </trkpt>
      <trkpt lat="44.7269240" lon="7.2347440">
        <ele>1104.2</ele>
        <time>2017-07-25T10:36:58Z</time>
      </trkpt>
      <trkpt lat="44.7269200" lon="7.2346580">
        <ele>1103.8</ele>
        <time>2017-07-25T10:37:02Z</time>
      </trkpt>
      <trkpt lat="44.7269190" lon="7.2346410">
        <ele>1103.6</ele>
        <time>2017-07-25T10:37:03Z</time>
      </trkpt>
      <trkpt lat="44.7269080" lon="7.2345350">
        <ele>1103.6</ele>
        <time>2017-07-25T10:37:08Z</time>
      </trkpt>
      <trkpt lat="44.7269070" lon="7.2345130">
        <ele>1104.0</ele>
        <time>2017-07-25T10:37:09Z</time>
      </trkpt>
      <trkpt lat="44.7269060" lon="7.2344520">
        <ele>1104.6</ele>
        <time>2017-07-25T10:37:12Z</time>
      </trkpt>
      <trkpt lat="44.7269020" lon="7.2343880">
        <ele>1105.4</ele>
        <time>2017-07-25T10:37:15Z</time>
      </trkpt>
      <trkpt lat="44.7268960" lon="7.2343450">
        <ele>1105.6</ele>
        <time>2017-07-25T10:37:17Z</time>
      </trkpt>
      <trkpt lat="44.7268930" lon="7.2343190">
        <ele>1105.6</ele>
        <time>2017-07-25T10:37:18Z</time>
      </trkpt>
      <trkpt lat="44.7268890" lon="7.2342420">
        <ele>1106.2</ele>
        <time>2017-07-25T10:37:21Z</time>
      </trkpt>
      <trkpt lat="44.7268830" lon="7.2342160">
        <ele>1106.0</ele>
        <time>2017-07-25T10:37:22Z</time>
      </trkpt>
      <trkpt lat="44.7268870" lon="7.2341320">
        <ele>1106.2</ele>
        <time>2017-07-25T10:37:25Z</time>
      </trkpt>
      <trkpt lat="44.7269550" lon="7.2339570">
        <ele>1106.0</ele>
        <time>2017-07-25T10:37:30Z</time>
      </trkpt>
      <trkpt lat="44.7270480" lon="7.2338930">
        <ele>1107.0</ele>
        <time>2017-07-25T10:37:34Z</time>
      </trkpt>
      <trkpt lat="44.7271760" lon="7.2338910">
        <ele>1108.2</ele>
        <time>2017-07-25T10:37:39Z</time>
      </trkpt>
      <trkpt lat="44.7272790" lon="7.2339790">
        <ele>1109.6</ele>
        <time>2017-07-25T10:37:43Z</time>
      </trkpt>
      <trkpt lat="44.7273370" lon="7.2340390">
        <ele>1110.0</ele>
        <time>2017-07-25T10:37:45Z</time>
      </trkpt>
      <trkpt lat="44.7274130" lon="7.2341300">
        <ele>1110.6</ele>
        <time>2017-07-25T10:37:48Z</time>
      </trkpt>
      <trkpt lat="44.7275170" lon="7.2342350">
        <ele>1111.4</ele>
        <time>2017-07-25T10:37:52Z</time>
      </trkpt>
      <trkpt lat="44.7275440" lon="7.2342570">
        <ele>1111.6</ele>
        <time>2017-07-25T10:37:53Z</time>
      </trkpt>
      <trkpt lat="44.7276280" lon="7.2343430">
        <ele>1112.4</ele>
        <time>2017-07-25T10:37:57Z</time>
      </trkpt>
      <trkpt lat="44.7276440" lon="7.2343580">
        <ele>1112.8</ele>
        <time>2017-07-25T10:37:58Z</time>
      </trkpt>
      <trkpt lat="44.7277230" lon="7.2344160">
        <ele>1113.8</ele>
        <time>2017-07-25T10:38:03Z</time>
      </trkpt>
      <trkpt lat="44.7277530" lon="7.2344510">
        <ele>1114.4</ele>
        <time>2017-07-25T10:38:05Z</time>
      </trkpt>
      <trkpt lat="44.7277860" lon="7.2344880">
        <ele>1115.0</ele>
        <time>2017-07-25T10:38:08Z</time>
      </trkpt>
      <trkpt lat="44.7278050" lon="7.2345100">
        <ele>1115.6</ele>
        <time>2017-07-25T10:38:10Z</time>
      </trkpt>
      <trkpt lat="44.7278550" lon="7.2345580">
        <ele>1116.0</ele>
        <time>2017-07-25T10:38:15Z</time>
      </trkpt>
      <trkpt lat="44.7278860" lon="7.2345690">
        <ele>1116.2</ele>
        <time>2017-07-25T10:38:17Z</time>
      </trkpt>
      <trkpt lat="44.7279360" lon="7.2346100">
        <ele>1117.6</ele>
        <time>2017-07-25T10:38:21Z</time>
      </trkpt>
      <trkpt lat="44.7279820" lon="7.2346400">
        <ele>1118.6</ele>
        <time>2017-07-25T10:38:25Z</time>
      </trkpt>
      <trkpt lat="44.7280480" lon="7.2346690">
        <ele>1119.8</ele>
        <time>2017-07-25T10:38:29Z</time>
      </trkpt>
      <trkpt lat="44.7280870" lon="7.2346840">
        <ele>1120.8</ele>
        <time>2017-07-25T10:38:32Z</time>
      </trkpt>
      <trkpt lat="44.7281280" lon="7.2347000">
        <ele>1122.2</ele>
        <time>2017-07-25T10:38:35Z</time>
      </trkpt>
      <trkpt lat="44.7281940" lon="7.2347210">
        <ele>1124.4</ele>
        <time>2017-07-25T10:38:40Z</time>
      </trkpt>
      <trkpt lat="44.7282310" lon="7.2347340">
        <ele>1125.4</ele>
        <time>2017-07-25T10:38:43Z</time>
      </trkpt>
      <trkpt lat="44.7282530" lon="7.2347390">
        <ele>1126.0</ele>
        <time>2017-07-25T10:38:45Z</time>
      </trkpt>
      <trkpt lat="44.7282650" lon="7.2347390">
        <ele>1126.0</ele>
        <time>2017-07-25T10:38:46Z</time>
      </trkpt>
      <trkpt lat="44.7283070" lon="7.2347220">
        <ele>1126.6</ele>
        <time>2017-07-25T10:38:49Z</time>
      </trkpt>
      <trkpt lat="44.7285010" lon="7.2347430">
        <ele>1131.2</ele>
        <time>2017-07-25T10:39:06Z</time>
      </trkpt>
      <trkpt lat="44.7285570" lon="7.2347940">
        <ele>1131.4</ele>
        <time>2017-07-25T10:39:11Z</time>
      </trkpt>
      <trkpt lat="44.7285850" lon="7.2348100">
        <ele>1131.6</ele>
        <time>2017-07-25T10:39:13Z</time>
      </trkpt>
      <trkpt lat="44.7286310" lon="7.2348410">
        <ele>1132.4</ele>
        <time>2017-07-25T10:39:16Z</time>
      </trkpt>
      <trkpt lat="44.7286900" lon="7.2349010">
        <ele>1133.2</ele>
        <time>2017-07-25T10:39:20Z</time>
      </trkpt>
      <trkpt lat="44.7287250" lon="7.2349320">
        <ele>1133.4</ele>
        <time>2017-07-25T10:39:23Z</time>
      </trkpt>
      <trkpt lat="44.7287500" lon="7.2349380">
        <ele>1133.4</ele>
        <time>2017-07-25T10:39:25Z</time>
      </trkpt>
      <trkpt lat="44.7287780" lon="7.2349540">
        <ele>1133.4</ele>
        <time>2017-07-25T10:39:27Z</time>
      </trkpt>
      <trkpt lat="44.7287930" lon="7.2349670">
        <ele>1133.4</ele>
        <time>2017-07-25T10:39:28Z</time>
      </trkpt>
      <trkpt lat="44.7288210" lon="7.2349950">
        <ele>1133.2</ele>
        <time>2017-07-25T10:39:30Z</time>
      </trkpt>
      <trkpt lat="44.7288660" lon="7.2350360">
        <ele>1133.0</ele>
        <time>2017-07-25T10:39:33Z</time>
      </trkpt>
      <trkpt lat="44.7289660" lon="7.2351700">
        <ele>1133.2</ele>
        <time>2017-07-25T10:39:40Z</time>
      </trkpt>
      <trkpt lat="44.7290520" lon="7.2352830">
        <ele>1133.4</ele>
        <time>2017-07-25T10:39:47Z</time>
      </trkpt>
      <trkpt lat="44.7291390" lon="7.2353890">
        <ele>1134.2</ele>
        <time>2017-07-25T10:39:53Z</time>
      </trkpt>
      <trkpt lat="44.7291870" lon="7.2354210">
        <ele>1134.8</ele>
        <time>2017-07-25T10:39:55Z</time>
      </trkpt>
      <trkpt lat="44.7292790" lon="7.2354670">
        <ele>1136.0</ele>
        <time>2017-07-25T10:39:58Z</time>
      </trkpt>
      <trkpt lat="44.7293470" lon="7.2354950">
        <ele>1136.8</ele>
        <time>2017-07-25T10:40:00Z</time>
      </trkpt>
      <trkpt lat="44.7293850" lon="7.2355110">
        <ele>1137.2</ele>
        <time>2017-07-25T10:40:01Z</time>
      </trkpt>
      <trkpt lat="44.7294300" lon="7.2355410">
        <ele>1137.6</ele>
        <time>2017-07-25T10:40:02Z</time>
      </trkpt>
      <trkpt lat="44.7295240" lon="7.2356190">
        <ele>1138.4</ele>
        <time>2017-07-25T10:40:04Z</time>
      </trkpt>
      <trkpt lat="44.7295710" lon="7.2356640">
        <ele>1138.4</ele>
        <time>2017-07-25T10:40:05Z</time>
      </trkpt>
      <trkpt lat="44.7297140" lon="7.2358190">
        <ele>1138.4</ele>
        <time>2017-07-25T10:40:08Z</time>
      </trkpt>
      <trkpt lat="44.7297880" lon="7.2359230">
        <ele>1138.6</ele>
        <time>2017-07-25T10:40:10Z</time>
      </trkpt>
      <trkpt lat="44.7298830" lon="7.2360550">
        <ele>1139.6</ele>
        <time>2017-07-25T10:40:13Z</time>
      </trkpt>
      <trkpt lat="44.7299700" lon="7.2361860">
        <ele>1140.6</ele>
        <time>2017-07-25T10:40:16Z</time>
      </trkpt>
      <trkpt lat="44.7301060" lon="7.2363570">
        <ele>1141.8</ele>
        <time>2017-07-25T10:40:20Z</time>
      </trkpt>
      <trkpt lat="44.7301720" lon="7.2364540">
        <ele>1142.6</ele>
        <time>2017-07-25T10:40:22Z</time>
      </trkpt>
      <trkpt lat="44.7302000" lon="7.2365070">
        <ele>1142.8</ele>
        <time>2017-07-25T10:40:23Z</time>
      </trkpt>
      <trkpt lat="44.7302550" lon="7.2366260">
        <ele>1143.4</ele>
        <time>2017-07-25T10:40:25Z</time>
      </trkpt>
      <trkpt lat="44.7302840" lon="7.2367360">
        <ele>1143.2</ele>
        <time>2017-07-25T10:40:27Z</time>
      </trkpt>
      <trkpt lat="44.7303920" lon="7.2368510">
        <ele>1143.2</ele>
        <time>2017-07-25T10:40:31Z</time>
      </trkpt>
      <trkpt lat="44.7304960" lon="7.2367950">
        <ele>1143.6</ele>
        <time>2017-07-25T10:40:35Z</time>
      </trkpt>
      <trkpt lat="44.7305580" lon="7.2367350">
        <ele>1144.0</ele>
        <time>2017-07-25T10:40:38Z</time>
      </trkpt>
      <trkpt lat="44.7305880" lon="7.2367100">
        <ele>1144.2</ele>
        <time>2017-07-25T10:40:40Z</time>
      </trkpt>
      <trkpt lat="44.7306780" lon="7.2367080">
        <ele>1144.8</ele>
        <time>2017-07-25T10:40:45Z</time>
      </trkpt>
      <trkpt lat="44.7307060" lon="7.2367090">
        <ele>1145.2</ele>
        <time>2017-07-25T10:40:47Z</time>
      </trkpt>
      <trkpt lat="44.7307290" lon="7.2367130">
        <ele>1146.2</ele>
        <time>2017-07-25T10:40:49Z</time>
      </trkpt>
      <trkpt lat="44.7307660" lon="7.2367190">
        <ele>1147.0</ele>
        <time>2017-07-25T10:40:52Z</time>
      </trkpt>
      <trkpt lat="44.7307780" lon="7.2367130">
        <ele>1147.2</ele>
        <time>2017-07-25T10:40:53Z</time>
      </trkpt>
      <trkpt lat="44.7308160" lon="7.2366990">
        <ele>1148.8</ele>
        <time>2017-07-25T10:40:56Z</time>
      </trkpt>
      <trkpt lat="44.7308760" lon="7.2366780">
        <ele>1150.6</ele>
        <time>2017-07-25T10:41:01Z</time>
      </trkpt>
      <trkpt lat="44.7308990" lon="7.2366500">
        <ele>1151.4</ele>
        <time>2017-07-25T10:41:03Z</time>
      </trkpt>
      <trkpt lat="44.7309150" lon="7.2366390">
        <ele>1151.8</ele>
        <time>2017-07-25T10:41:04Z</time>
      </trkpt>
      <trkpt lat="44.7309300" lon="7.2366270">
        <ele>1152.4</ele>
        <time>2017-07-25T10:41:05Z</time>
      </trkpt>
      <trkpt lat="44.7309560" lon="7.2365950">
        <ele>1153.0</ele>
        <time>2017-07-25T10:41:07Z</time>
      </trkpt>
      <trkpt lat="44.7309940" lon="7.2365500">
        <ele>1154.0</ele>
        <time>2017-07-25T10:41:10Z</time>
      </trkpt>
      <trkpt lat="44.7310180" lon="7.2365390">
        <ele>1154.4</ele>
        <time>2017-07-25T10:41:11Z</time>
      </trkpt>
      <trkpt lat="44.7310680" lon="7.2364900">
        <ele>1155.4</ele>
        <time>2017-07-25T10:41:14Z</time>
      </trkpt>
      <trkpt lat="44.7310910" lon="7.2364620">
        <ele>1155.6</ele>
        <time>2017-07-25T10:41:16Z</time>
      </trkpt>
      <trkpt lat="44.7311600" lon="7.2363900">
        <ele>1156.6</ele>
        <time>2017-07-25T10:41:21Z</time>
      </trkpt>
      <trkpt lat="44.7311850" lon="7.2363650">
        <ele>1156.8</ele>
        <time>2017-07-25T10:41:23Z</time>
      </trkpt>
      <trkpt lat="44.7312440" lon="7.2362840">
        <ele>1156.8</ele>
        <time>2017-07-25T10:41:29Z</time>
      </trkpt>
      <trkpt lat="44.7312990" lon="7.2362220">
        <ele>1158.0</ele>
        <time>2017-07-25T10:41:33Z</time>
      </trkpt>
      <trkpt lat="44.7313510" lon="7.2361880">
        <ele>1158.6</ele>
        <time>2017-07-25T10:41:36Z</time>
      </trkpt>
      <trkpt lat="44.7313870" lon="7.2361570">
        <ele>1159.0</ele>
        <time>2017-07-25T10:41:38Z</time>
      </trkpt>
      <trkpt lat="44.7314470" lon="7.2361050">
        <ele>1160.0</ele>
        <time>2017-07-25T10:41:42Z</time>
      </trkpt>
      <trkpt lat="44.7314590" lon="7.2360860">
        <ele>1160.4</ele>
        <time>2017-07-25T10:41:43Z</time>
      </trkpt>
      <trkpt lat="44.7314830" lon="7.2360500">
        <ele>1161.0</ele>
        <time>2017-07-25T10:41:45Z</time>
      </trkpt>
      <trkpt lat="44.7315400" lon="7.2359510">
        <ele>1162.2</ele>
        <time>2017-07-25T10:41:50Z</time>
      </trkpt>
      <trkpt lat="44.7315620" lon="7.2358980">
        <ele>1163.0</ele>
        <time>2017-07-25T10:41:53Z</time>
      </trkpt>
      <trkpt lat="44.7315660" lon="7.2358800">
        <ele>1163.2</ele>
        <time>2017-07-25T10:41:54Z</time>
      </trkpt>
      <trkpt lat="44.7315820" lon="7.2358510">
        <ele>1163.6</ele>
        <time>2017-07-25T10:41:56Z</time>
      </trkpt>
      <trkpt lat="44.7315980" lon="7.2358210">
        <ele>1164.2</ele>
        <time>2017-07-25T10:41:58Z</time>
      </trkpt>
      <trkpt lat="44.7316450" lon="7.2357380">
        <ele>1165.4</ele>
        <time>2017-07-25T10:42:03Z</time>
      </trkpt>
      <trkpt lat="44.7316760" lon="7.2356890">
        <ele>1166.0</ele>
        <time>2017-07-25T10:42:06Z</time>
      </trkpt>
      <trkpt lat="44.7316870" lon="7.2356530">
        <ele>1166.4</ele>
        <time>2017-07-25T10:42:08Z</time>
      </trkpt>
      <trkpt lat="44.7316920" lon="7.2356380">
        <ele>1166.6</ele>
        <time>2017-07-25T10:42:09Z</time>
      </trkpt>
      <trkpt lat="44.7317180" lon="7.2356020">
        <ele>1167.2</ele>
        <time>2017-07-25T10:42:12Z</time>
      </trkpt>
      <trkpt lat="44.7317300" lon="7.2355890">
        <ele>1167.4</ele>
        <time>2017-07-25T10:42:13Z</time>
      </trkpt>
      <trkpt lat="44.7317440" lon="7.2355740">
        <ele>1167.6</ele>
        <time>2017-07-25T10:42:14Z</time>
      </trkpt>
      <trkpt lat="44.7317960" lon="7.2354910">
        <ele>1168.6</ele>
        <time>2017-07-25T10:42:19Z</time>
      </trkpt>
      <trkpt lat="44.7318210" lon="7.2354600">
        <ele>1169.4</ele>
        <time>2017-07-25T10:42:21Z</time>
      </trkpt>
      <trkpt lat="44.7318510" lon="7.2354190">
        <ele>1169.8</ele>
        <time>2017-07-25T10:42:24Z</time>
      </trkpt>
      <trkpt lat="44.7318680" lon="7.2353770">
        <ele>1170.2</ele>
        <time>2017-07-25T10:42:27Z</time>
      </trkpt>
      <trkpt lat="44.7318780" lon="7.2353410">
        <ele>1170.4</ele>
        <time>2017-07-25T10:42:29Z</time>
      </trkpt>
      <trkpt lat="44.7318840" lon="7.2353240">
        <ele>1170.6</ele>
        <time>2017-07-25T10:42:30Z</time>
      </trkpt>
      <trkpt lat="44.7318910" lon="7.2353090">
        <ele>1170.6</ele>
        <time>2017-07-25T10:42:31Z</time>
      </trkpt>
      <trkpt lat="44.7319160" lon="7.2352590">
        <ele>1171.2</ele>
        <time>2017-07-25T10:42:34Z</time>
      </trkpt>
      <trkpt lat="44.7319250" lon="7.2352450">
        <ele>1171.4</ele>
        <time>2017-07-25T10:42:35Z</time>
      </trkpt>
      <trkpt lat="44.7319410" lon="7.2352130">
        <ele>1171.8</ele>
        <time>2017-07-25T10:42:37Z</time>
      </trkpt>
      <trkpt lat="44.7319930" lon="7.2351310">
        <ele>1173.0</ele>
        <time>2017-07-25T10:42:42Z</time>
      </trkpt>
      <trkpt lat="44.7320020" lon="7.2351130">
        <ele>1173.0</ele>
        <time>2017-07-25T10:42:43Z</time>
      </trkpt>
      <trkpt lat="44.7320290" lon="7.2350360">
        <ele>1174.0</ele>
        <time>2017-07-25T10:42:47Z</time>
      </trkpt>
      <trkpt lat="44.7320520" lon="7.2349880">
        <ele>1174.6</ele>
        <time>2017-07-25T10:42:50Z</time>
      </trkpt>
      <trkpt lat="44.7320840" lon="7.2349450">
        <ele>1175.2</ele>
        <time>2017-07-25T10:42:53Z</time>
      </trkpt>
      <trkpt lat="44.7321160" lon="7.2348790">
        <ele>1176.0</ele>
        <time>2017-07-25T10:42:57Z</time>
      </trkpt>
      <trkpt lat="44.7321320" lon="7.2348440">
        <ele>1176.4</ele>
        <time>2017-07-25T10:42:59Z</time>
      </trkpt>
      <trkpt lat="44.7321550" lon="7.2347990">
        <ele>1177.0</ele>
        <time>2017-07-25T10:43:02Z</time>
      </trkpt>
      <trkpt lat="44.7321820" lon="7.2347690">
        <ele>1177.2</ele>
        <time>2017-07-25T10:43:04Z</time>
      </trkpt>
      <trkpt lat="44.7321930" lon="7.2347550">
        <ele>1177.4</ele>
        <time>2017-07-25T10:43:05Z</time>
      </trkpt>
      <trkpt lat="44.7322020" lon="7.2347220">
        <ele>1177.6</ele>
        <time>2017-07-25T10:43:07Z</time>
      </trkpt>
      <trkpt lat="44.7321960" lon="7.2346800">
        <ele>1177.0</ele>
        <time>2017-07-25T10:43:09Z</time>
      </trkpt>
      <trkpt lat="44.7321860" lon="7.2346600">
        <ele>1176.8</ele>
        <time>2017-07-25T10:43:10Z</time>
      </trkpt>
      <trkpt lat="44.7321720" lon="7.2346490">
        <ele>1176.6</ele>
        <time>2017-07-25T10:43:11Z</time>
      </trkpt>
      <trkpt lat="44.7321430" lon="7.2346440">
        <ele>1176.2</ele>
        <time>2017-07-25T10:43:13Z</time>
      </trkpt>
      <trkpt lat="44.7321310" lon="7.2346480">
        <ele>1176.0</ele>
        <time>2017-07-25T10:43:14Z</time>
      </trkpt>
      <trkpt lat="44.7321200" lon="7.2346550">
        <ele>1175.8</ele>
        <time>2017-07-25T10:43:15Z</time>
      </trkpt>
      <trkpt lat="44.7320770" lon="7.2346940">
        <ele>1175.6</ele>
        <time>2017-07-25T10:43:19Z</time>
      </trkpt>
      <trkpt lat="44.7320000" lon="7.2347450">
        <ele>1177.6</ele>
        <time>2017-07-25T10:43:26Z</time>
      </trkpt>
      <trkpt lat="44.7319500" lon="7.2347640">
        <ele>1179.0</ele>
        <time>2017-07-25T10:43:30Z</time>
      </trkpt>
      <trkpt lat="44.7319280" lon="7.2347690">
        <ele>1179.8</ele>
        <time>2017-07-25T10:43:32Z</time>
      </trkpt>
      <trkpt lat="44.7319130" lon="7.2347720">
        <ele>1180.6</ele>
        <time>2017-07-25T10:43:33Z</time>
      </trkpt>
      <trkpt lat="44.7318630" lon="7.2347870">
        <ele>1181.6</ele>
        <time>2017-07-25T10:43:36Z</time>
      </trkpt>
      <trkpt lat="44.7318480" lon="7.2348020">
        <ele>1182.0</ele>
        <time>2017-07-25T10:43:37Z</time>
      </trkpt>
      <trkpt lat="44.7318310" lon="7.2348110">
        <ele>1182.4</ele>
        <time>2017-07-25T10:43:38Z</time>
      </trkpt>
      <trkpt lat="44.7318130" lon="7.2348220">
        <ele>1182.6</ele>
        <time>2017-07-25T10:43:39Z</time>
      </trkpt>
      <trkpt lat="44.7317570" lon="7.2348510">
        <ele>1183.6</ele>
        <time>2017-07-25T10:43:43Z</time>
      </trkpt>
      <trkpt lat="44.7317240" lon="7.2348810">
        <ele>1184.2</ele>
        <time>2017-07-25T10:43:47Z</time>
      </trkpt>
      <trkpt lat="44.7316960" lon="7.2348950">
        <ele>1184.8</ele>
        <time>2017-07-25T10:43:49Z</time>
      </trkpt>
      <trkpt lat="44.7316350" lon="7.2348960">
        <ele>1185.6</ele>
        <time>2017-07-25T10:43:53Z</time>
      </trkpt>
      <trkpt lat="44.7316080" lon="7.2349070">
        <ele>1185.8</ele>
        <time>2017-07-25T10:43:55Z</time>
      </trkpt>
      <trkpt lat="44.7315340" lon="7.2349330">
        <ele>1187.0</ele>
        <time>2017-07-25T10:43:59Z</time>
      </trkpt>
      <trkpt lat="44.7314640" lon="7.2349680">
        <ele>1188.2</ele>
        <time>2017-07-25T10:44:03Z</time>
      </trkpt>
      <trkpt lat="44.7314360" lon="7.2349800">
        <ele>1188.6</ele>
        <time>2017-07-25T10:44:05Z</time>
      </trkpt>
      <trkpt lat="44.7314010" lon="7.2349990">
        <ele>1189.2</ele>
        <time>2017-07-25T10:44:07Z</time>
      </trkpt>
      <trkpt lat="44.7313450" lon="7.2350370">
        <ele>1190.2</ele>
        <time>2017-07-25T10:44:11Z</time>
      </trkpt>
      <trkpt lat="44.7312970" lon="7.2350750">
        <ele>1191.4</ele>
        <time>2017-07-25T10:44:16Z</time>
      </trkpt>
      <trkpt lat="44.7312770" lon="7.2350760">
        <ele>1191.6</ele>
        <time>2017-07-25T10:44:17Z</time>
      </trkpt>
      <trkpt lat="44.7312610" lon="7.2350770">
        <ele>1191.8</ele>
        <time>2017-07-25T10:44:18Z</time>
      </trkpt>
      <trkpt lat="44.7311820" lon="7.2350720">
        <ele>1192.6</ele>
        <time>2017-07-25T10:44:22Z</time>
      </trkpt>
      <trkpt lat="44.7311250" lon="7.2350510">
        <ele>1193.2</ele>
        <time>2017-07-25T10:44:25Z</time>
      </trkpt>
      <trkpt lat="44.7310660" lon="7.2350180">
        <ele>1193.4</ele>
        <time>2017-07-25T10:44:28Z</time>
      </trkpt>
      <trkpt lat="44.7310300" lon="7.2349990">
        <ele>1193.6</ele>
        <time>2017-07-25T10:44:30Z</time>
      </trkpt>
      <trkpt lat="44.7310030" lon="7.2349820">
        <ele>1194.0</ele>
        <time>2017-07-25T10:44:32Z</time>
      </trkpt>
      <trkpt lat="44.7308980" lon="7.2349310">
        <ele>1194.4</ele>
        <time>2017-07-25T10:44:38Z</time>
      </trkpt>
      <trkpt lat="44.7308490" lon="7.2348920">
        <ele>1194.8</ele>
        <time>2017-07-25T10:44:41Z</time>
      </trkpt>
      <trkpt lat="44.7308010" lon="7.2348460">
        <ele>1195.4</ele>
        <time>2017-07-25T10:44:44Z</time>
      </trkpt>
      <trkpt lat="44.7307560" lon="7.2348180">
        <ele>1195.8</ele>
        <time>2017-07-25T10:44:47Z</time>
      </trkpt>
      <trkpt lat="44.7307000" lon="7.2347810">
        <ele>1196.6</ele>
        <time>2017-07-25T10:44:51Z</time>
      </trkpt>
      <trkpt lat="44.7306670" lon="7.2347620">
        <ele>1196.8</ele>
        <time>2017-07-25T10:44:53Z</time>
      </trkpt>
      <trkpt lat="44.7306490" lon="7.2347210">
        <ele>1197.2</ele>
        <time>2017-07-25T10:44:55Z</time>
      </trkpt>
      <trkpt lat="44.7306500" lon="7.2346720">
        <ele>1197.8</ele>
        <time>2017-07-25T10:44:57Z</time>
      </trkpt>
      <trkpt lat="44.7306610" lon="7.2346380">
        <ele>1198.0</ele>
        <time>2017-07-25T10:44:59Z</time>
      </trkpt>
      <trkpt lat="44.7307070" lon="7.2345720">
        <ele>1198.8</ele>
        <time>2017-07-25T10:45:03Z</time>
      </trkpt>
      <trkpt lat="44.7307380" lon="7.2345490">
        <ele>1199.2</ele>
        <time>2017-07-25T10:45:05Z</time>
      </trkpt>
      <trkpt lat="44.7308020" lon="7.2345260">
        <ele>1199.6</ele>
        <time>2017-07-25T10:45:09Z</time>
      </trkpt>
      <trkpt lat="44.7308510" lon="7.2345080">
        <ele>1200.2</ele>
        <time>2017-07-25T10:45:12Z</time>
      </trkpt>
      <trkpt lat="44.7308980" lon="7.2344880">
        <ele>1200.8</ele>
        <time>2017-07-25T10:45:15Z</time>
      </trkpt>
      <trkpt lat="44.7309140" lon="7.2344880">
        <ele>1200.8</ele>
        <time>2017-07-25T10:45:16Z</time>
      </trkpt>
      <trkpt lat="44.7309420" lon="7.2344710">
        <ele>1201.4</ele>
        <time>2017-07-25T10:45:18Z</time>
      </trkpt>
      <trkpt lat="44.7309670" lon="7.2344520">
        <ele>1202.0</ele>
        <time>2017-07-25T10:45:20Z</time>
      </trkpt>
      <trkpt lat="44.7310090" lon="7.2344140">
        <ele>1202.6</ele>
        <time>2017-07-25T10:45:23Z</time>
      </trkpt>
      <trkpt lat="44.7310770" lon="7.2343520">
        <ele>1203.8</ele>
        <time>2017-07-25T10:45:28Z</time>
      </trkpt>
      <trkpt lat="44.7311500" lon="7.2343030">
        <ele>1205.0</ele>
        <time>2017-07-25T10:45:34Z</time>
      </trkpt>
      <trkpt lat="44.7312540" lon="7.2342500">
        <ele>1206.2</ele>
        <time>2017-07-25T10:45:40Z</time>
      </trkpt>
      <trkpt lat="44.7314110" lon="7.2341770">
        <ele>1207.6</ele>
        <time>2017-07-25T10:45:47Z</time>
      </trkpt>
      <trkpt lat="44.7315370" lon="7.2340940">
        <ele>1208.4</ele>
        <time>2017-07-25T10:45:52Z</time>
      </trkpt>
      <trkpt lat="44.7315620" lon="7.2340730">
        <ele>1208.6</ele>
        <time>2017-07-25T10:45:53Z</time>
      </trkpt>
      <trkpt lat="44.7317470" lon="7.2339500">
        <ele>1209.6</ele>
        <time>2017-07-25T10:46:00Z</time>
      </trkpt>
      <trkpt lat="44.7317840" lon="7.2339250">
        <ele>1209.8</ele>
        <time>2017-07-25T10:46:01Z</time>
      </trkpt>
      <trkpt lat="44.7320080" lon="7.2337790">
        <ele>1210.0</ele>
        <time>2017-07-25T10:46:07Z</time>
      </trkpt>
      <trkpt lat="44.7320860" lon="7.2337310">
        <ele>1209.8</ele>
        <time>2017-07-25T10:46:09Z</time>
      </trkpt>
      <trkpt lat="44.7323750" lon="7.2335430">
        <ele>1210.2</ele>
        <time>2017-07-25T10:46:17Z</time>
      </trkpt>
      <trkpt lat="44.7325120" lon="7.2334910">
        <ele>1211.2</ele>
        <time>2017-07-25T10:46:22Z</time>
      </trkpt>
      <trkpt lat="44.7325670" lon="7.2334520">
        <ele>1211.4</ele>
        <time>2017-07-25T10:46:24Z</time>
      </trkpt>
      <trkpt lat="44.7326780" lon="7.2333570">
        <ele>1212.2</ele>
        <time>2017-07-25T10:46:28Z</time>
      </trkpt>
      <trkpt lat="44.7327180" lon="7.2333220">
        <ele>1212.2</ele>
        <time>2017-07-25T10:46:30Z</time>
      </trkpt>
      <trkpt lat="44.7328330" lon="7.2332160">
        <ele>1213.2</ele>
        <time>2017-07-25T10:46:36Z</time>
      </trkpt>
      <trkpt lat="44.7328520" lon="7.2331870">
        <ele>1213.4</ele>
        <time>2017-07-25T10:46:37Z</time>
      </trkpt>
      <trkpt lat="44.7328870" lon="7.2330260">
        <ele>1213.6</ele>
        <time>2017-07-25T10:46:42Z</time>
      </trkpt>
      <trkpt lat="44.7329030" lon="7.2328680">
        <ele>1214.4</ele>
        <time>2017-07-25T10:46:47Z</time>
      </trkpt>
      <trkpt lat="44.7328950" lon="7.2328030">
        <ele>1214.6</ele>
        <time>2017-07-25T10:46:49Z</time>
      </trkpt>
      <trkpt lat="44.7329020" lon="7.2326730">
        <ele>1215.4</ele>
        <time>2017-07-25T10:46:53Z</time>
      </trkpt>
      <trkpt lat="44.7329180" lon="7.2326010">
        <ele>1216.0</ele>
        <time>2017-07-25T10:46:55Z</time>
      </trkpt>
      <trkpt lat="44.7329340" lon="7.2325470">
        <ele>1216.6</ele>
        <time>2017-07-25T10:46:57Z</time>
      </trkpt>
      <trkpt lat="44.7329650" lon="7.2324570">
        <ele>1217.6</ele>
        <time>2017-07-25T10:47:00Z</time>
      </trkpt>
      <trkpt lat="44.7330350" lon="7.2322870">
        <ele>1217.8</ele>
        <time>2017-07-25T10:47:06Z</time>
      </trkpt>
      <trkpt lat="44.7331230" lon="7.2321080">
        <ele>1218.0</ele>
        <time>2017-07-25T10:47:11Z</time>
      </trkpt>
      <trkpt lat="44.7332470" lon="7.2318700">
        <ele>1218.0</ele>
        <time>2017-07-25T10:47:16Z</time>
      </trkpt>
      <trkpt lat="44.7332770" lon="7.2318100">
        <ele>1218.0</ele>
        <time>2017-07-25T10:47:17Z</time>
      </trkpt>
      <trkpt lat="44.7333680" lon="7.2316170">
        <ele>1218.0</ele>
        <time>2017-07-25T10:47:20Z</time>
      </trkpt>
      <trkpt lat="44.7334610" lon="7.2313970">
        <ele>1218.4</ele>
        <time>2017-07-25T10:47:23Z</time>
      </trkpt>
      <trkpt lat="44.7334900" lon="7.2313130">
        <ele>1218.8</ele>
        <time>2017-07-25T10:47:24Z</time>
      </trkpt>
      <trkpt lat="44.7336140" lon="7.2309620">
        <ele>1218.6</ele>
        <time>2017-07-25T10:47:28Z</time>
      </trkpt>
      <trkpt lat="44.7337410" lon="7.2307020">
        <ele>1218.8</ele>
        <time>2017-07-25T10:47:31Z</time>
      </trkpt>
      <trkpt lat="44.7338400" lon="7.2305570">
        <ele>1218.8</ele>
        <time>2017-07-25T10:47:33Z</time>
      </trkpt>
      <trkpt lat="44.7339540" lon="7.2304400">
        <ele>1218.4</ele>
        <time>2017-07-25T10:47:35Z</time>
      </trkpt>
      <trkpt lat="44.7340950" lon="7.2303670">
        <ele>1218.4</ele>
        <time>2017-07-25T10:47:37Z</time>
      </trkpt>
      <trkpt lat="44.7343180" lon="7.2304450">
        <ele>1218.2</ele>
        <time>2017-07-25T10:47:40Z</time>
      </trkpt>
      <trkpt lat="44.7344690" lon="7.2306720">
        <ele>1217.4</ele>
        <time>2017-07-25T10:47:43Z</time>
      </trkpt>
      <trkpt lat="44.7345450" lon="7.2310680">
        <ele>1217.0</ele>
        <time>2017-07-25T10:47:47Z</time>
      </trkpt>
      <trkpt lat="44.7346060" lon="7.2313750">
        <ele>1216.4</ele>
        <time>2017-07-25T10:47:50Z</time>
      </trkpt>
      <trkpt lat="44.7346790" lon="7.2315670">
        <ele>1215.6</ele>
        <time>2017-07-25T10:47:52Z</time>
      </trkpt>
      <trkpt lat="44.7347090" lon="7.2316660">
        <ele>1215.4</ele>
        <time>2017-07-25T10:47:53Z</time>
      </trkpt>
      <trkpt lat="44.7347430" lon="7.2317600">
        <ele>1215.0</ele>
        <time>2017-07-25T10:47:54Z</time>
      </trkpt>
      <trkpt lat="44.7347840" lon="7.2318500">
        <ele>1215.2</ele>
        <time>2017-07-25T10:47:55Z</time>
      </trkpt>
      <trkpt lat="44.7348340" lon="7.2319310">
        <ele>1214.8</ele>
        <time>2017-07-25T10:47:56Z</time>
      </trkpt>
      <trkpt lat="44.7350420" lon="7.2322460">
        <ele>1214.6</ele>
        <time>2017-07-25T10:48:01Z</time>
      </trkpt>
      <trkpt lat="44.7350820" lon="7.2322900">
        <ele>1214.6</ele>
        <time>2017-07-25T10:48:02Z</time>
      </trkpt>
      <trkpt lat="44.7352640" lon="7.2324070">
        <ele>1215.2</ele>
        <time>2017-07-25T10:48:06Z</time>
      </trkpt>
      <trkpt lat="44.7354080" lon="7.2325000">
        <ele>1215.6</ele>
        <time>2017-07-25T10:48:09Z</time>
      </trkpt>
      <trkpt lat="44.7354910" lon="7.2325760">
        <ele>1215.8</ele>
        <time>2017-07-25T10:48:11Z</time>
      </trkpt>
      <trkpt lat="44.7355310" lon="7.2325930">
        <ele>1216.0</ele>
        <time>2017-07-25T10:48:12Z</time>
      </trkpt>
      <trkpt lat="44.7356660" lon="7.2325920">
        <ele>1216.8</ele>
        <time>2017-07-25T10:48:15Z</time>
      </trkpt>
      <trkpt lat="44.7357120" lon="7.2325820">
        <ele>1217.0</ele>
        <time>2017-07-25T10:48:16Z</time>
      </trkpt>
      <trkpt lat="44.7357590" lon="7.2325770">
        <ele>1217.0</ele>
        <time>2017-07-25T10:48:17Z</time>
      </trkpt>
      <trkpt lat="44.7359020" lon="7.2325790">
        <ele>1217.2</ele>
        <time>2017-07-25T10:48:20Z</time>
      </trkpt>
      <trkpt lat="44.7359490" lon="7.2325910">
        <ele>1217.6</ele>
        <time>2017-07-25T10:48:21Z</time>
      </trkpt>
      <trkpt lat="44.7360710" lon="7.2326790">
        <ele>1218.0</ele>
        <time>2017-07-25T10:48:24Z</time>
      </trkpt>
      <trkpt lat="44.7361080" lon="7.2327210">
        <ele>1218.2</ele>
        <time>2017-07-25T10:48:25Z</time>
      </trkpt>
      <trkpt lat="44.7361490" lon="7.2328990">
        <ele>1218.4</ele>
        <time>2017-07-25T10:48:28Z</time>
      </trkpt>
      <trkpt lat="44.7361560" lon="7.2329600">
        <ele>1218.4</ele>
        <time>2017-07-25T10:48:29Z</time>
      </trkpt>
      <trkpt lat="44.7361820" lon="7.2330770">
        <ele>1218.8</ele>
        <time>2017-07-25T10:48:31Z</time>
      </trkpt>
      <trkpt lat="44.7362310" lon="7.2331720">
        <ele>1218.6</ele>
        <time>2017-07-25T10:48:33Z</time>
      </trkpt>
      <trkpt lat="44.7363090" lon="7.2333520">
        <ele>1219.2</ele>
        <time>2017-07-25T10:48:37Z</time>
      </trkpt>
      <trkpt lat="44.7363320" lon="7.2334550">
        <ele>1219.6</ele>
        <time>2017-07-25T10:48:39Z</time>
      </trkpt>
      <trkpt lat="44.7363370" lon="7.2336090">
        <ele>1220.4</ele>
        <time>2017-07-25T10:48:42Z</time>
      </trkpt>
      <trkpt lat="44.7363280" lon="7.2336950">
        <ele>1220.8</ele>
        <time>2017-07-25T10:48:44Z</time>
      </trkpt>
      <trkpt lat="44.7363170" lon="7.2337800">
        <ele>1221.6</ele>
        <time>2017-07-25T10:48:46Z</time>
      </trkpt>
      <trkpt lat="44.7363170" lon="7.2339020">
        <ele>1222.2</ele>
        <time>2017-07-25T10:48:49Z</time>
      </trkpt>
      <trkpt lat="44.7363410" lon="7.2339890">
        <ele>1222.4</ele>
        <time>2017-07-25T10:48:51Z</time>
      </trkpt>
      <trkpt lat="44.7363580" lon="7.2340300">
        <ele>1222.6</ele>
        <time>2017-07-25T10:48:52Z</time>
      </trkpt>
      <trkpt lat="44.7364410" lon="7.2341460">
        <ele>1223.0</ele>
        <time>2017-07-25T10:48:56Z</time>
      </trkpt>
      <trkpt lat="44.7365200" lon="7.2342540">
        <ele>1223.8</ele>
        <time>2017-07-25T10:49:00Z</time>
      </trkpt>
      <trkpt lat="44.7365830" lon="7.2343690">
        <ele>1224.2</ele>
        <time>2017-07-25T10:49:04Z</time>
      </trkpt>
      <trkpt lat="44.7366100" lon="7.2344230">
        <ele>1224.8</ele>
        <time>2017-07-25T10:49:06Z</time>
      </trkpt>
      <trkpt lat="44.7366640" lon="7.2345040">
        <ele>1225.8</ele>
        <time>2017-07-25T10:49:10Z</time>
      </trkpt>
      <trkpt lat="44.7366810" lon="7.2345070">
        <ele>1226.0</ele>
        <time>2017-07-25T10:49:11Z</time>
      </trkpt>
      <trkpt lat="44.7366990" lon="7.2345020">
        <ele>1226.2</ele>
        <time>2017-07-25T10:49:12Z</time>
      </trkpt>
      <trkpt lat="44.7367860" lon="7.2344590">
        <ele>1227.2</ele>
        <time>2017-07-25T10:49:17Z</time>
      </trkpt>
      <trkpt lat="44.7368140" lon="7.2344460">
        <ele>1227.6</ele>
        <time>2017-07-25T10:49:19Z</time>
      </trkpt>
      <trkpt lat="44.7368570" lon="7.2344450">
        <ele>1228.2</ele>
        <time>2017-07-25T10:49:22Z</time>
      </trkpt>
      <trkpt lat="44.7369070" lon="7.2344400">
        <ele>1228.8</ele>
        <time>2017-07-25T10:49:25Z</time>
      </trkpt>
      <trkpt lat="44.7369340" lon="7.2344380">
        <ele>1229.4</ele>
        <time>2017-07-25T10:49:27Z</time>
      </trkpt>
      <trkpt lat="44.7370040" lon="7.2344500">
        <ele>1230.4</ele>
        <time>2017-07-25T10:49:32Z</time>
      </trkpt>
      <trkpt lat="44.7370340" lon="7.2344530">
        <ele>1230.8</ele>
        <time>2017-07-25T10:49:34Z</time>
      </trkpt>
      <trkpt lat="44.7371000" lon="7.2344730">
        <ele>1231.4</ele>
        <time>2017-07-25T10:49:38Z</time>
      </trkpt>
      <trkpt lat="44.7371190" lon="7.2344770">
        <ele>1231.6</ele>
        <time>2017-07-25T10:49:39Z</time>
      </trkpt>
      <trkpt lat="44.7371500" lon="7.2344860">
        <ele>1231.6</ele>
        <time>2017-07-25T10:49:41Z</time>
      </trkpt>
      <trkpt lat="44.7372910" lon="7.2345230">
        <ele>1231.2</ele>
        <time>2017-07-25T10:49:50Z</time>
      </trkpt>
      <trkpt lat="44.7374300" lon="7.2345470">
        <ele>1231.8</ele>
        <time>2017-07-25T10:49:59Z</time>
      </trkpt>
      <trkpt lat="44.7375310" lon="7.2345570">
        <ele>1232.8</ele>
        <time>2017-07-25T10:50:06Z</time>
      </trkpt>
      <trkpt lat="44.7375450" lon="7.2345550">
        <ele>1233.2</ele>
        <time>2017-07-25T10:50:07Z</time>
      </trkpt>
      <trkpt lat="44.7375840" lon="7.2345550">
        <ele>1233.8</ele>
        <time>2017-07-25T10:50:10Z</time>
      </trkpt>
      <trkpt lat="44.7376250" lon="7.2345430">
        <ele>1235.0</ele>
        <time>2017-07-25T10:50:13Z</time>
      </trkpt>
      <trkpt lat="44.7376350" lon="7.2345400">
        <ele>1235.6</ele>
        <time>2017-07-25T10:50:14Z</time>
      </trkpt>
      <trkpt lat="44.7376650" lon="7.2345390">
        <ele>1236.4</ele>
        <time>2017-07-25T10:50:16Z</time>
      </trkpt>
      <trkpt lat="44.7376960" lon="7.2345370">
        <ele>1237.4</ele>
        <time>2017-07-25T10:50:18Z</time>
      </trkpt>
      <trkpt lat="44.7377340" lon="7.2345350">
        <ele>1239.0</ele>
        <time>2017-07-25T10:50:21Z</time>
      </trkpt>
      <trkpt lat="44.7377540" lon="7.2345270">
        <ele>1240.2</ele>
        <time>2017-07-25T10:50:23Z</time>
      </trkpt>
      <trkpt lat="44.7382980" lon="7.2347920">
        <ele>1253.8</ele>
        <time>2017-07-25T10:51:07Z</time>
      </trkpt>
      <trkpt lat="44.7383840" lon="7.2348380">
        <ele>1255.2</ele>
        <time>2017-07-25T10:51:12Z</time>
      </trkpt>
      <trkpt lat="44.7384160" lon="7.2348440">
        <ele>1255.2</ele>
        <time>2017-07-25T10:51:14Z</time>
      </trkpt>
      <trkpt lat="44.7384350" lon="7.2348450">
        <ele>1255.2</ele>
        <time>2017-07-25T10:51:15Z</time>
      </trkpt>
      <trkpt lat="44.7385020" lon="7.2348250">
        <ele>1256.4</ele>
        <time>2017-07-25T10:51:19Z</time>
      </trkpt>
      <trkpt lat="44.7385190" lon="7.2348270">
        <ele>1256.6</ele>
        <time>2017-07-25T10:51:20Z</time>
      </trkpt>
      <trkpt lat="44.7385460" lon="7.2348390">
        <ele>1257.2</ele>
        <time>2017-07-25T10:51:22Z</time>
      </trkpt>
      <trkpt lat="44.7385660" lon="7.2348390">
        <ele>1257.6</ele>
        <time>2017-07-25T10:51:24Z</time>
      </trkpt>
      <trkpt lat="44.7385980" lon="7.2348440">
        <ele>1258.0</ele>
        <time>2017-07-25T10:51:26Z</time>
      </trkpt>
      <trkpt lat="44.7386630" lon="7.2348470">
        <ele>1258.6</ele>
        <time>2017-07-25T10:51:30Z</time>
      </trkpt>
      <trkpt lat="44.7387170" lon="7.2348530">
        <ele>1259.8</ele>
        <time>2017-07-25T10:51:34Z</time>
      </trkpt>
      <trkpt lat="44.7387910" lon="7.2348640">
        <ele>1260.8</ele>
        <time>2017-07-25T10:51:39Z</time>
      </trkpt>
      <trkpt lat="44.7388080" lon="7.2348660">
        <ele>1261.2</ele>
        <time>2017-07-25T10:51:40Z</time>
      </trkpt>
      <trkpt lat="44.7388490" lon="7.2348490">
        <ele>1262.0</ele>
        <time>2017-07-25T10:51:43Z</time>
      </trkpt>
      <trkpt lat="44.7389050" lon="7.2348200">
        <ele>1263.2</ele>
        <time>2017-07-25T10:51:47Z</time>
      </trkpt>
      <trkpt lat="44.7389610" lon="7.2347910">
        <ele>1264.2</ele>
        <time>2017-07-25T10:51:51Z</time>
      </trkpt>
      <trkpt lat="44.7389840" lon="7.2347790">
        <ele>1264.8</ele>
        <time>2017-07-25T10:51:53Z</time>
      </trkpt>
      <trkpt lat="44.7390110" lon="7.2347610">
        <ele>1265.4</ele>
        <time>2017-07-25T10:51:55Z</time>
      </trkpt>
      <trkpt lat="44.7390570" lon="7.2347320">
        <ele>1266.6</ele>
        <time>2017-07-25T10:51:58Z</time>
      </trkpt>
      <trkpt lat="44.7390870" lon="7.2347250">
        <ele>1267.2</ele>
        <time>2017-07-25T10:52:00Z</time>
      </trkpt>
      <trkpt lat="44.7391180" lon="7.2347170">
        <ele>1267.8</ele>
        <time>2017-07-25T10:52:02Z</time>
      </trkpt>
      <trkpt lat="44.7391630" lon="7.2346730">
        <ele>1268.8</ele>
        <time>2017-07-25T10:52:06Z</time>
      </trkpt>
      <trkpt lat="44.7391610" lon="7.2346190">
        <ele>1269.8</ele>
        <time>2017-07-25T10:52:09Z</time>
      </trkpt>
      <trkpt lat="44.7391470" lon="7.2346060">
        <ele>1270.2</ele>
        <time>2017-07-25T10:52:10Z</time>
      </trkpt>
      <trkpt lat="44.7390790" lon="7.2346020">
        <ele>1270.8</ele>
        <time>2017-07-25T10:52:14Z</time>
      </trkpt>
      <trkpt lat="44.7390430" lon="7.2346180">
        <ele>1271.2</ele>
        <time>2017-07-25T10:52:16Z</time>
      </trkpt>
      <trkpt lat="44.7389990" lon="7.2346200">
        <ele>1271.4</ele>
        <time>2017-07-25T10:52:18Z</time>
      </trkpt>
      <trkpt lat="44.7389360" lon="7.2346090">
        <ele>1272.0</ele>
        <time>2017-07-25T10:52:21Z</time>
      </trkpt>
      <trkpt lat="44.7388960" lon="7.2346060">
        <ele>1272.4</ele>
        <time>2017-07-25T10:52:23Z</time>
      </trkpt>
      <trkpt lat="44.7387710" lon="7.2345870">
        <ele>1273.0</ele>
        <time>2017-07-25T10:52:29Z</time>
      </trkpt>
      <trkpt lat="44.7386960" lon="7.2345660">
        <ele>1273.6</ele>
        <time>2017-07-25T10:52:33Z</time>
      </trkpt>
      <trkpt lat="44.7386340" lon="7.2345310">
        <ele>1274.0</ele>
        <time>2017-07-25T10:52:36Z</time>
      </trkpt>
      <trkpt lat="44.7385520" lon="7.2344980">
        <ele>1275.0</ele>
        <time>2017-07-25T10:52:40Z</time>
      </trkpt>
      <trkpt lat="44.7385280" lon="7.2344890">
        <ele>1275.2</ele>
        <time>2017-07-25T10:52:41Z</time>
      </trkpt>
      <trkpt lat="44.7384410" lon="7.2344040">
        <ele>1276.2</ele>
        <time>2017-07-25T10:52:46Z</time>
      </trkpt>
      <trkpt lat="44.7384260" lon="7.2343860">
        <ele>1276.4</ele>
        <time>2017-07-25T10:52:47Z</time>
      </trkpt>
      <trkpt lat="44.7383580" lon="7.2342860">
        <ele>1277.6</ele>
        <time>2017-07-25T10:52:52Z</time>
      </trkpt>
      <trkpt lat="44.7383140" lon="7.2342080">
        <ele>1278.6</ele>
        <time>2017-07-25T10:52:56Z</time>
      </trkpt>
      <trkpt lat="44.7383040" lon="7.2341890">
        <ele>1279.0</ele>
        <time>2017-07-25T10:52:57Z</time>
      </trkpt>
      <trkpt lat="44.7382610" lon="7.2341190">
        <ele>1280.2</ele>
        <time>2017-07-25T10:53:01Z</time>
      </trkpt>
      <trkpt lat="44.7382220" lon="7.2340710">
        <ele>1281.0</ele>
        <time>2017-07-25T10:53:04Z</time>
      </trkpt>
      <trkpt lat="44.7382130" lon="7.2340500">
        <ele>1281.2</ele>
        <time>2017-07-25T10:53:05Z</time>
      </trkpt>
      <trkpt lat="44.7381780" lon="7.2339810">
        <ele>1282.4</ele>
        <time>2017-07-25T10:53:09Z</time>
      </trkpt>
      <trkpt lat="44.7381490" lon="7.2339280">
        <ele>1283.4</ele>
        <time>2017-07-25T10:53:12Z</time>
      </trkpt>
      <trkpt lat="44.7380790" lon="7.2338510">
        <ele>1284.4</ele>
        <time>2017-07-25T10:53:17Z</time>
      </trkpt>
      <trkpt lat="44.7380350" lon="7.2338100">
        <ele>1282.8</ele>
        <time>2017-07-25T10:53:20Z</time>
      </trkpt>
      <trkpt lat="44.7380190" lon="7.2337990">
        <ele>1282.8</ele>
        <time>2017-07-25T10:53:21Z</time>
      </trkpt>
      <trkpt lat="44.7380060" lon="7.2337850">
        <ele>1284.0</ele>
        <time>2017-07-25T10:53:22Z</time>
      </trkpt>
      <trkpt lat="44.7379550" lon="7.2337330">
        <ele>1285.2</ele>
        <time>2017-07-25T10:53:26Z</time>
      </trkpt>
      <trkpt lat="44.7379130" lon="7.2337000">
        <ele>1285.6</ele>
        <time>2017-07-25T10:53:29Z</time>
      </trkpt>
      <trkpt lat="44.7378900" lon="7.2336750">
        <ele>1286.6</ele>
        <time>2017-07-25T10:53:31Z</time>
      </trkpt>
      <trkpt lat="44.7378110" lon="7.2336200">
        <ele>1288.0</ele>
        <time>2017-07-25T10:53:36Z</time>
      </trkpt>
      <trkpt lat="44.7377210" lon="7.2335960">
        <ele>1289.2</ele>
        <time>2017-07-25T10:53:41Z</time>
      </trkpt>
      <trkpt lat="44.7376600" lon="7.2335740">
        <ele>1289.8</ele>
        <time>2017-07-25T10:53:44Z</time>
      </trkpt>
      <trkpt lat="44.7376300" lon="7.2335600">
        <ele>1290.4</ele>
        <time>2017-07-25T10:53:46Z</time>
      </trkpt>
      <trkpt lat="44.7375570" lon="7.2334780">
        <ele>1291.4</ele>
        <time>2017-07-25T10:53:51Z</time>
      </trkpt>
      <trkpt lat="44.7375460" lon="7.2334610">
        <ele>1291.6</ele>
        <time>2017-07-25T10:53:52Z</time>
      </trkpt>
      <trkpt lat="44.7374780" lon="7.2333340">
        <ele>1292.2</ele>
        <time>2017-07-25T10:53:58Z</time>
      </trkpt>
      <trkpt lat="44.7374420" lon="7.2332330">
        <ele>1292.8</ele>
        <time>2017-07-25T10:54:02Z</time>
      </trkpt>
      <trkpt lat="44.7374320" lon="7.2331690">
        <ele>1293.2</ele>
        <time>2017-07-25T10:54:04Z</time>
      </trkpt>
      <trkpt lat="44.7374170" lon="7.2330690">
        <ele>1294.0</ele>
        <time>2017-07-25T10:54:07Z</time>
      </trkpt>
      <trkpt lat="44.7373970" lon="7.2328680">
        <ele>1295.0</ele>
        <time>2017-07-25T10:54:13Z</time>
      </trkpt>
      <trkpt lat="44.7373900" lon="7.2328330">
        <ele>1295.2</ele>
        <time>2017-07-25T10:54:14Z</time>
      </trkpt>
      <trkpt lat="44.7373660" lon="7.2327110">
        <ele>1295.8</ele>
        <time>2017-07-25T10:54:18Z</time>
      </trkpt>
      <trkpt lat="44.7373750" lon="7.2326800">
        <ele>1296.0</ele>
        <time>2017-07-25T10:54:19Z</time>
      </trkpt>
      <trkpt lat="44.7373870" lon="7.2326530">
        <ele>1296.2</ele>
        <time>2017-07-25T10:54:20Z</time>
      </trkpt>
      <trkpt lat="44.7374170" lon="7.2326420">
        <ele>1296.8</ele>
        <time>2017-07-25T10:54:22Z</time>
      </trkpt>
      <trkpt lat="44.7374330" lon="7.2326500">
        <ele>1297.0</ele>
        <time>2017-07-25T10:54:23Z</time>
      </trkpt>
      <trkpt lat="44.7374440" lon="7.2326660">
        <ele>1297.4</ele>
        <time>2017-07-25T10:54:24Z</time>
      </trkpt>
      <trkpt lat="44.7374600" lon="7.2326790">
        <ele>1297.6</ele>
        <time>2017-07-25T10:54:25Z</time>
      </trkpt>
      <trkpt lat="44.7374830" lon="7.2327430">
        <ele>1298.6</ele>
        <time>2017-07-25T10:54:28Z</time>
      </trkpt>
      <trkpt lat="44.7375200" lon="7.2328710">
        <ele>1299.6</ele>
        <time>2017-07-25T10:54:33Z</time>
      </trkpt>
      <trkpt lat="44.7375360" lon="7.2329170">
        <ele>1300.0</ele>
        <time>2017-07-25T10:54:35Z</time>
      </trkpt>
      <trkpt lat="44.7375600" lon="7.2329870">
        <ele>1300.8</ele>
        <time>2017-07-25T10:54:38Z</time>
      </trkpt>
      <trkpt lat="44.7376130" lon="7.2331010">
        <ele>1301.8</ele>
        <time>2017-07-25T10:54:43Z</time>
      </trkpt>
      <trkpt lat="44.7376700" lon="7.2331800">
        <ele>1302.6</ele>
        <time>2017-07-25T10:54:47Z</time>
      </trkpt>
      <trkpt lat="44.7376860" lon="7.2331900">
        <ele>1302.8</ele>
        <time>2017-07-25T10:54:48Z</time>
      </trkpt>
      <trkpt lat="44.7376960" lon="7.2331930">
        <ele>1303.2</ele>
        <time>2017-07-25T10:54:49Z</time>
      </trkpt>
      <trkpt lat="44.7377440" lon="7.2332020">
        <ele>1304.0</ele>
        <time>2017-07-25T10:54:52Z</time>
      </trkpt>
      <trkpt lat="44.7377930" lon="7.2331980">
        <ele>1304.6</ele>
        <time>2017-07-25T10:54:55Z</time>
      </trkpt>
      <trkpt lat="44.7378390" lon="7.2331910">
        <ele>1305.2</ele>
        <time>2017-07-25T10:54:58Z</time>
      </trkpt>
      <trkpt lat="44.7378960" lon="7.2331800">
        <ele>1306.4</ele>
        <time>2017-07-25T10:55:02Z</time>
      </trkpt>
      <trkpt lat="44.7379090" lon="7.2331780">
        <ele>1306.6</ele>
        <time>2017-07-25T10:55:03Z</time>
      </trkpt>
      <trkpt lat="44.7379520" lon="7.2331810">
        <ele>1307.4</ele>
        <time>2017-07-25T10:55:06Z</time>
      </trkpt>
      <trkpt lat="44.7380250" lon="7.2332070">
        <ele>1308.2</ele>
        <time>2017-07-25T10:55:10Z</time>
      </trkpt>
      <trkpt lat="44.7380430" lon="7.2332150">
        <ele>1308.6</ele>
        <time>2017-07-25T10:55:11Z</time>
      </trkpt>
      <trkpt lat="44.7381600" lon="7.2332630">
        <ele>1309.4</ele>
        <time>2017-07-25T10:55:17Z</time>
      </trkpt>
      <trkpt lat="44.7381880" lon="7.2332740">
        <ele>1309.6</ele>
        <time>2017-07-25T10:55:18Z</time>
      </trkpt>
      <trkpt lat="44.7382740" lon="7.2333400">
        <ele>1310.6</ele>
        <time>2017-07-25T10:55:22Z</time>
      </trkpt>
      <trkpt lat="44.7382930" lon="7.2333640">
        <ele>1310.8</ele>
        <time>2017-07-25T10:55:23Z</time>
      </trkpt>
      <trkpt lat="44.7383990" lon="7.2334630">
        <ele>1311.2</ele>
        <time>2017-07-25T10:55:29Z</time>
      </trkpt>
      <trkpt lat="44.7385300" lon="7.2336340">
        <ele>1311.2</ele>
        <time>2017-07-25T10:55:37Z</time>
      </trkpt>
      <trkpt lat="44.7386390" lon="7.2337180">
        <ele>1311.4</ele>
        <time>2017-07-25T10:55:42Z</time>
      </trkpt>
      <trkpt lat="44.7386960" lon="7.2337890">
        <ele>1311.6</ele>
        <time>2017-07-25T10:55:44Z</time>
      </trkpt>
      <trkpt lat="44.7387660" lon="7.2338660">
        <ele>1311.8</ele>
        <time>2017-07-25T10:55:46Z</time>
      </trkpt>
      <trkpt lat="44.7388620" lon="7.2339160">
        <ele>1312.0</ele>
        <time>2017-07-25T10:55:48Z</time>
      </trkpt>
      <trkpt lat="44.7389750" lon="7.2338900">
        <ele>1312.2</ele>
        <time>2017-07-25T10:55:50Z</time>
      </trkpt>
      <trkpt lat="44.7390920" lon="7.2338560">
        <ele>1312.6</ele>
        <time>2017-07-25T10:55:52Z</time>
      </trkpt>
      <trkpt lat="44.7391480" lon="7.2338490">
        <ele>1312.8</ele>
        <time>2017-07-25T10:55:53Z</time>
      </trkpt>
      <trkpt lat="44.7393420" lon="7.2338090">
        <ele>1313.2</ele>
        <time>2017-07-25T10:55:56Z</time>
      </trkpt>
      <trkpt lat="44.7395250" lon="7.2337640">
        <ele>1314.0</ele>
        <time>2017-07-25T10:55:59Z</time>
      </trkpt>
      <trkpt lat="44.7395790" lon="7.2337710">
        <ele>1314.0</ele>
        <time>2017-07-25T10:56:00Z</time>
      </trkpt>
      <trkpt lat="44.7396290" lon="7.2337840">
        <ele>1314.2</ele>
        <time>2017-07-25T10:56:01Z</time>
      </trkpt>
      <trkpt lat="44.7397130" lon="7.2338110">
        <ele>1315.0</ele>
        <time>2017-07-25T10:56:03Z</time>
      </trkpt>
      <trkpt lat="44.7398030" lon="7.2338500">
        <ele>1315.8</ele>
        <time>2017-07-25T10:56:06Z</time>
      </trkpt>
      <trkpt lat="44.7398260" lon="7.2338610">
        <ele>1316.2</ele>
        <time>2017-07-25T10:56:07Z</time>
      </trkpt>
      <trkpt lat="44.7399100" lon="7.2339350">
        <ele>1317.4</ele>
        <time>2017-07-25T10:56:11Z</time>
      </trkpt>
      <trkpt lat="44.7399850" lon="7.2339850">
        <ele>1318.4</ele>
        <time>2017-07-25T10:56:15Z</time>
      </trkpt>
      <trkpt lat="44.7400410" lon="7.2340140">
        <ele>1319.2</ele>
        <time>2017-07-25T10:56:18Z</time>
      </trkpt>
      <trkpt lat="44.7400730" lon="7.2340540">
        <ele>1319.6</ele>
        <time>2017-07-25T10:56:20Z</time>
      </trkpt>
      <trkpt lat="44.7401470" lon="7.2341070">
        <ele>1320.8</ele>
        <time>2017-07-25T10:56:24Z</time>
      </trkpt>
      <trkpt lat="44.7402450" lon="7.2341460">
        <ele>1322.0</ele>
        <time>2017-07-25T10:56:29Z</time>
      </trkpt>
      <trkpt lat="44.7403010" lon="7.2341950">
        <ele>1322.6</ele>
        <time>2017-07-25T10:56:32Z</time>
      </trkpt>
      <trkpt lat="44.7403540" lon="7.2342610">
        <ele>1323.2</ele>
        <time>2017-07-25T10:56:35Z</time>
      </trkpt>
      <trkpt lat="44.7403800" lon="7.2343360">
        <ele>1323.0</ele>
        <time>2017-07-25T10:56:37Z</time>
      </trkpt>
      <trkpt lat="44.7403960" lon="7.2345950">
        <ele>1323.6</ele>
        <time>2017-07-25T10:56:42Z</time>
      </trkpt>
      <trkpt lat="44.7404010" lon="7.2346610">
        <ele>1323.8</ele>
        <time>2017-07-25T10:56:43Z</time>
      </trkpt>
      <trkpt lat="44.7404680" lon="7.2349390">
        <ele>1323.8</ele>
        <time>2017-07-25T10:56:47Z</time>
      </trkpt>
      <trkpt lat="44.7406360" lon="7.2351170">
        <ele>1324.4</ele>
        <time>2017-07-25T10:56:51Z</time>
      </trkpt>
      <trkpt lat="44.7406870" lon="7.2351480">
        <ele>1324.4</ele>
        <time>2017-07-25T10:56:52Z</time>
      </trkpt>
      <trkpt lat="44.7407400" lon="7.2351740">
        <ele>1324.6</ele>
        <time>2017-07-25T10:56:53Z</time>
      </trkpt>
      <trkpt lat="44.7407940" lon="7.2352000">
        <ele>1324.6</ele>
        <time>2017-07-25T10:56:54Z</time>
      </trkpt>
      <trkpt lat="44.7409570" lon="7.2352840">
        <ele>1325.2</ele>
        <time>2017-07-25T10:56:57Z</time>
      </trkpt>
      <trkpt lat="44.7411860" lon="7.2354130">
        <ele>1325.4</ele>
        <time>2017-07-25T10:57:01Z</time>
      </trkpt>
      <trkpt lat="44.7413510" lon="7.2355460">
        <ele>1326.0</ele>
        <time>2017-07-25T10:57:04Z</time>
      </trkpt>
      <trkpt lat="44.7414000" lon="7.2356040">
        <ele>1326.0</ele>
        <time>2017-07-25T10:57:05Z</time>
      </trkpt>
      <trkpt lat="44.7415280" lon="7.2358190">
        <ele>1325.6</ele>
        <time>2017-07-25T10:57:08Z</time>
      </trkpt>
      <trkpt lat="44.7415620" lon="7.2358930">
        <ele>1325.4</ele>
        <time>2017-07-25T10:57:09Z</time>
      </trkpt>
      <trkpt lat="44.7417350" lon="7.2362460">
        <ele>1325.2</ele>
        <time>2017-07-25T10:57:14Z</time>
      </trkpt>
      <trkpt lat="44.7417940" lon="7.2363580">
        <ele>1325.0</ele>
        <time>2017-07-25T10:57:16Z</time>
      </trkpt>
      <trkpt lat="44.7418280" lon="7.2364770">
        <ele>1325.0</ele>
        <time>2017-07-25T10:57:18Z</time>
      </trkpt>
      <trkpt lat="44.7418800" lon="7.2367250">
        <ele>1325.0</ele>
        <time>2017-07-25T10:57:22Z</time>
      </trkpt>
      <trkpt lat="44.7418980" lon="7.2367920">
        <ele>1325.2</ele>
        <time>2017-07-25T10:57:23Z</time>
      </trkpt>
      <trkpt lat="44.7419560" lon="7.2370510">
        <ele>1325.0</ele>
        <time>2017-07-25T10:57:27Z</time>
      </trkpt>
      <trkpt lat="44.7419950" lon="7.2371690">
        <ele>1325.2</ele>
        <time>2017-07-25T10:57:29Z</time>
      </trkpt>
      <trkpt lat="44.7420320" lon="7.2374450">
        <ele>1325.4</ele>
        <time>2017-07-25T10:57:33Z</time>
      </trkpt>
      <trkpt lat="44.7419700" lon="7.2377290">
        <ele>1325.4</ele>
        <time>2017-07-25T10:57:37Z</time>
      </trkpt>
      <trkpt lat="44.7419470" lon="7.2377980">
        <ele>1325.2</ele>
        <time>2017-07-25T10:57:38Z</time>
      </trkpt>
      <trkpt lat="44.7419340" lon="7.2378700">
        <ele>1325.2</ele>
        <time>2017-07-25T10:57:39Z</time>
      </trkpt>
      <trkpt lat="44.7419290" lon="7.2380910">
        <ele>1324.8</ele>
        <time>2017-07-25T10:57:42Z</time>
      </trkpt>
      <trkpt lat="44.7419390" lon="7.2382490">
        <ele>1324.8</ele>
        <time>2017-07-25T10:57:44Z</time>
      </trkpt>
      <trkpt lat="44.7419770" lon="7.2385640">
        <ele>1324.4</ele>
        <time>2017-07-25T10:57:48Z</time>
      </trkpt>
      <trkpt lat="44.7419890" lon="7.2386390">
        <ele>1324.4</ele>
        <time>2017-07-25T10:57:49Z</time>
      </trkpt>
      <trkpt lat="44.7421020" lon="7.2389760">
        <ele>1324.0</ele>
        <time>2017-07-25T10:57:54Z</time>
      </trkpt>
      <trkpt lat="44.7421520" lon="7.2390920">
        <ele>1323.8</ele>
        <time>2017-07-25T10:57:56Z</time>
      </trkpt>
      <trkpt lat="44.7421950" lon="7.2392490">
        <ele>1323.8</ele>
        <time>2017-07-25T10:57:59Z</time>
      </trkpt>
      <trkpt lat="44.7422430" lon="7.2394550">
        <ele>1324.4</ele>
        <time>2017-07-25T10:58:04Z</time>
      </trkpt>
      <trkpt lat="44.7422540" lon="7.2394970">
        <ele>1324.6</ele>
        <time>2017-07-25T10:58:05Z</time>
      </trkpt>
      <trkpt lat="44.7422910" lon="7.2396540">
        <ele>1325.6</ele>
        <time>2017-07-25T10:58:09Z</time>
      </trkpt>
      <trkpt lat="44.7423090" lon="7.2397580">
        <ele>1326.4</ele>
        <time>2017-07-25T10:58:12Z</time>
      </trkpt>
      <trkpt lat="44.7423140" lon="7.2397940">
        <ele>1326.6</ele>
        <time>2017-07-25T10:58:13Z</time>
      </trkpt>
      <trkpt lat="44.7423320" lon="7.2399250">
        <ele>1327.8</ele>
        <time>2017-07-25T10:58:17Z</time>
      </trkpt>
      <trkpt lat="44.7423390" lon="7.2400600">
        <ele>1328.8</ele>
        <time>2017-07-25T10:58:21Z</time>
      </trkpt>
      <trkpt lat="44.7423380" lon="7.2400930">
        <ele>1329.0</ele>
        <time>2017-07-25T10:58:22Z</time>
      </trkpt>
      <trkpt lat="44.7423440" lon="7.2401860">
        <ele>1330.0</ele>
        <time>2017-07-25T10:58:25Z</time>
      </trkpt>
      <trkpt lat="44.7423260" lon="7.2403350">
        <ele>1331.2</ele>
        <time>2017-07-25T10:58:30Z</time>
      </trkpt>
      <trkpt lat="44.7422740" lon="7.2404550">
        <ele>1332.4</ele>
        <time>2017-07-25T10:58:35Z</time>
      </trkpt>
      <trkpt lat="44.7422470" lon="7.2405350">
        <ele>1333.2</ele>
        <time>2017-07-25T10:58:38Z</time>
      </trkpt>
      <trkpt lat="44.7422340" lon="7.2405570">
        <ele>1333.4</ele>
        <time>2017-07-25T10:58:39Z</time>
      </trkpt>
      <trkpt lat="44.7421850" lon="7.2406430">
        <ele>1334.4</ele>
        <time>2017-07-25T10:58:43Z</time>
      </trkpt>
      <trkpt lat="44.7421560" lon="7.2406750">
        <ele>1335.2</ele>
        <time>2017-07-25T10:58:45Z</time>
      </trkpt>
      <trkpt lat="44.7421250" lon="7.2407130">
        <ele>1336.0</ele>
        <time>2017-07-25T10:58:47Z</time>
      </trkpt>
      <trkpt lat="44.7420610" lon="7.2407830">
        <ele>1337.0</ele>
        <time>2017-07-25T10:58:51Z</time>
      </trkpt>
      <trkpt lat="44.7419980" lon="7.2408420">
        <ele>1338.2</ele>
        <time>2017-07-25T10:58:55Z</time>
      </trkpt>
      <trkpt lat="44.7419530" lon="7.2408940">
        <ele>1339.2</ele>
        <time>2017-07-25T10:58:58Z</time>
      </trkpt>
      <trkpt lat="44.7419490" lon="7.2409280">
        <ele>1339.4</ele>
        <time>2017-07-25T10:58:59Z</time>
      </trkpt>
      <trkpt lat="44.7420090" lon="7.2410030">
        <ele>1340.4</ele>
        <time>2017-07-25T10:59:03Z</time>
      </trkpt>
      <trkpt lat="44.7420810" lon="7.2409510">
        <ele>1341.6</ele>
        <time>2017-07-25T10:59:07Z</time>
      </trkpt>
      <trkpt lat="44.7420970" lon="7.2409310">
        <ele>1342.0</ele>
        <time>2017-07-25T10:59:08Z</time>
      </trkpt>
      <trkpt lat="44.7421320" lon="7.2409040">
        <ele>1342.6</ele>
        <time>2017-07-25T10:59:10Z</time>
      </trkpt>
      <trkpt lat="44.7421860" lon="7.2408700">
        <ele>1344.0</ele>
        <time>2017-07-25T10:59:13Z</time>
      </trkpt>
      <trkpt lat="44.7422050" lon="7.2408590">
        <ele>1344.2</ele>
        <time>2017-07-25T10:59:14Z</time>
      </trkpt>
      <trkpt lat="44.7422620" lon="7.2408310">
        <ele>1345.2</ele>
        <time>2017-07-25T10:59:17Z</time>
      </trkpt>
      <trkpt lat="44.7423330" lon="7.2407950">
        <ele>1346.4</ele>
        <time>2017-07-25T10:59:21Z</time>
      </trkpt>
      <trkpt lat="44.7423500" lon="7.2407890">
        <ele>1346.6</ele>
        <time>2017-07-25T10:59:22Z</time>
      </trkpt>
      <trkpt lat="44.7424010" lon="7.2407620">
        <ele>1347.6</ele>
        <time>2017-07-25T10:59:25Z</time>
      </trkpt>
      <trkpt lat="44.7424710" lon="7.2407120">
        <ele>1348.8</ele>
        <time>2017-07-25T10:59:29Z</time>
      </trkpt>
      <trkpt lat="44.7424910" lon="7.2407000">
        <ele>1349.0</ele>
        <time>2017-07-25T10:59:30Z</time>
      </trkpt>
      <trkpt lat="44.7425620" lon="7.2406660">
        <ele>1350.0</ele>
        <time>2017-07-25T10:59:34Z</time>
      </trkpt>
      <trkpt lat="44.7426140" lon="7.2406180">
        <ele>1351.0</ele>
        <time>2017-07-25T10:59:37Z</time>
      </trkpt>
      <trkpt lat="44.7426960" lon="7.2406080">
        <ele>1352.2</ele>
        <time>2017-07-25T10:59:41Z</time>
      </trkpt>
      <trkpt lat="44.7427170" lon="7.2405990">
        <ele>1352.4</ele>
        <time>2017-07-25T10:59:42Z</time>
      </trkpt>
      <trkpt lat="44.7427860" lon="7.2405950">
        <ele>1353.2</ele>
        <time>2017-07-25T10:59:45Z</time>
      </trkpt>
      <trkpt lat="44.7428930" lon="7.2405760">
        <ele>1354.4</ele>
        <time>2017-07-25T10:59:50Z</time>
      </trkpt>
      <trkpt lat="44.7429670" lon="7.2404730">
        <ele>1355.2</ele>
        <time>2017-07-25T10:59:54Z</time>
      </trkpt>
      <trkpt lat="44.7430010" lon="7.2404070">
        <ele>1355.6</ele>
        <time>2017-07-25T10:59:56Z</time>
      </trkpt>
      <trkpt lat="44.7430590" lon="7.2402930">
        <ele>1356.4</ele>
        <time>2017-07-25T10:59:59Z</time>
      </trkpt>
      <trkpt lat="44.7430870" lon="7.2402550">
        <ele>1356.6</ele>
        <time>2017-07-25T11:00:00Z</time>
      </trkpt>
      <trkpt lat="44.7432520" lon="7.2400000">
        <ele>1356.4</ele>
        <time>2017-07-25T11:00:05Z</time>
      </trkpt>
      <trkpt lat="44.7434690" lon="7.2396410">
        <ele>1356.4</ele>
        <time>2017-07-25T11:00:11Z</time>
      </trkpt>
      <trkpt lat="44.7436760" lon="7.2392310">
        <ele>1356.2</ele>
        <time>2017-07-25T11:00:17Z</time>
      </trkpt>
      <trkpt lat="44.7437140" lon="7.2391670">
        <ele>1356.0</ele>
        <time>2017-07-25T11:00:18Z</time>
      </trkpt>
      <trkpt lat="44.7437930" lon="7.2390420">
        <ele>1355.6</ele>
        <time>2017-07-25T11:00:20Z</time>
      </trkpt>
      <trkpt lat="44.7439040" lon="7.2388630">
        <ele>1355.0</ele>
        <time>2017-07-25T11:00:23Z</time>
      </trkpt>
      <trkpt lat="44.7439770" lon="7.2387550">
        <ele>1355.0</ele>
        <time>2017-07-25T11:00:25Z</time>
      </trkpt>
      <trkpt lat="44.7440420" lon="7.2386360">
        <ele>1355.0</ele>
        <time>2017-07-25T11:00:27Z</time>
      </trkpt>
      <trkpt lat="44.7442170" lon="7.2383070">
        <ele>1354.4</ele>
        <time>2017-07-25T11:00:32Z</time>
      </trkpt>
      <trkpt lat="44.7444680" lon="7.2378040">
        <ele>1353.6</ele>
        <time>2017-07-25T11:00:39Z</time>
      </trkpt>
      <trkpt lat="44.7444940" lon="7.2377290">
        <ele>1353.2</ele>
        <time>2017-07-25T11:00:40Z</time>
      </trkpt>
      <trkpt lat="44.7445140" lon="7.2376510">
        <ele>1353.2</ele>
        <time>2017-07-25T11:00:41Z</time>
      </trkpt>
      <trkpt lat="44.7445650" lon="7.2373560">
        <ele>1354.0</ele>
        <time>2017-07-25T11:00:45Z</time>
      </trkpt>
      <trkpt lat="44.7445840" lon="7.2371000">
        <ele>1354.4</ele>
        <time>2017-07-25T11:00:49Z</time>
      </trkpt>
      <trkpt lat="44.7446450" lon="7.2369310">
        <ele>1355.4</ele>
        <time>2017-07-25T11:00:52Z</time>
      </trkpt>
      <trkpt lat="44.7446740" lon="7.2368780">
        <ele>1355.6</ele>
        <time>2017-07-25T11:00:53Z</time>
      </trkpt>
      <trkpt lat="44.7447040" lon="7.2368300">
        <ele>1355.6</ele>
        <time>2017-07-25T11:00:54Z</time>
      </trkpt>
      <trkpt lat="44.7449070" lon="7.2364420">
        <ele>1355.8</ele>
        <time>2017-07-25T11:01:02Z</time>
      </trkpt>
      <trkpt lat="44.7450680" lon="7.2362270">
        <ele>1356.6</ele>
        <time>2017-07-25T11:01:08Z</time>
      </trkpt>
      <trkpt lat="44.7450930" lon="7.2362040">
        <ele>1356.8</ele>
        <time>2017-07-25T11:01:09Z</time>
      </trkpt>
      <trkpt lat="44.7451820" lon="7.2361500">
        <ele>1358.0</ele>
        <time>2017-07-25T11:01:12Z</time>
      </trkpt>
      <trkpt lat="44.7452410" lon="7.2361100">
        <ele>1358.6</ele>
        <time>2017-07-25T11:01:14Z</time>
      </trkpt>
      <trkpt lat="44.7453040" lon="7.2360880">
        <ele>1359.0</ele>
        <time>2017-07-25T11:01:16Z</time>
      </trkpt>
      <trkpt lat="44.7454570" lon="7.2360570">
        <ele>1360.2</ele>
        <time>2017-07-25T11:01:21Z</time>
      </trkpt>
      <trkpt lat="44.7456350" lon="7.2360360">
        <ele>1361.4</ele>
        <time>2017-07-25T11:01:27Z</time>
      </trkpt>
      <trkpt lat="44.7456650" lon="7.2360280">
        <ele>1361.6</ele>
        <time>2017-07-25T11:01:28Z</time>
      </trkpt>
      <trkpt lat="44.7457440" lon="7.2359740">
        <ele>1362.4</ele>
        <time>2017-07-25T11:01:31Z</time>
      </trkpt>
      <trkpt lat="44.7458370" lon="7.2359030">
        <ele>1363.2</ele>
        <time>2017-07-25T11:01:35Z</time>
      </trkpt>
      <trkpt lat="44.7458620" lon="7.2358830">
        <ele>1363.6</ele>
        <time>2017-07-25T11:01:36Z</time>
      </trkpt>
      <trkpt lat="44.7459840" lon="7.2357860">
        <ele>1364.6</ele>
        <time>2017-07-25T11:01:41Z</time>
      </trkpt>
      <trkpt lat="44.7460060" lon="7.2357630">
        <ele>1364.6</ele>
        <time>2017-07-25T11:01:42Z</time>
      </trkpt>
      <trkpt lat="44.7461020" lon="7.2356850">
        <ele>1365.6</ele>
        <time>2017-07-25T11:01:46Z</time>
      </trkpt>
      <trkpt lat="44.7461750" lon="7.2356270">
        <ele>1366.0</ele>
        <time>2017-07-25T11:01:49Z</time>
      </trkpt>
      <trkpt lat="44.7462590" lon="7.2355450">
        <ele>1366.6</ele>
        <time>2017-07-25T11:01:52Z</time>
      </trkpt>
      <trkpt lat="44.7463520" lon="7.2353960">
        <ele>1366.8</ele>
        <time>2017-07-25T11:01:56Z</time>
      </trkpt>
      <trkpt lat="44.7464980" lon="7.2351800">
        <ele>1366.6</ele>
        <time>2017-07-25T11:02:02Z</time>
      </trkpt>
      <trkpt lat="44.7467050" lon="7.2349610">
        <ele>1367.4</ele>
        <time>2017-07-25T11:02:09Z</time>
      </trkpt>
      <trkpt lat="44.7467780" lon="7.2349080">
        <ele>1367.8</ele>
        <time>2017-07-25T11:02:11Z</time>
      </trkpt>
      <trkpt lat="44.7469420" lon="7.2347820">
        <ele>1369.0</ele>
        <time>2017-07-25T11:02:15Z</time>
      </trkpt>
      <trkpt lat="44.7471370" lon="7.2346790">
        <ele>1369.8</ele>
        <time>2017-07-25T11:02:19Z</time>
      </trkpt>
      <trkpt lat="44.7471970" lon="7.2346660">
        <ele>1370.2</ele>
        <time>2017-07-25T11:02:20Z</time>
      </trkpt>
      <trkpt lat="44.7473720" lon="7.2346210">
        <ele>1371.2</ele>
        <time>2017-07-25T11:02:23Z</time>
      </trkpt>
      <trkpt lat="44.7475800" lon="7.2345450">
        <ele>1372.4</ele>
        <time>2017-07-25T11:02:27Z</time>
      </trkpt>
      <trkpt lat="44.7476290" lon="7.2345250">
        <ele>1372.6</ele>
        <time>2017-07-25T11:02:28Z</time>
      </trkpt>
      <trkpt lat="44.7477580" lon="7.2344590">
        <ele>1373.4</ele>
        <time>2017-07-25T11:02:31Z</time>
      </trkpt>
      <trkpt lat="44.7477910" lon="7.2343920">
        <ele>1373.4</ele>
        <time>2017-07-25T11:02:33Z</time>
      </trkpt>
      <trkpt lat="44.7477230" lon="7.2343480">
        <ele>1372.8</ele>
        <time>2017-07-25T11:02:36Z</time>
      </trkpt>
      <trkpt lat="44.7476330" lon="7.2343910">
        <ele>1372.2</ele>
        <time>2017-07-25T11:02:39Z</time>
      </trkpt>
      <trkpt lat="44.7476000" lon="7.2344030">
        <ele>1372.0</ele>
        <time>2017-07-25T11:02:40Z</time>
      </trkpt>
      <trkpt lat="44.7474950" lon="7.2344130">
        <ele>1371.6</ele>
        <time>2017-07-25T11:02:43Z</time>
      </trkpt>
      <trkpt lat="44.7473930" lon="7.2344180">
        <ele>1371.2</ele>
        <time>2017-07-25T11:02:46Z</time>
      </trkpt>
      <trkpt lat="44.7472950" lon="7.2344140">
        <ele>1371.0</ele>
        <time>2017-07-25T11:02:49Z</time>
      </trkpt>
      <trkpt lat="44.7471320" lon="7.2344080">
        <ele>1371.0</ele>
        <time>2017-07-25T11:02:54Z</time>
      </trkpt>
      <trkpt lat="44.7469220" lon="7.2344430">
        <ele>1371.4</ele>
        <time>2017-07-25T11:03:01Z</time>
      </trkpt>
      <trkpt lat="44.7467440" lon="7.2344670">
        <ele>1372.2</ele>
        <time>2017-07-25T11:03:07Z</time>
      </trkpt>
      <trkpt lat="44.7467150" lon="7.2344740">
        <ele>1372.2</ele>
        <time>2017-07-25T11:03:08Z</time>
      </trkpt>
      <trkpt lat="44.7465380" lon="7.2345270">
        <ele>1373.0</ele>
        <time>2017-07-25T11:03:14Z</time>
      </trkpt>
      <trkpt lat="44.7464840" lon="7.2345430">
        <ele>1373.4</ele>
        <time>2017-07-25T11:03:16Z</time>
      </trkpt>
      <trkpt lat="44.7463430" lon="7.2345760">
        <ele>1374.0</ele>
        <time>2017-07-25T11:03:21Z</time>
      </trkpt>
      <trkpt lat="44.7462860" lon="7.2345900">
        <ele>1374.6</ele>
        <time>2017-07-25T11:03:23Z</time>
      </trkpt>
      <trkpt lat="44.7461410" lon="7.2345900">
        <ele>1375.6</ele>
        <time>2017-07-25T11:03:28Z</time>
      </trkpt>
      <trkpt lat="44.7461120" lon="7.2345870">
        <ele>1375.6</ele>
        <time>2017-07-25T11:03:29Z</time>
      </trkpt>
      <trkpt lat="44.7459720" lon="7.2345560">
        <ele>1376.6</ele>
        <time>2017-07-25T11:03:34Z</time>
      </trkpt>
      <trkpt lat="44.7458880" lon="7.2345340">
        <ele>1377.6</ele>
        <time>2017-07-25T11:03:37Z</time>
      </trkpt>
      <trkpt lat="44.7458590" lon="7.2345290">
        <ele>1377.6</ele>
        <time>2017-07-25T11:03:38Z</time>
      </trkpt>
      <trkpt lat="44.7456860" lon="7.2345120">
        <ele>1378.8</ele>
        <time>2017-07-25T11:03:44Z</time>
      </trkpt>
      <trkpt lat="44.7456320" lon="7.2345010">
        <ele>1379.2</ele>
        <time>2017-07-25T11:03:46Z</time>
      </trkpt>
      <trkpt lat="44.7455550" lon="7.2344770">
        <ele>1379.8</ele>
        <time>2017-07-25T11:03:49Z</time>
      </trkpt>
      <trkpt lat="44.7454190" lon="7.2344780">
        <ele>1380.8</ele>
        <time>2017-07-25T11:03:54Z</time>
      </trkpt>
      <trkpt lat="44.7453960" lon="7.2344700">
        <ele>1381.0</ele>
        <time>2017-07-25T11:03:55Z</time>
      </trkpt>
      <trkpt lat="44.7452960" lon="7.2344610">
        <ele>1382.2</ele>
        <time>2017-07-25T11:03:59Z</time>
      </trkpt>
      <trkpt lat="44.7452450" lon="7.2344700">
        <ele>1382.8</ele>
        <time>2017-07-25T11:04:01Z</time>
      </trkpt>
      <trkpt lat="44.7452210" lon="7.2344770">
        <ele>1383.2</ele>
        <time>2017-07-25T11:04:02Z</time>
      </trkpt>
      <trkpt lat="44.7451210" lon="7.2345080">
        <ele>1384.4</ele>
        <time>2017-07-25T11:04:06Z</time>
      </trkpt>
      <trkpt lat="44.7450750" lon="7.2345340">
        <ele>1385.0</ele>
        <time>2017-07-25T11:04:08Z</time>
      </trkpt>
      <trkpt lat="44.7450310" lon="7.2345750">
        <ele>1385.6</ele>
        <time>2017-07-25T11:04:10Z</time>
      </trkpt>
      <trkpt lat="44.7449570" lon="7.2346390">
        <ele>1386.6</ele>
        <time>2017-07-25T11:04:13Z</time>
      </trkpt>
      <trkpt lat="44.7449320" lon="7.2346620">
        <ele>1386.8</ele>
        <time>2017-07-25T11:04:14Z</time>
      </trkpt>
      <trkpt lat="44.7448680" lon="7.2347290">
        <ele>1387.8</ele>
        <time>2017-07-25T11:04:17Z</time>
      </trkpt>
      <trkpt lat="44.7447690" lon="7.2348680">
        <ele>1389.0</ele>
        <time>2017-07-25T11:04:22Z</time>
      </trkpt>
      <trkpt lat="44.7446900" lon="7.2349840">
        <ele>1390.0</ele>
        <time>2017-07-25T11:04:26Z</time>
      </trkpt>
      <trkpt lat="44.7445880" lon="7.2351610">
        <ele>1391.0</ele>
        <time>2017-07-25T11:04:32Z</time>
      </trkpt>
      <trkpt lat="44.7445710" lon="7.2351940">
        <ele>1391.2</ele>
        <time>2017-07-25T11:04:33Z</time>
      </trkpt>
      <trkpt lat="44.7444840" lon="7.2353330">
        <ele>1392.4</ele>
        <time>2017-07-25T11:04:38Z</time>
      </trkpt>
      <trkpt lat="44.7444670" lon="7.2353620">
        <ele>1392.6</ele>
        <time>2017-07-25T11:04:39Z</time>
      </trkpt>
      <trkpt lat="44.7443960" lon="7.2354690">
        <ele>1393.4</ele>
        <time>2017-07-25T11:04:43Z</time>
      </trkpt>
      <trkpt lat="44.7443480" lon="7.2355550">
        <ele>1394.2</ele>
        <time>2017-07-25T11:04:46Z</time>
      </trkpt>
      <trkpt lat="44.7443310" lon="7.2355860">
        <ele>1394.6</ele>
        <time>2017-07-25T11:04:47Z</time>
      </trkpt>
      <trkpt lat="44.7442630" lon="7.2357010">
        <ele>1395.6</ele>
        <time>2017-07-25T11:04:51Z</time>
      </trkpt>
      <trkpt lat="44.7442290" lon="7.2357560">
        <ele>1395.8</ele>
        <time>2017-07-25T11:04:53Z</time>
      </trkpt>
      <trkpt lat="44.7441780" lon="7.2358360">
        <ele>1396.8</ele>
        <time>2017-07-25T11:04:56Z</time>
      </trkpt>
      <trkpt lat="44.7441270" lon="7.2359110">
        <ele>1397.6</ele>
        <time>2017-07-25T11:04:59Z</time>
      </trkpt>
      <trkpt lat="44.7441080" lon="7.2359390">
        <ele>1398.0</ele>
        <time>2017-07-25T11:05:00Z</time>
      </trkpt>
      <trkpt lat="44.7440350" lon="7.2360260">
        <ele>1399.4</ele>
        <time>2017-07-25T11:05:04Z</time>
      </trkpt>
      <trkpt lat="44.7440150" lon="7.2360550">
        <ele>1399.6</ele>
        <time>2017-07-25T11:05:05Z</time>
      </trkpt>
      <trkpt lat="44.7439590" lon="7.2361450">
        <ele>1400.4</ele>
        <time>2017-07-25T11:05:08Z</time>
      </trkpt>
      <trkpt lat="44.7439030" lon="7.2362280">
        <ele>1401.8</ele>
        <time>2017-07-25T11:05:11Z</time>
      </trkpt>
      <trkpt lat="44.7438870" lon="7.2362580">
        <ele>1402.2</ele>
        <time>2017-07-25T11:05:12Z</time>
      </trkpt>
      <trkpt lat="44.7438360" lon="7.2363460">
        <ele>1403.0</ele>
        <time>2017-07-25T11:05:15Z</time>
      </trkpt>
      <trkpt lat="44.7437390" lon="7.2364810">
        <ele>1404.0</ele>
        <time>2017-07-25T11:05:20Z</time>
      </trkpt>
      <trkpt lat="44.7437180" lon="7.2365040">
        <ele>1404.2</ele>
        <time>2017-07-25T11:05:21Z</time>
      </trkpt>
      <trkpt lat="44.7436270" lon="7.2366060">
        <ele>1405.2</ele>
        <time>2017-07-25T11:05:26Z</time>
      </trkpt>
      <trkpt lat="44.7436070" lon="7.2366250">
        <ele>1405.4</ele>
        <time>2017-07-25T11:05:27Z</time>
      </trkpt>
      <trkpt lat="44.7435120" lon="7.2366410">
        <ele>1406.2</ele>
        <time>2017-07-25T11:05:31Z</time>
      </trkpt>
      <trkpt lat="44.7434870" lon="7.2366310">
        <ele>1406.4</ele>
        <time>2017-07-25T11:05:32Z</time>
      </trkpt>
      <trkpt lat="44.7434330" lon="7.2365700">
        <ele>1407.4</ele>
        <time>2017-07-25T11:05:35Z</time>
      </trkpt>
      <trkpt lat="44.7434260" lon="7.2365510">
        <ele>1408.0</ele>
        <time>2017-07-25T11:05:37Z</time>
      </trkpt>
      <trkpt lat="44.7434220" lon="7.2364900">
        <ele>1409.2</ele>
        <time>2017-07-25T11:06:05Z</time>
      </trkpt>
      <trkpt lat="44.7434130" lon="7.2364600">
        <ele>1409.4</ele>
        <time>2017-07-25T11:06:06Z</time>
      </trkpt>
      <trkpt lat="44.7434030" lon="7.2364280">
        <ele>1409.6</ele>
        <time>2017-07-25T11:06:07Z</time>
      </trkpt>
      <trkpt lat="44.7433930" lon="7.2362850">
        <ele>1410.4</ele>
        <time>2017-07-25T11:06:12Z</time>
      </trkpt>
      <trkpt lat="44.7433960" lon="7.2362600">
        <ele>1410.8</ele>
        <time>2017-07-25T11:06:13Z</time>
      </trkpt>
      <trkpt lat="44.7434080" lon="7.2361580">
        <ele>1411.4</ele>
        <time>2017-07-25T11:06:17Z</time>
      </trkpt>
      <trkpt lat="44.7434290" lon="7.2360530">
        <ele>1412.0</ele>
        <time>2017-07-25T11:06:21Z</time>
      </trkpt>
      <trkpt lat="44.7434490" lon="7.2360070">
        <ele>1412.6</ele>
        <time>2017-07-25T11:06:23Z</time>
      </trkpt>
      <trkpt lat="44.7434730" lon="7.2358770">
        <ele>1413.2</ele>
        <time>2017-07-25T11:06:28Z</time>
      </trkpt>
      <trkpt lat="44.7434670" lon="7.2358260">
        <ele>1413.8</ele>
        <time>2017-07-25T11:06:30Z</time>
      </trkpt>
      <trkpt lat="44.7434750" lon="7.2358060">
        <ele>1414.0</ele>
        <time>2017-07-25T11:06:31Z</time>
      </trkpt>
      <trkpt lat="44.7435060" lon="7.2357770">
        <ele>1414.6</ele>
        <time>2017-07-25T11:06:33Z</time>
      </trkpt>
      <trkpt lat="44.7435190" lon="7.2357580">
        <ele>1415.0</ele>
        <time>2017-07-25T11:06:34Z</time>
      </trkpt>
      <trkpt lat="44.7435360" lon="7.2356350">
        <ele>1416.0</ele>
        <time>2017-07-25T11:06:39Z</time>
      </trkpt>
      <trkpt lat="44.7435490" lon="7.2355420">
        <ele>1417.0</ele>
        <time>2017-07-25T11:06:43Z</time>
      </trkpt>
      <trkpt lat="44.7435610" lon="7.2354980">
        <ele>1417.4</ele>
        <time>2017-07-25T11:06:45Z</time>
      </trkpt>
      <trkpt lat="44.7435740" lon="7.2354250">
        <ele>1418.2</ele>
        <time>2017-07-25T11:06:48Z</time>
      </trkpt>
      <trkpt lat="44.7435800" lon="7.2354010">
        <ele>1418.2</ele>
        <time>2017-07-25T11:06:49Z</time>
      </trkpt>
      <trkpt lat="44.7435860" lon="7.2353290">
        <ele>1418.8</ele>
        <time>2017-07-25T11:06:52Z</time>
      </trkpt>
      <trkpt lat="44.7435820" lon="7.2352850">
        <ele>1419.2</ele>
        <time>2017-07-25T11:06:54Z</time>
      </trkpt>
      <trkpt lat="44.7435620" lon="7.2351700">
        <ele>1420.4</ele>
        <time>2017-07-25T11:06:59Z</time>
      </trkpt>
      <trkpt lat="44.7435560" lon="7.2351540">
        <ele>1420.6</ele>
        <time>2017-07-25T11:07:00Z</time>
      </trkpt>
      <trkpt lat="44.7435480" lon="7.2351130">
        <ele>1421.6</ele>
        <time>2017-07-25T11:07:02Z</time>
      </trkpt>
      <trkpt lat="44.7435440" lon="7.2350650">
        <ele>1422.4</ele>
        <time>2017-07-25T11:07:04Z</time>
      </trkpt>
      <trkpt lat="44.7435420" lon="7.2350400">
        <ele>1422.8</ele>
        <time>2017-07-25T11:07:05Z</time>
      </trkpt>
      <trkpt lat="44.7435400" lon="7.2350110">
        <ele>1423.2</ele>
        <time>2017-07-25T11:07:06Z</time>
      </trkpt>
      <trkpt lat="44.7435340" lon="7.2349830">
        <ele>1423.8</ele>
        <time>2017-07-25T11:07:07Z</time>
      </trkpt>
      <trkpt lat="44.7435290" lon="7.2348710">
        <ele>1425.0</ele>
        <time>2017-07-25T11:07:11Z</time>
      </trkpt>
      <trkpt lat="44.7435320" lon="7.2348470">
        <ele>1425.2</ele>
        <time>2017-07-25T11:07:12Z</time>
      </trkpt>
      <trkpt lat="44.7435320" lon="7.2347730">
        <ele>1426.0</ele>
        <time>2017-07-25T11:07:15Z</time>
      </trkpt>
      <trkpt lat="44.7435250" lon="7.2347460">
        <ele>1426.2</ele>
        <time>2017-07-25T11:07:16Z</time>
      </trkpt>
      <trkpt lat="44.7435080" lon="7.2346970">
        <ele>1426.4</ele>
        <time>2017-07-25T11:07:18Z</time>
      </trkpt>
      <trkpt lat="44.7434680" lon="7.2345490">
        <ele>1427.2</ele>
        <time>2017-07-25T11:07:24Z</time>
      </trkpt>
      <trkpt lat="44.7434600" lon="7.2345250">
        <ele>1427.4</ele>
        <time>2017-07-25T11:07:25Z</time>
      </trkpt>
      <trkpt lat="44.7434120" lon="7.2343870">
        <ele>1428.4</ele>
        <time>2017-07-25T11:07:31Z</time>
      </trkpt>
      <trkpt lat="44.7433860" lon="7.2343440">
        <ele>1429.0</ele>
        <time>2017-07-25T11:07:33Z</time>
      </trkpt>
      <trkpt lat="44.7433740" lon="7.2343010">
        <ele>1430.0</ele>
        <time>2017-07-25T11:07:35Z</time>
      </trkpt>
      <trkpt lat="44.7433470" lon="7.2341860">
        <ele>1431.2</ele>
        <time>2017-07-25T11:07:40Z</time>
      </trkpt>
      <trkpt lat="44.7433140" lon="7.2340940">
        <ele>1432.6</ele>
        <time>2017-07-25T11:07:44Z</time>
      </trkpt>
      <trkpt lat="44.7432890" lon="7.2340600">
        <ele>1433.6</ele>
        <time>2017-07-25T11:07:46Z</time>
      </trkpt>
      <trkpt lat="44.7432760" lon="7.2340430">
        <ele>1434.0</ele>
        <time>2017-07-25T11:07:47Z</time>
      </trkpt>
      <trkpt lat="44.7432680" lon="7.2340180">
        <ele>1434.4</ele>
        <time>2017-07-25T11:07:48Z</time>
      </trkpt>
      <trkpt lat="44.7432600" lon="7.2339940">
        <ele>1434.8</ele>
        <time>2017-07-25T11:07:49Z</time>
      </trkpt>
      <trkpt lat="44.7432260" lon="7.2339350">
        <ele>1436.0</ele>
        <time>2017-07-25T11:07:52Z</time>
      </trkpt>
      <trkpt lat="44.7432140" lon="7.2339160">
        <ele>1436.6</ele>
        <time>2017-07-25T11:07:53Z</time>
      </trkpt>
      <trkpt lat="44.7432040" lon="7.2338950">
        <ele>1437.0</ele>
        <time>2017-07-25T11:07:54Z</time>
      </trkpt>
      <trkpt lat="44.7431990" lon="7.2338540">
        <ele>1438.2</ele>
        <time>2017-07-25T11:07:56Z</time>
      </trkpt>
      <trkpt lat="44.7431920" lon="7.2338040">
        <ele>1438.8</ele>
        <time>2017-07-25T11:07:58Z</time>
      </trkpt>
      <trkpt lat="44.7431780" lon="7.2337900">
        <ele>1439.6</ele>
        <time>2017-07-25T11:07:59Z</time>
      </trkpt>
      <trkpt lat="44.7431510" lon="7.2337200">
        <ele>1440.8</ele>
        <time>2017-07-25T11:08:02Z</time>
      </trkpt>
      <trkpt lat="44.7431290" lon="7.2336510">
        <ele>1442.0</ele>
        <time>2017-07-25T11:08:05Z</time>
      </trkpt>
      <trkpt lat="44.7431190" lon="7.2336290">
        <ele>1442.4</ele>
        <time>2017-07-25T11:08:06Z</time>
      </trkpt>
      <trkpt lat="44.7431090" lon="7.2335800">
        <ele>1443.4</ele>
        <time>2017-07-25T11:08:08Z</time>
      </trkpt>
      <trkpt lat="44.7430840" lon="7.2334860">
        <ele>1444.8</ele>
        <time>2017-07-25T11:08:12Z</time>
      </trkpt>
      <trkpt lat="44.7430750" lon="7.2334610">
        <ele>1445.2</ele>
        <time>2017-07-25T11:08:13Z</time>
      </trkpt>
      <trkpt lat="44.7430600" lon="7.2334170">
        <ele>1446.0</ele>
        <time>2017-07-25T11:08:15Z</time>
      </trkpt>
      <trkpt lat="44.7430290" lon="7.2333240">
        <ele>1447.2</ele>
        <time>2017-07-25T11:08:19Z</time>
      </trkpt>
      <trkpt lat="44.7429950" lon="7.2332310">
        <ele>1448.6</ele>
        <time>2017-07-25T11:08:23Z</time>
      </trkpt>
      <trkpt lat="44.7429710" lon="7.2331620">
        <ele>1449.6</ele>
        <time>2017-07-25T11:08:26Z</time>
      </trkpt>
      <trkpt lat="44.7429450" lon="7.2330750">
        <ele>1451.0</ele>
        <time>2017-07-25T11:08:30Z</time>
      </trkpt>
      <trkpt lat="44.7429430" lon="7.2329700">
        <ele>1451.0</ele>
        <time>2017-07-25T11:08:34Z</time>
      </trkpt>
      <trkpt lat="44.7429280" lon="7.2327770">
        <ele>1451.2</ele>
        <time>2017-07-25T11:08:42Z</time>
      </trkpt>
      <trkpt lat="44.7428950" lon="7.2326080">
        <ele>1451.0</ele>
        <time>2017-07-25T11:08:49Z</time>
      </trkpt>
      <trkpt lat="44.7428940" lon="7.2325840">
        <ele>1451.2</ele>
        <time>2017-07-25T11:08:50Z</time>
      </trkpt>
      <trkpt lat="44.7428840" lon="7.2324320">
        <ele>1452.0</ele>
        <time>2017-07-25T11:08:56Z</time>
      </trkpt>
      <trkpt lat="44.7428800" lon="7.2323610">
        <ele>1452.4</ele>
        <time>2017-07-25T11:08:59Z</time>
      </trkpt>
      <trkpt lat="44.7428770" lon="7.2322880">
        <ele>1453.0</ele>
        <time>2017-07-25T11:09:02Z</time>
      </trkpt>
      <trkpt lat="44.7428710" lon="7.2321810">
        <ele>1454.2</ele>
        <time>2017-07-25T11:09:06Z</time>
      </trkpt>
      <trkpt lat="44.7428760" lon="7.2321210">
        <ele>1455.0</ele>
        <time>2017-07-25T11:09:08Z</time>
      </trkpt>
      <trkpt lat="44.7428750" lon="7.2320940">
        <ele>1455.6</ele>
        <time>2017-07-25T11:09:09Z</time>
      </trkpt>
      <trkpt lat="44.7428740" lon="7.2320440">
        <ele>1456.8</ele>
        <time>2017-07-25T11:09:11Z</time>
      </trkpt>
      <trkpt lat="44.7428780" lon="7.2319650">
        <ele>1458.0</ele>
        <time>2017-07-25T11:09:14Z</time>
      </trkpt>
      <trkpt lat="44.7428830" lon="7.2318810">
        <ele>1459.4</ele>
        <time>2017-07-25T11:09:17Z</time>
      </trkpt>
      <trkpt lat="44.7428850" lon="7.2318560">
        <ele>1459.6</ele>
        <time>2017-07-25T11:09:18Z</time>
      </trkpt>
      <trkpt lat="44.7428930" lon="7.2317780">
        <ele>1460.6</ele>
        <time>2017-07-25T11:09:21Z</time>
      </trkpt>
      <trkpt lat="44.7428990" lon="7.2316940">
        <ele>1461.8</ele>
        <time>2017-07-25T11:09:24Z</time>
      </trkpt>
      <trkpt lat="44.7429010" lon="7.2316110">
        <ele>1463.2</ele>
        <time>2017-07-25T11:09:27Z</time>
      </trkpt>
      <trkpt lat="44.7428980" lon="7.2315780">
        <ele>1463.6</ele>
        <time>2017-07-25T11:09:28Z</time>
      </trkpt>
      <trkpt lat="44.7429050" lon="7.2315110">
        <ele>1464.4</ele>
        <time>2017-07-25T11:09:30Z</time>
      </trkpt>
      <trkpt lat="44.7429090" lon="7.2314050">
        <ele>1465.6</ele>
        <time>2017-07-25T11:09:33Z</time>
      </trkpt>
      <trkpt lat="44.7429060" lon="7.2313220">
        <ele>1467.0</ele>
        <time>2017-07-25T11:09:35Z</time>
      </trkpt>
      <trkpt lat="44.7429000" lon="7.2311990">
        <ele>1468.4</ele>
        <time>2017-07-25T11:09:38Z</time>
      </trkpt>
      <trkpt lat="44.7428790" lon="7.2310760">
        <ele>1469.6</ele>
        <time>2017-07-25T11:09:41Z</time>
      </trkpt>
      <trkpt lat="44.7428680" lon="7.2310400">
        <ele>1469.8</ele>
        <time>2017-07-25T11:09:42Z</time>
      </trkpt>
      <trkpt lat="44.7428590" lon="7.2310030">
        <ele>1470.2</ele>
        <time>2017-07-25T11:09:43Z</time>
      </trkpt>
      <trkpt lat="44.7428400" lon="7.2309310">
        <ele>1470.8</ele>
        <time>2017-07-25T11:09:45Z</time>
      </trkpt>
      <trkpt lat="44.7428340" lon="7.2308940">
        <ele>1471.2</ele>
        <time>2017-07-25T11:09:46Z</time>
      </trkpt>
      <trkpt lat="44.7428240" lon="7.2308580">
        <ele>1471.6</ele>
        <time>2017-07-25T11:09:47Z</time>
      </trkpt>
      <trkpt lat="44.7428130" lon="7.2308210">
        <ele>1471.8</ele>
        <time>2017-07-25T11:09:48Z</time>
      </trkpt>
      <trkpt lat="44.7427790" lon="7.2307200">
        <ele>1473.2</ele>
        <time>2017-07-25T11:09:51Z</time>
      </trkpt>
      <trkpt lat="44.7427450" lon="7.2306570">
        <ele>1473.8</ele>
        <time>2017-07-25T11:09:53Z</time>
      </trkpt>
      <trkpt lat="44.7427270" lon="7.2306290">
        <ele>1474.2</ele>
        <time>2017-07-25T11:09:54Z</time>
      </trkpt>
      <trkpt lat="44.7426630" lon="7.2305140">
        <ele>1475.2</ele>
        <time>2017-07-25T11:09:58Z</time>
      </trkpt>
      <trkpt lat="44.7426300" lon="7.2304600">
        <ele>1476.4</ele>
        <time>2017-07-25T11:10:00Z</time>
      </trkpt>
      <trkpt lat="44.7425930" lon="7.2303810">
        <ele>1477.0</ele>
        <time>2017-07-25T11:10:03Z</time>
      </trkpt>
      <trkpt lat="44.7425700" lon="7.2303210">
        <ele>1477.6</ele>
        <time>2017-07-25T11:10:05Z</time>
      </trkpt>
      <trkpt lat="44.7425330" lon="7.2302360">
        <ele>1478.4</ele>
        <time>2017-07-25T11:10:08Z</time>
      </trkpt>
      <trkpt lat="44.7425060" lon="7.2301800">
        <ele>1478.8</ele>
        <time>2017-07-25T11:10:10Z</time>
      </trkpt>
      <trkpt lat="44.7424360" lon="7.2300580">
        <ele>1480.0</ele>
        <time>2017-07-25T11:10:15Z</time>
      </trkpt>
      <trkpt lat="44.7424230" lon="7.2300330">
        <ele>1480.2</ele>
        <time>2017-07-25T11:10:16Z</time>
      </trkpt>
      <trkpt lat="44.7423700" lon="7.2299320">
        <ele>1481.2</ele>
        <time>2017-07-25T11:10:20Z</time>
      </trkpt>
      <trkpt lat="44.7423600" lon="7.2298760">
        <ele>1481.6</ele>
        <time>2017-07-25T11:10:22Z</time>
      </trkpt>
      <trkpt lat="44.7423600" lon="7.2297870">
        <ele>1482.4</ele>
        <time>2017-07-25T11:10:25Z</time>
      </trkpt>
      <trkpt lat="44.7423920" lon="7.2297120">
        <ele>1483.2</ele>
        <time>2017-07-25T11:10:28Z</time>
      </trkpt>
      <trkpt lat="44.7424160" lon="7.2297100">
        <ele>1483.4</ele>
        <time>2017-07-25T11:10:29Z</time>
      </trkpt>
      <trkpt lat="44.7424870" lon="7.2297450">
        <ele>1484.4</ele>
        <time>2017-07-25T11:10:32Z</time>
      </trkpt>
      <trkpt lat="44.7425100" lon="7.2297640">
        <ele>1484.8</ele>
        <time>2017-07-25T11:10:33Z</time>
      </trkpt>
      <trkpt lat="44.7426020" lon="7.2298430">
        <ele>1486.2</ele>
        <time>2017-07-25T11:10:37Z</time>
      </trkpt>
      <trkpt lat="44.7426820" lon="7.2299320">
        <ele>1487.4</ele>
        <time>2017-07-25T11:10:41Z</time>
      </trkpt>
      <trkpt lat="44.7427000" lon="7.2299560">
        <ele>1486.4</ele>
        <time>2017-07-25T11:10:42Z</time>
      </trkpt>
      <trkpt lat="44.7427190" lon="7.2299800">
        <ele>1486.4</ele>
        <time>2017-07-25T11:10:43Z</time>
      </trkpt>
      <trkpt lat="44.7427540" lon="7.2300260">
        <ele>1488.2</ele>
        <time>2017-07-25T11:10:45Z</time>
      </trkpt>
      <trkpt lat="44.7427920" lon="7.2300690">
        <ele>1486.2</ele>
        <time>2017-07-25T11:10:47Z</time>
      </trkpt>
      <trkpt lat="44.7428330" lon="7.2301070">
        <ele>1488.0</ele>
        <time>2017-07-25T11:10:49Z</time>
      </trkpt>
      <trkpt lat="44.7428550" lon="7.2301250">
        <ele>1489.0</ele>
        <time>2017-07-25T11:10:50Z</time>
      </trkpt>
      <trkpt lat="44.7429150" lon="7.2301830">
        <ele>1489.6</ele>
        <time>2017-07-25T11:10:53Z</time>
      </trkpt>
      <trkpt lat="44.7429340" lon="7.2302070">
        <ele>1487.6</ele>
        <time>2017-07-25T11:10:54Z</time>
      </trkpt>
      <trkpt lat="44.7429980" lon="7.2302750">
        <ele>1491.8</ele>
        <time>2017-07-25T11:10:57Z</time>
      </trkpt>
      <trkpt lat="44.7431210" lon="7.2304590">
        <ele>1493.0</ele>
        <time>2017-07-25T11:11:04Z</time>
      </trkpt>
      <trkpt lat="44.7432210" lon="7.2306050">
        <ele>1494.0</ele>
        <time>2017-07-25T11:11:09Z</time>
      </trkpt>
      <trkpt lat="44.7432410" lon="7.2306340">
        <ele>1494.2</ele>
        <time>2017-07-25T11:11:10Z</time>
      </trkpt>
      <trkpt lat="44.7432780" lon="7.2306990">
        <ele>1495.2</ele>
        <time>2017-07-25T11:11:12Z</time>
      </trkpt>
      <trkpt lat="44.7433390" lon="7.2307940">
        <ele>1496.0</ele>
        <time>2017-07-25T11:11:15Z</time>
      </trkpt>
      <trkpt lat="44.7433540" lon="7.2308300">
        <ele>1496.4</ele>
        <time>2017-07-25T11:11:16Z</time>
      </trkpt>
      <trkpt lat="44.7434260" lon="7.2310090">
        <ele>1497.4</ele>
        <time>2017-07-25T11:11:21Z</time>
      </trkpt>
      <trkpt lat="44.7434690" lon="7.2311100">
        <ele>1498.4</ele>
        <time>2017-07-25T11:11:24Z</time>
      </trkpt>
      <trkpt lat="44.7434820" lon="7.2311440">
        <ele>1498.8</ele>
        <time>2017-07-25T11:11:25Z</time>
      </trkpt>
      <trkpt lat="44.7435480" lon="7.2312590">
        <ele>1499.6</ele>
        <time>2017-07-25T11:11:29Z</time>
      </trkpt>
      <trkpt lat="44.7435960" lon="7.2313360">
        <ele>1500.6</ele>
        <time>2017-07-25T11:11:32Z</time>
      </trkpt>
      <trkpt lat="44.7436100" lon="7.2313650">
        <ele>1500.8</ele>
        <time>2017-07-25T11:11:33Z</time>
      </trkpt>
      <trkpt lat="44.7436530" lon="7.2314780">
        <ele>1502.0</ele>
        <time>2017-07-25T11:11:37Z</time>
      </trkpt>
      <trkpt lat="44.7436890" lon="7.2315800">
        <ele>1502.6</ele>
        <time>2017-07-25T11:11:41Z</time>
      </trkpt>
      <trkpt lat="44.7437110" lon="7.2316290">
        <ele>1503.0</ele>
        <time>2017-07-25T11:11:43Z</time>
      </trkpt>
      <trkpt lat="44.7437720" lon="7.2317100">
        <ele>1503.8</ele>
        <time>2017-07-25T11:11:47Z</time>
      </trkpt>
      <trkpt lat="44.7438100" lon="7.2317840">
        <ele>1504.2</ele>
        <time>2017-07-25T11:11:50Z</time>
      </trkpt>
      <trkpt lat="44.7438350" lon="7.2318690">
        <ele>1504.8</ele>
        <time>2017-07-25T11:11:53Z</time>
      </trkpt>
      <trkpt lat="44.7438630" lon="7.2319160">
        <ele>1505.2</ele>
        <time>2017-07-25T11:11:55Z</time>
      </trkpt>
      <trkpt lat="44.7439190" lon="7.2320110">
        <ele>1506.4</ele>
        <time>2017-07-25T11:11:59Z</time>
      </trkpt>
      <trkpt lat="44.7439330" lon="7.2320340">
        <ele>1506.6</ele>
        <time>2017-07-25T11:12:00Z</time>
      </trkpt>
      <trkpt lat="44.7439830" lon="7.2321290">
        <ele>1507.6</ele>
        <time>2017-07-25T11:12:04Z</time>
      </trkpt>
      <trkpt lat="44.7440140" lon="7.2321720">
        <ele>1508.0</ele>
        <time>2017-07-25T11:12:06Z</time>
      </trkpt>
      <trkpt lat="44.7440510" lon="7.2322040">
        <ele>1508.4</ele>
        <time>2017-07-25T11:12:08Z</time>
      </trkpt>
      <trkpt lat="44.7440700" lon="7.2322140">
        <ele>1508.8</ele>
        <time>2017-07-25T11:12:09Z</time>
      </trkpt>
      <trkpt lat="44.7441730" lon="7.2322500">
        <ele>1510.0</ele>
        <time>2017-07-25T11:12:14Z</time>
      </trkpt>
      <trkpt lat="44.7442630" lon="7.2322760">
        <ele>1511.0</ele>
        <time>2017-07-25T11:12:18Z</time>
      </trkpt>
      <trkpt lat="44.7443920" lon="7.2323070">
        <ele>1512.0</ele>
        <time>2017-07-25T11:12:23Z</time>
      </trkpt>
      <trkpt lat="44.7444210" lon="7.2323070">
        <ele>1512.2</ele>
        <time>2017-07-25T11:12:24Z</time>
      </trkpt>
      <trkpt lat="44.7445360" lon="7.2322850">
        <ele>1513.4</ele>
        <time>2017-07-25T11:12:28Z</time>
      </trkpt>
      <trkpt lat="44.7445960" lon="7.2322770">
        <ele>1513.8</ele>
        <time>2017-07-25T11:12:30Z</time>
      </trkpt>
      <trkpt lat="44.7446520" lon="7.2322610">
        <ele>1514.4</ele>
        <time>2017-07-25T11:12:32Z</time>
      </trkpt>
      <trkpt lat="44.7447530" lon="7.2322020">
        <ele>1515.6</ele>
        <time>2017-07-25T11:12:36Z</time>
      </trkpt>
      <trkpt lat="44.7448940" lon="7.2321290">
        <ele>1516.6</ele>
        <time>2017-07-25T11:12:41Z</time>
      </trkpt>
      <trkpt lat="44.7449580" lon="7.2320920">
        <ele>1517.2</ele>
        <time>2017-07-25T11:12:43Z</time>
      </trkpt>
      <trkpt lat="44.7450210" lon="7.2320530">
        <ele>1517.6</ele>
        <time>2017-07-25T11:12:45Z</time>
      </trkpt>
      <trkpt lat="44.7451500" lon="7.2319890">
        <ele>1518.8</ele>
        <time>2017-07-25T11:12:49Z</time>
      </trkpt>
      <trkpt lat="44.7452450" lon="7.2319210">
        <ele>1519.6</ele>
        <time>2017-07-25T11:12:52Z</time>
      </trkpt>
      <trkpt lat="44.7452760" lon="7.2318950">
        <ele>1519.8</ele>
        <time>2017-07-25T11:12:53Z</time>
      </trkpt>
      <trkpt lat="44.7453950" lon="7.2318120">
        <ele>1520.8</ele>
        <time>2017-07-25T11:12:57Z</time>
      </trkpt>
      <trkpt lat="44.7454480" lon="7.2317760">
        <ele>1521.4</ele>
        <time>2017-07-25T11:12:59Z</time>
      </trkpt>
      <trkpt lat="44.7454750" lon="7.2317590">
        <ele>1521.6</ele>
        <time>2017-07-25T11:13:00Z</time>
      </trkpt>
      <trkpt lat="44.7455030" lon="7.2317410">
        <ele>1522.0</ele>
        <time>2017-07-25T11:13:01Z</time>
      </trkpt>
      <trkpt lat="44.7456380" lon="7.2316710">
        <ele>1523.0</ele>
        <time>2017-07-25T11:13:05Z</time>
      </trkpt>
      <trkpt lat="44.7457110" lon="7.2316360">
        <ele>1523.4</ele>
        <time>2017-07-25T11:13:07Z</time>
      </trkpt>
      <trkpt lat="44.7457800" lon="7.2316070">
        <ele>1524.2</ele>
        <time>2017-07-25T11:13:09Z</time>
      </trkpt>
      <trkpt lat="44.7459150" lon="7.2315540">
        <ele>1525.4</ele>
        <time>2017-07-25T11:13:13Z</time>
      </trkpt>
      <trkpt lat="44.7459810" lon="7.2315310">
        <ele>1526.2</ele>
        <time>2017-07-25T11:13:15Z</time>
      </trkpt>
      <trkpt lat="44.7460490" lon="7.2315060">
        <ele>1526.6</ele>
        <time>2017-07-25T11:13:17Z</time>
      </trkpt>
      <trkpt lat="44.7462750" lon="7.2314440">
        <ele>1527.8</ele>
        <time>2017-07-25T11:13:23Z</time>
      </trkpt>
      <trkpt lat="44.7465390" lon="7.2313450">
        <ele>1528.4</ele>
        <time>2017-07-25T11:13:29Z</time>
      </trkpt>
      <trkpt lat="44.7465850" lon="7.2313240">
        <ele>1528.4</ele>
        <time>2017-07-25T11:13:30Z</time>
      </trkpt>
      <trkpt lat="44.7467740" lon="7.2312110">
        <ele>1529.0</ele>
        <time>2017-07-25T11:13:34Z</time>
      </trkpt>
      <trkpt lat="44.7468590" lon="7.2311220">
        <ele>1529.0</ele>
        <time>2017-07-25T11:13:36Z</time>
      </trkpt>
      <trkpt lat="44.7469890" lon="7.2308390">
        <ele>1528.0</ele>
        <time>2017-07-25T11:13:40Z</time>
      </trkpt>
      <trkpt lat="44.7470170" lon="7.2307500">
        <ele>1527.6</ele>
        <time>2017-07-25T11:13:41Z</time>
      </trkpt>
      <trkpt lat="44.7470390" lon="7.2306520">
        <ele>1527.2</ele>
        <time>2017-07-25T11:13:42Z</time>
      </trkpt>
      <trkpt lat="44.7470640" lon="7.2304320">
        <ele>1526.2</ele>
        <time>2017-07-25T11:13:44Z</time>
      </trkpt>
      <trkpt lat="44.7470750" lon="7.2301850">
        <ele>1525.2</ele>
        <time>2017-07-25T11:13:46Z</time>
      </trkpt>
      <trkpt lat="44.7470880" lon="7.2299170">
        <ele>1523.8</ele>
        <time>2017-07-25T11:13:48Z</time>
      </trkpt>
      <trkpt lat="44.7470960" lon="7.2297790">
        <ele>1523.4</ele>
        <time>2017-07-25T11:13:49Z</time>
      </trkpt>
      <trkpt lat="44.7471120" lon="7.2294910">
        <ele>1522.4</ele>
        <time>2017-07-25T11:13:51Z</time>
      </trkpt>
      <trkpt lat="44.7471260" lon="7.2293420">
        <ele>1521.6</ele>
        <time>2017-07-25T11:13:52Z</time>
      </trkpt>
      <trkpt lat="44.7471470" lon="7.2291940">
        <ele>1520.8</ele>
        <time>2017-07-25T11:13:53Z</time>
      </trkpt>
      <trkpt lat="44.7471690" lon="7.2290440">
        <ele>1520.2</ele>
        <time>2017-07-25T11:13:54Z</time>
      </trkpt>
      <trkpt lat="44.7471950" lon="7.2288940">
        <ele>1519.6</ele>
        <time>2017-07-25T11:13:55Z</time>
      </trkpt>
      <trkpt lat="44.7472740" lon="7.2286010">
        <ele>1518.6</ele>
        <time>2017-07-25T11:13:57Z</time>
      </trkpt>
      <trkpt lat="44.7473250" lon="7.2284600">
        <ele>1518.0</ele>
        <time>2017-07-25T11:13:58Z</time>
      </trkpt>
      <trkpt lat="44.7473810" lon="7.2283290">
        <ele>1517.6</ele>
        <time>2017-07-25T11:13:59Z</time>
      </trkpt>
      <trkpt lat="44.7474410" lon="7.2282070">
        <ele>1517.4</ele>
        <time>2017-07-25T11:14:00Z</time>
      </trkpt>
      <trkpt lat="44.7475630" lon="7.2279720">
        <ele>1516.8</ele>
        <time>2017-07-25T11:14:02Z</time>
      </trkpt>
      <trkpt lat="44.7476380" lon="7.2278650">
        <ele>1516.2</ele>
        <time>2017-07-25T11:14:03Z</time>
      </trkpt>
      <trkpt lat="44.7478350" lon="7.2277260">
        <ele>1515.4</ele>
        <time>2017-07-25T11:14:05Z</time>
      </trkpt>
      <trkpt lat="44.7479440" lon="7.2276900">
        <ele>1515.0</ele>
        <time>2017-07-25T11:14:06Z</time>
      </trkpt>
      <trkpt lat="44.7481420" lon="7.2275820">
        <ele>1514.8</ele>
        <time>2017-07-25T11:14:08Z</time>
      </trkpt>
      <trkpt lat="44.7483680" lon="7.2273140">
        <ele>1514.8</ele>
        <time>2017-07-25T11:14:11Z</time>
      </trkpt>
      <trkpt lat="44.7485020" lon="7.2271340">
        <ele>1514.0</ele>
        <time>2017-07-25T11:14:13Z</time>
      </trkpt>
      <trkpt lat="44.7487050" lon="7.2269390">
        <ele>1513.4</ele>
        <time>2017-07-25T11:14:16Z</time>
      </trkpt>
      <trkpt lat="44.7490910" lon="7.2266920">
        <ele>1513.0</ele>
        <time>2017-07-25T11:14:22Z</time>
      </trkpt>
      <trkpt lat="44.7494410" lon="7.2264350">
        <ele>1513.6</ele>
        <time>2017-07-25T11:14:28Z</time>
      </trkpt>
      <trkpt lat="44.7497900" lon="7.2260630">
        <ele>1514.4</ele>
        <time>2017-07-25T11:14:35Z</time>
      </trkpt>
      <trkpt lat="44.7500560" lon="7.2257740">
        <ele>1514.8</ele>
        <time>2017-07-25T11:14:41Z</time>
      </trkpt>
      <trkpt lat="44.7501880" lon="7.2256500">
        <ele>1515.2</ele>
        <time>2017-07-25T11:14:44Z</time>
      </trkpt>
      <trkpt lat="44.7502330" lon="7.2256170">
        <ele>1515.2</ele>
        <time>2017-07-25T11:14:45Z</time>
      </trkpt>
      <trkpt lat="44.7503220" lon="7.2255580">
        <ele>1515.2</ele>
        <time>2017-07-25T11:14:47Z</time>
      </trkpt>
      <trkpt lat="44.7504080" lon="7.2255070">
        <ele>1516.4</ele>
        <time>2017-07-25T11:14:49Z</time>
      </trkpt>
      <trkpt lat="44.7505680" lon="7.2254140">
        <ele>1517.4</ele>
        <time>2017-07-25T11:14:53Z</time>
      </trkpt>
      <trkpt lat="44.7506460" lon="7.2253820">
        <ele>1518.0</ele>
        <time>2017-07-25T11:14:55Z</time>
      </trkpt>
      <trkpt lat="44.7507620" lon="7.2253440">
        <ele>1518.4</ele>
        <time>2017-07-25T11:14:58Z</time>
      </trkpt>
      <trkpt lat="44.7508360" lon="7.2253090">
        <ele>1518.8</ele>
        <time>2017-07-25T11:15:00Z</time>
      </trkpt>
      <trkpt lat="44.7509940" lon="7.2251700">
        <ele>1519.6</ele>
        <time>2017-07-25T11:15:05Z</time>
      </trkpt>
      <trkpt lat="44.7510490" lon="7.2251040">
        <ele>1519.6</ele>
        <time>2017-07-25T11:15:07Z</time>
      </trkpt>
      <trkpt lat="44.7511960" lon="7.2248640">
        <ele>1519.4</ele>
        <time>2017-07-25T11:15:14Z</time>
      </trkpt>
      <trkpt lat="44.7513360" lon="7.2245570">
        <ele>1519.2</ele>
        <time>2017-07-25T11:15:22Z</time>
      </trkpt>
      <trkpt lat="44.7514550" lon="7.2242910">
        <ele>1519.0</ele>
        <time>2017-07-25T11:15:29Z</time>
      </trkpt>
      <trkpt lat="44.7515090" lon="7.2241820">
        <ele>1519.4</ele>
        <time>2017-07-25T11:15:32Z</time>
      </trkpt>
      <trkpt lat="44.7515730" lon="7.2240360">
        <ele>1520.0</ele>
        <time>2017-07-25T11:15:36Z</time>
      </trkpt>
      <trkpt lat="44.7516290" lon="7.2239310">
        <ele>1520.6</ele>
        <time>2017-07-25T11:15:39Z</time>
      </trkpt>
      <trkpt lat="44.7516910" lon="7.2238270">
        <ele>1522.0</ele>
        <time>2017-07-25T11:15:42Z</time>
      </trkpt>
      <trkpt lat="44.7517340" lon="7.2237590">
        <ele>1523.0</ele>
        <time>2017-07-25T11:15:44Z</time>
      </trkpt>
      <trkpt lat="44.7517550" lon="7.2237260">
        <ele>1523.6</ele>
        <time>2017-07-25T11:15:45Z</time>
      </trkpt>
      <trkpt lat="44.7518100" lon="7.2236110">
        <ele>1524.8</ele>
        <time>2017-07-25T11:15:48Z</time>
      </trkpt>
      <trkpt lat="44.7518500" lon="7.2235400">
        <ele>1525.0</ele>
        <time>2017-07-25T11:15:50Z</time>
      </trkpt>
      <trkpt lat="44.7519380" lon="7.2234150">
        <ele>1525.8</ele>
        <time>2017-07-25T11:15:54Z</time>
      </trkpt>
      <trkpt lat="44.7519920" lon="7.2233230">
        <ele>1526.6</ele>
        <time>2017-07-25T11:15:57Z</time>
      </trkpt>
      <trkpt lat="44.7520780" lon="7.2231690">
        <ele>1526.8</ele>
        <time>2017-07-25T11:16:02Z</time>
      </trkpt>
      <trkpt lat="44.7520980" lon="7.2231370">
        <ele>1526.8</ele>
        <time>2017-07-25T11:16:03Z</time>
      </trkpt>
      <trkpt lat="44.7523060" lon="7.2228610">
        <ele>1528.0</ele>
        <time>2017-07-25T11:16:13Z</time>
      </trkpt>
      <trkpt lat="44.7523260" lon="7.2228330">
        <ele>1528.4</ele>
        <time>2017-07-25T11:16:14Z</time>
      </trkpt>
      <trkpt lat="44.7523910" lon="7.2227550">
        <ele>1529.4</ele>
        <time>2017-07-25T11:16:17Z</time>
      </trkpt>
      <trkpt lat="44.7524560" lon="7.2226790">
        <ele>1530.6</ele>
        <time>2017-07-25T11:16:20Z</time>
      </trkpt>
      <trkpt lat="44.7524980" lon="7.2226320">
        <ele>1531.0</ele>
        <time>2017-07-25T11:16:22Z</time>
      </trkpt>
      <trkpt lat="44.7525450" lon="7.2225810">
        <ele>1532.2</ele>
        <time>2017-07-25T11:16:24Z</time>
      </trkpt>
      <trkpt lat="44.7526210" lon="7.2225170">
        <ele>1533.4</ele>
        <time>2017-07-25T11:16:27Z</time>
      </trkpt>
      <trkpt lat="44.7526730" lon="7.2224690">
        <ele>1534.2</ele>
        <time>2017-07-25T11:16:29Z</time>
      </trkpt>
      <trkpt lat="44.7526970" lon="7.2224450">
        <ele>1534.4</ele>
        <time>2017-07-25T11:16:30Z</time>
      </trkpt>
      <trkpt lat="44.7527720" lon="7.2223800">
        <ele>1535.6</ele>
        <time>2017-07-25T11:16:33Z</time>
      </trkpt>
      <trkpt lat="44.7528520" lon="7.2223160">
        <ele>1536.8</ele>
        <time>2017-07-25T11:16:36Z</time>
      </trkpt>
      <trkpt lat="44.7528800" lon="7.2222960">
        <ele>1537.2</ele>
        <time>2017-07-25T11:16:37Z</time>
      </trkpt>
      <trkpt lat="44.7529420" lon="7.2222540">
        <ele>1538.2</ele>
        <time>2017-07-25T11:16:39Z</time>
      </trkpt>
      <trkpt lat="44.7530410" lon="7.2222000">
        <ele>1539.4</ele>
        <time>2017-07-25T11:16:42Z</time>
      </trkpt>
      <trkpt lat="44.7531370" lon="7.2221530">
        <ele>1540.4</ele>
        <time>2017-07-25T11:16:45Z</time>
      </trkpt>
      <trkpt lat="44.7532390" lon="7.2221110">
        <ele>1542.0</ele>
        <time>2017-07-25T11:16:48Z</time>
      </trkpt>
      <trkpt lat="44.7533590" lon="7.2220870">
        <ele>1543.2</ele>
        <time>2017-07-25T11:16:51Z</time>
      </trkpt>
      <trkpt lat="44.7534770" lon="7.2220580">
        <ele>1544.2</ele>
        <time>2017-07-25T11:16:54Z</time>
      </trkpt>
      <trkpt lat="44.7536330" lon="7.2220220">
        <ele>1545.4</ele>
        <time>2017-07-25T11:16:58Z</time>
      </trkpt>
      <trkpt lat="44.7537130" lon="7.2220030">
        <ele>1546.0</ele>
        <time>2017-07-25T11:17:00Z</time>
      </trkpt>
      <trkpt lat="44.7538000" lon="7.2219870">
        <ele>1546.4</ele>
        <time>2017-07-25T11:17:02Z</time>
      </trkpt>
      <trkpt lat="44.7539370" lon="7.2219880">
        <ele>1547.0</ele>
        <time>2017-07-25T11:17:05Z</time>
      </trkpt>
      <trkpt lat="44.7540300" lon="7.2220100">
        <ele>1547.4</ele>
        <time>2017-07-25T11:17:07Z</time>
      </trkpt>
      <trkpt lat="44.7540820" lon="7.2220140">
        <ele>1547.6</ele>
        <time>2017-07-25T11:17:08Z</time>
      </trkpt>
      <trkpt lat="44.7543080" lon="7.2220080">
        <ele>1548.4</ele>
        <time>2017-07-25T11:17:12Z</time>
      </trkpt>
      <trkpt lat="44.7544320" lon="7.2219900">
        <ele>1548.4</ele>
        <time>2017-07-25T11:17:14Z</time>
      </trkpt>
      <trkpt lat="44.7544950" lon="7.2219790">
        <ele>1548.6</ele>
        <time>2017-07-25T11:17:15Z</time>
      </trkpt>
      <trkpt lat="44.7545570" lon="7.2219630">
        <ele>1548.6</ele>
        <time>2017-07-25T11:17:16Z</time>
      </trkpt>
      <trkpt lat="44.7546170" lon="7.2219360">
        <ele>1548.6</ele>
        <time>2017-07-25T11:17:17Z</time>
      </trkpt>
      <trkpt lat="44.7549590" lon="7.2217120">
        <ele>1548.6</ele>
        <time>2017-07-25T11:17:23Z</time>
      </trkpt>
      <trkpt lat="44.7552850" lon="7.2214360">
        <ele>1547.8</ele>
        <time>2017-07-25T11:17:29Z</time>
      </trkpt>
      <trkpt lat="44.7555500" lon="7.2211830">
        <ele>1547.6</ele>
        <time>2017-07-25T11:17:34Z</time>
      </trkpt>
      <trkpt lat="44.7556050" lon="7.2211330">
        <ele>1547.4</ele>
        <time>2017-07-25T11:17:35Z</time>
      </trkpt>
      <trkpt lat="44.7557750" lon="7.2209720">
        <ele>1546.6</ele>
        <time>2017-07-25T11:17:38Z</time>
      </trkpt>
      <trkpt lat="44.7559620" lon="7.2208450">
        <ele>1546.0</ele>
        <time>2017-07-25T11:17:41Z</time>
      </trkpt>
      <trkpt lat="44.7560290" lon="7.2208120">
        <ele>1545.8</ele>
        <time>2017-07-25T11:17:42Z</time>
      </trkpt>
      <trkpt lat="44.7560960" lon="7.2207750">
        <ele>1545.4</ele>
        <time>2017-07-25T11:17:43Z</time>
      </trkpt>
      <trkpt lat="44.7561670" lon="7.2207460">
        <ele>1545.4</ele>
        <time>2017-07-25T11:17:44Z</time>
      </trkpt>
      <trkpt lat="44.7563880" lon="7.2206530">
        <ele>1544.6</ele>
        <time>2017-07-25T11:17:47Z</time>
      </trkpt>
      <trkpt lat="44.7564620" lon="7.2206140">
        <ele>1544.2</ele>
        <time>2017-07-25T11:17:48Z</time>
      </trkpt>
      <trkpt lat="44.7565380" lon="7.2205700">
        <ele>1544.0</ele>
        <time>2017-07-25T11:17:49Z</time>
      </trkpt>
      <trkpt lat="44.7566120" lon="7.2205150">
        <ele>1543.8</ele>
        <time>2017-07-25T11:17:50Z</time>
      </trkpt>
      <trkpt lat="44.7566860" lon="7.2204520">
        <ele>1543.4</ele>
        <time>2017-07-25T11:17:51Z</time>
      </trkpt>
      <trkpt lat="44.7567590" lon="7.2203840">
        <ele>1543.0</ele>
        <time>2017-07-25T11:17:52Z</time>
      </trkpt>
      <trkpt lat="44.7569060" lon="7.2202290">
        <ele>1541.8</ele>
        <time>2017-07-25T11:17:54Z</time>
      </trkpt>
      <trkpt lat="44.7570660" lon="7.2200740">
        <ele>1540.4</ele>
        <time>2017-07-25T11:17:56Z</time>
      </trkpt>
      <trkpt lat="44.7572240" lon="7.2198990">
        <ele>1539.2</ele>
        <time>2017-07-25T11:17:58Z</time>
      </trkpt>
      <trkpt lat="44.7573740" lon="7.2197140">
        <ele>1537.8</ele>
        <time>2017-07-25T11:18:00Z</time>
      </trkpt>
      <trkpt lat="44.7574400" lon="7.2196040">
        <ele>1537.6</ele>
        <time>2017-07-25T11:18:01Z</time>
      </trkpt>
      <trkpt lat="44.7575380" lon="7.2193820">
        <ele>1536.8</ele>
        <time>2017-07-25T11:18:03Z</time>
      </trkpt>
      <trkpt lat="44.7575660" lon="7.2192740">
        <ele>1536.4</ele>
        <time>2017-07-25T11:18:04Z</time>
      </trkpt>
      <trkpt lat="44.7575850" lon="7.2191720">
        <ele>1536.0</ele>
        <time>2017-07-25T11:18:05Z</time>
      </trkpt>
      <trkpt lat="44.7575960" lon="7.2190840">
        <ele>1535.6</ele>
        <time>2017-07-25T11:18:06Z</time>
      </trkpt>
      <trkpt lat="44.7575970" lon="7.2190090">
        <ele>1535.0</ele>
        <time>2017-07-25T11:18:07Z</time>
      </trkpt>
      <trkpt lat="44.7575850" lon="7.2189530">
        <ele>1534.2</ele>
        <time>2017-07-25T11:18:08Z</time>
      </trkpt>
      <trkpt lat="44.7575700" lon="7.2189350">
        <ele>1533.8</ele>
        <time>2017-07-25T11:18:09Z</time>
      </trkpt>
      <trkpt lat="44.7575870" lon="7.2189010">
        <ele>1529.0</ele>
        <time>2017-07-25T11:22:21Z</time>
      </trkpt>
      <trkpt lat="44.7575940" lon="7.2188580">
        <ele>1528.8</ele>
        <time>2017-07-25T11:22:22Z</time>
      </trkpt>
      <trkpt lat="44.7576530" lon="7.2186210">
        <ele>1528.2</ele>
        <time>2017-07-25T11:22:26Z</time>
      </trkpt>
      <trkpt lat="44.7576600" lon="7.2185480">
        <ele>1528.2</ele>
        <time>2017-07-25T11:22:27Z</time>
      </trkpt>
      <trkpt lat="44.7576740" lon="7.2183880">
        <ele>1528.2</ele>
        <time>2017-07-25T11:22:29Z</time>
      </trkpt>
      <trkpt lat="44.7577110" lon="7.2180660">
        <ele>1528.8</ele>
        <time>2017-07-25T11:22:33Z</time>
      </trkpt>
      <trkpt lat="44.7577410" lon="7.2179980">
        <ele>1529.2</ele>
        <time>2017-07-25T11:22:34Z</time>
      </trkpt>
      <trkpt lat="44.7577580" lon="7.2178470">
        <ele>1529.4</ele>
        <time>2017-07-25T11:22:36Z</time>
      </trkpt>
      <trkpt lat="44.7577380" lon="7.2177670">
        <ele>1529.6</ele>
        <time>2017-07-25T11:22:37Z</time>
      </trkpt>
      <trkpt lat="44.7576050" lon="7.2175430">
        <ele>1529.2</ele>
        <time>2017-07-25T11:22:40Z</time>
      </trkpt>
      <trkpt lat="44.7573930" lon="7.2173630">
        <ele>1528.8</ele>
        <time>2017-07-25T11:22:43Z</time>
      </trkpt>
      <trkpt lat="44.7573110" lon="7.2173090">
        <ele>1528.4</ele>
        <time>2017-07-25T11:22:44Z</time>
      </trkpt>
      <trkpt lat="44.7570230" lon="7.2171710">
        <ele>1527.8</ele>
        <time>2017-07-25T11:22:47Z</time>
      </trkpt>
      <trkpt lat="44.7569160" lon="7.2171410">
        <ele>1526.4</ele>
        <time>2017-07-25T11:22:48Z</time>
      </trkpt>
      <trkpt lat="44.7566980" lon="7.2171090">
        <ele>1525.4</ele>
        <time>2017-07-25T11:22:50Z</time>
      </trkpt>
      <trkpt lat="44.7565010" lon="7.2170600">
        <ele>1524.8</ele>
        <time>2017-07-25T11:22:52Z</time>
      </trkpt>
      <trkpt lat="44.7563990" lon="7.2170220">
        <ele>1524.4</ele>
        <time>2017-07-25T11:22:53Z</time>
      </trkpt>
      <trkpt lat="44.7561850" lon="7.2169320">
        <ele>1523.2</ele>
        <time>2017-07-25T11:22:55Z</time>
      </trkpt>
      <trkpt lat="44.7560750" lon="7.2168790">
        <ele>1522.0</ele>
        <time>2017-07-25T11:22:56Z</time>
      </trkpt>
      <trkpt lat="44.7559630" lon="7.2168250">
        <ele>1520.8</ele>
        <time>2017-07-25T11:22:57Z</time>
      </trkpt>
      <trkpt lat="44.7558500" lon="7.2167830">
        <ele>1519.8</ele>
        <time>2017-07-25T11:22:58Z</time>
      </trkpt>
      <trkpt lat="44.7556320" lon="7.2167080">
        <ele>1518.0</ele>
        <time>2017-07-25T11:23:00Z</time>
      </trkpt>
      <trkpt lat="44.7555210" lon="7.2166850">
        <ele>1517.2</ele>
        <time>2017-07-25T11:23:01Z</time>
      </trkpt>
      <trkpt lat="44.7554100" lon="7.2166670">
        <ele>1516.2</ele>
        <time>2017-07-25T11:23:02Z</time>
      </trkpt>
      <trkpt lat="44.7553000" lon="7.2166440">
        <ele>1515.0</ele>
        <time>2017-07-25T11:23:03Z</time>
      </trkpt>
      <trkpt lat="44.7551960" lon="7.2166180">
        <ele>1514.0</ele>
        <time>2017-07-25T11:23:04Z</time>
      </trkpt>
      <trkpt lat="44.7550920" lon="7.2166010">
        <ele>1513.0</ele>
        <time>2017-07-25T11:23:05Z</time>
      </trkpt>
      <trkpt lat="44.7549860" lon="7.2165890">
        <ele>1512.0</ele>
        <time>2017-07-25T11:23:06Z</time>
      </trkpt>
      <trkpt lat="44.7548790" lon="7.2165800">
        <ele>1511.0</ele>
        <time>2017-07-25T11:23:07Z</time>
      </trkpt>
      <trkpt lat="44.7547700" lon="7.2165620">
        <ele>1510.0</ele>
        <time>2017-07-25T11:23:08Z</time>
      </trkpt>
      <trkpt lat="44.7546610" lon="7.2165340">
        <ele>1508.8</ele>
        <time>2017-07-25T11:23:09Z</time>
      </trkpt>
      <trkpt lat="44.7545540" lon="7.2165090">
        <ele>1507.6</ele>
        <time>2017-07-25T11:23:10Z</time>
      </trkpt>
      <trkpt lat="44.7544550" lon="7.2164830">
        <ele>1506.2</ele>
        <time>2017-07-25T11:23:11Z</time>
      </trkpt>
      <trkpt lat="44.7543520" lon="7.2164520">
        <ele>1503.8</ele>
        <time>2017-07-25T11:23:12Z</time>
      </trkpt>
      <trkpt lat="44.7542470" lon="7.2164180">
        <ele>1502.6</ele>
        <time>2017-07-25T11:23:13Z</time>
      </trkpt>
      <trkpt lat="44.7541390" lon="7.2163890">
        <ele>1501.4</ele>
        <time>2017-07-25T11:23:14Z</time>
      </trkpt>
      <trkpt lat="44.7539410" lon="7.2163220">
        <ele>1499.4</ele>
        <time>2017-07-25T11:23:16Z</time>
      </trkpt>
      <trkpt lat="44.7538480" lon="7.2162840">
        <ele>1498.0</ele>
        <time>2017-07-25T11:23:17Z</time>
      </trkpt>
      <trkpt lat="44.7537620" lon="7.2162460">
        <ele>1496.6</ele>
        <time>2017-07-25T11:23:18Z</time>
      </trkpt>
      <trkpt lat="44.7536930" lon="7.2161920">
        <ele>1495.4</ele>
        <time>2017-07-25T11:23:19Z</time>
      </trkpt>
      <trkpt lat="44.7536380" lon="7.2161120">
        <ele>1494.2</ele>
        <time>2017-07-25T11:23:20Z</time>
      </trkpt>
      <trkpt lat="44.7535840" lon="7.2160310">
        <ele>1493.0</ele>
        <time>2017-07-25T11:23:21Z</time>
      </trkpt>
      <trkpt lat="44.7535280" lon="7.2159640">
        <ele>1492.0</ele>
        <time>2017-07-25T11:23:22Z</time>
      </trkpt>
      <trkpt lat="44.7533900" lon="7.2159130">
        <ele>1490.2</ele>
        <time>2017-07-25T11:23:24Z</time>
      </trkpt>
      <trkpt lat="44.7532150" lon="7.2159220">
        <ele>1488.2</ele>
        <time>2017-07-25T11:23:26Z</time>
      </trkpt>
      <trkpt lat="44.7531220" lon="7.2159250">
        <ele>1486.8</ele>
        <time>2017-07-25T11:23:27Z</time>
      </trkpt>
      <trkpt lat="44.7530330" lon="7.2159120">
        <ele>1485.8</ele>
        <time>2017-07-25T11:23:28Z</time>
      </trkpt>
      <trkpt lat="44.7528720" lon="7.2158390">
        <ele>1484.0</ele>
        <time>2017-07-25T11:23:30Z</time>
      </trkpt>
      <trkpt lat="44.7527350" lon="7.2157080">
        <ele>1481.6</ele>
        <time>2017-07-25T11:23:32Z</time>
      </trkpt>
      <trkpt lat="44.7526700" lon="7.2156370">
        <ele>1480.2</ele>
        <time>2017-07-25T11:23:33Z</time>
      </trkpt>
      <trkpt lat="44.7526020" lon="7.2155790">
        <ele>1479.0</ele>
        <time>2017-07-25T11:23:34Z</time>
      </trkpt>
      <trkpt lat="44.7524440" lon="7.2155090">
        <ele>1476.2</ele>
        <time>2017-07-25T11:23:36Z</time>
      </trkpt>
      <trkpt lat="44.7523490" lon="7.2154920">
        <ele>1474.8</ele>
        <time>2017-07-25T11:23:37Z</time>
      </trkpt>
      <trkpt lat="44.7522470" lon="7.2154800">
        <ele>1473.6</ele>
        <time>2017-07-25T11:23:38Z</time>
      </trkpt>
      <trkpt lat="44.7521420" lon="7.2154780">
        <ele>1472.6</ele>
        <time>2017-07-25T11:23:39Z</time>
      </trkpt>
      <trkpt lat="44.7520390" lon="7.2154770">
        <ele>1471.2</ele>
        <time>2017-07-25T11:23:40Z</time>
      </trkpt>
      <trkpt lat="44.7519370" lon="7.2154680">
        <ele>1470.0</ele>
        <time>2017-07-25T11:23:41Z</time>
      </trkpt>
      <trkpt lat="44.7518290" lon="7.2154480">
        <ele>1468.6</ele>
        <time>2017-07-25T11:23:42Z</time>
      </trkpt>
      <trkpt lat="44.7517160" lon="7.2154130">
        <ele>1467.4</ele>
        <time>2017-07-25T11:23:43Z</time>
      </trkpt>
      <trkpt lat="44.7514900" lon="7.2153490">
        <ele>1465.4</ele>
        <time>2017-07-25T11:23:45Z</time>
      </trkpt>
      <trkpt lat="44.7513800" lon="7.2153260">
        <ele>1464.2</ele>
        <time>2017-07-25T11:23:46Z</time>
      </trkpt>
      <trkpt lat="44.7511740" lon="7.2152900">
        <ele>1462.4</ele>
        <time>2017-07-25T11:23:48Z</time>
      </trkpt>
      <trkpt lat="44.7509770" lon="7.2152550">
        <ele>1460.6</ele>
        <time>2017-07-25T11:23:50Z</time>
      </trkpt>
      <trkpt lat="44.7508810" lon="7.2152470">
        <ele>1459.2</ele>
        <time>2017-07-25T11:23:51Z</time>
      </trkpt>
      <trkpt lat="44.7507020" lon="7.2152320">
        <ele>1457.0</ele>
        <time>2017-07-25T11:23:53Z</time>
      </trkpt>
      <trkpt lat="44.7505850" lon="7.2152260">
        <ele>1455.4</ele>
        <time>2017-07-25T11:23:55Z</time>
      </trkpt>
      <trkpt lat="44.7505310" lon="7.2152260">
        <ele>1453.6</ele>
        <time>2017-07-25T11:23:57Z</time>
      </trkpt>
      <trkpt lat="44.7505380" lon="7.2152180">
        <ele>1452.8</ele>
        <time>2017-07-25T11:23:58Z</time>
      </trkpt>
      <trkpt lat="44.7505560" lon="7.2151940">
        <ele>1452.4</ele>
        <time>2017-07-25T11:23:59Z</time>
      </trkpt>
      <trkpt lat="44.7505990" lon="7.2151380">
        <ele>1451.0</ele>
        <time>2017-07-25T11:24:01Z</time>
      </trkpt>
      <trkpt lat="44.7506810" lon="7.2150730">
        <ele>1450.4</ele>
        <time>2017-07-25T11:24:03Z</time>
      </trkpt>
      <trkpt lat="44.7507350" lon="7.2150480">
        <ele>1450.2</ele>
        <time>2017-07-25T11:24:04Z</time>
      </trkpt>
      <trkpt lat="44.7508490" lon="7.2150000">
        <ele>1449.8</ele>
        <time>2017-07-25T11:24:06Z</time>
      </trkpt>
      <trkpt lat="44.7509080" lon="7.2149690">
        <ele>1449.8</ele>
        <time>2017-07-25T11:24:07Z</time>
      </trkpt>
      <trkpt lat="44.7510060" lon="7.2149040">
        <ele>1449.0</ele>
        <time>2017-07-25T11:24:09Z</time>
      </trkpt>
      <trkpt lat="44.7510280" lon="7.2148610">
        <ele>1448.6</ele>
        <time>2017-07-25T11:24:10Z</time>
      </trkpt>
      <trkpt lat="44.7510380" lon="7.2148260">
        <ele>1448.0</ele>
        <time>2017-07-25T11:24:11Z</time>
      </trkpt>
      <trkpt lat="44.7509450" lon="7.2147830">
        <ele>1447.2</ele>
        <time>2017-07-25T11:24:13Z</time>
      </trkpt>
      <trkpt lat="44.7508180" lon="7.2147610">
        <ele>1446.0</ele>
        <time>2017-07-25T11:24:15Z</time>
      </trkpt>
      <trkpt lat="44.7506790" lon="7.2148100">
        <ele>1444.4</ele>
        <time>2017-07-25T11:24:17Z</time>
      </trkpt>
      <trkpt lat="44.7505380" lon="7.2149140">
        <ele>1443.2</ele>
        <time>2017-07-25T11:24:19Z</time>
      </trkpt>
      <trkpt lat="44.7504590" lon="7.2149660">
        <ele>1442.4</ele>
        <time>2017-07-25T11:24:20Z</time>
      </trkpt>
      <trkpt lat="44.7503770" lon="7.2150100">
        <ele>1441.8</ele>
        <time>2017-07-25T11:24:21Z</time>
      </trkpt>
      <trkpt lat="44.7501950" lon="7.2150640">
        <ele>1440.2</ele>
        <time>2017-07-25T11:24:23Z</time>
      </trkpt>
      <trkpt lat="44.7501050" lon="7.2150950">
        <ele>1438.2</ele>
        <time>2017-07-25T11:24:24Z</time>
      </trkpt>
      <trkpt lat="44.7500140" lon="7.2151330">
        <ele>1437.6</ele>
        <time>2017-07-25T11:24:25Z</time>
      </trkpt>
      <trkpt lat="44.7499210" lon="7.2151770">
        <ele>1436.8</ele>
        <time>2017-07-25T11:24:26Z</time>
      </trkpt>
      <trkpt lat="44.7498320" lon="7.2152400">
        <ele>1436.0</ele>
        <time>2017-07-25T11:24:27Z</time>
      </trkpt>
      <trkpt lat="44.7497480" lon="7.2153050">
        <ele>1435.2</ele>
        <time>2017-07-25T11:24:28Z</time>
      </trkpt>
      <trkpt lat="44.7496660" lon="7.2153730">
        <ele>1434.0</ele>
        <time>2017-07-25T11:24:29Z</time>
      </trkpt>
      <trkpt lat="44.7495010" lon="7.2155050">
        <ele>1432.6</ele>
        <time>2017-07-25T11:24:31Z</time>
      </trkpt>
      <trkpt lat="44.7494180" lon="7.2155420">
        <ele>1432.2</ele>
        <time>2017-07-25T11:24:32Z</time>
      </trkpt>
      <trkpt lat="44.7493280" lon="7.2155700">
        <ele>1431.2</ele>
        <time>2017-07-25T11:24:33Z</time>
      </trkpt>
      <trkpt lat="44.7491570" lon="7.2156090">
        <ele>1430.0</ele>
        <time>2017-07-25T11:24:35Z</time>
      </trkpt>
      <trkpt lat="44.7490860" lon="7.2156010">
        <ele>1429.0</ele>
        <time>2017-07-25T11:24:36Z</time>
      </trkpt>
      <trkpt lat="44.7490370" lon="7.2155220">
        <ele>1428.2</ele>
        <time>2017-07-25T11:24:37Z</time>
      </trkpt>
      <trkpt lat="44.7489480" lon="7.2153370">
        <ele>1426.8</ele>
        <time>2017-07-25T11:24:39Z</time>
      </trkpt>
      <trkpt lat="44.7489000" lon="7.2152480">
        <ele>1425.6</ele>
        <time>2017-07-25T11:24:40Z</time>
      </trkpt>
      <trkpt lat="44.7488500" lon="7.2151570">
        <ele>1424.4</ele>
        <time>2017-07-25T11:24:41Z</time>
      </trkpt>
      <trkpt lat="44.7487510" lon="7.2149590">
        <ele>1423.0</ele>
        <time>2017-07-25T11:24:43Z</time>
      </trkpt>
      <trkpt lat="44.7486640" lon="7.2147610">
        <ele>1421.0</ele>
        <time>2017-07-25T11:24:45Z</time>
      </trkpt>
      <trkpt lat="44.7486390" lon="7.2146530">
        <ele>1419.8</ele>
        <time>2017-07-25T11:24:46Z</time>
      </trkpt>
      <trkpt lat="44.7486290" lon="7.2145470">
        <ele>1418.8</ele>
        <time>2017-07-25T11:24:47Z</time>
      </trkpt>
      <trkpt lat="44.7486500" lon="7.2144330">
        <ele>1417.0</ele>
        <time>2017-07-25T11:24:48Z</time>
      </trkpt>
      <trkpt lat="44.7486770" lon="7.2143300">
        <ele>1416.0</ele>
        <time>2017-07-25T11:24:49Z</time>
      </trkpt>
      <trkpt lat="44.7487190" lon="7.2142250">
        <ele>1415.0</ele>
        <time>2017-07-25T11:24:50Z</time>
      </trkpt>
      <trkpt lat="44.7487710" lon="7.2140390">
        <ele>1413.6</ele>
        <time>2017-07-25T11:24:52Z</time>
      </trkpt>
      <trkpt lat="44.7487830" lon="7.2139480">
        <ele>1413.0</ele>
        <time>2017-07-25T11:24:53Z</time>
      </trkpt>
      <trkpt lat="44.7487850" lon="7.2138630">
        <ele>1412.4</ele>
        <time>2017-07-25T11:24:54Z</time>
      </trkpt>
      <trkpt lat="44.7487730" lon="7.2137150">
        <ele>1410.6</ele>
        <time>2017-07-25T11:24:56Z</time>
      </trkpt>
      <trkpt lat="44.7487140" lon="7.2136600">
        <ele>1410.0</ele>
        <time>2017-07-25T11:24:57Z</time>
      </trkpt>
      <trkpt lat="44.7486480" lon="7.2136260">
        <ele>1409.4</ele>
        <time>2017-07-25T11:24:58Z</time>
      </trkpt>
      <trkpt lat="44.7485830" lon="7.2135920">
        <ele>1408.8</ele>
        <time>2017-07-25T11:24:59Z</time>
      </trkpt>
      <trkpt lat="44.7485240" lon="7.2135490">
        <ele>1408.2</ele>
        <time>2017-07-25T11:25:00Z</time>
      </trkpt>
      <trkpt lat="44.7484470" lon="7.2134440">
        <ele>1407.2</ele>
        <time>2017-07-25T11:25:02Z</time>
      </trkpt>
      <trkpt lat="44.7484340" lon="7.2133800">
        <ele>1406.6</ele>
        <time>2017-07-25T11:25:03Z</time>
      </trkpt>
      <trkpt lat="44.7484330" lon="7.2132620">
        <ele>1405.2</ele>
        <time>2017-07-25T11:25:05Z</time>
      </trkpt>
      <trkpt lat="44.7485220" lon="7.2130280">
        <ele>1404.0</ele>
        <time>2017-07-25T11:25:08Z</time>
      </trkpt>
      <trkpt lat="44.7486420" lon="7.2127140">
        <ele>1402.6</ele>
        <time>2017-07-25T11:25:11Z</time>
      </trkpt>
      <trkpt lat="44.7486740" lon="7.2126010">
        <ele>1401.6</ele>
        <time>2017-07-25T11:25:12Z</time>
      </trkpt>
      <trkpt lat="44.7488300" lon="7.2121450">
        <ele>1400.6</ele>
        <time>2017-07-25T11:25:16Z</time>
      </trkpt>
      <trkpt lat="44.7488600" lon="7.2120350">
        <ele>1400.2</ele>
        <time>2017-07-25T11:25:17Z</time>
      </trkpt>
      <trkpt lat="44.7489830" lon="7.2117490">
        <ele>1399.6</ele>
        <time>2017-07-25T11:25:20Z</time>
      </trkpt>
      <trkpt lat="44.7490560" lon="7.2115670">
        <ele>1399.8</ele>
        <time>2017-07-25T11:25:22Z</time>
      </trkpt>
      <trkpt lat="44.7490880" lon="7.2113570">
        <ele>1399.2</ele>
        <time>2017-07-25T11:25:24Z</time>
      </trkpt>
      <trkpt lat="44.7491030" lon="7.2111430">
        <ele>1398.4</ele>
        <time>2017-07-25T11:25:26Z</time>
      </trkpt>
      <trkpt lat="44.7491040" lon="7.2110360">
        <ele>1398.2</ele>
        <time>2017-07-25T11:25:27Z</time>
      </trkpt>
      <trkpt lat="44.7490950" lon="7.2109220">
        <ele>1397.8</ele>
        <time>2017-07-25T11:25:28Z</time>
      </trkpt>
      <trkpt lat="44.7490870" lon="7.2106770">
        <ele>1397.4</ele>
        <time>2017-07-25T11:25:30Z</time>
      </trkpt>
      <trkpt lat="44.7491090" lon="7.2105620">
        <ele>1396.8</ele>
        <time>2017-07-25T11:25:31Z</time>
      </trkpt>
      <trkpt lat="44.7491790" lon="7.2103680">
        <ele>1395.8</ele>
        <time>2017-07-25T11:25:33Z</time>
      </trkpt>
      <trkpt lat="44.7492020" lon="7.2102650">
        <ele>1395.6</ele>
        <time>2017-07-25T11:25:34Z</time>
      </trkpt>
      <trkpt lat="44.7492330" lon="7.2100460">
        <ele>1395.0</ele>
        <time>2017-07-25T11:25:36Z</time>
      </trkpt>
      <trkpt lat="44.7492370" lon="7.2099390">
        <ele>1394.6</ele>
        <time>2017-07-25T11:25:37Z</time>
      </trkpt>
      <trkpt lat="44.7492220" lon="7.2096160">
        <ele>1393.4</ele>
        <time>2017-07-25T11:25:40Z</time>
      </trkpt>
      <trkpt lat="44.7492010" lon="7.2095050">
        <ele>1393.2</ele>
        <time>2017-07-25T11:25:41Z</time>
      </trkpt>
      <trkpt lat="44.7491450" lon="7.2092920">
        <ele>1392.8</ele>
        <time>2017-07-25T11:25:43Z</time>
      </trkpt>
      <trkpt lat="44.7491020" lon="7.2092020">
        <ele>1392.4</ele>
        <time>2017-07-25T11:25:44Z</time>
      </trkpt>
      <trkpt lat="44.7490580" lon="7.2091200">
        <ele>1392.2</ele>
        <time>2017-07-25T11:25:45Z</time>
      </trkpt>
      <trkpt lat="44.7489550" lon="7.2089950">
        <ele>1391.8</ele>
        <time>2017-07-25T11:25:47Z</time>
      </trkpt>
      <trkpt lat="44.7489050" lon="7.2089430">
        <ele>1391.8</ele>
        <time>2017-07-25T11:25:48Z</time>
      </trkpt>
      <trkpt lat="44.7488550" lon="7.2088920">
        <ele>1391.6</ele>
        <time>2017-07-25T11:25:49Z</time>
      </trkpt>
      <trkpt lat="44.7488070" lon="7.2088480">
        <ele>1391.4</ele>
        <time>2017-07-25T11:25:50Z</time>
      </trkpt>
      <trkpt lat="44.7486550" lon="7.2087370">
        <ele>1391.4</ele>
        <time>2017-07-25T11:25:53Z</time>
      </trkpt>
      <trkpt lat="44.7486060" lon="7.2086950">
        <ele>1391.2</ele>
        <time>2017-07-25T11:25:54Z</time>
      </trkpt>
      <trkpt lat="44.7485660" lon="7.2086460">
        <ele>1391.2</ele>
        <time>2017-07-25T11:25:55Z</time>
      </trkpt>
      <trkpt lat="44.7485450" lon="7.2084880">
        <ele>1391.0</ele>
        <time>2017-07-25T11:25:58Z</time>
      </trkpt>
      <trkpt lat="44.7486140" lon="7.2083420">
        <ele>1391.8</ele>
        <time>2017-07-25T11:26:01Z</time>
      </trkpt>
      <trkpt lat="44.7486430" lon="7.2082950">
        <ele>1392.2</ele>
        <time>2017-07-25T11:26:02Z</time>
      </trkpt>
      <trkpt lat="44.7486750" lon="7.2082500">
        <ele>1392.4</ele>
        <time>2017-07-25T11:26:03Z</time>
      </trkpt>
      <trkpt lat="44.7487930" lon="7.2081500">
        <ele>1393.4</ele>
        <time>2017-07-25T11:26:06Z</time>
      </trkpt>
      <trkpt lat="44.7488360" lon="7.2081250">
        <ele>1393.8</ele>
        <time>2017-07-25T11:26:07Z</time>
      </trkpt>
      <trkpt lat="44.7488820" lon="7.2081040">
        <ele>1394.0</ele>
        <time>2017-07-25T11:26:08Z</time>
      </trkpt>
      <trkpt lat="44.7490270" lon="7.2080600">
        <ele>1395.0</ele>
        <time>2017-07-25T11:26:11Z</time>
      </trkpt>
      <trkpt lat="44.7490760" lon="7.2080490">
        <ele>1395.4</ele>
        <time>2017-07-25T11:26:12Z</time>
      </trkpt>
      <trkpt lat="44.7492260" lon="7.2080240">
        <ele>1396.2</ele>
        <time>2017-07-25T11:26:15Z</time>
      </trkpt>
      <trkpt lat="44.7493730" lon="7.2079760">
        <ele>1397.0</ele>
        <time>2017-07-25T11:26:18Z</time>
      </trkpt>
      <trkpt lat="44.7494740" lon="7.2079550">
        <ele>1397.6</ele>
        <time>2017-07-25T11:26:20Z</time>
      </trkpt>
      <trkpt lat="44.7496680" lon="7.2079350">
        <ele>1398.4</ele>
        <time>2017-07-25T11:26:24Z</time>
      </trkpt>
      <trkpt lat="44.7497640" lon="7.2079140">
        <ele>1398.6</ele>
        <time>2017-07-25T11:26:26Z</time>
      </trkpt>
      <trkpt lat="44.7499500" lon="7.2078660">
        <ele>1399.4</ele>
        <time>2017-07-25T11:26:30Z</time>
      </trkpt>
      <trkpt lat="44.7499930" lon="7.2078440">
        <ele>1399.6</ele>
        <time>2017-07-25T11:26:31Z</time>
      </trkpt>
      <trkpt lat="44.7501930" lon="7.2077270">
        <ele>1400.0</ele>
        <time>2017-07-25T11:26:36Z</time>
      </trkpt>
      <trkpt lat="44.7504590" lon="7.2075750">
        <ele>1400.4</ele>
        <time>2017-07-25T11:26:42Z</time>
      </trkpt>
      <trkpt lat="44.7505130" lon="7.2075280">
        <ele>1400.6</ele>
        <time>2017-07-25T11:26:43Z</time>
      </trkpt>
      <trkpt lat="44.7505690" lon="7.2074710">
        <ele>1400.8</ele>
        <time>2017-07-25T11:26:44Z</time>
      </trkpt>
      <trkpt lat="44.7506910" lon="7.2073320">
        <ele>1400.4</ele>
        <time>2017-07-25T11:26:46Z</time>
      </trkpt>
      <trkpt lat="44.7508210" lon="7.2071750">
        <ele>1399.0</ele>
        <time>2017-07-25T11:26:48Z</time>
      </trkpt>
      <trkpt lat="44.7509660" lon="7.2070400">
        <ele>1397.8</ele>
        <time>2017-07-25T11:26:50Z</time>
      </trkpt>
      <trkpt lat="44.7510540" lon="7.2069850">
        <ele>1397.2</ele>
        <time>2017-07-25T11:26:51Z</time>
      </trkpt>
      <trkpt lat="44.7511450" lon="7.2069320">
        <ele>1396.6</ele>
        <time>2017-07-25T11:26:52Z</time>
      </trkpt>
      <trkpt lat="44.7513000" lon="7.2067990">
        <ele>1395.6</ele>
        <time>2017-07-25T11:26:54Z</time>
      </trkpt>
      <trkpt lat="44.7513660" lon="7.2067140">
        <ele>1395.4</ele>
        <time>2017-07-25T11:26:55Z</time>
      </trkpt>
      <trkpt lat="44.7515590" lon="7.2064650">
        <ele>1394.4</ele>
        <time>2017-07-25T11:26:58Z</time>
      </trkpt>
      <trkpt lat="44.7518100" lon="7.2061260">
        <ele>1393.0</ele>
        <time>2017-07-25T11:27:02Z</time>
      </trkpt>
      <trkpt lat="44.7519980" lon="7.2058750">
        <ele>1391.8</ele>
        <time>2017-07-25T11:27:05Z</time>
      </trkpt>
      <trkpt lat="44.7521130" lon="7.2057220">
        <ele>1390.8</ele>
        <time>2017-07-25T11:27:07Z</time>
      </trkpt>
      <trkpt lat="44.7521730" lon="7.2056430">
        <ele>1390.2</ele>
        <time>2017-07-25T11:27:08Z</time>
      </trkpt>
      <trkpt lat="44.7522860" lon="7.2054740">
        <ele>1389.0</ele>
        <time>2017-07-25T11:27:10Z</time>
      </trkpt>
      <trkpt lat="44.7523810" lon="7.2053290">
        <ele>1388.0</ele>
        <time>2017-07-25T11:27:12Z</time>
      </trkpt>
      <trkpt lat="44.7524300" lon="7.2051870">
        <ele>1386.8</ele>
        <time>2017-07-25T11:27:14Z</time>
      </trkpt>
      <trkpt lat="44.7524920" lon="7.2049870">
        <ele>1386.2</ele>
        <time>2017-07-25T11:27:16Z</time>
      </trkpt>
      <trkpt lat="44.7525190" lon="7.2048780">
        <ele>1385.6</ele>
        <time>2017-07-25T11:27:17Z</time>
      </trkpt>
      <trkpt lat="44.7525690" lon="7.2046790">
        <ele>1384.4</ele>
        <time>2017-07-25T11:27:19Z</time>
      </trkpt>
      <trkpt lat="44.7526220" lon="7.2045250">
        <ele>1383.8</ele>
        <time>2017-07-25T11:27:21Z</time>
      </trkpt>
      <trkpt lat="44.7526680" lon="7.2043740">
        <ele>1383.4</ele>
        <time>2017-07-25T11:27:23Z</time>
      </trkpt>
      <trkpt lat="44.7527920" lon="7.2040120">
        <ele>1382.6</ele>
        <time>2017-07-25T11:27:28Z</time>
      </trkpt>
      <trkpt lat="44.7528280" lon="7.2039490">
        <ele>1382.4</ele>
        <time>2017-07-25T11:27:29Z</time>
      </trkpt>
      <trkpt lat="44.7529180" lon="7.2038250">
        <ele>1381.8</ele>
        <time>2017-07-25T11:27:31Z</time>
      </trkpt>
      <trkpt lat="44.7529660" lon="7.2037670">
        <ele>1382.0</ele>
        <time>2017-07-25T11:27:32Z</time>
      </trkpt>
      <trkpt lat="44.7530530" lon="7.2036430">
        <ele>1381.4</ele>
        <time>2017-07-25T11:27:34Z</time>
      </trkpt>
      <trkpt lat="44.7530840" lon="7.2035680">
        <ele>1380.6</ele>
        <time>2017-07-25T11:27:35Z</time>
      </trkpt>
      <trkpt lat="44.7531070" lon="7.2034880">
        <ele>1379.6</ele>
        <time>2017-07-25T11:27:36Z</time>
      </trkpt>
      <trkpt lat="44.7531250" lon="7.2034050">
        <ele>1379.2</ele>
        <time>2017-07-25T11:27:37Z</time>
      </trkpt>
      <trkpt lat="44.7531260" lon="7.2032310">
        <ele>1377.6</ele>
        <time>2017-07-25T11:27:39Z</time>
      </trkpt>
      <trkpt lat="44.7531260" lon="7.2031470">
        <ele>1376.8</ele>
        <time>2017-07-25T11:27:40Z</time>
      </trkpt>
      <trkpt lat="44.7531290" lon="7.2030650">
        <ele>1376.0</ele>
        <time>2017-07-25T11:27:41Z</time>
      </trkpt>
      <trkpt lat="44.7531470" lon="7.2029890">
        <ele>1375.2</ele>
        <time>2017-07-25T11:27:42Z</time>
      </trkpt>
      <trkpt lat="44.7531840" lon="7.2029290">
        <ele>1374.2</ele>
        <time>2017-07-25T11:27:43Z</time>
      </trkpt>
      <trkpt lat="44.7532930" lon="7.2028530">
        <ele>1372.6</ele>
        <time>2017-07-25T11:27:45Z</time>
      </trkpt>
      <trkpt lat="44.7533570" lon="7.2028320">
        <ele>1372.0</ele>
        <time>2017-07-25T11:27:46Z</time>
      </trkpt>
      <trkpt lat="44.7534200" lon="7.2028210">
        <ele>1371.4</ele>
        <time>2017-07-25T11:27:47Z</time>
      </trkpt>
      <trkpt lat="44.7534760" lon="7.2028150">
        <ele>1371.2</ele>
        <time>2017-07-25T11:27:48Z</time>
      </trkpt>
      <trkpt lat="44.7535560" lon="7.2028270">
        <ele>1370.4</ele>
        <time>2017-07-25T11:27:50Z</time>
      </trkpt>
      <trkpt lat="44.7536380" lon="7.2028790">
        <ele>1370.2</ele>
        <time>2017-07-25T11:27:53Z</time>
      </trkpt>
      <trkpt lat="44.7536830" lon="7.2029050">
        <ele>1370.0</ele>
        <time>2017-07-25T11:27:55Z</time>
      </trkpt>
      <trkpt lat="44.7537260" lon="7.2029160">
        <ele>1370.2</ele>
        <time>2017-07-25T11:27:57Z</time>
      </trkpt>
      <trkpt lat="44.7537730" lon="7.2029100">
        <ele>1370.4</ele>
        <time>2017-07-25T11:27:59Z</time>
      </trkpt>
      <trkpt lat="44.7537950" lon="7.2029000">
        <ele>1370.6</ele>
        <time>2017-07-25T11:28:00Z</time>
      </trkpt>
      <trkpt lat="44.7538360" lon="7.2028800">
        <ele>1371.0</ele>
        <time>2017-07-25T11:28:02Z</time>
      </trkpt>
      <trkpt lat="44.7538640" lon="7.2028470">
        <ele>1371.2</ele>
        <time>2017-07-25T11:28:04Z</time>
      </trkpt>
      <trkpt lat="44.7538750" lon="7.2027960">
        <ele>1371.6</ele>
        <time>2017-07-25T11:28:06Z</time>
      </trkpt>
      <trkpt lat="44.7538630" lon="7.2027160">
        <ele>1372.2</ele>
        <time>2017-07-25T11:28:09Z</time>
      </trkpt>
      <trkpt lat="44.7538410" lon="7.2026530">
        <ele>1372.4</ele>
        <time>2017-07-25T11:28:11Z</time>
      </trkpt>
      <trkpt lat="44.7538260" lon="7.2026210">
        <ele>1372.6</ele>
        <time>2017-07-25T11:28:12Z</time>
      </trkpt>
      <trkpt lat="44.7537440" lon="7.2025200">
        <ele>1373.0</ele>
        <time>2017-07-25T11:28:15Z</time>
      </trkpt>
      <trkpt lat="44.7537030" lon="7.2024900">
        <ele>1373.2</ele>
        <time>2017-07-25T11:28:16Z</time>
      </trkpt>
      <trkpt lat="44.7536120" lon="7.2024230">
        <ele>1373.2</ele>
        <time>2017-07-25T11:28:18Z</time>
      </trkpt>
      <trkpt lat="44.7534670" lon="7.2022940">
        <ele>1373.4</ele>
        <time>2017-07-25T11:28:21Z</time>
      </trkpt>
      <trkpt lat="44.7532260" lon="7.2020140">
        <ele>1371.6</ele>
        <time>2017-07-25T11:28:26Z</time>
      </trkpt>
      <trkpt lat="44.7531780" lon="7.2019580">
        <ele>1371.2</ele>
        <time>2017-07-25T11:28:27Z</time>
      </trkpt>
      <trkpt lat="44.7531320" lon="7.2019050">
        <ele>1370.6</ele>
        <time>2017-07-25T11:28:28Z</time>
      </trkpt>
      <trkpt lat="44.7530660" lon="7.2018030">
        <ele>1369.2</ele>
        <time>2017-07-25T11:28:30Z</time>
      </trkpt>
      <trkpt lat="44.7530510" lon="7.2017490">
        <ele>1368.8</ele>
        <time>2017-07-25T11:28:31Z</time>
      </trkpt>
      <trkpt lat="44.7530530" lon="7.2017020">
        <ele>1368.2</ele>
        <time>2017-07-25T11:28:32Z</time>
      </trkpt>
      <trkpt lat="44.7530800" lon="7.2016490">
        <ele>1367.0</ele>
        <time>2017-07-25T11:28:34Z</time>
      </trkpt>
      <trkpt lat="44.7531790" lon="7.2017630">
        <ele>1365.6</ele>
        <time>2017-07-25T11:28:37Z</time>
      </trkpt>
      <trkpt lat="44.7532240" lon="7.2018070">
        <ele>1365.2</ele>
        <time>2017-07-25T11:28:38Z</time>
      </trkpt>
      <trkpt lat="44.7533160" lon="7.2018280">
        <ele>1364.4</ele>
        <time>2017-07-25T11:28:40Z</time>
      </trkpt>
      <trkpt lat="44.7533410" lon="7.2017970">
        <ele>1364.0</ele>
        <time>2017-07-25T11:28:41Z</time>
      </trkpt>
      <trkpt lat="44.7533520" lon="7.2017550">
        <ele>1363.6</ele>
        <time>2017-07-25T11:28:42Z</time>
      </trkpt>
      <trkpt lat="44.7533530" lon="7.2017110">
        <ele>1363.2</ele>
        <time>2017-07-25T11:28:43Z</time>
      </trkpt>
      <trkpt lat="44.7532700" lon="7.2015900">
        <ele>1362.2</ele>
        <time>2017-07-25T11:28:45Z</time>
      </trkpt>
      <trkpt lat="44.7532200" lon="7.2015210">
        <ele>1361.8</ele>
        <time>2017-07-25T11:28:46Z</time>
      </trkpt>
      <trkpt lat="44.7531530" lon="7.2014470">
        <ele>1361.4</ele>
        <time>2017-07-25T11:28:47Z</time>
      </trkpt>
      <trkpt lat="44.7530870" lon="7.2013720">
        <ele>1360.2</ele>
        <time>2017-07-25T11:28:48Z</time>
      </trkpt>
      <trkpt lat="44.7530190" lon="7.2012930">
        <ele>1359.6</ele>
        <time>2017-07-25T11:28:49Z</time>
      </trkpt>
      <trkpt lat="44.7529490" lon="7.2012120">
        <ele>1359.0</ele>
        <time>2017-07-25T11:28:50Z</time>
      </trkpt>
      <trkpt lat="44.7528060" lon="7.2010340">
        <ele>1357.6</ele>
        <time>2017-07-25T11:28:52Z</time>
      </trkpt>
      <trkpt lat="44.7527340" lon="7.2009460">
        <ele>1356.6</ele>
        <time>2017-07-25T11:28:53Z</time>
      </trkpt>
      <trkpt lat="44.7526630" lon="7.2008610">
        <ele>1355.4</ele>
        <time>2017-07-25T11:28:54Z</time>
      </trkpt>
      <trkpt lat="44.7525300" lon="7.2007080">
        <ele>1353.8</ele>
        <time>2017-07-25T11:28:56Z</time>
      </trkpt>
      <trkpt lat="44.7524180" lon="7.2005630">
        <ele>1351.4</ele>
        <time>2017-07-25T11:28:58Z</time>
      </trkpt>
      <trkpt lat="44.7523260" lon="7.2004220">
        <ele>1349.6</ele>
        <time>2017-07-25T11:29:00Z</time>
      </trkpt>
      <trkpt lat="44.7522740" lon="7.2002630">
        <ele>1347.6</ele>
        <time>2017-07-25T11:29:02Z</time>
      </trkpt>
      <trkpt lat="44.7522750" lon="7.2000950">
        <ele>1346.0</ele>
        <time>2017-07-25T11:29:04Z</time>
      </trkpt>
      <trkpt lat="44.7523030" lon="7.1999990">
        <ele>1345.4</ele>
        <time>2017-07-25T11:29:05Z</time>
      </trkpt>
      <trkpt lat="44.7523180" lon="7.1998890">
        <ele>1344.4</ele>
        <time>2017-07-25T11:29:06Z</time>
      </trkpt>
      <trkpt lat="44.7523360" lon="7.1996690">
        <ele>1342.4</ele>
        <time>2017-07-25T11:29:08Z</time>
      </trkpt>
      <trkpt lat="44.7523300" lon="7.1995680">
        <ele>1341.8</ele>
        <time>2017-07-25T11:29:09Z</time>
      </trkpt>
      <trkpt lat="44.7523250" lon="7.1994660">
        <ele>1340.8</ele>
        <time>2017-07-25T11:29:10Z</time>
      </trkpt>
      <trkpt lat="44.7523240" lon="7.1993660">
        <ele>1339.8</ele>
        <time>2017-07-25T11:29:11Z</time>
      </trkpt>
      <trkpt lat="44.7523400" lon="7.1992740">
        <ele>1338.0</ele>
        <time>2017-07-25T11:29:12Z</time>
      </trkpt>
      <trkpt lat="44.7523670" lon="7.1991950">
        <ele>1337.2</ele>
        <time>2017-07-25T11:29:13Z</time>
      </trkpt>
      <trkpt lat="44.7524170" lon="7.1991400">
        <ele>1336.8</ele>
        <time>2017-07-25T11:29:14Z</time>
      </trkpt>
      <trkpt lat="44.7525300" lon="7.1990220">
        <ele>1336.0</ele>
        <time>2017-07-25T11:29:16Z</time>
      </trkpt>
      <trkpt lat="44.7525930" lon="7.1989380">
        <ele>1335.2</ele>
        <time>2017-07-25T11:29:17Z</time>
      </trkpt>
      <trkpt lat="44.7526910" lon="7.1987540">
        <ele>1334.2</ele>
        <time>2017-07-25T11:29:19Z</time>
      </trkpt>
      <trkpt lat="44.7527350" lon="7.1986600">
        <ele>1333.6</ele>
        <time>2017-07-25T11:29:20Z</time>
      </trkpt>
      <trkpt lat="44.7528120" lon="7.1984550">
        <ele>1332.2</ele>
        <time>2017-07-25T11:29:22Z</time>
      </trkpt>
      <trkpt lat="44.7528830" lon="7.1982290">
        <ele>1331.0</ele>
        <time>2017-07-25T11:29:24Z</time>
      </trkpt>
      <trkpt lat="44.7529310" lon="7.1979750">
        <ele>1329.4</ele>
        <time>2017-07-25T11:29:26Z</time>
      </trkpt>
      <trkpt lat="44.7529720" lon="7.1975730">
        <ele>1327.8</ele>
        <time>2017-07-25T11:29:29Z</time>
      </trkpt>
      <trkpt lat="44.7529980" lon="7.1973230">
        <ele>1326.6</ele>
        <time>2017-07-25T11:29:31Z</time>
      </trkpt>
      <trkpt lat="44.7530200" lon="7.1971020">
        <ele>1325.4</ele>
        <time>2017-07-25T11:29:33Z</time>
      </trkpt>
      <trkpt lat="44.7530270" lon="7.1970030">
        <ele>1324.8</ele>
        <time>2017-07-25T11:29:34Z</time>
      </trkpt>
      <trkpt lat="44.7530380" lon="7.1968300">
        <ele>1323.8</ele>
        <time>2017-07-25T11:29:36Z</time>
      </trkpt>
      <trkpt lat="44.7530430" lon="7.1966010">
        <ele>1323.6</ele>
        <time>2017-07-25T11:29:39Z</time>
      </trkpt>
      <trkpt lat="44.7530400" lon="7.1964110">
        <ele>1324.0</ele>
        <time>2017-07-25T11:29:42Z</time>
      </trkpt>
      <trkpt lat="44.7530220" lon="7.1962550">
        <ele>1324.4</ele>
        <time>2017-07-25T11:29:45Z</time>
      </trkpt>
      <trkpt lat="44.7530280" lon="7.1961540">
        <ele>1324.8</ele>
        <time>2017-07-25T11:29:47Z</time>
      </trkpt>
      <trkpt lat="44.7530330" lon="7.1959520">
        <ele>1325.2</ele>
        <time>2017-07-25T11:29:51Z</time>
      </trkpt>
      <trkpt lat="44.7530360" lon="7.1958090">
        <ele>1325.4</ele>
        <time>2017-07-25T11:29:54Z</time>
      </trkpt>
      <trkpt lat="44.7530500" lon="7.1957210">
        <ele>1326.0</ele>
        <time>2017-07-25T11:29:56Z</time>
      </trkpt>
      <trkpt lat="44.7530660" lon="7.1956270">
        <ele>1326.2</ele>
        <time>2017-07-25T11:29:58Z</time>
      </trkpt>
      <trkpt lat="44.7530420" lon="7.1953740">
        <ele>1326.0</ele>
        <time>2017-07-25T11:30:03Z</time>
      </trkpt>
      <trkpt lat="44.7529570" lon="7.1950220">
        <ele>1325.2</ele>
        <time>2017-07-25T11:30:09Z</time>
      </trkpt>
      <trkpt lat="44.7529240" lon="7.1949720">
        <ele>1324.8</ele>
        <time>2017-07-25T11:30:10Z</time>
      </trkpt>
      <trkpt lat="44.7527890" lon="7.1947970">
        <ele>1324.4</ele>
        <time>2017-07-25T11:30:14Z</time>
      </trkpt>
      <trkpt lat="44.7525970" lon="7.1945100">
        <ele>1324.0</ele>
        <time>2017-07-25T11:30:20Z</time>
      </trkpt>
      <trkpt lat="44.7525370" lon="7.1944160">
        <ele>1323.8</ele>
        <time>2017-07-25T11:30:22Z</time>
      </trkpt>
      <trkpt lat="44.7524490" lon="7.1942500">
        <ele>1324.2</ele>
        <time>2017-07-25T11:30:26Z</time>
      </trkpt>
      <trkpt lat="44.7523600" lon="7.1940890">
        <ele>1324.8</ele>
        <time>2017-07-25T11:30:30Z</time>
      </trkpt>
      <trkpt lat="44.7523350" lon="7.1940510">
        <ele>1322.8</ele>
        <time>2017-07-25T11:30:31Z</time>
      </trkpt>
      <trkpt lat="44.7522890" lon="7.1939680">
        <ele>1323.0</ele>
        <time>2017-07-25T11:30:33Z</time>
      </trkpt>
      <trkpt lat="44.7522680" lon="7.1939210">
        <ele>1324.6</ele>
        <time>2017-07-25T11:30:34Z</time>
      </trkpt>
      <trkpt lat="44.7522220" lon="7.1938160">
        <ele>1325.4</ele>
        <time>2017-07-25T11:30:36Z</time>
      </trkpt>
      <trkpt lat="44.7522060" lon="7.1937560">
        <ele>1326.2</ele>
        <time>2017-07-25T11:30:37Z</time>
      </trkpt>
      <trkpt lat="44.7521730" lon="7.1936350">
        <ele>1326.4</ele>
        <time>2017-07-25T11:30:39Z</time>
      </trkpt>
      <trkpt lat="44.7521500" lon="7.1935760">
        <ele>1326.4</ele>
        <time>2017-07-25T11:30:40Z</time>
      </trkpt>
      <trkpt lat="44.7520650" lon="7.1933450">
        <ele>1327.0</ele>
        <time>2017-07-25T11:30:44Z</time>
      </trkpt>
      <trkpt lat="44.7520460" lon="7.1932920">
        <ele>1326.8</ele>
        <time>2017-07-25T11:30:45Z</time>
      </trkpt>
      <trkpt lat="44.7519130" lon="7.1931120">
        <ele>1327.2</ele>
        <time>2017-07-25T11:30:49Z</time>
      </trkpt>
      <trkpt lat="44.7517080" lon="7.1930170">
        <ele>1327.0</ele>
        <time>2017-07-25T11:30:53Z</time>
      </trkpt>
      <trkpt lat="44.7516530" lon="7.1929980">
        <ele>1327.2</ele>
        <time>2017-07-25T11:30:54Z</time>
      </trkpt>
      <trkpt lat="44.7515980" lon="7.1929760">
        <ele>1327.2</ele>
        <time>2017-07-25T11:30:55Z</time>
      </trkpt>
      <trkpt lat="44.7513300" lon="7.1928540">
        <ele>1327.2</ele>
        <time>2017-07-25T11:31:00Z</time>
      </trkpt>
      <trkpt lat="44.7511550" lon="7.1927990">
        <ele>1327.4</ele>
        <time>2017-07-25T11:31:03Z</time>
      </trkpt>
      <trkpt lat="44.7510920" lon="7.1927710">
        <ele>1327.0</ele>
        <time>2017-07-25T11:31:04Z</time>
      </trkpt>
      <trkpt lat="44.7510250" lon="7.1927370">
        <ele>1326.6</ele>
        <time>2017-07-25T11:31:05Z</time>
      </trkpt>
      <trkpt lat="44.7509560" lon="7.1926940">
        <ele>1326.2</ele>
        <time>2017-07-25T11:31:06Z</time>
      </trkpt>
      <trkpt lat="44.7506730" lon="7.1924630">
        <ele>1325.6</ele>
        <time>2017-07-25T11:31:10Z</time>
      </trkpt>
      <trkpt lat="44.7506020" lon="7.1923890">
        <ele>1325.2</ele>
        <time>2017-07-25T11:31:11Z</time>
      </trkpt>
      <trkpt lat="44.7504670" lon="7.1922200">
        <ele>1323.8</ele>
        <time>2017-07-25T11:31:13Z</time>
      </trkpt>
      <trkpt lat="44.7503290" lon="7.1920640">
        <ele>1323.0</ele>
        <time>2017-07-25T11:31:15Z</time>
      </trkpt>
      <trkpt lat="44.7502590" lon="7.1919960">
        <ele>1322.4</ele>
        <time>2017-07-25T11:31:16Z</time>
      </trkpt>
      <trkpt lat="44.7500380" lon="7.1917930">
        <ele>1321.2</ele>
        <time>2017-07-25T11:31:20Z</time>
      </trkpt>
      <trkpt lat="44.7499700" lon="7.1917450">
        <ele>1320.8</ele>
        <time>2017-07-25T11:31:21Z</time>
      </trkpt>
      <trkpt lat="44.7499030" lon="7.1916990">
        <ele>1320.8</ele>
        <time>2017-07-25T11:31:22Z</time>
      </trkpt>
      <trkpt lat="44.7498460" lon="7.1916440">
        <ele>1320.4</ele>
        <time>2017-07-25T11:31:23Z</time>
      </trkpt>
      <trkpt lat="44.7497980" lon="7.1915770">
        <ele>1319.8</ele>
        <time>2017-07-25T11:31:24Z</time>
      </trkpt>
      <trkpt lat="44.7497550" lon="7.1914940">
        <ele>1319.0</ele>
        <time>2017-07-25T11:31:25Z</time>
      </trkpt>
      <trkpt lat="44.7497130" lon="7.1914020">
        <ele>1318.4</ele>
        <time>2017-07-25T11:31:26Z</time>
      </trkpt>
      <trkpt lat="44.7496250" lon="7.1912230">
        <ele>1317.2</ele>
        <time>2017-07-25T11:31:28Z</time>
      </trkpt>
      <trkpt lat="44.7495760" lon="7.1911480">
        <ele>1316.4</ele>
        <time>2017-07-25T11:31:29Z</time>
      </trkpt>
      <trkpt lat="44.7495200" lon="7.1910870">
        <ele>1316.0</ele>
        <time>2017-07-25T11:31:30Z</time>
      </trkpt>
      <trkpt lat="44.7493970" lon="7.1909540">
        <ele>1314.8</ele>
        <time>2017-07-25T11:31:32Z</time>
      </trkpt>
      <trkpt lat="44.7493500" lon="7.1908810">
        <ele>1314.4</ele>
        <time>2017-07-25T11:31:33Z</time>
      </trkpt>
      <trkpt lat="44.7492650" lon="7.1907470">
        <ele>1314.0</ele>
        <time>2017-07-25T11:31:35Z</time>
      </trkpt>
      <trkpt lat="44.7492230" lon="7.1906940">
        <ele>1313.6</ele>
        <time>2017-07-25T11:31:36Z</time>
      </trkpt>
      <trkpt lat="44.7490840" lon="7.1905800">
        <ele>1312.4</ele>
        <time>2017-07-25T11:31:39Z</time>
      </trkpt>
      <trkpt lat="44.7488770" lon="7.1904280">
        <ele>1311.4</ele>
        <time>2017-07-25T11:31:43Z</time>
      </trkpt>
      <trkpt lat="44.7488450" lon="7.1903630">
        <ele>1311.4</ele>
        <time>2017-07-25T11:31:44Z</time>
      </trkpt>
      <trkpt lat="44.7486020" lon="7.1899300">
        <ele>1311.0</ele>
        <time>2017-07-25T11:31:51Z</time>
      </trkpt>
      <trkpt lat="44.7485380" lon="7.1895930">
        <ele>1311.4</ele>
        <time>2017-07-25T11:31:56Z</time>
      </trkpt>
      <trkpt lat="44.7485660" lon="7.1894060">
        <ele>1311.4</ele>
        <time>2017-07-25T11:31:59Z</time>
      </trkpt>
      <trkpt lat="44.7485800" lon="7.1893490">
        <ele>1311.4</ele>
        <time>2017-07-25T11:32:00Z</time>
      </trkpt>
      <trkpt lat="44.7486300" lon="7.1891850">
        <ele>1312.4</ele>
        <time>2017-07-25T11:32:03Z</time>
      </trkpt>
      <trkpt lat="44.7486430" lon="7.1891310">
        <ele>1312.6</ele>
        <time>2017-07-25T11:32:04Z</time>
      </trkpt>
      <trkpt lat="44.7486970" lon="7.1889670">
        <ele>1312.8</ele>
        <time>2017-07-25T11:32:07Z</time>
      </trkpt>
      <trkpt lat="44.7488390" lon="7.1888090">
        <ele>1312.8</ele>
        <time>2017-07-25T11:32:11Z</time>
      </trkpt>
      <trkpt lat="44.7489200" lon="7.1887950">
        <ele>1313.4</ele>
        <time>2017-07-25T11:32:13Z</time>
      </trkpt>
      <trkpt lat="44.7489580" lon="7.1887900">
        <ele>1314.0</ele>
        <time>2017-07-25T11:32:14Z</time>
      </trkpt>
      <trkpt lat="44.7490650" lon="7.1887740">
        <ele>1315.2</ele>
        <time>2017-07-25T11:32:17Z</time>
      </trkpt>
      <trkpt lat="44.7491660" lon="7.1887980">
        <ele>1316.6</ele>
        <time>2017-07-25T11:32:20Z</time>
      </trkpt>
      <trkpt lat="44.7492270" lon="7.1888000">
        <ele>1316.8</ele>
        <time>2017-07-25T11:32:22Z</time>
      </trkpt>
      <trkpt lat="44.7492590" lon="7.1887980">
        <ele>1317.2</ele>
        <time>2017-07-25T11:32:23Z</time>
      </trkpt>
      <trkpt lat="44.7492910" lon="7.1888010">
        <ele>1317.6</ele>
        <time>2017-07-25T11:32:24Z</time>
      </trkpt>
      <trkpt lat="44.7493210" lon="7.1887990">
        <ele>1318.6</ele>
        <time>2017-07-25T11:32:25Z</time>
      </trkpt>
      <trkpt lat="44.7493860" lon="7.1888020">
        <ele>1319.8</ele>
        <time>2017-07-25T11:32:27Z</time>
      </trkpt>
      <trkpt lat="44.7494460" lon="7.1888040">
        <ele>1320.6</ele>
        <time>2017-07-25T11:32:29Z</time>
      </trkpt>
      <trkpt lat="44.7494750" lon="7.1888070">
        <ele>1320.8</ele>
        <time>2017-07-25T11:32:30Z</time>
      </trkpt>
      <trkpt lat="44.7495580" lon="7.1888080">
        <ele>1322.0</ele>
        <time>2017-07-25T11:32:33Z</time>
      </trkpt>
      <trkpt lat="44.7496460" lon="7.1888130">
        <ele>1323.4</ele>
        <time>2017-07-25T11:32:36Z</time>
      </trkpt>
      <trkpt lat="44.7497340" lon="7.1888140">
        <ele>1324.8</ele>
        <time>2017-07-25T11:32:39Z</time>
      </trkpt>
      <trkpt lat="44.7498220" lon="7.1888470">
        <ele>1325.8</ele>
        <time>2017-07-25T11:32:42Z</time>
      </trkpt>
      <trkpt lat="44.7499110" lon="7.1888830">
        <ele>1326.8</ele>
        <time>2017-07-25T11:32:45Z</time>
      </trkpt>
      <trkpt lat="44.7500480" lon="7.1889370">
        <ele>1328.0</ele>
        <time>2017-07-25T11:32:49Z</time>
      </trkpt>
      <trkpt lat="44.7500860" lon="7.1889530">
        <ele>1328.2</ele>
        <time>2017-07-25T11:32:50Z</time>
      </trkpt>
      <trkpt lat="44.7502810" lon="7.1889960">
        <ele>1329.2</ele>
        <time>2017-07-25T11:32:55Z</time>
      </trkpt>
      <trkpt lat="44.7503190" lon="7.1889910">
        <ele>1329.6</ele>
        <time>2017-07-25T11:32:56Z</time>
      </trkpt>
      <trkpt lat="44.7504140" lon="7.1889350">
        <ele>1330.4</ele>
        <time>2017-07-25T11:32:59Z</time>
      </trkpt>
      <trkpt lat="44.7504360" lon="7.1889000">
        <ele>1330.4</ele>
        <time>2017-07-25T11:33:00Z</time>
      </trkpt>
      <trkpt lat="44.7506250" lon="7.1886820">
        <ele>1330.8</ele>
        <time>2017-07-25T11:33:08Z</time>
      </trkpt>
      <trkpt lat="44.7507880" lon="7.1885280">
        <ele>1331.0</ele>
        <time>2017-07-25T11:33:14Z</time>
      </trkpt>
      <trkpt lat="44.7508490" lon="7.1884910">
        <ele>1331.6</ele>
        <time>2017-07-25T11:33:16Z</time>
      </trkpt>
      <trkpt lat="44.7509690" lon="7.1884480">
        <ele>1332.4</ele>
        <time>2017-07-25T11:33:20Z</time>
      </trkpt>
      <trkpt lat="44.7510020" lon="7.1884410">
        <ele>1332.6</ele>
        <time>2017-07-25T11:33:21Z</time>
      </trkpt>
      <trkpt lat="44.7511150" lon="7.1884300">
        <ele>1333.6</ele>
        <time>2017-07-25T11:33:24Z</time>
      </trkpt>
      <trkpt lat="44.7511830" lon="7.1884050">
        <ele>1334.0</ele>
        <time>2017-07-25T11:33:26Z</time>
      </trkpt>
      <trkpt lat="44.7513570" lon="7.1883460">
        <ele>1334.6</ele>
        <time>2017-07-25T11:33:31Z</time>
      </trkpt>
      <trkpt lat="44.7514170" lon="7.1883380">
        <ele>1334.8</ele>
        <time>2017-07-25T11:33:33Z</time>
      </trkpt>
      <trkpt lat="44.7515000" lon="7.1883190">
        <ele>1335.8</ele>
        <time>2017-07-25T11:33:36Z</time>
      </trkpt>
      <trkpt lat="44.7515980" lon="7.1882940">
        <ele>1336.6</ele>
        <time>2017-07-25T11:33:40Z</time>
      </trkpt>
      <trkpt lat="44.7516710" lon="7.1882770">
        <ele>1337.2</ele>
        <time>2017-07-25T11:33:43Z</time>
      </trkpt>
      <trkpt lat="44.7517370" lon="7.1882470">
        <ele>1337.0</ele>
        <time>2017-07-25T11:33:46Z</time>
      </trkpt>
      <trkpt lat="44.7518560" lon="7.1882190">
        <ele>1338.4</ele>
        <time>2017-07-25T11:33:51Z</time>
      </trkpt>
      <trkpt lat="44.7519290" lon="7.1882030">
        <ele>1339.2</ele>
        <time>2017-07-25T11:33:54Z</time>
      </trkpt>
      <trkpt lat="44.7519530" lon="7.1881930">
        <ele>1339.6</ele>
        <time>2017-07-25T11:33:55Z</time>
      </trkpt>
      <trkpt lat="44.7520510" lon="7.1881830">
        <ele>1340.6</ele>
        <time>2017-07-25T11:33:59Z</time>
      </trkpt>
      <trkpt lat="44.7521190" lon="7.1881550">
        <ele>1341.4</ele>
        <time>2017-07-25T11:34:02Z</time>
      </trkpt>
      <trkpt lat="44.7522300" lon="7.1881030">
        <ele>1342.0</ele>
        <time>2017-07-25T11:34:07Z</time>
      </trkpt>
      <trkpt lat="44.7523130" lon="7.1880870">
        <ele>1342.8</ele>
        <time>2017-07-25T11:34:11Z</time>
      </trkpt>
      <trkpt lat="44.7523370" lon="7.1880880">
        <ele>1343.0</ele>
        <time>2017-07-25T11:34:12Z</time>
      </trkpt>
      <trkpt lat="44.7524620" lon="7.1880990">
        <ele>1344.2</ele>
        <time>2017-07-25T11:34:17Z</time>
      </trkpt>
      <trkpt lat="44.7524850" lon="7.1880970">
        <ele>1344.4</ele>
        <time>2017-07-25T11:34:18Z</time>
      </trkpt>
      <trkpt lat="44.7525720" lon="7.1880770">
        <ele>1345.2</ele>
        <time>2017-07-25T11:34:22Z</time>
      </trkpt>
      <trkpt lat="44.7526360" lon="7.1880660">
        <ele>1346.2</ele>
        <time>2017-07-25T11:34:26Z</time>
      </trkpt>
      <trkpt lat="44.7526630" lon="7.1880580">
        <ele>1346.4</ele>
        <time>2017-07-25T11:34:28Z</time>
      </trkpt>
      <trkpt lat="44.7527550" lon="7.1880400">
        <ele>1347.2</ele>
        <time>2017-07-25T11:34:33Z</time>
      </trkpt>
      <trkpt lat="44.7527820" lon="7.1880420">
        <ele>1347.4</ele>
        <time>2017-07-25T11:34:34Z</time>
      </trkpt>
      <trkpt lat="44.7529690" lon="7.1880750">
        <ele>1348.4</ele>
        <time>2017-07-25T11:34:40Z</time>
      </trkpt>
      <trkpt lat="44.7530600" lon="7.1880450">
        <ele>1348.4</ele>
        <time>2017-07-25T11:34:43Z</time>
      </trkpt>
      <trkpt lat="44.7530840" lon="7.1880060">
        <ele>1348.6</ele>
        <time>2017-07-25T11:34:44Z</time>
      </trkpt>
      <trkpt lat="44.7530860" lon="7.1877890">
        <ele>1348.6</ele>
        <time>2017-07-25T11:34:47Z</time>
      </trkpt>
      <trkpt lat="44.7530850" lon="7.1877100">
        <ele>1348.6</ele>
        <time>2017-07-25T11:34:48Z</time>
      </trkpt>
      <trkpt lat="44.7531310" lon="7.1875610">
        <ele>1348.2</ele>
        <time>2017-07-25T11:34:50Z</time>
      </trkpt>
      <trkpt lat="44.7531720" lon="7.1874940">
        <ele>1348.2</ele>
        <time>2017-07-25T11:34:51Z</time>
      </trkpt>
      <trkpt lat="44.7532600" lon="7.1873780">
        <ele>1348.2</ele>
        <time>2017-07-25T11:34:53Z</time>
      </trkpt>
      <trkpt lat="44.7533030" lon="7.1873150">
        <ele>1348.4</ele>
        <time>2017-07-25T11:34:54Z</time>
      </trkpt>
      <trkpt lat="44.7533750" lon="7.1871710">
        <ele>1349.0</ele>
        <time>2017-07-25T11:34:56Z</time>
      </trkpt>
      <trkpt lat="44.7534100" lon="7.1870100">
        <ele>1349.6</ele>
        <time>2017-07-25T11:34:58Z</time>
      </trkpt>
      <trkpt lat="44.7534680" lon="7.1867930">
        <ele>1350.6</ele>
        <time>2017-07-25T11:35:01Z</time>
      </trkpt>
      <trkpt lat="44.7535420" lon="7.1866720">
        <ele>1351.0</ele>
        <time>2017-07-25T11:35:03Z</time>
      </trkpt>
      <trkpt lat="44.7536910" lon="7.1865660">
        <ele>1351.6</ele>
        <time>2017-07-25T11:35:06Z</time>
      </trkpt>
      <trkpt lat="44.7537660" lon="7.1864400">
        <ele>1352.0</ele>
        <time>2017-07-25T11:35:09Z</time>
      </trkpt>
      <trkpt lat="44.7537300" lon="7.1863130">
        <ele>1351.2</ele>
        <time>2017-07-25T11:35:13Z</time>
      </trkpt>
      <trkpt lat="44.7537120" lon="7.1862920">
        <ele>1351.0</ele>
        <time>2017-07-25T11:35:14Z</time>
      </trkpt>
      <trkpt lat="44.7536180" lon="7.1862520">
        <ele>1350.8</ele>
        <time>2017-07-25T11:35:18Z</time>
      </trkpt>
      <trkpt lat="44.7535920" lon="7.1862430">
        <ele>1350.6</ele>
        <time>2017-07-25T11:35:19Z</time>
      </trkpt>
      <trkpt lat="44.7535110" lon="7.1861580">
        <ele>1350.2</ele>
        <time>2017-07-25T11:35:23Z</time>
      </trkpt>
      <trkpt lat="44.7534930" lon="7.1861310">
        <ele>1350.2</ele>
        <time>2017-07-25T11:35:24Z</time>
      </trkpt>
      <trkpt lat="44.7534190" lon="7.1860060">
        <ele>1350.0</ele>
        <time>2017-07-25T11:35:29Z</time>
      </trkpt>
      <trkpt lat="44.7533960" lon="7.1859560">
        <ele>1350.0</ele>
        <time>2017-07-25T11:35:31Z</time>
      </trkpt>
      <trkpt lat="44.7533550" lon="7.1858600">
        <ele>1350.2</ele>
        <time>2017-07-25T11:35:35Z</time>
      </trkpt>
      <trkpt lat="44.7533070" lon="7.1857520">
        <ele>1350.8</ele>
        <time>2017-07-25T11:35:40Z</time>
      </trkpt>
      <trkpt lat="44.7532620" lon="7.1855800">
        <ele>1351.8</ele>
        <time>2017-07-25T11:35:47Z</time>
      </trkpt>
      <trkpt lat="44.7532630" lon="7.1855510">
        <ele>1351.8</ele>
        <time>2017-07-25T11:35:48Z</time>
      </trkpt>
      <trkpt lat="44.7532220" lon="7.1853790">
        <ele>1352.2</ele>
        <time>2017-07-25T11:35:54Z</time>
      </trkpt>
      <trkpt lat="44.7531740" lon="7.1853040">
        <ele>1352.8</ele>
        <time>2017-07-25T11:35:57Z</time>
      </trkpt>
      <trkpt lat="44.7530910" lon="7.1851730">
        <ele>1353.6</ele>
        <time>2017-07-25T11:36:02Z</time>
      </trkpt>
      <trkpt lat="44.7529640" lon="7.1849900">
        <ele>1354.0</ele>
        <time>2017-07-25T11:36:08Z</time>
      </trkpt>
      <trkpt lat="44.7529360" lon="7.1849620">
        <ele>1353.8</ele>
        <time>2017-07-25T11:36:09Z</time>
      </trkpt>
      <trkpt lat="44.7527820" lon="7.1848030">
        <ele>1354.0</ele>
        <time>2017-07-25T11:36:14Z</time>
      </trkpt>
      <trkpt lat="44.7527820" lon="7.1846230">
        <ele>1354.6</ele>
        <time>2017-07-25T11:36:18Z</time>
      </trkpt>
      <trkpt lat="44.7528130" lon="7.1845670">
        <ele>1355.0</ele>
        <time>2017-07-25T11:36:20Z</time>
      </trkpt>
      <trkpt lat="44.7528640" lon="7.1845580">
        <ele>1356.0</ele>
        <time>2017-07-25T11:36:22Z</time>
      </trkpt>
      <trkpt lat="44.7528910" lon="7.1845660">
        <ele>1356.4</ele>
        <time>2017-07-25T11:36:23Z</time>
      </trkpt>
      <trkpt lat="44.7529430" lon="7.1845850">
        <ele>1357.2</ele>
        <time>2017-07-25T11:36:25Z</time>
      </trkpt>
      <trkpt lat="44.7529670" lon="7.1845930">
        <ele>1357.8</ele>
        <time>2017-07-25T11:36:26Z</time>
      </trkpt>
      <trkpt lat="44.7529860" lon="7.1845990">
        <ele>1358.2</ele>
        <time>2017-07-25T11:36:27Z</time>
      </trkpt>
      <trkpt lat="44.7530220" lon="7.1846040">
        <ele>1358.8</ele>
        <time>2017-07-25T11:36:29Z</time>
      </trkpt>
      <trkpt lat="44.7530810" lon="7.1846060">
        <ele>1360.0</ele>
        <time>2017-07-25T11:36:32Z</time>
      </trkpt>
      <trkpt lat="44.7531240" lon="7.1846010">
        <ele>1360.8</ele>
        <time>2017-07-25T11:36:34Z</time>
      </trkpt>
      <trkpt lat="44.7531440" lon="7.1845950">
        <ele>1361.4</ele>
        <time>2017-07-25T11:36:35Z</time>
      </trkpt>
      <trkpt lat="44.7531990" lon="7.1845690">
        <ele>1362.6</ele>
        <time>2017-07-25T11:36:38Z</time>
      </trkpt>
      <trkpt lat="44.7532570" lon="7.1845470">
        <ele>1363.8</ele>
        <time>2017-07-25T11:36:41Z</time>
      </trkpt>
      <trkpt lat="44.7532840" lon="7.1845390">
        <ele>1364.4</ele>
        <time>2017-07-25T11:36:42Z</time>
      </trkpt>
      <trkpt lat="44.7533380" lon="7.1845190">
        <ele>1365.2</ele>
        <time>2017-07-25T11:36:44Z</time>
      </trkpt>
      <trkpt lat="44.7534270" lon="7.1844870">
        <ele>1366.4</ele>
        <time>2017-07-25T11:36:48Z</time>
      </trkpt>
      <trkpt lat="44.7534620" lon="7.1844700">
        <ele>1367.6</ele>
        <time>2017-07-25T11:36:50Z</time>
      </trkpt>
      <trkpt lat="44.7534800" lon="7.1844560">
        <ele>1368.0</ele>
        <time>2017-07-25T11:36:51Z</time>
      </trkpt>
      <trkpt lat="44.7535350" lon="7.1844090">
        <ele>1369.0</ele>
        <time>2017-07-25T11:36:54Z</time>
      </trkpt>
      <trkpt lat="44.7535850" lon="7.1843540">
        <ele>1370.2</ele>
        <time>2017-07-25T11:36:57Z</time>
      </trkpt>
      <trkpt lat="44.7536480" lon="7.1843270">
        <ele>1371.2</ele>
        <time>2017-07-25T11:37:00Z</time>
      </trkpt>
      <trkpt lat="44.7537100" lon="7.1843310">
        <ele>1372.4</ele>
        <time>2017-07-25T11:37:03Z</time>
      </trkpt>
      <trkpt lat="44.7537990" lon="7.1843370">
        <ele>1373.4</ele>
        <time>2017-07-25T11:37:07Z</time>
      </trkpt>
      <trkpt lat="44.7538620" lon="7.1843430">
        <ele>1374.4</ele>
        <time>2017-07-25T11:37:10Z</time>
      </trkpt>
      <trkpt lat="44.7539200" lon="7.1843260">
        <ele>1375.4</ele>
        <time>2017-07-25T11:37:13Z</time>
      </trkpt>
      <trkpt lat="44.7539440" lon="7.1843240">
        <ele>1375.8</ele>
        <time>2017-07-25T11:37:14Z</time>
      </trkpt>
      <trkpt lat="44.7540350" lon="7.1842880">
        <ele>1376.8</ele>
        <time>2017-07-25T11:37:19Z</time>
      </trkpt>
      <trkpt lat="44.7540630" lon="7.1842630">
        <ele>1377.0</ele>
        <time>2017-07-25T11:37:21Z</time>
      </trkpt>
      <trkpt lat="44.7541660" lon="7.1841780">
        <ele>1378.0</ele>
        <time>2017-07-25T11:37:29Z</time>
      </trkpt>
      <trkpt lat="44.7542350" lon="7.1840920">
        <ele>1378.4</ele>
        <time>2017-07-25T11:37:35Z</time>
      </trkpt>
      <trkpt lat="44.7542600" lon="7.1840680">
        <ele>1378.4</ele>
        <time>2017-07-25T11:37:37Z</time>
      </trkpt>
      <trkpt lat="44.7542800" lon="7.1840350">
        <ele>1378.6</ele>
        <time>2017-07-25T11:37:39Z</time>
      </trkpt>
      <trkpt lat="44.7543290" lon="7.1839630">
        <ele>1379.2</ele>
        <time>2017-07-25T11:37:44Z</time>
      </trkpt>
      <trkpt lat="44.7543690" lon="7.1838780">
        <ele>1379.8</ele>
        <time>2017-07-25T11:37:49Z</time>
      </trkpt>
      <trkpt lat="44.7543820" lon="7.1837440">
        <ele>1380.4</ele>
        <time>2017-07-25T11:37:56Z</time>
      </trkpt>
      <trkpt lat="44.7543660" lon="7.1835810">
        <ele>1381.4</ele>
        <time>2017-07-25T11:38:05Z</time>
      </trkpt>
      <trkpt lat="44.7543620" lon="7.1835150">
        <ele>1382.4</ele>
        <time>2017-07-25T11:38:09Z</time>
      </trkpt>
      <trkpt lat="44.7543590" lon="7.1834590">
        <ele>1383.8</ele>
        <time>2017-07-25T11:38:12Z</time>
      </trkpt>
      <trkpt lat="44.7543590" lon="7.1834380">
        <ele>1384.0</ele>
        <time>2017-07-25T11:38:13Z</time>
      </trkpt>
      <trkpt lat="44.7543490" lon="7.1833850">
        <ele>1384.8</ele>
        <time>2017-07-25T11:38:16Z</time>
      </trkpt>
      <trkpt lat="44.7543410" lon="7.1833460">
        <ele>1386.0</ele>
        <time>2017-07-25T11:38:18Z</time>
      </trkpt>
      <trkpt lat="44.7543360" lon="7.1833110">
        <ele>1386.6</ele>
        <time>2017-07-25T11:38:20Z</time>
      </trkpt>
      <trkpt lat="44.7543310" lon="7.1832890">
        <ele>1387.0</ele>
        <time>2017-07-25T11:38:21Z</time>
      </trkpt>
      <trkpt lat="44.7543240" lon="7.1832480">
        <ele>1388.2</ele>
        <time>2017-07-25T11:38:23Z</time>
      </trkpt>
      <trkpt lat="44.7543060" lon="7.1831960">
        <ele>1390.2</ele>
        <time>2017-07-25T11:38:26Z</time>
      </trkpt>
      <trkpt lat="44.7543000" lon="7.1831410">
        <ele>1391.6</ele>
        <time>2017-07-25T11:38:29Z</time>
      </trkpt>
      <trkpt lat="44.7542970" lon="7.1830780">
        <ele>1392.8</ele>
        <time>2017-07-25T11:38:32Z</time>
      </trkpt>
      <trkpt lat="44.7542970" lon="7.1830600">
        <ele>1393.0</ele>
        <time>2017-07-25T11:38:33Z</time>
      </trkpt>
      <trkpt lat="44.7542930" lon="7.1830210">
        <ele>1393.8</ele>
        <time>2017-07-25T11:38:35Z</time>
      </trkpt>
      <trkpt lat="44.7542830" lon="7.1829380">
        <ele>1394.8</ele>
        <time>2017-07-25T11:38:39Z</time>
      </trkpt>
      <trkpt lat="44.7542840" lon="7.1829150">
        <ele>1395.2</ele>
        <time>2017-07-25T11:38:40Z</time>
      </trkpt>
      <trkpt lat="44.7542830" lon="7.1828930">
        <ele>1395.6</ele>
        <time>2017-07-25T11:38:41Z</time>
      </trkpt>
      <trkpt lat="44.7542850" lon="7.1828230">
        <ele>1396.6</ele>
        <time>2017-07-25T11:38:44Z</time>
      </trkpt>
      <trkpt lat="44.7542860" lon="7.1827640">
        <ele>1397.8</ele>
        <time>2017-07-25T11:38:47Z</time>
      </trkpt>
      <trkpt lat="44.7542820" lon="7.1827290">
        <ele>1398.6</ele>
        <time>2017-07-25T11:38:49Z</time>
      </trkpt>
      <trkpt lat="44.7542810" lon="7.1827100">
        <ele>1399.2</ele>
        <time>2017-07-25T11:38:50Z</time>
      </trkpt>
      <trkpt lat="44.7542720" lon="7.1826420">
        <ele>1400.4</ele>
        <time>2017-07-25T11:38:53Z</time>
      </trkpt>
      <trkpt lat="44.7542700" lon="7.1825360">
        <ele>1401.6</ele>
        <time>2017-07-25T11:38:57Z</time>
      </trkpt>
      <trkpt lat="44.7542710" lon="7.1825110">
        <ele>1402.0</ele>
        <time>2017-07-25T11:38:58Z</time>
      </trkpt>
      <trkpt lat="44.7542760" lon="7.1824670">
        <ele>1402.8</ele>
        <time>2017-07-25T11:39:00Z</time>
      </trkpt>
      <trkpt lat="44.7543060" lon="7.1823680">
        <ele>1403.8</ele>
        <time>2017-07-25T11:39:04Z</time>
      </trkpt>
      <trkpt lat="44.7543120" lon="7.1823410">
        <ele>1403.8</ele>
        <time>2017-07-25T11:39:05Z</time>
      </trkpt>
      <trkpt lat="44.7542950" lon="7.1821720">
        <ele>1403.2</ele>
        <time>2017-07-25T11:39:12Z</time>
      </trkpt>
      <trkpt lat="44.7542860" lon="7.1821210">
        <ele>1402.8</ele>
        <time>2017-07-25T11:39:14Z</time>
      </trkpt>
      <trkpt lat="44.7542990" lon="7.1819920">
        <ele>1403.2</ele>
        <time>2017-07-25T11:39:19Z</time>
      </trkpt>
      <trkpt lat="44.7543660" lon="7.1818350">
        <ele>1403.6</ele>
        <time>2017-07-25T11:39:25Z</time>
      </trkpt>
      <trkpt lat="44.7543820" lon="7.1818170">
        <ele>1403.8</ele>
        <time>2017-07-25T11:39:26Z</time>
      </trkpt>
      <trkpt lat="44.7544710" lon="7.1817830">
        <ele>1405.0</ele>
        <time>2017-07-25T11:39:30Z</time>
      </trkpt>
      <trkpt lat="44.7545380" lon="7.1817950">
        <ele>1406.2</ele>
        <time>2017-07-25T11:39:33Z</time>
      </trkpt>
      <trkpt lat="44.7546040" lon="7.1818010">
        <ele>1407.4</ele>
        <time>2017-07-25T11:39:36Z</time>
      </trkpt>
      <trkpt lat="44.7546500" lon="7.1818170">
        <ele>1408.8</ele>
        <time>2017-07-25T11:39:38Z</time>
      </trkpt>
      <trkpt lat="44.7547170" lon="7.1818390">
        <ele>1410.2</ele>
        <time>2017-07-25T11:39:41Z</time>
      </trkpt>
      <trkpt lat="44.7547410" lon="7.1818590">
        <ele>1410.6</ele>
        <time>2017-07-25T11:39:42Z</time>
      </trkpt>
      <trkpt lat="44.7547920" lon="7.1818940">
        <ele>1411.6</ele>
        <time>2017-07-25T11:39:44Z</time>
      </trkpt>
      <trkpt lat="44.7548920" lon="7.1819620">
        <ele>1412.8</ele>
        <time>2017-07-25T11:39:48Z</time>
      </trkpt>
      <trkpt lat="44.7549240" lon="7.1819840">
        <ele>1413.2</ele>
        <time>2017-07-25T11:39:49Z</time>
      </trkpt>
      <trkpt lat="44.7549970" lon="7.1820230">
        <ele>1413.8</ele>
        <time>2017-07-25T11:39:51Z</time>
      </trkpt>
      <trkpt lat="44.7551160" lon="7.1820900">
        <ele>1415.0</ele>
        <time>2017-07-25T11:39:55Z</time>
      </trkpt>
      <trkpt lat="44.7552380" lon="7.1821750">
        <ele>1416.0</ele>
        <time>2017-07-25T11:39:59Z</time>
      </trkpt>
      <trkpt lat="44.7553110" lon="7.1821890">
        <ele>1416.4</ele>
        <time>2017-07-25T11:40:01Z</time>
      </trkpt>
      <trkpt lat="44.7553460" lon="7.1821710">
        <ele>1416.8</ele>
        <time>2017-07-25T11:40:02Z</time>
      </trkpt>
      <trkpt lat="44.7553750" lon="7.1821270">
        <ele>1417.2</ele>
        <time>2017-07-25T11:40:03Z</time>
      </trkpt>
      <trkpt lat="44.7553950" lon="7.1820010">
        <ele>1417.4</ele>
        <time>2017-07-25T11:40:05Z</time>
      </trkpt>
      <trkpt lat="44.7553520" lon="7.1816820">
        <ele>1418.0</ele>
        <time>2017-07-25T11:40:10Z</time>
      </trkpt>
      <trkpt lat="44.7553420" lon="7.1816090">
        <ele>1418.4</ele>
        <time>2017-07-25T11:40:11Z</time>
      </trkpt>
      <trkpt lat="44.7553400" lon="7.1815390">
        <ele>1418.4</ele>
        <time>2017-07-25T11:40:12Z</time>
      </trkpt>
      <trkpt lat="44.7554040" lon="7.1814130">
        <ele>1418.2</ele>
        <time>2017-07-25T11:40:14Z</time>
      </trkpt>
      <trkpt lat="44.7555790" lon="7.1813580">
        <ele>1417.4</ele>
        <time>2017-07-25T11:40:17Z</time>
      </trkpt>
      <trkpt lat="44.7557770" lon="7.1814750">
        <ele>1418.2</ele>
        <time>2017-07-25T11:40:20Z</time>
      </trkpt>
      <trkpt lat="44.7558440" lon="7.1815220">
        <ele>1418.0</ele>
        <time>2017-07-25T11:40:21Z</time>
      </trkpt>
      <trkpt lat="44.7559750" lon="7.1815870">
        <ele>1417.2</ele>
        <time>2017-07-25T11:40:23Z</time>
      </trkpt>
      <trkpt lat="44.7560500" lon="7.1816040">
        <ele>1416.6</ele>
        <time>2017-07-25T11:40:24Z</time>
      </trkpt>
      <trkpt lat="44.7561930" lon="7.1816450">
        <ele>1416.0</ele>
        <time>2017-07-25T11:40:26Z</time>
      </trkpt>
      <trkpt lat="44.7563240" lon="7.1817020">
        <ele>1414.8</ele>
        <time>2017-07-25T11:40:28Z</time>
      </trkpt>
      <trkpt lat="44.7564350" lon="7.1816380">
        <ele>1413.8</ele>
        <time>2017-07-25T11:40:30Z</time>
      </trkpt>
      <trkpt lat="44.7564700" lon="7.1815560">
        <ele>1413.2</ele>
        <time>2017-07-25T11:40:31Z</time>
      </trkpt>
      <trkpt lat="44.7565080" lon="7.1813490">
        <ele>1411.4</ele>
        <time>2017-07-25T11:40:33Z</time>
      </trkpt>
      <trkpt lat="44.7564980" lon="7.1811400">
        <ele>1409.6</ele>
        <time>2017-07-25T11:40:35Z</time>
      </trkpt>
      <trkpt lat="44.7564760" lon="7.1810400">
        <ele>1408.8</ele>
        <time>2017-07-25T11:40:36Z</time>
      </trkpt>
      <trkpt lat="44.7564660" lon="7.1809390">
        <ele>1408.2</ele>
        <time>2017-07-25T11:40:37Z</time>
      </trkpt>
      <trkpt lat="44.7564860" lon="7.1807460">
        <ele>1407.4</ele>
        <time>2017-07-25T11:40:39Z</time>
      </trkpt>
      <trkpt lat="44.7564990" lon="7.1806560">
        <ele>1406.6</ele>
        <time>2017-07-25T11:40:40Z</time>
      </trkpt>
      <trkpt lat="44.7565020" lon="7.1805710">
        <ele>1405.8</ele>
        <time>2017-07-25T11:40:41Z</time>
      </trkpt>
      <trkpt lat="44.7564970" lon="7.1804940">
        <ele>1405.2</ele>
        <time>2017-07-25T11:40:42Z</time>
      </trkpt>
      <trkpt lat="44.7564900" lon="7.1803510">
        <ele>1404.8</ele>
        <time>2017-07-25T11:40:44Z</time>
      </trkpt>
      <trkpt lat="44.7564900" lon="7.1802890">
        <ele>1404.2</ele>
        <time>2017-07-25T11:40:45Z</time>
      </trkpt>
      <trkpt lat="44.7564540" lon="7.1800650">
        <ele>1403.0</ele>
        <time>2017-07-25T11:40:49Z</time>
      </trkpt>
      <trkpt lat="44.7564340" lon="7.1800110">
        <ele>1402.8</ele>
        <time>2017-07-25T11:40:50Z</time>
      </trkpt>
      <trkpt lat="44.7563310" lon="7.1798120">
        <ele>1402.4</ele>
        <time>2017-07-25T11:40:54Z</time>
      </trkpt>
      <trkpt lat="44.7563020" lon="7.1796050">
        <ele>1402.4</ele>
        <time>2017-07-25T11:40:58Z</time>
      </trkpt>
      <trkpt lat="44.7563540" lon="7.1794040">
        <ele>1402.6</ele>
        <time>2017-07-25T11:41:02Z</time>
      </trkpt>
      <trkpt lat="44.7563810" lon="7.1793620">
        <ele>1402.4</ele>
        <time>2017-07-25T11:41:03Z</time>
      </trkpt>
      <trkpt lat="44.7564480" lon="7.1793020">
        <ele>1402.6</ele>
        <time>2017-07-25T11:41:05Z</time>
      </trkpt>
      <trkpt lat="44.7565390" lon="7.1793030">
        <ele>1402.8</ele>
        <time>2017-07-25T11:41:07Z</time>
      </trkpt>
      <trkpt lat="44.7566700" lon="7.1794490">
        <ele>1403.4</ele>
        <time>2017-07-25T11:41:10Z</time>
      </trkpt>
      <trkpt lat="44.7567270" lon="7.1794820">
        <ele>1403.6</ele>
        <time>2017-07-25T11:41:11Z</time>
      </trkpt>
      <trkpt lat="44.7568510" lon="7.1794940">
        <ele>1403.6</ele>
        <time>2017-07-25T11:41:13Z</time>
      </trkpt>
      <trkpt lat="44.7569580" lon="7.1793920">
        <ele>1403.2</ele>
        <time>2017-07-25T11:41:15Z</time>
      </trkpt>
      <trkpt lat="44.7570630" lon="7.1792900">
        <ele>1402.8</ele>
        <time>2017-07-25T11:41:17Z</time>
      </trkpt>
      <trkpt lat="44.7571250" lon="7.1792840">
        <ele>1402.6</ele>
        <time>2017-07-25T11:41:18Z</time>
      </trkpt>
      <trkpt lat="44.7573000" lon="7.1793670">
        <ele>1402.4</ele>
        <time>2017-07-25T11:41:21Z</time>
      </trkpt>
      <trkpt lat="44.7574780" lon="7.1794660">
        <ele>1402.6</ele>
        <time>2017-07-25T11:41:24Z</time>
      </trkpt>
      <trkpt lat="44.7575830" lon="7.1795900">
        <ele>1403.0</ele>
        <time>2017-07-25T11:41:26Z</time>
      </trkpt>
      <trkpt lat="44.7576630" lon="7.1798280">
        <ele>1402.4</ele>
        <time>2017-07-25T11:41:29Z</time>
      </trkpt>
      <trkpt lat="44.7576700" lon="7.1800370">
        <ele>1402.0</ele>
        <time>2017-07-25T11:41:32Z</time>
      </trkpt>
      <trkpt lat="44.7576630" lon="7.1800930">
        <ele>1401.8</ele>
        <time>2017-07-25T11:41:33Z</time>
      </trkpt>
      <trkpt lat="44.7576190" lon="7.1803440">
        <ele>1401.4</ele>
        <time>2017-07-25T11:41:38Z</time>
      </trkpt>
      <trkpt lat="44.7576450" lon="7.1804770">
        <ele>1402.0</ele>
        <time>2017-07-25T11:41:41Z</time>
      </trkpt>
      <trkpt lat="44.7576600" lon="7.1805160">
        <ele>1402.2</ele>
        <time>2017-07-25T11:41:42Z</time>
      </trkpt>
      <trkpt lat="44.7577140" lon="7.1805570">
        <ele>1402.4</ele>
        <time>2017-07-25T11:41:44Z</time>
      </trkpt>
      <trkpt lat="44.7577600" lon="7.1805490">
        <ele>1403.0</ele>
        <time>2017-07-25T11:41:46Z</time>
      </trkpt>
      <trkpt lat="44.7577880" lon="7.1805080">
        <ele>1403.4</ele>
        <time>2017-07-25T11:41:48Z</time>
      </trkpt>
      <trkpt lat="44.7578220" lon="7.1804600">
        <ele>1403.6</ele>
        <time>2017-07-25T11:41:50Z</time>
      </trkpt>
      <trkpt lat="44.7578670" lon="7.1803750">
        <ele>1404.0</ele>
        <time>2017-07-25T11:41:53Z</time>
      </trkpt>
      <trkpt lat="44.7579080" lon="7.1802540">
        <ele>1404.6</ele>
        <time>2017-07-25T11:41:57Z</time>
      </trkpt>
      <trkpt lat="44.7580000" lon="7.1800330">
        <ele>1404.8</ele>
        <time>2017-07-25T11:42:02Z</time>
      </trkpt>
      <trkpt lat="44.7580160" lon="7.1799760">
        <ele>1404.8</ele>
        <time>2017-07-25T11:42:03Z</time>
      </trkpt>
      <trkpt lat="44.7580490" lon="7.1797910">
        <ele>1405.4</ele>
        <time>2017-07-25T11:42:06Z</time>
      </trkpt>
      <trkpt lat="44.7580530" lon="7.1797270">
        <ele>1405.2</ele>
        <time>2017-07-25T11:42:07Z</time>
      </trkpt>
      <trkpt lat="44.7580420" lon="7.1796610">
        <ele>1405.2</ele>
        <time>2017-07-25T11:42:08Z</time>
      </trkpt>
      <trkpt lat="44.7580010" lon="7.1795440">
        <ele>1405.2</ele>
        <time>2017-07-25T11:42:10Z</time>
      </trkpt>
      <trkpt lat="44.7579010" lon="7.1792900">
        <ele>1405.6</ele>
        <time>2017-07-25T11:42:15Z</time>
      </trkpt>
      <trkpt lat="44.7579150" lon="7.1790790">
        <ele>1405.6</ele>
        <time>2017-07-25T11:42:19Z</time>
      </trkpt>
      <trkpt lat="44.7579250" lon="7.1790210">
        <ele>1405.6</ele>
        <time>2017-07-25T11:42:20Z</time>
      </trkpt>
      <trkpt lat="44.7579400" lon="7.1789670">
        <ele>1405.8</ele>
        <time>2017-07-25T11:42:21Z</time>
      </trkpt>
      <trkpt lat="44.7580190" lon="7.1788690">
        <ele>1406.0</ele>
        <time>2017-07-25T11:42:24Z</time>
      </trkpt>
      <trkpt lat="44.7580770" lon="7.1788520">
        <ele>1406.6</ele>
        <time>2017-07-25T11:42:26Z</time>
      </trkpt>
      <trkpt lat="44.7581320" lon="7.1788640">
        <ele>1407.6</ele>
        <time>2017-07-25T11:42:28Z</time>
      </trkpt>
      <trkpt lat="44.7581590" lon="7.1788760">
        <ele>1408.0</ele>
        <time>2017-07-25T11:42:29Z</time>
      </trkpt>
      <trkpt lat="44.7581860" lon="7.1788860">
        <ele>1408.4</ele>
        <time>2017-07-25T11:42:30Z</time>
      </trkpt>
      <trkpt lat="44.7582090" lon="7.1788970">
        <ele>1408.8</ele>
        <time>2017-07-25T11:42:31Z</time>
      </trkpt>
      <trkpt lat="44.7582840" lon="7.1789400">
        <ele>1410.2</ele>
        <time>2017-07-25T11:42:34Z</time>
      </trkpt>
      <trkpt lat="44.7583310" lon="7.1789690">
        <ele>1411.0</ele>
        <time>2017-07-25T11:42:36Z</time>
      </trkpt>
      <trkpt lat="44.7583540" lon="7.1789760">
        <ele>1411.4</ele>
        <time>2017-07-25T11:42:37Z</time>
      </trkpt>
      <trkpt lat="44.7584230" lon="7.1790040">
        <ele>1412.8</ele>
        <time>2017-07-25T11:42:40Z</time>
      </trkpt>
      <trkpt lat="44.7584880" lon="7.1790110">
        <ele>1414.2</ele>
        <time>2017-07-25T11:42:43Z</time>
      </trkpt>
      <trkpt lat="44.7585490" lon="7.1790010">
        <ele>1415.6</ele>
        <time>2017-07-25T11:42:46Z</time>
      </trkpt>
      <trkpt lat="44.7585950" lon="7.1789570">
        <ele>1417.0</ele>
        <time>2017-07-25T11:42:49Z</time>
      </trkpt>
      <trkpt lat="44.7586020" lon="7.1789200">
        <ele>1417.4</ele>
        <time>2017-07-25T11:42:50Z</time>
      </trkpt>
      <trkpt lat="44.7585920" lon="7.1788340">
        <ele>1417.4</ele>
        <time>2017-07-25T11:42:52Z</time>
      </trkpt>
      <trkpt lat="44.7585620" lon="7.1786030">
        <ele>1416.6</ele>
        <time>2017-07-25T11:42:56Z</time>
      </trkpt>
      <trkpt lat="44.7586150" lon="7.1784750">
        <ele>1415.6</ele>
        <time>2017-07-25T11:42:58Z</time>
      </trkpt>
      <trkpt lat="44.7586740" lon="7.1784300">
        <ele>1415.2</ele>
        <time>2017-07-25T11:42:59Z</time>
      </trkpt>
      <trkpt lat="44.7587920" lon="7.1784410">
        <ele>1414.6</ele>
        <time>2017-07-25T11:43:01Z</time>
      </trkpt>
      <trkpt lat="44.7588520" lon="7.1784700">
        <ele>1414.6</ele>
        <time>2017-07-25T11:43:02Z</time>
      </trkpt>
      <trkpt lat="44.7589090" lon="7.1784940">
        <ele>1414.4</ele>
        <time>2017-07-25T11:43:03Z</time>
      </trkpt>
      <trkpt lat="44.7590390" lon="7.1785140">
        <ele>1414.6</ele>
        <time>2017-07-25T11:43:05Z</time>
      </trkpt>
      <trkpt lat="44.7592170" lon="7.1784820">
        <ele>1414.2</ele>
        <time>2017-07-25T11:43:08Z</time>
      </trkpt>
      <trkpt lat="44.7592780" lon="7.1784700">
        <ele>1414.2</ele>
        <time>2017-07-25T11:43:09Z</time>
      </trkpt>
      <trkpt lat="44.7593340" lon="7.1784770">
        <ele>1414.4</ele>
        <time>2017-07-25T11:43:10Z</time>
      </trkpt>
      <trkpt lat="44.7594400" lon="7.1785260">
        <ele>1414.6</ele>
        <time>2017-07-25T11:43:12Z</time>
      </trkpt>
      <trkpt lat="44.7595750" lon="7.1785570">
        <ele>1414.8</ele>
        <time>2017-07-25T11:43:14Z</time>
      </trkpt>
      <trkpt lat="44.7596410" lon="7.1786120">
        <ele>1414.4</ele>
        <time>2017-07-25T11:43:15Z</time>
      </trkpt>
      <trkpt lat="44.7597020" lon="7.1786910">
        <ele>1414.0</ele>
        <time>2017-07-25T11:43:16Z</time>
      </trkpt>
      <trkpt lat="44.7598110" lon="7.1788560">
        <ele>1414.0</ele>
        <time>2017-07-25T11:43:18Z</time>
      </trkpt>
      <trkpt lat="44.7598970" lon="7.1790790">
        <ele>1413.4</ele>
        <time>2017-07-25T11:43:20Z</time>
      </trkpt>
      <trkpt lat="44.7600390" lon="7.1793930">
        <ele>1411.6</ele>
        <time>2017-07-25T11:43:23Z</time>
      </trkpt>
      <trkpt lat="44.7601380" lon="7.1795670">
        <ele>1411.2</ele>
        <time>2017-07-25T11:43:25Z</time>
      </trkpt>
      <trkpt lat="44.7602980" lon="7.1798870">
        <ele>1411.0</ele>
        <time>2017-07-25T11:43:29Z</time>
      </trkpt>
      <trkpt lat="44.7603240" lon="7.1799510">
        <ele>1410.6</ele>
        <time>2017-07-25T11:43:30Z</time>
      </trkpt>
      <trkpt lat="44.7603540" lon="7.1800130">
        <ele>1410.2</ele>
        <time>2017-07-25T11:43:31Z</time>
      </trkpt>
      <trkpt lat="44.7605240" lon="7.1804270">
        <ele>1409.6</ele>
        <time>2017-07-25T11:43:37Z</time>
      </trkpt>
      <trkpt lat="44.7605390" lon="7.1805110">
        <ele>1409.4</ele>
        <time>2017-07-25T11:43:38Z</time>
      </trkpt>
      <trkpt lat="44.7605920" lon="7.1806530">
        <ele>1409.2</ele>
        <time>2017-07-25T11:43:40Z</time>
      </trkpt>
      <trkpt lat="44.7606250" lon="7.1807060">
        <ele>1409.0</ele>
        <time>2017-07-25T11:43:41Z</time>
      </trkpt>
      <trkpt lat="44.7606870" lon="7.1807740">
        <ele>1408.0</ele>
        <time>2017-07-25T11:43:43Z</time>
      </trkpt>
      <trkpt lat="44.7607190" lon="7.1808050">
        <ele>1408.0</ele>
        <time>2017-07-25T11:43:44Z</time>
      </trkpt>
      <trkpt lat="44.7607510" lon="7.1808440">
        <ele>1408.2</ele>
        <time>2017-07-25T11:43:45Z</time>
      </trkpt>
      <trkpt lat="44.7608300" lon="7.1809740">
        <ele>1408.4</ele>
        <time>2017-07-25T11:43:49Z</time>
      </trkpt>
      <trkpt lat="44.7608440" lon="7.1810060">
        <ele>1408.4</ele>
        <time>2017-07-25T11:43:50Z</time>
      </trkpt>
      <trkpt lat="44.7608990" lon="7.1810910">
        <ele>1408.6</ele>
        <time>2017-07-25T11:43:53Z</time>
      </trkpt>
      <trkpt lat="44.7609690" lon="7.1811620">
        <ele>1409.0</ele>
        <time>2017-07-25T11:43:56Z</time>
      </trkpt>
      <trkpt lat="44.7609920" lon="7.1811860">
        <ele>1409.4</ele>
        <time>2017-07-25T11:43:57Z</time>
      </trkpt>
      <trkpt lat="44.7610950" lon="7.1812930">
        <ele>1409.6</ele>
        <time>2017-07-25T11:44:02Z</time>
      </trkpt>
      <trkpt lat="44.7611280" lon="7.1813260">
        <ele>1410.2</ele>
        <time>2017-07-25T11:44:04Z</time>
      </trkpt>
      <trkpt lat="44.7611400" lon="7.1813400">
        <ele>1410.6</ele>
        <time>2017-07-25T11:44:05Z</time>
      </trkpt>
      <trkpt lat="44.7611810" lon="7.1813710">
        <ele>1411.6</ele>
        <time>2017-07-25T11:44:08Z</time>
      </trkpt>
      <trkpt lat="44.7611940" lon="7.1813830">
        <ele>1412.0</ele>
        <time>2017-07-25T11:44:09Z</time>
      </trkpt>
      <trkpt lat="44.7612300" lon="7.1814310">
        <ele>1412.6</ele>
        <time>2017-07-25T11:44:11Z</time>
      </trkpt>
      <trkpt lat="44.7612740" lon="7.1814790">
        <ele>1413.8</ele>
        <time>2017-07-25T11:44:14Z</time>
      </trkpt>
      <trkpt lat="44.7613480" lon="7.1815350">
        <ele>1415.2</ele>
        <time>2017-07-25T11:44:18Z</time>
      </trkpt>
      <trkpt lat="44.7613810" lon="7.1815660">
        <ele>1416.0</ele>
        <time>2017-07-25T11:44:20Z</time>
      </trkpt>
      <trkpt lat="44.7613960" lon="7.1815800">
        <ele>1416.4</ele>
        <time>2017-07-25T11:44:21Z</time>
      </trkpt>
      <trkpt lat="44.7615010" lon="7.1817170">
        <ele>1417.4</ele>
        <time>2017-07-25T11:44:27Z</time>
      </trkpt>
      <trkpt lat="44.7616080" lon="7.1818530">
        <ele>1418.6</ele>
        <time>2017-07-25T11:44:32Z</time>
      </trkpt>
      <trkpt lat="44.7616670" lon="7.1819160">
        <ele>1418.6</ele>
        <time>2017-07-25T11:44:35Z</time>
      </trkpt>
      <trkpt lat="44.7618140" lon="7.1820290">
        <ele>1419.6</ele>
        <time>2017-07-25T11:44:42Z</time>
      </trkpt>
      <trkpt lat="44.7618360" lon="7.1820410">
        <ele>1419.6</ele>
        <time>2017-07-25T11:44:43Z</time>
      </trkpt>
      <trkpt lat="44.7619520" lon="7.1821110">
        <ele>1420.8</ele>
        <time>2017-07-25T11:44:48Z</time>
      </trkpt>
      <trkpt lat="44.7619840" lon="7.1821340">
        <ele>1421.0</ele>
        <time>2017-07-25T11:44:49Z</time>
      </trkpt>
      <trkpt lat="44.7621730" lon="7.1823000">
        <ele>1423.8</ele>
        <time>2017-07-25T11:45:00Z</time>
      </trkpt>
      <trkpt lat="44.7621910" lon="7.1823280">
        <ele>1424.2</ele>
        <time>2017-07-25T11:45:01Z</time>
      </trkpt>
      <trkpt lat="44.7622370" lon="7.1824070">
        <ele>1425.2</ele>
        <time>2017-07-25T11:45:04Z</time>
      </trkpt>
      <trkpt lat="44.7622870" lon="7.1825260">
        <ele>1425.2</ele>
        <time>2017-07-25T11:45:08Z</time>
      </trkpt>
      <trkpt lat="44.7623330" lon="7.1827110">
        <ele>1425.0</ele>
        <time>2017-07-25T11:45:13Z</time>
      </trkpt>
      <trkpt lat="44.7624000" lon="7.1830540">
        <ele>1424.2</ele>
        <time>2017-07-25T11:45:21Z</time>
      </trkpt>
      <trkpt lat="44.7624080" lon="7.1830970">
        <ele>1424.0</ele>
        <time>2017-07-25T11:45:22Z</time>
      </trkpt>
      <trkpt lat="44.7624510" lon="7.1833440">
        <ele>1423.4</ele>
        <time>2017-07-25T11:45:28Z</time>
      </trkpt>
      <trkpt lat="44.7624430" lon="7.1835450">
        <ele>1423.6</ele>
        <time>2017-07-25T11:45:33Z</time>
      </trkpt>
      <trkpt lat="44.7624210" lon="7.1837670">
        <ele>1425.2</ele>
        <time>2017-07-25T11:45:38Z</time>
      </trkpt>
      <trkpt lat="44.7624170" lon="7.1838700">
        <ele>1426.2</ele>
        <time>2017-07-25T11:45:40Z</time>
      </trkpt>
      <trkpt lat="44.7624130" lon="7.1839290">
        <ele>1426.6</ele>
        <time>2017-07-25T11:45:41Z</time>
      </trkpt>
      <trkpt lat="44.7624190" lon="7.1841830">
        <ele>1427.8</ele>
        <time>2017-07-25T11:45:45Z</time>
      </trkpt>
      <trkpt lat="44.7624190" lon="7.1842560">
        <ele>1427.6</ele>
        <time>2017-07-25T11:45:46Z</time>
      </trkpt>
      <trkpt lat="44.7624370" lon="7.1844190">
        <ele>1428.0</ele>
        <time>2017-07-25T11:45:48Z</time>
      </trkpt>
      <trkpt lat="44.7625080" lon="7.1846390">
        <ele>1428.2</ele>
        <time>2017-07-25T11:45:51Z</time>
      </trkpt>
      <trkpt lat="44.7625390" lon="7.1847040">
        <ele>1428.2</ele>
        <time>2017-07-25T11:45:52Z</time>
      </trkpt>
      <trkpt lat="44.7626590" lon="7.1849650">
        <ele>1427.8</ele>
        <time>2017-07-25T11:45:56Z</time>
      </trkpt>
      <trkpt lat="44.7627110" lon="7.1850860">
        <ele>1428.0</ele>
        <time>2017-07-25T11:45:58Z</time>
      </trkpt>
      <trkpt lat="44.7627990" lon="7.1852440">
        <ele>1428.8</ele>
        <time>2017-07-25T11:46:01Z</time>
      </trkpt>
      <trkpt lat="44.7628420" lon="7.1853630">
        <ele>1429.0</ele>
        <time>2017-07-25T11:46:03Z</time>
      </trkpt>
      <trkpt lat="44.7628940" lon="7.1854680">
        <ele>1429.0</ele>
        <time>2017-07-25T11:46:05Z</time>
      </trkpt>
      <trkpt lat="44.7629790" lon="7.1855760">
        <ele>1430.0</ele>
        <time>2017-07-25T11:46:08Z</time>
      </trkpt>
      <trkpt lat="44.7630750" lon="7.1856790">
        <ele>1430.8</ele>
        <time>2017-07-25T11:46:12Z</time>
      </trkpt>
      <trkpt lat="44.7630980" lon="7.1857060">
        <ele>1431.2</ele>
        <time>2017-07-25T11:46:13Z</time>
      </trkpt>
      <trkpt lat="44.7632070" lon="7.1858360">
        <ele>1432.0</ele>
        <time>2017-07-25T11:46:18Z</time>
      </trkpt>
      <trkpt lat="44.7632530" lon="7.1858880">
        <ele>1432.2</ele>
        <time>2017-07-25T11:46:20Z</time>
      </trkpt>
      <trkpt lat="44.7633400" lon="7.1859790">
        <ele>1433.4</ele>
        <time>2017-07-25T11:46:24Z</time>
      </trkpt>
      <trkpt lat="44.7633600" lon="7.1860000">
        <ele>1434.0</ele>
        <time>2017-07-25T11:46:25Z</time>
      </trkpt>
      <trkpt lat="44.7633780" lon="7.1860220">
        <ele>1434.8</ele>
        <time>2017-07-25T11:46:26Z</time>
      </trkpt>
      <trkpt lat="44.7634630" lon="7.1861270">
        <ele>1436.0</ele>
        <time>2017-07-25T11:46:30Z</time>
      </trkpt>
      <trkpt lat="44.7634890" lon="7.1861550">
        <ele>1436.4</ele>
        <time>2017-07-25T11:46:31Z</time>
      </trkpt>
      <trkpt lat="44.7635350" lon="7.1862260">
        <ele>1437.0</ele>
        <time>2017-07-25T11:46:33Z</time>
      </trkpt>
      <trkpt lat="44.7636710" lon="7.1864180">
        <ele>1438.0</ele>
        <time>2017-07-25T11:46:38Z</time>
      </trkpt>
      <trkpt lat="44.7636970" lon="7.1864530">
        <ele>1438.2</ele>
        <time>2017-07-25T11:46:39Z</time>
      </trkpt>
      <trkpt lat="44.7638630" lon="7.1866350">
        <ele>1438.4</ele>
        <time>2017-07-25T11:46:44Z</time>
      </trkpt>
      <trkpt lat="44.7641360" lon="7.1869800">
        <ele>1438.2</ele>
        <time>2017-07-25T11:46:52Z</time>
      </trkpt>
      <trkpt lat="44.7642680" lon="7.1871730">
        <ele>1439.2</ele>
        <time>2017-07-25T11:46:57Z</time>
      </trkpt>
      <trkpt lat="44.7643560" lon="7.1872840">
        <ele>1440.4</ele>
        <time>2017-07-25T11:47:01Z</time>
      </trkpt>
      <trkpt lat="44.7644090" lon="7.1873150">
        <ele>1441.2</ele>
        <time>2017-07-25T11:47:03Z</time>
      </trkpt>
      <trkpt lat="44.7644310" lon="7.1873400">
        <ele>1441.8</ele>
        <time>2017-07-25T11:47:04Z</time>
      </trkpt>
      <trkpt lat="44.7644890" lon="7.1874160">
        <ele>1443.0</ele>
        <time>2017-07-25T11:47:07Z</time>
      </trkpt>
      <trkpt lat="44.7645080" lon="7.1874310">
        <ele>1443.6</ele>
        <time>2017-07-25T11:47:08Z</time>
      </trkpt>
      <trkpt lat="44.7645490" lon="7.1874710">
        <ele>1444.2</ele>
        <time>2017-07-25T11:47:10Z</time>
      </trkpt>
      <trkpt lat="44.7646330" lon="7.1875970">
        <ele>1445.2</ele>
        <time>2017-07-25T11:47:14Z</time>
      </trkpt>
      <trkpt lat="44.7646550" lon="7.1876310">
        <ele>1445.4</ele>
        <time>2017-07-25T11:47:15Z</time>
      </trkpt>
      <trkpt lat="44.7647620" lon="7.1877960">
        <ele>1446.4</ele>
        <time>2017-07-25T11:47:19Z</time>
      </trkpt>
      <trkpt lat="44.7647880" lon="7.1878370">
        <ele>1446.6</ele>
        <time>2017-07-25T11:47:20Z</time>
      </trkpt>
      <trkpt lat="44.7649610" lon="7.1880550">
        <ele>1447.2</ele>
        <time>2017-07-25T11:47:25Z</time>
      </trkpt>
      <trkpt lat="44.7651220" lon="7.1882640">
        <ele>1447.2</ele>
        <time>2017-07-25T11:47:30Z</time>
      </trkpt>
      <trkpt lat="44.7651900" lon="7.1883390">
        <ele>1447.2</ele>
        <time>2017-07-25T11:47:32Z</time>
      </trkpt>
      <trkpt lat="44.7652600" lon="7.1884260">
        <ele>1447.2</ele>
        <time>2017-07-25T11:47:34Z</time>
      </trkpt>
      <trkpt lat="44.7653700" lon="7.1885320">
        <ele>1447.6</ele>
        <time>2017-07-25T11:47:37Z</time>
      </trkpt>
      <trkpt lat="44.7653990" lon="7.1885670">
        <ele>1448.0</ele>
        <time>2017-07-25T11:47:38Z</time>
      </trkpt>
      <trkpt lat="44.7655500" lon="7.1887200">
        <ele>1448.8</ele>
        <time>2017-07-25T11:47:43Z</time>
      </trkpt>
      <trkpt lat="44.7655780" lon="7.1886820">
        <ele>1449.0</ele>
        <time>2017-07-25T11:47:44Z</time>
      </trkpt>
      <trkpt lat="44.7655730" lon="7.1885640">
        <ele>1449.2</ele>
        <time>2017-07-25T11:47:47Z</time>
      </trkpt>
      <trkpt lat="44.7654640" lon="7.1884280">
        <ele>1449.8</ele>
        <time>2017-07-25T11:47:51Z</time>
      </trkpt>
      <trkpt lat="44.7654360" lon="7.1883970">
        <ele>1449.8</ele>
        <time>2017-07-25T11:47:52Z</time>
      </trkpt>
      <trkpt lat="44.7653060" lon="7.1882490">
        <ele>1451.0</ele>
        <time>2017-07-25T11:47:57Z</time>
      </trkpt>
      <trkpt lat="44.7652740" lon="7.1882130">
        <ele>1451.0</ele>
        <time>2017-07-25T11:47:58Z</time>
      </trkpt>
      <trkpt lat="44.7650420" lon="7.1879180">
        <ele>1451.8</ele>
        <time>2017-07-25T11:48:04Z</time>
      </trkpt>
      <trkpt lat="44.7647930" lon="7.1874600">
        <ele>1451.6</ele>
        <time>2017-07-25T11:48:12Z</time>
      </trkpt>
      <trkpt lat="44.7646970" lon="7.1871800">
        <ele>1451.8</ele>
        <time>2017-07-25T11:48:16Z</time>
      </trkpt>
      <trkpt lat="44.7646380" lon="7.1870450">
        <ele>1451.4</ele>
        <time>2017-07-25T11:48:18Z</time>
      </trkpt>
      <trkpt lat="44.7644730" lon="7.1867750">
        <ele>1451.2</ele>
        <time>2017-07-25T11:48:23Z</time>
      </trkpt>
      <trkpt lat="44.7644350" lon="7.1866670">
        <ele>1451.0</ele>
        <time>2017-07-25T11:48:25Z</time>
      </trkpt>
      <trkpt lat="44.7643760" lon="7.1864850">
        <ele>1450.6</ele>
        <time>2017-07-25T11:48:28Z</time>
      </trkpt>
      <trkpt lat="44.7642590" lon="7.1861820">
        <ele>1450.8</ele>
        <time>2017-07-25T11:48:33Z</time>
      </trkpt>
      <trkpt lat="44.7642270" lon="7.1861250">
        <ele>1450.6</ele>
        <time>2017-07-25T11:48:34Z</time>
      </trkpt>
      <trkpt lat="44.7641360" lon="7.1859680">
        <ele>1449.8</ele>
        <time>2017-07-25T11:48:37Z</time>
      </trkpt>
      <trkpt lat="44.7640660" lon="7.1858950">
        <ele>1450.2</ele>
        <time>2017-07-25T11:48:39Z</time>
      </trkpt>
      <trkpt lat="44.7640320" lon="7.1858570">
        <ele>1450.2</ele>
        <time>2017-07-25T11:48:40Z</time>
      </trkpt>
      <trkpt lat="44.7638790" lon="7.1856280">
        <ele>1450.2</ele>
        <time>2017-07-25T11:48:46Z</time>
      </trkpt>
      <trkpt lat="44.7637870" lon="7.1854380">
        <ele>1451.0</ele>
        <time>2017-07-25T11:48:51Z</time>
      </trkpt>
      <trkpt lat="44.7637510" lon="7.1853160">
        <ele>1451.6</ele>
        <time>2017-07-25T11:48:54Z</time>
      </trkpt>
      <trkpt lat="44.7637970" lon="7.1852700">
        <ele>1452.0</ele>
        <time>2017-07-25T11:48:57Z</time>
      </trkpt>
      <trkpt lat="44.7638570" lon="7.1852850">
        <ele>1453.0</ele>
        <time>2017-07-25T11:48:59Z</time>
      </trkpt>
      <trkpt lat="44.7638830" lon="7.1852960">
        <ele>1453.6</ele>
        <time>2017-07-25T11:49:00Z</time>
      </trkpt>
      <trkpt lat="44.7639300" lon="7.1853230">
        <ele>1454.4</ele>
        <time>2017-07-25T11:49:02Z</time>
      </trkpt>
      <trkpt lat="44.7639910" lon="7.1853750">
        <ele>1455.8</ele>
        <time>2017-07-25T11:49:05Z</time>
      </trkpt>
      <trkpt lat="44.7640500" lon="7.1853950">
        <ele>1457.0</ele>
        <time>2017-07-25T11:49:08Z</time>
      </trkpt>
      <trkpt lat="44.7640670" lon="7.1854050">
        <ele>1457.4</ele>
        <time>2017-07-25T11:49:09Z</time>
      </trkpt>
      <trkpt lat="44.7641070" lon="7.1854210">
        <ele>1458.4</ele>
        <time>2017-07-25T11:49:11Z</time>
      </trkpt>
      <trkpt lat="44.7641620" lon="7.1854500">
        <ele>1459.8</ele>
        <time>2017-07-25T11:49:14Z</time>
      </trkpt>
      <trkpt lat="44.7641950" lon="7.1854740">
        <ele>1460.8</ele>
        <time>2017-07-25T11:49:16Z</time>
      </trkpt>
      <trkpt lat="44.7642150" lon="7.1854810">
        <ele>1461.2</ele>
        <time>2017-07-25T11:49:17Z</time>
      </trkpt>
      <trkpt lat="44.7642350" lon="7.1854710">
        <ele>1461.6</ele>
        <time>2017-07-25T11:49:18Z</time>
      </trkpt>
      <trkpt lat="44.7642530" lon="7.1854540">
        <ele>1462.0</ele>
        <time>2017-07-25T11:49:19Z</time>
      </trkpt>
      <trkpt lat="44.7642640" lon="7.1854100">
        <ele>1462.2</ele>
        <time>2017-07-25T11:49:21Z</time>
      </trkpt>
      <trkpt lat="44.7642480" lon="7.1853150">
        <ele>1462.8</ele>
        <time>2017-07-25T11:49:25Z</time>
      </trkpt>
      <trkpt lat="44.7642500" lon="7.1852760">
        <ele>1463.0</ele>
        <time>2017-07-25T11:49:27Z</time>
      </trkpt>
      <trkpt lat="44.7642190" lon="7.1851610">
        <ele>1464.2</ele>
        <time>2017-07-25T11:49:33Z</time>
      </trkpt>
      <trkpt lat="44.7642130" lon="7.1851380">
        <ele>1464.6</ele>
        <time>2017-07-25T11:49:34Z</time>
      </trkpt>
      <trkpt lat="44.7641930" lon="7.1850550">
        <ele>1465.2</ele>
        <time>2017-07-25T11:49:38Z</time>
      </trkpt>
      <trkpt lat="44.7641680" lon="7.1850100">
        <ele>1466.2</ele>
        <time>2017-07-25T11:49:41Z</time>
      </trkpt>
      <trkpt lat="44.7641570" lon="7.1850000">
        <ele>1466.4</ele>
        <time>2017-07-25T11:49:42Z</time>
      </trkpt>
      <trkpt lat="44.7641510" lon="7.1849810">
        <ele>1466.6</ele>
        <time>2017-07-25T11:49:43Z</time>
      </trkpt>
      <trkpt lat="44.7641200" lon="7.1849200">
        <ele>1467.4</ele>
        <time>2017-07-25T11:49:47Z</time>
      </trkpt>
      <trkpt lat="44.7641160" lon="7.1849010">
        <ele>1467.4</ele>
        <time>2017-07-25T11:49:48Z</time>
      </trkpt>
      <trkpt lat="44.7641250" lon="7.1848520">
        <ele>1468.4</ele>
        <time>2017-07-25T11:50:04Z</time>
      </trkpt>
      <trkpt lat="44.7641460" lon="7.1848480">
        <ele>1468.6</ele>
        <time>2017-07-25T11:50:05Z</time>
      </trkpt>
      <trkpt lat="44.7642100" lon="7.1848870">
        <ele>1469.6</ele>
        <time>2017-07-25T11:50:08Z</time>
      </trkpt>
      <trkpt lat="44.7642310" lon="7.1849070">
        <ele>1469.6</ele>
        <time>2017-07-25T11:50:09Z</time>
      </trkpt>
      <trkpt lat="44.7642940" lon="7.1849880">
        <ele>1470.6</ele>
        <time>2017-07-25T11:50:13Z</time>
      </trkpt>
      <trkpt lat="44.7643130" lon="7.1850450">
        <ele>1471.0</ele>
        <time>2017-07-25T11:50:15Z</time>
      </trkpt>
      <trkpt lat="44.7643500" lon="7.1851110">
        <ele>1471.6</ele>
        <time>2017-07-25T11:50:18Z</time>
      </trkpt>
      <trkpt lat="44.7644060" lon="7.1851390">
        <ele>1472.2</ele>
        <time>2017-07-25T11:50:21Z</time>
      </trkpt>
      <trkpt lat="44.7644240" lon="7.1851280">
        <ele>1472.8</ele>
        <time>2017-07-25T11:50:22Z</time>
      </trkpt>
      <trkpt lat="44.7644310" lon="7.1850260">
        <ele>1473.2</ele>
        <time>2017-07-25T11:50:26Z</time>
      </trkpt>
      <trkpt lat="44.7644120" lon="7.1849500">
        <ele>1473.8</ele>
        <time>2017-07-25T11:50:29Z</time>
      </trkpt>
      <trkpt lat="44.7643750" lon="7.1848780">
        <ele>1475.0</ele>
        <time>2017-07-25T11:50:33Z</time>
      </trkpt>
      <trkpt lat="44.7643260" lon="7.1847460">
        <ele>1476.2</ele>
        <time>2017-07-25T11:50:39Z</time>
      </trkpt>
      <trkpt lat="44.7642810" lon="7.1846080">
        <ele>1477.2</ele>
        <time>2017-07-25T11:50:45Z</time>
      </trkpt>
      <trkpt lat="44.7642730" lon="7.1845840">
        <ele>1477.6</ele>
        <time>2017-07-25T11:50:46Z</time>
      </trkpt>
      <trkpt lat="44.7642480" lon="7.1845000">
        <ele>1478.6</ele>
        <time>2017-07-25T11:50:49Z</time>
      </trkpt>
      <trkpt lat="44.7642350" lon="7.1844550">
        <ele>1480.0</ele>
        <time>2017-07-25T11:50:51Z</time>
      </trkpt>
      <trkpt lat="44.7642150" lon="7.1844070">
        <ele>1480.4</ele>
        <time>2017-07-25T11:50:53Z</time>
      </trkpt>
      <trkpt lat="44.7641760" lon="7.1843500">
        <ele>1481.2</ele>
        <time>2017-07-25T11:50:56Z</time>
      </trkpt>
      <trkpt lat="44.7641480" lon="7.1842920">
        <ele>1482.6</ele>
        <time>2017-07-25T11:50:59Z</time>
      </trkpt>
      <trkpt lat="44.7641310" lon="7.1842530">
        <ele>1483.8</ele>
        <time>2017-07-25T11:51:01Z</time>
      </trkpt>
      <trkpt lat="44.7640860" lon="7.1841560">
        <ele>1485.4</ele>
        <time>2017-07-25T11:51:05Z</time>
      </trkpt>
      <trkpt lat="44.7640740" lon="7.1841050">
        <ele>1486.2</ele>
        <time>2017-07-25T11:51:07Z</time>
      </trkpt>
      <trkpt lat="44.7640610" lon="7.1840780">
        <ele>1486.4</ele>
        <time>2017-07-25T11:51:08Z</time>
      </trkpt>
      <trkpt lat="44.7640320" lon="7.1839640">
        <ele>1487.2</ele>
        <time>2017-07-25T11:51:12Z</time>
      </trkpt>
      <trkpt lat="44.7640230" lon="7.1838040">
        <ele>1487.6</ele>
        <time>2017-07-25T11:51:17Z</time>
      </trkpt>
      <trkpt lat="44.7640200" lon="7.1837460">
        <ele>1487.8</ele>
        <time>2017-07-25T11:51:19Z</time>
      </trkpt>
      <trkpt lat="44.7640150" lon="7.1836560">
        <ele>1488.8</ele>
        <time>2017-07-25T11:51:22Z</time>
      </trkpt>
      <trkpt lat="44.7640150" lon="7.1835460">
        <ele>1489.2</ele>
        <time>2017-07-25T11:51:26Z</time>
      </trkpt>
      <trkpt lat="44.7640100" lon="7.1834750">
        <ele>1490.0</ele>
        <time>2017-07-25T11:51:29Z</time>
      </trkpt>
      <trkpt lat="44.7640040" lon="7.1833540">
        <ele>1490.4</ele>
        <time>2017-07-25T11:51:34Z</time>
      </trkpt>
      <trkpt lat="44.7639850" lon="7.1832530">
        <ele>1491.2</ele>
        <time>2017-07-25T11:51:38Z</time>
      </trkpt>
      <trkpt lat="44.7639870" lon="7.1831800">
        <ele>1492.0</ele>
        <time>2017-07-25T11:51:41Z</time>
      </trkpt>
      <trkpt lat="44.7639920" lon="7.1831310">
        <ele>1492.4</ele>
        <time>2017-07-25T11:51:43Z</time>
      </trkpt>
      <trkpt lat="44.7639920" lon="7.1830850">
        <ele>1493.4</ele>
        <time>2017-07-25T11:51:45Z</time>
      </trkpt>
      <trkpt lat="44.7639910" lon="7.1829880">
        <ele>1494.4</ele>
        <time>2017-07-25T11:51:49Z</time>
      </trkpt>
      <trkpt lat="44.7639940" lon="7.1829590">
        <ele>1494.6</ele>
        <time>2017-07-25T11:51:50Z</time>
      </trkpt>
      <trkpt lat="44.7640030" lon="7.1828950">
        <ele>1495.8</ele>
        <time>2017-07-25T11:51:53Z</time>
      </trkpt>
      <trkpt lat="44.7640110" lon="7.1828500">
        <ele>1497.0</ele>
        <time>2017-07-25T11:51:55Z</time>
      </trkpt>
      <trkpt lat="44.7640130" lon="7.1828290">
        <ele>1497.2</ele>
        <time>2017-07-25T11:51:56Z</time>
      </trkpt>
      <trkpt lat="44.7640190" lon="7.1827380">
        <ele>1497.4</ele>
        <time>2017-07-25T11:52:00Z</time>
      </trkpt>
      <trkpt lat="44.7640260" lon="7.1826650">
        <ele>1498.2</ele>
        <time>2017-07-25T11:52:03Z</time>
      </trkpt>
      <trkpt lat="44.7640150" lon="7.1825260">
        <ele>1498.8</ele>
        <time>2017-07-25T11:52:09Z</time>
      </trkpt>
      <trkpt lat="44.7640110" lon="7.1824880">
        <ele>1499.6</ele>
        <time>2017-07-25T11:52:11Z</time>
      </trkpt>
      <trkpt lat="44.7640140" lon="7.1823950">
        <ele>1500.0</ele>
        <time>2017-07-25T11:52:15Z</time>
      </trkpt>
      <trkpt lat="44.7640120" lon="7.1823130">
        <ele>1501.4</ele>
        <time>2017-07-25T11:52:19Z</time>
      </trkpt>
      <trkpt lat="44.7640170" lon="7.1822660">
        <ele>1502.4</ele>
        <time>2017-07-25T11:52:21Z</time>
      </trkpt>
      <trkpt lat="44.7640170" lon="7.1822250">
        <ele>1502.6</ele>
        <time>2017-07-25T11:52:23Z</time>
      </trkpt>
      <trkpt lat="44.7640230" lon="7.1821410">
        <ele>1503.4</ele>
        <time>2017-07-25T11:52:27Z</time>
      </trkpt>
      <trkpt lat="44.7640240" lon="7.1820440">
        <ele>1504.0</ele>
        <time>2017-07-25T11:52:31Z</time>
      </trkpt>
      <trkpt lat="44.7640170" lon="7.1820200">
        <ele>1504.4</ele>
        <time>2017-07-25T11:52:32Z</time>
      </trkpt>
      <trkpt lat="44.7640110" lon="7.1819990">
        <ele>1504.6</ele>
        <time>2017-07-25T11:52:33Z</time>
      </trkpt>
      <trkpt lat="44.7639920" lon="7.1818910">
        <ele>1505.4</ele>
        <time>2017-07-25T11:52:37Z</time>
      </trkpt>
      <trkpt lat="44.7639860" lon="7.1818680">
        <ele>1505.6</ele>
        <time>2017-07-25T11:52:38Z</time>
      </trkpt>
      <trkpt lat="44.7639790" lon="7.1817730">
        <ele>1506.8</ele>
        <time>2017-07-25T11:52:42Z</time>
      </trkpt>
      <trkpt lat="44.7639750" lon="7.1817080">
        <ele>1507.0</ele>
        <time>2017-07-25T11:52:45Z</time>
      </trkpt>
      <trkpt lat="44.7639720" lon="7.1816200">
        <ele>1508.0</ele>
        <time>2017-07-25T11:52:49Z</time>
      </trkpt>
      <trkpt lat="44.7639610" lon="7.1815750">
        <ele>1509.2</ele>
        <time>2017-07-25T11:52:51Z</time>
      </trkpt>
      <trkpt lat="44.7639450" lon="7.1814790">
        <ele>1510.4</ele>
        <time>2017-07-25T11:52:55Z</time>
      </trkpt>
      <trkpt lat="44.7639410" lon="7.1814170">
        <ele>1511.6</ele>
        <time>2017-07-25T11:52:58Z</time>
      </trkpt>
      <trkpt lat="44.7639380" lon="7.1813610">
        <ele>1512.6</ele>
        <time>2017-07-25T11:53:00Z</time>
      </trkpt>
      <trkpt lat="44.7639220" lon="7.1812330">
        <ele>1513.6</ele>
        <time>2017-07-25T11:53:05Z</time>
      </trkpt>
      <trkpt lat="44.7639220" lon="7.1811820">
        <ele>1514.4</ele>
        <time>2017-07-25T11:53:07Z</time>
      </trkpt>
      <trkpt lat="44.7639190" lon="7.1811620">
        <ele>1515.0</ele>
        <time>2017-07-25T11:53:08Z</time>
      </trkpt>
      <trkpt lat="44.7638880" lon="7.1810170">
        <ele>1516.2</ele>
        <time>2017-07-25T11:53:13Z</time>
      </trkpt>
      <trkpt lat="44.7638810" lon="7.1809560">
        <ele>1516.4</ele>
        <time>2017-07-25T11:53:15Z</time>
      </trkpt>
      <trkpt lat="44.7638400" lon="7.1807280">
        <ele>1517.0</ele>
        <time>2017-07-25T11:53:21Z</time>
      </trkpt>
      <trkpt lat="44.7638180" lon="7.1806190">
        <ele>1517.2</ele>
        <time>2017-07-25T11:53:24Z</time>
      </trkpt>
      <trkpt lat="44.7637740" lon="7.1804370">
        <ele>1517.6</ele>
        <time>2017-07-25T11:53:29Z</time>
      </trkpt>
      <trkpt lat="44.7636980" lon="7.1801460">
        <ele>1518.2</ele>
        <time>2017-07-25T11:53:35Z</time>
      </trkpt>
      <trkpt lat="44.7636860" lon="7.1800980">
        <ele>1518.2</ele>
        <time>2017-07-25T11:53:36Z</time>
      </trkpt>
      <trkpt lat="44.7635630" lon="7.1797880">
        <ele>1518.8</ele>
        <time>2017-07-25T11:53:43Z</time>
      </trkpt>
      <trkpt lat="44.7635120" lon="7.1796710">
        <ele>1519.4</ele>
        <time>2017-07-25T11:53:46Z</time>
      </trkpt>
      <trkpt lat="44.7634500" lon="7.1796090">
        <ele>1519.8</ele>
        <time>2017-07-25T11:53:49Z</time>
      </trkpt>
      <trkpt lat="44.7633220" lon="7.1795880">
        <ele>1520.2</ele>
        <time>2017-07-25T11:53:54Z</time>
      </trkpt>
      <trkpt lat="44.7632940" lon="7.1795890">
        <ele>1520.4</ele>
        <time>2017-07-25T11:53:55Z</time>
      </trkpt>
      <trkpt lat="44.7631580" lon="7.1796060">
        <ele>1521.4</ele>
        <time>2017-07-25T11:54:01Z</time>
      </trkpt>
      <trkpt lat="44.7631140" lon="7.1796090">
        <ele>1522.2</ele>
        <time>2017-07-25T11:54:03Z</time>
      </trkpt>
      <trkpt lat="44.7630930" lon="7.1796100">
        <ele>1522.6</ele>
        <time>2017-07-25T11:54:04Z</time>
      </trkpt>
      <trkpt lat="44.7630010" lon="7.1796220">
        <ele>1523.6</ele>
        <time>2017-07-25T11:54:08Z</time>
      </trkpt>
      <trkpt lat="44.7629550" lon="7.1796160">
        <ele>1524.2</ele>
        <time>2017-07-25T11:54:10Z</time>
      </trkpt>
      <trkpt lat="44.7629150" lon="7.1796000">
        <ele>1524.6</ele>
        <time>2017-07-25T11:54:12Z</time>
      </trkpt>
      <trkpt lat="44.7629060" lon="7.1795770">
        <ele>1524.8</ele>
        <time>2017-07-25T11:54:13Z</time>
      </trkpt>
      <trkpt lat="44.7629090" lon="7.1795260">
        <ele>1525.2</ele>
        <time>2017-07-25T11:54:15Z</time>
      </trkpt>
      <trkpt lat="44.7629750" lon="7.1794870">
        <ele>1525.8</ele>
        <time>2017-07-25T11:54:18Z</time>
      </trkpt>
      <trkpt lat="44.7630000" lon="7.1794780">
        <ele>1526.0</ele>
        <time>2017-07-25T11:54:19Z</time>
      </trkpt>
      <trkpt lat="44.7630410" lon="7.1794470">
        <ele>1526.8</ele>
        <time>2017-07-25T11:54:21Z</time>
      </trkpt>
      <trkpt lat="44.7631160" lon="7.1793650">
        <ele>1527.6</ele>
        <time>2017-07-25T11:54:25Z</time>
      </trkpt>
      <trkpt lat="44.7631530" lon="7.1793250">
        <ele>1528.0</ele>
        <time>2017-07-25T11:54:27Z</time>
      </trkpt>
      <trkpt lat="44.7633330" lon="7.1792000">
        <ele>1529.2</ele>
        <time>2017-07-25T11:54:35Z</time>
      </trkpt>
      <trkpt lat="44.7633740" lon="7.1791260">
        <ele>1529.6</ele>
        <time>2017-07-25T11:54:38Z</time>
      </trkpt>
      <trkpt lat="44.7633600" lon="7.1791050">
        <ele>1529.6</ele>
        <time>2017-07-25T11:54:39Z</time>
      </trkpt>
      <trkpt lat="44.7633230" lon="7.1790950">
        <ele>1530.2</ele>
        <time>2017-07-25T11:54:41Z</time>
      </trkpt>
      <trkpt lat="44.7632770" lon="7.1791030">
        <ele>1530.6</ele>
        <time>2017-07-25T11:54:43Z</time>
      </trkpt>
      <trkpt lat="44.7632140" lon="7.1791230">
        <ele>1531.4</ele>
        <time>2017-07-25T11:54:46Z</time>
      </trkpt>
      <trkpt lat="44.7631530" lon="7.1791380">
        <ele>1532.2</ele>
        <time>2017-07-25T11:54:49Z</time>
      </trkpt>
      <trkpt lat="44.7631350" lon="7.1791450">
        <ele>1532.4</ele>
        <time>2017-07-25T11:54:50Z</time>
      </trkpt>
      <trkpt lat="44.7630790" lon="7.1791450">
        <ele>1533.8</ele>
        <time>2017-07-25T11:54:53Z</time>
      </trkpt>
      <trkpt lat="44.7630050" lon="7.1791170">
        <ele>1535.0</ele>
        <time>2017-07-25T11:54:57Z</time>
      </trkpt>
      <trkpt lat="44.7629350" lon="7.1790940">
        <ele>1536.0</ele>
        <time>2017-07-25T11:55:01Z</time>
      </trkpt>
      <trkpt lat="44.7628980" lon="7.1790370">
        <ele>1536.6</ele>
        <time>2017-07-25T11:55:04Z</time>
      </trkpt>
      <trkpt lat="44.7629000" lon="7.1790080">
        <ele>1536.8</ele>
        <time>2017-07-25T11:55:05Z</time>
      </trkpt>
      <trkpt lat="44.7629080" lon="7.1789800">
        <ele>1537.0</ele>
        <time>2017-07-25T11:55:06Z</time>
      </trkpt>
      <trkpt lat="44.7629370" lon="7.1789450">
        <ele>1537.6</ele>
        <time>2017-07-25T11:55:08Z</time>
      </trkpt>
      <trkpt lat="44.7629810" lon="7.1789350">
        <ele>1538.2</ele>
        <time>2017-07-25T11:55:10Z</time>
      </trkpt>
      <trkpt lat="44.7630060" lon="7.1789310">
        <ele>1538.6</ele>
        <time>2017-07-25T11:55:11Z</time>
      </trkpt>
      <trkpt lat="44.7630580" lon="7.1789310">
        <ele>1539.8</ele>
        <time>2017-07-25T11:55:13Z</time>
      </trkpt>
      <trkpt lat="44.7631150" lon="7.1789080">
        <ele>1541.2</ele>
        <time>2017-07-25T11:55:15Z</time>
      </trkpt>
      <trkpt lat="44.7632250" lon="7.1788420">
        <ele>1542.2</ele>
        <time>2017-07-25T11:55:19Z</time>
      </trkpt>
      <trkpt lat="44.7633110" lon="7.1788090">
        <ele>1543.6</ele>
        <time>2017-07-25T11:55:22Z</time>
      </trkpt>
      <trkpt lat="44.7633600" lon="7.1787840">
        <ele>1544.6</ele>
        <time>2017-07-25T11:55:24Z</time>
      </trkpt>
      <trkpt lat="44.7634390" lon="7.1787370">
        <ele>1545.6</ele>
        <time>2017-07-25T11:55:27Z</time>
      </trkpt>
      <trkpt lat="44.7634630" lon="7.1787290">
        <ele>1546.0</ele>
        <time>2017-07-25T11:55:28Z</time>
      </trkpt>
      <trkpt lat="44.7635100" lon="7.1787130">
        <ele>1547.0</ele>
        <time>2017-07-25T11:55:30Z</time>
      </trkpt>
      <trkpt lat="44.7635940" lon="7.1787020">
        <ele>1548.4</ele>
        <time>2017-07-25T11:55:33Z</time>
      </trkpt>
      <trkpt lat="44.7636190" lon="7.1787010">
        <ele>1548.6</ele>
        <time>2017-07-25T11:55:34Z</time>
      </trkpt>
      <trkpt lat="44.7636730" lon="7.1787010">
        <ele>1549.4</ele>
        <time>2017-07-25T11:55:36Z</time>
      </trkpt>
      <trkpt lat="44.7637440" lon="7.1787140">
        <ele>1551.0</ele>
        <time>2017-07-25T11:55:39Z</time>
      </trkpt>
      <trkpt lat="44.7637900" lon="7.1787320">
        <ele>1551.6</ele>
        <time>2017-07-25T11:55:41Z</time>
      </trkpt>
      <trkpt lat="44.7638320" lon="7.1787580">
        <ele>1552.2</ele>
        <time>2017-07-25T11:55:43Z</time>
      </trkpt>
      <trkpt lat="44.7638990" lon="7.1787940">
        <ele>1553.6</ele>
        <time>2017-07-25T11:55:46Z</time>
      </trkpt>
      <trkpt lat="44.7639390" lon="7.1788370">
        <ele>1554.4</ele>
        <time>2017-07-25T11:55:48Z</time>
      </trkpt>
      <trkpt lat="44.7639540" lon="7.1788670">
        <ele>1554.8</ele>
        <time>2017-07-25T11:55:49Z</time>
      </trkpt>
      <trkpt lat="44.7640500" lon="7.1790320">
        <ele>1554.6</ele>
        <time>2017-07-25T11:55:54Z</time>
      </trkpt>
      <trkpt lat="44.7641870" lon="7.1792560">
        <ele>1554.0</ele>
        <time>2017-07-25T11:56:01Z</time>
      </trkpt>
      <trkpt lat="44.7642210" lon="7.1793300">
        <ele>1553.6</ele>
        <time>2017-07-25T11:56:03Z</time>
      </trkpt>
      <trkpt lat="44.7642510" lon="7.1794370">
        <ele>1553.4</ele>
        <time>2017-07-25T11:56:06Z</time>
      </trkpt>
      <trkpt lat="44.7643730" lon="7.1797340">
        <ele>1553.0</ele>
        <time>2017-07-25T11:56:16Z</time>
      </trkpt>
      <trkpt lat="44.7644550" lon="7.1799670">
        <ele>1554.4</ele>
        <time>2017-07-25T11:56:24Z</time>
      </trkpt>
      <trkpt lat="44.7644740" lon="7.1800250">
        <ele>1555.0</ele>
        <time>2017-07-25T11:56:26Z</time>
      </trkpt>
      <trkpt lat="44.7645090" lon="7.1801520">
        <ele>1556.2</ele>
        <time>2017-07-25T11:56:30Z</time>
      </trkpt>
      <trkpt lat="44.7645270" lon="7.1802250">
        <ele>1557.0</ele>
        <time>2017-07-25T11:56:32Z</time>
      </trkpt>
      <trkpt lat="44.7645350" lon="7.1802660">
        <ele>1557.4</ele>
        <time>2017-07-25T11:56:33Z</time>
      </trkpt>
      <trkpt lat="44.7645610" lon="7.1803960">
        <ele>1558.6</ele>
        <time>2017-07-25T11:56:36Z</time>
      </trkpt>
      <trkpt lat="44.7645970" lon="7.1805090">
        <ele>1560.2</ele>
        <time>2017-07-25T11:56:39Z</time>
      </trkpt>
      <trkpt lat="44.7646340" lon="7.1805660">
        <ele>1561.4</ele>
        <time>2017-07-25T11:56:41Z</time>
      </trkpt>
      <trkpt lat="44.7646740" lon="7.1806760">
        <ele>1561.8</ele>
        <time>2017-07-25T11:56:44Z</time>
      </trkpt>
      <trkpt lat="44.7647330" lon="7.1808750">
        <ele>1562.2</ele>
        <time>2017-07-25T11:56:50Z</time>
      </trkpt>
      <trkpt lat="44.7647440" lon="7.1809060">
        <ele>1562.4</ele>
        <time>2017-07-25T11:56:51Z</time>
      </trkpt>
      <trkpt lat="44.7648410" lon="7.1811280">
        <ele>1562.8</ele>
        <time>2017-07-25T11:56:59Z</time>
      </trkpt>
      <trkpt lat="44.7649060" lon="7.1812330">
        <ele>1563.2</ele>
        <time>2017-07-25T11:57:04Z</time>
      </trkpt>
      <trkpt lat="44.7649430" lon="7.1812660">
        <ele>1563.6</ele>
        <time>2017-07-25T11:57:06Z</time>
      </trkpt>
      <trkpt lat="44.7650030" lon="7.1813350">
        <ele>1564.6</ele>
        <time>2017-07-25T11:57:10Z</time>
      </trkpt>
      <trkpt lat="44.7650210" lon="7.1813510">
        <ele>1564.8</ele>
        <time>2017-07-25T11:57:11Z</time>
      </trkpt>
      <trkpt lat="44.7650930" lon="7.1814130">
        <ele>1566.6</ele>
        <time>2017-07-25T11:57:15Z</time>
      </trkpt>
      <trkpt lat="44.7651640" lon="7.1814780">
        <ele>1567.6</ele>
        <time>2017-07-25T11:57:19Z</time>
      </trkpt>
      <trkpt lat="44.7651810" lon="7.1814920">
        <ele>1568.2</ele>
        <time>2017-07-25T11:57:20Z</time>
      </trkpt>
      <trkpt lat="44.7651980" lon="7.1815040">
        <ele>1568.8</ele>
        <time>2017-07-25T11:57:21Z</time>
      </trkpt>
      <trkpt lat="44.7652320" lon="7.1815280">
        <ele>1569.8</ele>
        <time>2017-07-25T11:57:23Z</time>
      </trkpt>
      <trkpt lat="44.7653020" lon="7.1815890">
        <ele>1570.8</ele>
        <time>2017-07-25T11:57:27Z</time>
      </trkpt>
      <trkpt lat="44.7653190" lon="7.1816050">
        <ele>1571.0</ele>
        <time>2017-07-25T11:57:28Z</time>
      </trkpt>
      <trkpt lat="44.7653670" lon="7.1816500">
        <ele>1572.0</ele>
        <time>2017-07-25T11:57:31Z</time>
      </trkpt>
      <trkpt lat="44.7654150" lon="7.1816930">
        <ele>1573.0</ele>
        <time>2017-07-25T11:57:34Z</time>
      </trkpt>
      <trkpt lat="44.7654450" lon="7.1817290">
        <ele>1573.8</ele>
        <time>2017-07-25T11:57:36Z</time>
      </trkpt>
      <trkpt lat="44.7654750" lon="7.1817660">
        <ele>1574.2</ele>
        <time>2017-07-25T11:57:38Z</time>
      </trkpt>
      <trkpt lat="44.7655420" lon="7.1818190">
        <ele>1575.2</ele>
        <time>2017-07-25T11:57:42Z</time>
      </trkpt>
      <trkpt lat="44.7655610" lon="7.1818190">
        <ele>1575.6</ele>
        <time>2017-07-25T11:57:43Z</time>
      </trkpt>
      <trkpt lat="44.7655790" lon="7.1818150">
        <ele>1576.0</ele>
        <time>2017-07-25T11:57:44Z</time>
      </trkpt>
      <trkpt lat="44.7655890" lon="7.1817840">
        <ele>1576.2</ele>
        <time>2017-07-25T11:57:45Z</time>
      </trkpt>
      <trkpt lat="44.7655970" lon="7.1817280">
        <ele>1576.0</ele>
        <time>2017-07-25T11:57:47Z</time>
      </trkpt>
      <trkpt lat="44.7655720" lon="7.1815230">
        <ele>1575.8</ele>
        <time>2017-07-25T11:57:54Z</time>
      </trkpt>
      <trkpt lat="44.7655750" lon="7.1812340">
        <ele>1576.0</ele>
        <time>2017-07-25T11:58:05Z</time>
      </trkpt>
      <trkpt lat="44.7655630" lon="7.1810790">
        <ele>1576.4</ele>
        <time>2017-07-25T11:58:12Z</time>
      </trkpt>
      <trkpt lat="44.7655140" lon="7.1809260">
        <ele>1577.0</ele>
        <time>2017-07-25T11:58:19Z</time>
      </trkpt>
      <trkpt lat="44.7655030" lon="7.1808630">
        <ele>1577.6</ele>
        <time>2017-07-25T11:58:22Z</time>
      </trkpt>
      <trkpt lat="44.7654820" lon="7.1807980">
        <ele>1578.0</ele>
        <time>2017-07-25T11:58:25Z</time>
      </trkpt>
      <trkpt lat="44.7654660" lon="7.1807330">
        <ele>1578.6</ele>
        <time>2017-07-25T11:58:28Z</time>
      </trkpt>
      <trkpt lat="44.7654510" lon="7.1806410">
        <ele>1579.8</ele>
        <time>2017-07-25T11:58:32Z</time>
      </trkpt>
      <trkpt lat="44.7654240" lon="7.1805400">
        <ele>1580.8</ele>
        <time>2017-07-25T11:58:36Z</time>
      </trkpt>
      <trkpt lat="44.7654110" lon="7.1804900">
        <ele>1581.0</ele>
        <time>2017-07-25T11:58:38Z</time>
      </trkpt>
      <trkpt lat="44.7653990" lon="7.1804380">
        <ele>1581.4</ele>
        <time>2017-07-25T11:58:40Z</time>
      </trkpt>
      <trkpt lat="44.7653840" lon="7.1803930">
        <ele>1582.0</ele>
        <time>2017-07-25T11:58:42Z</time>
      </trkpt>
      <trkpt lat="44.7653470" lon="7.1803130">
        <ele>1583.2</ele>
        <time>2017-07-25T11:58:46Z</time>
      </trkpt>
      <trkpt lat="44.7653390" lon="7.1802910">
        <ele>1583.4</ele>
        <time>2017-07-25T11:58:47Z</time>
      </trkpt>
      <trkpt lat="44.7653090" lon="7.1802010">
        <ele>1584.4</ele>
        <time>2017-07-25T11:58:51Z</time>
      </trkpt>
      <trkpt lat="44.7652860" lon="7.1801610">
        <ele>1585.0</ele>
        <time>2017-07-25T11:58:53Z</time>
      </trkpt>
      <trkpt lat="44.7652780" lon="7.1801430">
        <ele>1585.2</ele>
        <time>2017-07-25T11:58:54Z</time>
      </trkpt>
      <trkpt lat="44.7652750" lon="7.1801010">
        <ele>1585.4</ele>
        <time>2017-07-25T11:58:56Z</time>
      </trkpt>
      <trkpt lat="44.7652730" lon="7.1800570">
        <ele>1585.6</ele>
        <time>2017-07-25T11:58:58Z</time>
      </trkpt>
      <trkpt lat="44.7652300" lon="7.1799530">
        <ele>1586.2</ele>
        <time>2017-07-25T11:59:03Z</time>
      </trkpt>
      <trkpt lat="44.7652210" lon="7.1799090">
        <ele>1586.6</ele>
        <time>2017-07-25T11:59:05Z</time>
      </trkpt>
      <trkpt lat="44.7652040" lon="7.1798020">
        <ele>1587.2</ele>
        <time>2017-07-25T11:59:10Z</time>
      </trkpt>
      <trkpt lat="44.7651970" lon="7.1797600">
        <ele>1587.6</ele>
        <time>2017-07-25T11:59:12Z</time>
      </trkpt>
      <trkpt lat="44.7651710" lon="7.1796780">
        <ele>1588.6</ele>
        <time>2017-07-25T11:59:16Z</time>
      </trkpt>
      <trkpt lat="44.7651610" lon="7.1796350">
        <ele>1589.0</ele>
        <time>2017-07-25T11:59:18Z</time>
      </trkpt>
      <trkpt lat="44.7651560" lon="7.1796140">
        <ele>1589.2</ele>
        <time>2017-07-25T11:59:19Z</time>
      </trkpt>
      <trkpt lat="44.7651450" lon="7.1795380">
        <ele>1589.6</ele>
        <time>2017-07-25T11:59:22Z</time>
      </trkpt>
      <trkpt lat="44.7651310" lon="7.1794120">
        <ele>1590.6</ele>
        <time>2017-07-25T11:59:27Z</time>
      </trkpt>
      <trkpt lat="44.7651300" lon="7.1793570">
        <ele>1590.8</ele>
        <time>2017-07-25T11:59:29Z</time>
      </trkpt>
      <trkpt lat="44.7651260" lon="7.1792390">
        <ele>1591.4</ele>
        <time>2017-07-25T11:59:33Z</time>
      </trkpt>
      <trkpt lat="44.7651240" lon="7.1792140">
        <ele>1591.8</ele>
        <time>2017-07-25T11:59:34Z</time>
      </trkpt>
      <trkpt lat="44.7651310" lon="7.1791150">
        <ele>1593.0</ele>
        <time>2017-07-25T11:59:38Z</time>
      </trkpt>
      <trkpt lat="44.7651330" lon="7.1790900">
        <ele>1593.6</ele>
        <time>2017-07-25T11:59:39Z</time>
      </trkpt>
      <trkpt lat="44.7651320" lon="7.1790500">
        <ele>1594.2</ele>
        <time>2017-07-25T11:59:41Z</time>
      </trkpt>
      <trkpt lat="44.7651150" lon="7.1789590">
        <ele>1595.4</ele>
        <time>2017-07-25T11:59:45Z</time>
      </trkpt>
      <trkpt lat="44.7651050" lon="7.1788520">
        <ele>1596.6</ele>
        <time>2017-07-25T11:59:49Z</time>
      </trkpt>
      <trkpt lat="44.7651080" lon="7.1788280">
        <ele>1596.8</ele>
        <time>2017-07-25T11:59:50Z</time>
      </trkpt>
      <trkpt lat="44.7651090" lon="7.1788040">
        <ele>1597.2</ele>
        <time>2017-07-25T11:59:51Z</time>
      </trkpt>
      <trkpt lat="44.7651050" lon="7.1787560">
        <ele>1598.0</ele>
        <time>2017-07-25T11:59:53Z</time>
      </trkpt>
      <trkpt lat="44.7650970" lon="7.1786840">
        <ele>1599.0</ele>
        <time>2017-07-25T11:59:56Z</time>
      </trkpt>
      <trkpt lat="44.7650850" lon="7.1785940">
        <ele>1600.0</ele>
        <time>2017-07-25T12:00:00Z</time>
      </trkpt>
      <trkpt lat="44.7650810" lon="7.1785710">
        <ele>1600.2</ele>
        <time>2017-07-25T12:00:01Z</time>
      </trkpt>
      <trkpt lat="44.7650790" lon="7.1785200">
        <ele>1601.2</ele>
        <time>2017-07-25T12:00:03Z</time>
      </trkpt>
      <trkpt lat="44.7650530" lon="7.1784300">
        <ele>1602.6</ele>
        <time>2017-07-25T12:00:07Z</time>
      </trkpt>
      <trkpt lat="44.7650380" lon="7.1783670">
        <ele>1603.8</ele>
        <time>2017-07-25T12:00:10Z</time>
      </trkpt>
      <trkpt lat="44.7650210" lon="7.1782960">
        <ele>1604.8</ele>
        <time>2017-07-25T12:00:13Z</time>
      </trkpt>
      <trkpt lat="44.7650040" lon="7.1782190">
        <ele>1605.4</ele>
        <time>2017-07-25T12:00:16Z</time>
      </trkpt>
      <trkpt lat="44.7649930" lon="7.1781710">
        <ele>1606.0</ele>
        <time>2017-07-25T12:00:18Z</time>
      </trkpt>
      <trkpt lat="44.7649770" lon="7.1780430">
        <ele>1606.6</ele>
        <time>2017-07-25T12:00:23Z</time>
      </trkpt>
      <trkpt lat="44.7649610" lon="7.1779890">
        <ele>1607.2</ele>
        <time>2017-07-25T12:00:25Z</time>
      </trkpt>
      <trkpt lat="44.7649520" lon="7.1778560">
        <ele>1608.0</ele>
        <time>2017-07-25T12:00:29Z</time>
      </trkpt>
      <trkpt lat="44.7649500" lon="7.1778240">
        <ele>1608.2</ele>
        <time>2017-07-25T12:00:30Z</time>
      </trkpt>
      <trkpt lat="44.7649330" lon="7.1776760">
        <ele>1609.4</ele>
        <time>2017-07-25T12:00:35Z</time>
      </trkpt>
      <trkpt lat="44.7649310" lon="7.1776470">
        <ele>1609.4</ele>
        <time>2017-07-25T12:00:36Z</time>
      </trkpt>
      <trkpt lat="44.7649080" lon="7.1774990">
        <ele>1609.8</ele>
        <time>2017-07-25T12:00:42Z</time>
      </trkpt>
      <trkpt lat="44.7649110" lon="7.1774810">
        <ele>1609.8</ele>
        <time>2017-07-25T12:00:43Z</time>
      </trkpt>
      <trkpt lat="44.7649450" lon="7.1774780">
        <ele>1610.6</ele>
        <time>2017-07-25T12:00:46Z</time>
      </trkpt>
      <trkpt lat="44.7649540" lon="7.1774890">
        <ele>1611.4</ele>
        <time>2017-07-25T12:00:47Z</time>
      </trkpt>
      <trkpt lat="44.7649610" lon="7.1775040">
        <ele>1612.0</ele>
        <time>2017-07-25T12:00:48Z</time>
      </trkpt>
      <trkpt lat="44.7649730" lon="7.1775450">
        <ele>1612.6</ele>
        <time>2017-07-25T12:00:50Z</time>
      </trkpt>
      <trkpt lat="44.7649960" lon="7.1775950">
        <ele>1613.4</ele>
        <time>2017-07-25T12:00:52Z</time>
      </trkpt>
      <trkpt lat="44.7650650" lon="7.1777090">
        <ele>1614.4</ele>
        <time>2017-07-25T12:00:57Z</time>
      </trkpt>
      <trkpt lat="44.7650940" lon="7.1777460">
        <ele>1615.0</ele>
        <time>2017-07-25T12:00:59Z</time>
      </trkpt>
      <trkpt lat="44.7651220" lon="7.1777890">
        <ele>1615.4</ele>
        <time>2017-07-25T12:01:01Z</time>
      </trkpt>
      <trkpt lat="44.7651870" lon="7.1779000">
        <ele>1616.0</ele>
        <time>2017-07-25T12:01:06Z</time>
      </trkpt>
      <trkpt lat="44.7652290" lon="7.1779540">
        <ele>1616.6</ele>
        <time>2017-07-25T12:01:09Z</time>
      </trkpt>
      <trkpt lat="44.7652940" lon="7.1780480">
        <ele>1617.0</ele>
        <time>2017-07-25T12:01:14Z</time>
      </trkpt>
      <trkpt lat="44.7653390" lon="7.1781060">
        <ele>1618.2</ele>
        <time>2017-07-25T12:01:17Z</time>
      </trkpt>
      <trkpt lat="44.7653970" lon="7.1781700">
        <ele>1619.2</ele>
        <time>2017-07-25T12:01:20Z</time>
      </trkpt>
      <trkpt lat="44.7654320" lon="7.1782520">
        <ele>1620.2</ele>
        <time>2017-07-25T12:01:23Z</time>
      </trkpt>
      <trkpt lat="44.7654500" lon="7.1783110">
        <ele>1621.0</ele>
        <time>2017-07-25T12:01:25Z</time>
      </trkpt>
      <trkpt lat="44.7654910" lon="7.1784120">
        <ele>1621.4</ele>
        <time>2017-07-25T12:01:29Z</time>
      </trkpt>
      <trkpt lat="44.7655190" lon="7.1784940">
        <ele>1622.0</ele>
        <time>2017-07-25T12:01:32Z</time>
      </trkpt>
      <trkpt lat="44.7656110" lon="7.1787300">
        <ele>1622.2</ele>
        <time>2017-07-25T12:01:39Z</time>
      </trkpt>
      <trkpt lat="44.7656290" lon="7.1787740">
        <ele>1622.4</ele>
        <time>2017-07-25T12:01:40Z</time>
      </trkpt>
      <trkpt lat="44.7657460" lon="7.1789540">
        <ele>1622.4</ele>
        <time>2017-07-25T12:01:45Z</time>
      </trkpt>
      <trkpt lat="44.7658840" lon="7.1791510">
        <ele>1623.6</ele>
        <time>2017-07-25T12:01:51Z</time>
      </trkpt>
      <trkpt lat="44.7659010" lon="7.1791800">
        <ele>1623.8</ele>
        <time>2017-07-25T12:01:52Z</time>
      </trkpt>
      <trkpt lat="44.7659990" lon="7.1793300">
        <ele>1624.8</ele>
        <time>2017-07-25T12:01:58Z</time>
      </trkpt>
      <trkpt lat="44.7660350" lon="7.1793710">
        <ele>1625.2</ele>
        <time>2017-07-25T12:02:00Z</time>
      </trkpt>
      <trkpt lat="44.7660740" lon="7.1793960">
        <ele>1625.6</ele>
        <time>2017-07-25T12:02:02Z</time>
      </trkpt>
      <trkpt lat="44.7660890" lon="7.1793830">
        <ele>1625.8</ele>
        <time>2017-07-25T12:02:03Z</time>
      </trkpt>
      <trkpt lat="44.7660960" lon="7.1793590">
        <ele>1626.6</ele>
        <time>2017-07-25T12:02:04Z</time>
      </trkpt>
      <trkpt lat="44.7660550" lon="7.1792580">
        <ele>1626.6</ele>
        <time>2017-07-25T12:02:08Z</time>
      </trkpt>
      <trkpt lat="44.7660160" lon="7.1791670">
        <ele>1626.8</ele>
        <time>2017-07-25T12:02:11Z</time>
      </trkpt>
      <trkpt lat="44.7659880" lon="7.1790760">
        <ele>1626.8</ele>
        <time>2017-07-25T12:02:14Z</time>
      </trkpt>
      <trkpt lat="44.7659780" lon="7.1790430">
        <ele>1627.0</ele>
        <time>2017-07-25T12:02:15Z</time>
      </trkpt>
      <trkpt lat="44.7659240" lon="7.1787720">
        <ele>1626.6</ele>
        <time>2017-07-25T12:02:22Z</time>
      </trkpt>
      <trkpt lat="44.7659220" lon="7.1786370">
        <ele>1627.0</ele>
        <time>2017-07-25T12:02:27Z</time>
      </trkpt>
      <trkpt lat="44.7659040" lon="7.1784740">
        <ele>1627.6</ele>
        <time>2017-07-25T12:02:33Z</time>
      </trkpt>
      <trkpt lat="44.7659050" lon="7.1784250">
        <ele>1628.0</ele>
        <time>2017-07-25T12:02:35Z</time>
      </trkpt>
      <trkpt lat="44.7658920" lon="7.1783160">
        <ele>1628.6</ele>
        <time>2017-07-25T12:02:40Z</time>
      </trkpt>
      <trkpt lat="44.7658730" lon="7.1782520">
        <ele>1629.0</ele>
        <time>2017-07-25T12:02:43Z</time>
      </trkpt>
      <trkpt lat="44.7658420" lon="7.1781340">
        <ele>1630.0</ele>
        <time>2017-07-25T12:02:48Z</time>
      </trkpt>
      <trkpt lat="44.7658200" lon="7.1780190">
        <ele>1631.2</ele>
        <time>2017-07-25T12:02:52Z</time>
      </trkpt>
      <trkpt lat="44.7658040" lon="7.1779080">
        <ele>1632.0</ele>
        <time>2017-07-25T12:02:56Z</time>
      </trkpt>
      <trkpt lat="44.7658040" lon="7.1778420">
        <ele>1632.2</ele>
        <time>2017-07-25T12:02:58Z</time>
      </trkpt>
      <trkpt lat="44.7657870" lon="7.1776730">
        <ele>1633.2</ele>
        <time>2017-07-25T12:03:03Z</time>
      </trkpt>
      <trkpt lat="44.7657830" lon="7.1776360">
        <ele>1633.4</ele>
        <time>2017-07-25T12:03:04Z</time>
      </trkpt>
      <trkpt lat="44.7657590" lon="7.1774740">
        <ele>1633.6</ele>
        <time>2017-07-25T12:03:08Z</time>
      </trkpt>
      <trkpt lat="44.7657290" lon="7.1773050">
        <ele>1634.4</ele>
        <time>2017-07-25T12:03:13Z</time>
      </trkpt>
      <trkpt lat="44.7657170" lon="7.1772530">
        <ele>1634.8</ele>
        <time>2017-07-25T12:03:15Z</time>
      </trkpt>
      <trkpt lat="44.7657050" lon="7.1772030">
        <ele>1635.6</ele>
        <time>2017-07-25T12:03:17Z</time>
      </trkpt>
      <trkpt lat="44.7656840" lon="7.1770870">
        <ele>1635.8</ele>
        <time>2017-07-25T12:03:21Z</time>
      </trkpt>
      <trkpt lat="44.7656710" lon="7.1769880">
        <ele>1636.4</ele>
        <time>2017-07-25T12:03:25Z</time>
      </trkpt>
      <trkpt lat="44.7656710" lon="7.1769670">
        <ele>1636.4</ele>
        <time>2017-07-25T12:03:26Z</time>
      </trkpt>
      <trkpt lat="44.7656650" lon="7.1769220">
        <ele>1636.6</ele>
        <time>2017-07-25T12:03:28Z</time>
      </trkpt>
      <trkpt lat="44.7656660" lon="7.1768250">
        <ele>1637.2</ele>
        <time>2017-07-25T12:03:32Z</time>
      </trkpt>
      <trkpt lat="44.7656690" lon="7.1767610">
        <ele>1637.4</ele>
        <time>2017-07-25T12:03:35Z</time>
      </trkpt>
      <trkpt lat="44.7656720" lon="7.1767260">
        <ele>1637.8</ele>
        <time>2017-07-25T12:03:37Z</time>
      </trkpt>
      <trkpt lat="44.7656700" lon="7.1767050">
        <ele>1638.0</ele>
        <time>2017-07-25T12:03:38Z</time>
      </trkpt>
      <trkpt lat="44.7656630" lon="7.1765450">
        <ele>1639.0</ele>
        <time>2017-07-25T12:03:45Z</time>
      </trkpt>
      <trkpt lat="44.7656600" lon="7.1765250">
        <ele>1639.2</ele>
        <time>2017-07-25T12:03:46Z</time>
      </trkpt>
      <trkpt lat="44.7656550" lon="7.1763880">
        <ele>1639.8</ele>
        <time>2017-07-25T12:03:52Z</time>
      </trkpt>
      <trkpt lat="44.7656550" lon="7.1763660">
        <ele>1640.0</ele>
        <time>2017-07-25T12:03:53Z</time>
      </trkpt>
      <trkpt lat="44.7656640" lon="7.1762310">
        <ele>1640.8</ele>
        <time>2017-07-25T12:03:59Z</time>
      </trkpt>
      <trkpt lat="44.7656490" lon="7.1761230">
        <ele>1641.0</ele>
        <time>2017-07-25T12:04:04Z</time>
      </trkpt>
      <trkpt lat="44.7656410" lon="7.1760490">
        <ele>1641.8</ele>
        <time>2017-07-25T12:04:07Z</time>
      </trkpt>
      <trkpt lat="44.7656320" lon="7.1759940">
        <ele>1642.0</ele>
        <time>2017-07-25T12:04:09Z</time>
      </trkpt>
      <trkpt lat="44.7655980" lon="7.1758980">
        <ele>1642.6</ele>
        <time>2017-07-25T12:04:13Z</time>
      </trkpt>
      <trkpt lat="44.7655810" lon="7.1758600">
        <ele>1643.2</ele>
        <time>2017-07-25T12:04:15Z</time>
      </trkpt>
      <trkpt lat="44.7655520" lon="7.1757980">
        <ele>1643.8</ele>
        <time>2017-07-25T12:04:19Z</time>
      </trkpt>
      <trkpt lat="44.7655250" lon="7.1757470">
        <ele>1644.2</ele>
        <time>2017-07-25T12:04:22Z</time>
      </trkpt>
      <trkpt lat="44.7655000" lon="7.1756850">
        <ele>1645.2</ele>
        <time>2017-07-25T12:04:25Z</time>
      </trkpt>
      <trkpt lat="44.7654930" lon="7.1756640">
        <ele>1645.6</ele>
        <time>2017-07-25T12:04:26Z</time>
      </trkpt>
      <trkpt lat="44.7654820" lon="7.1756240">
        <ele>1646.4</ele>
        <time>2017-07-25T12:04:28Z</time>
      </trkpt>
      <trkpt lat="44.7654780" lon="7.1756030">
        <ele>1646.8</ele>
        <time>2017-07-25T12:04:29Z</time>
      </trkpt>
      <trkpt lat="44.7654710" lon="7.1755670">
        <ele>1647.2</ele>
        <time>2017-07-25T12:04:31Z</time>
      </trkpt>
      <trkpt lat="44.7654600" lon="7.1755170">
        <ele>1649.4</ele>
        <time>2017-07-25T12:04:38Z</time>
      </trkpt>
      <trkpt lat="44.7654580" lon="7.1755060">
        <ele>1649.6</ele>
        <time>2017-07-25T12:04:39Z</time>
      </trkpt>
      <trkpt lat="44.7654350" lon="7.1752920">
        <ele>1654.2</ele>
        <time>2017-07-25T12:05:05Z</time>
      </trkpt>
      <trkpt lat="44.7654360" lon="7.1752700">
        <ele>1654.4</ele>
        <time>2017-07-25T12:05:06Z</time>
      </trkpt>
      <trkpt lat="44.7654220" lon="7.1751550">
        <ele>1655.4</ele>
        <time>2017-07-25T12:05:12Z</time>
      </trkpt>
      <trkpt lat="44.7654230" lon="7.1751370">
        <ele>1655.6</ele>
        <time>2017-07-25T12:05:13Z</time>
      </trkpt>
      <trkpt lat="44.7654150" lon="7.1750700">
        <ele>1656.4</ele>
        <time>2017-07-25T12:05:17Z</time>
      </trkpt>
      <trkpt lat="44.7654120" lon="7.1750500">
        <ele>1656.6</ele>
        <time>2017-07-25T12:05:18Z</time>
      </trkpt>
      <trkpt lat="44.7654050" lon="7.1749650">
        <ele>1657.2</ele>
        <time>2017-07-25T12:05:23Z</time>
      </trkpt>
      <trkpt lat="44.7654000" lon="7.1749480">
        <ele>1657.4</ele>
        <time>2017-07-25T12:05:24Z</time>
      </trkpt>
      <trkpt lat="44.7653950" lon="7.1749360">
        <ele>1657.8</ele>
        <time>2017-07-25T12:05:25Z</time>
      </trkpt>
      <trkpt lat="44.7653910" lon="7.1749210">
        <ele>1658.0</ele>
        <time>2017-07-25T12:05:26Z</time>
      </trkpt>
      <trkpt lat="44.7653770" lon="7.1748600">
        <ele>1658.6</ele>
        <time>2017-07-25T12:05:29Z</time>
      </trkpt>
      <trkpt lat="44.7653700" lon="7.1748210">
        <ele>1659.0</ele>
        <time>2017-07-25T12:05:31Z</time>
      </trkpt>
      <trkpt lat="44.7653510" lon="7.1747430">
        <ele>1659.6</ele>
        <time>2017-07-25T12:05:35Z</time>
      </trkpt>
      <trkpt lat="44.7653420" lon="7.1747000">
        <ele>1660.0</ele>
        <time>2017-07-25T12:05:37Z</time>
      </trkpt>
      <trkpt lat="44.7653370" lon="7.1746090">
        <ele>1660.8</ele>
        <time>2017-07-25T12:05:42Z</time>
      </trkpt>
      <trkpt lat="44.7653380" lon="7.1745710">
        <ele>1661.0</ele>
        <time>2017-07-25T12:05:44Z</time>
      </trkpt>
      <trkpt lat="44.7653230" lon="7.1745170">
        <ele>1661.6</ele>
        <time>2017-07-25T12:05:47Z</time>
      </trkpt>
      <trkpt lat="44.7653210" lon="7.1744990">
        <ele>1662.0</ele>
        <time>2017-07-25T12:05:48Z</time>
      </trkpt>
      <trkpt lat="44.7653170" lon="7.1744650">
        <ele>1662.0</ele>
        <time>2017-07-25T12:05:50Z</time>
      </trkpt>
      <trkpt lat="44.7653120" lon="7.1743850">
        <ele>1663.0</ele>
        <time>2017-07-25T12:05:54Z</time>
      </trkpt>
      <trkpt lat="44.7653050" lon="7.1743310">
        <ele>1663.2</ele>
        <time>2017-07-25T12:05:57Z</time>
      </trkpt>
      <trkpt lat="44.7653010" lon="7.1742790">
        <ele>1664.0</ele>
        <time>2017-07-25T12:06:00Z</time>
      </trkpt>
      <trkpt lat="44.7652920" lon="7.1742120">
        <ele>1664.6</ele>
        <time>2017-07-25T12:06:03Z</time>
      </trkpt>
      <trkpt lat="44.7652850" lon="7.1741910">
        <ele>1665.0</ele>
        <time>2017-07-25T12:06:04Z</time>
      </trkpt>
      <trkpt lat="44.7652270" lon="7.1740400">
        <ele>1666.0</ele>
        <time>2017-07-25T12:06:10Z</time>
      </trkpt>
      <trkpt lat="44.7652190" lon="7.1740200">
        <ele>1666.2</ele>
        <time>2017-07-25T12:06:11Z</time>
      </trkpt>
      <trkpt lat="44.7651880" lon="7.1739400">
        <ele>1667.0</ele>
        <time>2017-07-25T12:06:15Z</time>
      </trkpt>
      <trkpt lat="44.7651630" lon="7.1738620">
        <ele>1668.4</ele>
        <time>2017-07-25T12:06:19Z</time>
      </trkpt>
      <trkpt lat="44.7651400" lon="7.1737890">
        <ele>1669.6</ele>
        <time>2017-07-25T12:06:23Z</time>
      </trkpt>
      <trkpt lat="44.7651260" lon="7.1737360">
        <ele>1670.4</ele>
        <time>2017-07-25T12:06:26Z</time>
      </trkpt>
      <trkpt lat="44.7651250" lon="7.1737180">
        <ele>1670.8</ele>
        <time>2017-07-25T12:06:27Z</time>
      </trkpt>
      <trkpt lat="44.7651230" lon="7.1736800">
        <ele>1671.8</ele>
        <time>2017-07-25T12:06:29Z</time>
      </trkpt>
      <trkpt lat="44.7651200" lon="7.1736300">
        <ele>1672.2</ele>
        <time>2017-07-25T12:06:32Z</time>
      </trkpt>
      <trkpt lat="44.7651370" lon="7.1736070">
        <ele>1672.8</ele>
        <time>2017-07-25T12:06:34Z</time>
      </trkpt>
      <trkpt lat="44.7651580" lon="7.1736200">
        <ele>1673.4</ele>
        <time>2017-07-25T12:06:36Z</time>
      </trkpt>
      <trkpt lat="44.7651640" lon="7.1736510">
        <ele>1674.2</ele>
        <time>2017-07-25T12:06:38Z</time>
      </trkpt>
      <trkpt lat="44.7651800" lon="7.1736960">
        <ele>1674.4</ele>
        <time>2017-07-25T12:06:40Z</time>
      </trkpt>
      <trkpt lat="44.7652130" lon="7.1737790">
        <ele>1675.2</ele>
        <time>2017-07-25T12:06:43Z</time>
      </trkpt>
      <trkpt lat="44.7652490" lon="7.1738380">
        <ele>1675.8</ele>
        <time>2017-07-25T12:06:45Z</time>
      </trkpt>
      <trkpt lat="44.7652940" lon="7.1738960">
        <ele>1676.2</ele>
        <time>2017-07-25T12:06:47Z</time>
      </trkpt>
      <trkpt lat="44.7653550" lon="7.1739610">
        <ele>1677.4</ele>
        <time>2017-07-25T12:06:50Z</time>
      </trkpt>
      <trkpt lat="44.7653960" lon="7.1740120">
        <ele>1678.8</ele>
        <time>2017-07-25T12:06:52Z</time>
      </trkpt>
      <trkpt lat="44.7654370" lon="7.1740710">
        <ele>1679.8</ele>
        <time>2017-07-25T12:06:54Z</time>
      </trkpt>
      <trkpt lat="44.7654750" lon="7.1741300">
        <ele>1680.8</ele>
        <time>2017-07-25T12:06:56Z</time>
      </trkpt>
      <trkpt lat="44.7654930" lon="7.1741580">
        <ele>1681.2</ele>
        <time>2017-07-25T12:06:57Z</time>
      </trkpt>
      <trkpt lat="44.7655560" lon="7.1742500">
        <ele>1682.6</ele>
        <time>2017-07-25T12:07:00Z</time>
      </trkpt>
      <trkpt lat="44.7655910" lon="7.1743120">
        <ele>1683.6</ele>
        <time>2017-07-25T12:07:02Z</time>
      </trkpt>
      <trkpt lat="44.7656100" lon="7.1743400">
        <ele>1684.0</ele>
        <time>2017-07-25T12:07:03Z</time>
      </trkpt>
      <trkpt lat="44.7656640" lon="7.1744410">
        <ele>1684.8</ele>
        <time>2017-07-25T12:07:06Z</time>
      </trkpt>
      <trkpt lat="44.7657300" lon="7.1745620">
        <ele>1686.0</ele>
        <time>2017-07-25T12:07:10Z</time>
      </trkpt>
      <trkpt lat="44.7657440" lon="7.1745880">
        <ele>1686.0</ele>
        <time>2017-07-25T12:07:11Z</time>
      </trkpt>
      <trkpt lat="44.7658070" lon="7.1747160">
        <ele>1687.2</ele>
        <time>2017-07-25T12:07:15Z</time>
      </trkpt>
      <trkpt lat="44.7658770" lon="7.1748410">
        <ele>1687.6</ele>
        <time>2017-07-25T12:07:19Z</time>
      </trkpt>
      <trkpt lat="44.7659970" lon="7.1750560">
        <ele>1688.4</ele>
        <time>2017-07-25T12:07:26Z</time>
      </trkpt>
      <trkpt lat="44.7660290" lon="7.1751240">
        <ele>1688.6</ele>
        <time>2017-07-25T12:07:28Z</time>
      </trkpt>
      <trkpt lat="44.7660980" lon="7.1752640">
        <ele>1689.6</ele>
        <time>2017-07-25T12:07:33Z</time>
      </trkpt>
      <trkpt lat="44.7661190" lon="7.1752890">
        <ele>1689.8</ele>
        <time>2017-07-25T12:07:34Z</time>
      </trkpt>
      <trkpt lat="44.7661860" lon="7.1753600">
        <ele>1690.8</ele>
        <time>2017-07-25T12:07:37Z</time>
      </trkpt>
      <trkpt lat="44.7662470" lon="7.1754500">
        <ele>1690.8</ele>
        <time>2017-07-25T12:07:40Z</time>
      </trkpt>
      <trkpt lat="44.7663370" lon="7.1756290">
        <ele>1690.8</ele>
        <time>2017-07-25T12:07:46Z</time>
      </trkpt>
      <trkpt lat="44.7663990" lon="7.1757400">
        <ele>1690.8</ele>
        <time>2017-07-25T12:07:51Z</time>
      </trkpt>
      <trkpt lat="44.7665000" lon="7.1758790">
        <ele>1691.2</ele>
        <time>2017-07-25T12:07:58Z</time>
      </trkpt>
      <trkpt lat="44.7665370" lon="7.1759010">
        <ele>1691.8</ele>
        <time>2017-07-25T12:08:00Z</time>
      </trkpt>
      <trkpt lat="44.7665960" lon="7.1759210">
        <ele>1692.8</ele>
        <time>2017-07-25T12:08:03Z</time>
      </trkpt>
      <trkpt lat="44.7666120" lon="7.1759220">
        <ele>1693.6</ele>
        <time>2017-07-25T12:08:04Z</time>
      </trkpt>
      <trkpt lat="44.7666310" lon="7.1759240">
        <ele>1694.0</ele>
        <time>2017-07-25T12:08:05Z</time>
      </trkpt>
      <trkpt lat="44.7666870" lon="7.1759320">
        <ele>1695.2</ele>
        <time>2017-07-25T12:08:08Z</time>
      </trkpt>
      <trkpt lat="44.7667400" lon="7.1759320">
        <ele>1696.2</ele>
        <time>2017-07-25T12:08:11Z</time>
      </trkpt>
      <trkpt lat="44.7667570" lon="7.1759330">
        <ele>1696.4</ele>
        <time>2017-07-25T12:08:12Z</time>
      </trkpt>
      <trkpt lat="44.7668330" lon="7.1759320">
        <ele>1697.4</ele>
        <time>2017-07-25T12:08:17Z</time>
      </trkpt>
      <trkpt lat="44.7668460" lon="7.1759240">
        <ele>1697.6</ele>
        <time>2017-07-25T12:08:18Z</time>
      </trkpt>
      <trkpt lat="44.7668680" lon="7.1758720">
        <ele>1697.2</ele>
        <time>2017-07-25T12:08:21Z</time>
      </trkpt>
      <trkpt lat="44.7668600" lon="7.1758260">
        <ele>1697.0</ele>
        <time>2017-07-25T12:08:23Z</time>
      </trkpt>
      <trkpt lat="44.7668220" lon="7.1757670">
        <ele>1696.6</ele>
        <time>2017-07-25T12:08:26Z</time>
      </trkpt>
      <trkpt lat="44.7667900" lon="7.1757020">
        <ele>1696.4</ele>
        <time>2017-07-25T12:08:29Z</time>
      </trkpt>
      <trkpt lat="44.7666890" lon="7.1755240">
        <ele>1695.4</ele>
        <time>2017-07-25T12:08:35Z</time>
      </trkpt>
      <trkpt lat="44.7666230" lon="7.1753990">
        <ele>1695.2</ele>
        <time>2017-07-25T12:08:41Z</time>
      </trkpt>
      <trkpt lat="44.7665630" lon="7.1752970">
        <ele>1695.2</ele>
        <time>2017-07-25T12:08:47Z</time>
      </trkpt>
      <trkpt lat="44.7665310" lon="7.1752210">
        <ele>1695.8</ele>
        <time>2017-07-25T12:08:51Z</time>
      </trkpt>
      <trkpt lat="44.7665140" lon="7.1751790">
        <ele>1696.2</ele>
        <time>2017-07-25T12:08:53Z</time>
      </trkpt>
      <trkpt lat="44.7664540" lon="7.1750490">
        <ele>1696.4</ele>
        <time>2017-07-25T12:08:59Z</time>
      </trkpt>
      <trkpt lat="44.7664330" lon="7.1750010">
        <ele>1696.6</ele>
        <time>2017-07-25T12:09:01Z</time>
      </trkpt>
      <trkpt lat="44.7663600" lon="7.1748050">
        <ele>1696.6</ele>
        <time>2017-07-25T12:09:08Z</time>
      </trkpt>
      <trkpt lat="44.7663250" lon="7.1746370">
        <ele>1697.2</ele>
        <time>2017-07-25T12:09:14Z</time>
      </trkpt>
      <trkpt lat="44.7663140" lon="7.1745840">
        <ele>1697.4</ele>
        <time>2017-07-25T12:09:16Z</time>
      </trkpt>
      <trkpt lat="44.7663110" lon="7.1744720">
        <ele>1697.8</ele>
        <time>2017-07-25T12:09:20Z</time>
      </trkpt>
      <trkpt lat="44.7662820" lon="7.1742870">
        <ele>1698.4</ele>
        <time>2017-07-25T12:09:27Z</time>
      </trkpt>
      <trkpt lat="44.7662760" lon="7.1742610">
        <ele>1698.4</ele>
        <time>2017-07-25T12:09:28Z</time>
      </trkpt>
      <trkpt lat="44.7662450" lon="7.1741160">
        <ele>1699.2</ele>
        <time>2017-07-25T12:09:34Z</time>
      </trkpt>
      <trkpt lat="44.7662360" lon="7.1740710">
        <ele>1699.6</ele>
        <time>2017-07-25T12:09:36Z</time>
      </trkpt>
      <trkpt lat="44.7662170" lon="7.1739940">
        <ele>1701.2</ele>
        <time>2017-07-25T12:09:40Z</time>
      </trkpt>
      <trkpt lat="44.7662110" lon="7.1739780">
        <ele>1701.4</ele>
        <time>2017-07-25T12:09:41Z</time>
      </trkpt>
      <trkpt lat="44.7661930" lon="7.1739020">
        <ele>1702.4</ele>
        <time>2017-07-25T12:09:45Z</time>
      </trkpt>
      <trkpt lat="44.7661820" lon="7.1738400">
        <ele>1703.0</ele>
        <time>2017-07-25T12:09:48Z</time>
      </trkpt>
      <trkpt lat="44.7661690" lon="7.1738010">
        <ele>1703.6</ele>
        <time>2017-07-25T12:09:50Z</time>
      </trkpt>
      <trkpt lat="44.7661440" lon="7.1737300">
        <ele>1704.6</ele>
        <time>2017-07-25T12:09:54Z</time>
      </trkpt>
      <trkpt lat="44.7661330" lon="7.1736730">
        <ele>1705.4</ele>
        <time>2017-07-25T12:09:57Z</time>
      </trkpt>
      <trkpt lat="44.7661290" lon="7.1736550">
        <ele>1705.6</ele>
        <time>2017-07-25T12:09:58Z</time>
      </trkpt>
      <trkpt lat="44.7661060" lon="7.1735860">
        <ele>1706.6</ele>
        <time>2017-07-25T12:10:02Z</time>
      </trkpt>
      <trkpt lat="44.7660940" lon="7.1735500">
        <ele>1707.4</ele>
        <time>2017-07-25T12:10:04Z</time>
      </trkpt>
      <trkpt lat="44.7660930" lon="7.1735280">
        <ele>1707.6</ele>
        <time>2017-07-25T12:10:05Z</time>
      </trkpt>
      <trkpt lat="44.7660940" lon="7.1735040">
        <ele>1708.0</ele>
        <time>2017-07-25T12:10:06Z</time>
      </trkpt>
      <trkpt lat="44.7661010" lon="7.1734030">
        <ele>1709.4</ele>
        <time>2017-07-25T12:10:10Z</time>
      </trkpt>
      <trkpt lat="44.7660990" lon="7.1733580">
        <ele>1709.8</ele>
        <time>2017-07-25T12:10:12Z</time>
      </trkpt>
      <trkpt lat="44.7661050" lon="7.1732960">
        <ele>1710.4</ele>
        <time>2017-07-25T12:10:15Z</time>
      </trkpt>
      <trkpt lat="44.7661250" lon="7.1732840">
        <ele>1710.4</ele>
        <time>2017-07-25T12:10:17Z</time>
      </trkpt>
      <trkpt lat="44.7661470" lon="7.1733350">
        <ele>1711.0</ele>
        <time>2017-07-25T12:10:22Z</time>
      </trkpt>
      <trkpt lat="44.7661510" lon="7.1733530">
        <ele>1711.0</ele>
        <time>2017-07-25T12:10:23Z</time>
      </trkpt>
      <trkpt lat="44.7661750" lon="7.1734540">
        <ele>1712.8</ele>
        <time>2017-07-25T12:10:34Z</time>
      </trkpt>
      <trkpt lat="44.7662480" lon="7.1736130">
        <ele>1714.0</ele>
        <time>2017-07-25T12:10:41Z</time>
      </trkpt>
      <trkpt lat="44.7663100" lon="7.1736880">
        <ele>1715.0</ele>
        <time>2017-07-25T12:10:45Z</time>
      </trkpt>
      <trkpt lat="44.7663450" lon="7.1737180">
        <ele>1715.8</ele>
        <time>2017-07-25T12:10:47Z</time>
      </trkpt>
      <trkpt lat="44.7663650" lon="7.1737320">
        <ele>1716.6</ele>
        <time>2017-07-25T12:10:48Z</time>
      </trkpt>
      <trkpt lat="44.7664090" lon="7.1737620">
        <ele>1717.8</ele>
        <time>2017-07-25T12:10:50Z</time>
      </trkpt>
      <trkpt lat="44.7664540" lon="7.1738120">
        <ele>1719.0</ele>
        <time>2017-07-25T12:10:52Z</time>
      </trkpt>
      <trkpt lat="44.7664720" lon="7.1738410">
        <ele>1719.6</ele>
        <time>2017-07-25T12:10:53Z</time>
      </trkpt>
      <trkpt lat="44.7665030" lon="7.1738970">
        <ele>1720.6</ele>
        <time>2017-07-25T12:10:55Z</time>
      </trkpt>
      <trkpt lat="44.7665450" lon="7.1739490">
        <ele>1721.8</ele>
        <time>2017-07-25T12:10:57Z</time>
      </trkpt>
      <trkpt lat="44.7666040" lon="7.1740530">
        <ele>1723.0</ele>
        <time>2017-07-25T12:11:00Z</time>
      </trkpt>
      <trkpt lat="44.7666420" lon="7.1741830">
        <ele>1724.6</ele>
        <time>2017-07-25T12:11:03Z</time>
      </trkpt>
      <trkpt lat="44.7666960" lon="7.1743220">
        <ele>1725.6</ele>
        <time>2017-07-25T12:11:06Z</time>
      </trkpt>
      <trkpt lat="44.7667890" lon="7.1745320">
        <ele>1725.8</ele>
        <time>2017-07-25T12:11:10Z</time>
      </trkpt>
      <trkpt lat="44.7668420" lon="7.1746450">
        <ele>1726.0</ele>
        <time>2017-07-25T12:11:12Z</time>
      </trkpt>
      <trkpt lat="44.7669240" lon="7.1747910">
        <ele>1725.4</ele>
        <time>2017-07-25T12:11:15Z</time>
      </trkpt>
      <trkpt lat="44.7670160" lon="7.1749110">
        <ele>1725.8</ele>
        <time>2017-07-25T12:11:18Z</time>
      </trkpt>
      <trkpt lat="44.7670460" lon="7.1749450">
        <ele>1725.8</ele>
        <time>2017-07-25T12:11:19Z</time>
      </trkpt>
      <trkpt lat="44.7672420" lon="7.1751110">
        <ele>1727.0</ele>
        <time>2017-07-25T12:11:25Z</time>
      </trkpt>
      <trkpt lat="44.7673370" lon="7.1751290">
        <ele>1728.0</ele>
        <time>2017-07-25T12:11:28Z</time>
      </trkpt>
      <trkpt lat="44.7673920" lon="7.1751220">
        <ele>1728.6</ele>
        <time>2017-07-25T12:11:30Z</time>
      </trkpt>
      <trkpt lat="44.7674400" lon="7.1751230">
        <ele>1729.2</ele>
        <time>2017-07-25T12:11:32Z</time>
      </trkpt>
      <trkpt lat="44.7675280" lon="7.1751020">
        <ele>1729.6</ele>
        <time>2017-07-25T12:11:36Z</time>
      </trkpt>
      <trkpt lat="44.7676550" lon="7.1750760">
        <ele>1730.2</ele>
        <time>2017-07-25T12:11:42Z</time>
      </trkpt>
      <trkpt lat="44.7676750" lon="7.1750720">
        <ele>1730.4</ele>
        <time>2017-07-25T12:11:43Z</time>
      </trkpt>
      <trkpt lat="44.7677860" lon="7.1750270">
        <ele>1730.8</ele>
        <time>2017-07-25T12:11:49Z</time>
      </trkpt>
      <trkpt lat="44.7678020" lon="7.1750200">
        <ele>1731.0</ele>
        <time>2017-07-25T12:11:50Z</time>
      </trkpt>
      <trkpt lat="44.7678150" lon="7.1750080">
        <ele>1731.2</ele>
        <time>2017-07-25T12:11:51Z</time>
      </trkpt>
      <trkpt lat="44.7678280" lon="7.1749980">
        <ele>1731.4</ele>
        <time>2017-07-25T12:11:52Z</time>
      </trkpt>
      <trkpt lat="44.7678750" lon="7.1749830">
        <ele>1731.4</ele>
        <time>2017-07-25T12:11:55Z</time>
      </trkpt>
      <trkpt lat="44.7679640" lon="7.1749360">
        <ele>1732.0</ele>
        <time>2017-07-25T12:12:01Z</time>
      </trkpt>
      <trkpt lat="44.7679760" lon="7.1749290">
        <ele>1732.0</ele>
        <time>2017-07-25T12:12:02Z</time>
      </trkpt>
      <trkpt lat="44.7680040" lon="7.1749190">
        <ele>1732.6</ele>
        <time>2017-07-25T12:12:04Z</time>
      </trkpt>
      <trkpt lat="44.7680610" lon="7.1748980">
        <ele>1733.4</ele>
        <time>2017-07-25T12:12:08Z</time>
      </trkpt>
      <trkpt lat="44.7680920" lon="7.1748870">
        <ele>1733.6</ele>
        <time>2017-07-25T12:12:10Z</time>
      </trkpt>
      <trkpt lat="44.7681600" lon="7.1748580">
        <ele>1734.6</ele>
        <time>2017-07-25T12:12:15Z</time>
      </trkpt>
      <trkpt lat="44.7681720" lon="7.1748510">
        <ele>1734.8</ele>
        <time>2017-07-25T12:12:16Z</time>
      </trkpt>
      <trkpt lat="44.7682530" lon="7.1748130">
        <ele>1736.0</ele>
        <time>2017-07-25T12:12:22Z</time>
      </trkpt>
      <trkpt lat="44.7682670" lon="7.1748090">
        <ele>1736.2</ele>
        <time>2017-07-25T12:12:23Z</time>
      </trkpt>
      <trkpt lat="44.7683040" lon="7.1747970">
        <ele>1737.2</ele>
        <time>2017-07-25T12:12:26Z</time>
      </trkpt>
      <trkpt lat="44.7683580" lon="7.1747770">
        <ele>1738.6</ele>
        <time>2017-07-25T12:12:30Z</time>
      </trkpt>
      <trkpt lat="44.7684130" lon="7.1747550">
        <ele>1739.6</ele>
        <time>2017-07-25T12:12:34Z</time>
      </trkpt>
      <trkpt lat="44.7684380" lon="7.1747390">
        <ele>1740.2</ele>
        <time>2017-07-25T12:12:36Z</time>
      </trkpt>
      <trkpt lat="44.7684640" lon="7.1747340">
        <ele>1740.8</ele>
        <time>2017-07-25T12:12:38Z</time>
      </trkpt>
      <trkpt lat="44.7685260" lon="7.1746990">
        <ele>1741.8</ele>
        <time>2017-07-25T12:12:42Z</time>
      </trkpt>
      <trkpt lat="44.7685410" lon="7.1746940">
        <ele>1741.8</ele>
        <time>2017-07-25T12:12:43Z</time>
      </trkpt>
      <trkpt lat="44.7686270" lon="7.1746690">
        <ele>1743.0</ele>
        <time>2017-07-25T12:12:48Z</time>
      </trkpt>
      <trkpt lat="44.7686630" lon="7.1746510">
        <ele>1743.6</ele>
        <time>2017-07-25T12:12:50Z</time>
      </trkpt>
      <trkpt lat="44.7687050" lon="7.1746270">
        <ele>1744.2</ele>
        <time>2017-07-25T12:12:52Z</time>
      </trkpt>
      <trkpt lat="44.7687960" lon="7.1745360">
        <ele>1745.0</ele>
        <time>2017-07-25T12:12:56Z</time>
      </trkpt>
      <trkpt lat="44.7688110" lon="7.1745120">
        <ele>1745.2</ele>
        <time>2017-07-25T12:12:57Z</time>
      </trkpt>
      <trkpt lat="44.7688550" lon="7.1744230">
        <ele>1745.6</ele>
        <time>2017-07-25T12:13:01Z</time>
      </trkpt>
      <trkpt lat="44.7688880" lon="7.1743780">
        <ele>1746.2</ele>
        <time>2017-07-25T12:13:03Z</time>
      </trkpt>
      <trkpt lat="44.7689800" lon="7.1742570">
        <ele>1746.8</ele>
        <time>2017-07-25T12:13:08Z</time>
      </trkpt>
      <trkpt lat="44.7691160" lon="7.1741640">
        <ele>1746.2</ele>
        <time>2017-07-25T12:13:13Z</time>
      </trkpt>
      <trkpt lat="44.7693690" lon="7.1740740">
        <ele>1746.6</ele>
        <time>2017-07-25T12:13:19Z</time>
      </trkpt>
      <trkpt lat="44.7694180" lon="7.1740520">
        <ele>1746.6</ele>
        <time>2017-07-25T12:13:20Z</time>
      </trkpt>
      <trkpt lat="44.7696120" lon="7.1739710">
        <ele>1746.6</ele>
        <time>2017-07-25T12:13:24Z</time>
      </trkpt>
      <trkpt lat="44.7696560" lon="7.1739600">
        <ele>1746.8</ele>
        <time>2017-07-25T12:13:25Z</time>
      </trkpt>
      <trkpt lat="44.7697460" lon="7.1739250">
        <ele>1747.2</ele>
        <time>2017-07-25T12:13:27Z</time>
      </trkpt>
      <trkpt lat="44.7697950" lon="7.1738920">
        <ele>1747.6</ele>
        <time>2017-07-25T12:13:28Z</time>
      </trkpt>
      <trkpt lat="44.7698420" lon="7.1738440">
        <ele>1748.0</ele>
        <time>2017-07-25T12:13:29Z</time>
      </trkpt>
      <trkpt lat="44.7699720" lon="7.1736670">
        <ele>1747.6</ele>
        <time>2017-07-25T12:13:32Z</time>
      </trkpt>
      <trkpt lat="44.7700190" lon="7.1736240">
        <ele>1747.2</ele>
        <time>2017-07-25T12:13:33Z</time>
      </trkpt>
      <trkpt lat="44.7702180" lon="7.1735450">
        <ele>1746.8</ele>
        <time>2017-07-25T12:13:37Z</time>
      </trkpt>
      <trkpt lat="44.7703350" lon="7.1734810">
        <ele>1747.6</ele>
        <time>2017-07-25T12:13:40Z</time>
      </trkpt>
      <trkpt lat="44.7703670" lon="7.1734390">
        <ele>1748.2</ele>
        <time>2017-07-25T12:13:41Z</time>
      </trkpt>
      <trkpt lat="44.7704380" lon="7.1733490">
        <ele>1748.0</ele>
        <time>2017-07-25T12:13:43Z</time>
      </trkpt>
      <trkpt lat="44.7705570" lon="7.1732370">
        <ele>1748.0</ele>
        <time>2017-07-25T12:13:46Z</time>
      </trkpt>
      <trkpt lat="44.7706370" lon="7.1731640">
        <ele>1747.6</ele>
        <time>2017-07-25T12:13:48Z</time>
      </trkpt>
      <trkpt lat="44.7706870" lon="7.1731330">
        <ele>1747.6</ele>
        <time>2017-07-25T12:13:49Z</time>
      </trkpt>
      <trkpt lat="44.7708000" lon="7.1731010">
        <ele>1747.2</ele>
        <time>2017-07-25T12:13:51Z</time>
      </trkpt>
      <trkpt lat="44.7709810" lon="7.1730770">
        <ele>1747.0</ele>
        <time>2017-07-25T12:13:54Z</time>
      </trkpt>
      <trkpt lat="44.7710380" lon="7.1730750">
        <ele>1747.4</ele>
        <time>2017-07-25T12:13:55Z</time>
      </trkpt>
      <trkpt lat="44.7710980" lon="7.1730900">
        <ele>1747.4</ele>
        <time>2017-07-25T12:13:56Z</time>
      </trkpt>
      <trkpt lat="44.7712860" lon="7.1731980">
        <ele>1748.2</ele>
        <time>2017-07-25T12:14:00Z</time>
      </trkpt>
      <trkpt lat="44.7714550" lon="7.1732980">
        <ele>1748.8</ele>
        <time>2017-07-25T12:14:04Z</time>
      </trkpt>
      <trkpt lat="44.7715400" lon="7.1733520">
        <ele>1749.2</ele>
        <time>2017-07-25T12:14:06Z</time>
      </trkpt>
      <trkpt lat="44.7715860" lon="7.1733810">
        <ele>1749.2</ele>
        <time>2017-07-25T12:14:07Z</time>
      </trkpt>
      <trkpt lat="44.7717090" lon="7.1734480">
        <ele>1750.0</ele>
        <time>2017-07-25T12:14:10Z</time>
      </trkpt>
      <trkpt lat="44.7717380" lon="7.1734740">
        <ele>1750.2</ele>
        <time>2017-07-25T12:14:11Z</time>
      </trkpt>
      <trkpt lat="44.7717670" lon="7.1734970">
        <ele>1750.4</ele>
        <time>2017-07-25T12:14:12Z</time>
      </trkpt>
      <trkpt lat="44.7719430" lon="7.1735630">
        <ele>1751.4</ele>
        <time>2017-07-25T12:14:17Z</time>
      </trkpt>
      <trkpt lat="44.7721190" lon="7.1735540">
        <ele>1751.8</ele>
        <time>2017-07-25T12:14:22Z</time>
      </trkpt>
      <trkpt lat="44.7722350" lon="7.1735700">
        <ele>1752.6</ele>
        <time>2017-07-25T12:14:27Z</time>
      </trkpt>
      <trkpt lat="44.7722940" lon="7.1735740">
        <ele>1753.8</ele>
        <time>2017-07-25T12:14:30Z</time>
      </trkpt>
      <trkpt lat="44.7723330" lon="7.1735660">
        <ele>1754.0</ele>
        <time>2017-07-25T12:14:32Z</time>
      </trkpt>
      <trkpt lat="44.7724210" lon="7.1735320">
        <ele>1754.4</ele>
        <time>2017-07-25T12:14:37Z</time>
      </trkpt>
      <trkpt lat="44.7724340" lon="7.1735220">
        <ele>1754.2</ele>
        <time>2017-07-25T12:14:38Z</time>
      </trkpt>
      <trkpt lat="44.7725200" lon="7.1734580">
        <ele>1754.0</ele>
        <time>2017-07-25T12:14:44Z</time>
      </trkpt>
      <trkpt lat="44.7726550" lon="7.1732770">
        <ele>1753.4</ele>
        <time>2017-07-25T12:14:50Z</time>
      </trkpt>
      <trkpt lat="44.7728280" lon="7.1730810">
        <ele>1753.0</ele>
        <time>2017-07-25T12:14:54Z</time>
      </trkpt>
      <trkpt lat="44.7728820" lon="7.1730280">
        <ele>1753.2</ele>
        <time>2017-07-25T12:14:55Z</time>
      </trkpt>
      <trkpt lat="44.7730640" lon="7.1728840">
        <ele>1753.4</ele>
        <time>2017-07-25T12:14:58Z</time>
      </trkpt>
      <trkpt lat="44.7731350" lon="7.1728510">
        <ele>1753.4</ele>
        <time>2017-07-25T12:14:59Z</time>
      </trkpt>
      <trkpt lat="44.7732880" lon="7.1728120">
        <ele>1753.0</ele>
        <time>2017-07-25T12:15:01Z</time>
      </trkpt>
      <trkpt lat="44.7734640" lon="7.1728220">
        <ele>1752.8</ele>
        <time>2017-07-25T12:15:03Z</time>
      </trkpt>
      <trkpt lat="44.7735540" lon="7.1728150">
        <ele>1753.0</ele>
        <time>2017-07-25T12:15:04Z</time>
      </trkpt>
      <trkpt lat="44.7736470" lon="7.1728050">
        <ele>1752.6</ele>
        <time>2017-07-25T12:15:05Z</time>
      </trkpt>
      <trkpt lat="44.7737380" lon="7.1727720">
        <ele>1752.4</ele>
        <time>2017-07-25T12:15:06Z</time>
      </trkpt>
      <trkpt lat="44.7739160" lon="7.1726920">
        <ele>1751.6</ele>
        <time>2017-07-25T12:15:08Z</time>
      </trkpt>
      <trkpt lat="44.7739940" lon="7.1726360">
        <ele>1751.2</ele>
        <time>2017-07-25T12:15:09Z</time>
      </trkpt>
      <trkpt lat="44.7741050" lon="7.1724610">
        <ele>1751.2</ele>
        <time>2017-07-25T12:15:11Z</time>
      </trkpt>
      <trkpt lat="44.7741850" lon="7.1722460">
        <ele>1749.8</ele>
        <time>2017-07-25T12:15:13Z</time>
      </trkpt>
      <trkpt lat="44.7742190" lon="7.1721400">
        <ele>1749.2</ele>
        <time>2017-07-25T12:15:14Z</time>
      </trkpt>
      <trkpt lat="44.7742500" lon="7.1720350">
        <ele>1748.6</ele>
        <time>2017-07-25T12:15:15Z</time>
      </trkpt>
      <trkpt lat="44.7742950" lon="7.1718280">
        <ele>1746.8</ele>
        <time>2017-07-25T12:15:17Z</time>
      </trkpt>
      <trkpt lat="44.7743460" lon="7.1715510">
        <ele>1745.8</ele>
        <time>2017-07-25T12:15:20Z</time>
      </trkpt>
      <trkpt lat="44.7744180" lon="7.1713150">
        <ele>1744.4</ele>
        <time>2017-07-25T12:15:23Z</time>
      </trkpt>
      <trkpt lat="44.7745060" lon="7.1710980">
        <ele>1744.0</ele>
        <time>2017-07-25T12:15:26Z</time>
      </trkpt>
      <trkpt lat="44.7746030" lon="7.1709020">
        <ele>1743.2</ele>
        <time>2017-07-25T12:15:29Z</time>
      </trkpt>
      <trkpt lat="44.7746420" lon="7.1708430">
        <ele>1743.2</ele>
        <time>2017-07-25T12:15:30Z</time>
      </trkpt>
      <trkpt lat="44.7747300" lon="7.1707290">
        <ele>1742.8</ele>
        <time>2017-07-25T12:15:32Z</time>
      </trkpt>
      <trkpt lat="44.7747850" lon="7.1706820">
        <ele>1742.6</ele>
        <time>2017-07-25T12:15:33Z</time>
      </trkpt>
      <trkpt lat="44.7749020" lon="7.1705980">
        <ele>1742.2</ele>
        <time>2017-07-25T12:15:35Z</time>
      </trkpt>
      <trkpt lat="44.7749650" lon="7.1705600">
        <ele>1742.2</ele>
        <time>2017-07-25T12:15:36Z</time>
      </trkpt>
      <trkpt lat="44.7752450" lon="7.1704030">
        <ele>1740.8</ele>
        <time>2017-07-25T12:15:40Z</time>
      </trkpt>
      <trkpt lat="44.7753900" lon="7.1703420">
        <ele>1740.8</ele>
        <time>2017-07-25T12:15:42Z</time>
      </trkpt>
      <trkpt lat="44.7755370" lon="7.1703140">
        <ele>1740.4</ele>
        <time>2017-07-25T12:15:44Z</time>
      </trkpt>
      <trkpt lat="44.7756980" lon="7.1703160">
        <ele>1740.4</ele>
        <time>2017-07-25T12:15:46Z</time>
      </trkpt>
      <trkpt lat="44.7759470" lon="7.1703640">
        <ele>1740.0</ele>
        <time>2017-07-25T12:15:49Z</time>
      </trkpt>
      <trkpt lat="44.7761210" lon="7.1704410">
        <ele>1739.8</ele>
        <time>2017-07-25T12:15:51Z</time>
      </trkpt>
      <trkpt lat="44.7762060" lon="7.1704750">
        <ele>1739.4</ele>
        <time>2017-07-25T12:15:52Z</time>
      </trkpt>
      <trkpt lat="44.7763620" lon="7.1705010">
        <ele>1738.4</ele>
        <time>2017-07-25T12:15:54Z</time>
      </trkpt>
      <trkpt lat="44.7764330" lon="7.1704810">
        <ele>1737.8</ele>
        <time>2017-07-25T12:15:55Z</time>
      </trkpt>
      <trkpt lat="44.7765540" lon="7.1703640">
        <ele>1737.2</ele>
        <time>2017-07-25T12:15:57Z</time>
      </trkpt>
      <trkpt lat="44.7766110" lon="7.1702940">
        <ele>1736.6</ele>
        <time>2017-07-25T12:15:58Z</time>
      </trkpt>
      <trkpt lat="44.7766710" lon="7.1702150">
        <ele>1736.4</ele>
        <time>2017-07-25T12:15:59Z</time>
      </trkpt>
      <trkpt lat="44.7767320" lon="7.1701280">
        <ele>1735.8</ele>
        <time>2017-07-25T12:16:00Z</time>
      </trkpt>
      <trkpt lat="44.7769110" lon="7.1698560">
        <ele>1734.4</ele>
        <time>2017-07-25T12:16:03Z</time>
      </trkpt>
      <trkpt lat="44.7769610" lon="7.1697750">
        <ele>1733.2</ele>
        <time>2017-07-25T12:16:04Z</time>
      </trkpt>
      <trkpt lat="44.7770050" lon="7.1697070">
        <ele>1731.8</ele>
        <time>2017-07-25T12:16:05Z</time>
      </trkpt>
      <trkpt lat="44.7770830" lon="7.1695860">
        <ele>1730.0</ele>
        <time>2017-07-25T12:16:07Z</time>
      </trkpt>
      <trkpt lat="44.7771040" lon="7.1695370">
        <ele>1729.2</ele>
        <time>2017-07-25T12:16:08Z</time>
      </trkpt>
      <trkpt lat="44.7771130" lon="7.1695140">
        <ele>1728.2</ele>
        <time>2017-07-25T12:16:09Z</time>
      </trkpt>
      <trkpt lat="44.7771130" lon="7.1694940">
        <ele>1727.6</ele>
        <time>2017-07-25T12:16:10Z</time>
      </trkpt>
      <trkpt lat="44.7771130" lon="7.1694790">
        <ele>1727.0</ele>
        <time>2017-07-25T12:16:11Z</time>
      </trkpt>
      <trkpt lat="44.7771120" lon="7.1694450">
        <ele>1725.8</ele>
        <time>2017-07-25T12:16:13Z</time>
      </trkpt>
      <trkpt lat="44.7771070" lon="7.1694100">
        <ele>1724.6</ele>
        <time>2017-07-25T12:16:15Z</time>
      </trkpt>
      <trkpt lat="44.7770980" lon="7.1693870">
        <ele>1723.6</ele>
        <time>2017-07-25T12:16:17Z</time>
      </trkpt>
      <trkpt lat="44.7770950" lon="7.1693630">
        <ele>1722.8</ele>
        <time>2017-07-25T12:16:19Z</time>
      </trkpt>
      <trkpt lat="44.7770940" lon="7.1693550">
        <ele>1722.6</ele>
        <time>2017-07-25T12:16:20Z</time>
      </trkpt>
      <trkpt lat="44.7770940" lon="7.1693550">
        <ele>1721.6</ele>
        <time>2017-07-25T12:16:23Z</time>
      </trkpt>
      <trkpt lat="44.7770940" lon="7.1693550">
        <ele>1721.2</ele>
        <time>2017-07-25T12:16:24Z</time>
      </trkpt>
      <trkpt lat="44.7771030" lon="7.1693200">
        <ele>1720.6</ele>
        <time>2017-07-25T12:16:27Z</time>
      </trkpt>
      <trkpt lat="44.7771160" lon="7.1692990">
        <ele>1720.4</ele>
        <time>2017-07-25T12:16:29Z</time>
      </trkpt>
      <trkpt lat="44.7771200" lon="7.1692630">
        <ele>1720.2</ele>
        <time>2017-07-25T12:16:32Z</time>
      </trkpt>
      <trkpt lat="44.7771180" lon="7.1692290">
        <ele>1720.2</ele>
        <time>2017-07-25T12:16:35Z</time>
      </trkpt>
      <trkpt lat="44.7771360" lon="7.1691850">
        <ele>1721.0</ele>
        <time>2017-07-25T12:16:39Z</time>
      </trkpt>
      <trkpt lat="44.7771720" lon="7.1689340">
        <ele>1728.4</ele>
        <time>2017-07-25T12:17:05Z</time>
      </trkpt>
      <trkpt lat="44.7771760" lon="7.1689220">
        <ele>1728.4</ele>
        <time>2017-07-25T12:17:06Z</time>
      </trkpt>
      <trkpt lat="44.7772340" lon="7.1688060">
        <ele>1730.8</ele>
        <time>2017-07-25T12:17:20Z</time>
      </trkpt>
      <trkpt lat="44.7772470" lon="7.1687850">
        <ele>1730.8</ele>
        <time>2017-07-25T12:17:21Z</time>
      </trkpt>
      <trkpt lat="44.7773700" lon="7.1686190">
        <ele>1731.4</ele>
        <time>2017-07-25T12:17:28Z</time>
      </trkpt>
      <trkpt lat="44.7774140" lon="7.1685630">
        <ele>1731.8</ele>
        <time>2017-07-25T12:17:30Z</time>
      </trkpt>
      <trkpt lat="44.7774910" lon="7.1684940">
        <ele>1732.2</ele>
        <time>2017-07-25T12:17:33Z</time>
      </trkpt>
      <trkpt lat="44.7776120" lon="7.1683790">
        <ele>1732.2</ele>
        <time>2017-07-25T12:17:36Z</time>
      </trkpt>
      <trkpt lat="44.7776400" lon="7.1683120">
        <ele>1732.4</ele>
        <time>2017-07-25T12:17:37Z</time>
      </trkpt>
      <trkpt lat="44.7777010" lon="7.1681850">
        <ele>1732.2</ele>
        <time>2017-07-25T12:17:39Z</time>
      </trkpt>
      <trkpt lat="44.7777750" lon="7.1680350">
        <ele>1731.4</ele>
        <time>2017-07-25T12:17:42Z</time>
      </trkpt>
      <trkpt lat="44.7777950" lon="7.1679770">
        <ele>1731.0</ele>
        <time>2017-07-25T12:17:43Z</time>
      </trkpt>
      <trkpt lat="44.7778140" lon="7.1679140">
        <ele>1730.4</ele>
        <time>2017-07-25T12:17:44Z</time>
      </trkpt>
      <trkpt lat="44.7778510" lon="7.1677790">
        <ele>1729.0</ele>
        <time>2017-07-25T12:17:46Z</time>
      </trkpt>
      <trkpt lat="44.7778710" lon="7.1677070">
        <ele>1728.0</ele>
        <time>2017-07-25T12:17:47Z</time>
      </trkpt>
      <trkpt lat="44.7778900" lon="7.1676380">
        <ele>1727.2</ele>
        <time>2017-07-25T12:17:48Z</time>
      </trkpt>
      <trkpt lat="44.7779280" lon="7.1675160">
        <ele>1725.8</ele>
        <time>2017-07-25T12:17:50Z</time>
      </trkpt>
      <trkpt lat="44.7779690" lon="7.1674170">
        <ele>1724.0</ele>
        <time>2017-07-25T12:17:52Z</time>
      </trkpt>
      <trkpt lat="44.7779910" lon="7.1673710">
        <ele>1722.8</ele>
        <time>2017-07-25T12:17:53Z</time>
      </trkpt>
      <trkpt lat="44.7780100" lon="7.1673300">
        <ele>1721.8</ele>
        <time>2017-07-25T12:17:54Z</time>
      </trkpt>
      <trkpt lat="44.7780280" lon="7.1672860">
        <ele>1720.8</ele>
        <time>2017-07-25T12:17:55Z</time>
      </trkpt>
      <trkpt lat="44.7780570" lon="7.1672410">
        <ele>1719.8</ele>
        <time>2017-07-25T12:17:56Z</time>
      </trkpt>
      <trkpt lat="44.7780840" lon="7.1671940">
        <ele>1719.0</ele>
        <time>2017-07-25T12:17:57Z</time>
      </trkpt>
      <trkpt lat="44.7781130" lon="7.1671470">
        <ele>1718.0</ele>
        <time>2017-07-25T12:17:58Z</time>
      </trkpt>
      <trkpt lat="44.7781450" lon="7.1671100">
        <ele>1717.0</ele>
        <time>2017-07-25T12:17:59Z</time>
      </trkpt>
      <trkpt lat="44.7781770" lon="7.1670720">
        <ele>1715.8</ele>
        <time>2017-07-25T12:18:00Z</time>
      </trkpt>
      <trkpt lat="44.7782060" lon="7.1670360">
        <ele>1714.6</ele>
        <time>2017-07-25T12:18:01Z</time>
      </trkpt>
      <trkpt lat="44.7782300" lon="7.1670020">
        <ele>1713.0</ele>
        <time>2017-07-25T12:18:02Z</time>
      </trkpt>
      <trkpt lat="44.7782510" lon="7.1669690">
        <ele>1711.8</ele>
        <time>2017-07-25T12:18:03Z</time>
      </trkpt>
      <trkpt lat="44.7782710" lon="7.1669380">
        <ele>1710.6</ele>
        <time>2017-07-25T12:18:04Z</time>
      </trkpt>
      <trkpt lat="44.7782890" lon="7.1669080">
        <ele>1708.6</ele>
        <time>2017-07-25T12:18:05Z</time>
      </trkpt>
      <trkpt lat="44.7783070" lon="7.1668770">
        <ele>1707.4</ele>
        <time>2017-07-25T12:18:06Z</time>
      </trkpt>
      <trkpt lat="44.7783320" lon="7.1668470">
        <ele>1706.2</ele>
        <time>2017-07-25T12:18:07Z</time>
      </trkpt>
      <trkpt lat="44.7783640" lon="7.1668190">
        <ele>1705.0</ele>
        <time>2017-07-25T12:18:08Z</time>
      </trkpt>
      <trkpt lat="44.7783990" lon="7.1667860">
        <ele>1703.8</ele>
        <time>2017-07-25T12:18:09Z</time>
      </trkpt>
      <trkpt lat="44.7784310" lon="7.1667520">
        <ele>1702.6</ele>
        <time>2017-07-25T12:18:10Z</time>
      </trkpt>
      <trkpt lat="44.7784630" lon="7.1667190">
        <ele>1701.4</ele>
        <time>2017-07-25T12:18:11Z</time>
      </trkpt>
      <trkpt lat="44.7784920" lon="7.1666830">
        <ele>1700.2</ele>
        <time>2017-07-25T12:18:12Z</time>
      </trkpt>
      <trkpt lat="44.7785130" lon="7.1666530">
        <ele>1698.8</ele>
        <time>2017-07-25T12:18:13Z</time>
      </trkpt>
      <trkpt lat="44.7785390" lon="7.1666270">
        <ele>1697.8</ele>
        <time>2017-07-25T12:18:14Z</time>
      </trkpt>
      <trkpt lat="44.7785710" lon="7.1666010">
        <ele>1696.4</ele>
        <time>2017-07-25T12:18:15Z</time>
      </trkpt>
      <trkpt lat="44.7786160" lon="7.1665370">
        <ele>1694.0</ele>
        <time>2017-07-25T12:18:17Z</time>
      </trkpt>
      <trkpt lat="44.7786370" lon="7.1665100">
        <ele>1692.6</ele>
        <time>2017-07-25T12:18:18Z</time>
      </trkpt>
      <trkpt lat="44.7786510" lon="7.1664810">
        <ele>1690.8</ele>
        <time>2017-07-25T12:18:19Z</time>
      </trkpt>
      <trkpt lat="44.7786590" lon="7.1664610">
        <ele>1689.6</ele>
        <time>2017-07-25T12:18:20Z</time>
      </trkpt>
      <trkpt lat="44.7786670" lon="7.1664470">
        <ele>1688.2</ele>
        <time>2017-07-25T12:18:21Z</time>
      </trkpt>
      <trkpt lat="44.7786790" lon="7.1664320">
        <ele>1686.8</ele>
        <time>2017-07-25T12:18:22Z</time>
      </trkpt>
      <trkpt lat="44.7786960" lon="7.1664090">
        <ele>1685.8</ele>
        <time>2017-07-25T12:18:23Z</time>
      </trkpt>
      <trkpt lat="44.7787170" lon="7.1663860">
        <ele>1684.6</ele>
        <time>2017-07-25T12:18:24Z</time>
      </trkpt>
      <trkpt lat="44.7787390" lon="7.1663670">
        <ele>1683.2</ele>
        <time>2017-07-25T12:18:25Z</time>
      </trkpt>
      <trkpt lat="44.7787520" lon="7.1663470">
        <ele>1682.0</ele>
        <time>2017-07-25T12:18:26Z</time>
      </trkpt>
      <trkpt lat="44.7787610" lon="7.1663270">
        <ele>1681.0</ele>
        <time>2017-07-25T12:18:27Z</time>
      </trkpt>
      <trkpt lat="44.7787780" lon="7.1663060">
        <ele>1678.2</ele>
        <time>2017-07-25T12:18:29Z</time>
      </trkpt>
      <trkpt lat="44.7787970" lon="7.1662930">
        <ele>1676.6</ele>
        <time>2017-07-25T12:18:31Z</time>
      </trkpt>
      <trkpt lat="44.7788200" lon="7.1662920">
        <ele>1675.2</ele>
        <time>2017-07-25T12:18:33Z</time>
      </trkpt>
      <trkpt lat="44.7788460" lon="7.1662930">
        <ele>1674.0</ele>
        <time>2017-07-25T12:18:35Z</time>
      </trkpt>
      <trkpt lat="44.7788660" lon="7.1662900">
        <ele>1673.0</ele>
        <time>2017-07-25T12:18:37Z</time>
      </trkpt>
      <trkpt lat="44.7788980" lon="7.1662880">
        <ele>1671.8</ele>
        <time>2017-07-25T12:18:39Z</time>
      </trkpt>
      <trkpt lat="44.7789140" lon="7.1662840">
        <ele>1671.0</ele>
        <time>2017-07-25T12:18:41Z</time>
      </trkpt>
      <trkpt lat="44.7789120" lon="7.1662820">
        <ele>1669.2</ele>
        <time>2017-07-25T12:18:45Z</time>
      </trkpt>
      <trkpt lat="44.7789750" lon="7.1661570">
        <ele>1662.0</ele>
        <time>2017-07-25T12:19:18Z</time>
      </trkpt>
      <trkpt lat="44.7789860" lon="7.1661450">
        <ele>1661.6</ele>
        <time>2017-07-25T12:19:19Z</time>
      </trkpt>
      <trkpt lat="44.7789960" lon="7.1661300">
        <ele>1661.0</ele>
        <time>2017-07-25T12:19:20Z</time>
      </trkpt>
      <trkpt lat="44.7790020" lon="7.1660970">
        <ele>1659.2</ele>
        <time>2017-07-25T12:19:22Z</time>
      </trkpt>
      <trkpt lat="44.7789980" lon="7.1660770">
        <ele>1658.4</ele>
        <time>2017-07-25T12:19:23Z</time>
      </trkpt>
      <trkpt lat="44.7789900" lon="7.1660600">
        <ele>1657.8</ele>
        <time>2017-07-25T12:19:24Z</time>
      </trkpt>
      <trkpt lat="44.7789860" lon="7.1660430">
        <ele>1657.0</ele>
        <time>2017-07-25T12:19:25Z</time>
      </trkpt>
      <trkpt lat="44.7789840" lon="7.1660330">
        <ele>1656.4</ele>
        <time>2017-07-25T12:19:26Z</time>
      </trkpt>
      <trkpt lat="44.7789940" lon="7.1660180">
        <ele>1656.0</ele>
        <time>2017-07-25T12:19:27Z</time>
      </trkpt>
      <trkpt lat="44.7790030" lon="7.1659890">
        <ele>1655.2</ele>
        <time>2017-07-25T12:19:29Z</time>
      </trkpt>
      <trkpt lat="44.7789990" lon="7.1659750">
        <ele>1654.6</ele>
        <time>2017-07-25T12:19:30Z</time>
      </trkpt>
      <trkpt lat="44.7789960" lon="7.1659510">
        <ele>1654.0</ele>
        <time>2017-07-25T12:19:31Z</time>
      </trkpt>
      <trkpt lat="44.7789850" lon="7.1658940">
        <ele>1652.2</ele>
        <time>2017-07-25T12:19:33Z</time>
      </trkpt>
      <trkpt lat="44.7789570" lon="7.1658330">
        <ele>1650.6</ele>
        <time>2017-07-25T12:19:35Z</time>
      </trkpt>
      <trkpt lat="44.7789410" lon="7.1657680">
        <ele>1649.4</ele>
        <time>2017-07-25T12:19:37Z</time>
      </trkpt>
      <trkpt lat="44.7789270" lon="7.1657490">
        <ele>1648.6</ele>
        <time>2017-07-25T12:19:38Z</time>
      </trkpt>
      <trkpt lat="44.7789160" lon="7.1657330">
        <ele>1647.6</ele>
        <time>2017-07-25T12:19:39Z</time>
      </trkpt>
      <trkpt lat="44.7789080" lon="7.1657030">
        <ele>1646.0</ele>
        <time>2017-07-25T12:19:41Z</time>
      </trkpt>
      <trkpt lat="44.7789090" lon="7.1656860">
        <ele>1644.6</ele>
        <time>2017-07-25T12:19:42Z</time>
      </trkpt>
      <trkpt lat="44.7788930" lon="7.1656570">
        <ele>1643.4</ele>
        <time>2017-07-25T12:19:44Z</time>
      </trkpt>
      <trkpt lat="44.7788730" lon="7.1656240">
        <ele>1641.8</ele>
        <time>2017-07-25T12:19:46Z</time>
      </trkpt>
      <trkpt lat="44.7788410" lon="7.1655790">
        <ele>1640.6</ele>
        <time>2017-07-25T12:19:49Z</time>
      </trkpt>
      <trkpt lat="44.7788190" lon="7.1655630">
        <ele>1639.4</ele>
        <time>2017-07-25T12:19:51Z</time>
      </trkpt>
      <trkpt lat="44.7789720" lon="7.1653590">
        <ele>1629.0</ele>
        <time>2017-07-25T12:20:24Z</time>
      </trkpt>
      <trkpt lat="44.7789900" lon="7.1653270">
        <ele>1628.6</ele>
        <time>2017-07-25T12:20:25Z</time>
      </trkpt>
      <trkpt lat="44.7790060" lon="7.1652970">
        <ele>1628.2</ele>
        <time>2017-07-25T12:20:26Z</time>
      </trkpt>
      <trkpt lat="44.7790170" lon="7.1652690">
        <ele>1628.0</ele>
        <time>2017-07-25T12:20:27Z</time>
      </trkpt>
      <trkpt lat="44.7790430" lon="7.1651960">
        <ele>1626.2</ele>
        <time>2017-07-25T12:20:30Z</time>
      </trkpt>
      <trkpt lat="44.7790780" lon="7.1651380">
        <ele>1625.2</ele>
        <time>2017-07-25T12:20:32Z</time>
      </trkpt>
      <trkpt lat="44.7790950" lon="7.1651120">
        <ele>1624.4</ele>
        <time>2017-07-25T12:20:33Z</time>
      </trkpt>
      <trkpt lat="44.7791260" lon="7.1650640">
        <ele>1623.2</ele>
        <time>2017-07-25T12:20:35Z</time>
      </trkpt>
      <trkpt lat="44.7791380" lon="7.1650340">
        <ele>1622.8</ele>
        <time>2017-07-25T12:20:36Z</time>
      </trkpt>
      <trkpt lat="44.7791470" lon="7.1649980">
        <ele>1622.2</ele>
        <time>2017-07-25T12:20:37Z</time>
      </trkpt>
      <trkpt lat="44.7791510" lon="7.1649750">
        <ele>1621.4</ele>
        <time>2017-07-25T12:20:38Z</time>
      </trkpt>
      <trkpt lat="44.7791540" lon="7.1649530">
        <ele>1621.0</ele>
        <time>2017-07-25T12:20:39Z</time>
      </trkpt>
      <trkpt lat="44.7792160" lon="7.1648830">
        <ele>1612.4</ele>
        <time>2017-07-25T12:20:53Z</time>
      </trkpt>
      <trkpt lat="44.7792380" lon="7.1648560">
        <ele>1611.4</ele>
        <time>2017-07-25T12:20:54Z</time>
      </trkpt>
      <trkpt lat="44.7792590" lon="7.1648120">
        <ele>1610.2</ele>
        <time>2017-07-25T12:20:56Z</time>
      </trkpt>
      <trkpt lat="44.7792750" lon="7.1647610">
        <ele>1608.6</ele>
        <time>2017-07-25T12:20:58Z</time>
      </trkpt>
      <trkpt lat="44.7792830" lon="7.1647340">
        <ele>1608.2</ele>
        <time>2017-07-25T12:20:59Z</time>
      </trkpt>
      <trkpt lat="44.7792900" lon="7.1646810">
        <ele>1607.6</ele>
        <time>2017-07-25T12:21:01Z</time>
      </trkpt>
      <trkpt lat="44.7792790" lon="7.1646270">
        <ele>1606.6</ele>
        <time>2017-07-25T12:21:03Z</time>
      </trkpt>
      <trkpt lat="44.7792690" lon="7.1646040">
        <ele>1606.2</ele>
        <time>2017-07-25T12:21:04Z</time>
      </trkpt>
      <trkpt lat="44.7792530" lon="7.1645490">
        <ele>1605.2</ele>
        <time>2017-07-25T12:21:06Z</time>
      </trkpt>
      <trkpt lat="44.7792080" lon="7.1644840">
        <ele>1604.0</ele>
        <time>2017-07-25T12:21:08Z</time>
      </trkpt>
      <trkpt lat="44.7791510" lon="7.1643840">
        <ele>1603.0</ele>
        <time>2017-07-25T12:21:11Z</time>
      </trkpt>
      <trkpt lat="44.7791370" lon="7.1643400">
        <ele>1602.4</ele>
        <time>2017-07-25T12:21:12Z</time>
      </trkpt>
      <trkpt lat="44.7791300" lon="7.1643010">
        <ele>1601.6</ele>
        <time>2017-07-25T12:21:13Z</time>
      </trkpt>
      <trkpt lat="44.7791310" lon="7.1642660">
        <ele>1601.0</ele>
        <time>2017-07-25T12:21:14Z</time>
      </trkpt>
      <trkpt lat="44.7791520" lon="7.1642470">
        <ele>1600.6</ele>
        <time>2017-07-25T12:21:15Z</time>
      </trkpt>
      <trkpt lat="44.7791910" lon="7.1642150">
        <ele>1599.8</ele>
        <time>2017-07-25T12:21:17Z</time>
      </trkpt>
      <trkpt lat="44.7792190" lon="7.1641970">
        <ele>1598.2</ele>
        <time>2017-07-25T12:21:18Z</time>
      </trkpt>
      <trkpt lat="44.7792590" lon="7.1641510">
        <ele>1596.8</ele>
        <time>2017-07-25T12:21:20Z</time>
      </trkpt>
      <trkpt lat="44.7792940" lon="7.1641160">
        <ele>1595.6</ele>
        <time>2017-07-25T12:21:22Z</time>
      </trkpt>
      <trkpt lat="44.7793010" lon="7.1641020">
        <ele>1594.8</ele>
        <time>2017-07-25T12:21:23Z</time>
      </trkpt>
      <trkpt lat="44.7793090" lon="7.1640840">
        <ele>1594.0</ele>
        <time>2017-07-25T12:21:24Z</time>
      </trkpt>
      <trkpt lat="44.7793060" lon="7.1640590">
        <ele>1592.4</ele>
        <time>2017-07-25T12:21:26Z</time>
      </trkpt>
      <trkpt lat="44.7793250" lon="7.1640240">
        <ele>1591.4</ele>
        <time>2017-07-25T12:21:28Z</time>
      </trkpt>
      <trkpt lat="44.7793390" lon="7.1640000">
        <ele>1590.6</ele>
        <time>2017-07-25T12:21:29Z</time>
      </trkpt>
      <trkpt lat="44.7793630" lon="7.1639720">
        <ele>1589.6</ele>
        <time>2017-07-25T12:21:30Z</time>
      </trkpt>
      <trkpt lat="44.7794000" lon="7.1639030">
        <ele>1588.4</ele>
        <time>2017-07-25T12:21:32Z</time>
      </trkpt>
      <trkpt lat="44.7794320" lon="7.1638490">
        <ele>1586.6</ele>
        <time>2017-07-25T12:21:34Z</time>
      </trkpt>
      <trkpt lat="44.7794430" lon="7.1638200">
        <ele>1585.4</ele>
        <time>2017-07-25T12:21:35Z</time>
      </trkpt>
      <trkpt lat="44.7794730" lon="7.1637500">
        <ele>1583.6</ele>
        <time>2017-07-25T12:21:37Z</time>
      </trkpt>
      <trkpt lat="44.7794830" lon="7.1637150">
        <ele>1582.6</ele>
        <time>2017-07-25T12:21:38Z</time>
      </trkpt>
      <trkpt lat="44.7794940" lon="7.1636760">
        <ele>1581.4</ele>
        <time>2017-07-25T12:21:39Z</time>
      </trkpt>
      <trkpt lat="44.7795240" lon="7.1635810">
        <ele>1579.6</ele>
        <time>2017-07-25T12:21:41Z</time>
      </trkpt>
      <trkpt lat="44.7795390" lon="7.1635350">
        <ele>1577.4</ele>
        <time>2017-07-25T12:21:42Z</time>
      </trkpt>
      <trkpt lat="44.7795600" lon="7.1634920">
        <ele>1576.2</ele>
        <time>2017-07-25T12:21:43Z</time>
      </trkpt>
      <trkpt lat="44.7795800" lon="7.1634520">
        <ele>1575.2</ele>
        <time>2017-07-25T12:21:44Z</time>
      </trkpt>
      <trkpt lat="44.7796000" lon="7.1634160">
        <ele>1574.0</ele>
        <time>2017-07-25T12:21:45Z</time>
      </trkpt>
      <trkpt lat="44.7796370" lon="7.1633470">
        <ele>1572.2</ele>
        <time>2017-07-25T12:21:47Z</time>
      </trkpt>
      <trkpt lat="44.7796520" lon="7.1633140">
        <ele>1571.6</ele>
        <time>2017-07-25T12:21:48Z</time>
      </trkpt>
      <trkpt lat="44.7796640" lon="7.1632810">
        <ele>1570.8</ele>
        <time>2017-07-25T12:21:49Z</time>
      </trkpt>
      <trkpt lat="44.7796620" lon="7.1632180">
        <ele>1568.8</ele>
        <time>2017-07-25T12:21:51Z</time>
      </trkpt>
      <trkpt lat="44.7796390" lon="7.1631950">
        <ele>1567.8</ele>
        <time>2017-07-25T12:21:52Z</time>
      </trkpt>
      <trkpt lat="44.7796040" lon="7.1631690">
        <ele>1566.8</ele>
        <time>2017-07-25T12:21:53Z</time>
      </trkpt>
      <trkpt lat="44.7795720" lon="7.1631020">
        <ele>1564.8</ele>
        <time>2017-07-25T12:21:55Z</time>
      </trkpt>
      <trkpt lat="44.7795660" lon="7.1630680">
        <ele>1563.8</ele>
        <time>2017-07-25T12:21:56Z</time>
      </trkpt>
      <trkpt lat="44.7795690" lon="7.1630390">
        <ele>1562.8</ele>
        <time>2017-07-25T12:21:57Z</time>
      </trkpt>
      <trkpt lat="44.7795710" lon="7.1629500">
        <ele>1561.0</ele>
        <time>2017-07-25T12:21:59Z</time>
      </trkpt>
      <trkpt lat="44.7796080" lon="7.1628410">
        <ele>1559.8</ele>
        <time>2017-07-25T12:22:01Z</time>
      </trkpt>
      <trkpt lat="44.7796330" lon="7.1627560">
        <ele>1557.6</ele>
        <time>2017-07-25T12:22:03Z</time>
      </trkpt>
      <trkpt lat="44.7796440" lon="7.1627190">
        <ele>1556.2</ele>
        <time>2017-07-25T12:22:04Z</time>
      </trkpt>
      <trkpt lat="44.7796490" lon="7.1626820">
        <ele>1555.0</ele>
        <time>2017-07-25T12:22:05Z</time>
      </trkpt>
      <trkpt lat="44.7796560" lon="7.1626510">
        <ele>1553.2</ele>
        <time>2017-07-25T12:22:06Z</time>
      </trkpt>
      <trkpt lat="44.7796660" lon="7.1625850">
        <ele>1551.4</ele>
        <time>2017-07-25T12:22:08Z</time>
      </trkpt>
      <trkpt lat="44.7796640" lon="7.1625600">
        <ele>1550.4</ele>
        <time>2017-07-25T12:22:09Z</time>
      </trkpt>
      <trkpt lat="44.7796690" lon="7.1625290">
        <ele>1549.4</ele>
        <time>2017-07-25T12:22:10Z</time>
      </trkpt>
      <trkpt lat="44.7796830" lon="7.1625000">
        <ele>1548.4</ele>
        <time>2017-07-25T12:22:11Z</time>
      </trkpt>
      <trkpt lat="44.7797110" lon="7.1624540">
        <ele>1546.6</ele>
        <time>2017-07-25T12:22:13Z</time>
      </trkpt>
      <trkpt lat="44.7797320" lon="7.1624290">
        <ele>1544.6</ele>
        <time>2017-07-25T12:22:15Z</time>
      </trkpt>
      <trkpt lat="44.7797190" lon="7.1623920">
        <ele>1543.4</ele>
        <time>2017-07-25T12:22:16Z</time>
      </trkpt>
      <trkpt lat="44.7797180" lon="7.1623250">
        <ele>1542.0</ele>
        <time>2017-07-25T12:22:18Z</time>
      </trkpt>
      <trkpt lat="44.7797380" lon="7.1622480">
        <ele>1540.8</ele>
        <time>2017-07-25T12:22:20Z</time>
      </trkpt>
      <trkpt lat="44.7797750" lon="7.1621780">
        <ele>1538.6</ele>
        <time>2017-07-25T12:22:22Z</time>
      </trkpt>
      <trkpt lat="44.7797930" lon="7.1621480">
        <ele>1537.6</ele>
        <time>2017-07-25T12:22:23Z</time>
      </trkpt>
      <trkpt lat="44.7798320" lon="7.1620980">
        <ele>1535.8</ele>
        <time>2017-07-25T12:22:25Z</time>
      </trkpt>
      <trkpt lat="44.7798840" lon="7.1620790">
        <ele>1534.4</ele>
        <time>2017-07-25T12:22:27Z</time>
      </trkpt>
      <trkpt lat="44.7799080" lon="7.1620700">
        <ele>1533.8</ele>
        <time>2017-07-25T12:22:28Z</time>
      </trkpt>
      <trkpt lat="44.7799230" lon="7.1620570">
        <ele>1533.2</ele>
        <time>2017-07-25T12:22:29Z</time>
      </trkpt>
      <trkpt lat="44.7799420" lon="7.1620400">
        <ele>1532.0</ele>
        <time>2017-07-25T12:22:30Z</time>
      </trkpt>
      <trkpt lat="44.7800410" lon="7.1620660">
        <ele>1530.8</ele>
        <time>2017-07-25T12:22:33Z</time>
      </trkpt>
      <trkpt lat="44.7800280" lon="7.1620120">
        <ele>1523.6</ele>
        <time>2017-07-25T12:22:48Z</time>
      </trkpt>
      <trkpt lat="44.7800620" lon="7.1619620">
        <ele>1522.0</ele>
        <time>2017-07-25T12:22:51Z</time>
      </trkpt>
      <trkpt lat="44.7800950" lon="7.1619120">
        <ele>1521.0</ele>
        <time>2017-07-25T12:22:53Z</time>
      </trkpt>
      <trkpt lat="44.7801170" lon="7.1618680">
        <ele>1519.4</ele>
        <time>2017-07-25T12:22:55Z</time>
      </trkpt>
      <trkpt lat="44.7801330" lon="7.1618610">
        <ele>1518.8</ele>
        <time>2017-07-25T12:22:56Z</time>
      </trkpt>
      <trkpt lat="44.7801410" lon="7.1618420">
        <ele>1518.2</ele>
        <time>2017-07-25T12:22:57Z</time>
      </trkpt>
      <trkpt lat="44.7801310" lon="7.1618260">
        <ele>1517.4</ele>
        <time>2017-07-25T12:22:58Z</time>
      </trkpt>
      <trkpt lat="44.7801200" lon="7.1618090">
        <ele>1516.8</ele>
        <time>2017-07-25T12:22:59Z</time>
      </trkpt>
      <trkpt lat="44.7800940" lon="7.1617690">
        <ele>1516.0</ele>
        <time>2017-07-25T12:23:01Z</time>
      </trkpt>
      <trkpt lat="44.7800840" lon="7.1617480">
        <ele>1515.8</ele>
        <time>2017-07-25T12:23:02Z</time>
      </trkpt>
      <trkpt lat="44.7800740" lon="7.1617230">
        <ele>1515.4</ele>
        <time>2017-07-25T12:23:03Z</time>
      </trkpt>
      <trkpt lat="44.7800770" lon="7.1616760">
        <ele>1514.0</ele>
        <time>2017-07-25T12:23:05Z</time>
      </trkpt>
      <trkpt lat="44.7800840" lon="7.1616400">
        <ele>1512.8</ele>
        <time>2017-07-25T12:23:07Z</time>
      </trkpt>
      <trkpt lat="44.7801230" lon="7.1615880">
        <ele>1511.4</ele>
        <time>2017-07-25T12:23:10Z</time>
      </trkpt>
      <trkpt lat="44.7801750" lon="7.1615630">
        <ele>1510.2</ele>
        <time>2017-07-25T12:23:13Z</time>
      </trkpt>
      <trkpt lat="44.7802910" lon="7.1615140">
        <ele>1505.0</ele>
        <time>2017-07-25T12:23:26Z</time>
      </trkpt>
      <trkpt lat="44.7803050" lon="7.1615080">
        <ele>1504.2</ele>
        <time>2017-07-25T12:23:28Z</time>
      </trkpt>
      <trkpt lat="44.7803190" lon="7.1615000">
        <ele>1503.8</ele>
        <time>2017-07-25T12:23:30Z</time>
      </trkpt>
      <trkpt lat="44.7803460" lon="7.1614740">
        <ele>1502.6</ele>
        <time>2017-07-25T12:23:34Z</time>
      </trkpt>
      <trkpt lat="44.7803100" lon="7.1612370">
        <ele>1498.0</ele>
        <time>2017-07-25T12:23:57Z</time>
      </trkpt>
      <trkpt lat="44.7803520" lon="7.1611810">
        <ele>1497.0</ele>
        <time>2017-07-25T12:24:01Z</time>
      </trkpt>
      <trkpt lat="44.7803700" lon="7.1611360">
        <ele>1495.6</ele>
        <time>2017-07-25T12:24:04Z</time>
      </trkpt>
      <trkpt lat="44.7804610" lon="7.1609750">
        <ele>1488.4</ele>
        <time>2017-07-25T12:24:27Z</time>
      </trkpt>
      <trkpt lat="44.7804850" lon="7.1609380">
        <ele>1488.0</ele>
        <time>2017-07-25T12:24:28Z</time>
      </trkpt>
      <trkpt lat="44.7805090" lon="7.1608990">
        <ele>1487.4</ele>
        <time>2017-07-25T12:24:29Z</time>
      </trkpt>
      <trkpt lat="44.7805280" lon="7.1608550">
        <ele>1486.0</ele>
        <time>2017-07-25T12:24:30Z</time>
      </trkpt>
      <trkpt lat="44.7805660" lon="7.1606930">
        <ele>1485.4</ele>
        <time>2017-07-25T12:24:33Z</time>
      </trkpt>
      <trkpt lat="44.7805890" lon="7.1606290">
        <ele>1484.6</ele>
        <time>2017-07-25T12:24:34Z</time>
      </trkpt>
      <trkpt lat="44.7806400" lon="7.1604900">
        <ele>1483.0</ele>
        <time>2017-07-25T12:24:36Z</time>
      </trkpt>
      <trkpt lat="44.7806520" lon="7.1604210">
        <ele>1482.4</ele>
        <time>2017-07-25T12:24:37Z</time>
      </trkpt>
      <trkpt lat="44.7806580" lon="7.1603480">
        <ele>1481.4</ele>
        <time>2017-07-25T12:24:38Z</time>
      </trkpt>
      <trkpt lat="44.7806680" lon="7.1602180">
        <ele>1479.4</ele>
        <time>2017-07-25T12:24:40Z</time>
      </trkpt>
      <trkpt lat="44.7806720" lon="7.1601590">
        <ele>1478.8</ele>
        <time>2017-07-25T12:24:41Z</time>
      </trkpt>
      <trkpt lat="44.7806740" lon="7.1600970">
        <ele>1478.0</ele>
        <time>2017-07-25T12:24:42Z</time>
      </trkpt>
      <trkpt lat="44.7806880" lon="7.1599610">
        <ele>1476.0</ele>
        <time>2017-07-25T12:24:44Z</time>
      </trkpt>
      <trkpt lat="44.7806970" lon="7.1599040">
        <ele>1475.0</ele>
        <time>2017-07-25T12:24:45Z</time>
      </trkpt>
      <trkpt lat="44.7807110" lon="7.1598580">
        <ele>1473.8</ele>
        <time>2017-07-25T12:24:46Z</time>
      </trkpt>
      <trkpt lat="44.7807270" lon="7.1598210">
        <ele>1472.8</ele>
        <time>2017-07-25T12:24:47Z</time>
      </trkpt>
      <trkpt lat="44.7807330" lon="7.1597560">
        <ele>1470.8</ele>
        <time>2017-07-25T12:24:49Z</time>
      </trkpt>
      <trkpt lat="44.7807170" lon="7.1597350">
        <ele>1469.6</ele>
        <time>2017-07-25T12:24:50Z</time>
      </trkpt>
      <trkpt lat="44.7806940" lon="7.1597580">
        <ele>1468.6</ele>
        <time>2017-07-25T12:24:51Z</time>
      </trkpt>
      <trkpt lat="44.7806690" lon="7.1597820">
        <ele>1468.0</ele>
        <time>2017-07-25T12:24:52Z</time>
      </trkpt>
      <trkpt lat="44.7806370" lon="7.1598130">
        <ele>1467.4</ele>
        <time>2017-07-25T12:24:53Z</time>
      </trkpt>
      <trkpt lat="44.7806020" lon="7.1598480">
        <ele>1466.0</ele>
        <time>2017-07-25T12:24:54Z</time>
      </trkpt>
      <trkpt lat="44.7805620" lon="7.1598790">
        <ele>1464.8</ele>
        <time>2017-07-25T12:24:55Z</time>
      </trkpt>
      <trkpt lat="44.7805210" lon="7.1599190">
        <ele>1464.0</ele>
        <time>2017-07-25T12:24:56Z</time>
      </trkpt>
      <trkpt lat="44.7804750" lon="7.1599650">
        <ele>1463.2</ele>
        <time>2017-07-25T12:24:57Z</time>
      </trkpt>
      <trkpt lat="44.7803780" lon="7.1600620">
        <ele>1461.8</ele>
        <time>2017-07-25T12:24:59Z</time>
      </trkpt>
      <trkpt lat="44.7802860" lon="7.1601380">
        <ele>1460.6</ele>
        <time>2017-07-25T12:25:01Z</time>
      </trkpt>
      <trkpt lat="44.7801770" lon="7.1601710">
        <ele>1459.2</ele>
        <time>2017-07-25T12:25:03Z</time>
      </trkpt>
      <trkpt lat="44.7800570" lon="7.1601820">
        <ele>1458.0</ele>
        <time>2017-07-25T12:25:05Z</time>
      </trkpt>
      <trkpt lat="44.7799270" lon="7.1601960">
        <ele>1456.8</ele>
        <time>2017-07-25T12:25:07Z</time>
      </trkpt>
      <trkpt lat="44.7797940" lon="7.1602270">
        <ele>1455.6</ele>
        <time>2017-07-25T12:25:09Z</time>
      </trkpt>
      <trkpt lat="44.7797270" lon="7.1602520">
        <ele>1455.4</ele>
        <time>2017-07-25T12:25:10Z</time>
      </trkpt>
      <trkpt lat="44.7796580" lon="7.1602700">
        <ele>1454.6</ele>
        <time>2017-07-25T12:25:11Z</time>
      </trkpt>
      <trkpt lat="44.7795880" lon="7.1602770">
        <ele>1454.0</ele>
        <time>2017-07-25T12:25:12Z</time>
      </trkpt>
      <trkpt lat="44.7795170" lon="7.1602920">
        <ele>1453.4</ele>
        <time>2017-07-25T12:25:13Z</time>
      </trkpt>
      <trkpt lat="44.7793680" lon="7.1603420">
        <ele>1452.6</ele>
        <time>2017-07-25T12:25:15Z</time>
      </trkpt>
      <trkpt lat="44.7792920" lon="7.1603670">
        <ele>1451.8</ele>
        <time>2017-07-25T12:25:16Z</time>
      </trkpt>
      <trkpt lat="44.7791520" lon="7.1604090">
        <ele>1450.0</ele>
        <time>2017-07-25T12:25:18Z</time>
      </trkpt>
      <trkpt lat="44.7790670" lon="7.1604100">
        <ele>1449.0</ele>
        <time>2017-07-25T12:25:20Z</time>
      </trkpt>
      <trkpt lat="44.7790670" lon="7.1603710">
        <ele>1448.4</ele>
        <time>2017-07-25T12:25:21Z</time>
      </trkpt>
      <trkpt lat="44.7790750" lon="7.1603290">
        <ele>1448.0</ele>
        <time>2017-07-25T12:25:22Z</time>
      </trkpt>
      <trkpt lat="44.7791640" lon="7.1601350">
        <ele>1446.4</ele>
        <time>2017-07-25T12:25:25Z</time>
      </trkpt>
      <trkpt lat="44.7792580" lon="7.1599650">
        <ele>1444.8</ele>
        <time>2017-07-25T12:25:27Z</time>
      </trkpt>
      <trkpt lat="44.7793520" lon="7.1597770">
        <ele>1443.4</ele>
        <time>2017-07-25T12:25:29Z</time>
      </trkpt>
      <trkpt lat="44.7793970" lon="7.1596710">
        <ele>1442.4</ele>
        <time>2017-07-25T12:25:30Z</time>
      </trkpt>
      <trkpt lat="44.7794820" lon="7.1594830">
        <ele>1440.6</ele>
        <time>2017-07-25T12:25:32Z</time>
      </trkpt>
      <trkpt lat="44.7795300" lon="7.1594140">
        <ele>1440.0</ele>
        <time>2017-07-25T12:25:33Z</time>
      </trkpt>
      <trkpt lat="44.7795860" lon="7.1593540">
        <ele>1439.2</ele>
        <time>2017-07-25T12:25:34Z</time>
      </trkpt>
      <trkpt lat="44.7797070" lon="7.1592350">
        <ele>1438.0</ele>
        <time>2017-07-25T12:25:36Z</time>
      </trkpt>
      <trkpt lat="44.7797610" lon="7.1591770">
        <ele>1436.8</ele>
        <time>2017-07-25T12:25:37Z</time>
      </trkpt>
      <trkpt lat="44.7798210" lon="7.1591330">
        <ele>1435.6</ele>
        <time>2017-07-25T12:25:38Z</time>
      </trkpt>
      <trkpt lat="44.7798830" lon="7.1591090">
        <ele>1434.6</ele>
        <time>2017-07-25T12:25:39Z</time>
      </trkpt>
      <trkpt lat="44.7799290" lon="7.1590820">
        <ele>1433.8</ele>
        <time>2017-07-25T12:25:40Z</time>
      </trkpt>
      <trkpt lat="44.7799550" lon="7.1590430">
        <ele>1433.2</ele>
        <time>2017-07-25T12:25:41Z</time>
      </trkpt>
      <trkpt lat="44.7799640" lon="7.1590130">
        <ele>1431.4</ele>
        <time>2017-07-25T12:25:42Z</time>
      </trkpt>
      <trkpt lat="44.7799620" lon="7.1589920">
        <ele>1430.4</ele>
        <time>2017-07-25T12:25:43Z</time>
      </trkpt>
      <trkpt lat="44.7799390" lon="7.1589660">
        <ele>1429.6</ele>
        <time>2017-07-25T12:25:44Z</time>
      </trkpt>
      <trkpt lat="44.7799150" lon="7.1589450">
        <ele>1428.6</ele>
        <time>2017-07-25T12:25:45Z</time>
      </trkpt>
      <trkpt lat="44.7798640" lon="7.1589630">
        <ele>1427.0</ele>
        <time>2017-07-25T12:25:47Z</time>
      </trkpt>
      <trkpt lat="44.7798390" lon="7.1589760">
        <ele>1426.2</ele>
        <time>2017-07-25T12:25:48Z</time>
      </trkpt>
      <trkpt lat="44.7798170" lon="7.1589960">
        <ele>1425.8</ele>
        <time>2017-07-25T12:25:49Z</time>
      </trkpt>
      <trkpt lat="44.7797700" lon="7.1590430">
        <ele>1424.4</ele>
        <time>2017-07-25T12:25:51Z</time>
      </trkpt>
      <trkpt lat="44.7797190" lon="7.1590740">
        <ele>1423.2</ele>
        <time>2017-07-25T12:25:53Z</time>
      </trkpt>
      <trkpt lat="44.7796950" lon="7.1590600">
        <ele>1422.6</ele>
        <time>2017-07-25T12:25:54Z</time>
      </trkpt>
      <trkpt lat="44.7796830" lon="7.1590360">
        <ele>1422.0</ele>
        <time>2017-07-25T12:25:55Z</time>
      </trkpt>
      <trkpt lat="44.7796440" lon="7.1589960">
        <ele>1420.8</ele>
        <time>2017-07-25T12:25:57Z</time>
      </trkpt>
      <trkpt lat="44.7796190" lon="7.1589870">
        <ele>1420.0</ele>
        <time>2017-07-25T12:25:58Z</time>
      </trkpt>
      <trkpt lat="44.7795900" lon="7.1589910">
        <ele>1419.2</ele>
        <time>2017-07-25T12:25:59Z</time>
      </trkpt>
      <trkpt lat="44.7795250" lon="7.1590000">
        <ele>1417.6</ele>
        <time>2017-07-25T12:26:01Z</time>
      </trkpt>
      <trkpt lat="44.7794860" lon="7.1590060">
        <ele>1416.8</ele>
        <time>2017-07-25T12:26:02Z</time>
      </trkpt>
      <trkpt lat="44.7794410" lon="7.1590090">
        <ele>1416.4</ele>
        <time>2017-07-25T12:26:03Z</time>
      </trkpt>
      <trkpt lat="44.7793090" lon="7.1590230">
        <ele>1415.0</ele>
        <time>2017-07-25T12:26:05Z</time>
      </trkpt>
      <trkpt lat="44.7792310" lon="7.1590260">
        <ele>1413.8</ele>
        <time>2017-07-25T12:26:06Z</time>
      </trkpt>
      <trkpt lat="44.7791660" lon="7.1590150">
        <ele>1413.0</ele>
        <time>2017-07-25T12:26:07Z</time>
      </trkpt>
      <trkpt lat="44.7791090" lon="7.1590120">
        <ele>1412.2</ele>
        <time>2017-07-25T12:26:08Z</time>
      </trkpt>
      <trkpt lat="44.7790500" lon="7.1590130">
        <ele>1411.2</ele>
        <time>2017-07-25T12:26:09Z</time>
      </trkpt>
      <trkpt lat="44.7789930" lon="7.1590260">
        <ele>1410.4</ele>
        <time>2017-07-25T12:26:10Z</time>
      </trkpt>
      <trkpt lat="44.7788710" lon="7.1590690">
        <ele>1409.2</ele>
        <time>2017-07-25T12:26:12Z</time>
      </trkpt>
      <trkpt lat="44.7788130" lon="7.1590860">
        <ele>1408.2</ele>
        <time>2017-07-25T12:26:13Z</time>
      </trkpt>
      <trkpt lat="44.7787580" lon="7.1591050">
        <ele>1407.0</ele>
        <time>2017-07-25T12:26:14Z</time>
      </trkpt>
      <trkpt lat="44.7786530" lon="7.1591600">
        <ele>1405.8</ele>
        <time>2017-07-25T12:26:16Z</time>
      </trkpt>
      <trkpt lat="44.7786090" lon="7.1592030">
        <ele>1405.0</ele>
        <time>2017-07-25T12:26:17Z</time>
      </trkpt>
      <trkpt lat="44.7785520" lon="7.1592280">
        <ele>1404.2</ele>
        <time>2017-07-25T12:26:18Z</time>
      </trkpt>
      <trkpt lat="44.7784430" lon="7.1592680">
        <ele>1402.4</ele>
        <time>2017-07-25T12:26:20Z</time>
      </trkpt>
      <trkpt lat="44.7783920" lon="7.1592840">
        <ele>1401.4</ele>
        <time>2017-07-25T12:26:21Z</time>
      </trkpt>
      <trkpt lat="44.7783630" lon="7.1593030">
        <ele>1400.6</ele>
        <time>2017-07-25T12:26:22Z</time>
      </trkpt>
      <trkpt lat="44.7783400" lon="7.1593040">
        <ele>1399.8</ele>
        <time>2017-07-25T12:26:23Z</time>
      </trkpt>
      <trkpt lat="44.7783220" lon="7.1593100">
        <ele>1399.0</ele>
        <time>2017-07-25T12:26:24Z</time>
      </trkpt>
      <trkpt lat="44.7782960" lon="7.1593150">
        <ele>1397.4</ele>
        <time>2017-07-25T12:26:26Z</time>
      </trkpt>
      <trkpt lat="44.7783250" lon="7.1592550">
        <ele>1387.0</ele>
        <time>2017-07-25T12:26:50Z</time>
      </trkpt>
      <trkpt lat="44.7783400" lon="7.1592310">
        <ele>1386.8</ele>
        <time>2017-07-25T12:26:51Z</time>
      </trkpt>
      <trkpt lat="44.7783490" lon="7.1592110">
        <ele>1386.4</ele>
        <time>2017-07-25T12:26:52Z</time>
      </trkpt>
      <trkpt lat="44.7783420" lon="7.1592160">
        <ele>1385.4</ele>
        <time>2017-07-25T12:26:56Z</time>
      </trkpt>
      <trkpt lat="44.7783380" lon="7.1592190">
        <ele>1385.2</ele>
        <time>2017-07-25T12:26:57Z</time>
      </trkpt>
      <trkpt lat="44.7782910" lon="7.1592630">
        <ele>1384.2</ele>
        <time>2017-07-25T12:27:00Z</time>
      </trkpt>
      <trkpt lat="44.7782710" lon="7.1592920">
        <ele>1383.6</ele>
        <time>2017-07-25T12:27:02Z</time>
      </trkpt>
      <trkpt lat="44.7782640" lon="7.1592880">
        <ele>1383.2</ele>
        <time>2017-07-25T12:27:03Z</time>
      </trkpt>
      <trkpt lat="44.7782510" lon="7.1592720">
        <ele>1382.4</ele>
        <time>2017-07-25T12:27:05Z</time>
      </trkpt>
      <trkpt lat="44.7782440" lon="7.1592630">
        <ele>1382.0</ele>
        <time>2017-07-25T12:27:06Z</time>
      </trkpt>
      <trkpt lat="44.7782420" lon="7.1592230">
        <ele>1381.6</ele>
        <time>2017-07-25T12:27:08Z</time>
      </trkpt>
      <trkpt lat="44.7782740" lon="7.1591560">
        <ele>1380.8</ele>
        <time>2017-07-25T12:27:10Z</time>
      </trkpt>
      <trkpt lat="44.7783390" lon="7.1590440">
        <ele>1379.8</ele>
        <time>2017-07-25T12:27:13Z</time>
      </trkpt>
      <trkpt lat="44.7783600" lon="7.1590150">
        <ele>1379.4</ele>
        <time>2017-07-25T12:27:14Z</time>
      </trkpt>
      <trkpt lat="44.7783770" lon="7.1589790">
        <ele>1379.2</ele>
        <time>2017-07-25T12:27:15Z</time>
      </trkpt>
      <trkpt lat="44.7784460" lon="7.1588700">
        <ele>1378.2</ele>
        <time>2017-07-25T12:27:18Z</time>
      </trkpt>
      <trkpt lat="44.7785070" lon="7.1587770">
        <ele>1377.8</ele>
        <time>2017-07-25T12:27:20Z</time>
      </trkpt>
      <trkpt lat="44.7785730" lon="7.1586650">
        <ele>1377.2</ele>
        <time>2017-07-25T12:27:22Z</time>
      </trkpt>
      <trkpt lat="44.7786530" lon="7.1585070">
        <ele>1375.4</ele>
        <time>2017-07-25T12:27:25Z</time>
      </trkpt>
      <trkpt lat="44.7786910" lon="7.1584120">
        <ele>1374.6</ele>
        <time>2017-07-25T12:27:27Z</time>
      </trkpt>
      <trkpt lat="44.7787040" lon="7.1583730">
        <ele>1374.0</ele>
        <time>2017-07-25T12:27:28Z</time>
      </trkpt>
      <trkpt lat="44.7787270" lon="7.1583080">
        <ele>1372.8</ele>
        <time>2017-07-25T12:27:31Z</time>
      </trkpt>
      <trkpt lat="44.7787310" lon="7.1582860">
        <ele>1372.8</ele>
        <time>2017-07-25T12:27:32Z</time>
      </trkpt>
      <trkpt lat="44.7787640" lon="7.1582000">
        <ele>1371.6</ele>
        <time>2017-07-25T12:27:36Z</time>
      </trkpt>
      <trkpt lat="44.7787940" lon="7.1581560">
        <ele>1370.4</ele>
        <time>2017-07-25T12:27:38Z</time>
      </trkpt>
      <trkpt lat="44.7788330" lon="7.1580820">
        <ele>1368.8</ele>
        <time>2017-07-25T12:27:40Z</time>
      </trkpt>
      <trkpt lat="44.7788600" lon="7.1580250">
        <ele>1367.0</ele>
        <time>2017-07-25T12:27:42Z</time>
      </trkpt>
      <trkpt lat="44.7788730" lon="7.1579950">
        <ele>1366.0</ele>
        <time>2017-07-25T12:27:43Z</time>
      </trkpt>
      <trkpt lat="44.7788790" lon="7.1579550">
        <ele>1365.2</ele>
        <time>2017-07-25T12:27:44Z</time>
      </trkpt>
      <trkpt lat="44.7789090" lon="7.1578590">
        <ele>1363.6</ele>
        <time>2017-07-25T12:27:46Z</time>
      </trkpt>
      <trkpt lat="44.7789490" lon="7.1577810">
        <ele>1362.6</ele>
        <time>2017-07-25T12:27:48Z</time>
      </trkpt>
      <trkpt lat="44.7789760" lon="7.1577240">
        <ele>1360.6</ele>
        <time>2017-07-25T12:27:50Z</time>
      </trkpt>
      <trkpt lat="44.7789880" lon="7.1576950">
        <ele>1359.6</ele>
        <time>2017-07-25T12:27:51Z</time>
      </trkpt>
      <trkpt lat="44.7789920" lon="7.1576300">
        <ele>1358.2</ele>
        <time>2017-07-25T12:27:53Z</time>
      </trkpt>
      <trkpt lat="44.7789860" lon="7.1575880">
        <ele>1357.4</ele>
        <time>2017-07-25T12:27:54Z</time>
      </trkpt>
      <trkpt lat="44.7789790" lon="7.1575520">
        <ele>1356.8</ele>
        <time>2017-07-25T12:27:55Z</time>
      </trkpt>
      <trkpt lat="44.7789790" lon="7.1575070">
        <ele>1355.2</ele>
        <time>2017-07-25T12:27:57Z</time>
      </trkpt>
      <trkpt lat="44.7789700" lon="7.1574850">
        <ele>1354.0</ele>
        <time>2017-07-25T12:27:59Z</time>
      </trkpt>
      <trkpt lat="44.7789690" lon="7.1574760">
        <ele>1353.2</ele>
        <time>2017-07-25T12:28:00Z</time>
      </trkpt>
      <trkpt lat="44.7789670" lon="7.1574570">
        <ele>1352.8</ele>
        <time>2017-07-25T12:28:01Z</time>
      </trkpt>
      <trkpt lat="44.7789850" lon="7.1574280">
        <ele>1351.8</ele>
        <time>2017-07-25T12:28:03Z</time>
      </trkpt>
      <trkpt lat="44.7789990" lon="7.1574080">
        <ele>1351.2</ele>
        <time>2017-07-25T12:28:04Z</time>
      </trkpt>
      <trkpt lat="44.7790340" lon="7.1573320">
        <ele>1349.2</ele>
        <time>2017-07-25T12:28:06Z</time>
      </trkpt>
      <trkpt lat="44.7790930" lon="7.1572810">
        <ele>1347.8</ele>
        <time>2017-07-25T12:28:08Z</time>
      </trkpt>
      <trkpt lat="44.7791520" lon="7.1572600">
        <ele>1347.0</ele>
        <time>2017-07-25T12:28:10Z</time>
      </trkpt>
      <trkpt lat="44.7791790" lon="7.1572400">
        <ele>1346.4</ele>
        <time>2017-07-25T12:28:11Z</time>
      </trkpt>
      <trkpt lat="44.7792310" lon="7.1572010">
        <ele>1345.0</ele>
        <time>2017-07-25T12:28:13Z</time>
      </trkpt>
      <trkpt lat="44.7792460" lon="7.1571580">
        <ele>1343.8</ele>
        <time>2017-07-25T12:28:16Z</time>
      </trkpt>
      <trkpt lat="44.7792220" lon="7.1571480">
        <ele>1339.0</ele>
        <time>2017-07-25T12:28:28Z</time>
      </trkpt>
      <trkpt lat="44.7791980" lon="7.1571380">
        <ele>1338.4</ele>
        <time>2017-07-25T12:28:30Z</time>
      </trkpt>
      <trkpt lat="44.7791740" lon="7.1571280">
        <ele>1337.6</ele>
        <time>2017-07-25T12:28:31Z</time>
      </trkpt>
      <trkpt lat="44.7790560" lon="7.1571340">
        <ele>1336.4</ele>
        <time>2017-07-25T12:28:34Z</time>
      </trkpt>
      <trkpt lat="44.7790230" lon="7.1571220">
        <ele>1336.2</ele>
        <time>2017-07-25T12:28:35Z</time>
      </trkpt>
      <trkpt lat="44.7789650" lon="7.1570640">
        <ele>1335.4</ele>
        <time>2017-07-25T12:28:38Z</time>
      </trkpt>
      <trkpt lat="44.7789530" lon="7.1570410">
        <ele>1335.2</ele>
        <time>2017-07-25T12:28:39Z</time>
      </trkpt>
      <trkpt lat="44.7789700" lon="7.1569300">
        <ele>1333.8</ele>
        <time>2017-07-25T12:28:43Z</time>
      </trkpt>
      <trkpt lat="44.7789760" lon="7.1568910">
        <ele>1333.2</ele>
        <time>2017-07-25T12:28:44Z</time>
      </trkpt>
      <trkpt lat="44.7790150" lon="7.1568700">
        <ele>1332.6</ele>
        <time>2017-07-25T12:28:45Z</time>
      </trkpt>
      <trkpt lat="44.7790990" lon="7.1567900">
        <ele>1331.6</ele>
        <time>2017-07-25T12:28:48Z</time>
      </trkpt>
      <trkpt lat="44.7791430" lon="7.1567800">
        <ele>1331.0</ele>
        <time>2017-07-25T12:28:49Z</time>
      </trkpt>
      <trkpt lat="44.7792400" lon="7.1567050">
        <ele>1329.4</ele>
        <time>2017-07-25T12:28:52Z</time>
      </trkpt>
      <trkpt lat="44.7792920" lon="7.1566080">
        <ele>1327.8</ele>
        <time>2017-07-25T12:28:54Z</time>
      </trkpt>
      <trkpt lat="44.7793490" lon="7.1564830">
        <ele>1326.4</ele>
        <time>2017-07-25T12:28:56Z</time>
      </trkpt>
      <trkpt lat="44.7793910" lon="7.1564210">
        <ele>1326.0</ele>
        <time>2017-07-25T12:28:57Z</time>
      </trkpt>
      <trkpt lat="44.7794730" lon="7.1562870">
        <ele>1325.0</ele>
        <time>2017-07-25T12:28:59Z</time>
      </trkpt>
      <trkpt lat="44.7795460" lon="7.1561780">
        <ele>1323.8</ele>
        <time>2017-07-25T12:29:01Z</time>
      </trkpt>
      <trkpt lat="44.7796080" lon="7.1560740">
        <ele>1323.0</ele>
        <time>2017-07-25T12:29:03Z</time>
      </trkpt>
      <trkpt lat="44.7796310" lon="7.1560320">
        <ele>1322.8</ele>
        <time>2017-07-25T12:29:04Z</time>
      </trkpt>
      <trkpt lat="44.7796840" lon="7.1559130">
        <ele>1321.6</ele>
        <time>2017-07-25T12:29:08Z</time>
      </trkpt>
      <trkpt lat="44.7796960" lon="7.1558340">
        <ele>1320.0</ele>
        <time>2017-07-25T12:29:11Z</time>
      </trkpt>
      <trkpt lat="44.7797150" lon="7.1557260">
        <ele>1318.6</ele>
        <time>2017-07-25T12:29:14Z</time>
      </trkpt>
      <trkpt lat="44.7797130" lon="7.1556480">
        <ele>1317.0</ele>
        <time>2017-07-25T12:29:16Z</time>
      </trkpt>
      <trkpt lat="44.7797150" lon="7.1555710">
        <ele>1314.8</ele>
        <time>2017-07-25T12:29:18Z</time>
      </trkpt>
      <trkpt lat="44.7797320" lon="7.1555070">
        <ele>1313.0</ele>
        <time>2017-07-25T12:29:20Z</time>
      </trkpt>
      <trkpt lat="44.7797400" lon="7.1554710">
        <ele>1312.2</ele>
        <time>2017-07-25T12:29:21Z</time>
      </trkpt>
      <trkpt lat="44.7797500" lon="7.1554330">
        <ele>1311.8</ele>
        <time>2017-07-25T12:29:22Z</time>
      </trkpt>
      <trkpt lat="44.7797720" lon="7.1553690">
        <ele>1310.4</ele>
        <time>2017-07-25T12:29:24Z</time>
      </trkpt>
      <trkpt lat="44.7797860" lon="7.1553350">
        <ele>1309.4</ele>
        <time>2017-07-25T12:29:25Z</time>
      </trkpt>
      <trkpt lat="44.7798050" lon="7.1552820">
        <ele>1308.2</ele>
        <time>2017-07-25T12:29:26Z</time>
      </trkpt>
      <trkpt lat="44.7798590" lon="7.1552400">
        <ele>1307.6</ele>
        <time>2017-07-25T12:29:27Z</time>
      </trkpt>
      <trkpt lat="44.7798890" lon="7.1551910">
        <ele>1306.8</ele>
        <time>2017-07-25T12:29:28Z</time>
      </trkpt>
      <trkpt lat="44.7799760" lon="7.1550810">
        <ele>1305.6</ele>
        <time>2017-07-25T12:29:30Z</time>
      </trkpt>
      <trkpt lat="44.7800390" lon="7.1549920">
        <ele>1304.0</ele>
        <time>2017-07-25T12:29:32Z</time>
      </trkpt>
      <trkpt lat="44.7800690" lon="7.1549550">
        <ele>1303.8</ele>
        <time>2017-07-25T12:29:33Z</time>
      </trkpt>
      <trkpt lat="44.7801320" lon="7.1548850">
        <ele>1303.0</ele>
        <time>2017-07-25T12:29:35Z</time>
      </trkpt>
      <trkpt lat="44.7801930" lon="7.1548110">
        <ele>1301.8</ele>
        <time>2017-07-25T12:29:37Z</time>
      </trkpt>
      <trkpt lat="44.7802210" lon="7.1547230">
        <ele>1300.2</ele>
        <time>2017-07-25T12:29:39Z</time>
      </trkpt>
      <trkpt lat="44.7802370" lon="7.1546560">
        <ele>1298.4</ele>
        <time>2017-07-25T12:29:41Z</time>
      </trkpt>
      <trkpt lat="44.7802480" lon="7.1546120">
        <ele>1296.6</ele>
        <time>2017-07-25T12:29:42Z</time>
      </trkpt>
      <trkpt lat="44.7802770" lon="7.1545750">
        <ele>1295.8</ele>
        <time>2017-07-25T12:29:43Z</time>
      </trkpt>
      <trkpt lat="44.7803050" lon="7.1545350">
        <ele>1294.8</ele>
        <time>2017-07-25T12:29:44Z</time>
      </trkpt>
      <trkpt lat="44.7803390" lon="7.1544940">
        <ele>1293.6</ele>
        <time>2017-07-25T12:29:45Z</time>
      </trkpt>
      <trkpt lat="44.7803610" lon="7.1544440">
        <ele>1292.6</ele>
        <time>2017-07-25T12:29:46Z</time>
      </trkpt>
      <trkpt lat="44.7803850" lon="7.1543930">
        <ele>1291.4</ele>
        <time>2017-07-25T12:29:47Z</time>
      </trkpt>
      <trkpt lat="44.7804010" lon="7.1543340">
        <ele>1290.4</ele>
        <time>2017-07-25T12:29:48Z</time>
      </trkpt>
      <trkpt lat="44.7803930" lon="7.1542980">
        <ele>1289.2</ele>
        <time>2017-07-25T12:29:49Z</time>
      </trkpt>
      <trkpt lat="44.7803870" lon="7.1542590">
        <ele>1287.8</ele>
        <time>2017-07-25T12:29:50Z</time>
      </trkpt>
      <trkpt lat="44.7803720" lon="7.1541780">
        <ele>1285.6</ele>
        <time>2017-07-25T12:29:52Z</time>
      </trkpt>
      <trkpt lat="44.7803580" lon="7.1541280">
        <ele>1283.4</ele>
        <time>2017-07-25T12:29:54Z</time>
      </trkpt>
      <trkpt lat="44.7803440" lon="7.1541140">
        <ele>1282.6</ele>
        <time>2017-07-25T12:29:55Z</time>
      </trkpt>
      <trkpt lat="44.7803350" lon="7.1541190">
        <ele>1281.6</ele>
        <time>2017-07-25T12:29:56Z</time>
      </trkpt>
      <trkpt lat="44.7803520" lon="7.1540480">
        <ele>1273.6</ele>
        <time>2017-07-25T12:30:06Z</time>
      </trkpt>
      <trkpt lat="44.7803600" lon="7.1540060">
        <ele>1272.8</ele>
        <time>2017-07-25T12:30:07Z</time>
      </trkpt>
      <trkpt lat="44.7803630" lon="7.1539040">
        <ele>1272.2</ele>
        <time>2017-07-25T12:30:09Z</time>
      </trkpt>
      <trkpt lat="44.7803410" lon="7.1538800">
        <ele>1271.6</ele>
        <time>2017-07-25T12:30:10Z</time>
      </trkpt>
      <trkpt lat="44.7803080" lon="7.1538620">
        <ele>1271.0</ele>
        <time>2017-07-25T12:30:11Z</time>
      </trkpt>
      <trkpt lat="44.7802210" lon="7.1538390">
        <ele>1270.4</ele>
        <time>2017-07-25T12:30:13Z</time>
      </trkpt>
      <trkpt lat="44.7800450" lon="7.1538810">
        <ele>1269.8</ele>
        <time>2017-07-25T12:30:16Z</time>
      </trkpt>
      <trkpt lat="44.7799820" lon="7.1538990">
        <ele>1269.4</ele>
        <time>2017-07-25T12:30:17Z</time>
      </trkpt>
      <trkpt lat="44.7799270" lon="7.1539260">
        <ele>1269.0</ele>
        <time>2017-07-25T12:30:18Z</time>
      </trkpt>
      <trkpt lat="44.7797870" lon="7.1539820">
        <ele>1268.6</ele>
        <time>2017-07-25T12:30:20Z</time>
      </trkpt>
      <trkpt lat="44.7797150" lon="7.1540060">
        <ele>1268.4</ele>
        <time>2017-07-25T12:30:21Z</time>
      </trkpt>
      <trkpt lat="44.7795790" lon="7.1540500">
        <ele>1267.4</ele>
        <time>2017-07-25T12:30:23Z</time>
      </trkpt>
      <trkpt lat="44.7793720" lon="7.1541510">
        <ele>1267.0</ele>
        <time>2017-07-25T12:30:26Z</time>
      </trkpt>
      <trkpt lat="44.7793010" lon="7.1542010">
        <ele>1266.0</ele>
        <time>2017-07-25T12:30:27Z</time>
      </trkpt>
      <trkpt lat="44.7791910" lon="7.1542910">
        <ele>1264.2</ele>
        <time>2017-07-25T12:30:29Z</time>
      </trkpt>
      <trkpt lat="44.7791550" lon="7.1543190">
        <ele>1262.2</ele>
        <time>2017-07-25T12:30:30Z</time>
      </trkpt>
      <trkpt lat="44.7791470" lon="7.1543430">
        <ele>1261.0</ele>
        <time>2017-07-25T12:30:32Z</time>
      </trkpt>
      <trkpt lat="44.7791550" lon="7.1543260">
        <ele>1260.6</ele>
        <time>2017-07-25T12:30:33Z</time>
      </trkpt>
      <trkpt lat="44.7791790" lon="7.1542730">
        <ele>1260.0</ele>
        <time>2017-07-25T12:30:34Z</time>
      </trkpt>
      <trkpt lat="44.7792380" lon="7.1541550">
        <ele>1258.2</ele>
        <time>2017-07-25T12:30:36Z</time>
      </trkpt>
      <trkpt lat="44.7793100" lon="7.1540120">
        <ele>1256.6</ele>
        <time>2017-07-25T12:30:38Z</time>
      </trkpt>
      <trkpt lat="44.7793900" lon="7.1538540">
        <ele>1255.0</ele>
        <time>2017-07-25T12:30:40Z</time>
      </trkpt>
      <trkpt lat="44.7794860" lon="7.1536950">
        <ele>1253.0</ele>
        <time>2017-07-25T12:30:42Z</time>
      </trkpt>
      <trkpt lat="44.7795320" lon="7.1535800">
        <ele>1251.2</ele>
        <time>2017-07-25T12:30:44Z</time>
      </trkpt>
      <trkpt lat="44.7795270" lon="7.1535450">
        <ele>1250.4</ele>
        <time>2017-07-25T12:30:45Z</time>
      </trkpt>
      <trkpt lat="44.7795050" lon="7.1535390">
        <ele>1249.4</ele>
        <time>2017-07-25T12:30:46Z</time>
      </trkpt>
      <trkpt lat="44.7794140" lon="7.1535790">
        <ele>1247.8</ele>
        <time>2017-07-25T12:30:48Z</time>
      </trkpt>
      <trkpt lat="44.7793580" lon="7.1536100">
        <ele>1247.0</ele>
        <time>2017-07-25T12:30:49Z</time>
      </trkpt>
      <trkpt lat="44.7792930" lon="7.1536480">
        <ele>1246.2</ele>
        <time>2017-07-25T12:30:50Z</time>
      </trkpt>
      <trkpt lat="44.7792160" lon="7.1536970">
        <ele>1245.6</ele>
        <time>2017-07-25T12:30:51Z</time>
      </trkpt>
      <trkpt lat="44.7791450" lon="7.1537470">
        <ele>1244.8</ele>
        <time>2017-07-25T12:30:52Z</time>
      </trkpt>
      <trkpt lat="44.7789800" lon="7.1538560">
        <ele>1243.4</ele>
        <time>2017-07-25T12:30:54Z</time>
      </trkpt>
      <trkpt lat="44.7788950" lon="7.1539140">
        <ele>1241.4</ele>
        <time>2017-07-25T12:30:55Z</time>
      </trkpt>
      <trkpt lat="44.7788120" lon="7.1539740">
        <ele>1240.6</ele>
        <time>2017-07-25T12:30:56Z</time>
      </trkpt>
      <trkpt lat="44.7787270" lon="7.1540310">
        <ele>1239.8</ele>
        <time>2017-07-25T12:30:57Z</time>
      </trkpt>
      <trkpt lat="44.7786440" lon="7.1540810">
        <ele>1238.8</ele>
        <time>2017-07-25T12:30:58Z</time>
      </trkpt>
      <trkpt lat="44.7785770" lon="7.1541250">
        <ele>1237.4</ele>
        <time>2017-07-25T12:30:59Z</time>
      </trkpt>
      <trkpt lat="44.7785290" lon="7.1541560">
        <ele>1236.0</ele>
        <time>2017-07-25T12:31:00Z</time>
      </trkpt>
      <trkpt lat="44.7784810" lon="7.1541860">
        <ele>1234.8</ele>
        <time>2017-07-25T12:31:01Z</time>
      </trkpt>
      <trkpt lat="44.7785150" lon="7.1541230">
        <ele>1232.4</ele>
        <time>2017-07-25T12:31:04Z</time>
      </trkpt>
      <trkpt lat="44.7785360" lon="7.1540810">
        <ele>1231.8</ele>
        <time>2017-07-25T12:31:05Z</time>
      </trkpt>
      <trkpt lat="44.7785830" lon="7.1539900">
        <ele>1231.2</ele>
        <time>2017-07-25T12:31:06Z</time>
      </trkpt>
      <trkpt lat="44.7786310" lon="7.1538980">
        <ele>1230.4</ele>
        <time>2017-07-25T12:31:07Z</time>
      </trkpt>
      <trkpt lat="44.7786840" lon="7.1538010">
        <ele>1229.2</ele>
        <time>2017-07-25T12:31:08Z</time>
      </trkpt>
      <trkpt lat="44.7787380" lon="7.1537060">
        <ele>1228.2</ele>
        <time>2017-07-25T12:31:09Z</time>
      </trkpt>
      <trkpt lat="44.7787920" lon="7.1536070">
        <ele>1227.2</ele>
        <time>2017-07-25T12:31:10Z</time>
      </trkpt>
      <trkpt lat="44.7788560" lon="7.1535030">
        <ele>1226.0</ele>
        <time>2017-07-25T12:31:11Z</time>
      </trkpt>
      <trkpt lat="44.7789360" lon="7.1533900">
        <ele>1224.8</ele>
        <time>2017-07-25T12:31:12Z</time>
      </trkpt>
      <trkpt lat="44.7790840" lon="7.1531700">
        <ele>1223.4</ele>
        <time>2017-07-25T12:31:14Z</time>
      </trkpt>
      <trkpt lat="44.7791440" lon="7.1530690">
        <ele>1222.4</ele>
        <time>2017-07-25T12:31:15Z</time>
      </trkpt>
      <trkpt lat="44.7791910" lon="7.1529700">
        <ele>1221.2</ele>
        <time>2017-07-25T12:31:16Z</time>
      </trkpt>
      <trkpt lat="44.7792380" lon="7.1528660">
        <ele>1219.8</ele>
        <time>2017-07-25T12:31:17Z</time>
      </trkpt>
      <trkpt lat="44.7792890" lon="7.1527610">
        <ele>1219.4</ele>
        <time>2017-07-25T12:31:18Z</time>
      </trkpt>
      <trkpt lat="44.7793510" lon="7.1526660">
        <ele>1217.8</ele>
        <time>2017-07-25T12:31:19Z</time>
      </trkpt>
      <trkpt lat="44.7794040" lon="7.1525700">
        <ele>1216.6</ele>
        <time>2017-07-25T12:31:20Z</time>
      </trkpt>
      <trkpt lat="44.7794790" lon="7.1524950">
        <ele>1215.6</ele>
        <time>2017-07-25T12:31:21Z</time>
      </trkpt>
      <trkpt lat="44.7795570" lon="7.1524400">
        <ele>1214.8</ele>
        <time>2017-07-25T12:31:22Z</time>
      </trkpt>
      <trkpt lat="44.7796280" lon="7.1523940">
        <ele>1214.0</ele>
        <time>2017-07-25T12:31:23Z</time>
      </trkpt>
      <trkpt lat="44.7796990" lon="7.1523640">
        <ele>1213.2</ele>
        <time>2017-07-25T12:31:24Z</time>
      </trkpt>
      <trkpt lat="44.7797680" lon="7.1523310">
        <ele>1212.6</ele>
        <time>2017-07-25T12:31:25Z</time>
      </trkpt>
      <trkpt lat="44.7799060" lon="7.1522710">
        <ele>1211.8</ele>
        <time>2017-07-25T12:31:27Z</time>
      </trkpt>
      <trkpt lat="44.7800490" lon="7.1521980">
        <ele>1209.8</ele>
        <time>2017-07-25T12:31:29Z</time>
      </trkpt>
      <trkpt lat="44.7801240" lon="7.1521450">
        <ele>1208.6</ele>
        <time>2017-07-25T12:31:30Z</time>
      </trkpt>
      <trkpt lat="44.7802930" lon="7.1519820">
        <ele>1206.8</ele>
        <time>2017-07-25T12:31:32Z</time>
      </trkpt>
      <trkpt lat="44.7804870" lon="7.1517630">
        <ele>1205.2</ele>
        <time>2017-07-25T12:31:34Z</time>
      </trkpt>
      <trkpt lat="44.7806700" lon="7.1516060">
        <ele>1203.4</ele>
        <time>2017-07-25T12:31:36Z</time>
      </trkpt>
      <trkpt lat="44.7807570" lon="7.1515530">
        <ele>1202.4</ele>
        <time>2017-07-25T12:31:37Z</time>
      </trkpt>
      <trkpt lat="44.7808460" lon="7.1515090">
        <ele>1201.4</ele>
        <time>2017-07-25T12:31:38Z</time>
      </trkpt>
      <trkpt lat="44.7809360" lon="7.1514650">
        <ele>1200.0</ele>
        <time>2017-07-25T12:31:39Z</time>
      </trkpt>
      <trkpt lat="44.7811190" lon="7.1513890">
        <ele>1198.2</ele>
        <time>2017-07-25T12:31:41Z</time>
      </trkpt>
      <trkpt lat="44.7812080" lon="7.1513580">
        <ele>1196.8</ele>
        <time>2017-07-25T12:31:42Z</time>
      </trkpt>
      <trkpt lat="44.7812930" lon="7.1513040">
        <ele>1194.2</ele>
        <time>2017-07-25T12:31:43Z</time>
      </trkpt>
      <trkpt lat="44.7814580" lon="7.1512340">
        <ele>1192.0</ele>
        <time>2017-07-25T12:31:45Z</time>
      </trkpt>
      <trkpt lat="44.7815450" lon="7.1511920">
        <ele>1191.0</ele>
        <time>2017-07-25T12:31:46Z</time>
      </trkpt>
      <trkpt lat="44.7816290" lon="7.1511430">
        <ele>1189.8</ele>
        <time>2017-07-25T12:31:47Z</time>
      </trkpt>
      <trkpt lat="44.7817210" lon="7.1510950">
        <ele>1188.4</ele>
        <time>2017-07-25T12:31:48Z</time>
      </trkpt>
      <trkpt lat="44.7818020" lon="7.1510420">
        <ele>1187.2</ele>
        <time>2017-07-25T12:31:49Z</time>
      </trkpt>
      <trkpt lat="44.7819000" lon="7.1509630">
        <ele>1185.6</ele>
        <time>2017-07-25T12:31:50Z</time>
      </trkpt>
      <trkpt lat="44.7819680" lon="7.1509060">
        <ele>1184.4</ele>
        <time>2017-07-25T12:31:51Z</time>
      </trkpt>
      <trkpt lat="44.7820500" lon="7.1508350">
        <ele>1183.0</ele>
        <time>2017-07-25T12:31:52Z</time>
      </trkpt>
      <trkpt lat="44.7821220" lon="7.1507860">
        <ele>1181.8</ele>
        <time>2017-07-25T12:31:53Z</time>
      </trkpt>
      <trkpt lat="44.7821700" lon="7.1507620">
        <ele>1180.6</ele>
        <time>2017-07-25T12:31:54Z</time>
      </trkpt>
      <trkpt lat="44.7821930" lon="7.1507440">
        <ele>1179.6</ele>
        <time>2017-07-25T12:31:55Z</time>
      </trkpt>
      <trkpt lat="44.7821890" lon="7.1507500">
        <ele>1178.4</ele>
        <time>2017-07-25T12:31:56Z</time>
      </trkpt>
      <trkpt lat="44.7821620" lon="7.1507660">
        <ele>1177.4</ele>
        <time>2017-07-25T12:31:57Z</time>
      </trkpt>
      <trkpt lat="44.7821250" lon="7.1508010">
        <ele>1176.4</ele>
        <time>2017-07-25T12:31:58Z</time>
      </trkpt>
      <trkpt lat="44.7820550" lon="7.1508140">
        <ele>1175.4</ele>
        <time>2017-07-25T12:31:59Z</time>
      </trkpt>
      <trkpt lat="44.7819700" lon="7.1508210">
        <ele>1174.2</ele>
        <time>2017-07-25T12:32:00Z</time>
      </trkpt>
      <trkpt lat="44.7818790" lon="7.1508390">
        <ele>1173.6</ele>
        <time>2017-07-25T12:32:01Z</time>
      </trkpt>
      <trkpt lat="44.7817870" lon="7.1508570">
        <ele>1172.8</ele>
        <time>2017-07-25T12:32:02Z</time>
      </trkpt>
      <trkpt lat="44.7817020" lon="7.1508870">
        <ele>1171.6</ele>
        <time>2017-07-25T12:32:03Z</time>
      </trkpt>
      <trkpt lat="44.7815950" lon="7.1509200">
        <ele>1170.6</ele>
        <time>2017-07-25T12:32:04Z</time>
      </trkpt>
      <trkpt lat="44.7814030" lon="7.1509790">
        <ele>1168.8</ele>
        <time>2017-07-25T12:32:06Z</time>
      </trkpt>
      <trkpt lat="44.7813310" lon="7.1510200">
        <ele>1167.2</ele>
        <time>2017-07-25T12:32:07Z</time>
      </trkpt>
      <trkpt lat="44.7812940" lon="7.1510760">
        <ele>1166.6</ele>
        <time>2017-07-25T12:32:08Z</time>
      </trkpt>
      <trkpt lat="44.7812760" lon="7.1511430">
        <ele>1165.8</ele>
        <time>2017-07-25T12:32:09Z</time>
      </trkpt>
      <trkpt lat="44.7812830" lon="7.1512850">
        <ele>1164.0</ele>
        <time>2017-07-25T12:32:11Z</time>
      </trkpt>
      <trkpt lat="44.7813210" lon="7.1513970">
        <ele>1162.4</ele>
        <time>2017-07-25T12:32:13Z</time>
      </trkpt>
      <trkpt lat="44.7813820" lon="7.1514510">
        <ele>1161.2</ele>
        <time>2017-07-25T12:32:15Z</time>
      </trkpt>
      <trkpt lat="44.7815800" lon="7.1512630">
        <ele>1159.6</ele>
        <time>2017-07-25T12:32:17Z</time>
      </trkpt>
      <trkpt lat="44.7816600" lon="7.1512080">
        <ele>1158.8</ele>
        <time>2017-07-25T12:32:18Z</time>
      </trkpt>
      <trkpt lat="44.7817740" lon="7.1510430">
        <ele>1158.4</ele>
        <time>2017-07-25T12:32:19Z</time>
      </trkpt>
      <trkpt lat="44.7818450" lon="7.1509700">
        <ele>1158.0</ele>
        <time>2017-07-25T12:32:20Z</time>
      </trkpt>
      <trkpt lat="44.7819150" lon="7.1508790">
        <ele>1157.4</ele>
        <time>2017-07-25T12:32:21Z</time>
      </trkpt>
      <trkpt lat="44.7820220" lon="7.1506620">
        <ele>1157.0</ele>
        <time>2017-07-25T12:32:22Z</time>
      </trkpt>
      <trkpt lat="44.7821930" lon="7.1504160">
        <ele>1156.2</ele>
        <time>2017-07-25T12:32:24Z</time>
      </trkpt>
      <trkpt lat="44.7823610" lon="7.1502040">
        <ele>1155.4</ele>
        <time>2017-07-25T12:32:26Z</time>
      </trkpt>
      <trkpt lat="44.7824850" lon="7.1501070">
        <ele>1154.6</ele>
        <time>2017-07-25T12:32:28Z</time>
      </trkpt>
      <trkpt lat="44.7826040" lon="7.1499610">
        <ele>1153.4</ele>
        <time>2017-07-25T12:32:30Z</time>
      </trkpt>
      <trkpt lat="44.7826630" lon="7.1499040">
        <ele>1152.0</ele>
        <time>2017-07-25T12:32:31Z</time>
      </trkpt>
      <trkpt lat="44.7827480" lon="7.1499650">
        <ele>1151.0</ele>
        <time>2017-07-25T12:32:33Z</time>
      </trkpt>
      <trkpt lat="44.7828000" lon="7.1501160">
        <ele>1149.6</ele>
        <time>2017-07-25T12:32:35Z</time>
      </trkpt>
      <trkpt lat="44.7828240" lon="7.1502140">
        <ele>1148.8</ele>
        <time>2017-07-25T12:32:36Z</time>
      </trkpt>
      <trkpt lat="44.7828480" lon="7.1503200">
        <ele>1148.4</ele>
        <time>2017-07-25T12:32:37Z</time>
      </trkpt>
      <trkpt lat="44.7829370" lon="7.1507120">
        <ele>1147.0</ele>
        <time>2017-07-25T12:32:40Z</time>
      </trkpt>
      <trkpt lat="44.7829980" lon="7.1509570">
        <ele>1145.2</ele>
        <time>2017-07-25T12:32:42Z</time>
      </trkpt>
      <trkpt lat="44.7830710" lon="7.1512190">
        <ele>1143.6</ele>
        <time>2017-07-25T12:32:44Z</time>
      </trkpt>
      <trkpt lat="44.7831540" lon="7.1514960">
        <ele>1142.4</ele>
        <time>2017-07-25T12:32:46Z</time>
      </trkpt>
      <trkpt lat="44.7832350" lon="7.1515970">
        <ele>1141.6</ele>
        <time>2017-07-25T12:32:47Z</time>
      </trkpt>
      <trkpt lat="44.7833020" lon="7.1517270">
        <ele>1140.6</ele>
        <time>2017-07-25T12:32:48Z</time>
      </trkpt>
      <trkpt lat="44.7833570" lon="7.1518630">
        <ele>1140.0</ele>
        <time>2017-07-25T12:32:49Z</time>
      </trkpt>
      <trkpt lat="44.7834000" lon="7.1519760">
        <ele>1139.0</ele>
        <time>2017-07-25T12:32:50Z</time>
      </trkpt>
      <trkpt lat="44.7834630" lon="7.1522140">
        <ele>1137.6</ele>
        <time>2017-07-25T12:32:52Z</time>
      </trkpt>
      <trkpt lat="44.7835340" lon="7.1524490">
        <ele>1135.8</ele>
        <time>2017-07-25T12:32:54Z</time>
      </trkpt>
      <trkpt lat="44.7835690" lon="7.1525360">
        <ele>1134.0</ele>
        <time>2017-07-25T12:32:55Z</time>
      </trkpt>
      <trkpt lat="44.7836050" lon="7.1526130">
        <ele>1132.8</ele>
        <time>2017-07-25T12:32:56Z</time>
      </trkpt>
      <trkpt lat="44.7836420" lon="7.1526760">
        <ele>1131.6</ele>
        <time>2017-07-25T12:32:57Z</time>
      </trkpt>
      <trkpt lat="44.7836860" lon="7.1527400">
        <ele>1130.6</ele>
        <time>2017-07-25T12:32:58Z</time>
      </trkpt>
      <trkpt lat="44.7837520" lon="7.1527650">
        <ele>1129.4</ele>
        <time>2017-07-25T12:32:59Z</time>
      </trkpt>
      <trkpt lat="44.7838150" lon="7.1528070">
        <ele>1128.4</ele>
        <time>2017-07-25T12:33:00Z</time>
      </trkpt>
      <trkpt lat="44.7839060" lon="7.1527920">
        <ele>1127.4</ele>
        <time>2017-07-25T12:33:01Z</time>
      </trkpt>
      <trkpt lat="44.7840300" lon="7.1527150">
        <ele>1126.6</ele>
        <time>2017-07-25T12:33:02Z</time>
      </trkpt>
      <trkpt lat="44.7842350" lon="7.1527320">
        <ele>1124.2</ele>
        <time>2017-07-25T12:33:04Z</time>
      </trkpt>
      <trkpt lat="44.7843210" lon="7.1527990">
        <ele>1123.0</ele>
        <time>2017-07-25T12:33:05Z</time>
      </trkpt>
      <trkpt lat="44.7844170" lon="7.1528540">
        <ele>1121.8</ele>
        <time>2017-07-25T12:33:06Z</time>
      </trkpt>
      <trkpt lat="44.7844910" lon="7.1529470">
        <ele>1120.4</ele>
        <time>2017-07-25T12:33:07Z</time>
      </trkpt>
      <trkpt lat="44.7845790" lon="7.1529980">
        <ele>1119.6</ele>
        <time>2017-07-25T12:33:08Z</time>
      </trkpt>
      <trkpt lat="44.7846530" lon="7.1530110">
        <ele>1118.8</ele>
        <time>2017-07-25T12:33:09Z</time>
      </trkpt>
      <trkpt lat="44.7847350" lon="7.1530860">
        <ele>1116.6</ele>
        <time>2017-07-25T12:33:11Z</time>
      </trkpt>
      <trkpt lat="44.7847700" lon="7.1531060">
        <ele>1115.4</ele>
        <time>2017-07-25T12:33:12Z</time>
      </trkpt>
      <trkpt lat="44.7848620" lon="7.1529770">
        <ele>1113.4</ele>
        <time>2017-07-25T12:33:14Z</time>
      </trkpt>
      <trkpt lat="44.7849490" lon="7.1527670">
        <ele>1111.6</ele>
        <time>2017-07-25T12:33:16Z</time>
      </trkpt>
      <trkpt lat="44.7849830" lon="7.1526630">
        <ele>1110.8</ele>
        <time>2017-07-25T12:33:17Z</time>
      </trkpt>
      <trkpt lat="44.7850070" lon="7.1525660">
        <ele>1110.2</ele>
        <time>2017-07-25T12:33:18Z</time>
      </trkpt>
      <trkpt lat="44.7850240" lon="7.1524650">
        <ele>1108.4</ele>
        <time>2017-07-25T12:33:19Z</time>
      </trkpt>
      <trkpt lat="44.7850330" lon="7.1523640">
        <ele>1106.8</ele>
        <time>2017-07-25T12:33:20Z</time>
      </trkpt>
      <trkpt lat="44.7850320" lon="7.1522590">
        <ele>1105.6</ele>
        <time>2017-07-25T12:33:21Z</time>
      </trkpt>
      <trkpt lat="44.7850290" lon="7.1521510">
        <ele>1104.4</ele>
        <time>2017-07-25T12:33:22Z</time>
      </trkpt>
      <trkpt lat="44.7850070" lon="7.1520370">
        <ele>1103.4</ele>
        <time>2017-07-25T12:33:23Z</time>
      </trkpt>
      <trkpt lat="44.7849680" lon="7.1519340">
        <ele>1102.0</ele>
        <time>2017-07-25T12:33:24Z</time>
      </trkpt>
      <trkpt lat="44.7849090" lon="7.1518410">
        <ele>1100.6</ele>
        <time>2017-07-25T12:33:25Z</time>
      </trkpt>
      <trkpt lat="44.7848390" lon="7.1517600">
        <ele>1099.0</ele>
        <time>2017-07-25T12:33:26Z</time>
      </trkpt>
      <trkpt lat="44.7847760" lon="7.1516840">
        <ele>1097.8</ele>
        <time>2017-07-25T12:33:27Z</time>
      </trkpt>
      <trkpt lat="44.7847000" lon="7.1515740">
        <ele>1096.4</ele>
        <time>2017-07-25T12:33:28Z</time>
      </trkpt>
      <trkpt lat="44.7846380" lon="7.1515220">
        <ele>1095.0</ele>
        <time>2017-07-25T12:33:29Z</time>
      </trkpt>
      <trkpt lat="44.7845810" lon="7.1514670">
        <ele>1093.8</ele>
        <time>2017-07-25T12:33:30Z</time>
      </trkpt>
      <trkpt lat="44.7845610" lon="7.1514060">
        <ele>1092.8</ele>
        <time>2017-07-25T12:33:31Z</time>
      </trkpt>
      <trkpt lat="44.7845460" lon="7.1513410">
        <ele>1091.6</ele>
        <time>2017-07-25T12:33:32Z</time>
      </trkpt>
      <trkpt lat="44.7845340" lon="7.1512830">
        <ele>1090.2</ele>
        <time>2017-07-25T12:33:33Z</time>
      </trkpt>
      <trkpt lat="44.7845230" lon="7.1512320">
        <ele>1089.2</ele>
        <time>2017-07-25T12:33:34Z</time>
      </trkpt>
      <trkpt lat="44.7845030" lon="7.1511340">
        <ele>1087.6</ele>
        <time>2017-07-25T12:33:36Z</time>
      </trkpt>
      <trkpt lat="44.7845320" lon="7.1510900">
        <ele>1086.8</ele>
        <time>2017-07-25T12:33:37Z</time>
      </trkpt>
      <trkpt lat="44.7845830" lon="7.1510430">
        <ele>1086.0</ele>
        <time>2017-07-25T12:33:38Z</time>
      </trkpt>
      <trkpt lat="44.7846270" lon="7.1510100">
        <ele>1084.2</ele>
        <time>2017-07-25T12:33:40Z</time>
      </trkpt>
      <trkpt lat="44.7846610" lon="7.1510290">
        <ele>1084.0</ele>
        <time>2017-07-25T12:33:41Z</time>
      </trkpt>
      <trkpt lat="44.7846980" lon="7.1510770">
        <ele>1083.0</ele>
        <time>2017-07-25T12:33:42Z</time>
      </trkpt>
      <trkpt lat="44.7847490" lon="7.1511440">
        <ele>1081.2</ele>
        <time>2017-07-25T12:33:43Z</time>
      </trkpt>
      <trkpt lat="44.7848130" lon="7.1512020">
        <ele>1080.6</ele>
        <time>2017-07-25T12:33:44Z</time>
      </trkpt>
      <trkpt lat="44.7848840" lon="7.1512640">
        <ele>1080.0</ele>
        <time>2017-07-25T12:33:45Z</time>
      </trkpt>
      <trkpt lat="44.7851470" lon="7.1515700">
        <ele>1078.6</ele>
        <time>2017-07-25T12:33:47Z</time>
      </trkpt>
      <trkpt lat="44.7852850" lon="7.1517420">
        <ele>1077.8</ele>
        <time>2017-07-25T12:33:48Z</time>
      </trkpt>
      <trkpt lat="44.7853450" lon="7.1518410">
        <ele>1077.0</ele>
        <time>2017-07-25T12:33:49Z</time>
      </trkpt>
      <trkpt lat="44.7853990" lon="7.1519680">
        <ele>1075.6</ele>
        <time>2017-07-25T12:33:50Z</time>
      </trkpt>
      <trkpt lat="44.7855020" lon="7.1521960">
        <ele>1073.8</ele>
        <time>2017-07-25T12:33:52Z</time>
      </trkpt>
      <trkpt lat="44.7855580" lon="7.1523090">
        <ele>1072.8</ele>
        <time>2017-07-25T12:33:53Z</time>
      </trkpt>
      <trkpt lat="44.7856720" lon="7.1525260">
        <ele>1070.6</ele>
        <time>2017-07-25T12:33:55Z</time>
      </trkpt>
      <trkpt lat="44.7857630" lon="7.1525530">
        <ele>1069.4</ele>
        <time>2017-07-25T12:33:56Z</time>
      </trkpt>
      <trkpt lat="44.7858590" lon="7.1525290">
        <ele>1068.0</ele>
        <time>2017-07-25T12:33:57Z</time>
      </trkpt>
      <trkpt lat="44.7860840" lon="7.1524350">
        <ele>1065.6</ele>
        <time>2017-07-25T12:33:59Z</time>
      </trkpt>
      <trkpt lat="44.7861890" lon="7.1523440">
        <ele>1064.2</ele>
        <time>2017-07-25T12:34:00Z</time>
      </trkpt>
      <trkpt lat="44.7862840" lon="7.1522640">
        <ele>1063.2</ele>
        <time>2017-07-25T12:34:01Z</time>
      </trkpt>
      <trkpt lat="44.7865080" lon="7.1521290">
        <ele>1061.2</ele>
        <time>2017-07-25T12:34:03Z</time>
      </trkpt>
      <trkpt lat="44.7865960" lon="7.1521000">
        <ele>1059.8</ele>
        <time>2017-07-25T12:34:04Z</time>
      </trkpt>
      <trkpt lat="44.7866630" lon="7.1520820">
        <ele>1058.4</ele>
        <time>2017-07-25T12:34:05Z</time>
      </trkpt>
      <trkpt lat="44.7867390" lon="7.1520800">
        <ele>1057.4</ele>
        <time>2017-07-25T12:34:06Z</time>
      </trkpt>
      <trkpt lat="44.7868000" lon="7.1521090">
        <ele>1055.4</ele>
        <time>2017-07-25T12:34:07Z</time>
      </trkpt>
      <trkpt lat="44.7868910" lon="7.1522020">
        <ele>1054.2</ele>
        <time>2017-07-25T12:34:08Z</time>
      </trkpt>
      <trkpt lat="44.7869550" lon="7.1522990">
        <ele>1053.2</ele>
        <time>2017-07-25T12:34:09Z</time>
      </trkpt>
      <trkpt lat="44.7870050" lon="7.1524140">
        <ele>1052.4</ele>
        <time>2017-07-25T12:34:10Z</time>
      </trkpt>
      <trkpt lat="44.7870750" lon="7.1524910">
        <ele>1051.6</ele>
        <time>2017-07-25T12:34:11Z</time>
      </trkpt>
      <trkpt lat="44.7871710" lon="7.1526800">
        <ele>1050.0</ele>
        <time>2017-07-25T12:34:13Z</time>
      </trkpt>
      <trkpt lat="44.7873070" lon="7.1528960">
        <ele>1048.4</ele>
        <time>2017-07-25T12:34:15Z</time>
      </trkpt>
      <trkpt lat="44.7873900" lon="7.1531290">
        <ele>1047.0</ele>
        <time>2017-07-25T12:34:17Z</time>
      </trkpt>
      <trkpt lat="44.7875400" lon="7.1534690">
        <ele>1045.4</ele>
        <time>2017-07-25T12:34:20Z</time>
      </trkpt>
      <trkpt lat="44.7876230" lon="7.1536060">
        <ele>1043.8</ele>
        <time>2017-07-25T12:34:22Z</time>
      </trkpt>
      <trkpt lat="44.7877290" lon="7.1537330">
        <ele>1042.0</ele>
        <time>2017-07-25T12:34:24Z</time>
      </trkpt>
      <trkpt lat="44.7877980" lon="7.1537710">
        <ele>1041.2</ele>
        <time>2017-07-25T12:34:25Z</time>
      </trkpt>
      <trkpt lat="44.7878950" lon="7.1537570">
        <ele>1040.0</ele>
        <time>2017-07-25T12:34:26Z</time>
      </trkpt>
      <trkpt lat="44.7880810" lon="7.1537310">
        <ele>1038.0</ele>
        <time>2017-07-25T12:34:28Z</time>
      </trkpt>
      <trkpt lat="44.7881750" lon="7.1537440">
        <ele>1037.2</ele>
        <time>2017-07-25T12:34:29Z</time>
      </trkpt>
      <trkpt lat="44.7882590" lon="7.1537630">
        <ele>1036.0</ele>
        <time>2017-07-25T12:34:30Z</time>
      </trkpt>
      <trkpt lat="44.7883350" lon="7.1537970">
        <ele>1033.4</ele>
        <time>2017-07-25T12:34:31Z</time>
      </trkpt>
      <trkpt lat="44.7884750" lon="7.1538520">
        <ele>1031.6</ele>
        <time>2017-07-25T12:34:33Z</time>
      </trkpt>
      <trkpt lat="44.7885760" lon="7.1537630">
        <ele>1030.8</ele>
        <time>2017-07-25T12:34:34Z</time>
      </trkpt>
      <trkpt lat="44.7886650" lon="7.1536700">
        <ele>1029.8</ele>
        <time>2017-07-25T12:34:35Z</time>
      </trkpt>
      <trkpt lat="44.7887480" lon="7.1536020">
        <ele>1028.6</ele>
        <time>2017-07-25T12:34:36Z</time>
      </trkpt>
      <trkpt lat="44.7888060" lon="7.1535460">
        <ele>1027.4</ele>
        <time>2017-07-25T12:34:37Z</time>
      </trkpt>
      <trkpt lat="44.7888430" lon="7.1535050">
        <ele>1026.2</ele>
        <time>2017-07-25T12:34:38Z</time>
      </trkpt>
      <trkpt lat="44.7888600" lon="7.1534790">
        <ele>1025.6</ele>
        <time>2017-07-25T12:34:39Z</time>
      </trkpt>
      <trkpt lat="44.7888640" lon="7.1534600">
        <ele>1024.6</ele>
        <time>2017-07-25T12:34:40Z</time>
      </trkpt>
      <trkpt lat="44.7888370" lon="7.1534130">
        <ele>1022.2</ele>
        <time>2017-07-25T12:34:42Z</time>
      </trkpt>
      <trkpt lat="44.7887960" lon="7.1533760">
        <ele>1021.0</ele>
        <time>2017-07-25T12:34:43Z</time>
      </trkpt>
      <trkpt lat="44.7886880" lon="7.1532910">
        <ele>1019.2</ele>
        <time>2017-07-25T12:34:44Z</time>
      </trkpt>
      <trkpt lat="44.7886050" lon="7.1532430">
        <ele>1017.8</ele>
        <time>2017-07-25T12:34:45Z</time>
      </trkpt>
      <trkpt lat="44.7885100" lon="7.1532150">
        <ele>1016.6</ele>
        <time>2017-07-25T12:34:46Z</time>
      </trkpt>
      <trkpt lat="44.7884160" lon="7.1531990">
        <ele>1016.0</ele>
        <time>2017-07-25T12:34:47Z</time>
      </trkpt>
      <trkpt lat="44.7883240" lon="7.1531930">
        <ele>1014.8</ele>
        <time>2017-07-25T12:34:48Z</time>
      </trkpt>
      <trkpt lat="44.7881800" lon="7.1531160">
        <ele>1013.6</ele>
        <time>2017-07-25T12:34:49Z</time>
      </trkpt>
      <trkpt lat="44.7880450" lon="7.1530530">
        <ele>1012.2</ele>
        <time>2017-07-25T12:34:50Z</time>
      </trkpt>
      <trkpt lat="44.7879420" lon="7.1529650">
        <ele>1011.2</ele>
        <time>2017-07-25T12:34:51Z</time>
      </trkpt>
      <trkpt lat="44.7878490" lon="7.1528730">
        <ele>1010.2</ele>
        <time>2017-07-25T12:34:52Z</time>
      </trkpt>
      <trkpt lat="44.7877730" lon="7.1527890">
        <ele>1009.4</ele>
        <time>2017-07-25T12:34:53Z</time>
      </trkpt>
      <trkpt lat="44.7877170" lon="7.1525760">
        <ele>1007.2</ele>
        <time>2017-07-25T12:34:55Z</time>
      </trkpt>
      <trkpt lat="44.7877510" lon="7.1524280">
        <ele>1006.2</ele>
        <time>2017-07-25T12:34:57Z</time>
      </trkpt>
      <trkpt lat="44.7878040" lon="7.1523590">
        <ele>1004.8</ele>
        <time>2017-07-25T12:34:59Z</time>
      </trkpt>
      <trkpt lat="44.7878980" lon="7.1522750">
        <ele>1003.8</ele>
        <time>2017-07-25T12:35:01Z</time>
      </trkpt>
      <trkpt lat="44.7879520" lon="7.1522120">
        <ele>1003.2</ele>
        <time>2017-07-25T12:35:02Z</time>
      </trkpt>
      <trkpt lat="44.7880040" lon="7.1521570">
        <ele>1002.2</ele>
        <time>2017-07-25T12:35:03Z</time>
      </trkpt>
      <trkpt lat="44.7880940" lon="7.1520480">
        <ele>1000.4</ele>
        <time>2017-07-25T12:35:05Z</time>
      </trkpt>
      <trkpt lat="44.7881120" lon="7.1519670">
        <ele>999.6</ele>
        <time>2017-07-25T12:35:06Z</time>
      </trkpt>
      <trkpt lat="44.7881090" lon="7.1518980">
        <ele>998.8</ele>
        <time>2017-07-25T12:35:07Z</time>
      </trkpt>
      <trkpt lat="44.7880840" lon="7.1518520">
        <ele>997.8</ele>
        <time>2017-07-25T12:35:08Z</time>
      </trkpt>
      <trkpt lat="44.7880380" lon="7.1518340">
        <ele>996.8</ele>
        <time>2017-07-25T12:35:09Z</time>
      </trkpt>
      <trkpt lat="44.7879950" lon="7.1518250">
        <ele>996.0</ele>
        <time>2017-07-25T12:35:10Z</time>
      </trkpt>
      <trkpt lat="44.7878770" lon="7.1517930">
        <ele>994.8</ele>
        <time>2017-07-25T12:35:12Z</time>
      </trkpt>
      <trkpt lat="44.7878280" lon="7.1517730">
        <ele>994.0</ele>
        <time>2017-07-25T12:35:13Z</time>
      </trkpt>
      <trkpt lat="44.7877790" lon="7.1517090">
        <ele>993.0</ele>
        <time>2017-07-25T12:35:14Z</time>
      </trkpt>
      <trkpt lat="44.7876850" lon="7.1515990">
        <ele>991.4</ele>
        <time>2017-07-25T12:35:16Z</time>
      </trkpt>
      <trkpt lat="44.7876250" lon="7.1513740">
        <ele>990.2</ele>
        <time>2017-07-25T12:35:18Z</time>
      </trkpt>
      <trkpt lat="44.7875930" lon="7.1512630">
        <ele>988.6</ele>
        <time>2017-07-25T12:35:19Z</time>
      </trkpt>
      <trkpt lat="44.7875540" lon="7.1511570">
        <ele>987.6</ele>
        <time>2017-07-25T12:35:20Z</time>
      </trkpt>
      <trkpt lat="44.7874710" lon="7.1509590">
        <ele>986.4</ele>
        <time>2017-07-25T12:35:22Z</time>
      </trkpt>
      <trkpt lat="44.7874050" lon="7.1507450">
        <ele>985.0</ele>
        <time>2017-07-25T12:35:24Z</time>
      </trkpt>
      <trkpt lat="44.7873690" lon="7.1506380">
        <ele>984.4</ele>
        <time>2017-07-25T12:35:25Z</time>
      </trkpt>
      <trkpt lat="44.7873400" lon="7.1505070">
        <ele>984.0</ele>
        <time>2017-07-25T12:35:26Z</time>
      </trkpt>
      <trkpt lat="44.7872810" lon="7.1502730">
        <ele>982.2</ele>
        <time>2017-07-25T12:35:28Z</time>
      </trkpt>
      <trkpt lat="44.7872480" lon="7.1501630">
        <ele>981.0</ele>
        <time>2017-07-25T12:35:29Z</time>
      </trkpt>
      <trkpt lat="44.7872190" lon="7.1500460">
        <ele>980.2</ele>
        <time>2017-07-25T12:35:30Z</time>
      </trkpt>
      <trkpt lat="44.7872070" lon="7.1499490">
        <ele>979.2</ele>
        <time>2017-07-25T12:35:31Z</time>
      </trkpt>
      <trkpt lat="44.7872030" lon="7.1498800">
        <ele>978.6</ele>
        <time>2017-07-25T12:35:32Z</time>
      </trkpt>
      <trkpt lat="44.7872040" lon="7.1498360">
        <ele>978.0</ele>
        <time>2017-07-25T12:35:33Z</time>
      </trkpt>
      <trkpt lat="44.7872200" lon="7.1497940">
        <ele>976.6</ele>
        <time>2017-07-25T12:35:35Z</time>
      </trkpt>
      <trkpt lat="44.7872280" lon="7.1498030">
        <ele>975.6</ele>
        <time>2017-07-25T12:35:36Z</time>
      </trkpt>
      <trkpt lat="44.7872390" lon="7.1497980">
        <ele>975.0</ele>
        <time>2017-07-25T12:35:37Z</time>
      </trkpt>
      <trkpt lat="44.7872730" lon="7.1498260">
        <ele>974.0</ele>
        <time>2017-07-25T12:35:39Z</time>
      </trkpt>
      <trkpt lat="44.7873500" lon="7.1499230">
        <ele>973.4</ele>
        <time>2017-07-25T12:35:40Z</time>
      </trkpt>
      <trkpt lat="44.7874690" lon="7.1500860">
        <ele>972.4</ele>
        <time>2017-07-25T12:35:41Z</time>
      </trkpt>
      <trkpt lat="44.7875870" lon="7.1502500">
        <ele>971.4</ele>
        <time>2017-07-25T12:35:42Z</time>
      </trkpt>
      <trkpt lat="44.7876710" lon="7.1503660">
        <ele>969.8</ele>
        <time>2017-07-25T12:35:43Z</time>
      </trkpt>
      <trkpt lat="44.7878610" lon="7.1505560">
        <ele>968.4</ele>
        <time>2017-07-25T12:35:45Z</time>
      </trkpt>
      <trkpt lat="44.7880180" lon="7.1506830">
        <ele>966.6</ele>
        <time>2017-07-25T12:35:47Z</time>
      </trkpt>
      <trkpt lat="44.7882080" lon="7.1507820">
        <ele>965.0</ele>
        <time>2017-07-25T12:35:49Z</time>
      </trkpt>
      <trkpt lat="44.7883160" lon="7.1508150">
        <ele>964.4</ele>
        <time>2017-07-25T12:35:50Z</time>
      </trkpt>
      <trkpt lat="44.7884220" lon="7.1508570">
        <ele>963.4</ele>
        <time>2017-07-25T12:35:51Z</time>
      </trkpt>
      <trkpt lat="44.7885320" lon="7.1508960">
        <ele>962.0</ele>
        <time>2017-07-25T12:35:52Z</time>
      </trkpt>
      <trkpt lat="44.7886330" lon="7.1509360">
        <ele>960.8</ele>
        <time>2017-07-25T12:35:53Z</time>
      </trkpt>
      <trkpt lat="44.7887140" lon="7.1509850">
        <ele>959.6</ele>
        <time>2017-07-25T12:35:54Z</time>
      </trkpt>
      <trkpt lat="44.7888030" lon="7.1510480">
        <ele>958.8</ele>
        <time>2017-07-25T12:35:55Z</time>
      </trkpt>
      <trkpt lat="44.7888900" lon="7.1511080">
        <ele>957.6</ele>
        <time>2017-07-25T12:35:56Z</time>
      </trkpt>
      <trkpt lat="44.7889810" lon="7.1511320">
        <ele>956.6</ele>
        <time>2017-07-25T12:35:57Z</time>
      </trkpt>
      <trkpt lat="44.7890640" lon="7.1511610">
        <ele>955.6</ele>
        <time>2017-07-25T12:35:58Z</time>
      </trkpt>
      <trkpt lat="44.7891410" lon="7.1511630">
        <ele>954.6</ele>
        <time>2017-07-25T12:35:59Z</time>
      </trkpt>
      <trkpt lat="44.7892140" lon="7.1511790">
        <ele>954.0</ele>
        <time>2017-07-25T12:36:00Z</time>
      </trkpt>
      <trkpt lat="44.7893460" lon="7.1512120">
        <ele>952.4</ele>
        <time>2017-07-25T12:36:02Z</time>
      </trkpt>
      <trkpt lat="44.7894520" lon="7.1512460">
        <ele>950.6</ele>
        <time>2017-07-25T12:36:04Z</time>
      </trkpt>
      <trkpt lat="44.7894980" lon="7.1512790">
        <ele>949.8</ele>
        <time>2017-07-25T12:36:05Z</time>
      </trkpt>
      <trkpt lat="44.7895450" lon="7.1512750">
        <ele>949.2</ele>
        <time>2017-07-25T12:36:06Z</time>
      </trkpt>
      <trkpt lat="44.7896000" lon="7.1512540">
        <ele>947.4</ele>
        <time>2017-07-25T12:36:07Z</time>
      </trkpt>
      <trkpt lat="44.7896410" lon="7.1512130">
        <ele>946.4</ele>
        <time>2017-07-25T12:36:08Z</time>
      </trkpt>
      <trkpt lat="44.7896530" lon="7.1511320">
        <ele>944.4</ele>
        <time>2017-07-25T12:36:10Z</time>
      </trkpt>
      <trkpt lat="44.7895910" lon="7.1511270">
        <ele>942.4</ele>
        <time>2017-07-25T12:36:12Z</time>
      </trkpt>
      <trkpt lat="44.7894390" lon="7.1510420">
        <ele>940.2</ele>
        <time>2017-07-25T12:36:14Z</time>
      </trkpt>
      <trkpt lat="44.7893560" lon="7.1510360">
        <ele>939.4</ele>
        <time>2017-07-25T12:36:15Z</time>
      </trkpt>
      <trkpt lat="44.7892780" lon="7.1510240">
        <ele>938.4</ele>
        <time>2017-07-25T12:36:16Z</time>
      </trkpt>
      <trkpt lat="44.7891240" lon="7.1509470">
        <ele>936.4</ele>
        <time>2017-07-25T12:36:18Z</time>
      </trkpt>
      <trkpt lat="44.7890530" lon="7.1508870">
        <ele>935.6</ele>
        <time>2017-07-25T12:36:19Z</time>
      </trkpt>
      <trkpt lat="44.7889820" lon="7.1508210">
        <ele>934.6</ele>
        <time>2017-07-25T12:36:20Z</time>
      </trkpt>
      <trkpt lat="44.7889090" lon="7.1507590">
        <ele>933.8</ele>
        <time>2017-07-25T12:36:21Z</time>
      </trkpt>
      <trkpt lat="44.7888310" lon="7.1506930">
        <ele>933.0</ele>
        <time>2017-07-25T12:36:22Z</time>
      </trkpt>
      <trkpt lat="44.7886810" lon="7.1505540">
        <ele>931.2</ele>
        <time>2017-07-25T12:36:24Z</time>
      </trkpt>
      <trkpt lat="44.7885280" lon="7.1504010">
        <ele>930.0</ele>
        <time>2017-07-25T12:36:26Z</time>
      </trkpt>
      <trkpt lat="44.7883890" lon="7.1502430">
        <ele>928.4</ele>
        <time>2017-07-25T12:36:28Z</time>
      </trkpt>
      <trkpt lat="44.7883190" lon="7.1501600">
        <ele>927.8</ele>
        <time>2017-07-25T12:36:29Z</time>
      </trkpt>
      <trkpt lat="44.7882530" lon="7.1500850">
        <ele>926.8</ele>
        <time>2017-07-25T12:36:30Z</time>
      </trkpt>
      <trkpt lat="44.7881960" lon="7.1500000">
        <ele>925.2</ele>
        <time>2017-07-25T12:36:31Z</time>
      </trkpt>
      <trkpt lat="44.7881630" lon="7.1499120">
        <ele>924.8</ele>
        <time>2017-07-25T12:36:32Z</time>
      </trkpt>
      <trkpt lat="44.7881400" lon="7.1498060">
        <ele>924.4</ele>
        <time>2017-07-25T12:36:33Z</time>
      </trkpt>
      <trkpt lat="44.7881050" lon="7.1497190">
        <ele>924.0</ele>
        <time>2017-07-25T12:36:34Z</time>
      </trkpt>
      <trkpt lat="44.7880230" lon="7.1495010">
        <ele>922.8</ele>
        <time>2017-07-25T12:36:36Z</time>
      </trkpt>
      <trkpt lat="44.7879100" lon="7.1493110">
        <ele>921.4</ele>
        <time>2017-07-25T12:36:38Z</time>
      </trkpt>
      <trkpt lat="44.7878400" lon="7.1492540">
        <ele>920.8</ele>
        <time>2017-07-25T12:36:39Z</time>
      </trkpt>
      <trkpt lat="44.7877850" lon="7.1491720">
        <ele>920.4</ele>
        <time>2017-07-25T12:36:40Z</time>
      </trkpt>
      <trkpt lat="44.7877450" lon="7.1490900">
        <ele>919.8</ele>
        <time>2017-07-25T12:36:41Z</time>
      </trkpt>
      <trkpt lat="44.7877340" lon="7.1490070">
        <ele>919.2</ele>
        <time>2017-07-25T12:36:42Z</time>
      </trkpt>
      <trkpt lat="44.7877380" lon="7.1489580">
        <ele>918.6</ele>
        <time>2017-07-25T12:36:43Z</time>
      </trkpt>
      <trkpt lat="44.7878090" lon="7.1488940">
        <ele>918.0</ele>
        <time>2017-07-25T12:36:45Z</time>
      </trkpt>
      <trkpt lat="44.7878410" lon="7.1488600">
        <ele>917.6</ele>
        <time>2017-07-25T12:36:46Z</time>
      </trkpt>
      <trkpt lat="44.7880020" lon="7.1487820">
        <ele>917.2</ele>
        <time>2017-07-25T12:36:51Z</time>
      </trkpt>
      <trkpt lat="44.7880280" lon="7.1488320">
        <ele>917.2</ele>
        <time>2017-07-25T12:36:52Z</time>
      </trkpt>
      <trkpt lat="44.7882530" lon="7.1491770">
        <ele>917.8</ele>
        <time>2017-07-25T12:36:55Z</time>
      </trkpt>
      <trkpt lat="44.7883230" lon="7.1492770">
        <ele>918.2</ele>
        <time>2017-07-25T12:36:56Z</time>
      </trkpt>
      <trkpt lat="44.7886050" lon="7.1496450">
        <ele>919.2</ele>
        <time>2017-07-25T12:37:01Z</time>
      </trkpt>
      <trkpt lat="44.7887360" lon="7.1498020">
        <ele>919.6</ele>
        <time>2017-07-25T12:37:03Z</time>
      </trkpt>
      <trkpt lat="44.7891100" lon="7.1502820">
        <ele>918.8</ele>
        <time>2017-07-25T12:37:08Z</time>
      </trkpt>
      <trkpt lat="44.7892710" lon="7.1504110">
        <ele>918.6</ele>
        <time>2017-07-25T12:37:10Z</time>
      </trkpt>
      <trkpt lat="44.7894060" lon="7.1504620">
        <ele>918.2</ele>
        <time>2017-07-25T12:37:12Z</time>
      </trkpt>
      <trkpt lat="44.7894790" lon="7.1505140">
        <ele>917.8</ele>
        <time>2017-07-25T12:37:13Z</time>
      </trkpt>
      <trkpt lat="44.7895330" lon="7.1505430">
        <ele>916.8</ele>
        <time>2017-07-25T12:37:15Z</time>
      </trkpt>
      <trkpt lat="44.7895870" lon="7.1505730">
        <ele>916.2</ele>
        <time>2017-07-25T12:37:16Z</time>
      </trkpt>
      <trkpt lat="44.7898030" lon="7.1506920">
        <ele>915.2</ele>
        <time>2017-07-25T12:37:18Z</time>
      </trkpt>
      <trkpt lat="44.7898630" lon="7.1507180">
        <ele>913.8</ele>
        <time>2017-07-25T12:37:19Z</time>
      </trkpt>
      <trkpt lat="44.7899190" lon="7.1507610">
        <ele>913.0</ele>
        <time>2017-07-25T12:37:20Z</time>
      </trkpt>
      <trkpt lat="44.7899690" lon="7.1508180">
        <ele>912.4</ele>
        <time>2017-07-25T12:37:21Z</time>
      </trkpt>
      <trkpt lat="44.7900920" lon="7.1509210">
        <ele>910.6</ele>
        <time>2017-07-25T12:37:23Z</time>
      </trkpt>
      <trkpt lat="44.7901680" lon="7.1509820">
        <ele>909.4</ele>
        <time>2017-07-25T12:37:24Z</time>
      </trkpt>
      <trkpt lat="44.7903070" lon="7.1511220">
        <ele>907.8</ele>
        <time>2017-07-25T12:37:26Z</time>
      </trkpt>
      <trkpt lat="44.7904630" lon="7.1512730">
        <ele>906.0</ele>
        <time>2017-07-25T12:37:28Z</time>
      </trkpt>
      <trkpt lat="44.7905270" lon="7.1513630">
        <ele>905.2</ele>
        <time>2017-07-25T12:37:29Z</time>
      </trkpt>
      <trkpt lat="44.7905910" lon="7.1514640">
        <ele>904.0</ele>
        <time>2017-07-25T12:37:30Z</time>
      </trkpt>
      <trkpt lat="44.7906600" lon="7.1515710">
        <ele>903.0</ele>
        <time>2017-07-25T12:37:31Z</time>
      </trkpt>
      <trkpt lat="44.7907280" lon="7.1516780">
        <ele>901.8</ele>
        <time>2017-07-25T12:37:32Z</time>
      </trkpt>
      <trkpt lat="44.7907900" lon="7.1517760">
        <ele>900.6</ele>
        <time>2017-07-25T12:37:33Z</time>
      </trkpt>
      <trkpt lat="44.7908530" lon="7.1518730">
        <ele>899.4</ele>
        <time>2017-07-25T12:37:34Z</time>
      </trkpt>
      <trkpt lat="44.7909160" lon="7.1519520">
        <ele>898.0</ele>
        <time>2017-07-25T12:37:35Z</time>
      </trkpt>
      <trkpt lat="44.7909870" lon="7.1520090">
        <ele>897.0</ele>
        <time>2017-07-25T12:37:36Z</time>
      </trkpt>
      <trkpt lat="44.7910590" lon="7.1520430">
        <ele>896.0</ele>
        <time>2017-07-25T12:37:37Z</time>
      </trkpt>
      <trkpt lat="44.7911220" lon="7.1520680">
        <ele>895.0</ele>
        <time>2017-07-25T12:37:38Z</time>
      </trkpt>
      <trkpt lat="44.7911880" lon="7.1520900">
        <ele>893.8</ele>
        <time>2017-07-25T12:37:39Z</time>
      </trkpt>
      <trkpt lat="44.7912550" lon="7.1521080">
        <ele>893.0</ele>
        <time>2017-07-25T12:37:40Z</time>
      </trkpt>
      <trkpt lat="44.7913260" lon="7.1521270">
        <ele>891.8</ele>
        <time>2017-07-25T12:37:41Z</time>
      </trkpt>
      <trkpt lat="44.7914910" lon="7.1521590">
        <ele>889.2</ele>
        <time>2017-07-25T12:37:43Z</time>
      </trkpt>
      <trkpt lat="44.7915790" lon="7.1521680">
        <ele>888.2</ele>
        <time>2017-07-25T12:37:44Z</time>
      </trkpt>
      <trkpt lat="44.7917460" lon="7.1521640">
        <ele>886.4</ele>
        <time>2017-07-25T12:37:46Z</time>
      </trkpt>
      <trkpt lat="44.7919300" lon="7.1521220">
        <ele>884.8</ele>
        <time>2017-07-25T12:37:48Z</time>
      </trkpt>
      <trkpt lat="44.7920990" lon="7.1520790">
        <ele>883.4</ele>
        <time>2017-07-25T12:37:50Z</time>
      </trkpt>
      <trkpt lat="44.7922730" lon="7.1520100">
        <ele>882.0</ele>
        <time>2017-07-25T12:37:52Z</time>
      </trkpt>
      <trkpt lat="44.7924600" lon="7.1519020">
        <ele>880.2</ele>
        <time>2017-07-25T12:37:54Z</time>
      </trkpt>
      <trkpt lat="44.7926790" lon="7.1517880">
        <ele>879.0</ele>
        <time>2017-07-25T12:37:56Z</time>
      </trkpt>
      <trkpt lat="44.7930540" lon="7.1516170">
        <ele>877.4</ele>
        <time>2017-07-25T12:37:59Z</time>
      </trkpt>
      <trkpt lat="44.7932520" lon="7.1514330">
        <ele>876.0</ele>
        <time>2017-07-25T12:38:01Z</time>
      </trkpt>
      <trkpt lat="44.7933560" lon="7.1513880">
        <ele>875.6</ele>
        <time>2017-07-25T12:38:02Z</time>
      </trkpt>
      <trkpt lat="44.7934290" lon="7.1513900">
        <ele>875.0</ele>
        <time>2017-07-25T12:38:03Z</time>
      </trkpt>
      <trkpt lat="44.7936820" lon="7.1513460">
        <ele>873.6</ele>
        <time>2017-07-25T12:38:06Z</time>
      </trkpt>
      <trkpt lat="44.7940130" lon="7.1513250">
        <ele>872.4</ele>
        <time>2017-07-25T12:38:10Z</time>
      </trkpt>
      <trkpt lat="44.7940960" lon="7.1513160">
        <ele>871.6</ele>
        <time>2017-07-25T12:38:11Z</time>
      </trkpt>
      <trkpt lat="44.7942040" lon="7.1511800">
        <ele>870.8</ele>
        <time>2017-07-25T12:38:12Z</time>
      </trkpt>
      <trkpt lat="44.7943710" lon="7.1509760">
        <ele>869.2</ele>
        <time>2017-07-25T12:38:14Z</time>
      </trkpt>
      <trkpt lat="44.7944980" lon="7.1508610">
        <ele>868.0</ele>
        <time>2017-07-25T12:38:16Z</time>
      </trkpt>
      <trkpt lat="44.7945610" lon="7.1508440">
        <ele>867.4</ele>
        <time>2017-07-25T12:38:17Z</time>
      </trkpt>
      <trkpt lat="44.7946210" lon="7.1508570">
        <ele>866.8</ele>
        <time>2017-07-25T12:38:18Z</time>
      </trkpt>
      <trkpt lat="44.7946830" lon="7.1508810">
        <ele>866.4</ele>
        <time>2017-07-25T12:38:19Z</time>
      </trkpt>
      <trkpt lat="44.7947310" lon="7.1509330">
        <ele>865.8</ele>
        <time>2017-07-25T12:38:20Z</time>
      </trkpt>
      <trkpt lat="44.7948050" lon="7.1509640">
        <ele>864.2</ele>
        <time>2017-07-25T12:38:22Z</time>
      </trkpt>
      <trkpt lat="44.7949110" lon="7.1510430">
        <ele>862.6</ele>
        <time>2017-07-25T12:38:24Z</time>
      </trkpt>
      <trkpt lat="44.7949660" lon="7.1510720">
        <ele>861.8</ele>
        <time>2017-07-25T12:38:25Z</time>
      </trkpt>
      <trkpt lat="44.7950270" lon="7.1510800">
        <ele>861.2</ele>
        <time>2017-07-25T12:38:26Z</time>
      </trkpt>
      <trkpt lat="44.7951650" lon="7.1510150">
        <ele>860.0</ele>
        <time>2017-07-25T12:38:28Z</time>
      </trkpt>
      <trkpt lat="44.7952340" lon="7.1509100">
        <ele>859.4</ele>
        <time>2017-07-25T12:38:29Z</time>
      </trkpt>
      <trkpt lat="44.7952820" lon="7.1508540">
        <ele>858.2</ele>
        <time>2017-07-25T12:38:30Z</time>
      </trkpt>
      <trkpt lat="44.7953290" lon="7.1507950">
        <ele>855.8</ele>
        <time>2017-07-25T12:38:31Z</time>
      </trkpt>
      <trkpt lat="44.7953820" lon="7.1507370">
        <ele>854.6</ele>
        <time>2017-07-25T12:38:32Z</time>
      </trkpt>
      <trkpt lat="44.7955230" lon="7.1505830">
        <ele>852.8</ele>
        <time>2017-07-25T12:38:34Z</time>
      </trkpt>
      <trkpt lat="44.7956070" lon="7.1504870">
        <ele>851.8</ele>
        <time>2017-07-25T12:38:35Z</time>
      </trkpt>
      <trkpt lat="44.7956930" lon="7.1503900">
        <ele>850.4</ele>
        <time>2017-07-25T12:38:36Z</time>
      </trkpt>
      <trkpt lat="44.7958570" lon="7.1502230">
        <ele>849.0</ele>
        <time>2017-07-25T12:38:38Z</time>
      </trkpt>
      <trkpt lat="44.7959460" lon="7.1501480">
        <ele>848.6</ele>
        <time>2017-07-25T12:38:39Z</time>
      </trkpt>
      <trkpt lat="44.7960340" lon="7.1500980">
        <ele>847.4</ele>
        <time>2017-07-25T12:38:40Z</time>
      </trkpt>
      <trkpt lat="44.7961770" lon="7.1501030">
        <ele>846.4</ele>
        <time>2017-07-25T12:38:41Z</time>
      </trkpt>
      <trkpt lat="44.7963120" lon="7.1500850">
        <ele>845.0</ele>
        <time>2017-07-25T12:38:42Z</time>
      </trkpt>
      <trkpt lat="44.7963870" lon="7.1500820">
        <ele>843.6</ele>
        <time>2017-07-25T12:38:43Z</time>
      </trkpt>
      <trkpt lat="44.7965570" lon="7.1500750">
        <ele>841.8</ele>
        <time>2017-07-25T12:38:45Z</time>
      </trkpt>
      <trkpt lat="44.7967090" lon="7.1500340">
        <ele>839.6</ele>
        <time>2017-07-25T12:38:47Z</time>
      </trkpt>
      <trkpt lat="44.7967480" lon="7.1499960">
        <ele>838.4</ele>
        <time>2017-07-25T12:38:48Z</time>
      </trkpt>
      <trkpt lat="44.7968360" lon="7.1498970">
        <ele>836.4</ele>
        <time>2017-07-25T12:38:50Z</time>
      </trkpt>
      <trkpt lat="44.7969200" lon="7.1497820">
        <ele>835.2</ele>
        <time>2017-07-25T12:38:51Z</time>
      </trkpt>
      <trkpt lat="44.7969800" lon="7.1497070">
        <ele>833.8</ele>
        <time>2017-07-25T12:38:52Z</time>
      </trkpt>
      <trkpt lat="44.7970400" lon="7.1495640">
        <ele>832.8</ele>
        <time>2017-07-25T12:38:53Z</time>
      </trkpt>
      <trkpt lat="44.7971590" lon="7.1493700">
        <ele>830.0</ele>
        <time>2017-07-25T12:38:55Z</time>
      </trkpt>
      <trkpt lat="44.7973150" lon="7.1492210">
        <ele>827.8</ele>
        <time>2017-07-25T12:38:57Z</time>
      </trkpt>
      <trkpt lat="44.7973990" lon="7.1491590">
        <ele>826.6</ele>
        <time>2017-07-25T12:38:58Z</time>
      </trkpt>
      <trkpt lat="44.7974820" lon="7.1490930">
        <ele>825.6</ele>
        <time>2017-07-25T12:38:59Z</time>
      </trkpt>
      <trkpt lat="44.7975650" lon="7.1490290">
        <ele>825.0</ele>
        <time>2017-07-25T12:39:00Z</time>
      </trkpt>
      <trkpt lat="44.7976700" lon="7.1488950">
        <ele>824.0</ele>
        <time>2017-07-25T12:39:01Z</time>
      </trkpt>
      <trkpt lat="44.7977650" lon="7.1487600">
        <ele>823.0</ele>
        <time>2017-07-25T12:39:02Z</time>
      </trkpt>
      <trkpt lat="44.7978580" lon="7.1486220">
        <ele>821.4</ele>
        <time>2017-07-25T12:39:03Z</time>
      </trkpt>
      <trkpt lat="44.7979540" lon="7.1484840">
        <ele>820.6</ele>
        <time>2017-07-25T12:39:04Z</time>
      </trkpt>
      <trkpt lat="44.7980460" lon="7.1483410">
        <ele>819.6</ele>
        <time>2017-07-25T12:39:05Z</time>
      </trkpt>
      <trkpt lat="44.7982190" lon="7.1480260">
        <ele>817.0</ele>
        <time>2017-07-25T12:39:07Z</time>
      </trkpt>
      <trkpt lat="44.7982990" lon="7.1478690">
        <ele>816.0</ele>
        <time>2017-07-25T12:39:08Z</time>
      </trkpt>
      <trkpt lat="44.7984880" lon="7.1476140">
        <ele>814.4</ele>
        <time>2017-07-25T12:39:10Z</time>
      </trkpt>
      <trkpt lat="44.7985610" lon="7.1475000">
        <ele>813.2</ele>
        <time>2017-07-25T12:39:11Z</time>
      </trkpt>
      <trkpt lat="44.7986300" lon="7.1473940">
        <ele>811.8</ele>
        <time>2017-07-25T12:39:12Z</time>
      </trkpt>
      <trkpt lat="44.7986910" lon="7.1473140">
        <ele>810.8</ele>
        <time>2017-07-25T12:39:13Z</time>
      </trkpt>
      <trkpt lat="44.7987450" lon="7.1472450">
        <ele>809.4</ele>
        <time>2017-07-25T12:39:14Z</time>
      </trkpt>
      <trkpt lat="44.7988060" lon="7.1471930">
        <ele>808.4</ele>
        <time>2017-07-25T12:39:15Z</time>
      </trkpt>
      <trkpt lat="44.7988660" lon="7.1471580">
        <ele>807.4</ele>
        <time>2017-07-25T12:39:16Z</time>
      </trkpt>
      <trkpt lat="44.7989750" lon="7.1471390">
        <ele>805.6</ele>
        <time>2017-07-25T12:39:18Z</time>
      </trkpt>
      <trkpt lat="44.7990260" lon="7.1471500">
        <ele>803.6</ele>
        <time>2017-07-25T12:39:19Z</time>
      </trkpt>
      <trkpt lat="44.7991290" lon="7.1472150">
        <ele>801.6</ele>
        <time>2017-07-25T12:39:21Z</time>
      </trkpt>
      <trkpt lat="44.7991740" lon="7.1472630">
        <ele>800.8</ele>
        <time>2017-07-25T12:39:22Z</time>
      </trkpt>
      <trkpt lat="44.7992070" lon="7.1473240">
        <ele>799.8</ele>
        <time>2017-07-25T12:39:23Z</time>
      </trkpt>
      <trkpt lat="44.7992440" lon="7.1474750">
        <ele>798.0</ele>
        <time>2017-07-25T12:39:25Z</time>
      </trkpt>
      <trkpt lat="44.7992310" lon="7.1476750">
        <ele>796.8</ele>
        <time>2017-07-25T12:39:26Z</time>
      </trkpt>
      <trkpt lat="44.7992480" lon="7.1479210">
        <ele>794.8</ele>
        <time>2017-07-25T12:39:28Z</time>
      </trkpt>
      <trkpt lat="44.7993140" lon="7.1480660">
        <ele>793.0</ele>
        <time>2017-07-25T12:39:30Z</time>
      </trkpt>
      <trkpt lat="44.7993550" lon="7.1481530">
        <ele>791.2</ele>
        <time>2017-07-25T12:39:32Z</time>
      </trkpt>
      <trkpt lat="44.7993520" lon="7.1481730">
        <ele>790.6</ele>
        <time>2017-07-25T12:39:33Z</time>
      </trkpt>
      <trkpt lat="44.7993870" lon="7.1481320">
        <ele>790.0</ele>
        <time>2017-07-25T12:39:34Z</time>
      </trkpt>
      <trkpt lat="44.7994840" lon="7.1480140">
        <ele>788.8</ele>
        <time>2017-07-25T12:39:36Z</time>
      </trkpt>
      <trkpt lat="44.7995800" lon="7.1478890">
        <ele>787.2</ele>
        <time>2017-07-25T12:39:38Z</time>
      </trkpt>
      <trkpt lat="44.7996670" lon="7.1477770">
        <ele>785.8</ele>
        <time>2017-07-25T12:39:40Z</time>
      </trkpt>
      <trkpt lat="44.7997110" lon="7.1476820">
        <ele>784.6</ele>
        <time>2017-07-25T12:39:42Z</time>
      </trkpt>
      <trkpt lat="44.7997230" lon="7.1476130">
        <ele>783.0</ele>
        <time>2017-07-25T12:39:43Z</time>
      </trkpt>
      <trkpt lat="44.7997050" lon="7.1474230">
        <ele>781.6</ele>
        <time>2017-07-25T12:39:45Z</time>
      </trkpt>
      <trkpt lat="44.7996830" lon="7.1473140">
        <ele>780.8</ele>
        <time>2017-07-25T12:39:46Z</time>
      </trkpt>
      <trkpt lat="44.7996740" lon="7.1472560">
        <ele>780.2</ele>
        <time>2017-07-25T12:39:47Z</time>
      </trkpt>
      <trkpt lat="44.7996630" lon="7.1472600">
        <ele>778.6</ele>
        <time>2017-07-25T12:39:49Z</time>
      </trkpt>
      <trkpt lat="44.7996780" lon="7.1473580">
        <ele>777.4</ele>
        <time>2017-07-25T12:39:51Z</time>
      </trkpt>
      <trkpt lat="44.7997030" lon="7.1474880">
        <ele>776.0</ele>
        <time>2017-07-25T12:39:53Z</time>
      </trkpt>
      <trkpt lat="44.7997310" lon="7.1476700">
        <ele>774.8</ele>
        <time>2017-07-25T12:39:55Z</time>
      </trkpt>
      <trkpt lat="44.7997500" lon="7.1478780">
        <ele>773.4</ele>
        <time>2017-07-25T12:39:57Z</time>
      </trkpt>
      <trkpt lat="44.7997680" lon="7.1481180">
        <ele>772.2</ele>
        <time>2017-07-25T12:39:59Z</time>
      </trkpt>
      <trkpt lat="44.7997860" lon="7.1483710">
        <ele>771.2</ele>
        <time>2017-07-25T12:40:01Z</time>
      </trkpt>
      <trkpt lat="44.7998050" lon="7.1486360">
        <ele>769.8</ele>
        <time>2017-07-25T12:40:03Z</time>
      </trkpt>
      <trkpt lat="44.7998130" lon="7.1489190">
        <ele>768.2</ele>
        <time>2017-07-25T12:40:05Z</time>
      </trkpt>
      <trkpt lat="44.7998010" lon="7.1490590">
        <ele>767.6</ele>
        <time>2017-07-25T12:40:06Z</time>
      </trkpt>
      <trkpt lat="44.7997540" lon="7.1491790">
        <ele>766.6</ele>
        <time>2017-07-25T12:40:07Z</time>
      </trkpt>
      <trkpt lat="44.7997030" lon="7.1493280">
        <ele>766.0</ele>
        <time>2017-07-25T12:40:08Z</time>
      </trkpt>
      <trkpt lat="44.7996490" lon="7.1494800">
        <ele>765.2</ele>
        <time>2017-07-25T12:40:09Z</time>
      </trkpt>
      <trkpt lat="44.7996140" lon="7.1496280">
        <ele>764.2</ele>
        <time>2017-07-25T12:40:10Z</time>
      </trkpt>
      <trkpt lat="44.7995720" lon="7.1497730">
        <ele>763.0</ele>
        <time>2017-07-25T12:40:11Z</time>
      </trkpt>
      <trkpt lat="44.7993930" lon="7.1500360">
        <ele>761.2</ele>
        <time>2017-07-25T12:40:13Z</time>
      </trkpt>
      <trkpt lat="44.7991930" lon="7.1502120">
        <ele>759.2</ele>
        <time>2017-07-25T12:40:15Z</time>
      </trkpt>
      <trkpt lat="44.7991290" lon="7.1502750">
        <ele>758.2</ele>
        <time>2017-07-25T12:40:16Z</time>
      </trkpt>
      <trkpt lat="44.7990380" lon="7.1503610">
        <ele>756.6</ele>
        <time>2017-07-25T12:40:18Z</time>
      </trkpt>
      <trkpt lat="44.7990150" lon="7.1503870">
        <ele>756.0</ele>
        <time>2017-07-25T12:40:19Z</time>
      </trkpt>
      <trkpt lat="44.7990070" lon="7.1504120">
        <ele>755.4</ele>
        <time>2017-07-25T12:40:20Z</time>
      </trkpt>
      <trkpt lat="44.7990070" lon="7.1504210">
        <ele>754.6</ele>
        <time>2017-07-25T12:40:21Z</time>
      </trkpt>
      <trkpt lat="44.7990340" lon="7.1504240">
        <ele>754.0</ele>
        <time>2017-07-25T12:40:22Z</time>
      </trkpt>
      <trkpt lat="44.7991310" lon="7.1503620">
        <ele>753.0</ele>
        <time>2017-07-25T12:40:24Z</time>
      </trkpt>
      <trkpt lat="44.7992330" lon="7.1503100">
        <ele>752.4</ele>
        <time>2017-07-25T12:40:25Z</time>
      </trkpt>
      <trkpt lat="44.7993230" lon="7.1502590">
        <ele>751.8</ele>
        <time>2017-07-25T12:40:26Z</time>
      </trkpt>
      <trkpt lat="44.7994860" lon="7.1501400">
        <ele>750.4</ele>
        <time>2017-07-25T12:40:28Z</time>
      </trkpt>
      <trkpt lat="44.7997290" lon="7.1500310">
        <ele>748.8</ele>
        <time>2017-07-25T12:40:30Z</time>
      </trkpt>
      <trkpt lat="44.7998170" lon="7.1498930">
        <ele>747.0</ele>
        <time>2017-07-25T12:40:31Z</time>
      </trkpt>
      <trkpt lat="44.7998760" lon="7.1497500">
        <ele>746.0</ele>
        <time>2017-07-25T12:40:32Z</time>
      </trkpt>
      <trkpt lat="44.7999680" lon="7.1494930">
        <ele>744.6</ele>
        <time>2017-07-25T12:40:34Z</time>
      </trkpt>
      <trkpt lat="44.8000130" lon="7.1493810">
        <ele>744.0</ele>
        <time>2017-07-25T12:40:35Z</time>
      </trkpt>
      <trkpt lat="44.8000580" lon="7.1492740">
        <ele>743.2</ele>
        <time>2017-07-25T12:40:36Z</time>
      </trkpt>
      <trkpt lat="44.8001330" lon="7.1491040">
        <ele>741.2</ele>
        <time>2017-07-25T12:40:38Z</time>
      </trkpt>
      <trkpt lat="44.8001720" lon="7.1490310">
        <ele>740.0</ele>
        <time>2017-07-25T12:40:39Z</time>
      </trkpt>
      <trkpt lat="44.8002170" lon="7.1489430">
        <ele>738.8</ele>
        <time>2017-07-25T12:40:40Z</time>
      </trkpt>
      <trkpt lat="44.8003200" lon="7.1487760">
        <ele>737.0</ele>
        <time>2017-07-25T12:40:42Z</time>
      </trkpt>
      <trkpt lat="44.8003900" lon="7.1487070">
        <ele>735.8</ele>
        <time>2017-07-25T12:40:43Z</time>
      </trkpt>
      <trkpt lat="44.8004940" lon="7.1486660">
        <ele>734.6</ele>
        <time>2017-07-25T12:40:44Z</time>
      </trkpt>
      <trkpt lat="44.8006130" lon="7.1486400">
        <ele>733.4</ele>
        <time>2017-07-25T12:40:45Z</time>
      </trkpt>
      <trkpt lat="44.8007330" lon="7.1486160">
        <ele>732.6</ele>
        <time>2017-07-25T12:40:46Z</time>
      </trkpt>
      <trkpt lat="44.8008680" lon="7.1486030">
        <ele>731.4</ele>
        <time>2017-07-25T12:40:47Z</time>
      </trkpt>
      <trkpt lat="44.8010000" lon="7.1485570">
        <ele>730.4</ele>
        <time>2017-07-25T12:40:48Z</time>
      </trkpt>
      <trkpt lat="44.8011030" lon="7.1484750">
        <ele>729.2</ele>
        <time>2017-07-25T12:40:49Z</time>
      </trkpt>
      <trkpt lat="44.8012950" lon="7.1483010">
        <ele>727.6</ele>
        <time>2017-07-25T12:40:51Z</time>
      </trkpt>
      <trkpt lat="44.8013580" lon="7.1481860">
        <ele>726.8</ele>
        <time>2017-07-25T12:40:52Z</time>
      </trkpt>
      <trkpt lat="44.8014060" lon="7.1480650">
        <ele>725.6</ele>
        <time>2017-07-25T12:40:53Z</time>
      </trkpt>
      <trkpt lat="44.8014930" lon="7.1479920">
        <ele>724.4</ele>
        <time>2017-07-25T12:40:54Z</time>
      </trkpt>
      <trkpt lat="44.8015880" lon="7.1479210">
        <ele>722.0</ele>
        <time>2017-07-25T12:40:55Z</time>
      </trkpt>
      <trkpt lat="44.8017600" lon="7.1477460">
        <ele>720.2</ele>
        <time>2017-07-25T12:40:57Z</time>
      </trkpt>
      <trkpt lat="44.8018590" lon="7.1475200">
        <ele>718.4</ele>
        <time>2017-07-25T12:40:59Z</time>
      </trkpt>
      <trkpt lat="44.8018890" lon="7.1474030">
        <ele>717.4</ele>
        <time>2017-07-25T12:41:00Z</time>
      </trkpt>
      <trkpt lat="44.8019530" lon="7.1471770">
        <ele>715.6</ele>
        <time>2017-07-25T12:41:02Z</time>
      </trkpt>
      <trkpt lat="44.8019560" lon="7.1470710">
        <ele>714.8</ele>
        <time>2017-07-25T12:41:03Z</time>
      </trkpt>
      <trkpt lat="44.8019370" lon="7.1469590">
        <ele>714.2</ele>
        <time>2017-07-25T12:41:04Z</time>
      </trkpt>
      <trkpt lat="44.8019270" lon="7.1467230">
        <ele>712.8</ele>
        <time>2017-07-25T12:41:06Z</time>
      </trkpt>
      <trkpt lat="44.8018950" lon="7.1464490">
        <ele>711.4</ele>
        <time>2017-07-25T12:41:08Z</time>
      </trkpt>
      <trkpt lat="44.8019100" lon="7.1463080">
        <ele>710.6</ele>
        <time>2017-07-25T12:41:09Z</time>
      </trkpt>
      <trkpt lat="44.8019250" lon="7.1461720">
        <ele>710.0</ele>
        <time>2017-07-25T12:41:10Z</time>
      </trkpt>
      <trkpt lat="44.8019580" lon="7.1460640">
        <ele>709.2</ele>
        <time>2017-07-25T12:41:11Z</time>
      </trkpt>
      <trkpt lat="44.8020380" lon="7.1459740">
        <ele>708.6</ele>
        <time>2017-07-25T12:41:12Z</time>
      </trkpt>
      <trkpt lat="44.8020670" lon="7.1458500">
        <ele>708.0</ele>
        <time>2017-07-25T12:41:13Z</time>
      </trkpt>
      <trkpt lat="44.8021280" lon="7.1457550">
        <ele>707.6</ele>
        <time>2017-07-25T12:41:14Z</time>
      </trkpt>
      <trkpt lat="44.8021790" lon="7.1456600">
        <ele>707.2</ele>
        <time>2017-07-25T12:41:15Z</time>
      </trkpt>
      <trkpt lat="44.8022620" lon="7.1455870">
        <ele>706.8</ele>
        <time>2017-07-25T12:41:16Z</time>
      </trkpt>
      <trkpt lat="44.8023410" lon="7.1455040">
        <ele>706.4</ele>
        <time>2017-07-25T12:41:17Z</time>
      </trkpt>
      <trkpt lat="44.8024120" lon="7.1454230">
        <ele>705.8</ele>
        <time>2017-07-25T12:41:18Z</time>
      </trkpt>
      <trkpt lat="44.8024890" lon="7.1453290">
        <ele>704.8</ele>
        <time>2017-07-25T12:41:19Z</time>
      </trkpt>
      <trkpt lat="44.8026280" lon="7.1450460">
        <ele>703.2</ele>
        <time>2017-07-25T12:41:22Z</time>
      </trkpt>
      <trkpt lat="44.8026900" lon="7.1448180">
        <ele>702.0</ele>
        <time>2017-07-25T12:41:24Z</time>
      </trkpt>
      <trkpt lat="44.8027150" lon="7.1447100">
        <ele>701.2</ele>
        <time>2017-07-25T12:41:25Z</time>
      </trkpt>
      <trkpt lat="44.8027480" lon="7.1446070">
        <ele>700.8</ele>
        <time>2017-07-25T12:41:26Z</time>
      </trkpt>
      <trkpt lat="44.8028350" lon="7.1442860">
        <ele>700.0</ele>
        <time>2017-07-25T12:41:29Z</time>
      </trkpt>
      <trkpt lat="44.8028420" lon="7.1441970">
        <ele>699.6</ele>
        <time>2017-07-25T12:41:30Z</time>
      </trkpt>
      <trkpt lat="44.8028280" lon="7.1439490">
        <ele>700.0</ele>
        <time>2017-07-25T12:41:33Z</time>
      </trkpt>
      <trkpt lat="44.8028180" lon="7.1438690">
        <ele>700.2</ele>
        <time>2017-07-25T12:41:34Z</time>
      </trkpt>
      <trkpt lat="44.8027880" lon="7.1436290">
        <ele>701.0</ele>
        <time>2017-07-25T12:41:37Z</time>
      </trkpt>
      <trkpt lat="44.8027780" lon="7.1435530">
        <ele>701.4</ele>
        <time>2017-07-25T12:41:38Z</time>
      </trkpt>
      <trkpt lat="44.8027700" lon="7.1434100">
        <ele>701.8</ele>
        <time>2017-07-25T12:41:40Z</time>
      </trkpt>
      <trkpt lat="44.8027580" lon="7.1432830">
        <ele>702.0</ele>
        <time>2017-07-25T12:41:42Z</time>
      </trkpt>
      <trkpt lat="44.8027430" lon="7.1432300">
        <ele>702.6</ele>
        <time>2017-07-25T12:41:43Z</time>
      </trkpt>
      <trkpt lat="44.8027020" lon="7.1431800">
        <ele>703.2</ele>
        <time>2017-07-25T12:41:45Z</time>
      </trkpt>
      <trkpt lat="44.8026500" lon="7.1432160">
        <ele>703.6</ele>
        <time>2017-07-25T12:41:46Z</time>
      </trkpt>
      <trkpt lat="44.8025920" lon="7.1433550">
        <ele>703.8</ele>
        <time>2017-07-25T12:41:48Z</time>
      </trkpt>
      <trkpt lat="44.8025670" lon="7.1434060">
        <ele>704.0</ele>
        <time>2017-07-25T12:41:49Z</time>
      </trkpt>
      <trkpt lat="44.8025120" lon="7.1434490">
        <ele>704.4</ele>
        <time>2017-07-25T12:41:51Z</time>
      </trkpt>
      <trkpt lat="44.8025000" lon="7.1434320">
        <ele>704.6</ele>
        <time>2017-07-25T12:41:52Z</time>
      </trkpt>
      <trkpt lat="44.8024770" lon="7.1433110">
        <ele>704.8</ele>
        <time>2017-07-25T12:41:54Z</time>
      </trkpt>
      <trkpt lat="44.8024580" lon="7.1431370">
        <ele>705.8</ele>
        <time>2017-07-25T12:41:57Z</time>
      </trkpt>
      <trkpt lat="44.8024590" lon="7.1430790">
        <ele>706.4</ele>
        <time>2017-07-25T12:41:58Z</time>
      </trkpt>
      <trkpt lat="44.8024560" lon="7.1430240">
        <ele>706.8</ele>
        <time>2017-07-25T12:41:59Z</time>
      </trkpt>
      <trkpt lat="44.8024500" lon="7.1429700">
        <ele>707.4</ele>
        <time>2017-07-25T12:42:00Z</time>
      </trkpt>
      <trkpt lat="44.8024420" lon="7.1428560">
        <ele>708.2</ele>
        <time>2017-07-25T12:42:02Z</time>
      </trkpt>
      <trkpt lat="44.8024360" lon="7.1427240">
        <ele>709.2</ele>
        <time>2017-07-25T12:42:04Z</time>
      </trkpt>
      <trkpt lat="44.8024260" lon="7.1426020">
        <ele>710.4</ele>
        <time>2017-07-25T12:42:06Z</time>
      </trkpt>
      <trkpt lat="44.8024160" lon="7.1425450">
        <ele>711.6</ele>
        <time>2017-07-25T12:42:07Z</time>
      </trkpt>
      <trkpt lat="44.8024030" lon="7.1424340">
        <ele>712.6</ele>
        <time>2017-07-25T12:42:09Z</time>
      </trkpt>
      <trkpt lat="44.8023520" lon="7.1422790">
        <ele>714.0</ele>
        <time>2017-07-25T12:42:12Z</time>
      </trkpt>
      <trkpt lat="44.8023160" lon="7.1421920">
        <ele>714.6</ele>
        <time>2017-07-25T12:42:14Z</time>
      </trkpt>
      <trkpt lat="44.8022680" lon="7.1420940">
        <ele>715.4</ele>
        <time>2017-07-25T12:42:16Z</time>
      </trkpt>
      <trkpt lat="44.8022260" lon="7.1419920">
        <ele>716.0</ele>
        <time>2017-07-25T12:42:18Z</time>
      </trkpt>
      <trkpt lat="44.8021870" lon="7.1418940">
        <ele>716.8</ele>
        <time>2017-07-25T12:42:20Z</time>
      </trkpt>
      <trkpt lat="44.8021650" lon="7.1417790">
        <ele>717.6</ele>
        <time>2017-07-25T12:42:22Z</time>
      </trkpt>
      <trkpt lat="44.8021600" lon="7.1417190">
        <ele>717.8</ele>
        <time>2017-07-25T12:42:23Z</time>
      </trkpt>
      <trkpt lat="44.8021590" lon="7.1414740">
        <ele>719.0</ele>
        <time>2017-07-25T12:42:27Z</time>
      </trkpt>
      <trkpt lat="44.8021720" lon="7.1412630">
        <ele>720.6</ele>
        <time>2017-07-25T12:42:31Z</time>
      </trkpt>
      <trkpt lat="44.8021820" lon="7.1410530">
        <ele>721.2</ele>
        <time>2017-07-25T12:42:35Z</time>
      </trkpt>
      <trkpt lat="44.8022270" lon="7.1405950">
        <ele>721.6</ele>
        <time>2017-07-25T12:42:44Z</time>
      </trkpt>
      <trkpt lat="44.8022400" lon="7.1405450">
        <ele>721.6</ele>
        <time>2017-07-25T12:42:45Z</time>
      </trkpt>
      <trkpt lat="44.8023040" lon="7.1402970">
        <ele>722.4</ele>
        <time>2017-07-25T12:42:50Z</time>
      </trkpt>
      <trkpt lat="44.8023120" lon="7.1402460">
        <ele>722.6</ele>
        <time>2017-07-25T12:42:51Z</time>
      </trkpt>
      <trkpt lat="44.8023840" lon="7.1399600">
        <ele>723.6</ele>
        <time>2017-07-25T12:42:57Z</time>
      </trkpt>
      <trkpt lat="44.8024040" lon="7.1395420">
        <ele>723.2</ele>
        <time>2017-07-25T12:43:05Z</time>
      </trkpt>
      <trkpt lat="44.8023710" lon="7.1392610">
        <ele>723.4</ele>
        <time>2017-07-25T12:43:11Z</time>
      </trkpt>
      <trkpt lat="44.8023330" lon="7.1389130">
        <ele>723.6</ele>
        <time>2017-07-25T12:43:18Z</time>
      </trkpt>
      <trkpt lat="44.8023450" lon="7.1388670">
        <ele>723.8</ele>
        <time>2017-07-25T12:43:19Z</time>
      </trkpt>
      <trkpt lat="44.8024090" lon="7.1385050">
        <ele>724.6</ele>
        <time>2017-07-25T12:43:26Z</time>
      </trkpt>
      <trkpt lat="44.8024430" lon="7.1380730">
        <ele>725.8</ele>
        <time>2017-07-25T12:43:34Z</time>
      </trkpt>
      <trkpt lat="44.8023810" lon="7.1377360">
        <ele>727.2</ele>
        <time>2017-07-25T12:43:40Z</time>
      </trkpt>
      <trkpt lat="44.8022610" lon="7.1375800">
        <ele>728.0</ele>
        <time>2017-07-25T12:43:44Z</time>
      </trkpt>
      <trkpt lat="44.8022350" lon="7.1375380">
        <ele>728.4</ele>
        <time>2017-07-25T12:43:45Z</time>
      </trkpt>
      <trkpt lat="44.8021190" lon="7.1373010">
        <ele>729.4</ele>
        <time>2017-07-25T12:43:50Z</time>
      </trkpt>
      <trkpt lat="44.8021150" lon="7.1370490">
        <ele>730.0</ele>
        <time>2017-07-25T12:43:54Z</time>
      </trkpt>
      <trkpt lat="44.8021170" lon="7.1369880">
        <ele>730.4</ele>
        <time>2017-07-25T12:43:55Z</time>
      </trkpt>
      <trkpt lat="44.8021540" lon="7.1369200">
        <ele>730.8</ele>
        <time>2017-07-25T12:43:57Z</time>
      </trkpt>
      <trkpt lat="44.8022420" lon="7.1368500">
        <ele>731.4</ele>
        <time>2017-07-25T12:44:00Z</time>
      </trkpt>
      <trkpt lat="44.8022640" lon="7.1368090">
        <ele>732.0</ele>
        <time>2017-07-25T12:44:01Z</time>
      </trkpt>
      <trkpt lat="44.8022970" lon="7.1367150">
        <ele>732.6</ele>
        <time>2017-07-25T12:44:03Z</time>
      </trkpt>
      <trkpt lat="44.8023360" lon="7.1366920">
        <ele>732.8</ele>
        <time>2017-07-25T12:44:04Z</time>
      </trkpt>
      <trkpt lat="44.8023810" lon="7.1366780">
        <ele>733.0</ele>
        <time>2017-07-25T12:44:05Z</time>
      </trkpt>
      <trkpt lat="44.8024740" lon="7.1366550">
        <ele>734.0</ele>
        <time>2017-07-25T12:44:07Z</time>
      </trkpt>
      <trkpt lat="44.8025930" lon="7.1366610">
        <ele>735.0</ele>
        <time>2017-07-25T12:44:09Z</time>
      </trkpt>
      <trkpt lat="44.8026510" lon="7.1366600">
        <ele>735.2</ele>
        <time>2017-07-25T12:44:10Z</time>
      </trkpt>
      <trkpt lat="44.8028970" lon="7.1366010">
        <ele>735.4</ele>
        <time>2017-07-25T12:44:14Z</time>
      </trkpt>
      <trkpt lat="44.8029410" lon="7.1365140">
        <ele>735.2</ele>
        <time>2017-07-25T12:44:15Z</time>
      </trkpt>
      <trkpt lat="44.8029980" lon="7.1362140">
        <ele>735.2</ele>
        <time>2017-07-25T12:44:18Z</time>
      </trkpt>
      <trkpt lat="44.8030060" lon="7.1360790">
        <ele>735.2</ele>
        <time>2017-07-25T12:44:19Z</time>
      </trkpt>
      <trkpt lat="44.8030580" lon="7.1356860">
        <ele>735.0</ele>
        <time>2017-07-25T12:44:22Z</time>
      </trkpt>
      <trkpt lat="44.8031820" lon="7.1348470">
        <ele>734.2</ele>
        <time>2017-07-25T12:44:28Z</time>
      </trkpt>
      <trkpt lat="44.8032630" lon="7.1344330">
        <ele>733.2</ele>
        <time>2017-07-25T12:44:31Z</time>
      </trkpt>
      <trkpt lat="44.8033270" lon="7.1339890">
        <ele>731.6</ele>
        <time>2017-07-25T12:44:34Z</time>
      </trkpt>
      <trkpt lat="44.8033630" lon="7.1336730">
        <ele>730.2</ele>
        <time>2017-07-25T12:44:36Z</time>
      </trkpt>
      <trkpt lat="44.8034210" lon="7.1333820">
        <ele>728.8</ele>
        <time>2017-07-25T12:44:38Z</time>
      </trkpt>
      <trkpt lat="44.8035150" lon="7.1331500">
        <ele>727.6</ele>
        <time>2017-07-25T12:44:40Z</time>
      </trkpt>
      <trkpt lat="44.8035840" lon="7.1330880">
        <ele>727.2</ele>
        <time>2017-07-25T12:44:41Z</time>
      </trkpt>
      <trkpt lat="44.8037160" lon="7.1329510">
        <ele>726.8</ele>
        <time>2017-07-25T12:44:43Z</time>
      </trkpt>
      <trkpt lat="44.8037760" lon="7.1328800">
        <ele>726.6</ele>
        <time>2017-07-25T12:44:44Z</time>
      </trkpt>
      <trkpt lat="44.8038220" lon="7.1327990">
        <ele>726.2</ele>
        <time>2017-07-25T12:44:45Z</time>
      </trkpt>
      <trkpt lat="44.8039260" lon="7.1325470">
        <ele>725.4</ele>
        <time>2017-07-25T12:44:48Z</time>
      </trkpt>
      <trkpt lat="44.8039820" lon="7.1323260">
        <ele>725.4</ele>
        <time>2017-07-25T12:44:51Z</time>
      </trkpt>
      <trkpt lat="44.8039860" lon="7.1322570">
        <ele>725.4</ele>
        <time>2017-07-25T12:44:52Z</time>
      </trkpt>
      <trkpt lat="44.8039830" lon="7.1321150">
        <ele>725.2</ele>
        <time>2017-07-25T12:44:54Z</time>
      </trkpt>
      <trkpt lat="44.8039560" lon="7.1320510">
        <ele>725.2</ele>
        <time>2017-07-25T12:44:55Z</time>
      </trkpt>
      <trkpt lat="44.8039320" lon="7.1319810">
        <ele>725.0</ele>
        <time>2017-07-25T12:44:56Z</time>
      </trkpt>
      <trkpt lat="44.8038740" lon="7.1318380">
        <ele>725.0</ele>
        <time>2017-07-25T12:44:58Z</time>
      </trkpt>
      <trkpt lat="44.8037230" lon="7.1315760">
        <ele>725.0</ele>
        <time>2017-07-25T12:45:02Z</time>
      </trkpt>
      <trkpt lat="44.8034830" lon="7.1310980">
        <ele>725.4</ele>
        <time>2017-07-25T12:45:09Z</time>
      </trkpt>
      <trkpt lat="44.8033990" lon="7.1308850">
        <ele>725.4</ele>
        <time>2017-07-25T12:45:12Z</time>
      </trkpt>
      <trkpt lat="44.8033620" lon="7.1307370">
        <ele>725.6</ele>
        <time>2017-07-25T12:45:14Z</time>
      </trkpt>
      <trkpt lat="44.8033250" lon="7.1305940">
        <ele>725.4</ele>
        <time>2017-07-25T12:45:16Z</time>
      </trkpt>
      <trkpt lat="44.8032360" lon="7.1301920">
        <ele>726.2</ele>
        <time>2017-07-25T12:45:22Z</time>
      </trkpt>
      <trkpt lat="44.8032240" lon="7.1301310">
        <ele>726.4</ele>
        <time>2017-07-25T12:45:23Z</time>
      </trkpt>
      <trkpt lat="44.8032130" lon="7.1300680">
        <ele>725.4</ele>
        <time>2017-07-25T12:45:24Z</time>
      </trkpt>
      <trkpt lat="44.8031800" lon="7.1299410">
        <ele>722.2</ele>
        <time>2017-07-25T12:45:26Z</time>
      </trkpt>
      <trkpt lat="44.8031660" lon="7.1298780">
        <ele>723.6</ele>
        <time>2017-07-25T12:45:27Z</time>
      </trkpt>
      <trkpt lat="44.8031440" lon="7.1297520">
        <ele>727.4</ele>
        <time>2017-07-25T12:45:29Z</time>
      </trkpt>
      <trkpt lat="44.8031300" lon="7.1296920">
        <ele>727.2</ele>
        <time>2017-07-25T12:45:30Z</time>
      </trkpt>
      <trkpt lat="44.8031170" lon="7.1296320">
        <ele>727.6</ele>
        <time>2017-07-25T12:45:31Z</time>
      </trkpt>
      <trkpt lat="44.8030080" lon="7.1291080">
        <ele>728.2</ele>
        <time>2017-07-25T12:45:40Z</time>
      </trkpt>
      <trkpt lat="44.8029960" lon="7.1290500">
        <ele>728.4</ele>
        <time>2017-07-25T12:45:41Z</time>
      </trkpt>
      <trkpt lat="44.8029310" lon="7.1287800">
        <ele>729.6</ele>
        <time>2017-07-25T12:45:46Z</time>
      </trkpt>
      <trkpt lat="44.8029040" lon="7.1286730">
        <ele>730.0</ele>
        <time>2017-07-25T12:45:48Z</time>
      </trkpt>
      <trkpt lat="44.8028950" lon="7.1286170">
        <ele>730.2</ele>
        <time>2017-07-25T12:45:49Z</time>
      </trkpt>
      <trkpt lat="44.8028640" lon="7.1284460">
        <ele>730.6</ele>
        <time>2017-07-25T12:45:52Z</time>
      </trkpt>
      <trkpt lat="44.8027960" lon="7.1281660">
        <ele>731.6</ele>
        <time>2017-07-25T12:45:57Z</time>
      </trkpt>
      <trkpt lat="44.8027890" lon="7.1281070">
        <ele>731.8</ele>
        <time>2017-07-25T12:45:58Z</time>
      </trkpt>
      <trkpt lat="44.8027430" lon="7.1278200">
        <ele>733.0</ele>
        <time>2017-07-25T12:46:03Z</time>
      </trkpt>
      <trkpt lat="44.8027190" lon="7.1277070">
        <ele>733.4</ele>
        <time>2017-07-25T12:46:05Z</time>
      </trkpt>
      <trkpt lat="44.8026830" lon="7.1275390">
        <ele>734.4</ele>
        <time>2017-07-25T12:46:08Z</time>
      </trkpt>
      <trkpt lat="44.8026500" lon="7.1273800">
        <ele>735.6</ele>
        <time>2017-07-25T12:46:11Z</time>
      </trkpt>
      <trkpt lat="44.8026420" lon="7.1273280">
        <ele>736.0</ele>
        <time>2017-07-25T12:46:12Z</time>
      </trkpt>
      <trkpt lat="44.8026380" lon="7.1272750">
        <ele>736.2</ele>
        <time>2017-07-25T12:46:13Z</time>
      </trkpt>
      <trkpt lat="44.8026350" lon="7.1271580">
        <ele>736.4</ele>
        <time>2017-07-25T12:46:15Z</time>
      </trkpt>
      <trkpt lat="44.8026370" lon="7.1270280">
        <ele>736.4</ele>
        <time>2017-07-25T12:46:17Z</time>
      </trkpt>
      <trkpt lat="44.8026390" lon="7.1269630">
        <ele>736.8</ele>
        <time>2017-07-25T12:46:18Z</time>
      </trkpt>
      <trkpt lat="44.8026590" lon="7.1266290">
        <ele>737.4</ele>
        <time>2017-07-25T12:46:23Z</time>
      </trkpt>
      <trkpt lat="44.8026700" lon="7.1264880">
        <ele>737.8</ele>
        <time>2017-07-25T12:46:25Z</time>
      </trkpt>
      <trkpt lat="44.8026980" lon="7.1262730">
        <ele>739.2</ele>
        <time>2017-07-25T12:46:28Z</time>
      </trkpt>
      <trkpt lat="44.8027190" lon="7.1261360">
        <ele>739.8</ele>
        <time>2017-07-25T12:46:30Z</time>
      </trkpt>
      <trkpt lat="44.8027500" lon="7.1260130">
        <ele>740.4</ele>
        <time>2017-07-25T12:46:32Z</time>
      </trkpt>
      <trkpt lat="44.8028580" lon="7.1257160">
        <ele>741.0</ele>
        <time>2017-07-25T12:46:37Z</time>
      </trkpt>
      <trkpt lat="44.8029080" lon="7.1256020">
        <ele>741.6</ele>
        <time>2017-07-25T12:46:39Z</time>
      </trkpt>
      <trkpt lat="44.8030310" lon="7.1253110">
        <ele>742.2</ele>
        <time>2017-07-25T12:46:44Z</time>
      </trkpt>
      <trkpt lat="44.8030810" lon="7.1251980">
        <ele>742.8</ele>
        <time>2017-07-25T12:46:46Z</time>
      </trkpt>
      <trkpt lat="44.8031810" lon="7.1249710">
        <ele>744.0</ele>
        <time>2017-07-25T12:46:50Z</time>
      </trkpt>
      <trkpt lat="44.8032360" lon="7.1248670">
        <ele>744.4</ele>
        <time>2017-07-25T12:46:52Z</time>
      </trkpt>
      <trkpt lat="44.8032960" lon="7.1247800">
        <ele>745.2</ele>
        <time>2017-07-25T12:46:54Z</time>
      </trkpt>
      <trkpt lat="44.8033560" lon="7.1246940">
        <ele>746.8</ele>
        <time>2017-07-25T12:46:56Z</time>
      </trkpt>
      <trkpt lat="44.8034610" lon="7.1245610">
        <ele>747.2</ele>
        <time>2017-07-25T12:46:59Z</time>
      </trkpt>
      <trkpt lat="44.8036220" lon="7.1243320">
        <ele>747.8</ele>
        <time>2017-07-25T12:47:04Z</time>
      </trkpt>
      <trkpt lat="44.8036800" lon="7.1242280">
        <ele>748.6</ele>
        <time>2017-07-25T12:47:06Z</time>
      </trkpt>
      <trkpt lat="44.8037070" lon="7.1241720">
        <ele>749.0</ele>
        <time>2017-07-25T12:47:07Z</time>
      </trkpt>
      <trkpt lat="44.8038540" lon="7.1237620">
        <ele>749.8</ele>
        <time>2017-07-25T12:47:14Z</time>
      </trkpt>
      <trkpt lat="44.8039430" lon="7.1234770">
        <ele>749.8</ele>
        <time>2017-07-25T12:47:19Z</time>
      </trkpt>
      <trkpt lat="44.8039640" lon="7.1234230">
        <ele>750.0</ele>
        <time>2017-07-25T12:47:20Z</time>
      </trkpt>
      <trkpt lat="44.8039870" lon="7.1233700">
        <ele>750.4</ele>
        <time>2017-07-25T12:47:21Z</time>
      </trkpt>
      <trkpt lat="44.8040350" lon="7.1232620">
        <ele>750.0</ele>
        <time>2017-07-25T12:47:23Z</time>
      </trkpt>
      <trkpt lat="44.8041640" lon="7.1229940">
        <ele>750.2</ele>
        <time>2017-07-25T12:47:28Z</time>
      </trkpt>
      <trkpt lat="44.8042120" lon="7.1228820">
        <ele>750.0</ele>
        <time>2017-07-25T12:47:30Z</time>
      </trkpt>
      <trkpt lat="44.8043460" lon="7.1226210">
        <ele>750.2</ele>
        <time>2017-07-25T12:47:35Z</time>
      </trkpt>
      <trkpt lat="44.8045320" lon="7.1222600">
        <ele>750.8</ele>
        <time>2017-07-25T12:47:41Z</time>
      </trkpt>
      <trkpt lat="44.8045680" lon="7.1221980">
        <ele>751.2</ele>
        <time>2017-07-25T12:47:42Z</time>
      </trkpt>
      <trkpt lat="44.8046740" lon="7.1220070">
        <ele>752.4</ele>
        <time>2017-07-25T12:47:45Z</time>
      </trkpt>
      <trkpt lat="44.8048050" lon="7.1217290">
        <ele>753.0</ele>
        <time>2017-07-25T12:47:49Z</time>
      </trkpt>
      <trkpt lat="44.8050520" lon="7.1211380">
        <ele>753.0</ele>
        <time>2017-07-25T12:47:57Z</time>
      </trkpt>
      <trkpt lat="44.8051700" lon="7.1207550">
        <ele>752.4</ele>
        <time>2017-07-25T12:48:02Z</time>
      </trkpt>
      <trkpt lat="44.8053500" lon="7.1202560">
        <ele>752.6</ele>
        <time>2017-07-25T12:48:09Z</time>
      </trkpt>
      <trkpt lat="44.8054820" lon="7.1199120">
        <ele>753.6</ele>
        <time>2017-07-25T12:48:14Z</time>
      </trkpt>
      <trkpt lat="44.8055640" lon="7.1197100">
        <ele>754.2</ele>
        <time>2017-07-25T12:48:17Z</time>
      </trkpt>
      <trkpt lat="44.8056130" lon="7.1195780">
        <ele>754.8</ele>
        <time>2017-07-25T12:48:19Z</time>
      </trkpt>
      <trkpt lat="44.8057080" lon="7.1192620">
        <ele>755.6</ele>
        <time>2017-07-25T12:48:24Z</time>
      </trkpt>
      <trkpt lat="44.8057130" lon="7.1191970">
        <ele>755.8</ele>
        <time>2017-07-25T12:48:25Z</time>
      </trkpt>
      <trkpt lat="44.8056860" lon="7.1190050">
        <ele>756.4</ele>
        <time>2017-07-25T12:48:28Z</time>
      </trkpt>
      <trkpt lat="44.8056660" lon="7.1189500">
        <ele>756.8</ele>
        <time>2017-07-25T12:48:29Z</time>
      </trkpt>
      <trkpt lat="44.8056200" lon="7.1188410">
        <ele>758.0</ele>
        <time>2017-07-25T12:48:31Z</time>
      </trkpt>
      <trkpt lat="44.8055540" lon="7.1186750">
        <ele>759.2</ele>
        <time>2017-07-25T12:48:34Z</time>
      </trkpt>
      <trkpt lat="44.8054820" lon="7.1185220">
        <ele>759.6</ele>
        <time>2017-07-25T12:48:37Z</time>
      </trkpt>
      <trkpt lat="44.8054280" lon="7.1183700">
        <ele>760.2</ele>
        <time>2017-07-25T12:48:40Z</time>
      </trkpt>
      <trkpt lat="44.8054450" lon="7.1182350">
        <ele>760.6</ele>
        <time>2017-07-25T12:48:43Z</time>
      </trkpt>
      <trkpt lat="44.8054980" lon="7.1181580">
        <ele>761.4</ele>
        <time>2017-07-25T12:48:45Z</time>
      </trkpt>
      <trkpt lat="44.8055740" lon="7.1181070">
        <ele>762.2</ele>
        <time>2017-07-25T12:48:47Z</time>
      </trkpt>
      <trkpt lat="44.8056170" lon="7.1180910">
        <ele>762.6</ele>
        <time>2017-07-25T12:48:48Z</time>
      </trkpt>
      <trkpt lat="44.8056610" lon="7.1180790">
        <ele>762.8</ele>
        <time>2017-07-25T12:48:49Z</time>
      </trkpt>
      <trkpt lat="44.8058210" lon="7.1180450">
        <ele>763.2</ele>
        <time>2017-07-25T12:48:53Z</time>
      </trkpt>
      <trkpt lat="44.8060340" lon="7.1179800">
        <ele>763.6</ele>
        <time>2017-07-25T12:48:58Z</time>
      </trkpt>
      <trkpt lat="44.8061320" lon="7.1179570">
        <ele>763.8</ele>
        <time>2017-07-25T12:49:00Z</time>
      </trkpt>
      <trkpt lat="44.8062920" lon="7.1179120">
        <ele>763.6</ele>
        <time>2017-07-25T12:49:03Z</time>
      </trkpt>
      <trkpt lat="44.8064050" lon="7.1179040">
        <ele>763.8</ele>
        <time>2017-07-25T12:49:05Z</time>
      </trkpt>
      <trkpt lat="44.8067030" lon="7.1178620">
        <ele>764.8</ele>
        <time>2017-07-25T12:49:10Z</time>
      </trkpt>
      <trkpt lat="44.8068200" lon="7.1178500">
        <ele>765.4</ele>
        <time>2017-07-25T12:49:12Z</time>
      </trkpt>
      <trkpt lat="44.8069330" lon="7.1178390">
        <ele>766.0</ele>
        <time>2017-07-25T12:49:14Z</time>
      </trkpt>
      <trkpt lat="44.8070890" lon="7.1178420">
        <ele>766.8</ele>
        <time>2017-07-25T12:49:17Z</time>
      </trkpt>
      <trkpt lat="44.8071390" lon="7.1178400">
        <ele>767.2</ele>
        <time>2017-07-25T12:49:18Z</time>
      </trkpt>
      <trkpt lat="44.8072450" lon="7.1178310">
        <ele>768.4</ele>
        <time>2017-07-25T12:49:20Z</time>
      </trkpt>
      <trkpt lat="44.8074060" lon="7.1178270">
        <ele>769.4</ele>
        <time>2017-07-25T12:49:23Z</time>
      </trkpt>
      <trkpt lat="44.8075690" lon="7.1178020">
        <ele>770.6</ele>
        <time>2017-07-25T12:49:26Z</time>
      </trkpt>
      <trkpt lat="44.8076260" lon="7.1177810">
        <ele>771.0</ele>
        <time>2017-07-25T12:49:27Z</time>
      </trkpt>
      <trkpt lat="44.8077930" lon="7.1176690">
        <ele>770.8</ele>
        <time>2017-07-25T12:49:30Z</time>
      </trkpt>
      <trkpt lat="44.8078030" lon="7.1176120">
        <ele>770.8</ele>
        <time>2017-07-25T12:49:31Z</time>
      </trkpt>
      <trkpt lat="44.8077980" lon="7.1175520">
        <ele>770.8</ele>
        <time>2017-07-25T12:49:32Z</time>
      </trkpt>
      <trkpt lat="44.8078100" lon="7.1174580">
        <ele>748.6</ele>
        <time>2017-07-26T07:04:07Z</time>
      </trkpt>
      <trkpt lat="44.8077510" lon="7.1175080">
        <ele>753.4</ele>
        <time>2017-07-26T07:04:31Z</time>
      </trkpt>
      <trkpt lat="44.8077460" lon="7.1175810">
        <ele>753.6</ele>
        <time>2017-07-26T07:04:33Z</time>
      </trkpt>
      <trkpt lat="44.8076820" lon="7.1177090">
        <ele>753.4</ele>
        <time>2017-07-26T07:04:36Z</time>
      </trkpt>
      <trkpt lat="44.8075280" lon="7.1177740">
        <ele>753.8</ele>
        <time>2017-07-26T07:04:39Z</time>
      </trkpt>
      <trkpt lat="44.8073520" lon="7.1177920">
        <ele>754.6</ele>
        <time>2017-07-26T07:04:42Z</time>
      </trkpt>
      <trkpt lat="44.8072240" lon="7.1178050">
        <ele>755.4</ele>
        <time>2017-07-26T07:04:44Z</time>
      </trkpt>
      <trkpt lat="44.8071600" lon="7.1178060">
        <ele>755.8</ele>
        <time>2017-07-26T07:04:45Z</time>
      </trkpt>
      <trkpt lat="44.8068940" lon="7.1178170">
        <ele>756.8</ele>
        <time>2017-07-26T07:04:49Z</time>
      </trkpt>
      <trkpt lat="44.8068220" lon="7.1178200">
        <ele>757.2</ele>
        <time>2017-07-26T07:04:50Z</time>
      </trkpt>
      <trkpt lat="44.8065260" lon="7.1178520">
        <ele>757.8</ele>
        <time>2017-07-26T07:04:54Z</time>
      </trkpt>
      <trkpt lat="44.8063150" lon="7.1178770">
        <ele>758.4</ele>
        <time>2017-07-26T07:04:57Z</time>
      </trkpt>
      <trkpt lat="44.8062510" lon="7.1178920">
        <ele>758.4</ele>
        <time>2017-07-26T07:04:58Z</time>
      </trkpt>
      <trkpt lat="44.8059910" lon="7.1179680">
        <ele>758.6</ele>
        <time>2017-07-26T07:05:02Z</time>
      </trkpt>
      <trkpt lat="44.8054650" lon="7.1181760">
        <ele>758.2</ele>
        <time>2017-07-26T07:05:10Z</time>
      </trkpt>
      <trkpt lat="44.8054140" lon="7.1182520">
        <ele>757.8</ele>
        <time>2017-07-26T07:05:11Z</time>
      </trkpt>
      <trkpt lat="44.8053860" lon="7.1183540">
        <ele>757.6</ele>
        <time>2017-07-26T07:05:12Z</time>
      </trkpt>
      <trkpt lat="44.8054300" lon="7.1186420">
        <ele>756.6</ele>
        <time>2017-07-26T07:05:15Z</time>
      </trkpt>
      <trkpt lat="44.8055190" lon="7.1188440">
        <ele>756.2</ele>
        <time>2017-07-26T07:05:17Z</time>
      </trkpt>
      <trkpt lat="44.8056170" lon="7.1190910">
        <ele>755.0</ele>
        <time>2017-07-26T07:05:19Z</time>
      </trkpt>
      <trkpt lat="44.8056060" lon="7.1193790">
        <ele>754.2</ele>
        <time>2017-07-26T07:05:21Z</time>
      </trkpt>
      <trkpt lat="44.8055760" lon="7.1195220">
        <ele>753.6</ele>
        <time>2017-07-26T07:05:22Z</time>
      </trkpt>
      <trkpt lat="44.8054850" lon="7.1198000">
        <ele>753.0</ele>
        <time>2017-07-26T07:05:24Z</time>
      </trkpt>
      <trkpt lat="44.8053940" lon="7.1200720">
        <ele>752.4</ele>
        <time>2017-07-26T07:05:26Z</time>
      </trkpt>
      <trkpt lat="44.8051530" lon="7.1207250">
        <ele>751.2</ele>
        <time>2017-07-26T07:05:31Z</time>
      </trkpt>
      <trkpt lat="44.8050320" lon="7.1211090">
        <ele>750.0</ele>
        <time>2017-07-26T07:05:34Z</time>
      </trkpt>
      <trkpt lat="44.8049770" lon="7.1213710">
        <ele>749.6</ele>
        <time>2017-07-26T07:05:36Z</time>
      </trkpt>
      <trkpt lat="44.8049370" lon="7.1217610">
        <ele>748.8</ele>
        <time>2017-07-26T07:05:39Z</time>
      </trkpt>
      <trkpt lat="44.8049150" lon="7.1220240">
        <ele>748.8</ele>
        <time>2017-07-26T07:05:41Z</time>
      </trkpt>
      <trkpt lat="44.8049000" lon="7.1222840">
        <ele>747.8</ele>
        <time>2017-07-26T07:05:43Z</time>
      </trkpt>
      <trkpt lat="44.8049080" lon="7.1226810">
        <ele>746.6</ele>
        <time>2017-07-26T07:05:46Z</time>
      </trkpt>
      <trkpt lat="44.8049150" lon="7.1228130">
        <ele>746.2</ele>
        <time>2017-07-26T07:05:47Z</time>
      </trkpt>
      <trkpt lat="44.8049390" lon="7.1232140">
        <ele>745.6</ele>
        <time>2017-07-26T07:05:50Z</time>
      </trkpt>
      <trkpt lat="44.8049450" lon="7.1236230">
        <ele>744.6</ele>
        <time>2017-07-26T07:05:53Z</time>
      </trkpt>
      <trkpt lat="44.8049460" lon="7.1237590">
        <ele>744.4</ele>
        <time>2017-07-26T07:05:54Z</time>
      </trkpt>
      <trkpt lat="44.8049230" lon="7.1244610">
        <ele>743.0</ele>
        <time>2017-07-26T07:05:59Z</time>
      </trkpt>
      <trkpt lat="44.8049220" lon="7.1246050">
        <ele>742.4</ele>
        <time>2017-07-26T07:06:00Z</time>
      </trkpt>
      <trkpt lat="44.8049180" lon="7.1247480">
        <ele>742.0</ele>
        <time>2017-07-26T07:06:01Z</time>
      </trkpt>
      <trkpt lat="44.8048910" lon="7.1250310">
        <ele>740.8</ele>
        <time>2017-07-26T07:06:03Z</time>
      </trkpt>
      <trkpt lat="44.8048870" lon="7.1251710">
        <ele>740.4</ele>
        <time>2017-07-26T07:06:04Z</time>
      </trkpt>
      <trkpt lat="44.8048870" lon="7.1253110">
        <ele>740.0</ele>
        <time>2017-07-26T07:06:05Z</time>
      </trkpt>
      <trkpt lat="44.8048860" lon="7.1254550">
        <ele>739.6</ele>
        <time>2017-07-26T07:06:06Z</time>
      </trkpt>
      <trkpt lat="44.8048670" lon="7.1257490">
        <ele>738.2</ele>
        <time>2017-07-26T07:06:08Z</time>
      </trkpt>
      <trkpt lat="44.8048450" lon="7.1260440">
        <ele>737.4</ele>
        <time>2017-07-26T07:06:10Z</time>
      </trkpt>
      <trkpt lat="44.8048230" lon="7.1264830">
        <ele>736.8</ele>
        <time>2017-07-26T07:06:13Z</time>
      </trkpt>
      <trkpt lat="44.8048180" lon="7.1266280">
        <ele>735.4</ele>
        <time>2017-07-26T07:06:14Z</time>
      </trkpt>
      <trkpt lat="44.8048180" lon="7.1270490">
        <ele>734.4</ele>
        <time>2017-07-26T07:06:17Z</time>
      </trkpt>
      <trkpt lat="44.8048040" lon="7.1273230">
        <ele>733.0</ele>
        <time>2017-07-26T07:06:19Z</time>
      </trkpt>
      <trkpt lat="44.8047400" lon="7.1277170">
        <ele>731.6</ele>
        <time>2017-07-26T07:06:22Z</time>
      </trkpt>
      <trkpt lat="44.8046510" lon="7.1282220">
        <ele>730.0</ele>
        <time>2017-07-26T07:06:26Z</time>
      </trkpt>
      <trkpt lat="44.8045890" lon="7.1285970">
        <ele>729.0</ele>
        <time>2017-07-26T07:06:29Z</time>
      </trkpt>
      <trkpt lat="44.8045360" lon="7.1288350">
        <ele>727.8</ele>
        <time>2017-07-26T07:06:31Z</time>
      </trkpt>
      <trkpt lat="44.8044680" lon="7.1290520">
        <ele>726.8</ele>
        <time>2017-07-26T07:06:33Z</time>
      </trkpt>
      <trkpt lat="44.8044270" lon="7.1291540">
        <ele>726.8</ele>
        <time>2017-07-26T07:06:34Z</time>
      </trkpt>
      <trkpt lat="44.8043440" lon="7.1296150">
        <ele>725.6</ele>
        <time>2017-07-26T07:06:38Z</time>
      </trkpt>
      <trkpt lat="44.8043420" lon="7.1297350">
        <ele>725.4</ele>
        <time>2017-07-26T07:06:39Z</time>
      </trkpt>
      <trkpt lat="44.8043630" lon="7.1299660">
        <ele>724.8</ele>
        <time>2017-07-26T07:06:41Z</time>
      </trkpt>
      <trkpt lat="44.8043740" lon="7.1300840">
        <ele>724.4</ele>
        <time>2017-07-26T07:06:42Z</time>
      </trkpt>
      <trkpt lat="44.8043780" lon="7.1304290">
        <ele>723.8</ele>
        <time>2017-07-26T07:06:45Z</time>
      </trkpt>
      <trkpt lat="44.8043710" lon="7.1305430">
        <ele>723.4</ele>
        <time>2017-07-26T07:06:46Z</time>
      </trkpt>
      <trkpt lat="44.8043610" lon="7.1306590">
        <ele>723.4</ele>
        <time>2017-07-26T07:06:47Z</time>
      </trkpt>
      <trkpt lat="44.8042950" lon="7.1311190">
        <ele>723.0</ele>
        <time>2017-07-26T07:06:51Z</time>
      </trkpt>
      <trkpt lat="44.8042420" lon="7.1315910">
        <ele>722.2</ele>
        <time>2017-07-26T07:06:55Z</time>
      </trkpt>
      <trkpt lat="44.8041960" lon="7.1318230">
        <ele>721.6</ele>
        <time>2017-07-26T07:06:57Z</time>
      </trkpt>
      <trkpt lat="44.8041610" lon="7.1319330">
        <ele>721.6</ele>
        <time>2017-07-26T07:06:58Z</time>
      </trkpt>
      <trkpt lat="44.8040460" lon="7.1321530">
        <ele>721.6</ele>
        <time>2017-07-26T07:07:01Z</time>
      </trkpt>
      <trkpt lat="44.8039790" lon="7.1322940">
        <ele>721.8</ele>
        <time>2017-07-26T07:07:03Z</time>
      </trkpt>
      <trkpt lat="44.8038870" lon="7.1325540">
        <ele>721.4</ele>
        <time>2017-07-26T07:07:06Z</time>
      </trkpt>
      <trkpt lat="44.8037600" lon="7.1328840">
        <ele>720.8</ele>
        <time>2017-07-26T07:07:09Z</time>
      </trkpt>
      <trkpt lat="44.8036990" lon="7.1329920">
        <ele>720.6</ele>
        <time>2017-07-26T07:07:10Z</time>
      </trkpt>
      <trkpt lat="44.8035310" lon="7.1331340">
        <ele>719.8</ele>
        <time>2017-07-26T07:07:12Z</time>
      </trkpt>
      <trkpt lat="44.8034540" lon="7.1332070">
        <ele>719.4</ele>
        <time>2017-07-26T07:07:13Z</time>
      </trkpt>
      <trkpt lat="44.8032730" lon="7.1335010">
        <ele>719.0</ele>
        <time>2017-07-26T07:07:16Z</time>
      </trkpt>
      <trkpt lat="44.8032400" lon="7.1336150">
        <ele>718.6</ele>
        <time>2017-07-26T07:07:17Z</time>
      </trkpt>
      <trkpt lat="44.8031910" lon="7.1338280">
        <ele>718.2</ele>
        <time>2017-07-26T07:07:19Z</time>
      </trkpt>
      <trkpt lat="44.8031810" lon="7.1339320">
        <ele>718.2</ele>
        <time>2017-07-26T07:07:20Z</time>
      </trkpt>
      <trkpt lat="44.8031200" lon="7.1343620">
        <ele>718.4</ele>
        <time>2017-07-26T07:07:25Z</time>
      </trkpt>
      <trkpt lat="44.8030690" lon="7.1346630">
        <ele>718.8</ele>
        <time>2017-07-26T07:07:29Z</time>
      </trkpt>
      <trkpt lat="44.8030460" lon="7.1348180">
        <ele>718.8</ele>
        <time>2017-07-26T07:07:31Z</time>
      </trkpt>
      <trkpt lat="44.8029990" lon="7.1350330">
        <ele>719.0</ele>
        <time>2017-07-26T07:07:34Z</time>
      </trkpt>
      <trkpt lat="44.8029680" lon="7.1351560">
        <ele>719.0</ele>
        <time>2017-07-26T07:07:36Z</time>
      </trkpt>
      <trkpt lat="44.8029600" lon="7.1352210">
        <ele>719.2</ele>
        <time>2017-07-26T07:07:37Z</time>
      </trkpt>
      <trkpt lat="44.8029550" lon="7.1353410">
        <ele>719.8</ele>
        <time>2017-07-26T07:07:39Z</time>
      </trkpt>
      <trkpt lat="44.8029380" lon="7.1355500">
        <ele>720.8</ele>
        <time>2017-07-26T07:07:43Z</time>
      </trkpt>
      <trkpt lat="44.8029380" lon="7.1356000">
        <ele>721.0</ele>
        <time>2017-07-26T07:07:44Z</time>
      </trkpt>
      <trkpt lat="44.8029120" lon="7.1356840">
        <ele>721.6</ele>
        <time>2017-07-26T07:07:46Z</time>
      </trkpt>
      <trkpt lat="44.8028830" lon="7.1356910">
        <ele>721.6</ele>
        <time>2017-07-26T07:07:47Z</time>
      </trkpt>
      <trkpt lat="44.8028200" lon="7.1355920">
        <ele>722.4</ele>
        <time>2017-07-26T07:07:50Z</time>
      </trkpt>
      <trkpt lat="44.8028080" lon="7.1354740">
        <ele>723.2</ele>
        <time>2017-07-26T07:07:53Z</time>
      </trkpt>
      <trkpt lat="44.8028060" lon="7.1354350">
        <ele>723.6</ele>
        <time>2017-07-26T07:07:54Z</time>
      </trkpt>
      <trkpt lat="44.8027980" lon="7.1354000">
        <ele>724.0</ele>
        <time>2017-07-26T07:07:55Z</time>
      </trkpt>
      <trkpt lat="44.8027520" lon="7.1353090">
        <ele>724.8</ele>
        <time>2017-07-26T07:07:58Z</time>
      </trkpt>
      <trkpt lat="44.8026900" lon="7.1352410">
        <ele>726.0</ele>
        <time>2017-07-26T07:08:01Z</time>
      </trkpt>
      <trkpt lat="44.8026160" lon="7.1352070">
        <ele>727.2</ele>
        <time>2017-07-26T07:08:04Z</time>
      </trkpt>
      <trkpt lat="44.8025410" lon="7.1351630">
        <ele>728.6</ele>
        <time>2017-07-26T07:08:07Z</time>
      </trkpt>
      <trkpt lat="44.8024700" lon="7.1351050">
        <ele>729.8</ele>
        <time>2017-07-26T07:08:10Z</time>
      </trkpt>
      <trkpt lat="44.8023950" lon="7.1350340">
        <ele>730.4</ele>
        <time>2017-07-26T07:08:13Z</time>
      </trkpt>
      <trkpt lat="44.8023720" lon="7.1350160">
        <ele>730.8</ele>
        <time>2017-07-26T07:08:14Z</time>
      </trkpt>
      <trkpt lat="44.8022760" lon="7.1349590">
        <ele>731.8</ele>
        <time>2017-07-26T07:08:18Z</time>
      </trkpt>
      <trkpt lat="44.8021890" lon="7.1349230">
        <ele>732.4</ele>
        <time>2017-07-26T07:08:21Z</time>
      </trkpt>
      <trkpt lat="44.8021300" lon="7.1349090">
        <ele>732.8</ele>
        <time>2017-07-26T07:08:23Z</time>
      </trkpt>
      <trkpt lat="44.8019880" lon="7.1348530">
        <ele>733.6</ele>
        <time>2017-07-26T07:08:28Z</time>
      </trkpt>
      <trkpt lat="44.8018950" lon="7.1348210">
        <ele>734.2</ele>
        <time>2017-07-26T07:08:31Z</time>
      </trkpt>
      <trkpt lat="44.8018270" lon="7.1348090">
        <ele>734.6</ele>
        <time>2017-07-26T07:08:33Z</time>
      </trkpt>
      <trkpt lat="44.8017600" lon="7.1347920">
        <ele>735.2</ele>
        <time>2017-07-26T07:08:35Z</time>
      </trkpt>
      <trkpt lat="44.8016190" lon="7.1347600">
        <ele>736.4</ele>
        <time>2017-07-26T07:08:39Z</time>
      </trkpt>
      <trkpt lat="44.8014690" lon="7.1347330">
        <ele>737.2</ele>
        <time>2017-07-26T07:08:43Z</time>
      </trkpt>
      <trkpt lat="44.8013890" lon="7.1347180">
        <ele>737.6</ele>
        <time>2017-07-26T07:08:45Z</time>
      </trkpt>
      <trkpt lat="44.8012780" lon="7.1347980">
        <ele>738.2</ele>
        <time>2017-07-26T07:08:48Z</time>
      </trkpt>
      <trkpt lat="44.8012000" lon="7.1349450">
        <ele>738.8</ele>
        <time>2017-07-26T07:08:51Z</time>
      </trkpt>
      <trkpt lat="44.8011810" lon="7.1350040">
        <ele>738.8</ele>
        <time>2017-07-26T07:08:52Z</time>
      </trkpt>
      <trkpt lat="44.8011700" lon="7.1350750">
        <ele>739.0</ele>
        <time>2017-07-26T07:08:53Z</time>
      </trkpt>
      <trkpt lat="44.8011700" lon="7.1352950">
        <ele>739.6</ele>
        <time>2017-07-26T07:08:56Z</time>
      </trkpt>
      <trkpt lat="44.8011730" lon="7.1354320">
        <ele>740.0</ele>
        <time>2017-07-26T07:08:58Z</time>
      </trkpt>
      <trkpt lat="44.8011320" lon="7.1357610">
        <ele>741.0</ele>
        <time>2017-07-26T07:09:04Z</time>
      </trkpt>
      <trkpt lat="44.8011140" lon="7.1358900">
        <ele>742.0</ele>
        <time>2017-07-26T07:09:07Z</time>
      </trkpt>
      <trkpt lat="44.8011000" lon="7.1360070">
        <ele>743.2</ele>
        <time>2017-07-26T07:09:10Z</time>
      </trkpt>
      <trkpt lat="44.8010940" lon="7.1360430">
        <ele>743.6</ele>
        <time>2017-07-26T07:09:11Z</time>
      </trkpt>
      <trkpt lat="44.8010650" lon="7.1361370">
        <ele>744.4</ele>
        <time>2017-07-26T07:09:14Z</time>
      </trkpt>
      <trkpt lat="44.8010370" lon="7.1362310">
        <ele>745.6</ele>
        <time>2017-07-26T07:09:17Z</time>
      </trkpt>
      <trkpt lat="44.8010010" lon="7.1363060">
        <ele>746.6</ele>
        <time>2017-07-26T07:09:19Z</time>
      </trkpt>
      <trkpt lat="44.8009460" lon="7.1364610">
        <ele>747.6</ele>
        <time>2017-07-26T07:09:23Z</time>
      </trkpt>
      <trkpt lat="44.8009380" lon="7.1365060">
        <ele>747.8</ele>
        <time>2017-07-26T07:09:24Z</time>
      </trkpt>
      <trkpt lat="44.8008790" lon="7.1367560">
        <ele>748.8</ele>
        <time>2017-07-26T07:09:29Z</time>
      </trkpt>
      <trkpt lat="44.8008610" lon="7.1368050">
        <ele>749.0</ele>
        <time>2017-07-26T07:09:30Z</time>
      </trkpt>
      <trkpt lat="44.8008160" lon="7.1370200">
        <ele>750.0</ele>
        <time>2017-07-26T07:09:34Z</time>
      </trkpt>
      <trkpt lat="44.8008030" lon="7.1372950">
        <ele>751.2</ele>
        <time>2017-07-26T07:09:39Z</time>
      </trkpt>
      <trkpt lat="44.8007730" lon="7.1375010">
        <ele>752.2</ele>
        <time>2017-07-26T07:09:43Z</time>
      </trkpt>
      <trkpt lat="44.8007400" lon="7.1375830">
        <ele>752.6</ele>
        <time>2017-07-26T07:09:45Z</time>
      </trkpt>
      <trkpt lat="44.8006290" lon="7.1377150">
        <ele>752.8</ele>
        <time>2017-07-26T07:09:48Z</time>
      </trkpt>
      <trkpt lat="44.8005920" lon="7.1377620">
        <ele>753.0</ele>
        <time>2017-07-26T07:09:49Z</time>
      </trkpt>
      <trkpt lat="44.8003230" lon="7.1380650">
        <ele>752.6</ele>
        <time>2017-07-26T07:09:55Z</time>
      </trkpt>
      <trkpt lat="44.8001510" lon="7.1381860">
        <ele>753.2</ele>
        <time>2017-07-26T07:10:00Z</time>
      </trkpt>
      <trkpt lat="44.8001260" lon="7.1382040">
        <ele>753.2</ele>
        <time>2017-07-26T07:10:01Z</time>
      </trkpt>
      <trkpt lat="44.8000200" lon="7.1383240">
        <ele>754.0</ele>
        <time>2017-07-26T07:10:06Z</time>
      </trkpt>
      <trkpt lat="44.7999910" lon="7.1383500">
        <ele>754.4</ele>
        <time>2017-07-26T07:10:07Z</time>
      </trkpt>
      <trkpt lat="44.7998670" lon="7.1384690">
        <ele>755.0</ele>
        <time>2017-07-26T07:10:12Z</time>
      </trkpt>
      <trkpt lat="44.7997770" lon="7.1385500">
        <ele>755.6</ele>
        <time>2017-07-26T07:10:16Z</time>
      </trkpt>
      <trkpt lat="44.7997390" lon="7.1386020">
        <ele>755.8</ele>
        <time>2017-07-26T07:10:18Z</time>
      </trkpt>
      <trkpt lat="44.7996450" lon="7.1386950">
        <ele>756.8</ele>
        <time>2017-07-26T07:10:23Z</time>
      </trkpt>
      <trkpt lat="44.7996250" lon="7.1386970">
        <ele>757.0</ele>
        <time>2017-07-26T07:10:24Z</time>
      </trkpt>
      <trkpt lat="44.7996100" lon="7.1386990">
        <ele>757.4</ele>
        <time>2017-07-26T07:10:25Z</time>
      </trkpt>
      <trkpt lat="44.7995930" lon="7.1386740">
        <ele>757.8</ele>
        <time>2017-07-26T07:10:27Z</time>
      </trkpt>
      <trkpt lat="44.7995860" lon="7.1386300">
        <ele>758.4</ele>
        <time>2017-07-26T07:10:29Z</time>
      </trkpt>
      <trkpt lat="44.7995850" lon="7.1386110">
        <ele>758.6</ele>
        <time>2017-07-26T07:10:30Z</time>
      </trkpt>
      <trkpt lat="44.7995870" lon="7.1385900">
        <ele>759.0</ele>
        <time>2017-07-26T07:10:31Z</time>
      </trkpt>
      <trkpt lat="44.7996290" lon="7.1384910">
        <ele>760.0</ele>
        <time>2017-07-26T07:10:35Z</time>
      </trkpt>
      <trkpt lat="44.7996460" lon="7.1384650">
        <ele>760.0</ele>
        <time>2017-07-26T07:10:36Z</time>
      </trkpt>
      <trkpt lat="44.7996910" lon="7.1383650">
        <ele>761.2</ele>
        <time>2017-07-26T07:10:40Z</time>
      </trkpt>
      <trkpt lat="44.7997100" lon="7.1383170">
        <ele>761.6</ele>
        <time>2017-07-26T07:10:42Z</time>
      </trkpt>
      <trkpt lat="44.7997300" lon="7.1382690">
        <ele>762.2</ele>
        <time>2017-07-26T07:10:44Z</time>
      </trkpt>
      <trkpt lat="44.7997200" lon="7.1382440">
        <ele>762.4</ele>
        <time>2017-07-26T07:10:45Z</time>
      </trkpt>
      <trkpt lat="44.7996810" lon="7.1382060">
        <ele>762.6</ele>
        <time>2017-07-26T07:10:47Z</time>
      </trkpt>
      <trkpt lat="44.7996110" lon="7.1382330">
        <ele>763.2</ele>
        <time>2017-07-26T07:10:50Z</time>
      </trkpt>
      <trkpt lat="44.7995890" lon="7.1382470">
        <ele>763.2</ele>
        <time>2017-07-26T07:10:51Z</time>
      </trkpt>
      <trkpt lat="44.7995090" lon="7.1383360">
        <ele>764.4</ele>
        <time>2017-07-26T07:10:56Z</time>
      </trkpt>
      <trkpt lat="44.7994940" lon="7.1383520">
        <ele>764.6</ele>
        <time>2017-07-26T07:10:57Z</time>
      </trkpt>
      <trkpt lat="44.7994590" lon="7.1383960">
        <ele>765.4</ele>
        <time>2017-07-26T07:11:00Z</time>
      </trkpt>
      <trkpt lat="44.7993750" lon="7.1384650">
        <ele>766.6</ele>
        <time>2017-07-26T07:11:04Z</time>
      </trkpt>
      <trkpt lat="44.7992480" lon="7.1385730">
        <ele>767.6</ele>
        <time>2017-07-26T07:11:08Z</time>
      </trkpt>
      <trkpt lat="44.7991930" lon="7.1386330">
        <ele>768.0</ele>
        <time>2017-07-26T07:11:10Z</time>
      </trkpt>
      <trkpt lat="44.7991480" lon="7.1387080">
        <ele>768.8</ele>
        <time>2017-07-26T07:11:13Z</time>
      </trkpt>
      <trkpt lat="44.7991070" lon="7.1387680">
        <ele>769.8</ele>
        <time>2017-07-26T07:11:16Z</time>
      </trkpt>
      <trkpt lat="44.7990970" lon="7.1387850">
        <ele>770.2</ele>
        <time>2017-07-26T07:11:17Z</time>
      </trkpt>
      <trkpt lat="44.7990890" lon="7.1388020">
        <ele>770.6</ele>
        <time>2017-07-26T07:11:18Z</time>
      </trkpt>
      <trkpt lat="44.7990760" lon="7.1388840">
        <ele>771.4</ele>
        <time>2017-07-26T07:11:21Z</time>
      </trkpt>
      <trkpt lat="44.7990640" lon="7.1389200">
        <ele>771.8</ele>
        <time>2017-07-26T07:11:22Z</time>
      </trkpt>
      <trkpt lat="44.7990130" lon="7.1390500">
        <ele>772.6</ele>
        <time>2017-07-26T07:11:26Z</time>
      </trkpt>
      <trkpt lat="44.7989780" lon="7.1391490">
        <ele>773.4</ele>
        <time>2017-07-26T07:11:29Z</time>
      </trkpt>
      <trkpt lat="44.7989770" lon="7.1392250">
        <ele>773.8</ele>
        <time>2017-07-26T07:11:31Z</time>
      </trkpt>
      <trkpt lat="44.7989760" lon="7.1393740">
        <ele>774.8</ele>
        <time>2017-07-26T07:11:35Z</time>
      </trkpt>
      <trkpt lat="44.7989700" lon="7.1394070">
        <ele>775.0</ele>
        <time>2017-07-26T07:11:36Z</time>
      </trkpt>
      <trkpt lat="44.7989350" lon="7.1394080">
        <ele>775.4</ele>
        <time>2017-07-26T07:11:38Z</time>
      </trkpt>
      <trkpt lat="44.7989150" lon="7.1394040">
        <ele>775.8</ele>
        <time>2017-07-26T07:11:39Z</time>
      </trkpt>
      <trkpt lat="44.7989000" lon="7.1393910">
        <ele>776.0</ele>
        <time>2017-07-26T07:11:40Z</time>
      </trkpt>
      <trkpt lat="44.7988860" lon="7.1393740">
        <ele>776.2</ele>
        <time>2017-07-26T07:11:41Z</time>
      </trkpt>
      <trkpt lat="44.7988630" lon="7.1393030">
        <ele>777.2</ele>
        <time>2017-07-26T07:11:44Z</time>
      </trkpt>
      <trkpt lat="44.7988560" lon="7.1392750">
        <ele>777.4</ele>
        <time>2017-07-26T07:11:45Z</time>
      </trkpt>
      <trkpt lat="44.7988430" lon="7.1391370">
        <ele>778.6</ele>
        <time>2017-07-26T07:11:50Z</time>
      </trkpt>
      <trkpt lat="44.7988420" lon="7.1391040">
        <ele>778.8</ele>
        <time>2017-07-26T07:11:51Z</time>
      </trkpt>
      <trkpt lat="44.7988350" lon="7.1390190">
        <ele>779.6</ele>
        <time>2017-07-26T07:11:54Z</time>
      </trkpt>
      <trkpt lat="44.7988240" lon="7.1389250">
        <ele>780.4</ele>
        <time>2017-07-26T07:11:57Z</time>
      </trkpt>
      <trkpt lat="44.7988320" lon="7.1388600">
        <ele>780.8</ele>
        <time>2017-07-26T07:11:59Z</time>
      </trkpt>
      <trkpt lat="44.7988290" lon="7.1387460">
        <ele>781.8</ele>
        <time>2017-07-26T07:12:03Z</time>
      </trkpt>
      <trkpt lat="44.7988170" lon="7.1387270">
        <ele>782.0</ele>
        <time>2017-07-26T07:12:04Z</time>
      </trkpt>
      <trkpt lat="44.7988020" lon="7.1387140">
        <ele>782.2</ele>
        <time>2017-07-26T07:12:05Z</time>
      </trkpt>
      <trkpt lat="44.7987710" lon="7.1387140">
        <ele>783.0</ele>
        <time>2017-07-26T07:12:07Z</time>
      </trkpt>
      <trkpt lat="44.7987600" lon="7.1387270">
        <ele>783.4</ele>
        <time>2017-07-26T07:12:08Z</time>
      </trkpt>
      <trkpt lat="44.7987490" lon="7.1388410">
        <ele>784.4</ele>
        <time>2017-07-26T07:12:12Z</time>
      </trkpt>
      <trkpt lat="44.7987550" lon="7.1388750">
        <ele>784.6</ele>
        <time>2017-07-26T07:12:13Z</time>
      </trkpt>
      <trkpt lat="44.7987610" lon="7.1389370">
        <ele>785.4</ele>
        <time>2017-07-26T07:12:15Z</time>
      </trkpt>
      <trkpt lat="44.7987130" lon="7.1390620">
        <ele>786.6</ele>
        <time>2017-07-26T07:12:19Z</time>
      </trkpt>
      <trkpt lat="44.7986670" lon="7.1391320">
        <ele>787.6</ele>
        <time>2017-07-26T07:12:22Z</time>
      </trkpt>
      <trkpt lat="44.7986570" lon="7.1391500">
        <ele>788.0</ele>
        <time>2017-07-26T07:12:23Z</time>
      </trkpt>
      <trkpt lat="44.7986550" lon="7.1391730">
        <ele>788.4</ele>
        <time>2017-07-26T07:12:24Z</time>
      </trkpt>
      <trkpt lat="44.7986500" lon="7.1391960">
        <ele>788.6</ele>
        <time>2017-07-26T07:12:25Z</time>
      </trkpt>
      <trkpt lat="44.7986510" lon="7.1392430">
        <ele>789.4</ele>
        <time>2017-07-26T07:12:27Z</time>
      </trkpt>
      <trkpt lat="44.7986540" lon="7.1392690">
        <ele>789.8</ele>
        <time>2017-07-26T07:12:28Z</time>
      </trkpt>
      <trkpt lat="44.7986690" lon="7.1393480">
        <ele>790.8</ele>
        <time>2017-07-26T07:12:31Z</time>
      </trkpt>
      <trkpt lat="44.7986640" lon="7.1393690">
        <ele>791.0</ele>
        <time>2017-07-26T07:12:32Z</time>
      </trkpt>
      <trkpt lat="44.7986450" lon="7.1394480">
        <ele>791.8</ele>
        <time>2017-07-26T07:12:35Z</time>
      </trkpt>
      <trkpt lat="44.7986400" lon="7.1394760">
        <ele>792.2</ele>
        <time>2017-07-26T07:12:36Z</time>
      </trkpt>
      <trkpt lat="44.7986040" lon="7.1395560">
        <ele>792.8</ele>
        <time>2017-07-26T07:12:39Z</time>
      </trkpt>
      <trkpt lat="44.7985540" lon="7.1396620">
        <ele>793.8</ele>
        <time>2017-07-26T07:12:43Z</time>
      </trkpt>
      <trkpt lat="44.7985520" lon="7.1396880">
        <ele>794.0</ele>
        <time>2017-07-26T07:12:44Z</time>
      </trkpt>
      <trkpt lat="44.7985510" lon="7.1398160">
        <ele>795.2</ele>
        <time>2017-07-26T07:12:49Z</time>
      </trkpt>
      <trkpt lat="44.7985630" lon="7.1398750">
        <ele>795.8</ele>
        <time>2017-07-26T07:12:51Z</time>
      </trkpt>
      <trkpt lat="44.7985700" lon="7.1399400">
        <ele>796.4</ele>
        <time>2017-07-26T07:12:53Z</time>
      </trkpt>
      <trkpt lat="44.7985680" lon="7.1400240">
        <ele>797.4</ele>
        <time>2017-07-26T07:12:56Z</time>
      </trkpt>
      <trkpt lat="44.7985470" lon="7.1401230">
        <ele>798.4</ele>
        <time>2017-07-26T07:13:00Z</time>
      </trkpt>
      <trkpt lat="44.7985510" lon="7.1402220">
        <ele>799.4</ele>
        <time>2017-07-26T07:13:04Z</time>
      </trkpt>
      <trkpt lat="44.7985540" lon="7.1402500">
        <ele>799.6</ele>
        <time>2017-07-26T07:13:05Z</time>
      </trkpt>
      <trkpt lat="44.7985640" lon="7.1403720">
        <ele>800.8</ele>
        <time>2017-07-26T07:13:09Z</time>
      </trkpt>
      <trkpt lat="44.7985570" lon="7.1404620">
        <ele>801.2</ele>
        <time>2017-07-26T07:13:12Z</time>
      </trkpt>
      <trkpt lat="44.7985700" lon="7.1405290">
        <ele>801.8</ele>
        <time>2017-07-26T07:13:14Z</time>
      </trkpt>
      <trkpt lat="44.7985850" lon="7.1406850">
        <ele>803.0</ele>
        <time>2017-07-26T07:13:19Z</time>
      </trkpt>
      <trkpt lat="44.7985970" lon="7.1408600">
        <ele>804.0</ele>
        <time>2017-07-26T07:13:25Z</time>
      </trkpt>
      <trkpt lat="44.7985890" lon="7.1410540">
        <ele>805.2</ele>
        <time>2017-07-26T07:13:30Z</time>
      </trkpt>
      <trkpt lat="44.7985850" lon="7.1410920">
        <ele>805.4</ele>
        <time>2017-07-26T07:13:31Z</time>
      </trkpt>
      <trkpt lat="44.7985290" lon="7.1412810">
        <ele>806.4</ele>
        <time>2017-07-26T07:13:37Z</time>
      </trkpt>
      <trkpt lat="44.7984760" lon="7.1414140">
        <ele>807.4</ele>
        <time>2017-07-26T07:13:41Z</time>
      </trkpt>
      <trkpt lat="44.7984550" lon="7.1415160">
        <ele>808.2</ele>
        <time>2017-07-26T07:13:44Z</time>
      </trkpt>
      <trkpt lat="44.7984240" lon="7.1416380">
        <ele>808.6</ele>
        <time>2017-07-26T07:13:47Z</time>
      </trkpt>
      <trkpt lat="44.7984060" lon="7.1417610">
        <ele>809.2</ele>
        <time>2017-07-26T07:13:50Z</time>
      </trkpt>
      <trkpt lat="44.7983870" lon="7.1419160">
        <ele>809.8</ele>
        <time>2017-07-26T07:13:54Z</time>
      </trkpt>
      <trkpt lat="44.7983630" lon="7.1419960">
        <ele>810.4</ele>
        <time>2017-07-26T07:13:56Z</time>
      </trkpt>
      <trkpt lat="44.7983250" lon="7.1421290">
        <ele>810.8</ele>
        <time>2017-07-26T07:14:00Z</time>
      </trkpt>
      <trkpt lat="44.7982970" lon="7.1421550">
        <ele>811.2</ele>
        <time>2017-07-26T07:14:02Z</time>
      </trkpt>
      <trkpt lat="44.7982630" lon="7.1421160">
        <ele>812.0</ele>
        <time>2017-07-26T07:14:05Z</time>
      </trkpt>
      <trkpt lat="44.7982560" lon="7.1420570">
        <ele>812.6</ele>
        <time>2017-07-26T07:14:07Z</time>
      </trkpt>
      <trkpt lat="44.7982560" lon="7.1420370">
        <ele>813.2</ele>
        <time>2017-07-26T07:14:08Z</time>
      </trkpt>
      <trkpt lat="44.7982560" lon="7.1419360">
        <ele>814.2</ele>
        <time>2017-07-26T07:14:12Z</time>
      </trkpt>
      <trkpt lat="44.7982560" lon="7.1419110">
        <ele>814.6</ele>
        <time>2017-07-26T07:14:13Z</time>
      </trkpt>
      <trkpt lat="44.7982550" lon="7.1418510">
        <ele>812.2</ele>
        <time>2017-07-26T07:14:15Z</time>
      </trkpt>
      <trkpt lat="44.7982600" lon="7.1417540">
        <ele>814.0</ele>
        <time>2017-07-26T07:14:18Z</time>
      </trkpt>
      <trkpt lat="44.7982570" lon="7.1416990">
        <ele>814.0</ele>
        <time>2017-07-26T07:14:20Z</time>
      </trkpt>
      <trkpt lat="44.7982530" lon="7.1416760">
        <ele>815.4</ele>
        <time>2017-07-26T07:14:21Z</time>
      </trkpt>
      <trkpt lat="44.7982480" lon="7.1416480">
        <ele>816.4</ele>
        <time>2017-07-26T07:14:22Z</time>
      </trkpt>
      <trkpt lat="44.7982360" lon="7.1415490">
        <ele>817.6</ele>
        <time>2017-07-26T07:14:26Z</time>
      </trkpt>
      <trkpt lat="44.7982380" lon="7.1415240">
        <ele>818.0</ele>
        <time>2017-07-26T07:14:27Z</time>
      </trkpt>
      <trkpt lat="44.7982280" lon="7.1414370">
        <ele>819.0</ele>
        <time>2017-07-26T07:14:30Z</time>
      </trkpt>
      <trkpt lat="44.7982060" lon="7.1413560">
        <ele>820.0</ele>
        <time>2017-07-26T07:14:33Z</time>
      </trkpt>
      <trkpt lat="44.7982050" lon="7.1413270">
        <ele>820.2</ele>
        <time>2017-07-26T07:14:34Z</time>
      </trkpt>
      <trkpt lat="44.7982030" lon="7.1412470">
        <ele>821.0</ele>
        <time>2017-07-26T07:14:37Z</time>
      </trkpt>
      <trkpt lat="44.7981790" lon="7.1411240">
        <ele>822.0</ele>
        <time>2017-07-26T07:14:41Z</time>
      </trkpt>
      <trkpt lat="44.7981750" lon="7.1410940">
        <ele>822.2</ele>
        <time>2017-07-26T07:14:42Z</time>
      </trkpt>
      <trkpt lat="44.7981490" lon="7.1409280">
        <ele>823.2</ele>
        <time>2017-07-26T07:14:47Z</time>
      </trkpt>
      <trkpt lat="44.7981390" lon="7.1408930">
        <ele>823.6</ele>
        <time>2017-07-26T07:14:48Z</time>
      </trkpt>
      <trkpt lat="44.7980930" lon="7.1408000">
        <ele>824.4</ele>
        <time>2017-07-26T07:14:51Z</time>
      </trkpt>
      <trkpt lat="44.7980580" lon="7.1406930">
        <ele>825.2</ele>
        <time>2017-07-26T07:14:54Z</time>
      </trkpt>
      <trkpt lat="44.7980450" lon="7.1406170">
        <ele>825.6</ele>
        <time>2017-07-26T07:14:56Z</time>
      </trkpt>
      <trkpt lat="44.7980410" lon="7.1405330">
        <ele>826.4</ele>
        <time>2017-07-26T07:14:58Z</time>
      </trkpt>
      <trkpt lat="44.7980330" lon="7.1404540">
        <ele>827.0</ele>
        <time>2017-07-26T07:15:00Z</time>
      </trkpt>
      <trkpt lat="44.7980280" lon="7.1404190">
        <ele>827.2</ele>
        <time>2017-07-26T07:15:01Z</time>
      </trkpt>
      <trkpt lat="44.7980120" lon="7.1402790">
        <ele>828.0</ele>
        <time>2017-07-26T07:15:05Z</time>
      </trkpt>
      <trkpt lat="44.7980040" lon="7.1402120">
        <ele>828.4</ele>
        <time>2017-07-26T07:15:07Z</time>
      </trkpt>
      <trkpt lat="44.7980010" lon="7.1401020">
        <ele>829.2</ele>
        <time>2017-07-26T07:15:10Z</time>
      </trkpt>
      <trkpt lat="44.7980080" lon="7.1399820">
        <ele>829.8</ele>
        <time>2017-07-26T07:15:13Z</time>
      </trkpt>
      <trkpt lat="44.7980130" lon="7.1399070">
        <ele>830.4</ele>
        <time>2017-07-26T07:15:15Z</time>
      </trkpt>
      <trkpt lat="44.7980280" lon="7.1397680">
        <ele>831.6</ele>
        <time>2017-07-26T07:15:20Z</time>
      </trkpt>
      <trkpt lat="44.7980260" lon="7.1397410">
        <ele>831.8</ele>
        <time>2017-07-26T07:15:21Z</time>
      </trkpt>
      <trkpt lat="44.7980130" lon="7.1396580">
        <ele>832.6</ele>
        <time>2017-07-26T07:15:24Z</time>
      </trkpt>
      <trkpt lat="44.7980010" lon="7.1395540">
        <ele>833.2</ele>
        <time>2017-07-26T07:15:27Z</time>
      </trkpt>
      <trkpt lat="44.7979970" lon="7.1395220">
        <ele>833.6</ele>
        <time>2017-07-26T07:15:28Z</time>
      </trkpt>
      <trkpt lat="44.7979920" lon="7.1394020">
        <ele>834.6</ele>
        <time>2017-07-26T07:15:32Z</time>
      </trkpt>
      <trkpt lat="44.7979870" lon="7.1393630">
        <ele>834.8</ele>
        <time>2017-07-26T07:15:33Z</time>
      </trkpt>
      <trkpt lat="44.7979630" lon="7.1391710">
        <ele>835.8</ele>
        <time>2017-07-26T07:15:38Z</time>
      </trkpt>
      <trkpt lat="44.7979570" lon="7.1390940">
        <ele>836.4</ele>
        <time>2017-07-26T07:15:40Z</time>
      </trkpt>
      <trkpt lat="44.7979610" lon="7.1390190">
        <ele>836.8</ele>
        <time>2017-07-26T07:15:42Z</time>
      </trkpt>
      <trkpt lat="44.7979640" lon="7.1388840">
        <ele>838.0</ele>
        <time>2017-07-26T07:15:46Z</time>
      </trkpt>
      <trkpt lat="44.7979660" lon="7.1388540">
        <ele>838.2</ele>
        <time>2017-07-26T07:15:47Z</time>
      </trkpt>
      <trkpt lat="44.7979850" lon="7.1387320">
        <ele>839.2</ele>
        <time>2017-07-26T07:15:51Z</time>
      </trkpt>
      <trkpt lat="44.7979910" lon="7.1386690">
        <ele>839.6</ele>
        <time>2017-07-26T07:15:53Z</time>
      </trkpt>
      <trkpt lat="44.7979870" lon="7.1386060">
        <ele>840.2</ele>
        <time>2017-07-26T07:15:55Z</time>
      </trkpt>
      <trkpt lat="44.7979730" lon="7.1384980">
        <ele>841.2</ele>
        <time>2017-07-26T07:15:59Z</time>
      </trkpt>
      <trkpt lat="44.7979730" lon="7.1384670">
        <ele>841.4</ele>
        <time>2017-07-26T07:16:00Z</time>
      </trkpt>
      <trkpt lat="44.7979770" lon="7.1383750">
        <ele>842.4</ele>
        <time>2017-07-26T07:16:03Z</time>
      </trkpt>
      <trkpt lat="44.7979630" lon="7.1382230">
        <ele>843.2</ele>
        <time>2017-07-26T07:16:07Z</time>
      </trkpt>
      <trkpt lat="44.7979630" lon="7.1381850">
        <ele>843.8</ele>
        <time>2017-07-26T07:16:08Z</time>
      </trkpt>
      <trkpt lat="44.7979850" lon="7.1379700">
        <ele>844.8</ele>
        <time>2017-07-26T07:16:13Z</time>
      </trkpt>
      <trkpt lat="44.7980260" lon="7.1376760">
        <ele>845.8</ele>
        <time>2017-07-26T07:16:19Z</time>
      </trkpt>
      <trkpt lat="44.7981510" lon="7.1375050">
        <ele>846.4</ele>
        <time>2017-07-26T07:16:23Z</time>
      </trkpt>
      <trkpt lat="44.7983230" lon="7.1373410">
        <ele>847.0</ele>
        <time>2017-07-26T07:16:27Z</time>
      </trkpt>
      <trkpt lat="44.7983860" lon="7.1372450">
        <ele>847.2</ele>
        <time>2017-07-26T07:16:29Z</time>
      </trkpt>
      <trkpt lat="44.7984640" lon="7.1371210">
        <ele>848.0</ele>
        <time>2017-07-26T07:16:32Z</time>
      </trkpt>
      <trkpt lat="44.7985610" lon="7.1369560">
        <ele>849.0</ele>
        <time>2017-07-26T07:16:36Z</time>
      </trkpt>
      <trkpt lat="44.7985980" lon="7.1369140">
        <ele>849.4</ele>
        <time>2017-07-26T07:16:37Z</time>
      </trkpt>
      <trkpt lat="44.7987360" lon="7.1367240">
        <ele>850.2</ele>
        <time>2017-07-26T07:16:41Z</time>
      </trkpt>
      <trkpt lat="44.7987740" lon="7.1366590">
        <ele>850.4</ele>
        <time>2017-07-26T07:16:42Z</time>
      </trkpt>
      <trkpt lat="44.7988180" lon="7.1366030">
        <ele>850.4</ele>
        <time>2017-07-26T07:16:43Z</time>
      </trkpt>
      <trkpt lat="44.7989590" lon="7.1364180">
        <ele>850.2</ele>
        <time>2017-07-26T07:16:46Z</time>
      </trkpt>
      <trkpt lat="44.7990110" lon="7.1361240">
        <ele>850.0</ele>
        <time>2017-07-26T07:16:49Z</time>
      </trkpt>
      <trkpt lat="44.7990220" lon="7.1360250">
        <ele>849.8</ele>
        <time>2017-07-26T07:16:50Z</time>
      </trkpt>
      <trkpt lat="44.7990450" lon="7.1359350">
        <ele>849.6</ele>
        <time>2017-07-26T07:16:51Z</time>
      </trkpt>
      <trkpt lat="44.7991290" lon="7.1357790">
        <ele>849.6</ele>
        <time>2017-07-26T07:16:53Z</time>
      </trkpt>
      <trkpt lat="44.7991760" lon="7.1355500">
        <ele>850.0</ele>
        <time>2017-07-26T07:16:56Z</time>
      </trkpt>
      <trkpt lat="44.7991770" lon="7.1354260">
        <ele>850.2</ele>
        <time>2017-07-26T07:16:58Z</time>
      </trkpt>
      <trkpt lat="44.7991610" lon="7.1352600">
        <ele>850.4</ele>
        <time>2017-07-26T07:17:01Z</time>
      </trkpt>
      <trkpt lat="44.7991490" lon="7.1352040">
        <ele>850.6</ele>
        <time>2017-07-26T07:17:02Z</time>
      </trkpt>
      <trkpt lat="44.7991490" lon="7.1349900">
        <ele>851.0</ele>
        <time>2017-07-26T07:17:06Z</time>
      </trkpt>
      <trkpt lat="44.7991310" lon="7.1347800">
        <ele>851.4</ele>
        <time>2017-07-26T07:17:10Z</time>
      </trkpt>
      <trkpt lat="44.7991040" lon="7.1347420">
        <ele>851.6</ele>
        <time>2017-07-26T07:17:11Z</time>
      </trkpt>
      <trkpt lat="44.7990130" lon="7.1347090">
        <ele>851.6</ele>
        <time>2017-07-26T07:17:14Z</time>
      </trkpt>
      <trkpt lat="44.7988550" lon="7.1346760">
        <ele>851.2</ele>
        <time>2017-07-26T07:17:19Z</time>
      </trkpt>
      <trkpt lat="44.7986770" lon="7.1345880">
        <ele>851.8</ele>
        <time>2017-07-26T07:17:26Z</time>
      </trkpt>
      <trkpt lat="44.7985850" lon="7.1345090">
        <ele>852.4</ele>
        <time>2017-07-26T07:17:30Z</time>
      </trkpt>
      <trkpt lat="44.7985360" lon="7.1344810">
        <ele>853.2</ele>
        <time>2017-07-26T07:17:32Z</time>
      </trkpt>
      <trkpt lat="44.7985110" lon="7.1344680">
        <ele>853.4</ele>
        <time>2017-07-26T07:17:33Z</time>
      </trkpt>
      <trkpt lat="44.7984130" lon="7.1344130">
        <ele>854.8</ele>
        <time>2017-07-26T07:17:37Z</time>
      </trkpt>
      <trkpt lat="44.7983470" lon="7.1343770">
        <ele>855.8</ele>
        <time>2017-07-26T07:17:40Z</time>
      </trkpt>
      <trkpt lat="44.7983270" lon="7.1343650">
        <ele>856.2</ele>
        <time>2017-07-26T07:17:41Z</time>
      </trkpt>
      <trkpt lat="44.7982870" lon="7.1343360">
        <ele>856.8</ele>
        <time>2017-07-26T07:17:43Z</time>
      </trkpt>
      <trkpt lat="44.7982410" lon="7.1343090">
        <ele>857.8</ele>
        <time>2017-07-26T07:17:45Z</time>
      </trkpt>
      <trkpt lat="44.7981770" lon="7.1342880">
        <ele>859.0</ele>
        <time>2017-07-26T07:17:48Z</time>
      </trkpt>
      <trkpt lat="44.7981140" lon="7.1342860">
        <ele>860.2</ele>
        <time>2017-07-26T07:17:51Z</time>
      </trkpt>
      <trkpt lat="44.7980240" lon="7.1342830">
        <ele>861.0</ele>
        <time>2017-07-26T07:17:55Z</time>
      </trkpt>
      <trkpt lat="44.7980000" lon="7.1342760">
        <ele>861.4</ele>
        <time>2017-07-26T07:17:56Z</time>
      </trkpt>
      <trkpt lat="44.7979060" lon="7.1342320">
        <ele>862.6</ele>
        <time>2017-07-26T07:18:00Z</time>
      </trkpt>
      <trkpt lat="44.7978730" lon="7.1341830">
        <ele>863.0</ele>
        <time>2017-07-26T07:18:02Z</time>
      </trkpt>
      <trkpt lat="44.7978190" lon="7.1340560">
        <ele>863.6</ele>
        <time>2017-07-26T07:18:06Z</time>
      </trkpt>
      <trkpt lat="44.7977790" lon="7.1339720">
        <ele>864.4</ele>
        <time>2017-07-26T07:18:09Z</time>
      </trkpt>
      <trkpt lat="44.7977430" lon="7.1339140">
        <ele>864.8</ele>
        <time>2017-07-26T07:18:11Z</time>
      </trkpt>
      <trkpt lat="44.7976520" lon="7.1337930">
        <ele>865.6</ele>
        <time>2017-07-26T07:18:16Z</time>
      </trkpt>
      <trkpt lat="44.7976130" lon="7.1337440">
        <ele>866.0</ele>
        <time>2017-07-26T07:18:18Z</time>
      </trkpt>
      <trkpt lat="44.7975410" lon="7.1337470">
        <ele>866.6</ele>
        <time>2017-07-26T07:18:21Z</time>
      </trkpt>
      <trkpt lat="44.7975150" lon="7.1338410">
        <ele>867.0</ele>
        <time>2017-07-26T07:18:24Z</time>
      </trkpt>
      <trkpt lat="44.7975320" lon="7.1339390">
        <ele>868.0</ele>
        <time>2017-07-26T07:18:27Z</time>
      </trkpt>
      <trkpt lat="44.7975390" lon="7.1339660">
        <ele>868.4</ele>
        <time>2017-07-26T07:18:28Z</time>
      </trkpt>
      <trkpt lat="44.7975430" lon="7.1339980">
        <ele>868.6</ele>
        <time>2017-07-26T07:18:29Z</time>
      </trkpt>
      <trkpt lat="44.7975420" lon="7.1340650">
        <ele>869.4</ele>
        <time>2017-07-26T07:18:31Z</time>
      </trkpt>
      <trkpt lat="44.7975480" lon="7.1341300">
        <ele>870.4</ele>
        <time>2017-07-26T07:18:33Z</time>
      </trkpt>
      <trkpt lat="44.7975640" lon="7.1342240">
        <ele>871.4</ele>
        <time>2017-07-26T07:18:36Z</time>
      </trkpt>
      <trkpt lat="44.7975690" lon="7.1342560">
        <ele>871.8</ele>
        <time>2017-07-26T07:18:37Z</time>
      </trkpt>
      <trkpt lat="44.7975900" lon="7.1343890">
        <ele>873.0</ele>
        <time>2017-07-26T07:18:41Z</time>
      </trkpt>
      <trkpt lat="44.7976220" lon="7.1344950">
        <ele>873.6</ele>
        <time>2017-07-26T07:18:44Z</time>
      </trkpt>
      <trkpt lat="44.7976480" lon="7.1345510">
        <ele>874.2</ele>
        <time>2017-07-26T07:18:46Z</time>
      </trkpt>
      <trkpt lat="44.7977250" lon="7.1346710">
        <ele>875.4</ele>
        <time>2017-07-26T07:18:51Z</time>
      </trkpt>
      <trkpt lat="44.7978040" lon="7.1347630">
        <ele>876.8</ele>
        <time>2017-07-26T07:18:56Z</time>
      </trkpt>
      <trkpt lat="44.7978560" lon="7.1347970">
        <ele>877.2</ele>
        <time>2017-07-26T07:18:58Z</time>
      </trkpt>
      <trkpt lat="44.7979300" lon="7.1348420">
        <ele>878.0</ele>
        <time>2017-07-26T07:19:01Z</time>
      </trkpt>
      <trkpt lat="44.7980100" lon="7.1349200">
        <ele>879.0</ele>
        <time>2017-07-26T07:19:05Z</time>
      </trkpt>
      <trkpt lat="44.7980300" lon="7.1349410">
        <ele>879.2</ele>
        <time>2017-07-26T07:19:06Z</time>
      </trkpt>
      <trkpt lat="44.7980970" lon="7.1350360">
        <ele>880.2</ele>
        <time>2017-07-26T07:19:10Z</time>
      </trkpt>
      <trkpt lat="44.7981120" lon="7.1350650">
        <ele>880.4</ele>
        <time>2017-07-26T07:19:11Z</time>
      </trkpt>
      <trkpt lat="44.7981470" lon="7.1351510">
        <ele>881.2</ele>
        <time>2017-07-26T07:19:14Z</time>
      </trkpt>
      <trkpt lat="44.7981820" lon="7.1352390">
        <ele>882.0</ele>
        <time>2017-07-26T07:19:17Z</time>
      </trkpt>
      <trkpt lat="44.7981830" lon="7.1352670">
        <ele>882.2</ele>
        <time>2017-07-26T07:19:18Z</time>
      </trkpt>
      <trkpt lat="44.7981710" lon="7.1353360">
        <ele>883.2</ele>
        <time>2017-07-26T07:19:21Z</time>
      </trkpt>
      <trkpt lat="44.7981580" lon="7.1353580">
        <ele>883.6</ele>
        <time>2017-07-26T07:19:22Z</time>
      </trkpt>
      <trkpt lat="44.7981030" lon="7.1353910">
        <ele>883.6</ele>
        <time>2017-07-26T07:19:25Z</time>
      </trkpt>
      <trkpt lat="44.7980580" lon="7.1354150">
        <ele>884.0</ele>
        <time>2017-07-26T07:19:27Z</time>
      </trkpt>
      <trkpt lat="44.7979260" lon="7.1355330">
        <ele>884.2</ele>
        <time>2017-07-26T07:19:33Z</time>
      </trkpt>
      <trkpt lat="44.7979050" lon="7.1355940">
        <ele>884.2</ele>
        <time>2017-07-26T07:19:35Z</time>
      </trkpt>
      <trkpt lat="44.7978990" lon="7.1357360">
        <ele>884.8</ele>
        <time>2017-07-26T07:19:39Z</time>
      </trkpt>
      <trkpt lat="44.7979030" lon="7.1358390">
        <ele>885.4</ele>
        <time>2017-07-26T07:19:42Z</time>
      </trkpt>
      <trkpt lat="44.7979060" lon="7.1359610">
        <ele>886.6</ele>
        <time>2017-07-26T07:19:46Z</time>
      </trkpt>
      <trkpt lat="44.7978570" lon="7.1360400">
        <ele>887.6</ele>
        <time>2017-07-26T07:19:50Z</time>
      </trkpt>
      <trkpt lat="44.7978350" lon="7.1360370">
        <ele>887.8</ele>
        <time>2017-07-26T07:19:51Z</time>
      </trkpt>
      <trkpt lat="44.7977730" lon="7.1359910">
        <ele>888.8</ele>
        <time>2017-07-26T07:19:54Z</time>
      </trkpt>
      <trkpt lat="44.7977520" lon="7.1359430">
        <ele>889.6</ele>
        <time>2017-07-26T07:19:56Z</time>
      </trkpt>
      <trkpt lat="44.7977370" lon="7.1359240">
        <ele>890.0</ele>
        <time>2017-07-26T07:19:57Z</time>
      </trkpt>
      <trkpt lat="44.7977220" lon="7.1359030">
        <ele>890.4</ele>
        <time>2017-07-26T07:19:58Z</time>
      </trkpt>
      <trkpt lat="44.7976860" lon="7.1358720">
        <ele>891.2</ele>
        <time>2017-07-26T07:20:00Z</time>
      </trkpt>
      <trkpt lat="44.7976390" lon="7.1358350">
        <ele>891.8</ele>
        <time>2017-07-26T07:20:02Z</time>
      </trkpt>
      <trkpt lat="44.7975700" lon="7.1357900">
        <ele>892.2</ele>
        <time>2017-07-26T07:20:05Z</time>
      </trkpt>
      <trkpt lat="44.7974200" lon="7.1356550">
        <ele>893.4</ele>
        <time>2017-07-26T07:20:12Z</time>
      </trkpt>
      <trkpt lat="44.7973420" lon="7.1355210">
        <ele>894.6</ele>
        <time>2017-07-26T07:20:17Z</time>
      </trkpt>
      <trkpt lat="44.7973050" lon="7.1354320">
        <ele>895.6</ele>
        <time>2017-07-26T07:20:20Z</time>
      </trkpt>
      <trkpt lat="44.7972920" lon="7.1354050">
        <ele>896.0</ele>
        <time>2017-07-26T07:20:21Z</time>
      </trkpt>
      <trkpt lat="44.7972640" lon="7.1353120">
        <ele>897.2</ele>
        <time>2017-07-26T07:20:24Z</time>
      </trkpt>
      <trkpt lat="44.7972230" lon="7.1352330">
        <ele>898.2</ele>
        <time>2017-07-26T07:20:27Z</time>
      </trkpt>
      <trkpt lat="44.7972140" lon="7.1352040">
        <ele>898.6</ele>
        <time>2017-07-26T07:20:28Z</time>
      </trkpt>
      <trkpt lat="44.7971500" lon="7.1351020">
        <ele>900.2</ele>
        <time>2017-07-26T07:20:32Z</time>
      </trkpt>
      <trkpt lat="44.7971320" lon="7.1350760">
        <ele>900.4</ele>
        <time>2017-07-26T07:20:33Z</time>
      </trkpt>
      <trkpt lat="44.7970840" lon="7.1350000">
        <ele>901.4</ele>
        <time>2017-07-26T07:20:36Z</time>
      </trkpt>
      <trkpt lat="44.7970370" lon="7.1349330">
        <ele>902.6</ele>
        <time>2017-07-26T07:20:39Z</time>
      </trkpt>
      <trkpt lat="44.7970070" lon="7.1348900">
        <ele>903.2</ele>
        <time>2017-07-26T07:20:41Z</time>
      </trkpt>
      <trkpt lat="44.7969920" lon="7.1348700">
        <ele>903.6</ele>
        <time>2017-07-26T07:20:42Z</time>
      </trkpt>
      <trkpt lat="44.7969340" lon="7.1347950">
        <ele>905.0</ele>
        <time>2017-07-26T07:20:46Z</time>
      </trkpt>
      <trkpt lat="44.7969250" lon="7.1347690">
        <ele>905.2</ele>
        <time>2017-07-26T07:20:47Z</time>
      </trkpt>
      <trkpt lat="44.7968990" lon="7.1347300">
        <ele>906.0</ele>
        <time>2017-07-26T07:20:49Z</time>
      </trkpt>
      <trkpt lat="44.7968370" lon="7.1346400">
        <ele>907.0</ele>
        <time>2017-07-26T07:20:53Z</time>
      </trkpt>
      <trkpt lat="44.7967970" lon="7.1345940">
        <ele>907.6</ele>
        <time>2017-07-26T07:20:55Z</time>
      </trkpt>
      <trkpt lat="44.7967710" lon="7.1345850">
        <ele>908.2</ele>
        <time>2017-07-26T07:20:56Z</time>
      </trkpt>
      <trkpt lat="44.7967520" lon="7.1345930">
        <ele>908.2</ele>
        <time>2017-07-26T07:20:57Z</time>
      </trkpt>
      <trkpt lat="44.7967260" lon="7.1346230">
        <ele>908.4</ele>
        <time>2017-07-26T07:20:59Z</time>
      </trkpt>
      <trkpt lat="44.7967330" lon="7.1347120">
        <ele>909.0</ele>
        <time>2017-07-26T07:21:02Z</time>
      </trkpt>
      <trkpt lat="44.7967420" lon="7.1347370">
        <ele>909.2</ele>
        <time>2017-07-26T07:21:03Z</time>
      </trkpt>
      <trkpt lat="44.7967270" lon="7.1347460">
        <ele>909.2</ele>
        <time>2017-07-26T07:21:04Z</time>
      </trkpt>
      <trkpt lat="44.7966870" lon="7.1347130">
        <ele>909.6</ele>
        <time>2017-07-26T07:21:06Z</time>
      </trkpt>
      <trkpt lat="44.7966310" lon="7.1346510">
        <ele>910.2</ele>
        <time>2017-07-26T07:21:09Z</time>
      </trkpt>
      <trkpt lat="44.7966150" lon="7.1346030">
        <ele>910.6</ele>
        <time>2017-07-26T07:21:11Z</time>
      </trkpt>
      <trkpt lat="44.7965870" lon="7.1345440">
        <ele>911.4</ele>
        <time>2017-07-26T07:21:14Z</time>
      </trkpt>
      <trkpt lat="44.7965390" lon="7.1344750">
        <ele>912.4</ele>
        <time>2017-07-26T07:21:18Z</time>
      </trkpt>
      <trkpt lat="44.7965240" lon="7.1344570">
        <ele>912.6</ele>
        <time>2017-07-26T07:21:19Z</time>
      </trkpt>
      <trkpt lat="44.7964850" lon="7.1344300">
        <ele>914.0</ele>
        <time>2017-07-26T07:21:22Z</time>
      </trkpt>
      <trkpt lat="44.7964520" lon="7.1343980">
        <ele>914.8</ele>
        <time>2017-07-26T07:21:25Z</time>
      </trkpt>
      <trkpt lat="44.7964380" lon="7.1343870">
        <ele>915.0</ele>
        <time>2017-07-26T07:21:26Z</time>
      </trkpt>
      <trkpt lat="44.7964010" lon="7.1343440">
        <ele>916.2</ele>
        <time>2017-07-26T07:21:30Z</time>
      </trkpt>
      <trkpt lat="44.7963920" lon="7.1343170">
        <ele>916.8</ele>
        <time>2017-07-26T07:21:32Z</time>
      </trkpt>
      <trkpt lat="44.7963830" lon="7.1343050">
        <ele>917.2</ele>
        <time>2017-07-26T07:21:33Z</time>
      </trkpt>
      <trkpt lat="44.7962680" lon="7.1341270">
        <ele>922.4</ele>
        <time>2017-07-26T07:21:47Z</time>
      </trkpt>
      <trkpt lat="44.7962600" lon="7.1341060">
        <ele>922.6</ele>
        <time>2017-07-26T07:21:48Z</time>
      </trkpt>
      <trkpt lat="44.7962250" lon="7.1340170">
        <ele>923.6</ele>
        <time>2017-07-26T07:21:52Z</time>
      </trkpt>
      <trkpt lat="44.7962130" lon="7.1339940">
        <ele>924.0</ele>
        <time>2017-07-26T07:21:54Z</time>
      </trkpt>
      <trkpt lat="44.7961940" lon="7.1339620">
        <ele>924.6</ele>
        <time>2017-07-26T07:21:56Z</time>
      </trkpt>
      <trkpt lat="44.7961590" lon="7.1338780">
        <ele>925.8</ele>
        <time>2017-07-26T07:22:00Z</time>
      </trkpt>
      <trkpt lat="44.7961520" lon="7.1338540">
        <ele>926.2</ele>
        <time>2017-07-26T07:22:01Z</time>
      </trkpt>
      <trkpt lat="44.7961370" lon="7.1338110">
        <ele>926.8</ele>
        <time>2017-07-26T07:22:03Z</time>
      </trkpt>
      <trkpt lat="44.7961060" lon="7.1337020">
        <ele>928.2</ele>
        <time>2017-07-26T07:22:08Z</time>
      </trkpt>
      <trkpt lat="44.7960850" lon="7.1336210">
        <ele>929.0</ele>
        <time>2017-07-26T07:22:11Z</time>
      </trkpt>
      <trkpt lat="44.7960830" lon="7.1335970">
        <ele>929.4</ele>
        <time>2017-07-26T07:22:12Z</time>
      </trkpt>
      <trkpt lat="44.7960830" lon="7.1335420">
        <ele>930.0</ele>
        <time>2017-07-26T07:22:14Z</time>
      </trkpt>
      <trkpt lat="44.7960790" lon="7.1335020">
        <ele>930.4</ele>
        <time>2017-07-26T07:22:16Z</time>
      </trkpt>
      <trkpt lat="44.7960760" lon="7.1334810">
        <ele>930.8</ele>
        <time>2017-07-26T07:22:17Z</time>
      </trkpt>
      <trkpt lat="44.7960760" lon="7.1334270">
        <ele>931.8</ele>
        <time>2017-07-26T07:22:20Z</time>
      </trkpt>
      <trkpt lat="44.7960570" lon="7.1333570">
        <ele>933.0</ele>
        <time>2017-07-26T07:22:24Z</time>
      </trkpt>
      <trkpt lat="44.7960320" lon="7.1332700">
        <ele>934.2</ele>
        <time>2017-07-26T07:22:29Z</time>
      </trkpt>
      <trkpt lat="44.7960270" lon="7.1332520">
        <ele>934.6</ele>
        <time>2017-07-26T07:22:30Z</time>
      </trkpt>
      <trkpt lat="44.7960150" lon="7.1332190">
        <ele>935.4</ele>
        <time>2017-07-26T07:22:32Z</time>
      </trkpt>
      <trkpt lat="44.7960060" lon="7.1331430">
        <ele>936.8</ele>
        <time>2017-07-26T07:22:37Z</time>
      </trkpt>
      <trkpt lat="44.7959990" lon="7.1330600">
        <ele>938.0</ele>
        <time>2017-07-26T07:22:42Z</time>
      </trkpt>
      <trkpt lat="44.7959930" lon="7.1330400">
        <ele>938.2</ele>
        <time>2017-07-26T07:22:43Z</time>
      </trkpt>
      <trkpt lat="44.7959800" lon="7.1329630">
        <ele>939.2</ele>
        <time>2017-07-26T07:22:47Z</time>
      </trkpt>
      <trkpt lat="44.7959700" lon="7.1328900">
        <ele>940.4</ele>
        <time>2017-07-26T07:22:52Z</time>
      </trkpt>
      <trkpt lat="44.7959590" lon="7.1328580">
        <ele>941.0</ele>
        <time>2017-07-26T07:22:54Z</time>
      </trkpt>
      <trkpt lat="44.7959510" lon="7.1327790">
        <ele>942.4</ele>
        <time>2017-07-26T07:22:59Z</time>
      </trkpt>
      <trkpt lat="44.7959570" lon="7.1326950">
        <ele>943.6</ele>
        <time>2017-07-26T07:23:03Z</time>
      </trkpt>
      <trkpt lat="44.7959460" lon="7.1326180">
        <ele>944.6</ele>
        <time>2017-07-26T07:23:07Z</time>
      </trkpt>
      <trkpt lat="44.7959250" lon="7.1325710">
        <ele>945.6</ele>
        <time>2017-07-26T07:23:10Z</time>
      </trkpt>
      <trkpt lat="44.7959200" lon="7.1325520">
        <ele>946.0</ele>
        <time>2017-07-26T07:23:11Z</time>
      </trkpt>
      <trkpt lat="44.7958990" lon="7.1324720">
        <ele>947.2</ele>
        <time>2017-07-26T07:23:15Z</time>
      </trkpt>
      <trkpt lat="44.7958760" lon="7.1324380">
        <ele>948.0</ele>
        <time>2017-07-26T07:23:17Z</time>
      </trkpt>
      <trkpt lat="44.7958700" lon="7.1324270">
        <ele>948.2</ele>
        <time>2017-07-26T07:23:18Z</time>
      </trkpt>
      <trkpt lat="44.7958240" lon="7.1323810">
        <ele>949.4</ele>
        <time>2017-07-26T07:23:21Z</time>
      </trkpt>
      <trkpt lat="44.7957730" lon="7.1323370">
        <ele>950.6</ele>
        <time>2017-07-26T07:23:25Z</time>
      </trkpt>
      <trkpt lat="44.7957480" lon="7.1323270">
        <ele>951.0</ele>
        <time>2017-07-26T07:23:27Z</time>
      </trkpt>
      <trkpt lat="44.7957050" lon="7.1323060">
        <ele>951.6</ele>
        <time>2017-07-26T07:23:30Z</time>
      </trkpt>
      <trkpt lat="44.7956920" lon="7.1323010">
        <ele>951.8</ele>
        <time>2017-07-26T07:23:31Z</time>
      </trkpt>
      <trkpt lat="44.7956540" lon="7.1322800">
        <ele>952.6</ele>
        <time>2017-07-26T07:23:34Z</time>
      </trkpt>
      <trkpt lat="44.7956420" lon="7.1322820">
        <ele>953.0</ele>
        <time>2017-07-26T07:23:35Z</time>
      </trkpt>
      <trkpt lat="44.7955880" lon="7.1322510">
        <ele>953.8</ele>
        <time>2017-07-26T07:23:39Z</time>
      </trkpt>
      <trkpt lat="44.7955260" lon="7.1322230">
        <ele>955.2</ele>
        <time>2017-07-26T07:23:44Z</time>
      </trkpt>
      <trkpt lat="44.7955170" lon="7.1322220">
        <ele>955.4</ele>
        <time>2017-07-26T07:23:45Z</time>
      </trkpt>
      <trkpt lat="44.7954690" lon="7.1322010">
        <ele>956.4</ele>
        <time>2017-07-26T07:23:49Z</time>
      </trkpt>
      <trkpt lat="44.7954570" lon="7.1322070">
        <ele>956.4</ele>
        <time>2017-07-26T07:23:50Z</time>
      </trkpt>
      <trkpt lat="44.7953980" lon="7.1321760">
        <ele>957.2</ele>
        <time>2017-07-26T07:23:54Z</time>
      </trkpt>
      <trkpt lat="44.7953860" lon="7.1321630">
        <ele>957.4</ele>
        <time>2017-07-26T07:23:55Z</time>
      </trkpt>
      <trkpt lat="44.7953710" lon="7.1321530">
        <ele>957.6</ele>
        <time>2017-07-26T07:23:56Z</time>
      </trkpt>
      <trkpt lat="44.7953560" lon="7.1321430">
        <ele>957.6</ele>
        <time>2017-07-26T07:23:57Z</time>
      </trkpt>
      <trkpt lat="44.7953160" lon="7.1321260">
        <ele>958.4</ele>
        <time>2017-07-26T07:24:00Z</time>
      </trkpt>
      <trkpt lat="44.7952680" lon="7.1321230">
        <ele>959.0</ele>
        <time>2017-07-26T07:24:03Z</time>
      </trkpt>
      <trkpt lat="44.7952390" lon="7.1321190">
        <ele>959.4</ele>
        <time>2017-07-26T07:24:05Z</time>
      </trkpt>
      <trkpt lat="44.7951710" lon="7.1321040">
        <ele>960.4</ele>
        <time>2017-07-26T07:24:09Z</time>
      </trkpt>
      <trkpt lat="44.7951610" lon="7.1321040">
        <ele>960.6</ele>
        <time>2017-07-26T07:24:10Z</time>
      </trkpt>
      <trkpt lat="44.7951350" lon="7.1321070">
        <ele>961.2</ele>
        <time>2017-07-26T07:24:12Z</time>
      </trkpt>
      <trkpt lat="44.7950920" lon="7.1320940">
        <ele>961.8</ele>
        <time>2017-07-26T07:24:15Z</time>
      </trkpt>
      <trkpt lat="44.7950770" lon="7.1320900">
        <ele>962.0</ele>
        <time>2017-07-26T07:24:16Z</time>
      </trkpt>
      <trkpt lat="44.7950120" lon="7.1320770">
        <ele>963.0</ele>
        <time>2017-07-26T07:24:20Z</time>
      </trkpt>
      <trkpt lat="44.7949830" lon="7.1320710">
        <ele>963.6</ele>
        <time>2017-07-26T07:24:22Z</time>
      </trkpt>
      <trkpt lat="44.7949500" lon="7.1320640">
        <ele>964.2</ele>
        <time>2017-07-26T07:24:24Z</time>
      </trkpt>
      <trkpt lat="44.7948850" lon="7.1320470">
        <ele>965.4</ele>
        <time>2017-07-26T07:24:29Z</time>
      </trkpt>
      <trkpt lat="44.7948640" lon="7.1320360">
        <ele>965.8</ele>
        <time>2017-07-26T07:24:31Z</time>
      </trkpt>
      <trkpt lat="44.7948560" lon="7.1320300">
        <ele>966.4</ele>
        <time>2017-07-26T07:24:32Z</time>
      </trkpt>
      <trkpt lat="44.7948100" lon="7.1320050">
        <ele>967.4</ele>
        <time>2017-07-26T07:24:36Z</time>
      </trkpt>
      <trkpt lat="44.7947640" lon="7.1319820">
        <ele>968.4</ele>
        <time>2017-07-26T07:24:39Z</time>
      </trkpt>
      <trkpt lat="44.7946810" lon="7.1319450">
        <ele>969.6</ele>
        <time>2017-07-26T07:24:43Z</time>
      </trkpt>
      <trkpt lat="44.7946260" lon="7.1319280">
        <ele>970.2</ele>
        <time>2017-07-26T07:24:46Z</time>
      </trkpt>
      <trkpt lat="44.7946110" lon="7.1319260">
        <ele>970.6</ele>
        <time>2017-07-26T07:24:47Z</time>
      </trkpt>
      <trkpt lat="44.7945280" lon="7.1318940">
        <ele>971.6</ele>
        <time>2017-07-26T07:24:52Z</time>
      </trkpt>
      <trkpt lat="44.7945120" lon="7.1318900">
        <ele>971.8</ele>
        <time>2017-07-26T07:24:53Z</time>
      </trkpt>
      <trkpt lat="44.7944710" lon="7.1318790">
        <ele>972.8</ele>
        <time>2017-07-26T07:24:56Z</time>
      </trkpt>
      <trkpt lat="44.7944370" lon="7.1318650">
        <ele>973.6</ele>
        <time>2017-07-26T07:24:59Z</time>
      </trkpt>
      <trkpt lat="44.7944260" lon="7.1318590">
        <ele>973.8</ele>
        <time>2017-07-26T07:25:00Z</time>
      </trkpt>
      <trkpt lat="44.7943740" lon="7.1318040">
        <ele>974.8</ele>
        <time>2017-07-26T07:25:05Z</time>
      </trkpt>
      <trkpt lat="44.7943660" lon="7.1317870">
        <ele>974.8</ele>
        <time>2017-07-26T07:25:06Z</time>
      </trkpt>
      <trkpt lat="44.7943140" lon="7.1317130">
        <ele>976.0</ele>
        <time>2017-07-26T07:25:11Z</time>
      </trkpt>
      <trkpt lat="44.7943030" lon="7.1317040">
        <ele>976.2</ele>
        <time>2017-07-26T07:25:12Z</time>
      </trkpt>
      <trkpt lat="44.7942620" lon="7.1316600">
        <ele>977.2</ele>
        <time>2017-07-26T07:25:16Z</time>
      </trkpt>
      <trkpt lat="44.7942460" lon="7.1316360">
        <ele>977.8</ele>
        <time>2017-07-26T07:25:18Z</time>
      </trkpt>
      <trkpt lat="44.7942300" lon="7.1316020">
        <ele>978.6</ele>
        <time>2017-07-26T07:25:20Z</time>
      </trkpt>
      <trkpt lat="44.7941990" lon="7.1315170">
        <ele>979.8</ele>
        <time>2017-07-26T07:25:24Z</time>
      </trkpt>
      <trkpt lat="44.7941980" lon="7.1314880">
        <ele>980.0</ele>
        <time>2017-07-26T07:25:25Z</time>
      </trkpt>
      <trkpt lat="44.7941800" lon="7.1313850">
        <ele>980.8</ele>
        <time>2017-07-26T07:25:29Z</time>
      </trkpt>
      <trkpt lat="44.7941870" lon="7.1313410">
        <ele>981.2</ele>
        <time>2017-07-26T07:25:31Z</time>
      </trkpt>
      <trkpt lat="44.7942050" lon="7.1312620">
        <ele>981.8</ele>
        <time>2017-07-26T07:25:34Z</time>
      </trkpt>
      <trkpt lat="44.7942200" lon="7.1311700">
        <ele>982.6</ele>
        <time>2017-07-26T07:25:38Z</time>
      </trkpt>
      <trkpt lat="44.7942290" lon="7.1311270">
        <ele>983.0</ele>
        <time>2017-07-26T07:25:40Z</time>
      </trkpt>
      <trkpt lat="44.7942790" lon="7.1309890">
        <ele>984.2</ele>
        <time>2017-07-26T07:25:46Z</time>
      </trkpt>
      <trkpt lat="44.7942870" lon="7.1309650">
        <ele>984.4</ele>
        <time>2017-07-26T07:25:47Z</time>
      </trkpt>
      <trkpt lat="44.7943200" lon="7.1308860">
        <ele>985.2</ele>
        <time>2017-07-26T07:25:51Z</time>
      </trkpt>
      <trkpt lat="44.7943550" lon="7.1308170">
        <ele>986.4</ele>
        <time>2017-07-26T07:25:55Z</time>
      </trkpt>
      <trkpt lat="44.7943640" lon="7.1308010">
        <ele>986.6</ele>
        <time>2017-07-26T07:25:56Z</time>
      </trkpt>
      <trkpt lat="44.7943710" lon="7.1307820">
        <ele>986.8</ele>
        <time>2017-07-26T07:25:57Z</time>
      </trkpt>
      <trkpt lat="44.7943840" lon="7.1307250">
        <ele>987.6</ele>
        <time>2017-07-26T07:26:00Z</time>
      </trkpt>
      <trkpt lat="44.7943840" lon="7.1306880">
        <ele>988.2</ele>
        <time>2017-07-26T07:26:02Z</time>
      </trkpt>
      <trkpt lat="44.7943830" lon="7.1306700">
        <ele>988.6</ele>
        <time>2017-07-26T07:26:03Z</time>
      </trkpt>
      <trkpt lat="44.7943810" lon="7.1306520">
        <ele>989.0</ele>
        <time>2017-07-26T07:26:04Z</time>
      </trkpt>
      <trkpt lat="44.7943600" lon="7.1305960">
        <ele>989.6</ele>
        <time>2017-07-26T07:26:07Z</time>
      </trkpt>
      <trkpt lat="44.7943530" lon="7.1305720">
        <ele>990.2</ele>
        <time>2017-07-26T07:26:08Z</time>
      </trkpt>
      <trkpt lat="44.7943440" lon="7.1305500">
        <ele>990.6</ele>
        <time>2017-07-26T07:26:09Z</time>
      </trkpt>
      <trkpt lat="44.7943290" lon="7.1305310">
        <ele>990.8</ele>
        <time>2017-07-26T07:26:10Z</time>
      </trkpt>
      <trkpt lat="44.7942640" lon="7.1304790">
        <ele>991.8</ele>
        <time>2017-07-26T07:26:14Z</time>
      </trkpt>
      <trkpt lat="44.7942510" lon="7.1304640">
        <ele>992.2</ele>
        <time>2017-07-26T07:26:15Z</time>
      </trkpt>
      <trkpt lat="44.7942140" lon="7.1304380">
        <ele>993.0</ele>
        <time>2017-07-26T07:26:18Z</time>
      </trkpt>
      <trkpt lat="44.7941790" lon="7.1304040">
        <ele>994.0</ele>
        <time>2017-07-26T07:26:21Z</time>
      </trkpt>
      <trkpt lat="44.7941640" lon="7.1303960">
        <ele>994.2</ele>
        <time>2017-07-26T07:26:22Z</time>
      </trkpt>
      <trkpt lat="44.7940810" lon="7.1303610">
        <ele>995.2</ele>
        <time>2017-07-26T07:26:27Z</time>
      </trkpt>
      <trkpt lat="44.7939820" lon="7.1303180">
        <ele>996.4</ele>
        <time>2017-07-26T07:26:33Z</time>
      </trkpt>
      <trkpt lat="44.7939490" lon="7.1303040">
        <ele>996.8</ele>
        <time>2017-07-26T07:26:35Z</time>
      </trkpt>
      <trkpt lat="44.7937990" lon="7.1302300">
        <ele>996.6</ele>
        <time>2017-07-26T07:26:43Z</time>
      </trkpt>
      <trkpt lat="44.7937770" lon="7.1302260">
        <ele>996.6</ele>
        <time>2017-07-26T07:26:44Z</time>
      </trkpt>
      <trkpt lat="44.7936510" lon="7.1302280">
        <ele>997.4</ele>
        <time>2017-07-26T07:26:49Z</time>
      </trkpt>
      <trkpt lat="44.7936240" lon="7.1302180">
        <ele>997.8</ele>
        <time>2017-07-26T07:26:50Z</time>
      </trkpt>
      <trkpt lat="44.7935500" lon="7.1301770">
        <ele>998.6</ele>
        <time>2017-07-26T07:26:53Z</time>
      </trkpt>
      <trkpt lat="44.7934900" lon="7.1301270">
        <ele>1000.0</ele>
        <time>2017-07-26T07:26:56Z</time>
      </trkpt>
      <trkpt lat="44.7934240" lon="7.1300690">
        <ele>1001.0</ele>
        <time>2017-07-26T07:26:59Z</time>
      </trkpt>
      <trkpt lat="44.7933500" lon="7.1300110">
        <ele>1002.2</ele>
        <time>2017-07-26T07:27:02Z</time>
      </trkpt>
      <trkpt lat="44.7932310" lon="7.1299120">
        <ele>1003.2</ele>
        <time>2017-07-26T07:27:06Z</time>
      </trkpt>
      <trkpt lat="44.7931200" lon="7.1298330">
        <ele>1003.8</ele>
        <time>2017-07-26T07:27:09Z</time>
      </trkpt>
      <trkpt lat="44.7930450" lon="7.1297740">
        <ele>1004.2</ele>
        <time>2017-07-26T07:27:11Z</time>
      </trkpt>
      <trkpt lat="44.7928580" lon="7.1296410">
        <ele>1005.2</ele>
        <time>2017-07-26T07:27:16Z</time>
      </trkpt>
      <trkpt lat="44.7928220" lon="7.1296230">
        <ele>1005.4</ele>
        <time>2017-07-26T07:27:17Z</time>
      </trkpt>
      <trkpt lat="44.7926270" lon="7.1295670">
        <ele>1006.0</ele>
        <time>2017-07-26T07:27:22Z</time>
      </trkpt>
      <trkpt lat="44.7924150" lon="7.1295330">
        <ele>1006.4</ele>
        <time>2017-07-26T07:27:27Z</time>
      </trkpt>
      <trkpt lat="44.7923340" lon="7.1295390">
        <ele>1006.2</ele>
        <time>2017-07-26T07:27:29Z</time>
      </trkpt>
      <trkpt lat="44.7921510" lon="7.1296000">
        <ele>1006.4</ele>
        <time>2017-07-26T07:27:34Z</time>
      </trkpt>
      <trkpt lat="44.7921180" lon="7.1296140">
        <ele>1006.4</ele>
        <time>2017-07-26T07:27:35Z</time>
      </trkpt>
      <trkpt lat="44.7919730" lon="7.1296510">
        <ele>1006.4</ele>
        <time>2017-07-26T07:27:39Z</time>
      </trkpt>
      <trkpt lat="44.7918450" lon="7.1296690">
        <ele>1006.6</ele>
        <time>2017-07-26T07:27:42Z</time>
      </trkpt>
      <trkpt lat="44.7917100" lon="7.1296740">
        <ele>1006.2</ele>
        <time>2017-07-26T07:27:45Z</time>
      </trkpt>
      <trkpt lat="44.7915550" lon="7.1296520">
        <ele>1006.4</ele>
        <time>2017-07-26T07:27:48Z</time>
      </trkpt>
      <trkpt lat="44.7912710" lon="7.1295880">
        <ele>1006.6</ele>
        <time>2017-07-26T07:27:54Z</time>
      </trkpt>
      <trkpt lat="44.7910830" lon="7.1295720">
        <ele>1006.4</ele>
        <time>2017-07-26T07:27:59Z</time>
      </trkpt>
      <trkpt lat="44.7909290" lon="7.1295740">
        <ele>1006.6</ele>
        <time>2017-07-26T07:28:05Z</time>
      </trkpt>
      <trkpt lat="44.7906390" lon="7.1294970">
        <ele>1006.8</ele>
        <time>2017-07-26T07:28:12Z</time>
      </trkpt>
      <trkpt lat="44.7905270" lon="7.1293940">
        <ele>1007.2</ele>
        <time>2017-07-26T07:28:16Z</time>
      </trkpt>
      <trkpt lat="44.7904940" lon="7.1292780">
        <ele>1007.4</ele>
        <time>2017-07-26T07:28:19Z</time>
      </trkpt>
      <trkpt lat="44.7904600" lon="7.1291380">
        <ele>1007.4</ele>
        <time>2017-07-26T07:28:22Z</time>
      </trkpt>
      <trkpt lat="44.7904140" lon="7.1288790">
        <ele>1007.8</ele>
        <time>2017-07-26T07:28:27Z</time>
      </trkpt>
      <trkpt lat="44.7904020" lon="7.1288260">
        <ele>1008.0</ele>
        <time>2017-07-26T07:28:28Z</time>
      </trkpt>
      <trkpt lat="44.7903580" lon="7.1286740">
        <ele>1008.4</ele>
        <time>2017-07-26T07:28:31Z</time>
      </trkpt>
      <trkpt lat="44.7902860" lon="7.1285190">
        <ele>1008.8</ele>
        <time>2017-07-26T07:28:34Z</time>
      </trkpt>
      <trkpt lat="44.7902150" lon="7.1284160">
        <ele>1009.0</ele>
        <time>2017-07-26T07:28:36Z</time>
      </trkpt>
      <trkpt lat="44.7900880" lon="7.1282800">
        <ele>1009.4</ele>
        <time>2017-07-26T07:28:39Z</time>
      </trkpt>
      <trkpt lat="44.7900470" lon="7.1282380">
        <ele>1009.6</ele>
        <time>2017-07-26T07:28:40Z</time>
      </trkpt>
      <trkpt lat="44.7898900" lon="7.1280460">
        <ele>1010.2</ele>
        <time>2017-07-26T07:28:45Z</time>
      </trkpt>
      <trkpt lat="44.7897790" lon="7.1277690">
        <ele>1010.4</ele>
        <time>2017-07-26T07:28:51Z</time>
      </trkpt>
      <trkpt lat="44.7897670" lon="7.1277100">
        <ele>1010.6</ele>
        <time>2017-07-26T07:28:52Z</time>
      </trkpt>
      <trkpt lat="44.7897040" lon="7.1273650">
        <ele>1011.2</ele>
        <time>2017-07-26T07:28:58Z</time>
      </trkpt>
      <trkpt lat="44.7895670" lon="7.1272090">
        <ele>1011.4</ele>
        <time>2017-07-26T07:29:02Z</time>
      </trkpt>
      <trkpt lat="44.7894520" lon="7.1271100">
        <ele>1011.6</ele>
        <time>2017-07-26T07:29:05Z</time>
      </trkpt>
      <trkpt lat="44.7893360" lon="7.1270050">
        <ele>1011.6</ele>
        <time>2017-07-26T07:29:08Z</time>
      </trkpt>
      <trkpt lat="44.7892990" lon="7.1269750">
        <ele>1011.6</ele>
        <time>2017-07-26T07:29:09Z</time>
      </trkpt>
      <trkpt lat="44.7891760" lon="7.1268860">
        <ele>1011.8</ele>
        <time>2017-07-26T07:29:12Z</time>
      </trkpt>
      <trkpt lat="44.7890930" lon="7.1268410">
        <ele>1011.8</ele>
        <time>2017-07-26T07:29:14Z</time>
      </trkpt>
      <trkpt lat="44.7888800" lon="7.1267290">
        <ele>1012.2</ele>
        <time>2017-07-26T07:29:20Z</time>
      </trkpt>
      <trkpt lat="44.7888020" lon="7.1266290">
        <ele>1012.4</ele>
        <time>2017-07-26T07:29:23Z</time>
      </trkpt>
      <trkpt lat="44.7887870" lon="7.1265800">
        <ele>1012.6</ele>
        <time>2017-07-26T07:29:24Z</time>
      </trkpt>
      <trkpt lat="44.7887710" lon="7.1265270">
        <ele>1012.8</ele>
        <time>2017-07-26T07:29:25Z</time>
      </trkpt>
      <trkpt lat="44.7887580" lon="7.1264700">
        <ele>1013.0</ele>
        <time>2017-07-26T07:29:26Z</time>
      </trkpt>
      <trkpt lat="44.7887440" lon="7.1263060">
        <ele>1013.2</ele>
        <time>2017-07-26T07:29:29Z</time>
      </trkpt>
      <trkpt lat="44.7887670" lon="7.1261240">
        <ele>1013.8</ele>
        <time>2017-07-26T07:29:32Z</time>
      </trkpt>
      <trkpt lat="44.7887710" lon="7.1259960">
        <ele>1014.0</ele>
        <time>2017-07-26T07:29:34Z</time>
      </trkpt>
      <trkpt lat="44.7887680" lon="7.1259290">
        <ele>1014.0</ele>
        <time>2017-07-26T07:29:35Z</time>
      </trkpt>
      <trkpt lat="44.7887710" lon="7.1256780">
        <ele>1014.2</ele>
        <time>2017-07-26T07:29:39Z</time>
      </trkpt>
      <trkpt lat="44.7887860" lon="7.1256160">
        <ele>1014.4</ele>
        <time>2017-07-26T07:29:40Z</time>
      </trkpt>
      <trkpt lat="44.7888390" lon="7.1252930">
        <ele>1014.2</ele>
        <time>2017-07-26T07:29:45Z</time>
      </trkpt>
      <trkpt lat="44.7888790" lon="7.1248520">
        <ele>1014.4</ele>
        <time>2017-07-26T07:29:52Z</time>
      </trkpt>
      <trkpt lat="44.7888840" lon="7.1247910">
        <ele>1014.6</ele>
        <time>2017-07-26T07:29:53Z</time>
      </trkpt>
      <trkpt lat="44.7888580" lon="7.1246890">
        <ele>1014.4</ele>
        <time>2017-07-26T07:29:55Z</time>
      </trkpt>
      <trkpt lat="44.7886890" lon="7.1246220">
        <ele>1013.4</ele>
        <time>2017-07-26T07:29:59Z</time>
      </trkpt>
      <trkpt lat="44.7884960" lon="7.1246040">
        <ele>1013.4</ele>
        <time>2017-07-26T07:30:03Z</time>
      </trkpt>
      <trkpt lat="44.7884590" lon="7.1245920">
        <ele>1013.6</ele>
        <time>2017-07-26T07:30:04Z</time>
      </trkpt>
      <trkpt lat="44.7883400" lon="7.1244440">
        <ele>1014.0</ele>
        <time>2017-07-26T07:30:08Z</time>
      </trkpt>
      <trkpt lat="44.7882680" lon="7.1243580">
        <ele>1014.0</ele>
        <time>2017-07-26T07:30:10Z</time>
      </trkpt>
      <trkpt lat="44.7881730" lon="7.1242910">
        <ele>1014.0</ele>
        <time>2017-07-26T07:30:12Z</time>
      </trkpt>
      <trkpt lat="44.7879970" lon="7.1241930">
        <ele>1014.4</ele>
        <time>2017-07-26T07:30:16Z</time>
      </trkpt>
      <trkpt lat="44.7879540" lon="7.1241640">
        <ele>1014.4</ele>
        <time>2017-07-26T07:30:17Z</time>
      </trkpt>
      <trkpt lat="44.7879090" lon="7.1241390">
        <ele>1014.4</ele>
        <time>2017-07-26T07:30:18Z</time>
      </trkpt>
      <trkpt lat="44.7877570" lon="7.1241210">
        <ele>1014.4</ele>
        <time>2017-07-26T07:30:22Z</time>
      </trkpt>
      <trkpt lat="44.7876190" lon="7.1242550">
        <ele>1014.4</ele>
        <time>2017-07-26T07:30:26Z</time>
      </trkpt>
      <trkpt lat="44.7873940" lon="7.1244720">
        <ele>1014.6</ele>
        <time>2017-07-26T07:30:32Z</time>
      </trkpt>
      <trkpt lat="44.7873570" lon="7.1245100">
        <ele>1014.8</ele>
        <time>2017-07-26T07:30:33Z</time>
      </trkpt>
      <trkpt lat="44.7873200" lon="7.1245500">
        <ele>1014.8</ele>
        <time>2017-07-26T07:30:34Z</time>
      </trkpt>
      <trkpt lat="44.7871750" lon="7.1246910">
        <ele>1014.6</ele>
        <time>2017-07-26T07:30:38Z</time>
      </trkpt>
      <trkpt lat="44.7870420" lon="7.1248430">
        <ele>1014.8</ele>
        <time>2017-07-26T07:30:42Z</time>
      </trkpt>
      <trkpt lat="44.7869810" lon="7.1248840">
        <ele>1014.6</ele>
        <time>2017-07-26T07:30:44Z</time>
      </trkpt>
      <trkpt lat="44.7869150" lon="7.1248360">
        <ele>1015.0</ele>
        <time>2017-07-26T07:30:47Z</time>
      </trkpt>
      <trkpt lat="44.7868810" lon="7.1247420">
        <ele>1015.0</ele>
        <time>2017-07-26T07:30:49Z</time>
      </trkpt>
      <trkpt lat="44.7868530" lon="7.1245850">
        <ele>1015.2</ele>
        <time>2017-07-26T07:30:52Z</time>
      </trkpt>
      <trkpt lat="44.7867720" lon="7.1241740">
        <ele>1015.4</ele>
        <time>2017-07-26T07:30:59Z</time>
      </trkpt>
      <trkpt lat="44.7866630" lon="7.1238020">
        <ele>1015.6</ele>
        <time>2017-07-26T07:31:05Z</time>
      </trkpt>
      <trkpt lat="44.7865660" lon="7.1236280">
        <ele>1015.4</ele>
        <time>2017-07-26T07:31:09Z</time>
      </trkpt>
      <trkpt lat="44.7865510" lon="7.1235690">
        <ele>1015.4</ele>
        <time>2017-07-26T07:31:10Z</time>
      </trkpt>
      <trkpt lat="44.7865310" lon="7.1234130">
        <ele>1015.2</ele>
        <time>2017-07-26T07:31:12Z</time>
      </trkpt>
      <trkpt lat="44.7864860" lon="7.1231550">
        <ele>1015.4</ele>
        <time>2017-07-26T07:31:16Z</time>
      </trkpt>
      <trkpt lat="44.7864330" lon="7.1230520">
        <ele>1015.8</ele>
        <time>2017-07-26T07:31:18Z</time>
      </trkpt>
      <trkpt lat="44.7863470" lon="7.1228370">
        <ele>1015.6</ele>
        <time>2017-07-26T07:31:22Z</time>
      </trkpt>
      <trkpt lat="44.7862710" lon="7.1226210">
        <ele>1015.8</ele>
        <time>2017-07-26T07:31:26Z</time>
      </trkpt>
      <trkpt lat="44.7862590" lon="7.1225740">
        <ele>1015.8</ele>
        <time>2017-07-26T07:31:27Z</time>
      </trkpt>
      <trkpt lat="44.7862590" lon="7.1223640">
        <ele>1016.2</ele>
        <time>2017-07-26T07:31:32Z</time>
      </trkpt>
      <trkpt lat="44.7862950" lon="7.1222860">
        <ele>1016.2</ele>
        <time>2017-07-26T07:31:34Z</time>
      </trkpt>
      <trkpt lat="44.7863370" lon="7.1221920">
        <ele>1016.0</ele>
        <time>2017-07-26T07:31:36Z</time>
      </trkpt>
      <trkpt lat="44.7864340" lon="7.1219710">
        <ele>1016.2</ele>
        <time>2017-07-26T07:31:40Z</time>
      </trkpt>
      <trkpt lat="44.7864390" lon="7.1218250">
        <ele>1016.0</ele>
        <time>2017-07-26T07:31:42Z</time>
      </trkpt>
      <trkpt lat="44.7864260" lon="7.1216870">
        <ele>1015.8</ele>
        <time>2017-07-26T07:31:44Z</time>
      </trkpt>
      <trkpt lat="44.7864140" lon="7.1215170">
        <ele>1016.2</ele>
        <time>2017-07-26T07:31:47Z</time>
      </trkpt>
      <trkpt lat="44.7864050" lon="7.1214600">
        <ele>1016.2</ele>
        <time>2017-07-26T07:31:48Z</time>
      </trkpt>
      <trkpt lat="44.7863480" lon="7.1211560">
        <ele>1016.6</ele>
        <time>2017-07-26T07:31:53Z</time>
      </trkpt>
      <trkpt lat="44.7863270" lon="7.1210420">
        <ele>1016.8</ele>
        <time>2017-07-26T07:31:55Z</time>
      </trkpt>
      <trkpt lat="44.7863090" lon="7.1209300">
        <ele>1017.0</ele>
        <time>2017-07-26T07:31:57Z</time>
      </trkpt>
      <trkpt lat="44.7862750" lon="7.1208270">
        <ele>1017.4</ele>
        <time>2017-07-26T07:31:59Z</time>
      </trkpt>
      <trkpt lat="44.7861740" lon="7.1205670">
        <ele>1018.0</ele>
        <time>2017-07-26T07:32:04Z</time>
      </trkpt>
      <trkpt lat="44.7861450" lon="7.1204590">
        <ele>1018.0</ele>
        <time>2017-07-26T07:32:06Z</time>
      </trkpt>
      <trkpt lat="44.7860480" lon="7.1201930">
        <ele>1018.8</ele>
        <time>2017-07-26T07:32:11Z</time>
      </trkpt>
      <trkpt lat="44.7859910" lon="7.1201000">
        <ele>1019.0</ele>
        <time>2017-07-26T07:32:13Z</time>
      </trkpt>
      <trkpt lat="44.7858630" lon="7.1198660">
        <ele>1019.2</ele>
        <time>2017-07-26T07:32:17Z</time>
      </trkpt>
      <trkpt lat="44.7856820" lon="7.1197610">
        <ele>1019.4</ele>
        <time>2017-07-26T07:32:21Z</time>
      </trkpt>
      <trkpt lat="44.7856340" lon="7.1197550">
        <ele>1019.6</ele>
        <time>2017-07-26T07:32:22Z</time>
      </trkpt>
      <trkpt lat="44.7855440" lon="7.1197460">
        <ele>1019.6</ele>
        <time>2017-07-26T07:32:24Z</time>
      </trkpt>
      <trkpt lat="44.7854160" lon="7.1197300">
        <ele>1020.0</ele>
        <time>2017-07-26T07:32:27Z</time>
      </trkpt>
      <trkpt lat="44.7851170" lon="7.1196220">
        <ele>1020.6</ele>
        <time>2017-07-26T07:32:34Z</time>
      </trkpt>
      <trkpt lat="44.7850350" lon="7.1195700">
        <ele>1020.8</ele>
        <time>2017-07-26T07:32:36Z</time>
      </trkpt>
      <trkpt lat="44.7849580" lon="7.1194200">
        <ele>1021.0</ele>
        <time>2017-07-26T07:32:39Z</time>
      </trkpt>
      <trkpt lat="44.7849340" lon="7.1193630">
        <ele>1021.2</ele>
        <time>2017-07-26T07:32:40Z</time>
      </trkpt>
      <trkpt lat="44.7848350" lon="7.1192260">
        <ele>1021.6</ele>
        <time>2017-07-26T07:32:43Z</time>
      </trkpt>
      <trkpt lat="44.7846700" lon="7.1190980">
        <ele>1022.2</ele>
        <time>2017-07-26T07:32:47Z</time>
      </trkpt>
      <trkpt lat="44.7845820" lon="7.1190540">
        <ele>1022.6</ele>
        <time>2017-07-26T07:32:49Z</time>
      </trkpt>
      <trkpt lat="44.7842280" lon="7.1189670">
        <ele>1022.4</ele>
        <time>2017-07-26T07:32:56Z</time>
      </trkpt>
      <trkpt lat="44.7841270" lon="7.1189520">
        <ele>1022.2</ele>
        <time>2017-07-26T07:32:58Z</time>
      </trkpt>
      <trkpt lat="44.7839700" lon="7.1190020">
        <ele>1022.2</ele>
        <time>2017-07-26T07:33:01Z</time>
      </trkpt>
      <trkpt lat="44.7839180" lon="7.1190270">
        <ele>1022.0</ele>
        <time>2017-07-26T07:33:02Z</time>
      </trkpt>
      <trkpt lat="44.7837250" lon="7.1191100">
        <ele>1021.8</ele>
        <time>2017-07-26T07:33:06Z</time>
      </trkpt>
      <trkpt lat="44.7835680" lon="7.1190170">
        <ele>1021.6</ele>
        <time>2017-07-26T07:33:10Z</time>
      </trkpt>
      <trkpt lat="44.7833910" lon="7.1188840">
        <ele>1021.4</ele>
        <time>2017-07-26T07:33:15Z</time>
      </trkpt>
      <trkpt lat="44.7832950" lon="7.1186560">
        <ele>1021.4</ele>
        <time>2017-07-26T07:33:20Z</time>
      </trkpt>
      <trkpt lat="44.7832040" lon="7.1185020">
        <ele>1021.6</ele>
        <time>2017-07-26T07:33:23Z</time>
      </trkpt>
      <trkpt lat="44.7831160" lon="7.1184420">
        <ele>1021.6</ele>
        <time>2017-07-26T07:33:25Z</time>
      </trkpt>
      <trkpt lat="44.7829610" lon="7.1184560">
        <ele>1022.0</ele>
        <time>2017-07-26T07:33:28Z</time>
      </trkpt>
      <trkpt lat="44.7828580" lon="7.1184490">
        <ele>1022.0</ele>
        <time>2017-07-26T07:33:30Z</time>
      </trkpt>
      <trkpt lat="44.7826940" lon="7.1184250">
        <ele>1022.0</ele>
        <time>2017-07-26T07:33:33Z</time>
      </trkpt>
      <trkpt lat="44.7825540" lon="7.1183850">
        <ele>1022.0</ele>
        <time>2017-07-26T07:33:36Z</time>
      </trkpt>
      <trkpt lat="44.7824600" lon="7.1183820">
        <ele>1021.8</ele>
        <time>2017-07-26T07:33:38Z</time>
      </trkpt>
      <trkpt lat="44.7822870" lon="7.1185120">
        <ele>1021.6</ele>
        <time>2017-07-26T07:33:42Z</time>
      </trkpt>
      <trkpt lat="44.7822280" lon="7.1186170">
        <ele>1021.4</ele>
        <time>2017-07-26T07:33:44Z</time>
      </trkpt>
      <trkpt lat="44.7822000" lon="7.1186710">
        <ele>1021.0</ele>
        <time>2017-07-26T07:33:45Z</time>
      </trkpt>
      <trkpt lat="44.7821700" lon="7.1187220">
        <ele>1021.0</ele>
        <time>2017-07-26T07:33:46Z</time>
      </trkpt>
      <trkpt lat="44.7821370" lon="7.1187580">
        <ele>1021.0</ele>
        <time>2017-07-26T07:33:47Z</time>
      </trkpt>
      <trkpt lat="44.7820770" lon="7.1187630">
        <ele>1020.8</ele>
        <time>2017-07-26T07:33:49Z</time>
      </trkpt>
      <trkpt lat="44.7820210" lon="7.1186750">
        <ele>1020.6</ele>
        <time>2017-07-26T07:33:52Z</time>
      </trkpt>
      <trkpt lat="44.7820040" lon="7.1186430">
        <ele>1020.6</ele>
        <time>2017-07-26T07:33:53Z</time>
      </trkpt>
      <trkpt lat="44.7819470" lon="7.1184250">
        <ele>1020.8</ele>
        <time>2017-07-26T07:33:58Z</time>
      </trkpt>
      <trkpt lat="44.7819530" lon="7.1181410">
        <ele>1021.2</ele>
        <time>2017-07-26T07:34:04Z</time>
      </trkpt>
      <trkpt lat="44.7819510" lon="7.1179060">
        <ele>1022.2</ele>
        <time>2017-07-26T07:34:09Z</time>
      </trkpt>
      <trkpt lat="44.7819600" lon="7.1178450">
        <ele>1022.2</ele>
        <time>2017-07-26T07:34:10Z</time>
      </trkpt>
      <trkpt lat="44.7820040" lon="7.1176610">
        <ele>1022.2</ele>
        <time>2017-07-26T07:34:13Z</time>
      </trkpt>
      <trkpt lat="44.7820470" lon="7.1175520">
        <ele>1022.4</ele>
        <time>2017-07-26T07:34:15Z</time>
      </trkpt>
      <trkpt lat="44.7821460" lon="7.1172540">
        <ele>1022.4</ele>
        <time>2017-07-26T07:34:20Z</time>
      </trkpt>
      <trkpt lat="44.7821480" lon="7.1171920">
        <ele>1022.4</ele>
        <time>2017-07-26T07:34:21Z</time>
      </trkpt>
      <trkpt lat="44.7820970" lon="7.1170500">
        <ele>1022.6</ele>
        <time>2017-07-26T07:34:24Z</time>
      </trkpt>
      <trkpt lat="44.7820370" lon="7.1168180">
        <ele>1022.6</ele>
        <time>2017-07-26T07:34:28Z</time>
      </trkpt>
      <trkpt lat="44.7819220" lon="7.1166100">
        <ele>1022.8</ele>
        <time>2017-07-26T07:34:32Z</time>
      </trkpt>
      <trkpt lat="44.7818840" lon="7.1165670">
        <ele>1022.8</ele>
        <time>2017-07-26T07:34:33Z</time>
      </trkpt>
      <trkpt lat="44.7817800" lon="7.1164190">
        <ele>1023.2</ele>
        <time>2017-07-26T07:34:36Z</time>
      </trkpt>
      <trkpt lat="44.7817520" lon="7.1163620">
        <ele>1023.4</ele>
        <time>2017-07-26T07:34:37Z</time>
      </trkpt>
      <trkpt lat="44.7816090" lon="7.1159930">
        <ele>1023.8</ele>
        <time>2017-07-26T07:34:43Z</time>
      </trkpt>
      <trkpt lat="44.7815630" lon="7.1158640">
        <ele>1023.6</ele>
        <time>2017-07-26T07:34:45Z</time>
      </trkpt>
      <trkpt lat="44.7815180" lon="7.1157460">
        <ele>1023.8</ele>
        <time>2017-07-26T07:34:47Z</time>
      </trkpt>
      <trkpt lat="44.7814660" lon="7.1154970">
        <ele>1024.2</ele>
        <time>2017-07-26T07:34:51Z</time>
      </trkpt>
      <trkpt lat="44.7814440" lon="7.1152950">
        <ele>1024.8</ele>
        <time>2017-07-26T07:34:54Z</time>
      </trkpt>
      <trkpt lat="44.7814190" lon="7.1151620">
        <ele>1024.8</ele>
        <time>2017-07-26T07:34:56Z</time>
      </trkpt>
      <trkpt lat="44.7813660" lon="7.1149980">
        <ele>1025.2</ele>
        <time>2017-07-26T07:34:59Z</time>
      </trkpt>
      <trkpt lat="44.7813430" lon="7.1149540">
        <ele>1025.4</ele>
        <time>2017-07-26T07:35:00Z</time>
      </trkpt>
      <trkpt lat="44.7812800" lon="7.1148680">
        <ele>1025.6</ele>
        <time>2017-07-26T07:35:03Z</time>
      </trkpt>
      <trkpt lat="44.7811150" lon="7.1146910">
        <ele>1026.0</ele>
        <time>2017-07-26T07:35:07Z</time>
      </trkpt>
      <trkpt lat="44.7809820" lon="7.1145590">
        <ele>1026.4</ele>
        <time>2017-07-26T07:35:10Z</time>
      </trkpt>
      <trkpt lat="44.7809260" lon="7.1145230">
        <ele>1026.4</ele>
        <time>2017-07-26T07:35:11Z</time>
      </trkpt>
      <trkpt lat="44.7808720" lon="7.1144920">
        <ele>1026.4</ele>
        <time>2017-07-26T07:35:12Z</time>
      </trkpt>
      <trkpt lat="44.7806890" lon="7.1144010">
        <ele>1026.2</ele>
        <time>2017-07-26T07:35:15Z</time>
      </trkpt>
      <trkpt lat="44.7805260" lon="7.1143480">
        <ele>1026.4</ele>
        <time>2017-07-26T07:35:18Z</time>
      </trkpt>
      <trkpt lat="44.7804780" lon="7.1143250">
        <ele>1026.4</ele>
        <time>2017-07-26T07:35:19Z</time>
      </trkpt>
      <trkpt lat="44.7803420" lon="7.1142280">
        <ele>1026.0</ele>
        <time>2017-07-26T07:35:22Z</time>
      </trkpt>
      <trkpt lat="44.7802900" lon="7.1142020">
        <ele>1026.0</ele>
        <time>2017-07-26T07:35:23Z</time>
      </trkpt>
      <trkpt lat="44.7801120" lon="7.1141330">
        <ele>1026.0</ele>
        <time>2017-07-26T07:35:26Z</time>
      </trkpt>
      <trkpt lat="44.7800060" lon="7.1140870">
        <ele>1026.0</ele>
        <time>2017-07-26T07:35:28Z</time>
      </trkpt>
      <trkpt lat="44.7798920" lon="7.1140730">
        <ele>1026.0</ele>
        <time>2017-07-26T07:35:30Z</time>
      </trkpt>
      <trkpt lat="44.7798330" lon="7.1140650">
        <ele>1026.0</ele>
        <time>2017-07-26T07:35:31Z</time>
      </trkpt>
      <trkpt lat="44.7797170" lon="7.1139240">
        <ele>1025.6</ele>
        <time>2017-07-26T07:35:34Z</time>
      </trkpt>
      <trkpt lat="44.7796820" lon="7.1138740">
        <ele>1025.6</ele>
        <time>2017-07-26T07:35:35Z</time>
      </trkpt>
      <trkpt lat="44.7795920" lon="7.1138280">
        <ele>1025.8</ele>
        <time>2017-07-26T07:35:37Z</time>
      </trkpt>
      <trkpt lat="44.7794870" lon="7.1138220">
        <ele>1025.8</ele>
        <time>2017-07-26T07:35:39Z</time>
      </trkpt>
      <trkpt lat="44.7794260" lon="7.1138170">
        <ele>1025.6</ele>
        <time>2017-07-26T07:35:40Z</time>
      </trkpt>
      <trkpt lat="44.7793680" lon="7.1137990">
        <ele>1025.8</ele>
        <time>2017-07-26T07:35:41Z</time>
      </trkpt>
      <trkpt lat="44.7792070" lon="7.1137200">
        <ele>1025.4</ele>
        <time>2017-07-26T07:35:44Z</time>
      </trkpt>
      <trkpt lat="44.7791190" lon="7.1136550">
        <ele>1025.2</ele>
        <time>2017-07-26T07:35:46Z</time>
      </trkpt>
      <trkpt lat="44.7790820" lon="7.1136170">
        <ele>1024.8</ele>
        <time>2017-07-26T07:35:47Z</time>
      </trkpt>
      <trkpt lat="44.7789330" lon="7.1134390">
        <ele>1024.8</ele>
        <time>2017-07-26T07:35:51Z</time>
      </trkpt>
      <trkpt lat="44.7788280" lon="7.1133210">
        <ele>1024.8</ele>
        <time>2017-07-26T07:35:54Z</time>
      </trkpt>
      <trkpt lat="44.7787830" lon="7.1133010">
        <ele>1024.6</ele>
        <time>2017-07-26T07:35:55Z</time>
      </trkpt>
      <trkpt lat="44.7786480" lon="7.1132930">
        <ele>1024.6</ele>
        <time>2017-07-26T07:35:58Z</time>
      </trkpt>
      <trkpt lat="44.7785520" lon="7.1132850">
        <ele>1024.8</ele>
        <time>2017-07-26T07:36:00Z</time>
      </trkpt>
      <trkpt lat="44.7784580" lon="7.1132680">
        <ele>1024.8</ele>
        <time>2017-07-26T07:36:02Z</time>
      </trkpt>
      <trkpt lat="44.7783590" lon="7.1132280">
        <ele>1024.6</ele>
        <time>2017-07-26T07:36:04Z</time>
      </trkpt>
      <trkpt lat="44.7782660" lon="7.1131780">
        <ele>1024.4</ele>
        <time>2017-07-26T07:36:06Z</time>
      </trkpt>
      <trkpt lat="44.7781720" lon="7.1131300">
        <ele>1024.2</ele>
        <time>2017-07-26T07:36:08Z</time>
      </trkpt>
      <trkpt lat="44.7781230" lon="7.1131140">
        <ele>1023.6</ele>
        <time>2017-07-26T07:36:09Z</time>
      </trkpt>
      <trkpt lat="44.7778310" lon="7.1130020">
        <ele>1023.2</ele>
        <time>2017-07-26T07:36:15Z</time>
      </trkpt>
      <trkpt lat="44.7777260" lon="7.1129200">
        <ele>1023.0</ele>
        <time>2017-07-26T07:36:18Z</time>
      </trkpt>
      <trkpt lat="44.7776660" lon="7.1128330">
        <ele>1022.8</ele>
        <time>2017-07-26T07:36:20Z</time>
      </trkpt>
      <trkpt lat="44.7774400" lon="7.1125310">
        <ele>1023.2</ele>
        <time>2017-07-26T07:36:27Z</time>
      </trkpt>
      <trkpt lat="44.7773050" lon="7.1123460">
        <ele>1023.6</ele>
        <time>2017-07-26T07:36:31Z</time>
      </trkpt>
      <trkpt lat="44.7772560" lon="7.1122300">
        <ele>1024.0</ele>
        <time>2017-07-26T07:36:33Z</time>
      </trkpt>
      <trkpt lat="44.7772070" lon="7.1121080">
        <ele>1024.2</ele>
        <time>2017-07-26T07:36:35Z</time>
      </trkpt>
      <trkpt lat="44.7771250" lon="7.1119180">
        <ele>1024.6</ele>
        <time>2017-07-26T07:36:38Z</time>
      </trkpt>
      <trkpt lat="44.7770860" lon="7.1118690">
        <ele>1024.6</ele>
        <time>2017-07-26T07:36:39Z</time>
      </trkpt>
      <trkpt lat="44.7769500" lon="7.1117750">
        <ele>1025.0</ele>
        <time>2017-07-26T07:36:42Z</time>
      </trkpt>
      <trkpt lat="44.7769000" lon="7.1117530">
        <ele>1025.0</ele>
        <time>2017-07-26T07:36:43Z</time>
      </trkpt>
      <trkpt lat="44.7767420" lon="7.1116750">
        <ele>1024.6</ele>
        <time>2017-07-26T07:36:46Z</time>
      </trkpt>
      <trkpt lat="44.7766940" lon="7.1115740">
        <ele>1023.8</ele>
        <time>2017-07-26T07:36:48Z</time>
      </trkpt>
      <trkpt lat="44.7767340" lon="7.1113530">
        <ele>1023.4</ele>
        <time>2017-07-26T07:36:51Z</time>
      </trkpt>
      <trkpt lat="44.7767400" lon="7.1112580">
        <ele>1022.8</ele>
        <time>2017-07-26T07:36:52Z</time>
      </trkpt>
      <trkpt lat="44.7767630" lon="7.1110830">
        <ele>1022.2</ele>
        <time>2017-07-26T07:36:54Z</time>
      </trkpt>
      <trkpt lat="44.7768310" lon="7.1109420">
        <ele>1021.6</ele>
        <time>2017-07-26T07:36:56Z</time>
      </trkpt>
      <trkpt lat="44.7768700" lon="7.1108850">
        <ele>1021.2</ele>
        <time>2017-07-26T07:36:57Z</time>
      </trkpt>
      <trkpt lat="44.7769940" lon="7.1108200">
        <ele>1020.8</ele>
        <time>2017-07-26T07:37:00Z</time>
      </trkpt>
      <trkpt lat="44.7770260" lon="7.1108160">
        <ele>1020.8</ele>
        <time>2017-07-26T07:37:01Z</time>
      </trkpt>
      <trkpt lat="44.7770770" lon="7.1108130">
        <ele>1020.6</ele>
        <time>2017-07-26T07:37:03Z</time>
      </trkpt>
      <trkpt lat="44.7771070" lon="7.1107920">
        <ele>1020.4</ele>
        <time>2017-07-26T07:37:05Z</time>
      </trkpt>
      <trkpt lat="44.7770700" lon="7.1107390">
        <ele>1020.4</ele>
        <time>2017-07-26T07:37:08Z</time>
      </trkpt>
      <trkpt lat="44.7769730" lon="7.1107220">
        <ele>1020.8</ele>
        <time>2017-07-26T07:37:12Z</time>
      </trkpt>
      <trkpt lat="44.7769290" lon="7.1107030">
        <ele>1021.0</ele>
        <time>2017-07-26T07:37:14Z</time>
      </trkpt>
      <trkpt lat="44.7768390" lon="7.1106920">
        <ele>1021.4</ele>
        <time>2017-07-26T07:37:18Z</time>
      </trkpt>
      <trkpt lat="44.7767910" lon="7.1106820">
        <ele>1021.6</ele>
        <time>2017-07-26T07:37:20Z</time>
      </trkpt>
      <trkpt lat="44.7767660" lon="7.1106760">
        <ele>1021.8</ele>
        <time>2017-07-26T07:37:21Z</time>
      </trkpt>
      <trkpt lat="44.7766960" lon="7.1106480">
        <ele>1022.8</ele>
        <time>2017-07-26T07:37:24Z</time>
      </trkpt>
      <trkpt lat="44.7766100" lon="7.1105920">
        <ele>1024.0</ele>
        <time>2017-07-26T07:37:28Z</time>
      </trkpt>
      <trkpt lat="44.7765920" lon="7.1105730">
        <ele>1024.4</ele>
        <time>2017-07-26T07:37:29Z</time>
      </trkpt>
      <trkpt lat="44.7765580" lon="7.1105260">
        <ele>1025.2</ele>
        <time>2017-07-26T07:37:31Z</time>
      </trkpt>
      <trkpt lat="44.7765260" lon="7.1104420">
        <ele>1026.2</ele>
        <time>2017-07-26T07:37:34Z</time>
      </trkpt>
      <trkpt lat="44.7765130" lon="7.1104200">
        <ele>1026.4</ele>
        <time>2017-07-26T07:37:35Z</time>
      </trkpt>
      <trkpt lat="44.7765010" lon="7.1103990">
        <ele>1026.8</ele>
        <time>2017-07-26T07:37:36Z</time>
      </trkpt>
      <trkpt lat="44.7764760" lon="7.1103580">
        <ele>1027.4</ele>
        <time>2017-07-26T07:37:38Z</time>
      </trkpt>
      <trkpt lat="44.7764310" lon="7.1102790">
        <ele>1028.6</ele>
        <time>2017-07-26T07:37:42Z</time>
      </trkpt>
      <trkpt lat="44.7764030" lon="7.1102160">
        <ele>1016.8</ele>
        <time>2017-07-26T07:37:45Z</time>
      </trkpt>
      <trkpt lat="44.7763840" lon="7.1101660">
        <ele>1031.0</ele>
        <time>2017-07-26T07:37:47Z</time>
      </trkpt>
      <trkpt lat="44.7763660" lon="7.1101220">
        <ele>1031.8</ele>
        <time>2017-07-26T07:37:49Z</time>
      </trkpt>
      <trkpt lat="44.7763550" lon="7.1101010">
        <ele>1032.2</ele>
        <time>2017-07-26T07:37:50Z</time>
      </trkpt>
      <trkpt lat="44.7763220" lon="7.1100470">
        <ele>1032.6</ele>
        <time>2017-07-26T07:37:53Z</time>
      </trkpt>
      <trkpt lat="44.7763110" lon="7.1100030">
        <ele>1033.2</ele>
        <time>2017-07-26T07:37:55Z</time>
      </trkpt>
      <trkpt lat="44.7762960" lon="7.1099360">
        <ele>1034.2</ele>
        <time>2017-07-26T07:37:58Z</time>
      </trkpt>
      <trkpt lat="44.7762620" lon="7.1098560">
        <ele>1035.2</ele>
        <time>2017-07-26T07:38:02Z</time>
      </trkpt>
      <trkpt lat="44.7762550" lon="7.1098340">
        <ele>1035.6</ele>
        <time>2017-07-26T07:38:03Z</time>
      </trkpt>
      <trkpt lat="44.7762230" lon="7.1097750">
        <ele>1036.8</ele>
        <time>2017-07-26T07:38:06Z</time>
      </trkpt>
      <trkpt lat="44.7762060" lon="7.1097170">
        <ele>1038.2</ele>
        <time>2017-07-26T07:38:09Z</time>
      </trkpt>
      <trkpt lat="44.7761690" lon="7.1096340">
        <ele>1039.2</ele>
        <time>2017-07-26T07:38:14Z</time>
      </trkpt>
      <trkpt lat="44.7761340" lon="7.1095720">
        <ele>1040.4</ele>
        <time>2017-07-26T07:38:18Z</time>
      </trkpt>
      <trkpt lat="44.7761080" lon="7.1095170">
        <ele>1041.8</ele>
        <time>2017-07-26T07:38:21Z</time>
      </trkpt>
      <trkpt lat="44.7760680" lon="7.1094470">
        <ele>1043.0</ele>
        <time>2017-07-26T07:38:25Z</time>
      </trkpt>
      <trkpt lat="44.7760290" lon="7.1094080">
        <ele>1043.2</ele>
        <time>2017-07-26T07:38:28Z</time>
      </trkpt>
      <trkpt lat="44.7760060" lon="7.1093550">
        <ele>1043.8</ele>
        <time>2017-07-26T07:38:31Z</time>
      </trkpt>
      <trkpt lat="44.7759790" lon="7.1093050">
        <ele>1044.2</ele>
        <time>2017-07-26T07:38:34Z</time>
      </trkpt>
      <trkpt lat="44.7759600" lon="7.1092360">
        <ele>1045.0</ele>
        <time>2017-07-26T07:38:37Z</time>
      </trkpt>
      <trkpt lat="44.7759560" lon="7.1092100">
        <ele>1045.4</ele>
        <time>2017-07-26T07:38:38Z</time>
      </trkpt>
      <trkpt lat="44.7759410" lon="7.1091320">
        <ele>1046.8</ele>
        <time>2017-07-26T07:38:41Z</time>
      </trkpt>
      <trkpt lat="44.7759210" lon="7.1090700">
        <ele>1048.0</ele>
        <time>2017-07-26T07:38:44Z</time>
      </trkpt>
      <trkpt lat="44.7759010" lon="7.1089970">
        <ele>1049.0</ele>
        <time>2017-07-26T07:38:47Z</time>
      </trkpt>
      <trkpt lat="44.7759000" lon="7.1089230">
        <ele>1050.4</ele>
        <time>2017-07-26T07:38:50Z</time>
      </trkpt>
      <trkpt lat="44.7758890" lon="7.1088800">
        <ele>1051.2</ele>
        <time>2017-07-26T07:38:52Z</time>
      </trkpt>
      <trkpt lat="44.7758830" lon="7.1088600">
        <ele>1051.6</ele>
        <time>2017-07-26T07:38:53Z</time>
      </trkpt>
      <trkpt lat="44.7758830" lon="7.1087860">
        <ele>1052.8</ele>
        <time>2017-07-26T07:38:56Z</time>
      </trkpt>
      <trkpt lat="44.7758790" lon="7.1087350">
        <ele>1053.8</ele>
        <time>2017-07-26T07:38:58Z</time>
      </trkpt>
      <trkpt lat="44.7758600" lon="7.1086580">
        <ele>1054.8</ele>
        <time>2017-07-26T07:39:01Z</time>
      </trkpt>
      <trkpt lat="44.7758430" lon="7.1085790">
        <ele>1055.8</ele>
        <time>2017-07-26T07:39:04Z</time>
      </trkpt>
      <trkpt lat="44.7758100" lon="7.1084720">
        <ele>1057.0</ele>
        <time>2017-07-26T07:39:08Z</time>
      </trkpt>
      <trkpt lat="44.7758000" lon="7.1083950">
        <ele>1057.8</ele>
        <time>2017-07-26T07:39:11Z</time>
      </trkpt>
      <trkpt lat="44.7757930" lon="7.1083670">
        <ele>1058.0</ele>
        <time>2017-07-26T07:39:12Z</time>
      </trkpt>
      <trkpt lat="44.7757660" lon="7.1082540">
        <ele>1059.4</ele>
        <time>2017-07-26T07:39:16Z</time>
      </trkpt>
      <trkpt lat="44.7757430" lon="7.1081980">
        <ele>1059.8</ele>
        <time>2017-07-26T07:39:18Z</time>
      </trkpt>
      <trkpt lat="44.7757230" lon="7.1081400">
        <ele>1060.6</ele>
        <time>2017-07-26T07:39:20Z</time>
      </trkpt>
      <trkpt lat="44.7757110" lon="7.1080710">
        <ele>1061.8</ele>
        <time>2017-07-26T07:39:22Z</time>
      </trkpt>
      <trkpt lat="44.7757010" lon="7.1080370">
        <ele>1062.0</ele>
        <time>2017-07-26T07:39:23Z</time>
      </trkpt>
      <trkpt lat="44.7756750" lon="7.1079580">
        <ele>1063.0</ele>
        <time>2017-07-26T07:39:26Z</time>
      </trkpt>
      <trkpt lat="44.7756380" lon="7.1078930">
        <ele>1063.8</ele>
        <time>2017-07-26T07:39:29Z</time>
      </trkpt>
      <trkpt lat="44.7756280" lon="7.1078650">
        <ele>1064.0</ele>
        <time>2017-07-26T07:39:30Z</time>
      </trkpt>
      <trkpt lat="44.7755970" lon="7.1077350">
        <ele>1065.2</ele>
        <time>2017-07-26T07:39:34Z</time>
      </trkpt>
      <trkpt lat="44.7755930" lon="7.1077030">
        <ele>1065.6</ele>
        <time>2017-07-26T07:39:35Z</time>
      </trkpt>
      <trkpt lat="44.7755690" lon="7.1076150">
        <ele>1066.4</ele>
        <time>2017-07-26T07:39:38Z</time>
      </trkpt>
      <trkpt lat="44.7755560" lon="7.1075570">
        <ele>1067.0</ele>
        <time>2017-07-26T07:39:40Z</time>
      </trkpt>
      <trkpt lat="44.7755520" lon="7.1074930">
        <ele>1067.6</ele>
        <time>2017-07-26T07:39:42Z</time>
      </trkpt>
      <trkpt lat="44.7755520" lon="7.1073990">
        <ele>1068.8</ele>
        <time>2017-07-26T07:39:45Z</time>
      </trkpt>
      <trkpt lat="44.7755310" lon="7.1072790">
        <ele>1070.0</ele>
        <time>2017-07-26T07:39:49Z</time>
      </trkpt>
      <trkpt lat="44.7754900" lon="7.1071820">
        <ele>1071.2</ele>
        <time>2017-07-26T07:39:53Z</time>
      </trkpt>
      <trkpt lat="44.7754500" lon="7.1071220">
        <ele>1071.8</ele>
        <time>2017-07-26T07:39:56Z</time>
      </trkpt>
      <trkpt lat="44.7754230" lon="7.1070770">
        <ele>1072.6</ele>
        <time>2017-07-26T07:39:58Z</time>
      </trkpt>
      <trkpt lat="44.7753850" lon="7.1069990">
        <ele>1073.6</ele>
        <time>2017-07-26T07:40:01Z</time>
      </trkpt>
      <trkpt lat="44.7753420" lon="7.1069290">
        <ele>1074.4</ele>
        <time>2017-07-26T07:40:04Z</time>
      </trkpt>
      <trkpt lat="44.7753280" lon="7.1069080">
        <ele>1074.8</ele>
        <time>2017-07-26T07:40:05Z</time>
      </trkpt>
      <trkpt lat="44.7752650" lon="7.1068160">
        <ele>1076.0</ele>
        <time>2017-07-26T07:40:09Z</time>
      </trkpt>
      <trkpt lat="44.7752320" lon="7.1067660">
        <ele>1076.6</ele>
        <time>2017-07-26T07:40:11Z</time>
      </trkpt>
      <trkpt lat="44.7751870" lon="7.1066880">
        <ele>1077.0</ele>
        <time>2017-07-26T07:40:14Z</time>
      </trkpt>
      <trkpt lat="44.7751320" lon="7.1065980">
        <ele>1078.2</ele>
        <time>2017-07-26T07:40:18Z</time>
      </trkpt>
      <trkpt lat="44.7750960" lon="7.1065660">
        <ele>1078.8</ele>
        <time>2017-07-26T07:40:20Z</time>
      </trkpt>
      <trkpt lat="44.7749780" lon="7.1064300">
        <ele>1079.2</ele>
        <time>2017-07-26T07:40:27Z</time>
      </trkpt>
      <trkpt lat="44.7749610" lon="7.1064120">
        <ele>1079.4</ele>
        <time>2017-07-26T07:40:28Z</time>
      </trkpt>
      <trkpt lat="44.7748320" lon="7.1062690">
        <ele>1080.4</ele>
        <time>2017-07-26T07:40:36Z</time>
      </trkpt>
      <trkpt lat="44.7748210" lon="7.1062450">
        <ele>1080.6</ele>
        <time>2017-07-26T07:40:37Z</time>
      </trkpt>
      <trkpt lat="44.7748040" lon="7.1061590">
        <ele>1081.6</ele>
        <time>2017-07-26T07:40:40Z</time>
      </trkpt>
      <trkpt lat="44.7747860" lon="7.1061080">
        <ele>1082.6</ele>
        <time>2017-07-26T07:40:42Z</time>
      </trkpt>
      <trkpt lat="44.7747570" lon="7.1060270">
        <ele>1083.8</ele>
        <time>2017-07-26T07:40:45Z</time>
      </trkpt>
      <trkpt lat="44.7747240" lon="7.1059490">
        <ele>1085.2</ele>
        <time>2017-07-26T07:40:48Z</time>
      </trkpt>
      <trkpt lat="44.7746960" lon="7.1059030">
        <ele>1086.0</ele>
        <time>2017-07-26T07:40:50Z</time>
      </trkpt>
      <trkpt lat="44.7746810" lon="7.1058770">
        <ele>1086.4</ele>
        <time>2017-07-26T07:40:51Z</time>
      </trkpt>
      <trkpt lat="44.7746730" lon="7.1058450">
        <ele>1086.8</ele>
        <time>2017-07-26T07:40:52Z</time>
      </trkpt>
      <trkpt lat="44.7746570" lon="7.1057840">
        <ele>1087.6</ele>
        <time>2017-07-26T07:40:54Z</time>
      </trkpt>
      <trkpt lat="44.7746500" lon="7.1057530">
        <ele>1088.0</ele>
        <time>2017-07-26T07:40:55Z</time>
      </trkpt>
      <trkpt lat="44.7746340" lon="7.1056930">
        <ele>1089.2</ele>
        <time>2017-07-26T07:40:57Z</time>
      </trkpt>
      <trkpt lat="44.7745920" lon="7.1056000">
        <ele>1090.2</ele>
        <time>2017-07-26T07:41:00Z</time>
      </trkpt>
      <trkpt lat="44.7745770" lon="7.1055670">
        <ele>1090.6</ele>
        <time>2017-07-26T07:41:01Z</time>
      </trkpt>
      <trkpt lat="44.7745510" lon="7.1055050">
        <ele>1091.2</ele>
        <time>2017-07-26T07:41:03Z</time>
      </trkpt>
      <trkpt lat="44.7744600" lon="7.1053630">
        <ele>1092.4</ele>
        <time>2017-07-26T07:41:08Z</time>
      </trkpt>
      <trkpt lat="44.7743270" lon="7.1052440">
        <ele>1093.2</ele>
        <time>2017-07-26T07:41:14Z</time>
      </trkpt>
      <trkpt lat="44.7742580" lon="7.1052080">
        <ele>1093.4</ele>
        <time>2017-07-26T07:41:17Z</time>
      </trkpt>
      <trkpt lat="44.7741830" lon="7.1051320">
        <ele>1094.2</ele>
        <time>2017-07-26T07:41:21Z</time>
      </trkpt>
      <trkpt lat="44.7741470" lon="7.1051010">
        <ele>1094.4</ele>
        <time>2017-07-26T07:41:23Z</time>
      </trkpt>
      <trkpt lat="44.7740650" lon="7.1050610">
        <ele>1095.4</ele>
        <time>2017-07-26T07:41:27Z</time>
      </trkpt>
      <trkpt lat="44.7740270" lon="7.1050370">
        <ele>1096.0</ele>
        <time>2017-07-26T07:41:29Z</time>
      </trkpt>
      <trkpt lat="44.7739900" lon="7.1050090">
        <ele>1096.6</ele>
        <time>2017-07-26T07:41:31Z</time>
      </trkpt>
      <trkpt lat="44.7739400" lon="7.1049590">
        <ele>1097.8</ele>
        <time>2017-07-26T07:41:34Z</time>
      </trkpt>
      <trkpt lat="44.7739120" lon="7.1049220">
        <ele>1098.4</ele>
        <time>2017-07-26T07:41:36Z</time>
      </trkpt>
      <trkpt lat="44.7738810" lon="7.1048960">
        <ele>1098.8</ele>
        <time>2017-07-26T07:41:38Z</time>
      </trkpt>
      <trkpt lat="44.7737850" lon="7.1048230">
        <ele>1099.4</ele>
        <time>2017-07-26T07:41:44Z</time>
      </trkpt>
      <trkpt lat="44.7737670" lon="7.1048140">
        <ele>1100.0</ele>
        <time>2017-07-26T07:41:45Z</time>
      </trkpt>
      <trkpt lat="44.7736980" lon="7.1047690">
        <ele>1101.2</ele>
        <time>2017-07-26T07:41:49Z</time>
      </trkpt>
      <trkpt lat="44.7736690" lon="7.1047450">
        <ele>1102.0</ele>
        <time>2017-07-26T07:41:51Z</time>
      </trkpt>
      <trkpt lat="44.7736510" lon="7.1047300">
        <ele>1102.4</ele>
        <time>2017-07-26T07:41:52Z</time>
      </trkpt>
      <trkpt lat="44.7735760" lon="7.1046750">
        <ele>1103.6</ele>
        <time>2017-07-26T07:41:56Z</time>
      </trkpt>
      <trkpt lat="44.7735230" lon="7.1046370">
        <ele>1104.2</ele>
        <time>2017-07-26T07:41:59Z</time>
      </trkpt>
      <trkpt lat="44.7734840" lon="7.1046290">
        <ele>1104.6</ele>
        <time>2017-07-26T07:42:01Z</time>
      </trkpt>
      <trkpt lat="44.7734090" lon="7.1045810">
        <ele>1105.8</ele>
        <time>2017-07-26T07:42:05Z</time>
      </trkpt>
      <trkpt lat="44.7733720" lon="7.1045260">
        <ele>1107.0</ele>
        <time>2017-07-26T07:42:08Z</time>
      </trkpt>
      <trkpt lat="44.7733510" lon="7.1044810">
        <ele>1108.4</ele>
        <time>2017-07-26T07:42:10Z</time>
      </trkpt>
      <trkpt lat="44.7733420" lon="7.1044590">
        <ele>1109.0</ele>
        <time>2017-07-26T07:42:11Z</time>
      </trkpt>
      <trkpt lat="44.7733340" lon="7.1044360">
        <ele>1109.4</ele>
        <time>2017-07-26T07:42:12Z</time>
      </trkpt>
      <trkpt lat="44.7733130" lon="7.1043720">
        <ele>1111.0</ele>
        <time>2017-07-26T07:42:15Z</time>
      </trkpt>
      <trkpt lat="44.7732910" lon="7.1042980">
        <ele>1112.2</ele>
        <time>2017-07-26T07:42:18Z</time>
      </trkpt>
      <trkpt lat="44.7732940" lon="7.1042770">
        <ele>1112.8</ele>
        <time>2017-07-26T07:42:19Z</time>
      </trkpt>
      <trkpt lat="44.7733030" lon="7.1042290">
        <ele>1113.8</ele>
        <time>2017-07-26T07:42:21Z</time>
      </trkpt>
      <trkpt lat="44.7733170" lon="7.1041540">
        <ele>1115.2</ele>
        <time>2017-07-26T07:42:24Z</time>
      </trkpt>
      <trkpt lat="44.7733240" lon="7.1041020">
        <ele>1116.2</ele>
        <time>2017-07-26T07:42:26Z</time>
      </trkpt>
      <trkpt lat="44.7733140" lon="7.1040470">
        <ele>1117.2</ele>
        <time>2017-07-26T07:42:28Z</time>
      </trkpt>
      <trkpt lat="44.7732840" lon="7.1039770">
        <ele>1118.6</ele>
        <time>2017-07-26T07:42:31Z</time>
      </trkpt>
      <trkpt lat="44.7732760" lon="7.1039370">
        <ele>1120.0</ele>
        <time>2017-07-26T07:42:33Z</time>
      </trkpt>
      <trkpt lat="44.7732490" lon="7.1039120">
        <ele>1120.8</ele>
        <time>2017-07-26T07:42:35Z</time>
      </trkpt>
      <trkpt lat="44.7732450" lon="7.1038950">
        <ele>1121.0</ele>
        <time>2017-07-26T07:42:36Z</time>
      </trkpt>
      <trkpt lat="44.7732390" lon="7.1038760">
        <ele>1119.4</ele>
        <time>2017-07-26T07:42:37Z</time>
      </trkpt>
      <trkpt lat="44.7732080" lon="7.1038140">
        <ele>1122.4</ele>
        <time>2017-07-26T07:42:40Z</time>
      </trkpt>
      <trkpt lat="44.7731810" lon="7.1037740">
        <ele>1122.6</ele>
        <time>2017-07-26T07:42:42Z</time>
      </trkpt>
      <trkpt lat="44.7731230" lon="7.1037090">
        <ele>1123.4</ele>
        <time>2017-07-26T07:42:46Z</time>
      </trkpt>
      <trkpt lat="44.7730830" lon="7.1036590">
        <ele>1124.2</ele>
        <time>2017-07-26T07:42:49Z</time>
      </trkpt>
      <trkpt lat="44.7730740" lon="7.1036410">
        <ele>1124.6</ele>
        <time>2017-07-26T07:42:50Z</time>
      </trkpt>
      <trkpt lat="44.7730440" lon="7.1035640">
        <ele>1125.8</ele>
        <time>2017-07-26T07:42:54Z</time>
      </trkpt>
      <trkpt lat="44.7730360" lon="7.1035420">
        <ele>1126.0</ele>
        <time>2017-07-26T07:42:55Z</time>
      </trkpt>
      <trkpt lat="44.7730240" lon="7.1034960">
        <ele>1126.8</ele>
        <time>2017-07-26T07:42:57Z</time>
      </trkpt>
      <trkpt lat="44.7730050" lon="7.1033960">
        <ele>1128.0</ele>
        <time>2017-07-26T07:43:01Z</time>
      </trkpt>
      <trkpt lat="44.7730030" lon="7.1033730">
        <ele>1128.4</ele>
        <time>2017-07-26T07:43:02Z</time>
      </trkpt>
      <trkpt lat="44.7729710" lon="7.1032350">
        <ele>1129.2</ele>
        <time>2017-07-26T07:43:08Z</time>
      </trkpt>
      <trkpt lat="44.7729520" lon="7.1031890">
        <ele>1129.6</ele>
        <time>2017-07-26T07:43:10Z</time>
      </trkpt>
      <trkpt lat="44.7729320" lon="7.1031060">
        <ele>1130.2</ele>
        <time>2017-07-26T07:43:13Z</time>
      </trkpt>
      <trkpt lat="44.7729210" lon="7.1030410">
        <ele>1131.0</ele>
        <time>2017-07-26T07:43:16Z</time>
      </trkpt>
      <trkpt lat="44.7729150" lon="7.1030180">
        <ele>1131.4</ele>
        <time>2017-07-26T07:43:17Z</time>
      </trkpt>
      <trkpt lat="44.7728830" lon="7.1029440">
        <ele>1133.0</ele>
        <time>2017-07-26T07:43:21Z</time>
      </trkpt>
      <trkpt lat="44.7728750" lon="7.1029020">
        <ele>1133.8</ele>
        <time>2017-07-26T07:43:23Z</time>
      </trkpt>
      <trkpt lat="44.7728670" lon="7.1028790">
        <ele>1134.2</ele>
        <time>2017-07-26T07:43:24Z</time>
      </trkpt>
      <trkpt lat="44.7728430" lon="7.1028090">
        <ele>1135.2</ele>
        <time>2017-07-26T07:43:27Z</time>
      </trkpt>
      <trkpt lat="44.7728290" lon="7.1027620">
        <ele>1135.8</ele>
        <time>2017-07-26T07:43:29Z</time>
      </trkpt>
      <trkpt lat="44.7728110" lon="7.1027210">
        <ele>1136.4</ele>
        <time>2017-07-26T07:43:31Z</time>
      </trkpt>
      <trkpt lat="44.7727760" lon="7.1026270">
        <ele>1137.8</ele>
        <time>2017-07-26T07:43:35Z</time>
      </trkpt>
      <trkpt lat="44.7727610" lon="7.1026070">
        <ele>1138.0</ele>
        <time>2017-07-26T07:43:36Z</time>
      </trkpt>
      <trkpt lat="44.7727330" lon="7.1025490">
        <ele>1139.0</ele>
        <time>2017-07-26T07:43:39Z</time>
      </trkpt>
      <trkpt lat="44.7726900" lon="7.1024900">
        <ele>1140.2</ele>
        <time>2017-07-26T07:43:42Z</time>
      </trkpt>
      <trkpt lat="44.7726730" lon="7.1024680">
        <ele>1140.4</ele>
        <time>2017-07-26T07:43:43Z</time>
      </trkpt>
      <trkpt lat="44.7726470" lon="7.1024330">
        <ele>1141.4</ele>
        <time>2017-07-26T07:43:45Z</time>
      </trkpt>
      <trkpt lat="44.7726090" lon="7.1023830">
        <ele>1142.6</ele>
        <time>2017-07-26T07:43:48Z</time>
      </trkpt>
      <trkpt lat="44.7725820" lon="7.1023480">
        <ele>1143.4</ele>
        <time>2017-07-26T07:43:50Z</time>
      </trkpt>
      <trkpt lat="44.7725690" lon="7.1023320">
        <ele>1143.6</ele>
        <time>2017-07-26T07:43:51Z</time>
      </trkpt>
      <trkpt lat="44.7725410" lon="7.1022880">
        <ele>1144.2</ele>
        <time>2017-07-26T07:43:53Z</time>
      </trkpt>
      <trkpt lat="44.7725090" lon="7.1022500">
        <ele>1144.8</ele>
        <time>2017-07-26T07:43:55Z</time>
      </trkpt>
      <trkpt lat="44.7724810" lon="7.1022090">
        <ele>1145.4</ele>
        <time>2017-07-26T07:43:57Z</time>
      </trkpt>
      <trkpt lat="44.7724790" lon="7.1021880">
        <ele>1145.6</ele>
        <time>2017-07-26T07:43:58Z</time>
      </trkpt>
      <trkpt lat="44.7724810" lon="7.1021330">
        <ele>1146.2</ele>
        <time>2017-07-26T07:44:00Z</time>
      </trkpt>
      <trkpt lat="44.7724730" lon="7.1020820">
        <ele>1147.0</ele>
        <time>2017-07-26T07:44:02Z</time>
      </trkpt>
      <trkpt lat="44.7724720" lon="7.1020550">
        <ele>1147.2</ele>
        <time>2017-07-26T07:44:03Z</time>
      </trkpt>
      <trkpt lat="44.7724470" lon="7.1019380">
        <ele>1148.4</ele>
        <time>2017-07-26T07:44:08Z</time>
      </trkpt>
      <trkpt lat="44.7724370" lon="7.1018910">
        <ele>1149.4</ele>
        <time>2017-07-26T07:44:10Z</time>
      </trkpt>
      <trkpt lat="44.7724340" lon="7.1018680">
        <ele>1149.8</ele>
        <time>2017-07-26T07:44:11Z</time>
      </trkpt>
      <trkpt lat="44.7724050" lon="7.1017530">
        <ele>1150.8</ele>
        <time>2017-07-26T07:44:16Z</time>
      </trkpt>
      <trkpt lat="44.7723910" lon="7.1016550">
        <ele>1152.0</ele>
        <time>2017-07-26T07:44:20Z</time>
      </trkpt>
      <trkpt lat="44.7723650" lon="7.1015830">
        <ele>1153.0</ele>
        <time>2017-07-26T07:44:23Z</time>
      </trkpt>
      <trkpt lat="44.7723600" lon="7.1015580">
        <ele>1153.2</ele>
        <time>2017-07-26T07:44:24Z</time>
      </trkpt>
      <trkpt lat="44.7723150" lon="7.1014480">
        <ele>1154.0</ele>
        <time>2017-07-26T07:44:29Z</time>
      </trkpt>
      <trkpt lat="44.7723080" lon="7.1014230">
        <ele>1154.4</ele>
        <time>2017-07-26T07:44:30Z</time>
      </trkpt>
      <trkpt lat="44.7722770" lon="7.1012890">
        <ele>1155.6</ele>
        <time>2017-07-26T07:44:35Z</time>
      </trkpt>
      <trkpt lat="44.7722700" lon="7.1011560">
        <ele>1156.6</ele>
        <time>2017-07-26T07:44:40Z</time>
      </trkpt>
      <trkpt lat="44.7722590" lon="7.1011060">
        <ele>1157.2</ele>
        <time>2017-07-26T07:44:42Z</time>
      </trkpt>
      <trkpt lat="44.7722550" lon="7.1010390">
        <ele>1158.0</ele>
        <time>2017-07-26T07:44:45Z</time>
      </trkpt>
      <trkpt lat="44.7722300" lon="7.1009590">
        <ele>1158.8</ele>
        <time>2017-07-26T07:44:49Z</time>
      </trkpt>
      <trkpt lat="44.7722230" lon="7.1009420">
        <ele>1159.2</ele>
        <time>2017-07-26T07:44:50Z</time>
      </trkpt>
      <trkpt lat="44.7721770" lon="7.1008600">
        <ele>1160.2</ele>
        <time>2017-07-26T07:44:54Z</time>
      </trkpt>
      <trkpt lat="44.7721490" lon="7.1008170">
        <ele>1160.2</ele>
        <time>2017-07-26T07:44:56Z</time>
      </trkpt>
      <trkpt lat="44.7721300" lon="7.1006970">
        <ele>1161.4</ele>
        <time>2017-07-26T07:45:01Z</time>
      </trkpt>
      <trkpt lat="44.7721220" lon="7.1006720">
        <ele>1161.6</ele>
        <time>2017-07-26T07:45:02Z</time>
      </trkpt>
      <trkpt lat="44.7720590" lon="7.1005500">
        <ele>1161.8</ele>
        <time>2017-07-26T07:45:08Z</time>
      </trkpt>
      <trkpt lat="44.7720440" lon="7.1004800">
        <ele>1162.8</ele>
        <time>2017-07-26T07:45:11Z</time>
      </trkpt>
      <trkpt lat="44.7720110" lon="7.1003940">
        <ele>1163.8</ele>
        <time>2017-07-26T07:45:15Z</time>
      </trkpt>
      <trkpt lat="44.7720010" lon="7.1003730">
        <ele>1164.0</ele>
        <time>2017-07-26T07:45:16Z</time>
      </trkpt>
      <trkpt lat="44.7719830" lon="7.1003130">
        <ele>1165.0</ele>
        <time>2017-07-26T07:45:19Z</time>
      </trkpt>
      <trkpt lat="44.7719730" lon="7.1002350">
        <ele>1166.2</ele>
        <time>2017-07-26T07:45:22Z</time>
      </trkpt>
      <trkpt lat="44.7719620" lon="7.1002150">
        <ele>1166.4</ele>
        <time>2017-07-26T07:45:23Z</time>
      </trkpt>
      <trkpt lat="44.7719230" lon="7.1001200">
        <ele>1167.4</ele>
        <time>2017-07-26T07:45:27Z</time>
      </trkpt>
      <trkpt lat="44.7719120" lon="7.1000460">
        <ele>1168.6</ele>
        <time>2017-07-26T07:45:30Z</time>
      </trkpt>
      <trkpt lat="44.7719060" lon="7.0999930">
        <ele>1169.4</ele>
        <time>2017-07-26T07:45:32Z</time>
      </trkpt>
      <trkpt lat="44.7719040" lon="7.0999700">
        <ele>1169.6</ele>
        <time>2017-07-26T07:45:33Z</time>
      </trkpt>
      <trkpt lat="44.7718900" lon="7.0998880">
        <ele>1170.6</ele>
        <time>2017-07-26T07:45:37Z</time>
      </trkpt>
      <trkpt lat="44.7718850" lon="7.0998680">
        <ele>1170.8</ele>
        <time>2017-07-26T07:45:38Z</time>
      </trkpt>
      <trkpt lat="44.7718710" lon="7.0998230">
        <ele>1171.6</ele>
        <time>2017-07-26T07:45:40Z</time>
      </trkpt>
      <trkpt lat="44.7718580" lon="7.0997590">
        <ele>1172.8</ele>
        <time>2017-07-26T07:45:44Z</time>
      </trkpt>
      <trkpt lat="44.7718470" lon="7.0997180">
        <ele>1173.4</ele>
        <time>2017-07-26T07:45:46Z</time>
      </trkpt>
      <trkpt lat="44.7718410" lon="7.0996950">
        <ele>1174.2</ele>
        <time>2017-07-26T07:45:47Z</time>
      </trkpt>
      <trkpt lat="44.7718360" lon="7.0996250">
        <ele>1175.4</ele>
        <time>2017-07-26T07:45:50Z</time>
      </trkpt>
      <trkpt lat="44.7718110" lon="7.0995640">
        <ele>1175.8</ele>
        <time>2017-07-26T07:45:53Z</time>
      </trkpt>
      <trkpt lat="44.7717960" lon="7.0995220">
        <ele>1176.4</ele>
        <time>2017-07-26T07:45:55Z</time>
      </trkpt>
      <trkpt lat="44.7717820" lon="7.0994340">
        <ele>1177.4</ele>
        <time>2017-07-26T07:45:59Z</time>
      </trkpt>
      <trkpt lat="44.7717220" lon="7.0993200">
        <ele>1178.4</ele>
        <time>2017-07-26T07:46:05Z</time>
      </trkpt>
      <trkpt lat="44.7717050" lon="7.0993000">
        <ele>1178.8</ele>
        <time>2017-07-26T07:46:06Z</time>
      </trkpt>
      <trkpt lat="44.7716370" lon="7.0992390">
        <ele>1180.0</ele>
        <time>2017-07-26T07:46:10Z</time>
      </trkpt>
      <trkpt lat="44.7716310" lon="7.0992130">
        <ele>1180.8</ele>
        <time>2017-07-26T07:46:11Z</time>
      </trkpt>
      <trkpt lat="44.7716230" lon="7.0991920">
        <ele>1181.2</ele>
        <time>2017-07-26T07:46:12Z</time>
      </trkpt>
      <trkpt lat="44.7715640" lon="7.0990910">
        <ele>1182.0</ele>
        <time>2017-07-26T07:46:17Z</time>
      </trkpt>
      <trkpt lat="44.7715500" lon="7.0990730">
        <ele>1182.2</ele>
        <time>2017-07-26T07:46:18Z</time>
      </trkpt>
      <trkpt lat="44.7715060" lon="7.0990170">
        <ele>1183.6</ele>
        <time>2017-07-26T07:46:22Z</time>
      </trkpt>
      <trkpt lat="44.7714780" lon="7.0989620">
        <ele>1184.2</ele>
        <time>2017-07-26T07:46:25Z</time>
      </trkpt>
      <trkpt lat="44.7714580" lon="7.0989360">
        <ele>1185.0</ele>
        <time>2017-07-26T07:46:27Z</time>
      </trkpt>
      <trkpt lat="44.7714420" lon="7.0989080">
        <ele>1186.0</ele>
        <time>2017-07-26T07:46:29Z</time>
      </trkpt>
      <trkpt lat="44.7714280" lon="7.0988900">
        <ele>1186.6</ele>
        <time>2017-07-26T07:46:30Z</time>
      </trkpt>
      <trkpt lat="44.7713980" lon="7.0988640">
        <ele>1187.2</ele>
        <time>2017-07-26T07:46:32Z</time>
      </trkpt>
      <trkpt lat="44.7713890" lon="7.0988440">
        <ele>1187.4</ele>
        <time>2017-07-26T07:46:33Z</time>
      </trkpt>
      <trkpt lat="44.7713700" lon="7.0988080">
        <ele>1188.6</ele>
        <time>2017-07-26T07:46:35Z</time>
      </trkpt>
      <trkpt lat="44.7713450" lon="7.0987820">
        <ele>1189.6</ele>
        <time>2017-07-26T07:46:37Z</time>
      </trkpt>
      <trkpt lat="44.7713340" lon="7.0987650">
        <ele>1189.8</ele>
        <time>2017-07-26T07:46:38Z</time>
      </trkpt>
      <trkpt lat="44.7713030" lon="7.0987110">
        <ele>1191.0</ele>
        <time>2017-07-26T07:46:41Z</time>
      </trkpt>
      <trkpt lat="44.7712840" lon="7.0986760">
        <ele>1191.8</ele>
        <time>2017-07-26T07:46:43Z</time>
      </trkpt>
      <trkpt lat="44.7712800" lon="7.0986630">
        <ele>1192.2</ele>
        <time>2017-07-26T07:46:44Z</time>
      </trkpt>
      <trkpt lat="44.7712470" lon="7.0986310">
        <ele>1193.4</ele>
        <time>2017-07-26T07:46:47Z</time>
      </trkpt>
      <trkpt lat="44.7712120" lon="7.0985930">
        <ele>1194.6</ele>
        <time>2017-07-26T07:46:50Z</time>
      </trkpt>
      <trkpt lat="44.7711890" lon="7.0985450">
        <ele>1196.0</ele>
        <time>2017-07-26T07:46:53Z</time>
      </trkpt>
      <trkpt lat="44.7711790" lon="7.0985320">
        <ele>1196.2</ele>
        <time>2017-07-26T07:46:54Z</time>
      </trkpt>
      <trkpt lat="44.7711180" lon="7.0984800">
        <ele>1197.4</ele>
        <time>2017-07-26T07:46:59Z</time>
      </trkpt>
      <trkpt lat="44.7710780" lon="7.0984580">
        <ele>1198.4</ele>
        <time>2017-07-26T07:47:02Z</time>
      </trkpt>
      <trkpt lat="44.7710210" lon="7.0984210">
        <ele>1199.6</ele>
        <time>2017-07-26T07:47:06Z</time>
      </trkpt>
      <trkpt lat="44.7709950" lon="7.0983760">
        <ele>1200.8</ele>
        <time>2017-07-26T07:47:09Z</time>
      </trkpt>
      <trkpt lat="44.7709880" lon="7.0983590">
        <ele>1201.0</ele>
        <time>2017-07-26T07:47:10Z</time>
      </trkpt>
      <trkpt lat="44.7709740" lon="7.0983300">
        <ele>1201.8</ele>
        <time>2017-07-26T07:47:12Z</time>
      </trkpt>
      <trkpt lat="44.7709610" lon="7.0983220">
        <ele>1202.0</ele>
        <time>2017-07-26T07:47:13Z</time>
      </trkpt>
      <trkpt lat="44.7709230" lon="7.0982950">
        <ele>1203.0</ele>
        <time>2017-07-26T07:47:16Z</time>
      </trkpt>
      <trkpt lat="44.7709100" lon="7.0982900">
        <ele>1203.2</ele>
        <time>2017-07-26T07:47:17Z</time>
      </trkpt>
      <trkpt lat="44.7708620" lon="7.0982050">
        <ele>1204.0</ele>
        <time>2017-07-26T07:47:23Z</time>
      </trkpt>
      <trkpt lat="44.7708270" lon="7.0981820">
        <ele>1204.8</ele>
        <time>2017-07-26T07:47:26Z</time>
      </trkpt>
      <trkpt lat="44.7708080" lon="7.0981610">
        <ele>1205.0</ele>
        <time>2017-07-26T07:47:28Z</time>
      </trkpt>
      <trkpt lat="44.7707970" lon="7.0981490">
        <ele>1205.2</ele>
        <time>2017-07-26T07:47:29Z</time>
      </trkpt>
      <trkpt lat="44.7707630" lon="7.0981050">
        <ele>1206.2</ele>
        <time>2017-07-26T07:47:32Z</time>
      </trkpt>
      <trkpt lat="44.7707080" lon="7.0980540">
        <ele>1207.2</ele>
        <time>2017-07-26T07:47:36Z</time>
      </trkpt>
      <trkpt lat="44.7706870" lon="7.0980400">
        <ele>1207.4</ele>
        <time>2017-07-26T07:47:37Z</time>
      </trkpt>
      <trkpt lat="44.7705860" lon="7.0979930">
        <ele>1208.4</ele>
        <time>2017-07-26T07:47:41Z</time>
      </trkpt>
      <trkpt lat="44.7705550" lon="7.0979580">
        <ele>1209.0</ele>
        <time>2017-07-26T07:47:43Z</time>
      </trkpt>
      <trkpt lat="44.7705430" lon="7.0979410">
        <ele>1209.4</ele>
        <time>2017-07-26T07:47:44Z</time>
      </trkpt>
      <trkpt lat="44.7705060" lon="7.0978910">
        <ele>1210.8</ele>
        <time>2017-07-26T07:47:47Z</time>
      </trkpt>
      <trkpt lat="44.7704560" lon="7.0978390">
        <ele>1211.4</ele>
        <time>2017-07-26T07:47:50Z</time>
      </trkpt>
      <trkpt lat="44.7704200" lon="7.0978050">
        <ele>1212.0</ele>
        <time>2017-07-26T07:47:52Z</time>
      </trkpt>
      <trkpt lat="44.7703510" lon="7.0977240">
        <ele>1213.0</ele>
        <time>2017-07-26T07:47:57Z</time>
      </trkpt>
      <trkpt lat="44.7703050" lon="7.0976930">
        <ele>1213.2</ele>
        <time>2017-07-26T07:48:00Z</time>
      </trkpt>
      <trkpt lat="44.7702590" lon="7.0976620">
        <ele>1214.0</ele>
        <time>2017-07-26T07:48:03Z</time>
      </trkpt>
      <trkpt lat="44.7702480" lon="7.0976410">
        <ele>1214.2</ele>
        <time>2017-07-26T07:48:04Z</time>
      </trkpt>
      <trkpt lat="44.7702220" lon="7.0975830">
        <ele>1215.6</ele>
        <time>2017-07-26T07:48:07Z</time>
      </trkpt>
      <trkpt lat="44.7701930" lon="7.0975350">
        <ele>1216.4</ele>
        <time>2017-07-26T07:48:10Z</time>
      </trkpt>
      <trkpt lat="44.7701850" lon="7.0975160">
        <ele>1217.4</ele>
        <time>2017-07-26T07:48:11Z</time>
      </trkpt>
      <trkpt lat="44.7701430" lon="7.0974420">
        <ele>1218.4</ele>
        <time>2017-07-26T07:48:15Z</time>
      </trkpt>
      <trkpt lat="44.7700820" lon="7.0973800">
        <ele>1219.2</ele>
        <time>2017-07-26T07:48:19Z</time>
      </trkpt>
      <trkpt lat="44.7700620" lon="7.0973720">
        <ele>1219.4</ele>
        <time>2017-07-26T07:48:20Z</time>
      </trkpt>
      <trkpt lat="44.7699960" lon="7.0973630">
        <ele>1219.8</ele>
        <time>2017-07-26T07:48:25Z</time>
      </trkpt>
      <trkpt lat="44.7699820" lon="7.0973660">
        <ele>1219.8</ele>
        <time>2017-07-26T07:48:26Z</time>
      </trkpt>
      <trkpt lat="44.7699210" lon="7.0973870">
        <ele>1220.6</ele>
        <time>2017-07-26T07:48:30Z</time>
      </trkpt>
      <trkpt lat="44.7698700" lon="7.0973940">
        <ele>1221.0</ele>
        <time>2017-07-26T07:48:33Z</time>
      </trkpt>
      <trkpt lat="44.7698100" lon="7.0973950">
        <ele>1221.6</ele>
        <time>2017-07-26T07:48:36Z</time>
      </trkpt>
      <trkpt lat="44.7697800" lon="7.0973760">
        <ele>1222.0</ele>
        <time>2017-07-26T07:48:38Z</time>
      </trkpt>
      <trkpt lat="44.7697590" lon="7.0973480">
        <ele>1222.4</ele>
        <time>2017-07-26T07:48:40Z</time>
      </trkpt>
      <trkpt lat="44.7697530" lon="7.0973330">
        <ele>1222.6</ele>
        <time>2017-07-26T07:48:41Z</time>
      </trkpt>
      <trkpt lat="44.7697070" lon="7.0973070">
        <ele>1224.0</ele>
        <time>2017-07-26T07:48:44Z</time>
      </trkpt>
      <trkpt lat="44.7696660" lon="7.0972890">
        <ele>1225.0</ele>
        <time>2017-07-26T07:48:46Z</time>
      </trkpt>
      <trkpt lat="44.7696450" lon="7.0972750">
        <ele>1225.4</ele>
        <time>2017-07-26T07:48:47Z</time>
      </trkpt>
      <trkpt lat="44.7695850" lon="7.0972480">
        <ele>1226.4</ele>
        <time>2017-07-26T07:48:50Z</time>
      </trkpt>
      <trkpt lat="44.7695360" lon="7.0972520">
        <ele>1227.6</ele>
        <time>2017-07-26T07:48:53Z</time>
      </trkpt>
      <trkpt lat="44.7694800" lon="7.0973090">
        <ele>1228.6</ele>
        <time>2017-07-26T07:48:57Z</time>
      </trkpt>
      <trkpt lat="44.7694670" lon="7.0973260">
        <ele>1228.8</ele>
        <time>2017-07-26T07:48:58Z</time>
      </trkpt>
      <trkpt lat="44.7694500" lon="7.0973470">
        <ele>1229.2</ele>
        <time>2017-07-26T07:48:59Z</time>
      </trkpt>
      <trkpt lat="44.7694200" lon="7.0973890">
        <ele>1229.8</ele>
        <time>2017-07-26T07:49:01Z</time>
      </trkpt>
      <trkpt lat="44.7693740" lon="7.0974510">
        <ele>1231.2</ele>
        <time>2017-07-26T07:49:04Z</time>
      </trkpt>
      <trkpt lat="44.7693550" lon="7.0974770">
        <ele>1231.4</ele>
        <time>2017-07-26T07:49:05Z</time>
      </trkpt>
      <trkpt lat="44.7693190" lon="7.0975110">
        <ele>1232.2</ele>
        <time>2017-07-26T07:49:07Z</time>
      </trkpt>
      <trkpt lat="44.7692760" lon="7.0975330">
        <ele>1233.4</ele>
        <time>2017-07-26T07:49:09Z</time>
      </trkpt>
      <trkpt lat="44.7692500" lon="7.0975390">
        <ele>1233.8</ele>
        <time>2017-07-26T07:49:10Z</time>
      </trkpt>
      <trkpt lat="44.7691780" lon="7.0975370">
        <ele>1234.6</ele>
        <time>2017-07-26T07:49:12Z</time>
      </trkpt>
      <trkpt lat="44.7691150" lon="7.0975250">
        <ele>1235.6</ele>
        <time>2017-07-26T07:49:14Z</time>
      </trkpt>
      <trkpt lat="44.7690810" lon="7.0974940">
        <ele>1236.4</ele>
        <time>2017-07-26T07:49:16Z</time>
      </trkpt>
      <trkpt lat="44.7690720" lon="7.0974730">
        <ele>1236.8</ele>
        <time>2017-07-26T07:49:17Z</time>
      </trkpt>
      <trkpt lat="44.7690400" lon="7.0974050">
        <ele>1238.2</ele>
        <time>2017-07-26T07:49:20Z</time>
      </trkpt>
      <trkpt lat="44.7689990" lon="7.0973490">
        <ele>1239.4</ele>
        <time>2017-07-26T07:49:23Z</time>
      </trkpt>
      <trkpt lat="44.7689870" lon="7.0973270">
        <ele>1239.8</ele>
        <time>2017-07-26T07:49:24Z</time>
      </trkpt>
      <trkpt lat="44.7689500" lon="7.0972540">
        <ele>1240.8</ele>
        <time>2017-07-26T07:49:27Z</time>
      </trkpt>
      <trkpt lat="44.7689070" lon="7.0971820">
        <ele>1242.0</ele>
        <time>2017-07-26T07:49:31Z</time>
      </trkpt>
      <trkpt lat="44.7688920" lon="7.0971660">
        <ele>1242.4</ele>
        <time>2017-07-26T07:49:32Z</time>
      </trkpt>
      <trkpt lat="44.7688610" lon="7.0971500">
        <ele>1243.2</ele>
        <time>2017-07-26T07:49:34Z</time>
      </trkpt>
      <trkpt lat="44.7688460" lon="7.0971500">
        <ele>1243.6</ele>
        <time>2017-07-26T07:49:35Z</time>
      </trkpt>
      <trkpt lat="44.7688290" lon="7.0971790">
        <ele>1244.0</ele>
        <time>2017-07-26T07:49:37Z</time>
      </trkpt>
      <trkpt lat="44.7688250" lon="7.0972030">
        <ele>1244.2</ele>
        <time>2017-07-26T07:49:38Z</time>
      </trkpt>
      <trkpt lat="44.7688370" lon="7.0972800">
        <ele>1245.6</ele>
        <time>2017-07-26T07:49:42Z</time>
      </trkpt>
      <trkpt lat="44.7688660" lon="7.0973500">
        <ele>1246.8</ele>
        <time>2017-07-26T07:49:45Z</time>
      </trkpt>
      <trkpt lat="44.7688860" lon="7.0973970">
        <ele>1247.6</ele>
        <time>2017-07-26T07:49:47Z</time>
      </trkpt>
      <trkpt lat="44.7688960" lon="7.0974180">
        <ele>1248.0</ele>
        <time>2017-07-26T07:49:48Z</time>
      </trkpt>
      <trkpt lat="44.7689060" lon="7.0974390">
        <ele>1248.4</ele>
        <time>2017-07-26T07:49:49Z</time>
      </trkpt>
      <trkpt lat="44.7689320" lon="7.0975040">
        <ele>1249.2</ele>
        <time>2017-07-26T07:49:52Z</time>
      </trkpt>
      <trkpt lat="44.7689560" lon="7.0975610">
        <ele>1250.2</ele>
        <time>2017-07-26T07:49:55Z</time>
      </trkpt>
      <trkpt lat="44.7689670" lon="7.0975780">
        <ele>1250.4</ele>
        <time>2017-07-26T07:49:56Z</time>
      </trkpt>
      <trkpt lat="44.7690050" lon="7.0976860">
        <ele>1251.6</ele>
        <time>2017-07-26T07:50:01Z</time>
      </trkpt>
      <trkpt lat="44.7690120" lon="7.0977130">
        <ele>1251.8</ele>
        <time>2017-07-26T07:50:02Z</time>
      </trkpt>
      <trkpt lat="44.7690440" lon="7.0978170">
        <ele>1252.6</ele>
        <time>2017-07-26T07:50:06Z</time>
      </trkpt>
      <trkpt lat="44.7690820" lon="7.0978800">
        <ele>1253.4</ele>
        <time>2017-07-26T07:50:09Z</time>
      </trkpt>
      <trkpt lat="44.7691070" lon="7.0979210">
        <ele>1254.0</ele>
        <time>2017-07-26T07:50:11Z</time>
      </trkpt>
      <trkpt lat="44.7691700" lon="7.0980090">
        <ele>1254.8</ele>
        <time>2017-07-26T07:50:15Z</time>
      </trkpt>
      <trkpt lat="44.7691870" lon="7.0980310">
        <ele>1255.0</ele>
        <time>2017-07-26T07:50:16Z</time>
      </trkpt>
      <trkpt lat="44.7692300" lon="7.0981200">
        <ele>1256.0</ele>
        <time>2017-07-26T07:50:20Z</time>
      </trkpt>
      <trkpt lat="44.7692580" lon="7.0981600">
        <ele>1256.4</ele>
        <time>2017-07-26T07:50:22Z</time>
      </trkpt>
      <trkpt lat="44.7693150" lon="7.0982560">
        <ele>1257.2</ele>
        <time>2017-07-26T07:50:26Z</time>
      </trkpt>
      <trkpt lat="44.7693200" lon="7.0983300">
        <ele>1257.8</ele>
        <time>2017-07-26T07:50:29Z</time>
      </trkpt>
      <trkpt lat="44.7693000" lon="7.0983470">
        <ele>1258.0</ele>
        <time>2017-07-26T07:50:31Z</time>
      </trkpt>
      <trkpt lat="44.7692860" lon="7.0983430">
        <ele>1258.2</ele>
        <time>2017-07-26T07:50:32Z</time>
      </trkpt>
      <trkpt lat="44.7692440" lon="7.0982550">
        <ele>1259.2</ele>
        <time>2017-07-26T07:50:37Z</time>
      </trkpt>
      <trkpt lat="44.7692400" lon="7.0982350">
        <ele>1259.2</ele>
        <time>2017-07-26T07:50:38Z</time>
      </trkpt>
      <trkpt lat="44.7691840" lon="7.0981640">
        <ele>1259.8</ele>
        <time>2017-07-26T07:50:42Z</time>
      </trkpt>
      <trkpt lat="44.7691300" lon="7.0981310">
        <ele>1260.4</ele>
        <time>2017-07-26T07:50:45Z</time>
      </trkpt>
      <trkpt lat="44.7691050" lon="7.0981280">
        <ele>1260.6</ele>
        <time>2017-07-26T07:50:46Z</time>
      </trkpt>
      <trkpt lat="44.7690610" lon="7.0981140">
        <ele>1261.0</ele>
        <time>2017-07-26T07:50:48Z</time>
      </trkpt>
      <trkpt lat="44.7690290" lon="7.0981050">
        <ele>1261.4</ele>
        <time>2017-07-26T07:50:50Z</time>
      </trkpt>
      <trkpt lat="44.7689830" lon="7.0980420">
        <ele>1262.4</ele>
        <time>2017-07-26T07:50:54Z</time>
      </trkpt>
      <trkpt lat="44.7689680" lon="7.0980240">
        <ele>1262.6</ele>
        <time>2017-07-26T07:50:55Z</time>
      </trkpt>
      <trkpt lat="44.7688950" lon="7.0979570">
        <ele>1263.8</ele>
        <time>2017-07-26T07:50:59Z</time>
      </trkpt>
      <trkpt lat="44.7688640" lon="7.0979300">
        <ele>1264.2</ele>
        <time>2017-07-26T07:51:01Z</time>
      </trkpt>
      <trkpt lat="44.7688270" lon="7.0979090">
        <ele>1264.8</ele>
        <time>2017-07-26T07:51:03Z</time>
      </trkpt>
      <trkpt lat="44.7687650" lon="7.0978790">
        <ele>1266.0</ele>
        <time>2017-07-26T07:51:07Z</time>
      </trkpt>
      <trkpt lat="44.7686890" lon="7.0978610">
        <ele>1267.2</ele>
        <time>2017-07-26T07:51:11Z</time>
      </trkpt>
      <trkpt lat="44.7686560" lon="7.0978490">
        <ele>1267.6</ele>
        <time>2017-07-26T07:51:13Z</time>
      </trkpt>
      <trkpt lat="44.7686300" lon="7.0978340">
        <ele>1268.2</ele>
        <time>2017-07-26T07:51:15Z</time>
      </trkpt>
      <trkpt lat="44.7685930" lon="7.0978030">
        <ele>1269.0</ele>
        <time>2017-07-26T07:51:18Z</time>
      </trkpt>
      <trkpt lat="44.7685740" lon="7.0977930">
        <ele>1269.2</ele>
        <time>2017-07-26T07:51:19Z</time>
      </trkpt>
      <trkpt lat="44.7685040" lon="7.0977430">
        <ele>1270.8</ele>
        <time>2017-07-26T07:51:23Z</time>
      </trkpt>
      <trkpt lat="44.7684840" lon="7.0977360">
        <ele>1271.0</ele>
        <time>2017-07-26T07:51:24Z</time>
      </trkpt>
      <trkpt lat="44.7684390" lon="7.0977180">
        <ele>1272.0</ele>
        <time>2017-07-26T07:51:27Z</time>
      </trkpt>
      <trkpt lat="44.7683800" lon="7.0977050">
        <ele>1273.0</ele>
        <time>2017-07-26T07:51:31Z</time>
      </trkpt>
      <trkpt lat="44.7683570" lon="7.0976920">
        <ele>1273.6</ele>
        <time>2017-07-26T07:51:33Z</time>
      </trkpt>
      <trkpt lat="44.7683200" lon="7.0976080">
        <ele>1274.4</ele>
        <time>2017-07-26T07:51:36Z</time>
      </trkpt>
      <trkpt lat="44.7683060" lon="7.0975930">
        <ele>1274.6</ele>
        <time>2017-07-26T07:51:37Z</time>
      </trkpt>
      <trkpt lat="44.7682700" lon="7.0975460">
        <ele>1275.4</ele>
        <time>2017-07-26T07:51:40Z</time>
      </trkpt>
      <trkpt lat="44.7682330" lon="7.0975350">
        <ele>1276.0</ele>
        <time>2017-07-26T07:51:42Z</time>
      </trkpt>
      <trkpt lat="44.7682090" lon="7.0975320">
        <ele>1276.2</ele>
        <time>2017-07-26T07:51:43Z</time>
      </trkpt>
      <trkpt lat="44.7681850" lon="7.0975320">
        <ele>1276.6</ele>
        <time>2017-07-26T07:51:44Z</time>
      </trkpt>
      <trkpt lat="44.7681210" lon="7.0975230">
        <ele>1277.6</ele>
        <time>2017-07-26T07:51:47Z</time>
      </trkpt>
      <trkpt lat="44.7680480" lon="7.0975070">
        <ele>1278.6</ele>
        <time>2017-07-26T07:51:50Z</time>
      </trkpt>
      <trkpt lat="44.7680250" lon="7.0975000">
        <ele>1278.8</ele>
        <time>2017-07-26T07:51:51Z</time>
      </trkpt>
      <trkpt lat="44.7679300" lon="7.0974670">
        <ele>1280.0</ele>
        <time>2017-07-26T07:51:55Z</time>
      </trkpt>
      <trkpt lat="44.7679060" lon="7.0974510">
        <ele>1280.2</ele>
        <time>2017-07-26T07:51:56Z</time>
      </trkpt>
      <trkpt lat="44.7678400" lon="7.0974060">
        <ele>1281.0</ele>
        <time>2017-07-26T07:51:59Z</time>
      </trkpt>
      <trkpt lat="44.7677440" lon="7.0973790">
        <ele>1282.2</ele>
        <time>2017-07-26T07:52:03Z</time>
      </trkpt>
      <trkpt lat="44.7676530" lon="7.0973370">
        <ele>1283.6</ele>
        <time>2017-07-26T07:52:07Z</time>
      </trkpt>
      <trkpt lat="44.7675760" lon="7.0972610">
        <ele>1285.0</ele>
        <time>2017-07-26T07:52:11Z</time>
      </trkpt>
      <trkpt lat="44.7675050" lon="7.0971940">
        <ele>1286.0</ele>
        <time>2017-07-26T07:52:15Z</time>
      </trkpt>
      <trkpt lat="44.7674480" lon="7.0971510">
        <ele>1286.8</ele>
        <time>2017-07-26T07:52:18Z</time>
      </trkpt>
      <trkpt lat="44.7674110" lon="7.0971100">
        <ele>1287.2</ele>
        <time>2017-07-26T07:52:20Z</time>
      </trkpt>
      <trkpt lat="44.7673080" lon="7.0970700">
        <ele>1287.4</ele>
        <time>2017-07-26T07:52:25Z</time>
      </trkpt>
      <trkpt lat="44.7672030" lon="7.0970790">
        <ele>1288.4</ele>
        <time>2017-07-26T07:52:30Z</time>
      </trkpt>
      <trkpt lat="44.7671530" lon="7.0970700">
        <ele>1289.4</ele>
        <time>2017-07-26T07:52:33Z</time>
      </trkpt>
      <trkpt lat="44.7670650" lon="7.0970370">
        <ele>1290.2</ele>
        <time>2017-07-26T07:52:38Z</time>
      </trkpt>
      <trkpt lat="44.7670490" lon="7.0970220">
        <ele>1290.6</ele>
        <time>2017-07-26T07:52:39Z</time>
      </trkpt>
      <trkpt lat="44.7670320" lon="7.0970040">
        <ele>1290.8</ele>
        <time>2017-07-26T07:52:40Z</time>
      </trkpt>
      <trkpt lat="44.7669720" lon="7.0969700">
        <ele>1291.6</ele>
        <time>2017-07-26T07:52:43Z</time>
      </trkpt>
      <trkpt lat="44.7669170" lon="7.0968950">
        <ele>1292.6</ele>
        <time>2017-07-26T07:52:47Z</time>
      </trkpt>
      <trkpt lat="44.7668890" lon="7.0968580">
        <ele>1292.8</ele>
        <time>2017-07-26T07:52:49Z</time>
      </trkpt>
      <trkpt lat="44.7667870" lon="7.0967720">
        <ele>1293.0</ele>
        <time>2017-07-26T07:52:55Z</time>
      </trkpt>
      <trkpt lat="44.7666570" lon="7.0967100">
        <ele>1293.2</ele>
        <time>2017-07-26T07:53:02Z</time>
      </trkpt>
      <trkpt lat="44.7665990" lon="7.0966920">
        <ele>1294.0</ele>
        <time>2017-07-26T07:53:05Z</time>
      </trkpt>
      <trkpt lat="44.7665380" lon="7.0966800">
        <ele>1295.2</ele>
        <time>2017-07-26T07:53:08Z</time>
      </trkpt>
      <trkpt lat="44.7665050" lon="7.0966670">
        <ele>1296.0</ele>
        <time>2017-07-26T07:53:10Z</time>
      </trkpt>
      <trkpt lat="44.7664880" lon="7.0966610">
        <ele>1296.4</ele>
        <time>2017-07-26T07:53:11Z</time>
      </trkpt>
      <trkpt lat="44.7664320" lon="7.0966440">
        <ele>1297.4</ele>
        <time>2017-07-26T07:53:14Z</time>
      </trkpt>
      <trkpt lat="44.7663820" lon="7.0966130">
        <ele>1298.6</ele>
        <time>2017-07-26T07:53:17Z</time>
      </trkpt>
      <trkpt lat="44.7663490" lon="7.0965880">
        <ele>1299.4</ele>
        <time>2017-07-26T07:53:19Z</time>
      </trkpt>
      <trkpt lat="44.7663320" lon="7.0965770">
        <ele>1300.0</ele>
        <time>2017-07-26T07:53:20Z</time>
      </trkpt>
      <trkpt lat="44.7663040" lon="7.0965600">
        <ele>1301.0</ele>
        <time>2017-07-26T07:53:22Z</time>
      </trkpt>
      <trkpt lat="44.7662880" lon="7.0965500">
        <ele>1302.2</ele>
        <time>2017-07-26T07:53:23Z</time>
      </trkpt>
      <trkpt lat="44.7662400" lon="7.0965180">
        <ele>1303.6</ele>
        <time>2017-07-26T07:53:26Z</time>
      </trkpt>
      <trkpt lat="44.7661980" lon="7.0964880">
        <ele>1305.0</ele>
        <time>2017-07-26T07:53:29Z</time>
      </trkpt>
      <trkpt lat="44.7661620" lon="7.0964710">
        <ele>1306.0</ele>
        <time>2017-07-26T07:53:31Z</time>
      </trkpt>
      <trkpt lat="44.7661480" lon="7.0964630">
        <ele>1306.4</ele>
        <time>2017-07-26T07:53:32Z</time>
      </trkpt>
      <trkpt lat="44.7660880" lon="7.0964580">
        <ele>1307.2</ele>
        <time>2017-07-26T07:53:35Z</time>
      </trkpt>
      <trkpt lat="44.7660290" lon="7.0964580">
        <ele>1308.2</ele>
        <time>2017-07-26T07:53:38Z</time>
      </trkpt>
      <trkpt lat="44.7659420" lon="7.0964610">
        <ele>1309.6</ele>
        <time>2017-07-26T07:53:42Z</time>
      </trkpt>
      <trkpt lat="44.7658960" lon="7.0964290">
        <ele>1310.8</ele>
        <time>2017-07-26T07:53:45Z</time>
      </trkpt>
      <trkpt lat="44.7658670" lon="7.0963990">
        <ele>1312.2</ele>
        <time>2017-07-26T07:53:47Z</time>
      </trkpt>
      <trkpt lat="44.7658410" lon="7.0963890">
        <ele>1313.2</ele>
        <time>2017-07-26T07:53:49Z</time>
      </trkpt>
      <trkpt lat="44.7658290" lon="7.0963840">
        <ele>1313.6</ele>
        <time>2017-07-26T07:53:50Z</time>
      </trkpt>
      <trkpt lat="44.7658150" lon="7.0963710">
        <ele>1313.8</ele>
        <time>2017-07-26T07:53:51Z</time>
      </trkpt>
      <trkpt lat="44.7657670" lon="7.0963670">
        <ele>1314.6</ele>
        <time>2017-07-26T07:53:54Z</time>
      </trkpt>
      <trkpt lat="44.7657490" lon="7.0964000">
        <ele>1315.2</ele>
        <time>2017-07-26T07:53:56Z</time>
      </trkpt>
      <trkpt lat="44.7657440" lon="7.0964210">
        <ele>1315.8</ele>
        <time>2017-07-26T07:53:57Z</time>
      </trkpt>
      <trkpt lat="44.7657450" lon="7.0964710">
        <ele>1316.8</ele>
        <time>2017-07-26T07:54:00Z</time>
      </trkpt>
      <trkpt lat="44.7657510" lon="7.0965050">
        <ele>1317.6</ele>
        <time>2017-07-26T07:54:02Z</time>
      </trkpt>
      <trkpt lat="44.7657490" lon="7.0965230">
        <ele>1317.8</ele>
        <time>2017-07-26T07:54:03Z</time>
      </trkpt>
      <trkpt lat="44.7657550" lon="7.0965620">
        <ele>1318.6</ele>
        <time>2017-07-26T07:54:05Z</time>
      </trkpt>
      <trkpt lat="44.7657590" lon="7.0965810">
        <ele>1319.0</ele>
        <time>2017-07-26T07:54:06Z</time>
      </trkpt>
      <trkpt lat="44.7657590" lon="7.0966360">
        <ele>1320.0</ele>
        <time>2017-07-26T07:54:09Z</time>
      </trkpt>
      <trkpt lat="44.7657600" lon="7.0966490">
        <ele>1320.2</ele>
        <time>2017-07-26T07:54:10Z</time>
      </trkpt>
      <trkpt lat="44.7657630" lon="7.0966650">
        <ele>1320.8</ele>
        <time>2017-07-26T07:54:11Z</time>
      </trkpt>
      <trkpt lat="44.7657670" lon="7.0966810">
        <ele>1321.2</ele>
        <time>2017-07-26T07:54:12Z</time>
      </trkpt>
      <trkpt lat="44.7657830" lon="7.0967070">
        <ele>1322.0</ele>
        <time>2017-07-26T07:54:14Z</time>
      </trkpt>
      <trkpt lat="44.7657880" lon="7.0967260">
        <ele>1322.2</ele>
        <time>2017-07-26T07:54:15Z</time>
      </trkpt>
      <trkpt lat="44.7657960" lon="7.0967870">
        <ele>1323.4</ele>
        <time>2017-07-26T07:54:19Z</time>
      </trkpt>
      <trkpt lat="44.7657880" lon="7.0968140">
        <ele>1324.0</ele>
        <time>2017-07-26T07:54:21Z</time>
      </trkpt>
      <trkpt lat="44.7657780" lon="7.0968290">
        <ele>1324.2</ele>
        <time>2017-07-26T07:54:22Z</time>
      </trkpt>
      <trkpt lat="44.7657720" lon="7.0968470">
        <ele>1324.4</ele>
        <time>2017-07-26T07:54:23Z</time>
      </trkpt>
      <trkpt lat="44.7657280" lon="7.0968980">
        <ele>1325.8</ele>
        <time>2017-07-26T07:54:27Z</time>
      </trkpt>
      <trkpt lat="44.7657140" lon="7.0969000">
        <ele>1326.2</ele>
        <time>2017-07-26T07:54:28Z</time>
      </trkpt>
      <trkpt lat="44.7657030" lon="7.0968980">
        <ele>1326.4</ele>
        <time>2017-07-26T07:54:29Z</time>
      </trkpt>
      <trkpt lat="44.7656800" lon="7.0968920">
        <ele>1327.0</ele>
        <time>2017-07-26T07:54:31Z</time>
      </trkpt>
      <trkpt lat="44.7656570" lon="7.0968860">
        <ele>1327.8</ele>
        <time>2017-07-26T07:54:33Z</time>
      </trkpt>
      <trkpt lat="44.7656460" lon="7.0968860">
        <ele>1328.2</ele>
        <time>2017-07-26T07:54:34Z</time>
      </trkpt>
      <trkpt lat="44.7656210" lon="7.0968840">
        <ele>1329.2</ele>
        <time>2017-07-26T07:54:36Z</time>
      </trkpt>
      <trkpt lat="44.7656130" lon="7.0968790">
        <ele>1329.4</ele>
        <time>2017-07-26T07:54:37Z</time>
      </trkpt>
      <trkpt lat="44.7655580" lon="7.0968610">
        <ele>1330.2</ele>
        <time>2017-07-26T07:54:42Z</time>
      </trkpt>
      <trkpt lat="44.7655330" lon="7.0968550">
        <ele>1330.6</ele>
        <time>2017-07-26T07:54:44Z</time>
      </trkpt>
      <trkpt lat="44.7654910" lon="7.0968450">
        <ele>1331.2</ele>
        <time>2017-07-26T07:54:48Z</time>
      </trkpt>
      <trkpt lat="44.7654390" lon="7.0968150">
        <ele>1331.6</ele>
        <time>2017-07-26T07:54:52Z</time>
      </trkpt>
      <trkpt lat="44.7654150" lon="7.0967970">
        <ele>1331.8</ele>
        <time>2017-07-26T07:54:54Z</time>
      </trkpt>
      <trkpt lat="44.7653600" lon="7.0967820">
        <ele>1331.8</ele>
        <time>2017-07-26T07:54:58Z</time>
      </trkpt>
      <trkpt lat="44.7653180" lon="7.0967900">
        <ele>1332.0</ele>
        <time>2017-07-26T07:55:01Z</time>
      </trkpt>
      <trkpt lat="44.7652450" lon="7.0968010">
        <ele>1332.8</ele>
        <time>2017-07-26T07:55:06Z</time>
      </trkpt>
      <trkpt lat="44.7652170" lon="7.0968110">
        <ele>1333.0</ele>
        <time>2017-07-26T07:55:08Z</time>
      </trkpt>
      <trkpt lat="44.7651680" lon="7.0968380">
        <ele>1334.2</ele>
        <time>2017-07-26T07:55:12Z</time>
      </trkpt>
      <trkpt lat="44.7651320" lon="7.0968480">
        <ele>1335.4</ele>
        <time>2017-07-26T07:55:15Z</time>
      </trkpt>
      <trkpt lat="44.7650940" lon="7.0968620">
        <ele>1337.0</ele>
        <time>2017-07-26T07:55:18Z</time>
      </trkpt>
      <trkpt lat="44.7650530" lon="7.0968590">
        <ele>1338.2</ele>
        <time>2017-07-26T07:55:21Z</time>
      </trkpt>
      <trkpt lat="44.7650420" lon="7.0968640">
        <ele>1338.6</ele>
        <time>2017-07-26T07:55:22Z</time>
      </trkpt>
      <trkpt lat="44.7650270" lon="7.0968660">
        <ele>1339.8</ele>
        <time>2017-07-26T07:55:23Z</time>
      </trkpt>
      <trkpt lat="44.7649890" lon="7.0968540">
        <ele>1341.2</ele>
        <time>2017-07-26T07:55:26Z</time>
      </trkpt>
      <trkpt lat="44.7649570" lon="7.0968210">
        <ele>1342.4</ele>
        <time>2017-07-26T07:55:29Z</time>
      </trkpt>
      <trkpt lat="44.7649240" lon="7.0967860">
        <ele>1343.6</ele>
        <time>2017-07-26T07:55:32Z</time>
      </trkpt>
      <trkpt lat="44.7648700" lon="7.0967470">
        <ele>1344.4</ele>
        <time>2017-07-26T07:55:36Z</time>
      </trkpt>
      <trkpt lat="44.7648250" lon="7.0967230">
        <ele>1344.8</ele>
        <time>2017-07-26T07:55:39Z</time>
      </trkpt>
      <trkpt lat="44.7647660" lon="7.0966960">
        <ele>1345.6</ele>
        <time>2017-07-26T07:55:43Z</time>
      </trkpt>
      <trkpt lat="44.7647520" lon="7.0966930">
        <ele>1346.0</ele>
        <time>2017-07-26T07:55:44Z</time>
      </trkpt>
      <trkpt lat="44.7646890" lon="7.0966890">
        <ele>1346.8</ele>
        <time>2017-07-26T07:55:48Z</time>
      </trkpt>
      <trkpt lat="44.7646490" lon="7.0966760">
        <ele>1347.0</ele>
        <time>2017-07-26T07:55:51Z</time>
      </trkpt>
      <trkpt lat="44.7645960" lon="7.0966530">
        <ele>1347.2</ele>
        <time>2017-07-26T07:55:55Z</time>
      </trkpt>
      <trkpt lat="44.7645160" lon="7.0966340">
        <ele>1348.0</ele>
        <time>2017-07-26T07:56:01Z</time>
      </trkpt>
      <trkpt lat="44.7645010" lon="7.0966280">
        <ele>1348.2</ele>
        <time>2017-07-26T07:56:02Z</time>
      </trkpt>
      <trkpt lat="44.7644450" lon="7.0966490">
        <ele>1349.2</ele>
        <time>2017-07-26T07:56:07Z</time>
      </trkpt>
      <trkpt lat="44.7644370" lon="7.0966580">
        <ele>1349.6</ele>
        <time>2017-07-26T07:56:08Z</time>
      </trkpt>
      <trkpt lat="44.7644200" lon="7.0966950">
        <ele>1350.8</ele>
        <time>2017-07-26T07:56:11Z</time>
      </trkpt>
      <trkpt lat="44.7644090" lon="7.0967250">
        <ele>1351.6</ele>
        <time>2017-07-26T07:56:13Z</time>
      </trkpt>
      <trkpt lat="44.7644000" lon="7.0967400">
        <ele>1351.8</ele>
        <time>2017-07-26T07:56:14Z</time>
      </trkpt>
      <trkpt lat="44.7643900" lon="7.0967730">
        <ele>1352.6</ele>
        <time>2017-07-26T07:56:16Z</time>
      </trkpt>
      <trkpt lat="44.7643850" lon="7.0967880">
        <ele>1353.2</ele>
        <time>2017-07-26T07:56:17Z</time>
      </trkpt>
      <trkpt lat="44.7643680" lon="7.0968270">
        <ele>1354.4</ele>
        <time>2017-07-26T07:56:20Z</time>
      </trkpt>
      <trkpt lat="44.7643580" lon="7.0968350">
        <ele>1355.0</ele>
        <time>2017-07-26T07:56:21Z</time>
      </trkpt>
      <trkpt lat="44.7643310" lon="7.0968550">
        <ele>1355.6</ele>
        <time>2017-07-26T07:56:23Z</time>
      </trkpt>
      <trkpt lat="44.7643160" lon="7.0968560">
        <ele>1356.0</ele>
        <time>2017-07-26T07:56:24Z</time>
      </trkpt>
      <trkpt lat="44.7642850" lon="7.0968520">
        <ele>1356.8</ele>
        <time>2017-07-26T07:56:26Z</time>
      </trkpt>
      <trkpt lat="44.7642740" lon="7.0968390">
        <ele>1357.4</ele>
        <time>2017-07-26T07:56:27Z</time>
      </trkpt>
      <trkpt lat="44.7642650" lon="7.0968230">
        <ele>1358.0</ele>
        <time>2017-07-26T07:56:29Z</time>
      </trkpt>
      <trkpt lat="44.7642570" lon="7.0968190">
        <ele>1358.0</ele>
        <time>2017-07-26T07:56:30Z</time>
      </trkpt>
      <trkpt lat="44.7642450" lon="7.0968180">
        <ele>1358.4</ele>
        <time>2017-07-26T07:56:31Z</time>
      </trkpt>
      <trkpt lat="44.7642390" lon="7.0968090">
        <ele>1358.6</ele>
        <time>2017-07-26T07:56:32Z</time>
      </trkpt>
      <trkpt lat="44.7642180" lon="7.0967940">
        <ele>1359.0</ele>
        <time>2017-07-26T07:56:34Z</time>
      </trkpt>
      <trkpt lat="44.7641940" lon="7.0967810">
        <ele>1359.6</ele>
        <time>2017-07-26T07:56:36Z</time>
      </trkpt>
      <trkpt lat="44.7641830" lon="7.0967730">
        <ele>1359.8</ele>
        <time>2017-07-26T07:56:37Z</time>
      </trkpt>
      <trkpt lat="44.7641570" lon="7.0967400">
        <ele>1360.2</ele>
        <time>2017-07-26T07:56:40Z</time>
      </trkpt>
      <trkpt lat="44.7641250" lon="7.0967080">
        <ele>1361.4</ele>
        <time>2017-07-26T07:56:43Z</time>
      </trkpt>
      <trkpt lat="44.7641060" lon="7.0966890">
        <ele>1362.2</ele>
        <time>2017-07-26T07:56:45Z</time>
      </trkpt>
      <trkpt lat="44.7640940" lon="7.0966900">
        <ele>1362.8</ele>
        <time>2017-07-26T07:56:46Z</time>
      </trkpt>
      <trkpt lat="44.7640570" lon="7.0967010">
        <ele>1364.2</ele>
        <time>2017-07-26T07:56:49Z</time>
      </trkpt>
      <trkpt lat="44.7640500" lon="7.0967020">
        <ele>1364.6</ele>
        <time>2017-07-26T07:56:50Z</time>
      </trkpt>
      <trkpt lat="44.7640290" lon="7.0967060">
        <ele>1365.6</ele>
        <time>2017-07-26T07:56:52Z</time>
      </trkpt>
      <trkpt lat="44.7640060" lon="7.0967180">
        <ele>1366.8</ele>
        <time>2017-07-26T07:56:54Z</time>
      </trkpt>
      <trkpt lat="44.7639950" lon="7.0967250">
        <ele>1367.2</ele>
        <time>2017-07-26T07:56:55Z</time>
      </trkpt>
      <trkpt lat="44.7639870" lon="7.0967380">
        <ele>1367.8</ele>
        <time>2017-07-26T07:56:56Z</time>
      </trkpt>
      <trkpt lat="44.7639640" lon="7.0967680">
        <ele>1369.2</ele>
        <time>2017-07-26T07:56:59Z</time>
      </trkpt>
      <trkpt lat="44.7639440" lon="7.0967850">
        <ele>1370.0</ele>
        <time>2017-07-26T07:57:02Z</time>
      </trkpt>
      <trkpt lat="44.7639380" lon="7.0968040">
        <ele>1370.2</ele>
        <time>2017-07-26T07:57:03Z</time>
      </trkpt>
      <trkpt lat="44.7639420" lon="7.0968380">
        <ele>1370.8</ele>
        <time>2017-07-26T07:57:05Z</time>
      </trkpt>
      <trkpt lat="44.7639550" lon="7.0968640">
        <ele>1371.6</ele>
        <time>2017-07-26T07:57:07Z</time>
      </trkpt>
      <trkpt lat="44.7639640" lon="7.0968860">
        <ele>1371.8</ele>
        <time>2017-07-26T07:57:09Z</time>
      </trkpt>
      <trkpt lat="44.7639820" lon="7.0969500">
        <ele>1372.6</ele>
        <time>2017-07-26T07:57:13Z</time>
      </trkpt>
      <trkpt lat="44.7639620" lon="7.0970180">
        <ele>1373.4</ele>
        <time>2017-07-26T07:57:18Z</time>
      </trkpt>
      <trkpt lat="44.7639370" lon="7.0970300">
        <ele>1373.8</ele>
        <time>2017-07-26T07:57:20Z</time>
      </trkpt>
      <trkpt lat="44.7639030" lon="7.0970160">
        <ele>1374.8</ele>
        <time>2017-07-26T07:57:23Z</time>
      </trkpt>
      <trkpt lat="44.7638830" lon="7.0970050">
        <ele>1375.4</ele>
        <time>2017-07-26T07:57:25Z</time>
      </trkpt>
      <trkpt lat="44.7638610" lon="7.0970140">
        <ele>1376.0</ele>
        <time>2017-07-26T07:57:27Z</time>
      </trkpt>
      <trkpt lat="44.7638520" lon="7.0970240">
        <ele>1376.2</ele>
        <time>2017-07-26T07:57:28Z</time>
      </trkpt>
      <trkpt lat="44.7638270" lon="7.0970610">
        <ele>1376.8</ele>
        <time>2017-07-26T07:57:31Z</time>
      </trkpt>
      <trkpt lat="44.7638170" lon="7.0970670">
        <ele>1377.0</ele>
        <time>2017-07-26T07:57:32Z</time>
      </trkpt>
      <trkpt lat="44.7637860" lon="7.0971090">
        <ele>1377.4</ele>
        <time>2017-07-26T07:57:35Z</time>
      </trkpt>
      <trkpt lat="44.7637740" lon="7.0971200">
        <ele>1377.6</ele>
        <time>2017-07-26T07:57:36Z</time>
      </trkpt>
      <trkpt lat="44.7637510" lon="7.0971400">
        <ele>1378.0</ele>
        <time>2017-07-26T07:57:38Z</time>
      </trkpt>
      <trkpt lat="44.7637090" lon="7.0971770">
        <ele>1379.0</ele>
        <time>2017-07-26T07:57:42Z</time>
      </trkpt>
      <trkpt lat="44.7636980" lon="7.0971920">
        <ele>1379.6</ele>
        <time>2017-07-26T07:57:43Z</time>
      </trkpt>
      <trkpt lat="44.7636760" lon="7.0972090">
        <ele>1380.2</ele>
        <time>2017-07-26T07:57:45Z</time>
      </trkpt>
      <trkpt lat="44.7636410" lon="7.0972360">
        <ele>1381.8</ele>
        <time>2017-07-26T07:57:48Z</time>
      </trkpt>
      <trkpt lat="44.7636140" lon="7.0972450">
        <ele>1383.2</ele>
        <time>2017-07-26T07:57:51Z</time>
      </trkpt>
      <trkpt lat="44.7635840" lon="7.0972710">
        <ele>1384.4</ele>
        <time>2017-07-26T07:57:54Z</time>
      </trkpt>
      <trkpt lat="44.7635280" lon="7.0972990">
        <ele>1385.2</ele>
        <time>2017-07-26T07:57:57Z</time>
      </trkpt>
      <trkpt lat="44.7634840" lon="7.0973150">
        <ele>1385.6</ele>
        <time>2017-07-26T07:57:59Z</time>
      </trkpt>
      <trkpt lat="44.7633980" lon="7.0973260">
        <ele>1386.2</ele>
        <time>2017-07-26T07:58:03Z</time>
      </trkpt>
      <trkpt lat="44.7633490" lon="7.0973140">
        <ele>1386.6</ele>
        <time>2017-07-26T07:58:05Z</time>
      </trkpt>
      <trkpt lat="44.7632720" lon="7.0972590">
        <ele>1387.6</ele>
        <time>2017-07-26T07:58:09Z</time>
      </trkpt>
      <trkpt lat="44.7632580" lon="7.0972420">
        <ele>1388.0</ele>
        <time>2017-07-26T07:58:10Z</time>
      </trkpt>
      <trkpt lat="44.7632070" lon="7.0971780">
        <ele>1388.8</ele>
        <time>2017-07-26T07:58:13Z</time>
      </trkpt>
      <trkpt lat="44.7631300" lon="7.0971130">
        <ele>1389.8</ele>
        <time>2017-07-26T07:58:17Z</time>
      </trkpt>
      <trkpt lat="44.7631110" lon="7.0970890">
        <ele>1390.0</ele>
        <time>2017-07-26T07:58:18Z</time>
      </trkpt>
      <trkpt lat="44.7630090" lon="7.0970030">
        <ele>1390.4</ele>
        <time>2017-07-26T07:58:23Z</time>
      </trkpt>
      <trkpt lat="44.7629240" lon="7.0969080">
        <ele>1391.2</ele>
        <time>2017-07-26T07:58:28Z</time>
      </trkpt>
      <trkpt lat="44.7628840" lon="7.0968790">
        <ele>1391.8</ele>
        <time>2017-07-26T07:58:30Z</time>
      </trkpt>
      <trkpt lat="44.7627670" lon="7.0967620">
        <ele>1392.0</ele>
        <time>2017-07-26T07:58:37Z</time>
      </trkpt>
      <trkpt lat="44.7627240" lon="7.0967050">
        <ele>1392.4</ele>
        <time>2017-07-26T07:58:40Z</time>
      </trkpt>
      <trkpt lat="44.7626570" lon="7.0966480">
        <ele>1392.6</ele>
        <time>2017-07-26T07:58:44Z</time>
      </trkpt>
      <trkpt lat="44.7625660" lon="7.0965500">
        <ele>1393.6</ele>
        <time>2017-07-26T07:58:50Z</time>
      </trkpt>
      <trkpt lat="44.7625100" lon="7.0964800">
        <ele>1387.0</ele>
        <time>2017-07-26T07:58:54Z</time>
      </trkpt>
      <trkpt lat="44.7624900" lon="7.0964650">
        <ele>1384.8</ele>
        <time>2017-07-26T07:58:55Z</time>
      </trkpt>
      <trkpt lat="44.7624560" lon="7.0964300">
        <ele>1392.0</ele>
        <time>2017-07-26T07:58:57Z</time>
      </trkpt>
      <trkpt lat="44.7624400" lon="7.0964130">
        <ele>1394.6</ele>
        <time>2017-07-26T07:58:58Z</time>
      </trkpt>
      <trkpt lat="44.7624060" lon="7.0963810">
        <ele>1395.6</ele>
        <time>2017-07-26T07:59:00Z</time>
      </trkpt>
      <trkpt lat="44.7623250" lon="7.0963030">
        <ele>1396.6</ele>
        <time>2017-07-26T07:59:05Z</time>
      </trkpt>
      <trkpt lat="44.7622970" lon="7.0962610">
        <ele>1397.0</ele>
        <time>2017-07-26T07:59:07Z</time>
      </trkpt>
      <trkpt lat="44.7622260" lon="7.0962080">
        <ele>1397.8</ele>
        <time>2017-07-26T07:59:11Z</time>
      </trkpt>
      <trkpt lat="44.7621760" lon="7.0961610">
        <ele>1398.6</ele>
        <time>2017-07-26T07:59:14Z</time>
      </trkpt>
      <trkpt lat="44.7621610" lon="7.0961410">
        <ele>1399.0</ele>
        <time>2017-07-26T07:59:15Z</time>
      </trkpt>
      <trkpt lat="44.7620870" lon="7.0960650">
        <ele>1400.0</ele>
        <time>2017-07-26T07:59:20Z</time>
      </trkpt>
      <trkpt lat="44.7620440" lon="7.0960190">
        <ele>1400.8</ele>
        <time>2017-07-26T07:59:23Z</time>
      </trkpt>
      <trkpt lat="44.7620170" lon="7.0959840">
        <ele>1401.2</ele>
        <time>2017-07-26T07:59:25Z</time>
      </trkpt>
      <trkpt lat="44.7619470" lon="7.0959000">
        <ele>1402.4</ele>
        <time>2017-07-26T07:59:30Z</time>
      </trkpt>
      <trkpt lat="44.7619370" lon="7.0958800">
        <ele>1402.6</ele>
        <time>2017-07-26T07:59:31Z</time>
      </trkpt>
      <trkpt lat="44.7619260" lon="7.0958600">
        <ele>1402.8</ele>
        <time>2017-07-26T07:59:32Z</time>
      </trkpt>
      <trkpt lat="44.7618890" lon="7.0958320">
        <ele>1403.4</ele>
        <time>2017-07-26T07:59:34Z</time>
      </trkpt>
      <trkpt lat="44.7618340" lon="7.0957810">
        <ele>1404.2</ele>
        <time>2017-07-26T07:59:37Z</time>
      </trkpt>
      <trkpt lat="44.7618150" lon="7.0957580">
        <ele>1404.6</ele>
        <time>2017-07-26T07:59:38Z</time>
      </trkpt>
      <trkpt lat="44.7617070" lon="7.0956180">
        <ele>1405.8</ele>
        <time>2017-07-26T07:59:43Z</time>
      </trkpt>
      <trkpt lat="44.7616810" lon="7.0955810">
        <ele>1406.0</ele>
        <time>2017-07-26T07:59:44Z</time>
      </trkpt>
      <trkpt lat="44.7616340" lon="7.0955060">
        <ele>1406.8</ele>
        <time>2017-07-26T07:59:46Z</time>
      </trkpt>
      <trkpt lat="44.7615930" lon="7.0954300">
        <ele>1408.0</ele>
        <time>2017-07-26T07:59:48Z</time>
      </trkpt>
      <trkpt lat="44.7615260" lon="7.0953280">
        <ele>1409.6</ele>
        <time>2017-07-26T07:59:51Z</time>
      </trkpt>
      <trkpt lat="44.7614870" lon="7.0952440">
        <ele>1410.6</ele>
        <time>2017-07-26T07:59:53Z</time>
      </trkpt>
      <trkpt lat="44.7614720" lon="7.0951510">
        <ele>1411.6</ele>
        <time>2017-07-26T07:59:55Z</time>
      </trkpt>
      <trkpt lat="44.7614610" lon="7.0951050">
        <ele>1412.0</ele>
        <time>2017-07-26T07:59:56Z</time>
      </trkpt>
      <trkpt lat="44.7614500" lon="7.0950630">
        <ele>1412.6</ele>
        <time>2017-07-26T07:59:57Z</time>
      </trkpt>
      <trkpt lat="44.7613900" lon="7.0949600">
        <ele>1414.0</ele>
        <time>2017-07-26T08:00:00Z</time>
      </trkpt>
      <trkpt lat="44.7613570" lon="7.0949350">
        <ele>1414.4</ele>
        <time>2017-07-26T08:00:01Z</time>
      </trkpt>
      <trkpt lat="44.7612960" lon="7.0948820">
        <ele>1415.2</ele>
        <time>2017-07-26T08:00:03Z</time>
      </trkpt>
      <trkpt lat="44.7612080" lon="7.0948020">
        <ele>1416.4</ele>
        <time>2017-07-26T08:00:06Z</time>
      </trkpt>
      <trkpt lat="44.7611410" lon="7.0947420">
        <ele>1417.0</ele>
        <time>2017-07-26T08:00:08Z</time>
      </trkpt>
      <trkpt lat="44.7610830" lon="7.0946680">
        <ele>1417.8</ele>
        <time>2017-07-26T08:00:10Z</time>
      </trkpt>
      <trkpt lat="44.7609880" lon="7.0944950">
        <ele>1418.6</ele>
        <time>2017-07-26T08:00:14Z</time>
      </trkpt>
      <trkpt lat="44.7609670" lon="7.0944560">
        <ele>1418.8</ele>
        <time>2017-07-26T08:00:15Z</time>
      </trkpt>
      <trkpt lat="44.7609290" lon="7.0942440">
        <ele>1420.0</ele>
        <time>2017-07-26T08:00:20Z</time>
      </trkpt>
      <trkpt lat="44.7610150" lon="7.0940020">
        <ele>1421.0</ele>
        <time>2017-07-26T08:00:25Z</time>
      </trkpt>
      <trkpt lat="44.7610460" lon="7.0939620">
        <ele>1421.2</ele>
        <time>2017-07-26T08:00:26Z</time>
      </trkpt>
      <trkpt lat="44.7611200" lon="7.0939320">
        <ele>1421.4</ele>
        <time>2017-07-26T08:00:28Z</time>
      </trkpt>
      <trkpt lat="44.7612760" lon="7.0938990">
        <ele>1421.6</ele>
        <time>2017-07-26T08:00:33Z</time>
      </trkpt>
      <trkpt lat="44.7614170" lon="7.0938180">
        <ele>1421.0</ele>
        <time>2017-07-26T08:00:39Z</time>
      </trkpt>
      <trkpt lat="44.7615790" lon="7.0937000">
        <ele>1421.4</ele>
        <time>2017-07-26T08:00:46Z</time>
      </trkpt>
      <trkpt lat="44.7617220" lon="7.0935210">
        <ele>1421.8</ele>
        <time>2017-07-26T08:00:53Z</time>
      </trkpt>
      <trkpt lat="44.7617550" lon="7.0934610">
        <ele>1422.2</ele>
        <time>2017-07-26T08:00:55Z</time>
      </trkpt>
      <trkpt lat="44.7617970" lon="7.0933460">
        <ele>1423.8</ele>
        <time>2017-07-26T08:00:59Z</time>
      </trkpt>
      <trkpt lat="44.7618090" lon="7.0933160">
        <ele>1424.2</ele>
        <time>2017-07-26T08:01:00Z</time>
      </trkpt>
      <trkpt lat="44.7618240" lon="7.0932550">
        <ele>1425.0</ele>
        <time>2017-07-26T08:01:02Z</time>
      </trkpt>
      <trkpt lat="44.7618290" lon="7.0931330">
        <ele>1426.4</ele>
        <time>2017-07-26T08:01:06Z</time>
      </trkpt>
      <trkpt lat="44.7618220" lon="7.0931030">
        <ele>1426.8</ele>
        <time>2017-07-26T08:01:07Z</time>
      </trkpt>
      <trkpt lat="44.7617480" lon="7.0929500">
        <ele>1427.4</ele>
        <time>2017-07-26T08:01:13Z</time>
      </trkpt>
      <trkpt lat="44.7616080" lon="7.0927440">
        <ele>1427.8</ele>
        <time>2017-07-26T08:01:23Z</time>
      </trkpt>
      <trkpt lat="44.7615270" lon="7.0926290">
        <ele>1428.4</ele>
        <time>2017-07-26T08:01:29Z</time>
      </trkpt>
      <trkpt lat="44.7615090" lon="7.0925850">
        <ele>1428.8</ele>
        <time>2017-07-26T08:01:31Z</time>
      </trkpt>
      <trkpt lat="44.7614360" lon="7.0924960">
        <ele>1429.6</ele>
        <time>2017-07-26T08:01:36Z</time>
      </trkpt>
      <trkpt lat="44.7614200" lon="7.0924810">
        <ele>1429.8</ele>
        <time>2017-07-26T08:01:37Z</time>
      </trkpt>
      <trkpt lat="44.7613560" lon="7.0923860">
        <ele>1430.8</ele>
        <time>2017-07-26T08:01:42Z</time>
      </trkpt>
      <trkpt lat="44.7613300" lon="7.0923520">
        <ele>1431.2</ele>
        <time>2017-07-26T08:01:44Z</time>
      </trkpt>
      <trkpt lat="44.7613070" lon="7.0923110">
        <ele>1431.8</ele>
        <time>2017-07-26T08:01:46Z</time>
      </trkpt>
      <trkpt lat="44.7612450" lon="7.0922510">
        <ele>1433.0</ele>
        <time>2017-07-26T08:01:50Z</time>
      </trkpt>
      <trkpt lat="44.7612160" lon="7.0922170">
        <ele>1433.4</ele>
        <time>2017-07-26T08:01:52Z</time>
      </trkpt>
      <trkpt lat="44.7611590" lon="7.0921610">
        <ele>1434.2</ele>
        <time>2017-07-26T08:01:56Z</time>
      </trkpt>
      <trkpt lat="44.7610970" lon="7.0921000">
        <ele>1435.2</ele>
        <time>2017-07-26T08:02:00Z</time>
      </trkpt>
      <trkpt lat="44.7610770" lon="7.0920890">
        <ele>1435.4</ele>
        <time>2017-07-26T08:02:01Z</time>
      </trkpt>
      <trkpt lat="44.7609970" lon="7.0920180">
        <ele>1436.6</ele>
        <time>2017-07-26T08:02:06Z</time>
      </trkpt>
      <trkpt lat="44.7609810" lon="7.0920080">
        <ele>1436.8</ele>
        <time>2017-07-26T08:02:07Z</time>
      </trkpt>
      <trkpt lat="44.7609210" lon="7.0919840">
        <ele>1437.6</ele>
        <time>2017-07-26T08:02:10Z</time>
      </trkpt>
      <trkpt lat="44.7608550" lon="7.0919220">
        <ele>1432.8</ele>
        <time>2017-07-26T08:02:14Z</time>
      </trkpt>
      <trkpt lat="44.7608090" lon="7.0918750">
        <ele>1439.0</ele>
        <time>2017-07-26T08:02:17Z</time>
      </trkpt>
      <trkpt lat="44.7607920" lon="7.0918690">
        <ele>1440.4</ele>
        <time>2017-07-26T08:02:18Z</time>
      </trkpt>
      <trkpt lat="44.7607600" lon="7.0918440">
        <ele>1440.4</ele>
        <time>2017-07-26T08:02:20Z</time>
      </trkpt>
      <trkpt lat="44.7606950" lon="7.0918000">
        <ele>1442.6</ele>
        <time>2017-07-26T08:02:24Z</time>
      </trkpt>
      <trkpt lat="44.7606580" lon="7.0917770">
        <ele>1443.8</ele>
        <time>2017-07-26T08:02:26Z</time>
      </trkpt>
      <trkpt lat="44.7606420" lon="7.0917650">
        <ele>1443.8</ele>
        <time>2017-07-26T08:02:27Z</time>
      </trkpt>
      <trkpt lat="44.7605700" lon="7.0916960">
        <ele>1444.8</ele>
        <time>2017-07-26T08:02:32Z</time>
      </trkpt>
      <trkpt lat="44.7605230" lon="7.0916520">
        <ele>1445.6</ele>
        <time>2017-07-26T08:02:35Z</time>
      </trkpt>
      <trkpt lat="44.7605130" lon="7.0916280">
        <ele>1445.8</ele>
        <time>2017-07-26T08:02:36Z</time>
      </trkpt>
      <trkpt lat="44.7604500" lon="7.0915840">
        <ele>1446.6</ele>
        <time>2017-07-26T08:02:40Z</time>
      </trkpt>
      <trkpt lat="44.7604320" lon="7.0915820">
        <ele>1446.8</ele>
        <time>2017-07-26T08:02:41Z</time>
      </trkpt>
      <trkpt lat="44.7603430" lon="7.0914920">
        <ele>1448.2</ele>
        <time>2017-07-26T08:02:47Z</time>
      </trkpt>
      <trkpt lat="44.7603010" lon="7.0913930">
        <ele>1449.2</ele>
        <time>2017-07-26T08:02:51Z</time>
      </trkpt>
      <trkpt lat="44.7602570" lon="7.0913470">
        <ele>1450.0</ele>
        <time>2017-07-26T08:02:54Z</time>
      </trkpt>
      <trkpt lat="44.7602280" lon="7.0913080">
        <ele>1450.4</ele>
        <time>2017-07-26T08:02:56Z</time>
      </trkpt>
      <trkpt lat="44.7601860" lon="7.0912180">
        <ele>1452.2</ele>
        <time>2017-07-26T08:02:59Z</time>
      </trkpt>
      <trkpt lat="44.7601720" lon="7.0911880">
        <ele>1452.4</ele>
        <time>2017-07-26T08:03:00Z</time>
      </trkpt>
      <trkpt lat="44.7601400" lon="7.0911310">
        <ele>1453.2</ele>
        <time>2017-07-26T08:03:02Z</time>
      </trkpt>
      <trkpt lat="44.7600940" lon="7.0910410">
        <ele>1454.4</ele>
        <time>2017-07-26T08:03:05Z</time>
      </trkpt>
      <trkpt lat="44.7600660" lon="7.0909760">
        <ele>1455.2</ele>
        <time>2017-07-26T08:03:07Z</time>
      </trkpt>
      <trkpt lat="44.7600530" lon="7.0909380">
        <ele>1455.6</ele>
        <time>2017-07-26T08:03:08Z</time>
      </trkpt>
      <trkpt lat="44.7600050" lon="7.0908390">
        <ele>1456.8</ele>
        <time>2017-07-26T08:03:11Z</time>
      </trkpt>
      <trkpt lat="44.7599500" lon="7.0907390">
        <ele>1458.0</ele>
        <time>2017-07-26T08:03:15Z</time>
      </trkpt>
      <trkpt lat="44.7598640" lon="7.0906550">
        <ele>1459.0</ele>
        <time>2017-07-26T08:03:20Z</time>
      </trkpt>
      <trkpt lat="44.7598410" lon="7.0906440">
        <ele>1459.2</ele>
        <time>2017-07-26T08:03:21Z</time>
      </trkpt>
      <trkpt lat="44.7597310" lon="7.0906260">
        <ele>1460.2</ele>
        <time>2017-07-26T08:03:26Z</time>
      </trkpt>
      <trkpt lat="44.7597080" lon="7.0906270">
        <ele>1460.6</ele>
        <time>2017-07-26T08:03:27Z</time>
      </trkpt>
      <trkpt lat="44.7596100" lon="7.0906210">
        <ele>1461.4</ele>
        <time>2017-07-26T08:03:32Z</time>
      </trkpt>
      <trkpt lat="44.7595480" lon="7.0906080">
        <ele>1462.2</ele>
        <time>2017-07-26T08:03:35Z</time>
      </trkpt>
      <trkpt lat="44.7595100" lon="7.0906060">
        <ele>1462.6</ele>
        <time>2017-07-26T08:03:37Z</time>
      </trkpt>
      <trkpt lat="44.7594240" lon="7.0906110">
        <ele>1463.4</ele>
        <time>2017-07-26T08:03:41Z</time>
      </trkpt>
      <trkpt lat="44.7594040" lon="7.0906070">
        <ele>1463.6</ele>
        <time>2017-07-26T08:03:42Z</time>
      </trkpt>
      <trkpt lat="44.7592950" lon="7.0906020">
        <ele>1464.8</ele>
        <time>2017-07-26T08:03:47Z</time>
      </trkpt>
      <trkpt lat="44.7592710" lon="7.0906000">
        <ele>1465.2</ele>
        <time>2017-07-26T08:03:48Z</time>
      </trkpt>
      <trkpt lat="44.7591960" lon="7.0905950">
        <ele>1465.8</ele>
        <time>2017-07-26T08:03:51Z</time>
      </trkpt>
      <trkpt lat="44.7591730" lon="7.0905860">
        <ele>1466.2</ele>
        <time>2017-07-26T08:03:52Z</time>
      </trkpt>
      <trkpt lat="44.7590820" lon="7.0905500">
        <ele>1467.0</ele>
        <time>2017-07-26T08:03:56Z</time>
      </trkpt>
      <trkpt lat="44.7590130" lon="7.0905360">
        <ele>1468.0</ele>
        <time>2017-07-26T08:03:59Z</time>
      </trkpt>
      <trkpt lat="44.7589880" lon="7.0905260">
        <ele>1468.2</ele>
        <time>2017-07-26T08:04:00Z</time>
      </trkpt>
      <trkpt lat="44.7588800" lon="7.0904830">
        <ele>1469.2</ele>
        <time>2017-07-26T08:04:05Z</time>
      </trkpt>
      <trkpt lat="44.7588580" lon="7.0904710">
        <ele>1469.6</ele>
        <time>2017-07-26T08:04:06Z</time>
      </trkpt>
      <trkpt lat="44.7587910" lon="7.0904430">
        <ele>1470.4</ele>
        <time>2017-07-26T08:04:09Z</time>
      </trkpt>
      <trkpt lat="44.7587060" lon="7.0904370">
        <ele>1471.6</ele>
        <time>2017-07-26T08:04:13Z</time>
      </trkpt>
      <trkpt lat="44.7586620" lon="7.0904360">
        <ele>1472.4</ele>
        <time>2017-07-26T08:04:15Z</time>
      </trkpt>
      <trkpt lat="44.7586170" lon="7.0904350">
        <ele>1473.0</ele>
        <time>2017-07-26T08:04:17Z</time>
      </trkpt>
      <trkpt lat="44.7585560" lon="7.0904130">
        <ele>1474.0</ele>
        <time>2017-07-26T08:04:20Z</time>
      </trkpt>
      <trkpt lat="44.7584840" lon="7.0903840">
        <ele>1475.2</ele>
        <time>2017-07-26T08:04:23Z</time>
      </trkpt>
      <trkpt lat="44.7584130" lon="7.0903970">
        <ele>1476.6</ele>
        <time>2017-07-26T08:04:26Z</time>
      </trkpt>
      <trkpt lat="44.7583470" lon="7.0904160">
        <ele>1477.8</ele>
        <time>2017-07-26T08:04:29Z</time>
      </trkpt>
      <trkpt lat="44.7583030" lon="7.0904090">
        <ele>1478.8</ele>
        <time>2017-07-26T08:04:31Z</time>
      </trkpt>
      <trkpt lat="44.7582400" lon="7.0903870">
        <ele>1480.4</ele>
        <time>2017-07-26T08:04:34Z</time>
      </trkpt>
      <trkpt lat="44.7582210" lon="7.0903860">
        <ele>1481.0</ele>
        <time>2017-07-26T08:04:35Z</time>
      </trkpt>
      <trkpt lat="44.7582020" lon="7.0903860">
        <ele>1482.0</ele>
        <time>2017-07-26T08:04:36Z</time>
      </trkpt>
      <trkpt lat="44.7581260" lon="7.0903590">
        <ele>1483.2</ele>
        <time>2017-07-26T08:04:39Z</time>
      </trkpt>
      <trkpt lat="44.7580920" lon="7.0903070">
        <ele>1484.2</ele>
        <time>2017-07-26T08:04:41Z</time>
      </trkpt>
      <trkpt lat="44.7580930" lon="7.0902710">
        <ele>1484.6</ele>
        <time>2017-07-26T08:04:42Z</time>
      </trkpt>
      <trkpt lat="44.7581170" lon="7.0902290">
        <ele>1485.6</ele>
        <time>2017-07-26T08:04:44Z</time>
      </trkpt>
      <trkpt lat="44.7581830" lon="7.0902110">
        <ele>1480.2</ele>
        <time>2017-07-26T08:04:47Z</time>
      </trkpt>
      <trkpt lat="44.7582260" lon="7.0902070">
        <ele>1481.2</ele>
        <time>2017-07-26T08:04:49Z</time>
      </trkpt>
      <trkpt lat="44.7582440" lon="7.0902050">
        <ele>1487.8</ele>
        <time>2017-07-26T08:04:50Z</time>
      </trkpt>
      <trkpt lat="44.7583160" lon="7.0901660">
        <ele>1488.8</ele>
        <time>2017-07-26T08:04:54Z</time>
      </trkpt>
      <trkpt lat="44.7583540" lon="7.0901660">
        <ele>1489.2</ele>
        <time>2017-07-26T08:04:56Z</time>
      </trkpt>
      <trkpt lat="44.7584280" lon="7.0901460">
        <ele>1490.4</ele>
        <time>2017-07-26T08:05:00Z</time>
      </trkpt>
      <trkpt lat="44.7584730" lon="7.0901290">
        <ele>1491.2</ele>
        <time>2017-07-26T08:05:03Z</time>
      </trkpt>
      <trkpt lat="44.7584890" lon="7.0901190">
        <ele>1491.6</ele>
        <time>2017-07-26T08:05:04Z</time>
      </trkpt>
      <trkpt lat="44.7585650" lon="7.0900810">
        <ele>1492.6</ele>
        <time>2017-07-26T08:05:09Z</time>
      </trkpt>
      <trkpt lat="44.7585950" lon="7.0900650">
        <ele>1493.2</ele>
        <time>2017-07-26T08:05:11Z</time>
      </trkpt>
      <trkpt lat="44.7586520" lon="7.0900310">
        <ele>1493.8</ele>
        <time>2017-07-26T08:05:14Z</time>
      </trkpt>
      <trkpt lat="44.7587170" lon="7.0899950">
        <ele>1494.8</ele>
        <time>2017-07-26T08:05:18Z</time>
      </trkpt>
      <trkpt lat="44.7587510" lon="7.0899730">
        <ele>1495.4</ele>
        <time>2017-07-26T08:05:20Z</time>
      </trkpt>
      <trkpt lat="44.7588120" lon="7.0899580">
        <ele>1495.8</ele>
        <time>2017-07-26T08:05:23Z</time>
      </trkpt>
      <trkpt lat="44.7588270" lon="7.0899450">
        <ele>1496.2</ele>
        <time>2017-07-26T08:05:24Z</time>
      </trkpt>
      <trkpt lat="44.7588560" lon="7.0899120">
        <ele>1496.4</ele>
        <time>2017-07-26T08:05:26Z</time>
      </trkpt>
      <trkpt lat="44.7589270" lon="7.0898750">
        <ele>1497.0</ele>
        <time>2017-07-26T08:05:30Z</time>
      </trkpt>
      <trkpt lat="44.7589390" lon="7.0898610">
        <ele>1497.0</ele>
        <time>2017-07-26T08:05:31Z</time>
      </trkpt>
      <trkpt lat="44.7590330" lon="7.0898270">
        <ele>1497.8</ele>
        <time>2017-07-26T08:05:37Z</time>
      </trkpt>
      <trkpt lat="44.7590840" lon="7.0898290">
        <ele>1498.0</ele>
        <time>2017-07-26T08:05:40Z</time>
      </trkpt>
      <trkpt lat="44.7591680" lon="7.0898290">
        <ele>1498.8</ele>
        <time>2017-07-26T08:05:45Z</time>
      </trkpt>
      <trkpt lat="44.7592020" lon="7.0898230">
        <ele>1499.2</ele>
        <time>2017-07-26T08:05:47Z</time>
      </trkpt>
      <trkpt lat="44.7592520" lon="7.0897990">
        <ele>1500.2</ele>
        <time>2017-07-26T08:05:50Z</time>
      </trkpt>
      <trkpt lat="44.7592990" lon="7.0897820">
        <ele>1501.2</ele>
        <time>2017-07-26T08:05:53Z</time>
      </trkpt>
      <trkpt lat="44.7593130" lon="7.0897760">
        <ele>1501.4</ele>
        <time>2017-07-26T08:05:54Z</time>
      </trkpt>
      <trkpt lat="44.7594210" lon="7.0897780">
        <ele>1502.4</ele>
        <time>2017-07-26T08:06:00Z</time>
      </trkpt>
      <trkpt lat="44.7595380" lon="7.0898170">
        <ele>1503.4</ele>
        <time>2017-07-26T08:06:07Z</time>
      </trkpt>
      <trkpt lat="44.7595740" lon="7.0898110">
        <ele>1503.6</ele>
        <time>2017-07-26T08:06:09Z</time>
      </trkpt>
      <trkpt lat="44.7596130" lon="7.0897670">
        <ele>1504.2</ele>
        <time>2017-07-26T08:06:12Z</time>
      </trkpt>
      <trkpt lat="44.7596120" lon="7.0897460">
        <ele>1504.6</ele>
        <time>2017-07-26T08:06:13Z</time>
      </trkpt>
      <trkpt lat="44.7596070" lon="7.0897270">
        <ele>1505.2</ele>
        <time>2017-07-26T08:06:14Z</time>
      </trkpt>
      <trkpt lat="44.7595860" lon="7.0896980">
        <ele>1506.0</ele>
        <time>2017-07-26T08:06:16Z</time>
      </trkpt>
      <trkpt lat="44.7595560" lon="7.0896680">
        <ele>1507.0</ele>
        <time>2017-07-26T08:06:18Z</time>
      </trkpt>
      <trkpt lat="44.7595400" lon="7.0896600">
        <ele>1507.4</ele>
        <time>2017-07-26T08:06:19Z</time>
      </trkpt>
      <trkpt lat="44.7594620" lon="7.0896450">
        <ele>1508.6</ele>
        <time>2017-07-26T08:06:23Z</time>
      </trkpt>
      <trkpt lat="44.7594390" lon="7.0896510">
        <ele>1509.0</ele>
        <time>2017-07-26T08:06:24Z</time>
      </trkpt>
      <trkpt lat="44.7594120" lon="7.0896550">
        <ele>1509.6</ele>
        <time>2017-07-26T08:06:25Z</time>
      </trkpt>
      <trkpt lat="44.7593900" lon="7.0896520">
        <ele>1510.0</ele>
        <time>2017-07-26T08:06:26Z</time>
      </trkpt>
      <trkpt lat="44.7593230" lon="7.0896090">
        <ele>1511.2</ele>
        <time>2017-07-26T08:06:29Z</time>
      </trkpt>
      <trkpt lat="44.7593030" lon="7.0895950">
        <ele>1511.4</ele>
        <time>2017-07-26T08:06:30Z</time>
      </trkpt>
      <trkpt lat="44.7592350" lon="7.0895850">
        <ele>1512.2</ele>
        <time>2017-07-26T08:06:33Z</time>
      </trkpt>
      <trkpt lat="44.7592010" lon="7.0895570">
        <ele>1513.0</ele>
        <time>2017-07-26T08:06:35Z</time>
      </trkpt>
      <trkpt lat="44.7591790" lon="7.0895530">
        <ele>1513.6</ele>
        <time>2017-07-26T08:06:36Z</time>
      </trkpt>
      <trkpt lat="44.7591180" lon="7.0895280">
        <ele>1514.8</ele>
        <time>2017-07-26T08:06:39Z</time>
      </trkpt>
      <trkpt lat="44.7590570" lon="7.0895040">
        <ele>1515.6</ele>
        <time>2017-07-26T08:06:42Z</time>
      </trkpt>
      <trkpt lat="44.7590360" lon="7.0894970">
        <ele>1516.0</ele>
        <time>2017-07-26T08:06:43Z</time>
      </trkpt>
      <trkpt lat="44.7588650" lon="7.0895300">
        <ele>1517.0</ele>
        <time>2017-07-26T08:06:50Z</time>
      </trkpt>
      <trkpt lat="44.7588180" lon="7.0895560">
        <ele>1517.0</ele>
        <time>2017-07-26T08:06:52Z</time>
      </trkpt>
      <trkpt lat="44.7587530" lon="7.0895700">
        <ele>1517.2</ele>
        <time>2017-07-26T08:06:55Z</time>
      </trkpt>
      <trkpt lat="44.7586490" lon="7.0895720">
        <ele>1518.6</ele>
        <time>2017-07-26T08:07:00Z</time>
      </trkpt>
      <trkpt lat="44.7585920" lon="7.0895810">
        <ele>1518.8</ele>
        <time>2017-07-26T08:07:03Z</time>
      </trkpt>
      <trkpt lat="44.7585430" lon="7.0895820">
        <ele>1519.8</ele>
        <time>2017-07-26T08:07:06Z</time>
      </trkpt>
      <trkpt lat="44.7584700" lon="7.0895770">
        <ele>1520.6</ele>
        <time>2017-07-26T08:07:10Z</time>
      </trkpt>
      <trkpt lat="44.7584540" lon="7.0895790">
        <ele>1520.8</ele>
        <time>2017-07-26T08:07:11Z</time>
      </trkpt>
      <trkpt lat="44.7584000" lon="7.0895620">
        <ele>1522.0</ele>
        <time>2017-07-26T08:07:14Z</time>
      </trkpt>
      <trkpt lat="44.7583400" lon="7.0895530">
        <ele>1522.8</ele>
        <time>2017-07-26T08:07:17Z</time>
      </trkpt>
      <trkpt lat="44.7582670" lon="7.0895600">
        <ele>1523.4</ele>
        <time>2017-07-26T08:07:21Z</time>
      </trkpt>
      <trkpt lat="44.7582070" lon="7.0895700">
        <ele>1524.2</ele>
        <time>2017-07-26T08:07:24Z</time>
      </trkpt>
      <trkpt lat="44.7581880" lon="7.0895670">
        <ele>1524.6</ele>
        <time>2017-07-26T08:07:25Z</time>
      </trkpt>
      <trkpt lat="44.7580960" lon="7.0895730">
        <ele>1525.8</ele>
        <time>2017-07-26T08:07:30Z</time>
      </trkpt>
      <trkpt lat="44.7580760" lon="7.0895700">
        <ele>1526.4</ele>
        <time>2017-07-26T08:07:31Z</time>
      </trkpt>
      <trkpt lat="44.7580410" lon="7.0895680">
        <ele>1527.0</ele>
        <time>2017-07-26T08:07:33Z</time>
      </trkpt>
      <trkpt lat="44.7579610" lon="7.0895530">
        <ele>1528.0</ele>
        <time>2017-07-26T08:07:37Z</time>
      </trkpt>
      <trkpt lat="44.7579380" lon="7.0895490">
        <ele>1528.2</ele>
        <time>2017-07-26T08:07:38Z</time>
      </trkpt>
      <trkpt lat="44.7578850" lon="7.0895300">
        <ele>1529.2</ele>
        <time>2017-07-26T08:07:41Z</time>
      </trkpt>
      <trkpt lat="44.7578280" lon="7.0895130">
        <ele>1530.4</ele>
        <time>2017-07-26T08:07:44Z</time>
      </trkpt>
      <trkpt lat="44.7577910" lon="7.0895020">
        <ele>1530.8</ele>
        <time>2017-07-26T08:07:46Z</time>
      </trkpt>
      <trkpt lat="44.7577370" lon="7.0895110">
        <ele>1532.0</ele>
        <time>2017-07-26T08:07:49Z</time>
      </trkpt>
      <trkpt lat="44.7576330" lon="7.0894860">
        <ele>1532.8</ele>
        <time>2017-07-26T08:07:54Z</time>
      </trkpt>
      <trkpt lat="44.7575890" lon="7.0894730">
        <ele>1533.0</ele>
        <time>2017-07-26T08:07:56Z</time>
      </trkpt>
      <trkpt lat="44.7574980" lon="7.0894320">
        <ele>1534.0</ele>
        <time>2017-07-26T08:08:00Z</time>
      </trkpt>
      <trkpt lat="44.7574730" lon="7.0894210">
        <ele>1534.2</ele>
        <time>2017-07-26T08:08:01Z</time>
      </trkpt>
      <trkpt lat="44.7573790" lon="7.0893530">
        <ele>1535.2</ele>
        <time>2017-07-26T08:08:06Z</time>
      </trkpt>
      <trkpt lat="44.7573360" lon="7.0893090">
        <ele>1535.6</ele>
        <time>2017-07-26T08:08:09Z</time>
      </trkpt>
      <trkpt lat="44.7572770" lon="7.0892540">
        <ele>1536.6</ele>
        <time>2017-07-26T08:08:13Z</time>
      </trkpt>
      <trkpt lat="44.7572330" lon="7.0892230">
        <ele>1537.0</ele>
        <time>2017-07-26T08:08:16Z</time>
      </trkpt>
      <trkpt lat="44.7571980" lon="7.0892110">
        <ele>1538.0</ele>
        <time>2017-07-26T08:08:18Z</time>
      </trkpt>
      <trkpt lat="44.7571310" lon="7.0891660">
        <ele>1539.2</ele>
        <time>2017-07-26T08:08:22Z</time>
      </trkpt>
      <trkpt lat="44.7571000" lon="7.0891370">
        <ele>1539.6</ele>
        <time>2017-07-26T08:08:24Z</time>
      </trkpt>
      <trkpt lat="44.7570720" lon="7.0891100">
        <ele>1540.2</ele>
        <time>2017-07-26T08:08:26Z</time>
      </trkpt>
      <trkpt lat="44.7570410" lon="7.0890700">
        <ele>1541.4</ele>
        <time>2017-07-26T08:08:29Z</time>
      </trkpt>
      <trkpt lat="44.7569900" lon="7.0890130">
        <ele>1542.2</ele>
        <time>2017-07-26T08:08:33Z</time>
      </trkpt>
      <trkpt lat="44.7569710" lon="7.0890010">
        <ele>1542.6</ele>
        <time>2017-07-26T08:08:34Z</time>
      </trkpt>
      <trkpt lat="44.7569270" lon="7.0889590">
        <ele>1543.6</ele>
        <time>2017-07-26T08:08:37Z</time>
      </trkpt>
      <trkpt lat="44.7568880" lon="7.0888910">
        <ele>1544.4</ele>
        <time>2017-07-26T08:08:41Z</time>
      </trkpt>
      <trkpt lat="44.7568690" lon="7.0888510">
        <ele>1544.8</ele>
        <time>2017-07-26T08:08:43Z</time>
      </trkpt>
      <trkpt lat="44.7568160" lon="7.0887960">
        <ele>1545.8</ele>
        <time>2017-07-26T08:08:47Z</time>
      </trkpt>
      <trkpt lat="44.7567990" lon="7.0887900">
        <ele>1546.0</ele>
        <time>2017-07-26T08:08:48Z</time>
      </trkpt>
      <trkpt lat="44.7567510" lon="7.0887330">
        <ele>1547.2</ele>
        <time>2017-07-26T08:08:52Z</time>
      </trkpt>
      <trkpt lat="44.7567010" lon="7.0886670">
        <ele>1548.4</ele>
        <time>2017-07-26T08:08:56Z</time>
      </trkpt>
      <trkpt lat="44.7566880" lon="7.0886510">
        <ele>1548.6</ele>
        <time>2017-07-26T08:08:57Z</time>
      </trkpt>
      <trkpt lat="44.7566550" lon="7.0885870">
        <ele>1550.2</ele>
        <time>2017-07-26T08:09:01Z</time>
      </trkpt>
      <trkpt lat="44.7566500" lon="7.0885660">
        <ele>1550.6</ele>
        <time>2017-07-26T08:09:02Z</time>
      </trkpt>
      <trkpt lat="44.7566400" lon="7.0885470">
        <ele>1550.8</ele>
        <time>2017-07-26T08:09:03Z</time>
      </trkpt>
      <trkpt lat="44.7566310" lon="7.0885300">
        <ele>1551.2</ele>
        <time>2017-07-26T08:09:04Z</time>
      </trkpt>
      <trkpt lat="44.7565700" lon="7.0884300">
        <ele>1552.0</ele>
        <time>2017-07-26T08:09:10Z</time>
      </trkpt>
      <trkpt lat="44.7565350" lon="7.0884080">
        <ele>1552.4</ele>
        <time>2017-07-26T08:09:12Z</time>
      </trkpt>
      <trkpt lat="44.7565210" lon="7.0883980">
        <ele>1552.6</ele>
        <time>2017-07-26T08:09:13Z</time>
      </trkpt>
      <trkpt lat="44.7564740" lon="7.0883730">
        <ele>1553.4</ele>
        <time>2017-07-26T08:09:16Z</time>
      </trkpt>
      <trkpt lat="44.7564640" lon="7.0883600">
        <ele>1553.6</ele>
        <time>2017-07-26T08:09:17Z</time>
      </trkpt>
      <trkpt lat="44.7564220" lon="7.0883290">
        <ele>1555.2</ele>
        <time>2017-07-26T08:09:20Z</time>
      </trkpt>
      <trkpt lat="44.7563750" lon="7.0882900">
        <ele>1556.2</ele>
        <time>2017-07-26T08:09:23Z</time>
      </trkpt>
      <trkpt lat="44.7563490" lon="7.0882680">
        <ele>1557.4</ele>
        <time>2017-07-26T08:09:25Z</time>
      </trkpt>
      <trkpt lat="44.7563130" lon="7.0882270">
        <ele>1558.6</ele>
        <time>2017-07-26T08:09:28Z</time>
      </trkpt>
      <trkpt lat="44.7562600" lon="7.0881770">
        <ele>1559.8</ele>
        <time>2017-07-26T08:09:32Z</time>
      </trkpt>
      <trkpt lat="44.7562300" lon="7.0881330">
        <ele>1561.0</ele>
        <time>2017-07-26T08:09:35Z</time>
      </trkpt>
      <trkpt lat="44.7562100" lon="7.0880660">
        <ele>1562.2</ele>
        <time>2017-07-26T08:09:38Z</time>
      </trkpt>
      <trkpt lat="44.7562020" lon="7.0880510">
        <ele>1562.6</ele>
        <time>2017-07-26T08:09:39Z</time>
      </trkpt>
      <trkpt lat="44.7561840" lon="7.0880140">
        <ele>1563.6</ele>
        <time>2017-07-26T08:09:41Z</time>
      </trkpt>
      <trkpt lat="44.7561510" lon="7.0879580">
        <ele>1564.8</ele>
        <time>2017-07-26T08:09:44Z</time>
      </trkpt>
      <trkpt lat="44.7561210" lon="7.0879220">
        <ele>1565.6</ele>
        <time>2017-07-26T08:09:46Z</time>
      </trkpt>
      <trkpt lat="44.7561050" lon="7.0879030">
        <ele>1566.0</ele>
        <time>2017-07-26T08:09:47Z</time>
      </trkpt>
      <trkpt lat="44.7560720" lon="7.0878570">
        <ele>1567.0</ele>
        <time>2017-07-26T08:09:49Z</time>
      </trkpt>
      <trkpt lat="44.7560390" lon="7.0877840">
        <ele>1568.2</ele>
        <time>2017-07-26T08:09:52Z</time>
      </trkpt>
      <trkpt lat="44.7560250" lon="7.0877290">
        <ele>1569.0</ele>
        <time>2017-07-26T08:09:54Z</time>
      </trkpt>
      <trkpt lat="44.7560160" lon="7.0877080">
        <ele>1569.4</ele>
        <time>2017-07-26T08:09:55Z</time>
      </trkpt>
      <trkpt lat="44.7559890" lon="7.0876060">
        <ele>1570.6</ele>
        <time>2017-07-26T08:09:59Z</time>
      </trkpt>
      <trkpt lat="44.7559920" lon="7.0875790">
        <ele>1570.8</ele>
        <time>2017-07-26T08:10:00Z</time>
      </trkpt>
      <trkpt lat="44.7559740" lon="7.0875150">
        <ele>1571.6</ele>
        <time>2017-07-26T08:10:03Z</time>
      </trkpt>
      <trkpt lat="44.7559290" lon="7.0874390">
        <ele>1572.2</ele>
        <time>2017-07-26T08:10:07Z</time>
      </trkpt>
      <trkpt lat="44.7559040" lon="7.0873710">
        <ele>1572.8</ele>
        <time>2017-07-26T08:10:10Z</time>
      </trkpt>
      <trkpt lat="44.7558940" lon="7.0873290">
        <ele>1573.4</ele>
        <time>2017-07-26T08:10:12Z</time>
      </trkpt>
      <trkpt lat="44.7558670" lon="7.0873000">
        <ele>1573.8</ele>
        <time>2017-07-26T08:10:14Z</time>
      </trkpt>
      <trkpt lat="44.7557750" lon="7.0872200">
        <ele>1575.0</ele>
        <time>2017-07-26T08:10:20Z</time>
      </trkpt>
      <trkpt lat="44.7557580" lon="7.0871320">
        <ele>1576.0</ele>
        <time>2017-07-26T08:10:24Z</time>
      </trkpt>
      <trkpt lat="44.7557480" lon="7.0871170">
        <ele>1576.2</ele>
        <time>2017-07-26T08:10:25Z</time>
      </trkpt>
      <trkpt lat="44.7557330" lon="7.0871040">
        <ele>1576.4</ele>
        <time>2017-07-26T08:10:26Z</time>
      </trkpt>
      <trkpt lat="44.7556920" lon="7.0870390">
        <ele>1577.2</ele>
        <time>2017-07-26T08:10:30Z</time>
      </trkpt>
      <trkpt lat="44.7556580" lon="7.0869880">
        <ele>1578.4</ele>
        <time>2017-07-26T08:10:33Z</time>
      </trkpt>
      <trkpt lat="44.7556080" lon="7.0869060">
        <ele>1579.4</ele>
        <time>2017-07-26T08:10:38Z</time>
      </trkpt>
      <trkpt lat="44.7555910" lon="7.0868660">
        <ele>1580.0</ele>
        <time>2017-07-26T08:10:40Z</time>
      </trkpt>
      <trkpt lat="44.7555690" lon="7.0868350">
        <ele>1580.6</ele>
        <time>2017-07-26T08:10:42Z</time>
      </trkpt>
      <trkpt lat="44.7555250" lon="7.0867970">
        <ele>1581.8</ele>
        <time>2017-07-26T08:10:45Z</time>
      </trkpt>
      <trkpt lat="44.7554780" lon="7.0867410">
        <ele>1582.8</ele>
        <time>2017-07-26T08:10:49Z</time>
      </trkpt>
      <trkpt lat="44.7554440" lon="7.0867010">
        <ele>1583.8</ele>
        <time>2017-07-26T08:10:52Z</time>
      </trkpt>
      <trkpt lat="44.7554310" lon="7.0866840">
        <ele>1584.2</ele>
        <time>2017-07-26T08:10:53Z</time>
      </trkpt>
      <trkpt lat="44.7553910" lon="7.0866510">
        <ele>1585.6</ele>
        <time>2017-07-26T08:10:56Z</time>
      </trkpt>
      <trkpt lat="44.7553370" lon="7.0866330">
        <ele>1586.8</ele>
        <time>2017-07-26T08:10:59Z</time>
      </trkpt>
      <trkpt lat="44.7553080" lon="7.0866160">
        <ele>1587.8</ele>
        <time>2017-07-26T08:11:01Z</time>
      </trkpt>
      <trkpt lat="44.7552870" lon="7.0866200">
        <ele>1588.0</ele>
        <time>2017-07-26T08:11:02Z</time>
      </trkpt>
      <trkpt lat="44.7552200" lon="7.0865830">
        <ele>1589.0</ele>
        <time>2017-07-26T08:11:06Z</time>
      </trkpt>
      <trkpt lat="44.7551800" lon="7.0865360">
        <ele>1590.0</ele>
        <time>2017-07-26T08:11:09Z</time>
      </trkpt>
      <trkpt lat="44.7551420" lon="7.0864940">
        <ele>1591.2</ele>
        <time>2017-07-26T08:11:12Z</time>
      </trkpt>
      <trkpt lat="44.7550650" lon="7.0864440">
        <ele>1592.4</ele>
        <time>2017-07-26T08:11:17Z</time>
      </trkpt>
      <trkpt lat="44.7550390" lon="7.0864180">
        <ele>1592.8</ele>
        <time>2017-07-26T08:11:19Z</time>
      </trkpt>
      <trkpt lat="44.7549800" lon="7.0863800">
        <ele>1593.6</ele>
        <time>2017-07-26T08:11:23Z</time>
      </trkpt>
      <trkpt lat="44.7549510" lon="7.0863590">
        <ele>1595.0</ele>
        <time>2017-07-26T08:11:25Z</time>
      </trkpt>
      <trkpt lat="44.7549110" lon="7.0863110">
        <ele>1596.0</ele>
        <time>2017-07-26T08:11:28Z</time>
      </trkpt>
      <trkpt lat="44.7548650" lon="7.0862550">
        <ele>1597.2</ele>
        <time>2017-07-26T08:11:32Z</time>
      </trkpt>
      <trkpt lat="44.7548120" lon="7.0861540">
        <ele>1598.6</ele>
        <time>2017-07-26T08:11:38Z</time>
      </trkpt>
      <trkpt lat="44.7547950" lon="7.0861190">
        <ele>1599.2</ele>
        <time>2017-07-26T08:11:40Z</time>
      </trkpt>
      <trkpt lat="44.7547370" lon="7.0860190">
        <ele>1599.6</ele>
        <time>2017-07-26T08:11:46Z</time>
      </trkpt>
      <trkpt lat="44.7547230" lon="7.0859800">
        <ele>1600.2</ele>
        <time>2017-07-26T08:11:48Z</time>
      </trkpt>
      <trkpt lat="44.7546780" lon="7.0858880">
        <ele>1600.8</ele>
        <time>2017-07-26T08:11:53Z</time>
      </trkpt>
      <trkpt lat="44.7546560" lon="7.0858320">
        <ele>1601.4</ele>
        <time>2017-07-26T08:11:56Z</time>
      </trkpt>
      <trkpt lat="44.7546280" lon="7.0857570">
        <ele>1601.8</ele>
        <time>2017-07-26T08:12:00Z</time>
      </trkpt>
      <trkpt lat="44.7546000" lon="7.0857040">
        <ele>1602.0</ele>
        <time>2017-07-26T08:12:03Z</time>
      </trkpt>
      <trkpt lat="44.7545420" lon="7.0856330">
        <ele>1602.8</ele>
        <time>2017-07-26T08:12:08Z</time>
      </trkpt>
      <trkpt lat="44.7545040" lon="7.0855970">
        <ele>1603.8</ele>
        <time>2017-07-26T08:12:11Z</time>
      </trkpt>
      <trkpt lat="44.7544900" lon="7.0855890">
        <ele>1604.0</ele>
        <time>2017-07-26T08:12:12Z</time>
      </trkpt>
      <trkpt lat="44.7544620" lon="7.0855730">
        <ele>1605.0</ele>
        <time>2017-07-26T08:12:14Z</time>
      </trkpt>
      <trkpt lat="44.7544040" lon="7.0855310">
        <ele>1606.2</ele>
        <time>2017-07-26T08:12:18Z</time>
      </trkpt>
      <trkpt lat="44.7543910" lon="7.0855210">
        <ele>1606.4</ele>
        <time>2017-07-26T08:12:19Z</time>
      </trkpt>
      <trkpt lat="44.7543530" lon="7.0855050">
        <ele>1607.2</ele>
        <time>2017-07-26T08:12:22Z</time>
      </trkpt>
      <trkpt lat="44.7543050" lon="7.0855070">
        <ele>1607.8</ele>
        <time>2017-07-26T08:12:25Z</time>
      </trkpt>
      <trkpt lat="44.7542650" lon="7.0854990">
        <ele>1608.2</ele>
        <time>2017-07-26T08:12:28Z</time>
      </trkpt>
      <trkpt lat="44.7542250" lon="7.0855020">
        <ele>1609.2</ele>
        <time>2017-07-26T08:12:31Z</time>
      </trkpt>
      <trkpt lat="44.7541810" lon="7.0855070">
        <ele>1610.6</ele>
        <time>2017-07-26T08:12:34Z</time>
      </trkpt>
      <trkpt lat="44.7541520" lon="7.0855150">
        <ele>1611.6</ele>
        <time>2017-07-26T08:12:36Z</time>
      </trkpt>
      <trkpt lat="44.7541350" lon="7.0855180">
        <ele>1612.8</ele>
        <time>2017-07-26T08:12:37Z</time>
      </trkpt>
      <trkpt lat="44.7540980" lon="7.0855200">
        <ele>1613.8</ele>
        <time>2017-07-26T08:12:39Z</time>
      </trkpt>
      <trkpt lat="44.7540810" lon="7.0855150">
        <ele>1614.2</ele>
        <time>2017-07-26T08:12:40Z</time>
      </trkpt>
      <trkpt lat="44.7540310" lon="7.0855070">
        <ele>1615.4</ele>
        <time>2017-07-26T08:12:43Z</time>
      </trkpt>
      <trkpt lat="44.7539770" lon="7.0854780">
        <ele>1616.6</ele>
        <time>2017-07-26T08:12:47Z</time>
      </trkpt>
      <trkpt lat="44.7539320" lon="7.0854500">
        <ele>1617.8</ele>
        <time>2017-07-26T08:12:50Z</time>
      </trkpt>
      <trkpt lat="44.7538600" lon="7.0854240">
        <ele>1618.6</ele>
        <time>2017-07-26T08:12:55Z</time>
      </trkpt>
      <trkpt lat="44.7538110" lon="7.0854040">
        <ele>1619.0</ele>
        <time>2017-07-26T08:12:58Z</time>
      </trkpt>
      <trkpt lat="44.7537630" lon="7.0853950">
        <ele>1620.4</ele>
        <time>2017-07-26T08:13:01Z</time>
      </trkpt>
      <trkpt lat="44.7537300" lon="7.0853930">
        <ele>1621.0</ele>
        <time>2017-07-26T08:13:03Z</time>
      </trkpt>
      <trkpt lat="44.7537150" lon="7.0853890">
        <ele>1621.4</ele>
        <time>2017-07-26T08:13:04Z</time>
      </trkpt>
      <trkpt lat="44.7536550" lon="7.0853720">
        <ele>1622.8</ele>
        <time>2017-07-26T08:13:07Z</time>
      </trkpt>
      <trkpt lat="44.7536210" lon="7.0853450">
        <ele>1624.0</ele>
        <time>2017-07-26T08:13:09Z</time>
      </trkpt>
      <trkpt lat="44.7535950" lon="7.0852890">
        <ele>1625.0</ele>
        <time>2017-07-26T08:13:12Z</time>
      </trkpt>
      <trkpt lat="44.7536110" lon="7.0852480">
        <ele>1625.8</ele>
        <time>2017-07-26T08:13:14Z</time>
      </trkpt>
      <trkpt lat="44.7536270" lon="7.0852340">
        <ele>1626.2</ele>
        <time>2017-07-26T08:13:15Z</time>
      </trkpt>
      <trkpt lat="44.7536680" lon="7.0852080">
        <ele>1626.8</ele>
        <time>2017-07-26T08:13:17Z</time>
      </trkpt>
      <trkpt lat="44.7537250" lon="7.0851550">
        <ele>1627.4</ele>
        <time>2017-07-26T08:13:20Z</time>
      </trkpt>
      <trkpt lat="44.7538300" lon="7.0850660">
        <ele>1628.0</ele>
        <time>2017-07-26T08:13:26Z</time>
      </trkpt>
      <trkpt lat="44.7538710" lon="7.0849880">
        <ele>1628.6</ele>
        <time>2017-07-26T08:13:29Z</time>
      </trkpt>
      <trkpt lat="44.7539250" lon="7.0848890">
        <ele>1629.6</ele>
        <time>2017-07-26T08:13:34Z</time>
      </trkpt>
      <trkpt lat="44.7539880" lon="7.0848040">
        <ele>1630.8</ele>
        <time>2017-07-26T08:13:38Z</time>
      </trkpt>
      <trkpt lat="44.7540370" lon="7.0847430">
        <ele>1631.8</ele>
        <time>2017-07-26T08:13:41Z</time>
      </trkpt>
      <trkpt lat="44.7540540" lon="7.0847250">
        <ele>1632.0</ele>
        <time>2017-07-26T08:13:42Z</time>
      </trkpt>
      <trkpt lat="44.7541740" lon="7.0845550">
        <ele>1633.2</ele>
        <time>2017-07-26T08:13:50Z</time>
      </trkpt>
      <trkpt lat="44.7542290" lon="7.0844600">
        <ele>1634.4</ele>
        <time>2017-07-26T08:13:54Z</time>
      </trkpt>
      <trkpt lat="44.7542700" lon="7.0843810">
        <ele>1635.6</ele>
        <time>2017-07-26T08:13:58Z</time>
      </trkpt>
      <trkpt lat="44.7543730" lon="7.0843100">
        <ele>1636.6</ele>
        <time>2017-07-26T08:14:04Z</time>
      </trkpt>
      <trkpt lat="44.7544770" lon="7.0843140">
        <ele>1637.0</ele>
        <time>2017-07-26T08:14:09Z</time>
      </trkpt>
      <trkpt lat="44.7545550" lon="7.0843460">
        <ele>1637.8</ele>
        <time>2017-07-26T08:14:13Z</time>
      </trkpt>
      <trkpt lat="44.7546730" lon="7.0844240">
        <ele>1638.0</ele>
        <time>2017-07-26T08:14:19Z</time>
      </trkpt>
      <trkpt lat="44.7547200" lon="7.0845170">
        <ele>1639.0</ele>
        <time>2017-07-26T08:14:23Z</time>
      </trkpt>
      <trkpt lat="44.7547430" lon="7.0845550">
        <ele>1639.6</ele>
        <time>2017-07-26T08:14:25Z</time>
      </trkpt>
      <trkpt lat="44.7547840" lon="7.0845990">
        <ele>1640.2</ele>
        <time>2017-07-26T08:14:28Z</time>
      </trkpt>
      <trkpt lat="44.7548350" lon="7.0845740">
        <ele>1641.4</ele>
        <time>2017-07-26T08:14:31Z</time>
      </trkpt>
      <trkpt lat="44.7548620" lon="7.0844890">
        <ele>1642.6</ele>
        <time>2017-07-26T08:14:34Z</time>
      </trkpt>
      <trkpt lat="44.7548580" lon="7.0844610">
        <ele>1643.2</ele>
        <time>2017-07-26T08:14:35Z</time>
      </trkpt>
      <trkpt lat="44.7548560" lon="7.0844390">
        <ele>1643.4</ele>
        <time>2017-07-26T08:14:36Z</time>
      </trkpt>
      <trkpt lat="44.7548470" lon="7.0844190">
        <ele>1643.8</ele>
        <time>2017-07-26T08:14:37Z</time>
      </trkpt>
      <trkpt lat="44.7547820" lon="7.0843760">
        <ele>1645.2</ele>
        <time>2017-07-26T08:14:41Z</time>
      </trkpt>
      <trkpt lat="44.7547690" lon="7.0843630">
        <ele>1645.8</ele>
        <time>2017-07-26T08:14:42Z</time>
      </trkpt>
      <trkpt lat="44.7547610" lon="7.0843440">
        <ele>1646.4</ele>
        <time>2017-07-26T08:14:43Z</time>
      </trkpt>
      <trkpt lat="44.7547080" lon="7.0842790">
        <ele>1648.0</ele>
        <time>2017-07-26T08:14:47Z</time>
      </trkpt>
      <trkpt lat="44.7546860" lon="7.0842500">
        <ele>1649.0</ele>
        <time>2017-07-26T08:14:49Z</time>
      </trkpt>
      <trkpt lat="44.7546520" lon="7.0841950">
        <ele>1650.4</ele>
        <time>2017-07-26T08:14:52Z</time>
      </trkpt>
      <trkpt lat="44.7546290" lon="7.0841290">
        <ele>1651.2</ele>
        <time>2017-07-26T08:14:55Z</time>
      </trkpt>
      <trkpt lat="44.7546090" lon="7.0840650">
        <ele>1651.4</ele>
        <time>2017-07-26T08:14:58Z</time>
      </trkpt>
      <trkpt lat="44.7545760" lon="7.0840210">
        <ele>1652.6</ele>
        <time>2017-07-26T08:15:01Z</time>
      </trkpt>
      <trkpt lat="44.7545610" lon="7.0839850">
        <ele>1653.4</ele>
        <time>2017-07-26T08:15:03Z</time>
      </trkpt>
      <trkpt lat="44.7545510" lon="7.0839660">
        <ele>1653.8</ele>
        <time>2017-07-26T08:15:04Z</time>
      </trkpt>
      <trkpt lat="44.7545200" lon="7.0838550">
        <ele>1654.8</ele>
        <time>2017-07-26T08:15:09Z</time>
      </trkpt>
      <trkpt lat="44.7544500" lon="7.0837730">
        <ele>1655.8</ele>
        <time>2017-07-26T08:15:15Z</time>
      </trkpt>
      <trkpt lat="44.7544350" lon="7.0837620">
        <ele>1656.2</ele>
        <time>2017-07-26T08:15:16Z</time>
      </trkpt>
      <trkpt lat="44.7543570" lon="7.0836690">
        <ele>1656.6</ele>
        <time>2017-07-26T08:15:22Z</time>
      </trkpt>
      <trkpt lat="44.7543210" lon="7.0836330">
        <ele>1657.4</ele>
        <time>2017-07-26T08:15:25Z</time>
      </trkpt>
      <trkpt lat="44.7542700" lon="7.0835560">
        <ele>1657.6</ele>
        <time>2017-07-26T08:15:29Z</time>
      </trkpt>
      <trkpt lat="44.7541620" lon="7.0834680">
        <ele>1658.2</ele>
        <time>2017-07-26T08:15:36Z</time>
      </trkpt>
      <trkpt lat="44.7541490" lon="7.0834530">
        <ele>1658.4</ele>
        <time>2017-07-26T08:15:37Z</time>
      </trkpt>
      <trkpt lat="44.7540810" lon="7.0833730">
        <ele>1659.2</ele>
        <time>2017-07-26T08:15:42Z</time>
      </trkpt>
      <trkpt lat="44.7540590" lon="7.0833450">
        <ele>1659.6</ele>
        <time>2017-07-26T08:15:44Z</time>
      </trkpt>
      <trkpt lat="44.7540260" lon="7.0832440">
        <ele>1661.0</ele>
        <time>2017-07-26T08:15:49Z</time>
      </trkpt>
      <trkpt lat="44.7540170" lon="7.0832280">
        <ele>1661.2</ele>
        <time>2017-07-26T08:15:50Z</time>
      </trkpt>
      <trkpt lat="44.7539770" lon="7.0832060">
        <ele>1662.0</ele>
        <time>2017-07-26T08:15:53Z</time>
      </trkpt>
      <trkpt lat="44.7539170" lon="7.0831940">
        <ele>1662.4</ele>
        <time>2017-07-26T08:15:57Z</time>
      </trkpt>
      <trkpt lat="44.7538830" lon="7.0831930">
        <ele>1663.0</ele>
        <time>2017-07-26T08:15:59Z</time>
      </trkpt>
      <trkpt lat="44.7538180" lon="7.0831910">
        <ele>1664.2</ele>
        <time>2017-07-26T08:16:03Z</time>
      </trkpt>
      <trkpt lat="44.7538010" lon="7.0831840">
        <ele>1664.8</ele>
        <time>2017-07-26T08:16:04Z</time>
      </trkpt>
      <trkpt lat="44.7537820" lon="7.0831780">
        <ele>1665.4</ele>
        <time>2017-07-26T08:16:05Z</time>
      </trkpt>
      <trkpt lat="44.7537420" lon="7.0831660">
        <ele>1666.4</ele>
        <time>2017-07-26T08:16:07Z</time>
      </trkpt>
      <trkpt lat="44.7536970" lon="7.0831210">
        <ele>1667.6</ele>
        <time>2017-07-26T08:16:10Z</time>
      </trkpt>
      <trkpt lat="44.7536490" lon="7.0830780">
        <ele>1669.0</ele>
        <time>2017-07-26T08:16:13Z</time>
      </trkpt>
      <trkpt lat="44.7535910" lon="7.0830520">
        <ele>1670.0</ele>
        <time>2017-07-26T08:16:16Z</time>
      </trkpt>
      <trkpt lat="44.7535690" lon="7.0830410">
        <ele>1670.6</ele>
        <time>2017-07-26T08:16:17Z</time>
      </trkpt>
      <trkpt lat="44.7535230" lon="7.0830190">
        <ele>1671.4</ele>
        <time>2017-07-26T08:16:19Z</time>
      </trkpt>
      <trkpt lat="44.7534620" lon="7.0829630">
        <ele>1672.4</ele>
        <time>2017-07-26T08:16:22Z</time>
      </trkpt>
      <trkpt lat="44.7534410" lon="7.0829470">
        <ele>1672.8</ele>
        <time>2017-07-26T08:16:23Z</time>
      </trkpt>
      <trkpt lat="44.7533960" lon="7.0829190">
        <ele>1673.6</ele>
        <time>2017-07-26T08:16:25Z</time>
      </trkpt>
      <trkpt lat="44.7533430" lon="7.0828810">
        <ele>1674.6</ele>
        <time>2017-07-26T08:16:28Z</time>
      </trkpt>
      <trkpt lat="44.7533110" lon="7.0828500">
        <ele>1675.6</ele>
        <time>2017-07-26T08:16:30Z</time>
      </trkpt>
      <trkpt lat="44.7532960" lon="7.0828300">
        <ele>1676.2</ele>
        <time>2017-07-26T08:16:31Z</time>
      </trkpt>
      <trkpt lat="44.7532610" lon="7.0827410">
        <ele>1677.4</ele>
        <time>2017-07-26T08:16:34Z</time>
      </trkpt>
      <trkpt lat="44.7532290" lon="7.0826520">
        <ele>1678.8</ele>
        <time>2017-07-26T08:16:37Z</time>
      </trkpt>
      <trkpt lat="44.7532140" lon="7.0826280">
        <ele>1679.0</ele>
        <time>2017-07-26T08:16:38Z</time>
      </trkpt>
      <trkpt lat="44.7531170" lon="7.0824810">
        <ele>1679.6</ele>
        <time>2017-07-26T08:16:45Z</time>
      </trkpt>
      <trkpt lat="44.7531040" lon="7.0824620">
        <ele>1679.8</ele>
        <time>2017-07-26T08:16:46Z</time>
      </trkpt>
      <trkpt lat="44.7530110" lon="7.0823830">
        <ele>1680.8</ele>
        <time>2017-07-26T08:16:52Z</time>
      </trkpt>
      <trkpt lat="44.7529970" lon="7.0823680">
        <ele>1681.2</ele>
        <time>2017-07-26T08:16:53Z</time>
      </trkpt>
      <trkpt lat="44.7529100" lon="7.0822350">
        <ele>1682.4</ele>
        <time>2017-07-26T08:17:00Z</time>
      </trkpt>
      <trkpt lat="44.7528660" lon="7.0821730">
        <ele>1683.6</ele>
        <time>2017-07-26T08:17:03Z</time>
      </trkpt>
      <trkpt lat="44.7528360" lon="7.0821370">
        <ele>1684.6</ele>
        <time>2017-07-26T08:17:05Z</time>
      </trkpt>
      <trkpt lat="44.7528230" lon="7.0821180">
        <ele>1684.8</ele>
        <time>2017-07-26T08:17:06Z</time>
      </trkpt>
      <trkpt lat="44.7527690" lon="7.0820500">
        <ele>1686.2</ele>
        <time>2017-07-26T08:17:10Z</time>
      </trkpt>
      <trkpt lat="44.7527520" lon="7.0820330">
        <ele>1686.4</ele>
        <time>2017-07-26T08:17:11Z</time>
      </trkpt>
      <trkpt lat="44.7526860" lon="7.0819610">
        <ele>1687.2</ele>
        <time>2017-07-26T08:17:15Z</time>
      </trkpt>
      <trkpt lat="44.7526180" lon="7.0819030">
        <ele>1687.6</ele>
        <time>2017-07-26T08:17:19Z</time>
      </trkpt>
      <trkpt lat="44.7525760" lon="7.0818680">
        <ele>1688.2</ele>
        <time>2017-07-26T08:17:21Z</time>
      </trkpt>
      <trkpt lat="44.7524870" lon="7.0817910">
        <ele>1689.8</ele>
        <time>2017-07-26T08:17:25Z</time>
      </trkpt>
      <trkpt lat="44.7524450" lon="7.0817500">
        <ele>1690.8</ele>
        <time>2017-07-26T08:17:27Z</time>
      </trkpt>
      <trkpt lat="44.7524250" lon="7.0817250">
        <ele>1691.2</ele>
        <time>2017-07-26T08:17:28Z</time>
      </trkpt>
      <trkpt lat="44.7523510" lon="7.0816230">
        <ele>1692.4</ele>
        <time>2017-07-26T08:17:32Z</time>
      </trkpt>
      <trkpt lat="44.7522980" lon="7.0815450">
        <ele>1693.6</ele>
        <time>2017-07-26T08:17:35Z</time>
      </trkpt>
      <trkpt lat="44.7522790" lon="7.0815220">
        <ele>1694.0</ele>
        <time>2017-07-26T08:17:36Z</time>
      </trkpt>
      <trkpt lat="44.7522360" lon="7.0814760">
        <ele>1694.8</ele>
        <time>2017-07-26T08:17:38Z</time>
      </trkpt>
      <trkpt lat="44.7521730" lon="7.0814230">
        <ele>1696.0</ele>
        <time>2017-07-26T08:17:41Z</time>
      </trkpt>
      <trkpt lat="44.7521130" lon="7.0813620">
        <ele>1697.2</ele>
        <time>2017-07-26T08:17:44Z</time>
      </trkpt>
      <trkpt lat="44.7520440" lon="7.0813030">
        <ele>1697.8</ele>
        <time>2017-07-26T08:17:47Z</time>
      </trkpt>
      <trkpt lat="44.7519620" lon="7.0812940">
        <ele>1697.8</ele>
        <time>2017-07-26T08:17:50Z</time>
      </trkpt>
      <trkpt lat="44.7518590" lon="7.0814030">
        <ele>1697.4</ele>
        <time>2017-07-26T08:17:54Z</time>
      </trkpt>
      <trkpt lat="44.7517760" lon="7.0815240">
        <ele>1697.4</ele>
        <time>2017-07-26T08:18:00Z</time>
      </trkpt>
      <trkpt lat="44.7516690" lon="7.0815580">
        <ele>1697.6</ele>
        <time>2017-07-26T08:18:06Z</time>
      </trkpt>
      <trkpt lat="44.7515870" lon="7.0815770">
        <ele>1697.8</ele>
        <time>2017-07-26T08:18:11Z</time>
      </trkpt>
      <trkpt lat="44.7515730" lon="7.0815680">
        <ele>1698.0</ele>
        <time>2017-07-26T08:18:12Z</time>
      </trkpt>
      <trkpt lat="44.7515460" lon="7.0815570">
        <ele>1698.2</ele>
        <time>2017-07-26T08:18:14Z</time>
      </trkpt>
      <trkpt lat="44.7515310" lon="7.0815510">
        <ele>1698.2</ele>
        <time>2017-07-26T08:18:15Z</time>
      </trkpt>
      <trkpt lat="44.7515180" lon="7.0815410">
        <ele>1698.6</ele>
        <time>2017-07-26T08:18:16Z</time>
      </trkpt>
      <trkpt lat="44.7514960" lon="7.0815100">
        <ele>1699.0</ele>
        <time>2017-07-26T08:18:18Z</time>
      </trkpt>
      <trkpt lat="44.7514850" lon="7.0814940">
        <ele>1699.2</ele>
        <time>2017-07-26T08:18:19Z</time>
      </trkpt>
      <trkpt lat="44.7514450" lon="7.0814670">
        <ele>1699.8</ele>
        <time>2017-07-26T08:18:22Z</time>
      </trkpt>
      <trkpt lat="44.7514300" lon="7.0814580">
        <ele>1700.2</ele>
        <time>2017-07-26T08:18:23Z</time>
      </trkpt>
      <trkpt lat="44.7514000" lon="7.0814310">
        <ele>1700.8</ele>
        <time>2017-07-26T08:18:25Z</time>
      </trkpt>
      <trkpt lat="44.7513720" lon="7.0814060">
        <ele>1701.4</ele>
        <time>2017-07-26T08:18:27Z</time>
      </trkpt>
      <trkpt lat="44.7513140" lon="7.0813680">
        <ele>1702.8</ele>
        <time>2017-07-26T08:18:31Z</time>
      </trkpt>
      <trkpt lat="44.7513030" lon="7.0813540">
        <ele>1703.2</ele>
        <time>2017-07-26T08:18:32Z</time>
      </trkpt>
      <trkpt lat="44.7512790" lon="7.0813360">
        <ele>1703.8</ele>
        <time>2017-07-26T08:18:34Z</time>
      </trkpt>
      <trkpt lat="44.7512350" lon="7.0813230">
        <ele>1705.0</ele>
        <time>2017-07-26T08:18:37Z</time>
      </trkpt>
      <trkpt lat="44.7511390" lon="7.0813080">
        <ele>1706.0</ele>
        <time>2017-07-26T08:18:43Z</time>
      </trkpt>
      <trkpt lat="44.7511260" lon="7.0813150">
        <ele>1706.2</ele>
        <time>2017-07-26T08:18:44Z</time>
      </trkpt>
      <trkpt lat="44.7510880" lon="7.0813380">
        <ele>1707.4</ele>
        <time>2017-07-26T08:18:47Z</time>
      </trkpt>
      <trkpt lat="44.7510640" lon="7.0813470">
        <ele>1708.4</ele>
        <time>2017-07-26T08:18:49Z</time>
      </trkpt>
      <trkpt lat="44.7510350" lon="7.0813510">
        <ele>1708.8</ele>
        <time>2017-07-26T08:18:51Z</time>
      </trkpt>
      <trkpt lat="44.7510060" lon="7.0813520">
        <ele>1709.4</ele>
        <time>2017-07-26T08:18:53Z</time>
      </trkpt>
      <trkpt lat="44.7509700" lon="7.0813280">
        <ele>1710.2</ele>
        <time>2017-07-26T08:18:56Z</time>
      </trkpt>
      <trkpt lat="44.7509660" lon="7.0813090">
        <ele>1710.4</ele>
        <time>2017-07-26T08:18:57Z</time>
      </trkpt>
      <trkpt lat="44.7509540" lon="7.0812290">
        <ele>1711.8</ele>
        <time>2017-07-26T08:19:01Z</time>
      </trkpt>
      <trkpt lat="44.7509370" lon="7.0811710">
        <ele>1713.2</ele>
        <time>2017-07-26T08:19:04Z</time>
      </trkpt>
      <trkpt lat="44.7509290" lon="7.0811350">
        <ele>1714.0</ele>
        <time>2017-07-26T08:19:06Z</time>
      </trkpt>
      <trkpt lat="44.7509210" lon="7.0811230">
        <ele>1714.2</ele>
        <time>2017-07-26T08:19:07Z</time>
      </trkpt>
      <trkpt lat="44.7508870" lon="7.0810580">
        <ele>1715.6</ele>
        <time>2017-07-26T08:19:11Z</time>
      </trkpt>
      <trkpt lat="44.7508790" lon="7.0810410">
        <ele>1716.0</ele>
        <time>2017-07-26T08:19:12Z</time>
      </trkpt>
      <trkpt lat="44.7508620" lon="7.0810050">
        <ele>1716.4</ele>
        <time>2017-07-26T08:19:14Z</time>
      </trkpt>
      <trkpt lat="44.7508510" lon="7.0809900">
        <ele>1716.8</ele>
        <time>2017-07-26T08:19:15Z</time>
      </trkpt>
      <trkpt lat="44.7508230" lon="7.0809690">
        <ele>1717.2</ele>
        <time>2017-07-26T08:19:17Z</time>
      </trkpt>
      <trkpt lat="44.7507930" lon="7.0809430">
        <ele>1717.8</ele>
        <time>2017-07-26T08:19:19Z</time>
      </trkpt>
      <trkpt lat="44.7507760" lon="7.0809310">
        <ele>1718.0</ele>
        <time>2017-07-26T08:19:20Z</time>
      </trkpt>
      <trkpt lat="44.7507270" lon="7.0808960">
        <ele>1718.8</ele>
        <time>2017-07-26T08:19:23Z</time>
      </trkpt>
      <trkpt lat="44.7506970" lon="7.0808750">
        <ele>1719.4</ele>
        <time>2017-07-26T08:19:25Z</time>
      </trkpt>
      <trkpt lat="44.7506630" lon="7.0808470">
        <ele>1720.2</ele>
        <time>2017-07-26T08:19:27Z</time>
      </trkpt>
      <trkpt lat="44.7506370" lon="7.0808490">
        <ele>1720.4</ele>
        <time>2017-07-26T08:19:28Z</time>
      </trkpt>
      <trkpt lat="44.7506130" lon="7.0808400">
        <ele>1720.6</ele>
        <time>2017-07-26T08:19:29Z</time>
      </trkpt>
      <trkpt lat="44.7505660" lon="7.0808160">
        <ele>1721.4</ele>
        <time>2017-07-26T08:19:31Z</time>
      </trkpt>
      <trkpt lat="44.7504820" lon="7.0807840">
        <ele>1722.4</ele>
        <time>2017-07-26T08:19:35Z</time>
      </trkpt>
      <trkpt lat="44.7504250" lon="7.0807680">
        <ele>1723.8</ele>
        <time>2017-07-26T08:19:38Z</time>
      </trkpt>
      <trkpt lat="44.7503670" lon="7.0807420">
        <ele>1724.8</ele>
        <time>2017-07-26T08:19:41Z</time>
      </trkpt>
      <trkpt lat="44.7503460" lon="7.0807350">
        <ele>1725.2</ele>
        <time>2017-07-26T08:19:42Z</time>
      </trkpt>
      <trkpt lat="44.7502820" lon="7.0807500">
        <ele>1726.2</ele>
        <time>2017-07-26T08:19:45Z</time>
      </trkpt>
      <trkpt lat="44.7502440" lon="7.0807690">
        <ele>1726.6</ele>
        <time>2017-07-26T08:19:47Z</time>
      </trkpt>
      <trkpt lat="44.7502060" lon="7.0807850">
        <ele>1727.4</ele>
        <time>2017-07-26T08:19:49Z</time>
      </trkpt>
      <trkpt lat="44.7501260" lon="7.0808220">
        <ele>1728.6</ele>
        <time>2017-07-26T08:19:53Z</time>
      </trkpt>
      <trkpt lat="44.7500700" lon="7.0808630">
        <ele>1729.2</ele>
        <time>2017-07-26T08:19:56Z</time>
      </trkpt>
      <trkpt lat="44.7500310" lon="7.0808890">
        <ele>1729.8</ele>
        <time>2017-07-26T08:19:58Z</time>
      </trkpt>
      <trkpt lat="44.7499490" lon="7.0809490">
        <ele>1730.8</ele>
        <time>2017-07-26T08:20:02Z</time>
      </trkpt>
      <trkpt lat="44.7498250" lon="7.0810330">
        <ele>1731.6</ele>
        <time>2017-07-26T08:20:07Z</time>
      </trkpt>
      <trkpt lat="44.7497650" lon="7.0810820">
        <ele>1731.8</ele>
        <time>2017-07-26T08:20:09Z</time>
      </trkpt>
      <trkpt lat="44.7496680" lon="7.0811820">
        <ele>1732.0</ele>
        <time>2017-07-26T08:20:12Z</time>
      </trkpt>
      <trkpt lat="44.7496010" lon="7.0812530">
        <ele>1732.6</ele>
        <time>2017-07-26T08:20:14Z</time>
      </trkpt>
      <trkpt lat="44.7495220" lon="7.0813500">
        <ele>1732.8</ele>
        <time>2017-07-26T08:20:17Z</time>
      </trkpt>
      <trkpt lat="44.7494990" lon="7.0813800">
        <ele>1732.8</ele>
        <time>2017-07-26T08:20:18Z</time>
      </trkpt>
      <trkpt lat="44.7494760" lon="7.0814060">
        <ele>1732.8</ele>
        <time>2017-07-26T08:20:19Z</time>
      </trkpt>
      <trkpt lat="44.7493460" lon="7.0815370">
        <ele>1733.4</ele>
        <time>2017-07-26T08:20:25Z</time>
      </trkpt>
      <trkpt lat="44.7492990" lon="7.0815360">
        <ele>1733.8</ele>
        <time>2017-07-26T08:20:27Z</time>
      </trkpt>
      <trkpt lat="44.7492920" lon="7.0815720">
        <ele>1734.2</ele>
        <time>2017-07-26T08:20:29Z</time>
      </trkpt>
      <trkpt lat="44.7492980" lon="7.0815490">
        <ele>1733.2</ele>
        <time>2017-07-26T08:20:54Z</time>
      </trkpt>
      <trkpt lat="44.7492930" lon="7.0815360">
        <ele>1733.0</ele>
        <time>2017-07-26T08:20:55Z</time>
      </trkpt>
      <trkpt lat="44.7492880" lon="7.0815210">
        <ele>1733.0</ele>
        <time>2017-07-26T08:20:56Z</time>
      </trkpt>
      <trkpt lat="44.7492680" lon="7.0814220">
        <ele>1733.0</ele>
        <time>2017-07-26T08:23:16Z</time>
      </trkpt>
      <trkpt lat="44.7492520" lon="7.0813790">
        <ele>1736.0</ele>
        <time>2017-07-26T08:23:28Z</time>
      </trkpt>
      <trkpt lat="44.7492190" lon="7.0813440">
        <ele>1736.4</ele>
        <time>2017-07-26T08:23:31Z</time>
      </trkpt>
      <trkpt lat="44.7492230" lon="7.0812980">
        <ele>1737.2</ele>
        <time>2017-07-26T08:23:34Z</time>
      </trkpt>
      <trkpt lat="44.7492620" lon="7.0812110">
        <ele>1737.6</ele>
        <time>2017-07-26T08:23:36Z</time>
      </trkpt>
      <trkpt lat="44.7492800" lon="7.0809840">
        <ele>1737.8</ele>
        <time>2017-07-26T08:23:39Z</time>
      </trkpt>
      <trkpt lat="44.7492950" lon="7.0808690">
        <ele>1738.2</ele>
        <time>2017-07-26T08:23:41Z</time>
      </trkpt>
      <trkpt lat="44.7492920" lon="7.0808140">
        <ele>1738.4</ele>
        <time>2017-07-26T08:23:42Z</time>
      </trkpt>
      <trkpt lat="44.7492780" lon="7.0807080">
        <ele>1738.6</ele>
        <time>2017-07-26T08:23:44Z</time>
      </trkpt>
      <trkpt lat="44.7492590" lon="7.0806210">
        <ele>1739.0</ele>
        <time>2017-07-26T08:23:47Z</time>
      </trkpt>
      <trkpt lat="44.7492370" lon="7.0805530">
        <ele>1738.6</ele>
        <time>2017-07-26T08:24:00Z</time>
      </trkpt>
      <trkpt lat="44.7492380" lon="7.0805180">
        <ele>1738.8</ele>
        <time>2017-07-26T08:24:01Z</time>
      </trkpt>
      <trkpt lat="44.7492490" lon="7.0804620">
        <ele>1739.0</ele>
        <time>2017-07-26T08:24:03Z</time>
      </trkpt>
      <trkpt lat="44.7492810" lon="7.0804230">
        <ele>1739.2</ele>
        <time>2017-07-26T08:24:05Z</time>
      </trkpt>
      <trkpt lat="44.7494070" lon="7.0802860">
        <ele>1740.2</ele>
        <time>2017-07-26T08:24:11Z</time>
      </trkpt>
      <trkpt lat="44.7494500" lon="7.0802440">
        <ele>1740.2</ele>
        <time>2017-07-26T08:24:13Z</time>
      </trkpt>
      <trkpt lat="44.7495610" lon="7.0801610">
        <ele>1740.4</ele>
        <time>2017-07-26T08:24:17Z</time>
      </trkpt>
      <trkpt lat="44.7496530" lon="7.0800750">
        <ele>1740.2</ele>
        <time>2017-07-26T08:24:21Z</time>
      </trkpt>
      <trkpt lat="44.7497860" lon="7.0799520">
        <ele>1739.8</ele>
        <time>2017-07-26T08:24:28Z</time>
      </trkpt>
      <trkpt lat="44.7498810" lon="7.0799160">
        <ele>1739.0</ele>
        <time>2017-07-26T08:24:31Z</time>
      </trkpt>
      <trkpt lat="44.7499430" lon="7.0798930">
        <ele>1738.4</ele>
        <time>2017-07-26T08:24:33Z</time>
      </trkpt>
      <trkpt lat="44.7500140" lon="7.0798800">
        <ele>1738.0</ele>
        <time>2017-07-26T08:24:35Z</time>
      </trkpt>
      <trkpt lat="44.7501050" lon="7.0798520">
        <ele>1737.0</ele>
        <time>2017-07-26T08:24:38Z</time>
      </trkpt>
      <trkpt lat="44.7501420" lon="7.0798230">
        <ele>1736.8</ele>
        <time>2017-07-26T08:24:40Z</time>
      </trkpt>
      <trkpt lat="44.7501870" lon="7.0798100">
        <ele>1736.6</ele>
        <time>2017-07-26T08:24:42Z</time>
      </trkpt>
      <trkpt lat="44.7502420" lon="7.0798680">
        <ele>1736.6</ele>
        <time>2017-07-26T08:24:45Z</time>
      </trkpt>
      <trkpt lat="44.7502590" lon="7.0799000">
        <ele>1736.4</ele>
        <time>2017-07-26T08:24:46Z</time>
      </trkpt>
      <trkpt lat="44.7503050" lon="7.0799610">
        <ele>1736.0</ele>
        <time>2017-07-26T08:24:49Z</time>
      </trkpt>
      <trkpt lat="44.7503350" lon="7.0799670">
        <ele>1735.8</ele>
        <time>2017-07-26T08:24:50Z</time>
      </trkpt>
      <trkpt lat="44.7503490" lon="7.0799690">
        <ele>1735.2</ele>
        <time>2017-07-26T08:24:52Z</time>
      </trkpt>
      <trkpt lat="44.7503570" lon="7.0799760">
        <ele>1734.6</ele>
        <time>2017-07-26T08:24:54Z</time>
      </trkpt>
      <trkpt lat="44.7503820" lon="7.0800120">
        <ele>1733.6</ele>
        <time>2017-07-26T08:24:59Z</time>
      </trkpt>
      <trkpt lat="44.7504060" lon="7.0800670">
        <ele>1732.6</ele>
        <time>2017-07-26T08:25:03Z</time>
      </trkpt>
      <trkpt lat="44.7504250" lon="7.0800910">
        <ele>1732.4</ele>
        <time>2017-07-26T08:25:04Z</time>
      </trkpt>
      <trkpt lat="44.7505670" lon="7.0802080">
        <ele>1731.6</ele>
        <time>2017-07-26T08:25:09Z</time>
      </trkpt>
      <trkpt lat="44.7506040" lon="7.0802210">
        <ele>1731.4</ele>
        <time>2017-07-26T08:25:10Z</time>
      </trkpt>
      <trkpt lat="44.7507140" lon="7.0802030">
        <ele>1730.8</ele>
        <time>2017-07-26T08:25:13Z</time>
      </trkpt>
      <trkpt lat="44.7508510" lon="7.0801070">
        <ele>1731.0</ele>
        <time>2017-07-26T08:25:18Z</time>
      </trkpt>
      <trkpt lat="44.7509030" lon="7.0799170">
        <ele>1731.8</ele>
        <time>2017-07-26T08:25:22Z</time>
      </trkpt>
      <trkpt lat="44.7509370" lon="7.0798810">
        <ele>1732.2</ele>
        <time>2017-07-26T08:25:24Z</time>
      </trkpt>
      <trkpt lat="44.7509600" lon="7.0798780">
        <ele>1732.6</ele>
        <time>2017-07-26T08:25:25Z</time>
      </trkpt>
      <trkpt lat="44.7510050" lon="7.0798650">
        <ele>1733.8</ele>
        <time>2017-07-26T08:25:27Z</time>
      </trkpt>
      <trkpt lat="44.7510490" lon="7.0798940">
        <ele>1734.2</ele>
        <time>2017-07-26T08:25:30Z</time>
      </trkpt>
      <trkpt lat="44.7511170" lon="7.0799500">
        <ele>1734.2</ele>
        <time>2017-07-26T08:25:33Z</time>
      </trkpt>
      <trkpt lat="44.7511570" lon="7.0799560">
        <ele>1734.2</ele>
        <time>2017-07-26T08:25:34Z</time>
      </trkpt>
      <trkpt lat="44.7512480" lon="7.0799780">
        <ele>1733.6</ele>
        <time>2017-07-26T08:25:38Z</time>
      </trkpt>
      <trkpt lat="44.7512610" lon="7.0799960">
        <ele>1734.0</ele>
        <time>2017-07-26T08:25:40Z</time>
      </trkpt>
      <trkpt lat="44.7512760" lon="7.0800390">
        <ele>1733.8</ele>
        <time>2017-07-26T08:25:44Z</time>
      </trkpt>
      <trkpt lat="44.7512920" lon="7.0800440">
        <ele>1733.8</ele>
        <time>2017-07-26T08:25:45Z</time>
      </trkpt>
      <trkpt lat="44.7513920" lon="7.0800690">
        <ele>1733.8</ele>
        <time>2017-07-26T08:25:49Z</time>
      </trkpt>
      <trkpt lat="44.7515080" lon="7.0801000">
        <ele>1733.2</ele>
        <time>2017-07-26T08:25:52Z</time>
      </trkpt>
      <trkpt lat="44.7516380" lon="7.0801150">
        <ele>1732.2</ele>
        <time>2017-07-26T08:25:55Z</time>
      </trkpt>
      <trkpt lat="44.7517310" lon="7.0801840">
        <ele>1731.0</ele>
        <time>2017-07-26T08:25:57Z</time>
      </trkpt>
      <trkpt lat="44.7517690" lon="7.0802190">
        <ele>1730.8</ele>
        <time>2017-07-26T08:25:58Z</time>
      </trkpt>
      <trkpt lat="44.7518560" lon="7.0802730">
        <ele>1729.8</ele>
        <time>2017-07-26T08:26:01Z</time>
      </trkpt>
      <trkpt lat="44.7518620" lon="7.0802860">
        <ele>1729.4</ele>
        <time>2017-07-26T08:26:02Z</time>
      </trkpt>
      <trkpt lat="44.7518780" lon="7.0803110">
        <ele>1728.6</ele>
        <time>2017-07-26T08:26:04Z</time>
      </trkpt>
      <trkpt lat="44.7518870" lon="7.0803590">
        <ele>1727.4</ele>
        <time>2017-07-26T08:26:07Z</time>
      </trkpt>
      <trkpt lat="44.7519170" lon="7.0804020">
        <ele>1726.2</ele>
        <time>2017-07-26T08:26:09Z</time>
      </trkpt>
      <trkpt lat="44.7519770" lon="7.0804670">
        <ele>1725.0</ele>
        <time>2017-07-26T08:26:12Z</time>
      </trkpt>
      <trkpt lat="44.7520020" lon="7.0805090">
        <ele>1723.2</ele>
        <time>2017-07-26T08:26:14Z</time>
      </trkpt>
      <trkpt lat="44.7520130" lon="7.0805100">
        <ele>1723.0</ele>
        <time>2017-07-26T08:26:15Z</time>
      </trkpt>
      <trkpt lat="44.7520220" lon="7.0805110">
        <ele>1722.8</ele>
        <time>2017-07-26T08:26:16Z</time>
      </trkpt>
      <trkpt lat="44.7520410" lon="7.0805280">
        <ele>1722.2</ele>
        <time>2017-07-26T08:26:18Z</time>
      </trkpt>
      <trkpt lat="44.7520900" lon="7.0805640">
        <ele>1721.4</ele>
        <time>2017-07-26T08:26:21Z</time>
      </trkpt>
      <trkpt lat="44.7521060" lon="7.0805760">
        <ele>1721.2</ele>
        <time>2017-07-26T08:26:22Z</time>
      </trkpt>
      <trkpt lat="44.7521770" lon="7.0806020">
        <ele>1720.2</ele>
        <time>2017-07-26T08:26:26Z</time>
      </trkpt>
      <trkpt lat="44.7521870" lon="7.0805990">
        <ele>1720.2</ele>
        <time>2017-07-26T08:26:27Z</time>
      </trkpt>
      <trkpt lat="44.7521990" lon="7.0805910">
        <ele>1720.0</ele>
        <time>2017-07-26T08:26:28Z</time>
      </trkpt>
      <trkpt lat="44.7522500" lon="7.0805310">
        <ele>1719.8</ele>
        <time>2017-07-26T08:26:32Z</time>
      </trkpt>
      <trkpt lat="44.7522870" lon="7.0804600">
        <ele>1720.4</ele>
        <time>2017-07-26T08:26:36Z</time>
      </trkpt>
      <trkpt lat="44.7522990" lon="7.0804360">
        <ele>1721.2</ele>
        <time>2017-07-26T08:26:38Z</time>
      </trkpt>
      <trkpt lat="44.7523120" lon="7.0804060">
        <ele>1722.4</ele>
        <time>2017-07-26T08:26:41Z</time>
      </trkpt>
      <trkpt lat="44.7523150" lon="7.0803730">
        <ele>1723.8</ele>
        <time>2017-07-26T08:26:44Z</time>
      </trkpt>
      <trkpt lat="44.7523360" lon="7.0803390">
        <ele>1724.6</ele>
        <time>2017-07-26T08:26:47Z</time>
      </trkpt>
      <trkpt lat="44.7523450" lon="7.0803270">
        <ele>1725.0</ele>
        <time>2017-07-26T08:26:48Z</time>
      </trkpt>
      <trkpt lat="44.7523740" lon="7.0802950">
        <ele>1725.8</ele>
        <time>2017-07-26T08:26:52Z</time>
      </trkpt>
      <trkpt lat="44.7523940" lon="7.0802900">
        <ele>1726.0</ele>
        <time>2017-07-26T08:26:54Z</time>
      </trkpt>
      <trkpt lat="44.7524070" lon="7.0802890">
        <ele>1726.2</ele>
        <time>2017-07-26T08:26:55Z</time>
      </trkpt>
      <trkpt lat="44.7525280" lon="7.0802400">
        <ele>1727.4</ele>
        <time>2017-07-26T08:27:08Z</time>
      </trkpt>
      <trkpt lat="44.7526020" lon="7.0802580">
        <ele>1727.6</ele>
        <time>2017-07-26T08:27:12Z</time>
      </trkpt>
      <trkpt lat="44.7526610" lon="7.0803120">
        <ele>1727.0</ele>
        <time>2017-07-26T08:27:15Z</time>
      </trkpt>
      <trkpt lat="44.7527600" lon="7.0804400">
        <ele>1726.8</ele>
        <time>2017-07-26T08:27:20Z</time>
      </trkpt>
      <trkpt lat="44.7528540" lon="7.0804850">
        <ele>1727.0</ele>
        <time>2017-07-26T08:27:26Z</time>
      </trkpt>
      <trkpt lat="44.7529010" lon="7.0805020">
        <ele>1727.2</ele>
        <time>2017-07-26T08:27:30Z</time>
      </trkpt>
      <trkpt lat="44.7529320" lon="7.0805190">
        <ele>1727.8</ele>
        <time>2017-07-26T08:27:32Z</time>
      </trkpt>
      <trkpt lat="44.7530150" lon="7.0805920">
        <ele>1725.8</ele>
        <time>2017-07-26T08:27:43Z</time>
      </trkpt>
      <trkpt lat="44.7530230" lon="7.0806480">
        <ele>1724.8</ele>
        <time>2017-07-26T08:27:45Z</time>
      </trkpt>
      <trkpt lat="44.7530230" lon="7.0806840">
        <ele>1724.0</ele>
        <time>2017-07-26T08:27:46Z</time>
      </trkpt>
      <trkpt lat="44.7530300" lon="7.0807250">
        <ele>1723.4</ele>
        <time>2017-07-26T08:27:47Z</time>
      </trkpt>
      <trkpt lat="44.7530500" lon="7.0807970">
        <ele>1722.0</ele>
        <time>2017-07-26T08:27:49Z</time>
      </trkpt>
      <trkpt lat="44.7530590" lon="7.0808360">
        <ele>1720.6</ele>
        <time>2017-07-26T08:27:50Z</time>
      </trkpt>
      <trkpt lat="44.7530690" lon="7.0808830">
        <ele>1720.0</ele>
        <time>2017-07-26T08:27:51Z</time>
      </trkpt>
      <trkpt lat="44.7530800" lon="7.0809330">
        <ele>1719.4</ele>
        <time>2017-07-26T08:27:52Z</time>
      </trkpt>
      <trkpt lat="44.7531000" lon="7.0810200">
        <ele>1717.6</ele>
        <time>2017-07-26T08:27:54Z</time>
      </trkpt>
      <trkpt lat="44.7531100" lon="7.0811130">
        <ele>1716.0</ele>
        <time>2017-07-26T08:27:56Z</time>
      </trkpt>
      <trkpt lat="44.7531130" lon="7.0811630">
        <ele>1715.6</ele>
        <time>2017-07-26T08:27:57Z</time>
      </trkpt>
      <trkpt lat="44.7531180" lon="7.0812070">
        <ele>1715.0</ele>
        <time>2017-07-26T08:27:58Z</time>
      </trkpt>
      <trkpt lat="44.7531310" lon="7.0812890">
        <ele>1713.4</ele>
        <time>2017-07-26T08:28:00Z</time>
      </trkpt>
      <trkpt lat="44.7531440" lon="7.0813540">
        <ele>1711.8</ele>
        <time>2017-07-26T08:28:02Z</time>
      </trkpt>
      <trkpt lat="44.7531530" lon="7.0813820">
        <ele>1711.0</ele>
        <time>2017-07-26T08:28:03Z</time>
      </trkpt>
      <trkpt lat="44.7531590" lon="7.0814060">
        <ele>1710.2</ele>
        <time>2017-07-26T08:28:04Z</time>
      </trkpt>
      <trkpt lat="44.7531730" lon="7.0813970">
        <ele>1709.8</ele>
        <time>2017-07-26T08:28:05Z</time>
      </trkpt>
      <trkpt lat="44.7531860" lon="7.0813790">
        <ele>1709.4</ele>
        <time>2017-07-26T08:28:06Z</time>
      </trkpt>
      <trkpt lat="44.7532020" lon="7.0813590">
        <ele>1709.2</ele>
        <time>2017-07-26T08:28:07Z</time>
      </trkpt>
      <trkpt lat="44.7532630" lon="7.0813360">
        <ele>1708.2</ele>
        <time>2017-07-26T08:28:10Z</time>
      </trkpt>
      <trkpt lat="44.7532840" lon="7.0813370">
        <ele>1708.0</ele>
        <time>2017-07-26T08:28:11Z</time>
      </trkpt>
      <trkpt lat="44.7533720" lon="7.0813780">
        <ele>1707.6</ele>
        <time>2017-07-26T08:28:15Z</time>
      </trkpt>
      <trkpt lat="44.7533910" lon="7.0813890">
        <ele>1707.6</ele>
        <time>2017-07-26T08:28:16Z</time>
      </trkpt>
      <trkpt lat="44.7535070" lon="7.0814380">
        <ele>1707.2</ele>
        <time>2017-07-26T08:28:22Z</time>
      </trkpt>
      <trkpt lat="44.7535470" lon="7.0814510">
        <ele>1707.4</ele>
        <time>2017-07-26T08:28:24Z</time>
      </trkpt>
      <trkpt lat="44.7536670" lon="7.0814880">
        <ele>1708.4</ele>
        <time>2017-07-26T08:28:31Z</time>
      </trkpt>
      <trkpt lat="44.7537430" lon="7.0815080">
        <ele>1709.0</ele>
        <time>2017-07-26T08:28:35Z</time>
      </trkpt>
      <trkpt lat="44.7537770" lon="7.0815120">
        <ele>1709.6</ele>
        <time>2017-07-26T08:28:37Z</time>
      </trkpt>
      <trkpt lat="44.7537940" lon="7.0815120">
        <ele>1710.2</ele>
        <time>2017-07-26T08:28:38Z</time>
      </trkpt>
      <trkpt lat="44.7538400" lon="7.0815000">
        <ele>1711.2</ele>
        <time>2017-07-26T08:28:41Z</time>
      </trkpt>
      <trkpt lat="44.7538980" lon="7.0814770">
        <ele>1712.4</ele>
        <time>2017-07-26T08:28:45Z</time>
      </trkpt>
      <trkpt lat="44.7539360" lon="7.0814530">
        <ele>1713.6</ele>
        <time>2017-07-26T08:28:48Z</time>
      </trkpt>
      <trkpt lat="44.7539770" lon="7.0814240">
        <ele>1715.0</ele>
        <time>2017-07-26T08:28:51Z</time>
      </trkpt>
      <trkpt lat="44.7539860" lon="7.0814130">
        <ele>1715.4</ele>
        <time>2017-07-26T08:28:52Z</time>
      </trkpt>
      <trkpt lat="44.7539950" lon="7.0814010">
        <ele>1716.0</ele>
        <time>2017-07-26T08:28:53Z</time>
      </trkpt>
      <trkpt lat="44.7540080" lon="7.0813920">
        <ele>1716.6</ele>
        <time>2017-07-26T08:28:54Z</time>
      </trkpt>
      <trkpt lat="44.7540330" lon="7.0813690">
        <ele>1717.6</ele>
        <time>2017-07-26T08:28:56Z</time>
      </trkpt>
      <trkpt lat="44.7540630" lon="7.0813530">
        <ele>1718.2</ele>
        <time>2017-07-26T08:28:58Z</time>
      </trkpt>
      <trkpt lat="44.7540770" lon="7.0813430">
        <ele>1718.6</ele>
        <time>2017-07-26T08:28:59Z</time>
      </trkpt>
      <trkpt lat="44.7540910" lon="7.0813360">
        <ele>1719.0</ele>
        <time>2017-07-26T08:29:00Z</time>
      </trkpt>
      <trkpt lat="44.7541340" lon="7.0813140">
        <ele>1720.4</ele>
        <time>2017-07-26T08:29:03Z</time>
      </trkpt>
      <trkpt lat="44.7542060" lon="7.0812920">
        <ele>1721.6</ele>
        <time>2017-07-26T08:29:08Z</time>
      </trkpt>
      <trkpt lat="44.7542510" lon="7.0812920">
        <ele>1722.6</ele>
        <time>2017-07-26T08:29:11Z</time>
      </trkpt>
      <trkpt lat="44.7542770" lon="7.0813070">
        <ele>1723.2</ele>
        <time>2017-07-26T08:29:13Z</time>
      </trkpt>
      <trkpt lat="44.7542960" lon="7.0813170">
        <ele>1723.8</ele>
        <time>2017-07-26T08:29:14Z</time>
      </trkpt>
      <trkpt lat="44.7543350" lon="7.0813690">
        <ele>1725.0</ele>
        <time>2017-07-26T08:29:17Z</time>
      </trkpt>
      <trkpt lat="44.7543560" lon="7.0814340">
        <ele>1726.0</ele>
        <time>2017-07-26T08:29:20Z</time>
      </trkpt>
      <trkpt lat="44.7543540" lon="7.0814550">
        <ele>1726.6</ele>
        <time>2017-07-26T08:29:21Z</time>
      </trkpt>
      <trkpt lat="44.7543580" lon="7.0815010">
        <ele>1727.2</ele>
        <time>2017-07-26T08:29:23Z</time>
      </trkpt>
      <trkpt lat="44.7543680" lon="7.0815740">
        <ele>1728.4</ele>
        <time>2017-07-26T08:29:26Z</time>
      </trkpt>
      <trkpt lat="44.7543790" lon="7.0816210">
        <ele>1729.0</ele>
        <time>2017-07-26T08:29:28Z</time>
      </trkpt>
      <trkpt lat="44.7543840" lon="7.0816450">
        <ele>1729.4</ele>
        <time>2017-07-26T08:29:29Z</time>
      </trkpt>
      <trkpt lat="44.7544100" lon="7.0817300">
        <ele>1730.4</ele>
        <time>2017-07-26T08:29:33Z</time>
      </trkpt>
      <trkpt lat="44.7544380" lon="7.0817870">
        <ele>1731.8</ele>
        <time>2017-07-26T08:29:36Z</time>
      </trkpt>
      <trkpt lat="44.7544460" lon="7.0818080">
        <ele>1732.0</ele>
        <time>2017-07-26T08:29:37Z</time>
      </trkpt>
      <trkpt lat="44.7545370" lon="7.0818940">
        <ele>1732.8</ele>
        <time>2017-07-26T08:29:42Z</time>
      </trkpt>
      <trkpt lat="44.7545940" lon="7.0819500">
        <ele>1733.2</ele>
        <time>2017-07-26T08:29:45Z</time>
      </trkpt>
      <trkpt lat="44.7546530" lon="7.0819960">
        <ele>1734.2</ele>
        <time>2017-07-26T08:29:49Z</time>
      </trkpt>
      <trkpt lat="44.7547030" lon="7.0820140">
        <ele>1735.8</ele>
        <time>2017-07-26T08:29:52Z</time>
      </trkpt>
      <trkpt lat="44.7547820" lon="7.0820260">
        <ele>1737.0</ele>
        <time>2017-07-26T08:29:56Z</time>
      </trkpt>
      <trkpt lat="44.7548790" lon="7.0820420">
        <ele>1737.8</ele>
        <time>2017-07-26T08:30:01Z</time>
      </trkpt>
      <trkpt lat="44.7548950" lon="7.0820400">
        <ele>1738.2</ele>
        <time>2017-07-26T08:30:02Z</time>
      </trkpt>
      <trkpt lat="44.7549910" lon="7.0820200">
        <ele>1739.0</ele>
        <time>2017-07-26T08:30:07Z</time>
      </trkpt>
      <trkpt lat="44.7550050" lon="7.0820100">
        <ele>1739.2</ele>
        <time>2017-07-26T08:30:08Z</time>
      </trkpt>
      <trkpt lat="44.7550500" lon="7.0819710">
        <ele>1740.6</ele>
        <time>2017-07-26T08:30:12Z</time>
      </trkpt>
      <trkpt lat="44.7550730" lon="7.0819590">
        <ele>1741.0</ele>
        <time>2017-07-26T08:30:14Z</time>
      </trkpt>
      <trkpt lat="44.7551170" lon="7.0819400">
        <ele>1741.8</ele>
        <time>2017-07-26T08:30:18Z</time>
      </trkpt>
      <trkpt lat="44.7551580" lon="7.0819710">
        <ele>1742.6</ele>
        <time>2017-07-26T08:30:21Z</time>
      </trkpt>
      <trkpt lat="44.7551720" lon="7.0819980">
        <ele>1743.0</ele>
        <time>2017-07-26T08:30:22Z</time>
      </trkpt>
      <trkpt lat="44.7551950" lon="7.0820580">
        <ele>1743.4</ele>
        <time>2017-07-26T08:30:24Z</time>
      </trkpt>
      <trkpt lat="44.7552180" lon="7.0821220">
        <ele>1744.4</ele>
        <time>2017-07-26T08:30:26Z</time>
      </trkpt>
      <trkpt lat="44.7552310" lon="7.0821550">
        <ele>1744.8</ele>
        <time>2017-07-26T08:30:27Z</time>
      </trkpt>
      <trkpt lat="44.7552390" lon="7.0822210">
        <ele>1745.4</ele>
        <time>2017-07-26T08:30:29Z</time>
      </trkpt>
      <trkpt lat="44.7552790" lon="7.0822990">
        <ele>1746.6</ele>
        <time>2017-07-26T08:30:32Z</time>
      </trkpt>
      <trkpt lat="44.7553090" lon="7.0823810">
        <ele>1747.8</ele>
        <time>2017-07-26T08:30:35Z</time>
      </trkpt>
      <trkpt lat="44.7553480" lon="7.0824410">
        <ele>1749.0</ele>
        <time>2017-07-26T08:30:38Z</time>
      </trkpt>
      <trkpt lat="44.7553920" lon="7.0824950">
        <ele>1750.2</ele>
        <time>2017-07-26T08:30:41Z</time>
      </trkpt>
      <trkpt lat="44.7554260" lon="7.0825150">
        <ele>1750.6</ele>
        <time>2017-07-26T08:30:43Z</time>
      </trkpt>
      <trkpt lat="44.7554940" lon="7.0825700">
        <ele>1751.4</ele>
        <time>2017-07-26T08:30:47Z</time>
      </trkpt>
      <trkpt lat="44.7555450" lon="7.0826030">
        <ele>1751.4</ele>
        <time>2017-07-26T08:30:50Z</time>
      </trkpt>
      <trkpt lat="44.7556320" lon="7.0826690">
        <ele>1752.4</ele>
        <time>2017-07-26T08:30:55Z</time>
      </trkpt>
      <trkpt lat="44.7556890" lon="7.0827290">
        <ele>1752.4</ele>
        <time>2017-07-26T08:30:59Z</time>
      </trkpt>
      <trkpt lat="44.7558100" lon="7.0828000">
        <ele>1753.6</ele>
        <time>2017-07-26T08:31:06Z</time>
      </trkpt>
      <trkpt lat="44.7558320" lon="7.0828300">
        <ele>1754.4</ele>
        <time>2017-07-26T08:31:08Z</time>
      </trkpt>
      <trkpt lat="44.7558390" lon="7.0828500">
        <ele>1754.8</ele>
        <time>2017-07-26T08:31:09Z</time>
      </trkpt>
      <trkpt lat="44.7558880" lon="7.0828860">
        <ele>1756.0</ele>
        <time>2017-07-26T08:31:12Z</time>
      </trkpt>
      <trkpt lat="44.7559430" lon="7.0829060">
        <ele>1757.0</ele>
        <time>2017-07-26T08:31:15Z</time>
      </trkpt>
      <trkpt lat="44.7559620" lon="7.0829080">
        <ele>1757.4</ele>
        <time>2017-07-26T08:31:16Z</time>
      </trkpt>
      <trkpt lat="44.7560010" lon="7.0829040">
        <ele>1758.2</ele>
        <time>2017-07-26T08:31:18Z</time>
      </trkpt>
      <trkpt lat="44.7560760" lon="7.0829000">
        <ele>1759.4</ele>
        <time>2017-07-26T08:31:22Z</time>
      </trkpt>
      <trkpt lat="44.7561100" lon="7.0828980">
        <ele>1760.0</ele>
        <time>2017-07-26T08:31:24Z</time>
      </trkpt>
      <trkpt lat="44.7561750" lon="7.0828710">
        <ele>1760.6</ele>
        <time>2017-07-26T08:31:29Z</time>
      </trkpt>
      <trkpt lat="44.7562190" lon="7.0828740">
        <ele>1761.6</ele>
        <time>2017-07-26T08:31:33Z</time>
      </trkpt>
      <trkpt lat="44.7562290" lon="7.0828760">
        <ele>1761.8</ele>
        <time>2017-07-26T08:31:34Z</time>
      </trkpt>
      <trkpt lat="44.7562740" lon="7.0828630">
        <ele>1763.0</ele>
        <time>2017-07-26T08:31:38Z</time>
      </trkpt>
      <trkpt lat="44.7563250" lon="7.0828370">
        <ele>1764.0</ele>
        <time>2017-07-26T08:31:42Z</time>
      </trkpt>
      <trkpt lat="44.7563380" lon="7.0828350">
        <ele>1764.2</ele>
        <time>2017-07-26T08:31:43Z</time>
      </trkpt>
      <trkpt lat="44.7565690" lon="7.0827980">
        <ele>1765.0</ele>
        <time>2017-07-26T08:31:51Z</time>
      </trkpt>
      <trkpt lat="44.7566920" lon="7.0829160">
        <ele>1765.6</ele>
        <time>2017-07-26T08:31:57Z</time>
      </trkpt>
      <trkpt lat="44.7566980" lon="7.0830050">
        <ele>1766.2</ele>
        <time>2017-07-26T08:32:00Z</time>
      </trkpt>
      <trkpt lat="44.7567010" lon="7.0830680">
        <ele>1766.6</ele>
        <time>2017-07-26T08:32:02Z</time>
      </trkpt>
      <trkpt lat="44.7567120" lon="7.0831560">
        <ele>1767.2</ele>
        <time>2017-07-26T08:32:05Z</time>
      </trkpt>
      <trkpt lat="44.7567440" lon="7.0832790">
        <ele>1768.2</ele>
        <time>2017-07-26T08:32:09Z</time>
      </trkpt>
      <trkpt lat="44.7567500" lon="7.0833120">
        <ele>1768.6</ele>
        <time>2017-07-26T08:32:10Z</time>
      </trkpt>
      <trkpt lat="44.7567710" lon="7.0833970">
        <ele>1769.4</ele>
        <time>2017-07-26T08:32:13Z</time>
      </trkpt>
      <trkpt lat="44.7567860" lon="7.0834510">
        <ele>1770.8</ele>
        <time>2017-07-26T08:32:15Z</time>
      </trkpt>
      <trkpt lat="44.7568130" lon="7.0835210">
        <ele>1772.0</ele>
        <time>2017-07-26T08:32:18Z</time>
      </trkpt>
      <trkpt lat="44.7568250" lon="7.0835440">
        <ele>1772.4</ele>
        <time>2017-07-26T08:32:19Z</time>
      </trkpt>
      <trkpt lat="44.7568430" lon="7.0835920">
        <ele>1773.4</ele>
        <time>2017-07-26T08:32:21Z</time>
      </trkpt>
      <trkpt lat="44.7568630" lon="7.0836710">
        <ele>1774.8</ele>
        <time>2017-07-26T08:32:24Z</time>
      </trkpt>
      <trkpt lat="44.7568760" lon="7.0837230">
        <ele>1776.0</ele>
        <time>2017-07-26T08:32:26Z</time>
      </trkpt>
      <trkpt lat="44.7568830" lon="7.0837500">
        <ele>1776.6</ele>
        <time>2017-07-26T08:32:27Z</time>
      </trkpt>
      <trkpt lat="44.7568960" lon="7.0837740">
        <ele>1777.2</ele>
        <time>2017-07-26T08:32:28Z</time>
      </trkpt>
      <trkpt lat="44.7569200" lon="7.0838170">
        <ele>1778.4</ele>
        <time>2017-07-26T08:32:30Z</time>
      </trkpt>
      <trkpt lat="44.7569550" lon="7.0838710">
        <ele>1779.6</ele>
        <time>2017-07-26T08:32:33Z</time>
      </trkpt>
      <trkpt lat="44.7569680" lon="7.0838860">
        <ele>1780.0</ele>
        <time>2017-07-26T08:32:34Z</time>
      </trkpt>
      <trkpt lat="44.7569940" lon="7.0839170">
        <ele>1780.6</ele>
        <time>2017-07-26T08:32:36Z</time>
      </trkpt>
      <trkpt lat="44.7570190" lon="7.0839560">
        <ele>1781.6</ele>
        <time>2017-07-26T08:32:38Z</time>
      </trkpt>
      <trkpt lat="44.7570670" lon="7.0840440">
        <ele>1783.0</ele>
        <time>2017-07-26T08:32:42Z</time>
      </trkpt>
      <trkpt lat="44.7570770" lon="7.0840650">
        <ele>1783.4</ele>
        <time>2017-07-26T08:32:44Z</time>
      </trkpt>
      <trkpt lat="44.7571340" lon="7.0841420">
        <ele>1784.4</ele>
        <time>2017-07-26T08:32:48Z</time>
      </trkpt>
      <trkpt lat="44.7571930" lon="7.0842110">
        <ele>1785.4</ele>
        <time>2017-07-26T08:32:52Z</time>
      </trkpt>
      <trkpt lat="44.7572070" lon="7.0842250">
        <ele>1785.6</ele>
        <time>2017-07-26T08:32:53Z</time>
      </trkpt>
      <trkpt lat="44.7573110" lon="7.0843130">
        <ele>1786.6</ele>
        <time>2017-07-26T08:33:00Z</time>
      </trkpt>
      <trkpt lat="44.7573520" lon="7.0843370">
        <ele>1787.6</ele>
        <time>2017-07-26T08:33:03Z</time>
      </trkpt>
      <trkpt lat="44.7574110" lon="7.0843840">
        <ele>1788.6</ele>
        <time>2017-07-26T08:33:07Z</time>
      </trkpt>
      <trkpt lat="44.7574240" lon="7.0843930">
        <ele>1788.8</ele>
        <time>2017-07-26T08:33:08Z</time>
      </trkpt>
      <trkpt lat="44.7574740" lon="7.0844350">
        <ele>1789.6</ele>
        <time>2017-07-26T08:33:12Z</time>
      </trkpt>
      <trkpt lat="44.7575220" lon="7.0844810">
        <ele>1790.8</ele>
        <time>2017-07-26T08:33:16Z</time>
      </trkpt>
      <trkpt lat="44.7575730" lon="7.0845290">
        <ele>1792.0</ele>
        <time>2017-07-26T08:33:20Z</time>
      </trkpt>
      <trkpt lat="44.7576120" lon="7.0845660">
        <ele>1793.0</ele>
        <time>2017-07-26T08:33:23Z</time>
      </trkpt>
      <trkpt lat="44.7576870" lon="7.0846500">
        <ele>1794.0</ele>
        <time>2017-07-26T08:33:28Z</time>
      </trkpt>
      <trkpt lat="44.7577210" lon="7.0846740">
        <ele>1794.2</ele>
        <time>2017-07-26T08:33:30Z</time>
      </trkpt>
      <trkpt lat="44.7577930" lon="7.0847440">
        <ele>1795.0</ele>
        <time>2017-07-26T08:33:35Z</time>
      </trkpt>
      <trkpt lat="44.7578060" lon="7.0847600">
        <ele>1795.2</ele>
        <time>2017-07-26T08:33:36Z</time>
      </trkpt>
      <trkpt lat="44.7578890" lon="7.0848210">
        <ele>1796.2</ele>
        <time>2017-07-26T08:33:41Z</time>
      </trkpt>
      <trkpt lat="44.7579080" lon="7.0848270">
        <ele>1796.2</ele>
        <time>2017-07-26T08:33:42Z</time>
      </trkpt>
      <trkpt lat="44.7580040" lon="7.0848510">
        <ele>1797.2</ele>
        <time>2017-07-26T08:33:48Z</time>
      </trkpt>
      <trkpt lat="44.7580580" lon="7.0848640">
        <ele>1798.6</ele>
        <time>2017-07-26T08:33:51Z</time>
      </trkpt>
      <trkpt lat="44.7581170" lon="7.0848930">
        <ele>1799.6</ele>
        <time>2017-07-26T08:33:55Z</time>
      </trkpt>
      <trkpt lat="44.7581510" lon="7.0849180">
        <ele>1799.8</ele>
        <time>2017-07-26T08:33:57Z</time>
      </trkpt>
      <trkpt lat="44.7582380" lon="7.0849640">
        <ele>1800.6</ele>
        <time>2017-07-26T08:34:02Z</time>
      </trkpt>
      <trkpt lat="44.7582510" lon="7.0849790">
        <ele>1801.0</ele>
        <time>2017-07-26T08:34:03Z</time>
      </trkpt>
      <trkpt lat="44.7583190" lon="7.0850220">
        <ele>1801.8</ele>
        <time>2017-07-26T08:34:07Z</time>
      </trkpt>
      <trkpt lat="44.7583720" lon="7.0850680">
        <ele>1803.0</ele>
        <time>2017-07-26T08:34:10Z</time>
      </trkpt>
      <trkpt lat="44.7584150" lon="7.0851150">
        <ele>1804.2</ele>
        <time>2017-07-26T08:34:13Z</time>
      </trkpt>
      <trkpt lat="44.7584400" lon="7.0851580">
        <ele>1805.2</ele>
        <time>2017-07-26T08:34:15Z</time>
      </trkpt>
      <trkpt lat="44.7584580" lon="7.0851920">
        <ele>1806.2</ele>
        <time>2017-07-26T08:34:17Z</time>
      </trkpt>
      <trkpt lat="44.7584710" lon="7.0852110">
        <ele>1806.6</ele>
        <time>2017-07-26T08:34:18Z</time>
      </trkpt>
      <trkpt lat="44.7585280" lon="7.0852730">
        <ele>1807.8</ele>
        <time>2017-07-26T08:34:22Z</time>
      </trkpt>
      <trkpt lat="44.7585380" lon="7.0852900">
        <ele>1808.2</ele>
        <time>2017-07-26T08:34:23Z</time>
      </trkpt>
      <trkpt lat="44.7585620" lon="7.0853320">
        <ele>1809.0</ele>
        <time>2017-07-26T08:34:25Z</time>
      </trkpt>
      <trkpt lat="44.7586260" lon="7.0853990">
        <ele>1809.6</ele>
        <time>2017-07-26T08:34:30Z</time>
      </trkpt>
      <trkpt lat="44.7586530" lon="7.0854310">
        <ele>1810.2</ele>
        <time>2017-07-26T08:34:32Z</time>
      </trkpt>
      <trkpt lat="44.7587040" lon="7.0854400">
        <ele>1811.2</ele>
        <time>2017-07-26T08:34:36Z</time>
      </trkpt>
      <trkpt lat="44.7587160" lon="7.0854290">
        <ele>1811.6</ele>
        <time>2017-07-26T08:34:37Z</time>
      </trkpt>
      <trkpt lat="44.7587730" lon="7.0853770">
        <ele>1812.6</ele>
        <time>2017-07-26T08:34:41Z</time>
      </trkpt>
      <trkpt lat="44.7588170" lon="7.0853380">
        <ele>1813.6</ele>
        <time>2017-07-26T08:34:44Z</time>
      </trkpt>
      <trkpt lat="44.7588840" lon="7.0852720">
        <ele>1815.0</ele>
        <time>2017-07-26T08:34:48Z</time>
      </trkpt>
      <trkpt lat="44.7589330" lon="7.0852060">
        <ele>1816.0</ele>
        <time>2017-07-26T08:34:51Z</time>
      </trkpt>
      <trkpt lat="44.7589500" lon="7.0851830">
        <ele>1816.2</ele>
        <time>2017-07-26T08:34:52Z</time>
      </trkpt>
      <trkpt lat="44.7590090" lon="7.0851290">
        <ele>1817.4</ele>
        <time>2017-07-26T08:34:55Z</time>
      </trkpt>
      <trkpt lat="44.7590650" lon="7.0850920">
        <ele>1818.4</ele>
        <time>2017-07-26T08:34:58Z</time>
      </trkpt>
      <trkpt lat="44.7591370" lon="7.0850360">
        <ele>1819.4</ele>
        <time>2017-07-26T08:35:02Z</time>
      </trkpt>
      <trkpt lat="44.7591810" lon="7.0850110">
        <ele>1820.4</ele>
        <time>2017-07-26T08:35:04Z</time>
      </trkpt>
      <trkpt lat="44.7591980" lon="7.0849890">
        <ele>1820.8</ele>
        <time>2017-07-26T08:35:05Z</time>
      </trkpt>
      <trkpt lat="44.7593110" lon="7.0848790">
        <ele>1822.0</ele>
        <time>2017-07-26T08:35:11Z</time>
      </trkpt>
      <trkpt lat="44.7594000" lon="7.0847700">
        <ele>1823.2</ele>
        <time>2017-07-26T08:35:16Z</time>
      </trkpt>
      <trkpt lat="44.7594340" lon="7.0847330">
        <ele>1823.8</ele>
        <time>2017-07-26T08:35:18Z</time>
      </trkpt>
      <trkpt lat="44.7595000" lon="7.0846730">
        <ele>1824.4</ele>
        <time>2017-07-26T08:35:21Z</time>
      </trkpt>
      <trkpt lat="44.7595420" lon="7.0846340">
        <ele>1824.8</ele>
        <time>2017-07-26T08:35:23Z</time>
      </trkpt>
      <trkpt lat="44.7596410" lon="7.0845550">
        <ele>1825.6</ele>
        <time>2017-07-26T08:35:27Z</time>
      </trkpt>
      <trkpt lat="44.7597130" lon="7.0844840">
        <ele>1826.0</ele>
        <time>2017-07-26T08:35:30Z</time>
      </trkpt>
      <trkpt lat="44.7598350" lon="7.0843840">
        <ele>1826.6</ele>
        <time>2017-07-26T08:35:35Z</time>
      </trkpt>
      <trkpt lat="44.7600430" lon="7.0843180">
        <ele>1827.6</ele>
        <time>2017-07-26T08:35:42Z</time>
      </trkpt>
      <trkpt lat="44.7601800" lon="7.0842940">
        <ele>1828.8</ele>
        <time>2017-07-26T08:35:47Z</time>
      </trkpt>
      <trkpt lat="44.7602490" lon="7.0842940">
        <ele>1829.6</ele>
        <time>2017-07-26T08:35:50Z</time>
      </trkpt>
      <trkpt lat="44.7602710" lon="7.0842970">
        <ele>1830.0</ele>
        <time>2017-07-26T08:35:51Z</time>
      </trkpt>
      <trkpt lat="44.7604020" lon="7.0843390">
        <ele>1831.4</ele>
        <time>2017-07-26T08:35:57Z</time>
      </trkpt>
      <trkpt lat="44.7604240" lon="7.0843430">
        <ele>1831.8</ele>
        <time>2017-07-26T08:35:58Z</time>
      </trkpt>
      <trkpt lat="44.7604720" lon="7.0843540">
        <ele>1832.4</ele>
        <time>2017-07-26T08:36:00Z</time>
      </trkpt>
      <trkpt lat="44.7605340" lon="7.0843740">
        <ele>1833.8</ele>
        <time>2017-07-26T08:36:03Z</time>
      </trkpt>
      <trkpt lat="44.7605550" lon="7.0843790">
        <ele>1834.0</ele>
        <time>2017-07-26T08:36:04Z</time>
      </trkpt>
      <trkpt lat="44.7605980" lon="7.0844000">
        <ele>1835.0</ele>
        <time>2017-07-26T08:36:06Z</time>
      </trkpt>
      <trkpt lat="44.7607040" lon="7.0844660">
        <ele>1836.2</ele>
        <time>2017-07-26T08:36:11Z</time>
      </trkpt>
      <trkpt lat="44.7607370" lon="7.0844760">
        <ele>1836.4</ele>
        <time>2017-07-26T08:36:13Z</time>
      </trkpt>
      <trkpt lat="44.7607730" lon="7.0844700">
        <ele>1837.2</ele>
        <time>2017-07-26T08:36:15Z</time>
      </trkpt>
      <trkpt lat="44.7608600" lon="7.0844480">
        <ele>1838.0</ele>
        <time>2017-07-26T08:36:20Z</time>
      </trkpt>
      <trkpt lat="44.7608780" lon="7.0844160">
        <ele>1838.2</ele>
        <time>2017-07-26T08:36:22Z</time>
      </trkpt>
      <trkpt lat="44.7609050" lon="7.0843440">
        <ele>1839.6</ele>
        <time>2017-07-26T08:36:26Z</time>
      </trkpt>
      <trkpt lat="44.7609250" lon="7.0842650">
        <ele>1840.8</ele>
        <time>2017-07-26T08:36:29Z</time>
      </trkpt>
      <trkpt lat="44.7609380" lon="7.0842170">
        <ele>1841.8</ele>
        <time>2017-07-26T08:36:31Z</time>
      </trkpt>
      <trkpt lat="44.7609530" lon="7.0841690">
        <ele>1843.0</ele>
        <time>2017-07-26T08:36:33Z</time>
      </trkpt>
      <trkpt lat="44.7609810" lon="7.0841100">
        <ele>1844.4</ele>
        <time>2017-07-26T08:36:36Z</time>
      </trkpt>
      <trkpt lat="44.7609960" lon="7.0840670">
        <ele>1845.6</ele>
        <time>2017-07-26T08:36:38Z</time>
      </trkpt>
      <trkpt lat="44.7610120" lon="7.0840210">
        <ele>1846.8</ele>
        <time>2017-07-26T08:36:40Z</time>
      </trkpt>
      <trkpt lat="44.7610320" lon="7.0839420">
        <ele>1848.2</ele>
        <time>2017-07-26T08:36:43Z</time>
      </trkpt>
      <trkpt lat="44.7610440" lon="7.0838650">
        <ele>1849.2</ele>
        <time>2017-07-26T08:36:46Z</time>
      </trkpt>
      <trkpt lat="44.7610490" lon="7.0838040">
        <ele>1850.0</ele>
        <time>2017-07-26T08:36:48Z</time>
      </trkpt>
      <trkpt lat="44.7610530" lon="7.0837720">
        <ele>1850.2</ele>
        <time>2017-07-26T08:36:49Z</time>
      </trkpt>
      <trkpt lat="44.7610740" lon="7.0836530">
        <ele>1851.6</ele>
        <time>2017-07-26T08:36:53Z</time>
      </trkpt>
      <trkpt lat="44.7610770" lon="7.0835900">
        <ele>1852.2</ele>
        <time>2017-07-26T08:36:55Z</time>
      </trkpt>
      <trkpt lat="44.7610790" lon="7.0835620">
        <ele>1852.6</ele>
        <time>2017-07-26T08:36:56Z</time>
      </trkpt>
      <trkpt lat="44.7610930" lon="7.0834630">
        <ele>1854.0</ele>
        <time>2017-07-26T08:37:00Z</time>
      </trkpt>
      <trkpt lat="44.7610930" lon="7.0834170">
        <ele>1854.6</ele>
        <time>2017-07-26T08:37:02Z</time>
      </trkpt>
      <trkpt lat="44.7610930" lon="7.0833950">
        <ele>1855.2</ele>
        <time>2017-07-26T08:37:03Z</time>
      </trkpt>
      <trkpt lat="44.7610810" lon="7.0833150">
        <ele>1856.2</ele>
        <time>2017-07-26T08:37:07Z</time>
      </trkpt>
      <trkpt lat="44.7610740" lon="7.0832820">
        <ele>1856.8</ele>
        <time>2017-07-26T08:37:09Z</time>
      </trkpt>
      <trkpt lat="44.7610710" lon="7.0832690">
        <ele>1857.2</ele>
        <time>2017-07-26T08:37:10Z</time>
      </trkpt>
      <trkpt lat="44.7610680" lon="7.0832490">
        <ele>1857.6</ele>
        <time>2017-07-26T08:37:11Z</time>
      </trkpt>
      <trkpt lat="44.7610580" lon="7.0831880">
        <ele>1858.6</ele>
        <time>2017-07-26T08:37:15Z</time>
      </trkpt>
      <trkpt lat="44.7610610" lon="7.0831610">
        <ele>1859.0</ele>
        <time>2017-07-26T08:37:16Z</time>
      </trkpt>
      <trkpt lat="44.7610800" lon="7.0830630">
        <ele>1859.8</ele>
        <time>2017-07-26T08:37:20Z</time>
      </trkpt>
      <trkpt lat="44.7610830" lon="7.0830410">
        <ele>1860.0</ele>
        <time>2017-07-26T08:37:21Z</time>
      </trkpt>
      <trkpt lat="44.7610840" lon="7.0829920">
        <ele>1860.4</ele>
        <time>2017-07-26T08:37:23Z</time>
      </trkpt>
      <trkpt lat="44.7610920" lon="7.0829470">
        <ele>1860.6</ele>
        <time>2017-07-26T08:37:25Z</time>
      </trkpt>
      <trkpt lat="44.7611190" lon="7.0828990">
        <ele>1861.4</ele>
        <time>2017-07-26T08:37:27Z</time>
      </trkpt>
      <trkpt lat="44.7611430" lon="7.0828550">
        <ele>1861.8</ele>
        <time>2017-07-26T08:37:29Z</time>
      </trkpt>
      <trkpt lat="44.7612440" lon="7.0826900">
        <ele>1862.2</ele>
        <time>2017-07-26T08:37:37Z</time>
      </trkpt>
      <trkpt lat="44.7612610" lon="7.0826430">
        <ele>1862.4</ele>
        <time>2017-07-26T08:37:39Z</time>
      </trkpt>
      <trkpt lat="44.7612670" lon="7.0826160">
        <ele>1862.8</ele>
        <time>2017-07-26T08:37:40Z</time>
      </trkpt>
      <trkpt lat="44.7613000" lon="7.0825490">
        <ele>1863.4</ele>
        <time>2017-07-26T08:37:43Z</time>
      </trkpt>
      <trkpt lat="44.7613110" lon="7.0825280">
        <ele>1863.8</ele>
        <time>2017-07-26T08:37:44Z</time>
      </trkpt>
      <trkpt lat="44.7613640" lon="7.0824180">
        <ele>1865.0</ele>
        <time>2017-07-26T08:37:49Z</time>
      </trkpt>
      <trkpt lat="44.7613760" lon="7.0823930">
        <ele>1865.2</ele>
        <time>2017-07-26T08:37:50Z</time>
      </trkpt>
      <trkpt lat="44.7613870" lon="7.0823680">
        <ele>1866.0</ele>
        <time>2017-07-26T08:37:51Z</time>
      </trkpt>
      <trkpt lat="44.7614210" lon="7.0823030">
        <ele>1867.4</ele>
        <time>2017-07-26T08:37:54Z</time>
      </trkpt>
      <trkpt lat="44.7614580" lon="7.0822020">
        <ele>1868.8</ele>
        <time>2017-07-26T08:37:58Z</time>
      </trkpt>
      <trkpt lat="44.7614740" lon="7.0821200">
        <ele>1870.0</ele>
        <time>2017-07-26T08:38:01Z</time>
      </trkpt>
      <trkpt lat="44.7614920" lon="7.0820320">
        <ele>1871.0</ele>
        <time>2017-07-26T08:38:05Z</time>
      </trkpt>
      <trkpt lat="44.7615230" lon="7.0819200">
        <ele>1872.4</ele>
        <time>2017-07-26T08:38:10Z</time>
      </trkpt>
      <trkpt lat="44.7615320" lon="7.0818710">
        <ele>1872.8</ele>
        <time>2017-07-26T08:38:12Z</time>
      </trkpt>
      <trkpt lat="44.7615490" lon="7.0817990">
        <ele>1873.6</ele>
        <time>2017-07-26T08:38:15Z</time>
      </trkpt>
      <trkpt lat="44.7615640" lon="7.0817030">
        <ele>1874.6</ele>
        <time>2017-07-26T08:38:19Z</time>
      </trkpt>
      <trkpt lat="44.7615830" lon="7.0815750">
        <ele>1875.8</ele>
        <time>2017-07-26T08:38:24Z</time>
      </trkpt>
      <trkpt lat="44.7615990" lon="7.0815280">
        <ele>1876.2</ele>
        <time>2017-07-26T08:38:26Z</time>
      </trkpt>
      <trkpt lat="44.7616220" lon="7.0814820">
        <ele>1876.8</ele>
        <time>2017-07-26T08:38:28Z</time>
      </trkpt>
      <trkpt lat="44.7616620" lon="7.0813600">
        <ele>1877.8</ele>
        <time>2017-07-26T08:38:33Z</time>
      </trkpt>
      <trkpt lat="44.7617030" lon="7.0812420">
        <ele>1879.0</ele>
        <time>2017-07-26T08:38:38Z</time>
      </trkpt>
      <trkpt lat="44.7617180" lon="7.0811920">
        <ele>1879.8</ele>
        <time>2017-07-26T08:38:40Z</time>
      </trkpt>
      <trkpt lat="44.7617340" lon="7.0811440">
        <ele>1880.2</ele>
        <time>2017-07-26T08:38:42Z</time>
      </trkpt>
      <trkpt lat="44.7617480" lon="7.0810930">
        <ele>1880.8</ele>
        <time>2017-07-26T08:38:44Z</time>
      </trkpt>
      <trkpt lat="44.7617680" lon="7.0810220">
        <ele>1881.4</ele>
        <time>2017-07-26T08:38:47Z</time>
      </trkpt>
      <trkpt lat="44.7617970" lon="7.0809500">
        <ele>1881.8</ele>
        <time>2017-07-26T08:38:50Z</time>
      </trkpt>
      <trkpt lat="44.7618090" lon="7.0809030">
        <ele>1882.4</ele>
        <time>2017-07-26T08:38:52Z</time>
      </trkpt>
      <trkpt lat="44.7618140" lon="7.0808800">
        <ele>1882.6</ele>
        <time>2017-07-26T08:38:53Z</time>
      </trkpt>
      <trkpt lat="44.7618630" lon="7.0807510">
        <ele>1883.6</ele>
        <time>2017-07-26T08:38:58Z</time>
      </trkpt>
      <trkpt lat="44.7618910" lon="7.0806670">
        <ele>1884.2</ele>
        <time>2017-07-26T08:39:01Z</time>
      </trkpt>
      <trkpt lat="44.7619030" lon="7.0806070">
        <ele>1884.8</ele>
        <time>2017-07-26T08:39:03Z</time>
      </trkpt>
      <trkpt lat="44.7619290" lon="7.0805310">
        <ele>1886.0</ele>
        <time>2017-07-26T08:39:06Z</time>
      </trkpt>
      <trkpt lat="44.7619460" lon="7.0804650">
        <ele>1886.8</ele>
        <time>2017-07-26T08:39:09Z</time>
      </trkpt>
      <trkpt lat="44.7619510" lon="7.0804390">
        <ele>1887.2</ele>
        <time>2017-07-26T08:39:10Z</time>
      </trkpt>
      <trkpt lat="44.7619690" lon="7.0803410">
        <ele>1888.2</ele>
        <time>2017-07-26T08:39:14Z</time>
      </trkpt>
      <trkpt lat="44.7619780" lon="7.0803190">
        <ele>1888.4</ele>
        <time>2017-07-26T08:39:15Z</time>
      </trkpt>
      <trkpt lat="44.7619940" lon="7.0802540">
        <ele>1889.2</ele>
        <time>2017-07-26T08:39:18Z</time>
      </trkpt>
      <trkpt lat="44.7620180" lon="7.0801850">
        <ele>1890.0</ele>
        <time>2017-07-26T08:39:21Z</time>
      </trkpt>
      <trkpt lat="44.7620240" lon="7.0801620">
        <ele>1890.4</ele>
        <time>2017-07-26T08:39:22Z</time>
      </trkpt>
      <trkpt lat="44.7620630" lon="7.0800410">
        <ele>1891.6</ele>
        <time>2017-07-26T08:39:27Z</time>
      </trkpt>
      <trkpt lat="44.7620840" lon="7.0799860">
        <ele>1892.6</ele>
        <time>2017-07-26T08:39:30Z</time>
      </trkpt>
      <trkpt lat="44.7621120" lon="7.0799210">
        <ele>1893.6</ele>
        <time>2017-07-26T08:39:34Z</time>
      </trkpt>
      <trkpt lat="44.7621170" lon="7.0798860">
        <ele>1894.4</ele>
        <time>2017-07-26T08:39:36Z</time>
      </trkpt>
      <trkpt lat="44.7621160" lon="7.0798680">
        <ele>1894.8</ele>
        <time>2017-07-26T08:39:37Z</time>
      </trkpt>
      <trkpt lat="44.7621220" lon="7.0798460">
        <ele>1894.8</ele>
        <time>2017-07-26T08:39:38Z</time>
      </trkpt>
      <trkpt lat="44.7621500" lon="7.0797610">
        <ele>1896.0</ele>
        <time>2017-07-26T08:39:42Z</time>
      </trkpt>
      <trkpt lat="44.7621530" lon="7.0797220">
        <ele>1896.8</ele>
        <time>2017-07-26T08:39:44Z</time>
      </trkpt>
      <trkpt lat="44.7621570" lon="7.0796830">
        <ele>1897.2</ele>
        <time>2017-07-26T08:39:46Z</time>
      </trkpt>
      <trkpt lat="44.7621530" lon="7.0796460">
        <ele>1897.6</ele>
        <time>2017-07-26T08:39:48Z</time>
      </trkpt>
      <trkpt lat="44.7621500" lon="7.0795950">
        <ele>1898.4</ele>
        <time>2017-07-26T08:39:50Z</time>
      </trkpt>
      <trkpt lat="44.7621430" lon="7.0795440">
        <ele>1900.0</ele>
        <time>2017-07-26T08:39:52Z</time>
      </trkpt>
      <trkpt lat="44.7621330" lon="7.0794780">
        <ele>1901.0</ele>
        <time>2017-07-26T08:39:55Z</time>
      </trkpt>
      <trkpt lat="44.7621400" lon="7.0794540">
        <ele>1901.4</ele>
        <time>2017-07-26T08:39:56Z</time>
      </trkpt>
      <trkpt lat="44.7621440" lon="7.0793710">
        <ele>1902.4</ele>
        <time>2017-07-26T08:39:59Z</time>
      </trkpt>
      <trkpt lat="44.7621470" lon="7.0793390">
        <ele>1902.6</ele>
        <time>2017-07-26T08:40:00Z</time>
      </trkpt>
      <trkpt lat="44.7621790" lon="7.0792770">
        <ele>1903.2</ele>
        <time>2017-07-26T08:40:02Z</time>
      </trkpt>
      <trkpt lat="44.7621940" lon="7.0792480">
        <ele>1903.4</ele>
        <time>2017-07-26T08:40:03Z</time>
      </trkpt>
      <trkpt lat="44.7622220" lon="7.0791980">
        <ele>1903.8</ele>
        <time>2017-07-26T08:40:05Z</time>
      </trkpt>
      <trkpt lat="44.7623470" lon="7.0791110">
        <ele>1903.8</ele>
        <time>2017-07-26T08:40:11Z</time>
      </trkpt>
      <trkpt lat="44.7624940" lon="7.0790740">
        <ele>1903.0</ele>
        <time>2017-07-26T08:40:19Z</time>
      </trkpt>
      <trkpt lat="44.7625880" lon="7.0789820">
        <ele>1903.4</ele>
        <time>2017-07-26T08:40:25Z</time>
      </trkpt>
      <trkpt lat="44.7627080" lon="7.0788740">
        <ele>1904.6</ele>
        <time>2017-07-26T08:40:32Z</time>
      </trkpt>
      <trkpt lat="44.7627290" lon="7.0788670">
        <ele>1904.8</ele>
        <time>2017-07-26T08:40:33Z</time>
      </trkpt>
      <trkpt lat="44.7627990" lon="7.0788270">
        <ele>1905.4</ele>
        <time>2017-07-26T08:40:37Z</time>
      </trkpt>
      <trkpt lat="44.7628390" lon="7.0788060">
        <ele>1905.8</ele>
        <time>2017-07-26T08:40:39Z</time>
      </trkpt>
      <trkpt lat="44.7628790" lon="7.0787540">
        <ele>1906.8</ele>
        <time>2017-07-26T08:40:42Z</time>
      </trkpt>
      <trkpt lat="44.7628930" lon="7.0787370">
        <ele>1907.0</ele>
        <time>2017-07-26T08:40:43Z</time>
      </trkpt>
      <trkpt lat="44.7629600" lon="7.0786890">
        <ele>1907.8</ele>
        <time>2017-07-26T08:40:47Z</time>
      </trkpt>
      <trkpt lat="44.7629760" lon="7.0786790">
        <ele>1908.0</ele>
        <time>2017-07-26T08:40:48Z</time>
      </trkpt>
      <trkpt lat="44.7629890" lon="7.0786610">
        <ele>1908.4</ele>
        <time>2017-07-26T08:40:49Z</time>
      </trkpt>
      <trkpt lat="44.7630130" lon="7.0786260">
        <ele>1909.2</ele>
        <time>2017-07-26T08:40:51Z</time>
      </trkpt>
      <trkpt lat="44.7630380" lon="7.0785960">
        <ele>1910.4</ele>
        <time>2017-07-26T08:40:53Z</time>
      </trkpt>
      <trkpt lat="44.7630590" lon="7.0785580">
        <ele>1911.8</ele>
        <time>2017-07-26T08:40:55Z</time>
      </trkpt>
      <trkpt lat="44.7630680" lon="7.0785130">
        <ele>1913.2</ele>
        <time>2017-07-26T08:40:57Z</time>
      </trkpt>
      <trkpt lat="44.7630720" lon="7.0784640">
        <ele>1914.6</ele>
        <time>2017-07-26T08:40:59Z</time>
      </trkpt>
      <trkpt lat="44.7630800" lon="7.0784200">
        <ele>1915.8</ele>
        <time>2017-07-26T08:41:01Z</time>
      </trkpt>
      <trkpt lat="44.7630810" lon="7.0783800">
        <ele>1917.0</ele>
        <time>2017-07-26T08:41:03Z</time>
      </trkpt>
      <trkpt lat="44.7630820" lon="7.0783610">
        <ele>1918.2</ele>
        <time>2017-07-26T08:41:04Z</time>
      </trkpt>
      <trkpt lat="44.7630830" lon="7.0783210">
        <ele>1919.4</ele>
        <time>2017-07-26T08:41:06Z</time>
      </trkpt>
      <trkpt lat="44.7630740" lon="7.0782300">
        <ele>1920.6</ele>
        <time>2017-07-26T08:41:10Z</time>
      </trkpt>
      <trkpt lat="44.7630460" lon="7.0781530">
        <ele>1921.4</ele>
        <time>2017-07-26T08:41:14Z</time>
      </trkpt>
      <trkpt lat="44.7630410" lon="7.0781310">
        <ele>1921.6</ele>
        <time>2017-07-26T08:41:15Z</time>
      </trkpt>
      <trkpt lat="44.7630000" lon="7.0780320">
        <ele>1922.6</ele>
        <time>2017-07-26T08:41:20Z</time>
      </trkpt>
      <trkpt lat="44.7629910" lon="7.0780110">
        <ele>1922.8</ele>
        <time>2017-07-26T08:41:21Z</time>
      </trkpt>
      <trkpt lat="44.7629290" lon="7.0778200">
        <ele>1924.0</ele>
        <time>2017-07-26T08:41:29Z</time>
      </trkpt>
      <trkpt lat="44.7628980" lon="7.0777060">
        <ele>1925.0</ele>
        <time>2017-07-26T08:41:33Z</time>
      </trkpt>
      <trkpt lat="44.7628840" lon="7.0776440">
        <ele>1925.6</ele>
        <time>2017-07-26T08:41:35Z</time>
      </trkpt>
      <trkpt lat="44.7628760" lon="7.0775880">
        <ele>1926.0</ele>
        <time>2017-07-26T08:41:37Z</time>
      </trkpt>
      <trkpt lat="44.7628550" lon="7.0774780">
        <ele>1926.8</ele>
        <time>2017-07-26T08:41:41Z</time>
      </trkpt>
      <trkpt lat="44.7628450" lon="7.0774260">
        <ele>1927.0</ele>
        <time>2017-07-26T08:41:43Z</time>
      </trkpt>
      <trkpt lat="44.7628280" lon="7.0772690">
        <ele>1927.6</ele>
        <time>2017-07-26T08:41:49Z</time>
      </trkpt>
      <trkpt lat="44.7628220" lon="7.0772140">
        <ele>1928.2</ele>
        <time>2017-07-26T08:41:51Z</time>
      </trkpt>
      <trkpt lat="44.7628070" lon="7.0771320">
        <ele>1928.2</ele>
        <time>2017-07-26T08:41:54Z</time>
      </trkpt>
      <trkpt lat="44.7628140" lon="7.0770310">
        <ele>1928.8</ele>
        <time>2017-07-26T08:41:58Z</time>
      </trkpt>
      <trkpt lat="44.7628160" lon="7.0769790">
        <ele>1929.2</ele>
        <time>2017-07-26T08:42:00Z</time>
      </trkpt>
      <trkpt lat="44.7628260" lon="7.0768730">
        <ele>1930.6</ele>
        <time>2017-07-26T08:42:04Z</time>
      </trkpt>
      <trkpt lat="44.7628350" lon="7.0768250">
        <ele>1931.4</ele>
        <time>2017-07-26T08:42:06Z</time>
      </trkpt>
      <trkpt lat="44.7628330" lon="7.0768010">
        <ele>1931.8</ele>
        <time>2017-07-26T08:42:07Z</time>
      </trkpt>
      <trkpt lat="44.7628330" lon="7.0767070">
        <ele>1933.0</ele>
        <time>2017-07-26T08:42:11Z</time>
      </trkpt>
      <trkpt lat="44.7628330" lon="7.0766580">
        <ele>1934.2</ele>
        <time>2017-07-26T08:42:13Z</time>
      </trkpt>
      <trkpt lat="44.7628230" lon="7.0765850">
        <ele>1935.4</ele>
        <time>2017-07-26T08:42:16Z</time>
      </trkpt>
      <trkpt lat="44.7628040" lon="7.0764970">
        <ele>1936.2</ele>
        <time>2017-07-26T08:42:20Z</time>
      </trkpt>
      <trkpt lat="44.7627900" lon="7.0764500">
        <ele>1936.4</ele>
        <time>2017-07-26T08:42:22Z</time>
      </trkpt>
      <trkpt lat="44.7627650" lon="7.0763320">
        <ele>1937.2</ele>
        <time>2017-07-26T08:42:27Z</time>
      </trkpt>
      <trkpt lat="44.7627720" lon="7.0762900">
        <ele>1937.8</ele>
        <time>2017-07-26T08:42:29Z</time>
      </trkpt>
      <trkpt lat="44.7627800" lon="7.0761930">
        <ele>1938.8</ele>
        <time>2017-07-26T08:42:33Z</time>
      </trkpt>
      <trkpt lat="44.7627850" lon="7.0761470">
        <ele>1939.6</ele>
        <time>2017-07-26T08:42:35Z</time>
      </trkpt>
      <trkpt lat="44.7627840" lon="7.0761230">
        <ele>1940.0</ele>
        <time>2017-07-26T08:42:36Z</time>
      </trkpt>
      <trkpt lat="44.7627830" lon="7.0760560">
        <ele>1941.0</ele>
        <time>2017-07-26T08:42:39Z</time>
      </trkpt>
      <trkpt lat="44.7627860" lon="7.0760080">
        <ele>1942.4</ele>
        <time>2017-07-26T08:42:41Z</time>
      </trkpt>
      <trkpt lat="44.7627850" lon="7.0759370">
        <ele>1943.4</ele>
        <time>2017-07-26T08:42:44Z</time>
      </trkpt>
      <trkpt lat="44.7627590" lon="7.0758740">
        <ele>1943.8</ele>
        <time>2017-07-26T08:42:47Z</time>
      </trkpt>
      <trkpt lat="44.7626770" lon="7.0757910">
        <ele>1944.2</ele>
        <time>2017-07-26T08:42:53Z</time>
      </trkpt>
      <trkpt lat="44.7626010" lon="7.0756790">
        <ele>1944.6</ele>
        <time>2017-07-26T08:42:59Z</time>
      </trkpt>
      <trkpt lat="44.7625880" lon="7.0756520">
        <ele>1944.8</ele>
        <time>2017-07-26T08:43:00Z</time>
      </trkpt>
      <trkpt lat="44.7625750" lon="7.0755530">
        <ele>1945.8</ele>
        <time>2017-07-26T08:43:03Z</time>
      </trkpt>
      <trkpt lat="44.7625790" lon="7.0754850">
        <ele>1947.2</ele>
        <time>2017-07-26T08:43:05Z</time>
      </trkpt>
      <trkpt lat="44.7625640" lon="7.0754160">
        <ele>1948.4</ele>
        <time>2017-07-26T08:43:07Z</time>
      </trkpt>
      <trkpt lat="44.7625410" lon="7.0753570">
        <ele>1950.0</ele>
        <time>2017-07-26T08:43:09Z</time>
      </trkpt>
      <trkpt lat="44.7625120" lon="7.0753080">
        <ele>1951.2</ele>
        <time>2017-07-26T08:43:11Z</time>
      </trkpt>
      <trkpt lat="44.7624970" lon="7.0752810">
        <ele>1952.0</ele>
        <time>2017-07-26T08:43:12Z</time>
      </trkpt>
      <trkpt lat="44.7624860" lon="7.0752550">
        <ele>1952.6</ele>
        <time>2017-07-26T08:43:13Z</time>
      </trkpt>
      <trkpt lat="44.7624190" lon="7.0751390">
        <ele>1953.8</ele>
        <time>2017-07-26T08:43:19Z</time>
      </trkpt>
      <trkpt lat="44.7623560" lon="7.0750850">
        <ele>1955.4</ele>
        <time>2017-07-26T08:43:23Z</time>
      </trkpt>
      <trkpt lat="44.7623060" lon="7.0750090">
        <ele>1955.8</ele>
        <time>2017-07-26T08:43:27Z</time>
      </trkpt>
      <trkpt lat="44.7622390" lon="7.0749410">
        <ele>1956.4</ele>
        <time>2017-07-26T08:43:32Z</time>
      </trkpt>
      <trkpt lat="44.7622130" lon="7.0749070">
        <ele>1956.6</ele>
        <time>2017-07-26T08:43:34Z</time>
      </trkpt>
      <trkpt lat="44.7621640" lon="7.0748190">
        <ele>1957.6</ele>
        <time>2017-07-26T08:43:38Z</time>
      </trkpt>
      <trkpt lat="44.7621210" lon="7.0747470">
        <ele>1958.0</ele>
        <time>2017-07-26T08:43:41Z</time>
      </trkpt>
      <trkpt lat="44.7620810" lon="7.0746740">
        <ele>1958.8</ele>
        <time>2017-07-26T08:43:44Z</time>
      </trkpt>
      <trkpt lat="44.7620500" lon="7.0745990">
        <ele>1959.8</ele>
        <time>2017-07-26T08:43:47Z</time>
      </trkpt>
      <trkpt lat="44.7620130" lon="7.0745160">
        <ele>1961.0</ele>
        <time>2017-07-26T08:43:50Z</time>
      </trkpt>
      <trkpt lat="44.7620020" lon="7.0744850">
        <ele>1961.2</ele>
        <time>2017-07-26T08:43:51Z</time>
      </trkpt>
      <trkpt lat="44.7619560" lon="7.0743570">
        <ele>1962.2</ele>
        <time>2017-07-26T08:43:55Z</time>
      </trkpt>
      <trkpt lat="44.7619580" lon="7.0743150">
        <ele>1962.4</ele>
        <time>2017-07-26T08:43:56Z</time>
      </trkpt>
      <trkpt lat="44.7619930" lon="7.0740330">
        <ele>1963.0</ele>
        <time>2017-07-26T08:44:02Z</time>
      </trkpt>
      <trkpt lat="44.7619940" lon="7.0739860">
        <ele>1963.2</ele>
        <time>2017-07-26T08:44:03Z</time>
      </trkpt>
      <trkpt lat="44.7619560" lon="7.0737920">
        <ele>1964.2</ele>
        <time>2017-07-26T08:44:08Z</time>
      </trkpt>
      <trkpt lat="44.7619260" lon="7.0736910">
        <ele>1964.2</ele>
        <time>2017-07-26T08:44:11Z</time>
      </trkpt>
      <trkpt lat="44.7618720" lon="7.0735440">
        <ele>1964.8</ele>
        <time>2017-07-26T08:44:16Z</time>
      </trkpt>
      <trkpt lat="44.7618090" lon="7.0733190">
        <ele>1965.4</ele>
        <time>2017-07-26T08:44:24Z</time>
      </trkpt>
      <trkpt lat="44.7617850" lon="7.0731250">
        <ele>1966.4</ele>
        <time>2017-07-26T08:44:31Z</time>
      </trkpt>
      <trkpt lat="44.7617990" lon="7.0730080">
        <ele>1967.6</ele>
        <time>2017-07-26T08:44:35Z</time>
      </trkpt>
      <trkpt lat="44.7618220" lon="7.0729180">
        <ele>1969.0</ele>
        <time>2017-07-26T08:44:38Z</time>
      </trkpt>
      <trkpt lat="44.7618350" lon="7.0728570">
        <ele>1970.2</ele>
        <time>2017-07-26T08:44:40Z</time>
      </trkpt>
      <trkpt lat="44.7618420" lon="7.0727660">
        <ele>1971.2</ele>
        <time>2017-07-26T08:44:43Z</time>
      </trkpt>
      <trkpt lat="44.7618420" lon="7.0727380">
        <ele>1971.4</ele>
        <time>2017-07-26T08:44:44Z</time>
      </trkpt>
      <trkpt lat="44.7618610" lon="7.0725710">
        <ele>1972.4</ele>
        <time>2017-07-26T08:44:49Z</time>
      </trkpt>
      <trkpt lat="44.7618550" lon="7.0725040">
        <ele>1972.8</ele>
        <time>2017-07-26T08:44:51Z</time>
      </trkpt>
      <trkpt lat="44.7618580" lon="7.0724050">
        <ele>1973.8</ele>
        <time>2017-07-26T08:44:54Z</time>
      </trkpt>
      <trkpt lat="44.7618770" lon="7.0723010">
        <ele>1974.8</ele>
        <time>2017-07-26T08:44:57Z</time>
      </trkpt>
      <trkpt lat="44.7618860" lon="7.0722690">
        <ele>1975.2</ele>
        <time>2017-07-26T08:44:58Z</time>
      </trkpt>
      <trkpt lat="44.7619030" lon="7.0722020">
        <ele>1976.0</ele>
        <time>2017-07-26T08:45:00Z</time>
      </trkpt>
      <trkpt lat="44.7619400" lon="7.0721040">
        <ele>1977.0</ele>
        <time>2017-07-26T08:45:03Z</time>
      </trkpt>
      <trkpt lat="44.7619580" lon="7.0720420">
        <ele>1978.0</ele>
        <time>2017-07-26T08:45:05Z</time>
      </trkpt>
      <trkpt lat="44.7619660" lon="7.0720120">
        <ele>1978.2</ele>
        <time>2017-07-26T08:45:06Z</time>
      </trkpt>
      <trkpt lat="44.7620230" lon="7.0718960">
        <ele>1979.4</ele>
        <time>2017-07-26T08:45:10Z</time>
      </trkpt>
      <trkpt lat="44.7620500" lon="7.0718430">
        <ele>1979.8</ele>
        <time>2017-07-26T08:45:12Z</time>
      </trkpt>
      <trkpt lat="44.7620910" lon="7.0717600">
        <ele>1980.6</ele>
        <time>2017-07-26T08:45:15Z</time>
      </trkpt>
      <trkpt lat="44.7621470" lon="7.0716640">
        <ele>1981.4</ele>
        <time>2017-07-26T08:45:19Z</time>
      </trkpt>
      <trkpt lat="44.7621880" lon="7.0715960">
        <ele>1981.6</ele>
        <time>2017-07-26T08:45:22Z</time>
      </trkpt>
      <trkpt lat="44.7622400" lon="7.0715110">
        <ele>1982.2</ele>
        <time>2017-07-26T08:45:25Z</time>
      </trkpt>
      <trkpt lat="44.7622940" lon="7.0714160">
        <ele>1982.8</ele>
        <time>2017-07-26T08:45:29Z</time>
      </trkpt>
      <trkpt lat="44.7623270" lon="7.0713340">
        <ele>1983.6</ele>
        <time>2017-07-26T08:45:32Z</time>
      </trkpt>
      <trkpt lat="44.7623360" lon="7.0713040">
        <ele>1983.8</ele>
        <time>2017-07-26T08:45:33Z</time>
      </trkpt>
      <trkpt lat="44.7623580" lon="7.0711570">
        <ele>1985.0</ele>
        <time>2017-07-26T08:45:38Z</time>
      </trkpt>
      <trkpt lat="44.7623570" lon="7.0711240">
        <ele>1985.2</ele>
        <time>2017-07-26T08:45:39Z</time>
      </trkpt>
      <trkpt lat="44.7623530" lon="7.0710030">
        <ele>1986.0</ele>
        <time>2017-07-26T08:45:43Z</time>
      </trkpt>
      <trkpt lat="44.7623610" lon="7.0708700">
        <ele>1987.2</ele>
        <time>2017-07-26T08:45:47Z</time>
      </trkpt>
      <trkpt lat="44.7623620" lon="7.0707360">
        <ele>1988.2</ele>
        <time>2017-07-26T08:45:51Z</time>
      </trkpt>
      <trkpt lat="44.7623520" lon="7.0706720">
        <ele>1988.4</ele>
        <time>2017-07-26T08:45:53Z</time>
      </trkpt>
      <trkpt lat="44.7623070" lon="7.0704550">
        <ele>1989.0</ele>
        <time>2017-07-26T08:46:00Z</time>
      </trkpt>
      <trkpt lat="44.7622720" lon="7.0703540">
        <ele>1989.2</ele>
        <time>2017-07-26T08:46:04Z</time>
      </trkpt>
      <trkpt lat="44.7622580" lon="7.0703020">
        <ele>1989.6</ele>
        <time>2017-07-26T08:46:06Z</time>
      </trkpt>
      <trkpt lat="44.7622190" lon="7.0701490">
        <ele>1990.0</ele>
        <time>2017-07-26T08:46:12Z</time>
      </trkpt>
      <trkpt lat="44.7622130" lon="7.0700890">
        <ele>1990.4</ele>
        <time>2017-07-26T08:46:14Z</time>
      </trkpt>
      <trkpt lat="44.7622090" lon="7.0700340">
        <ele>1991.6</ele>
        <time>2017-07-26T08:46:16Z</time>
      </trkpt>
      <trkpt lat="44.7622050" lon="7.0699540">
        <ele>1992.2</ele>
        <time>2017-07-26T08:46:19Z</time>
      </trkpt>
      <trkpt lat="44.7622020" lon="7.0698920">
        <ele>1992.6</ele>
        <time>2017-07-26T08:46:21Z</time>
      </trkpt>
      <trkpt lat="44.7621880" lon="7.0697920">
        <ele>1993.2</ele>
        <time>2017-07-26T08:46:25Z</time>
      </trkpt>
      <trkpt lat="44.7621890" lon="7.0696820">
        <ele>1994.0</ele>
        <time>2017-07-26T08:46:30Z</time>
      </trkpt>
      <trkpt lat="44.7621940" lon="7.0696560">
        <ele>1994.6</ele>
        <time>2017-07-26T08:46:31Z</time>
      </trkpt>
      <trkpt lat="44.7621970" lon="7.0696320">
        <ele>1995.0</ele>
        <time>2017-07-26T08:46:32Z</time>
      </trkpt>
      <trkpt lat="44.7622170" lon="7.0695890">
        <ele>1996.0</ele>
        <time>2017-07-26T08:46:34Z</time>
      </trkpt>
      <trkpt lat="44.7622310" lon="7.0695740">
        <ele>1996.2</ele>
        <time>2017-07-26T08:46:35Z</time>
      </trkpt>
      <trkpt lat="44.7622480" lon="7.0695530">
        <ele>1996.6</ele>
        <time>2017-07-26T08:46:36Z</time>
      </trkpt>
      <trkpt lat="44.7622900" lon="7.0695230">
        <ele>1997.2</ele>
        <time>2017-07-26T08:46:39Z</time>
      </trkpt>
      <trkpt lat="44.7623370" lon="7.0694900">
        <ele>1998.0</ele>
        <time>2017-07-26T08:46:42Z</time>
      </trkpt>
      <trkpt lat="44.7623930" lon="7.0694700">
        <ele>1998.4</ele>
        <time>2017-07-26T08:46:45Z</time>
      </trkpt>
      <trkpt lat="44.7624980" lon="7.0694550">
        <ele>1998.8</ele>
        <time>2017-07-26T08:46:50Z</time>
      </trkpt>
      <trkpt lat="44.7626100" lon="7.0694490">
        <ele>1999.0</ele>
        <time>2017-07-26T08:46:56Z</time>
      </trkpt>
      <trkpt lat="44.7626380" lon="7.0694570">
        <ele>1999.0</ele>
        <time>2017-07-26T08:46:58Z</time>
      </trkpt>
      <trkpt lat="44.7626920" lon="7.0694670">
        <ele>1999.0</ele>
        <time>2017-07-26T08:47:01Z</time>
      </trkpt>
      <trkpt lat="44.7627630" lon="7.0694760">
        <ele>1999.4</ele>
        <time>2017-07-26T08:47:04Z</time>
      </trkpt>
      <trkpt lat="44.7628650" lon="7.0694740">
        <ele>2000.0</ele>
        <time>2017-07-26T08:47:09Z</time>
      </trkpt>
      <trkpt lat="44.7629350" lon="7.0694530">
        <ele>2000.4</ele>
        <time>2017-07-26T08:47:13Z</time>
      </trkpt>
      <trkpt lat="44.7630390" lon="7.0694370">
        <ele>2001.2</ele>
        <time>2017-07-26T08:47:18Z</time>
      </trkpt>
      <trkpt lat="44.7630570" lon="7.0694380">
        <ele>2001.4</ele>
        <time>2017-07-26T08:47:19Z</time>
      </trkpt>
      <trkpt lat="44.7631520" lon="7.0694400">
        <ele>2002.8</ele>
        <time>2017-07-26T08:47:24Z</time>
      </trkpt>
      <trkpt lat="44.7631950" lon="7.0694610">
        <ele>2003.6</ele>
        <time>2017-07-26T08:47:26Z</time>
      </trkpt>
      <trkpt lat="44.7632150" lon="7.0694700">
        <ele>2003.8</ele>
        <time>2017-07-26T08:47:27Z</time>
      </trkpt>
      <trkpt lat="44.7632780" lon="7.0694920">
        <ele>2005.0</ele>
        <time>2017-07-26T08:47:30Z</time>
      </trkpt>
      <trkpt lat="44.7633270" lon="7.0695110">
        <ele>2005.8</ele>
        <time>2017-07-26T08:47:32Z</time>
      </trkpt>
      <trkpt lat="44.7633500" lon="7.0695210">
        <ele>2006.0</ele>
        <time>2017-07-26T08:47:33Z</time>
      </trkpt>
      <trkpt lat="44.7634850" lon="7.0695730">
        <ele>2007.2</ele>
        <time>2017-07-26T08:47:38Z</time>
      </trkpt>
      <trkpt lat="44.7635810" lon="7.0696100">
        <ele>2007.6</ele>
        <time>2017-07-26T08:47:41Z</time>
      </trkpt>
      <trkpt lat="44.7637080" lon="7.0696680">
        <ele>2008.2</ele>
        <time>2017-07-26T08:47:46Z</time>
      </trkpt>
      <trkpt lat="44.7637670" lon="7.0696920">
        <ele>2008.4</ele>
        <time>2017-07-26T08:47:48Z</time>
      </trkpt>
      <trkpt lat="44.7638830" lon="7.0697320">
        <ele>2008.8</ele>
        <time>2017-07-26T08:47:52Z</time>
      </trkpt>
      <trkpt lat="44.7639720" lon="7.0697510">
        <ele>2009.4</ele>
        <time>2017-07-26T08:47:55Z</time>
      </trkpt>
      <trkpt lat="44.7640730" lon="7.0697810">
        <ele>2010.0</ele>
        <time>2017-07-26T08:47:59Z</time>
      </trkpt>
      <trkpt lat="44.7640970" lon="7.0697880">
        <ele>2010.4</ele>
        <time>2017-07-26T08:48:00Z</time>
      </trkpt>
      <trkpt lat="44.7641720" lon="7.0697920">
        <ele>2011.6</ele>
        <time>2017-07-26T08:48:03Z</time>
      </trkpt>
      <trkpt lat="44.7642210" lon="7.0697890">
        <ele>2012.8</ele>
        <time>2017-07-26T08:48:05Z</time>
      </trkpt>
      <trkpt lat="44.7642770" lon="7.0697740">
        <ele>2013.8</ele>
        <time>2017-07-26T08:48:07Z</time>
      </trkpt>
      <trkpt lat="44.7643090" lon="7.0697570">
        <ele>2014.2</ele>
        <time>2017-07-26T08:48:08Z</time>
      </trkpt>
      <trkpt lat="44.7643600" lon="7.0697160">
        <ele>2015.2</ele>
        <time>2017-07-26T08:48:10Z</time>
      </trkpt>
      <trkpt lat="44.7644340" lon="7.0696580">
        <ele>2016.6</ele>
        <time>2017-07-26T08:48:13Z</time>
      </trkpt>
      <trkpt lat="44.7644570" lon="7.0696490">
        <ele>2016.8</ele>
        <time>2017-07-26T08:48:14Z</time>
      </trkpt>
      <trkpt lat="44.7644990" lon="7.0696340">
        <ele>2018.2</ele>
        <time>2017-07-26T08:48:16Z</time>
      </trkpt>
      <trkpt lat="44.7645710" lon="7.0696030">
        <ele>2019.4</ele>
        <time>2017-07-26T08:48:19Z</time>
      </trkpt>
      <trkpt lat="44.7646170" lon="7.0695590">
        <ele>2020.0</ele>
        <time>2017-07-26T08:48:21Z</time>
      </trkpt>
      <trkpt lat="44.7646620" lon="7.0695250">
        <ele>2020.4</ele>
        <time>2017-07-26T08:48:23Z</time>
      </trkpt>
      <trkpt lat="44.7647400" lon="7.0694580">
        <ele>2021.6</ele>
        <time>2017-07-26T08:48:27Z</time>
      </trkpt>
      <trkpt lat="44.7648050" lon="7.0693850">
        <ele>2022.6</ele>
        <time>2017-07-26T08:48:31Z</time>
      </trkpt>
      <trkpt lat="44.7648510" lon="7.0693420">
        <ele>2023.2</ele>
        <time>2017-07-26T08:48:34Z</time>
      </trkpt>
      <trkpt lat="44.7648840" lon="7.0693200">
        <ele>2023.8</ele>
        <time>2017-07-26T08:48:36Z</time>
      </trkpt>
      <trkpt lat="44.7649640" lon="7.0692720">
        <ele>2025.2</ele>
        <time>2017-07-26T08:48:40Z</time>
      </trkpt>
      <trkpt lat="44.7649840" lon="7.0692570">
        <ele>2025.4</ele>
        <time>2017-07-26T08:48:41Z</time>
      </trkpt>
      <trkpt lat="44.7650350" lon="7.0692060">
        <ele>2026.6</ele>
        <time>2017-07-26T08:48:44Z</time>
      </trkpt>
      <trkpt lat="44.7650790" lon="7.0691530">
        <ele>2027.6</ele>
        <time>2017-07-26T08:48:47Z</time>
      </trkpt>
      <trkpt lat="44.7651000" lon="7.0691450">
        <ele>2028.0</ele>
        <time>2017-07-26T08:48:48Z</time>
      </trkpt>
      <trkpt lat="44.7652380" lon="7.0690670">
        <ele>2028.8</ele>
        <time>2017-07-26T08:48:54Z</time>
      </trkpt>
      <trkpt lat="44.7653170" lon="7.0689880">
        <ele>2029.8</ele>
        <time>2017-07-26T08:48:58Z</time>
      </trkpt>
      <trkpt lat="44.7653650" lon="7.0689480">
        <ele>2030.2</ele>
        <time>2017-07-26T08:49:00Z</time>
      </trkpt>
      <trkpt lat="44.7654410" lon="7.0689030">
        <ele>2031.0</ele>
        <time>2017-07-26T08:49:03Z</time>
      </trkpt>
      <trkpt lat="44.7655000" lon="7.0688340">
        <ele>2032.2</ele>
        <time>2017-07-26T08:49:06Z</time>
      </trkpt>
      <trkpt lat="44.7655540" lon="7.0687160">
        <ele>2033.4</ele>
        <time>2017-07-26T08:49:10Z</time>
      </trkpt>
      <trkpt lat="44.7655820" lon="7.0686510">
        <ele>2034.2</ele>
        <time>2017-07-26T08:49:12Z</time>
      </trkpt>
      <trkpt lat="44.7655950" lon="7.0686200">
        <ele>2034.6</ele>
        <time>2017-07-26T08:49:13Z</time>
      </trkpt>
      <trkpt lat="44.7656300" lon="7.0685130">
        <ele>2036.0</ele>
        <time>2017-07-26T08:49:16Z</time>
      </trkpt>
      <trkpt lat="44.7656480" lon="7.0684060">
        <ele>2037.4</ele>
        <time>2017-07-26T08:49:19Z</time>
      </trkpt>
      <trkpt lat="44.7656760" lon="7.0683130">
        <ele>2038.6</ele>
        <time>2017-07-26T08:49:22Z</time>
      </trkpt>
      <trkpt lat="44.7657040" lon="7.0682310">
        <ele>2040.2</ele>
        <time>2017-07-26T08:49:25Z</time>
      </trkpt>
      <trkpt lat="44.7657130" lon="7.0682020">
        <ele>2040.6</ele>
        <time>2017-07-26T08:49:26Z</time>
      </trkpt>
      <trkpt lat="44.7657200" lon="7.0681760">
        <ele>2041.2</ele>
        <time>2017-07-26T08:49:27Z</time>
      </trkpt>
      <trkpt lat="44.7657150" lon="7.0681540">
        <ele>2042.2</ele>
        <time>2017-07-26T08:49:28Z</time>
      </trkpt>
      <trkpt lat="44.7656970" lon="7.0680740">
        <ele>2043.4</ele>
        <time>2017-07-26T08:49:31Z</time>
      </trkpt>
      <trkpt lat="44.7656670" lon="7.0680190">
        <ele>2044.6</ele>
        <time>2017-07-26T08:49:33Z</time>
      </trkpt>
      <trkpt lat="44.7656240" lon="7.0679720">
        <ele>2045.8</ele>
        <time>2017-07-26T08:49:35Z</time>
      </trkpt>
      <trkpt lat="44.7655740" lon="7.0679130">
        <ele>2047.0</ele>
        <time>2017-07-26T08:49:37Z</time>
      </trkpt>
      <trkpt lat="44.7655240" lon="7.0678530">
        <ele>2048.0</ele>
        <time>2017-07-26T08:49:39Z</time>
      </trkpt>
      <trkpt lat="44.7654450" lon="7.0677730">
        <ele>2049.2</ele>
        <time>2017-07-26T08:49:42Z</time>
      </trkpt>
      <trkpt lat="44.7653330" lon="7.0677290">
        <ele>2050.0</ele>
        <time>2017-07-26T08:49:45Z</time>
      </trkpt>
      <trkpt lat="44.7650980" lon="7.0676610">
        <ele>2049.6</ele>
        <time>2017-07-26T08:49:51Z</time>
      </trkpt>
      <trkpt lat="44.7649760" lon="7.0674880">
        <ele>2048.4</ele>
        <time>2017-07-26T08:49:56Z</time>
      </trkpt>
      <trkpt lat="44.7649350" lon="7.0674110">
        <ele>2048.0</ele>
        <time>2017-07-26T08:49:58Z</time>
      </trkpt>
      <trkpt lat="44.7648360" lon="7.0671800">
        <ele>2047.0</ele>
        <time>2017-07-26T08:50:04Z</time>
      </trkpt>
      <trkpt lat="44.7648190" lon="7.0671440">
        <ele>2046.8</ele>
        <time>2017-07-26T08:50:05Z</time>
      </trkpt>
      <trkpt lat="44.7647430" lon="7.0669130">
        <ele>2047.0</ele>
        <time>2017-07-26T08:50:11Z</time>
      </trkpt>
      <trkpt lat="44.7646780" lon="7.0666040">
        <ele>2047.4</ele>
        <time>2017-07-26T08:50:18Z</time>
      </trkpt>
      <trkpt lat="44.7646970" lon="7.0665160">
        <ele>2048.2</ele>
        <time>2017-07-26T08:50:20Z</time>
      </trkpt>
      <trkpt lat="44.7647360" lon="7.0663940">
        <ele>2049.4</ele>
        <time>2017-07-26T08:50:23Z</time>
      </trkpt>
      <trkpt lat="44.7647720" lon="7.0662720">
        <ele>2050.8</ele>
        <time>2017-07-26T08:50:26Z</time>
      </trkpt>
      <trkpt lat="44.7648090" lon="7.0661500">
        <ele>2052.2</ele>
        <time>2017-07-26T08:50:29Z</time>
      </trkpt>
      <trkpt lat="44.7648190" lon="7.0661140">
        <ele>2052.6</ele>
        <time>2017-07-26T08:50:30Z</time>
      </trkpt>
      <trkpt lat="44.7648450" lon="7.0660380">
        <ele>2053.4</ele>
        <time>2017-07-26T08:50:32Z</time>
      </trkpt>
      <trkpt lat="44.7648730" lon="7.0659200">
        <ele>2054.6</ele>
        <time>2017-07-26T08:50:35Z</time>
      </trkpt>
      <trkpt lat="44.7648950" lon="7.0658450">
        <ele>2055.0</ele>
        <time>2017-07-26T08:50:37Z</time>
      </trkpt>
      <trkpt lat="44.7649300" lon="7.0657230">
        <ele>2055.8</ele>
        <time>2017-07-26T08:50:40Z</time>
      </trkpt>
      <trkpt lat="44.7649730" lon="7.0655710">
        <ele>2056.8</ele>
        <time>2017-07-26T08:50:44Z</time>
      </trkpt>
      <trkpt lat="44.7649900" lon="7.0655380">
        <ele>2057.0</ele>
        <time>2017-07-26T08:50:45Z</time>
      </trkpt>
      <trkpt lat="44.7650340" lon="7.0654240">
        <ele>2058.0</ele>
        <time>2017-07-26T08:50:48Z</time>
      </trkpt>
      <trkpt lat="44.7650870" lon="7.0652860">
        <ele>2058.8</ele>
        <time>2017-07-26T08:50:52Z</time>
      </trkpt>
      <trkpt lat="44.7651050" lon="7.0652570">
        <ele>2059.0</ele>
        <time>2017-07-26T08:50:53Z</time>
      </trkpt>
      <trkpt lat="44.7652180" lon="7.0651250">
        <ele>2059.6</ele>
        <time>2017-07-26T08:50:58Z</time>
      </trkpt>
      <trkpt lat="44.7653760" lon="7.0650750">
        <ele>2058.8</ele>
        <time>2017-07-26T08:51:04Z</time>
      </trkpt>
      <trkpt lat="44.7655480" lon="7.0650240">
        <ele>2058.6</ele>
        <time>2017-07-26T08:51:10Z</time>
      </trkpt>
      <trkpt lat="44.7656730" lon="7.0649410">
        <ele>2058.8</ele>
        <time>2017-07-26T08:51:16Z</time>
      </trkpt>
      <trkpt lat="44.7658080" lon="7.0648750">
        <ele>2059.4</ele>
        <time>2017-07-26T08:51:23Z</time>
      </trkpt>
      <trkpt lat="44.7659460" lon="7.0647990">
        <ele>2059.8</ele>
        <time>2017-07-26T08:51:30Z</time>
      </trkpt>
      <trkpt lat="44.7659810" lon="7.0647710">
        <ele>2060.0</ele>
        <time>2017-07-26T08:51:32Z</time>
      </trkpt>
      <trkpt lat="44.7660450" lon="7.0647320">
        <ele>2060.8</ele>
        <time>2017-07-26T08:51:36Z</time>
      </trkpt>
      <trkpt lat="44.7660570" lon="7.0647140">
        <ele>2061.2</ele>
        <time>2017-07-26T08:51:37Z</time>
      </trkpt>
      <trkpt lat="44.7661030" lon="7.0646810">
        <ele>2062.2</ele>
        <time>2017-07-26T08:51:40Z</time>
      </trkpt>
      <trkpt lat="44.7661190" lon="7.0646720">
        <ele>2062.4</ele>
        <time>2017-07-26T08:51:41Z</time>
      </trkpt>
      <trkpt lat="44.7661640" lon="7.0646440">
        <ele>2063.2</ele>
        <time>2017-07-26T08:51:44Z</time>
      </trkpt>
      <trkpt lat="44.7662110" lon="7.0646130">
        <ele>2064.2</ele>
        <time>2017-07-26T08:51:47Z</time>
      </trkpt>
      <trkpt lat="44.7662260" lon="7.0645980">
        <ele>2064.4</ele>
        <time>2017-07-26T08:51:48Z</time>
      </trkpt>
      <trkpt lat="44.7662580" lon="7.0645840">
        <ele>2065.6</ele>
        <time>2017-07-26T08:51:51Z</time>
      </trkpt>
      <trkpt lat="44.7662910" lon="7.0645780">
        <ele>2066.2</ele>
        <time>2017-07-26T08:51:53Z</time>
      </trkpt>
      <trkpt lat="44.7663110" lon="7.0645780">
        <ele>2066.6</ele>
        <time>2017-07-26T08:51:54Z</time>
      </trkpt>
      <trkpt lat="44.7663660" lon="7.0645730">
        <ele>2067.6</ele>
        <time>2017-07-26T08:51:57Z</time>
      </trkpt>
      <trkpt lat="44.7664190" lon="7.0645810">
        <ele>2069.2</ele>
        <time>2017-07-26T08:52:00Z</time>
      </trkpt>
      <trkpt lat="44.7664740" lon="7.0646090">
        <ele>2070.2</ele>
        <time>2017-07-26T08:52:03Z</time>
      </trkpt>
      <trkpt lat="44.7665090" lon="7.0646170">
        <ele>2071.2</ele>
        <time>2017-07-26T08:52:05Z</time>
      </trkpt>
      <trkpt lat="44.7665290" lon="7.0646110">
        <ele>2071.8</ele>
        <time>2017-07-26T08:52:06Z</time>
      </trkpt>
      <trkpt lat="44.7665840" lon="7.0646170">
        <ele>2072.8</ele>
        <time>2017-07-26T08:52:09Z</time>
      </trkpt>
      <trkpt lat="44.7665980" lon="7.0646310">
        <ele>2073.2</ele>
        <time>2017-07-26T08:52:10Z</time>
      </trkpt>
      <trkpt lat="44.7666320" lon="7.0646690">
        <ele>2074.0</ele>
        <time>2017-07-26T08:52:12Z</time>
      </trkpt>
      <trkpt lat="44.7666700" lon="7.0647810">
        <ele>2075.0</ele>
        <time>2017-07-26T08:52:16Z</time>
      </trkpt>
      <trkpt lat="44.7667050" lon="7.0649800">
        <ele>2075.8</ele>
        <time>2017-07-26T08:52:22Z</time>
      </trkpt>
      <trkpt lat="44.7667350" lon="7.0650970">
        <ele>2076.4</ele>
        <time>2017-07-26T08:52:26Z</time>
      </trkpt>
      <trkpt lat="44.7667640" lon="7.0651650">
        <ele>2076.8</ele>
        <time>2017-07-26T08:52:29Z</time>
      </trkpt>
      <trkpt lat="44.7667910" lon="7.0652280">
        <ele>2077.4</ele>
        <time>2017-07-26T08:52:32Z</time>
      </trkpt>
      <trkpt lat="44.7668220" lon="7.0652940">
        <ele>2078.4</ele>
        <time>2017-07-26T08:52:35Z</time>
      </trkpt>
      <trkpt lat="44.7668310" lon="7.0653170">
        <ele>2078.6</ele>
        <time>2017-07-26T08:52:36Z</time>
      </trkpt>
      <trkpt lat="44.7668960" lon="7.0654160">
        <ele>2079.8</ele>
        <time>2017-07-26T08:52:41Z</time>
      </trkpt>
      <trkpt lat="44.7669330" lon="7.0654400">
        <ele>2080.4</ele>
        <time>2017-07-26T08:52:43Z</time>
      </trkpt>
      <trkpt lat="44.7669650" lon="7.0654640">
        <ele>2081.0</ele>
        <time>2017-07-26T08:52:45Z</time>
      </trkpt>
      <trkpt lat="44.7670560" lon="7.0655200">
        <ele>2082.2</ele>
        <time>2017-07-26T08:52:50Z</time>
      </trkpt>
      <trkpt lat="44.7671390" lon="7.0655810">
        <ele>2083.4</ele>
        <time>2017-07-26T08:52:55Z</time>
      </trkpt>
      <trkpt lat="44.7671900" lon="7.0656150">
        <ele>2084.2</ele>
        <time>2017-07-26T08:52:58Z</time>
      </trkpt>
      <trkpt lat="44.7672410" lon="7.0656590">
        <ele>2084.6</ele>
        <time>2017-07-26T08:53:01Z</time>
      </trkpt>
      <trkpt lat="44.7672990" lon="7.0657140">
        <ele>2085.6</ele>
        <time>2017-07-26T08:53:05Z</time>
      </trkpt>
      <trkpt lat="44.7673160" lon="7.0657240">
        <ele>2085.8</ele>
        <time>2017-07-26T08:53:06Z</time>
      </trkpt>
      <trkpt lat="44.7673970" lon="7.0657840">
        <ele>2086.8</ele>
        <time>2017-07-26T08:53:11Z</time>
      </trkpt>
      <trkpt lat="44.7674400" lon="7.0658080">
        <ele>2087.2</ele>
        <time>2017-07-26T08:53:13Z</time>
      </trkpt>
      <trkpt lat="44.7674850" lon="7.0658520">
        <ele>2087.8</ele>
        <time>2017-07-26T08:53:16Z</time>
      </trkpt>
      <trkpt lat="44.7675140" lon="7.0658770">
        <ele>2088.2</ele>
        <time>2017-07-26T08:53:18Z</time>
      </trkpt>
      <trkpt lat="44.7675810" lon="7.0659170">
        <ele>2089.0</ele>
        <time>2017-07-26T08:53:22Z</time>
      </trkpt>
      <trkpt lat="44.7676340" lon="7.0659480">
        <ele>2089.6</ele>
        <time>2017-07-26T08:53:25Z</time>
      </trkpt>
      <trkpt lat="44.7676720" lon="7.0659640">
        <ele>2090.0</ele>
        <time>2017-07-26T08:53:27Z</time>
      </trkpt>
      <trkpt lat="44.7677250" lon="7.0659870">
        <ele>2091.2</ele>
        <time>2017-07-26T08:53:30Z</time>
      </trkpt>
      <trkpt lat="44.7677760" lon="7.0659920">
        <ele>2092.2</ele>
        <time>2017-07-26T08:53:33Z</time>
      </trkpt>
      <trkpt lat="44.7677910" lon="7.0659900">
        <ele>2092.4</ele>
        <time>2017-07-26T08:53:34Z</time>
      </trkpt>
      <trkpt lat="44.7678360" lon="7.0660080">
        <ele>2093.6</ele>
        <time>2017-07-26T08:53:37Z</time>
      </trkpt>
      <trkpt lat="44.7678620" lon="7.0660140">
        <ele>2094.4</ele>
        <time>2017-07-26T08:53:39Z</time>
      </trkpt>
      <trkpt lat="44.7678800" lon="7.0660120">
        <ele>2094.8</ele>
        <time>2017-07-26T08:53:40Z</time>
      </trkpt>
      <trkpt lat="44.7679350" lon="7.0660030">
        <ele>2095.8</ele>
        <time>2017-07-26T08:53:43Z</time>
      </trkpt>
      <trkpt lat="44.7679850" lon="7.0660080">
        <ele>2096.8</ele>
        <time>2017-07-26T08:53:46Z</time>
      </trkpt>
      <trkpt lat="44.7680020" lon="7.0660080">
        <ele>2097.0</ele>
        <time>2017-07-26T08:53:47Z</time>
      </trkpt>
      <trkpt lat="44.7680590" lon="7.0660250">
        <ele>2098.0</ele>
        <time>2017-07-26T08:53:51Z</time>
      </trkpt>
      <trkpt lat="44.7680890" lon="7.0660240">
        <ele>2099.0</ele>
        <time>2017-07-26T08:53:53Z</time>
      </trkpt>
      <trkpt lat="44.7681030" lon="7.0660290">
        <ele>2099.2</ele>
        <time>2017-07-26T08:53:54Z</time>
      </trkpt>
      <trkpt lat="44.7681670" lon="7.0660370">
        <ele>2100.2</ele>
        <time>2017-07-26T08:53:58Z</time>
      </trkpt>
      <trkpt lat="44.7682030" lon="7.0660390">
        <ele>2100.8</ele>
        <time>2017-07-26T08:54:00Z</time>
      </trkpt>
      <trkpt lat="44.7682590" lon="7.0660590">
        <ele>2101.4</ele>
        <time>2017-07-26T08:54:03Z</time>
      </trkpt>
      <trkpt lat="44.7683000" lon="7.0660700">
        <ele>2102.2</ele>
        <time>2017-07-26T08:54:06Z</time>
      </trkpt>
      <trkpt lat="44.7683160" lon="7.0660680">
        <ele>2102.4</ele>
        <time>2017-07-26T08:54:07Z</time>
      </trkpt>
      <trkpt lat="44.7683710" lon="7.0660920">
        <ele>2103.2</ele>
        <time>2017-07-26T08:54:12Z</time>
      </trkpt>
      <trkpt lat="44.7683890" lon="7.0660980">
        <ele>2103.4</ele>
        <time>2017-07-26T08:54:13Z</time>
      </trkpt>
      <trkpt lat="44.7684550" lon="7.0661250">
        <ele>2104.4</ele>
        <time>2017-07-26T08:54:17Z</time>
      </trkpt>
      <trkpt lat="44.7684710" lon="7.0661360">
        <ele>2104.6</ele>
        <time>2017-07-26T08:54:18Z</time>
      </trkpt>
      <trkpt lat="44.7685710" lon="7.0662100">
        <ele>2105.8</ele>
        <time>2017-07-26T08:54:24Z</time>
      </trkpt>
      <trkpt lat="44.7685870" lon="7.0662240">
        <ele>2106.0</ele>
        <time>2017-07-26T08:54:25Z</time>
      </trkpt>
      <trkpt lat="44.7686690" lon="7.0662710">
        <ele>2106.8</ele>
        <time>2017-07-26T08:54:30Z</time>
      </trkpt>
      <trkpt lat="44.7686970" lon="7.0662980">
        <ele>2107.2</ele>
        <time>2017-07-26T08:54:32Z</time>
      </trkpt>
      <trkpt lat="44.7687530" lon="7.0663650">
        <ele>2107.8</ele>
        <time>2017-07-26T08:54:36Z</time>
      </trkpt>
      <trkpt lat="44.7687660" lon="7.0663760">
        <ele>2108.0</ele>
        <time>2017-07-26T08:54:37Z</time>
      </trkpt>
      <trkpt lat="44.7687750" lon="7.0663960">
        <ele>2108.0</ele>
        <time>2017-07-26T08:54:38Z</time>
      </trkpt>
      <trkpt lat="44.7688370" lon="7.0665270">
        <ele>2109.2</ele>
        <time>2017-07-26T08:54:44Z</time>
      </trkpt>
      <trkpt lat="44.7688470" lon="7.0665700">
        <ele>2110.4</ele>
        <time>2017-07-26T08:54:46Z</time>
      </trkpt>
      <trkpt lat="44.7688610" lon="7.0665850">
        <ele>2110.6</ele>
        <time>2017-07-26T08:54:47Z</time>
      </trkpt>
      <trkpt lat="44.7688800" lon="7.0666530">
        <ele>2111.2</ele>
        <time>2017-07-26T08:54:50Z</time>
      </trkpt>
      <trkpt lat="44.7688860" lon="7.0666770">
        <ele>2111.4</ele>
        <time>2017-07-26T08:54:51Z</time>
      </trkpt>
      <trkpt lat="44.7689100" lon="7.0667350">
        <ele>2112.6</ele>
        <time>2017-07-26T08:54:54Z</time>
      </trkpt>
      <trkpt lat="44.7689310" lon="7.0667760">
        <ele>2113.0</ele>
        <time>2017-07-26T08:54:56Z</time>
      </trkpt>
      <trkpt lat="44.7689600" lon="7.0668420">
        <ele>2113.8</ele>
        <time>2017-07-26T08:54:59Z</time>
      </trkpt>
      <trkpt lat="44.7689920" lon="7.0669080">
        <ele>2115.0</ele>
        <time>2017-07-26T08:55:02Z</time>
      </trkpt>
      <trkpt lat="44.7690130" lon="7.0669800">
        <ele>2116.4</ele>
        <time>2017-07-26T08:55:05Z</time>
      </trkpt>
      <trkpt lat="44.7690270" lon="7.0669930">
        <ele>2117.0</ele>
        <time>2017-07-26T08:55:06Z</time>
      </trkpt>
      <trkpt lat="44.7690400" lon="7.0670320">
        <ele>2117.8</ele>
        <time>2017-07-26T08:55:08Z</time>
      </trkpt>
      <trkpt lat="44.7690610" lon="7.0670640">
        <ele>2118.6</ele>
        <time>2017-07-26T08:55:10Z</time>
      </trkpt>
      <trkpt lat="44.7690760" lon="7.0670820">
        <ele>2119.0</ele>
        <time>2017-07-26T08:55:11Z</time>
      </trkpt>
      <trkpt lat="44.7691000" lon="7.0670930">
        <ele>2119.8</ele>
        <time>2017-07-26T08:55:13Z</time>
      </trkpt>
      <trkpt lat="44.7691160" lon="7.0670910">
        <ele>2120.0</ele>
        <time>2017-07-26T08:55:14Z</time>
      </trkpt>
      <trkpt lat="44.7691280" lon="7.0670720">
        <ele>2120.6</ele>
        <time>2017-07-26T08:55:15Z</time>
      </trkpt>
      <trkpt lat="44.7691430" lon="7.0670320">
        <ele>2121.4</ele>
        <time>2017-07-26T08:55:17Z</time>
      </trkpt>
      <trkpt lat="44.7691450" lon="7.0669940">
        <ele>2122.8</ele>
        <time>2017-07-26T08:55:19Z</time>
      </trkpt>
      <trkpt lat="44.7691410" lon="7.0669510">
        <ele>2123.8</ele>
        <time>2017-07-26T08:55:21Z</time>
      </trkpt>
      <trkpt lat="44.7691160" lon="7.0668870">
        <ele>2125.0</ele>
        <time>2017-07-26T08:55:24Z</time>
      </trkpt>
      <trkpt lat="44.7690790" lon="7.0668340">
        <ele>2125.8</ele>
        <time>2017-07-26T08:55:27Z</time>
      </trkpt>
      <trkpt lat="44.7690650" lon="7.0668140">
        <ele>2126.2</ele>
        <time>2017-07-26T08:55:28Z</time>
      </trkpt>
      <trkpt lat="44.7690260" lon="7.0666760">
        <ele>2127.4</ele>
        <time>2017-07-26T08:55:34Z</time>
      </trkpt>
      <trkpt lat="44.7690340" lon="7.0666520">
        <ele>2127.8</ele>
        <time>2017-07-26T08:55:35Z</time>
      </trkpt>
      <trkpt lat="44.7690320" lon="7.0666060">
        <ele>2128.4</ele>
        <time>2017-07-26T08:55:37Z</time>
      </trkpt>
      <trkpt lat="44.7690320" lon="7.0665590">
        <ele>2128.8</ele>
        <time>2017-07-26T08:55:39Z</time>
      </trkpt>
      <trkpt lat="44.7690200" lon="7.0664710">
        <ele>2129.4</ele>
        <time>2017-07-26T08:55:43Z</time>
      </trkpt>
      <trkpt lat="44.7690120" lon="7.0663760">
        <ele>2129.8</ele>
        <time>2017-07-26T08:55:47Z</time>
      </trkpt>
      <trkpt lat="44.7689890" lon="7.0662740">
        <ele>2130.6</ele>
        <time>2017-07-26T08:55:51Z</time>
      </trkpt>
      <trkpt lat="44.7689740" lon="7.0661960">
        <ele>2131.4</ele>
        <time>2017-07-26T08:55:54Z</time>
      </trkpt>
      <trkpt lat="44.7689660" lon="7.0661700">
        <ele>2131.6</ele>
        <time>2017-07-26T08:55:55Z</time>
      </trkpt>
      <trkpt lat="44.7689420" lon="7.0660880">
        <ele>2132.8</ele>
        <time>2017-07-26T08:55:58Z</time>
      </trkpt>
      <trkpt lat="44.7689220" lon="7.0660410">
        <ele>2133.8</ele>
        <time>2017-07-26T08:56:00Z</time>
      </trkpt>
      <trkpt lat="44.7689080" lon="7.0660150">
        <ele>2134.2</ele>
        <time>2017-07-26T08:56:01Z</time>
      </trkpt>
      <trkpt lat="44.7688720" lon="7.0659510">
        <ele>2135.0</ele>
        <time>2017-07-26T08:56:04Z</time>
      </trkpt>
      <trkpt lat="44.7688150" lon="7.0658540">
        <ele>2135.4</ele>
        <time>2017-07-26T08:56:09Z</time>
      </trkpt>
      <trkpt lat="44.7687380" lon="7.0657080">
        <ele>2135.6</ele>
        <time>2017-07-26T08:56:17Z</time>
      </trkpt>
      <trkpt lat="44.7686740" lon="7.0656120">
        <ele>2136.0</ele>
        <time>2017-07-26T08:56:22Z</time>
      </trkpt>
      <trkpt lat="44.7686380" lon="7.0655700">
        <ele>2135.8</ele>
        <time>2017-07-26T08:56:25Z</time>
      </trkpt>
      <trkpt lat="44.7685610" lon="7.0654470">
        <ele>2136.2</ele>
        <time>2017-07-26T08:56:32Z</time>
      </trkpt>
      <trkpt lat="44.7685120" lon="7.0653720">
        <ele>2137.0</ele>
        <time>2017-07-26T08:56:36Z</time>
      </trkpt>
      <trkpt lat="44.7684690" lon="7.0653280">
        <ele>2137.8</ele>
        <time>2017-07-26T08:56:39Z</time>
      </trkpt>
      <trkpt lat="44.7684570" lon="7.0653150">
        <ele>2138.2</ele>
        <time>2017-07-26T08:56:40Z</time>
      </trkpt>
      <trkpt lat="44.7683950" lon="7.0652400">
        <ele>2139.2</ele>
        <time>2017-07-26T08:56:44Z</time>
      </trkpt>
      <trkpt lat="44.7683590" lon="7.0652090">
        <ele>2140.0</ele>
        <time>2017-07-26T08:56:46Z</time>
      </trkpt>
      <trkpt lat="44.7683200" lon="7.0651700">
        <ele>2140.6</ele>
        <time>2017-07-26T08:56:48Z</time>
      </trkpt>
      <trkpt lat="44.7682690" lon="7.0651040">
        <ele>2141.6</ele>
        <time>2017-07-26T08:56:51Z</time>
      </trkpt>
      <trkpt lat="44.7682210" lon="7.0650660">
        <ele>2143.0</ele>
        <time>2017-07-26T08:56:54Z</time>
      </trkpt>
      <trkpt lat="44.7681650" lon="7.0650190">
        <ele>2144.2</ele>
        <time>2017-07-26T08:56:57Z</time>
      </trkpt>
      <trkpt lat="44.7681380" lon="7.0649740">
        <ele>2145.6</ele>
        <time>2017-07-26T08:56:59Z</time>
      </trkpt>
      <trkpt lat="44.7680980" lon="7.0648950">
        <ele>2146.8</ele>
        <time>2017-07-26T08:57:02Z</time>
      </trkpt>
      <trkpt lat="44.7680700" lon="7.0648390">
        <ele>2148.2</ele>
        <time>2017-07-26T08:57:05Z</time>
      </trkpt>
      <trkpt lat="44.7680360" lon="7.0647570">
        <ele>2149.0</ele>
        <time>2017-07-26T08:57:09Z</time>
      </trkpt>
      <trkpt lat="44.7680320" lon="7.0647340">
        <ele>2149.2</ele>
        <time>2017-07-26T08:57:10Z</time>
      </trkpt>
      <trkpt lat="44.7679890" lon="7.0646090">
        <ele>2149.8</ele>
        <time>2017-07-26T08:57:16Z</time>
      </trkpt>
      <trkpt lat="44.7679890" lon="7.0645640">
        <ele>2150.2</ele>
        <time>2017-07-26T08:57:18Z</time>
      </trkpt>
      <trkpt lat="44.7679930" lon="7.0644780">
        <ele>2151.2</ele>
        <time>2017-07-26T08:57:22Z</time>
      </trkpt>
      <trkpt lat="44.7679940" lon="7.0644560">
        <ele>2151.8</ele>
        <time>2017-07-26T08:57:23Z</time>
      </trkpt>
      <trkpt lat="44.7679920" lon="7.0644130">
        <ele>2152.6</ele>
        <time>2017-07-26T08:57:25Z</time>
      </trkpt>
      <trkpt lat="44.7679930" lon="7.0643420">
        <ele>2154.2</ele>
        <time>2017-07-26T08:57:28Z</time>
      </trkpt>
      <trkpt lat="44.7679960" lon="7.0643010">
        <ele>2154.8</ele>
        <time>2017-07-26T08:57:30Z</time>
      </trkpt>
      <trkpt lat="44.7679980" lon="7.0642780">
        <ele>2155.4</ele>
        <time>2017-07-26T08:57:31Z</time>
      </trkpt>
      <trkpt lat="44.7680080" lon="7.0642060">
        <ele>2156.6</ele>
        <time>2017-07-26T08:57:34Z</time>
      </trkpt>
      <trkpt lat="44.7680160" lon="7.0641410">
        <ele>2158.0</ele>
        <time>2017-07-26T08:57:37Z</time>
      </trkpt>
      <trkpt lat="44.7680190" lon="7.0641140">
        <ele>2158.4</ele>
        <time>2017-07-26T08:57:38Z</time>
      </trkpt>
      <trkpt lat="44.7680220" lon="7.0640730">
        <ele>2159.0</ele>
        <time>2017-07-26T08:57:40Z</time>
      </trkpt>
      <trkpt lat="44.7680390" lon="7.0639790">
        <ele>2160.2</ele>
        <time>2017-07-26T08:57:44Z</time>
      </trkpt>
      <trkpt lat="44.7680490" lon="7.0639100">
        <ele>2161.4</ele>
        <time>2017-07-26T08:57:47Z</time>
      </trkpt>
      <trkpt lat="44.7680680" lon="7.0638470">
        <ele>2162.2</ele>
        <time>2017-07-26T08:57:50Z</time>
      </trkpt>
      <trkpt lat="44.7680740" lon="7.0638260">
        <ele>2162.4</ele>
        <time>2017-07-26T08:57:51Z</time>
      </trkpt>
      <trkpt lat="44.7680800" lon="7.0638060">
        <ele>2162.8</ele>
        <time>2017-07-26T08:57:52Z</time>
      </trkpt>
      <trkpt lat="44.7681000" lon="7.0637370">
        <ele>2163.8</ele>
        <time>2017-07-26T08:57:55Z</time>
      </trkpt>
      <trkpt lat="44.7681100" lon="7.0636270">
        <ele>2164.4</ele>
        <time>2017-07-26T08:57:59Z</time>
      </trkpt>
      <trkpt lat="44.7681160" lon="7.0634030">
        <ele>2164.2</ele>
        <time>2017-07-26T08:58:07Z</time>
      </trkpt>
      <trkpt lat="44.7681320" lon="7.0633070">
        <ele>2164.8</ele>
        <time>2017-07-26T08:58:11Z</time>
      </trkpt>
      <trkpt lat="44.7681410" lon="7.0633060">
        <ele>2164.8</ele>
        <time>2017-07-26T08:58:12Z</time>
      </trkpt>
      <trkpt lat="44.7681500" lon="7.0633200">
        <ele>2165.2</ele>
        <time>2017-07-26T08:58:13Z</time>
      </trkpt>
      <trkpt lat="44.7681890" lon="7.0634130">
        <ele>2165.6</ele>
        <time>2017-07-26T08:58:17Z</time>
      </trkpt>
      <trkpt lat="44.7682030" lon="7.0634920">
        <ele>2166.0</ele>
        <time>2017-07-26T08:58:20Z</time>
      </trkpt>
      <trkpt lat="44.7682320" lon="7.0636070">
        <ele>2166.4</ele>
        <time>2017-07-26T08:58:24Z</time>
      </trkpt>
      <trkpt lat="44.7682210" lon="7.0637640">
        <ele>2167.0</ele>
        <time>2017-07-26T08:58:30Z</time>
      </trkpt>
      <trkpt lat="44.7682180" lon="7.0637900">
        <ele>2167.2</ele>
        <time>2017-07-26T08:58:31Z</time>
      </trkpt>
      <trkpt lat="44.7682030" lon="7.0639550">
        <ele>2168.0</ele>
        <time>2017-07-26T08:58:37Z</time>
      </trkpt>
      <trkpt lat="44.7682080" lon="7.0639860">
        <ele>2168.2</ele>
        <time>2017-07-26T08:58:38Z</time>
      </trkpt>
      <trkpt lat="44.7682230" lon="7.0641060">
        <ele>2169.4</ele>
        <time>2017-07-26T08:58:42Z</time>
      </trkpt>
      <trkpt lat="44.7682250" lon="7.0641570">
        <ele>2169.8</ele>
        <time>2017-07-26T08:58:44Z</time>
      </trkpt>
      <trkpt lat="44.7682590" lon="7.0642400">
        <ele>2170.4</ele>
        <time>2017-07-26T08:58:48Z</time>
      </trkpt>
      <trkpt lat="44.7683190" lon="7.0642900">
        <ele>2171.2</ele>
        <time>2017-07-26T08:58:52Z</time>
      </trkpt>
      <trkpt lat="44.7683460" lon="7.0643120">
        <ele>2171.4</ele>
        <time>2017-07-26T08:58:54Z</time>
      </trkpt>
      <trkpt lat="44.7684220" lon="7.0643480">
        <ele>2172.4</ele>
        <time>2017-07-26T08:58:59Z</time>
      </trkpt>
      <trkpt lat="44.7685070" lon="7.0644250">
        <ele>2173.8</ele>
        <time>2017-07-26T08:59:05Z</time>
      </trkpt>
      <trkpt lat="44.7685200" lon="7.0644390">
        <ele>2174.0</ele>
        <time>2017-07-26T08:59:06Z</time>
      </trkpt>
      <trkpt lat="44.7685640" lon="7.0644800">
        <ele>2174.8</ele>
        <time>2017-07-26T08:59:09Z</time>
      </trkpt>
      <trkpt lat="44.7686240" lon="7.0645340">
        <ele>2175.6</ele>
        <time>2017-07-26T08:59:13Z</time>
      </trkpt>
      <trkpt lat="44.7686740" lon="7.0645620">
        <ele>2176.0</ele>
        <time>2017-07-26T08:59:16Z</time>
      </trkpt>
      <trkpt lat="44.7687600" lon="7.0646230">
        <ele>2177.2</ele>
        <time>2017-07-26T08:59:21Z</time>
      </trkpt>
      <trkpt lat="44.7688410" lon="7.0646780">
        <ele>2178.4</ele>
        <time>2017-07-26T08:59:26Z</time>
      </trkpt>
      <trkpt lat="44.7688580" lon="7.0646890">
        <ele>2178.8</ele>
        <time>2017-07-26T08:59:27Z</time>
      </trkpt>
      <trkpt lat="44.7688930" lon="7.0647140">
        <ele>2179.8</ele>
        <time>2017-07-26T08:59:29Z</time>
      </trkpt>
      <trkpt lat="44.7689780" lon="7.0647770">
        <ele>2181.0</ele>
        <time>2017-07-26T08:59:34Z</time>
      </trkpt>
      <trkpt lat="44.7690100" lon="7.0647930">
        <ele>2181.6</ele>
        <time>2017-07-26T08:59:36Z</time>
      </trkpt>
      <trkpt lat="44.7690400" lon="7.0648040">
        <ele>2182.2</ele>
        <time>2017-07-26T08:59:38Z</time>
      </trkpt>
      <trkpt lat="44.7690990" lon="7.0648290">
        <ele>2183.2</ele>
        <time>2017-07-26T08:59:42Z</time>
      </trkpt>
      <trkpt lat="44.7691270" lon="7.0648470">
        <ele>2184.0</ele>
        <time>2017-07-26T08:59:44Z</time>
      </trkpt>
      <trkpt lat="44.7691420" lon="7.0648580">
        <ele>2184.4</ele>
        <time>2017-07-26T08:59:45Z</time>
      </trkpt>
      <trkpt lat="44.7691980" lon="7.0648930">
        <ele>2185.6</ele>
        <time>2017-07-26T08:59:49Z</time>
      </trkpt>
      <trkpt lat="44.7692550" lon="7.0649380">
        <ele>2187.0</ele>
        <time>2017-07-26T08:59:53Z</time>
      </trkpt>
      <trkpt lat="44.7693140" lon="7.0649810">
        <ele>2188.0</ele>
        <time>2017-07-26T08:59:57Z</time>
      </trkpt>
      <trkpt lat="44.7693930" lon="7.0650320">
        <ele>2188.8</ele>
        <time>2017-07-26T09:00:02Z</time>
      </trkpt>
      <trkpt lat="44.7694280" lon="7.0650590">
        <ele>2189.2</ele>
        <time>2017-07-26T09:00:04Z</time>
      </trkpt>
      <trkpt lat="44.7695180" lon="7.0651350">
        <ele>2190.2</ele>
        <time>2017-07-26T09:00:10Z</time>
      </trkpt>
      <trkpt lat="44.7695330" lon="7.0651460">
        <ele>2190.4</ele>
        <time>2017-07-26T09:00:11Z</time>
      </trkpt>
      <trkpt lat="44.7696150" lon="7.0652280">
        <ele>2191.6</ele>
        <time>2017-07-26T09:00:17Z</time>
      </trkpt>
      <trkpt lat="44.7696270" lon="7.0652430">
        <ele>2191.8</ele>
        <time>2017-07-26T09:00:18Z</time>
      </trkpt>
      <trkpt lat="44.7696770" lon="7.0653080">
        <ele>2192.6</ele>
        <time>2017-07-26T09:00:22Z</time>
      </trkpt>
      <trkpt lat="44.7697260" lon="7.0653960">
        <ele>2194.0</ele>
        <time>2017-07-26T09:00:27Z</time>
      </trkpt>
      <trkpt lat="44.7697380" lon="7.0654120">
        <ele>2194.4</ele>
        <time>2017-07-26T09:00:28Z</time>
      </trkpt>
      <trkpt lat="44.7697590" lon="7.0654470">
        <ele>2195.0</ele>
        <time>2017-07-26T09:00:30Z</time>
      </trkpt>
      <trkpt lat="44.7698010" lon="7.0655130">
        <ele>2196.4</ele>
        <time>2017-07-26T09:00:34Z</time>
      </trkpt>
      <trkpt lat="44.7698570" lon="7.0655660">
        <ele>2197.6</ele>
        <time>2017-07-26T09:00:38Z</time>
      </trkpt>
      <trkpt lat="44.7698980" lon="7.0656080">
        <ele>2198.8</ele>
        <time>2017-07-26T09:00:41Z</time>
      </trkpt>
      <trkpt lat="44.7699510" lon="7.0656590">
        <ele>2199.8</ele>
        <time>2017-07-26T09:00:45Z</time>
      </trkpt>
      <trkpt lat="44.7700120" lon="7.0656910">
        <ele>2200.8</ele>
        <time>2017-07-26T09:00:49Z</time>
      </trkpt>
      <trkpt lat="44.7700280" lon="7.0657000">
        <ele>2201.2</ele>
        <time>2017-07-26T09:00:50Z</time>
      </trkpt>
      <trkpt lat="44.7700930" lon="7.0657310">
        <ele>2202.2</ele>
        <time>2017-07-26T09:00:54Z</time>
      </trkpt>
      <trkpt lat="44.7701420" lon="7.0657450">
        <ele>2203.2</ele>
        <time>2017-07-26T09:00:57Z</time>
      </trkpt>
      <trkpt lat="44.7701590" lon="7.0657470">
        <ele>2203.6</ele>
        <time>2017-07-26T09:00:58Z</time>
      </trkpt>
      <trkpt lat="44.7702210" lon="7.0657530">
        <ele>2204.8</ele>
        <time>2017-07-26T09:01:02Z</time>
      </trkpt>
      <trkpt lat="44.7702560" lon="7.0657530">
        <ele>2205.2</ele>
        <time>2017-07-26T09:01:04Z</time>
      </trkpt>
      <trkpt lat="44.7702730" lon="7.0657590">
        <ele>2205.6</ele>
        <time>2017-07-26T09:01:05Z</time>
      </trkpt>
      <trkpt lat="44.7702910" lon="7.0657660">
        <ele>2205.8</ele>
        <time>2017-07-26T09:01:06Z</time>
      </trkpt>
      <trkpt lat="44.7703470" lon="7.0657900">
        <ele>2206.8</ele>
        <time>2017-07-26T09:01:09Z</time>
      </trkpt>
      <trkpt lat="44.7703610" lon="7.0658010">
        <ele>2207.0</ele>
        <time>2017-07-26T09:01:10Z</time>
      </trkpt>
      <trkpt lat="44.7704390" lon="7.0658390">
        <ele>2208.2</ele>
        <time>2017-07-26T09:01:15Z</time>
      </trkpt>
      <trkpt lat="44.7704700" lon="7.0658510">
        <ele>2208.8</ele>
        <time>2017-07-26T09:01:17Z</time>
      </trkpt>
      <trkpt lat="44.7705040" lon="7.0658510">
        <ele>2209.4</ele>
        <time>2017-07-26T09:01:19Z</time>
      </trkpt>
      <trkpt lat="44.7705690" lon="7.0658480">
        <ele>2210.4</ele>
        <time>2017-07-26T09:01:23Z</time>
      </trkpt>
      <trkpt lat="44.7706570" lon="7.0658220">
        <ele>2211.4</ele>
        <time>2017-07-26T09:01:29Z</time>
      </trkpt>
      <trkpt lat="44.7707860" lon="7.0657890">
        <ele>2212.4</ele>
        <time>2017-07-26T09:01:38Z</time>
      </trkpt>
      <trkpt lat="44.7707970" lon="7.0657840">
        <ele>2212.6</ele>
        <time>2017-07-26T09:01:39Z</time>
      </trkpt>
      <trkpt lat="44.7708260" lon="7.0657730">
        <ele>2205.6</ele>
        <time>2017-07-26T09:01:41Z</time>
      </trkpt>
      <trkpt lat="44.7708540" lon="7.0657660">
        <ele>2206.2</ele>
        <time>2017-07-26T09:01:43Z</time>
      </trkpt>
      <trkpt lat="44.7708690" lon="7.0657650">
        <ele>2213.6</ele>
        <time>2017-07-26T09:01:44Z</time>
      </trkpt>
      <trkpt lat="44.7708850" lon="7.0657650">
        <ele>2213.6</ele>
        <time>2017-07-26T09:01:45Z</time>
      </trkpt>
      <trkpt lat="44.7709910" lon="7.0657630">
        <ele>2214.6</ele>
        <time>2017-07-26T09:01:52Z</time>
      </trkpt>
      <trkpt lat="44.7710350" lon="7.0657640">
        <ele>2215.4</ele>
        <time>2017-07-26T09:01:55Z</time>
      </trkpt>
      <trkpt lat="44.7710650" lon="7.0657690">
        <ele>2215.8</ele>
        <time>2017-07-26T09:01:57Z</time>
      </trkpt>
      <trkpt lat="44.7710810" lon="7.0657710">
        <ele>2215.8</ele>
        <time>2017-07-26T09:01:58Z</time>
      </trkpt>
      <trkpt lat="44.7711650" lon="7.0657930">
        <ele>2216.8</ele>
        <time>2017-07-26T09:02:03Z</time>
      </trkpt>
      <trkpt lat="44.7712260" lon="7.0658130">
        <ele>2217.8</ele>
        <time>2017-07-26T09:02:07Z</time>
      </trkpt>
      <trkpt lat="44.7712780" lon="7.0658380">
        <ele>2218.6</ele>
        <time>2017-07-26T09:02:10Z</time>
      </trkpt>
      <trkpt lat="44.7712960" lon="7.0658470">
        <ele>2219.0</ele>
        <time>2017-07-26T09:02:11Z</time>
      </trkpt>
      <trkpt lat="44.7713480" lon="7.0658700">
        <ele>2220.0</ele>
        <time>2017-07-26T09:02:14Z</time>
      </trkpt>
      <trkpt lat="44.7713940" lon="7.0658950">
        <ele>2221.0</ele>
        <time>2017-07-26T09:02:17Z</time>
      </trkpt>
      <trkpt lat="44.7714560" lon="7.0659070">
        <ele>2222.2</ele>
        <time>2017-07-26T09:02:21Z</time>
      </trkpt>
      <trkpt lat="44.7714860" lon="7.0659200">
        <ele>2222.6</ele>
        <time>2017-07-26T09:02:23Z</time>
      </trkpt>
      <trkpt lat="44.7715190" lon="7.0659040">
        <ele>2223.4</ele>
        <time>2017-07-26T09:02:25Z</time>
      </trkpt>
      <trkpt lat="44.7715530" lon="7.0658930">
        <ele>2223.8</ele>
        <time>2017-07-26T09:02:27Z</time>
      </trkpt>
      <trkpt lat="44.7715550" lon="7.0658450">
        <ele>2224.6</ele>
        <time>2017-07-26T09:02:29Z</time>
      </trkpt>
      <trkpt lat="44.7715390" lon="7.0658220">
        <ele>2224.8</ele>
        <time>2017-07-26T09:02:30Z</time>
      </trkpt>
      <trkpt lat="44.7714740" lon="7.0657650">
        <ele>2225.8</ele>
        <time>2017-07-26T09:02:33Z</time>
      </trkpt>
      <trkpt lat="44.7714130" lon="7.0657290">
        <ele>2226.4</ele>
        <time>2017-07-26T09:02:35Z</time>
      </trkpt>
      <trkpt lat="44.7713490" lon="7.0656950">
        <ele>2226.8</ele>
        <time>2017-07-26T09:02:37Z</time>
      </trkpt>
      <trkpt lat="44.7712620" lon="7.0656260">
        <ele>2227.8</ele>
        <time>2017-07-26T09:02:40Z</time>
      </trkpt>
      <trkpt lat="44.7712340" lon="7.0656060">
        <ele>2228.6</ele>
        <time>2017-07-26T09:02:41Z</time>
      </trkpt>
      <trkpt lat="44.7710790" lon="7.0655620">
        <ele>2229.8</ele>
        <time>2017-07-26T09:02:46Z</time>
      </trkpt>
      <trkpt lat="44.7709420" lon="7.0655320">
        <ele>2231.0</ele>
        <time>2017-07-26T09:02:50Z</time>
      </trkpt>
      <trkpt lat="44.7708720" lon="7.0655360">
        <ele>2231.6</ele>
        <time>2017-07-26T09:02:52Z</time>
      </trkpt>
      <trkpt lat="44.7708000" lon="7.0655350">
        <ele>2232.2</ele>
        <time>2017-07-26T09:02:54Z</time>
      </trkpt>
      <trkpt lat="44.7707000" lon="7.0655360">
        <ele>2233.6</ele>
        <time>2017-07-26T09:02:57Z</time>
      </trkpt>
      <trkpt lat="44.7706670" lon="7.0655350">
        <ele>2230.4</ele>
        <time>2017-07-26T09:02:58Z</time>
      </trkpt>
      <trkpt lat="44.7705610" lon="7.0655090">
        <ele>2234.4</ele>
        <time>2017-07-26T09:03:01Z</time>
      </trkpt>
      <trkpt lat="44.7705000" lon="7.0654520">
        <ele>2234.8</ele>
        <time>2017-07-26T09:03:03Z</time>
      </trkpt>
      <trkpt lat="44.7704420" lon="7.0653840">
        <ele>2235.6</ele>
        <time>2017-07-26T09:03:05Z</time>
      </trkpt>
      <trkpt lat="44.7702840" lon="7.0652340">
        <ele>2237.0</ele>
        <time>2017-07-26T09:03:10Z</time>
      </trkpt>
      <trkpt lat="44.7701660" lon="7.0651360">
        <ele>2238.2</ele>
        <time>2017-07-26T09:03:14Z</time>
      </trkpt>
      <trkpt lat="44.7701370" lon="7.0650740">
        <ele>2239.2</ele>
        <time>2017-07-26T09:03:16Z</time>
      </trkpt>
      <trkpt lat="44.7701320" lon="7.0650420">
        <ele>2239.6</ele>
        <time>2017-07-26T09:03:17Z</time>
      </trkpt>
      <trkpt lat="44.7701250" lon="7.0649740">
        <ele>2240.6</ele>
        <time>2017-07-26T09:03:19Z</time>
      </trkpt>
      <trkpt lat="44.7701140" lon="7.0649060">
        <ele>2241.6</ele>
        <time>2017-07-26T09:03:21Z</time>
      </trkpt>
      <trkpt lat="44.7700910" lon="7.0648100">
        <ele>2243.0</ele>
        <time>2017-07-26T09:03:24Z</time>
      </trkpt>
      <trkpt lat="44.7700680" lon="7.0646770">
        <ele>2243.8</ele>
        <time>2017-07-26T09:03:28Z</time>
      </trkpt>
      <trkpt lat="44.7700650" lon="7.0646450">
        <ele>2244.4</ele>
        <time>2017-07-26T09:03:29Z</time>
      </trkpt>
      <trkpt lat="44.7700120" lon="7.0644590">
        <ele>2245.4</ele>
        <time>2017-07-26T09:03:36Z</time>
      </trkpt>
      <trkpt lat="44.7700050" lon="7.0644320">
        <ele>2245.4</ele>
        <time>2017-07-26T09:03:37Z</time>
      </trkpt>
      <trkpt lat="44.7699560" lon="7.0643060">
        <ele>2245.8</ele>
        <time>2017-07-26T09:03:42Z</time>
      </trkpt>
      <trkpt lat="44.7699370" lon="7.0641700">
        <ele>2246.4</ele>
        <time>2017-07-26T09:03:47Z</time>
      </trkpt>
      <trkpt lat="44.7699310" lon="7.0640850">
        <ele>2246.8</ele>
        <time>2017-07-26T09:03:50Z</time>
      </trkpt>
      <trkpt lat="44.7699120" lon="7.0639470">
        <ele>2247.6</ele>
        <time>2017-07-26T09:03:55Z</time>
      </trkpt>
      <trkpt lat="44.7699110" lon="7.0639150">
        <ele>2248.0</ele>
        <time>2017-07-26T09:03:56Z</time>
      </trkpt>
      <trkpt lat="44.7699080" lon="7.0638470">
        <ele>2249.0</ele>
        <time>2017-07-26T09:03:58Z</time>
      </trkpt>
      <trkpt lat="44.7699080" lon="7.0637760">
        <ele>2250.0</ele>
        <time>2017-07-26T09:04:00Z</time>
      </trkpt>
      <trkpt lat="44.7699080" lon="7.0637100">
        <ele>2251.2</ele>
        <time>2017-07-26T09:04:02Z</time>
      </trkpt>
      <trkpt lat="44.7699140" lon="7.0636470">
        <ele>2252.8</ele>
        <time>2017-07-26T09:04:04Z</time>
      </trkpt>
      <trkpt lat="44.7699120" lon="7.0635910">
        <ele>2253.8</ele>
        <time>2017-07-26T09:04:06Z</time>
      </trkpt>
      <trkpt lat="44.7699010" lon="7.0635100">
        <ele>2254.4</ele>
        <time>2017-07-26T09:04:09Z</time>
      </trkpt>
      <trkpt lat="44.7698890" lon="7.0634600">
        <ele>2254.8</ele>
        <time>2017-07-26T09:04:11Z</time>
      </trkpt>
      <trkpt lat="44.7698850" lon="7.0633320">
        <ele>2255.2</ele>
        <time>2017-07-26T09:04:16Z</time>
      </trkpt>
      <trkpt lat="44.7698950" lon="7.0632800">
        <ele>2255.6</ele>
        <time>2017-07-26T09:04:18Z</time>
      </trkpt>
      <trkpt lat="44.7699220" lon="7.0632490">
        <ele>2256.0</ele>
        <time>2017-07-26T09:04:20Z</time>
      </trkpt>
      <trkpt lat="44.7699380" lon="7.0632450">
        <ele>2256.0</ele>
        <time>2017-07-26T09:04:21Z</time>
      </trkpt>
      <trkpt lat="44.7699970" lon="7.0632840">
        <ele>2257.0</ele>
        <time>2017-07-26T09:04:26Z</time>
      </trkpt>
      <trkpt lat="44.7700070" lon="7.0633920">
        <ele>2257.6</ele>
        <time>2017-07-26T09:04:31Z</time>
      </trkpt>
      <trkpt lat="44.7700130" lon="7.0634300">
        <ele>2258.0</ele>
        <time>2017-07-26T09:04:33Z</time>
      </trkpt>
      <trkpt lat="44.7700390" lon="7.0635100">
        <ele>2259.0</ele>
        <time>2017-07-26T09:04:37Z</time>
      </trkpt>
      <trkpt lat="44.7700460" lon="7.0635310">
        <ele>2259.2</ele>
        <time>2017-07-26T09:04:38Z</time>
      </trkpt>
      <trkpt lat="44.7700680" lon="7.0635910">
        <ele>2260.2</ele>
        <time>2017-07-26T09:04:41Z</time>
      </trkpt>
      <trkpt lat="44.7701310" lon="7.0636910">
        <ele>2260.8</ele>
        <time>2017-07-26T09:04:47Z</time>
      </trkpt>
      <trkpt lat="44.7701440" lon="7.0637040">
        <ele>2261.0</ele>
        <time>2017-07-26T09:04:48Z</time>
      </trkpt>
      <trkpt lat="44.7701530" lon="7.0637230">
        <ele>2261.2</ele>
        <time>2017-07-26T09:04:49Z</time>
      </trkpt>
      <trkpt lat="44.7702160" lon="7.0638590">
        <ele>2262.0</ele>
        <time>2017-07-26T09:04:56Z</time>
      </trkpt>
      <trkpt lat="44.7702360" lon="7.0638950">
        <ele>2262.2</ele>
        <time>2017-07-26T09:04:58Z</time>
      </trkpt>
      <trkpt lat="44.7702970" lon="7.0640050">
        <ele>2263.4</ele>
        <time>2017-07-26T09:05:04Z</time>
      </trkpt>
      <trkpt lat="44.7703080" lon="7.0640200">
        <ele>2263.8</ele>
        <time>2017-07-26T09:05:05Z</time>
      </trkpt>
      <trkpt lat="44.7703600" lon="7.0641010">
        <ele>2264.4</ele>
        <time>2017-07-26T09:05:10Z</time>
      </trkpt>
      <trkpt lat="44.7703970" lon="7.0641490">
        <ele>2264.8</ele>
        <time>2017-07-26T09:05:13Z</time>
      </trkpt>
      <trkpt lat="44.7704670" lon="7.0642510">
        <ele>2265.4</ele>
        <time>2017-07-26T09:05:19Z</time>
      </trkpt>
      <trkpt lat="44.7704770" lon="7.0642690">
        <ele>2265.6</ele>
        <time>2017-07-26T09:05:20Z</time>
      </trkpt>
      <trkpt lat="44.7705560" lon="7.0643890">
        <ele>2266.2</ele>
        <time>2017-07-26T09:05:27Z</time>
      </trkpt>
      <trkpt lat="44.7705680" lon="7.0644030">
        <ele>2266.6</ele>
        <time>2017-07-26T09:05:28Z</time>
      </trkpt>
      <trkpt lat="44.7706210" lon="7.0644840">
        <ele>2267.8</ele>
        <time>2017-07-26T09:05:33Z</time>
      </trkpt>
      <trkpt lat="44.7706420" lon="7.0645200">
        <ele>2268.2</ele>
        <time>2017-07-26T09:05:35Z</time>
      </trkpt>
      <trkpt lat="44.7706690" lon="7.0645760">
        <ele>2269.0</ele>
        <time>2017-07-26T09:05:38Z</time>
      </trkpt>
      <trkpt lat="44.7707220" lon="7.0646690">
        <ele>2270.2</ele>
        <time>2017-07-26T09:05:43Z</time>
      </trkpt>
      <trkpt lat="44.7707340" lon="7.0646900">
        <ele>2263.2</ele>
        <time>2017-07-26T09:05:44Z</time>
      </trkpt>
      <trkpt lat="44.7707740" lon="7.0647410">
        <ele>2271.4</ele>
        <time>2017-07-26T09:05:47Z</time>
      </trkpt>
      <trkpt lat="44.7708190" lon="7.0647730">
        <ele>2272.4</ele>
        <time>2017-07-26T09:05:50Z</time>
      </trkpt>
      <trkpt lat="44.7708360" lon="7.0647860">
        <ele>2272.8</ele>
        <time>2017-07-26T09:05:51Z</time>
      </trkpt>
      <trkpt lat="44.7708680" lon="7.0648070">
        <ele>2273.8</ele>
        <time>2017-07-26T09:05:53Z</time>
      </trkpt>
      <trkpt lat="44.7709160" lon="7.0648320">
        <ele>2274.8</ele>
        <time>2017-07-26T09:05:56Z</time>
      </trkpt>
      <trkpt lat="44.7709480" lon="7.0648370">
        <ele>2275.8</ele>
        <time>2017-07-26T09:05:58Z</time>
      </trkpt>
      <trkpt lat="44.7709610" lon="7.0648380">
        <ele>2276.2</ele>
        <time>2017-07-26T09:05:59Z</time>
      </trkpt>
      <trkpt lat="44.7710050" lon="7.0648430">
        <ele>2277.2</ele>
        <time>2017-07-26T09:06:02Z</time>
      </trkpt>
      <trkpt lat="44.7710370" lon="7.0648400">
        <ele>2277.8</ele>
        <time>2017-07-26T09:06:04Z</time>
      </trkpt>
      <trkpt lat="44.7710920" lon="7.0648520">
        <ele>2278.4</ele>
        <time>2017-07-26T09:06:07Z</time>
      </trkpt>
      <trkpt lat="44.7711620" lon="7.0648490">
        <ele>2279.2</ele>
        <time>2017-07-26T09:06:11Z</time>
      </trkpt>
      <trkpt lat="44.7712120" lon="7.0648490">
        <ele>2279.4</ele>
        <time>2017-07-26T09:06:14Z</time>
      </trkpt>
      <trkpt lat="44.7712760" lon="7.0648580">
        <ele>2280.2</ele>
        <time>2017-07-26T09:06:18Z</time>
      </trkpt>
      <trkpt lat="44.7713150" lon="7.0648550">
        <ele>2280.6</ele>
        <time>2017-07-26T09:06:20Z</time>
      </trkpt>
      <trkpt lat="44.7713840" lon="7.0648600">
        <ele>2281.6</ele>
        <time>2017-07-26T09:06:23Z</time>
      </trkpt>
      <trkpt lat="44.7714100" lon="7.0648630">
        <ele>2281.8</ele>
        <time>2017-07-26T09:06:24Z</time>
      </trkpt>
      <trkpt lat="44.7714720" lon="7.0648670">
        <ele>2282.8</ele>
        <time>2017-07-26T09:06:27Z</time>
      </trkpt>
      <trkpt lat="44.7715200" lon="7.0648690">
        <ele>2283.6</ele>
        <time>2017-07-26T09:06:29Z</time>
      </trkpt>
      <trkpt lat="44.7715430" lon="7.0648740">
        <ele>2284.0</ele>
        <time>2017-07-26T09:06:30Z</time>
      </trkpt>
      <trkpt lat="44.7716230" lon="7.0649130">
        <ele>2285.4</ele>
        <time>2017-07-26T09:06:34Z</time>
      </trkpt>
      <trkpt lat="44.7716690" lon="7.0649320">
        <ele>2285.8</ele>
        <time>2017-07-26T09:06:36Z</time>
      </trkpt>
      <trkpt lat="44.7717080" lon="7.0649520">
        <ele>2286.4</ele>
        <time>2017-07-26T09:06:38Z</time>
      </trkpt>
      <trkpt lat="44.7717780" lon="7.0649810">
        <ele>2287.4</ele>
        <time>2017-07-26T09:06:42Z</time>
      </trkpt>
      <trkpt lat="44.7718110" lon="7.0650060">
        <ele>2287.6</ele>
        <time>2017-07-26T09:06:44Z</time>
      </trkpt>
      <trkpt lat="44.7718550" lon="7.0650490">
        <ele>2287.8</ele>
        <time>2017-07-26T09:06:47Z</time>
      </trkpt>
      <trkpt lat="44.7719340" lon="7.0651000">
        <ele>2288.4</ele>
        <time>2017-07-26T09:06:52Z</time>
      </trkpt>
      <trkpt lat="44.7719640" lon="7.0651160">
        <ele>2288.6</ele>
        <time>2017-07-26T09:06:54Z</time>
      </trkpt>
      <trkpt lat="44.7720210" lon="7.0651610">
        <ele>2289.4</ele>
        <time>2017-07-26T09:06:58Z</time>
      </trkpt>
      <trkpt lat="44.7720630" lon="7.0651930">
        <ele>2289.8</ele>
        <time>2017-07-26T09:07:01Z</time>
      </trkpt>
      <trkpt lat="44.7720790" lon="7.0651960">
        <ele>2289.8</ele>
        <time>2017-07-26T09:07:02Z</time>
      </trkpt>
      <trkpt lat="44.7721050" lon="7.0651770">
        <ele>2290.2</ele>
        <time>2017-07-26T09:07:04Z</time>
      </trkpt>
      <trkpt lat="44.7721170" lon="7.0651300">
        <ele>2290.8</ele>
        <time>2017-07-26T09:07:06Z</time>
      </trkpt>
      <trkpt lat="44.7721090" lon="7.0650650">
        <ele>2292.0</ele>
        <time>2017-07-26T09:07:09Z</time>
      </trkpt>
      <trkpt lat="44.7720510" lon="7.0650210">
        <ele>2292.8</ele>
        <time>2017-07-26T09:07:13Z</time>
      </trkpt>
      <trkpt lat="44.7720290" lon="7.0650110">
        <ele>2293.0</ele>
        <time>2017-07-26T09:07:14Z</time>
      </trkpt>
      <trkpt lat="44.7719160" lon="7.0649170">
        <ele>2294.2</ele>
        <time>2017-07-26T09:07:20Z</time>
      </trkpt>
      <trkpt lat="44.7719020" lon="7.0649020">
        <ele>2294.6</ele>
        <time>2017-07-26T09:07:21Z</time>
      </trkpt>
      <trkpt lat="44.7718700" lon="7.0648650">
        <ele>2295.6</ele>
        <time>2017-07-26T09:07:23Z</time>
      </trkpt>
      <trkpt lat="44.7718040" lon="7.0647900">
        <ele>2296.8</ele>
        <time>2017-07-26T09:07:27Z</time>
      </trkpt>
      <trkpt lat="44.7717750" lon="7.0647480">
        <ele>2298.2</ele>
        <time>2017-07-26T09:07:29Z</time>
      </trkpt>
      <trkpt lat="44.7717370" lon="7.0647030">
        <ele>2299.2</ele>
        <time>2017-07-26T09:07:32Z</time>
      </trkpt>
      <trkpt lat="44.7717080" lon="7.0646750">
        <ele>2299.8</ele>
        <time>2017-07-26T09:07:34Z</time>
      </trkpt>
      <trkpt lat="44.7716780" lon="7.0646480">
        <ele>2300.4</ele>
        <time>2017-07-26T09:07:36Z</time>
      </trkpt>
      <trkpt lat="44.7716160" lon="7.0645940">
        <ele>2301.4</ele>
        <time>2017-07-26T09:07:40Z</time>
      </trkpt>
      <trkpt lat="44.7715850" lon="7.0645730">
        <ele>2302.0</ele>
        <time>2017-07-26T09:07:42Z</time>
      </trkpt>
      <trkpt lat="44.7714570" lon="7.0645300">
        <ele>2302.6</ele>
        <time>2017-07-26T09:07:49Z</time>
      </trkpt>
      <trkpt lat="44.7714420" lon="7.0645190">
        <ele>2302.6</ele>
        <time>2017-07-26T09:07:50Z</time>
      </trkpt>
      <trkpt lat="44.7712920" lon="7.0644290">
        <ele>2303.4</ele>
        <time>2017-07-26T09:07:58Z</time>
      </trkpt>
      <trkpt lat="44.7712670" lon="7.0643960">
        <ele>2303.6</ele>
        <time>2017-07-26T09:08:00Z</time>
      </trkpt>
      <trkpt lat="44.7712400" lon="7.0643080">
        <ele>2304.2</ele>
        <time>2017-07-26T09:08:04Z</time>
      </trkpt>
      <trkpt lat="44.7712330" lon="7.0642400">
        <ele>2304.8</ele>
        <time>2017-07-26T09:08:07Z</time>
      </trkpt>
      <trkpt lat="44.7712410" lon="7.0642150">
        <ele>2305.0</ele>
        <time>2017-07-26T09:08:08Z</time>
      </trkpt>
      <trkpt lat="44.7712550" lon="7.0641640">
        <ele>2306.0</ele>
        <time>2017-07-26T09:08:10Z</time>
      </trkpt>
      <trkpt lat="44.7712540" lon="7.0641140">
        <ele>2307.0</ele>
        <time>2017-07-26T09:08:12Z</time>
      </trkpt>
      <trkpt lat="44.7712550" lon="7.0640860">
        <ele>2307.2</ele>
        <time>2017-07-26T09:08:13Z</time>
      </trkpt>
      <trkpt lat="44.7712570" lon="7.0640180">
        <ele>2308.2</ele>
        <time>2017-07-26T09:08:16Z</time>
      </trkpt>
      <trkpt lat="44.7712570" lon="7.0639950">
        <ele>2308.8</ele>
        <time>2017-07-26T09:08:17Z</time>
      </trkpt>
      <trkpt lat="44.7712710" lon="7.0639260">
        <ele>2309.8</ele>
        <time>2017-07-26T09:08:20Z</time>
      </trkpt>
      <trkpt lat="44.7712960" lon="7.0639000">
        <ele>2310.8</ele>
        <time>2017-07-26T09:08:22Z</time>
      </trkpt>
      <trkpt lat="44.7713110" lon="7.0638960">
        <ele>2311.0</ele>
        <time>2017-07-26T09:08:23Z</time>
      </trkpt>
      <trkpt lat="44.7713640" lon="7.0639450">
        <ele>2312.2</ele>
        <time>2017-07-26T09:08:27Z</time>
      </trkpt>
      <trkpt lat="44.7713810" lon="7.0639900">
        <ele>2312.6</ele>
        <time>2017-07-26T09:08:29Z</time>
      </trkpt>
      <trkpt lat="44.7714130" lon="7.0640510">
        <ele>2313.2</ele>
        <time>2017-07-26T09:08:32Z</time>
      </trkpt>
      <trkpt lat="44.7714250" lon="7.0640750">
        <ele>2313.4</ele>
        <time>2017-07-26T09:08:33Z</time>
      </trkpt>
      <trkpt lat="44.7714680" lon="7.0641610">
        <ele>2314.2</ele>
        <time>2017-07-26T09:08:37Z</time>
      </trkpt>
      <trkpt lat="44.7715060" lon="7.0642040">
        <ele>2314.6</ele>
        <time>2017-07-26T09:08:40Z</time>
      </trkpt>
      <trkpt lat="44.7715220" lon="7.0642010">
        <ele>2314.8</ele>
        <time>2017-07-26T09:08:41Z</time>
      </trkpt>
      <trkpt lat="44.7715570" lon="7.0641970">
        <ele>2315.4</ele>
        <time>2017-07-26T09:08:43Z</time>
      </trkpt>
      <trkpt lat="44.7716260" lon="7.0642220">
        <ele>2316.6</ele>
        <time>2017-07-26T09:08:47Z</time>
      </trkpt>
      <trkpt lat="44.7716450" lon="7.0642260">
        <ele>2317.0</ele>
        <time>2017-07-26T09:08:48Z</time>
      </trkpt>
      <trkpt lat="44.7716920" lon="7.0642270">
        <ele>2317.6</ele>
        <time>2017-07-26T09:08:50Z</time>
      </trkpt>
      <trkpt lat="44.7717850" lon="7.0642250">
        <ele>2318.6</ele>
        <time>2017-07-26T09:08:53Z</time>
      </trkpt>
      <trkpt lat="44.7718260" lon="7.0642200">
        <ele>2318.8</ele>
        <time>2017-07-26T09:08:54Z</time>
      </trkpt>
      <trkpt lat="44.7719850" lon="7.0642010">
        <ele>2319.4</ele>
        <time>2017-07-26T09:08:57Z</time>
      </trkpt>
      <trkpt lat="44.7721990" lon="7.0641310">
        <ele>2320.0</ele>
        <time>2017-07-26T09:09:00Z</time>
      </trkpt>
      <trkpt lat="44.7722770" lon="7.0640990">
        <ele>2320.2</ele>
        <time>2017-07-26T09:09:01Z</time>
      </trkpt>
      <trkpt lat="44.7725260" lon="7.0640110">
        <ele>2321.0</ele>
        <time>2017-07-26T09:09:04Z</time>
      </trkpt>
      <trkpt lat="44.7726200" lon="7.0639720">
        <ele>2320.8</ele>
        <time>2017-07-26T09:09:05Z</time>
      </trkpt>
      <trkpt lat="44.7727080" lon="7.0639210">
        <ele>2319.8</ele>
        <time>2017-07-26T09:09:06Z</time>
      </trkpt>
      <trkpt lat="44.7729300" lon="7.0638590">
        <ele>2319.4</ele>
        <time>2017-07-26T09:09:09Z</time>
      </trkpt>
      <trkpt lat="44.7729990" lon="7.0638510">
        <ele>2318.4</ele>
        <time>2017-07-26T09:09:10Z</time>
      </trkpt>
      <trkpt lat="44.7731390" lon="7.0637870">
        <ele>2317.4</ele>
        <time>2017-07-26T09:09:12Z</time>
      </trkpt>
      <trkpt lat="44.7732000" lon="7.0637180">
        <ele>2317.0</ele>
        <time>2017-07-26T09:09:13Z</time>
      </trkpt>
      <trkpt lat="44.7732860" lon="7.0635240">
        <ele>2315.6</ele>
        <time>2017-07-26T09:09:15Z</time>
      </trkpt>
      <trkpt lat="44.7733140" lon="7.0634280">
        <ele>2315.0</ele>
        <time>2017-07-26T09:09:16Z</time>
      </trkpt>
      <trkpt lat="44.7733320" lon="7.0633490">
        <ele>2314.2</ele>
        <time>2017-07-26T09:09:17Z</time>
      </trkpt>
      <trkpt lat="44.7733380" lon="7.0632440">
        <ele>2312.8</ele>
        <time>2017-07-26T09:09:19Z</time>
      </trkpt>
      <trkpt lat="44.7733050" lon="7.0631590">
        <ele>2310.4</ele>
        <time>2017-07-26T09:09:21Z</time>
      </trkpt>
      <trkpt lat="44.7732720" lon="7.0631490">
        <ele>2309.0</ele>
        <time>2017-07-26T09:09:22Z</time>
      </trkpt>
      <trkpt lat="44.7732360" lon="7.0631380">
        <ele>2307.8</ele>
        <time>2017-07-26T09:09:23Z</time>
      </trkpt>
      <trkpt lat="44.7731560" lon="7.0630020">
        <ele>2306.0</ele>
        <time>2017-07-26T09:09:25Z</time>
      </trkpt>
      <trkpt lat="44.7730910" lon="7.0627940">
        <ele>2304.4</ele>
        <time>2017-07-26T09:09:27Z</time>
      </trkpt>
      <trkpt lat="44.7730640" lon="7.0626860">
        <ele>2303.2</ele>
        <time>2017-07-26T09:09:28Z</time>
      </trkpt>
      <trkpt lat="44.7730510" lon="7.0626000">
        <ele>2301.0</ele>
        <time>2017-07-26T09:09:29Z</time>
      </trkpt>
      <trkpt lat="44.7730740" lon="7.0624190">
        <ele>2299.4</ele>
        <time>2017-07-26T09:09:31Z</time>
      </trkpt>
      <trkpt lat="44.7730850" lon="7.0623350">
        <ele>2298.8</ele>
        <time>2017-07-26T09:09:32Z</time>
      </trkpt>
      <trkpt lat="44.7731000" lon="7.0622400">
        <ele>2297.6</ele>
        <time>2017-07-26T09:09:33Z</time>
      </trkpt>
      <trkpt lat="44.7731300" lon="7.0620250">
        <ele>2295.4</ele>
        <time>2017-07-26T09:09:35Z</time>
      </trkpt>
      <trkpt lat="44.7731750" lon="7.0618190">
        <ele>2293.4</ele>
        <time>2017-07-26T09:09:37Z</time>
      </trkpt>
      <trkpt lat="44.7732130" lon="7.0617530">
        <ele>2292.2</ele>
        <time>2017-07-26T09:09:38Z</time>
      </trkpt>
      <trkpt lat="44.7732620" lon="7.0617090">
        <ele>2290.8</ele>
        <time>2017-07-26T09:09:39Z</time>
      </trkpt>
      <trkpt lat="44.7733180" lon="7.0616870">
        <ele>2289.6</ele>
        <time>2017-07-26T09:09:40Z</time>
      </trkpt>
      <trkpt lat="44.7733830" lon="7.0616840">
        <ele>2288.2</ele>
        <time>2017-07-26T09:09:41Z</time>
      </trkpt>
      <trkpt lat="44.7734570" lon="7.0616860">
        <ele>2286.4</ele>
        <time>2017-07-26T09:09:42Z</time>
      </trkpt>
      <trkpt lat="44.7735350" lon="7.0616900">
        <ele>2285.2</ele>
        <time>2017-07-26T09:09:43Z</time>
      </trkpt>
      <trkpt lat="44.7736080" lon="7.0616590">
        <ele>2284.2</ele>
        <time>2017-07-26T09:09:44Z</time>
      </trkpt>
      <trkpt lat="44.7736790" lon="7.0616160">
        <ele>2283.4</ele>
        <time>2017-07-26T09:09:45Z</time>
      </trkpt>
      <trkpt lat="44.7737540" lon="7.0615710">
        <ele>2282.0</ele>
        <time>2017-07-26T09:09:46Z</time>
      </trkpt>
      <trkpt lat="44.7738320" lon="7.0615170">
        <ele>2280.4</ele>
        <time>2017-07-26T09:09:47Z</time>
      </trkpt>
      <trkpt lat="44.7739200" lon="7.0614690">
        <ele>2279.0</ele>
        <time>2017-07-26T09:09:48Z</time>
      </trkpt>
      <trkpt lat="44.7740110" lon="7.0614380">
        <ele>2277.8</ele>
        <time>2017-07-26T09:09:49Z</time>
      </trkpt>
      <trkpt lat="44.7741060" lon="7.0614460">
        <ele>2276.6</ele>
        <time>2017-07-26T09:09:50Z</time>
      </trkpt>
      <trkpt lat="44.7741960" lon="7.0614600">
        <ele>2275.4</ele>
        <time>2017-07-26T09:09:51Z</time>
      </trkpt>
      <trkpt lat="44.7742820" lon="7.0614500">
        <ele>2274.0</ele>
        <time>2017-07-26T09:09:52Z</time>
      </trkpt>
      <trkpt lat="44.7743600" lon="7.0614110">
        <ele>2270.4</ele>
        <time>2017-07-26T09:09:53Z</time>
      </trkpt>
      <trkpt lat="44.7744260" lon="7.0613710">
        <ele>2269.4</ele>
        <time>2017-07-26T09:09:54Z</time>
      </trkpt>
      <trkpt lat="44.7744900" lon="7.0613080">
        <ele>2268.6</ele>
        <time>2017-07-26T09:09:55Z</time>
      </trkpt>
      <trkpt lat="44.7745330" lon="7.0612320">
        <ele>2268.0</ele>
        <time>2017-07-26T09:09:56Z</time>
      </trkpt>
      <trkpt lat="44.7745490" lon="7.0611490">
        <ele>2266.8</ele>
        <time>2017-07-26T09:09:57Z</time>
      </trkpt>
      <trkpt lat="44.7745520" lon="7.0610640">
        <ele>2266.0</ele>
        <time>2017-07-26T09:09:58Z</time>
      </trkpt>
      <trkpt lat="44.7745380" lon="7.0609700">
        <ele>2265.2</ele>
        <time>2017-07-26T09:09:59Z</time>
      </trkpt>
      <trkpt lat="44.7745350" lon="7.0607990">
        <ele>2264.2</ele>
        <time>2017-07-26T09:10:01Z</time>
      </trkpt>
      <trkpt lat="44.7745520" lon="7.0606280">
        <ele>2263.2</ele>
        <time>2017-07-26T09:10:03Z</time>
      </trkpt>
      <trkpt lat="44.7745700" lon="7.0605450">
        <ele>2263.0</ele>
        <time>2017-07-26T09:10:04Z</time>
      </trkpt>
      <trkpt lat="44.7746450" lon="7.0604070">
        <ele>2262.0</ele>
        <time>2017-07-26T09:10:07Z</time>
      </trkpt>
      <trkpt lat="44.7747630" lon="7.0602990">
        <ele>2261.2</ele>
        <time>2017-07-26T09:10:10Z</time>
      </trkpt>
      <trkpt lat="44.7748420" lon="7.0602420">
        <ele>2260.8</ele>
        <time>2017-07-26T09:10:12Z</time>
      </trkpt>
      <trkpt lat="44.7748810" lon="7.0602180">
        <ele>2261.0</ele>
        <time>2017-07-26T09:10:13Z</time>
      </trkpt>
      <trkpt lat="44.7749990" lon="7.0601770">
        <ele>2260.8</ele>
        <time>2017-07-26T09:10:16Z</time>
      </trkpt>
      <trkpt lat="44.7750440" lon="7.0601980">
        <ele>2260.2</ele>
        <time>2017-07-26T09:10:17Z</time>
      </trkpt>
      <trkpt lat="44.7751520" lon="7.0602690">
        <ele>2259.6</ele>
        <time>2017-07-26T09:10:19Z</time>
      </trkpt>
      <trkpt lat="44.7752060" lon="7.0603010">
        <ele>2259.4</ele>
        <time>2017-07-26T09:10:20Z</time>
      </trkpt>
      <trkpt lat="44.7753180" lon="7.0603250">
        <ele>2258.8</ele>
        <time>2017-07-26T09:10:22Z</time>
      </trkpt>
      <trkpt lat="44.7753760" lon="7.0603170">
        <ele>2258.2</ele>
        <time>2017-07-26T09:10:23Z</time>
      </trkpt>
      <trkpt lat="44.7754900" lon="7.0602830">
        <ele>2257.6</ele>
        <time>2017-07-26T09:10:25Z</time>
      </trkpt>
      <trkpt lat="44.7756020" lon="7.0602460">
        <ele>2257.2</ele>
        <time>2017-07-26T09:10:27Z</time>
      </trkpt>
      <trkpt lat="44.7759080" lon="7.0600820">
        <ele>2256.6</ele>
        <time>2017-07-26T09:10:32Z</time>
      </trkpt>
      <trkpt lat="44.7759770" lon="7.0600450">
        <ele>2256.2</ele>
        <time>2017-07-26T09:10:33Z</time>
      </trkpt>
      <trkpt lat="44.7763210" lon="7.0599210">
        <ele>2255.6</ele>
        <time>2017-07-26T09:10:37Z</time>
      </trkpt>
      <trkpt lat="44.7764190" lon="7.0598870">
        <ele>2255.0</ele>
        <time>2017-07-26T09:10:38Z</time>
      </trkpt>
      <trkpt lat="44.7766480" lon="7.0598100">
        <ele>2253.6</ele>
        <time>2017-07-26T09:10:40Z</time>
      </trkpt>
      <trkpt lat="44.7767640" lon="7.0597670">
        <ele>2252.2</ele>
        <time>2017-07-26T09:10:41Z</time>
      </trkpt>
      <trkpt lat="44.7769980" lon="7.0596730">
        <ele>2251.0</ele>
        <time>2017-07-26T09:10:43Z</time>
      </trkpt>
      <trkpt lat="44.7772330" lon="7.0595940">
        <ele>2249.8</ele>
        <time>2017-07-26T09:10:45Z</time>
      </trkpt>
      <trkpt lat="44.7774560" lon="7.0595250">
        <ele>2248.2</ele>
        <time>2017-07-26T09:10:47Z</time>
      </trkpt>
      <trkpt lat="44.7776590" lon="7.0594680">
        <ele>2246.2</ele>
        <time>2017-07-26T09:10:49Z</time>
      </trkpt>
      <trkpt lat="44.7777630" lon="7.0594020">
        <ele>2244.6</ele>
        <time>2017-07-26T09:10:50Z</time>
      </trkpt>
      <trkpt lat="44.7778650" lon="7.0593160">
        <ele>2243.8</ele>
        <time>2017-07-26T09:10:51Z</time>
      </trkpt>
      <trkpt lat="44.7779610" lon="7.0592280">
        <ele>2243.2</ele>
        <time>2017-07-26T09:10:52Z</time>
      </trkpt>
      <trkpt lat="44.7781460" lon="7.0590150">
        <ele>2241.8</ele>
        <time>2017-07-26T09:10:54Z</time>
      </trkpt>
      <trkpt lat="44.7782240" lon="7.0589020">
        <ele>2240.4</ele>
        <time>2017-07-26T09:10:55Z</time>
      </trkpt>
      <trkpt lat="44.7782970" lon="7.0587910">
        <ele>2239.0</ele>
        <time>2017-07-26T09:10:56Z</time>
      </trkpt>
      <trkpt lat="44.7783690" lon="7.0586760">
        <ele>2237.8</ele>
        <time>2017-07-26T09:10:57Z</time>
      </trkpt>
      <trkpt lat="44.7785110" lon="7.0584520">
        <ele>2235.6</ele>
        <time>2017-07-26T09:10:59Z</time>
      </trkpt>
      <trkpt lat="44.7785810" lon="7.0583340">
        <ele>2234.2</ele>
        <time>2017-07-26T09:11:00Z</time>
      </trkpt>
      <trkpt lat="44.7786530" lon="7.0582180">
        <ele>2233.0</ele>
        <time>2017-07-26T09:11:01Z</time>
      </trkpt>
      <trkpt lat="44.7787230" lon="7.0581000">
        <ele>2231.8</ele>
        <time>2017-07-26T09:11:02Z</time>
      </trkpt>
      <trkpt lat="44.7787900" lon="7.0579740">
        <ele>2230.6</ele>
        <time>2017-07-26T09:11:03Z</time>
      </trkpt>
      <trkpt lat="44.7788580" lon="7.0578430">
        <ele>2229.6</ele>
        <time>2017-07-26T09:11:04Z</time>
      </trkpt>
      <trkpt lat="44.7789230" lon="7.0577140">
        <ele>2228.4</ele>
        <time>2017-07-26T09:11:05Z</time>
      </trkpt>
      <trkpt lat="44.7789810" lon="7.0575850">
        <ele>2226.2</ele>
        <time>2017-07-26T09:11:06Z</time>
      </trkpt>
      <trkpt lat="44.7790280" lon="7.0574750">
        <ele>2224.8</ele>
        <time>2017-07-26T09:11:07Z</time>
      </trkpt>
      <trkpt lat="44.7790810" lon="7.0573590">
        <ele>2223.4</ele>
        <time>2017-07-26T09:11:08Z</time>
      </trkpt>
      <trkpt lat="44.7791360" lon="7.0572420">
        <ele>2222.0</ele>
        <time>2017-07-26T09:11:09Z</time>
      </trkpt>
      <trkpt lat="44.7791920" lon="7.0571210">
        <ele>2220.8</ele>
        <time>2017-07-26T09:11:10Z</time>
      </trkpt>
      <trkpt lat="44.7792560" lon="7.0569990">
        <ele>2219.2</ele>
        <time>2017-07-26T09:11:11Z</time>
      </trkpt>
      <trkpt lat="44.7793280" lon="7.0568820">
        <ele>2217.8</ele>
        <time>2017-07-26T09:11:12Z</time>
      </trkpt>
      <trkpt lat="44.7793990" lon="7.0567650">
        <ele>2216.0</ele>
        <time>2017-07-26T09:11:13Z</time>
      </trkpt>
      <trkpt lat="44.7794650" lon="7.0566580">
        <ele>2214.6</ele>
        <time>2017-07-26T09:11:14Z</time>
      </trkpt>
      <trkpt lat="44.7795330" lon="7.0565600">
        <ele>2213.0</ele>
        <time>2017-07-26T09:11:15Z</time>
      </trkpt>
      <trkpt lat="44.7796030" lon="7.0564740">
        <ele>2211.4</ele>
        <time>2017-07-26T09:11:16Z</time>
      </trkpt>
      <trkpt lat="44.7796790" lon="7.0564110">
        <ele>2209.4</ele>
        <time>2017-07-26T09:11:17Z</time>
      </trkpt>
      <trkpt lat="44.7797610" lon="7.0563790">
        <ele>2207.8</ele>
        <time>2017-07-26T09:11:18Z</time>
      </trkpt>
      <trkpt lat="44.7798440" lon="7.0563870">
        <ele>2206.0</ele>
        <time>2017-07-26T09:11:19Z</time>
      </trkpt>
      <trkpt lat="44.7799290" lon="7.0564000">
        <ele>2204.6</ele>
        <time>2017-07-26T09:11:20Z</time>
      </trkpt>
      <trkpt lat="44.7800130" lon="7.0564150">
        <ele>2202.4</ele>
        <time>2017-07-26T09:11:21Z</time>
      </trkpt>
      <trkpt lat="44.7800950" lon="7.0564180">
        <ele>2200.6</ele>
        <time>2017-07-26T09:11:22Z</time>
      </trkpt>
      <trkpt lat="44.7801810" lon="7.0564030">
        <ele>2198.4</ele>
        <time>2017-07-26T09:11:23Z</time>
      </trkpt>
      <trkpt lat="44.7802680" lon="7.0563770">
        <ele>2196.6</ele>
        <time>2017-07-26T09:11:24Z</time>
      </trkpt>
      <trkpt lat="44.7803560" lon="7.0563440">
        <ele>2195.2</ele>
        <time>2017-07-26T09:11:25Z</time>
      </trkpt>
      <trkpt lat="44.7804410" lon="7.0563050">
        <ele>2193.8</ele>
        <time>2017-07-26T09:11:26Z</time>
      </trkpt>
      <trkpt lat="44.7805230" lon="7.0562780">
        <ele>2192.6</ele>
        <time>2017-07-26T09:11:27Z</time>
      </trkpt>
      <trkpt lat="44.7805990" lon="7.0562490">
        <ele>2190.8</ele>
        <time>2017-07-26T09:11:28Z</time>
      </trkpt>
      <trkpt lat="44.7806750" lon="7.0562310">
        <ele>2188.8</ele>
        <time>2017-07-26T09:11:29Z</time>
      </trkpt>
      <trkpt lat="44.7807450" lon="7.0562080">
        <ele>2185.2</ele>
        <time>2017-07-26T09:11:30Z</time>
      </trkpt>
      <trkpt lat="44.7808110" lon="7.0561770">
        <ele>2184.0</ele>
        <time>2017-07-26T09:11:31Z</time>
      </trkpt>
      <trkpt lat="44.7808690" lon="7.0561520">
        <ele>2182.6</ele>
        <time>2017-07-26T09:11:32Z</time>
      </trkpt>
      <trkpt lat="44.7809080" lon="7.0561420">
        <ele>2181.4</ele>
        <time>2017-07-26T09:11:33Z</time>
      </trkpt>
      <trkpt lat="44.7809460" lon="7.0561600">
        <ele>2179.8</ele>
        <time>2017-07-26T09:11:34Z</time>
      </trkpt>
      <trkpt lat="44.7809650" lon="7.0561720">
        <ele>2178.8</ele>
        <time>2017-07-26T09:11:35Z</time>
      </trkpt>
      <trkpt lat="44.7808820" lon="7.0561540">
        <ele>2175.0</ele>
        <time>2017-07-26T09:11:38Z</time>
      </trkpt>
      <trkpt lat="44.7807910" lon="7.0561420">
        <ele>2173.8</ele>
        <time>2017-07-26T09:11:39Z</time>
      </trkpt>
      <trkpt lat="44.7806890" lon="7.0561340">
        <ele>2172.8</ele>
        <time>2017-07-26T09:11:40Z</time>
      </trkpt>
      <trkpt lat="44.7804930" lon="7.0561510">
        <ele>2170.8</ele>
        <time>2017-07-26T09:11:42Z</time>
      </trkpt>
      <trkpt lat="44.7804070" lon="7.0561640">
        <ele>2170.0</ele>
        <time>2017-07-26T09:11:43Z</time>
      </trkpt>
      <trkpt lat="44.7803230" lon="7.0561550">
        <ele>2169.2</ele>
        <time>2017-07-26T09:11:44Z</time>
      </trkpt>
      <trkpt lat="44.7802390" lon="7.0561370">
        <ele>2168.6</ele>
        <time>2017-07-26T09:11:45Z</time>
      </trkpt>
      <trkpt lat="44.7801570" lon="7.0561080">
        <ele>2168.0</ele>
        <time>2017-07-26T09:11:46Z</time>
      </trkpt>
      <trkpt lat="44.7800810" lon="7.0560650">
        <ele>2167.4</ele>
        <time>2017-07-26T09:11:47Z</time>
      </trkpt>
      <trkpt lat="44.7800050" lon="7.0560200">
        <ele>2167.0</ele>
        <time>2017-07-26T09:11:48Z</time>
      </trkpt>
      <trkpt lat="44.7799280" lon="7.0559730">
        <ele>2166.4</ele>
        <time>2017-07-26T09:11:49Z</time>
      </trkpt>
      <trkpt lat="44.7798560" lon="7.0559270">
        <ele>2165.8</ele>
        <time>2017-07-26T09:11:50Z</time>
      </trkpt>
      <trkpt lat="44.7797150" lon="7.0558110">
        <ele>2164.8</ele>
        <time>2017-07-26T09:11:52Z</time>
      </trkpt>
      <trkpt lat="44.7795930" lon="7.0556930">
        <ele>2163.8</ele>
        <time>2017-07-26T09:11:54Z</time>
      </trkpt>
      <trkpt lat="44.7795310" lon="7.0556320">
        <ele>2163.6</ele>
        <time>2017-07-26T09:11:55Z</time>
      </trkpt>
      <trkpt lat="44.7794690" lon="7.0555790">
        <ele>2163.4</ele>
        <time>2017-07-26T09:11:56Z</time>
      </trkpt>
      <trkpt lat="44.7793290" lon="7.0556020">
        <ele>2162.8</ele>
        <time>2017-07-26T09:11:58Z</time>
      </trkpt>
      <trkpt lat="44.7792060" lon="7.0557350">
        <ele>2162.6</ele>
        <time>2017-07-26T09:12:00Z</time>
      </trkpt>
      <trkpt lat="44.7790950" lon="7.0559050">
        <ele>2162.0</ele>
        <time>2017-07-26T09:12:02Z</time>
      </trkpt>
      <trkpt lat="44.7789810" lon="7.0560610">
        <ele>2161.0</ele>
        <time>2017-07-26T09:12:04Z</time>
      </trkpt>
      <trkpt lat="44.7789190" lon="7.0561340">
        <ele>2160.6</ele>
        <time>2017-07-26T09:12:05Z</time>
      </trkpt>
      <trkpt lat="44.7787780" lon="7.0562710">
        <ele>2160.0</ele>
        <time>2017-07-26T09:12:07Z</time>
      </trkpt>
      <trkpt lat="44.7787000" lon="7.0563470">
        <ele>2159.4</ele>
        <time>2017-07-26T09:12:08Z</time>
      </trkpt>
      <trkpt lat="44.7786270" lon="7.0564320">
        <ele>2158.6</ele>
        <time>2017-07-26T09:12:09Z</time>
      </trkpt>
      <trkpt lat="44.7784990" lon="7.0566300">
        <ele>2157.4</ele>
        <time>2017-07-26T09:12:11Z</time>
      </trkpt>
      <trkpt lat="44.7784230" lon="7.0567190">
        <ele>2157.0</ele>
        <time>2017-07-26T09:12:12Z</time>
      </trkpt>
      <trkpt lat="44.7782400" lon="7.0568760">
        <ele>2155.8</ele>
        <time>2017-07-26T09:12:14Z</time>
      </trkpt>
      <trkpt lat="44.7781390" lon="7.0569550">
        <ele>2154.6</ele>
        <time>2017-07-26T09:12:15Z</time>
      </trkpt>
      <trkpt lat="44.7779280" lon="7.0570870">
        <ele>2153.2</ele>
        <time>2017-07-26T09:12:17Z</time>
      </trkpt>
      <trkpt lat="44.7777330" lon="7.0571900">
        <ele>2151.8</ele>
        <time>2017-07-26T09:12:19Z</time>
      </trkpt>
      <trkpt lat="44.7776520" lon="7.0572370">
        <ele>2150.8</ele>
        <time>2017-07-26T09:12:20Z</time>
      </trkpt>
      <trkpt lat="44.7775820" lon="7.0572650">
        <ele>2149.6</ele>
        <time>2017-07-26T09:12:21Z</time>
      </trkpt>
      <trkpt lat="44.7775010" lon="7.0572250">
        <ele>2148.0</ele>
        <time>2017-07-26T09:12:23Z</time>
      </trkpt>
      <trkpt lat="44.7775250" lon="7.0571310">
        <ele>2147.0</ele>
        <time>2017-07-26T09:12:26Z</time>
      </trkpt>
      <trkpt lat="44.7776240" lon="7.0570510">
        <ele>2145.8</ele>
        <time>2017-07-26T09:12:28Z</time>
      </trkpt>
      <trkpt lat="44.7776800" lon="7.0569920">
        <ele>2145.6</ele>
        <time>2017-07-26T09:12:29Z</time>
      </trkpt>
      <trkpt lat="44.7778060" lon="7.0567150">
        <ele>2144.4</ele>
        <time>2017-07-26T09:12:32Z</time>
      </trkpt>
      <trkpt lat="44.7779070" lon="7.0565160">
        <ele>2143.4</ele>
        <time>2017-07-26T09:12:34Z</time>
      </trkpt>
      <trkpt lat="44.7779800" lon="7.0563750">
        <ele>2141.6</ele>
        <time>2017-07-26T09:12:36Z</time>
      </trkpt>
      <trkpt lat="44.7779830" lon="7.0563070">
        <ele>2140.0</ele>
        <time>2017-07-26T09:12:38Z</time>
      </trkpt>
      <trkpt lat="44.7779460" lon="7.0563080">
        <ele>2139.4</ele>
        <time>2017-07-26T09:12:39Z</time>
      </trkpt>
      <trkpt lat="44.7779050" lon="7.0563630">
        <ele>2138.8</ele>
        <time>2017-07-26T09:12:40Z</time>
      </trkpt>
      <trkpt lat="44.7777870" lon="7.0564730">
        <ele>2136.0</ele>
        <time>2017-07-26T09:12:42Z</time>
      </trkpt>
      <trkpt lat="44.7777110" lon="7.0565250">
        <ele>2135.2</ele>
        <time>2017-07-26T09:12:43Z</time>
      </trkpt>
      <trkpt lat="44.7776280" lon="7.0565790">
        <ele>2134.6</ele>
        <time>2017-07-26T09:12:44Z</time>
      </trkpt>
      <trkpt lat="44.7774620" lon="7.0566710">
        <ele>2132.4</ele>
        <time>2017-07-26T09:12:46Z</time>
      </trkpt>
      <trkpt lat="44.7773780" lon="7.0566920">
        <ele>2130.8</ele>
        <time>2017-07-26T09:12:47Z</time>
      </trkpt>
      <trkpt lat="44.7772860" lon="7.0567160">
        <ele>2129.4</ele>
        <time>2017-07-26T09:12:48Z</time>
      </trkpt>
      <trkpt lat="44.7771000" lon="7.0567740">
        <ele>2127.8</ele>
        <time>2017-07-26T09:12:50Z</time>
      </trkpt>
      <trkpt lat="44.7770310" lon="7.0567870">
        <ele>2126.8</ele>
        <time>2017-07-26T09:12:51Z</time>
      </trkpt>
      <trkpt lat="44.7769790" lon="7.0567760">
        <ele>2125.2</ele>
        <time>2017-07-26T09:12:52Z</time>
      </trkpt>
      <trkpt lat="44.7769420" lon="7.0567390">
        <ele>2124.2</ele>
        <time>2017-07-26T09:12:53Z</time>
      </trkpt>
      <trkpt lat="44.7769240" lon="7.0567070">
        <ele>2123.6</ele>
        <time>2017-07-26T09:12:54Z</time>
      </trkpt>
      <trkpt lat="44.7769150" lon="7.0566700">
        <ele>2123.2</ele>
        <time>2017-07-26T09:12:55Z</time>
      </trkpt>
      <trkpt lat="44.7769240" lon="7.0565670">
        <ele>2121.8</ele>
        <time>2017-07-26T09:12:57Z</time>
      </trkpt>
      <trkpt lat="44.7769750" lon="7.0565010">
        <ele>2121.0</ele>
        <time>2017-07-26T09:12:58Z</time>
      </trkpt>
      <trkpt lat="44.7770460" lon="7.0564320">
        <ele>2120.6</ele>
        <time>2017-07-26T09:12:59Z</time>
      </trkpt>
      <trkpt lat="44.7771790" lon="7.0562470">
        <ele>2118.6</ele>
        <time>2017-07-26T09:13:01Z</time>
      </trkpt>
      <trkpt lat="44.7772380" lon="7.0561300">
        <ele>2117.8</ele>
        <time>2017-07-26T09:13:02Z</time>
      </trkpt>
      <trkpt lat="44.7772940" lon="7.0560190">
        <ele>2117.0</ele>
        <time>2017-07-26T09:13:03Z</time>
      </trkpt>
      <trkpt lat="44.7774130" lon="7.0557590">
        <ele>2114.2</ele>
        <time>2017-07-26T09:13:06Z</time>
      </trkpt>
      <trkpt lat="44.7774330" lon="7.0557080">
        <ele>2113.2</ele>
        <time>2017-07-26T09:13:07Z</time>
      </trkpt>
      <trkpt lat="44.7774520" lon="7.0556670">
        <ele>2112.2</ele>
        <time>2017-07-26T09:13:08Z</time>
      </trkpt>
      <trkpt lat="44.7774630" lon="7.0556710">
        <ele>2111.2</ele>
        <time>2017-07-26T09:13:09Z</time>
      </trkpt>
      <trkpt lat="44.7774560" lon="7.0557110">
        <ele>2110.4</ele>
        <time>2017-07-26T09:13:10Z</time>
      </trkpt>
      <trkpt lat="44.7774270" lon="7.0557630">
        <ele>2109.2</ele>
        <time>2017-07-26T09:13:11Z</time>
      </trkpt>
      <trkpt lat="44.7772880" lon="7.0558770">
        <ele>2107.4</ele>
        <time>2017-07-26T09:13:13Z</time>
      </trkpt>
      <trkpt lat="44.7772080" lon="7.0559270">
        <ele>2106.4</ele>
        <time>2017-07-26T09:13:14Z</time>
      </trkpt>
      <trkpt lat="44.7771220" lon="7.0559600">
        <ele>2105.2</ele>
        <time>2017-07-26T09:13:15Z</time>
      </trkpt>
      <trkpt lat="44.7770370" lon="7.0559620">
        <ele>2104.0</ele>
        <time>2017-07-26T09:13:16Z</time>
      </trkpt>
      <trkpt lat="44.7769490" lon="7.0559620">
        <ele>2103.0</ele>
        <time>2017-07-26T09:13:17Z</time>
      </trkpt>
      <trkpt lat="44.7768560" lon="7.0559330">
        <ele>2101.8</ele>
        <time>2017-07-26T09:13:18Z</time>
      </trkpt>
      <trkpt lat="44.7767610" lon="7.0559170">
        <ele>2100.6</ele>
        <time>2017-07-26T09:13:19Z</time>
      </trkpt>
      <trkpt lat="44.7765880" lon="7.0559680">
        <ele>2098.4</ele>
        <time>2017-07-26T09:13:21Z</time>
      </trkpt>
      <trkpt lat="44.7764100" lon="7.0559780">
        <ele>2096.8</ele>
        <time>2017-07-26T09:13:23Z</time>
      </trkpt>
      <trkpt lat="44.7763350" lon="7.0560290">
        <ele>2095.6</ele>
        <time>2017-07-26T09:13:24Z</time>
      </trkpt>
      <trkpt lat="44.7762610" lon="7.0560810">
        <ele>2094.4</ele>
        <time>2017-07-26T09:13:25Z</time>
      </trkpt>
      <trkpt lat="44.7761820" lon="7.0561010">
        <ele>2093.0</ele>
        <time>2017-07-26T09:13:26Z</time>
      </trkpt>
      <trkpt lat="44.7761010" lon="7.0561030">
        <ele>2092.0</ele>
        <time>2017-07-26T09:13:27Z</time>
      </trkpt>
      <trkpt lat="44.7760170" lon="7.0560970">
        <ele>2090.8</ele>
        <time>2017-07-26T09:13:28Z</time>
      </trkpt>
      <trkpt lat="44.7759280" lon="7.0560870">
        <ele>2089.6</ele>
        <time>2017-07-26T09:13:29Z</time>
      </trkpt>
      <trkpt lat="44.7758330" lon="7.0560830">
        <ele>2087.8</ele>
        <time>2017-07-26T09:13:30Z</time>
      </trkpt>
      <trkpt lat="44.7757390" lon="7.0560870">
        <ele>2086.2</ele>
        <time>2017-07-26T09:13:31Z</time>
      </trkpt>
      <trkpt lat="44.7756420" lon="7.0560990">
        <ele>2085.0</ele>
        <time>2017-07-26T09:13:32Z</time>
      </trkpt>
      <trkpt lat="44.7755470" lon="7.0561120">
        <ele>2083.8</ele>
        <time>2017-07-26T09:13:33Z</time>
      </trkpt>
      <trkpt lat="44.7754660" lon="7.0561290">
        <ele>2082.8</ele>
        <time>2017-07-26T09:13:34Z</time>
      </trkpt>
      <trkpt lat="44.7753910" lon="7.0561270">
        <ele>2081.2</ele>
        <time>2017-07-26T09:13:35Z</time>
      </trkpt>
      <trkpt lat="44.7753170" lon="7.0560930">
        <ele>2080.2</ele>
        <time>2017-07-26T09:13:36Z</time>
      </trkpt>
      <trkpt lat="44.7752420" lon="7.0560380">
        <ele>2079.0</ele>
        <time>2017-07-26T09:13:37Z</time>
      </trkpt>
      <trkpt lat="44.7751680" lon="7.0559790">
        <ele>2077.6</ele>
        <time>2017-07-26T09:13:38Z</time>
      </trkpt>
      <trkpt lat="44.7750930" lon="7.0559310">
        <ele>2075.8</ele>
        <time>2017-07-26T09:13:39Z</time>
      </trkpt>
      <trkpt lat="44.7750190" lon="7.0558940">
        <ele>2074.4</ele>
        <time>2017-07-26T09:13:40Z</time>
      </trkpt>
      <trkpt lat="44.7749510" lon="7.0558750">
        <ele>2073.0</ele>
        <time>2017-07-26T09:13:41Z</time>
      </trkpt>
      <trkpt lat="44.7748800" lon="7.0558390">
        <ele>2072.0</ele>
        <time>2017-07-26T09:13:42Z</time>
      </trkpt>
      <trkpt lat="44.7748100" lon="7.0557930">
        <ele>2070.6</ele>
        <time>2017-07-26T09:13:43Z</time>
      </trkpt>
      <trkpt lat="44.7747460" lon="7.0557470">
        <ele>2069.6</ele>
        <time>2017-07-26T09:13:44Z</time>
      </trkpt>
      <trkpt lat="44.7746960" lon="7.0556980">
        <ele>2068.4</ele>
        <time>2017-07-26T09:13:45Z</time>
      </trkpt>
      <trkpt lat="44.7746550" lon="7.0556390">
        <ele>2066.6</ele>
        <time>2017-07-26T09:13:47Z</time>
      </trkpt>
      <trkpt lat="44.7746140" lon="7.0556820">
        <ele>2065.0</ele>
        <time>2017-07-26T09:13:49Z</time>
      </trkpt>
      <trkpt lat="44.7745960" lon="7.0556890">
        <ele>2064.2</ele>
        <time>2017-07-26T09:13:50Z</time>
      </trkpt>
      <trkpt lat="44.7746020" lon="7.0556870">
        <ele>2063.0</ele>
        <time>2017-07-26T09:13:51Z</time>
      </trkpt>
      <trkpt lat="44.7746180" lon="7.0556730">
        <ele>2061.8</ele>
        <time>2017-07-26T09:13:52Z</time>
      </trkpt>
      <trkpt lat="44.7746320" lon="7.0556550">
        <ele>2060.8</ele>
        <time>2017-07-26T09:13:53Z</time>
      </trkpt>
      <trkpt lat="44.7746450" lon="7.0556390">
        <ele>2059.0</ele>
        <time>2017-07-26T09:13:54Z</time>
      </trkpt>
      <trkpt lat="44.7747090" lon="7.0555870">
        <ele>2057.6</ele>
        <time>2017-07-26T09:13:56Z</time>
      </trkpt>
      <trkpt lat="44.7747110" lon="7.0555620">
        <ele>2056.6</ele>
        <time>2017-07-26T09:13:57Z</time>
      </trkpt>
      <trkpt lat="44.7747480" lon="7.0555550">
        <ele>2055.4</ele>
        <time>2017-07-26T09:13:58Z</time>
      </trkpt>
      <trkpt lat="44.7747290" lon="7.0555180">
        <ele>2053.8</ele>
        <time>2017-07-26T09:14:00Z</time>
      </trkpt>
      <trkpt lat="44.7746910" lon="7.0554810">
        <ele>2052.8</ele>
        <time>2017-07-26T09:14:01Z</time>
      </trkpt>
      <trkpt lat="44.7746440" lon="7.0554290">
        <ele>2051.4</ele>
        <time>2017-07-26T09:14:02Z</time>
      </trkpt>
      <trkpt lat="44.7745820" lon="7.0553640">
        <ele>2050.4</ele>
        <time>2017-07-26T09:14:03Z</time>
      </trkpt>
      <trkpt lat="44.7744710" lon="7.0551840">
        <ele>2048.4</ele>
        <time>2017-07-26T09:14:05Z</time>
      </trkpt>
      <trkpt lat="44.7744130" lon="7.0550980">
        <ele>2047.6</ele>
        <time>2017-07-26T09:14:06Z</time>
      </trkpt>
      <trkpt lat="44.7743560" lon="7.0550100">
        <ele>2046.6</ele>
        <time>2017-07-26T09:14:07Z</time>
      </trkpt>
      <trkpt lat="44.7742980" lon="7.0549290">
        <ele>2046.0</ele>
        <time>2017-07-26T09:14:08Z</time>
      </trkpt>
      <trkpt lat="44.7742290" lon="7.0548560">
        <ele>2045.0</ele>
        <time>2017-07-26T09:14:09Z</time>
      </trkpt>
      <trkpt lat="44.7741520" lon="7.0547890">
        <ele>2044.0</ele>
        <time>2017-07-26T09:14:10Z</time>
      </trkpt>
      <trkpt lat="44.7740660" lon="7.0547290">
        <ele>2042.6</ele>
        <time>2017-07-26T09:14:11Z</time>
      </trkpt>
      <trkpt lat="44.7739800" lon="7.0546620">
        <ele>2041.2</ele>
        <time>2017-07-26T09:14:12Z</time>
      </trkpt>
      <trkpt lat="44.7737990" lon="7.0545230">
        <ele>2039.6</ele>
        <time>2017-07-26T09:14:14Z</time>
      </trkpt>
      <trkpt lat="44.7737130" lon="7.0544390">
        <ele>2038.6</ele>
        <time>2017-07-26T09:14:15Z</time>
      </trkpt>
      <trkpt lat="44.7736230" lon="7.0543600">
        <ele>2037.4</ele>
        <time>2017-07-26T09:14:16Z</time>
      </trkpt>
      <trkpt lat="44.7735480" lon="7.0542870">
        <ele>2036.2</ele>
        <time>2017-07-26T09:14:17Z</time>
      </trkpt>
      <trkpt lat="44.7734760" lon="7.0542240">
        <ele>2033.8</ele>
        <time>2017-07-26T09:14:18Z</time>
      </trkpt>
      <trkpt lat="44.7733570" lon="7.0541280">
        <ele>2032.0</ele>
        <time>2017-07-26T09:14:20Z</time>
      </trkpt>
      <trkpt lat="44.7732240" lon="7.0540540">
        <ele>2030.2</ele>
        <time>2017-07-26T09:14:22Z</time>
      </trkpt>
      <trkpt lat="44.7731580" lon="7.0540460">
        <ele>2029.0</ele>
        <time>2017-07-26T09:14:23Z</time>
      </trkpt>
      <trkpt lat="44.7730850" lon="7.0540500">
        <ele>2027.6</ele>
        <time>2017-07-26T09:14:24Z</time>
      </trkpt>
      <trkpt lat="44.7730250" lon="7.0540420">
        <ele>2026.2</ele>
        <time>2017-07-26T09:14:25Z</time>
      </trkpt>
      <trkpt lat="44.7729630" lon="7.0540160">
        <ele>2025.0</ele>
        <time>2017-07-26T09:14:26Z</time>
      </trkpt>
      <trkpt lat="44.7728910" lon="7.0539770">
        <ele>2024.0</ele>
        <time>2017-07-26T09:14:27Z</time>
      </trkpt>
      <trkpt lat="44.7728190" lon="7.0539220">
        <ele>2023.0</ele>
        <time>2017-07-26T09:14:28Z</time>
      </trkpt>
      <trkpt lat="44.7727520" lon="7.0538580">
        <ele>2021.8</ele>
        <time>2017-07-26T09:14:29Z</time>
      </trkpt>
      <trkpt lat="44.7727140" lon="7.0537880">
        <ele>2020.6</ele>
        <time>2017-07-26T09:14:30Z</time>
      </trkpt>
      <trkpt lat="44.7726900" lon="7.0537200">
        <ele>2019.4</ele>
        <time>2017-07-26T09:14:31Z</time>
      </trkpt>
      <trkpt lat="44.7726590" lon="7.0536730">
        <ele>2017.8</ele>
        <time>2017-07-26T09:14:32Z</time>
      </trkpt>
      <trkpt lat="44.7726010" lon="7.0536330">
        <ele>2016.4</ele>
        <time>2017-07-26T09:14:33Z</time>
      </trkpt>
      <trkpt lat="44.7724690" lon="7.0536160">
        <ele>2014.2</ele>
        <time>2017-07-26T09:14:35Z</time>
      </trkpt>
      <trkpt lat="44.7724030" lon="7.0536040">
        <ele>2013.0</ele>
        <time>2017-07-26T09:14:36Z</time>
      </trkpt>
      <trkpt lat="44.7723590" lon="7.0535570">
        <ele>2011.4</ele>
        <time>2017-07-26T09:14:37Z</time>
      </trkpt>
      <trkpt lat="44.7723130" lon="7.0535100">
        <ele>2010.0</ele>
        <time>2017-07-26T09:14:38Z</time>
      </trkpt>
      <trkpt lat="44.7722650" lon="7.0534510">
        <ele>2009.0</ele>
        <time>2017-07-26T09:14:39Z</time>
      </trkpt>
      <trkpt lat="44.7722180" lon="7.0533790">
        <ele>2008.2</ele>
        <time>2017-07-26T09:14:40Z</time>
      </trkpt>
      <trkpt lat="44.7721140" lon="7.0532110">
        <ele>2005.6</ele>
        <time>2017-07-26T09:14:42Z</time>
      </trkpt>
      <trkpt lat="44.7720720" lon="7.0531130">
        <ele>2004.6</ele>
        <time>2017-07-26T09:14:43Z</time>
      </trkpt>
      <trkpt lat="44.7720150" lon="7.0530200">
        <ele>2003.6</ele>
        <time>2017-07-26T09:14:44Z</time>
      </trkpt>
      <trkpt lat="44.7719530" lon="7.0529220">
        <ele>2002.4</ele>
        <time>2017-07-26T09:14:45Z</time>
      </trkpt>
      <trkpt lat="44.7718190" lon="7.0527070">
        <ele>2001.0</ele>
        <time>2017-07-26T09:14:47Z</time>
      </trkpt>
      <trkpt lat="44.7717440" lon="7.0525930">
        <ele>2000.4</ele>
        <time>2017-07-26T09:14:48Z</time>
      </trkpt>
      <trkpt lat="44.7716770" lon="7.0524880">
        <ele>1999.4</ele>
        <time>2017-07-26T09:14:49Z</time>
      </trkpt>
      <trkpt lat="44.7715400" lon="7.0522990">
        <ele>1997.4</ele>
        <time>2017-07-26T09:14:51Z</time>
      </trkpt>
      <trkpt lat="44.7714900" lon="7.0521940">
        <ele>1996.2</ele>
        <time>2017-07-26T09:14:52Z</time>
      </trkpt>
      <trkpt lat="44.7714510" lon="7.0520790">
        <ele>1995.2</ele>
        <time>2017-07-26T09:14:53Z</time>
      </trkpt>
      <trkpt lat="44.7713760" lon="7.0518570">
        <ele>1994.2</ele>
        <time>2017-07-26T09:14:55Z</time>
      </trkpt>
      <trkpt lat="44.7713490" lon="7.0517780">
        <ele>1993.4</ele>
        <time>2017-07-26T09:14:56Z</time>
      </trkpt>
      <trkpt lat="44.7713320" lon="7.0517310">
        <ele>1992.2</ele>
        <time>2017-07-26T09:14:57Z</time>
      </trkpt>
      <trkpt lat="44.7713300" lon="7.0517170">
        <ele>1991.0</ele>
        <time>2017-07-26T09:14:58Z</time>
      </trkpt>
      <trkpt lat="44.7713320" lon="7.0517350">
        <ele>1990.0</ele>
        <time>2017-07-26T09:14:59Z</time>
      </trkpt>
      <trkpt lat="44.7713520" lon="7.0517950">
        <ele>1989.0</ele>
        <time>2017-07-26T09:15:00Z</time>
      </trkpt>
      <trkpt lat="44.7713630" lon="7.0518640">
        <ele>1988.2</ele>
        <time>2017-07-26T09:15:01Z</time>
      </trkpt>
      <trkpt lat="44.7714560" lon="7.0520290">
        <ele>1986.4</ele>
        <time>2017-07-26T09:15:03Z</time>
      </trkpt>
      <trkpt lat="44.7715520" lon="7.0522170">
        <ele>1984.6</ele>
        <time>2017-07-26T09:15:05Z</time>
      </trkpt>
      <trkpt lat="44.7715920" lon="7.0523100">
        <ele>1983.0</ele>
        <time>2017-07-26T09:15:06Z</time>
      </trkpt>
      <trkpt lat="44.7716420" lon="7.0523950">
        <ele>1982.2</ele>
        <time>2017-07-26T09:15:07Z</time>
      </trkpt>
      <trkpt lat="44.7717030" lon="7.0524610">
        <ele>1981.4</ele>
        <time>2017-07-26T09:15:08Z</time>
      </trkpt>
      <trkpt lat="44.7718590" lon="7.0525090">
        <ele>1980.0</ele>
        <time>2017-07-26T09:15:10Z</time>
      </trkpt>
      <trkpt lat="44.7719450" lon="7.0525300">
        <ele>1979.2</ele>
        <time>2017-07-26T09:15:11Z</time>
      </trkpt>
      <trkpt lat="44.7720320" lon="7.0525320">
        <ele>1978.2</ele>
        <time>2017-07-26T09:15:12Z</time>
      </trkpt>
      <trkpt lat="44.7721810" lon="7.0524740">
        <ele>1976.4</ele>
        <time>2017-07-26T09:15:14Z</time>
      </trkpt>
      <trkpt lat="44.7722890" lon="7.0523820">
        <ele>1975.4</ele>
        <time>2017-07-26T09:15:16Z</time>
      </trkpt>
      <trkpt lat="44.7723420" lon="7.0523190">
        <ele>1974.6</ele>
        <time>2017-07-26T09:15:17Z</time>
      </trkpt>
      <trkpt lat="44.7723650" lon="7.0522300">
        <ele>1973.8</ele>
        <time>2017-07-26T09:15:18Z</time>
      </trkpt>
      <trkpt lat="44.7723440" lon="7.0520410">
        <ele>1972.2</ele>
        <time>2017-07-26T09:15:20Z</time>
      </trkpt>
      <trkpt lat="44.7723220" lon="7.0519550">
        <ele>1971.2</ele>
        <time>2017-07-26T09:15:21Z</time>
      </trkpt>
      <trkpt lat="44.7723150" lon="7.0518920">
        <ele>1969.6</ele>
        <time>2017-07-26T09:15:23Z</time>
      </trkpt>
      <trkpt lat="44.7723520" lon="7.0518950">
        <ele>1968.0</ele>
        <time>2017-07-26T09:15:25Z</time>
      </trkpt>
      <trkpt lat="44.7723790" lon="7.0518920">
        <ele>1967.2</ele>
        <time>2017-07-26T09:15:26Z</time>
      </trkpt>
      <trkpt lat="44.7724520" lon="7.0518960">
        <ele>1966.2</ele>
        <time>2017-07-26T09:15:27Z</time>
      </trkpt>
      <trkpt lat="44.7725290" lon="7.0519010">
        <ele>1965.2</ele>
        <time>2017-07-26T09:15:28Z</time>
      </trkpt>
      <trkpt lat="44.7726180" lon="7.0519050">
        <ele>1964.4</ele>
        <time>2017-07-26T09:15:29Z</time>
      </trkpt>
      <trkpt lat="44.7727160" lon="7.0519200">
        <ele>1962.6</ele>
        <time>2017-07-26T09:15:30Z</time>
      </trkpt>
      <trkpt lat="44.7728060" lon="7.0519520">
        <ele>1961.4</ele>
        <time>2017-07-26T09:15:31Z</time>
      </trkpt>
      <trkpt lat="44.7728840" lon="7.0520010">
        <ele>1960.2</ele>
        <time>2017-07-26T09:15:32Z</time>
      </trkpt>
      <trkpt lat="44.7730030" lon="7.0521330">
        <ele>1958.2</ele>
        <time>2017-07-26T09:15:34Z</time>
      </trkpt>
      <trkpt lat="44.7730530" lon="7.0521860">
        <ele>1957.2</ele>
        <time>2017-07-26T09:15:35Z</time>
      </trkpt>
      <trkpt lat="44.7731040" lon="7.0522400">
        <ele>1956.0</ele>
        <time>2017-07-26T09:15:36Z</time>
      </trkpt>
      <trkpt lat="44.7733060" lon="7.0525270">
        <ele>1955.4</ele>
        <time>2017-07-26T09:15:37Z</time>
      </trkpt>
      <trkpt lat="44.7735080" lon="7.0528150">
        <ele>1954.4</ele>
        <time>2017-07-26T09:15:38Z</time>
      </trkpt>
      <trkpt lat="44.7737290" lon="7.0526160">
        <ele>1953.6</ele>
        <time>2017-07-26T09:15:39Z</time>
      </trkpt>
      <trkpt lat="44.7739490" lon="7.0524160">
        <ele>1952.2</ele>
        <time>2017-07-26T09:15:40Z</time>
      </trkpt>
      <trkpt lat="44.7741460" lon="7.0523510">
        <ele>1951.0</ele>
        <time>2017-07-26T09:15:42Z</time>
      </trkpt>
      <trkpt lat="44.7743340" lon="7.0521810">
        <ele>1950.0</ele>
        <time>2017-07-26T09:15:44Z</time>
      </trkpt>
      <trkpt lat="44.7744850" lon="7.0520260">
        <ele>1948.8</ele>
        <time>2017-07-26T09:15:46Z</time>
      </trkpt>
      <trkpt lat="44.7746180" lon="7.0518650">
        <ele>1947.8</ele>
        <time>2017-07-26T09:15:48Z</time>
      </trkpt>
      <trkpt lat="44.7746840" lon="7.0517920">
        <ele>1947.0</ele>
        <time>2017-07-26T09:15:49Z</time>
      </trkpt>
      <trkpt lat="44.7747460" lon="7.0517460">
        <ele>1946.2</ele>
        <time>2017-07-26T09:15:50Z</time>
      </trkpt>
      <trkpt lat="44.7748880" lon="7.0516730">
        <ele>1944.6</ele>
        <time>2017-07-26T09:15:52Z</time>
      </trkpt>
      <trkpt lat="44.7750540" lon="7.0517580">
        <ele>1942.4</ele>
        <time>2017-07-26T09:15:54Z</time>
      </trkpt>
      <trkpt lat="44.7751480" lon="7.0518220">
        <ele>1941.0</ele>
        <time>2017-07-26T09:15:55Z</time>
      </trkpt>
      <trkpt lat="44.7752440" lon="7.0518710">
        <ele>1940.0</ele>
        <time>2017-07-26T09:15:56Z</time>
      </trkpt>
      <trkpt lat="44.7753360" lon="7.0518910">
        <ele>1939.6</ele>
        <time>2017-07-26T09:15:57Z</time>
      </trkpt>
      <trkpt lat="44.7754280" lon="7.0518920">
        <ele>1938.6</ele>
        <time>2017-07-26T09:15:58Z</time>
      </trkpt>
      <trkpt lat="44.7755080" lon="7.0518770">
        <ele>1937.8</ele>
        <time>2017-07-26T09:15:59Z</time>
      </trkpt>
      <trkpt lat="44.7755960" lon="7.0518690">
        <ele>1936.6</ele>
        <time>2017-07-26T09:16:00Z</time>
      </trkpt>
      <trkpt lat="44.7757440" lon="7.0518210">
        <ele>1934.8</ele>
        <time>2017-07-26T09:16:02Z</time>
      </trkpt>
      <trkpt lat="44.7758250" lon="7.0518240">
        <ele>1934.2</ele>
        <time>2017-07-26T09:16:03Z</time>
      </trkpt>
      <trkpt lat="44.7759070" lon="7.0518220">
        <ele>1933.0</ele>
        <time>2017-07-26T09:16:04Z</time>
      </trkpt>
      <trkpt lat="44.7759870" lon="7.0518210">
        <ele>1931.8</ele>
        <time>2017-07-26T09:16:05Z</time>
      </trkpt>
      <trkpt lat="44.7760680" lon="7.0518340">
        <ele>1930.2</ele>
        <time>2017-07-26T09:16:06Z</time>
      </trkpt>
      <trkpt lat="44.7761500" lon="7.0518240">
        <ele>1929.2</ele>
        <time>2017-07-26T09:16:07Z</time>
      </trkpt>
      <trkpt lat="44.7762260" lon="7.0518120">
        <ele>1928.2</ele>
        <time>2017-07-26T09:16:08Z</time>
      </trkpt>
      <trkpt lat="44.7763000" lon="7.0517950">
        <ele>1927.2</ele>
        <time>2017-07-26T09:16:09Z</time>
      </trkpt>
      <trkpt lat="44.7763720" lon="7.0517770">
        <ele>1926.4</ele>
        <time>2017-07-26T09:16:10Z</time>
      </trkpt>
      <trkpt lat="44.7764420" lon="7.0517630">
        <ele>1925.0</ele>
        <time>2017-07-26T09:16:11Z</time>
      </trkpt>
      <trkpt lat="44.7764990" lon="7.0517450">
        <ele>1924.0</ele>
        <time>2017-07-26T09:16:12Z</time>
      </trkpt>
      <trkpt lat="44.7765460" lon="7.0517240">
        <ele>1922.6</ele>
        <time>2017-07-26T09:16:13Z</time>
      </trkpt>
      <trkpt lat="44.7765960" lon="7.0516950">
        <ele>1921.6</ele>
        <time>2017-07-26T09:16:14Z</time>
      </trkpt>
      <trkpt lat="44.7766460" lon="7.0516780">
        <ele>1920.6</ele>
        <time>2017-07-26T09:16:15Z</time>
      </trkpt>
      <trkpt lat="44.7766940" lon="7.0516870">
        <ele>1919.6</ele>
        <time>2017-07-26T09:16:16Z</time>
      </trkpt>
      <trkpt lat="44.7767810" lon="7.0517090">
        <ele>1916.8</ele>
        <time>2017-07-26T09:16:18Z</time>
      </trkpt>
      <trkpt lat="44.7768210" lon="7.0516990">
        <ele>1915.6</ele>
        <time>2017-07-26T09:16:19Z</time>
      </trkpt>
      <trkpt lat="44.7768770" lon="7.0517570">
        <ele>1914.4</ele>
        <time>2017-07-26T09:16:20Z</time>
      </trkpt>
      <trkpt lat="44.7769220" lon="7.0517530">
        <ele>1913.6</ele>
        <time>2017-07-26T09:16:21Z</time>
      </trkpt>
      <trkpt lat="44.7769630" lon="7.0517120">
        <ele>1912.4</ele>
        <time>2017-07-26T09:16:22Z</time>
      </trkpt>
      <trkpt lat="44.7770020" lon="7.0516700">
        <ele>1911.2</ele>
        <time>2017-07-26T09:16:23Z</time>
      </trkpt>
      <trkpt lat="44.7770350" lon="7.0516330">
        <ele>1910.0</ele>
        <time>2017-07-26T09:16:24Z</time>
      </trkpt>
      <trkpt lat="44.7770640" lon="7.0516040">
        <ele>1909.0</ele>
        <time>2017-07-26T09:16:25Z</time>
      </trkpt>
      <trkpt lat="44.7770930" lon="7.0515820">
        <ele>1908.0</ele>
        <time>2017-07-26T09:16:26Z</time>
      </trkpt>
      <trkpt lat="44.7771190" lon="7.0515720">
        <ele>1906.4</ele>
        <time>2017-07-26T09:16:27Z</time>
      </trkpt>
      <trkpt lat="44.7771430" lon="7.0515710">
        <ele>1905.4</ele>
        <time>2017-07-26T09:16:28Z</time>
      </trkpt>
      <trkpt lat="44.7771650" lon="7.0515610">
        <ele>1904.0</ele>
        <time>2017-07-26T09:16:29Z</time>
      </trkpt>
      <trkpt lat="44.7772100" lon="7.0515430">
        <ele>1902.0</ele>
        <time>2017-07-26T09:16:31Z</time>
      </trkpt>
      <trkpt lat="44.7771860" lon="7.0515060">
        <ele>1900.8</ele>
        <time>2017-07-26T09:16:32Z</time>
      </trkpt>
      <trkpt lat="44.7771680" lon="7.0514630">
        <ele>1899.6</ele>
        <time>2017-07-26T09:16:33Z</time>
      </trkpt>
      <trkpt lat="44.7771530" lon="7.0514430">
        <ele>1898.2</ele>
        <time>2017-07-26T09:16:34Z</time>
      </trkpt>
      <trkpt lat="44.7771370" lon="7.0514330">
        <ele>1897.0</ele>
        <time>2017-07-26T09:16:35Z</time>
      </trkpt>
      <trkpt lat="44.7771220" lon="7.0514120">
        <ele>1895.6</ele>
        <time>2017-07-26T09:16:36Z</time>
      </trkpt>
      <trkpt lat="44.7770970" lon="7.0513360">
        <ele>1894.4</ele>
        <time>2017-07-26T09:16:38Z</time>
      </trkpt>
      <trkpt lat="44.7770890" lon="7.0513050">
        <ele>1893.4</ele>
        <time>2017-07-26T09:16:39Z</time>
      </trkpt>
      <trkpt lat="44.7770830" lon="7.0512710">
        <ele>1892.2</ele>
        <time>2017-07-26T09:16:40Z</time>
      </trkpt>
      <trkpt lat="44.7770790" lon="7.0512290">
        <ele>1891.0</ele>
        <time>2017-07-26T09:16:41Z</time>
      </trkpt>
      <trkpt lat="44.7770360" lon="7.0511950">
        <ele>1888.2</ele>
        <time>2017-07-26T09:16:42Z</time>
      </trkpt>
      <trkpt lat="44.7769690" lon="7.0511740">
        <ele>1886.8</ele>
        <time>2017-07-26T09:16:43Z</time>
      </trkpt>
      <trkpt lat="44.7768920" lon="7.0511590">
        <ele>1885.4</ele>
        <time>2017-07-26T09:16:44Z</time>
      </trkpt>
      <trkpt lat="44.7768160" lon="7.0511220">
        <ele>1884.0</ele>
        <time>2017-07-26T09:16:45Z</time>
      </trkpt>
      <trkpt lat="44.7767400" lon="7.0510770">
        <ele>1882.8</ele>
        <time>2017-07-26T09:16:46Z</time>
      </trkpt>
      <trkpt lat="44.7766050" lon="7.0509990">
        <ele>1880.8</ele>
        <time>2017-07-26T09:16:48Z</time>
      </trkpt>
      <trkpt lat="44.7765530" lon="7.0509540">
        <ele>1879.6</ele>
        <time>2017-07-26T09:16:49Z</time>
      </trkpt>
      <trkpt lat="44.7765080" lon="7.0508980">
        <ele>1878.2</ele>
        <time>2017-07-26T09:16:50Z</time>
      </trkpt>
      <trkpt lat="44.7764200" lon="7.0508300">
        <ele>1877.2</ele>
        <time>2017-07-26T09:16:51Z</time>
      </trkpt>
      <trkpt lat="44.7762810" lon="7.0507320">
        <ele>1876.4</ele>
        <time>2017-07-26T09:16:52Z</time>
      </trkpt>
      <trkpt lat="44.7761680" lon="7.0506160">
        <ele>1875.4</ele>
        <time>2017-07-26T09:16:53Z</time>
      </trkpt>
      <trkpt lat="44.7761010" lon="7.0505120">
        <ele>1874.0</ele>
        <time>2017-07-26T09:16:54Z</time>
      </trkpt>
      <trkpt lat="44.7760590" lon="7.0504130">
        <ele>1873.0</ele>
        <time>2017-07-26T09:16:55Z</time>
      </trkpt>
      <trkpt lat="44.7760210" lon="7.0503160">
        <ele>1871.8</ele>
        <time>2017-07-26T09:16:56Z</time>
      </trkpt>
      <trkpt lat="44.7759710" lon="7.0502300">
        <ele>1871.4</ele>
        <time>2017-07-26T09:16:57Z</time>
      </trkpt>
      <trkpt lat="44.7759110" lon="7.0501470">
        <ele>1870.2</ele>
        <time>2017-07-26T09:16:58Z</time>
      </trkpt>
      <trkpt lat="44.7756490" lon="7.0499160">
        <ele>1868.6</ele>
        <time>2017-07-26T09:17:00Z</time>
      </trkpt>
      <trkpt lat="44.7753460" lon="7.0496840">
        <ele>1866.8</ele>
        <time>2017-07-26T09:17:02Z</time>
      </trkpt>
      <trkpt lat="44.7752960" lon="7.0496000">
        <ele>1865.6</ele>
        <time>2017-07-26T09:17:03Z</time>
      </trkpt>
      <trkpt lat="44.7752200" lon="7.0494880">
        <ele>1864.6</ele>
        <time>2017-07-26T09:17:04Z</time>
      </trkpt>
      <trkpt lat="44.7751790" lon="7.0493810">
        <ele>1863.4</ele>
        <time>2017-07-26T09:17:05Z</time>
      </trkpt>
      <trkpt lat="44.7751000" lon="7.0492650">
        <ele>1861.0</ele>
        <time>2017-07-26T09:17:06Z</time>
      </trkpt>
      <trkpt lat="44.7749530" lon="7.0490470">
        <ele>1859.0</ele>
        <time>2017-07-26T09:17:08Z</time>
      </trkpt>
      <trkpt lat="44.7748700" lon="7.0489610">
        <ele>1858.4</ele>
        <time>2017-07-26T09:17:09Z</time>
      </trkpt>
      <trkpt lat="44.7748040" lon="7.0488840">
        <ele>1857.4</ele>
        <time>2017-07-26T09:17:10Z</time>
      </trkpt>
      <trkpt lat="44.7747390" lon="7.0487880">
        <ele>1856.6</ele>
        <time>2017-07-26T09:17:11Z</time>
      </trkpt>
      <trkpt lat="44.7746430" lon="7.0486760">
        <ele>1855.2</ele>
        <time>2017-07-26T09:17:12Z</time>
      </trkpt>
      <trkpt lat="44.7745730" lon="7.0485860">
        <ele>1854.2</ele>
        <time>2017-07-26T09:17:13Z</time>
      </trkpt>
      <trkpt lat="44.7745170" lon="7.0484950">
        <ele>1853.0</ele>
        <time>2017-07-26T09:17:14Z</time>
      </trkpt>
      <trkpt lat="44.7744580" lon="7.0483990">
        <ele>1852.0</ele>
        <time>2017-07-26T09:17:15Z</time>
      </trkpt>
      <trkpt lat="44.7743350" lon="7.0482240">
        <ele>1850.0</ele>
        <time>2017-07-26T09:17:17Z</time>
      </trkpt>
      <trkpt lat="44.7741890" lon="7.0480910">
        <ele>1848.4</ele>
        <time>2017-07-26T09:17:19Z</time>
      </trkpt>
      <trkpt lat="44.7740710" lon="7.0479880">
        <ele>1847.2</ele>
        <time>2017-07-26T09:17:21Z</time>
      </trkpt>
      <trkpt lat="44.7739600" lon="7.0478900">
        <ele>1845.4</ele>
        <time>2017-07-26T09:17:23Z</time>
      </trkpt>
      <trkpt lat="44.7737910" lon="7.0477850">
        <ele>1843.6</ele>
        <time>2017-07-26T09:17:25Z</time>
      </trkpt>
      <trkpt lat="44.7736510" lon="7.0477490">
        <ele>1842.2</ele>
        <time>2017-07-26T09:17:26Z</time>
      </trkpt>
      <trkpt lat="44.7735390" lon="7.0476950">
        <ele>1841.0</ele>
        <time>2017-07-26T09:17:27Z</time>
      </trkpt>
      <trkpt lat="44.7733750" lon="7.0475760">
        <ele>1839.4</ele>
        <time>2017-07-26T09:17:29Z</time>
      </trkpt>
      <trkpt lat="44.7732660" lon="7.0474340">
        <ele>1836.6</ele>
        <time>2017-07-26T09:17:31Z</time>
      </trkpt>
      <trkpt lat="44.7731630" lon="7.0472940">
        <ele>1835.0</ele>
        <time>2017-07-26T09:17:33Z</time>
      </trkpt>
      <trkpt lat="44.7731130" lon="7.0472430">
        <ele>1834.6</ele>
        <time>2017-07-26T09:17:34Z</time>
      </trkpt>
      <trkpt lat="44.7730640" lon="7.0472060">
        <ele>1833.4</ele>
        <time>2017-07-26T09:17:35Z</time>
      </trkpt>
      <trkpt lat="44.7730180" lon="7.0471660">
        <ele>1832.4</ele>
        <time>2017-07-26T09:17:36Z</time>
      </trkpt>
      <trkpt lat="44.7729760" lon="7.0471180">
        <ele>1830.6</ele>
        <time>2017-07-26T09:17:37Z</time>
      </trkpt>
      <trkpt lat="44.7729360" lon="7.0470860">
        <ele>1829.6</ele>
        <time>2017-07-26T09:17:38Z</time>
      </trkpt>
      <trkpt lat="44.7728990" lon="7.0470790">
        <ele>1828.4</ele>
        <time>2017-07-26T09:17:39Z</time>
      </trkpt>
      <trkpt lat="44.7728660" lon="7.0470750">
        <ele>1827.2</ele>
        <time>2017-07-26T09:17:40Z</time>
      </trkpt>
      <trkpt lat="44.7728360" lon="7.0470670">
        <ele>1826.4</ele>
        <time>2017-07-26T09:17:41Z</time>
      </trkpt>
      <trkpt lat="44.7728080" lon="7.0470620">
        <ele>1825.4</ele>
        <time>2017-07-26T09:17:42Z</time>
      </trkpt>
      <trkpt lat="44.7727840" lon="7.0470470">
        <ele>1824.2</ele>
        <time>2017-07-26T09:17:43Z</time>
      </trkpt>
      <trkpt lat="44.7727610" lon="7.0470400">
        <ele>1822.8</ele>
        <time>2017-07-26T09:17:44Z</time>
      </trkpt>
      <trkpt lat="44.7727420" lon="7.0470570">
        <ele>1821.8</ele>
        <time>2017-07-26T09:17:45Z</time>
      </trkpt>
      <trkpt lat="44.7727270" lon="7.0471140">
        <ele>1820.4</ele>
        <time>2017-07-26T09:17:46Z</time>
      </trkpt>
      <trkpt lat="44.7728190" lon="7.0472060">
        <ele>1818.8</ele>
        <time>2017-07-26T09:17:47Z</time>
      </trkpt>
      <trkpt lat="44.7729300" lon="7.0472880">
        <ele>1817.6</ele>
        <time>2017-07-26T09:17:48Z</time>
      </trkpt>
      <trkpt lat="44.7730310" lon="7.0473600">
        <ele>1816.4</ele>
        <time>2017-07-26T09:17:49Z</time>
      </trkpt>
      <trkpt lat="44.7731620" lon="7.0474740">
        <ele>1814.4</ele>
        <time>2017-07-26T09:17:51Z</time>
      </trkpt>
      <trkpt lat="44.7732260" lon="7.0474970">
        <ele>1813.2</ele>
        <time>2017-07-26T09:17:52Z</time>
      </trkpt>
      <trkpt lat="44.7734410" lon="7.0475200">
        <ele>1811.6</ele>
        <time>2017-07-26T09:17:54Z</time>
      </trkpt>
      <trkpt lat="44.7735070" lon="7.0474220">
        <ele>1809.4</ele>
        <time>2017-07-26T09:17:55Z</time>
      </trkpt>
      <trkpt lat="44.7735730" lon="7.0473170">
        <ele>1808.0</ele>
        <time>2017-07-26T09:17:56Z</time>
      </trkpt>
      <trkpt lat="44.7736370" lon="7.0472210">
        <ele>1806.8</ele>
        <time>2017-07-26T09:17:57Z</time>
      </trkpt>
      <trkpt lat="44.7736980" lon="7.0471420">
        <ele>1805.6</ele>
        <time>2017-07-26T09:17:58Z</time>
      </trkpt>
      <trkpt lat="44.7737570" lon="7.0470700">
        <ele>1804.4</ele>
        <time>2017-07-26T09:17:59Z</time>
      </trkpt>
      <trkpt lat="44.7738080" lon="7.0470120">
        <ele>1803.4</ele>
        <time>2017-07-26T09:18:00Z</time>
      </trkpt>
      <trkpt lat="44.7738630" lon="7.0469660">
        <ele>1802.4</ele>
        <time>2017-07-26T09:18:01Z</time>
      </trkpt>
      <trkpt lat="44.7739170" lon="7.0469230">
        <ele>1801.2</ele>
        <time>2017-07-26T09:18:02Z</time>
      </trkpt>
      <trkpt lat="44.7739650" lon="7.0468830">
        <ele>1800.2</ele>
        <time>2017-07-26T09:18:03Z</time>
      </trkpt>
      <trkpt lat="44.7740050" lon="7.0468750">
        <ele>1799.6</ele>
        <time>2017-07-26T09:18:04Z</time>
      </trkpt>
      <trkpt lat="44.7740470" lon="7.0468770">
        <ele>1798.8</ele>
        <time>2017-07-26T09:18:05Z</time>
      </trkpt>
      <trkpt lat="44.7741250" lon="7.0468130">
        <ele>1797.0</ele>
        <time>2017-07-26T09:18:07Z</time>
      </trkpt>
      <trkpt lat="44.7741550" lon="7.0467650">
        <ele>1796.2</ele>
        <time>2017-07-26T09:18:08Z</time>
      </trkpt>
      <trkpt lat="44.7741850" lon="7.0467110">
        <ele>1795.0</ele>
        <time>2017-07-26T09:18:09Z</time>
      </trkpt>
      <trkpt lat="44.7742160" lon="7.0466590">
        <ele>1794.0</ele>
        <time>2017-07-26T09:18:10Z</time>
      </trkpt>
      <trkpt lat="44.7742470" lon="7.0466060">
        <ele>1792.8</ele>
        <time>2017-07-26T09:18:11Z</time>
      </trkpt>
      <trkpt lat="44.7737980" lon="7.0463810">
        <ele>1792.0</ele>
        <time>2017-07-26T09:18:12Z</time>
      </trkpt>
      <trkpt lat="44.7736370" lon="7.0462390">
        <ele>1790.8</ele>
        <time>2017-07-26T09:18:13Z</time>
      </trkpt>
      <trkpt lat="44.7734370" lon="7.0460440">
        <ele>1788.6</ele>
        <time>2017-07-26T09:18:15Z</time>
      </trkpt>
      <trkpt lat="44.7733750" lon="7.0459910">
        <ele>1787.8</ele>
        <time>2017-07-26T09:18:16Z</time>
      </trkpt>
      <trkpt lat="44.7733050" lon="7.0459680">
        <ele>1786.6</ele>
        <time>2017-07-26T09:18:17Z</time>
      </trkpt>
      <trkpt lat="44.7732250" lon="7.0459450">
        <ele>1785.8</ele>
        <time>2017-07-26T09:18:18Z</time>
      </trkpt>
      <trkpt lat="44.7731450" lon="7.0459310">
        <ele>1783.4</ele>
        <time>2017-07-26T09:18:19Z</time>
      </trkpt>
      <trkpt lat="44.7730580" lon="7.0459490">
        <ele>1782.2</ele>
        <time>2017-07-26T09:18:20Z</time>
      </trkpt>
      <trkpt lat="44.7730090" lon="7.0459690">
        <ele>1781.0</ele>
        <time>2017-07-26T09:18:21Z</time>
      </trkpt>
      <trkpt lat="44.7728640" lon="7.0459630">
        <ele>1779.8</ele>
        <time>2017-07-26T09:18:22Z</time>
      </trkpt>
      <trkpt lat="44.7727360" lon="7.0459560">
        <ele>1778.6</ele>
        <time>2017-07-26T09:18:23Z</time>
      </trkpt>
      <trkpt lat="44.7726460" lon="7.0459540">
        <ele>1777.4</ele>
        <time>2017-07-26T09:18:24Z</time>
      </trkpt>
      <trkpt lat="44.7725670" lon="7.0459410">
        <ele>1776.0</ele>
        <time>2017-07-26T09:18:25Z</time>
      </trkpt>
      <trkpt lat="44.7724930" lon="7.0459060">
        <ele>1774.4</ele>
        <time>2017-07-26T09:18:26Z</time>
      </trkpt>
      <trkpt lat="44.7723480" lon="7.0458440">
        <ele>1772.8</ele>
        <time>2017-07-26T09:18:27Z</time>
      </trkpt>
      <trkpt lat="44.7722280" lon="7.0457920">
        <ele>1771.6</ele>
        <time>2017-07-26T09:18:28Z</time>
      </trkpt>
      <trkpt lat="44.7721410" lon="7.0457470">
        <ele>1770.4</ele>
        <time>2017-07-26T09:18:29Z</time>
      </trkpt>
      <trkpt lat="44.7720700" lon="7.0457370">
        <ele>1768.8</ele>
        <time>2017-07-26T09:18:30Z</time>
      </trkpt>
      <trkpt lat="44.7719980" lon="7.0457300">
        <ele>1767.4</ele>
        <time>2017-07-26T09:18:31Z</time>
      </trkpt>
      <trkpt lat="44.7719250" lon="7.0457100">
        <ele>1766.2</ele>
        <time>2017-07-26T09:18:32Z</time>
      </trkpt>
      <trkpt lat="44.7717720" lon="7.0456440">
        <ele>1764.4</ele>
        <time>2017-07-26T09:18:34Z</time>
      </trkpt>
      <trkpt lat="44.7717030" lon="7.0455940">
        <ele>1763.4</ele>
        <time>2017-07-26T09:18:35Z</time>
      </trkpt>
      <trkpt lat="44.7716090" lon="7.0455240">
        <ele>1762.6</ele>
        <time>2017-07-26T09:18:36Z</time>
      </trkpt>
      <trkpt lat="44.7715300" lon="7.0454450">
        <ele>1761.2</ele>
        <time>2017-07-26T09:18:37Z</time>
      </trkpt>
      <trkpt lat="44.7714800" lon="7.0453780">
        <ele>1759.8</ele>
        <time>2017-07-26T09:18:38Z</time>
      </trkpt>
      <trkpt lat="44.7714360" lon="7.0453110">
        <ele>1758.6</ele>
        <time>2017-07-26T09:18:39Z</time>
      </trkpt>
      <trkpt lat="44.7713520" lon="7.0452160">
        <ele>1756.8</ele>
        <time>2017-07-26T09:18:41Z</time>
      </trkpt>
      <trkpt lat="44.7713140" lon="7.0451790">
        <ele>1755.8</ele>
        <time>2017-07-26T09:18:42Z</time>
      </trkpt>
      <trkpt lat="44.7712770" lon="7.0451400">
        <ele>1754.4</ele>
        <time>2017-07-26T09:18:43Z</time>
      </trkpt>
      <trkpt lat="44.7712050" lon="7.0450620">
        <ele>1753.0</ele>
        <time>2017-07-26T09:18:45Z</time>
      </trkpt>
      <trkpt lat="44.7711070" lon="7.0449090">
        <ele>1752.0</ele>
        <time>2017-07-26T09:18:48Z</time>
      </trkpt>
      <trkpt lat="44.7710770" lon="7.0448520">
        <ele>1751.4</ele>
        <time>2017-07-26T09:18:49Z</time>
      </trkpt>
      <trkpt lat="44.7710460" lon="7.0448120">
        <ele>1750.6</ele>
        <time>2017-07-26T09:18:50Z</time>
      </trkpt>
      <trkpt lat="44.7709720" lon="7.0447600">
        <ele>1749.6</ele>
        <time>2017-07-26T09:18:52Z</time>
      </trkpt>
      <trkpt lat="44.7709360" lon="7.0447180">
        <ele>1749.4</ele>
        <time>2017-07-26T09:18:53Z</time>
      </trkpt>
      <trkpt lat="44.7709880" lon="7.0446020">
        <ele>1748.4</ele>
        <time>2017-07-26T09:18:55Z</time>
      </trkpt>
      <trkpt lat="44.7710780" lon="7.0445370">
        <ele>1747.8</ele>
        <time>2017-07-26T09:18:56Z</time>
      </trkpt>
      <trkpt lat="44.7712760" lon="7.0444070">
        <ele>1746.8</ele>
        <time>2017-07-26T09:18:58Z</time>
      </trkpt>
      <trkpt lat="44.7713420" lon="7.0443530">
        <ele>1746.2</ele>
        <time>2017-07-26T09:18:59Z</time>
      </trkpt>
      <trkpt lat="44.7714120" lon="7.0443030">
        <ele>1745.6</ele>
        <time>2017-07-26T09:19:00Z</time>
      </trkpt>
      <trkpt lat="44.7715610" lon="7.0442380">
        <ele>1744.2</ele>
        <time>2017-07-26T09:19:02Z</time>
      </trkpt>
      <trkpt lat="44.7716360" lon="7.0442290">
        <ele>1743.2</ele>
        <time>2017-07-26T09:19:03Z</time>
      </trkpt>
      <trkpt lat="44.7717100" lon="7.0442390">
        <ele>1742.2</ele>
        <time>2017-07-26T09:19:04Z</time>
      </trkpt>
      <trkpt lat="44.7717810" lon="7.0442340">
        <ele>1741.2</ele>
        <time>2017-07-26T09:19:05Z</time>
      </trkpt>
      <trkpt lat="44.7718460" lon="7.0442240">
        <ele>1740.0</ele>
        <time>2017-07-26T09:19:06Z</time>
      </trkpt>
      <trkpt lat="44.7719020" lon="7.0442170">
        <ele>1738.0</ele>
        <time>2017-07-26T09:19:07Z</time>
      </trkpt>
      <trkpt lat="44.7719550" lon="7.0442110">
        <ele>1737.0</ele>
        <time>2017-07-26T09:19:08Z</time>
      </trkpt>
      <trkpt lat="44.7720100" lon="7.0442170">
        <ele>1736.2</ele>
        <time>2017-07-26T09:19:09Z</time>
      </trkpt>
      <trkpt lat="44.7720710" lon="7.0442240">
        <ele>1734.6</ele>
        <time>2017-07-26T09:19:11Z</time>
      </trkpt>
      <trkpt lat="44.7722530" lon="7.0442610">
        <ele>1733.0</ele>
        <time>2017-07-26T09:19:13Z</time>
      </trkpt>
      <trkpt lat="44.7724270" lon="7.0443000">
        <ele>1732.2</ele>
        <time>2017-07-26T09:19:14Z</time>
      </trkpt>
      <trkpt lat="44.7726080" lon="7.0443490">
        <ele>1731.4</ele>
        <time>2017-07-26T09:19:15Z</time>
      </trkpt>
      <trkpt lat="44.7727750" lon="7.0443810">
        <ele>1730.0</ele>
        <time>2017-07-26T09:19:17Z</time>
      </trkpt>
      <trkpt lat="44.7728150" lon="7.0443730">
        <ele>1728.6</ele>
        <time>2017-07-26T09:19:19Z</time>
      </trkpt>
      <trkpt lat="44.7729140" lon="7.0443950">
        <ele>1728.0</ele>
        <time>2017-07-26T09:19:20Z</time>
      </trkpt>
      <trkpt lat="44.7729340" lon="7.0444070">
        <ele>1727.0</ele>
        <time>2017-07-26T09:19:21Z</time>
      </trkpt>
      <trkpt lat="44.7728390" lon="7.0444060">
        <ele>1725.8</ele>
        <time>2017-07-26T09:19:23Z</time>
      </trkpt>
      <trkpt lat="44.7727640" lon="7.0444050">
        <ele>1725.2</ele>
        <time>2017-07-26T09:19:24Z</time>
      </trkpt>
      <trkpt lat="44.7726790" lon="7.0443950">
        <ele>1724.2</ele>
        <time>2017-07-26T09:19:25Z</time>
      </trkpt>
      <trkpt lat="44.7725910" lon="7.0444150">
        <ele>1723.2</ele>
        <time>2017-07-26T09:19:26Z</time>
      </trkpt>
      <trkpt lat="44.7724980" lon="7.0444250">
        <ele>1722.2</ele>
        <time>2017-07-26T09:19:27Z</time>
      </trkpt>
      <trkpt lat="44.7724010" lon="7.0444180">
        <ele>1721.6</ele>
        <time>2017-07-26T09:19:28Z</time>
      </trkpt>
      <trkpt lat="44.7722250" lon="7.0443820">
        <ele>1719.8</ele>
        <time>2017-07-26T09:19:30Z</time>
      </trkpt>
      <trkpt lat="44.7721420" lon="7.0443400">
        <ele>1718.0</ele>
        <time>2017-07-26T09:19:31Z</time>
      </trkpt>
      <trkpt lat="44.7719880" lon="7.0441880">
        <ele>1716.0</ele>
        <time>2017-07-26T09:19:33Z</time>
      </trkpt>
      <trkpt lat="44.7719100" lon="7.0441110">
        <ele>1715.0</ele>
        <time>2017-07-26T09:19:34Z</time>
      </trkpt>
      <trkpt lat="44.7718350" lon="7.0440360">
        <ele>1714.2</ele>
        <time>2017-07-26T09:19:35Z</time>
      </trkpt>
      <trkpt lat="44.7716780" lon="7.0439110">
        <ele>1712.6</ele>
        <time>2017-07-26T09:19:37Z</time>
      </trkpt>
      <trkpt lat="44.7715050" lon="7.0438130">
        <ele>1711.4</ele>
        <time>2017-07-26T09:19:39Z</time>
      </trkpt>
      <trkpt lat="44.7713130" lon="7.0436890">
        <ele>1710.0</ele>
        <time>2017-07-26T09:19:41Z</time>
      </trkpt>
      <trkpt lat="44.7711070" lon="7.0435650">
        <ele>1708.4</ele>
        <time>2017-07-26T09:19:43Z</time>
      </trkpt>
      <trkpt lat="44.7710060" lon="7.0435050">
        <ele>1707.4</ele>
        <time>2017-07-26T09:19:44Z</time>
      </trkpt>
      <trkpt lat="44.7709060" lon="7.0434450">
        <ele>1706.6</ele>
        <time>2017-07-26T09:19:45Z</time>
      </trkpt>
      <trkpt lat="44.7708060" lon="7.0434640">
        <ele>1705.6</ele>
        <time>2017-07-26T09:19:46Z</time>
      </trkpt>
      <trkpt lat="44.7707040" lon="7.0435210">
        <ele>1704.8</ele>
        <time>2017-07-26T09:19:47Z</time>
      </trkpt>
      <trkpt lat="44.7704910" lon="7.0436540">
        <ele>1703.0</ele>
        <time>2017-07-26T09:19:49Z</time>
      </trkpt>
      <trkpt lat="44.7702800" lon="7.0437510">
        <ele>1701.2</ele>
        <time>2017-07-26T09:19:51Z</time>
      </trkpt>
      <trkpt lat="44.7701680" lon="7.0437770">
        <ele>1699.8</ele>
        <time>2017-07-26T09:19:52Z</time>
      </trkpt>
      <trkpt lat="44.7700560" lon="7.0437890">
        <ele>1698.4</ele>
        <time>2017-07-26T09:19:53Z</time>
      </trkpt>
      <trkpt lat="44.7699560" lon="7.0437850">
        <ele>1697.0</ele>
        <time>2017-07-26T09:19:54Z</time>
      </trkpt>
      <trkpt lat="44.7698680" lon="7.0437680">
        <ele>1694.2</ele>
        <time>2017-07-26T09:19:55Z</time>
      </trkpt>
      <trkpt lat="44.7697910" lon="7.0437130">
        <ele>1692.6</ele>
        <time>2017-07-26T09:19:56Z</time>
      </trkpt>
      <trkpt lat="44.7697300" lon="7.0436280">
        <ele>1691.0</ele>
        <time>2017-07-26T09:19:57Z</time>
      </trkpt>
      <trkpt lat="44.7696870" lon="7.0435240">
        <ele>1689.6</ele>
        <time>2017-07-26T09:19:58Z</time>
      </trkpt>
      <trkpt lat="44.7696580" lon="7.0434050">
        <ele>1688.6</ele>
        <time>2017-07-26T09:19:59Z</time>
      </trkpt>
      <trkpt lat="44.7696380" lon="7.0432760">
        <ele>1687.4</ele>
        <time>2017-07-26T09:20:00Z</time>
      </trkpt>
      <trkpt lat="44.7696250" lon="7.0431410">
        <ele>1686.4</ele>
        <time>2017-07-26T09:20:01Z</time>
      </trkpt>
      <trkpt lat="44.7696110" lon="7.0430060">
        <ele>1685.2</ele>
        <time>2017-07-26T09:20:02Z</time>
      </trkpt>
      <trkpt lat="44.7695770" lon="7.0427500">
        <ele>1683.6</ele>
        <time>2017-07-26T09:20:04Z</time>
      </trkpt>
      <trkpt lat="44.7695630" lon="7.0426240">
        <ele>1682.6</ele>
        <time>2017-07-26T09:20:05Z</time>
      </trkpt>
      <trkpt lat="44.7695500" lon="7.0425160">
        <ele>1681.6</ele>
        <time>2017-07-26T09:20:06Z</time>
      </trkpt>
      <trkpt lat="44.7695210" lon="7.0423290">
        <ele>1679.8</ele>
        <time>2017-07-26T09:20:09Z</time>
      </trkpt>
      <trkpt lat="44.7695170" lon="7.0422370">
        <ele>1679.0</ele>
        <time>2017-07-26T09:20:10Z</time>
      </trkpt>
      <trkpt lat="44.7695200" lon="7.0421590">
        <ele>1678.2</ele>
        <time>2017-07-26T09:20:11Z</time>
      </trkpt>
      <trkpt lat="44.7695650" lon="7.0420630">
        <ele>1677.2</ele>
        <time>2017-07-26T09:20:13Z</time>
      </trkpt>
      <trkpt lat="44.7696220" lon="7.0420550">
        <ele>1677.0</ele>
        <time>2017-07-26T09:20:14Z</time>
      </trkpt>
      <trkpt lat="44.7698490" lon="7.0421330">
        <ele>1676.6</ele>
        <time>2017-07-26T09:20:16Z</time>
      </trkpt>
      <trkpt lat="44.7701810" lon="7.0422340">
        <ele>1676.0</ele>
        <time>2017-07-26T09:20:19Z</time>
      </trkpt>
      <trkpt lat="44.7702640" lon="7.0422400">
        <ele>1675.2</ele>
        <time>2017-07-26T09:20:20Z</time>
      </trkpt>
      <trkpt lat="44.7703450" lon="7.0422550">
        <ele>1674.8</ele>
        <time>2017-07-26T09:20:21Z</time>
      </trkpt>
      <trkpt lat="44.7706270" lon="7.0422920">
        <ele>1674.0</ele>
        <time>2017-07-26T09:20:24Z</time>
      </trkpt>
      <trkpt lat="44.7707320" lon="7.0423150">
        <ele>1673.6</ele>
        <time>2017-07-26T09:20:25Z</time>
      </trkpt>
      <trkpt lat="44.7708370" lon="7.0423390">
        <ele>1673.4</ele>
        <time>2017-07-26T09:20:26Z</time>
      </trkpt>
      <trkpt lat="44.7710230" lon="7.0423620">
        <ele>1672.8</ele>
        <time>2017-07-26T09:20:28Z</time>
      </trkpt>
      <trkpt lat="44.7711340" lon="7.0424030">
        <ele>1672.2</ele>
        <time>2017-07-26T09:20:29Z</time>
      </trkpt>
      <trkpt lat="44.7712430" lon="7.0424490">
        <ele>1672.2</ele>
        <time>2017-07-26T09:20:30Z</time>
      </trkpt>
      <trkpt lat="44.7715380" lon="7.0426120">
        <ele>1671.2</ele>
        <time>2017-07-26T09:20:33Z</time>
      </trkpt>
      <trkpt lat="44.7717270" lon="7.0426890">
        <ele>1671.0</ele>
        <time>2017-07-26T09:20:35Z</time>
      </trkpt>
      <trkpt lat="44.7718080" lon="7.0426940">
        <ele>1670.8</ele>
        <time>2017-07-26T09:20:36Z</time>
      </trkpt>
      <trkpt lat="44.7720880" lon="7.0427560">
        <ele>1670.0</ele>
        <time>2017-07-26T09:20:39Z</time>
      </trkpt>
      <trkpt lat="44.7721820" lon="7.0427790">
        <ele>1669.8</ele>
        <time>2017-07-26T09:20:40Z</time>
      </trkpt>
      <trkpt lat="44.7724620" lon="7.0428260">
        <ele>1669.0</ele>
        <time>2017-07-26T09:20:43Z</time>
      </trkpt>
      <trkpt lat="44.7726420" lon="7.0429140">
        <ele>1668.6</ele>
        <time>2017-07-26T09:20:45Z</time>
      </trkpt>
      <trkpt lat="44.7729280" lon="7.0430230">
        <ele>1668.0</ele>
        <time>2017-07-26T09:20:48Z</time>
      </trkpt>
      <trkpt lat="44.7730130" lon="7.0430210">
        <ele>1667.8</ele>
        <time>2017-07-26T09:20:49Z</time>
      </trkpt>
      <trkpt lat="44.7734080" lon="7.0430900">
        <ele>1668.4</ele>
        <time>2017-07-26T09:20:54Z</time>
      </trkpt>
      <trkpt lat="44.7735480" lon="7.0431390">
        <ele>1668.8</ele>
        <time>2017-07-26T09:20:56Z</time>
      </trkpt>
      <trkpt lat="44.7737570" lon="7.0432060">
        <ele>1669.4</ele>
        <time>2017-07-26T09:20:59Z</time>
      </trkpt>
      <trkpt lat="44.7738260" lon="7.0432340">
        <ele>1669.4</ele>
        <time>2017-07-26T09:21:00Z</time>
      </trkpt>
      <trkpt lat="44.7739750" lon="7.0432690">
        <ele>1670.0</ele>
        <time>2017-07-26T09:21:02Z</time>
      </trkpt>
      <trkpt lat="44.7740600" lon="7.0432790">
        <ele>1670.2</ele>
        <time>2017-07-26T09:21:03Z</time>
      </trkpt>
      <trkpt lat="44.7743780" lon="7.0434200">
        <ele>1669.4</ele>
        <time>2017-07-26T09:21:07Z</time>
      </trkpt>
      <trkpt lat="44.7744540" lon="7.0434570">
        <ele>1668.6</ele>
        <time>2017-07-26T09:21:08Z</time>
      </trkpt>
      <trkpt lat="44.7746260" lon="7.0435130">
        <ele>1668.0</ele>
        <time>2017-07-26T09:21:10Z</time>
      </trkpt>
      <trkpt lat="44.7747130" lon="7.0435310">
        <ele>1667.4</ele>
        <time>2017-07-26T09:21:11Z</time>
      </trkpt>
      <trkpt lat="44.7748060" lon="7.0435700">
        <ele>1666.8</ele>
        <time>2017-07-26T09:21:12Z</time>
      </trkpt>
      <trkpt lat="44.7748980" lon="7.0436170">
        <ele>1666.4</ele>
        <time>2017-07-26T09:21:13Z</time>
      </trkpt>
      <trkpt lat="44.7749860" lon="7.0436960">
        <ele>1665.8</ele>
        <time>2017-07-26T09:21:14Z</time>
      </trkpt>
      <trkpt lat="44.7750740" lon="7.0437810">
        <ele>1664.8</ele>
        <time>2017-07-26T09:21:15Z</time>
      </trkpt>
      <trkpt lat="44.7752360" lon="7.0439040">
        <ele>1663.2</ele>
        <time>2017-07-26T09:21:17Z</time>
      </trkpt>
      <trkpt lat="44.7753070" lon="7.0439220">
        <ele>1662.4</ele>
        <time>2017-07-26T09:21:18Z</time>
      </trkpt>
      <trkpt lat="44.7753660" lon="7.0439090">
        <ele>1661.6</ele>
        <time>2017-07-26T09:21:19Z</time>
      </trkpt>
      <trkpt lat="44.7754230" lon="7.0438730">
        <ele>1660.6</ele>
        <time>2017-07-26T09:21:20Z</time>
      </trkpt>
      <trkpt lat="44.7754650" lon="7.0438240">
        <ele>1660.2</ele>
        <time>2017-07-26T09:21:21Z</time>
      </trkpt>
      <trkpt lat="44.7755550" lon="7.0436900">
        <ele>1659.0</ele>
        <time>2017-07-26T09:21:23Z</time>
      </trkpt>
      <trkpt lat="44.7756020" lon="7.0436040">
        <ele>1658.2</ele>
        <time>2017-07-26T09:21:24Z</time>
      </trkpt>
      <trkpt lat="44.7756490" lon="7.0435110">
        <ele>1657.4</ele>
        <time>2017-07-26T09:21:25Z</time>
      </trkpt>
      <trkpt lat="44.7757030" lon="7.0434220">
        <ele>1657.0</ele>
        <time>2017-07-26T09:21:26Z</time>
      </trkpt>
      <trkpt lat="44.7757100" lon="7.0432820">
        <ele>1656.2</ele>
        <time>2017-07-26T09:21:28Z</time>
      </trkpt>
      <trkpt lat="44.7758000" lon="7.0431730">
        <ele>1655.2</ele>
        <time>2017-07-26T09:21:30Z</time>
      </trkpt>
      <trkpt lat="44.7758740" lon="7.0431270">
        <ele>1654.8</ele>
        <time>2017-07-26T09:21:31Z</time>
      </trkpt>
      <trkpt lat="44.7759350" lon="7.0430860">
        <ele>1654.4</ele>
        <time>2017-07-26T09:21:32Z</time>
      </trkpt>
      <trkpt lat="44.7759940" lon="7.0430600">
        <ele>1654.0</ele>
        <time>2017-07-26T09:21:33Z</time>
      </trkpt>
      <trkpt lat="44.7761950" lon="7.0429900">
        <ele>1652.8</ele>
        <time>2017-07-26T09:21:36Z</time>
      </trkpt>
      <trkpt lat="44.7762790" lon="7.0429440">
        <ele>1652.6</ele>
        <time>2017-07-26T09:21:37Z</time>
      </trkpt>
      <trkpt lat="44.7764540" lon="7.0428150">
        <ele>1651.8</ele>
        <time>2017-07-26T09:21:39Z</time>
      </trkpt>
      <trkpt lat="44.7766080" lon="7.0426320">
        <ele>1651.4</ele>
        <time>2017-07-26T09:21:41Z</time>
      </trkpt>
      <trkpt lat="44.7766750" lon="7.0425560">
        <ele>1651.0</ele>
        <time>2017-07-26T09:21:42Z</time>
      </trkpt>
      <trkpt lat="44.7767340" lon="7.0425070">
        <ele>1650.4</ele>
        <time>2017-07-26T09:21:43Z</time>
      </trkpt>
      <trkpt lat="44.7768410" lon="7.0424830">
        <ele>1648.8</ele>
        <time>2017-07-26T09:21:45Z</time>
      </trkpt>
      <trkpt lat="44.7770090" lon="7.0425950">
        <ele>1647.2</ele>
        <time>2017-07-26T09:21:47Z</time>
      </trkpt>
      <trkpt lat="44.7770670" lon="7.0426520">
        <ele>1646.0</ele>
        <time>2017-07-26T09:21:48Z</time>
      </trkpt>
      <trkpt lat="44.7771470" lon="7.0427080">
        <ele>1645.0</ele>
        <time>2017-07-26T09:21:49Z</time>
      </trkpt>
      <trkpt lat="44.7772130" lon="7.0427500">
        <ele>1644.0</ele>
        <time>2017-07-26T09:21:50Z</time>
      </trkpt>
      <trkpt lat="44.7773220" lon="7.0428240">
        <ele>1643.2</ele>
        <time>2017-07-26T09:21:51Z</time>
      </trkpt>
      <trkpt lat="44.7774270" lon="7.0429050">
        <ele>1642.2</ele>
        <time>2017-07-26T09:21:52Z</time>
      </trkpt>
      <trkpt lat="44.7775140" lon="7.0429860">
        <ele>1641.0</ele>
        <time>2017-07-26T09:21:53Z</time>
      </trkpt>
      <trkpt lat="44.7775790" lon="7.0430510">
        <ele>1640.0</ele>
        <time>2017-07-26T09:21:54Z</time>
      </trkpt>
      <trkpt lat="44.7777370" lon="7.0431740">
        <ele>1637.6</ele>
        <time>2017-07-26T09:21:56Z</time>
      </trkpt>
      <trkpt lat="44.7778110" lon="7.0432250">
        <ele>1636.6</ele>
        <time>2017-07-26T09:21:57Z</time>
      </trkpt>
      <trkpt lat="44.7778890" lon="7.0432710">
        <ele>1635.6</ele>
        <time>2017-07-26T09:21:58Z</time>
      </trkpt>
      <trkpt lat="44.7779700" lon="7.0433110">
        <ele>1634.4</ele>
        <time>2017-07-26T09:21:59Z</time>
      </trkpt>
      <trkpt lat="44.7780510" lon="7.0433470">
        <ele>1633.4</ele>
        <time>2017-07-26T09:22:00Z</time>
      </trkpt>
      <trkpt lat="44.7781300" lon="7.0433770">
        <ele>1632.2</ele>
        <time>2017-07-26T09:22:01Z</time>
      </trkpt>
      <trkpt lat="44.7782090" lon="7.0434010">
        <ele>1631.2</ele>
        <time>2017-07-26T09:22:02Z</time>
      </trkpt>
      <trkpt lat="44.7782890" lon="7.0434170">
        <ele>1629.8</ele>
        <time>2017-07-26T09:22:03Z</time>
      </trkpt>
      <trkpt lat="44.7783670" lon="7.0434240">
        <ele>1628.8</ele>
        <time>2017-07-26T09:22:04Z</time>
      </trkpt>
      <trkpt lat="44.7784460" lon="7.0434200">
        <ele>1627.6</ele>
        <time>2017-07-26T09:22:05Z</time>
      </trkpt>
      <trkpt lat="44.7785260" lon="7.0434120">
        <ele>1626.6</ele>
        <time>2017-07-26T09:22:06Z</time>
      </trkpt>
      <trkpt lat="44.7786320" lon="7.0433390">
        <ele>1625.6</ele>
        <time>2017-07-26T09:22:07Z</time>
      </trkpt>
      <trkpt lat="44.7787370" lon="7.0432710">
        <ele>1624.2</ele>
        <time>2017-07-26T09:22:08Z</time>
      </trkpt>
      <trkpt lat="44.7788430" lon="7.0431940">
        <ele>1623.0</ele>
        <time>2017-07-26T09:22:09Z</time>
      </trkpt>
      <trkpt lat="44.7789490" lon="7.0431190">
        <ele>1621.4</ele>
        <time>2017-07-26T09:22:10Z</time>
      </trkpt>
      <trkpt lat="44.7790570" lon="7.0430400">
        <ele>1620.2</ele>
        <time>2017-07-26T09:22:11Z</time>
      </trkpt>
      <trkpt lat="44.7791670" lon="7.0429570">
        <ele>1618.8</ele>
        <time>2017-07-26T09:22:12Z</time>
      </trkpt>
      <trkpt lat="44.7792710" lon="7.0428530">
        <ele>1617.8</ele>
        <time>2017-07-26T09:22:13Z</time>
      </trkpt>
      <trkpt lat="44.7793860" lon="7.0427330">
        <ele>1616.4</ele>
        <time>2017-07-26T09:22:14Z</time>
      </trkpt>
      <trkpt lat="44.7796100" lon="7.0425220">
        <ele>1614.4</ele>
        <time>2017-07-26T09:22:16Z</time>
      </trkpt>
      <trkpt lat="44.7797230" lon="7.0424240">
        <ele>1613.4</ele>
        <time>2017-07-26T09:22:17Z</time>
      </trkpt>
      <trkpt lat="44.7798310" lon="7.0423380">
        <ele>1612.4</ele>
        <time>2017-07-26T09:22:18Z</time>
      </trkpt>
      <trkpt lat="44.7799290" lon="7.0422790">
        <ele>1611.6</ele>
        <time>2017-07-26T09:22:19Z</time>
      </trkpt>
      <trkpt lat="44.7800190" lon="7.0422690">
        <ele>1609.8</ele>
        <time>2017-07-26T09:22:20Z</time>
      </trkpt>
      <trkpt lat="44.7802110" lon="7.0422870">
        <ele>1608.0</ele>
        <time>2017-07-26T09:22:22Z</time>
      </trkpt>
      <trkpt lat="44.7803920" lon="7.0422910">
        <ele>1606.2</ele>
        <time>2017-07-26T09:22:24Z</time>
      </trkpt>
      <trkpt lat="44.7805680" lon="7.0422310">
        <ele>1604.2</ele>
        <time>2017-07-26T09:22:26Z</time>
      </trkpt>
      <trkpt lat="44.7807550" lon="7.0421770">
        <ele>1602.6</ele>
        <time>2017-07-26T09:22:28Z</time>
      </trkpt>
      <trkpt lat="44.7809480" lon="7.0421170">
        <ele>1601.0</ele>
        <time>2017-07-26T09:22:30Z</time>
      </trkpt>
      <trkpt lat="44.7811610" lon="7.0420400">
        <ele>1599.4</ele>
        <time>2017-07-26T09:22:32Z</time>
      </trkpt>
      <trkpt lat="44.7812650" lon="7.0420040">
        <ele>1598.4</ele>
        <time>2017-07-26T09:22:33Z</time>
      </trkpt>
      <trkpt lat="44.7813720" lon="7.0419720">
        <ele>1597.0</ele>
        <time>2017-07-26T09:22:34Z</time>
      </trkpt>
      <trkpt lat="44.7814780" lon="7.0419460">
        <ele>1596.0</ele>
        <time>2017-07-26T09:22:35Z</time>
      </trkpt>
      <trkpt lat="44.7815880" lon="7.0419260">
        <ele>1594.8</ele>
        <time>2017-07-26T09:22:36Z</time>
      </trkpt>
      <trkpt lat="44.7816970" lon="7.0419260">
        <ele>1593.6</ele>
        <time>2017-07-26T09:22:37Z</time>
      </trkpt>
      <trkpt lat="44.7818190" lon="7.0419510">
        <ele>1592.6</ele>
        <time>2017-07-26T09:22:38Z</time>
      </trkpt>
      <trkpt lat="44.7819410" lon="7.0419820">
        <ele>1591.4</ele>
        <time>2017-07-26T09:22:39Z</time>
      </trkpt>
      <trkpt lat="44.7820510" lon="7.0420210">
        <ele>1590.2</ele>
        <time>2017-07-26T09:22:40Z</time>
      </trkpt>
      <trkpt lat="44.7821600" lon="7.0420580">
        <ele>1589.0</ele>
        <time>2017-07-26T09:22:41Z</time>
      </trkpt>
      <trkpt lat="44.7822690" lon="7.0420840">
        <ele>1588.0</ele>
        <time>2017-07-26T09:22:42Z</time>
      </trkpt>
      <trkpt lat="44.7823630" lon="7.0420930">
        <ele>1586.8</ele>
        <time>2017-07-26T09:22:43Z</time>
      </trkpt>
      <trkpt lat="44.7824470" lon="7.0420980">
        <ele>1584.0</ele>
        <time>2017-07-26T09:22:44Z</time>
      </trkpt>
      <trkpt lat="44.7825400" lon="7.0421240">
        <ele>1582.4</ele>
        <time>2017-07-26T09:22:45Z</time>
      </trkpt>
      <trkpt lat="44.7826370" lon="7.0421790">
        <ele>1581.2</ele>
        <time>2017-07-26T09:22:46Z</time>
      </trkpt>
      <trkpt lat="44.7826680" lon="7.0422290">
        <ele>1580.0</ele>
        <time>2017-07-26T09:22:47Z</time>
      </trkpt>
      <trkpt lat="44.7826670" lon="7.0422550">
        <ele>1578.6</ele>
        <time>2017-07-26T09:22:48Z</time>
      </trkpt>
      <trkpt lat="44.7826490" lon="7.0422860">
        <ele>1577.4</ele>
        <time>2017-07-26T09:22:49Z</time>
      </trkpt>
      <trkpt lat="44.7826100" lon="7.0423250">
        <ele>1576.0</ele>
        <time>2017-07-26T09:22:50Z</time>
      </trkpt>
      <trkpt lat="44.7825610" lon="7.0423570">
        <ele>1574.8</ele>
        <time>2017-07-26T09:22:51Z</time>
      </trkpt>
      <trkpt lat="44.7825060" lon="7.0423740">
        <ele>1573.4</ele>
        <time>2017-07-26T09:22:52Z</time>
      </trkpt>
      <trkpt lat="44.7824360" lon="7.0424000">
        <ele>1572.2</ele>
        <time>2017-07-26T09:22:53Z</time>
      </trkpt>
      <trkpt lat="44.7823590" lon="7.0424400">
        <ele>1571.0</ele>
        <time>2017-07-26T09:22:54Z</time>
      </trkpt>
      <trkpt lat="44.7822740" lon="7.0425090">
        <ele>1570.0</ele>
        <time>2017-07-26T09:22:55Z</time>
      </trkpt>
      <trkpt lat="44.7821890" lon="7.0425950">
        <ele>1568.8</ele>
        <time>2017-07-26T09:22:56Z</time>
      </trkpt>
      <trkpt lat="44.7820970" lon="7.0426910">
        <ele>1567.6</ele>
        <time>2017-07-26T09:22:57Z</time>
      </trkpt>
      <trkpt lat="44.7820060" lon="7.0427990">
        <ele>1566.2</ele>
        <time>2017-07-26T09:22:58Z</time>
      </trkpt>
      <trkpt lat="44.7819260" lon="7.0429210">
        <ele>1565.0</ele>
        <time>2017-07-26T09:22:59Z</time>
      </trkpt>
      <trkpt lat="44.7817930" lon="7.0431080">
        <ele>1562.6</ele>
        <time>2017-07-26T09:23:01Z</time>
      </trkpt>
      <trkpt lat="44.7817380" lon="7.0431920">
        <ele>1561.6</ele>
        <time>2017-07-26T09:23:02Z</time>
      </trkpt>
      <trkpt lat="44.7816860" lon="7.0432600">
        <ele>1560.4</ele>
        <time>2017-07-26T09:23:03Z</time>
      </trkpt>
      <trkpt lat="44.7816370" lon="7.0433130">
        <ele>1559.4</ele>
        <time>2017-07-26T09:23:04Z</time>
      </trkpt>
      <trkpt lat="44.7815960" lon="7.0433330">
        <ele>1558.6</ele>
        <time>2017-07-26T09:23:05Z</time>
      </trkpt>
      <trkpt lat="44.7814690" lon="7.0433530">
        <ele>1556.8</ele>
        <time>2017-07-26T09:23:07Z</time>
      </trkpt>
      <trkpt lat="44.7813960" lon="7.0433660">
        <ele>1555.2</ele>
        <time>2017-07-26T09:23:08Z</time>
      </trkpt>
      <trkpt lat="44.7813230" lon="7.0433440">
        <ele>1555.0</ele>
        <time>2017-07-26T09:23:09Z</time>
      </trkpt>
      <trkpt lat="44.7811890" lon="7.0433110">
        <ele>1554.0</ele>
        <time>2017-07-26T09:23:11Z</time>
      </trkpt>
      <trkpt lat="44.7811370" lon="7.0433050">
        <ele>1553.4</ele>
        <time>2017-07-26T09:23:12Z</time>
      </trkpt>
      <trkpt lat="44.7810880" lon="7.0433330">
        <ele>1552.6</ele>
        <time>2017-07-26T09:23:13Z</time>
      </trkpt>
      <trkpt lat="44.7810160" lon="7.0434130">
        <ele>1551.6</ele>
        <time>2017-07-26T09:23:15Z</time>
      </trkpt>
      <trkpt lat="44.7809860" lon="7.0433770">
        <ele>1550.4</ele>
        <time>2017-07-26T09:23:17Z</time>
      </trkpt>
      <trkpt lat="44.7809860" lon="7.0433540">
        <ele>1549.6</ele>
        <time>2017-07-26T09:23:18Z</time>
      </trkpt>
      <trkpt lat="44.7810330" lon="7.0433280">
        <ele>1548.0</ele>
        <time>2017-07-26T09:23:21Z</time>
      </trkpt>
      <trkpt lat="44.7810750" lon="7.0433280">
        <ele>1547.4</ele>
        <time>2017-07-26T09:23:22Z</time>
      </trkpt>
      <trkpt lat="44.7811320" lon="7.0433180">
        <ele>1546.4</ele>
        <time>2017-07-26T09:23:23Z</time>
      </trkpt>
      <trkpt lat="44.7812060" lon="7.0433070">
        <ele>1545.4</ele>
        <time>2017-07-26T09:23:24Z</time>
      </trkpt>
      <trkpt lat="44.7812910" lon="7.0432880">
        <ele>1544.6</ele>
        <time>2017-07-26T09:23:25Z</time>
      </trkpt>
      <trkpt lat="44.7813890" lon="7.0432410">
        <ele>1543.6</ele>
        <time>2017-07-26T09:23:26Z</time>
      </trkpt>
      <trkpt lat="44.7816150" lon="7.0430930">
        <ele>1543.0</ele>
        <time>2017-07-26T09:23:28Z</time>
      </trkpt>
      <trkpt lat="44.7817430" lon="7.0429960">
        <ele>1542.6</ele>
        <time>2017-07-26T09:23:29Z</time>
      </trkpt>
      <trkpt lat="44.7818620" lon="7.0429020">
        <ele>1541.4</ele>
        <time>2017-07-26T09:23:30Z</time>
      </trkpt>
      <trkpt lat="44.7819880" lon="7.0428280">
        <ele>1540.6</ele>
        <time>2017-07-26T09:23:31Z</time>
      </trkpt>
      <trkpt lat="44.7820940" lon="7.0427800">
        <ele>1539.6</ele>
        <time>2017-07-26T09:23:32Z</time>
      </trkpt>
      <trkpt lat="44.7823000" lon="7.0427370">
        <ele>1538.0</ele>
        <time>2017-07-26T09:23:34Z</time>
      </trkpt>
      <trkpt lat="44.7823980" lon="7.0427510">
        <ele>1536.8</ele>
        <time>2017-07-26T09:23:35Z</time>
      </trkpt>
      <trkpt lat="44.7824920" lon="7.0427960">
        <ele>1535.8</ele>
        <time>2017-07-26T09:23:36Z</time>
      </trkpt>
      <trkpt lat="44.7825700" lon="7.0428530">
        <ele>1535.0</ele>
        <time>2017-07-26T09:23:37Z</time>
      </trkpt>
      <trkpt lat="44.7826140" lon="7.0429090">
        <ele>1534.4</ele>
        <time>2017-07-26T09:23:38Z</time>
      </trkpt>
      <trkpt lat="44.7827230" lon="7.0430260">
        <ele>1532.8</ele>
        <time>2017-07-26T09:23:40Z</time>
      </trkpt>
      <trkpt lat="44.7827920" lon="7.0430780">
        <ele>1531.2</ele>
        <time>2017-07-26T09:23:42Z</time>
      </trkpt>
      <trkpt lat="44.7828220" lon="7.0430840">
        <ele>1530.4</ele>
        <time>2017-07-26T09:23:43Z</time>
      </trkpt>
      <trkpt lat="44.7828580" lon="7.0430800">
        <ele>1529.8</ele>
        <time>2017-07-26T09:23:44Z</time>
      </trkpt>
      <trkpt lat="44.7828890" lon="7.0430610">
        <ele>1528.8</ele>
        <time>2017-07-26T09:23:45Z</time>
      </trkpt>
      <trkpt lat="44.7829070" lon="7.0430650">
        <ele>1528.2</ele>
        <time>2017-07-26T09:23:46Z</time>
      </trkpt>
      <trkpt lat="44.7828500" lon="7.0431210">
        <ele>1526.8</ele>
        <time>2017-07-26T09:23:48Z</time>
      </trkpt>
      <trkpt lat="44.7828000" lon="7.0432600">
        <ele>1525.2</ele>
        <time>2017-07-26T09:23:50Z</time>
      </trkpt>
      <trkpt lat="44.7827700" lon="7.0433640">
        <ele>1524.8</ele>
        <time>2017-07-26T09:23:51Z</time>
      </trkpt>
      <trkpt lat="44.7827160" lon="7.0434370">
        <ele>1524.2</ele>
        <time>2017-07-26T09:23:52Z</time>
      </trkpt>
      <trkpt lat="44.7826180" lon="7.0435330">
        <ele>1522.8</ele>
        <time>2017-07-26T09:23:54Z</time>
      </trkpt>
      <trkpt lat="44.7825460" lon="7.0436540">
        <ele>1521.2</ele>
        <time>2017-07-26T09:23:56Z</time>
      </trkpt>
      <trkpt lat="44.7825350" lon="7.0437030">
        <ele>1520.8</ele>
        <time>2017-07-26T09:23:57Z</time>
      </trkpt>
      <trkpt lat="44.7825390" lon="7.0437710">
        <ele>1520.2</ele>
        <time>2017-07-26T09:23:58Z</time>
      </trkpt>
      <trkpt lat="44.7825500" lon="7.0439230">
        <ele>1519.2</ele>
        <time>2017-07-26T09:24:01Z</time>
      </trkpt>
      <trkpt lat="44.7825850" lon="7.0438760">
        <ele>1518.6</ele>
        <time>2017-07-26T09:24:02Z</time>
      </trkpt>
      <trkpt lat="44.7826260" lon="7.0438560">
        <ele>1518.0</ele>
        <time>2017-07-26T09:24:03Z</time>
      </trkpt>
      <trkpt lat="44.7826990" lon="7.0438180">
        <ele>1516.6</ele>
        <time>2017-07-26T09:24:05Z</time>
      </trkpt>
      <trkpt lat="44.7827350" lon="7.0438000">
        <ele>1515.8</ele>
        <time>2017-07-26T09:24:06Z</time>
      </trkpt>
      <trkpt lat="44.7827690" lon="7.0437670">
        <ele>1515.0</ele>
        <time>2017-07-26T09:24:07Z</time>
      </trkpt>
      <trkpt lat="44.7827200" lon="7.0437120">
        <ele>1513.6</ele>
        <time>2017-07-26T09:24:09Z</time>
      </trkpt>
      <trkpt lat="44.7826460" lon="7.0437190">
        <ele>1512.4</ele>
        <time>2017-07-26T09:24:11Z</time>
      </trkpt>
      <trkpt lat="44.7826780" lon="7.0437160">
        <ele>1511.6</ele>
        <time>2017-07-26T09:24:12Z</time>
      </trkpt>
      <trkpt lat="44.7827100" lon="7.0437140">
        <ele>1511.2</ele>
        <time>2017-07-26T09:24:13Z</time>
      </trkpt>
      <trkpt lat="44.7827680" lon="7.0436550">
        <ele>1509.4</ele>
        <time>2017-07-26T09:24:15Z</time>
      </trkpt>
      <trkpt lat="44.7828510" lon="7.0436270">
        <ele>1508.6</ele>
        <time>2017-07-26T09:24:17Z</time>
      </trkpt>
      <trkpt lat="44.7828750" lon="7.0436380">
        <ele>1508.2</ele>
        <time>2017-07-26T09:24:18Z</time>
      </trkpt>
      <trkpt lat="44.7829550" lon="7.0436650">
        <ele>1507.6</ele>
        <time>2017-07-26T09:24:19Z</time>
      </trkpt>
      <trkpt lat="44.7830340" lon="7.0436830">
        <ele>1506.6</ele>
        <time>2017-07-26T09:24:20Z</time>
      </trkpt>
      <trkpt lat="44.7831210" lon="7.0436930">
        <ele>1506.0</ele>
        <time>2017-07-26T09:24:21Z</time>
      </trkpt>
      <trkpt lat="44.7831940" lon="7.0436990">
        <ele>1505.6</ele>
        <time>2017-07-26T09:24:22Z</time>
      </trkpt>
      <trkpt lat="44.7834550" lon="7.0436920">
        <ele>1504.2</ele>
        <time>2017-07-26T09:24:25Z</time>
      </trkpt>
      <trkpt lat="44.7836970" lon="7.0437800">
        <ele>1503.0</ele>
        <time>2017-07-26T09:24:27Z</time>
      </trkpt>
      <trkpt lat="44.7839340" lon="7.0438770">
        <ele>1501.0</ele>
        <time>2017-07-26T09:24:29Z</time>
      </trkpt>
      <trkpt lat="44.7841210" lon="7.0440000">
        <ele>1500.0</ele>
        <time>2017-07-26T09:24:31Z</time>
      </trkpt>
      <trkpt lat="44.7842860" lon="7.0440870">
        <ele>1498.4</ele>
        <time>2017-07-26T09:24:34Z</time>
      </trkpt>
      <trkpt lat="44.7843410" lon="7.0440340">
        <ele>1497.8</ele>
        <time>2017-07-26T09:24:35Z</time>
      </trkpt>
      <trkpt lat="44.7844030" lon="7.0439760">
        <ele>1497.2</ele>
        <time>2017-07-26T09:24:36Z</time>
      </trkpt>
      <trkpt lat="44.7844740" lon="7.0439060">
        <ele>1496.2</ele>
        <time>2017-07-26T09:24:37Z</time>
      </trkpt>
      <trkpt lat="44.7845800" lon="7.0438380">
        <ele>1495.2</ele>
        <time>2017-07-26T09:24:38Z</time>
      </trkpt>
      <trkpt lat="44.7846690" lon="7.0437650">
        <ele>1493.8</ele>
        <time>2017-07-26T09:24:39Z</time>
      </trkpt>
      <trkpt lat="44.7848480" lon="7.0436590">
        <ele>1491.8</ele>
        <time>2017-07-26T09:24:41Z</time>
      </trkpt>
      <trkpt lat="44.7849640" lon="7.0436510">
        <ele>1490.6</ele>
        <time>2017-07-26T09:24:42Z</time>
      </trkpt>
      <trkpt lat="44.7850520" lon="7.0436420">
        <ele>1489.0</ele>
        <time>2017-07-26T09:24:43Z</time>
      </trkpt>
      <trkpt lat="44.7851340" lon="7.0436500">
        <ele>1486.4</ele>
        <time>2017-07-26T09:24:44Z</time>
      </trkpt>
      <trkpt lat="44.7852180" lon="7.0436550">
        <ele>1485.4</ele>
        <time>2017-07-26T09:24:45Z</time>
      </trkpt>
      <trkpt lat="44.7853000" lon="7.0436600">
        <ele>1484.0</ele>
        <time>2017-07-26T09:24:46Z</time>
      </trkpt>
      <trkpt lat="44.7854320" lon="7.0437090">
        <ele>1482.6</ele>
        <time>2017-07-26T09:24:47Z</time>
      </trkpt>
      <trkpt lat="44.7855200" lon="7.0437310">
        <ele>1481.0</ele>
        <time>2017-07-26T09:24:48Z</time>
      </trkpt>
      <trkpt lat="44.7856620" lon="7.0437860">
        <ele>1479.0</ele>
        <time>2017-07-26T09:24:49Z</time>
      </trkpt>
      <trkpt lat="44.7857930" lon="7.0438450">
        <ele>1477.2</ele>
        <time>2017-07-26T09:24:50Z</time>
      </trkpt>
      <trkpt lat="44.7859320" lon="7.0438940">
        <ele>1475.6</ele>
        <time>2017-07-26T09:24:51Z</time>
      </trkpt>
      <trkpt lat="44.7860870" lon="7.0439300">
        <ele>1474.4</ele>
        <time>2017-07-26T09:24:52Z</time>
      </trkpt>
      <trkpt lat="44.7862310" lon="7.0439720">
        <ele>1472.6</ele>
        <time>2017-07-26T09:24:53Z</time>
      </trkpt>
      <trkpt lat="44.7863690" lon="7.0440220">
        <ele>1470.8</ele>
        <time>2017-07-26T09:24:54Z</time>
      </trkpt>
      <trkpt lat="44.7865070" lon="7.0440630">
        <ele>1469.2</ele>
        <time>2017-07-26T09:24:55Z</time>
      </trkpt>
      <trkpt lat="44.7866340" lon="7.0440920">
        <ele>1468.0</ele>
        <time>2017-07-26T09:24:56Z</time>
      </trkpt>
      <trkpt lat="44.7867510" lon="7.0441180">
        <ele>1466.6</ele>
        <time>2017-07-26T09:24:57Z</time>
      </trkpt>
      <trkpt lat="44.7868110" lon="7.0441060">
        <ele>1465.2</ele>
        <time>2017-07-26T09:24:58Z</time>
      </trkpt>
      <trkpt lat="44.7868720" lon="7.0440600">
        <ele>1463.6</ele>
        <time>2017-07-26T09:24:59Z</time>
      </trkpt>
      <trkpt lat="44.7869780" lon="7.0440280">
        <ele>1462.4</ele>
        <time>2017-07-26T09:25:00Z</time>
      </trkpt>
      <trkpt lat="44.7870740" lon="7.0440010">
        <ele>1461.0</ele>
        <time>2017-07-26T09:25:01Z</time>
      </trkpt>
      <trkpt lat="44.7871450" lon="7.0439960">
        <ele>1459.2</ele>
        <time>2017-07-26T09:25:02Z</time>
      </trkpt>
      <trkpt lat="44.7872190" lon="7.0439980">
        <ele>1457.8</ele>
        <time>2017-07-26T09:25:03Z</time>
      </trkpt>
      <trkpt lat="44.7872840" lon="7.0440250">
        <ele>1456.4</ele>
        <time>2017-07-26T09:25:04Z</time>
      </trkpt>
      <trkpt lat="44.7873340" lon="7.0440490">
        <ele>1455.4</ele>
        <time>2017-07-26T09:25:05Z</time>
      </trkpt>
      <trkpt lat="44.7873810" lon="7.0440730">
        <ele>1453.8</ele>
        <time>2017-07-26T09:25:06Z</time>
      </trkpt>
      <trkpt lat="44.7874770" lon="7.0441270">
        <ele>1452.2</ele>
        <time>2017-07-26T09:25:07Z</time>
      </trkpt>
      <trkpt lat="44.7875770" lon="7.0441750">
        <ele>1448.8</ele>
        <time>2017-07-26T09:25:08Z</time>
      </trkpt>
      <trkpt lat="44.7876630" lon="7.0442210">
        <ele>1447.2</ele>
        <time>2017-07-26T09:25:09Z</time>
      </trkpt>
      <trkpt lat="44.7877410" lon="7.0442620">
        <ele>1445.8</ele>
        <time>2017-07-26T09:25:10Z</time>
      </trkpt>
      <trkpt lat="44.7878200" lon="7.0443060">
        <ele>1444.6</ele>
        <time>2017-07-26T09:25:11Z</time>
      </trkpt>
      <trkpt lat="44.7879180" lon="7.0443640">
        <ele>1443.2</ele>
        <time>2017-07-26T09:25:12Z</time>
      </trkpt>
      <trkpt lat="44.7880270" lon="7.0443830">
        <ele>1442.0</ele>
        <time>2017-07-26T09:25:13Z</time>
      </trkpt>
      <trkpt lat="44.7881410" lon="7.0444390">
        <ele>1440.6</ele>
        <time>2017-07-26T09:25:14Z</time>
      </trkpt>
      <trkpt lat="44.7882210" lon="7.0445170">
        <ele>1439.4</ele>
        <time>2017-07-26T09:25:15Z</time>
      </trkpt>
      <trkpt lat="44.7883370" lon="7.0446200">
        <ele>1438.0</ele>
        <time>2017-07-26T09:25:16Z</time>
      </trkpt>
      <trkpt lat="44.7883600" lon="7.0447140">
        <ele>1437.0</ele>
        <time>2017-07-26T09:25:17Z</time>
      </trkpt>
      <trkpt lat="44.7884610" lon="7.0447990">
        <ele>1436.0</ele>
        <time>2017-07-26T09:25:18Z</time>
      </trkpt>
      <trkpt lat="44.7885560" lon="7.0449060">
        <ele>1435.0</ele>
        <time>2017-07-26T09:25:19Z</time>
      </trkpt>
      <trkpt lat="44.7886510" lon="7.0450120">
        <ele>1434.4</ele>
        <time>2017-07-26T09:25:20Z</time>
      </trkpt>
      <trkpt lat="44.7888560" lon="7.0451280">
        <ele>1433.0</ele>
        <time>2017-07-26T09:25:22Z</time>
      </trkpt>
      <trkpt lat="44.7889780" lon="7.0451380">
        <ele>1432.2</ele>
        <time>2017-07-26T09:25:23Z</time>
      </trkpt>
      <trkpt lat="44.7890420" lon="7.0451600">
        <ele>1431.4</ele>
        <time>2017-07-26T09:25:24Z</time>
      </trkpt>
      <trkpt lat="44.7891000" lon="7.0451600">
        <ele>1430.6</ele>
        <time>2017-07-26T09:25:25Z</time>
      </trkpt>
      <trkpt lat="44.7891300" lon="7.0451730">
        <ele>1430.0</ele>
        <time>2017-07-26T09:25:26Z</time>
      </trkpt>
      <trkpt lat="44.7891830" lon="7.0451570">
        <ele>1429.6</ele>
        <time>2017-07-26T09:25:27Z</time>
      </trkpt>
      <trkpt lat="44.7894260" lon="7.0451920">
        <ele>1428.8</ele>
        <time>2017-07-26T09:25:31Z</time>
      </trkpt>
      <trkpt lat="44.7895050" lon="7.0451990">
        <ele>1428.4</ele>
        <time>2017-07-26T09:25:32Z</time>
      </trkpt>
      <trkpt lat="44.7896750" lon="7.0452240">
        <ele>1427.6</ele>
        <time>2017-07-26T09:25:34Z</time>
      </trkpt>
      <trkpt lat="44.7899830" lon="7.0452530">
        <ele>1425.8</ele>
        <time>2017-07-26T09:25:37Z</time>
      </trkpt>
      <trkpt lat="44.7902440" lon="7.0452440">
        <ele>1424.8</ele>
        <time>2017-07-26T09:25:39Z</time>
      </trkpt>
      <trkpt lat="44.7904360" lon="7.0452990">
        <ele>1423.8</ele>
        <time>2017-07-26T09:25:41Z</time>
      </trkpt>
      <trkpt lat="44.7905110" lon="7.0453400">
        <ele>1423.2</ele>
        <time>2017-07-26T09:25:42Z</time>
      </trkpt>
      <trkpt lat="44.7906670" lon="7.0452560">
        <ele>1422.0</ele>
        <time>2017-07-26T09:25:44Z</time>
      </trkpt>
      <trkpt lat="44.7907370" lon="7.0452210">
        <ele>1421.8</ele>
        <time>2017-07-26T09:25:45Z</time>
      </trkpt>
      <trkpt lat="44.7908770" lon="7.0451650">
        <ele>1420.4</ele>
        <time>2017-07-26T09:25:47Z</time>
      </trkpt>
      <trkpt lat="44.7910420" lon="7.0451430">
        <ele>1418.8</ele>
        <time>2017-07-26T09:25:49Z</time>
      </trkpt>
      <trkpt lat="44.7912810" lon="7.0452700">
        <ele>1417.6</ele>
        <time>2017-07-26T09:25:51Z</time>
      </trkpt>
      <trkpt lat="44.7913690" lon="7.0453270">
        <ele>1416.8</ele>
        <time>2017-07-26T09:25:52Z</time>
      </trkpt>
      <trkpt lat="44.7915130" lon="7.0454210">
        <ele>1416.4</ele>
        <time>2017-07-26T09:25:54Z</time>
      </trkpt>
      <trkpt lat="44.7916410" lon="7.0455710">
        <ele>1415.6</ele>
        <time>2017-07-26T09:25:56Z</time>
      </trkpt>
      <trkpt lat="44.7917040" lon="7.0456290">
        <ele>1415.2</ele>
        <time>2017-07-26T09:25:57Z</time>
      </trkpt>
      <trkpt lat="44.7917940" lon="7.0456850">
        <ele>1414.8</ele>
        <time>2017-07-26T09:25:58Z</time>
      </trkpt>
      <trkpt lat="44.7919600" lon="7.0458550">
        <ele>1413.8</ele>
        <time>2017-07-26T09:26:00Z</time>
      </trkpt>
      <trkpt lat="44.7921060" lon="7.0460160">
        <ele>1413.4</ele>
        <time>2017-07-26T09:26:02Z</time>
      </trkpt>
      <trkpt lat="44.7922670" lon="7.0461220">
        <ele>1413.0</ele>
        <time>2017-07-26T09:26:04Z</time>
      </trkpt>
      <trkpt lat="44.7923530" lon="7.0461610">
        <ele>1412.6</ele>
        <time>2017-07-26T09:26:05Z</time>
      </trkpt>
      <trkpt lat="44.7926840" lon="7.0462340">
        <ele>1412.0</ele>
        <time>2017-07-26T09:26:09Z</time>
      </trkpt>
      <trkpt lat="44.7927570" lon="7.0462510">
        <ele>1412.2</ele>
        <time>2017-07-26T09:26:10Z</time>
      </trkpt>
      <trkpt lat="44.7929930" lon="7.0463440">
        <ele>1411.8</ele>
        <time>2017-07-26T09:26:13Z</time>
      </trkpt>
      <trkpt lat="44.7930540" lon="7.0463370">
        <ele>1411.8</ele>
        <time>2017-07-26T09:26:14Z</time>
      </trkpt>
      <trkpt lat="44.7932040" lon="7.0463030">
        <ele>1412.0</ele>
        <time>2017-07-26T09:26:16Z</time>
      </trkpt>
      <trkpt lat="44.7932760" lon="7.0462680">
        <ele>1411.8</ele>
        <time>2017-07-26T09:26:17Z</time>
      </trkpt>
      <trkpt lat="44.7934150" lon="7.0461580">
        <ele>1411.8</ele>
        <time>2017-07-26T09:26:19Z</time>
      </trkpt>
      <trkpt lat="44.7935400" lon="7.0460290">
        <ele>1412.4</ele>
        <time>2017-07-26T09:26:21Z</time>
      </trkpt>
      <trkpt lat="44.7936450" lon="7.0459080">
        <ele>1413.2</ele>
        <time>2017-07-26T09:26:23Z</time>
      </trkpt>
      <trkpt lat="44.7936950" lon="7.0458890">
        <ele>1413.6</ele>
        <time>2017-07-26T09:26:24Z</time>
      </trkpt>
      <trkpt lat="44.7937890" lon="7.0458610">
        <ele>1414.4</ele>
        <time>2017-07-26T09:26:26Z</time>
      </trkpt>
      <trkpt lat="44.7938320" lon="7.0458490">
        <ele>1414.8</ele>
        <time>2017-07-26T09:26:27Z</time>
      </trkpt>
      <trkpt lat="44.7939730" lon="7.0458720">
        <ele>1415.8</ele>
        <time>2017-07-26T09:26:31Z</time>
      </trkpt>
      <trkpt lat="44.7940830" lon="7.0460360">
        <ele>1417.0</ele>
        <time>2017-07-26T09:26:35Z</time>
      </trkpt>
      <trkpt lat="44.7941160" lon="7.0460820">
        <ele>1417.2</ele>
        <time>2017-07-26T09:26:36Z</time>
      </trkpt>
      <trkpt lat="44.7941380" lon="7.0461420">
        <ele>1418.0</ele>
        <time>2017-07-26T09:26:39Z</time>
      </trkpt>
      <trkpt lat="44.7941590" lon="7.0461180">
        <ele>1420.6</ele>
        <time>2017-07-26T09:26:53Z</time>
      </trkpt>
      <trkpt lat="44.7942440" lon="7.0461280">
        <ele>1421.0</ele>
        <time>2017-07-26T09:26:59Z</time>
      </trkpt>
      <trkpt lat="44.7943360" lon="7.0461080">
        <ele>1421.8</ele>
        <time>2017-07-26T09:27:03Z</time>
      </trkpt>
      <trkpt lat="44.7943800" lon="7.0460780">
        <ele>1422.8</ele>
        <time>2017-07-26T09:27:05Z</time>
      </trkpt>
      <trkpt lat="44.7944020" lon="7.0460610">
        <ele>1423.4</ele>
        <time>2017-07-26T09:27:06Z</time>
      </trkpt>
      <trkpt lat="44.7944210" lon="7.0460340">
        <ele>1423.8</ele>
        <time>2017-07-26T09:27:07Z</time>
      </trkpt>
      <trkpt lat="44.7944380" lon="7.0460020">
        <ele>1425.0</ele>
        <time>2017-07-26T09:27:08Z</time>
      </trkpt>
      <trkpt lat="44.7945040" lon="7.0459350">
        <ele>1426.0</ele>
        <time>2017-07-26T09:27:11Z</time>
      </trkpt>
      <trkpt lat="44.7945230" lon="7.0459070">
        <ele>1426.2</ele>
        <time>2017-07-26T09:27:12Z</time>
      </trkpt>
      <trkpt lat="44.7945940" lon="7.0458090">
        <ele>1427.4</ele>
        <time>2017-07-26T09:27:15Z</time>
      </trkpt>
      <trkpt lat="44.7946420" lon="7.0457210">
        <ele>1428.4</ele>
        <time>2017-07-26T09:27:17Z</time>
      </trkpt>
      <trkpt lat="44.7946660" lon="7.0456790">
        <ele>1428.8</ele>
        <time>2017-07-26T09:27:18Z</time>
      </trkpt>
      <trkpt lat="44.7947730" lon="7.0455610">
        <ele>1429.8</ele>
        <time>2017-07-26T09:27:22Z</time>
      </trkpt>
      <trkpt lat="44.7948080" lon="7.0455420">
        <ele>1430.0</ele>
        <time>2017-07-26T09:27:23Z</time>
      </trkpt>
      <trkpt lat="44.7950370" lon="7.0455090">
        <ele>1431.0</ele>
        <time>2017-07-26T09:27:28Z</time>
      </trkpt>
      <trkpt lat="44.7952310" lon="7.0454940">
        <ele>1431.4</ele>
        <time>2017-07-26T09:27:31Z</time>
      </trkpt>
      <trkpt lat="44.7953190" lon="7.0454910">
        <ele>1431.8</ele>
        <time>2017-07-26T09:27:32Z</time>
      </trkpt>
      <trkpt lat="44.7955080" lon="7.0454870">
        <ele>1431.6</ele>
        <time>2017-07-26T09:27:34Z</time>
      </trkpt>
      <trkpt lat="44.7957010" lon="7.0455160">
        <ele>1431.4</ele>
        <time>2017-07-26T09:27:36Z</time>
      </trkpt>
      <trkpt lat="44.7961910" lon="7.0455630">
        <ele>1429.8</ele>
        <time>2017-07-26T09:27:41Z</time>
      </trkpt>
      <trkpt lat="44.7963620" lon="7.0455190">
        <ele>1429.4</ele>
        <time>2017-07-26T09:27:43Z</time>
      </trkpt>
      <trkpt lat="44.7965340" lon="7.0454580">
        <ele>1429.4</ele>
        <time>2017-07-26T09:27:45Z</time>
      </trkpt>
      <trkpt lat="44.7966210" lon="7.0454440">
        <ele>1429.2</ele>
        <time>2017-07-26T09:27:46Z</time>
      </trkpt>
      <trkpt lat="44.7967050" lon="7.0454540">
        <ele>1428.8</ele>
        <time>2017-07-26T09:27:47Z</time>
      </trkpt>
      <trkpt lat="44.7968550" lon="7.0454060">
        <ele>1428.6</ele>
        <time>2017-07-26T09:27:49Z</time>
      </trkpt>
      <trkpt lat="44.7969810" lon="7.0452990">
        <ele>1428.8</ele>
        <time>2017-07-26T09:27:51Z</time>
      </trkpt>
      <trkpt lat="44.7970350" lon="7.0452610">
        <ele>1429.0</ele>
        <time>2017-07-26T09:27:52Z</time>
      </trkpt>
      <trkpt lat="44.7970890" lon="7.0452550">
        <ele>1429.0</ele>
        <time>2017-07-26T09:27:53Z</time>
      </trkpt>
      <trkpt lat="44.7971980" lon="7.0453130">
        <ele>1427.8</ele>
        <time>2017-07-26T09:27:55Z</time>
      </trkpt>
      <trkpt lat="44.7972490" lon="7.0453240">
        <ele>1427.4</ele>
        <time>2017-07-26T09:27:56Z</time>
      </trkpt>
      <trkpt lat="44.7973390" lon="7.0452480">
        <ele>1427.4</ele>
        <time>2017-07-26T09:27:58Z</time>
      </trkpt>
      <trkpt lat="44.7974310" lon="7.0451610">
        <ele>1427.4</ele>
        <time>2017-07-26T09:28:00Z</time>
      </trkpt>
      <trkpt lat="44.7975540" lon="7.0450090">
        <ele>1427.4</ele>
        <time>2017-07-26T09:28:03Z</time>
      </trkpt>
      <trkpt lat="44.7975920" lon="7.0449540">
        <ele>1427.6</ele>
        <time>2017-07-26T09:28:04Z</time>
      </trkpt>
      <trkpt lat="44.7977650" lon="7.0447520">
        <ele>1428.0</ele>
        <time>2017-07-26T09:28:08Z</time>
      </trkpt>
      <trkpt lat="44.7978570" lon="7.0446770">
        <ele>1428.2</ele>
        <time>2017-07-26T09:28:10Z</time>
      </trkpt>
      <trkpt lat="44.7979560" lon="7.0446170">
        <ele>1428.4</ele>
        <time>2017-07-26T09:28:12Z</time>
      </trkpt>
      <trkpt lat="44.7980650" lon="7.0445760">
        <ele>1428.6</ele>
        <time>2017-07-26T09:28:14Z</time>
      </trkpt>
      <trkpt lat="44.7981770" lon="7.0445760">
        <ele>1429.0</ele>
        <time>2017-07-26T09:28:16Z</time>
      </trkpt>
      <trkpt lat="44.7984760" lon="7.0445330">
        <ele>1429.2</ele>
        <time>2017-07-26T09:28:21Z</time>
      </trkpt>
      <trkpt lat="44.7985380" lon="7.0445270">
        <ele>1428.6</ele>
        <time>2017-07-26T09:28:22Z</time>
      </trkpt>
      <trkpt lat="44.7987640" lon="7.0443660">
        <ele>1428.2</ele>
        <time>2017-07-26T09:28:26Z</time>
      </trkpt>
      <trkpt lat="44.7988720" lon="7.0442120">
        <ele>1427.6</ele>
        <time>2017-07-26T09:28:28Z</time>
      </trkpt>
      <trkpt lat="44.7989200" lon="7.0441080">
        <ele>1427.2</ele>
        <time>2017-07-26T09:28:29Z</time>
      </trkpt>
      <trkpt lat="44.7989720" lon="7.0440150">
        <ele>1427.0</ele>
        <time>2017-07-26T09:28:30Z</time>
      </trkpt>
      <trkpt lat="44.7990150" lon="7.0438870">
        <ele>1426.8</ele>
        <time>2017-07-26T09:28:31Z</time>
      </trkpt>
      <trkpt lat="44.7990990" lon="7.0436390">
        <ele>1425.8</ele>
        <time>2017-07-26T09:28:33Z</time>
      </trkpt>
      <trkpt lat="44.7991380" lon="7.0435400">
        <ele>1425.2</ele>
        <time>2017-07-26T09:28:34Z</time>
      </trkpt>
      <trkpt lat="44.7991770" lon="7.0434650">
        <ele>1424.6</ele>
        <time>2017-07-26T09:28:35Z</time>
      </trkpt>
      <trkpt lat="44.7992350" lon="7.0434070">
        <ele>1423.8</ele>
        <time>2017-07-26T09:28:37Z</time>
      </trkpt>
      <trkpt lat="44.7992690" lon="7.0434210">
        <ele>1423.0</ele>
        <time>2017-07-26T09:28:38Z</time>
      </trkpt>
      <trkpt lat="44.7993040" lon="7.0434740">
        <ele>1422.2</ele>
        <time>2017-07-26T09:28:39Z</time>
      </trkpt>
      <trkpt lat="44.7993260" lon="7.0435400">
        <ele>1421.4</ele>
        <time>2017-07-26T09:28:40Z</time>
      </trkpt>
      <trkpt lat="44.7993530" lon="7.0437040">
        <ele>1420.0</ele>
        <time>2017-07-26T09:28:42Z</time>
      </trkpt>
      <trkpt lat="44.7993560" lon="7.0439070">
        <ele>1418.0</ele>
        <time>2017-07-26T09:28:44Z</time>
      </trkpt>
      <trkpt lat="44.7993580" lon="7.0441160">
        <ele>1416.8</ele>
        <time>2017-07-26T09:28:46Z</time>
      </trkpt>
      <trkpt lat="44.7993590" lon="7.0443040">
        <ele>1415.8</ele>
        <time>2017-07-26T09:28:48Z</time>
      </trkpt>
      <trkpt lat="44.7993380" lon="7.0443860">
        <ele>1415.2</ele>
        <time>2017-07-26T09:28:49Z</time>
      </trkpt>
      <trkpt lat="44.7993370" lon="7.0444770">
        <ele>1414.8</ele>
        <time>2017-07-26T09:28:50Z</time>
      </trkpt>
      <trkpt lat="44.7993260" lon="7.0445650">
        <ele>1414.2</ele>
        <time>2017-07-26T09:28:51Z</time>
      </trkpt>
      <trkpt lat="44.7992650" lon="7.0448460">
        <ele>1413.2</ele>
        <time>2017-07-26T09:28:54Z</time>
      </trkpt>
      <trkpt lat="44.7992200" lon="7.0449540">
        <ele>1412.6</ele>
        <time>2017-07-26T09:28:55Z</time>
      </trkpt>
      <trkpt lat="44.7991680" lon="7.0450710">
        <ele>1411.8</ele>
        <time>2017-07-26T09:28:56Z</time>
      </trkpt>
      <trkpt lat="44.7990650" lon="7.0453070">
        <ele>1410.2</ele>
        <time>2017-07-26T09:28:58Z</time>
      </trkpt>
      <trkpt lat="44.7989570" lon="7.0455180">
        <ele>1408.8</ele>
        <time>2017-07-26T09:29:00Z</time>
      </trkpt>
      <trkpt lat="44.7988400" lon="7.0457160">
        <ele>1407.4</ele>
        <time>2017-07-26T09:29:02Z</time>
      </trkpt>
      <trkpt lat="44.7988010" lon="7.0457850">
        <ele>1406.4</ele>
        <time>2017-07-26T09:29:03Z</time>
      </trkpt>
      <trkpt lat="44.7987730" lon="7.0458660">
        <ele>1405.6</ele>
        <time>2017-07-26T09:29:04Z</time>
      </trkpt>
      <trkpt lat="44.7987150" lon="7.0460270">
        <ele>1404.2</ele>
        <time>2017-07-26T09:29:06Z</time>
      </trkpt>
      <trkpt lat="44.7986500" lon="7.0461820">
        <ele>1401.6</ele>
        <time>2017-07-26T09:29:08Z</time>
      </trkpt>
      <trkpt lat="44.7986000" lon="7.0462280">
        <ele>1400.6</ele>
        <time>2017-07-26T09:29:09Z</time>
      </trkpt>
      <trkpt lat="44.7985350" lon="7.0462420">
        <ele>1399.8</ele>
        <time>2017-07-26T09:29:10Z</time>
      </trkpt>
      <trkpt lat="44.7984610" lon="7.0462440">
        <ele>1399.4</ele>
        <time>2017-07-26T09:29:11Z</time>
      </trkpt>
      <trkpt lat="44.7983950" lon="7.0462540">
        <ele>1398.6</ele>
        <time>2017-07-26T09:29:12Z</time>
      </trkpt>
      <trkpt lat="44.7983450" lon="7.0462820">
        <ele>1398.0</ele>
        <time>2017-07-26T09:29:13Z</time>
      </trkpt>
      <trkpt lat="44.7983030" lon="7.0463610">
        <ele>1397.2</ele>
        <time>2017-07-26T09:29:14Z</time>
      </trkpt>
      <trkpt lat="44.7982300" lon="7.0465600">
        <ele>1395.6</ele>
        <time>2017-07-26T09:29:16Z</time>
      </trkpt>
      <trkpt lat="44.7982110" lon="7.0466860">
        <ele>1395.0</ele>
        <time>2017-07-26T09:29:17Z</time>
      </trkpt>
      <trkpt lat="44.7982000" lon="7.0467940">
        <ele>1394.4</ele>
        <time>2017-07-26T09:29:18Z</time>
      </trkpt>
      <trkpt lat="44.7981900" lon="7.0468880">
        <ele>1393.8</ele>
        <time>2017-07-26T09:29:19Z</time>
      </trkpt>
      <trkpt lat="44.7981760" lon="7.0469880">
        <ele>1392.8</ele>
        <time>2017-07-26T09:29:20Z</time>
      </trkpt>
      <trkpt lat="44.7981480" lon="7.0470810">
        <ele>1391.8</ele>
        <time>2017-07-26T09:29:21Z</time>
      </trkpt>
      <trkpt lat="44.7980890" lon="7.0472820">
        <ele>1389.8</ele>
        <time>2017-07-26T09:29:23Z</time>
      </trkpt>
      <trkpt lat="44.7980570" lon="7.0475000">
        <ele>1388.0</ele>
        <time>2017-07-26T09:29:25Z</time>
      </trkpt>
      <trkpt lat="44.7980520" lon="7.0476260">
        <ele>1387.4</ele>
        <time>2017-07-26T09:29:26Z</time>
      </trkpt>
      <trkpt lat="44.7980480" lon="7.0477230">
        <ele>1386.8</ele>
        <time>2017-07-26T09:29:27Z</time>
      </trkpt>
      <trkpt lat="44.7980330" lon="7.0479070">
        <ele>1385.6</ele>
        <time>2017-07-26T09:29:29Z</time>
      </trkpt>
      <trkpt lat="44.7980100" lon="7.0479580">
        <ele>1385.2</ele>
        <time>2017-07-26T09:29:30Z</time>
      </trkpt>
      <trkpt lat="44.7979340" lon="7.0479840">
        <ele>1384.2</ele>
        <time>2017-07-26T09:29:32Z</time>
      </trkpt>
      <trkpt lat="44.7978930" lon="7.0480050">
        <ele>1383.8</ele>
        <time>2017-07-26T09:29:33Z</time>
      </trkpt>
      <trkpt lat="44.7978540" lon="7.0480280">
        <ele>1383.6</ele>
        <time>2017-07-26T09:29:34Z</time>
      </trkpt>
      <trkpt lat="44.7977060" lon="7.0481380">
        <ele>1383.2</ele>
        <time>2017-07-26T09:29:36Z</time>
      </trkpt>
      <trkpt lat="44.7975880" lon="7.0482640">
        <ele>1382.2</ele>
        <time>2017-07-26T09:29:38Z</time>
      </trkpt>
      <trkpt lat="44.7974290" lon="7.0483220">
        <ele>1381.2</ele>
        <time>2017-07-26T09:29:40Z</time>
      </trkpt>
      <trkpt lat="44.7973440" lon="7.0483520">
        <ele>1380.6</ele>
        <time>2017-07-26T09:29:41Z</time>
      </trkpt>
      <trkpt lat="44.7970940" lon="7.0485630">
        <ele>1379.6</ele>
        <time>2017-07-26T09:29:44Z</time>
      </trkpt>
      <trkpt lat="44.7970320" lon="7.0486710">
        <ele>1379.0</ele>
        <time>2017-07-26T09:29:45Z</time>
      </trkpt>
      <trkpt lat="44.7969950" lon="7.0487850">
        <ele>1378.4</ele>
        <time>2017-07-26T09:29:46Z</time>
      </trkpt>
      <trkpt lat="44.7969550" lon="7.0488950">
        <ele>1377.6</ele>
        <time>2017-07-26T09:29:47Z</time>
      </trkpt>
      <trkpt lat="44.7968760" lon="7.0491240">
        <ele>1376.2</ele>
        <time>2017-07-26T09:29:49Z</time>
      </trkpt>
      <trkpt lat="44.7968090" lon="7.0493160">
        <ele>1374.2</ele>
        <time>2017-07-26T09:29:51Z</time>
      </trkpt>
      <trkpt lat="44.7968040" lon="7.0493720">
        <ele>1372.6</ele>
        <time>2017-07-26T09:29:52Z</time>
      </trkpt>
      <trkpt lat="44.7967600" lon="7.0494070">
        <ele>1371.2</ele>
        <time>2017-07-26T09:29:53Z</time>
      </trkpt>
      <trkpt lat="44.7967190" lon="7.0494490">
        <ele>1369.8</ele>
        <time>2017-07-26T09:29:54Z</time>
      </trkpt>
      <trkpt lat="44.7966790" lon="7.0494970">
        <ele>1368.6</ele>
        <time>2017-07-26T09:29:55Z</time>
      </trkpt>
      <trkpt lat="44.7966570" lon="7.0496140">
        <ele>1366.2</ele>
        <time>2017-07-26T09:29:56Z</time>
      </trkpt>
      <trkpt lat="44.7966040" lon="7.0497190">
        <ele>1365.2</ele>
        <time>2017-07-26T09:29:57Z</time>
      </trkpt>
      <trkpt lat="44.7965680" lon="7.0498170">
        <ele>1364.0</ele>
        <time>2017-07-26T09:29:58Z</time>
      </trkpt>
      <trkpt lat="44.7965430" lon="7.0499090">
        <ele>1362.8</ele>
        <time>2017-07-26T09:29:59Z</time>
      </trkpt>
      <trkpt lat="44.7965060" lon="7.0501500">
        <ele>1361.0</ele>
        <time>2017-07-26T09:30:01Z</time>
      </trkpt>
      <trkpt lat="44.7964850" lon="7.0502820">
        <ele>1359.8</ele>
        <time>2017-07-26T09:30:02Z</time>
      </trkpt>
      <trkpt lat="44.7964690" lon="7.0504070">
        <ele>1358.6</ele>
        <time>2017-07-26T09:30:03Z</time>
      </trkpt>
      <trkpt lat="44.7964520" lon="7.0505380">
        <ele>1357.2</ele>
        <time>2017-07-26T09:30:04Z</time>
      </trkpt>
      <trkpt lat="44.7964020" lon="7.0508060">
        <ele>1354.8</ele>
        <time>2017-07-26T09:30:06Z</time>
      </trkpt>
      <trkpt lat="44.7963840" lon="7.0509310">
        <ele>1353.6</ele>
        <time>2017-07-26T09:30:07Z</time>
      </trkpt>
      <trkpt lat="44.7964970" lon="7.0510850">
        <ele>1352.4</ele>
        <time>2017-07-26T09:30:08Z</time>
      </trkpt>
      <trkpt lat="44.7965950" lon="7.0512050">
        <ele>1351.8</ele>
        <time>2017-07-26T09:30:09Z</time>
      </trkpt>
      <trkpt lat="44.7967010" lon="7.0513030">
        <ele>1351.0</ele>
        <time>2017-07-26T09:30:10Z</time>
      </trkpt>
      <trkpt lat="44.7969190" lon="7.0513920">
        <ele>1350.0</ele>
        <time>2017-07-26T09:30:12Z</time>
      </trkpt>
      <trkpt lat="44.7970170" lon="7.0514410">
        <ele>1349.2</ele>
        <time>2017-07-26T09:30:13Z</time>
      </trkpt>
      <trkpt lat="44.7970860" lon="7.0514890">
        <ele>1348.6</ele>
        <time>2017-07-26T09:30:14Z</time>
      </trkpt>
      <trkpt lat="44.7971780" lon="7.0516280">
        <ele>1347.4</ele>
        <time>2017-07-26T09:30:16Z</time>
      </trkpt>
      <trkpt lat="44.7972330" lon="7.0517250">
        <ele>1347.0</ele>
        <time>2017-07-26T09:30:17Z</time>
      </trkpt>
      <trkpt lat="44.7973030" lon="7.0518060">
        <ele>1346.6</ele>
        <time>2017-07-26T09:30:18Z</time>
      </trkpt>
      <trkpt lat="44.7973510" lon="7.0518690">
        <ele>1346.2</ele>
        <time>2017-07-26T09:30:19Z</time>
      </trkpt>
      <trkpt lat="44.7974100" lon="7.0519270">
        <ele>1345.4</ele>
        <time>2017-07-26T09:30:20Z</time>
      </trkpt>
      <trkpt lat="44.7974660" lon="7.0519840">
        <ele>1344.8</ele>
        <time>2017-07-26T09:30:21Z</time>
      </trkpt>
      <trkpt lat="44.7976630" lon="7.0521650">
        <ele>1343.6</ele>
        <time>2017-07-26T09:30:23Z</time>
      </trkpt>
      <trkpt lat="44.7977910" lon="7.0522880">
        <ele>1343.0</ele>
        <time>2017-07-26T09:30:24Z</time>
      </trkpt>
      <trkpt lat="44.7979230" lon="7.0524050">
        <ele>1342.4</ele>
        <time>2017-07-26T09:30:25Z</time>
      </trkpt>
      <trkpt lat="44.7981450" lon="7.0526320">
        <ele>1341.2</ele>
        <time>2017-07-26T09:30:27Z</time>
      </trkpt>
      <trkpt lat="44.7983340" lon="7.0528130">
        <ele>1340.2</ele>
        <time>2017-07-26T09:30:29Z</time>
      </trkpt>
      <trkpt lat="44.7984110" lon="7.0528930">
        <ele>1339.4</ele>
        <time>2017-07-26T09:30:30Z</time>
      </trkpt>
      <trkpt lat="44.7985060" lon="7.0529210">
        <ele>1339.0</ele>
        <time>2017-07-26T09:30:31Z</time>
      </trkpt>
      <trkpt lat="44.7986000" lon="7.0529380">
        <ele>1338.8</ele>
        <time>2017-07-26T09:30:32Z</time>
      </trkpt>
      <trkpt lat="44.7987770" lon="7.0529940">
        <ele>1338.4</ele>
        <time>2017-07-26T09:30:34Z</time>
      </trkpt>
      <trkpt lat="44.7989510" lon="7.0530960">
        <ele>1337.8</ele>
        <time>2017-07-26T09:30:36Z</time>
      </trkpt>
      <trkpt lat="44.7990440" lon="7.0531450">
        <ele>1337.8</ele>
        <time>2017-07-26T09:30:37Z</time>
      </trkpt>
      <trkpt lat="44.7992240" lon="7.0532310">
        <ele>1337.2</ele>
        <time>2017-07-26T09:30:39Z</time>
      </trkpt>
      <trkpt lat="44.7994240" lon="7.0533040">
        <ele>1336.2</ele>
        <time>2017-07-26T09:30:41Z</time>
      </trkpt>
      <trkpt lat="44.7995170" lon="7.0533360">
        <ele>1335.6</ele>
        <time>2017-07-26T09:30:42Z</time>
      </trkpt>
      <trkpt lat="44.7996110" lon="7.0533040">
        <ele>1335.2</ele>
        <time>2017-07-26T09:30:43Z</time>
      </trkpt>
      <trkpt lat="44.7997380" lon="7.0532670">
        <ele>1334.6</ele>
        <time>2017-07-26T09:30:45Z</time>
      </trkpt>
      <trkpt lat="44.7998230" lon="7.0532400">
        <ele>1334.2</ele>
        <time>2017-07-26T09:30:47Z</time>
      </trkpt>
      <trkpt lat="44.7998670" lon="7.0532180">
        <ele>1333.8</ele>
        <time>2017-07-26T09:30:49Z</time>
      </trkpt>
      <trkpt lat="44.7999070" lon="7.0532000">
        <ele>1333.2</ele>
        <time>2017-07-26T09:30:52Z</time>
      </trkpt>
      <trkpt lat="44.7999140" lon="7.0532060">
        <ele>1333.0</ele>
        <time>2017-07-26T09:30:53Z</time>
      </trkpt>
      <trkpt lat="44.7998630" lon="7.0530970">
        <ele>1329.4</ele>
        <time>2017-07-26T09:36:13Z</time>
      </trkpt>
      <trkpt lat="44.7998760" lon="7.0530980">
        <ele>1329.4</ele>
        <time>2017-07-26T09:36:14Z</time>
      </trkpt>
      <trkpt lat="44.7999090" lon="7.0531040">
        <ele>1329.6</ele>
        <time>2017-07-26T09:36:16Z</time>
      </trkpt>
      <trkpt lat="44.7999300" lon="7.0531170">
        <ele>1329.6</ele>
        <time>2017-07-26T09:36:17Z</time>
      </trkpt>
      <trkpt lat="44.7999920" lon="7.0531430">
        <ele>1329.6</ele>
        <time>2017-07-26T09:36:19Z</time>
      </trkpt>
      <trkpt lat="44.8000380" lon="7.0531660">
        <ele>1329.4</ele>
        <time>2017-07-26T09:36:20Z</time>
      </trkpt>
      <trkpt lat="44.8001320" lon="7.0532520">
        <ele>1329.4</ele>
        <time>2017-07-26T09:36:22Z</time>
      </trkpt>
      <trkpt lat="44.8002080" lon="7.0533700">
        <ele>1329.2</ele>
        <time>2017-07-26T09:36:24Z</time>
      </trkpt>
      <trkpt lat="44.8003040" lon="7.0536180">
        <ele>1328.2</ele>
        <time>2017-07-26T09:36:27Z</time>
      </trkpt>
      <trkpt lat="44.8003600" lon="7.0537960">
        <ele>1327.8</ele>
        <time>2017-07-26T09:36:29Z</time>
      </trkpt>
      <trkpt lat="44.8003780" lon="7.0538890">
        <ele>1327.6</ele>
        <time>2017-07-26T09:36:30Z</time>
      </trkpt>
      <trkpt lat="44.8004180" lon="7.0540710">
        <ele>1327.0</ele>
        <time>2017-07-26T09:36:32Z</time>
      </trkpt>
      <trkpt lat="44.8004650" lon="7.0542580">
        <ele>1326.4</ele>
        <time>2017-07-26T09:36:34Z</time>
      </trkpt>
      <trkpt lat="44.8004870" lon="7.0543530">
        <ele>1325.8</ele>
        <time>2017-07-26T09:36:35Z</time>
      </trkpt>
      <trkpt lat="44.8005320" lon="7.0545410">
        <ele>1324.8</ele>
        <time>2017-07-26T09:36:37Z</time>
      </trkpt>
      <trkpt lat="44.8006400" lon="7.0549760">
        <ele>1323.6</ele>
        <time>2017-07-26T09:36:41Z</time>
      </trkpt>
      <trkpt lat="44.8006920" lon="7.0552230">
        <ele>1322.6</ele>
        <time>2017-07-26T09:36:43Z</time>
      </trkpt>
      <trkpt lat="44.8007740" lon="7.0556060">
        <ele>1321.8</ele>
        <time>2017-07-26T09:36:46Z</time>
      </trkpt>
      <trkpt lat="44.8007840" lon="7.0557120">
        <ele>1321.2</ele>
        <time>2017-07-26T09:36:47Z</time>
      </trkpt>
      <trkpt lat="44.8008100" lon="7.0559120">
        <ele>1320.0</ele>
        <time>2017-07-26T09:36:49Z</time>
      </trkpt>
      <trkpt lat="44.8008400" lon="7.0559920">
        <ele>1319.6</ele>
        <time>2017-07-26T09:36:50Z</time>
      </trkpt>
      <trkpt lat="44.8009200" lon="7.0562550">
        <ele>1318.8</ele>
        <time>2017-07-26T09:36:54Z</time>
      </trkpt>
      <trkpt lat="44.8009390" lon="7.0563050">
        <ele>1318.8</ele>
        <time>2017-07-26T09:36:55Z</time>
      </trkpt>
      <trkpt lat="44.8009780" lon="7.0563710">
        <ele>1318.8</ele>
        <time>2017-07-26T09:36:57Z</time>
      </trkpt>
      <trkpt lat="44.8010040" lon="7.0564120">
        <ele>1319.0</ele>
        <time>2017-07-26T09:36:59Z</time>
      </trkpt>
      <trkpt lat="44.8010340" lon="7.0564540">
        <ele>1319.0</ele>
        <time>2017-07-26T09:37:01Z</time>
      </trkpt>
      <trkpt lat="44.8010430" lon="7.0565150">
        <ele>1319.4</ele>
        <time>2017-07-26T09:37:04Z</time>
      </trkpt>
      <trkpt lat="44.8010490" lon="7.0565360">
        <ele>1319.6</ele>
        <time>2017-07-26T09:37:05Z</time>
      </trkpt>
      <trkpt lat="44.8010560" lon="7.0565530">
        <ele>1320.0</ele>
        <time>2017-07-26T09:37:06Z</time>
      </trkpt>
      <trkpt lat="44.8010800" lon="7.0565960">
        <ele>1321.6</ele>
        <time>2017-07-26T09:37:09Z</time>
      </trkpt>
      <trkpt lat="44.8010980" lon="7.0566370">
        <ele>1322.2</ele>
        <time>2017-07-26T09:37:11Z</time>
      </trkpt>
      <trkpt lat="44.8011030" lon="7.0566600">
        <ele>1322.6</ele>
        <time>2017-07-26T09:37:12Z</time>
      </trkpt>
      <trkpt lat="44.8011240" lon="7.0567280">
        <ele>1323.6</ele>
        <time>2017-07-26T09:37:15Z</time>
      </trkpt>
      <trkpt lat="44.8011500" lon="7.0567810">
        <ele>1324.2</ele>
        <time>2017-07-26T09:37:18Z</time>
      </trkpt>
      <trkpt lat="44.8011740" lon="7.0568140">
        <ele>1324.6</ele>
        <time>2017-07-26T09:37:20Z</time>
      </trkpt>
      <trkpt lat="44.8011990" lon="7.0568650">
        <ele>1325.0</ele>
        <time>2017-07-26T09:37:23Z</time>
      </trkpt>
      <trkpt lat="44.8012430" lon="7.0569090">
        <ele>1325.8</ele>
        <time>2017-07-26T09:37:27Z</time>
      </trkpt>
      <trkpt lat="44.8012860" lon="7.0569430">
        <ele>1326.4</ele>
        <time>2017-07-26T09:37:31Z</time>
      </trkpt>
      <trkpt lat="44.8013020" lon="7.0569600">
        <ele>1326.8</ele>
        <time>2017-07-26T09:37:33Z</time>
      </trkpt>
      <trkpt lat="44.8013240" lon="7.0570140">
        <ele>1327.0</ele>
        <time>2017-07-26T09:37:37Z</time>
      </trkpt>
      <trkpt lat="44.8013400" lon="7.0571100">
        <ele>1327.8</ele>
        <time>2017-07-26T09:37:42Z</time>
      </trkpt>
      <trkpt lat="44.8013460" lon="7.0571270">
        <ele>1328.0</ele>
        <time>2017-07-26T09:37:43Z</time>
      </trkpt>
      <trkpt lat="44.8013750" lon="7.0571600">
        <ele>1328.6</ele>
        <time>2017-07-26T09:37:46Z</time>
      </trkpt>
      <trkpt lat="44.8013850" lon="7.0571740">
        <ele>1328.8</ele>
        <time>2017-07-26T09:37:47Z</time>
      </trkpt>
      <trkpt lat="44.8013930" lon="7.0571920">
        <ele>1329.2</ele>
        <time>2017-07-26T09:37:48Z</time>
      </trkpt>
      <trkpt lat="44.8014270" lon="7.0572350">
        <ele>1330.2</ele>
        <time>2017-07-26T09:37:52Z</time>
      </trkpt>
      <trkpt lat="44.8014500" lon="7.0572370">
        <ele>1331.2</ele>
        <time>2017-07-26T09:37:54Z</time>
      </trkpt>
      <trkpt lat="44.8014880" lon="7.0572490">
        <ele>1332.4</ele>
        <time>2017-07-26T09:37:57Z</time>
      </trkpt>
      <trkpt lat="44.8015360" lon="7.0572790">
        <ele>1333.6</ele>
        <time>2017-07-26T09:38:01Z</time>
      </trkpt>
      <trkpt lat="44.8015480" lon="7.0572860">
        <ele>1334.0</ele>
        <time>2017-07-26T09:38:02Z</time>
      </trkpt>
      <trkpt lat="44.8015690" lon="7.0573150">
        <ele>1334.8</ele>
        <time>2017-07-26T09:38:04Z</time>
      </trkpt>
      <trkpt lat="44.8016030" lon="7.0573260">
        <ele>1335.8</ele>
        <time>2017-07-26T09:38:07Z</time>
      </trkpt>
      <trkpt lat="44.8016150" lon="7.0573260">
        <ele>1335.8</ele>
        <time>2017-07-26T09:38:08Z</time>
      </trkpt>
      <trkpt lat="44.8016750" lon="7.0573590">
        <ele>1337.0</ele>
        <time>2017-07-26T09:38:14Z</time>
      </trkpt>
      <trkpt lat="44.8016950" lon="7.0573730">
        <ele>1337.2</ele>
        <time>2017-07-26T09:38:16Z</time>
      </trkpt>
      <trkpt lat="44.8017340" lon="7.0573950">
        <ele>1338.0</ele>
        <time>2017-07-26T09:38:19Z</time>
      </trkpt>
      <trkpt lat="44.8017670" lon="7.0574100">
        <ele>1338.6</ele>
        <time>2017-07-26T09:38:22Z</time>
      </trkpt>
      <trkpt lat="44.8017810" lon="7.0574250">
        <ele>1338.8</ele>
        <time>2017-07-26T09:38:23Z</time>
      </trkpt>
      <trkpt lat="44.8017930" lon="7.0574350">
        <ele>1339.2</ele>
        <time>2017-07-26T09:38:24Z</time>
      </trkpt>
      <trkpt lat="44.8018470" lon="7.0574870">
        <ele>1340.2</ele>
        <time>2017-07-26T09:38:29Z</time>
      </trkpt>
      <trkpt lat="44.8018560" lon="7.0574980">
        <ele>1340.4</ele>
        <time>2017-07-26T09:38:30Z</time>
      </trkpt>
      <trkpt lat="44.8018830" lon="7.0575380">
        <ele>1341.2</ele>
        <time>2017-07-26T09:38:33Z</time>
      </trkpt>
      <trkpt lat="44.8019200" lon="7.0575150">
        <ele>1341.8</ele>
        <time>2017-07-26T09:38:36Z</time>
      </trkpt>
      <trkpt lat="44.8019610" lon="7.0574990">
        <ele>1342.4</ele>
        <time>2017-07-26T09:38:39Z</time>
      </trkpt>
      <trkpt lat="44.8019680" lon="7.0574750">
        <ele>1342.6</ele>
        <time>2017-07-26T09:38:40Z</time>
      </trkpt>
      <trkpt lat="44.8019670" lon="7.0574560">
        <ele>1342.8</ele>
        <time>2017-07-26T09:38:41Z</time>
      </trkpt>
      <trkpt lat="44.8019460" lon="7.0573960">
        <ele>1343.4</ele>
        <time>2017-07-26T09:38:44Z</time>
      </trkpt>
      <trkpt lat="44.8019080" lon="7.0573660">
        <ele>1344.4</ele>
        <time>2017-07-26T09:38:47Z</time>
      </trkpt>
      <trkpt lat="44.8018960" lon="7.0573490">
        <ele>1344.6</ele>
        <time>2017-07-26T09:38:48Z</time>
      </trkpt>
      <trkpt lat="44.8018700" lon="7.0572730">
        <ele>1345.6</ele>
        <time>2017-07-26T09:38:52Z</time>
      </trkpt>
      <trkpt lat="44.8018630" lon="7.0572590">
        <ele>1345.8</ele>
        <time>2017-07-26T09:38:53Z</time>
      </trkpt>
      <trkpt lat="44.8018300" lon="7.0571760">
        <ele>1347.0</ele>
        <time>2017-07-26T09:38:58Z</time>
      </trkpt>
      <trkpt lat="44.8018260" lon="7.0571550">
        <ele>1347.2</ele>
        <time>2017-07-26T09:38:59Z</time>
      </trkpt>
      <trkpt lat="44.8018120" lon="7.0570660">
        <ele>1348.2</ele>
        <time>2017-07-26T09:39:04Z</time>
      </trkpt>
      <trkpt lat="44.8018040" lon="7.0570490">
        <ele>1348.4</ele>
        <time>2017-07-26T09:39:05Z</time>
      </trkpt>
      <trkpt lat="44.8017820" lon="7.0570050">
        <ele>1349.0</ele>
        <time>2017-07-26T09:39:08Z</time>
      </trkpt>
      <trkpt lat="44.8017800" lon="7.0569840">
        <ele>1349.4</ele>
        <time>2017-07-26T09:39:09Z</time>
      </trkpt>
      <trkpt lat="44.8017790" lon="7.0569620">
        <ele>1349.6</ele>
        <time>2017-07-26T09:39:10Z</time>
      </trkpt>
      <trkpt lat="44.8017570" lon="7.0569010">
        <ele>1350.6</ele>
        <time>2017-07-26T09:39:13Z</time>
      </trkpt>
      <trkpt lat="44.8017500" lon="7.0568840">
        <ele>1350.8</ele>
        <time>2017-07-26T09:39:14Z</time>
      </trkpt>
      <trkpt lat="44.8017430" lon="7.0568210">
        <ele>1351.8</ele>
        <time>2017-07-26T09:39:17Z</time>
      </trkpt>
      <trkpt lat="44.8017290" lon="7.0567760">
        <ele>1350.6</ele>
        <time>2017-07-26T09:39:19Z</time>
      </trkpt>
      <trkpt lat="44.8017140" lon="7.0567260">
        <ele>1349.6</ele>
        <time>2017-07-26T09:39:21Z</time>
      </trkpt>
      <trkpt lat="44.8017050" lon="7.0567040">
        <ele>1351.6</ele>
        <time>2017-07-26T09:39:22Z</time>
      </trkpt>
      <trkpt lat="44.8016950" lon="7.0566870">
        <ele>1350.2</ele>
        <time>2017-07-26T09:39:23Z</time>
      </trkpt>
      <trkpt lat="44.8016890" lon="7.0566690">
        <ele>1351.4</ele>
        <time>2017-07-26T09:39:24Z</time>
      </trkpt>
      <trkpt lat="44.8016800" lon="7.0566390">
        <ele>1354.4</ele>
        <time>2017-07-26T09:39:26Z</time>
      </trkpt>
      <trkpt lat="44.8016810" lon="7.0566190">
        <ele>1356.2</ele>
        <time>2017-07-26T09:39:27Z</time>
      </trkpt>
      <trkpt lat="44.8016800" lon="7.0565780">
        <ele>1357.0</ele>
        <time>2017-07-26T09:39:29Z</time>
      </trkpt>
      <trkpt lat="44.8016800" lon="7.0565520">
        <ele>1357.2</ele>
        <time>2017-07-26T09:39:30Z</time>
      </trkpt>
      <trkpt lat="44.8016770" lon="7.0565350">
        <ele>1357.4</ele>
        <time>2017-07-26T09:39:31Z</time>
      </trkpt>
      <trkpt lat="44.8016610" lon="7.0564640">
        <ele>1358.6</ele>
        <time>2017-07-26T09:39:34Z</time>
      </trkpt>
      <trkpt lat="44.8016510" lon="7.0564240">
        <ele>1359.0</ele>
        <time>2017-07-26T09:39:36Z</time>
      </trkpt>
      <trkpt lat="44.8016460" lon="7.0563840">
        <ele>1359.6</ele>
        <time>2017-07-26T09:39:38Z</time>
      </trkpt>
      <trkpt lat="44.8016310" lon="7.0563140">
        <ele>1360.8</ele>
        <time>2017-07-26T09:39:42Z</time>
      </trkpt>
      <trkpt lat="44.8016240" lon="7.0562960">
        <ele>1361.0</ele>
        <time>2017-07-26T09:39:43Z</time>
      </trkpt>
      <trkpt lat="44.8016020" lon="7.0562310">
        <ele>1362.0</ele>
        <time>2017-07-26T09:39:47Z</time>
      </trkpt>
      <trkpt lat="44.8016040" lon="7.0562070">
        <ele>1362.2</ele>
        <time>2017-07-26T09:39:48Z</time>
      </trkpt>
      <trkpt lat="44.8015930" lon="7.0561670">
        <ele>1362.6</ele>
        <time>2017-07-26T09:39:50Z</time>
      </trkpt>
      <trkpt lat="44.8015890" lon="7.0561250">
        <ele>1363.0</ele>
        <time>2017-07-26T09:39:52Z</time>
      </trkpt>
      <trkpt lat="44.8015830" lon="7.0560480">
        <ele>1364.0</ele>
        <time>2017-07-26T09:39:56Z</time>
      </trkpt>
      <trkpt lat="44.8015830" lon="7.0560240">
        <ele>1364.6</ele>
        <time>2017-07-26T09:39:57Z</time>
      </trkpt>
      <trkpt lat="44.8015840" lon="7.0559670">
        <ele>1365.2</ele>
        <time>2017-07-26T09:39:59Z</time>
      </trkpt>
      <trkpt lat="44.8015850" lon="7.0558770">
        <ele>1366.4</ele>
        <time>2017-07-26T09:40:03Z</time>
      </trkpt>
      <trkpt lat="44.8015850" lon="7.0558470">
        <ele>1366.6</ele>
        <time>2017-07-26T09:40:04Z</time>
      </trkpt>
      <trkpt lat="44.8015980" lon="7.0557350">
        <ele>1367.6</ele>
        <time>2017-07-26T09:40:08Z</time>
      </trkpt>
      <trkpt lat="44.8016100" lon="7.0556230">
        <ele>1368.8</ele>
        <time>2017-07-26T09:40:12Z</time>
      </trkpt>
      <trkpt lat="44.8016270" lon="7.0555490">
        <ele>1370.0</ele>
        <time>2017-07-26T09:40:15Z</time>
      </trkpt>
      <trkpt lat="44.8016520" lon="7.0554690">
        <ele>1371.4</ele>
        <time>2017-07-26T09:40:18Z</time>
      </trkpt>
      <trkpt lat="44.8016750" lon="7.0553830">
        <ele>1373.2</ele>
        <time>2017-07-26T09:40:21Z</time>
      </trkpt>
      <trkpt lat="44.8016960" lon="7.0553000">
        <ele>1374.4</ele>
        <time>2017-07-26T09:40:24Z</time>
      </trkpt>
      <trkpt lat="44.8016960" lon="7.0552410">
        <ele>1375.0</ele>
        <time>2017-07-26T09:40:26Z</time>
      </trkpt>
      <trkpt lat="44.8017050" lon="7.0551730">
        <ele>1375.8</ele>
        <time>2017-07-26T09:40:28Z</time>
      </trkpt>
      <trkpt lat="44.8017140" lon="7.0550330">
        <ele>1377.0</ele>
        <time>2017-07-26T09:40:31Z</time>
      </trkpt>
      <trkpt lat="44.8017150" lon="7.0549840">
        <ele>1377.6</ele>
        <time>2017-07-26T09:40:32Z</time>
      </trkpt>
      <trkpt lat="44.8017190" lon="7.0549470">
        <ele>1378.0</ele>
        <time>2017-07-26T09:40:33Z</time>
      </trkpt>
      <trkpt lat="44.8017300" lon="7.0548240">
        <ele>1379.6</ele>
        <time>2017-07-26T09:40:36Z</time>
      </trkpt>
      <trkpt lat="44.8017260" lon="7.0547450">
        <ele>1380.0</ele>
        <time>2017-07-26T09:40:38Z</time>
      </trkpt>
      <trkpt lat="44.8017220" lon="7.0546370">
        <ele>1380.6</ele>
        <time>2017-07-26T09:40:41Z</time>
      </trkpt>
      <trkpt lat="44.8016730" lon="7.0545160">
        <ele>1381.0</ele>
        <time>2017-07-26T09:40:45Z</time>
      </trkpt>
      <trkpt lat="44.8015850" lon="7.0543640">
        <ele>1381.6</ele>
        <time>2017-07-26T09:40:51Z</time>
      </trkpt>
      <trkpt lat="44.8015760" lon="7.0543440">
        <ele>1381.8</ele>
        <time>2017-07-26T09:40:52Z</time>
      </trkpt>
      <trkpt lat="44.8015930" lon="7.0542500">
        <ele>1382.2</ele>
        <time>2017-07-26T09:40:56Z</time>
      </trkpt>
      <trkpt lat="44.8016050" lon="7.0542470">
        <ele>1382.6</ele>
        <time>2017-07-26T09:40:57Z</time>
      </trkpt>
      <trkpt lat="44.8016140" lon="7.0542610">
        <ele>1382.6</ele>
        <time>2017-07-26T09:40:58Z</time>
      </trkpt>
      <trkpt lat="44.8016300" lon="7.0543350">
        <ele>1382.8</ele>
        <time>2017-07-26T09:41:00Z</time>
      </trkpt>
      <trkpt lat="44.8017070" lon="7.0544510">
        <ele>1383.6</ele>
        <time>2017-07-26T09:41:04Z</time>
      </trkpt>
      <trkpt lat="44.8017290" lon="7.0544770">
        <ele>1383.6</ele>
        <time>2017-07-26T09:41:05Z</time>
      </trkpt>
      <trkpt lat="44.8017620" lon="7.0545390">
        <ele>1384.0</ele>
        <time>2017-07-26T09:41:07Z</time>
      </trkpt>
      <trkpt lat="44.8017900" lon="7.0546120">
        <ele>1385.2</ele>
        <time>2017-07-26T09:41:09Z</time>
      </trkpt>
      <trkpt lat="44.8018050" lon="7.0546620">
        <ele>1385.2</ele>
        <time>2017-07-26T09:41:10Z</time>
      </trkpt>
      <trkpt lat="44.8018360" lon="7.0549330">
        <ele>1386.2</ele>
        <time>2017-07-26T09:41:15Z</time>
      </trkpt>
      <trkpt lat="44.8018430" lon="7.0549760">
        <ele>1386.4</ele>
        <time>2017-07-26T09:41:16Z</time>
      </trkpt>
      <trkpt lat="44.8018740" lon="7.0551340">
        <ele>1388.0</ele>
        <time>2017-07-26T09:41:20Z</time>
      </trkpt>
      <trkpt lat="44.8018790" lon="7.0551800">
        <ele>1388.6</ele>
        <time>2017-07-26T09:41:21Z</time>
      </trkpt>
      <trkpt lat="44.8018830" lon="7.0552300">
        <ele>1389.0</ele>
        <time>2017-07-26T09:41:22Z</time>
      </trkpt>
      <trkpt lat="44.8018880" lon="7.0553950">
        <ele>1390.0</ele>
        <time>2017-07-26T09:41:26Z</time>
      </trkpt>
      <trkpt lat="44.8018960" lon="7.0554410">
        <ele>1390.4</ele>
        <time>2017-07-26T09:41:27Z</time>
      </trkpt>
      <trkpt lat="44.8019080" lon="7.0555330">
        <ele>1391.0</ele>
        <time>2017-07-26T09:41:29Z</time>
      </trkpt>
      <trkpt lat="44.8019520" lon="7.0556950">
        <ele>1392.2</ele>
        <time>2017-07-26T09:41:33Z</time>
      </trkpt>
      <trkpt lat="44.8019630" lon="7.0557330">
        <ele>1392.2</ele>
        <time>2017-07-26T09:41:34Z</time>
      </trkpt>
      <trkpt lat="44.8020120" lon="7.0558150">
        <ele>1392.8</ele>
        <time>2017-07-26T09:41:37Z</time>
      </trkpt>
      <trkpt lat="44.8020540" lon="7.0558510">
        <ele>1393.4</ele>
        <time>2017-07-26T09:41:39Z</time>
      </trkpt>
      <trkpt lat="44.8020760" lon="7.0558780">
        <ele>1393.8</ele>
        <time>2017-07-26T09:41:40Z</time>
      </trkpt>
      <trkpt lat="44.8021190" lon="7.0559400">
        <ele>1394.6</ele>
        <time>2017-07-26T09:41:42Z</time>
      </trkpt>
      <trkpt lat="44.8022480" lon="7.0560920">
        <ele>1395.2</ele>
        <time>2017-07-26T09:41:46Z</time>
      </trkpt>
      <trkpt lat="44.8023160" lon="7.0561530">
        <ele>1395.6</ele>
        <time>2017-07-26T09:41:48Z</time>
      </trkpt>
      <trkpt lat="44.8024030" lon="7.0562400">
        <ele>1396.6</ele>
        <time>2017-07-26T09:41:51Z</time>
      </trkpt>
      <trkpt lat="44.8024250" lon="7.0562730">
        <ele>1396.8</ele>
        <time>2017-07-26T09:41:52Z</time>
      </trkpt>
      <trkpt lat="44.8025080" lon="7.0563920">
        <ele>1398.2</ele>
        <time>2017-07-26T09:41:56Z</time>
      </trkpt>
      <trkpt lat="44.8025340" lon="7.0564300">
        <ele>1398.8</ele>
        <time>2017-07-26T09:41:57Z</time>
      </trkpt>
      <trkpt lat="44.8025930" lon="7.0565010">
        <ele>1399.2</ele>
        <time>2017-07-26T09:41:59Z</time>
      </trkpt>
      <trkpt lat="44.8027310" lon="7.0566130">
        <ele>1400.0</ele>
        <time>2017-07-26T09:42:03Z</time>
      </trkpt>
      <trkpt lat="44.8027610" lon="7.0566350">
        <ele>1400.2</ele>
        <time>2017-07-26T09:42:04Z</time>
      </trkpt>
      <trkpt lat="44.8028900" lon="7.0567890">
        <ele>1401.0</ele>
        <time>2017-07-26T09:42:08Z</time>
      </trkpt>
      <trkpt lat="44.8029260" lon="7.0568310">
        <ele>1401.0</ele>
        <time>2017-07-26T09:42:09Z</time>
      </trkpt>
      <trkpt lat="44.8029620" lon="7.0568740">
        <ele>1401.2</ele>
        <time>2017-07-26T09:42:10Z</time>
      </trkpt>
      <trkpt lat="44.8031080" lon="7.0570220">
        <ele>1401.8</ele>
        <time>2017-07-26T09:42:13Z</time>
      </trkpt>
      <trkpt lat="44.8031630" lon="7.0570810">
        <ele>1402.0</ele>
        <time>2017-07-26T09:42:14Z</time>
      </trkpt>
      <trkpt lat="44.8032140" lon="7.0571500">
        <ele>1401.6</ele>
        <time>2017-07-26T09:42:15Z</time>
      </trkpt>
      <trkpt lat="44.8033350" lon="7.0574130">
        <ele>1400.4</ele>
        <time>2017-07-26T09:42:18Z</time>
      </trkpt>
      <trkpt lat="44.8033890" lon="7.0575830">
        <ele>1400.2</ele>
        <time>2017-07-26T09:42:20Z</time>
      </trkpt>
      <trkpt lat="44.8034680" lon="7.0577270">
        <ele>1400.6</ele>
        <time>2017-07-26T09:42:22Z</time>
      </trkpt>
      <trkpt lat="44.8035180" lon="7.0577850">
        <ele>1400.6</ele>
        <time>2017-07-26T09:42:23Z</time>
      </trkpt>
      <trkpt lat="44.8036540" lon="7.0579430">
        <ele>1401.4</ele>
        <time>2017-07-26T09:42:26Z</time>
      </trkpt>
      <trkpt lat="44.8037810" lon="7.0580850">
        <ele>1401.6</ele>
        <time>2017-07-26T09:42:29Z</time>
      </trkpt>
      <trkpt lat="44.8038830" lon="7.0581870">
        <ele>1402.6</ele>
        <time>2017-07-26T09:42:32Z</time>
      </trkpt>
      <trkpt lat="44.8039560" lon="7.0582790">
        <ele>1403.8</ele>
        <time>2017-07-26T09:42:35Z</time>
      </trkpt>
      <trkpt lat="44.8040580" lon="7.0584340">
        <ele>1405.0</ele>
        <time>2017-07-26T09:42:39Z</time>
      </trkpt>
      <trkpt lat="44.8041360" lon="7.0585920">
        <ele>1405.2</ele>
        <time>2017-07-26T09:42:42Z</time>
      </trkpt>
      <trkpt lat="44.8042430" lon="7.0588270">
        <ele>1405.8</ele>
        <time>2017-07-26T09:42:47Z</time>
      </trkpt>
      <trkpt lat="44.8043010" lon="7.0588810">
        <ele>1406.2</ele>
        <time>2017-07-26T09:42:49Z</time>
      </trkpt>
      <trkpt lat="44.8043870" lon="7.0589380">
        <ele>1406.6</ele>
        <time>2017-07-26T09:42:52Z</time>
      </trkpt>
      <trkpt lat="44.8044320" lon="7.0589690">
        <ele>1407.4</ele>
        <time>2017-07-26T09:42:54Z</time>
      </trkpt>
      <trkpt lat="44.8044900" lon="7.0590130">
        <ele>1408.8</ele>
        <time>2017-07-26T09:42:57Z</time>
      </trkpt>
      <trkpt lat="44.8045060" lon="7.0590230">
        <ele>1409.2</ele>
        <time>2017-07-26T09:42:58Z</time>
      </trkpt>
      <trkpt lat="44.8045440" lon="7.0590430">
        <ele>1410.2</ele>
        <time>2017-07-26T09:43:00Z</time>
      </trkpt>
      <trkpt lat="44.8045990" lon="7.0590880">
        <ele>1411.2</ele>
        <time>2017-07-26T09:43:03Z</time>
      </trkpt>
      <trkpt lat="44.8046560" lon="7.0591310">
        <ele>1412.6</ele>
        <time>2017-07-26T09:43:06Z</time>
      </trkpt>
      <trkpt lat="44.8047070" lon="7.0591750">
        <ele>1413.6</ele>
        <time>2017-07-26T09:43:09Z</time>
      </trkpt>
      <trkpt lat="44.8047950" lon="7.0592750">
        <ele>1414.2</ele>
        <time>2017-07-26T09:43:13Z</time>
      </trkpt>
      <trkpt lat="44.8048530" lon="7.0593470">
        <ele>1414.8</ele>
        <time>2017-07-26T09:43:16Z</time>
      </trkpt>
      <trkpt lat="44.8049630" lon="7.0594260">
        <ele>1415.6</ele>
        <time>2017-07-26T09:43:20Z</time>
      </trkpt>
      <trkpt lat="44.8050070" lon="7.0594510">
        <ele>1416.0</ele>
        <time>2017-07-26T09:43:22Z</time>
      </trkpt>
      <trkpt lat="44.8050640" lon="7.0594640">
        <ele>1417.2</ele>
        <time>2017-07-26T09:43:25Z</time>
      </trkpt>
      <trkpt lat="44.8051160" lon="7.0594660">
        <ele>1418.2</ele>
        <time>2017-07-26T09:43:28Z</time>
      </trkpt>
      <trkpt lat="44.8052040" lon="7.0594620">
        <ele>1418.8</ele>
        <time>2017-07-26T09:43:31Z</time>
      </trkpt>
      <trkpt lat="44.8053560" lon="7.0594600">
        <ele>1419.0</ele>
        <time>2017-07-26T09:43:38Z</time>
      </trkpt>
      <trkpt lat="44.8054110" lon="7.0594730">
        <ele>1419.6</ele>
        <time>2017-07-26T09:43:41Z</time>
      </trkpt>
      <trkpt lat="44.8054960" lon="7.0594860">
        <ele>1419.8</ele>
        <time>2017-07-26T09:43:45Z</time>
      </trkpt>
      <trkpt lat="44.8056200" lon="7.0595030">
        <ele>1420.8</ele>
        <time>2017-07-26T09:43:51Z</time>
      </trkpt>
      <trkpt lat="44.8056400" lon="7.0595080">
        <ele>1420.8</ele>
        <time>2017-07-26T09:43:52Z</time>
      </trkpt>
      <trkpt lat="44.8058400" lon="7.0595810">
        <ele>1421.8</ele>
        <time>2017-07-26T09:44:02Z</time>
      </trkpt>
      <trkpt lat="44.8058620" lon="7.0595910">
        <ele>1421.8</ele>
        <time>2017-07-26T09:44:03Z</time>
      </trkpt>
      <trkpt lat="44.8059540" lon="7.0596310">
        <ele>1423.0</ele>
        <time>2017-07-26T09:44:07Z</time>
      </trkpt>
      <trkpt lat="44.8060010" lon="7.0596610">
        <ele>1423.6</ele>
        <time>2017-07-26T09:44:09Z</time>
      </trkpt>
      <trkpt lat="44.8060260" lon="7.0596660">
        <ele>1424.0</ele>
        <time>2017-07-26T09:44:10Z</time>
      </trkpt>
      <trkpt lat="44.8061220" lon="7.0597040">
        <ele>1425.0</ele>
        <time>2017-07-26T09:44:14Z</time>
      </trkpt>
      <trkpt lat="44.8061590" lon="7.0597180">
        <ele>1425.4</ele>
        <time>2017-07-26T09:44:16Z</time>
      </trkpt>
      <trkpt lat="44.8062240" lon="7.0597260">
        <ele>1426.2</ele>
        <time>2017-07-26T09:44:19Z</time>
      </trkpt>
      <trkpt lat="44.8063100" lon="7.0597540">
        <ele>1427.2</ele>
        <time>2017-07-26T09:44:24Z</time>
      </trkpt>
      <trkpt lat="44.8063250" lon="7.0597610">
        <ele>1427.4</ele>
        <time>2017-07-26T09:44:25Z</time>
      </trkpt>
      <trkpt lat="44.8064550" lon="7.0598170">
        <ele>1428.4</ele>
        <time>2017-07-26T09:44:31Z</time>
      </trkpt>
      <trkpt lat="44.8065870" lon="7.0599050">
        <ele>1429.2</ele>
        <time>2017-07-26T09:44:38Z</time>
      </trkpt>
      <trkpt lat="44.8066260" lon="7.0599570">
        <ele>1429.4</ele>
        <time>2017-07-26T09:44:40Z</time>
      </trkpt>
      <trkpt lat="44.8066780" lon="7.0600440">
        <ele>1429.8</ele>
        <time>2017-07-26T09:44:43Z</time>
      </trkpt>
      <trkpt lat="44.8066920" lon="7.0600740">
        <ele>1429.8</ele>
        <time>2017-07-26T09:44:44Z</time>
      </trkpt>
      <trkpt lat="44.8067310" lon="7.0602210">
        <ele>1430.6</ele>
        <time>2017-07-26T09:44:48Z</time>
      </trkpt>
      <trkpt lat="44.8067740" lon="7.0603260">
        <ele>1431.0</ele>
        <time>2017-07-26T09:44:51Z</time>
      </trkpt>
      <trkpt lat="44.8068930" lon="7.0603610">
        <ele>1431.6</ele>
        <time>2017-07-26T09:44:55Z</time>
      </trkpt>
      <trkpt lat="44.8069240" lon="7.0603640">
        <ele>1431.8</ele>
        <time>2017-07-26T09:44:56Z</time>
      </trkpt>
      <trkpt lat="44.8070750" lon="7.0603700">
        <ele>1432.8</ele>
        <time>2017-07-26T09:45:00Z</time>
      </trkpt>
      <trkpt lat="44.8071480" lon="7.0603730">
        <ele>1433.2</ele>
        <time>2017-07-26T09:45:02Z</time>
      </trkpt>
      <trkpt lat="44.8072230" lon="7.0603810">
        <ele>1434.0</ele>
        <time>2017-07-26T09:45:04Z</time>
      </trkpt>
      <trkpt lat="44.8073130" lon="7.0604180">
        <ele>1435.2</ele>
        <time>2017-07-26T09:45:07Z</time>
      </trkpt>
      <trkpt lat="44.8073760" lon="7.0605140">
        <ele>1436.4</ele>
        <time>2017-07-26T09:45:10Z</time>
      </trkpt>
      <trkpt lat="44.8073860" lon="7.0605750">
        <ele>1437.4</ele>
        <time>2017-07-26T09:45:12Z</time>
      </trkpt>
      <trkpt lat="44.8073980" lon="7.0605950">
        <ele>1437.8</ele>
        <time>2017-07-26T09:45:13Z</time>
      </trkpt>
      <trkpt lat="44.8074220" lon="7.0606300">
        <ele>1438.8</ele>
        <time>2017-07-26T09:45:15Z</time>
      </trkpt>
      <trkpt lat="44.8074520" lon="7.0606580">
        <ele>1439.8</ele>
        <time>2017-07-26T09:45:17Z</time>
      </trkpt>
      <trkpt lat="44.8074690" lon="7.0606650">
        <ele>1440.2</ele>
        <time>2017-07-26T09:45:18Z</time>
      </trkpt>
      <trkpt lat="44.8075080" lon="7.0606670">
        <ele>1441.2</ele>
        <time>2017-07-26T09:45:20Z</time>
      </trkpt>
      <trkpt lat="44.8075750" lon="7.0606770">
        <ele>1442.6</ele>
        <time>2017-07-26T09:45:23Z</time>
      </trkpt>
      <trkpt lat="44.8076150" lon="7.0606910">
        <ele>1443.8</ele>
        <time>2017-07-26T09:45:25Z</time>
      </trkpt>
      <trkpt lat="44.8076510" lon="7.0607050">
        <ele>1444.8</ele>
        <time>2017-07-26T09:45:27Z</time>
      </trkpt>
      <trkpt lat="44.8076910" lon="7.0607160">
        <ele>1446.0</ele>
        <time>2017-07-26T09:45:29Z</time>
      </trkpt>
      <trkpt lat="44.8077250" lon="7.0607240">
        <ele>1447.0</ele>
        <time>2017-07-26T09:45:31Z</time>
      </trkpt>
      <trkpt lat="44.8077880" lon="7.0607290">
        <ele>1448.8</ele>
        <time>2017-07-26T09:45:34Z</time>
      </trkpt>
      <trkpt lat="44.8078520" lon="7.0607250">
        <ele>1450.0</ele>
        <time>2017-07-26T09:45:37Z</time>
      </trkpt>
      <trkpt lat="44.8079450" lon="7.0607430">
        <ele>1450.8</ele>
        <time>2017-07-26T09:45:43Z</time>
      </trkpt>
      <trkpt lat="44.8079890" lon="7.0607870">
        <ele>1451.2</ele>
        <time>2017-07-26T09:45:46Z</time>
      </trkpt>
      <trkpt lat="44.8080130" lon="7.0608160">
        <ele>1451.2</ele>
        <time>2017-07-26T09:45:48Z</time>
      </trkpt>
      <trkpt lat="44.8080460" lon="7.0608680">
        <ele>1452.2</ele>
        <time>2017-07-26T09:45:52Z</time>
      </trkpt>
      <trkpt lat="44.8080630" lon="7.0609010">
        <ele>1453.2</ele>
        <time>2017-07-26T09:45:55Z</time>
      </trkpt>
      <trkpt lat="44.8080770" lon="7.0609070">
        <ele>1453.6</ele>
        <time>2017-07-26T09:45:56Z</time>
      </trkpt>
      <trkpt lat="44.8080900" lon="7.0609170">
        <ele>1454.4</ele>
        <time>2017-07-26T09:45:57Z</time>
      </trkpt>
      <trkpt lat="44.8081350" lon="7.0609360">
        <ele>1455.4</ele>
        <time>2017-07-26T09:46:00Z</time>
      </trkpt>
      <trkpt lat="44.8082120" lon="7.0609400">
        <ele>1456.2</ele>
        <time>2017-07-26T09:46:04Z</time>
      </trkpt>
      <trkpt lat="44.8082800" lon="7.0609560">
        <ele>1456.4</ele>
        <time>2017-07-26T09:46:08Z</time>
      </trkpt>
      <trkpt lat="44.8083040" lon="7.0609690">
        <ele>1456.8</ele>
        <time>2017-07-26T09:46:10Z</time>
      </trkpt>
      <trkpt lat="44.8083840" lon="7.0609660">
        <ele>1457.0</ele>
        <time>2017-07-26T09:46:17Z</time>
      </trkpt>
      <trkpt lat="44.8084470" lon="7.0609860">
        <ele>1457.6</ele>
        <time>2017-07-26T09:46:21Z</time>
      </trkpt>
      <trkpt lat="44.8085100" lon="7.0610190">
        <ele>1458.0</ele>
        <time>2017-07-26T09:46:25Z</time>
      </trkpt>
      <trkpt lat="44.8085850" lon="7.0610710">
        <ele>1458.6</ele>
        <time>2017-07-26T09:46:30Z</time>
      </trkpt>
      <trkpt lat="44.8086180" lon="7.0610750">
        <ele>1459.0</ele>
        <time>2017-07-26T09:46:32Z</time>
      </trkpt>
      <trkpt lat="44.8086900" lon="7.0610880">
        <ele>1459.8</ele>
        <time>2017-07-26T09:46:37Z</time>
      </trkpt>
      <trkpt lat="44.8087380" lon="7.0611180">
        <ele>1460.4</ele>
        <time>2017-07-26T09:46:40Z</time>
      </trkpt>
      <trkpt lat="44.8087880" lon="7.0611450">
        <ele>1460.8</ele>
        <time>2017-07-26T09:46:43Z</time>
      </trkpt>
      <trkpt lat="44.8088350" lon="7.0611730">
        <ele>1462.0</ele>
        <time>2017-07-26T09:46:46Z</time>
      </trkpt>
      <trkpt lat="44.8088510" lon="7.0611770">
        <ele>1462.2</ele>
        <time>2017-07-26T09:46:47Z</time>
      </trkpt>
      <trkpt lat="44.8088660" lon="7.0611850">
        <ele>1462.4</ele>
        <time>2017-07-26T09:46:48Z</time>
      </trkpt>
      <trkpt lat="44.8088910" lon="7.0612300">
        <ele>1463.0</ele>
        <time>2017-07-26T09:46:50Z</time>
      </trkpt>
      <trkpt lat="44.8089130" lon="7.0612720">
        <ele>1463.8</ele>
        <time>2017-07-26T09:46:52Z</time>
      </trkpt>
      <trkpt lat="44.8089310" lon="7.0613200">
        <ele>1464.2</ele>
        <time>2017-07-26T09:46:54Z</time>
      </trkpt>
      <trkpt lat="44.8089750" lon="7.0614140">
        <ele>1465.0</ele>
        <time>2017-07-26T09:46:57Z</time>
      </trkpt>
      <trkpt lat="44.8090170" lon="7.0614480">
        <ele>1465.4</ele>
        <time>2017-07-26T09:46:59Z</time>
      </trkpt>
      <trkpt lat="44.8090820" lon="7.0614870">
        <ele>1466.2</ele>
        <time>2017-07-26T09:47:02Z</time>
      </trkpt>
      <trkpt lat="44.8091010" lon="7.0614940">
        <ele>1466.4</ele>
        <time>2017-07-26T09:47:03Z</time>
      </trkpt>
      <trkpt lat="44.8091600" lon="7.0615230">
        <ele>1467.2</ele>
        <time>2017-07-26T09:47:06Z</time>
      </trkpt>
      <trkpt lat="44.8091830" lon="7.0615310">
        <ele>1467.4</ele>
        <time>2017-07-26T09:47:07Z</time>
      </trkpt>
      <trkpt lat="44.8092040" lon="7.0615450">
        <ele>1467.8</ele>
        <time>2017-07-26T09:47:08Z</time>
      </trkpt>
      <trkpt lat="44.8092720" lon="7.0616200">
        <ele>1468.6</ele>
        <time>2017-07-26T09:47:11Z</time>
      </trkpt>
      <trkpt lat="44.8092870" lon="7.0616660">
        <ele>1468.6</ele>
        <time>2017-07-26T09:47:12Z</time>
      </trkpt>
      <trkpt lat="44.8092950" lon="7.0618090">
        <ele>1468.8</ele>
        <time>2017-07-26T09:47:15Z</time>
      </trkpt>
      <trkpt lat="44.8092780" lon="7.0618340">
        <ele>1469.0</ele>
        <time>2017-07-26T09:47:16Z</time>
      </trkpt>
      <trkpt lat="44.8092310" lon="7.0618760">
        <ele>1469.6</ele>
        <time>2017-07-26T09:47:18Z</time>
      </trkpt>
      <trkpt lat="44.8091510" lon="7.0619430">
        <ele>1470.8</ele>
        <time>2017-07-26T09:47:21Z</time>
      </trkpt>
      <trkpt lat="44.8091190" lon="7.0619660">
        <ele>1471.0</ele>
        <time>2017-07-26T09:47:22Z</time>
      </trkpt>
      <trkpt lat="44.8090160" lon="7.0620160">
        <ele>1471.8</ele>
        <time>2017-07-26T09:47:25Z</time>
      </trkpt>
      <trkpt lat="44.8089200" lon="7.0620570">
        <ele>1473.0</ele>
        <time>2017-07-26T09:47:28Z</time>
      </trkpt>
      <trkpt lat="44.8088540" lon="7.0621910">
        <ele>1474.0</ele>
        <time>2017-07-26T09:47:32Z</time>
      </trkpt>
      <trkpt lat="44.8088690" lon="7.0622680">
        <ele>1475.0</ele>
        <time>2017-07-26T09:47:34Z</time>
      </trkpt>
      <trkpt lat="44.8089000" lon="7.0623450">
        <ele>1475.6</ele>
        <time>2017-07-26T09:47:36Z</time>
      </trkpt>
      <trkpt lat="44.8089210" lon="7.0624200">
        <ele>1476.2</ele>
        <time>2017-07-26T09:47:38Z</time>
      </trkpt>
      <trkpt lat="44.8089160" lon="7.0625430">
        <ele>1477.0</ele>
        <time>2017-07-26T09:47:41Z</time>
      </trkpt>
      <trkpt lat="44.8089120" lon="7.0625850">
        <ele>1477.4</ele>
        <time>2017-07-26T09:47:42Z</time>
      </trkpt>
      <trkpt lat="44.8089220" lon="7.0627180">
        <ele>1478.4</ele>
        <time>2017-07-26T09:47:45Z</time>
      </trkpt>
      <trkpt lat="44.8089360" lon="7.0627580">
        <ele>1478.6</ele>
        <time>2017-07-26T09:47:46Z</time>
      </trkpt>
      <trkpt lat="44.8089930" lon="7.0628880">
        <ele>1479.4</ele>
        <time>2017-07-26T09:47:49Z</time>
      </trkpt>
      <trkpt lat="44.8090650" lon="7.0630890">
        <ele>1480.0</ele>
        <time>2017-07-26T09:47:53Z</time>
      </trkpt>
      <trkpt lat="44.8090460" lon="7.0632490">
        <ele>1480.6</ele>
        <time>2017-07-26T09:47:56Z</time>
      </trkpt>
      <trkpt lat="44.8090270" lon="7.0632940">
        <ele>1480.6</ele>
        <time>2017-07-26T09:47:57Z</time>
      </trkpt>
      <trkpt lat="44.8089040" lon="7.0634260">
        <ele>1480.8</ele>
        <time>2017-07-26T09:48:01Z</time>
      </trkpt>
      <trkpt lat="44.8088320" lon="7.0634360">
        <ele>1481.4</ele>
        <time>2017-07-26T09:48:03Z</time>
      </trkpt>
      <trkpt lat="44.8088030" lon="7.0634260">
        <ele>1481.8</ele>
        <time>2017-07-26T09:48:04Z</time>
      </trkpt>
      <trkpt lat="44.8086970" lon="7.0634330">
        <ele>1483.2</ele>
        <time>2017-07-26T09:48:08Z</time>
      </trkpt>
      <trkpt lat="44.8086780" lon="7.0634560">
        <ele>1483.4</ele>
        <time>2017-07-26T09:48:09Z</time>
      </trkpt>
      <trkpt lat="44.8086500" lon="7.0635230">
        <ele>1484.2</ele>
        <time>2017-07-26T09:48:11Z</time>
      </trkpt>
      <trkpt lat="44.8086290" lon="7.0636420">
        <ele>1485.2</ele>
        <time>2017-07-26T09:48:14Z</time>
      </trkpt>
      <trkpt lat="44.8085560" lon="7.0638160">
        <ele>1486.2</ele>
        <time>2017-07-26T09:48:19Z</time>
      </trkpt>
      <trkpt lat="44.8084440" lon="7.0639270">
        <ele>1487.4</ele>
        <time>2017-07-26T09:48:23Z</time>
      </trkpt>
      <trkpt lat="44.8083930" lon="7.0640270">
        <ele>1487.8</ele>
        <time>2017-07-26T09:48:26Z</time>
      </trkpt>
      <trkpt lat="44.8083550" lon="7.0641240">
        <ele>1488.6</ele>
        <time>2017-07-26T09:48:29Z</time>
      </trkpt>
      <trkpt lat="44.8083320" lon="7.0642560">
        <ele>1489.6</ele>
        <time>2017-07-26T09:48:33Z</time>
      </trkpt>
      <trkpt lat="44.8083120" lon="7.0644830">
        <ele>1490.6</ele>
        <time>2017-07-26T09:48:40Z</time>
      </trkpt>
      <trkpt lat="44.8083120" lon="7.0645170">
        <ele>1490.6</ele>
        <time>2017-07-26T09:48:41Z</time>
      </trkpt>
      <trkpt lat="44.8083400" lon="7.0645900">
        <ele>1491.4</ele>
        <time>2017-07-26T09:48:44Z</time>
      </trkpt>
      <trkpt lat="44.8083570" lon="7.0646050">
        <ele>1492.0</ele>
        <time>2017-07-26T09:48:45Z</time>
      </trkpt>
      <trkpt lat="44.8083990" lon="7.0646100">
        <ele>1492.8</ele>
        <time>2017-07-26T09:48:47Z</time>
      </trkpt>
      <trkpt lat="44.8084200" lon="7.0646000">
        <ele>1493.0</ele>
        <time>2017-07-26T09:48:48Z</time>
      </trkpt>
      <trkpt lat="44.8084590" lon="7.0645740">
        <ele>1493.2</ele>
        <time>2017-07-26T09:48:50Z</time>
      </trkpt>
      <trkpt lat="44.8085420" lon="7.0645650">
        <ele>1494.0</ele>
        <time>2017-07-26T09:48:54Z</time>
      </trkpt>
      <trkpt lat="44.8085640" lon="7.0645650">
        <ele>1494.4</ele>
        <time>2017-07-26T09:48:55Z</time>
      </trkpt>
      <trkpt lat="44.8086500" lon="7.0645560">
        <ele>1495.4</ele>
        <time>2017-07-26T09:48:59Z</time>
      </trkpt>
      <trkpt lat="44.8086890" lon="7.0645430">
        <ele>1496.0</ele>
        <time>2017-07-26T09:49:01Z</time>
      </trkpt>
      <trkpt lat="44.8087490" lon="7.0645120">
        <ele>1496.6</ele>
        <time>2017-07-26T09:49:04Z</time>
      </trkpt>
      <trkpt lat="44.8088140" lon="7.0644880">
        <ele>1497.4</ele>
        <time>2017-07-26T09:49:07Z</time>
      </trkpt>
      <trkpt lat="44.8088350" lon="7.0644780">
        <ele>1497.8</ele>
        <time>2017-07-26T09:49:08Z</time>
      </trkpt>
      <trkpt lat="44.8088920" lon="7.0644480">
        <ele>1499.0</ele>
        <time>2017-07-26T09:49:11Z</time>
      </trkpt>
      <trkpt lat="44.8089130" lon="7.0644350">
        <ele>1499.4</ele>
        <time>2017-07-26T09:49:12Z</time>
      </trkpt>
      <trkpt lat="44.8089790" lon="7.0644090">
        <ele>1500.2</ele>
        <time>2017-07-26T09:49:15Z</time>
      </trkpt>
      <trkpt lat="44.8090460" lon="7.0643920">
        <ele>1501.0</ele>
        <time>2017-07-26T09:49:18Z</time>
      </trkpt>
      <trkpt lat="44.8090680" lon="7.0643910">
        <ele>1501.2</ele>
        <time>2017-07-26T09:49:19Z</time>
      </trkpt>
      <trkpt lat="44.8091870" lon="7.0643650">
        <ele>1502.2</ele>
        <time>2017-07-26T09:49:24Z</time>
      </trkpt>
      <trkpt lat="44.8092120" lon="7.0643610">
        <ele>1502.4</ele>
        <time>2017-07-26T09:49:25Z</time>
      </trkpt>
      <trkpt lat="44.8093330" lon="7.0643720">
        <ele>1503.8</ele>
        <time>2017-07-26T09:49:30Z</time>
      </trkpt>
      <trkpt lat="44.8093580" lon="7.0643840">
        <ele>1504.4</ele>
        <time>2017-07-26T09:49:31Z</time>
      </trkpt>
      <trkpt lat="44.8093810" lon="7.0643960">
        <ele>1505.0</ele>
        <time>2017-07-26T09:49:32Z</time>
      </trkpt>
      <trkpt lat="44.8094250" lon="7.0644250">
        <ele>1506.0</ele>
        <time>2017-07-26T09:49:34Z</time>
      </trkpt>
      <trkpt lat="44.8094950" lon="7.0644860">
        <ele>1506.8</ele>
        <time>2017-07-26T09:49:37Z</time>
      </trkpt>
      <trkpt lat="44.8095220" lon="7.0644940">
        <ele>1507.2</ele>
        <time>2017-07-26T09:49:38Z</time>
      </trkpt>
      <trkpt lat="44.8096290" lon="7.0644890">
        <ele>1508.0</ele>
        <time>2017-07-26T09:49:42Z</time>
      </trkpt>
      <trkpt lat="44.8096750" lon="7.0644990">
        <ele>1508.4</ele>
        <time>2017-07-26T09:49:44Z</time>
      </trkpt>
      <trkpt lat="44.8096910" lon="7.0645150">
        <ele>1508.6</ele>
        <time>2017-07-26T09:49:45Z</time>
      </trkpt>
      <trkpt lat="44.8097080" lon="7.0645590">
        <ele>1509.0</ele>
        <time>2017-07-26T09:49:47Z</time>
      </trkpt>
      <trkpt lat="44.8097040" lon="7.0646670">
        <ele>1509.6</ele>
        <time>2017-07-26T09:49:51Z</time>
      </trkpt>
      <trkpt lat="44.8096900" lon="7.0646840">
        <ele>1509.6</ele>
        <time>2017-07-26T09:49:52Z</time>
      </trkpt>
      <trkpt lat="44.8095630" lon="7.0647090">
        <ele>1510.6</ele>
        <time>2017-07-26T09:49:58Z</time>
      </trkpt>
      <trkpt lat="44.8094640" lon="7.0647150">
        <ele>1511.8</ele>
        <time>2017-07-26T09:50:03Z</time>
      </trkpt>
      <trkpt lat="44.8094460" lon="7.0647200">
        <ele>1512.0</ele>
        <time>2017-07-26T09:50:04Z</time>
      </trkpt>
      <trkpt lat="44.8094310" lon="7.0647310">
        <ele>1512.4</ele>
        <time>2017-07-26T09:50:05Z</time>
      </trkpt>
      <trkpt lat="44.8094110" lon="7.0647730">
        <ele>1513.0</ele>
        <time>2017-07-26T09:50:07Z</time>
      </trkpt>
      <trkpt lat="44.8093990" lon="7.0647970">
        <ele>1513.2</ele>
        <time>2017-07-26T09:50:08Z</time>
      </trkpt>
      <trkpt lat="44.8093680" lon="7.0648600">
        <ele>1514.0</ele>
        <time>2017-07-26T09:50:11Z</time>
      </trkpt>
      <trkpt lat="44.8093430" lon="7.0649390">
        <ele>1515.2</ele>
        <time>2017-07-26T09:50:15Z</time>
      </trkpt>
      <trkpt lat="44.8093690" lon="7.0650280">
        <ele>1516.4</ele>
        <time>2017-07-26T09:50:19Z</time>
      </trkpt>
      <trkpt lat="44.8093790" lon="7.0650440">
        <ele>1516.6</ele>
        <time>2017-07-26T09:50:20Z</time>
      </trkpt>
      <trkpt lat="44.8094090" lon="7.0650650">
        <ele>1517.6</ele>
        <time>2017-07-26T09:50:22Z</time>
      </trkpt>
      <trkpt lat="44.8094470" lon="7.0650750">
        <ele>1518.0</ele>
        <time>2017-07-26T09:50:24Z</time>
      </trkpt>
      <trkpt lat="44.8094820" lon="7.0650760">
        <ele>1518.4</ele>
        <time>2017-07-26T09:50:26Z</time>
      </trkpt>
      <trkpt lat="44.8094990" lon="7.0650780">
        <ele>1518.6</ele>
        <time>2017-07-26T09:50:27Z</time>
      </trkpt>
      <trkpt lat="44.8095660" lon="7.0650740">
        <ele>1519.8</ele>
        <time>2017-07-26T09:50:31Z</time>
      </trkpt>
      <trkpt lat="44.8095970" lon="7.0650720">
        <ele>1520.4</ele>
        <time>2017-07-26T09:50:33Z</time>
      </trkpt>
      <trkpt lat="44.8096290" lon="7.0650700">
        <ele>1521.2</ele>
        <time>2017-07-26T09:50:35Z</time>
      </trkpt>
      <trkpt lat="44.8096780" lon="7.0650680">
        <ele>1522.2</ele>
        <time>2017-07-26T09:50:38Z</time>
      </trkpt>
      <trkpt lat="44.8097300" lon="7.0650710">
        <ele>1523.2</ele>
        <time>2017-07-26T09:50:41Z</time>
      </trkpt>
      <trkpt lat="44.8097460" lon="7.0650710">
        <ele>1523.6</ele>
        <time>2017-07-26T09:50:42Z</time>
      </trkpt>
      <trkpt lat="44.8097760" lon="7.0650620">
        <ele>1524.4</ele>
        <time>2017-07-26T09:50:44Z</time>
      </trkpt>
      <trkpt lat="44.8098030" lon="7.0650460">
        <ele>1525.4</ele>
        <time>2017-07-26T09:50:46Z</time>
      </trkpt>
      <trkpt lat="44.8098180" lon="7.0650420">
        <ele>1525.6</ele>
        <time>2017-07-26T09:50:47Z</time>
      </trkpt>
      <trkpt lat="44.8098640" lon="7.0650320">
        <ele>1526.6</ele>
        <time>2017-07-26T09:50:50Z</time>
      </trkpt>
      <trkpt lat="44.8098800" lon="7.0650360">
        <ele>1526.8</ele>
        <time>2017-07-26T09:50:51Z</time>
      </trkpt>
      <trkpt lat="44.8099020" lon="7.0650710">
        <ele>1527.4</ele>
        <time>2017-07-26T09:50:53Z</time>
      </trkpt>
      <trkpt lat="44.8099070" lon="7.0650930">
        <ele>1527.6</ele>
        <time>2017-07-26T09:50:54Z</time>
      </trkpt>
      <trkpt lat="44.8098820" lon="7.0651380">
        <ele>1527.8</ele>
        <time>2017-07-26T09:50:57Z</time>
      </trkpt>
      <trkpt lat="44.8098420" lon="7.0651920">
        <ele>1528.6</ele>
        <time>2017-07-26T09:51:00Z</time>
      </trkpt>
      <trkpt lat="44.8098060" lon="7.0652310">
        <ele>1529.0</ele>
        <time>2017-07-26T09:51:02Z</time>
      </trkpt>
      <trkpt lat="44.8097470" lon="7.0652680">
        <ele>1530.0</ele>
        <time>2017-07-26T09:51:05Z</time>
      </trkpt>
      <trkpt lat="44.8096700" lon="7.0652920">
        <ele>1531.2</ele>
        <time>2017-07-26T09:51:08Z</time>
      </trkpt>
      <trkpt lat="44.8096180" lon="7.0653000">
        <ele>1532.2</ele>
        <time>2017-07-26T09:51:10Z</time>
      </trkpt>
      <trkpt lat="44.8095410" lon="7.0653130">
        <ele>1533.4</ele>
        <time>2017-07-26T09:51:14Z</time>
      </trkpt>
      <trkpt lat="44.8094750" lon="7.0653360">
        <ele>1534.6</ele>
        <time>2017-07-26T09:51:18Z</time>
      </trkpt>
      <trkpt lat="44.8094280" lon="7.0653510">
        <ele>1535.6</ele>
        <time>2017-07-26T09:51:21Z</time>
      </trkpt>
      <trkpt lat="44.8093790" lon="7.0653680">
        <ele>1536.8</ele>
        <time>2017-07-26T09:51:24Z</time>
      </trkpt>
      <trkpt lat="44.8093180" lon="7.0653870">
        <ele>1538.0</ele>
        <time>2017-07-26T09:51:28Z</time>
      </trkpt>
      <trkpt lat="44.8092510" lon="7.0654190">
        <ele>1539.2</ele>
        <time>2017-07-26T09:51:32Z</time>
      </trkpt>
      <trkpt lat="44.8092010" lon="7.0654520">
        <ele>1540.6</ele>
        <time>2017-07-26T09:51:35Z</time>
      </trkpt>
      <trkpt lat="44.8091250" lon="7.0654920">
        <ele>1541.8</ele>
        <time>2017-07-26T09:51:40Z</time>
      </trkpt>
      <trkpt lat="44.8091130" lon="7.0655090">
        <ele>1542.0</ele>
        <time>2017-07-26T09:51:41Z</time>
      </trkpt>
      <trkpt lat="44.8091050" lon="7.0655300">
        <ele>1542.2</ele>
        <time>2017-07-26T09:51:42Z</time>
      </trkpt>
      <trkpt lat="44.8091240" lon="7.0655940">
        <ele>1542.8</ele>
        <time>2017-07-26T09:51:45Z</time>
      </trkpt>
      <trkpt lat="44.8091360" lon="7.0656090">
        <ele>1543.0</ele>
        <time>2017-07-26T09:51:46Z</time>
      </trkpt>
      <trkpt lat="44.8091830" lon="7.0656050">
        <ele>1544.0</ele>
        <time>2017-07-26T09:51:49Z</time>
      </trkpt>
      <trkpt lat="44.8092010" lon="7.0655970">
        <ele>1544.0</ele>
        <time>2017-07-26T09:51:50Z</time>
      </trkpt>
      <trkpt lat="44.8093270" lon="7.0655980">
        <ele>1545.0</ele>
        <time>2017-07-26T09:51:57Z</time>
      </trkpt>
      <trkpt lat="44.8094070" lon="7.0656360">
        <ele>1546.0</ele>
        <time>2017-07-26T09:52:02Z</time>
      </trkpt>
      <trkpt lat="44.8094880" lon="7.0656740">
        <ele>1547.2</ele>
        <time>2017-07-26T09:52:07Z</time>
      </trkpt>
      <trkpt lat="44.8095350" lon="7.0656980">
        <ele>1547.2</ele>
        <time>2017-07-26T09:52:10Z</time>
      </trkpt>
      <trkpt lat="44.8096180" lon="7.0657250">
        <ele>1548.2</ele>
        <time>2017-07-26T09:52:15Z</time>
      </trkpt>
      <trkpt lat="44.8096660" lon="7.0657360">
        <ele>1548.8</ele>
        <time>2017-07-26T09:52:18Z</time>
      </trkpt>
      <trkpt lat="44.8097160" lon="7.0657440">
        <ele>1549.2</ele>
        <time>2017-07-26T09:52:21Z</time>
      </trkpt>
      <trkpt lat="44.8097800" lon="7.0657630">
        <ele>1550.6</ele>
        <time>2017-07-26T09:52:25Z</time>
      </trkpt>
      <trkpt lat="44.8098840" lon="7.0657940">
        <ele>1551.6</ele>
        <time>2017-07-26T09:52:31Z</time>
      </trkpt>
      <trkpt lat="44.8098990" lon="7.0657940">
        <ele>1551.8</ele>
        <time>2017-07-26T09:52:32Z</time>
      </trkpt>
      <trkpt lat="44.8099930" lon="7.0658110">
        <ele>1552.8</ele>
        <time>2017-07-26T09:52:38Z</time>
      </trkpt>
      <trkpt lat="44.8100800" lon="7.0658320">
        <ele>1554.0</ele>
        <time>2017-07-26T09:52:44Z</time>
      </trkpt>
      <trkpt lat="44.8101090" lon="7.0658410">
        <ele>1554.6</ele>
        <time>2017-07-26T09:52:46Z</time>
      </trkpt>
      <trkpt lat="44.8101370" lon="7.0658450">
        <ele>1555.2</ele>
        <time>2017-07-26T09:52:48Z</time>
      </trkpt>
      <trkpt lat="44.8102170" lon="7.0658400">
        <ele>1556.2</ele>
        <time>2017-07-26T09:52:53Z</time>
      </trkpt>
      <trkpt lat="44.8102710" lon="7.0657950">
        <ele>1557.6</ele>
        <time>2017-07-26T09:52:57Z</time>
      </trkpt>
      <trkpt lat="44.8103130" lon="7.0657590">
        <ele>1558.8</ele>
        <time>2017-07-26T09:53:00Z</time>
      </trkpt>
      <trkpt lat="44.8103630" lon="7.0657360">
        <ele>1559.8</ele>
        <time>2017-07-26T09:53:03Z</time>
      </trkpt>
      <trkpt lat="44.8104170" lon="7.0657000">
        <ele>1561.4</ele>
        <time>2017-07-26T09:53:07Z</time>
      </trkpt>
      <trkpt lat="44.8104260" lon="7.0656940">
        <ele>1561.8</ele>
        <time>2017-07-26T09:53:08Z</time>
      </trkpt>
      <trkpt lat="44.8104410" lon="7.0656640">
        <ele>1563.4</ele>
        <time>2017-07-26T09:53:10Z</time>
      </trkpt>
      <trkpt lat="44.8104580" lon="7.0656300">
        <ele>1564.6</ele>
        <time>2017-07-26T09:53:12Z</time>
      </trkpt>
      <trkpt lat="44.8104790" lon="7.0656000">
        <ele>1565.8</ele>
        <time>2017-07-26T09:53:14Z</time>
      </trkpt>
      <trkpt lat="44.8104870" lon="7.0655870">
        <ele>1566.4</ele>
        <time>2017-07-26T09:53:15Z</time>
      </trkpt>
      <trkpt lat="44.8104960" lon="7.0655730">
        <ele>1567.0</ele>
        <time>2017-07-26T09:53:16Z</time>
      </trkpt>
      <trkpt lat="44.8105090" lon="7.0655400">
        <ele>1568.2</ele>
        <time>2017-07-26T09:53:18Z</time>
      </trkpt>
      <trkpt lat="44.8105190" lon="7.0655080">
        <ele>1569.2</ele>
        <time>2017-07-26T09:53:20Z</time>
      </trkpt>
      <trkpt lat="44.8105410" lon="7.0654650">
        <ele>1570.4</ele>
        <time>2017-07-26T09:53:23Z</time>
      </trkpt>
      <trkpt lat="44.8105480" lon="7.0654510">
        <ele>1571.0</ele>
        <time>2017-07-26T09:53:24Z</time>
      </trkpt>
      <trkpt lat="44.8105620" lon="7.0654210">
        <ele>1571.8</ele>
        <time>2017-07-26T09:53:26Z</time>
      </trkpt>
      <trkpt lat="44.8105850" lon="7.0653740">
        <ele>1572.8</ele>
        <time>2017-07-26T09:53:29Z</time>
      </trkpt>
      <trkpt lat="44.8105920" lon="7.0653570">
        <ele>1573.0</ele>
        <time>2017-07-26T09:53:30Z</time>
      </trkpt>
      <trkpt lat="44.8106200" lon="7.0653140">
        <ele>1574.0</ele>
        <time>2017-07-26T09:53:33Z</time>
      </trkpt>
      <trkpt lat="44.8103520" lon="7.0654700">
        <ele>1575.2</ele>
        <time>2017-07-26T09:53:36Z</time>
      </trkpt>
      <trkpt lat="44.8103590" lon="7.0653690">
        <ele>1576.2</ele>
        <time>2017-07-26T09:53:39Z</time>
      </trkpt>
      <trkpt lat="44.8103820" lon="7.0652940">
        <ele>1576.8</ele>
        <time>2017-07-26T09:53:41Z</time>
      </trkpt>
      <trkpt lat="44.8103960" lon="7.0652140">
        <ele>1577.0</ele>
        <time>2017-07-26T09:53:43Z</time>
      </trkpt>
      <trkpt lat="44.8104080" lon="7.0651430">
        <ele>1577.2</ele>
        <time>2017-07-26T09:53:45Z</time>
      </trkpt>
      <trkpt lat="44.8104280" lon="7.0650700">
        <ele>1578.0</ele>
        <time>2017-07-26T09:53:47Z</time>
      </trkpt>
      <trkpt lat="44.8104430" lon="7.0650380">
        <ele>1578.4</ele>
        <time>2017-07-26T09:53:48Z</time>
      </trkpt>
      <trkpt lat="44.8105040" lon="7.0649330">
        <ele>1579.4</ele>
        <time>2017-07-26T09:53:52Z</time>
      </trkpt>
      <trkpt lat="44.8105210" lon="7.0649070">
        <ele>1579.4</ele>
        <time>2017-07-26T09:53:53Z</time>
      </trkpt>
      <trkpt lat="44.8105700" lon="7.0648080">
        <ele>1580.6</ele>
        <time>2017-07-26T09:53:57Z</time>
      </trkpt>
      <trkpt lat="44.8105840" lon="7.0647650">
        <ele>1581.2</ele>
        <time>2017-07-26T09:53:59Z</time>
      </trkpt>
      <trkpt lat="44.8106370" lon="7.0646380">
        <ele>1581.8</ele>
        <time>2017-07-26T09:54:05Z</time>
      </trkpt>
      <trkpt lat="44.8106800" lon="7.0645210">
        <ele>1583.0</ele>
        <time>2017-07-26T09:54:11Z</time>
      </trkpt>
      <trkpt lat="44.8107060" lon="7.0644740">
        <ele>1583.6</ele>
        <time>2017-07-26T09:54:14Z</time>
      </trkpt>
      <trkpt lat="44.8107160" lon="7.0644600">
        <ele>1584.0</ele>
        <time>2017-07-26T09:54:15Z</time>
      </trkpt>
      <trkpt lat="44.8107440" lon="7.0644470">
        <ele>1584.4</ele>
        <time>2017-07-26T09:54:17Z</time>
      </trkpt>
      <trkpt lat="44.8107950" lon="7.0645030">
        <ele>1584.0</ele>
        <time>2017-07-26T09:54:22Z</time>
      </trkpt>
      <trkpt lat="44.8108020" lon="7.0645230">
        <ele>1584.0</ele>
        <time>2017-07-26T09:54:23Z</time>
      </trkpt>
      <trkpt lat="44.8108050" lon="7.0645460">
        <ele>1584.0</ele>
        <time>2017-07-26T09:54:24Z</time>
      </trkpt>
      <trkpt lat="44.8108050" lon="7.0646130">
        <ele>1583.8</ele>
        <time>2017-07-26T09:54:27Z</time>
      </trkpt>
      <trkpt lat="44.8107930" lon="7.0648020">
        <ele>1584.2</ele>
        <time>2017-07-26T09:54:35Z</time>
      </trkpt>
      <trkpt lat="44.8107890" lon="7.0648860">
        <ele>1585.0</ele>
        <time>2017-07-26T09:54:39Z</time>
      </trkpt>
      <trkpt lat="44.8107640" lon="7.0649280">
        <ele>1585.6</ele>
        <time>2017-07-26T09:54:42Z</time>
      </trkpt>
      <trkpt lat="44.8107490" lon="7.0649620">
        <ele>1586.2</ele>
        <time>2017-07-26T09:54:44Z</time>
      </trkpt>
      <trkpt lat="44.8107200" lon="7.0650440">
        <ele>1587.2</ele>
        <time>2017-07-26T09:54:48Z</time>
      </trkpt>
      <trkpt lat="44.8107140" lon="7.0650740">
        <ele>1587.4</ele>
        <time>2017-07-26T09:54:49Z</time>
      </trkpt>
      <trkpt lat="44.8106480" lon="7.0652040">
        <ele>1587.8</ele>
        <time>2017-07-26T09:54:54Z</time>
      </trkpt>
      <trkpt lat="44.8106390" lon="7.0652630">
        <ele>1588.4</ele>
        <time>2017-07-26T09:54:57Z</time>
      </trkpt>
      <trkpt lat="44.8106560" lon="7.0653160">
        <ele>1589.0</ele>
        <time>2017-07-26T09:55:00Z</time>
      </trkpt>
      <trkpt lat="44.8106950" lon="7.0653400">
        <ele>1589.6</ele>
        <time>2017-07-26T09:55:03Z</time>
      </trkpt>
      <trkpt lat="44.8107400" lon="7.0653470">
        <ele>1590.6</ele>
        <time>2017-07-26T09:55:06Z</time>
      </trkpt>
      <trkpt lat="44.8107520" lon="7.0653440">
        <ele>1590.8</ele>
        <time>2017-07-26T09:55:07Z</time>
      </trkpt>
      <trkpt lat="44.8108120" lon="7.0653310">
        <ele>1592.0</ele>
        <time>2017-07-26T09:55:11Z</time>
      </trkpt>
      <trkpt lat="44.8108440" lon="7.0653010">
        <ele>1592.6</ele>
        <time>2017-07-26T09:55:13Z</time>
      </trkpt>
      <trkpt lat="44.8108670" lon="7.0652640">
        <ele>1593.6</ele>
        <time>2017-07-26T09:55:15Z</time>
      </trkpt>
      <trkpt lat="44.8108750" lon="7.0652240">
        <ele>1594.4</ele>
        <time>2017-07-26T09:55:17Z</time>
      </trkpt>
      <trkpt lat="44.8108770" lon="7.0652010">
        <ele>1594.6</ele>
        <time>2017-07-26T09:55:18Z</time>
      </trkpt>
      <trkpt lat="44.8108790" lon="7.0651820">
        <ele>1594.8</ele>
        <time>2017-07-26T09:55:19Z</time>
      </trkpt>
      <trkpt lat="44.8109000" lon="7.0651290">
        <ele>1596.2</ele>
        <time>2017-07-26T09:55:22Z</time>
      </trkpt>
      <trkpt lat="44.8109090" lon="7.0650880">
        <ele>1597.2</ele>
        <time>2017-07-26T09:55:24Z</time>
      </trkpt>
      <trkpt lat="44.8109340" lon="7.0650240">
        <ele>1598.4</ele>
        <time>2017-07-26T09:55:27Z</time>
      </trkpt>
      <trkpt lat="44.8109650" lon="7.0649630">
        <ele>1599.6</ele>
        <time>2017-07-26T09:55:30Z</time>
      </trkpt>
      <trkpt lat="44.8110050" lon="7.0649160">
        <ele>1600.8</ele>
        <time>2017-07-26T09:55:33Z</time>
      </trkpt>
      <trkpt lat="44.8110320" lon="7.0648840">
        <ele>1601.8</ele>
        <time>2017-07-26T09:55:35Z</time>
      </trkpt>
      <trkpt lat="44.8110450" lon="7.0648660">
        <ele>1602.4</ele>
        <time>2017-07-26T09:55:36Z</time>
      </trkpt>
      <trkpt lat="44.8110720" lon="7.0648330">
        <ele>1603.2</ele>
        <time>2017-07-26T09:55:38Z</time>
      </trkpt>
      <trkpt lat="44.8111080" lon="7.0647720">
        <ele>1604.4</ele>
        <time>2017-07-26T09:55:41Z</time>
      </trkpt>
      <trkpt lat="44.8111260" lon="7.0647310">
        <ele>1605.0</ele>
        <time>2017-07-26T09:55:43Z</time>
      </trkpt>
      <trkpt lat="44.8111450" lon="7.0646730">
        <ele>1605.4</ele>
        <time>2017-07-26T09:55:45Z</time>
      </trkpt>
      <trkpt lat="44.8111680" lon="7.0645850">
        <ele>1605.8</ele>
        <time>2017-07-26T09:55:48Z</time>
      </trkpt>
      <trkpt lat="44.8111920" lon="7.0644720">
        <ele>1606.4</ele>
        <time>2017-07-26T09:55:52Z</time>
      </trkpt>
      <trkpt lat="44.8111950" lon="7.0644150">
        <ele>1606.8</ele>
        <time>2017-07-26T09:55:54Z</time>
      </trkpt>
      <trkpt lat="44.8111730" lon="7.0642090">
        <ele>1607.8</ele>
        <time>2017-07-26T09:56:00Z</time>
      </trkpt>
      <trkpt lat="44.8111610" lon="7.0640780">
        <ele>1608.8</ele>
        <time>2017-07-26T09:56:04Z</time>
      </trkpt>
      <trkpt lat="44.8111680" lon="7.0640480">
        <ele>1609.2</ele>
        <time>2017-07-26T09:56:05Z</time>
      </trkpt>
      <trkpt lat="44.8111850" lon="7.0640330">
        <ele>1609.4</ele>
        <time>2017-07-26T09:56:06Z</time>
      </trkpt>
      <trkpt lat="44.8112220" lon="7.0640520">
        <ele>1609.6</ele>
        <time>2017-07-26T09:56:08Z</time>
      </trkpt>
      <trkpt lat="44.8112730" lon="7.0641730">
        <ele>1609.8</ele>
        <time>2017-07-26T09:56:13Z</time>
      </trkpt>
      <trkpt lat="44.8112780" lon="7.0641960">
        <ele>1610.0</ele>
        <time>2017-07-26T09:56:14Z</time>
      </trkpt>
      <trkpt lat="44.8113280" lon="7.0642880">
        <ele>1610.2</ele>
        <time>2017-07-26T09:56:19Z</time>
      </trkpt>
      <trkpt lat="44.8113440" lon="7.0642880">
        <ele>1610.2</ele>
        <time>2017-07-26T09:56:20Z</time>
      </trkpt>
      <trkpt lat="44.8114210" lon="7.0642340">
        <ele>1610.6</ele>
        <time>2017-07-26T09:56:25Z</time>
      </trkpt>
      <trkpt lat="44.8114470" lon="7.0641960">
        <ele>1611.2</ele>
        <time>2017-07-26T09:56:27Z</time>
      </trkpt>
      <trkpt lat="44.8114890" lon="7.0641780">
        <ele>1612.2</ele>
        <time>2017-07-26T09:56:30Z</time>
      </trkpt>
      <trkpt lat="44.8115160" lon="7.0641940">
        <ele>1612.2</ele>
        <time>2017-07-26T09:56:32Z</time>
      </trkpt>
      <trkpt lat="44.8115330" lon="7.0642620">
        <ele>1612.8</ele>
        <time>2017-07-26T09:56:35Z</time>
      </trkpt>
      <trkpt lat="44.8115340" lon="7.0643810">
        <ele>1613.2</ele>
        <time>2017-07-26T09:56:39Z</time>
      </trkpt>
      <trkpt lat="44.8115300" lon="7.0644090">
        <ele>1613.4</ele>
        <time>2017-07-26T09:56:40Z</time>
      </trkpt>
      <trkpt lat="44.8115210" lon="7.0644640">
        <ele>1613.6</ele>
        <time>2017-07-26T09:56:42Z</time>
      </trkpt>
      <trkpt lat="44.8114950" lon="7.0645720">
        <ele>1614.6</ele>
        <time>2017-07-26T09:56:46Z</time>
      </trkpt>
      <trkpt lat="44.8114710" lon="7.0646100">
        <ele>1615.0</ele>
        <time>2017-07-26T09:56:48Z</time>
      </trkpt>
      <trkpt lat="44.8114340" lon="7.0647020">
        <ele>1615.8</ele>
        <time>2017-07-26T09:56:52Z</time>
      </trkpt>
      <trkpt lat="44.8114250" lon="7.0647520">
        <ele>1616.6</ele>
        <time>2017-07-26T09:56:54Z</time>
      </trkpt>
      <trkpt lat="44.8114290" lon="7.0647740">
        <ele>1616.8</ele>
        <time>2017-07-26T09:56:55Z</time>
      </trkpt>
      <trkpt lat="44.8114370" lon="7.0647970">
        <ele>1617.0</ele>
        <time>2017-07-26T09:56:56Z</time>
      </trkpt>
      <trkpt lat="44.8114450" lon="7.0648670">
        <ele>1617.8</ele>
        <time>2017-07-26T09:56:59Z</time>
      </trkpt>
      <trkpt lat="44.8114480" lon="7.0649170">
        <ele>1618.2</ele>
        <time>2017-07-26T09:57:01Z</time>
      </trkpt>
      <trkpt lat="44.8114410" lon="7.0650070">
        <ele>1619.0</ele>
        <time>2017-07-26T09:57:05Z</time>
      </trkpt>
      <trkpt lat="44.8114360" lon="7.0650310">
        <ele>1619.2</ele>
        <time>2017-07-26T09:57:06Z</time>
      </trkpt>
      <trkpt lat="44.8114320" lon="7.0650580">
        <ele>1619.4</ele>
        <time>2017-07-26T09:57:07Z</time>
      </trkpt>
      <trkpt lat="44.8114090" lon="7.0651510">
        <ele>1620.2</ele>
        <time>2017-07-26T09:57:11Z</time>
      </trkpt>
      <trkpt lat="44.8114010" lon="7.0651730">
        <ele>1620.6</ele>
        <time>2017-07-26T09:57:12Z</time>
      </trkpt>
      <trkpt lat="44.8113760" lon="7.0652730">
        <ele>1621.4</ele>
        <time>2017-07-26T09:57:16Z</time>
      </trkpt>
      <trkpt lat="44.8113730" lon="7.0653740">
        <ele>1622.0</ele>
        <time>2017-07-26T09:57:20Z</time>
      </trkpt>
      <trkpt lat="44.8113820" lon="7.0654420">
        <ele>1622.6</ele>
        <time>2017-07-26T09:57:23Z</time>
      </trkpt>
      <trkpt lat="44.8114170" lon="7.0655280">
        <ele>1622.8</ele>
        <time>2017-07-26T09:57:27Z</time>
      </trkpt>
      <trkpt lat="44.8114470" lon="7.0656360">
        <ele>1623.6</ele>
        <time>2017-07-26T09:57:31Z</time>
      </trkpt>
      <trkpt lat="44.8114500" lon="7.0657200">
        <ele>1623.6</ele>
        <time>2017-07-26T09:57:33Z</time>
      </trkpt>
      <trkpt lat="44.8114060" lon="7.0658240">
        <ele>1623.6</ele>
        <time>2017-07-26T09:57:36Z</time>
      </trkpt>
      <trkpt lat="44.8113880" lon="7.0658490">
        <ele>1623.6</ele>
        <time>2017-07-26T09:57:37Z</time>
      </trkpt>
      <trkpt lat="44.8113360" lon="7.0659360">
        <ele>1624.4</ele>
        <time>2017-07-26T09:57:40Z</time>
      </trkpt>
      <trkpt lat="44.8113200" lon="7.0659680">
        <ele>1624.8</ele>
        <time>2017-07-26T09:57:41Z</time>
      </trkpt>
      <trkpt lat="44.8112590" lon="7.0660490">
        <ele>1625.4</ele>
        <time>2017-07-26T09:57:44Z</time>
      </trkpt>
      <trkpt lat="44.8112050" lon="7.0660890">
        <ele>1626.2</ele>
        <time>2017-07-26T09:57:46Z</time>
      </trkpt>
      <trkpt lat="44.8111620" lon="7.0661350">
        <ele>1627.2</ele>
        <time>2017-07-26T09:57:48Z</time>
      </trkpt>
      <trkpt lat="44.8111450" lon="7.0661700">
        <ele>1627.6</ele>
        <time>2017-07-26T09:57:49Z</time>
      </trkpt>
      <trkpt lat="44.8111380" lon="7.0662480">
        <ele>1628.4</ele>
        <time>2017-07-26T09:57:51Z</time>
      </trkpt>
      <trkpt lat="44.8111460" lon="7.0663280">
        <ele>1629.0</ele>
        <time>2017-07-26T09:57:53Z</time>
      </trkpt>
      <trkpt lat="44.8111490" lon="7.0663680">
        <ele>1629.6</ele>
        <time>2017-07-26T09:57:54Z</time>
      </trkpt>
      <trkpt lat="44.8111500" lon="7.0665170">
        <ele>1631.0</ele>
        <time>2017-07-26T09:57:58Z</time>
      </trkpt>
      <trkpt lat="44.8111340" lon="7.0665810">
        <ele>1631.4</ele>
        <time>2017-07-26T09:58:00Z</time>
      </trkpt>
      <trkpt lat="44.8111130" lon="7.0666890">
        <ele>1632.2</ele>
        <time>2017-07-26T09:58:03Z</time>
      </trkpt>
      <trkpt lat="44.8110400" lon="7.0668590">
        <ele>1632.8</ele>
        <time>2017-07-26T09:58:07Z</time>
      </trkpt>
      <trkpt lat="44.8109320" lon="7.0669820">
        <ele>1633.4</ele>
        <time>2017-07-26T09:58:11Z</time>
      </trkpt>
      <trkpt lat="44.8109070" lon="7.0670070">
        <ele>1633.4</ele>
        <time>2017-07-26T09:58:12Z</time>
      </trkpt>
      <trkpt lat="44.8107960" lon="7.0671390">
        <ele>1634.6</ele>
        <time>2017-07-26T09:58:17Z</time>
      </trkpt>
      <trkpt lat="44.8107520" lon="7.0671860">
        <ele>1635.0</ele>
        <time>2017-07-26T09:58:19Z</time>
      </trkpt>
      <trkpt lat="44.8107090" lon="7.0672340">
        <ele>1635.6</ele>
        <time>2017-07-26T09:58:21Z</time>
      </trkpt>
      <trkpt lat="44.8106420" lon="7.0673260">
        <ele>1636.8</ele>
        <time>2017-07-26T09:58:24Z</time>
      </trkpt>
      <trkpt lat="44.8106210" lon="7.0673560">
        <ele>1637.2</ele>
        <time>2017-07-26T09:58:25Z</time>
      </trkpt>
      <trkpt lat="44.8105740" lon="7.0674130">
        <ele>1638.2</ele>
        <time>2017-07-26T09:58:27Z</time>
      </trkpt>
      <trkpt lat="44.8105270" lon="7.0674820">
        <ele>1639.0</ele>
        <time>2017-07-26T09:58:30Z</time>
      </trkpt>
      <trkpt lat="44.8105280" lon="7.0675070">
        <ele>1639.4</ele>
        <time>2017-07-26T09:58:31Z</time>
      </trkpt>
      <trkpt lat="44.8105940" lon="7.0675450">
        <ele>1640.4</ele>
        <time>2017-07-26T09:58:35Z</time>
      </trkpt>
      <trkpt lat="44.8106110" lon="7.0675330">
        <ele>1640.6</ele>
        <time>2017-07-26T09:58:36Z</time>
      </trkpt>
      <trkpt lat="44.8106540" lon="7.0674750">
        <ele>1641.6</ele>
        <time>2017-07-26T09:58:39Z</time>
      </trkpt>
      <trkpt lat="44.8107050" lon="7.0674220">
        <ele>1642.8</ele>
        <time>2017-07-26T09:58:42Z</time>
      </trkpt>
      <trkpt lat="44.8107970" lon="7.0673360">
        <ele>1644.4</ele>
        <time>2017-07-26T09:58:46Z</time>
      </trkpt>
      <trkpt lat="44.8108700" lon="7.0672830">
        <ele>1645.2</ele>
        <time>2017-07-26T09:58:49Z</time>
      </trkpt>
      <trkpt lat="44.8108990" lon="7.0672670">
        <ele>1645.4</ele>
        <time>2017-07-26T09:58:50Z</time>
      </trkpt>
      <trkpt lat="44.8110770" lon="7.0671790">
        <ele>1646.6</ele>
        <time>2017-07-26T09:58:56Z</time>
      </trkpt>
      <trkpt lat="44.8112560" lon="7.0670130">
        <ele>1647.6</ele>
        <time>2017-07-26T09:59:02Z</time>
      </trkpt>
      <trkpt lat="44.8113090" lon="7.0668610">
        <ele>1648.8</ele>
        <time>2017-07-26T09:59:05Z</time>
      </trkpt>
      <trkpt lat="44.8113220" lon="7.0668140">
        <ele>1649.2</ele>
        <time>2017-07-26T09:59:06Z</time>
      </trkpt>
      <trkpt lat="44.8113580" lon="7.0666880">
        <ele>1650.2</ele>
        <time>2017-07-26T09:59:09Z</time>
      </trkpt>
      <trkpt lat="44.8113700" lon="7.0666450">
        <ele>1651.2</ele>
        <time>2017-07-26T09:59:10Z</time>
      </trkpt>
      <trkpt lat="44.8114240" lon="7.0665240">
        <ele>1652.6</ele>
        <time>2017-07-26T09:59:13Z</time>
      </trkpt>
      <trkpt lat="44.8115110" lon="7.0664450">
        <ele>1653.6</ele>
        <time>2017-07-26T09:59:16Z</time>
      </trkpt>
      <trkpt lat="44.8115610" lon="7.0664230">
        <ele>1654.2</ele>
        <time>2017-07-26T09:59:18Z</time>
      </trkpt>
      <trkpt lat="44.8115780" lon="7.0664010">
        <ele>1654.4</ele>
        <time>2017-07-26T09:59:19Z</time>
      </trkpt>
      <trkpt lat="44.8115900" lon="7.0663760">
        <ele>1654.6</ele>
        <time>2017-07-26T09:59:20Z</time>
      </trkpt>
      <trkpt lat="44.8116210" lon="7.0663370">
        <ele>1655.2</ele>
        <time>2017-07-26T09:59:22Z</time>
      </trkpt>
      <trkpt lat="44.8116630" lon="7.0662860">
        <ele>1656.0</ele>
        <time>2017-07-26T09:59:25Z</time>
      </trkpt>
      <trkpt lat="44.8117370" lon="7.0662250">
        <ele>1657.0</ele>
        <time>2017-07-26T09:59:30Z</time>
      </trkpt>
      <trkpt lat="44.8118020" lon="7.0661570">
        <ele>1658.2</ele>
        <time>2017-07-26T09:59:35Z</time>
      </trkpt>
      <trkpt lat="44.8118230" lon="7.0661280">
        <ele>1659.0</ele>
        <time>2017-07-26T09:59:37Z</time>
      </trkpt>
      <trkpt lat="44.8118340" lon="7.0661150">
        <ele>1659.2</ele>
        <time>2017-07-26T09:59:38Z</time>
      </trkpt>
      <trkpt lat="44.8118820" lon="7.0660700">
        <ele>1660.4</ele>
        <time>2017-07-26T09:59:42Z</time>
      </trkpt>
      <trkpt lat="44.8119150" lon="7.0660240">
        <ele>1661.2</ele>
        <time>2017-07-26T09:59:45Z</time>
      </trkpt>
      <trkpt lat="44.8119250" lon="7.0660050">
        <ele>1661.4</ele>
        <time>2017-07-26T09:59:46Z</time>
      </trkpt>
      <trkpt lat="44.8119720" lon="7.0659470">
        <ele>1662.6</ele>
        <time>2017-07-26T09:59:50Z</time>
      </trkpt>
      <trkpt lat="44.8119850" lon="7.0659340">
        <ele>1663.0</ele>
        <time>2017-07-26T09:59:51Z</time>
      </trkpt>
      <trkpt lat="44.8120410" lon="7.0658840">
        <ele>1663.8</ele>
        <time>2017-07-26T09:59:55Z</time>
      </trkpt>
      <trkpt lat="44.8120890" lon="7.0658100">
        <ele>1664.8</ele>
        <time>2017-07-26T09:59:59Z</time>
      </trkpt>
      <trkpt lat="44.8121250" lon="7.0656940">
        <ele>1666.0</ele>
        <time>2017-07-26T10:00:04Z</time>
      </trkpt>
      <trkpt lat="44.8121250" lon="7.0656440">
        <ele>1666.2</ele>
        <time>2017-07-26T10:00:05Z</time>
      </trkpt>
      <trkpt lat="44.8121110" lon="7.0655980">
        <ele>1666.2</ele>
        <time>2017-07-26T10:00:06Z</time>
      </trkpt>
      <trkpt lat="44.8120910" lon="7.0655420">
        <ele>1665.8</ele>
        <time>2017-07-26T10:00:08Z</time>
      </trkpt>
      <trkpt lat="44.8120890" lon="7.0655160">
        <ele>1665.6</ele>
        <time>2017-07-26T10:00:09Z</time>
      </trkpt>
      <trkpt lat="44.8121110" lon="7.0654490">
        <ele>1665.4</ele>
        <time>2017-07-26T10:00:12Z</time>
      </trkpt>
      <trkpt lat="44.8121680" lon="7.0654470">
        <ele>1665.6</ele>
        <time>2017-07-26T10:00:16Z</time>
      </trkpt>
      <trkpt lat="44.8121810" lon="7.0654480">
        <ele>1665.4</ele>
        <time>2017-07-26T10:00:17Z</time>
      </trkpt>
      <trkpt lat="44.8122610" lon="7.0655120">
        <ele>1665.4</ele>
        <time>2017-07-26T10:00:24Z</time>
      </trkpt>
      <trkpt lat="44.8122960" lon="7.0656150">
        <ele>1665.2</ele>
        <time>2017-07-26T10:00:28Z</time>
      </trkpt>
      <trkpt lat="44.8122800" lon="7.0657310">
        <ele>1665.6</ele>
        <time>2017-07-26T10:00:33Z</time>
      </trkpt>
      <trkpt lat="44.8122480" lon="7.0659220">
        <ele>1666.8</ele>
        <time>2017-07-26T10:00:40Z</time>
      </trkpt>
      <trkpt lat="44.8122390" lon="7.0659460">
        <ele>1667.0</ele>
        <time>2017-07-26T10:00:41Z</time>
      </trkpt>
      <trkpt lat="44.8121940" lon="7.0660730">
        <ele>1668.0</ele>
        <time>2017-07-26T10:00:47Z</time>
      </trkpt>
      <trkpt lat="44.8121580" lon="7.0661760">
        <ele>1669.0</ele>
        <time>2017-07-26T10:00:52Z</time>
      </trkpt>
      <trkpt lat="44.8121480" lon="7.0662210">
        <ele>1669.6</ele>
        <time>2017-07-26T10:00:54Z</time>
      </trkpt>
      <trkpt lat="44.8121320" lon="7.0662620">
        <ele>1670.2</ele>
        <time>2017-07-26T10:00:56Z</time>
      </trkpt>
      <trkpt lat="44.8121000" lon="7.0663600">
        <ele>1671.2</ele>
        <time>2017-07-26T10:01:01Z</time>
      </trkpt>
      <trkpt lat="44.8120560" lon="7.0664970">
        <ele>1672.4</ele>
        <time>2017-07-26T10:01:07Z</time>
      </trkpt>
      <trkpt lat="44.8120480" lon="7.0665210">
        <ele>1672.6</ele>
        <time>2017-07-26T10:01:08Z</time>
      </trkpt>
      <trkpt lat="44.8119980" lon="7.0666180">
        <ele>1673.6</ele>
        <time>2017-07-26T10:01:13Z</time>
      </trkpt>
      <trkpt lat="44.8119590" lon="7.0666830">
        <ele>1674.0</ele>
        <time>2017-07-26T10:01:16Z</time>
      </trkpt>
      <trkpt lat="44.8119370" lon="7.0667730">
        <ele>1674.6</ele>
        <time>2017-07-26T10:01:20Z</time>
      </trkpt>
      <trkpt lat="44.8119430" lon="7.0667930">
        <ele>1674.8</ele>
        <time>2017-07-26T10:01:21Z</time>
      </trkpt>
      <trkpt lat="44.8119710" lon="7.0668520">
        <ele>1675.4</ele>
        <time>2017-07-26T10:01:24Z</time>
      </trkpt>
      <trkpt lat="44.8119900" lon="7.0668950">
        <ele>1676.0</ele>
        <time>2017-07-26T10:01:26Z</time>
      </trkpt>
      <trkpt lat="44.8120020" lon="7.0669140">
        <ele>1676.2</ele>
        <time>2017-07-26T10:01:27Z</time>
      </trkpt>
      <trkpt lat="44.8120370" lon="7.0669930">
        <ele>1677.0</ele>
        <time>2017-07-26T10:01:31Z</time>
      </trkpt>
      <trkpt lat="44.8120600" lon="7.0670600">
        <ele>1677.6</ele>
        <time>2017-07-26T10:01:34Z</time>
      </trkpt>
      <trkpt lat="44.8120720" lon="7.0671160">
        <ele>1678.2</ele>
        <time>2017-07-26T10:01:36Z</time>
      </trkpt>
      <trkpt lat="44.8120740" lon="7.0671880">
        <ele>1679.0</ele>
        <time>2017-07-26T10:01:39Z</time>
      </trkpt>
      <trkpt lat="44.8120680" lon="7.0672090">
        <ele>1679.2</ele>
        <time>2017-07-26T10:01:40Z</time>
      </trkpt>
      <trkpt lat="44.8120210" lon="7.0672680">
        <ele>1680.6</ele>
        <time>2017-07-26T10:01:44Z</time>
      </trkpt>
      <trkpt lat="44.8119900" lon="7.0672840">
        <ele>1681.4</ele>
        <time>2017-07-26T10:01:46Z</time>
      </trkpt>
      <trkpt lat="44.8119810" lon="7.0673020">
        <ele>1681.6</ele>
        <time>2017-07-26T10:01:47Z</time>
      </trkpt>
      <trkpt lat="44.8119820" lon="7.0673590">
        <ele>1682.8</ele>
        <time>2017-07-26T10:01:50Z</time>
      </trkpt>
      <trkpt lat="44.8119940" lon="7.0673730">
        <ele>1683.0</ele>
        <time>2017-07-26T10:01:51Z</time>
      </trkpt>
      <trkpt lat="44.8120480" lon="7.0673900">
        <ele>1684.0</ele>
        <time>2017-07-26T10:01:54Z</time>
      </trkpt>
      <trkpt lat="44.8120780" lon="7.0673750">
        <ele>1684.4</ele>
        <time>2017-07-26T10:01:56Z</time>
      </trkpt>
      <trkpt lat="44.8120930" lon="7.0673640">
        <ele>1684.6</ele>
        <time>2017-07-26T10:01:57Z</time>
      </trkpt>
      <trkpt lat="44.8121070" lon="7.0673560">
        <ele>1685.4</ele>
        <time>2017-07-26T10:01:58Z</time>
      </trkpt>
      <trkpt lat="44.8121450" lon="7.0673230">
        <ele>1686.4</ele>
        <time>2017-07-26T10:02:01Z</time>
      </trkpt>
      <trkpt lat="44.8121570" lon="7.0673110">
        <ele>1686.8</ele>
        <time>2017-07-26T10:02:02Z</time>
      </trkpt>
      <trkpt lat="44.8121810" lon="7.0672850">
        <ele>1687.6</ele>
        <time>2017-07-26T10:02:04Z</time>
      </trkpt>
      <trkpt lat="44.8122180" lon="7.0672570">
        <ele>1688.6</ele>
        <time>2017-07-26T10:02:07Z</time>
      </trkpt>
      <trkpt lat="44.8122360" lon="7.0672230">
        <ele>1689.6</ele>
        <time>2017-07-26T10:02:09Z</time>
      </trkpt>
      <trkpt lat="44.8122490" lon="7.0672130">
        <ele>1690.0</ele>
        <time>2017-07-26T10:02:10Z</time>
      </trkpt>
      <trkpt lat="44.8122980" lon="7.0671460">
        <ele>1691.4</ele>
        <time>2017-07-26T10:02:14Z</time>
      </trkpt>
      <trkpt lat="44.8123070" lon="7.0670850">
        <ele>1692.4</ele>
        <time>2017-07-26T10:02:16Z</time>
      </trkpt>
      <trkpt lat="44.8123010" lon="7.0670250">
        <ele>1693.2</ele>
        <time>2017-07-26T10:02:18Z</time>
      </trkpt>
      <trkpt lat="44.8122970" lon="7.0669960">
        <ele>1693.6</ele>
        <time>2017-07-26T10:02:19Z</time>
      </trkpt>
      <trkpt lat="44.8122880" lon="7.0669360">
        <ele>1694.8</ele>
        <time>2017-07-26T10:02:21Z</time>
      </trkpt>
      <trkpt lat="44.8122870" lon="7.0668800">
        <ele>1696.0</ele>
        <time>2017-07-26T10:02:23Z</time>
      </trkpt>
      <trkpt lat="44.8123060" lon="7.0668060">
        <ele>1697.0</ele>
        <time>2017-07-26T10:02:26Z</time>
      </trkpt>
      <trkpt lat="44.8123140" lon="7.0667850">
        <ele>1697.4</ele>
        <time>2017-07-26T10:02:27Z</time>
      </trkpt>
      <trkpt lat="44.8123490" lon="7.0667200">
        <ele>1698.6</ele>
        <time>2017-07-26T10:02:30Z</time>
      </trkpt>
      <trkpt lat="44.8123710" lon="7.0666640">
        <ele>1699.4</ele>
        <time>2017-07-26T10:02:32Z</time>
      </trkpt>
      <trkpt lat="44.8123820" lon="7.0666400">
        <ele>1699.6</ele>
        <time>2017-07-26T10:02:33Z</time>
      </trkpt>
      <trkpt lat="44.8124350" lon="7.0665590">
        <ele>1700.8</ele>
        <time>2017-07-26T10:02:37Z</time>
      </trkpt>
      <trkpt lat="44.8124500" lon="7.0665410">
        <ele>1701.2</ele>
        <time>2017-07-26T10:02:38Z</time>
      </trkpt>
      <trkpt lat="44.8124780" lon="7.0665120">
        <ele>1702.0</ele>
        <time>2017-07-26T10:02:40Z</time>
      </trkpt>
      <trkpt lat="44.8125100" lon="7.0665250">
        <ele>1702.4</ele>
        <time>2017-07-26T10:02:42Z</time>
      </trkpt>
      <trkpt lat="44.8124960" lon="7.0666060">
        <ele>1702.2</ele>
        <time>2017-07-26T10:02:46Z</time>
      </trkpt>
      <trkpt lat="44.8124820" lon="7.0666300">
        <ele>1702.2</ele>
        <time>2017-07-26T10:02:47Z</time>
      </trkpt>
      <trkpt lat="44.8124390" lon="7.0667600">
        <ele>1701.8</ele>
        <time>2017-07-26T10:02:52Z</time>
      </trkpt>
      <trkpt lat="44.8124550" lon="7.0668750">
        <ele>1701.8</ele>
        <time>2017-07-26T10:02:57Z</time>
      </trkpt>
      <trkpt lat="44.8125370" lon="7.0670070">
        <ele>1702.4</ele>
        <time>2017-07-26T10:03:04Z</time>
      </trkpt>
      <trkpt lat="44.8126100" lon="7.0670880">
        <ele>1703.2</ele>
        <time>2017-07-26T10:03:10Z</time>
      </trkpt>
      <trkpt lat="44.8126250" lon="7.0670890">
        <ele>1703.4</ele>
        <time>2017-07-26T10:03:11Z</time>
      </trkpt>
      <trkpt lat="44.8126540" lon="7.0670810">
        <ele>1703.8</ele>
        <time>2017-07-26T10:03:13Z</time>
      </trkpt>
      <trkpt lat="44.8126640" lon="7.0670660">
        <ele>1704.2</ele>
        <time>2017-07-26T10:03:14Z</time>
      </trkpt>
      <trkpt lat="44.8126790" lon="7.0670290">
        <ele>1705.4</ele>
        <time>2017-07-26T10:03:16Z</time>
      </trkpt>
      <trkpt lat="44.8126800" lon="7.0669830">
        <ele>1705.8</ele>
        <time>2017-07-26T10:03:18Z</time>
      </trkpt>
      <trkpt lat="44.8126890" lon="7.0669410">
        <ele>1706.2</ele>
        <time>2017-07-26T10:03:20Z</time>
      </trkpt>
      <trkpt lat="44.8126990" lon="7.0669270">
        <ele>1706.4</ele>
        <time>2017-07-26T10:03:21Z</time>
      </trkpt>
      <trkpt lat="44.8127070" lon="7.0669120">
        <ele>1707.0</ele>
        <time>2017-07-26T10:03:22Z</time>
      </trkpt>
      <trkpt lat="44.8127130" lon="7.0668960">
        <ele>1707.6</ele>
        <time>2017-07-26T10:03:23Z</time>
      </trkpt>
      <trkpt lat="44.8127300" lon="7.0668690">
        <ele>1708.6</ele>
        <time>2017-07-26T10:03:25Z</time>
      </trkpt>
      <trkpt lat="44.8127500" lon="7.0668490">
        <ele>1709.6</ele>
        <time>2017-07-26T10:03:27Z</time>
      </trkpt>
      <trkpt lat="44.8127840" lon="7.0668120">
        <ele>1711.0</ele>
        <time>2017-07-26T10:03:30Z</time>
      </trkpt>
      <trkpt lat="44.8128360" lon="7.0667880">
        <ele>1712.2</ele>
        <time>2017-07-26T10:03:33Z</time>
      </trkpt>
      <trkpt lat="44.8128720" lon="7.0667830">
        <ele>1713.2</ele>
        <time>2017-07-26T10:03:35Z</time>
      </trkpt>
      <trkpt lat="44.8128870" lon="7.0667770">
        <ele>1713.6</ele>
        <time>2017-07-26T10:03:36Z</time>
      </trkpt>
      <trkpt lat="44.8129400" lon="7.0667630">
        <ele>1714.4</ele>
        <time>2017-07-26T10:03:39Z</time>
      </trkpt>
      <trkpt lat="44.8130170" lon="7.0667400">
        <ele>1715.4</ele>
        <time>2017-07-26T10:03:43Z</time>
      </trkpt>
      <trkpt lat="44.8130370" lon="7.0667340">
        <ele>1715.6</ele>
        <time>2017-07-26T10:03:44Z</time>
      </trkpt>
      <trkpt lat="44.8130840" lon="7.0666950">
        <ele>1716.6</ele>
        <time>2017-07-26T10:03:47Z</time>
      </trkpt>
      <trkpt lat="44.8131080" lon="7.0666600">
        <ele>1717.8</ele>
        <time>2017-07-26T10:03:49Z</time>
      </trkpt>
      <trkpt lat="44.8131460" lon="7.0665490">
        <ele>1719.2</ele>
        <time>2017-07-26T10:03:53Z</time>
      </trkpt>
      <trkpt lat="44.8131720" lon="7.0664770">
        <ele>1720.4</ele>
        <time>2017-07-26T10:03:56Z</time>
      </trkpt>
      <trkpt lat="44.8131830" lon="7.0664360">
        <ele>1721.4</ele>
        <time>2017-07-26T10:03:58Z</time>
      </trkpt>
      <trkpt lat="44.8131850" lon="7.0664110">
        <ele>1722.0</ele>
        <time>2017-07-26T10:03:59Z</time>
      </trkpt>
      <trkpt lat="44.8131920" lon="7.0662680">
        <ele>1723.0</ele>
        <time>2017-07-26T10:04:04Z</time>
      </trkpt>
      <trkpt lat="44.8131910" lon="7.0662140">
        <ele>1723.4</ele>
        <time>2017-07-26T10:04:06Z</time>
      </trkpt>
      <trkpt lat="44.8131810" lon="7.0661250">
        <ele>1724.2</ele>
        <time>2017-07-26T10:04:09Z</time>
      </trkpt>
      <trkpt lat="44.8131850" lon="7.0660040">
        <ele>1724.0</ele>
        <time>2017-07-26T10:04:13Z</time>
      </trkpt>
      <trkpt lat="44.8132400" lon="7.0658390">
        <ele>1725.0</ele>
        <time>2017-07-26T10:04:20Z</time>
      </trkpt>
      <trkpt lat="44.8132630" lon="7.0657960">
        <ele>1725.4</ele>
        <time>2017-07-26T10:04:22Z</time>
      </trkpt>
      <trkpt lat="44.8132960" lon="7.0657470">
        <ele>1726.4</ele>
        <time>2017-07-26T10:04:24Z</time>
      </trkpt>
      <trkpt lat="44.8133290" lon="7.0657160">
        <ele>1726.6</ele>
        <time>2017-07-26T10:04:26Z</time>
      </trkpt>
      <trkpt lat="44.8133450" lon="7.0657010">
        <ele>1726.8</ele>
        <time>2017-07-26T10:04:27Z</time>
      </trkpt>
      <trkpt lat="44.8133860" lon="7.0656740">
        <ele>1727.6</ele>
        <time>2017-07-26T10:04:29Z</time>
      </trkpt>
      <trkpt lat="44.8134670" lon="7.0656190">
        <ele>1728.6</ele>
        <time>2017-07-26T10:04:33Z</time>
      </trkpt>
      <trkpt lat="44.8134890" lon="7.0656090">
        <ele>1728.8</ele>
        <time>2017-07-26T10:04:34Z</time>
      </trkpt>
      <trkpt lat="44.8135840" lon="7.0655220">
        <ele>1729.4</ele>
        <time>2017-07-26T10:04:39Z</time>
      </trkpt>
      <trkpt lat="44.8136080" lon="7.0654580">
        <ele>1730.0</ele>
        <time>2017-07-26T10:04:41Z</time>
      </trkpt>
      <trkpt lat="44.8136080" lon="7.0653910">
        <ele>1730.2</ele>
        <time>2017-07-26T10:04:43Z</time>
      </trkpt>
      <trkpt lat="44.8135520" lon="7.0652000">
        <ele>1730.0</ele>
        <time>2017-07-26T10:04:50Z</time>
      </trkpt>
      <trkpt lat="44.8135180" lon="7.0650870">
        <ele>1730.4</ele>
        <time>2017-07-26T10:04:54Z</time>
      </trkpt>
      <trkpt lat="44.8135290" lon="7.0650600">
        <ele>1730.4</ele>
        <time>2017-07-26T10:04:55Z</time>
      </trkpt>
      <trkpt lat="44.8135720" lon="7.0650380">
        <ele>1731.0</ele>
        <time>2017-07-26T10:04:57Z</time>
      </trkpt>
      <trkpt lat="44.8136090" lon="7.0650760">
        <ele>1731.4</ele>
        <time>2017-07-26T10:04:59Z</time>
      </trkpt>
      <trkpt lat="44.8136460" lon="7.0651800">
        <ele>1732.0</ele>
        <time>2017-07-26T10:05:03Z</time>
      </trkpt>
      <trkpt lat="44.8136550" lon="7.0652070">
        <ele>1732.2</ele>
        <time>2017-07-26T10:05:04Z</time>
      </trkpt>
      <trkpt lat="44.8136860" lon="7.0653050">
        <ele>1732.2</ele>
        <time>2017-07-26T10:05:07Z</time>
      </trkpt>
      <trkpt lat="44.8137060" lon="7.0653670">
        <ele>1732.0</ele>
        <time>2017-07-26T10:05:09Z</time>
      </trkpt>
      <trkpt lat="44.8137780" lon="7.0655910">
        <ele>1732.4</ele>
        <time>2017-07-26T10:05:17Z</time>
      </trkpt>
      <trkpt lat="44.8137900" lon="7.0657830">
        <ele>1732.6</ele>
        <time>2017-07-26T10:05:23Z</time>
      </trkpt>
      <trkpt lat="44.8137240" lon="7.0659120">
        <ele>1732.8</ele>
        <time>2017-07-26T10:05:28Z</time>
      </trkpt>
      <trkpt lat="44.8136900" lon="7.0659790">
        <ele>1733.0</ele>
        <time>2017-07-26T10:05:31Z</time>
      </trkpt>
      <trkpt lat="44.8136480" lon="7.0660760">
        <ele>1734.0</ele>
        <time>2017-07-26T10:05:35Z</time>
      </trkpt>
      <trkpt lat="44.8136420" lon="7.0661000">
        <ele>1734.2</ele>
        <time>2017-07-26T10:05:36Z</time>
      </trkpt>
      <trkpt lat="44.8136280" lon="7.0661780">
        <ele>1735.2</ele>
        <time>2017-07-26T10:05:39Z</time>
      </trkpt>
      <trkpt lat="44.8136220" lon="7.0662260">
        <ele>1735.8</ele>
        <time>2017-07-26T10:05:41Z</time>
      </trkpt>
      <trkpt lat="44.8136240" lon="7.0662780">
        <ele>1736.2</ele>
        <time>2017-07-26T10:05:43Z</time>
      </trkpt>
      <trkpt lat="44.8136210" lon="7.0664010">
        <ele>1737.4</ele>
        <time>2017-07-26T10:05:48Z</time>
      </trkpt>
      <trkpt lat="44.8136800" lon="7.0664100">
        <ele>1738.6</ele>
        <time>2017-07-26T10:05:52Z</time>
      </trkpt>
      <trkpt lat="44.8137070" lon="7.0663700">
        <ele>1739.4</ele>
        <time>2017-07-26T10:05:54Z</time>
      </trkpt>
      <trkpt lat="44.8137160" lon="7.0663500">
        <ele>1740.0</ele>
        <time>2017-07-26T10:05:55Z</time>
      </trkpt>
      <trkpt lat="44.8137410" lon="7.0663140">
        <ele>1741.2</ele>
        <time>2017-07-26T10:05:57Z</time>
      </trkpt>
      <trkpt lat="44.8137670" lon="7.0662840">
        <ele>1743.0</ele>
        <time>2017-07-26T10:05:59Z</time>
      </trkpt>
      <trkpt lat="44.8137780" lon="7.0662640">
        <ele>1743.6</ele>
        <time>2017-07-26T10:06:00Z</time>
      </trkpt>
      <trkpt lat="44.8137940" lon="7.0662550">
        <ele>1744.2</ele>
        <time>2017-07-26T10:06:01Z</time>
      </trkpt>
      <trkpt lat="44.8138070" lon="7.0662420">
        <ele>1744.6</ele>
        <time>2017-07-26T10:06:02Z</time>
      </trkpt>
      <trkpt lat="44.8138280" lon="7.0662350">
        <ele>1745.2</ele>
        <time>2017-07-26T10:06:03Z</time>
      </trkpt>
      <trkpt lat="44.8138610" lon="7.0662190">
        <ele>1745.8</ele>
        <time>2017-07-26T10:06:05Z</time>
      </trkpt>
      <trkpt lat="44.8138870" lon="7.0662020">
        <ele>1746.6</ele>
        <time>2017-07-26T10:06:07Z</time>
      </trkpt>
      <trkpt lat="44.8139260" lon="7.0661740">
        <ele>1748.0</ele>
        <time>2017-07-26T10:06:10Z</time>
      </trkpt>
      <trkpt lat="44.8139650" lon="7.0661410">
        <ele>1749.4</ele>
        <time>2017-07-26T10:06:13Z</time>
      </trkpt>
      <trkpt lat="44.8139780" lon="7.0661430">
        <ele>1749.8</ele>
        <time>2017-07-26T10:06:14Z</time>
      </trkpt>
      <trkpt lat="44.8140230" lon="7.0661530">
        <ele>1750.4</ele>
        <time>2017-07-26T10:06:17Z</time>
      </trkpt>
      <trkpt lat="44.8140340" lon="7.0661730">
        <ele>1750.6</ele>
        <time>2017-07-26T10:06:18Z</time>
      </trkpt>
      <trkpt lat="44.8140210" lon="7.0662760">
        <ele>1750.6</ele>
        <time>2017-07-26T10:06:23Z</time>
      </trkpt>
      <trkpt lat="44.8139770" lon="7.0663710">
        <ele>1750.6</ele>
        <time>2017-07-26T10:06:28Z</time>
      </trkpt>
      <trkpt lat="44.8139530" lon="7.0664350">
        <ele>1750.6</ele>
        <time>2017-07-26T10:06:31Z</time>
      </trkpt>
      <trkpt lat="44.8138970" lon="7.0665570">
        <ele>1750.6</ele>
        <time>2017-07-26T10:06:36Z</time>
      </trkpt>
      <trkpt lat="44.8138460" lon="7.0667550">
        <ele>1751.0</ele>
        <time>2017-07-26T10:06:43Z</time>
      </trkpt>
      <trkpt lat="44.8138140" lon="7.0668510">
        <ele>1751.6</ele>
        <time>2017-07-26T10:06:46Z</time>
      </trkpt>
      <trkpt lat="44.8138010" lon="7.0669400">
        <ele>1752.0</ele>
        <time>2017-07-26T10:06:49Z</time>
      </trkpt>
      <trkpt lat="44.8137990" lon="7.0670650">
        <ele>1752.8</ele>
        <time>2017-07-26T10:06:54Z</time>
      </trkpt>
      <trkpt lat="44.8137950" lon="7.0671170">
        <ele>1752.8</ele>
        <time>2017-07-26T10:06:57Z</time>
      </trkpt>
      <trkpt lat="44.8137540" lon="7.0672800">
        <ele>1753.8</ele>
        <time>2017-07-26T10:07:04Z</time>
      </trkpt>
      <trkpt lat="44.8137220" lon="7.0673810">
        <ele>1754.8</ele>
        <time>2017-07-26T10:07:10Z</time>
      </trkpt>
      <trkpt lat="44.8137200" lon="7.0674020">
        <ele>1754.8</ele>
        <time>2017-07-26T10:07:11Z</time>
      </trkpt>
      <trkpt lat="44.8137330" lon="7.0674380">
        <ele>1755.8</ele>
        <time>2017-07-26T10:07:13Z</time>
      </trkpt>
      <trkpt lat="44.8137480" lon="7.0674450">
        <ele>1756.0</ele>
        <time>2017-07-26T10:07:14Z</time>
      </trkpt>
      <trkpt lat="44.8137620" lon="7.0674440">
        <ele>1756.4</ele>
        <time>2017-07-26T10:07:15Z</time>
      </trkpt>
      <trkpt lat="44.8137950" lon="7.0674260">
        <ele>1757.2</ele>
        <time>2017-07-26T10:07:17Z</time>
      </trkpt>
      <trkpt lat="44.8138180" lon="7.0673860">
        <ele>1758.2</ele>
        <time>2017-07-26T10:07:19Z</time>
      </trkpt>
      <trkpt lat="44.8138290" lon="7.0673700">
        <ele>1758.8</ele>
        <time>2017-07-26T10:07:20Z</time>
      </trkpt>
      <trkpt lat="44.8138540" lon="7.0673300">
        <ele>1760.0</ele>
        <time>2017-07-26T10:07:22Z</time>
      </trkpt>
      <trkpt lat="44.8138890" lon="7.0672880">
        <ele>1761.4</ele>
        <time>2017-07-26T10:07:24Z</time>
      </trkpt>
      <trkpt lat="44.8139040" lon="7.0672710">
        <ele>1762.2</ele>
        <time>2017-07-26T10:07:25Z</time>
      </trkpt>
      <trkpt lat="44.8139150" lon="7.0672500">
        <ele>1762.8</ele>
        <time>2017-07-26T10:07:26Z</time>
      </trkpt>
      <trkpt lat="44.8139410" lon="7.0672070">
        <ele>1764.0</ele>
        <time>2017-07-26T10:07:28Z</time>
      </trkpt>
      <trkpt lat="44.8139670" lon="7.0671690">
        <ele>1765.2</ele>
        <time>2017-07-26T10:07:30Z</time>
      </trkpt>
      <trkpt lat="44.8139760" lon="7.0671510">
        <ele>1766.0</ele>
        <time>2017-07-26T10:07:31Z</time>
      </trkpt>
      <trkpt lat="44.8139850" lon="7.0671330">
        <ele>1766.6</ele>
        <time>2017-07-26T10:07:32Z</time>
      </trkpt>
      <trkpt lat="44.8140050" lon="7.0671010">
        <ele>1767.4</ele>
        <time>2017-07-26T10:07:34Z</time>
      </trkpt>
      <trkpt lat="44.8140160" lon="7.0670790">
        <ele>1767.8</ele>
        <time>2017-07-26T10:07:35Z</time>
      </trkpt>
      <trkpt lat="44.8140280" lon="7.0670580">
        <ele>1768.8</ele>
        <time>2017-07-26T10:07:36Z</time>
      </trkpt>
      <trkpt lat="44.8140390" lon="7.0670350">
        <ele>1769.2</ele>
        <time>2017-07-26T10:07:37Z</time>
      </trkpt>
      <trkpt lat="44.8140570" lon="7.0669920">
        <ele>1770.4</ele>
        <time>2017-07-26T10:07:39Z</time>
      </trkpt>
      <trkpt lat="44.8140990" lon="7.0669420">
        <ele>1771.6</ele>
        <time>2017-07-26T10:07:42Z</time>
      </trkpt>
      <trkpt lat="44.8141110" lon="7.0669340">
        <ele>1771.8</ele>
        <time>2017-07-26T10:07:43Z</time>
      </trkpt>
      <trkpt lat="44.8141510" lon="7.0668880">
        <ele>1772.6</ele>
        <time>2017-07-26T10:07:46Z</time>
      </trkpt>
      <trkpt lat="44.8141910" lon="7.0668340">
        <ele>1773.6</ele>
        <time>2017-07-26T10:07:49Z</time>
      </trkpt>
      <trkpt lat="44.8142030" lon="7.0668140">
        <ele>1773.8</ele>
        <time>2017-07-26T10:07:50Z</time>
      </trkpt>
      <trkpt lat="44.8142440" lon="7.0667400">
        <ele>1774.8</ele>
        <time>2017-07-26T10:07:53Z</time>
      </trkpt>
      <trkpt lat="44.8142670" lon="7.0667090">
        <ele>1775.2</ele>
        <time>2017-07-26T10:07:55Z</time>
      </trkpt>
      <trkpt lat="44.8142840" lon="7.0667070">
        <ele>1775.6</ele>
        <time>2017-07-26T10:07:56Z</time>
      </trkpt>
      <trkpt lat="44.8143180" lon="7.0667130">
        <ele>1775.8</ele>
        <time>2017-07-26T10:07:58Z</time>
      </trkpt>
      <trkpt lat="44.8143320" lon="7.0667260">
        <ele>1775.8</ele>
        <time>2017-07-26T10:07:59Z</time>
      </trkpt>
      <trkpt lat="44.8143160" lon="7.0668110">
        <ele>1775.2</ele>
        <time>2017-07-26T10:08:03Z</time>
      </trkpt>
      <trkpt lat="44.8142840" lon="7.0668850">
        <ele>1775.0</ele>
        <time>2017-07-26T10:08:06Z</time>
      </trkpt>
      <trkpt lat="44.8142690" lon="7.0669120">
        <ele>1774.8</ele>
        <time>2017-07-26T10:08:07Z</time>
      </trkpt>
      <trkpt lat="44.8142490" lon="7.0669700">
        <ele>1774.8</ele>
        <time>2017-07-26T10:08:09Z</time>
      </trkpt>
      <trkpt lat="44.8141940" lon="7.0670860">
        <ele>1775.0</ele>
        <time>2017-07-26T10:08:14Z</time>
      </trkpt>
      <trkpt lat="44.8141860" lon="7.0671130">
        <ele>1775.2</ele>
        <time>2017-07-26T10:08:15Z</time>
      </trkpt>
      <trkpt lat="44.8141480" lon="7.0672530">
        <ele>1775.2</ele>
        <time>2017-07-26T10:08:21Z</time>
      </trkpt>
      <trkpt lat="44.8141150" lon="7.0673830">
        <ele>1775.4</ele>
        <time>2017-07-26T10:08:26Z</time>
      </trkpt>
      <trkpt lat="44.8140520" lon="7.0675700">
        <ele>1775.6</ele>
        <time>2017-07-26T10:08:33Z</time>
      </trkpt>
      <trkpt lat="44.8140030" lon="7.0676520">
        <ele>1776.0</ele>
        <time>2017-07-26T10:08:37Z</time>
      </trkpt>
      <trkpt lat="44.8139830" lon="7.0677340">
        <ele>1776.8</ele>
        <time>2017-07-26T10:08:41Z</time>
      </trkpt>
      <trkpt lat="44.8139900" lon="7.0677560">
        <ele>1777.0</ele>
        <time>2017-07-26T10:08:42Z</time>
      </trkpt>
      <trkpt lat="44.8140020" lon="7.0677730">
        <ele>1777.2</ele>
        <time>2017-07-26T10:08:43Z</time>
      </trkpt>
      <trkpt lat="44.8140320" lon="7.0677760">
        <ele>1777.6</ele>
        <time>2017-07-26T10:08:45Z</time>
      </trkpt>
      <trkpt lat="44.8140570" lon="7.0677630">
        <ele>1778.2</ele>
        <time>2017-07-26T10:08:47Z</time>
      </trkpt>
      <trkpt lat="44.8140910" lon="7.0677100">
        <ele>1779.8</ele>
        <time>2017-07-26T10:08:50Z</time>
      </trkpt>
      <trkpt lat="44.8141120" lon="7.0676780">
        <ele>1780.8</ele>
        <time>2017-07-26T10:08:52Z</time>
      </trkpt>
      <trkpt lat="44.8141400" lon="7.0676330">
        <ele>1782.2</ele>
        <time>2017-07-26T10:08:55Z</time>
      </trkpt>
      <trkpt lat="44.8141500" lon="7.0676230">
        <ele>1782.8</ele>
        <time>2017-07-26T10:08:56Z</time>
      </trkpt>
      <trkpt lat="44.8141600" lon="7.0676090">
        <ele>1783.4</ele>
        <time>2017-07-26T10:08:57Z</time>
      </trkpt>
      <trkpt lat="44.8141800" lon="7.0675810">
        <ele>1784.2</ele>
        <time>2017-07-26T10:08:59Z</time>
      </trkpt>
      <trkpt lat="44.8141910" lon="7.0675660">
        <ele>1784.8</ele>
        <time>2017-07-26T10:09:00Z</time>
      </trkpt>
      <trkpt lat="44.8142250" lon="7.0675270">
        <ele>1786.2</ele>
        <time>2017-07-26T10:09:03Z</time>
      </trkpt>
      <trkpt lat="44.8142370" lon="7.0675080">
        <ele>1786.6</ele>
        <time>2017-07-26T10:09:04Z</time>
      </trkpt>
      <trkpt lat="44.8142590" lon="7.0674760">
        <ele>1787.6</ele>
        <time>2017-07-26T10:09:06Z</time>
      </trkpt>
      <trkpt lat="44.8142930" lon="7.0674500">
        <ele>1788.8</ele>
        <time>2017-07-26T10:09:08Z</time>
      </trkpt>
      <trkpt lat="44.8143140" lon="7.0674200">
        <ele>1789.6</ele>
        <time>2017-07-26T10:09:10Z</time>
      </trkpt>
      <trkpt lat="44.8143230" lon="7.0674020">
        <ele>1790.0</ele>
        <time>2017-07-26T10:09:11Z</time>
      </trkpt>
      <trkpt lat="44.8143440" lon="7.0673590">
        <ele>1791.4</ele>
        <time>2017-07-26T10:09:13Z</time>
      </trkpt>
      <trkpt lat="44.8143750" lon="7.0672730">
        <ele>1792.6</ele>
        <time>2017-07-26T10:09:17Z</time>
      </trkpt>
      <trkpt lat="44.8143850" lon="7.0672510">
        <ele>1792.8</ele>
        <time>2017-07-26T10:09:18Z</time>
      </trkpt>
      <trkpt lat="44.8144210" lon="7.0671230">
        <ele>1793.8</ele>
        <time>2017-07-26T10:09:23Z</time>
      </trkpt>
      <trkpt lat="44.8145070" lon="7.0670190">
        <ele>1795.0</ele>
        <time>2017-07-26T10:09:28Z</time>
      </trkpt>
      <trkpt lat="44.8145720" lon="7.0669830">
        <ele>1796.0</ele>
        <time>2017-07-26T10:09:32Z</time>
      </trkpt>
      <trkpt lat="44.8146130" lon="7.0670000">
        <ele>1796.4</ele>
        <time>2017-07-26T10:09:35Z</time>
      </trkpt>
      <trkpt lat="44.8146010" lon="7.0670810">
        <ele>1796.2</ele>
        <time>2017-07-26T10:09:39Z</time>
      </trkpt>
      <trkpt lat="44.8145470" lon="7.0671530">
        <ele>1796.0</ele>
        <time>2017-07-26T10:09:44Z</time>
      </trkpt>
      <trkpt lat="44.8145140" lon="7.0672210">
        <ele>1796.2</ele>
        <time>2017-07-26T10:09:48Z</time>
      </trkpt>
      <trkpt lat="44.8144940" lon="7.0672930">
        <ele>1796.4</ele>
        <time>2017-07-26T10:09:51Z</time>
      </trkpt>
      <trkpt lat="44.8144580" lon="7.0674330">
        <ele>1796.8</ele>
        <time>2017-07-26T10:09:58Z</time>
      </trkpt>
      <trkpt lat="44.8144500" lon="7.0674700">
        <ele>1797.0</ele>
        <time>2017-07-26T10:10:00Z</time>
      </trkpt>
      <trkpt lat="44.8144560" lon="7.0675110">
        <ele>1797.4</ele>
        <time>2017-07-26T10:10:02Z</time>
      </trkpt>
      <trkpt lat="44.8144790" lon="7.0675390">
        <ele>1797.8</ele>
        <time>2017-07-26T10:10:04Z</time>
      </trkpt>
      <trkpt lat="44.8145200" lon="7.0675360">
        <ele>1798.2</ele>
        <time>2017-07-26T10:10:07Z</time>
      </trkpt>
      <trkpt lat="44.8145320" lon="7.0675210">
        <ele>1798.4</ele>
        <time>2017-07-26T10:10:08Z</time>
      </trkpt>
      <trkpt lat="44.8145440" lon="7.0674740">
        <ele>1799.2</ele>
        <time>2017-07-26T10:10:10Z</time>
      </trkpt>
      <trkpt lat="44.8145590" lon="7.0674000">
        <ele>1800.0</ele>
        <time>2017-07-26T10:10:13Z</time>
      </trkpt>
      <trkpt lat="44.8145710" lon="7.0673740">
        <ele>1800.4</ele>
        <time>2017-07-26T10:10:14Z</time>
      </trkpt>
      <trkpt lat="44.8145890" lon="7.0673090">
        <ele>1801.6</ele>
        <time>2017-07-26T10:10:17Z</time>
      </trkpt>
      <trkpt lat="44.8146010" lon="7.0672960">
        <ele>1802.0</ele>
        <time>2017-07-26T10:10:18Z</time>
      </trkpt>
      <trkpt lat="44.8146270" lon="7.0672840">
        <ele>1803.0</ele>
        <time>2017-07-26T10:10:20Z</time>
      </trkpt>
      <trkpt lat="44.8146620" lon="7.0672990">
        <ele>1804.0</ele>
        <time>2017-07-26T10:10:23Z</time>
      </trkpt>
      <trkpt lat="44.8146590" lon="7.0673800">
        <ele>1804.6</ele>
        <time>2017-07-26T10:10:27Z</time>
      </trkpt>
      <trkpt lat="44.8146510" lon="7.0673970">
        <ele>1804.8</ele>
        <time>2017-07-26T10:10:28Z</time>
      </trkpt>
      <trkpt lat="44.8146330" lon="7.0674500">
        <ele>1805.2</ele>
        <time>2017-07-26T10:10:31Z</time>
      </trkpt>
      <trkpt lat="44.8146210" lon="7.0675280">
        <ele>1805.8</ele>
        <time>2017-07-26T10:10:35Z</time>
      </trkpt>
      <trkpt lat="44.8145860" lon="7.0676780">
        <ele>1806.2</ele>
        <time>2017-07-26T10:10:42Z</time>
      </trkpt>
      <trkpt lat="44.8145670" lon="7.0677070">
        <ele>1806.4</ele>
        <time>2017-07-26T10:10:44Z</time>
      </trkpt>
      <trkpt lat="44.8145440" lon="7.0677470">
        <ele>1806.8</ele>
        <time>2017-07-26T10:10:47Z</time>
      </trkpt>
      <trkpt lat="44.8145340" lon="7.0677630">
        <ele>1807.2</ele>
        <time>2017-07-26T10:10:48Z</time>
      </trkpt>
      <trkpt lat="44.8145200" lon="7.0678020">
        <ele>1807.4</ele>
        <time>2017-07-26T10:10:50Z</time>
      </trkpt>
      <trkpt lat="44.8145350" lon="7.0678420">
        <ele>1808.0</ele>
        <time>2017-07-26T10:10:53Z</time>
      </trkpt>
      <trkpt lat="44.8145780" lon="7.0678330">
        <ele>1808.6</ele>
        <time>2017-07-26T10:10:56Z</time>
      </trkpt>
      <trkpt lat="44.8145900" lon="7.0678170">
        <ele>1808.8</ele>
        <time>2017-07-26T10:10:57Z</time>
      </trkpt>
      <trkpt lat="44.8146020" lon="7.0678010">
        <ele>1809.2</ele>
        <time>2017-07-26T10:10:58Z</time>
      </trkpt>
      <trkpt lat="44.8146110" lon="7.0677810">
        <ele>1809.8</ele>
        <time>2017-07-26T10:10:59Z</time>
      </trkpt>
      <trkpt lat="44.8146280" lon="7.0677420">
        <ele>1810.8</ele>
        <time>2017-07-26T10:11:01Z</time>
      </trkpt>
      <trkpt lat="44.8146490" lon="7.0677060">
        <ele>1811.8</ele>
        <time>2017-07-26T10:11:03Z</time>
      </trkpt>
      <trkpt lat="44.8146650" lon="7.0676670">
        <ele>1813.0</ele>
        <time>2017-07-26T10:11:05Z</time>
      </trkpt>
      <trkpt lat="44.8146940" lon="7.0676200">
        <ele>1814.0</ele>
        <time>2017-07-26T10:11:07Z</time>
      </trkpt>
      <trkpt lat="44.8147180" lon="7.0675770">
        <ele>1815.2</ele>
        <time>2017-07-26T10:11:09Z</time>
      </trkpt>
      <trkpt lat="44.8147500" lon="7.0675270">
        <ele>1816.2</ele>
        <time>2017-07-26T10:11:11Z</time>
      </trkpt>
      <trkpt lat="44.8147740" lon="7.0674870">
        <ele>1817.6</ele>
        <time>2017-07-26T10:11:13Z</time>
      </trkpt>
      <trkpt lat="44.8147950" lon="7.0674410">
        <ele>1818.8</ele>
        <time>2017-07-26T10:11:15Z</time>
      </trkpt>
      <trkpt lat="44.8148300" lon="7.0673800">
        <ele>1820.2</ele>
        <time>2017-07-26T10:11:18Z</time>
      </trkpt>
      <trkpt lat="44.8148840" lon="7.0673290">
        <ele>1821.6</ele>
        <time>2017-07-26T10:11:22Z</time>
      </trkpt>
      <trkpt lat="44.8149030" lon="7.0672990">
        <ele>1822.8</ele>
        <time>2017-07-26T10:11:24Z</time>
      </trkpt>
      <trkpt lat="44.8149110" lon="7.0672830">
        <ele>1823.2</ele>
        <time>2017-07-26T10:11:25Z</time>
      </trkpt>
      <trkpt lat="44.8149350" lon="7.0672580">
        <ele>1824.0</ele>
        <time>2017-07-26T10:11:27Z</time>
      </trkpt>
      <trkpt lat="44.8149730" lon="7.0672660">
        <ele>1824.8</ele>
        <time>2017-07-26T10:11:30Z</time>
      </trkpt>
      <trkpt lat="44.8149790" lon="7.0673060">
        <ele>1825.0</ele>
        <time>2017-07-26T10:11:32Z</time>
      </trkpt>
      <trkpt lat="44.8149710" lon="7.0673540">
        <ele>1825.0</ele>
        <time>2017-07-26T10:11:34Z</time>
      </trkpt>
      <trkpt lat="44.8149620" lon="7.0673800">
        <ele>1825.0</ele>
        <time>2017-07-26T10:11:35Z</time>
      </trkpt>
      <trkpt lat="44.8149120" lon="7.0675540">
        <ele>1824.0</ele>
        <time>2017-07-26T10:11:42Z</time>
      </trkpt>
      <trkpt lat="44.8149040" lon="7.0675740">
        <ele>1824.0</ele>
        <time>2017-07-26T10:11:43Z</time>
      </trkpt>
      <trkpt lat="44.8148720" lon="7.0677000">
        <ele>1824.2</ele>
        <time>2017-07-26T10:11:49Z</time>
      </trkpt>
      <trkpt lat="44.8148310" lon="7.0677900">
        <ele>1825.0</ele>
        <time>2017-07-26T10:11:54Z</time>
      </trkpt>
      <trkpt lat="44.8148200" lon="7.0678060">
        <ele>1825.2</ele>
        <time>2017-07-26T10:11:55Z</time>
      </trkpt>
      <trkpt lat="44.8147890" lon="7.0678530">
        <ele>1826.0</ele>
        <time>2017-07-26T10:11:58Z</time>
      </trkpt>
      <trkpt lat="44.8147830" lon="7.0678900">
        <ele>1827.2</ele>
        <time>2017-07-26T10:12:00Z</time>
      </trkpt>
      <trkpt lat="44.8147900" lon="7.0679130">
        <ele>1827.4</ele>
        <time>2017-07-26T10:12:01Z</time>
      </trkpt>
      <trkpt lat="44.8148350" lon="7.0679440">
        <ele>1828.2</ele>
        <time>2017-07-26T10:12:04Z</time>
      </trkpt>
      <trkpt lat="44.8148480" lon="7.0679330">
        <ele>1828.6</ele>
        <time>2017-07-26T10:12:05Z</time>
      </trkpt>
      <trkpt lat="44.8148700" lon="7.0679020">
        <ele>1829.6</ele>
        <time>2017-07-26T10:12:07Z</time>
      </trkpt>
      <trkpt lat="44.8149000" lon="7.0678500">
        <ele>1830.8</ele>
        <time>2017-07-26T10:12:10Z</time>
      </trkpt>
      <trkpt lat="44.8149040" lon="7.0678300">
        <ele>1831.2</ele>
        <time>2017-07-26T10:12:11Z</time>
      </trkpt>
      <trkpt lat="44.8149130" lon="7.0678180">
        <ele>1831.4</ele>
        <time>2017-07-26T10:12:12Z</time>
      </trkpt>
      <trkpt lat="44.8149240" lon="7.0678040">
        <ele>1832.0</ele>
        <time>2017-07-26T10:12:13Z</time>
      </trkpt>
      <trkpt lat="44.8149410" lon="7.0677790">
        <ele>1833.4</ele>
        <time>2017-07-26T10:12:15Z</time>
      </trkpt>
      <trkpt lat="44.8149560" lon="7.0677520">
        <ele>1834.4</ele>
        <time>2017-07-26T10:12:17Z</time>
      </trkpt>
      <trkpt lat="44.8149600" lon="7.0677340">
        <ele>1834.8</ele>
        <time>2017-07-26T10:12:18Z</time>
      </trkpt>
      <trkpt lat="44.8149690" lon="7.0677230">
        <ele>1835.2</ele>
        <time>2017-07-26T10:12:19Z</time>
      </trkpt>
      <trkpt lat="44.8149840" lon="7.0677230">
        <ele>1835.6</ele>
        <time>2017-07-26T10:12:20Z</time>
      </trkpt>
      <trkpt lat="44.8150040" lon="7.0677500">
        <ele>1836.2</ele>
        <time>2017-07-26T10:12:22Z</time>
      </trkpt>
      <trkpt lat="44.8150160" lon="7.0678070">
        <ele>1836.8</ele>
        <time>2017-07-26T10:12:25Z</time>
      </trkpt>
      <trkpt lat="44.8150090" lon="7.0678700">
        <ele>1836.8</ele>
        <time>2017-07-26T10:12:29Z</time>
      </trkpt>
      <trkpt lat="44.8149850" lon="7.0679080">
        <ele>1837.0</ele>
        <time>2017-07-26T10:12:32Z</time>
      </trkpt>
      <trkpt lat="44.8149570" lon="7.0679750">
        <ele>1837.0</ele>
        <time>2017-07-26T10:12:36Z</time>
      </trkpt>
      <trkpt lat="44.8149830" lon="7.0680790">
        <ele>1837.8</ele>
        <time>2017-07-26T10:12:42Z</time>
      </trkpt>
      <trkpt lat="44.8150390" lon="7.0681000">
        <ele>1839.0</ele>
        <time>2017-07-26T10:12:47Z</time>
      </trkpt>
      <trkpt lat="44.8150750" lon="7.0680980">
        <ele>1840.2</ele>
        <time>2017-07-26T10:12:50Z</time>
      </trkpt>
      <trkpt lat="44.8151290" lon="7.0681060">
        <ele>1841.2</ele>
        <time>2017-07-26T10:12:54Z</time>
      </trkpt>
      <trkpt lat="44.8151760" lon="7.0681030">
        <ele>1842.4</ele>
        <time>2017-07-26T10:12:58Z</time>
      </trkpt>
      <trkpt lat="44.8151960" lon="7.0681050">
        <ele>1843.2</ele>
        <time>2017-07-26T10:13:00Z</time>
      </trkpt>
      <trkpt lat="44.8152050" lon="7.0681060">
        <ele>1843.6</ele>
        <time>2017-07-26T10:13:01Z</time>
      </trkpt>
      <trkpt lat="44.8152450" lon="7.0681260">
        <ele>1844.8</ele>
        <time>2017-07-26T10:13:05Z</time>
      </trkpt>
      <trkpt lat="44.8152680" lon="7.0681280">
        <ele>1845.4</ele>
        <time>2017-07-26T10:13:07Z</time>
      </trkpt>
      <trkpt lat="44.8152800" lon="7.0681300">
        <ele>1845.8</ele>
        <time>2017-07-26T10:13:08Z</time>
      </trkpt>
      <trkpt lat="44.8152920" lon="7.0681320">
        <ele>1846.0</ele>
        <time>2017-07-26T10:13:09Z</time>
      </trkpt>
      <trkpt lat="44.8153230" lon="7.0681360">
        <ele>1847.2</ele>
        <time>2017-07-26T10:13:12Z</time>
      </trkpt>
      <trkpt lat="44.8153680" lon="7.0681400">
        <ele>1848.4</ele>
        <time>2017-07-26T10:13:16Z</time>
      </trkpt>
      <trkpt lat="44.8154540" lon="7.0681650">
        <ele>1849.4</ele>
        <time>2017-07-26T10:13:22Z</time>
      </trkpt>
      <trkpt lat="44.8154660" lon="7.0681690">
        <ele>1849.6</ele>
        <time>2017-07-26T10:13:23Z</time>
      </trkpt>
      <trkpt lat="44.8155170" lon="7.0682120">
        <ele>1850.6</ele>
        <time>2017-07-26T10:13:28Z</time>
      </trkpt>
      <trkpt lat="44.8155300" lon="7.0682160">
        <ele>1850.6</ele>
        <time>2017-07-26T10:13:29Z</time>
      </trkpt>
      <trkpt lat="44.8155960" lon="7.0682550">
        <ele>1851.0</ele>
        <time>2017-07-26T10:13:35Z</time>
      </trkpt>
      <trkpt lat="44.8156030" lon="7.0682630">
        <ele>1851.4</ele>
        <time>2017-07-26T10:13:36Z</time>
      </trkpt>
      <trkpt lat="44.8156230" lon="7.0682780">
        <ele>1851.8</ele>
        <time>2017-07-26T10:13:38Z</time>
      </trkpt>
      <trkpt lat="44.8156790" lon="7.0682920">
        <ele>1853.0</ele>
        <time>2017-07-26T10:13:43Z</time>
      </trkpt>
      <trkpt lat="44.8157190" lon="7.0682580">
        <ele>1854.6</ele>
        <time>2017-07-26T10:13:47Z</time>
      </trkpt>
      <trkpt lat="44.8157260" lon="7.0682440">
        <ele>1855.0</ele>
        <time>2017-07-26T10:13:48Z</time>
      </trkpt>
      <trkpt lat="44.8157320" lon="7.0682150">
        <ele>1856.0</ele>
        <time>2017-07-26T10:13:50Z</time>
      </trkpt>
      <trkpt lat="44.8156920" lon="7.0681790">
        <ele>1856.8</ele>
        <time>2017-07-26T10:13:53Z</time>
      </trkpt>
      <trkpt lat="44.8156660" lon="7.0681560">
        <ele>1857.2</ele>
        <time>2017-07-26T10:13:55Z</time>
      </trkpt>
      <trkpt lat="44.8155970" lon="7.0680860">
        <ele>1858.2</ele>
        <time>2017-07-26T10:14:00Z</time>
      </trkpt>
      <trkpt lat="44.8155580" lon="7.0680410">
        <ele>1858.2</ele>
        <time>2017-07-26T10:14:02Z</time>
      </trkpt>
      <trkpt lat="44.8155210" lon="7.0679800">
        <ele>1858.6</ele>
        <time>2017-07-26T10:14:06Z</time>
      </trkpt>
      <trkpt lat="44.8154900" lon="7.0679420">
        <ele>1859.2</ele>
        <time>2017-07-26T10:14:09Z</time>
      </trkpt>
      <trkpt lat="44.8154350" lon="7.0678670">
        <ele>1860.0</ele>
        <time>2017-07-26T10:14:14Z</time>
      </trkpt>
      <trkpt lat="44.8154210" lon="7.0678360">
        <ele>1860.2</ele>
        <time>2017-07-26T10:14:16Z</time>
      </trkpt>
      <trkpt lat="44.8153740" lon="7.0677720">
        <ele>1861.2</ele>
        <time>2017-07-26T10:14:21Z</time>
      </trkpt>
      <trkpt lat="44.8153520" lon="7.0677060">
        <ele>1862.4</ele>
        <time>2017-07-26T10:14:25Z</time>
      </trkpt>
      <trkpt lat="44.8153670" lon="7.0676680">
        <ele>1862.8</ele>
        <time>2017-07-26T10:14:27Z</time>
      </trkpt>
      <trkpt lat="44.8153890" lon="7.0676480">
        <ele>1863.8</ele>
        <time>2017-07-26T10:14:29Z</time>
      </trkpt>
      <trkpt lat="44.8154140" lon="7.0676380">
        <ele>1865.0</ele>
        <time>2017-07-26T10:14:31Z</time>
      </trkpt>
      <trkpt lat="44.8154330" lon="7.0676470">
        <ele>1865.2</ele>
        <time>2017-07-26T10:14:33Z</time>
      </trkpt>
      <trkpt lat="44.8154600" lon="7.0676760">
        <ele>1866.0</ele>
        <time>2017-07-26T10:14:36Z</time>
      </trkpt>
      <trkpt lat="44.8154670" lon="7.0676870">
        <ele>1866.2</ele>
        <time>2017-07-26T10:14:37Z</time>
      </trkpt>
      <trkpt lat="44.8154950" lon="7.0677090">
        <ele>1866.6</ele>
        <time>2017-07-26T10:14:40Z</time>
      </trkpt>
      <trkpt lat="44.8155140" lon="7.0677190">
        <ele>1867.0</ele>
        <time>2017-07-26T10:14:42Z</time>
      </trkpt>
      <trkpt lat="44.8155310" lon="7.0677410">
        <ele>1867.4</ele>
        <time>2017-07-26T10:14:44Z</time>
      </trkpt>
      <trkpt lat="44.8155510" lon="7.0677440">
        <ele>1867.8</ele>
        <time>2017-07-26T10:14:46Z</time>
      </trkpt>
      <trkpt lat="44.8155970" lon="7.0677660">
        <ele>1868.4</ele>
        <time>2017-07-26T10:14:50Z</time>
      </trkpt>
      <trkpt lat="44.8156090" lon="7.0677710">
        <ele>1868.6</ele>
        <time>2017-07-26T10:14:51Z</time>
      </trkpt>
      <trkpt lat="44.8156220" lon="7.0677750">
        <ele>1868.8</ele>
        <time>2017-07-26T10:14:52Z</time>
      </trkpt>
      <trkpt lat="44.8156650" lon="7.0677840">
        <ele>1869.4</ele>
        <time>2017-07-26T10:14:56Z</time>
      </trkpt>
      <trkpt lat="44.8156870" lon="7.0677910">
        <ele>1869.8</ele>
        <time>2017-07-26T10:14:58Z</time>
      </trkpt>
      <trkpt lat="44.8156980" lon="7.0677940">
        <ele>1870.0</ele>
        <time>2017-07-26T10:14:59Z</time>
      </trkpt>
      <trkpt lat="44.8157550" lon="7.0678210">
        <ele>1870.6</ele>
        <time>2017-07-26T10:15:03Z</time>
      </trkpt>
      <trkpt lat="44.8157780" lon="7.0678270">
        <ele>1871.0</ele>
        <time>2017-07-26T10:15:05Z</time>
      </trkpt>
      <trkpt lat="44.8158370" lon="7.0678560">
        <ele>1871.8</ele>
        <time>2017-07-26T10:15:10Z</time>
      </trkpt>
      <trkpt lat="44.8158570" lon="7.0678660">
        <ele>1872.2</ele>
        <time>2017-07-26T10:15:12Z</time>
      </trkpt>
      <trkpt lat="44.8158690" lon="7.0678680">
        <ele>1872.8</ele>
        <time>2017-07-26T10:15:13Z</time>
      </trkpt>
      <trkpt lat="44.8159280" lon="7.0679050">
        <ele>1874.0</ele>
        <time>2017-07-26T10:15:19Z</time>
      </trkpt>
      <trkpt lat="44.8159810" lon="7.0674710">
        <ele>1893.6</ele>
        <time>2017-07-26T10:16:46Z</time>
      </trkpt>
      <trkpt lat="44.8159900" lon="7.0674720">
        <ele>1893.8</ele>
        <time>2017-07-26T10:16:47Z</time>
      </trkpt>
      <trkpt lat="44.8160120" lon="7.0674910">
        <ele>1894.2</ele>
        <time>2017-07-26T10:16:49Z</time>
      </trkpt>
      <trkpt lat="44.8160580" lon="7.0674620">
        <ele>1895.0</ele>
        <time>2017-07-26T10:16:54Z</time>
      </trkpt>
      <trkpt lat="44.8160570" lon="7.0674260">
        <ele>1895.6</ele>
        <time>2017-07-26T10:16:56Z</time>
      </trkpt>
      <trkpt lat="44.8160260" lon="7.0673900">
        <ele>1896.2</ele>
        <time>2017-07-26T10:16:59Z</time>
      </trkpt>
      <trkpt lat="44.8159830" lon="7.0673360">
        <ele>1893.8</ele>
        <time>2017-07-26T10:17:03Z</time>
      </trkpt>
      <trkpt lat="44.8159740" lon="7.0673230">
        <ele>1889.6</ele>
        <time>2017-07-26T10:17:04Z</time>
      </trkpt>
      <trkpt lat="44.8159560" lon="7.0672950">
        <ele>1893.4</ele>
        <time>2017-07-26T10:17:06Z</time>
      </trkpt>
      <trkpt lat="44.8159490" lon="7.0672780">
        <ele>1898.4</ele>
        <time>2017-07-26T10:17:07Z</time>
      </trkpt>
      <trkpt lat="44.8159410" lon="7.0672630">
        <ele>1899.4</ele>
        <time>2017-07-26T10:17:08Z</time>
      </trkpt>
      <trkpt lat="44.8159170" lon="7.0672060">
        <ele>1899.2</ele>
        <time>2017-07-26T10:17:11Z</time>
      </trkpt>
      <trkpt lat="44.8159120" lon="7.0671700">
        <ele>1899.2</ele>
        <time>2017-07-26T10:17:13Z</time>
      </trkpt>
      <trkpt lat="44.8159140" lon="7.0670710">
        <ele>1900.4</ele>
        <time>2017-07-26T10:17:19Z</time>
      </trkpt>
      <trkpt lat="44.8159140" lon="7.0670560">
        <ele>1900.8</ele>
        <time>2017-07-26T10:17:20Z</time>
      </trkpt>
      <trkpt lat="44.8159280" lon="7.0670260">
        <ele>1901.4</ele>
        <time>2017-07-26T10:17:22Z</time>
      </trkpt>
      <trkpt lat="44.8159490" lon="7.0670090">
        <ele>1902.6</ele>
        <time>2017-07-26T10:17:24Z</time>
      </trkpt>
      <trkpt lat="44.8159610" lon="7.0670070">
        <ele>1903.2</ele>
        <time>2017-07-26T10:17:25Z</time>
      </trkpt>
      <trkpt lat="44.8159750" lon="7.0670010">
        <ele>1903.8</ele>
        <time>2017-07-26T10:17:26Z</time>
      </trkpt>
      <trkpt lat="44.8159880" lon="7.0669950">
        <ele>1904.2</ele>
        <time>2017-07-26T10:17:27Z</time>
      </trkpt>
      <trkpt lat="44.8160120" lon="7.0670120">
        <ele>1905.0</ele>
        <time>2017-07-26T10:17:29Z</time>
      </trkpt>
      <trkpt lat="44.8160240" lon="7.0670460">
        <ele>1905.8</ele>
        <time>2017-07-26T10:17:31Z</time>
      </trkpt>
      <trkpt lat="44.8160370" lon="7.0670620">
        <ele>1906.4</ele>
        <time>2017-07-26T10:17:33Z</time>
      </trkpt>
      <trkpt lat="44.8160490" lon="7.0670660">
        <ele>1906.6</ele>
        <time>2017-07-26T10:17:34Z</time>
      </trkpt>
      <trkpt lat="44.8160770" lon="7.0671030">
        <ele>1907.6</ele>
        <time>2017-07-26T10:17:37Z</time>
      </trkpt>
      <trkpt lat="44.8160870" lon="7.0671170">
        <ele>1907.8</ele>
        <time>2017-07-26T10:17:38Z</time>
      </trkpt>
      <trkpt lat="44.8161250" lon="7.0671820">
        <ele>1908.6</ele>
        <time>2017-07-26T10:17:42Z</time>
      </trkpt>
      <trkpt lat="44.8161550" lon="7.0672140">
        <ele>1909.2</ele>
        <time>2017-07-26T10:17:45Z</time>
      </trkpt>
      <trkpt lat="44.8162010" lon="7.0672490">
        <ele>1909.4</ele>
        <time>2017-07-26T10:17:49Z</time>
      </trkpt>
      <trkpt lat="44.8162240" lon="7.0672650">
        <ele>1909.6</ele>
        <time>2017-07-26T10:17:51Z</time>
      </trkpt>
      <trkpt lat="44.8162450" lon="7.0672800">
        <ele>1909.8</ele>
        <time>2017-07-26T10:17:53Z</time>
      </trkpt>
      <trkpt lat="44.8163080" lon="7.0673250">
        <ele>1911.0</ele>
        <time>2017-07-26T10:17:59Z</time>
      </trkpt>
      <trkpt lat="44.8163410" lon="7.0673460">
        <ele>1912.2</ele>
        <time>2017-07-26T10:18:02Z</time>
      </trkpt>
      <trkpt lat="44.8163500" lon="7.0673550">
        <ele>1912.4</ele>
        <time>2017-07-26T10:18:03Z</time>
      </trkpt>
      <trkpt lat="44.8163810" lon="7.0673840">
        <ele>1913.0</ele>
        <time>2017-07-26T10:18:06Z</time>
      </trkpt>
      <trkpt lat="44.8163900" lon="7.0673930">
        <ele>1913.2</ele>
        <time>2017-07-26T10:18:07Z</time>
      </trkpt>
      <trkpt lat="44.8164430" lon="7.0674340">
        <ele>1914.6</ele>
        <time>2017-07-26T10:18:13Z</time>
      </trkpt>
      <trkpt lat="44.8164530" lon="7.0674320">
        <ele>1914.8</ele>
        <time>2017-07-26T10:18:14Z</time>
      </trkpt>
      <trkpt lat="44.8164840" lon="7.0674330">
        <ele>1915.8</ele>
        <time>2017-07-26T10:18:17Z</time>
      </trkpt>
      <trkpt lat="44.8165130" lon="7.0674340">
        <ele>1916.4</ele>
        <time>2017-07-26T10:18:20Z</time>
      </trkpt>
      <trkpt lat="44.8165220" lon="7.0674150">
        <ele>1916.4</ele>
        <time>2017-07-26T10:18:21Z</time>
      </trkpt>
      <trkpt lat="44.8165290" lon="7.0673950">
        <ele>1916.8</ele>
        <time>2017-07-26T10:18:22Z</time>
      </trkpt>
      <trkpt lat="44.8165350" lon="7.0673610">
        <ele>1917.6</ele>
        <time>2017-07-26T10:18:24Z</time>
      </trkpt>
      <trkpt lat="44.8165350" lon="7.0673440">
        <ele>1918.0</ele>
        <time>2017-07-26T10:18:25Z</time>
      </trkpt>
      <trkpt lat="44.8164970" lon="7.0672950">
        <ele>1918.8</ele>
        <time>2017-07-26T10:18:29Z</time>
      </trkpt>
      <trkpt lat="44.8164900" lon="7.0672800">
        <ele>1919.0</ele>
        <time>2017-07-26T10:18:30Z</time>
      </trkpt>
      <trkpt lat="44.8164580" lon="7.0672190">
        <ele>1920.0</ele>
        <time>2017-07-26T10:18:34Z</time>
      </trkpt>
      <trkpt lat="44.8164500" lon="7.0671880">
        <ele>1920.6</ele>
        <time>2017-07-26T10:18:36Z</time>
      </trkpt>
      <trkpt lat="44.8164470" lon="7.0671740">
        <ele>1920.8</ele>
        <time>2017-07-26T10:18:37Z</time>
      </trkpt>
      <trkpt lat="44.8164280" lon="7.0671300">
        <ele>1921.0</ele>
        <time>2017-07-26T10:18:40Z</time>
      </trkpt>
      <trkpt lat="44.8164220" lon="7.0671160">
        <ele>1921.4</ele>
        <time>2017-07-26T10:18:41Z</time>
      </trkpt>
      <trkpt lat="44.8164250" lon="7.0670970">
        <ele>1921.4</ele>
        <time>2017-07-26T10:18:42Z</time>
      </trkpt>
      <trkpt lat="44.8164300" lon="7.0670810">
        <ele>1921.6</ele>
        <time>2017-07-26T10:18:43Z</time>
      </trkpt>
      <trkpt lat="44.8164410" lon="7.0670530">
        <ele>1922.2</ele>
        <time>2017-07-26T10:18:45Z</time>
      </trkpt>
      <trkpt lat="44.8164630" lon="7.0670140">
        <ele>1923.2</ele>
        <time>2017-07-26T10:18:48Z</time>
      </trkpt>
      <trkpt lat="44.8164770" lon="7.0670090">
        <ele>1923.8</ele>
        <time>2017-07-26T10:18:49Z</time>
      </trkpt>
      <trkpt lat="44.8164870" lon="7.0670180">
        <ele>1924.0</ele>
        <time>2017-07-26T10:18:50Z</time>
      </trkpt>
      <trkpt lat="44.8164960" lon="7.0670320">
        <ele>1924.2</ele>
        <time>2017-07-26T10:18:51Z</time>
      </trkpt>
      <trkpt lat="44.8165350" lon="7.0671060">
        <ele>1925.2</ele>
        <time>2017-07-26T10:18:56Z</time>
      </trkpt>
      <trkpt lat="44.8165440" lon="7.0671180">
        <ele>1925.4</ele>
        <time>2017-07-26T10:18:57Z</time>
      </trkpt>
      <trkpt lat="44.8165620" lon="7.0671300">
        <ele>1925.8</ele>
        <time>2017-07-26T10:18:59Z</time>
      </trkpt>
      <trkpt lat="44.8165910" lon="7.0671640">
        <ele>1926.0</ele>
        <time>2017-07-26T10:19:02Z</time>
      </trkpt>
      <trkpt lat="44.8166220" lon="7.0672100">
        <ele>1926.8</ele>
        <time>2017-07-26T10:19:06Z</time>
      </trkpt>
      <trkpt lat="44.8166330" lon="7.0672100">
        <ele>1927.0</ele>
        <time>2017-07-26T10:19:07Z</time>
      </trkpt>
      <trkpt lat="44.8166440" lon="7.0672160">
        <ele>1927.2</ele>
        <time>2017-07-26T10:19:08Z</time>
      </trkpt>
      <trkpt lat="44.8166920" lon="7.0672190">
        <ele>1927.6</ele>
        <time>2017-07-26T10:19:12Z</time>
      </trkpt>
      <trkpt lat="44.8167010" lon="7.0672080">
        <ele>1928.2</ele>
        <time>2017-07-26T10:19:13Z</time>
      </trkpt>
      <trkpt lat="44.8167030" lon="7.0671920">
        <ele>1928.8</ele>
        <time>2017-07-26T10:19:14Z</time>
      </trkpt>
      <trkpt lat="44.8166980" lon="7.0671520">
        <ele>1929.4</ele>
        <time>2017-07-26T10:19:16Z</time>
      </trkpt>
      <trkpt lat="44.8166830" lon="7.0671070">
        <ele>1929.8</ele>
        <time>2017-07-26T10:19:19Z</time>
      </trkpt>
      <trkpt lat="44.8166560" lon="7.0670940">
        <ele>1930.2</ele>
        <time>2017-07-26T10:19:21Z</time>
      </trkpt>
      <trkpt lat="44.8166420" lon="7.0670820">
        <ele>1930.4</ele>
        <time>2017-07-26T10:19:22Z</time>
      </trkpt>
      <trkpt lat="44.8166230" lon="7.0670520">
        <ele>1930.6</ele>
        <time>2017-07-26T10:19:24Z</time>
      </trkpt>
      <trkpt lat="44.8166120" lon="7.0670400">
        <ele>1930.8</ele>
        <time>2017-07-26T10:19:25Z</time>
      </trkpt>
      <trkpt lat="44.8165910" lon="7.0669870">
        <ele>1930.6</ele>
        <time>2017-07-26T10:19:28Z</time>
      </trkpt>
      <trkpt lat="44.8165850" lon="7.0669510">
        <ele>1932.4</ele>
        <time>2017-07-26T10:19:30Z</time>
      </trkpt>
      <trkpt lat="44.8165850" lon="7.0669400">
        <ele>1931.0</ele>
        <time>2017-07-26T10:19:31Z</time>
      </trkpt>
      <trkpt lat="44.8165960" lon="7.0669290">
        <ele>1931.2</ele>
        <time>2017-07-26T10:19:32Z</time>
      </trkpt>
      <trkpt lat="44.8166210" lon="7.0669130">
        <ele>1932.2</ele>
        <time>2017-07-26T10:19:34Z</time>
      </trkpt>
      <trkpt lat="44.8166470" lon="7.0669140">
        <ele>1934.0</ele>
        <time>2017-07-26T10:19:36Z</time>
      </trkpt>
      <trkpt lat="44.8166580" lon="7.0669130">
        <ele>1934.8</ele>
        <time>2017-07-26T10:19:37Z</time>
      </trkpt>
      <trkpt lat="44.8166690" lon="7.0669150">
        <ele>1935.0</ele>
        <time>2017-07-26T10:19:38Z</time>
      </trkpt>
      <trkpt lat="44.8167090" lon="7.0669820">
        <ele>1935.8</ele>
        <time>2017-07-26T10:19:43Z</time>
      </trkpt>
      <trkpt lat="44.8167210" lon="7.0669860">
        <ele>1936.0</ele>
        <time>2017-07-26T10:19:44Z</time>
      </trkpt>
      <trkpt lat="44.8167740" lon="7.0670270">
        <ele>1937.2</ele>
        <time>2017-07-26T10:19:49Z</time>
      </trkpt>
      <trkpt lat="44.8167840" lon="7.0670360">
        <ele>1937.6</ele>
        <time>2017-07-26T10:19:50Z</time>
      </trkpt>
      <trkpt lat="44.8168080" lon="7.0670570">
        <ele>1938.4</ele>
        <time>2017-07-26T10:19:52Z</time>
      </trkpt>
      <trkpt lat="44.8168490" lon="7.0670810">
        <ele>1939.6</ele>
        <time>2017-07-26T10:19:56Z</time>
      </trkpt>
      <trkpt lat="44.8168980" lon="7.0671210">
        <ele>1940.8</ele>
        <time>2017-07-26T10:20:01Z</time>
      </trkpt>
      <trkpt lat="44.8169410" lon="7.0671730">
        <ele>1941.4</ele>
        <time>2017-07-26T10:20:04Z</time>
      </trkpt>
      <trkpt lat="44.8169730" lon="7.0672460">
        <ele>1941.8</ele>
        <time>2017-07-26T10:20:07Z</time>
      </trkpt>
      <trkpt lat="44.8170210" lon="7.0673490">
        <ele>1942.4</ele>
        <time>2017-07-26T10:20:10Z</time>
      </trkpt>
      <trkpt lat="44.8170750" lon="7.0674610">
        <ele>1942.8</ele>
        <time>2017-07-26T10:20:13Z</time>
      </trkpt>
      <trkpt lat="44.8171380" lon="7.0675660">
        <ele>1944.0</ele>
        <time>2017-07-26T10:20:16Z</time>
      </trkpt>
      <trkpt lat="44.8172620" lon="7.0677970">
        <ele>1945.2</ele>
        <time>2017-07-26T10:20:22Z</time>
      </trkpt>
      <trkpt lat="44.8172770" lon="7.0678480">
        <ele>1945.6</ele>
        <time>2017-07-26T10:20:23Z</time>
      </trkpt>
      <trkpt lat="44.8173050" lon="7.0679390">
        <ele>1946.6</ele>
        <time>2017-07-26T10:20:25Z</time>
      </trkpt>
      <trkpt lat="44.8173320" lon="7.0680690">
        <ele>1947.6</ele>
        <time>2017-07-26T10:20:28Z</time>
      </trkpt>
      <trkpt lat="44.8173480" lon="7.0681070">
        <ele>1948.0</ele>
        <time>2017-07-26T10:20:29Z</time>
      </trkpt>
      <trkpt lat="44.8173720" lon="7.0681890">
        <ele>1948.6</ele>
        <time>2017-07-26T10:20:31Z</time>
      </trkpt>
      <trkpt lat="44.8174170" lon="7.0683090">
        <ele>1949.2</ele>
        <time>2017-07-26T10:20:34Z</time>
      </trkpt>
      <trkpt lat="44.8174520" lon="7.0683880">
        <ele>1949.6</ele>
        <time>2017-07-26T10:20:36Z</time>
      </trkpt>
      <trkpt lat="44.8174700" lon="7.0684220">
        <ele>1949.8</ele>
        <time>2017-07-26T10:20:37Z</time>
      </trkpt>
      <trkpt lat="44.8175650" lon="7.0685780">
        <ele>1950.6</ele>
        <time>2017-07-26T10:20:42Z</time>
      </trkpt>
      <trkpt lat="44.8176450" lon="7.0686250">
        <ele>1950.8</ele>
        <time>2017-07-26T10:20:45Z</time>
      </trkpt>
      <trkpt lat="44.8176960" lon="7.0686020">
        <ele>1951.0</ele>
        <time>2017-07-26T10:20:47Z</time>
      </trkpt>
      <trkpt lat="44.8178130" lon="7.0684470">
        <ele>1951.8</ele>
        <time>2017-07-26T10:20:52Z</time>
      </trkpt>
      <trkpt lat="44.8178550" lon="7.0683620">
        <ele>1952.4</ele>
        <time>2017-07-26T10:20:54Z</time>
      </trkpt>
      <trkpt lat="44.8178850" lon="7.0682690">
        <ele>1953.2</ele>
        <time>2017-07-26T10:20:56Z</time>
      </trkpt>
      <trkpt lat="44.8179000" lon="7.0682210">
        <ele>1953.4</ele>
        <time>2017-07-26T10:20:57Z</time>
      </trkpt>
      <trkpt lat="44.8180020" lon="7.0680680">
        <ele>1954.4</ele>
        <time>2017-07-26T10:21:01Z</time>
      </trkpt>
      <trkpt lat="44.8180460" lon="7.0679940">
        <ele>1955.6</ele>
        <time>2017-07-26T10:21:03Z</time>
      </trkpt>
      <trkpt lat="44.8181460" lon="7.0678840">
        <ele>1956.8</ele>
        <time>2017-07-26T10:21:06Z</time>
      </trkpt>
      <trkpt lat="44.8181820" lon="7.0678400">
        <ele>1957.2</ele>
        <time>2017-07-26T10:21:07Z</time>
      </trkpt>
      <trkpt lat="44.8183100" lon="7.0677070">
        <ele>1957.4</ele>
        <time>2017-07-26T10:21:10Z</time>
      </trkpt>
      <trkpt lat="44.8183620" lon="7.0677040">
        <ele>1957.6</ele>
        <time>2017-07-26T10:21:11Z</time>
      </trkpt>
      <trkpt lat="44.8185310" lon="7.0677270">
        <ele>1957.4</ele>
        <time>2017-07-26T10:21:14Z</time>
      </trkpt>
      <trkpt lat="44.8185880" lon="7.0676990">
        <ele>1957.4</ele>
        <time>2017-07-26T10:21:15Z</time>
      </trkpt>
      <trkpt lat="44.8187510" lon="7.0675720">
        <ele>1958.0</ele>
        <time>2017-07-26T10:21:18Z</time>
      </trkpt>
      <trkpt lat="44.8189270" lon="7.0674720">
        <ele>1958.2</ele>
        <time>2017-07-26T10:21:21Z</time>
      </trkpt>
      <trkpt lat="44.8189680" lon="7.0673980">
        <ele>1958.2</ele>
        <time>2017-07-26T10:21:22Z</time>
      </trkpt>
      <trkpt lat="44.8190760" lon="7.0671750">
        <ele>1958.8</ele>
        <time>2017-07-26T10:21:25Z</time>
      </trkpt>
      <trkpt lat="44.8191560" lon="7.0670590">
        <ele>1959.0</ele>
        <time>2017-07-26T10:21:27Z</time>
      </trkpt>
      <trkpt lat="44.8192540" lon="7.0669630">
        <ele>1959.8</ele>
        <time>2017-07-26T10:21:29Z</time>
      </trkpt>
      <trkpt lat="44.8193640" lon="7.0668700">
        <ele>1960.4</ele>
        <time>2017-07-26T10:21:31Z</time>
      </trkpt>
      <trkpt lat="44.8194150" lon="7.0667970">
        <ele>1960.6</ele>
        <time>2017-07-26T10:21:32Z</time>
      </trkpt>
      <trkpt lat="44.8196130" lon="7.0666800">
        <ele>1960.8</ele>
        <time>2017-07-26T10:21:35Z</time>
      </trkpt>
      <trkpt lat="44.8198280" lon="7.0665080">
        <ele>1960.2</ele>
        <time>2017-07-26T10:21:38Z</time>
      </trkpt>
      <trkpt lat="44.8200810" lon="7.0664190">
        <ele>1960.0</ele>
        <time>2017-07-26T10:21:41Z</time>
      </trkpt>
      <trkpt lat="44.8202580" lon="7.0664140">
        <ele>1959.4</ele>
        <time>2017-07-26T10:21:43Z</time>
      </trkpt>
      <trkpt lat="44.8203360" lon="7.0664110">
        <ele>1959.4</ele>
        <time>2017-07-26T10:21:44Z</time>
      </trkpt>
      <trkpt lat="44.8204090" lon="7.0663910">
        <ele>1959.2</ele>
        <time>2017-07-26T10:21:45Z</time>
      </trkpt>
      <trkpt lat="44.8205140" lon="7.0662570">
        <ele>1959.0</ele>
        <time>2017-07-26T10:21:47Z</time>
      </trkpt>
      <trkpt lat="44.8205760" lon="7.0660800">
        <ele>1958.8</ele>
        <time>2017-07-26T10:21:49Z</time>
      </trkpt>
      <trkpt lat="44.8206400" lon="7.0659060">
        <ele>1958.4</ele>
        <time>2017-07-26T10:21:51Z</time>
      </trkpt>
      <trkpt lat="44.8206650" lon="7.0658160">
        <ele>1958.2</ele>
        <time>2017-07-26T10:21:52Z</time>
      </trkpt>
      <trkpt lat="44.8207500" lon="7.0655680">
        <ele>1957.4</ele>
        <time>2017-07-26T10:21:55Z</time>
      </trkpt>
      <trkpt lat="44.8207920" lon="7.0654960">
        <ele>1957.4</ele>
        <time>2017-07-26T10:21:56Z</time>
      </trkpt>
      <trkpt lat="44.8208320" lon="7.0654430">
        <ele>1957.2</ele>
        <time>2017-07-26T10:21:57Z</time>
      </trkpt>
      <trkpt lat="44.8209350" lon="7.0653370">
        <ele>1957.8</ele>
        <time>2017-07-26T10:22:00Z</time>
      </trkpt>
      <trkpt lat="44.8209560" lon="7.0653040">
        <ele>1958.0</ele>
        <time>2017-07-26T10:22:01Z</time>
      </trkpt>
      <trkpt lat="44.8209810" lon="7.0652240">
        <ele>1958.2</ele>
        <time>2017-07-26T10:22:03Z</time>
      </trkpt>
      <trkpt lat="44.8210140" lon="7.0651160">
        <ele>1958.8</ele>
        <time>2017-07-26T10:22:06Z</time>
      </trkpt>
      <trkpt lat="44.8210590" lon="7.0650170">
        <ele>1958.4</ele>
        <time>2017-07-26T10:22:09Z</time>
      </trkpt>
      <trkpt lat="44.8210770" lon="7.0649990">
        <ele>1958.6</ele>
        <time>2017-07-26T10:22:10Z</time>
      </trkpt>
      <trkpt lat="44.8211450" lon="7.0649270">
        <ele>1959.4</ele>
        <time>2017-07-26T10:22:14Z</time>
      </trkpt>
      <trkpt lat="44.8211580" lon="7.0649030">
        <ele>1959.6</ele>
        <time>2017-07-26T10:22:15Z</time>
      </trkpt>
      <trkpt lat="44.8212120" lon="7.0648230">
        <ele>1960.0</ele>
        <time>2017-07-26T10:22:19Z</time>
      </trkpt>
      <trkpt lat="44.8212650" lon="7.0647430">
        <ele>1960.6</ele>
        <time>2017-07-26T10:22:23Z</time>
      </trkpt>
      <trkpt lat="44.8212790" lon="7.0647160">
        <ele>1960.8</ele>
        <time>2017-07-26T10:22:24Z</time>
      </trkpt>
      <trkpt lat="44.8213510" lon="7.0646270">
        <ele>1961.4</ele>
        <time>2017-07-26T10:22:29Z</time>
      </trkpt>
      <trkpt lat="44.8213680" lon="7.0646130">
        <ele>1961.8</ele>
        <time>2017-07-26T10:22:30Z</time>
      </trkpt>
      <trkpt lat="44.8214110" lon="7.0645690">
        <ele>1962.4</ele>
        <time>2017-07-26T10:22:33Z</time>
      </trkpt>
      <trkpt lat="44.8214310" lon="7.0645350">
        <ele>1963.0</ele>
        <time>2017-07-26T10:22:35Z</time>
      </trkpt>
      <trkpt lat="44.8214420" lon="7.0645170">
        <ele>1963.4</ele>
        <time>2017-07-26T10:22:36Z</time>
      </trkpt>
      <trkpt lat="44.8214740" lon="7.0644300">
        <ele>1964.0</ele>
        <time>2017-07-26T10:22:41Z</time>
      </trkpt>
      <trkpt lat="44.8214890" lon="7.0643980">
        <ele>1964.0</ele>
        <time>2017-07-26T10:22:43Z</time>
      </trkpt>
      <trkpt lat="44.8215200" lon="7.0642990">
        <ele>1964.8</ele>
        <time>2017-07-26T10:22:48Z</time>
      </trkpt>
      <trkpt lat="44.8215370" lon="7.0642560">
        <ele>1965.2</ele>
        <time>2017-07-26T10:22:50Z</time>
      </trkpt>
      <trkpt lat="44.8215850" lon="7.0641940">
        <ele>1966.4</ele>
        <time>2017-07-26T10:22:54Z</time>
      </trkpt>
      <trkpt lat="44.8216200" lon="7.0641640">
        <ele>1966.8</ele>
        <time>2017-07-26T10:22:56Z</time>
      </trkpt>
      <trkpt lat="44.8216540" lon="7.0641420">
        <ele>1967.4</ele>
        <time>2017-07-26T10:22:58Z</time>
      </trkpt>
      <trkpt lat="44.8217030" lon="7.0641160">
        <ele>1967.6</ele>
        <time>2017-07-26T10:23:00Z</time>
      </trkpt>
      <trkpt lat="44.8217720" lon="7.0641090">
        <ele>1967.6</ele>
        <time>2017-07-26T10:23:03Z</time>
      </trkpt>
      <trkpt lat="44.8218550" lon="7.0641420">
        <ele>1967.2</ele>
        <time>2017-07-26T10:23:09Z</time>
      </trkpt>
      <trkpt lat="44.8219690" lon="7.0640820">
        <ele>1967.8</ele>
        <time>2017-07-26T10:23:16Z</time>
      </trkpt>
      <trkpt lat="44.8220150" lon="7.0640630">
        <ele>1968.2</ele>
        <time>2017-07-26T10:23:19Z</time>
      </trkpt>
      <trkpt lat="44.8220280" lon="7.0640550">
        <ele>1968.4</ele>
        <time>2017-07-26T10:23:20Z</time>
      </trkpt>
      <trkpt lat="44.8220550" lon="7.0640350">
        <ele>1969.0</ele>
        <time>2017-07-26T10:23:22Z</time>
      </trkpt>
      <trkpt lat="44.8221000" lon="7.0639980">
        <ele>1969.6</ele>
        <time>2017-07-26T10:23:25Z</time>
      </trkpt>
      <trkpt lat="44.8221420" lon="7.0639630">
        <ele>1971.0</ele>
        <time>2017-07-26T10:23:28Z</time>
      </trkpt>
      <trkpt lat="44.8221680" lon="7.0639390">
        <ele>1971.6</ele>
        <time>2017-07-26T10:23:30Z</time>
      </trkpt>
      <trkpt lat="44.8221870" lon="7.0639420">
        <ele>1972.0</ele>
        <time>2017-07-26T10:23:31Z</time>
      </trkpt>
      <trkpt lat="44.8222480" lon="7.0639670">
        <ele>1972.0</ele>
        <time>2017-07-26T10:23:34Z</time>
      </trkpt>
      <trkpt lat="44.8223590" lon="7.0640990">
        <ele>1972.0</ele>
        <time>2017-07-26T10:23:40Z</time>
      </trkpt>
      <trkpt lat="44.8225310" lon="7.0642530">
        <ele>1971.8</ele>
        <time>2017-07-26T10:23:47Z</time>
      </trkpt>
      <trkpt lat="44.8226090" lon="7.0643260">
        <ele>1971.6</ele>
        <time>2017-07-26T10:23:51Z</time>
      </trkpt>
      <trkpt lat="44.8226470" lon="7.0643520">
        <ele>1971.6</ele>
        <time>2017-07-26T10:23:53Z</time>
      </trkpt>
      <trkpt lat="44.8227920" lon="7.0644160">
        <ele>1972.0</ele>
        <time>2017-07-26T10:24:01Z</time>
      </trkpt>
      <trkpt lat="44.8228910" lon="7.0643620">
        <ele>1973.2</ele>
        <time>2017-07-26T10:24:07Z</time>
      </trkpt>
      <trkpt lat="44.8229090" lon="7.0643530">
        <ele>1973.6</ele>
        <time>2017-07-26T10:24:08Z</time>
      </trkpt>
      <trkpt lat="44.8229540" lon="7.0643030">
        <ele>1974.4</ele>
        <time>2017-07-26T10:24:11Z</time>
      </trkpt>
      <trkpt lat="44.8230050" lon="7.0642560">
        <ele>1975.6</ele>
        <time>2017-07-26T10:24:14Z</time>
      </trkpt>
      <trkpt lat="44.8230530" lon="7.0642220">
        <ele>1976.8</ele>
        <time>2017-07-26T10:24:17Z</time>
      </trkpt>
      <trkpt lat="44.8231080" lon="7.0641950">
        <ele>1977.8</ele>
        <time>2017-07-26T10:24:20Z</time>
      </trkpt>
      <trkpt lat="44.8231570" lon="7.0641540">
        <ele>1979.0</ele>
        <time>2017-07-26T10:24:23Z</time>
      </trkpt>
      <trkpt lat="44.8232020" lon="7.0641140">
        <ele>1980.2</ele>
        <time>2017-07-26T10:24:26Z</time>
      </trkpt>
      <trkpt lat="44.8232290" lon="7.0640870">
        <ele>1981.0</ele>
        <time>2017-07-26T10:24:28Z</time>
      </trkpt>
      <trkpt lat="44.8232440" lon="7.0640730">
        <ele>1981.4</ele>
        <time>2017-07-26T10:24:29Z</time>
      </trkpt>
      <trkpt lat="44.8232850" lon="7.0640230">
        <ele>1982.6</ele>
        <time>2017-07-26T10:24:32Z</time>
      </trkpt>
      <trkpt lat="44.8233290" lon="7.0639650">
        <ele>1983.6</ele>
        <time>2017-07-26T10:24:35Z</time>
      </trkpt>
      <trkpt lat="44.8233390" lon="7.0639420">
        <ele>1984.0</ele>
        <time>2017-07-26T10:24:36Z</time>
      </trkpt>
      <trkpt lat="44.8233620" lon="7.0638960">
        <ele>1984.8</ele>
        <time>2017-07-26T10:24:38Z</time>
      </trkpt>
      <trkpt lat="44.8234060" lon="7.0638260">
        <ele>1986.0</ele>
        <time>2017-07-26T10:24:42Z</time>
      </trkpt>
      <trkpt lat="44.8234240" lon="7.0637890">
        <ele>1986.6</ele>
        <time>2017-07-26T10:24:44Z</time>
      </trkpt>
      <trkpt lat="44.8234440" lon="7.0637550">
        <ele>1987.2</ele>
        <time>2017-07-26T10:24:46Z</time>
      </trkpt>
      <trkpt lat="44.8234700" lon="7.0636870">
        <ele>1988.2</ele>
        <time>2017-07-26T10:24:49Z</time>
      </trkpt>
      <trkpt lat="44.8234830" lon="7.0636760">
        <ele>1988.6</ele>
        <time>2017-07-26T10:24:50Z</time>
      </trkpt>
      <trkpt lat="44.8235010" lon="7.0636420">
        <ele>1989.2</ele>
        <time>2017-07-26T10:24:52Z</time>
      </trkpt>
      <trkpt lat="44.8235150" lon="7.0636240">
        <ele>1989.4</ele>
        <time>2017-07-26T10:24:53Z</time>
      </trkpt>
      <trkpt lat="44.8235620" lon="7.0636000">
        <ele>1990.2</ele>
        <time>2017-07-26T10:24:55Z</time>
      </trkpt>
      <trkpt lat="44.8236160" lon="7.0636040">
        <ele>1990.4</ele>
        <time>2017-07-26T10:24:57Z</time>
      </trkpt>
      <trkpt lat="44.8236880" lon="7.0636490">
        <ele>1991.2</ele>
        <time>2017-07-26T10:25:00Z</time>
      </trkpt>
      <trkpt lat="44.8237340" lon="7.0637040">
        <ele>1991.4</ele>
        <time>2017-07-26T10:25:02Z</time>
      </trkpt>
      <trkpt lat="44.8238170" lon="7.0638390">
        <ele>1992.2</ele>
        <time>2017-07-26T10:25:05Z</time>
      </trkpt>
      <trkpt lat="44.8240120" lon="7.0641520">
        <ele>1991.8</ele>
        <time>2017-07-26T10:25:10Z</time>
      </trkpt>
      <trkpt lat="44.8242550" lon="7.0644940">
        <ele>1990.8</ele>
        <time>2017-07-26T10:25:15Z</time>
      </trkpt>
      <trkpt lat="44.8244050" lon="7.0644910">
        <ele>1990.4</ele>
        <time>2017-07-26T10:25:17Z</time>
      </trkpt>
      <trkpt lat="44.8245310" lon="7.0643350">
        <ele>1990.0</ele>
        <time>2017-07-26T10:25:19Z</time>
      </trkpt>
      <trkpt lat="44.8245950" lon="7.0642610">
        <ele>1989.8</ele>
        <time>2017-07-26T10:25:20Z</time>
      </trkpt>
      <trkpt lat="44.8246680" lon="7.0641930">
        <ele>1989.6</ele>
        <time>2017-07-26T10:25:21Z</time>
      </trkpt>
      <trkpt lat="44.8247400" lon="7.0641390">
        <ele>1989.0</ele>
        <time>2017-07-26T10:25:22Z</time>
      </trkpt>
      <trkpt lat="44.8248000" lon="7.0640550">
        <ele>1989.0</ele>
        <time>2017-07-26T10:25:23Z</time>
      </trkpt>
      <trkpt lat="44.8249130" lon="7.0638710">
        <ele>1988.6</ele>
        <time>2017-07-26T10:25:25Z</time>
      </trkpt>
      <trkpt lat="44.8249870" lon="7.0637950">
        <ele>1988.2</ele>
        <time>2017-07-26T10:25:26Z</time>
      </trkpt>
      <trkpt lat="44.8250620" lon="7.0637440">
        <ele>1987.8</ele>
        <time>2017-07-26T10:25:27Z</time>
      </trkpt>
      <trkpt lat="44.8252110" lon="7.0636500">
        <ele>1987.4</ele>
        <time>2017-07-26T10:25:29Z</time>
      </trkpt>
      <trkpt lat="44.8255070" lon="7.0635990">
        <ele>1987.8</ele>
        <time>2017-07-26T10:25:33Z</time>
      </trkpt>
      <trkpt lat="44.8256470" lon="7.0636590">
        <ele>1987.2</ele>
        <time>2017-07-26T10:25:36Z</time>
      </trkpt>
      <trkpt lat="44.8256760" lon="7.0636800">
        <ele>1987.0</ele>
        <time>2017-07-26T10:25:37Z</time>
      </trkpt>
      <trkpt lat="44.8257420" lon="7.0637710">
        <ele>1987.0</ele>
        <time>2017-07-26T10:25:41Z</time>
      </trkpt>
      <trkpt lat="44.8257750" lon="7.0638100">
        <ele>1986.8</ele>
        <time>2017-07-26T10:25:43Z</time>
      </trkpt>
      <trkpt lat="44.8258480" lon="7.0639050">
        <ele>1986.6</ele>
        <time>2017-07-26T10:25:48Z</time>
      </trkpt>
      <trkpt lat="44.8259210" lon="7.0639830">
        <ele>1986.2</ele>
        <time>2017-07-26T10:25:53Z</time>
      </trkpt>
      <trkpt lat="44.8259410" lon="7.0639910">
        <ele>1986.0</ele>
        <time>2017-07-26T10:25:54Z</time>
      </trkpt>
      <trkpt lat="44.8261010" lon="7.0639750">
        <ele>1986.0</ele>
        <time>2017-07-26T10:26:00Z</time>
      </trkpt>
      <trkpt lat="44.8262470" lon="7.0638890">
        <ele>1987.4</ele>
        <time>2017-07-26T10:26:04Z</time>
      </trkpt>
      <trkpt lat="44.8262980" lon="7.0638550">
        <ele>1987.8</ele>
        <time>2017-07-26T10:26:05Z</time>
      </trkpt>
      <trkpt lat="44.8263490" lon="7.0638060">
        <ele>1988.0</ele>
        <time>2017-07-26T10:26:06Z</time>
      </trkpt>
      <trkpt lat="44.8264940" lon="7.0635950">
        <ele>1988.6</ele>
        <time>2017-07-26T10:26:09Z</time>
      </trkpt>
      <trkpt lat="44.8265390" lon="7.0635090">
        <ele>1988.8</ele>
        <time>2017-07-26T10:26:10Z</time>
      </trkpt>
      <trkpt lat="44.8266030" lon="7.0634510">
        <ele>1988.8</ele>
        <time>2017-07-26T10:26:11Z</time>
      </trkpt>
      <trkpt lat="44.8266790" lon="7.0634050">
        <ele>1988.8</ele>
        <time>2017-07-26T10:26:12Z</time>
      </trkpt>
      <trkpt lat="44.8267620" lon="7.0633720">
        <ele>1989.2</ele>
        <time>2017-07-26T10:26:13Z</time>
      </trkpt>
      <trkpt lat="44.8269250" lon="7.0632860">
        <ele>1989.4</ele>
        <time>2017-07-26T10:26:15Z</time>
      </trkpt>
      <trkpt lat="44.8271290" lon="7.0631810">
        <ele>1989.2</ele>
        <time>2017-07-26T10:26:18Z</time>
      </trkpt>
      <trkpt lat="44.8271880" lon="7.0631420">
        <ele>1989.0</ele>
        <time>2017-07-26T10:26:19Z</time>
      </trkpt>
      <trkpt lat="44.8273680" lon="7.0630700">
        <ele>1989.2</ele>
        <time>2017-07-26T10:26:22Z</time>
      </trkpt>
      <trkpt lat="44.8274850" lon="7.0630670">
        <ele>1988.8</ele>
        <time>2017-07-26T10:26:24Z</time>
      </trkpt>
      <trkpt lat="44.8277520" lon="7.0630740">
        <ele>1987.8</ele>
        <time>2017-07-26T10:26:28Z</time>
      </trkpt>
      <trkpt lat="44.8278090" lon="7.0630340">
        <ele>1987.4</ele>
        <time>2017-07-26T10:26:29Z</time>
      </trkpt>
      <trkpt lat="44.8279550" lon="7.0629710">
        <ele>1987.4</ele>
        <time>2017-07-26T10:26:33Z</time>
      </trkpt>
      <trkpt lat="44.8280390" lon="7.0630470">
        <ele>1986.6</ele>
        <time>2017-07-26T10:26:37Z</time>
      </trkpt>
      <trkpt lat="44.8281800" lon="7.0632110">
        <ele>1985.8</ele>
        <time>2017-07-26T10:26:45Z</time>
      </trkpt>
      <trkpt lat="44.8282160" lon="7.0632440">
        <ele>1985.6</ele>
        <time>2017-07-26T10:26:47Z</time>
      </trkpt>
      <trkpt lat="44.8283160" lon="7.0633490">
        <ele>1984.8</ele>
        <time>2017-07-26T10:26:53Z</time>
      </trkpt>
      <trkpt lat="44.8283320" lon="7.0633690">
        <ele>1984.6</ele>
        <time>2017-07-26T10:26:54Z</time>
      </trkpt>
      <trkpt lat="44.8284130" lon="7.0634590">
        <ele>1984.4</ele>
        <time>2017-07-26T10:26:59Z</time>
      </trkpt>
      <trkpt lat="44.8284410" lon="7.0634930">
        <ele>1984.4</ele>
        <time>2017-07-26T10:27:01Z</time>
      </trkpt>
      <trkpt lat="44.8285390" lon="7.0635740">
        <ele>1985.0</ele>
        <time>2017-07-26T10:27:07Z</time>
      </trkpt>
      <trkpt lat="44.8285730" lon="7.0635840">
        <ele>1985.6</ele>
        <time>2017-07-26T10:27:09Z</time>
      </trkpt>
      <trkpt lat="44.8285930" lon="7.0635890">
        <ele>1985.8</ele>
        <time>2017-07-26T10:27:10Z</time>
      </trkpt>
      <trkpt lat="44.8286410" lon="7.0636130">
        <ele>1987.0</ele>
        <time>2017-07-26T10:27:13Z</time>
      </trkpt>
      <trkpt lat="44.8286920" lon="7.0636290">
        <ele>1988.0</ele>
        <time>2017-07-26T10:27:16Z</time>
      </trkpt>
      <trkpt lat="44.8287060" lon="7.0636410">
        <ele>1988.2</ele>
        <time>2017-07-26T10:27:17Z</time>
      </trkpt>
      <trkpt lat="44.8287590" lon="7.0636940">
        <ele>1989.2</ele>
        <time>2017-07-26T10:27:21Z</time>
      </trkpt>
      <trkpt lat="44.8287780" lon="7.0637030">
        <ele>1989.4</ele>
        <time>2017-07-26T10:27:22Z</time>
      </trkpt>
      <trkpt lat="44.8288520" lon="7.0637200">
        <ele>1990.4</ele>
        <time>2017-07-26T10:27:26Z</time>
      </trkpt>
      <trkpt lat="44.8288650" lon="7.0637160">
        <ele>1990.6</ele>
        <time>2017-07-26T10:27:27Z</time>
      </trkpt>
      <trkpt lat="44.8289320" lon="7.0637020">
        <ele>1991.6</ele>
        <time>2017-07-26T10:27:31Z</time>
      </trkpt>
      <trkpt lat="44.8289510" lon="7.0637010">
        <ele>1992.0</ele>
        <time>2017-07-26T10:27:32Z</time>
      </trkpt>
      <trkpt lat="44.8289900" lon="7.0636840">
        <ele>1992.8</ele>
        <time>2017-07-26T10:27:34Z</time>
      </trkpt>
      <trkpt lat="44.8290430" lon="7.0636890">
        <ele>1994.2</ele>
        <time>2017-07-26T10:27:37Z</time>
      </trkpt>
      <trkpt lat="44.8290570" lon="7.0636990">
        <ele>1994.2</ele>
        <time>2017-07-26T10:27:38Z</time>
      </trkpt>
      <trkpt lat="44.8291230" lon="7.0636980">
        <ele>1995.4</ele>
        <time>2017-07-26T10:27:42Z</time>
      </trkpt>
      <trkpt lat="44.8291740" lon="7.0637070">
        <ele>1995.8</ele>
        <time>2017-07-26T10:27:45Z</time>
      </trkpt>
      <trkpt lat="44.8292400" lon="7.0637100">
        <ele>1996.4</ele>
        <time>2017-07-26T10:27:49Z</time>
      </trkpt>
      <trkpt lat="44.8293030" lon="7.0637010">
        <ele>1997.2</ele>
        <time>2017-07-26T10:27:53Z</time>
      </trkpt>
      <trkpt lat="44.8293200" lon="7.0637000">
        <ele>1997.6</ele>
        <time>2017-07-26T10:27:54Z</time>
      </trkpt>
      <trkpt lat="44.8294050" lon="7.0636940">
        <ele>1998.8</ele>
        <time>2017-07-26T10:27:59Z</time>
      </trkpt>
      <trkpt lat="44.8294390" lon="7.0636890">
        <ele>1999.8</ele>
        <time>2017-07-26T10:28:01Z</time>
      </trkpt>
      <trkpt lat="44.8294530" lon="7.0636830">
        <ele>2000.0</ele>
        <time>2017-07-26T10:28:02Z</time>
      </trkpt>
      <trkpt lat="44.8295740" lon="7.0637010">
        <ele>2001.0</ele>
        <time>2017-07-26T10:28:09Z</time>
      </trkpt>
      <trkpt lat="44.8296930" lon="7.0636990">
        <ele>2002.2</ele>
        <time>2017-07-26T10:28:16Z</time>
      </trkpt>
      <trkpt lat="44.8297070" lon="7.0636870">
        <ele>2002.4</ele>
        <time>2017-07-26T10:28:17Z</time>
      </trkpt>
      <trkpt lat="44.8297530" lon="7.0636750">
        <ele>2003.4</ele>
        <time>2017-07-26T10:28:20Z</time>
      </trkpt>
      <trkpt lat="44.8298190" lon="7.0636620">
        <ele>2004.2</ele>
        <time>2017-07-26T10:28:24Z</time>
      </trkpt>
      <trkpt lat="44.8298350" lon="7.0636570">
        <ele>2004.8</ele>
        <time>2017-07-26T10:28:25Z</time>
      </trkpt>
      <trkpt lat="44.8299520" lon="7.0636540">
        <ele>2005.4</ele>
        <time>2017-07-26T10:28:32Z</time>
      </trkpt>
      <trkpt lat="44.8300040" lon="7.0636480">
        <ele>2005.8</ele>
        <time>2017-07-26T10:28:35Z</time>
      </trkpt>
      <trkpt lat="44.8300430" lon="7.0636460">
        <ele>2006.2</ele>
        <time>2017-07-26T10:28:37Z</time>
      </trkpt>
      <trkpt lat="44.8301070" lon="7.0636720">
        <ele>2007.0</ele>
        <time>2017-07-26T10:28:41Z</time>
      </trkpt>
      <trkpt lat="44.8301610" lon="7.0636850">
        <ele>2007.0</ele>
        <time>2017-07-26T10:28:44Z</time>
      </trkpt>
      <trkpt lat="44.8302450" lon="7.0636960">
        <ele>2008.0</ele>
        <time>2017-07-26T10:28:49Z</time>
      </trkpt>
      <trkpt lat="44.8303000" lon="7.0637000">
        <ele>2008.4</ele>
        <time>2017-07-26T10:28:52Z</time>
      </trkpt>
      <trkpt lat="44.8304190" lon="7.0637190">
        <ele>2009.0</ele>
        <time>2017-07-26T10:28:58Z</time>
      </trkpt>
      <trkpt lat="44.8304590" lon="7.0637310">
        <ele>2009.2</ele>
        <time>2017-07-26T10:29:00Z</time>
      </trkpt>
      <trkpt lat="44.8305910" lon="7.0637620">
        <ele>2010.0</ele>
        <time>2017-07-26T10:29:07Z</time>
      </trkpt>
      <trkpt lat="44.8306090" lon="7.0637700">
        <ele>2010.2</ele>
        <time>2017-07-26T10:29:08Z</time>
      </trkpt>
      <trkpt lat="44.8307380" lon="7.0638350">
        <ele>2011.2</ele>
        <time>2017-07-26T10:29:15Z</time>
      </trkpt>
      <trkpt lat="44.8308770" lon="7.0639300">
        <ele>2012.2</ele>
        <time>2017-07-26T10:29:22Z</time>
      </trkpt>
      <trkpt lat="44.8308990" lon="7.0639410">
        <ele>2012.4</ele>
        <time>2017-07-26T10:29:23Z</time>
      </trkpt>
      <trkpt lat="44.8310300" lon="7.0639880">
        <ele>2013.4</ele>
        <time>2017-07-26T10:29:29Z</time>
      </trkpt>
      <trkpt lat="44.8310510" lon="7.0639950">
        <ele>2013.8</ele>
        <time>2017-07-26T10:29:30Z</time>
      </trkpt>
      <trkpt lat="44.8310920" lon="7.0640190">
        <ele>2014.6</ele>
        <time>2017-07-26T10:29:32Z</time>
      </trkpt>
      <trkpt lat="44.8311590" lon="7.0640450">
        <ele>2016.0</ele>
        <time>2017-07-26T10:29:35Z</time>
      </trkpt>
      <trkpt lat="44.8312280" lon="7.0640440">
        <ele>2017.8</ele>
        <time>2017-07-26T10:29:38Z</time>
      </trkpt>
      <trkpt lat="44.8312950" lon="7.0640620">
        <ele>2019.2</ele>
        <time>2017-07-26T10:29:41Z</time>
      </trkpt>
      <trkpt lat="44.8313560" lon="7.0641010">
        <ele>2020.4</ele>
        <time>2017-07-26T10:29:44Z</time>
      </trkpt>
      <trkpt lat="44.8314500" lon="7.0642010">
        <ele>2020.6</ele>
        <time>2017-07-26T10:29:48Z</time>
      </trkpt>
      <trkpt lat="44.8315960" lon="7.0642810">
        <ele>2021.0</ele>
        <time>2017-07-26T10:29:54Z</time>
      </trkpt>
      <trkpt lat="44.8317380" lon="7.0643420">
        <ele>2021.4</ele>
        <time>2017-07-26T10:30:00Z</time>
      </trkpt>
      <trkpt lat="44.8317600" lon="7.0643480">
        <ele>2021.4</ele>
        <time>2017-07-26T10:30:01Z</time>
      </trkpt>
      <trkpt lat="44.8318140" lon="7.0643670">
        <ele>2022.8</ele>
        <time>2017-07-26T10:30:03Z</time>
      </trkpt>
      <trkpt lat="44.8318680" lon="7.0644170">
        <ele>2024.0</ele>
        <time>2017-07-26T10:30:06Z</time>
      </trkpt>
      <trkpt lat="44.8318900" lon="7.0644410">
        <ele>2024.4</ele>
        <time>2017-07-26T10:30:07Z</time>
      </trkpt>
      <trkpt lat="44.8319310" lon="7.0646000">
        <ele>2025.0</ele>
        <time>2017-07-26T10:30:12Z</time>
      </trkpt>
      <trkpt lat="44.8319400" lon="7.0646420">
        <ele>2025.0</ele>
        <time>2017-07-26T10:30:13Z</time>
      </trkpt>
      <trkpt lat="44.8319260" lon="7.0647890">
        <ele>2025.4</ele>
        <time>2017-07-26T10:30:17Z</time>
      </trkpt>
      <trkpt lat="44.8318970" lon="7.0648790">
        <ele>2026.2</ele>
        <time>2017-07-26T10:30:20Z</time>
      </trkpt>
      <trkpt lat="44.8318590" lon="7.0649760">
        <ele>2026.6</ele>
        <time>2017-07-26T10:30:23Z</time>
      </trkpt>
      <trkpt lat="44.8318120" lon="7.0650560">
        <ele>2027.6</ele>
        <time>2017-07-26T10:30:26Z</time>
      </trkpt>
      <trkpt lat="44.8317340" lon="7.0651460">
        <ele>2028.0</ele>
        <time>2017-07-26T10:30:30Z</time>
      </trkpt>
      <trkpt lat="44.8316980" lon="7.0651890">
        <ele>2028.6</ele>
        <time>2017-07-26T10:30:32Z</time>
      </trkpt>
      <trkpt lat="44.8316760" lon="7.0652640">
        <ele>2029.2</ele>
        <time>2017-07-26T10:30:34Z</time>
      </trkpt>
      <trkpt lat="44.8316760" lon="7.0653060">
        <ele>2029.4</ele>
        <time>2017-07-26T10:30:35Z</time>
      </trkpt>
      <trkpt lat="44.8317050" lon="7.0653740">
        <ele>2029.8</ele>
        <time>2017-07-26T10:30:37Z</time>
      </trkpt>
      <trkpt lat="44.8317390" lon="7.0654410">
        <ele>2030.4</ele>
        <time>2017-07-26T10:30:39Z</time>
      </trkpt>
      <trkpt lat="44.8317520" lon="7.0655110">
        <ele>2030.8</ele>
        <time>2017-07-26T10:30:41Z</time>
      </trkpt>
      <trkpt lat="44.8317670" lon="7.0656680">
        <ele>2031.4</ele>
        <time>2017-07-26T10:30:45Z</time>
      </trkpt>
      <trkpt lat="44.8317840" lon="7.0656980">
        <ele>2031.4</ele>
        <time>2017-07-26T10:30:46Z</time>
      </trkpt>
      <trkpt lat="44.8318580" lon="7.0657350">
        <ele>2031.6</ele>
        <time>2017-07-26T10:30:49Z</time>
      </trkpt>
      <trkpt lat="44.8318850" lon="7.0657320">
        <ele>2032.2</ele>
        <time>2017-07-26T10:30:50Z</time>
      </trkpt>
      <trkpt lat="44.8319340" lon="7.0657130">
        <ele>2033.0</ele>
        <time>2017-07-26T10:30:52Z</time>
      </trkpt>
      <trkpt lat="44.8319550" lon="7.0657120">
        <ele>2033.4</ele>
        <time>2017-07-26T10:30:53Z</time>
      </trkpt>
      <trkpt lat="44.8319820" lon="7.0657110">
        <ele>2033.6</ele>
        <time>2017-07-26T10:30:54Z</time>
      </trkpt>
      <trkpt lat="44.8321050" lon="7.0656840">
        <ele>2034.6</ele>
        <time>2017-07-26T10:30:59Z</time>
      </trkpt>
      <trkpt lat="44.8321520" lon="7.0656630">
        <ele>2035.0</ele>
        <time>2017-07-26T10:31:01Z</time>
      </trkpt>
      <trkpt lat="44.8322220" lon="7.0656420">
        <ele>2035.6</ele>
        <time>2017-07-26T10:31:04Z</time>
      </trkpt>
      <trkpt lat="44.8323390" lon="7.0656290">
        <ele>2035.8</ele>
        <time>2017-07-26T10:31:09Z</time>
      </trkpt>
      <trkpt lat="44.8325290" lon="7.0656040">
        <ele>2036.0</ele>
        <time>2017-07-26T10:31:16Z</time>
      </trkpt>
      <trkpt lat="44.8326870" lon="7.0655570">
        <ele>2036.6</ele>
        <time>2017-07-26T10:31:22Z</time>
      </trkpt>
      <trkpt lat="44.8328320" lon="7.0655290">
        <ele>2037.4</ele>
        <time>2017-07-26T10:31:28Z</time>
      </trkpt>
      <trkpt lat="44.8328560" lon="7.0655220">
        <ele>2037.8</ele>
        <time>2017-07-26T10:31:29Z</time>
      </trkpt>
      <trkpt lat="44.8329900" lon="7.0655380">
        <ele>2038.0</ele>
        <time>2017-07-26T10:31:33Z</time>
      </trkpt>
      <trkpt lat="44.8331360" lon="7.0656000">
        <ele>2038.4</ele>
        <time>2017-07-26T10:31:38Z</time>
      </trkpt>
      <trkpt lat="44.8332340" lon="7.0656210">
        <ele>2038.8</ele>
        <time>2017-07-26T10:31:41Z</time>
      </trkpt>
      <trkpt lat="44.8333240" lon="7.0656370">
        <ele>2039.0</ele>
        <time>2017-07-26T10:31:44Z</time>
      </trkpt>
      <trkpt lat="44.8335320" lon="7.0657110">
        <ele>2039.8</ele>
        <time>2017-07-26T10:31:51Z</time>
      </trkpt>
      <trkpt lat="44.8336200" lon="7.0657670">
        <ele>2039.8</ele>
        <time>2017-07-26T10:31:54Z</time>
      </trkpt>
      <trkpt lat="44.8337340" lon="7.0658400">
        <ele>2041.0</ele>
        <time>2017-07-26T10:31:58Z</time>
      </trkpt>
      <trkpt lat="44.8337890" lon="7.0658910">
        <ele>2041.8</ele>
        <time>2017-07-26T10:32:00Z</time>
      </trkpt>
      <trkpt lat="44.8338430" lon="7.0659340">
        <ele>2042.6</ele>
        <time>2017-07-26T10:32:02Z</time>
      </trkpt>
      <trkpt lat="44.8339240" lon="7.0660040">
        <ele>2043.8</ele>
        <time>2017-07-26T10:32:05Z</time>
      </trkpt>
      <trkpt lat="44.8340010" lon="7.0660770">
        <ele>2045.0</ele>
        <time>2017-07-26T10:32:08Z</time>
      </trkpt>
      <trkpt lat="44.8340210" lon="7.0661060">
        <ele>2045.2</ele>
        <time>2017-07-26T10:32:09Z</time>
      </trkpt>
      <trkpt lat="44.8340640" lon="7.0661660">
        <ele>2046.0</ele>
        <time>2017-07-26T10:32:11Z</time>
      </trkpt>
      <trkpt lat="44.8341110" lon="7.0662400">
        <ele>2046.4</ele>
        <time>2017-07-26T10:32:13Z</time>
      </trkpt>
      <trkpt lat="44.8342130" lon="7.0663620">
        <ele>2047.2</ele>
        <time>2017-07-26T10:32:19Z</time>
      </trkpt>
      <trkpt lat="44.8342880" lon="7.0664940">
        <ele>2047.6</ele>
        <time>2017-07-26T10:32:24Z</time>
      </trkpt>
      <trkpt lat="44.8343310" lon="7.0666430">
        <ele>2048.0</ele>
        <time>2017-07-26T10:32:30Z</time>
      </trkpt>
      <trkpt lat="44.8343400" lon="7.0666950">
        <ele>2048.4</ele>
        <time>2017-07-26T10:32:32Z</time>
      </trkpt>
      <trkpt lat="44.8343620" lon="7.0667970">
        <ele>2048.8</ele>
        <time>2017-07-26T10:32:36Z</time>
      </trkpt>
      <trkpt lat="44.8343930" lon="7.0668630">
        <ele>2049.2</ele>
        <time>2017-07-26T10:32:39Z</time>
      </trkpt>
      <trkpt lat="44.8344030" lon="7.0668840">
        <ele>2049.4</ele>
        <time>2017-07-26T10:32:40Z</time>
      </trkpt>
      <trkpt lat="44.8344830" lon="7.0669850">
        <ele>2050.0</ele>
        <time>2017-07-26T10:32:46Z</time>
      </trkpt>
      <trkpt lat="44.8345570" lon="7.0670540">
        <ele>2050.4</ele>
        <time>2017-07-26T10:32:51Z</time>
      </trkpt>
      <trkpt lat="44.8346010" lon="7.0671130">
        <ele>2050.6</ele>
        <time>2017-07-26T10:32:54Z</time>
      </trkpt>
      <trkpt lat="44.8346920" lon="7.0672080">
        <ele>2051.6</ele>
        <time>2017-07-26T10:33:00Z</time>
      </trkpt>
      <trkpt lat="44.8347080" lon="7.0672180">
        <ele>2051.8</ele>
        <time>2017-07-26T10:33:01Z</time>
      </trkpt>
      <trkpt lat="44.8348260" lon="7.0673240">
        <ele>2052.6</ele>
        <time>2017-07-26T10:33:07Z</time>
      </trkpt>
      <trkpt lat="44.8348410" lon="7.0673420">
        <ele>2052.8</ele>
        <time>2017-07-26T10:33:08Z</time>
      </trkpt>
      <trkpt lat="44.8349480" lon="7.0674150">
        <ele>2054.0</ele>
        <time>2017-07-26T10:33:14Z</time>
      </trkpt>
      <trkpt lat="44.8350690" lon="7.0674950">
        <ele>2055.0</ele>
        <time>2017-07-26T10:33:21Z</time>
      </trkpt>
      <trkpt lat="44.8350830" lon="7.0675150">
        <ele>2055.2</ele>
        <time>2017-07-26T10:33:22Z</time>
      </trkpt>
      <trkpt lat="44.8350970" lon="7.0675360">
        <ele>2055.4</ele>
        <time>2017-07-26T10:33:23Z</time>
      </trkpt>
      <trkpt lat="44.8351580" lon="7.0676820">
        <ele>2056.2</ele>
        <time>2017-07-26T10:33:28Z</time>
      </trkpt>
      <trkpt lat="44.8351690" lon="7.0677100">
        <ele>2056.2</ele>
        <time>2017-07-26T10:33:29Z</time>
      </trkpt>
      <trkpt lat="44.8352450" lon="7.0678660">
        <ele>2057.0</ele>
        <time>2017-07-26T10:33:35Z</time>
      </trkpt>
      <trkpt lat="44.8352620" lon="7.0678830">
        <ele>2057.2</ele>
        <time>2017-07-26T10:33:36Z</time>
      </trkpt>
      <trkpt lat="44.8353290" lon="7.0679350">
        <ele>2058.0</ele>
        <time>2017-07-26T10:33:40Z</time>
      </trkpt>
      <trkpt lat="44.8353410" lon="7.0679430">
        <ele>2058.2</ele>
        <time>2017-07-26T10:33:41Z</time>
      </trkpt>
      <trkpt lat="44.8353510" lon="7.0679570">
        <ele>2058.4</ele>
        <time>2017-07-26T10:33:42Z</time>
      </trkpt>
      <trkpt lat="44.8353700" lon="7.0679690">
        <ele>2059.0</ele>
        <time>2017-07-26T10:33:44Z</time>
      </trkpt>
      <trkpt lat="44.8353740" lon="7.0679440">
        <ele>2064.6</ele>
        <time>2017-07-26T10:34:15Z</time>
      </trkpt>
      <trkpt lat="44.8353730" lon="7.0679230">
        <ele>2064.4</ele>
        <time>2017-07-26T10:34:16Z</time>
      </trkpt>
      <trkpt lat="44.8353750" lon="7.0678860">
        <ele>2064.0</ele>
        <time>2017-07-26T10:34:18Z</time>
      </trkpt>
      <trkpt lat="44.8353750" lon="7.0678430">
        <ele>2063.8</ele>
        <time>2017-07-26T10:34:21Z</time>
      </trkpt>
      <trkpt lat="44.8353750" lon="7.0678050">
        <ele>2063.6</ele>
        <time>2017-07-26T10:34:25Z</time>
      </trkpt>
      <trkpt lat="44.8354060" lon="7.0677730">
        <ele>2065.4</ele>
        <time>2017-07-26T10:34:29Z</time>
      </trkpt>
      <trkpt lat="44.8354130" lon="7.0677620">
        <ele>2065.8</ele>
        <time>2017-07-26T10:34:30Z</time>
      </trkpt>
      <trkpt lat="44.8354380" lon="7.0677290">
        <ele>2067.2</ele>
        <time>2017-07-26T10:34:34Z</time>
      </trkpt>
      <trkpt lat="44.8354500" lon="7.0677060">
        <ele>2068.0</ele>
        <time>2017-07-26T10:34:37Z</time>
      </trkpt>
      <trkpt lat="44.8354550" lon="7.0677000">
        <ele>2068.4</ele>
        <time>2017-07-26T10:34:38Z</time>
      </trkpt>
      <trkpt lat="44.8354620" lon="7.0676720">
        <ele>2069.4</ele>
        <time>2017-07-26T10:34:41Z</time>
      </trkpt>
      <trkpt lat="44.8354730" lon="7.0676370">
        <ele>2070.4</ele>
        <time>2017-07-26T10:34:44Z</time>
      </trkpt>
      <trkpt lat="44.8354760" lon="7.0676250">
        <ele>2070.6</ele>
        <time>2017-07-26T10:34:45Z</time>
      </trkpt>
      <trkpt lat="44.8354900" lon="7.0675820">
        <ele>2071.8</ele>
        <time>2017-07-26T10:34:49Z</time>
      </trkpt>
      <trkpt lat="44.8354990" lon="7.0675650">
        <ele>2072.6</ele>
        <time>2017-07-26T10:34:51Z</time>
      </trkpt>
      <trkpt lat="44.8355030" lon="7.0675560">
        <ele>2072.8</ele>
        <time>2017-07-26T10:34:52Z</time>
      </trkpt>
      <trkpt lat="44.8355120" lon="7.0675300">
        <ele>2073.8</ele>
        <time>2017-07-26T10:34:55Z</time>
      </trkpt>
      <trkpt lat="44.8355250" lon="7.0675040">
        <ele>2074.4</ele>
        <time>2017-07-26T10:34:58Z</time>
      </trkpt>
      <trkpt lat="44.8355340" lon="7.0674880">
        <ele>2075.0</ele>
        <time>2017-07-26T10:35:00Z</time>
      </trkpt>
      <trkpt lat="44.8355580" lon="7.0674560">
        <ele>2076.0</ele>
        <time>2017-07-26T10:35:04Z</time>
      </trkpt>
      <trkpt lat="44.8355630" lon="7.0674480">
        <ele>2076.0</ele>
        <time>2017-07-26T10:35:05Z</time>
      </trkpt>
      <trkpt lat="44.8355880" lon="7.0674140">
        <ele>2077.2</ele>
        <time>2017-07-26T10:35:10Z</time>
      </trkpt>
      <trkpt lat="44.8355980" lon="7.0674030">
        <ele>2077.8</ele>
        <time>2017-07-26T10:35:12Z</time>
      </trkpt>
      <trkpt lat="44.8356180" lon="7.0673980">
        <ele>2078.2</ele>
        <time>2017-07-26T10:35:15Z</time>
      </trkpt>
      <trkpt lat="44.8356580" lon="7.0673810">
        <ele>2079.0</ele>
        <time>2017-07-26T10:35:20Z</time>
      </trkpt>
      <trkpt lat="44.8356670" lon="7.0673830">
        <ele>2079.2</ele>
        <time>2017-07-26T10:35:21Z</time>
      </trkpt>
      <trkpt lat="44.8357050" lon="7.0674170">
        <ele>2079.8</ele>
        <time>2017-07-26T10:35:27Z</time>
      </trkpt>
      <trkpt lat="44.8357250" lon="7.0674330">
        <ele>2080.4</ele>
        <time>2017-07-26T10:35:30Z</time>
      </trkpt>
      <trkpt lat="44.8357560" lon="7.0674450">
        <ele>2081.0</ele>
        <time>2017-07-26T10:35:35Z</time>
      </trkpt>
      <trkpt lat="44.8357680" lon="7.0674520">
        <ele>2081.4</ele>
        <time>2017-07-26T10:35:37Z</time>
      </trkpt>
      <trkpt lat="44.8357780" lon="7.0674610">
        <ele>2082.0</ele>
        <time>2017-07-26T10:35:39Z</time>
      </trkpt>
      <trkpt lat="44.8357960" lon="7.0674650">
        <ele>2082.2</ele>
        <time>2017-07-26T10:35:41Z</time>
      </trkpt>
      <trkpt lat="44.8358110" lon="7.0674640">
        <ele>2082.6</ele>
        <time>2017-07-26T10:35:43Z</time>
      </trkpt>
      <trkpt lat="44.8358320" lon="7.0674430">
        <ele>2083.6</ele>
        <time>2017-07-26T10:35:48Z</time>
      </trkpt>
      <trkpt lat="44.8358340" lon="7.0674340">
        <ele>2083.8</ele>
        <time>2017-07-26T10:35:49Z</time>
      </trkpt>
      <trkpt lat="44.8358330" lon="7.0674230">
        <ele>2084.0</ele>
        <time>2017-07-26T10:35:50Z</time>
      </trkpt>
      <trkpt lat="44.8358340" lon="7.0670430">
        <ele>2092.2</ele>
        <time>2017-07-26T10:36:24Z</time>
      </trkpt>
      <trkpt lat="44.8358550" lon="7.0670060">
        <ele>2093.4</ele>
        <time>2017-07-26T10:36:27Z</time>
      </trkpt>
      <trkpt lat="44.8358600" lon="7.0670000">
        <ele>2093.4</ele>
        <time>2017-07-26T10:36:28Z</time>
      </trkpt>
      <trkpt lat="44.8359020" lon="7.0669640">
        <ele>2094.6</ele>
        <time>2017-07-26T10:36:35Z</time>
      </trkpt>
      <trkpt lat="44.8359080" lon="7.0669530">
        <ele>2094.8</ele>
        <time>2017-07-26T10:36:36Z</time>
      </trkpt>
      <trkpt lat="44.8359240" lon="7.0669280">
        <ele>2095.6</ele>
        <time>2017-07-26T10:36:39Z</time>
      </trkpt>
      <trkpt lat="44.8359420" lon="7.0669020">
        <ele>2096.2</ele>
        <time>2017-07-26T10:36:43Z</time>
      </trkpt>
      <trkpt lat="44.8359510" lon="7.0668870">
        <ele>2096.6</ele>
        <time>2017-07-26T10:36:46Z</time>
      </trkpt>
      <trkpt lat="44.8359820" lon="7.0668450">
        <ele>2097.8</ele>
        <time>2017-07-26T10:36:51Z</time>
      </trkpt>
      <trkpt lat="44.8359920" lon="7.0668280">
        <ele>2098.2</ele>
        <time>2017-07-26T10:36:53Z</time>
      </trkpt>
      <trkpt lat="44.8360130" lon="7.0667950">
        <ele>2099.0</ele>
        <time>2017-07-26T10:36:57Z</time>
      </trkpt>
      <trkpt lat="44.8360370" lon="7.0667840">
        <ele>2099.8</ele>
        <time>2017-07-26T10:37:00Z</time>
      </trkpt>
      <trkpt lat="44.8360450" lon="7.0667760">
        <ele>2100.2</ele>
        <time>2017-07-26T10:37:01Z</time>
      </trkpt>
      <trkpt lat="44.8360750" lon="7.0667180">
        <ele>2101.2</ele>
        <time>2017-07-26T10:37:06Z</time>
      </trkpt>
      <trkpt lat="44.8360810" lon="7.0667140">
        <ele>2101.4</ele>
        <time>2017-07-26T10:37:07Z</time>
      </trkpt>
      <trkpt lat="44.8361200" lon="7.0666640">
        <ele>2102.2</ele>
        <time>2017-07-26T10:37:14Z</time>
      </trkpt>
      <trkpt lat="44.8361410" lon="7.0666270">
        <ele>2102.8</ele>
        <time>2017-07-26T10:37:21Z</time>
      </trkpt>
      <trkpt lat="44.8361570" lon="7.0666090">
        <ele>2103.4</ele>
        <time>2017-07-26T10:37:24Z</time>
      </trkpt>
      <trkpt lat="44.8361760" lon="7.0665830">
        <ele>2103.8</ele>
        <time>2017-07-26T10:37:27Z</time>
      </trkpt>
      <trkpt lat="44.8372240" lon="7.0664430">
        <ele>2141.4</ele>
        <time>2017-07-26T10:40:46Z</time>
      </trkpt>
      <trkpt lat="44.8372550" lon="7.0664560">
        <ele>2141.8</ele>
        <time>2017-07-26T10:40:49Z</time>
      </trkpt>
      <trkpt lat="44.8372700" lon="7.0664700">
        <ele>2142.6</ele>
        <time>2017-07-26T10:40:51Z</time>
      </trkpt>
      <trkpt lat="44.8373130" lon="7.0665130">
        <ele>2143.6</ele>
        <time>2017-07-26T10:40:56Z</time>
      </trkpt>
      <trkpt lat="44.8373200" lon="7.0665220">
        <ele>2143.8</ele>
        <time>2017-07-26T10:40:57Z</time>
      </trkpt>
      <trkpt lat="44.8373590" lon="7.0665330">
        <ele>2144.6</ele>
        <time>2017-07-26T10:41:01Z</time>
      </trkpt>
      <trkpt lat="44.8373820" lon="7.0665330">
        <ele>2144.6</ele>
        <time>2017-07-26T10:41:03Z</time>
      </trkpt>
      <trkpt lat="44.8373900" lon="7.0665340">
        <ele>2144.8</ele>
        <time>2017-07-26T10:41:04Z</time>
      </trkpt>
      <trkpt lat="44.8374070" lon="7.0665320">
        <ele>2145.8</ele>
        <time>2017-07-26T10:41:06Z</time>
      </trkpt>
      <trkpt lat="44.8374470" lon="7.0665520">
        <ele>2145.4</ele>
        <time>2017-07-26T10:41:11Z</time>
      </trkpt>
      <trkpt lat="44.8384160" lon="7.0665400">
        <ele>2171.8</ele>
        <time>2017-07-26T10:43:20Z</time>
      </trkpt>
      <trkpt lat="44.8384240" lon="7.0665360">
        <ele>2172.2</ele>
        <time>2017-07-26T10:43:21Z</time>
      </trkpt>
      <trkpt lat="44.8384330" lon="7.0665340">
        <ele>2172.4</ele>
        <time>2017-07-26T10:43:22Z</time>
      </trkpt>
      <trkpt lat="44.8384900" lon="7.0664910">
        <ele>2172.0</ele>
        <time>2017-07-26T10:43:30Z</time>
      </trkpt>
      <trkpt lat="44.8385510" lon="7.0664290">
        <ele>2171.0</ele>
        <time>2017-07-26T10:43:38Z</time>
      </trkpt>
      <trkpt lat="44.8385770" lon="7.0664160">
        <ele>2170.6</ele>
        <time>2017-07-26T10:43:41Z</time>
      </trkpt>
      <trkpt lat="44.8386100" lon="7.0664050">
        <ele>2170.4</ele>
        <time>2017-07-26T10:43:46Z</time>
      </trkpt>
      <trkpt lat="44.8386190" lon="7.0664110">
        <ele>2170.4</ele>
        <time>2017-07-26T10:43:47Z</time>
      </trkpt>
      <trkpt lat="44.8386860" lon="7.0664060">
        <ele>2170.4</ele>
        <time>2017-07-26T10:43:52Z</time>
      </trkpt>
      <trkpt lat="44.8386950" lon="7.0664020">
        <ele>2170.4</ele>
        <time>2017-07-26T10:43:53Z</time>
      </trkpt>
      <trkpt lat="44.8387520" lon="7.0663500">
        <ele>2170.8</ele>
        <time>2017-07-26T10:43:59Z</time>
      </trkpt>
      <trkpt lat="44.8387790" lon="7.0663340">
        <ele>2171.2</ele>
        <time>2017-07-26T10:44:02Z</time>
      </trkpt>
      <trkpt lat="44.8388050" lon="7.0663380">
        <ele>2171.6</ele>
        <time>2017-07-26T10:44:05Z</time>
      </trkpt>
      <trkpt lat="44.8388140" lon="7.0663370">
        <ele>2171.8</ele>
        <time>2017-07-26T10:44:06Z</time>
      </trkpt>
      <trkpt lat="44.8388830" lon="7.0662980">
        <ele>2172.8</ele>
        <time>2017-07-26T10:44:13Z</time>
      </trkpt>
      <trkpt lat="44.8389250" lon="7.0662410">
        <ele>2173.8</ele>
        <time>2017-07-26T10:44:19Z</time>
      </trkpt>
      <trkpt lat="44.8389430" lon="7.0662250">
        <ele>2174.2</ele>
        <time>2017-07-26T10:44:21Z</time>
      </trkpt>
      <trkpt lat="44.8389530" lon="7.0662150">
        <ele>2174.2</ele>
        <time>2017-07-26T10:44:22Z</time>
      </trkpt>
      <trkpt lat="44.8390000" lon="7.0662000">
        <ele>2174.6</ele>
        <time>2017-07-26T10:44:27Z</time>
      </trkpt>
      <trkpt lat="44.8390110" lon="7.0661990">
        <ele>2174.6</ele>
        <time>2017-07-26T10:44:28Z</time>
      </trkpt>
      <trkpt lat="44.8390320" lon="7.0661900">
        <ele>2174.8</ele>
        <time>2017-07-26T10:44:30Z</time>
      </trkpt>
      <trkpt lat="44.8390800" lon="7.0662020">
        <ele>2175.4</ele>
        <time>2017-07-26T10:44:34Z</time>
      </trkpt>
      <trkpt lat="44.8391120" lon="7.0662280">
        <ele>2176.0</ele>
        <time>2017-07-26T10:44:37Z</time>
      </trkpt>
      <trkpt lat="44.8391480" lon="7.0662720">
        <ele>2176.6</ele>
        <time>2017-07-26T10:44:41Z</time>
      </trkpt>
      <trkpt lat="44.8391520" lon="7.0663010">
        <ele>2176.8</ele>
        <time>2017-07-26T10:44:43Z</time>
      </trkpt>
      <trkpt lat="44.8391480" lon="7.0663230">
        <ele>2177.0</ele>
        <time>2017-07-26T10:44:45Z</time>
      </trkpt>
      <trkpt lat="44.8391500" lon="7.0663450">
        <ele>2177.4</ele>
        <time>2017-07-26T10:44:47Z</time>
      </trkpt>
      <trkpt lat="44.8391590" lon="7.0664120">
        <ele>2178.4</ele>
        <time>2017-07-26T10:44:51Z</time>
      </trkpt>
      <trkpt lat="44.8391670" lon="7.0664320">
        <ele>2178.6</ele>
        <time>2017-07-26T10:44:53Z</time>
      </trkpt>
      <trkpt lat="44.8391700" lon="7.0664420">
        <ele>2179.0</ele>
        <time>2017-07-26T10:44:54Z</time>
      </trkpt>
      <trkpt lat="44.8392060" lon="7.0664530">
        <ele>2179.2</ele>
        <time>2017-07-26T10:44:59Z</time>
      </trkpt>
      <trkpt lat="44.8392170" lon="7.0664540">
        <ele>2179.4</ele>
        <time>2017-07-26T10:45:00Z</time>
      </trkpt>
      <trkpt lat="44.8392360" lon="7.0664590">
        <ele>2179.6</ele>
        <time>2017-07-26T10:45:02Z</time>
      </trkpt>
      <trkpt lat="44.8392910" lon="7.0664540">
        <ele>2180.4</ele>
        <time>2017-07-26T10:45:07Z</time>
      </trkpt>
      <trkpt lat="44.8393020" lon="7.0664510">
        <ele>2180.6</ele>
        <time>2017-07-26T10:45:08Z</time>
      </trkpt>
      <trkpt lat="44.8393590" lon="7.0664480">
        <ele>2181.8</ele>
        <time>2017-07-26T10:45:13Z</time>
      </trkpt>
      <trkpt lat="44.8393870" lon="7.0664420">
        <ele>2182.6</ele>
        <time>2017-07-26T10:45:16Z</time>
      </trkpt>
      <trkpt lat="44.8394030" lon="7.0664360">
        <ele>2182.8</ele>
        <time>2017-07-26T10:45:18Z</time>
      </trkpt>
      <trkpt lat="44.8394520" lon="7.0663730">
        <ele>2183.8</ele>
        <time>2017-07-26T10:45:24Z</time>
      </trkpt>
      <trkpt lat="44.8394610" lon="7.0663630">
        <ele>2184.0</ele>
        <time>2017-07-26T10:45:25Z</time>
      </trkpt>
      <trkpt lat="44.8394970" lon="7.0663140">
        <ele>2185.2</ele>
        <time>2017-07-26T10:45:30Z</time>
      </trkpt>
      <trkpt lat="44.8395420" lon="7.0662910">
        <ele>2185.8</ele>
        <time>2017-07-26T10:45:34Z</time>
      </trkpt>
      <trkpt lat="44.8395510" lon="7.0662860">
        <ele>2186.2</ele>
        <time>2017-07-26T10:45:35Z</time>
      </trkpt>
      <trkpt lat="44.8395890" lon="7.0662840">
        <ele>2187.8</ele>
        <time>2017-07-26T10:45:39Z</time>
      </trkpt>
      <trkpt lat="44.8396200" lon="7.0662880">
        <ele>2188.4</ele>
        <time>2017-07-26T10:45:42Z</time>
      </trkpt>
      <trkpt lat="44.8396350" lon="7.0662880">
        <ele>2188.8</ele>
        <time>2017-07-26T10:45:44Z</time>
      </trkpt>
      <trkpt lat="44.8396660" lon="7.0662970">
        <ele>2190.2</ele>
        <time>2017-07-26T10:45:47Z</time>
      </trkpt>
      <trkpt lat="44.8397020" lon="7.0663220">
        <ele>2191.4</ele>
        <time>2017-07-26T10:45:50Z</time>
      </trkpt>
      <trkpt lat="44.8397140" lon="7.0663290">
        <ele>2191.8</ele>
        <time>2017-07-26T10:45:51Z</time>
      </trkpt>
      <trkpt lat="44.8397510" lon="7.0663450">
        <ele>2192.6</ele>
        <time>2017-07-26T10:45:54Z</time>
      </trkpt>
      <trkpt lat="44.8398070" lon="7.0663590">
        <ele>2194.0</ele>
        <time>2017-07-26T10:45:59Z</time>
      </trkpt>
      <trkpt lat="44.8398210" lon="7.0663630">
        <ele>2194.2</ele>
        <time>2017-07-26T10:46:00Z</time>
      </trkpt>
      <trkpt lat="44.8398520" lon="7.0663640">
        <ele>2195.4</ele>
        <time>2017-07-26T10:46:03Z</time>
      </trkpt>
      <trkpt lat="44.8398860" lon="7.0663520">
        <ele>2196.6</ele>
        <time>2017-07-26T10:46:06Z</time>
      </trkpt>
      <trkpt lat="44.8398980" lon="7.0663510">
        <ele>2197.0</ele>
        <time>2017-07-26T10:46:07Z</time>
      </trkpt>
      <trkpt lat="44.8399180" lon="7.0663470">
        <ele>2197.6</ele>
        <time>2017-07-26T10:46:09Z</time>
      </trkpt>
      <trkpt lat="44.8399540" lon="7.0663450">
        <ele>2198.8</ele>
        <time>2017-07-26T10:46:13Z</time>
      </trkpt>
      <trkpt lat="44.8399620" lon="7.0663420">
        <ele>2199.0</ele>
        <time>2017-07-26T10:46:14Z</time>
      </trkpt>
      <trkpt lat="44.8399880" lon="7.0663260">
        <ele>2200.0</ele>
        <time>2017-07-26T10:46:17Z</time>
      </trkpt>
      <trkpt lat="44.8399970" lon="7.0663190">
        <ele>2200.4</ele>
        <time>2017-07-26T10:46:18Z</time>
      </trkpt>
      <trkpt lat="44.8400210" lon="7.0662940">
        <ele>2201.2</ele>
        <time>2017-07-26T10:46:21Z</time>
      </trkpt>
      <trkpt lat="44.8400490" lon="7.0663020">
        <ele>2202.6</ele>
        <time>2017-07-26T10:46:25Z</time>
      </trkpt>
      <trkpt lat="44.8400620" lon="7.0663070">
        <ele>2203.6</ele>
        <time>2017-07-26T10:46:27Z</time>
      </trkpt>
      <trkpt lat="44.8400950" lon="7.0663050">
        <ele>2204.8</ele>
        <time>2017-07-26T10:46:31Z</time>
      </trkpt>
      <trkpt lat="44.8401190" lon="7.0663010">
        <ele>2205.6</ele>
        <time>2017-07-26T10:46:34Z</time>
      </trkpt>
      <trkpt lat="44.8401250" lon="7.0662950">
        <ele>2205.8</ele>
        <time>2017-07-26T10:46:35Z</time>
      </trkpt>
      <trkpt lat="44.8401710" lon="7.0662910">
        <ele>2207.0</ele>
        <time>2017-07-26T10:46:41Z</time>
      </trkpt>
      <trkpt lat="44.8402140" lon="7.0662980">
        <ele>2208.0</ele>
        <time>2017-07-26T10:46:47Z</time>
      </trkpt>
      <trkpt lat="44.8402450" lon="7.0662870">
        <ele>2209.2</ele>
        <time>2017-07-26T10:46:52Z</time>
      </trkpt>
      <trkpt lat="44.8402500" lon="7.0662780">
        <ele>2209.2</ele>
        <time>2017-07-26T10:46:53Z</time>
      </trkpt>
      <trkpt lat="44.8414010" lon="7.0663470">
        <ele>2244.4</ele>
        <time>2017-07-26T10:49:42Z</time>
      </trkpt>
      <trkpt lat="44.8414120" lon="7.0663520">
        <ele>2244.6</ele>
        <time>2017-07-26T10:49:43Z</time>
      </trkpt>
      <trkpt lat="44.8414230" lon="7.0663590">
        <ele>2244.6</ele>
        <time>2017-07-26T10:49:44Z</time>
      </trkpt>
      <trkpt lat="44.8414880" lon="7.0664000">
        <ele>2245.2</ele>
        <time>2017-07-26T10:49:52Z</time>
      </trkpt>
      <trkpt lat="44.8415000" lon="7.0664100">
        <ele>2245.4</ele>
        <time>2017-07-26T10:49:54Z</time>
      </trkpt>
      <trkpt lat="44.8415170" lon="7.0664330">
        <ele>2245.6</ele>
        <time>2017-07-26T10:49:57Z</time>
      </trkpt>
      <trkpt lat="44.8415280" lon="7.0664460">
        <ele>2245.8</ele>
        <time>2017-07-26T10:49:59Z</time>
      </trkpt>
      <trkpt lat="44.8415440" lon="7.0664620">
        <ele>2246.6</ele>
        <time>2017-07-26T10:50:03Z</time>
      </trkpt>
      <trkpt lat="44.8430710" lon="7.0670460">
        <ele>2286.0</ele>
        <time>2017-07-26T10:53:52Z</time>
      </trkpt>
      <trkpt lat="44.8431300" lon="7.0670420">
        <ele>2286.0</ele>
        <time>2017-07-26T10:53:58Z</time>
      </trkpt>
      <trkpt lat="44.8431580" lon="7.0670460">
        <ele>2286.8</ele>
        <time>2017-07-26T10:54:01Z</time>
      </trkpt>
      <trkpt lat="44.8431690" lon="7.0670580">
        <ele>2287.2</ele>
        <time>2017-07-26T10:54:03Z</time>
      </trkpt>
      <trkpt lat="44.8431730" lon="7.0670620">
        <ele>2287.4</ele>
        <time>2017-07-26T10:54:04Z</time>
      </trkpt>
      <trkpt lat="44.8432010" lon="7.0670910">
        <ele>2288.2</ele>
        <time>2017-07-26T10:54:08Z</time>
      </trkpt>
      <trkpt lat="44.8432170" lon="7.0671070">
        <ele>2288.4</ele>
        <time>2017-07-26T10:54:10Z</time>
      </trkpt>
      <trkpt lat="44.8432610" lon="7.0671490">
        <ele>2289.2</ele>
        <time>2017-07-26T10:54:16Z</time>
      </trkpt>
      <trkpt lat="44.8432640" lon="7.0671590">
        <ele>2289.2</ele>
        <time>2017-07-26T10:54:17Z</time>
      </trkpt>
      <trkpt lat="44.8433090" lon="7.0672080">
        <ele>2290.4</ele>
        <time>2017-07-26T10:54:24Z</time>
      </trkpt>
      <trkpt lat="44.8433370" lon="7.0672300">
        <ele>2291.4</ele>
        <time>2017-07-26T10:54:28Z</time>
      </trkpt>
      <trkpt lat="44.8433560" lon="7.0672560">
        <ele>2292.2</ele>
        <time>2017-07-26T10:54:31Z</time>
      </trkpt>
      <trkpt lat="44.8433640" lon="7.0672610">
        <ele>2292.4</ele>
        <time>2017-07-26T10:54:32Z</time>
      </trkpt>
      <trkpt lat="44.8434020" lon="7.0672920">
        <ele>2293.6</ele>
        <time>2017-07-26T10:54:37Z</time>
      </trkpt>
      <trkpt lat="44.8434190" lon="7.0673040">
        <ele>2293.8</ele>
        <time>2017-07-26T10:54:39Z</time>
      </trkpt>
      <trkpt lat="44.8434440" lon="7.0673270">
        <ele>2294.6</ele>
        <time>2017-07-26T10:54:42Z</time>
      </trkpt>
      <trkpt lat="44.8434690" lon="7.0673340">
        <ele>2295.0</ele>
        <time>2017-07-26T10:54:45Z</time>
      </trkpt>
      <trkpt lat="44.8434780" lon="7.0673360">
        <ele>2295.4</ele>
        <time>2017-07-26T10:54:46Z</time>
      </trkpt>
      <trkpt lat="44.8434960" lon="7.0673460">
        <ele>2295.8</ele>
        <time>2017-07-26T10:54:48Z</time>
      </trkpt>
      <trkpt lat="44.8435520" lon="7.0673430">
        <ele>2296.8</ele>
        <time>2017-07-26T10:54:54Z</time>
      </trkpt>
      <trkpt lat="44.8435710" lon="7.0673410">
        <ele>2296.8</ele>
        <time>2017-07-26T10:54:56Z</time>
      </trkpt>
      <trkpt lat="44.8436370" lon="7.0673450">
        <ele>2297.8</ele>
        <time>2017-07-26T10:55:03Z</time>
      </trkpt>
      <trkpt lat="44.8436470" lon="7.0673430">
        <ele>2298.0</ele>
        <time>2017-07-26T10:55:04Z</time>
      </trkpt>
      <trkpt lat="44.8436650" lon="7.0673500">
        <ele>2298.2</ele>
        <time>2017-07-26T10:55:06Z</time>
      </trkpt>
      <trkpt lat="44.8437010" lon="7.0673590">
        <ele>2298.4</ele>
        <time>2017-07-26T10:55:10Z</time>
      </trkpt>
      <trkpt lat="44.8437160" lon="7.0673530">
        <ele>2298.6</ele>
        <time>2017-07-26T10:55:12Z</time>
      </trkpt>
      <trkpt lat="44.8437420" lon="7.0673610">
        <ele>2299.0</ele>
        <time>2017-07-26T10:55:16Z</time>
      </trkpt>
      <trkpt lat="44.8437670" lon="7.0673850">
        <ele>2299.4</ele>
        <time>2017-07-26T10:55:20Z</time>
      </trkpt>
      <trkpt lat="44.8437940" lon="7.0673790">
        <ele>2299.8</ele>
        <time>2017-07-26T10:55:23Z</time>
      </trkpt>
      <trkpt lat="44.8438070" lon="7.0673780">
        <ele>2300.2</ele>
        <time>2017-07-26T10:55:25Z</time>
      </trkpt>
      <trkpt lat="44.8438490" lon="7.0673740">
        <ele>2301.0</ele>
        <time>2017-07-26T10:55:30Z</time>
      </trkpt>
      <trkpt lat="44.8438750" lon="7.0673820">
        <ele>2301.2</ele>
        <time>2017-07-26T10:55:33Z</time>
      </trkpt>
      <trkpt lat="44.8439040" lon="7.0673640">
        <ele>2301.8</ele>
        <time>2017-07-26T10:55:37Z</time>
      </trkpt>
      <trkpt lat="44.8439290" lon="7.0673560">
        <ele>2302.4</ele>
        <time>2017-07-26T10:55:41Z</time>
      </trkpt>
      <trkpt lat="44.8439410" lon="7.0673640">
        <ele>2302.6</ele>
        <time>2017-07-26T10:55:43Z</time>
      </trkpt>
      <trkpt lat="44.8439790" lon="7.0673610">
        <ele>2303.4</ele>
        <time>2017-07-26T10:55:49Z</time>
      </trkpt>
      <trkpt lat="44.8439890" lon="7.0673580">
        <ele>2303.8</ele>
        <time>2017-07-26T10:55:51Z</time>
      </trkpt>
      <trkpt lat="44.8440130" lon="7.0673460">
        <ele>2304.8</ele>
        <time>2017-07-26T10:55:55Z</time>
      </trkpt>
      <trkpt lat="44.8440440" lon="7.0673250">
        <ele>2305.4</ele>
        <time>2017-07-26T10:55:59Z</time>
      </trkpt>
      <trkpt lat="44.8440490" lon="7.0673200">
        <ele>2305.8</ele>
        <time>2017-07-26T10:56:00Z</time>
      </trkpt>
      <trkpt lat="44.8440740" lon="7.0673150">
        <ele>2307.0</ele>
        <time>2017-07-26T10:56:04Z</time>
      </trkpt>
      <trkpt lat="44.8440860" lon="7.0673080">
        <ele>2307.6</ele>
        <time>2017-07-26T10:56:06Z</time>
      </trkpt>
      <trkpt lat="44.8440970" lon="7.0673000">
        <ele>2308.0</ele>
        <time>2017-07-26T10:56:08Z</time>
      </trkpt>
      <trkpt lat="44.8458390" lon="7.0673360">
        <ele>2403.2</ele>
        <time>2017-07-26T11:04:03Z</time>
      </trkpt>
      <trkpt lat="44.8458550" lon="7.0673210">
        <ele>2403.8</ele>
        <time>2017-07-26T11:04:04Z</time>
      </trkpt>
      <trkpt lat="44.8458700" lon="7.0672970">
        <ele>2404.6</ele>
        <time>2017-07-26T11:04:05Z</time>
      </trkpt>
      <trkpt lat="44.8459250" lon="7.0672200">
        <ele>2405.0</ele>
        <time>2017-07-26T11:04:08Z</time>
      </trkpt>
      <trkpt lat="44.8459310" lon="7.0671900">
        <ele>2405.2</ele>
        <time>2017-07-26T11:04:09Z</time>
      </trkpt>
      <trkpt lat="44.8459330" lon="7.0671670">
        <ele>2405.0</ele>
        <time>2017-07-26T11:04:10Z</time>
      </trkpt>
      <trkpt lat="44.8459750" lon="7.0672120">
        <ele>2404.4</ele>
        <time>2017-07-26T11:04:13Z</time>
      </trkpt>
      <trkpt lat="44.8460070" lon="7.0672720">
        <ele>2403.2</ele>
        <time>2017-07-26T11:04:16Z</time>
      </trkpt>
      <trkpt lat="44.8460370" lon="7.0673300">
        <ele>2402.6</ele>
        <time>2017-07-26T11:04:18Z</time>
      </trkpt>
      <trkpt lat="44.8460510" lon="7.0673610">
        <ele>2402.2</ele>
        <time>2017-07-26T11:04:19Z</time>
      </trkpt>
      <trkpt lat="44.8460720" lon="7.0673980">
        <ele>2401.8</ele>
        <time>2017-07-26T11:04:20Z</time>
      </trkpt>
      <trkpt lat="44.8460950" lon="7.0674160">
        <ele>2401.2</ele>
        <time>2017-07-26T11:04:21Z</time>
      </trkpt>
      <trkpt lat="44.8461110" lon="7.0674340">
        <ele>2400.6</ele>
        <time>2017-07-26T11:04:22Z</time>
      </trkpt>
      <trkpt lat="44.8461320" lon="7.0674430">
        <ele>2400.2</ele>
        <time>2017-07-26T11:04:23Z</time>
      </trkpt>
      <trkpt lat="44.8461540" lon="7.0674010">
        <ele>2396.4</ele>
        <time>2017-07-26T11:04:33Z</time>
      </trkpt>
      <trkpt lat="44.8461450" lon="7.0673210">
        <ele>2395.8</ele>
        <time>2017-07-26T11:04:35Z</time>
      </trkpt>
      <trkpt lat="44.8461420" lon="7.0672710">
        <ele>2395.2</ele>
        <time>2017-07-26T11:04:36Z</time>
      </trkpt>
      <trkpt lat="44.8461520" lon="7.0671920">
        <ele>2394.0</ele>
        <time>2017-07-26T11:04:38Z</time>
      </trkpt>
      <trkpt lat="44.8461670" lon="7.0671780">
        <ele>2393.4</ele>
        <time>2017-07-26T11:04:39Z</time>
      </trkpt>
      <trkpt lat="44.8461980" lon="7.0671710">
        <ele>2392.8</ele>
        <time>2017-07-26T11:04:41Z</time>
      </trkpt>
      <trkpt lat="44.8462070" lon="7.0671500">
        <ele>2392.4</ele>
        <time>2017-07-26T11:04:42Z</time>
      </trkpt>
      <trkpt lat="44.8462260" lon="7.0671230">
        <ele>2390.0</ele>
        <time>2017-07-26T11:04:51Z</time>
      </trkpt>
      <trkpt lat="44.8462380" lon="7.0670980">
        <ele>2389.8</ele>
        <time>2017-07-26T11:04:52Z</time>
      </trkpt>
      <trkpt lat="44.8462500" lon="7.0670680">
        <ele>2389.0</ele>
        <time>2017-07-26T11:04:53Z</time>
      </trkpt>
      <trkpt lat="44.8462710" lon="7.0670440">
        <ele>2388.0</ele>
        <time>2017-07-26T11:04:55Z</time>
      </trkpt>
      <trkpt lat="44.8462880" lon="7.0670410">
        <ele>2387.6</ele>
        <time>2017-07-26T11:04:56Z</time>
      </trkpt>
      <trkpt lat="44.8463060" lon="7.0670240">
        <ele>2387.2</ele>
        <time>2017-07-26T11:04:57Z</time>
      </trkpt>
      <trkpt lat="44.8463440" lon="7.0669800">
        <ele>2386.8</ele>
        <time>2017-07-26T11:04:59Z</time>
      </trkpt>
      <trkpt lat="44.8463570" lon="7.0669120">
        <ele>2385.6</ele>
        <time>2017-07-26T11:05:01Z</time>
      </trkpt>
      <trkpt lat="44.8463710" lon="7.0669290">
        <ele>2385.0</ele>
        <time>2017-07-26T11:05:02Z</time>
      </trkpt>
      <trkpt lat="44.8463820" lon="7.0669560">
        <ele>2384.4</ele>
        <time>2017-07-26T11:05:03Z</time>
      </trkpt>
      <trkpt lat="44.8463870" lon="7.0669920">
        <ele>2384.0</ele>
        <time>2017-07-26T11:05:04Z</time>
      </trkpt>
      <trkpt lat="44.8463960" lon="7.0670100">
        <ele>2383.4</ele>
        <time>2017-07-26T11:05:05Z</time>
      </trkpt>
      <trkpt lat="44.8464150" lon="7.0670900">
        <ele>2381.8</ele>
        <time>2017-07-26T11:05:07Z</time>
      </trkpt>
      <trkpt lat="44.8464380" lon="7.0671270">
        <ele>2381.2</ele>
        <time>2017-07-26T11:05:08Z</time>
      </trkpt>
      <trkpt lat="44.8464560" lon="7.0671710">
        <ele>2380.4</ele>
        <time>2017-07-26T11:05:09Z</time>
      </trkpt>
      <trkpt lat="44.8464760" lon="7.0671480">
        <ele>2379.0</ele>
        <time>2017-07-26T11:05:11Z</time>
      </trkpt>
      <trkpt lat="44.8464780" lon="7.0671020">
        <ele>2377.6</ele>
        <time>2017-07-26T11:05:13Z</time>
      </trkpt>
      <trkpt lat="44.8464830" lon="7.0669970">
        <ele>2376.4</ele>
        <time>2017-07-26T11:05:15Z</time>
      </trkpt>
      <trkpt lat="44.8465020" lon="7.0669160">
        <ele>2374.6</ele>
        <time>2017-07-26T11:05:17Z</time>
      </trkpt>
      <trkpt lat="44.8465220" lon="7.0669200">
        <ele>2374.0</ele>
        <time>2017-07-26T11:05:19Z</time>
      </trkpt>
      <trkpt lat="44.8465260" lon="7.0669460">
        <ele>2373.6</ele>
        <time>2017-07-26T11:05:20Z</time>
      </trkpt>
      <trkpt lat="44.8465410" lon="7.0670680">
        <ele>2372.4</ele>
        <time>2017-07-26T11:05:22Z</time>
      </trkpt>
      <trkpt lat="44.8465600" lon="7.0671770">
        <ele>2371.2</ele>
        <time>2017-07-26T11:05:24Z</time>
      </trkpt>
      <trkpt lat="44.8465790" lon="7.0671740">
        <ele>2370.6</ele>
        <time>2017-07-26T11:05:25Z</time>
      </trkpt>
      <trkpt lat="44.8465950" lon="7.0671590">
        <ele>2369.8</ele>
        <time>2017-07-26T11:05:26Z</time>
      </trkpt>
      <trkpt lat="44.8466310" lon="7.0671060">
        <ele>2369.4</ele>
        <time>2017-07-26T11:05:28Z</time>
      </trkpt>
      <trkpt lat="44.8466610" lon="7.0670410">
        <ele>2368.4</ele>
        <time>2017-07-26T11:05:30Z</time>
      </trkpt>
      <trkpt lat="44.8466780" lon="7.0670260">
        <ele>2367.4</ele>
        <time>2017-07-26T11:05:32Z</time>
      </trkpt>
      <trkpt lat="44.8466880" lon="7.0670260">
        <ele>2366.8</ele>
        <time>2017-07-26T11:05:33Z</time>
      </trkpt>
      <trkpt lat="44.8467050" lon="7.0669930">
        <ele>2366.2</ele>
        <time>2017-07-26T11:05:35Z</time>
      </trkpt>
      <trkpt lat="44.8467200" lon="7.0669590">
        <ele>2365.2</ele>
        <time>2017-07-26T11:05:37Z</time>
      </trkpt>
      <trkpt lat="44.8467400" lon="7.0669260">
        <ele>2361.8</ele>
        <time>2017-07-26T11:05:42Z</time>
      </trkpt>
      <trkpt lat="44.8467500" lon="7.0669150">
        <ele>2361.4</ele>
        <time>2017-07-26T11:05:43Z</time>
      </trkpt>
      <trkpt lat="44.8467580" lon="7.0669040">
        <ele>2361.0</ele>
        <time>2017-07-26T11:05:44Z</time>
      </trkpt>
      <trkpt lat="44.8467650" lon="7.0668980">
        <ele>2360.4</ele>
        <time>2017-07-26T11:05:45Z</time>
      </trkpt>
      <trkpt lat="44.8467750" lon="7.0668940">
        <ele>2360.0</ele>
        <time>2017-07-26T11:05:46Z</time>
      </trkpt>
      <trkpt lat="44.8467850" lon="7.0668890">
        <ele>2359.4</ele>
        <time>2017-07-26T11:05:47Z</time>
      </trkpt>
      <trkpt lat="44.8467900" lon="7.0668880">
        <ele>2359.0</ele>
        <time>2017-07-26T11:05:48Z</time>
      </trkpt>
      <trkpt lat="44.8468040" lon="7.0668800">
        <ele>2358.4</ele>
        <time>2017-07-26T11:05:50Z</time>
      </trkpt>
      <trkpt lat="44.8473650" lon="7.0663920">
        <ele>2316.8</ele>
        <time>2017-07-26T11:08:07Z</time>
      </trkpt>
      <trkpt lat="44.8473620" lon="7.0663800">
        <ele>2316.4</ele>
        <time>2017-07-26T11:08:08Z</time>
      </trkpt>
      <trkpt lat="44.8473580" lon="7.0663680">
        <ele>2316.0</ele>
        <time>2017-07-26T11:08:09Z</time>
      </trkpt>
      <trkpt lat="44.8473540" lon="7.0663570">
        <ele>2315.6</ele>
        <time>2017-07-26T11:08:10Z</time>
      </trkpt>
      <trkpt lat="44.8473620" lon="7.0663290">
        <ele>2314.2</ele>
        <time>2017-07-26T11:08:13Z</time>
      </trkpt>
      <trkpt lat="44.8474730" lon="7.0659230">
        <ele>2296.4</ele>
        <time>2017-07-26T11:09:10Z</time>
      </trkpt>
      <trkpt lat="44.8474620" lon="7.0658720">
        <ele>2295.6</ele>
        <time>2017-07-26T11:09:12Z</time>
      </trkpt>
      <trkpt lat="44.8474560" lon="7.0658590">
        <ele>2295.0</ele>
        <time>2017-07-26T11:09:13Z</time>
      </trkpt>
      <trkpt lat="44.8474540" lon="7.0658320">
        <ele>2293.8</ele>
        <time>2017-07-26T11:09:15Z</time>
      </trkpt>
      <trkpt lat="44.8475010" lon="7.0657620">
        <ele>2291.6</ele>
        <time>2017-07-26T11:09:22Z</time>
      </trkpt>
      <trkpt lat="44.8475060" lon="7.0656600">
        <ele>2290.0</ele>
        <time>2017-07-26T11:09:25Z</time>
      </trkpt>
      <trkpt lat="44.8474990" lon="7.0656310">
        <ele>2289.6</ele>
        <time>2017-07-26T11:09:26Z</time>
      </trkpt>
      <trkpt lat="44.8474980" lon="7.0655930">
        <ele>2289.2</ele>
        <time>2017-07-26T11:09:27Z</time>
      </trkpt>
      <trkpt lat="44.8475290" lon="7.0655180">
        <ele>2285.4</ele>
        <time>2017-07-26T11:09:43Z</time>
      </trkpt>
      <trkpt lat="44.8475390" lon="7.0654870">
        <ele>2285.2</ele>
        <time>2017-07-26T11:09:44Z</time>
      </trkpt>
      <trkpt lat="44.8475540" lon="7.0653720">
        <ele>2283.8</ele>
        <time>2017-07-26T11:09:47Z</time>
      </trkpt>
      <trkpt lat="44.8475570" lon="7.0653270">
        <ele>2283.0</ele>
        <time>2017-07-26T11:09:48Z</time>
      </trkpt>
      <trkpt lat="44.8475610" lon="7.0653010">
        <ele>2282.2</ele>
        <time>2017-07-26T11:09:49Z</time>
      </trkpt>
      <trkpt lat="44.8475750" lon="7.0652940">
        <ele>2281.8</ele>
        <time>2017-07-26T11:09:50Z</time>
      </trkpt>
      <trkpt lat="44.8476200" lon="7.0652250">
        <ele>2281.4</ele>
        <time>2017-07-26T11:09:52Z</time>
      </trkpt>
      <trkpt lat="44.8476320" lon="7.0651930">
        <ele>2280.8</ele>
        <time>2017-07-26T11:09:53Z</time>
      </trkpt>
      <trkpt lat="44.8476700" lon="7.0651560">
        <ele>2279.6</ele>
        <time>2017-07-26T11:09:56Z</time>
      </trkpt>
      <trkpt lat="44.8476740" lon="7.0651760">
        <ele>2279.2</ele>
        <time>2017-07-26T11:09:57Z</time>
      </trkpt>
      <trkpt lat="44.8476740" lon="7.0652070">
        <ele>2278.6</ele>
        <time>2017-07-26T11:09:58Z</time>
      </trkpt>
      <trkpt lat="44.8476810" lon="7.0652350">
        <ele>2278.0</ele>
        <time>2017-07-26T11:09:59Z</time>
      </trkpt>
      <trkpt lat="44.8476860" lon="7.0652650">
        <ele>2277.4</ele>
        <time>2017-07-26T11:10:00Z</time>
      </trkpt>
      <trkpt lat="44.8476900" lon="7.0652920">
        <ele>2276.8</ele>
        <time>2017-07-26T11:10:01Z</time>
      </trkpt>
      <trkpt lat="44.8477000" lon="7.0653070">
        <ele>2276.0</ele>
        <time>2017-07-26T11:10:02Z</time>
      </trkpt>
      <trkpt lat="44.8477320" lon="7.0652890">
        <ele>2274.4</ele>
        <time>2017-07-26T11:10:04Z</time>
      </trkpt>
      <trkpt lat="44.8477450" lon="7.0652640">
        <ele>2273.2</ele>
        <time>2017-07-26T11:10:05Z</time>
      </trkpt>
      <trkpt lat="44.8477900" lon="7.0652340">
        <ele>2272.0</ele>
        <time>2017-07-26T11:10:07Z</time>
      </trkpt>
      <trkpt lat="44.8478230" lon="7.0652040">
        <ele>2271.0</ele>
        <time>2017-07-26T11:10:09Z</time>
      </trkpt>
      <trkpt lat="44.8478350" lon="7.0652090">
        <ele>2270.6</ele>
        <time>2017-07-26T11:10:10Z</time>
      </trkpt>
      <trkpt lat="44.8478430" lon="7.0652090">
        <ele>2270.2</ele>
        <time>2017-07-26T11:10:11Z</time>
      </trkpt>
      <trkpt lat="44.8478540" lon="7.0652340">
        <ele>2269.2</ele>
        <time>2017-07-26T11:10:13Z</time>
      </trkpt>
      <trkpt lat="44.8478620" lon="7.0652480">
        <ele>2268.8</ele>
        <time>2017-07-26T11:10:14Z</time>
      </trkpt>
      <trkpt lat="44.8478700" lon="7.0652510">
        <ele>2268.0</ele>
        <time>2017-07-26T11:10:15Z</time>
      </trkpt>
      <trkpt lat="44.8479060" lon="7.0652470">
        <ele>2267.0</ele>
        <time>2017-07-26T11:10:18Z</time>
      </trkpt>
      <trkpt lat="44.8479180" lon="7.0652450">
        <ele>2266.6</ele>
        <time>2017-07-26T11:10:19Z</time>
      </trkpt>
      <trkpt lat="44.8479600" lon="7.0652230">
        <ele>2263.4</ele>
        <time>2017-07-26T11:10:27Z</time>
      </trkpt>
      <trkpt lat="44.8479750" lon="7.0652160">
        <ele>2263.2</ele>
        <time>2017-07-26T11:10:28Z</time>
      </trkpt>
      <trkpt lat="44.8480400" lon="7.0651860">
        <ele>2262.0</ele>
        <time>2017-07-26T11:10:31Z</time>
      </trkpt>
      <trkpt lat="44.8480670" lon="7.0651960">
        <ele>2261.0</ele>
        <time>2017-07-26T11:10:33Z</time>
      </trkpt>
      <trkpt lat="44.8480770" lon="7.0652080">
        <ele>2260.6</ele>
        <time>2017-07-26T11:10:34Z</time>
      </trkpt>
      <trkpt lat="44.8481200" lon="7.0652320">
        <ele>2258.0</ele>
        <time>2017-07-26T11:10:38Z</time>
      </trkpt>
      <trkpt lat="44.8481550" lon="7.0652670">
        <ele>2256.8</ele>
        <time>2017-07-26T11:10:40Z</time>
      </trkpt>
      <trkpt lat="44.8482190" lon="7.0653280">
        <ele>2255.4</ele>
        <time>2017-07-26T11:10:43Z</time>
      </trkpt>
      <trkpt lat="44.8482420" lon="7.0653290">
        <ele>2254.4</ele>
        <time>2017-07-26T11:10:44Z</time>
      </trkpt>
      <trkpt lat="44.8482940" lon="7.0653080">
        <ele>2253.0</ele>
        <time>2017-07-26T11:10:46Z</time>
      </trkpt>
      <trkpt lat="44.8483420" lon="7.0652920">
        <ele>2252.0</ele>
        <time>2017-07-26T11:10:48Z</time>
      </trkpt>
      <trkpt lat="44.8483630" lon="7.0652810">
        <ele>2251.8</ele>
        <time>2017-07-26T11:10:49Z</time>
      </trkpt>
      <trkpt lat="44.8483830" lon="7.0652870">
        <ele>2251.4</ele>
        <time>2017-07-26T11:10:50Z</time>
      </trkpt>
      <trkpt lat="44.8484200" lon="7.0652660">
        <ele>2250.2</ele>
        <time>2017-07-26T11:10:52Z</time>
      </trkpt>
      <trkpt lat="44.8484290" lon="7.0652470">
        <ele>2248.8</ele>
        <time>2017-07-26T11:10:53Z</time>
      </trkpt>
      <trkpt lat="44.8484380" lon="7.0652480">
        <ele>2248.2</ele>
        <time>2017-07-26T11:10:54Z</time>
      </trkpt>
      <trkpt lat="44.8485360" lon="7.0652480">
        <ele>2234.2</ele>
        <time>2017-07-26T11:11:26Z</time>
      </trkpt>
      <trkpt lat="44.8485480" lon="7.0652600">
        <ele>2233.8</ele>
        <time>2017-07-26T11:11:27Z</time>
      </trkpt>
      <trkpt lat="44.8485650" lon="7.0652800">
        <ele>2233.0</ele>
        <time>2017-07-26T11:11:29Z</time>
      </trkpt>
      <trkpt lat="44.8485910" lon="7.0653080">
        <ele>2232.0</ele>
        <time>2017-07-26T11:11:32Z</time>
      </trkpt>
      <trkpt lat="44.8485990" lon="7.0653210">
        <ele>2231.8</ele>
        <time>2017-07-26T11:11:33Z</time>
      </trkpt>
      <trkpt lat="44.8486250" lon="7.0652850">
        <ele>2231.2</ele>
        <time>2017-07-26T11:11:36Z</time>
      </trkpt>
      <trkpt lat="44.8486240" lon="7.0652460">
        <ele>2230.8</ele>
        <time>2017-07-26T11:11:38Z</time>
      </trkpt>
      <trkpt lat="44.8486500" lon="7.0652730">
        <ele>2229.8</ele>
        <time>2017-07-26T11:11:43Z</time>
      </trkpt>
      <trkpt lat="44.8486550" lon="7.0652870">
        <ele>2229.4</ele>
        <time>2017-07-26T11:11:44Z</time>
      </trkpt>
      <trkpt lat="44.8486770" lon="7.0653240">
        <ele>2228.2</ele>
        <time>2017-07-26T11:11:47Z</time>
      </trkpt>
      <trkpt lat="44.8486960" lon="7.0653090">
        <ele>2227.4</ele>
        <time>2017-07-26T11:11:50Z</time>
      </trkpt>
      <trkpt lat="44.8487040" lon="7.0653040">
        <ele>2227.0</ele>
        <time>2017-07-26T11:11:51Z</time>
      </trkpt>
      <trkpt lat="44.8487310" lon="7.0653030">
        <ele>2223.6</ele>
        <time>2017-07-26T11:12:07Z</time>
      </trkpt>
      <trkpt lat="44.8487460" lon="7.0653270">
        <ele>2223.4</ele>
        <time>2017-07-26T11:12:08Z</time>
      </trkpt>
      <trkpt lat="44.8487670" lon="7.0653510">
        <ele>2222.4</ele>
        <time>2017-07-26T11:12:11Z</time>
      </trkpt>
      <trkpt lat="44.8487720" lon="7.0653620">
        <ele>2222.2</ele>
        <time>2017-07-26T11:12:12Z</time>
      </trkpt>
      <trkpt lat="44.8490200" lon="7.0652260">
        <ele>2205.0</ele>
        <time>2017-07-26T11:13:11Z</time>
      </trkpt>
      <trkpt lat="44.8490230" lon="7.0652090">
        <ele>2204.6</ele>
        <time>2017-07-26T11:13:13Z</time>
      </trkpt>
      <trkpt lat="44.8490550" lon="7.0652510">
        <ele>2204.2</ele>
        <time>2017-07-26T11:13:17Z</time>
      </trkpt>
      <trkpt lat="44.8490680" lon="7.0652520">
        <ele>2203.8</ele>
        <time>2017-07-26T11:13:18Z</time>
      </trkpt>
      <trkpt lat="44.8490760" lon="7.0652390">
        <ele>2203.4</ele>
        <time>2017-07-26T11:13:19Z</time>
      </trkpt>
      <trkpt lat="44.8491380" lon="7.0651950">
        <ele>2199.8</ele>
        <time>2017-07-26T11:13:30Z</time>
      </trkpt>
      <trkpt lat="44.8491390" lon="7.0651770">
        <ele>2199.6</ele>
        <time>2017-07-26T11:13:31Z</time>
      </trkpt>
      <trkpt lat="44.8491340" lon="7.0651490">
        <ele>2199.2</ele>
        <time>2017-07-26T11:13:32Z</time>
      </trkpt>
      <trkpt lat="44.8491450" lon="7.0651520">
        <ele>2198.2</ele>
        <time>2017-07-26T11:13:34Z</time>
      </trkpt>
      <trkpt lat="44.8491560" lon="7.0651740">
        <ele>2197.8</ele>
        <time>2017-07-26T11:13:35Z</time>
      </trkpt>
      <trkpt lat="44.8491650" lon="7.0651960">
        <ele>2197.2</ele>
        <time>2017-07-26T11:13:36Z</time>
      </trkpt>
      <trkpt lat="44.8491810" lon="7.0651750">
        <ele>2196.2</ele>
        <time>2017-07-26T11:13:38Z</time>
      </trkpt>
      <trkpt lat="44.8491830" lon="7.0651620">
        <ele>2195.6</ele>
        <time>2017-07-26T11:13:39Z</time>
      </trkpt>
      <trkpt lat="44.8491790" lon="7.0651500">
        <ele>2195.0</ele>
        <time>2017-07-26T11:13:40Z</time>
      </trkpt>
      <trkpt lat="44.8492440" lon="7.0651440">
        <ele>2191.8</ele>
        <time>2017-07-26T11:13:49Z</time>
      </trkpt>
      <trkpt lat="44.8492530" lon="7.0651340">
        <ele>2191.4</ele>
        <time>2017-07-26T11:13:50Z</time>
      </trkpt>
      <trkpt lat="44.8492710" lon="7.0651280">
        <ele>2190.8</ele>
        <time>2017-07-26T11:13:52Z</time>
      </trkpt>
      <trkpt lat="44.8492810" lon="7.0651320">
        <ele>2190.4</ele>
        <time>2017-07-26T11:13:53Z</time>
      </trkpt>
      <trkpt lat="44.8492970" lon="7.0651440">
        <ele>2189.6</ele>
        <time>2017-07-26T11:13:55Z</time>
      </trkpt>
      <trkpt lat="44.8493070" lon="7.0651340">
        <ele>2189.4</ele>
        <time>2017-07-26T11:13:56Z</time>
      </trkpt>
      <trkpt lat="44.8493030" lon="7.0651180">
        <ele>2189.2</ele>
        <time>2017-07-26T11:13:57Z</time>
      </trkpt>
      <trkpt lat="44.8493080" lon="7.0650920">
        <ele>2188.4</ele>
        <time>2017-07-26T11:13:59Z</time>
      </trkpt>
      <trkpt lat="44.8493310" lon="7.0650430">
        <ele>2187.0</ele>
        <time>2017-07-26T11:14:04Z</time>
      </trkpt>
      <trkpt lat="44.8493730" lon="7.0650140">
        <ele>2186.2</ele>
        <time>2017-07-26T11:14:06Z</time>
      </trkpt>
      <trkpt lat="44.8493910" lon="7.0650070">
        <ele>2185.8</ele>
        <time>2017-07-26T11:14:07Z</time>
      </trkpt>
      <trkpt lat="44.8494390" lon="7.0649190">
        <ele>2184.4</ele>
        <time>2017-07-26T11:14:10Z</time>
      </trkpt>
      <trkpt lat="44.8494870" lon="7.0649220">
        <ele>2183.4</ele>
        <time>2017-07-26T11:14:13Z</time>
      </trkpt>
      <trkpt lat="44.8495060" lon="7.0649170">
        <ele>2183.2</ele>
        <time>2017-07-26T11:14:14Z</time>
      </trkpt>
      <trkpt lat="44.8495430" lon="7.0648980">
        <ele>2182.6</ele>
        <time>2017-07-26T11:14:16Z</time>
      </trkpt>
      <trkpt lat="44.8495660" lon="7.0648870">
        <ele>2182.2</ele>
        <time>2017-07-26T11:14:17Z</time>
      </trkpt>
      <trkpt lat="44.8496180" lon="7.0648860">
        <ele>2181.2</ele>
        <time>2017-07-26T11:14:19Z</time>
      </trkpt>
      <trkpt lat="44.8496470" lon="7.0648880">
        <ele>2180.8</ele>
        <time>2017-07-26T11:14:20Z</time>
      </trkpt>
      <trkpt lat="44.8496770" lon="7.0648650">
        <ele>2180.4</ele>
        <time>2017-07-26T11:14:21Z</time>
      </trkpt>
      <trkpt lat="44.8497040" lon="7.0648710">
        <ele>2179.6</ele>
        <time>2017-07-26T11:14:22Z</time>
      </trkpt>
      <trkpt lat="44.8497290" lon="7.0648510">
        <ele>2179.0</ele>
        <time>2017-07-26T11:14:23Z</time>
      </trkpt>
      <trkpt lat="44.8497510" lon="7.0648220">
        <ele>2178.4</ele>
        <time>2017-07-26T11:14:24Z</time>
      </trkpt>
      <trkpt lat="44.8497880" lon="7.0647920">
        <ele>2177.4</ele>
        <time>2017-07-26T11:14:26Z</time>
      </trkpt>
      <trkpt lat="44.8497970" lon="7.0647560">
        <ele>2177.0</ele>
        <time>2017-07-26T11:14:27Z</time>
      </trkpt>
      <trkpt lat="44.8498010" lon="7.0647280">
        <ele>2176.4</ele>
        <time>2017-07-26T11:14:28Z</time>
      </trkpt>
      <trkpt lat="44.8498090" lon="7.0647090">
        <ele>2174.0</ele>
        <time>2017-07-26T11:14:30Z</time>
      </trkpt>
      <trkpt lat="44.8498130" lon="7.0647090">
        <ele>2173.6</ele>
        <time>2017-07-26T11:14:31Z</time>
      </trkpt>
      <trkpt lat="44.8498250" lon="7.0647070">
        <ele>2173.2</ele>
        <time>2017-07-26T11:14:32Z</time>
      </trkpt>
      <trkpt lat="44.8498370" lon="7.0647070">
        <ele>2172.6</ele>
        <time>2017-07-26T11:14:33Z</time>
      </trkpt>
      <trkpt lat="44.8498650" lon="7.0646870">
        <ele>2171.6</ele>
        <time>2017-07-26T11:14:36Z</time>
      </trkpt>
      <trkpt lat="44.8498790" lon="7.0646790">
        <ele>2171.0</ele>
        <time>2017-07-26T11:14:37Z</time>
      </trkpt>
      <trkpt lat="44.8498880" lon="7.0646660">
        <ele>2170.4</ele>
        <time>2017-07-26T11:14:38Z</time>
      </trkpt>
      <trkpt lat="44.8498960" lon="7.0646230">
        <ele>2169.2</ele>
        <time>2017-07-26T11:14:40Z</time>
      </trkpt>
      <trkpt lat="44.8499210" lon="7.0645960">
        <ele>2168.0</ele>
        <time>2017-07-26T11:14:42Z</time>
      </trkpt>
      <trkpt lat="44.8499430" lon="7.0645450">
        <ele>2166.8</ele>
        <time>2017-07-26T11:14:45Z</time>
      </trkpt>
      <trkpt lat="44.8500120" lon="7.0644830">
        <ele>2157.4</ele>
        <time>2017-07-26T11:15:04Z</time>
      </trkpt>
      <trkpt lat="44.8500440" lon="7.0644420">
        <ele>2156.4</ele>
        <time>2017-07-26T11:15:06Z</time>
      </trkpt>
      <trkpt lat="44.8501160" lon="7.0643910">
        <ele>2155.2</ele>
        <time>2017-07-26T11:15:10Z</time>
      </trkpt>
      <trkpt lat="44.8501300" lon="7.0643750">
        <ele>2155.0</ele>
        <time>2017-07-26T11:15:11Z</time>
      </trkpt>
      <trkpt lat="44.8501500" lon="7.0643420">
        <ele>2154.2</ele>
        <time>2017-07-26T11:15:13Z</time>
      </trkpt>
      <trkpt lat="44.8501880" lon="7.0643160">
        <ele>2153.6</ele>
        <time>2017-07-26T11:15:15Z</time>
      </trkpt>
      <trkpt lat="44.8502090" lon="7.0642870">
        <ele>2153.4</ele>
        <time>2017-07-26T11:15:16Z</time>
      </trkpt>
      <trkpt lat="44.8502320" lon="7.0642650">
        <ele>2153.0</ele>
        <time>2017-07-26T11:15:17Z</time>
      </trkpt>
      <trkpt lat="44.8502630" lon="7.0642070">
        <ele>2151.8</ele>
        <time>2017-07-26T11:15:19Z</time>
      </trkpt>
      <trkpt lat="44.8502840" lon="7.0641350">
        <ele>2150.6</ele>
        <time>2017-07-26T11:15:21Z</time>
      </trkpt>
      <trkpt lat="44.8502790" lon="7.0641070">
        <ele>2149.6</ele>
        <time>2017-07-26T11:15:23Z</time>
      </trkpt>
      <trkpt lat="44.8502460" lon="7.0641140">
        <ele>2148.4</ele>
        <time>2017-07-26T11:15:25Z</time>
      </trkpt>
      <trkpt lat="44.8502170" lon="7.0640870">
        <ele>2146.8</ele>
        <time>2017-07-26T11:15:27Z</time>
      </trkpt>
      <trkpt lat="44.8502100" lon="7.0640600">
        <ele>2145.4</ele>
        <time>2017-07-26T11:15:29Z</time>
      </trkpt>
      <trkpt lat="44.8502170" lon="7.0640410">
        <ele>2145.0</ele>
        <time>2017-07-26T11:15:30Z</time>
      </trkpt>
      <trkpt lat="44.8502160" lon="7.0640180">
        <ele>2144.4</ele>
        <time>2017-07-26T11:15:31Z</time>
      </trkpt>
      <trkpt lat="44.8501700" lon="7.0639890">
        <ele>2141.0</ele>
        <time>2017-07-26T11:15:38Z</time>
      </trkpt>
      <trkpt lat="44.8501580" lon="7.0639590">
        <ele>2139.6</ele>
        <time>2017-07-26T11:15:41Z</time>
      </trkpt>
      <trkpt lat="44.8501720" lon="7.0639410">
        <ele>2138.4</ele>
        <time>2017-07-26T11:15:43Z</time>
      </trkpt>
      <trkpt lat="44.8501990" lon="7.0638870">
        <ele>2137.6</ele>
        <time>2017-07-26T11:15:48Z</time>
      </trkpt>
      <trkpt lat="44.8502470" lon="7.0638280">
        <ele>2137.4</ele>
        <time>2017-07-26T11:15:51Z</time>
      </trkpt>
      <trkpt lat="44.8502600" lon="7.0637840">
        <ele>2137.2</ele>
        <time>2017-07-26T11:15:53Z</time>
      </trkpt>
      <trkpt lat="44.8503250" lon="7.0636030">
        <ele>2138.2</ele>
        <time>2017-07-26T11:15:57Z</time>
      </trkpt>
      <trkpt lat="44.8503990" lon="7.0634580">
        <ele>2138.0</ele>
        <time>2017-07-26T11:16:01Z</time>
      </trkpt>
      <trkpt lat="44.8504950" lon="7.0633250">
        <ele>2137.6</ele>
        <time>2017-07-26T11:16:05Z</time>
      </trkpt>
      <trkpt lat="44.8505300" lon="7.0631940">
        <ele>2136.0</ele>
        <time>2017-07-26T11:16:07Z</time>
      </trkpt>
      <trkpt lat="44.8505460" lon="7.0631120">
        <ele>2135.8</ele>
        <time>2017-07-26T11:16:08Z</time>
      </trkpt>
      <trkpt lat="44.8505620" lon="7.0630440">
        <ele>2135.2</ele>
        <time>2017-07-26T11:16:09Z</time>
      </trkpt>
      <trkpt lat="44.8505810" lon="7.0630040">
        <ele>2134.6</ele>
        <time>2017-07-26T11:16:10Z</time>
      </trkpt>
      <trkpt lat="44.8506050" lon="7.0629110">
        <ele>2133.6</ele>
        <time>2017-07-26T11:16:12Z</time>
      </trkpt>
      <trkpt lat="44.8506130" lon="7.0628640">
        <ele>2133.4</ele>
        <time>2017-07-26T11:16:13Z</time>
      </trkpt>
      <trkpt lat="44.8505930" lon="7.0628300">
        <ele>2133.0</ele>
        <time>2017-07-26T11:16:14Z</time>
      </trkpt>
      <trkpt lat="44.8506050" lon="7.0627890">
        <ele>2132.2</ele>
        <time>2017-07-26T11:16:15Z</time>
      </trkpt>
      <trkpt lat="44.8506100" lon="7.0627570">
        <ele>2131.4</ele>
        <time>2017-07-26T11:16:16Z</time>
      </trkpt>
      <trkpt lat="44.8506200" lon="7.0627360">
        <ele>2131.0</ele>
        <time>2017-07-26T11:16:17Z</time>
      </trkpt>
      <trkpt lat="44.8506740" lon="7.0626870">
        <ele>2129.6</ele>
        <time>2017-07-26T11:16:20Z</time>
      </trkpt>
      <trkpt lat="44.8507050" lon="7.0626310">
        <ele>2128.4</ele>
        <time>2017-07-26T11:16:22Z</time>
      </trkpt>
      <trkpt lat="44.8507260" lon="7.0625630">
        <ele>2127.0</ele>
        <time>2017-07-26T11:16:24Z</time>
      </trkpt>
      <trkpt lat="44.8507380" lon="7.0625450">
        <ele>2126.4</ele>
        <time>2017-07-26T11:16:25Z</time>
      </trkpt>
      <trkpt lat="44.8507500" lon="7.0625450">
        <ele>2125.6</ele>
        <time>2017-07-26T11:16:26Z</time>
      </trkpt>
      <trkpt lat="44.8507830" lon="7.0625430">
        <ele>2124.2</ele>
        <time>2017-07-26T11:16:28Z</time>
      </trkpt>
      <trkpt lat="44.8508080" lon="7.0625270">
        <ele>2123.4</ele>
        <time>2017-07-26T11:16:29Z</time>
      </trkpt>
      <trkpt lat="44.8508240" lon="7.0625250">
        <ele>2122.2</ele>
        <time>2017-07-26T11:16:30Z</time>
      </trkpt>
      <trkpt lat="44.8508520" lon="7.0625420">
        <ele>2120.8</ele>
        <time>2017-07-26T11:16:32Z</time>
      </trkpt>
      <trkpt lat="44.8508690" lon="7.0625550">
        <ele>2120.0</ele>
        <time>2017-07-26T11:16:33Z</time>
      </trkpt>
      <trkpt lat="44.8508780" lon="7.0625900">
        <ele>2119.0</ele>
        <time>2017-07-26T11:16:34Z</time>
      </trkpt>
      <trkpt lat="44.8509130" lon="7.0625600">
        <ele>2117.4</ele>
        <time>2017-07-26T11:16:36Z</time>
      </trkpt>
      <trkpt lat="44.8509460" lon="7.0625050">
        <ele>2116.2</ele>
        <time>2017-07-26T11:16:38Z</time>
      </trkpt>
      <trkpt lat="44.8509910" lon="7.0624800">
        <ele>2114.8</ele>
        <time>2017-07-26T11:16:40Z</time>
      </trkpt>
      <trkpt lat="44.8509990" lon="7.0624520">
        <ele>2114.2</ele>
        <time>2017-07-26T11:16:41Z</time>
      </trkpt>
      <trkpt lat="44.8510090" lon="7.0624480">
        <ele>2113.4</ele>
        <time>2017-07-26T11:16:42Z</time>
      </trkpt>
      <trkpt lat="44.8510240" lon="7.0624310">
        <ele>2112.8</ele>
        <time>2017-07-26T11:16:43Z</time>
      </trkpt>
      <trkpt lat="44.8510480" lon="7.0624270">
        <ele>2112.2</ele>
        <time>2017-07-26T11:16:44Z</time>
      </trkpt>
      <trkpt lat="44.8510820" lon="7.0623700">
        <ele>2110.8</ele>
        <time>2017-07-26T11:16:46Z</time>
      </trkpt>
      <trkpt lat="44.8511020" lon="7.0623710">
        <ele>2110.2</ele>
        <time>2017-07-26T11:16:47Z</time>
      </trkpt>
      <trkpt lat="44.8511170" lon="7.0623870">
        <ele>2109.6</ele>
        <time>2017-07-26T11:16:48Z</time>
      </trkpt>
      <trkpt lat="44.8511560" lon="7.0623790">
        <ele>2108.2</ele>
        <time>2017-07-26T11:16:50Z</time>
      </trkpt>
      <trkpt lat="44.8511870" lon="7.0623680">
        <ele>2107.6</ele>
        <time>2017-07-26T11:16:51Z</time>
      </trkpt>
      <trkpt lat="44.8512180" lon="7.0623800">
        <ele>2106.8</ele>
        <time>2017-07-26T11:16:52Z</time>
      </trkpt>
      <trkpt lat="44.8512570" lon="7.0623770">
        <ele>2105.0</ele>
        <time>2017-07-26T11:16:54Z</time>
      </trkpt>
      <trkpt lat="44.8512710" lon="7.0623530">
        <ele>2104.2</ele>
        <time>2017-07-26T11:16:55Z</time>
      </trkpt>
      <trkpt lat="44.8512750" lon="7.0623370">
        <ele>2103.4</ele>
        <time>2017-07-26T11:16:56Z</time>
      </trkpt>
      <trkpt lat="44.8513000" lon="7.0623050">
        <ele>2102.2</ele>
        <time>2017-07-26T11:16:58Z</time>
      </trkpt>
      <trkpt lat="44.8513170" lon="7.0622780">
        <ele>2101.6</ele>
        <time>2017-07-26T11:16:59Z</time>
      </trkpt>
      <trkpt lat="44.8513270" lon="7.0622520">
        <ele>2100.8</ele>
        <time>2017-07-26T11:17:00Z</time>
      </trkpt>
      <trkpt lat="44.8513400" lon="7.0622260">
        <ele>2099.4</ele>
        <time>2017-07-26T11:17:02Z</time>
      </trkpt>
      <trkpt lat="44.8513610" lon="7.0622220">
        <ele>2098.8</ele>
        <time>2017-07-26T11:17:03Z</time>
      </trkpt>
      <trkpt lat="44.8513770" lon="7.0622270">
        <ele>2098.2</ele>
        <time>2017-07-26T11:17:04Z</time>
      </trkpt>
      <trkpt lat="44.8513880" lon="7.0622370">
        <ele>2097.2</ele>
        <time>2017-07-26T11:17:06Z</time>
      </trkpt>
      <trkpt lat="44.8514520" lon="7.0621110">
        <ele>2089.6</ele>
        <time>2017-07-26T11:17:18Z</time>
      </trkpt>
      <trkpt lat="44.8514480" lon="7.0620830">
        <ele>2089.2</ele>
        <time>2017-07-26T11:17:19Z</time>
      </trkpt>
      <trkpt lat="44.8514430" lon="7.0620540">
        <ele>2088.4</ele>
        <time>2017-07-26T11:17:20Z</time>
      </trkpt>
      <trkpt lat="44.8514500" lon="7.0620340">
        <ele>2087.6</ele>
        <time>2017-07-26T11:17:21Z</time>
      </trkpt>
      <trkpt lat="44.8514600" lon="7.0620170">
        <ele>2087.0</ele>
        <time>2017-07-26T11:17:22Z</time>
      </trkpt>
      <trkpt lat="44.8514830" lon="7.0620160">
        <ele>2086.4</ele>
        <time>2017-07-26T11:17:23Z</time>
      </trkpt>
      <trkpt lat="44.8515060" lon="7.0620330">
        <ele>2085.8</ele>
        <time>2017-07-26T11:17:24Z</time>
      </trkpt>
      <trkpt lat="44.8515500" lon="7.0620500">
        <ele>2084.6</ele>
        <time>2017-07-26T11:17:26Z</time>
      </trkpt>
      <trkpt lat="44.8515730" lon="7.0620360">
        <ele>2084.0</ele>
        <time>2017-07-26T11:17:27Z</time>
      </trkpt>
      <trkpt lat="44.8515960" lon="7.0620260">
        <ele>2083.6</ele>
        <time>2017-07-26T11:17:28Z</time>
      </trkpt>
      <trkpt lat="44.8516090" lon="7.0620060">
        <ele>2083.0</ele>
        <time>2017-07-26T11:17:29Z</time>
      </trkpt>
      <trkpt lat="44.8516370" lon="7.0619570">
        <ele>2082.0</ele>
        <time>2017-07-26T11:17:31Z</time>
      </trkpt>
      <trkpt lat="44.8516470" lon="7.0619270">
        <ele>2081.2</ele>
        <time>2017-07-26T11:17:32Z</time>
      </trkpt>
      <trkpt lat="44.8516610" lon="7.0619150">
        <ele>2080.8</ele>
        <time>2017-07-26T11:17:33Z</time>
      </trkpt>
      <trkpt lat="44.8516680" lon="7.0618650">
        <ele>2079.4</ele>
        <time>2017-07-26T11:17:35Z</time>
      </trkpt>
      <trkpt lat="44.8516650" lon="7.0618340">
        <ele>2078.4</ele>
        <time>2017-07-26T11:17:36Z</time>
      </trkpt>
      <trkpt lat="44.8516620" lon="7.0618120">
        <ele>2077.6</ele>
        <time>2017-07-26T11:17:37Z</time>
      </trkpt>
      <trkpt lat="44.8516690" lon="7.0617800">
        <ele>2076.0</ele>
        <time>2017-07-26T11:17:39Z</time>
      </trkpt>
      <trkpt lat="44.8516760" lon="7.0617570">
        <ele>2074.4</ele>
        <time>2017-07-26T11:17:41Z</time>
      </trkpt>
      <trkpt lat="44.8516730" lon="7.0617380">
        <ele>2073.0</ele>
        <time>2017-07-26T11:17:42Z</time>
      </trkpt>
      <trkpt lat="44.8516820" lon="7.0617220">
        <ele>2071.8</ele>
        <time>2017-07-26T11:17:44Z</time>
      </trkpt>
      <trkpt lat="44.8517010" lon="7.0617090">
        <ele>2071.2</ele>
        <time>2017-07-26T11:17:46Z</time>
      </trkpt>
      <trkpt lat="44.8517130" lon="7.0616950">
        <ele>2070.8</ele>
        <time>2017-07-26T11:17:47Z</time>
      </trkpt>
      <trkpt lat="44.8517130" lon="7.0616520">
        <ele>2069.6</ele>
        <time>2017-07-26T11:17:49Z</time>
      </trkpt>
      <trkpt lat="44.8516920" lon="7.0616360">
        <ele>2068.4</ele>
        <time>2017-07-26T11:17:51Z</time>
      </trkpt>
      <trkpt lat="44.8517090" lon="7.0616030">
        <ele>2067.6</ele>
        <time>2017-07-26T11:17:53Z</time>
      </trkpt>
      <trkpt lat="44.8517270" lon="7.0615850">
        <ele>2067.2</ele>
        <time>2017-07-26T11:17:54Z</time>
      </trkpt>
      <trkpt lat="44.8517500" lon="7.0615830">
        <ele>2066.6</ele>
        <time>2017-07-26T11:17:55Z</time>
      </trkpt>
      <trkpt lat="44.8517760" lon="7.0615800">
        <ele>2065.8</ele>
        <time>2017-07-26T11:17:57Z</time>
      </trkpt>
      <trkpt lat="44.8518370" lon="7.0615220">
        <ele>2061.4</ele>
        <time>2017-07-26T11:18:15Z</time>
      </trkpt>
      <trkpt lat="44.8518920" lon="7.0614920">
        <ele>2060.4</ele>
        <time>2017-07-26T11:18:19Z</time>
      </trkpt>
      <trkpt lat="44.8519660" lon="7.0614220">
        <ele>2057.8</ele>
        <time>2017-07-26T11:18:32Z</time>
      </trkpt>
      <trkpt lat="44.8519940" lon="7.0614130">
        <ele>2057.6</ele>
        <time>2017-07-26T11:18:33Z</time>
      </trkpt>
      <trkpt lat="44.8520300" lon="7.0614200">
        <ele>2057.6</ele>
        <time>2017-07-26T11:18:34Z</time>
      </trkpt>
      <trkpt lat="44.8520920" lon="7.0613670">
        <ele>2057.2</ele>
        <time>2017-07-26T11:18:36Z</time>
      </trkpt>
      <trkpt lat="44.8521360" lon="7.0612950">
        <ele>2056.8</ele>
        <time>2017-07-26T11:18:38Z</time>
      </trkpt>
      <trkpt lat="44.8521810" lon="7.0612300">
        <ele>2056.4</ele>
        <time>2017-07-26T11:18:40Z</time>
      </trkpt>
      <trkpt lat="44.8522260" lon="7.0611770">
        <ele>2055.4</ele>
        <time>2017-07-26T11:18:42Z</time>
      </trkpt>
      <trkpt lat="44.8522440" lon="7.0611410">
        <ele>2054.8</ele>
        <time>2017-07-26T11:18:43Z</time>
      </trkpt>
      <trkpt lat="44.8522800" lon="7.0610900">
        <ele>2054.4</ele>
        <time>2017-07-26T11:18:44Z</time>
      </trkpt>
      <trkpt lat="44.8523470" lon="7.0609800">
        <ele>2053.0</ele>
        <time>2017-07-26T11:18:46Z</time>
      </trkpt>
      <trkpt lat="44.8523800" lon="7.0609270">
        <ele>2051.8</ele>
        <time>2017-07-26T11:18:47Z</time>
      </trkpt>
      <trkpt lat="44.8524280" lon="7.0608700">
        <ele>2051.0</ele>
        <time>2017-07-26T11:18:48Z</time>
      </trkpt>
      <trkpt lat="44.8524690" lon="7.0608020">
        <ele>2050.2</ele>
        <time>2017-07-26T11:18:49Z</time>
      </trkpt>
      <trkpt lat="44.8525060" lon="7.0607390">
        <ele>2049.4</ele>
        <time>2017-07-26T11:18:50Z</time>
      </trkpt>
      <trkpt lat="44.8525230" lon="7.0606950">
        <ele>2048.4</ele>
        <time>2017-07-26T11:18:51Z</time>
      </trkpt>
      <trkpt lat="44.8525330" lon="7.0606590">
        <ele>2047.2</ele>
        <time>2017-07-26T11:18:52Z</time>
      </trkpt>
      <trkpt lat="44.8525200" lon="7.0606350">
        <ele>2046.4</ele>
        <time>2017-07-26T11:18:53Z</time>
      </trkpt>
      <trkpt lat="44.8525240" lon="7.0606140">
        <ele>2045.0</ele>
        <time>2017-07-26T11:18:54Z</time>
      </trkpt>
      <trkpt lat="44.8525540" lon="7.0605520">
        <ele>2043.2</ele>
        <time>2017-07-26T11:18:56Z</time>
      </trkpt>
      <trkpt lat="44.8525760" lon="7.0605220">
        <ele>2042.4</ele>
        <time>2017-07-26T11:18:57Z</time>
      </trkpt>
      <trkpt lat="44.8525970" lon="7.0604950">
        <ele>2041.8</ele>
        <time>2017-07-26T11:18:58Z</time>
      </trkpt>
      <trkpt lat="44.8526170" lon="7.0604480">
        <ele>2040.2</ele>
        <time>2017-07-26T11:19:00Z</time>
      </trkpt>
      <trkpt lat="44.8526390" lon="7.0604100">
        <ele>2038.8</ele>
        <time>2017-07-26T11:19:02Z</time>
      </trkpt>
      <trkpt lat="44.8526650" lon="7.0603620">
        <ele>2037.6</ele>
        <time>2017-07-26T11:19:04Z</time>
      </trkpt>
      <trkpt lat="44.8526960" lon="7.0603110">
        <ele>2036.2</ele>
        <time>2017-07-26T11:19:06Z</time>
      </trkpt>
      <trkpt lat="44.8527340" lon="7.0602810">
        <ele>2034.4</ele>
        <time>2017-07-26T11:19:08Z</time>
      </trkpt>
      <trkpt lat="44.8527640" lon="7.0602300">
        <ele>2032.8</ele>
        <time>2017-07-26T11:19:10Z</time>
      </trkpt>
      <trkpt lat="44.8527730" lon="7.0602060">
        <ele>2031.8</ele>
        <time>2017-07-26T11:19:11Z</time>
      </trkpt>
      <trkpt lat="44.8527750" lon="7.0601810">
        <ele>2030.6</ele>
        <time>2017-07-26T11:19:12Z</time>
      </trkpt>
      <trkpt lat="44.8527780" lon="7.0601320">
        <ele>2029.6</ele>
        <time>2017-07-26T11:19:13Z</time>
      </trkpt>
      <trkpt lat="44.8527750" lon="7.0600190">
        <ele>2027.8</ele>
        <time>2017-07-26T11:19:15Z</time>
      </trkpt>
      <trkpt lat="44.8527740" lon="7.0599290">
        <ele>2026.0</ele>
        <time>2017-07-26T11:19:17Z</time>
      </trkpt>
      <trkpt lat="44.8527570" lon="7.0598850">
        <ele>2024.6</ele>
        <time>2017-07-26T11:19:18Z</time>
      </trkpt>
      <trkpt lat="44.8527210" lon="7.0598510">
        <ele>2022.8</ele>
        <time>2017-07-26T11:19:20Z</time>
      </trkpt>
      <trkpt lat="44.8526710" lon="7.0598210">
        <ele>2021.4</ele>
        <time>2017-07-26T11:19:22Z</time>
      </trkpt>
      <trkpt lat="44.8526140" lon="7.0597870">
        <ele>2019.4</ele>
        <time>2017-07-26T11:19:24Z</time>
      </trkpt>
      <trkpt lat="44.8525910" lon="7.0597770">
        <ele>2018.4</ele>
        <time>2017-07-26T11:19:25Z</time>
      </trkpt>
      <trkpt lat="44.8525820" lon="7.0597580">
        <ele>2017.2</ele>
        <time>2017-07-26T11:19:26Z</time>
      </trkpt>
      <trkpt lat="44.8525810" lon="7.0597350">
        <ele>2016.4</ele>
        <time>2017-07-26T11:19:27Z</time>
      </trkpt>
      <trkpt lat="44.8525840" lon="7.0597060">
        <ele>2015.6</ele>
        <time>2017-07-26T11:19:28Z</time>
      </trkpt>
      <trkpt lat="44.8526160" lon="7.0595020">
        <ele>2006.2</ele>
        <time>2017-07-26T11:19:44Z</time>
      </trkpt>
      <trkpt lat="44.8526160" lon="7.0594710">
        <ele>2006.0</ele>
        <time>2017-07-26T11:19:45Z</time>
      </trkpt>
      <trkpt lat="44.8526030" lon="7.0593860">
        <ele>2005.0</ele>
        <time>2017-07-26T11:19:47Z</time>
      </trkpt>
      <trkpt lat="44.8525850" lon="7.0593190">
        <ele>2003.6</ele>
        <time>2017-07-26T11:19:49Z</time>
      </trkpt>
      <trkpt lat="44.8525740" lon="7.0592510">
        <ele>2002.4</ele>
        <time>2017-07-26T11:19:51Z</time>
      </trkpt>
      <trkpt lat="44.8525810" lon="7.0592340">
        <ele>2001.8</ele>
        <time>2017-07-26T11:19:52Z</time>
      </trkpt>
      <trkpt lat="44.8525850" lon="7.0592080">
        <ele>2001.2</ele>
        <time>2017-07-26T11:19:53Z</time>
      </trkpt>
      <trkpt lat="44.8525790" lon="7.0591670">
        <ele>1999.8</ele>
        <time>2017-07-26T11:19:55Z</time>
      </trkpt>
      <trkpt lat="44.8525740" lon="7.0590990">
        <ele>1998.2</ele>
        <time>2017-07-26T11:19:57Z</time>
      </trkpt>
      <trkpt lat="44.8525710" lon="7.0590400">
        <ele>1996.8</ele>
        <time>2017-07-26T11:19:59Z</time>
      </trkpt>
      <trkpt lat="44.8526060" lon="7.0589860">
        <ele>1991.8</ele>
        <time>2017-07-26T11:20:06Z</time>
      </trkpt>
      <trkpt lat="44.8526220" lon="7.0589670">
        <ele>1991.2</ele>
        <time>2017-07-26T11:20:07Z</time>
      </trkpt>
      <trkpt lat="44.8526320" lon="7.0589470">
        <ele>1990.6</ele>
        <time>2017-07-26T11:20:08Z</time>
      </trkpt>
      <trkpt lat="44.8526950" lon="7.0589310">
        <ele>1985.0</ele>
        <time>2017-07-26T11:20:24Z</time>
      </trkpt>
      <trkpt lat="44.8527020" lon="7.0589180">
        <ele>1984.6</ele>
        <time>2017-07-26T11:20:25Z</time>
      </trkpt>
      <trkpt lat="44.8527150" lon="7.0588920">
        <ele>1983.8</ele>
        <time>2017-07-26T11:20:27Z</time>
      </trkpt>
      <trkpt lat="44.8527410" lon="7.0588540">
        <ele>1982.2</ele>
        <time>2017-07-26T11:20:30Z</time>
      </trkpt>
      <trkpt lat="44.8527730" lon="7.0588160">
        <ele>1981.0</ele>
        <time>2017-07-26T11:20:33Z</time>
      </trkpt>
      <trkpt lat="44.8528100" lon="7.0588100">
        <ele>1980.0</ele>
        <time>2017-07-26T11:20:38Z</time>
      </trkpt>
      <trkpt lat="44.8528330" lon="7.0587970">
        <ele>1979.8</ele>
        <time>2017-07-26T11:20:39Z</time>
      </trkpt>
      <trkpt lat="44.8528650" lon="7.0587810">
        <ele>1979.4</ele>
        <time>2017-07-26T11:20:40Z</time>
      </trkpt>
      <trkpt lat="44.8529940" lon="7.0586790">
        <ele>1979.4</ele>
        <time>2017-07-26T11:20:45Z</time>
      </trkpt>
      <trkpt lat="44.8530510" lon="7.0586240">
        <ele>1979.2</ele>
        <time>2017-07-26T11:20:48Z</time>
      </trkpt>
      <trkpt lat="44.8531060" lon="7.0586210">
        <ele>1979.6</ele>
        <time>2017-07-26T11:20:50Z</time>
      </trkpt>
      <trkpt lat="44.8531730" lon="7.0585900">
        <ele>1978.0</ele>
        <time>2017-07-26T11:20:54Z</time>
      </trkpt>
      <trkpt lat="44.8531730" lon="7.0585260">
        <ele>1977.0</ele>
        <time>2017-07-26T11:20:56Z</time>
      </trkpt>
      <trkpt lat="44.8531900" lon="7.0585050">
        <ele>1976.6</ele>
        <time>2017-07-26T11:20:57Z</time>
      </trkpt>
      <trkpt lat="44.8532370" lon="7.0585130">
        <ele>1975.6</ele>
        <time>2017-07-26T11:20:59Z</time>
      </trkpt>
      <trkpt lat="44.8532660" lon="7.0585130">
        <ele>1975.0</ele>
        <time>2017-07-26T11:21:00Z</time>
      </trkpt>
      <trkpt lat="44.8532960" lon="7.0585070">
        <ele>1974.6</ele>
        <time>2017-07-26T11:21:01Z</time>
      </trkpt>
      <trkpt lat="44.8533720" lon="7.0585580">
        <ele>1973.2</ele>
        <time>2017-07-26T11:21:04Z</time>
      </trkpt>
      <trkpt lat="44.8534300" lon="7.0586810">
        <ele>1971.8</ele>
        <time>2017-07-26T11:21:06Z</time>
      </trkpt>
      <trkpt lat="44.8534600" lon="7.0587350">
        <ele>1971.0</ele>
        <time>2017-07-26T11:21:07Z</time>
      </trkpt>
      <trkpt lat="44.8534900" lon="7.0587960">
        <ele>1970.2</ele>
        <time>2017-07-26T11:21:08Z</time>
      </trkpt>
      <trkpt lat="44.8535430" lon="7.0588920">
        <ele>1968.4</ele>
        <time>2017-07-26T11:21:10Z</time>
      </trkpt>
      <trkpt lat="44.8535630" lon="7.0589250">
        <ele>1967.4</ele>
        <time>2017-07-26T11:21:11Z</time>
      </trkpt>
      <trkpt lat="44.8535990" lon="7.0589750">
        <ele>1966.0</ele>
        <time>2017-07-26T11:21:13Z</time>
      </trkpt>
      <trkpt lat="44.8536410" lon="7.0590340">
        <ele>1964.6</ele>
        <time>2017-07-26T11:21:15Z</time>
      </trkpt>
      <trkpt lat="44.8536640" lon="7.0590590">
        <ele>1963.8</ele>
        <time>2017-07-26T11:21:16Z</time>
      </trkpt>
      <trkpt lat="44.8536910" lon="7.0590690">
        <ele>1963.2</ele>
        <time>2017-07-26T11:21:17Z</time>
      </trkpt>
      <trkpt lat="44.8537200" lon="7.0590670">
        <ele>1962.0</ele>
        <time>2017-07-26T11:21:18Z</time>
      </trkpt>
      <trkpt lat="44.8537500" lon="7.0590570">
        <ele>1961.4</ele>
        <time>2017-07-26T11:21:19Z</time>
      </trkpt>
      <trkpt lat="44.8538180" lon="7.0590220">
        <ele>1961.0</ele>
        <time>2017-07-26T11:21:21Z</time>
      </trkpt>
      <trkpt lat="44.8538640" lon="7.0590030">
        <ele>1960.2</ele>
        <time>2017-07-26T11:21:23Z</time>
      </trkpt>
      <trkpt lat="44.8539260" lon="7.0590010">
        <ele>1959.6</ele>
        <time>2017-07-26T11:21:25Z</time>
      </trkpt>
      <trkpt lat="44.8539860" lon="7.0590090">
        <ele>1958.8</ele>
        <time>2017-07-26T11:21:27Z</time>
      </trkpt>
      <trkpt lat="44.8540140" lon="7.0590050">
        <ele>1958.4</ele>
        <time>2017-07-26T11:21:28Z</time>
      </trkpt>
      <trkpt lat="44.8540660" lon="7.0589670">
        <ele>1957.8</ele>
        <time>2017-07-26T11:21:30Z</time>
      </trkpt>
      <trkpt lat="44.8540950" lon="7.0589490">
        <ele>1957.4</ele>
        <time>2017-07-26T11:21:31Z</time>
      </trkpt>
      <trkpt lat="44.8541520" lon="7.0589160">
        <ele>1956.0</ele>
        <time>2017-07-26T11:21:33Z</time>
      </trkpt>
      <trkpt lat="44.8541880" lon="7.0588870">
        <ele>1955.6</ele>
        <time>2017-07-26T11:21:34Z</time>
      </trkpt>
      <trkpt lat="44.8542230" lon="7.0588410">
        <ele>1955.2</ele>
        <time>2017-07-26T11:21:35Z</time>
      </trkpt>
      <trkpt lat="44.8542520" lon="7.0587860">
        <ele>1954.6</ele>
        <time>2017-07-26T11:21:36Z</time>
      </trkpt>
      <trkpt lat="44.8542980" lon="7.0586710">
        <ele>1953.2</ele>
        <time>2017-07-26T11:21:38Z</time>
      </trkpt>
      <trkpt lat="44.8543260" lon="7.0586200">
        <ele>1952.6</ele>
        <time>2017-07-26T11:21:39Z</time>
      </trkpt>
      <trkpt lat="44.8543550" lon="7.0585840">
        <ele>1951.2</ele>
        <time>2017-07-26T11:21:40Z</time>
      </trkpt>
      <trkpt lat="44.8544090" lon="7.0585740">
        <ele>1948.8</ele>
        <time>2017-07-26T11:21:42Z</time>
      </trkpt>
      <trkpt lat="44.8544350" lon="7.0585850">
        <ele>1948.0</ele>
        <time>2017-07-26T11:21:43Z</time>
      </trkpt>
      <trkpt lat="44.8544580" lon="7.0586090">
        <ele>1947.0</ele>
        <time>2017-07-26T11:21:44Z</time>
      </trkpt>
      <trkpt lat="44.8545010" lon="7.0586560">
        <ele>1945.4</ele>
        <time>2017-07-26T11:21:46Z</time>
      </trkpt>
      <trkpt lat="44.8545150" lon="7.0586570">
        <ele>1944.6</ele>
        <time>2017-07-26T11:21:47Z</time>
      </trkpt>
      <trkpt lat="44.8545330" lon="7.0586590">
        <ele>1943.8</ele>
        <time>2017-07-26T11:21:48Z</time>
      </trkpt>
      <trkpt lat="44.8545480" lon="7.0586550">
        <ele>1943.4</ele>
        <time>2017-07-26T11:21:49Z</time>
      </trkpt>
      <trkpt lat="44.8545670" lon="7.0586420">
        <ele>1942.2</ele>
        <time>2017-07-26T11:21:51Z</time>
      </trkpt>
      <trkpt lat="44.8545770" lon="7.0586360">
        <ele>1941.8</ele>
        <time>2017-07-26T11:21:52Z</time>
      </trkpt>
      <trkpt lat="44.8545890" lon="7.0586180">
        <ele>1941.4</ele>
        <time>2017-07-26T11:21:53Z</time>
      </trkpt>
      <trkpt lat="44.8546030" lon="7.0585910">
        <ele>1940.8</ele>
        <time>2017-07-26T11:21:54Z</time>
      </trkpt>
      <trkpt lat="44.8546340" lon="7.0585280">
        <ele>1939.4</ele>
        <time>2017-07-26T11:21:56Z</time>
      </trkpt>
      <trkpt lat="44.8546670" lon="7.0584290">
        <ele>1938.6</ele>
        <time>2017-07-26T11:21:58Z</time>
      </trkpt>
      <trkpt lat="44.8546860" lon="7.0583760">
        <ele>1938.2</ele>
        <time>2017-07-26T11:21:59Z</time>
      </trkpt>
      <trkpt lat="44.8547340" lon="7.0583020">
        <ele>1936.8</ele>
        <time>2017-07-26T11:22:01Z</time>
      </trkpt>
      <trkpt lat="44.8547590" lon="7.0582430">
        <ele>1935.8</ele>
        <time>2017-07-26T11:22:03Z</time>
      </trkpt>
      <trkpt lat="44.8547750" lon="7.0582230">
        <ele>1935.2</ele>
        <time>2017-07-26T11:22:04Z</time>
      </trkpt>
      <trkpt lat="44.8548110" lon="7.0582020">
        <ele>1934.0</ele>
        <time>2017-07-26T11:22:06Z</time>
      </trkpt>
      <trkpt lat="44.8548240" lon="7.0581960">
        <ele>1933.6</ele>
        <time>2017-07-26T11:22:07Z</time>
      </trkpt>
      <trkpt lat="44.8548610" lon="7.0581730">
        <ele>1932.8</ele>
        <time>2017-07-26T11:22:10Z</time>
      </trkpt>
      <trkpt lat="44.8548950" lon="7.0581430">
        <ele>1932.0</ele>
        <time>2017-07-26T11:22:12Z</time>
      </trkpt>
      <trkpt lat="44.8549540" lon="7.0580910">
        <ele>1931.4</ele>
        <time>2017-07-26T11:22:14Z</time>
      </trkpt>
      <trkpt lat="44.8550440" lon="7.0580340">
        <ele>1930.6</ele>
        <time>2017-07-26T11:22:16Z</time>
      </trkpt>
      <trkpt lat="44.8550900" lon="7.0580100">
        <ele>1930.0</ele>
        <time>2017-07-26T11:22:17Z</time>
      </trkpt>
      <trkpt lat="44.8551690" lon="7.0579820">
        <ele>1928.6</ele>
        <time>2017-07-26T11:22:19Z</time>
      </trkpt>
      <trkpt lat="44.8551950" lon="7.0579530">
        <ele>1928.4</ele>
        <time>2017-07-26T11:22:20Z</time>
      </trkpt>
      <trkpt lat="44.8552770" lon="7.0578530">
        <ele>1927.2</ele>
        <time>2017-07-26T11:22:23Z</time>
      </trkpt>
      <trkpt lat="44.8553070" lon="7.0578310">
        <ele>1926.8</ele>
        <time>2017-07-26T11:22:24Z</time>
      </trkpt>
      <trkpt lat="44.8553370" lon="7.0578050">
        <ele>1926.0</ele>
        <time>2017-07-26T11:22:25Z</time>
      </trkpt>
      <trkpt lat="44.8553640" lon="7.0577680">
        <ele>1925.6</ele>
        <time>2017-07-26T11:22:26Z</time>
      </trkpt>
      <trkpt lat="44.8553900" lon="7.0577170">
        <ele>1925.0</ele>
        <time>2017-07-26T11:22:27Z</time>
      </trkpt>
      <trkpt lat="44.8554190" lon="7.0576600">
        <ele>1924.2</ele>
        <time>2017-07-26T11:22:28Z</time>
      </trkpt>
      <trkpt lat="44.8554490" lon="7.0576070">
        <ele>1923.2</ele>
        <time>2017-07-26T11:22:29Z</time>
      </trkpt>
      <trkpt lat="44.8554830" lon="7.0575510">
        <ele>1921.6</ele>
        <time>2017-07-26T11:22:30Z</time>
      </trkpt>
      <trkpt lat="44.8555150" lon="7.0574950">
        <ele>1920.4</ele>
        <time>2017-07-26T11:22:31Z</time>
      </trkpt>
      <trkpt lat="44.8555460" lon="7.0574490">
        <ele>1919.2</ele>
        <time>2017-07-26T11:22:32Z</time>
      </trkpt>
      <trkpt lat="44.8556210" lon="7.0573830">
        <ele>1917.6</ele>
        <time>2017-07-26T11:22:34Z</time>
      </trkpt>
      <trkpt lat="44.8556960" lon="7.0573280">
        <ele>1916.4</ele>
        <time>2017-07-26T11:22:36Z</time>
      </trkpt>
      <trkpt lat="44.8557400" lon="7.0572900">
        <ele>1915.0</ele>
        <time>2017-07-26T11:22:38Z</time>
      </trkpt>
      <trkpt lat="44.8557550" lon="7.0572720">
        <ele>1914.4</ele>
        <time>2017-07-26T11:22:39Z</time>
      </trkpt>
      <trkpt lat="44.8557670" lon="7.0572500">
        <ele>1913.6</ele>
        <time>2017-07-26T11:22:40Z</time>
      </trkpt>
      <trkpt lat="44.8557920" lon="7.0571930">
        <ele>1912.2</ele>
        <time>2017-07-26T11:22:42Z</time>
      </trkpt>
      <trkpt lat="44.8558200" lon="7.0571300">
        <ele>1911.0</ele>
        <time>2017-07-26T11:22:44Z</time>
      </trkpt>
      <trkpt lat="44.8558510" lon="7.0570730">
        <ele>1909.2</ele>
        <time>2017-07-26T11:22:46Z</time>
      </trkpt>
      <trkpt lat="44.8558860" lon="7.0570230">
        <ele>1907.4</ele>
        <time>2017-07-26T11:22:48Z</time>
      </trkpt>
      <trkpt lat="44.8559070" lon="7.0569900">
        <ele>1905.8</ele>
        <time>2017-07-26T11:22:50Z</time>
      </trkpt>
      <trkpt lat="44.8559350" lon="7.0569460">
        <ele>1904.4</ele>
        <time>2017-07-26T11:22:52Z</time>
      </trkpt>
      <trkpt lat="44.8559500" lon="7.0569270">
        <ele>1903.6</ele>
        <time>2017-07-26T11:22:53Z</time>
      </trkpt>
      <trkpt lat="44.8559650" lon="7.0569160">
        <ele>1902.0</ele>
        <time>2017-07-26T11:22:54Z</time>
      </trkpt>
      <trkpt lat="44.8559770" lon="7.0569060">
        <ele>1901.4</ele>
        <time>2017-07-26T11:22:55Z</time>
      </trkpt>
      <trkpt lat="44.8560700" lon="7.0568020">
        <ele>1890.8</ele>
        <time>2017-07-26T11:23:20Z</time>
      </trkpt>
      <trkpt lat="44.8560820" lon="7.0567820">
        <ele>1890.4</ele>
        <time>2017-07-26T11:23:21Z</time>
      </trkpt>
      <trkpt lat="44.8560960" lon="7.0567610">
        <ele>1890.0</ele>
        <time>2017-07-26T11:23:22Z</time>
      </trkpt>
      <trkpt lat="44.8561100" lon="7.0567400">
        <ele>1889.6</ele>
        <time>2017-07-26T11:23:23Z</time>
      </trkpt>
      <trkpt lat="44.8561430" lon="7.0566770">
        <ele>1888.2</ele>
        <time>2017-07-26T11:23:26Z</time>
      </trkpt>
      <trkpt lat="44.8562010" lon="7.0565800">
        <ele>1882.4</ele>
        <time>2017-07-26T11:23:39Z</time>
      </trkpt>
      <trkpt lat="44.8562500" lon="7.0565160">
        <ele>1880.6</ele>
        <time>2017-07-26T11:23:42Z</time>
      </trkpt>
      <trkpt lat="44.8562930" lon="7.0565050">
        <ele>1879.6</ele>
        <time>2017-07-26T11:23:45Z</time>
      </trkpt>
      <trkpt lat="44.8563070" lon="7.0564970">
        <ele>1879.2</ele>
        <time>2017-07-26T11:23:46Z</time>
      </trkpt>
      <trkpt lat="44.8563250" lon="7.0564790">
        <ele>1879.0</ele>
        <time>2017-07-26T11:23:47Z</time>
      </trkpt>
      <trkpt lat="44.8563700" lon="7.0564280">
        <ele>1878.6</ele>
        <time>2017-07-26T11:23:49Z</time>
      </trkpt>
      <trkpt lat="44.8564640" lon="7.0563920">
        <ele>1877.4</ele>
        <time>2017-07-26T11:23:52Z</time>
      </trkpt>
      <trkpt lat="44.8564880" lon="7.0563960">
        <ele>1876.8</ele>
        <time>2017-07-26T11:23:53Z</time>
      </trkpt>
      <trkpt lat="44.8565060" lon="7.0563960">
        <ele>1876.4</ele>
        <time>2017-07-26T11:23:54Z</time>
      </trkpt>
      <trkpt lat="44.8565950" lon="7.0564320">
        <ele>1869.4</ele>
        <time>2017-07-26T11:24:10Z</time>
      </trkpt>
      <trkpt lat="44.8566630" lon="7.0563840">
        <ele>1867.2</ele>
        <time>2017-07-26T11:24:20Z</time>
      </trkpt>
      <trkpt lat="44.8567020" lon="7.0563630">
        <ele>1866.6</ele>
        <time>2017-07-26T11:24:22Z</time>
      </trkpt>
      <trkpt lat="44.8567390" lon="7.0563430">
        <ele>1866.0</ele>
        <time>2017-07-26T11:24:24Z</time>
      </trkpt>
      <trkpt lat="44.8568170" lon="7.0563100">
        <ele>1865.4</ele>
        <time>2017-07-26T11:24:27Z</time>
      </trkpt>
      <trkpt lat="44.8568630" lon="7.0562870">
        <ele>1865.0</ele>
        <time>2017-07-26T11:24:28Z</time>
      </trkpt>
      <trkpt lat="44.8569640" lon="7.0562530">
        <ele>1863.2</ele>
        <time>2017-07-26T11:24:31Z</time>
      </trkpt>
      <trkpt lat="44.8570040" lon="7.0562550">
        <ele>1862.0</ele>
        <time>2017-07-26T11:24:33Z</time>
      </trkpt>
      <trkpt lat="44.8570550" lon="7.0562660">
        <ele>1861.0</ele>
        <time>2017-07-26T11:24:35Z</time>
      </trkpt>
      <trkpt lat="44.8571500" lon="7.0562510">
        <ele>1859.4</ele>
        <time>2017-07-26T11:24:38Z</time>
      </trkpt>
      <trkpt lat="44.8571960" lon="7.0562250">
        <ele>1857.8</ele>
        <time>2017-07-26T11:24:40Z</time>
      </trkpt>
      <trkpt lat="44.8572230" lon="7.0562070">
        <ele>1856.8</ele>
        <time>2017-07-26T11:24:42Z</time>
      </trkpt>
      <trkpt lat="44.8572880" lon="7.0561800">
        <ele>1855.4</ele>
        <time>2017-07-26T11:24:45Z</time>
      </trkpt>
      <trkpt lat="44.8573210" lon="7.0561620">
        <ele>1854.8</ele>
        <time>2017-07-26T11:24:46Z</time>
      </trkpt>
      <trkpt lat="44.8573580" lon="7.0561340">
        <ele>1854.0</ele>
        <time>2017-07-26T11:24:47Z</time>
      </trkpt>
      <trkpt lat="44.8574250" lon="7.0560970">
        <ele>1852.8</ele>
        <time>2017-07-26T11:24:49Z</time>
      </trkpt>
      <trkpt lat="44.8574660" lon="7.0560800">
        <ele>1852.2</ele>
        <time>2017-07-26T11:24:50Z</time>
      </trkpt>
      <trkpt lat="44.8575030" lon="7.0560720">
        <ele>1851.6</ele>
        <time>2017-07-26T11:24:51Z</time>
      </trkpt>
      <trkpt lat="44.8575680" lon="7.0560570">
        <ele>1850.2</ele>
        <time>2017-07-26T11:24:53Z</time>
      </trkpt>
      <trkpt lat="44.8576460" lon="7.0560760">
        <ele>1847.8</ele>
        <time>2017-07-26T11:24:55Z</time>
      </trkpt>
      <trkpt lat="44.8576720" lon="7.0560920">
        <ele>1847.0</ele>
        <time>2017-07-26T11:24:56Z</time>
      </trkpt>
      <trkpt lat="44.8576970" lon="7.0561160">
        <ele>1846.2</ele>
        <time>2017-07-26T11:24:57Z</time>
      </trkpt>
      <trkpt lat="44.8577470" lon="7.0561460">
        <ele>1844.8</ele>
        <time>2017-07-26T11:24:59Z</time>
      </trkpt>
      <trkpt lat="44.8578300" lon="7.0561340">
        <ele>1843.6</ele>
        <time>2017-07-26T11:25:01Z</time>
      </trkpt>
      <trkpt lat="44.8579150" lon="7.0560820">
        <ele>1841.8</ele>
        <time>2017-07-26T11:25:03Z</time>
      </trkpt>
      <trkpt lat="44.8580090" lon="7.0560430">
        <ele>1840.4</ele>
        <time>2017-07-26T11:25:05Z</time>
      </trkpt>
      <trkpt lat="44.8580970" lon="7.0559990">
        <ele>1838.4</ele>
        <time>2017-07-26T11:25:07Z</time>
      </trkpt>
      <trkpt lat="44.8581830" lon="7.0559820">
        <ele>1836.4</ele>
        <time>2017-07-26T11:25:09Z</time>
      </trkpt>
      <trkpt lat="44.8582610" lon="7.0559730">
        <ele>1834.6</ele>
        <time>2017-07-26T11:25:11Z</time>
      </trkpt>
      <trkpt lat="44.8583190" lon="7.0559640">
        <ele>1833.0</ele>
        <time>2017-07-26T11:25:13Z</time>
      </trkpt>
      <trkpt lat="44.8583640" lon="7.0559620">
        <ele>1831.2</ele>
        <time>2017-07-26T11:25:15Z</time>
      </trkpt>
      <trkpt lat="44.8584020" lon="7.0559560">
        <ele>1829.4</ele>
        <time>2017-07-26T11:25:17Z</time>
      </trkpt>
      <trkpt lat="44.8584190" lon="7.0559480">
        <ele>1827.2</ele>
        <time>2017-07-26T11:25:19Z</time>
      </trkpt>
      <trkpt lat="44.8584440" lon="7.0559310">
        <ele>1825.8</ele>
        <time>2017-07-26T11:25:21Z</time>
      </trkpt>
      <trkpt lat="44.8584810" lon="7.0559040">
        <ele>1824.6</ele>
        <time>2017-07-26T11:25:23Z</time>
      </trkpt>
      <trkpt lat="44.8584970" lon="7.0558830">
        <ele>1824.0</ele>
        <time>2017-07-26T11:25:24Z</time>
      </trkpt>
      <trkpt lat="44.8585070" lon="7.0558640">
        <ele>1823.2</ele>
        <time>2017-07-26T11:25:25Z</time>
      </trkpt>
      <trkpt lat="44.8585440" lon="7.0558550">
        <ele>1820.8</ele>
        <time>2017-07-26T11:25:29Z</time>
      </trkpt>
      <trkpt lat="44.8585790" lon="7.0558640">
        <ele>1819.8</ele>
        <time>2017-07-26T11:25:31Z</time>
      </trkpt>
      <trkpt lat="44.8586890" lon="7.0558450">
        <ele>1811.6</ele>
        <time>2017-07-26T11:25:48Z</time>
      </trkpt>
      <trkpt lat="44.8587460" lon="7.0557990">
        <ele>1810.6</ele>
        <time>2017-07-26T11:25:51Z</time>
      </trkpt>
      <trkpt lat="44.8587950" lon="7.0557630">
        <ele>1809.2</ele>
        <time>2017-07-26T11:25:54Z</time>
      </trkpt>
      <trkpt lat="44.8588680" lon="7.0556900">
        <ele>1807.8</ele>
        <time>2017-07-26T11:25:57Z</time>
      </trkpt>
      <trkpt lat="44.8589210" lon="7.0556340">
        <ele>1806.6</ele>
        <time>2017-07-26T11:25:59Z</time>
      </trkpt>
      <trkpt lat="44.8589750" lon="7.0556090">
        <ele>1805.4</ele>
        <time>2017-07-26T11:26:01Z</time>
      </trkpt>
      <trkpt lat="44.8590130" lon="7.0555840">
        <ele>1804.8</ele>
        <time>2017-07-26T11:26:02Z</time>
      </trkpt>
      <trkpt lat="44.8590590" lon="7.0555570">
        <ele>1804.4</ele>
        <time>2017-07-26T11:26:03Z</time>
      </trkpt>
      <trkpt lat="44.8591570" lon="7.0555020">
        <ele>1803.6</ele>
        <time>2017-07-26T11:26:05Z</time>
      </trkpt>
      <trkpt lat="44.8592020" lon="7.0554560">
        <ele>1803.0</ele>
        <time>2017-07-26T11:26:06Z</time>
      </trkpt>
      <trkpt lat="44.8592380" lon="7.0554020">
        <ele>1801.4</ele>
        <time>2017-07-26T11:26:07Z</time>
      </trkpt>
      <trkpt lat="44.8592810" lon="7.0552810">
        <ele>1800.0</ele>
        <time>2017-07-26T11:26:09Z</time>
      </trkpt>
      <trkpt lat="44.8593080" lon="7.0551810">
        <ele>1798.4</ele>
        <time>2017-07-26T11:26:11Z</time>
      </trkpt>
      <trkpt lat="44.8593370" lon="7.0551160">
        <ele>1796.8</ele>
        <time>2017-07-26T11:26:13Z</time>
      </trkpt>
      <trkpt lat="44.8593660" lon="7.0550670">
        <ele>1795.2</ele>
        <time>2017-07-26T11:26:15Z</time>
      </trkpt>
      <trkpt lat="44.8593960" lon="7.0550240">
        <ele>1793.6</ele>
        <time>2017-07-26T11:26:17Z</time>
      </trkpt>
      <trkpt lat="44.8594310" lon="7.0549930">
        <ele>1792.0</ele>
        <time>2017-07-26T11:26:19Z</time>
      </trkpt>
      <trkpt lat="44.8594650" lon="7.0549620">
        <ele>1790.8</ele>
        <time>2017-07-26T11:26:21Z</time>
      </trkpt>
      <trkpt lat="44.8594960" lon="7.0549240">
        <ele>1790.0</ele>
        <time>2017-07-26T11:26:22Z</time>
      </trkpt>
      <trkpt lat="44.8595330" lon="7.0548790">
        <ele>1789.4</ele>
        <time>2017-07-26T11:26:23Z</time>
      </trkpt>
      <trkpt lat="44.8595730" lon="7.0548360">
        <ele>1788.6</ele>
        <time>2017-07-26T11:26:24Z</time>
      </trkpt>
      <trkpt lat="44.8596140" lon="7.0547980">
        <ele>1787.8</ele>
        <time>2017-07-26T11:26:25Z</time>
      </trkpt>
      <trkpt lat="44.8596620" lon="7.0547730">
        <ele>1786.8</ele>
        <time>2017-07-26T11:26:26Z</time>
      </trkpt>
      <trkpt lat="44.8597120" lon="7.0547530">
        <ele>1786.0</ele>
        <time>2017-07-26T11:26:27Z</time>
      </trkpt>
      <trkpt lat="44.8597620" lon="7.0547260">
        <ele>1785.4</ele>
        <time>2017-07-26T11:26:28Z</time>
      </trkpt>
      <trkpt lat="44.8598000" lon="7.0546990">
        <ele>1784.8</ele>
        <time>2017-07-26T11:26:29Z</time>
      </trkpt>
      <trkpt lat="44.8598340" lon="7.0546810">
        <ele>1783.8</ele>
        <time>2017-07-26T11:26:30Z</time>
      </trkpt>
      <trkpt lat="44.8598670" lon="7.0546700">
        <ele>1782.0</ele>
        <time>2017-07-26T11:26:31Z</time>
      </trkpt>
      <trkpt lat="44.8599350" lon="7.0546370">
        <ele>1780.4</ele>
        <time>2017-07-26T11:26:33Z</time>
      </trkpt>
      <trkpt lat="44.8599680" lon="7.0546180">
        <ele>1779.4</ele>
        <time>2017-07-26T11:26:34Z</time>
      </trkpt>
      <trkpt lat="44.8600260" lon="7.0545620">
        <ele>1777.6</ele>
        <time>2017-07-26T11:26:36Z</time>
      </trkpt>
      <trkpt lat="44.8600740" lon="7.0545360">
        <ele>1776.0</ele>
        <time>2017-07-26T11:26:38Z</time>
      </trkpt>
      <trkpt lat="44.8600880" lon="7.0545080">
        <ele>1775.2</ele>
        <time>2017-07-26T11:26:39Z</time>
      </trkpt>
      <trkpt lat="44.8600920" lon="7.0544780">
        <ele>1774.4</ele>
        <time>2017-07-26T11:26:40Z</time>
      </trkpt>
      <trkpt lat="44.8600800" lon="7.0544180">
        <ele>1772.4</ele>
        <time>2017-07-26T11:26:42Z</time>
      </trkpt>
      <trkpt lat="44.8600630" lon="7.0543890">
        <ele>1771.6</ele>
        <time>2017-07-26T11:26:43Z</time>
      </trkpt>
      <trkpt lat="44.8600430" lon="7.0543600">
        <ele>1771.0</ele>
        <time>2017-07-26T11:26:44Z</time>
      </trkpt>
      <trkpt lat="44.8599670" lon="7.0543000">
        <ele>1769.4</ele>
        <time>2017-07-26T11:26:46Z</time>
      </trkpt>
      <trkpt lat="44.8599250" lon="7.0542790">
        <ele>1768.2</ele>
        <time>2017-07-26T11:26:47Z</time>
      </trkpt>
      <trkpt lat="44.8598790" lon="7.0542590">
        <ele>1767.6</ele>
        <time>2017-07-26T11:26:48Z</time>
      </trkpt>
      <trkpt lat="44.8598370" lon="7.0542440">
        <ele>1766.4</ele>
        <time>2017-07-26T11:26:49Z</time>
      </trkpt>
      <trkpt lat="44.8597980" lon="7.0542160">
        <ele>1765.4</ele>
        <time>2017-07-26T11:26:50Z</time>
      </trkpt>
      <trkpt lat="44.8597600" lon="7.0541920">
        <ele>1763.8</ele>
        <time>2017-07-26T11:26:51Z</time>
      </trkpt>
      <trkpt lat="44.8597120" lon="7.0541710">
        <ele>1762.8</ele>
        <time>2017-07-26T11:26:52Z</time>
      </trkpt>
      <trkpt lat="44.8596630" lon="7.0541400">
        <ele>1761.4</ele>
        <time>2017-07-26T11:26:53Z</time>
      </trkpt>
      <trkpt lat="44.8595600" lon="7.0540760">
        <ele>1758.6</ele>
        <time>2017-07-26T11:26:55Z</time>
      </trkpt>
      <trkpt lat="44.8595210" lon="7.0540540">
        <ele>1757.6</ele>
        <time>2017-07-26T11:26:56Z</time>
      </trkpt>
      <trkpt lat="44.8594870" lon="7.0540250">
        <ele>1756.4</ele>
        <time>2017-07-26T11:26:57Z</time>
      </trkpt>
      <trkpt lat="44.8594080" lon="7.0539440">
        <ele>1754.6</ele>
        <time>2017-07-26T11:26:59Z</time>
      </trkpt>
      <trkpt lat="44.8593510" lon="7.0538950">
        <ele>1754.0</ele>
        <time>2017-07-26T11:27:00Z</time>
      </trkpt>
      <trkpt lat="44.8592990" lon="7.0538560">
        <ele>1753.0</ele>
        <time>2017-07-26T11:27:01Z</time>
      </trkpt>
      <trkpt lat="44.8592170" lon="7.0537780">
        <ele>1751.0</ele>
        <time>2017-07-26T11:27:03Z</time>
      </trkpt>
      <trkpt lat="44.8591880" lon="7.0537410">
        <ele>1750.0</ele>
        <time>2017-07-26T11:27:04Z</time>
      </trkpt>
      <trkpt lat="44.8591520" lon="7.0537070">
        <ele>1749.4</ele>
        <time>2017-07-26T11:27:05Z</time>
      </trkpt>
      <trkpt lat="44.8591020" lon="7.0536260">
        <ele>1748.0</ele>
        <time>2017-07-26T11:27:07Z</time>
      </trkpt>
      <trkpt lat="44.8590860" lon="7.0535880">
        <ele>1747.2</ele>
        <time>2017-07-26T11:27:08Z</time>
      </trkpt>
      <trkpt lat="44.8590680" lon="7.0535590">
        <ele>1746.2</ele>
        <time>2017-07-26T11:27:09Z</time>
      </trkpt>
      <trkpt lat="44.8590560" lon="7.0535340">
        <ele>1745.0</ele>
        <time>2017-07-26T11:27:10Z</time>
      </trkpt>
      <trkpt lat="44.8590320" lon="7.0534920">
        <ele>1743.2</ele>
        <time>2017-07-26T11:27:12Z</time>
      </trkpt>
      <trkpt lat="44.8590250" lon="7.0534740">
        <ele>1742.8</ele>
        <time>2017-07-26T11:27:13Z</time>
      </trkpt>
      <trkpt lat="44.8590190" lon="7.0534580">
        <ele>1742.0</ele>
        <time>2017-07-26T11:27:14Z</time>
      </trkpt>
      <trkpt lat="44.8590050" lon="7.0534340">
        <ele>1741.0</ele>
        <time>2017-07-26T11:27:16Z</time>
      </trkpt>
      <trkpt lat="44.8590400" lon="7.0533500">
        <ele>1736.0</ele>
        <time>2017-07-26T11:27:33Z</time>
      </trkpt>
      <trkpt lat="44.8590600" lon="7.0532820">
        <ele>1732.2</ele>
        <time>2017-07-26T11:27:43Z</time>
      </trkpt>
      <trkpt lat="44.8591170" lon="7.0532690">
        <ele>1729.4</ele>
        <time>2017-07-26T11:27:50Z</time>
      </trkpt>
      <trkpt lat="44.8591300" lon="7.0532640">
        <ele>1729.0</ele>
        <time>2017-07-26T11:27:51Z</time>
      </trkpt>
      <trkpt lat="44.8591860" lon="7.0532410">
        <ele>1728.4</ele>
        <time>2017-07-26T11:27:54Z</time>
      </trkpt>
      <trkpt lat="44.8592130" lon="7.0532250">
        <ele>1728.0</ele>
        <time>2017-07-26T11:27:55Z</time>
      </trkpt>
      <trkpt lat="44.8592810" lon="7.0531870">
        <ele>1727.2</ele>
        <time>2017-07-26T11:27:57Z</time>
      </trkpt>
      <trkpt lat="44.8593420" lon="7.0531740">
        <ele>1726.6</ele>
        <time>2017-07-26T11:27:59Z</time>
      </trkpt>
      <trkpt lat="44.8593620" lon="7.0531880">
        <ele>1726.4</ele>
        <time>2017-07-26T11:28:00Z</time>
      </trkpt>
      <trkpt lat="44.8594010" lon="7.0532040">
        <ele>1726.0</ele>
        <time>2017-07-26T11:28:02Z</time>
      </trkpt>
      <trkpt lat="44.8594570" lon="7.0531860">
        <ele>1725.0</ele>
        <time>2017-07-26T11:28:04Z</time>
      </trkpt>
      <trkpt lat="44.8594880" lon="7.0531740">
        <ele>1724.6</ele>
        <time>2017-07-26T11:28:05Z</time>
      </trkpt>
      <trkpt lat="44.8595950" lon="7.0531590">
        <ele>1723.2</ele>
        <time>2017-07-26T11:28:08Z</time>
      </trkpt>
      <trkpt lat="44.8596410" lon="7.0531480">
        <ele>1722.8</ele>
        <time>2017-07-26T11:28:09Z</time>
      </trkpt>
      <trkpt lat="44.8597510" lon="7.0531010">
        <ele>1722.0</ele>
        <time>2017-07-26T11:28:11Z</time>
      </trkpt>
      <trkpt lat="44.8599000" lon="7.0530170">
        <ele>1721.6</ele>
        <time>2017-07-26T11:28:13Z</time>
      </trkpt>
      <trkpt lat="44.8600440" lon="7.0529170">
        <ele>1720.2</ele>
        <time>2017-07-26T11:28:15Z</time>
      </trkpt>
      <trkpt lat="44.8601040" lon="7.0528750">
        <ele>1719.8</ele>
        <time>2017-07-26T11:28:16Z</time>
      </trkpt>
      <trkpt lat="44.8601580" lon="7.0528360">
        <ele>1719.2</ele>
        <time>2017-07-26T11:28:17Z</time>
      </trkpt>
      <trkpt lat="44.8602550" lon="7.0527730">
        <ele>1718.0</ele>
        <time>2017-07-26T11:28:19Z</time>
      </trkpt>
      <trkpt lat="44.8603200" lon="7.0526860">
        <ele>1716.8</ele>
        <time>2017-07-26T11:28:21Z</time>
      </trkpt>
      <trkpt lat="44.8603690" lon="7.0525720">
        <ele>1715.6</ele>
        <time>2017-07-26T11:28:23Z</time>
      </trkpt>
      <trkpt lat="44.8604010" lon="7.0525430">
        <ele>1714.6</ele>
        <time>2017-07-26T11:28:24Z</time>
      </trkpt>
      <trkpt lat="44.8604430" lon="7.0525670">
        <ele>1713.4</ele>
        <time>2017-07-26T11:28:25Z</time>
      </trkpt>
      <trkpt lat="44.8604840" lon="7.0525770">
        <ele>1711.8</ele>
        <time>2017-07-26T11:28:27Z</time>
      </trkpt>
      <trkpt lat="44.8605040" lon="7.0525810">
        <ele>1711.2</ele>
        <time>2017-07-26T11:28:28Z</time>
      </trkpt>
      <trkpt lat="44.8605220" lon="7.0525750">
        <ele>1710.8</ele>
        <time>2017-07-26T11:28:29Z</time>
      </trkpt>
      <trkpt lat="44.8605700" lon="7.0525810">
        <ele>1709.0</ele>
        <time>2017-07-26T11:28:31Z</time>
      </trkpt>
      <trkpt lat="44.8606160" lon="7.0525620">
        <ele>1708.2</ele>
        <time>2017-07-26T11:28:33Z</time>
      </trkpt>
      <trkpt lat="44.8606360" lon="7.0525450">
        <ele>1707.6</ele>
        <time>2017-07-26T11:28:34Z</time>
      </trkpt>
      <trkpt lat="44.8606640" lon="7.0524980">
        <ele>1706.6</ele>
        <time>2017-07-26T11:28:36Z</time>
      </trkpt>
      <trkpt lat="44.8606920" lon="7.0524360">
        <ele>1706.0</ele>
        <time>2017-07-26T11:28:38Z</time>
      </trkpt>
      <trkpt lat="44.8607300" lon="7.0523790">
        <ele>1705.4</ele>
        <time>2017-07-26T11:28:40Z</time>
      </trkpt>
      <trkpt lat="44.8608220" lon="7.0523120">
        <ele>1705.0</ele>
        <time>2017-07-26T11:28:43Z</time>
      </trkpt>
      <trkpt lat="44.8609070" lon="7.0522610">
        <ele>1704.6</ele>
        <time>2017-07-26T11:28:46Z</time>
      </trkpt>
      <trkpt lat="44.8609570" lon="7.0522220">
        <ele>1704.6</ele>
        <time>2017-07-26T11:28:48Z</time>
      </trkpt>
      <trkpt lat="44.8610740" lon="7.0521280">
        <ele>1704.8</ele>
        <time>2017-07-26T11:28:52Z</time>
      </trkpt>
      <trkpt lat="44.8611120" lon="7.0520940">
        <ele>1704.6</ele>
        <time>2017-07-26T11:28:53Z</time>
      </trkpt>
      <trkpt lat="44.8611930" lon="7.0520130">
        <ele>1704.2</ele>
        <time>2017-07-26T11:28:55Z</time>
      </trkpt>
      <trkpt lat="44.8612850" lon="7.0518920">
        <ele>1704.2</ele>
        <time>2017-07-26T11:28:57Z</time>
      </trkpt>
      <trkpt lat="44.8614650" lon="7.0515650">
        <ele>1703.0</ele>
        <time>2017-07-26T11:29:01Z</time>
      </trkpt>
      <trkpt lat="44.8615080" lon="7.0514760">
        <ele>1703.0</ele>
        <time>2017-07-26T11:29:02Z</time>
      </trkpt>
      <trkpt lat="44.8615550" lon="7.0513920">
        <ele>1703.0</ele>
        <time>2017-07-26T11:29:03Z</time>
      </trkpt>
      <trkpt lat="44.8617230" lon="7.0511710">
        <ele>1701.4</ele>
        <time>2017-07-26T11:29:06Z</time>
      </trkpt>
      <trkpt lat="44.8618500" lon="7.0510230">
        <ele>1700.4</ele>
        <time>2017-07-26T11:29:08Z</time>
      </trkpt>
      <trkpt lat="44.8619820" lon="7.0508670">
        <ele>1699.0</ele>
        <time>2017-07-26T11:29:10Z</time>
      </trkpt>
      <trkpt lat="44.8621120" lon="7.0507150">
        <ele>1698.4</ele>
        <time>2017-07-26T11:29:12Z</time>
      </trkpt>
      <trkpt lat="44.8621740" lon="7.0506390">
        <ele>1697.6</ele>
        <time>2017-07-26T11:29:13Z</time>
      </trkpt>
      <trkpt lat="44.8622820" lon="7.0504690">
        <ele>1695.8</ele>
        <time>2017-07-26T11:29:15Z</time>
      </trkpt>
      <trkpt lat="44.8623680" lon="7.0502610">
        <ele>1693.8</ele>
        <time>2017-07-26T11:29:17Z</time>
      </trkpt>
      <trkpt lat="44.8624650" lon="7.0500900">
        <ele>1691.6</ele>
        <time>2017-07-26T11:29:19Z</time>
      </trkpt>
      <trkpt lat="44.8625470" lon="7.0499270">
        <ele>1690.0</ele>
        <time>2017-07-26T11:29:21Z</time>
      </trkpt>
      <trkpt lat="44.8625870" lon="7.0498460">
        <ele>1689.4</ele>
        <time>2017-07-26T11:29:22Z</time>
      </trkpt>
      <trkpt lat="44.8626320" lon="7.0497610">
        <ele>1688.6</ele>
        <time>2017-07-26T11:29:23Z</time>
      </trkpt>
      <trkpt lat="44.8626710" lon="7.0496830">
        <ele>1687.6</ele>
        <time>2017-07-26T11:29:24Z</time>
      </trkpt>
      <trkpt lat="44.8627150" lon="7.0495990">
        <ele>1686.6</ele>
        <time>2017-07-26T11:29:25Z</time>
      </trkpt>
      <trkpt lat="44.8627460" lon="7.0495070">
        <ele>1685.2</ele>
        <time>2017-07-26T11:29:26Z</time>
      </trkpt>
      <trkpt lat="44.8627700" lon="7.0494100">
        <ele>1684.6</ele>
        <time>2017-07-26T11:29:27Z</time>
      </trkpt>
      <trkpt lat="44.8627920" lon="7.0493150">
        <ele>1684.0</ele>
        <time>2017-07-26T11:29:28Z</time>
      </trkpt>
      <trkpt lat="44.8628210" lon="7.0491820">
        <ele>1683.0</ele>
        <time>2017-07-26T11:29:30Z</time>
      </trkpt>
      <trkpt lat="44.8628760" lon="7.0491350">
        <ele>1681.6</ele>
        <time>2017-07-26T11:29:32Z</time>
      </trkpt>
      <trkpt lat="44.8629120" lon="7.0490990">
        <ele>1680.8</ele>
        <time>2017-07-26T11:29:33Z</time>
      </trkpt>
      <trkpt lat="44.8629420" lon="7.0490430">
        <ele>1680.6</ele>
        <time>2017-07-26T11:29:34Z</time>
      </trkpt>
      <trkpt lat="44.8629870" lon="7.0488730">
        <ele>1679.4</ele>
        <time>2017-07-26T11:29:37Z</time>
      </trkpt>
      <trkpt lat="44.8630550" lon="7.0486860">
        <ele>1678.4</ele>
        <time>2017-07-26T11:29:40Z</time>
      </trkpt>
      <trkpt lat="44.8630940" lon="7.0486300">
        <ele>1676.4</ele>
        <time>2017-07-26T11:29:41Z</time>
      </trkpt>
      <trkpt lat="44.8631350" lon="7.0485720">
        <ele>1675.2</ele>
        <time>2017-07-26T11:29:42Z</time>
      </trkpt>
      <trkpt lat="44.8631780" lon="7.0485110">
        <ele>1673.2</ele>
        <time>2017-07-26T11:29:43Z</time>
      </trkpt>
      <trkpt lat="44.8632580" lon="7.0483780">
        <ele>1673.0</ele>
        <time>2017-07-26T11:29:45Z</time>
      </trkpt>
      <trkpt lat="44.8632910" lon="7.0483030">
        <ele>1675.2</ele>
        <time>2017-07-26T11:29:46Z</time>
      </trkpt>
      <trkpt lat="44.8633280" lon="7.0482270">
        <ele>1675.0</ele>
        <time>2017-07-26T11:29:47Z</time>
      </trkpt>
      <trkpt lat="44.8634540" lon="7.0480050">
        <ele>1674.2</ele>
        <time>2017-07-26T11:29:50Z</time>
      </trkpt>
      <trkpt lat="44.8635840" lon="7.0477900">
        <ele>1673.2</ele>
        <time>2017-07-26T11:29:53Z</time>
      </trkpt>
      <trkpt lat="44.8636270" lon="7.0477090">
        <ele>1673.0</ele>
        <time>2017-07-26T11:29:54Z</time>
      </trkpt>
      <trkpt lat="44.8637240" lon="7.0474700">
        <ele>1672.0</ele>
        <time>2017-07-26T11:29:57Z</time>
      </trkpt>
      <trkpt lat="44.8637620" lon="7.0474070">
        <ele>1671.0</ele>
        <time>2017-07-26T11:29:58Z</time>
      </trkpt>
      <trkpt lat="44.8638080" lon="7.0473450">
        <ele>1670.8</ele>
        <time>2017-07-26T11:29:59Z</time>
      </trkpt>
      <trkpt lat="44.8639770" lon="7.0471430">
        <ele>1671.2</ele>
        <time>2017-07-26T11:30:02Z</time>
      </trkpt>
      <trkpt lat="44.8641760" lon="7.0468750">
        <ele>1669.6</ele>
        <time>2017-07-26T11:30:05Z</time>
      </trkpt>
      <trkpt lat="44.8643110" lon="7.0466910">
        <ele>1667.8</ele>
        <time>2017-07-26T11:30:07Z</time>
      </trkpt>
      <trkpt lat="44.8643880" lon="7.0466140">
        <ele>1667.4</ele>
        <time>2017-07-26T11:30:08Z</time>
      </trkpt>
      <trkpt lat="44.8644580" lon="7.0465320">
        <ele>1666.6</ele>
        <time>2017-07-26T11:30:09Z</time>
      </trkpt>
      <trkpt lat="44.8645230" lon="7.0464450">
        <ele>1666.0</ele>
        <time>2017-07-26T11:30:10Z</time>
      </trkpt>
      <trkpt lat="44.8645890" lon="7.0463540">
        <ele>1665.0</ele>
        <time>2017-07-26T11:30:11Z</time>
      </trkpt>
      <trkpt lat="44.8647230" lon="7.0461550">
        <ele>1663.4</ele>
        <time>2017-07-26T11:30:13Z</time>
      </trkpt>
      <trkpt lat="44.8648470" lon="7.0459290">
        <ele>1662.0</ele>
        <time>2017-07-26T11:30:15Z</time>
      </trkpt>
      <trkpt lat="44.8649640" lon="7.0457110">
        <ele>1660.4</ele>
        <time>2017-07-26T11:30:17Z</time>
      </trkpt>
      <trkpt lat="44.8650190" lon="7.0456220">
        <ele>1659.8</ele>
        <time>2017-07-26T11:30:18Z</time>
      </trkpt>
      <trkpt lat="44.8650770" lon="7.0455470">
        <ele>1659.0</ele>
        <time>2017-07-26T11:30:19Z</time>
      </trkpt>
      <trkpt lat="44.8652300" lon="7.0454390">
        <ele>1656.8</ele>
        <time>2017-07-26T11:30:21Z</time>
      </trkpt>
      <trkpt lat="44.8653170" lon="7.0453740">
        <ele>1656.2</ele>
        <time>2017-07-26T11:30:22Z</time>
      </trkpt>
      <trkpt lat="44.8653980" lon="7.0452890">
        <ele>1655.6</ele>
        <time>2017-07-26T11:30:23Z</time>
      </trkpt>
      <trkpt lat="44.8655340" lon="7.0451210">
        <ele>1654.2</ele>
        <time>2017-07-26T11:30:25Z</time>
      </trkpt>
      <trkpt lat="44.8656320" lon="7.0449830">
        <ele>1652.6</ele>
        <time>2017-07-26T11:30:27Z</time>
      </trkpt>
      <trkpt lat="44.8656750" lon="7.0449380">
        <ele>1651.8</ele>
        <time>2017-07-26T11:30:28Z</time>
      </trkpt>
      <trkpt lat="44.8657310" lon="7.0449290">
        <ele>1650.8</ele>
        <time>2017-07-26T11:30:29Z</time>
      </trkpt>
      <trkpt lat="44.8657960" lon="7.0449160">
        <ele>1650.0</ele>
        <time>2017-07-26T11:30:30Z</time>
      </trkpt>
      <trkpt lat="44.8658570" lon="7.0448740">
        <ele>1648.8</ele>
        <time>2017-07-26T11:30:31Z</time>
      </trkpt>
      <trkpt lat="44.8659470" lon="7.0447320">
        <ele>1647.4</ele>
        <time>2017-07-26T11:30:33Z</time>
      </trkpt>
      <trkpt lat="44.8659920" lon="7.0445550">
        <ele>1646.0</ele>
        <time>2017-07-26T11:30:35Z</time>
      </trkpt>
      <trkpt lat="44.8660470" lon="7.0443840">
        <ele>1644.4</ele>
        <time>2017-07-26T11:30:37Z</time>
      </trkpt>
      <trkpt lat="44.8661480" lon="7.0442440">
        <ele>1643.0</ele>
        <time>2017-07-26T11:30:39Z</time>
      </trkpt>
      <trkpt lat="44.8662040" lon="7.0441700">
        <ele>1642.2</ele>
        <time>2017-07-26T11:30:40Z</time>
      </trkpt>
      <trkpt lat="44.8662690" lon="7.0441040">
        <ele>1641.8</ele>
        <time>2017-07-26T11:30:41Z</time>
      </trkpt>
      <trkpt lat="44.8663260" lon="7.0440220">
        <ele>1641.2</ele>
        <time>2017-07-26T11:30:42Z</time>
      </trkpt>
      <trkpt lat="44.8663740" lon="7.0439350">
        <ele>1640.4</ele>
        <time>2017-07-26T11:30:43Z</time>
      </trkpt>
      <trkpt lat="44.8664220" lon="7.0438510">
        <ele>1639.4</ele>
        <time>2017-07-26T11:30:44Z</time>
      </trkpt>
      <trkpt lat="44.8664660" lon="7.0437720">
        <ele>1638.6</ele>
        <time>2017-07-26T11:30:45Z</time>
      </trkpt>
      <trkpt lat="44.8665670" lon="7.0436480">
        <ele>1637.4</ele>
        <time>2017-07-26T11:30:47Z</time>
      </trkpt>
      <trkpt lat="44.8666360" lon="7.0436120">
        <ele>1637.2</ele>
        <time>2017-07-26T11:30:48Z</time>
      </trkpt>
      <trkpt lat="44.8668660" lon="7.0435030">
        <ele>1636.0</ele>
        <time>2017-07-26T11:30:51Z</time>
      </trkpt>
      <trkpt lat="44.8669570" lon="7.0434820">
        <ele>1635.4</ele>
        <time>2017-07-26T11:30:52Z</time>
      </trkpt>
      <trkpt lat="44.8670440" lon="7.0434540">
        <ele>1634.8</ele>
        <time>2017-07-26T11:30:53Z</time>
      </trkpt>
      <trkpt lat="44.8672280" lon="7.0433920">
        <ele>1633.4</ele>
        <time>2017-07-26T11:30:55Z</time>
      </trkpt>
      <trkpt lat="44.8673490" lon="7.0434040">
        <ele>1632.6</ele>
        <time>2017-07-26T11:30:56Z</time>
      </trkpt>
      <trkpt lat="44.8674690" lon="7.0434220">
        <ele>1632.0</ele>
        <time>2017-07-26T11:30:57Z</time>
      </trkpt>
      <trkpt lat="44.8677710" lon="7.0434310">
        <ele>1630.8</ele>
        <time>2017-07-26T11:31:00Z</time>
      </trkpt>
      <trkpt lat="44.8678610" lon="7.0434020">
        <ele>1630.2</ele>
        <time>2017-07-26T11:31:01Z</time>
      </trkpt>
      <trkpt lat="44.8679440" lon="7.0433480">
        <ele>1629.6</ele>
        <time>2017-07-26T11:31:02Z</time>
      </trkpt>
      <trkpt lat="44.8681170" lon="7.0432470">
        <ele>1628.4</ele>
        <time>2017-07-26T11:31:04Z</time>
      </trkpt>
      <trkpt lat="44.8682060" lon="7.0432110">
        <ele>1627.6</ele>
        <time>2017-07-26T11:31:05Z</time>
      </trkpt>
      <trkpt lat="44.8682960" lon="7.0431790">
        <ele>1627.0</ele>
        <time>2017-07-26T11:31:06Z</time>
      </trkpt>
      <trkpt lat="44.8685620" lon="7.0431060">
        <ele>1625.8</ele>
        <time>2017-07-26T11:31:09Z</time>
      </trkpt>
      <trkpt lat="44.8687420" lon="7.0430650">
        <ele>1624.8</ele>
        <time>2017-07-26T11:31:11Z</time>
      </trkpt>
      <trkpt lat="44.8689180" lon="7.0429970">
        <ele>1623.2</ele>
        <time>2017-07-26T11:31:13Z</time>
      </trkpt>
      <trkpt lat="44.8691060" lon="7.0429280">
        <ele>1622.2</ele>
        <time>2017-07-26T11:31:15Z</time>
      </trkpt>
      <trkpt lat="44.8694300" lon="7.0428160">
        <ele>1621.0</ele>
        <time>2017-07-26T11:31:18Z</time>
      </trkpt>
      <trkpt lat="44.8695410" lon="7.0427920">
        <ele>1619.0</ele>
        <time>2017-07-26T11:31:19Z</time>
      </trkpt>
      <trkpt lat="44.8697630" lon="7.0427380">
        <ele>1618.0</ele>
        <time>2017-07-26T11:31:21Z</time>
      </trkpt>
      <trkpt lat="44.8699910" lon="7.0426780">
        <ele>1616.4</ele>
        <time>2017-07-26T11:31:23Z</time>
      </trkpt>
      <trkpt lat="44.8701060" lon="7.0426230">
        <ele>1615.4</ele>
        <time>2017-07-26T11:31:24Z</time>
      </trkpt>
      <trkpt lat="44.8702190" lon="7.0425690">
        <ele>1614.6</ele>
        <time>2017-07-26T11:31:25Z</time>
      </trkpt>
      <trkpt lat="44.8704430" lon="7.0424660">
        <ele>1613.0</ele>
        <time>2017-07-26T11:31:27Z</time>
      </trkpt>
      <trkpt lat="44.8706480" lon="7.0424050">
        <ele>1611.2</ele>
        <time>2017-07-26T11:31:29Z</time>
      </trkpt>
      <trkpt lat="44.8708410" lon="7.0423550">
        <ele>1610.2</ele>
        <time>2017-07-26T11:31:31Z</time>
      </trkpt>
      <trkpt lat="44.8710330" lon="7.0422960">
        <ele>1608.4</ele>
        <time>2017-07-26T11:31:33Z</time>
      </trkpt>
      <trkpt lat="44.8712150" lon="7.0422320">
        <ele>1606.6</ele>
        <time>2017-07-26T11:31:35Z</time>
      </trkpt>
      <trkpt lat="44.8713030" lon="7.0422030">
        <ele>1605.6</ele>
        <time>2017-07-26T11:31:36Z</time>
      </trkpt>
      <trkpt lat="44.8713840" lon="7.0421660">
        <ele>1604.4</ele>
        <time>2017-07-26T11:31:37Z</time>
      </trkpt>
      <trkpt lat="44.8714620" lon="7.0421280">
        <ele>1603.2</ele>
        <time>2017-07-26T11:31:38Z</time>
      </trkpt>
      <trkpt lat="44.8715390" lon="7.0421000">
        <ele>1602.2</ele>
        <time>2017-07-26T11:31:39Z</time>
      </trkpt>
      <trkpt lat="44.8716890" lon="7.0420370">
        <ele>1600.4</ele>
        <time>2017-07-26T11:31:41Z</time>
      </trkpt>
      <trkpt lat="44.8718600" lon="7.0419500">
        <ele>1598.0</ele>
        <time>2017-07-26T11:31:43Z</time>
      </trkpt>
      <trkpt lat="44.8719510" lon="7.0418990">
        <ele>1596.8</ele>
        <time>2017-07-26T11:31:44Z</time>
      </trkpt>
      <trkpt lat="44.8721370" lon="7.0417910">
        <ele>1595.4</ele>
        <time>2017-07-26T11:31:46Z</time>
      </trkpt>
      <trkpt lat="44.8722010" lon="7.0417510">
        <ele>1594.2</ele>
        <time>2017-07-26T11:31:47Z</time>
      </trkpt>
      <trkpt lat="44.8722580" lon="7.0417050">
        <ele>1593.0</ele>
        <time>2017-07-26T11:31:48Z</time>
      </trkpt>
      <trkpt lat="44.8723280" lon="7.0416840">
        <ele>1592.0</ele>
        <time>2017-07-26T11:31:49Z</time>
      </trkpt>
      <trkpt lat="44.8724400" lon="7.0416410">
        <ele>1590.0</ele>
        <time>2017-07-26T11:31:51Z</time>
      </trkpt>
      <trkpt lat="44.8725090" lon="7.0416440">
        <ele>1588.8</ele>
        <time>2017-07-26T11:31:52Z</time>
      </trkpt>
      <trkpt lat="44.8725830" lon="7.0416810">
        <ele>1587.8</ele>
        <time>2017-07-26T11:31:53Z</time>
      </trkpt>
      <trkpt lat="44.8726900" lon="7.0416040">
        <ele>1585.8</ele>
        <time>2017-07-26T11:31:55Z</time>
      </trkpt>
      <trkpt lat="44.8727670" lon="7.0415390">
        <ele>1584.6</ele>
        <time>2017-07-26T11:31:56Z</time>
      </trkpt>
      <trkpt lat="44.8728570" lon="7.0415140">
        <ele>1583.4</ele>
        <time>2017-07-26T11:31:57Z</time>
      </trkpt>
      <trkpt lat="44.8728910" lon="7.0414430">
        <ele>1582.0</ele>
        <time>2017-07-26T11:31:58Z</time>
      </trkpt>
      <trkpt lat="44.8729210" lon="7.0413990">
        <ele>1580.8</ele>
        <time>2017-07-26T11:31:59Z</time>
      </trkpt>
      <trkpt lat="44.8730120" lon="7.0414160">
        <ele>1578.8</ele>
        <time>2017-07-26T11:32:01Z</time>
      </trkpt>
      <trkpt lat="44.8730560" lon="7.0414170">
        <ele>1577.8</ele>
        <time>2017-07-26T11:32:02Z</time>
      </trkpt>
      <trkpt lat="44.8731130" lon="7.0414100">
        <ele>1576.8</ele>
        <time>2017-07-26T11:32:03Z</time>
      </trkpt>
      <trkpt lat="44.8732200" lon="7.0413780">
        <ele>1575.0</ele>
        <time>2017-07-26T11:32:05Z</time>
      </trkpt>
      <trkpt lat="44.8732640" lon="7.0413600">
        <ele>1574.0</ele>
        <time>2017-07-26T11:32:06Z</time>
      </trkpt>
      <trkpt lat="44.8732990" lon="7.0413360">
        <ele>1571.6</ele>
        <time>2017-07-26T11:32:07Z</time>
      </trkpt>
      <trkpt lat="44.8733270" lon="7.0413100">
        <ele>1570.2</ele>
        <time>2017-07-26T11:32:08Z</time>
      </trkpt>
      <trkpt lat="44.8733490" lon="7.0412790">
        <ele>1568.6</ele>
        <time>2017-07-26T11:32:09Z</time>
      </trkpt>
      <trkpt lat="44.8733610" lon="7.0412460">
        <ele>1567.2</ele>
        <time>2017-07-26T11:32:10Z</time>
      </trkpt>
      <trkpt lat="44.8733580" lon="7.0412000">
        <ele>1565.8</ele>
        <time>2017-07-26T11:32:11Z</time>
      </trkpt>
      <trkpt lat="44.8733360" lon="7.0411490">
        <ele>1564.2</ele>
        <time>2017-07-26T11:32:12Z</time>
      </trkpt>
      <trkpt lat="44.8733120" lon="7.0411240">
        <ele>1562.6</ele>
        <time>2017-07-26T11:32:13Z</time>
      </trkpt>
      <trkpt lat="44.8732070" lon="7.0410910">
        <ele>1561.0</ele>
        <time>2017-07-26T11:32:14Z</time>
      </trkpt>
      <trkpt lat="44.8731500" lon="7.0410770">
        <ele>1559.6</ele>
        <time>2017-07-26T11:32:15Z</time>
      </trkpt>
      <trkpt lat="44.8730030" lon="7.0410660">
        <ele>1558.6</ele>
        <time>2017-07-26T11:32:16Z</time>
      </trkpt>
      <trkpt lat="44.8728540" lon="7.0410780">
        <ele>1557.4</ele>
        <time>2017-07-26T11:32:17Z</time>
      </trkpt>
      <trkpt lat="44.8727170" lon="7.0411080">
        <ele>1556.0</ele>
        <time>2017-07-26T11:32:18Z</time>
      </trkpt>
      <trkpt lat="44.8726070" lon="7.0411480">
        <ele>1554.2</ele>
        <time>2017-07-26T11:32:19Z</time>
      </trkpt>
      <trkpt lat="44.8725210" lon="7.0411830">
        <ele>1552.6</ele>
        <time>2017-07-26T11:32:20Z</time>
      </trkpt>
      <trkpt lat="44.8724280" lon="7.0412170">
        <ele>1551.2</ele>
        <time>2017-07-26T11:32:21Z</time>
      </trkpt>
      <trkpt lat="44.8723380" lon="7.0412330">
        <ele>1549.8</ele>
        <time>2017-07-26T11:32:22Z</time>
      </trkpt>
      <trkpt lat="44.8722630" lon="7.0412440">
        <ele>1548.4</ele>
        <time>2017-07-26T11:32:23Z</time>
      </trkpt>
      <trkpt lat="44.8722000" lon="7.0412530">
        <ele>1547.2</ele>
        <time>2017-07-26T11:32:24Z</time>
      </trkpt>
      <trkpt lat="44.8721490" lon="7.0412680">
        <ele>1546.2</ele>
        <time>2017-07-26T11:32:25Z</time>
      </trkpt>
      <trkpt lat="44.8720690" lon="7.0413110">
        <ele>1544.4</ele>
        <time>2017-07-26T11:32:27Z</time>
      </trkpt>
      <trkpt lat="44.8720360" lon="7.0413370">
        <ele>1543.2</ele>
        <time>2017-07-26T11:32:28Z</time>
      </trkpt>
      <trkpt lat="44.8720110" lon="7.0413600">
        <ele>1541.8</ele>
        <time>2017-07-26T11:32:29Z</time>
      </trkpt>
      <trkpt lat="44.8719760" lon="7.0413950">
        <ele>1538.4</ele>
        <time>2017-07-26T11:32:31Z</time>
      </trkpt>
      <trkpt lat="44.8720130" lon="7.0413510">
        <ele>1537.0</ele>
        <time>2017-07-26T11:32:32Z</time>
      </trkpt>
      <trkpt lat="44.8721080" lon="7.0412430">
        <ele>1535.0</ele>
        <time>2017-07-26T11:32:34Z</time>
      </trkpt>
      <trkpt lat="44.8722210" lon="7.0411020">
        <ele>1534.4</ele>
        <time>2017-07-26T11:32:35Z</time>
      </trkpt>
      <trkpt lat="44.8723480" lon="7.0409590">
        <ele>1533.4</ele>
        <time>2017-07-26T11:32:36Z</time>
      </trkpt>
      <trkpt lat="44.8724800" lon="7.0408460">
        <ele>1532.2</ele>
        <time>2017-07-26T11:32:37Z</time>
      </trkpt>
      <trkpt lat="44.8726140" lon="7.0407330">
        <ele>1530.8</ele>
        <time>2017-07-26T11:32:38Z</time>
      </trkpt>
      <trkpt lat="44.8727340" lon="7.0406260">
        <ele>1529.6</ele>
        <time>2017-07-26T11:32:39Z</time>
      </trkpt>
      <trkpt lat="44.8728480" lon="7.0405120">
        <ele>1528.2</ele>
        <time>2017-07-26T11:32:40Z</time>
      </trkpt>
      <trkpt lat="44.8729550" lon="7.0404080">
        <ele>1527.0</ele>
        <time>2017-07-26T11:32:41Z</time>
      </trkpt>
      <trkpt lat="44.8730580" lon="7.0403180">
        <ele>1525.6</ele>
        <time>2017-07-26T11:32:42Z</time>
      </trkpt>
      <trkpt lat="44.8731560" lon="7.0402620">
        <ele>1524.4</ele>
        <time>2017-07-26T11:32:43Z</time>
      </trkpt>
      <trkpt lat="44.8732580" lon="7.0402070">
        <ele>1522.8</ele>
        <time>2017-07-26T11:32:44Z</time>
      </trkpt>
      <trkpt lat="44.8733390" lon="7.0401760">
        <ele>1521.4</ele>
        <time>2017-07-26T11:32:45Z</time>
      </trkpt>
      <trkpt lat="44.8734370" lon="7.0401140">
        <ele>1520.2</ele>
        <time>2017-07-26T11:32:46Z</time>
      </trkpt>
      <trkpt lat="44.8735320" lon="7.0400530">
        <ele>1519.2</ele>
        <time>2017-07-26T11:32:47Z</time>
      </trkpt>
      <trkpt lat="44.8736170" lon="7.0400310">
        <ele>1518.0</ele>
        <time>2017-07-26T11:32:48Z</time>
      </trkpt>
      <trkpt lat="44.8737060" lon="7.0399970">
        <ele>1516.6</ele>
        <time>2017-07-26T11:32:49Z</time>
      </trkpt>
      <trkpt lat="44.8737910" lon="7.0399810">
        <ele>1515.4</ele>
        <time>2017-07-26T11:32:50Z</time>
      </trkpt>
      <trkpt lat="44.8738580" lon="7.0399900">
        <ele>1514.2</ele>
        <time>2017-07-26T11:32:51Z</time>
      </trkpt>
      <trkpt lat="44.8739480" lon="7.0399740">
        <ele>1513.0</ele>
        <time>2017-07-26T11:32:52Z</time>
      </trkpt>
      <trkpt lat="44.8740210" lon="7.0399680">
        <ele>1511.6</ele>
        <time>2017-07-26T11:32:53Z</time>
      </trkpt>
      <trkpt lat="44.8741060" lon="7.0399390">
        <ele>1510.6</ele>
        <time>2017-07-26T11:32:54Z</time>
      </trkpt>
      <trkpt lat="44.8741910" lon="7.0399140">
        <ele>1508.2</ele>
        <time>2017-07-26T11:32:55Z</time>
      </trkpt>
      <trkpt lat="44.8742730" lon="7.0398970">
        <ele>1507.2</ele>
        <time>2017-07-26T11:32:56Z</time>
      </trkpt>
      <trkpt lat="44.8743750" lon="7.0398990">
        <ele>1506.0</ele>
        <time>2017-07-26T11:32:57Z</time>
      </trkpt>
      <trkpt lat="44.8744860" lon="7.0399060">
        <ele>1504.8</ele>
        <time>2017-07-26T11:32:58Z</time>
      </trkpt>
      <trkpt lat="44.8746040" lon="7.0399050">
        <ele>1503.8</ele>
        <time>2017-07-26T11:32:59Z</time>
      </trkpt>
      <trkpt lat="44.8747190" lon="7.0398970">
        <ele>1502.6</ele>
        <time>2017-07-26T11:33:00Z</time>
      </trkpt>
      <trkpt lat="44.8748300" lon="7.0398900">
        <ele>1501.6</ele>
        <time>2017-07-26T11:33:01Z</time>
      </trkpt>
      <trkpt lat="44.8749370" lon="7.0398840">
        <ele>1500.6</ele>
        <time>2017-07-26T11:33:02Z</time>
      </trkpt>
      <trkpt lat="44.8750390" lon="7.0398870">
        <ele>1499.6</ele>
        <time>2017-07-26T11:33:03Z</time>
      </trkpt>
      <trkpt lat="44.8751330" lon="7.0399020">
        <ele>1498.6</ele>
        <time>2017-07-26T11:33:04Z</time>
      </trkpt>
      <trkpt lat="44.8752240" lon="7.0399240">
        <ele>1497.6</ele>
        <time>2017-07-26T11:33:05Z</time>
      </trkpt>
      <trkpt lat="44.8753110" lon="7.0399520">
        <ele>1496.6</ele>
        <time>2017-07-26T11:33:06Z</time>
      </trkpt>
      <trkpt lat="44.8754040" lon="7.0399690">
        <ele>1495.6</ele>
        <time>2017-07-26T11:33:07Z</time>
      </trkpt>
      <trkpt lat="44.8755020" lon="7.0399750">
        <ele>1494.8</ele>
        <time>2017-07-26T11:33:08Z</time>
      </trkpt>
      <trkpt lat="44.8756070" lon="7.0399750">
        <ele>1493.8</ele>
        <time>2017-07-26T11:33:09Z</time>
      </trkpt>
      <trkpt lat="44.8757150" lon="7.0399680">
        <ele>1493.2</ele>
        <time>2017-07-26T11:33:10Z</time>
      </trkpt>
      <trkpt lat="44.8759380" lon="7.0399370">
        <ele>1492.0</ele>
        <time>2017-07-26T11:33:12Z</time>
      </trkpt>
      <trkpt lat="44.8761530" lon="7.0398640">
        <ele>1490.8</ele>
        <time>2017-07-26T11:33:14Z</time>
      </trkpt>
      <trkpt lat="44.8763640" lon="7.0398180">
        <ele>1489.8</ele>
        <time>2017-07-26T11:33:16Z</time>
      </trkpt>
      <trkpt lat="44.8764630" lon="7.0398170">
        <ele>1489.2</ele>
        <time>2017-07-26T11:33:17Z</time>
      </trkpt>
      <trkpt lat="44.8765590" lon="7.0398280">
        <ele>1488.8</ele>
        <time>2017-07-26T11:33:18Z</time>
      </trkpt>
      <trkpt lat="44.8766450" lon="7.0398550">
        <ele>1488.2</ele>
        <time>2017-07-26T11:33:19Z</time>
      </trkpt>
      <trkpt lat="44.8767300" lon="7.0398750">
        <ele>1487.6</ele>
        <time>2017-07-26T11:33:20Z</time>
      </trkpt>
      <trkpt lat="44.8768390" lon="7.0398780">
        <ele>1486.8</ele>
        <time>2017-07-26T11:33:21Z</time>
      </trkpt>
      <trkpt lat="44.8770410" lon="7.0399530">
        <ele>1485.2</ele>
        <time>2017-07-26T11:33:23Z</time>
      </trkpt>
      <trkpt lat="44.8772370" lon="7.0400590">
        <ele>1484.0</ele>
        <time>2017-07-26T11:33:25Z</time>
      </trkpt>
      <trkpt lat="44.8773440" lon="7.0400920">
        <ele>1483.4</ele>
        <time>2017-07-26T11:33:26Z</time>
      </trkpt>
      <trkpt lat="44.8774540" lon="7.0401250">
        <ele>1482.8</ele>
        <time>2017-07-26T11:33:27Z</time>
      </trkpt>
      <trkpt lat="44.8777950" lon="7.0402270">
        <ele>1481.4</ele>
        <time>2017-07-26T11:33:30Z</time>
      </trkpt>
      <trkpt lat="44.8780250" lon="7.0402670">
        <ele>1480.2</ele>
        <time>2017-07-26T11:33:32Z</time>
      </trkpt>
      <trkpt lat="44.8783630" lon="7.0402700">
        <ele>1479.2</ele>
        <time>2017-07-26T11:33:35Z</time>
      </trkpt>
      <trkpt lat="44.8784640" lon="7.0402930">
        <ele>1478.8</ele>
        <time>2017-07-26T11:33:36Z</time>
      </trkpt>
      <trkpt lat="44.8787430" lon="7.0404540">
        <ele>1478.0</ele>
        <time>2017-07-26T11:33:39Z</time>
      </trkpt>
      <trkpt lat="44.8788350" lon="7.0405130">
        <ele>1477.8</ele>
        <time>2017-07-26T11:33:40Z</time>
      </trkpt>
      <trkpt lat="44.8791120" lon="7.0406940">
        <ele>1477.2</ele>
        <time>2017-07-26T11:33:43Z</time>
      </trkpt>
      <trkpt lat="44.8792030" lon="7.0407490">
        <ele>1476.8</ele>
        <time>2017-07-26T11:33:44Z</time>
      </trkpt>
      <trkpt lat="44.8795730" lon="7.0409600">
        <ele>1476.2</ele>
        <time>2017-07-26T11:33:48Z</time>
      </trkpt>
      <trkpt lat="44.8797550" lon="7.0410810">
        <ele>1475.6</ele>
        <time>2017-07-26T11:33:50Z</time>
      </trkpt>
      <trkpt lat="44.8801010" lon="7.0413500">
        <ele>1474.8</ele>
        <time>2017-07-26T11:33:54Z</time>
      </trkpt>
      <trkpt lat="44.8801900" lon="7.0414150">
        <ele>1474.6</ele>
        <time>2017-07-26T11:33:55Z</time>
      </trkpt>
      <trkpt lat="44.8805600" lon="7.0416690">
        <ele>1473.4</ele>
        <time>2017-07-26T11:33:59Z</time>
      </trkpt>
      <trkpt lat="44.8806690" lon="7.0417030">
        <ele>1473.2</ele>
        <time>2017-07-26T11:34:00Z</time>
      </trkpt>
      <trkpt lat="44.8808920" lon="7.0416620">
        <ele>1472.4</ele>
        <time>2017-07-26T11:34:02Z</time>
      </trkpt>
      <trkpt lat="44.8811050" lon="7.0415440">
        <ele>1471.6</ele>
        <time>2017-07-26T11:34:04Z</time>
      </trkpt>
      <trkpt lat="44.8813070" lon="7.0414500">
        <ele>1471.2</ele>
        <time>2017-07-26T11:34:06Z</time>
      </trkpt>
      <trkpt lat="44.8815980" lon="7.0413250">
        <ele>1470.0</ele>
        <time>2017-07-26T11:34:09Z</time>
      </trkpt>
      <trkpt lat="44.8818830" lon="7.0412460">
        <ele>1469.2</ele>
        <time>2017-07-26T11:34:12Z</time>
      </trkpt>
      <trkpt lat="44.8819760" lon="7.0412430">
        <ele>1468.8</ele>
        <time>2017-07-26T11:34:13Z</time>
      </trkpt>
      <trkpt lat="44.8822940" lon="7.0415290">
        <ele>1467.8</ele>
        <time>2017-07-26T11:34:16Z</time>
      </trkpt>
      <trkpt lat="44.8823820" lon="7.0416260">
        <ele>1467.6</ele>
        <time>2017-07-26T11:34:17Z</time>
      </trkpt>
      <trkpt lat="44.8824710" lon="7.0417170">
        <ele>1467.4</ele>
        <time>2017-07-26T11:34:18Z</time>
      </trkpt>
      <trkpt lat="44.8826640" lon="7.0419550">
        <ele>1466.6</ele>
        <time>2017-07-26T11:34:20Z</time>
      </trkpt>
      <trkpt lat="44.8828180" lon="7.0421510">
        <ele>1465.6</ele>
        <time>2017-07-26T11:34:22Z</time>
      </trkpt>
      <trkpt lat="44.8828650" lon="7.0422800">
        <ele>1465.2</ele>
        <time>2017-07-26T11:34:23Z</time>
      </trkpt>
      <trkpt lat="44.8829070" lon="7.0424520">
        <ele>1464.0</ele>
        <time>2017-07-26T11:34:25Z</time>
      </trkpt>
      <trkpt lat="44.8829410" lon="7.0425810">
        <ele>1463.4</ele>
        <time>2017-07-26T11:34:26Z</time>
      </trkpt>
      <trkpt lat="44.8829480" lon="7.0426380">
        <ele>1463.0</ele>
        <time>2017-07-26T11:34:27Z</time>
      </trkpt>
      <trkpt lat="44.8829740" lon="7.0428680">
        <ele>1461.6</ele>
        <time>2017-07-26T11:34:30Z</time>
      </trkpt>
      <trkpt lat="44.8829890" lon="7.0429270">
        <ele>1460.6</ele>
        <time>2017-07-26T11:34:31Z</time>
      </trkpt>
      <trkpt lat="44.8829850" lon="7.0430310">
        <ele>1458.6</ele>
        <time>2017-07-26T11:34:58Z</time>
      </trkpt>
      <trkpt lat="44.8829760" lon="7.0430600">
        <ele>1458.4</ele>
        <time>2017-07-26T11:34:59Z</time>
      </trkpt>
      <trkpt lat="44.8830350" lon="7.0431830">
        <ele>1458.2</ele>
        <time>2017-07-26T11:40:16Z</time>
      </trkpt>
      <trkpt lat="44.8830340" lon="7.0431990">
        <ele>1458.0</ele>
        <time>2017-07-26T11:40:17Z</time>
      </trkpt>
      <trkpt lat="44.8830320" lon="7.0432070">
        <ele>1458.0</ele>
        <time>2017-07-26T11:40:18Z</time>
      </trkpt>
      <trkpt lat="44.8689690" lon="7.0697830">
        <ele>2422.2</ele>
        <time>2017-07-26T12:08:04Z</time>
      </trkpt>
      <trkpt lat="44.8689800" lon="7.0697650">
        <ele>2423.4</ele>
        <time>2017-07-26T12:08:07Z</time>
      </trkpt>
      <trkpt lat="44.8690130" lon="7.0697060">
        <ele>2423.0</ele>
        <time>2017-07-26T12:08:09Z</time>
      </trkpt>
      <trkpt lat="44.8691090" lon="7.0695080">
        <ele>2423.0</ele>
        <time>2017-07-26T12:08:12Z</time>
      </trkpt>
      <trkpt lat="44.8691950" lon="7.0693490">
        <ele>2422.6</ele>
        <time>2017-07-26T12:08:14Z</time>
      </trkpt>
      <trkpt lat="44.8692350" lon="7.0692750">
        <ele>2422.0</ele>
        <time>2017-07-26T12:08:15Z</time>
      </trkpt>
      <trkpt lat="44.8693130" lon="7.0691270">
        <ele>2421.2</ele>
        <time>2017-07-26T12:08:17Z</time>
      </trkpt>
      <trkpt lat="44.8693580" lon="7.0690580">
        <ele>2420.2</ele>
        <time>2017-07-26T12:08:18Z</time>
      </trkpt>
      <trkpt lat="44.8694050" lon="7.0689930">
        <ele>2419.0</ele>
        <time>2017-07-26T12:08:19Z</time>
      </trkpt>
      <trkpt lat="44.8694570" lon="7.0689340">
        <ele>2417.8</ele>
        <time>2017-07-26T12:08:20Z</time>
      </trkpt>
      <trkpt lat="44.8695620" lon="7.0688140">
        <ele>2416.2</ele>
        <time>2017-07-26T12:08:22Z</time>
      </trkpt>
      <trkpt lat="44.8696110" lon="7.0687530">
        <ele>2415.2</ele>
        <time>2017-07-26T12:08:23Z</time>
      </trkpt>
      <trkpt lat="44.8696570" lon="7.0686980">
        <ele>2413.8</ele>
        <time>2017-07-26T12:08:24Z</time>
      </trkpt>
      <trkpt lat="44.8697040" lon="7.0686580">
        <ele>2412.4</ele>
        <time>2017-07-26T12:08:25Z</time>
      </trkpt>
      <trkpt lat="44.8697580" lon="7.0686390">
        <ele>2411.0</ele>
        <time>2017-07-26T12:08:26Z</time>
      </trkpt>
      <trkpt lat="44.8698160" lon="7.0686370">
        <ele>2410.2</ele>
        <time>2017-07-26T12:08:27Z</time>
      </trkpt>
      <trkpt lat="44.8698750" lon="7.0686570">
        <ele>2409.0</ele>
        <time>2017-07-26T12:08:28Z</time>
      </trkpt>
      <trkpt lat="44.8699840" lon="7.0687230">
        <ele>2407.0</ele>
        <time>2017-07-26T12:08:30Z</time>
      </trkpt>
      <trkpt lat="44.8701210" lon="7.0687700">
        <ele>2405.6</ele>
        <time>2017-07-26T12:08:32Z</time>
      </trkpt>
      <trkpt lat="44.8701990" lon="7.0687860">
        <ele>2404.6</ele>
        <time>2017-07-26T12:08:33Z</time>
      </trkpt>
      <trkpt lat="44.8702770" lon="7.0687980">
        <ele>2403.8</ele>
        <time>2017-07-26T12:08:34Z</time>
      </trkpt>
      <trkpt lat="44.8704330" lon="7.0688350">
        <ele>2402.2</ele>
        <time>2017-07-26T12:08:36Z</time>
      </trkpt>
      <trkpt lat="44.8705130" lon="7.0688680">
        <ele>2401.0</ele>
        <time>2017-07-26T12:08:37Z</time>
      </trkpt>
      <trkpt lat="44.8705930" lon="7.0688820">
        <ele>2399.6</ele>
        <time>2017-07-26T12:08:38Z</time>
      </trkpt>
      <trkpt lat="44.8706780" lon="7.0688870">
        <ele>2397.8</ele>
        <time>2017-07-26T12:08:39Z</time>
      </trkpt>
      <trkpt lat="44.8707560" lon="7.0688760">
        <ele>2397.0</ele>
        <time>2017-07-26T12:08:40Z</time>
      </trkpt>
      <trkpt lat="44.8708310" lon="7.0688560">
        <ele>2396.0</ele>
        <time>2017-07-26T12:08:41Z</time>
      </trkpt>
      <trkpt lat="44.8709120" lon="7.0688330">
        <ele>2394.4</ele>
        <time>2017-07-26T12:08:42Z</time>
      </trkpt>
      <trkpt lat="44.8710010" lon="7.0688040">
        <ele>2392.4</ele>
        <time>2017-07-26T12:08:43Z</time>
      </trkpt>
      <trkpt lat="44.8711010" lon="7.0687790">
        <ele>2391.0</ele>
        <time>2017-07-26T12:08:44Z</time>
      </trkpt>
      <trkpt lat="44.8712080" lon="7.0687620">
        <ele>2389.8</ele>
        <time>2017-07-26T12:08:45Z</time>
      </trkpt>
      <trkpt lat="44.8714240" lon="7.0687280">
        <ele>2387.4</ele>
        <time>2017-07-26T12:08:47Z</time>
      </trkpt>
      <trkpt lat="44.8715330" lon="7.0687150">
        <ele>2385.8</ele>
        <time>2017-07-26T12:08:48Z</time>
      </trkpt>
      <trkpt lat="44.8716410" lon="7.0686970">
        <ele>2384.6</ele>
        <time>2017-07-26T12:08:49Z</time>
      </trkpt>
      <trkpt lat="44.8718670" lon="7.0686380">
        <ele>2383.0</ele>
        <time>2017-07-26T12:08:51Z</time>
      </trkpt>
      <trkpt lat="44.8719750" lon="7.0686000">
        <ele>2381.6</ele>
        <time>2017-07-26T12:08:52Z</time>
      </trkpt>
      <trkpt lat="44.8720740" lon="7.0685660">
        <ele>2380.0</ele>
        <time>2017-07-26T12:08:53Z</time>
      </trkpt>
      <trkpt lat="44.8721740" lon="7.0685400">
        <ele>2378.4</ele>
        <time>2017-07-26T12:08:54Z</time>
      </trkpt>
      <trkpt lat="44.8722760" lon="7.0685100">
        <ele>2377.4</ele>
        <time>2017-07-26T12:08:55Z</time>
      </trkpt>
      <trkpt lat="44.8723740" lon="7.0684770">
        <ele>2376.0</ele>
        <time>2017-07-26T12:08:56Z</time>
      </trkpt>
      <trkpt lat="44.8724650" lon="7.0684440">
        <ele>2374.6</ele>
        <time>2017-07-26T12:08:57Z</time>
      </trkpt>
      <trkpt lat="44.8725470" lon="7.0684140">
        <ele>2372.8</ele>
        <time>2017-07-26T12:08:58Z</time>
      </trkpt>
      <trkpt lat="44.8726200" lon="7.0683900">
        <ele>2371.2</ele>
        <time>2017-07-26T12:08:59Z</time>
      </trkpt>
      <trkpt lat="44.8726890" lon="7.0683680">
        <ele>2369.4</ele>
        <time>2017-07-26T12:09:00Z</time>
      </trkpt>
      <trkpt lat="44.8727580" lon="7.0683410">
        <ele>2367.8</ele>
        <time>2017-07-26T12:09:01Z</time>
      </trkpt>
      <trkpt lat="44.8728280" lon="7.0683060">
        <ele>2366.4</ele>
        <time>2017-07-26T12:09:02Z</time>
      </trkpt>
      <trkpt lat="44.8728930" lon="7.0682690">
        <ele>2363.4</ele>
        <time>2017-07-26T12:09:03Z</time>
      </trkpt>
      <trkpt lat="44.8729580" lon="7.0682270">
        <ele>2361.8</ele>
        <time>2017-07-26T12:09:04Z</time>
      </trkpt>
      <trkpt lat="44.8730250" lon="7.0681810">
        <ele>2360.2</ele>
        <time>2017-07-26T12:09:05Z</time>
      </trkpt>
      <trkpt lat="44.8730940" lon="7.0681360">
        <ele>2358.2</ele>
        <time>2017-07-26T12:09:06Z</time>
      </trkpt>
      <trkpt lat="44.8731550" lon="7.0680920">
        <ele>2356.2</ele>
        <time>2017-07-26T12:09:07Z</time>
      </trkpt>
      <trkpt lat="44.8732030" lon="7.0680380">
        <ele>2354.4</ele>
        <time>2017-07-26T12:09:08Z</time>
      </trkpt>
      <trkpt lat="44.8732470" lon="7.0679880">
        <ele>2353.0</ele>
        <time>2017-07-26T12:09:09Z</time>
      </trkpt>
      <trkpt lat="44.8732860" lon="7.0679440">
        <ele>2351.0</ele>
        <time>2017-07-26T12:09:10Z</time>
      </trkpt>
      <trkpt lat="44.8733170" lon="7.0679030">
        <ele>2349.4</ele>
        <time>2017-07-26T12:09:11Z</time>
      </trkpt>
      <trkpt lat="44.8733450" lon="7.0678560">
        <ele>2347.6</ele>
        <time>2017-07-26T12:09:12Z</time>
      </trkpt>
      <trkpt lat="44.8733700" lon="7.0678030">
        <ele>2346.0</ele>
        <time>2017-07-26T12:09:13Z</time>
      </trkpt>
      <trkpt lat="44.8733930" lon="7.0677510">
        <ele>2344.4</ele>
        <time>2017-07-26T12:09:14Z</time>
      </trkpt>
      <trkpt lat="44.8734200" lon="7.0677010">
        <ele>2343.2</ele>
        <time>2017-07-26T12:09:15Z</time>
      </trkpt>
      <trkpt lat="44.8734520" lon="7.0676540">
        <ele>2341.6</ele>
        <time>2017-07-26T12:09:16Z</time>
      </trkpt>
      <trkpt lat="44.8734820" lon="7.0676080">
        <ele>2340.2</ele>
        <time>2017-07-26T12:09:17Z</time>
      </trkpt>
      <trkpt lat="44.8735090" lon="7.0675620">
        <ele>2338.6</ele>
        <time>2017-07-26T12:09:18Z</time>
      </trkpt>
      <trkpt lat="44.8735360" lon="7.0675110">
        <ele>2337.2</ele>
        <time>2017-07-26T12:09:19Z</time>
      </trkpt>
      <trkpt lat="44.8735640" lon="7.0674570">
        <ele>2335.8</ele>
        <time>2017-07-26T12:09:20Z</time>
      </trkpt>
      <trkpt lat="44.8735930" lon="7.0674060">
        <ele>2334.2</ele>
        <time>2017-07-26T12:09:21Z</time>
      </trkpt>
      <trkpt lat="44.8736240" lon="7.0673640">
        <ele>2332.6</ele>
        <time>2017-07-26T12:09:22Z</time>
      </trkpt>
      <trkpt lat="44.8736550" lon="7.0673260">
        <ele>2330.6</ele>
        <time>2017-07-26T12:09:23Z</time>
      </trkpt>
      <trkpt lat="44.8736870" lon="7.0672860">
        <ele>2329.0</ele>
        <time>2017-07-26T12:09:24Z</time>
      </trkpt>
      <trkpt lat="44.8737200" lon="7.0672450">
        <ele>2327.8</ele>
        <time>2017-07-26T12:09:25Z</time>
      </trkpt>
      <trkpt lat="44.8737530" lon="7.0672000">
        <ele>2326.6</ele>
        <time>2017-07-26T12:09:26Z</time>
      </trkpt>
      <trkpt lat="44.8737890" lon="7.0671520">
        <ele>2323.4</ele>
        <time>2017-07-26T12:09:27Z</time>
      </trkpt>
      <trkpt lat="44.8738310" lon="7.0670970">
        <ele>2322.0</ele>
        <time>2017-07-26T12:09:28Z</time>
      </trkpt>
      <trkpt lat="44.8738770" lon="7.0670380">
        <ele>2320.8</ele>
        <time>2017-07-26T12:09:29Z</time>
      </trkpt>
      <trkpt lat="44.8739180" lon="7.0669860">
        <ele>2319.8</ele>
        <time>2017-07-26T12:09:30Z</time>
      </trkpt>
      <trkpt lat="44.8739480" lon="7.0669370">
        <ele>2318.4</ele>
        <time>2017-07-26T12:09:31Z</time>
      </trkpt>
      <trkpt lat="44.8739690" lon="7.0668900">
        <ele>2317.2</ele>
        <time>2017-07-26T12:09:32Z</time>
      </trkpt>
      <trkpt lat="44.8739870" lon="7.0668350">
        <ele>2315.8</ele>
        <time>2017-07-26T12:09:33Z</time>
      </trkpt>
      <trkpt lat="44.8740160" lon="7.0668000">
        <ele>2314.4</ele>
        <time>2017-07-26T12:09:34Z</time>
      </trkpt>
      <trkpt lat="44.8740460" lon="7.0667680">
        <ele>2313.4</ele>
        <time>2017-07-26T12:09:35Z</time>
      </trkpt>
      <trkpt lat="44.8740710" lon="7.0667290">
        <ele>2312.0</ele>
        <time>2017-07-26T12:09:36Z</time>
      </trkpt>
      <trkpt lat="44.8740910" lon="7.0666890">
        <ele>2310.8</ele>
        <time>2017-07-26T12:09:37Z</time>
      </trkpt>
      <trkpt lat="44.8741070" lon="7.0666420">
        <ele>2309.6</ele>
        <time>2017-07-26T12:09:38Z</time>
      </trkpt>
      <trkpt lat="44.8741170" lon="7.0665880">
        <ele>2308.2</ele>
        <time>2017-07-26T12:09:39Z</time>
      </trkpt>
      <trkpt lat="44.8741250" lon="7.0665340">
        <ele>2307.0</ele>
        <time>2017-07-26T12:09:40Z</time>
      </trkpt>
      <trkpt lat="44.8741440" lon="7.0664790">
        <ele>2305.6</ele>
        <time>2017-07-26T12:09:41Z</time>
      </trkpt>
      <trkpt lat="44.8741630" lon="7.0664220">
        <ele>2304.4</ele>
        <time>2017-07-26T12:09:42Z</time>
      </trkpt>
      <trkpt lat="44.8741760" lon="7.0663630">
        <ele>2303.0</ele>
        <time>2017-07-26T12:09:43Z</time>
      </trkpt>
      <trkpt lat="44.8741780" lon="7.0663000">
        <ele>2301.6</ele>
        <time>2017-07-26T12:09:44Z</time>
      </trkpt>
      <trkpt lat="44.8741690" lon="7.0662290">
        <ele>2300.4</ele>
        <time>2017-07-26T12:09:45Z</time>
      </trkpt>
      <trkpt lat="44.8741550" lon="7.0661570">
        <ele>2299.0</ele>
        <time>2017-07-26T12:09:46Z</time>
      </trkpt>
      <trkpt lat="44.8741350" lon="7.0660890">
        <ele>2297.6</ele>
        <time>2017-07-26T12:09:47Z</time>
      </trkpt>
      <trkpt lat="44.8741190" lon="7.0660180">
        <ele>2296.2</ele>
        <time>2017-07-26T12:09:48Z</time>
      </trkpt>
      <trkpt lat="44.8740980" lon="7.0659390">
        <ele>2294.6</ele>
        <time>2017-07-26T12:09:49Z</time>
      </trkpt>
      <trkpt lat="44.8740740" lon="7.0658480">
        <ele>2293.2</ele>
        <time>2017-07-26T12:09:50Z</time>
      </trkpt>
      <trkpt lat="44.8740500" lon="7.0657460">
        <ele>2290.4</ele>
        <time>2017-07-26T12:09:51Z</time>
      </trkpt>
      <trkpt lat="44.8740250" lon="7.0656310">
        <ele>2289.2</ele>
        <time>2017-07-26T12:09:52Z</time>
      </trkpt>
      <trkpt lat="44.8740030" lon="7.0655100">
        <ele>2287.8</ele>
        <time>2017-07-26T12:09:53Z</time>
      </trkpt>
      <trkpt lat="44.8739840" lon="7.0653900">
        <ele>2286.2</ele>
        <time>2017-07-26T12:09:54Z</time>
      </trkpt>
      <trkpt lat="44.8739720" lon="7.0652750">
        <ele>2284.8</ele>
        <time>2017-07-26T12:09:55Z</time>
      </trkpt>
      <trkpt lat="44.8739570" lon="7.0651640">
        <ele>2282.8</ele>
        <time>2017-07-26T12:09:56Z</time>
      </trkpt>
      <trkpt lat="44.8739400" lon="7.0650610">
        <ele>2280.6</ele>
        <time>2017-07-26T12:09:57Z</time>
      </trkpt>
      <trkpt lat="44.8739170" lon="7.0649610">
        <ele>2278.6</ele>
        <time>2017-07-26T12:09:58Z</time>
      </trkpt>
      <trkpt lat="44.8738890" lon="7.0648560">
        <ele>2277.2</ele>
        <time>2017-07-26T12:09:59Z</time>
      </trkpt>
      <trkpt lat="44.8738550" lon="7.0647390">
        <ele>2276.2</ele>
        <time>2017-07-26T12:10:00Z</time>
      </trkpt>
      <trkpt lat="44.8738220" lon="7.0646060">
        <ele>2275.2</ele>
        <time>2017-07-26T12:10:01Z</time>
      </trkpt>
      <trkpt lat="44.8737910" lon="7.0644580">
        <ele>2273.6</ele>
        <time>2017-07-26T12:10:02Z</time>
      </trkpt>
      <trkpt lat="44.8737650" lon="7.0643060">
        <ele>2272.4</ele>
        <time>2017-07-26T12:10:03Z</time>
      </trkpt>
      <trkpt lat="44.8737450" lon="7.0641520">
        <ele>2270.4</ele>
        <time>2017-07-26T12:10:04Z</time>
      </trkpt>
      <trkpt lat="44.8737370" lon="7.0639940">
        <ele>2268.6</ele>
        <time>2017-07-26T12:10:05Z</time>
      </trkpt>
      <trkpt lat="44.8737370" lon="7.0638490">
        <ele>2266.2</ele>
        <time>2017-07-26T12:10:06Z</time>
      </trkpt>
      <trkpt lat="44.8737410" lon="7.0637230">
        <ele>2264.2</ele>
        <time>2017-07-26T12:10:07Z</time>
      </trkpt>
      <trkpt lat="44.8737430" lon="7.0636080">
        <ele>2262.0</ele>
        <time>2017-07-26T12:10:08Z</time>
      </trkpt>
      <trkpt lat="44.8737430" lon="7.0635230">
        <ele>2260.0</ele>
        <time>2017-07-26T12:10:09Z</time>
      </trkpt>
      <trkpt lat="44.8737400" lon="7.0634440">
        <ele>2257.8</ele>
        <time>2017-07-26T12:10:10Z</time>
      </trkpt>
      <trkpt lat="44.8737340" lon="7.0633650">
        <ele>2256.2</ele>
        <time>2017-07-26T12:10:11Z</time>
      </trkpt>
      <trkpt lat="44.8737300" lon="7.0632980">
        <ele>2254.2</ele>
        <time>2017-07-26T12:10:12Z</time>
      </trkpt>
      <trkpt lat="44.8737310" lon="7.0632280">
        <ele>2252.2</ele>
        <time>2017-07-26T12:10:13Z</time>
      </trkpt>
      <trkpt lat="44.8737320" lon="7.0631550">
        <ele>2250.0</ele>
        <time>2017-07-26T12:10:14Z</time>
      </trkpt>
      <trkpt lat="44.8737400" lon="7.0630860">
        <ele>2246.2</ele>
        <time>2017-07-26T12:10:15Z</time>
      </trkpt>
      <trkpt lat="44.8737520" lon="7.0630170">
        <ele>2244.2</ele>
        <time>2017-07-26T12:10:16Z</time>
      </trkpt>
      <trkpt lat="44.8737610" lon="7.0629700">
        <ele>2242.4</ele>
        <time>2017-07-26T12:10:17Z</time>
      </trkpt>
      <trkpt lat="44.8737520" lon="7.0629410">
        <ele>2240.8</ele>
        <time>2017-07-26T12:10:18Z</time>
      </trkpt>
      <trkpt lat="44.8737230" lon="7.0629280">
        <ele>2239.2</ele>
        <time>2017-07-26T12:10:19Z</time>
      </trkpt>
      <trkpt lat="44.8736770" lon="7.0629220">
        <ele>2237.4</ele>
        <time>2017-07-26T12:10:20Z</time>
      </trkpt>
      <trkpt lat="44.8736240" lon="7.0629190">
        <ele>2235.8</ele>
        <time>2017-07-26T12:10:21Z</time>
      </trkpt>
      <trkpt lat="44.8735740" lon="7.0629330">
        <ele>2234.8</ele>
        <time>2017-07-26T12:10:22Z</time>
      </trkpt>
      <trkpt lat="44.8735220" lon="7.0629460">
        <ele>2233.4</ele>
        <time>2017-07-26T12:10:23Z</time>
      </trkpt>
      <trkpt lat="44.8734670" lon="7.0629630">
        <ele>2232.2</ele>
        <time>2017-07-26T12:10:24Z</time>
      </trkpt>
      <trkpt lat="44.8734070" lon="7.0629850">
        <ele>2230.6</ele>
        <time>2017-07-26T12:10:25Z</time>
      </trkpt>
      <trkpt lat="44.8733460" lon="7.0630050">
        <ele>2229.2</ele>
        <time>2017-07-26T12:10:26Z</time>
      </trkpt>
      <trkpt lat="44.8732850" lon="7.0630220">
        <ele>2228.0</ele>
        <time>2017-07-26T12:10:27Z</time>
      </trkpt>
      <trkpt lat="44.8732330" lon="7.0630380">
        <ele>2226.8</ele>
        <time>2017-07-26T12:10:28Z</time>
      </trkpt>
      <trkpt lat="44.8731830" lon="7.0630370">
        <ele>2225.8</ele>
        <time>2017-07-26T12:10:29Z</time>
      </trkpt>
      <trkpt lat="44.8731360" lon="7.0630230">
        <ele>2224.4</ele>
        <time>2017-07-26T12:10:30Z</time>
      </trkpt>
      <trkpt lat="44.8730870" lon="7.0630060">
        <ele>2223.4</ele>
        <time>2017-07-26T12:10:31Z</time>
      </trkpt>
      <trkpt lat="44.8730350" lon="7.0629940">
        <ele>2222.4</ele>
        <time>2017-07-26T12:10:32Z</time>
      </trkpt>
      <trkpt lat="44.8729370" lon="7.0629950">
        <ele>2220.4</ele>
        <time>2017-07-26T12:10:34Z</time>
      </trkpt>
      <trkpt lat="44.8728950" lon="7.0629960">
        <ele>2219.4</ele>
        <time>2017-07-26T12:10:35Z</time>
      </trkpt>
      <trkpt lat="44.8728670" lon="7.0629810">
        <ele>2218.2</ele>
        <time>2017-07-26T12:10:36Z</time>
      </trkpt>
      <trkpt lat="44.8728650" lon="7.0629380">
        <ele>2217.0</ele>
        <time>2017-07-26T12:10:37Z</time>
      </trkpt>
      <trkpt lat="44.8728950" lon="7.0628310">
        <ele>2214.0</ele>
        <time>2017-07-26T12:10:39Z</time>
      </trkpt>
      <trkpt lat="44.8729200" lon="7.0627620">
        <ele>2212.8</ele>
        <time>2017-07-26T12:10:40Z</time>
      </trkpt>
      <trkpt lat="44.8729460" lon="7.0626950">
        <ele>2211.8</ele>
        <time>2017-07-26T12:10:41Z</time>
      </trkpt>
      <trkpt lat="44.8729780" lon="7.0626340">
        <ele>2211.0</ele>
        <time>2017-07-26T12:10:42Z</time>
      </trkpt>
      <trkpt lat="44.8730120" lon="7.0625710">
        <ele>2209.8</ele>
        <time>2017-07-26T12:10:43Z</time>
      </trkpt>
      <trkpt lat="44.8730460" lon="7.0625040">
        <ele>2208.4</ele>
        <time>2017-07-26T12:10:44Z</time>
      </trkpt>
      <trkpt lat="44.8730770" lon="7.0624330">
        <ele>2207.2</ele>
        <time>2017-07-26T12:10:45Z</time>
      </trkpt>
      <trkpt lat="44.8731050" lon="7.0623590">
        <ele>2206.2</ele>
        <time>2017-07-26T12:10:46Z</time>
      </trkpt>
      <trkpt lat="44.8731160" lon="7.0622960">
        <ele>2205.2</ele>
        <time>2017-07-26T12:10:47Z</time>
      </trkpt>
      <trkpt lat="44.8731000" lon="7.0622520">
        <ele>2204.2</ele>
        <time>2017-07-26T12:10:48Z</time>
      </trkpt>
      <trkpt lat="44.8730720" lon="7.0622340">
        <ele>2203.0</ele>
        <time>2017-07-26T12:10:49Z</time>
      </trkpt>
      <trkpt lat="44.8730010" lon="7.0622600">
        <ele>2200.8</ele>
        <time>2017-07-26T12:10:51Z</time>
      </trkpt>
      <trkpt lat="44.8729500" lon="7.0622880">
        <ele>2199.8</ele>
        <time>2017-07-26T12:10:52Z</time>
      </trkpt>
      <trkpt lat="44.8728270" lon="7.0623300">
        <ele>2198.8</ele>
        <time>2017-07-26T12:10:54Z</time>
      </trkpt>
      <trkpt lat="44.8727550" lon="7.0623360">
        <ele>2198.0</ele>
        <time>2017-07-26T12:10:55Z</time>
      </trkpt>
      <trkpt lat="44.8726780" lon="7.0623250">
        <ele>2197.0</ele>
        <time>2017-07-26T12:10:56Z</time>
      </trkpt>
      <trkpt lat="44.8725310" lon="7.0622870">
        <ele>2195.0</ele>
        <time>2017-07-26T12:10:58Z</time>
      </trkpt>
      <trkpt lat="44.8724560" lon="7.0622670">
        <ele>2193.8</ele>
        <time>2017-07-26T12:10:59Z</time>
      </trkpt>
      <trkpt lat="44.8723780" lon="7.0622570">
        <ele>2192.8</ele>
        <time>2017-07-26T12:11:00Z</time>
      </trkpt>
      <trkpt lat="44.8722910" lon="7.0622550">
        <ele>2192.2</ele>
        <time>2017-07-26T12:11:01Z</time>
      </trkpt>
      <trkpt lat="44.8721970" lon="7.0622530">
        <ele>2191.2</ele>
        <time>2017-07-26T12:11:02Z</time>
      </trkpt>
      <trkpt lat="44.8721120" lon="7.0622410">
        <ele>2189.2</ele>
        <time>2017-07-26T12:11:03Z</time>
      </trkpt>
      <trkpt lat="44.8720360" lon="7.0622240">
        <ele>2188.2</ele>
        <time>2017-07-26T12:11:04Z</time>
      </trkpt>
      <trkpt lat="44.8719660" lon="7.0621940">
        <ele>2187.2</ele>
        <time>2017-07-26T12:11:05Z</time>
      </trkpt>
      <trkpt lat="44.8718980" lon="7.0621510">
        <ele>2186.2</ele>
        <time>2017-07-26T12:11:06Z</time>
      </trkpt>
      <trkpt lat="44.8717510" lon="7.0620450">
        <ele>2184.6</ele>
        <time>2017-07-26T12:11:08Z</time>
      </trkpt>
      <trkpt lat="44.8716090" lon="7.0619500">
        <ele>2183.6</ele>
        <time>2017-07-26T12:11:10Z</time>
      </trkpt>
      <trkpt lat="44.8714660" lon="7.0618700">
        <ele>2183.2</ele>
        <time>2017-07-26T12:11:12Z</time>
      </trkpt>
      <trkpt lat="44.8713330" lon="7.0617530">
        <ele>2182.2</ele>
        <time>2017-07-26T12:11:14Z</time>
      </trkpt>
      <trkpt lat="44.8712080" lon="7.0616060">
        <ele>2180.8</ele>
        <time>2017-07-26T12:11:16Z</time>
      </trkpt>
      <trkpt lat="44.8710730" lon="7.0614610">
        <ele>2179.8</ele>
        <time>2017-07-26T12:11:18Z</time>
      </trkpt>
      <trkpt lat="44.8710000" lon="7.0613870">
        <ele>2179.2</ele>
        <time>2017-07-26T12:11:19Z</time>
      </trkpt>
      <trkpt lat="44.8709220" lon="7.0613130">
        <ele>2178.4</ele>
        <time>2017-07-26T12:11:20Z</time>
      </trkpt>
      <trkpt lat="44.8706740" lon="7.0611300">
        <ele>2177.4</ele>
        <time>2017-07-26T12:11:23Z</time>
      </trkpt>
      <trkpt lat="44.8705920" lon="7.0610760">
        <ele>2176.8</ele>
        <time>2017-07-26T12:11:24Z</time>
      </trkpt>
      <trkpt lat="44.8704290" lon="7.0609590">
        <ele>2176.0</ele>
        <time>2017-07-26T12:11:26Z</time>
      </trkpt>
      <trkpt lat="44.8703370" lon="7.0608960">
        <ele>2174.8</ele>
        <time>2017-07-26T12:11:27Z</time>
      </trkpt>
      <trkpt lat="44.8701160" lon="7.0607770">
        <ele>2172.6</ele>
        <time>2017-07-26T12:11:29Z</time>
      </trkpt>
      <trkpt lat="44.8698700" lon="7.0606510">
        <ele>2171.4</ele>
        <time>2017-07-26T12:11:31Z</time>
      </trkpt>
      <trkpt lat="44.8696650" lon="7.0605380">
        <ele>2169.2</ele>
        <time>2017-07-26T12:11:33Z</time>
      </trkpt>
      <trkpt lat="44.8695820" lon="7.0604910">
        <ele>2168.0</ele>
        <time>2017-07-26T12:11:34Z</time>
      </trkpt>
      <trkpt lat="44.8694670" lon="7.0604000">
        <ele>2165.8</ele>
        <time>2017-07-26T12:11:36Z</time>
      </trkpt>
      <trkpt lat="44.8694370" lon="7.0603500">
        <ele>2164.2</ele>
        <time>2017-07-26T12:11:37Z</time>
      </trkpt>
      <trkpt lat="44.8694320" lon="7.0603030">
        <ele>2163.0</ele>
        <time>2017-07-26T12:11:38Z</time>
      </trkpt>
      <trkpt lat="44.8694450" lon="7.0602620">
        <ele>2161.6</ele>
        <time>2017-07-26T12:11:39Z</time>
      </trkpt>
      <trkpt lat="44.8694620" lon="7.0602270">
        <ele>2160.6</ele>
        <time>2017-07-26T12:11:40Z</time>
      </trkpt>
      <trkpt lat="44.8694770" lon="7.0601730">
        <ele>2159.6</ele>
        <time>2017-07-26T12:11:41Z</time>
      </trkpt>
      <trkpt lat="44.8694810" lon="7.0600720">
        <ele>2157.4</ele>
        <time>2017-07-26T12:11:43Z</time>
      </trkpt>
      <trkpt lat="44.8694760" lon="7.0600220">
        <ele>2156.0</ele>
        <time>2017-07-26T12:11:44Z</time>
      </trkpt>
      <trkpt lat="44.8694840" lon="7.0599680">
        <ele>2154.8</ele>
        <time>2017-07-26T12:11:45Z</time>
      </trkpt>
      <trkpt lat="44.8695010" lon="7.0599230">
        <ele>2153.8</ele>
        <time>2017-07-26T12:11:46Z</time>
      </trkpt>
      <trkpt lat="44.8695150" lon="7.0598900">
        <ele>2152.8</ele>
        <time>2017-07-26T12:11:47Z</time>
      </trkpt>
      <trkpt lat="44.8695400" lon="7.0598740">
        <ele>2151.6</ele>
        <time>2017-07-26T12:11:48Z</time>
      </trkpt>
      <trkpt lat="44.8695730" lon="7.0598680">
        <ele>2150.6</ele>
        <time>2017-07-26T12:11:49Z</time>
      </trkpt>
      <trkpt lat="44.8696100" lon="7.0598740">
        <ele>2149.6</ele>
        <time>2017-07-26T12:11:50Z</time>
      </trkpt>
      <trkpt lat="44.8696500" lon="7.0598730">
        <ele>2148.2</ele>
        <time>2017-07-26T12:11:51Z</time>
      </trkpt>
      <trkpt lat="44.8696730" lon="7.0598570">
        <ele>2147.0</ele>
        <time>2017-07-26T12:11:52Z</time>
      </trkpt>
      <trkpt lat="44.8696740" lon="7.0598340">
        <ele>2145.6</ele>
        <time>2017-07-26T12:11:53Z</time>
      </trkpt>
      <trkpt lat="44.8696630" lon="7.0598190">
        <ele>2144.4</ele>
        <time>2017-07-26T12:11:54Z</time>
      </trkpt>
      <trkpt lat="44.8696330" lon="7.0597930">
        <ele>2142.6</ele>
        <time>2017-07-26T12:11:56Z</time>
      </trkpt>
      <trkpt lat="44.8696020" lon="7.0597640">
        <ele>2141.8</ele>
        <time>2017-07-26T12:11:57Z</time>
      </trkpt>
      <trkpt lat="44.8695660" lon="7.0597280">
        <ele>2140.8</ele>
        <time>2017-07-26T12:11:58Z</time>
      </trkpt>
      <trkpt lat="44.8695380" lon="7.0596900">
        <ele>2139.6</ele>
        <time>2017-07-26T12:11:59Z</time>
      </trkpt>
      <trkpt lat="44.8694430" lon="7.0596080">
        <ele>2137.8</ele>
        <time>2017-07-26T12:12:01Z</time>
      </trkpt>
      <trkpt lat="44.8693670" lon="7.0595830">
        <ele>2136.2</ele>
        <time>2017-07-26T12:12:02Z</time>
      </trkpt>
      <trkpt lat="44.8692810" lon="7.0595600">
        <ele>2134.8</ele>
        <time>2017-07-26T12:12:03Z</time>
      </trkpt>
      <trkpt lat="44.8692050" lon="7.0595420">
        <ele>2133.0</ele>
        <time>2017-07-26T12:12:04Z</time>
      </trkpt>
      <trkpt lat="44.8691490" lon="7.0595300">
        <ele>2132.0</ele>
        <time>2017-07-26T12:12:05Z</time>
      </trkpt>
      <trkpt lat="44.8691150" lon="7.0595180">
        <ele>2130.4</ele>
        <time>2017-07-26T12:12:06Z</time>
      </trkpt>
      <trkpt lat="44.8690890" lon="7.0594930">
        <ele>2129.2</ele>
        <time>2017-07-26T12:12:07Z</time>
      </trkpt>
      <trkpt lat="44.8690510" lon="7.0594550">
        <ele>2128.0</ele>
        <time>2017-07-26T12:12:08Z</time>
      </trkpt>
      <trkpt lat="44.8690100" lon="7.0594320">
        <ele>2126.8</ele>
        <time>2017-07-26T12:12:09Z</time>
      </trkpt>
      <trkpt lat="44.8689780" lon="7.0594430">
        <ele>2125.8</ele>
        <time>2017-07-26T12:12:10Z</time>
      </trkpt>
      <trkpt lat="44.8689380" lon="7.0594640">
        <ele>2124.6</ele>
        <time>2017-07-26T12:12:11Z</time>
      </trkpt>
      <trkpt lat="44.8688440" lon="7.0595050">
        <ele>2122.6</ele>
        <time>2017-07-26T12:12:13Z</time>
      </trkpt>
      <trkpt lat="44.8687890" lon="7.0595150">
        <ele>2121.6</ele>
        <time>2017-07-26T12:12:14Z</time>
      </trkpt>
      <trkpt lat="44.8687440" lon="7.0595480">
        <ele>2119.8</ele>
        <time>2017-07-26T12:12:15Z</time>
      </trkpt>
      <trkpt lat="44.8686660" lon="7.0596280">
        <ele>2118.8</ele>
        <time>2017-07-26T12:12:17Z</time>
      </trkpt>
      <trkpt lat="44.8686150" lon="7.0596540">
        <ele>2118.6</ele>
        <time>2017-07-26T12:12:18Z</time>
      </trkpt>
      <trkpt lat="44.8685170" lon="7.0597160">
        <ele>2117.4</ele>
        <time>2017-07-26T12:12:20Z</time>
      </trkpt>
      <trkpt lat="44.8684420" lon="7.0598120">
        <ele>2116.2</ele>
        <time>2017-07-26T12:12:22Z</time>
      </trkpt>
      <trkpt lat="44.8683670" lon="7.0598650">
        <ele>2115.4</ele>
        <time>2017-07-26T12:12:24Z</time>
      </trkpt>
      <trkpt lat="44.8683380" lon="7.0598880">
        <ele>2114.8</ele>
        <time>2017-07-26T12:12:25Z</time>
      </trkpt>
      <trkpt lat="44.8682660" lon="7.0599610">
        <ele>2114.2</ele>
        <time>2017-07-26T12:12:27Z</time>
      </trkpt>
      <trkpt lat="44.8682170" lon="7.0600030">
        <ele>2113.6</ele>
        <time>2017-07-26T12:12:28Z</time>
      </trkpt>
      <trkpt lat="44.8680880" lon="7.0600520">
        <ele>2112.4</ele>
        <time>2017-07-26T12:12:30Z</time>
      </trkpt>
      <trkpt lat="44.8680150" lon="7.0600680">
        <ele>2111.4</ele>
        <time>2017-07-26T12:12:31Z</time>
      </trkpt>
      <trkpt lat="44.8679390" lon="7.0600780">
        <ele>2110.4</ele>
        <time>2017-07-26T12:12:32Z</time>
      </trkpt>
      <trkpt lat="44.8678760" lon="7.0601100">
        <ele>2109.4</ele>
        <time>2017-07-26T12:12:33Z</time>
      </trkpt>
      <trkpt lat="44.8678100" lon="7.0601290">
        <ele>2108.8</ele>
        <time>2017-07-26T12:12:34Z</time>
      </trkpt>
      <trkpt lat="44.8677530" lon="7.0601150">
        <ele>2108.2</ele>
        <time>2017-07-26T12:12:35Z</time>
      </trkpt>
      <trkpt lat="44.8676690" lon="7.0600450">
        <ele>2107.2</ele>
        <time>2017-07-26T12:12:37Z</time>
      </trkpt>
      <trkpt lat="44.8676040" lon="7.0599730">
        <ele>2105.0</ele>
        <time>2017-07-26T12:12:39Z</time>
      </trkpt>
      <trkpt lat="44.8675370" lon="7.0599230">
        <ele>2103.6</ele>
        <time>2017-07-26T12:12:41Z</time>
      </trkpt>
      <trkpt lat="44.8674850" lon="7.0598910">
        <ele>2102.0</ele>
        <time>2017-07-26T12:12:43Z</time>
      </trkpt>
      <trkpt lat="44.8674620" lon="7.0599050">
        <ele>2101.4</ele>
        <time>2017-07-26T12:12:44Z</time>
      </trkpt>
      <trkpt lat="44.8674360" lon="7.0599110">
        <ele>2100.6</ele>
        <time>2017-07-26T12:12:45Z</time>
      </trkpt>
      <trkpt lat="44.8673930" lon="7.0598580">
        <ele>2099.2</ele>
        <time>2017-07-26T12:12:47Z</time>
      </trkpt>
      <trkpt lat="44.8673830" lon="7.0598120">
        <ele>2098.4</ele>
        <time>2017-07-26T12:12:48Z</time>
      </trkpt>
      <trkpt lat="44.8673760" lon="7.0597600">
        <ele>2097.4</ele>
        <time>2017-07-26T12:12:49Z</time>
      </trkpt>
      <trkpt lat="44.8673720" lon="7.0597090">
        <ele>2096.6</ele>
        <time>2017-07-26T12:12:50Z</time>
      </trkpt>
      <trkpt lat="44.8673730" lon="7.0596750">
        <ele>2096.2</ele>
        <time>2017-07-26T12:12:51Z</time>
      </trkpt>
      <trkpt lat="44.8673700" lon="7.0596320">
        <ele>2095.4</ele>
        <time>2017-07-26T12:12:52Z</time>
      </trkpt>
      <trkpt lat="44.8673690" lon="7.0595940">
        <ele>2094.8</ele>
        <time>2017-07-26T12:12:53Z</time>
      </trkpt>
      <trkpt lat="44.8673730" lon="7.0595240">
        <ele>2093.0</ele>
        <time>2017-07-26T12:12:55Z</time>
      </trkpt>
      <trkpt lat="44.8673620" lon="7.0594660">
        <ele>2091.6</ele>
        <time>2017-07-26T12:12:57Z</time>
      </trkpt>
      <trkpt lat="44.8673520" lon="7.0594030">
        <ele>2090.0</ele>
        <time>2017-07-26T12:12:59Z</time>
      </trkpt>
      <trkpt lat="44.8673500" lon="7.0593200">
        <ele>2088.6</ele>
        <time>2017-07-26T12:13:01Z</time>
      </trkpt>
      <trkpt lat="44.8673560" lon="7.0592320">
        <ele>2086.4</ele>
        <time>2017-07-26T12:13:03Z</time>
      </trkpt>
      <trkpt lat="44.8673460" lon="7.0591500">
        <ele>2084.8</ele>
        <time>2017-07-26T12:13:05Z</time>
      </trkpt>
      <trkpt lat="44.8673710" lon="7.0590700">
        <ele>2082.8</ele>
        <time>2017-07-26T12:13:07Z</time>
      </trkpt>
      <trkpt lat="44.8673710" lon="7.0590140">
        <ele>2081.2</ele>
        <time>2017-07-26T12:13:09Z</time>
      </trkpt>
      <trkpt lat="44.8673820" lon="7.0589450">
        <ele>2079.4</ele>
        <time>2017-07-26T12:13:11Z</time>
      </trkpt>
      <trkpt lat="44.8673860" lon="7.0588780">
        <ele>2077.8</ele>
        <time>2017-07-26T12:13:13Z</time>
      </trkpt>
      <trkpt lat="44.8674160" lon="7.0587910">
        <ele>2075.8</ele>
        <time>2017-07-26T12:13:15Z</time>
      </trkpt>
      <trkpt lat="44.8674270" lon="7.0587390">
        <ele>2074.6</ele>
        <time>2017-07-26T12:13:16Z</time>
      </trkpt>
      <trkpt lat="44.8674590" lon="7.0586350">
        <ele>2073.4</ele>
        <time>2017-07-26T12:13:18Z</time>
      </trkpt>
      <trkpt lat="44.8674980" lon="7.0585130">
        <ele>2070.8</ele>
        <time>2017-07-26T12:13:20Z</time>
      </trkpt>
      <trkpt lat="44.8675090" lon="7.0584310">
        <ele>2069.6</ele>
        <time>2017-07-26T12:13:21Z</time>
      </trkpt>
      <trkpt lat="44.8675190" lon="7.0583520">
        <ele>2068.6</ele>
        <time>2017-07-26T12:13:22Z</time>
      </trkpt>
      <trkpt lat="44.8675360" lon="7.0582890">
        <ele>2068.0</ele>
        <time>2017-07-26T12:13:23Z</time>
      </trkpt>
      <trkpt lat="44.8675500" lon="7.0582310">
        <ele>2067.2</ele>
        <time>2017-07-26T12:13:24Z</time>
      </trkpt>
      <trkpt lat="44.8675520" lon="7.0581480">
        <ele>2065.8</ele>
        <time>2017-07-26T12:13:26Z</time>
      </trkpt>
      <trkpt lat="44.8675330" lon="7.0581200">
        <ele>2064.0</ele>
        <time>2017-07-26T12:13:27Z</time>
      </trkpt>
      <trkpt lat="44.8674840" lon="7.0580840">
        <ele>2062.2</ele>
        <time>2017-07-26T12:13:29Z</time>
      </trkpt>
      <trkpt lat="44.8674340" lon="7.0580720">
        <ele>2061.6</ele>
        <time>2017-07-26T12:13:30Z</time>
      </trkpt>
      <trkpt lat="44.8673010" lon="7.0580940">
        <ele>2061.0</ele>
        <time>2017-07-26T12:13:32Z</time>
      </trkpt>
      <trkpt lat="44.8672290" lon="7.0581120">
        <ele>2060.2</ele>
        <time>2017-07-26T12:13:33Z</time>
      </trkpt>
      <trkpt lat="44.8671530" lon="7.0581150">
        <ele>2059.6</ele>
        <time>2017-07-26T12:13:34Z</time>
      </trkpt>
      <trkpt lat="44.8669910" lon="7.0581120">
        <ele>2058.4</ele>
        <time>2017-07-26T12:13:36Z</time>
      </trkpt>
      <trkpt lat="44.8669160" lon="7.0581270">
        <ele>2057.4</ele>
        <time>2017-07-26T12:13:37Z</time>
      </trkpt>
      <trkpt lat="44.8668420" lon="7.0581460">
        <ele>2056.4</ele>
        <time>2017-07-26T12:13:38Z</time>
      </trkpt>
      <trkpt lat="44.8667440" lon="7.0581760">
        <ele>2055.0</ele>
        <time>2017-07-26T12:13:40Z</time>
      </trkpt>
      <trkpt lat="44.8667030" lon="7.0581910">
        <ele>2054.4</ele>
        <time>2017-07-26T12:13:41Z</time>
      </trkpt>
      <trkpt lat="44.8666670" lon="7.0581980">
        <ele>2053.8</ele>
        <time>2017-07-26T12:13:42Z</time>
      </trkpt>
      <trkpt lat="44.8665800" lon="7.0582150">
        <ele>2052.0</ele>
        <time>2017-07-26T12:13:44Z</time>
      </trkpt>
      <trkpt lat="44.8664990" lon="7.0582800">
        <ele>2050.0</ele>
        <time>2017-07-26T12:13:46Z</time>
      </trkpt>
      <trkpt lat="44.8664540" lon="7.0583040">
        <ele>2049.0</ele>
        <time>2017-07-26T12:13:47Z</time>
      </trkpt>
      <trkpt lat="44.8663650" lon="7.0583580">
        <ele>2046.8</ele>
        <time>2017-07-26T12:13:49Z</time>
      </trkpt>
      <trkpt lat="44.8663390" lon="7.0583970">
        <ele>2045.4</ele>
        <time>2017-07-26T12:13:50Z</time>
      </trkpt>
      <trkpt lat="44.8663110" lon="7.0584290">
        <ele>2042.8</ele>
        <time>2017-07-26T12:13:51Z</time>
      </trkpt>
      <trkpt lat="44.8662620" lon="7.0584960">
        <ele>2040.8</ele>
        <time>2017-07-26T12:13:53Z</time>
      </trkpt>
      <trkpt lat="44.8662180" lon="7.0585130">
        <ele>2039.6</ele>
        <time>2017-07-26T12:13:54Z</time>
      </trkpt>
      <trkpt lat="44.8661730" lon="7.0585430">
        <ele>2038.4</ele>
        <time>2017-07-26T12:13:55Z</time>
      </trkpt>
      <trkpt lat="44.8661230" lon="7.0585660">
        <ele>2037.0</ele>
        <time>2017-07-26T12:13:56Z</time>
      </trkpt>
      <trkpt lat="44.8660590" lon="7.0585650">
        <ele>2036.0</ele>
        <time>2017-07-26T12:13:57Z</time>
      </trkpt>
      <trkpt lat="44.8659930" lon="7.0585720">
        <ele>2034.6</ele>
        <time>2017-07-26T12:13:58Z</time>
      </trkpt>
      <trkpt lat="44.8659300" lon="7.0585670">
        <ele>2033.2</ele>
        <time>2017-07-26T12:13:59Z</time>
      </trkpt>
      <trkpt lat="44.8658840" lon="7.0585510">
        <ele>2031.4</ele>
        <time>2017-07-26T12:14:00Z</time>
      </trkpt>
      <trkpt lat="44.8658490" lon="7.0585290">
        <ele>2030.0</ele>
        <time>2017-07-26T12:14:01Z</time>
      </trkpt>
      <trkpt lat="44.8658160" lon="7.0585000">
        <ele>2029.0</ele>
        <time>2017-07-26T12:14:02Z</time>
      </trkpt>
      <trkpt lat="44.8657770" lon="7.0584680">
        <ele>2028.0</ele>
        <time>2017-07-26T12:14:03Z</time>
      </trkpt>
      <trkpt lat="44.8657450" lon="7.0584030">
        <ele>2025.8</ele>
        <time>2017-07-26T12:14:05Z</time>
      </trkpt>
      <trkpt lat="44.8657410" lon="7.0583600">
        <ele>2024.8</ele>
        <time>2017-07-26T12:14:06Z</time>
      </trkpt>
      <trkpt lat="44.8657480" lon="7.0583090">
        <ele>2023.4</ele>
        <time>2017-07-26T12:14:07Z</time>
      </trkpt>
      <trkpt lat="44.8657550" lon="7.0582570">
        <ele>2022.4</ele>
        <time>2017-07-26T12:14:08Z</time>
      </trkpt>
      <trkpt lat="44.8657450" lon="7.0582280">
        <ele>2021.4</ele>
        <time>2017-07-26T12:14:09Z</time>
      </trkpt>
      <trkpt lat="44.8657310" lon="7.0582040">
        <ele>2020.2</ele>
        <time>2017-07-26T12:14:10Z</time>
      </trkpt>
      <trkpt lat="44.8657050" lon="7.0582090">
        <ele>2019.0</ele>
        <time>2017-07-26T12:14:11Z</time>
      </trkpt>
      <trkpt lat="44.8656870" lon="7.0581750">
        <ele>2018.0</ele>
        <time>2017-07-26T12:14:12Z</time>
      </trkpt>
      <trkpt lat="44.8656770" lon="7.0581210">
        <ele>2017.0</ele>
        <time>2017-07-26T12:14:13Z</time>
      </trkpt>
      <trkpt lat="44.8656680" lon="7.0580670">
        <ele>2015.8</ele>
        <time>2017-07-26T12:14:14Z</time>
      </trkpt>
      <trkpt lat="44.8656630" lon="7.0580080">
        <ele>2014.2</ele>
        <time>2017-07-26T12:14:15Z</time>
      </trkpt>
      <trkpt lat="44.8656750" lon="7.0578870">
        <ele>2012.0</ele>
        <time>2017-07-26T12:14:17Z</time>
      </trkpt>
      <trkpt lat="44.8656840" lon="7.0578250">
        <ele>2010.8</ele>
        <time>2017-07-26T12:14:18Z</time>
      </trkpt>
      <trkpt lat="44.8656890" lon="7.0577590">
        <ele>2009.6</ele>
        <time>2017-07-26T12:14:19Z</time>
      </trkpt>
      <trkpt lat="44.8657270" lon="7.0576460">
        <ele>2007.8</ele>
        <time>2017-07-26T12:14:21Z</time>
      </trkpt>
      <trkpt lat="44.8657420" lon="7.0575340">
        <ele>2006.0</ele>
        <time>2017-07-26T12:14:23Z</time>
      </trkpt>
      <trkpt lat="44.8657420" lon="7.0574850">
        <ele>2005.0</ele>
        <time>2017-07-26T12:14:24Z</time>
      </trkpt>
      <trkpt lat="44.8657180" lon="7.0574630">
        <ele>2003.6</ele>
        <time>2017-07-26T12:14:25Z</time>
      </trkpt>
      <trkpt lat="44.8656880" lon="7.0574400">
        <ele>2002.4</ele>
        <time>2017-07-26T12:14:26Z</time>
      </trkpt>
      <trkpt lat="44.8656850" lon="7.0574170">
        <ele>2001.4</ele>
        <time>2017-07-26T12:14:27Z</time>
      </trkpt>
      <trkpt lat="44.8656880" lon="7.0573840">
        <ele>2000.2</ele>
        <time>2017-07-26T12:14:28Z</time>
      </trkpt>
      <trkpt lat="44.8656880" lon="7.0573540">
        <ele>1999.4</ele>
        <time>2017-07-26T12:14:29Z</time>
      </trkpt>
      <trkpt lat="44.8656890" lon="7.0573230">
        <ele>1998.8</ele>
        <time>2017-07-26T12:14:30Z</time>
      </trkpt>
      <trkpt lat="44.8656890" lon="7.0572530">
        <ele>1997.8</ele>
        <time>2017-07-26T12:14:32Z</time>
      </trkpt>
      <trkpt lat="44.8656760" lon="7.0572170">
        <ele>1996.6</ele>
        <time>2017-07-26T12:14:33Z</time>
      </trkpt>
      <trkpt lat="44.8656480" lon="7.0571840">
        <ele>1995.4</ele>
        <time>2017-07-26T12:14:34Z</time>
      </trkpt>
      <trkpt lat="44.8656110" lon="7.0571560">
        <ele>1994.2</ele>
        <time>2017-07-26T12:14:35Z</time>
      </trkpt>
      <trkpt lat="44.8655240" lon="7.0571030">
        <ele>1992.2</ele>
        <time>2017-07-26T12:14:37Z</time>
      </trkpt>
      <trkpt lat="44.8654810" lon="7.0570830">
        <ele>1990.8</ele>
        <time>2017-07-26T12:14:38Z</time>
      </trkpt>
      <trkpt lat="44.8654380" lon="7.0570640">
        <ele>1988.6</ele>
        <time>2017-07-26T12:14:39Z</time>
      </trkpt>
      <trkpt lat="44.8653940" lon="7.0570460">
        <ele>1987.8</ele>
        <time>2017-07-26T12:14:40Z</time>
      </trkpt>
      <trkpt lat="44.8653560" lon="7.0570390">
        <ele>1987.0</ele>
        <time>2017-07-26T12:14:41Z</time>
      </trkpt>
      <trkpt lat="44.8653340" lon="7.0570100">
        <ele>1986.2</ele>
        <time>2017-07-26T12:14:42Z</time>
      </trkpt>
      <trkpt lat="44.8653280" lon="7.0569630">
        <ele>1985.0</ele>
        <time>2017-07-26T12:14:43Z</time>
      </trkpt>
      <trkpt lat="44.8653280" lon="7.0569150">
        <ele>1984.0</ele>
        <time>2017-07-26T12:14:44Z</time>
      </trkpt>
      <trkpt lat="44.8653210" lon="7.0568040">
        <ele>1982.8</ele>
        <time>2017-07-26T12:14:46Z</time>
      </trkpt>
      <trkpt lat="44.8653320" lon="7.0567350">
        <ele>1982.2</ele>
        <time>2017-07-26T12:14:47Z</time>
      </trkpt>
      <trkpt lat="44.8653500" lon="7.0566600">
        <ele>1981.4</ele>
        <time>2017-07-26T12:14:48Z</time>
      </trkpt>
      <trkpt lat="44.8653670" lon="7.0565790">
        <ele>1980.4</ele>
        <time>2017-07-26T12:14:49Z</time>
      </trkpt>
      <trkpt lat="44.8653820" lon="7.0565020">
        <ele>1979.2</ele>
        <time>2017-07-26T12:14:50Z</time>
      </trkpt>
      <trkpt lat="44.8654180" lon="7.0563430">
        <ele>1977.4</ele>
        <time>2017-07-26T12:14:52Z</time>
      </trkpt>
      <trkpt lat="44.8654450" lon="7.0561590">
        <ele>1976.0</ele>
        <time>2017-07-26T12:14:54Z</time>
      </trkpt>
      <trkpt lat="44.8654640" lon="7.0559730">
        <ele>1974.4</ele>
        <time>2017-07-26T12:14:56Z</time>
      </trkpt>
      <trkpt lat="44.8654730" lon="7.0558720">
        <ele>1973.6</ele>
        <time>2017-07-26T12:14:57Z</time>
      </trkpt>
      <trkpt lat="44.8654830" lon="7.0557890">
        <ele>1972.4</ele>
        <time>2017-07-26T12:14:58Z</time>
      </trkpt>
      <trkpt lat="44.8655290" lon="7.0556420">
        <ele>1970.6</ele>
        <time>2017-07-26T12:15:00Z</time>
      </trkpt>
      <trkpt lat="44.8656020" lon="7.0554850">
        <ele>1968.6</ele>
        <time>2017-07-26T12:15:02Z</time>
      </trkpt>
      <trkpt lat="44.8656450" lon="7.0554070">
        <ele>1966.0</ele>
        <time>2017-07-26T12:15:03Z</time>
      </trkpt>
      <trkpt lat="44.8656950" lon="7.0553250">
        <ele>1964.8</ele>
        <time>2017-07-26T12:15:04Z</time>
      </trkpt>
      <trkpt lat="44.8657870" lon="7.0551510">
        <ele>1963.0</ele>
        <time>2017-07-26T12:15:06Z</time>
      </trkpt>
      <trkpt lat="44.8658310" lon="7.0550940">
        <ele>1962.2</ele>
        <time>2017-07-26T12:15:07Z</time>
      </trkpt>
      <trkpt lat="44.8658760" lon="7.0550610">
        <ele>1961.4</ele>
        <time>2017-07-26T12:15:08Z</time>
      </trkpt>
      <trkpt lat="44.8659770" lon="7.0549830">
        <ele>1959.6</ele>
        <time>2017-07-26T12:15:10Z</time>
      </trkpt>
      <trkpt lat="44.8660820" lon="7.0548400">
        <ele>1957.6</ele>
        <time>2017-07-26T12:15:12Z</time>
      </trkpt>
      <trkpt lat="44.8661880" lon="7.0547160">
        <ele>1956.2</ele>
        <time>2017-07-26T12:15:14Z</time>
      </trkpt>
      <trkpt lat="44.8663070" lon="7.0545960">
        <ele>1954.8</ele>
        <time>2017-07-26T12:15:16Z</time>
      </trkpt>
      <trkpt lat="44.8664210" lon="7.0544660">
        <ele>1953.6</ele>
        <time>2017-07-26T12:15:18Z</time>
      </trkpt>
      <trkpt lat="44.8665010" lon="7.0542980">
        <ele>1952.0</ele>
        <time>2017-07-26T12:15:20Z</time>
      </trkpt>
      <trkpt lat="44.8665530" lon="7.0541640">
        <ele>1950.6</ele>
        <time>2017-07-26T12:15:22Z</time>
      </trkpt>
      <trkpt lat="44.8665800" lon="7.0541020">
        <ele>1950.0</ele>
        <time>2017-07-26T12:15:23Z</time>
      </trkpt>
      <trkpt lat="44.8666050" lon="7.0540420">
        <ele>1949.6</ele>
        <time>2017-07-26T12:15:24Z</time>
      </trkpt>
      <trkpt lat="44.8666680" lon="7.0539190">
        <ele>1948.4</ele>
        <time>2017-07-26T12:15:26Z</time>
      </trkpt>
      <trkpt lat="44.8667200" lon="7.0538590">
        <ele>1947.0</ele>
        <time>2017-07-26T12:15:27Z</time>
      </trkpt>
      <trkpt lat="44.8668190" lon="7.0537550">
        <ele>1946.2</ele>
        <time>2017-07-26T12:15:29Z</time>
      </trkpt>
      <trkpt lat="44.8668620" lon="7.0537150">
        <ele>1945.6</ele>
        <time>2017-07-26T12:15:30Z</time>
      </trkpt>
      <trkpt lat="44.8668960" lon="7.0537000">
        <ele>1945.0</ele>
        <time>2017-07-26T12:15:31Z</time>
      </trkpt>
      <trkpt lat="44.8669360" lon="7.0537160">
        <ele>1944.2</ele>
        <time>2017-07-26T12:15:32Z</time>
      </trkpt>
      <trkpt lat="44.8670200" lon="7.0537430">
        <ele>1942.8</ele>
        <time>2017-07-26T12:15:34Z</time>
      </trkpt>
      <trkpt lat="44.8671500" lon="7.0537560">
        <ele>1941.6</ele>
        <time>2017-07-26T12:15:36Z</time>
      </trkpt>
      <trkpt lat="44.8672460" lon="7.0536890">
        <ele>1940.4</ele>
        <time>2017-07-26T12:15:38Z</time>
      </trkpt>
      <trkpt lat="44.8673440" lon="7.0535770">
        <ele>1938.8</ele>
        <time>2017-07-26T12:15:40Z</time>
      </trkpt>
      <trkpt lat="44.8674410" lon="7.0534160">
        <ele>1937.8</ele>
        <time>2017-07-26T12:15:42Z</time>
      </trkpt>
      <trkpt lat="44.8675300" lon="7.0532680">
        <ele>1936.6</ele>
        <time>2017-07-26T12:15:44Z</time>
      </trkpt>
      <trkpt lat="44.8676110" lon="7.0531200">
        <ele>1935.2</ele>
        <time>2017-07-26T12:15:46Z</time>
      </trkpt>
      <trkpt lat="44.8676830" lon="7.0530010">
        <ele>1933.4</ele>
        <time>2017-07-26T12:15:48Z</time>
      </trkpt>
      <trkpt lat="44.8677110" lon="7.0529680">
        <ele>1932.4</ele>
        <time>2017-07-26T12:15:49Z</time>
      </trkpt>
      <trkpt lat="44.8677390" lon="7.0529280">
        <ele>1931.6</ele>
        <time>2017-07-26T12:15:50Z</time>
      </trkpt>
      <trkpt lat="44.8677690" lon="7.0528870">
        <ele>1930.0</ele>
        <time>2017-07-26T12:15:51Z</time>
      </trkpt>
      <trkpt lat="44.8677980" lon="7.0528380">
        <ele>1929.0</ele>
        <time>2017-07-26T12:15:52Z</time>
      </trkpt>
      <trkpt lat="44.8678360" lon="7.0527800">
        <ele>1928.2</ele>
        <time>2017-07-26T12:15:53Z</time>
      </trkpt>
      <trkpt lat="44.8679200" lon="7.0526360">
        <ele>1926.6</ele>
        <time>2017-07-26T12:15:55Z</time>
      </trkpt>
      <trkpt lat="44.8679710" lon="7.0525620">
        <ele>1926.2</ele>
        <time>2017-07-26T12:15:56Z</time>
      </trkpt>
      <trkpt lat="44.8680870" lon="7.0524420">
        <ele>1925.2</ele>
        <time>2017-07-26T12:15:58Z</time>
      </trkpt>
      <trkpt lat="44.8681590" lon="7.0523980">
        <ele>1924.6</ele>
        <time>2017-07-26T12:15:59Z</time>
      </trkpt>
      <trkpt lat="44.8682350" lon="7.0523630">
        <ele>1923.8</ele>
        <time>2017-07-26T12:16:00Z</time>
      </trkpt>
      <trkpt lat="44.8683760" lon="7.0522910">
        <ele>1922.6</ele>
        <time>2017-07-26T12:16:02Z</time>
      </trkpt>
      <trkpt lat="44.8685040" lon="7.0521880">
        <ele>1921.6</ele>
        <time>2017-07-26T12:16:04Z</time>
      </trkpt>
      <trkpt lat="44.8686170" lon="7.0521250">
        <ele>1920.2</ele>
        <time>2017-07-26T12:16:06Z</time>
      </trkpt>
      <trkpt lat="44.8686620" lon="7.0521120">
        <ele>1919.2</ele>
        <time>2017-07-26T12:16:07Z</time>
      </trkpt>
      <trkpt lat="44.8687000" lon="7.0520960">
        <ele>1918.4</ele>
        <time>2017-07-26T12:16:08Z</time>
      </trkpt>
      <trkpt lat="44.8687970" lon="7.0518430">
        <ele>1917.0</ele>
        <time>2017-07-26T12:16:10Z</time>
      </trkpt>
      <trkpt lat="44.8688470" lon="7.0517360">
        <ele>1916.6</ele>
        <time>2017-07-26T12:16:11Z</time>
      </trkpt>
      <trkpt lat="44.8688970" lon="7.0516780">
        <ele>1915.8</ele>
        <time>2017-07-26T12:16:12Z</time>
      </trkpt>
      <trkpt lat="44.8689550" lon="7.0516310">
        <ele>1915.2</ele>
        <time>2017-07-26T12:16:13Z</time>
      </trkpt>
      <trkpt lat="44.8690370" lon="7.0516250">
        <ele>1914.2</ele>
        <time>2017-07-26T12:16:14Z</time>
      </trkpt>
      <trkpt lat="44.8693970" lon="7.0516800">
        <ele>1912.0</ele>
        <time>2017-07-26T12:16:15Z</time>
      </trkpt>
      <trkpt lat="44.8697560" lon="7.0517360">
        <ele>1911.0</ele>
        <time>2017-07-26T12:16:16Z</time>
      </trkpt>
      <trkpt lat="44.8699140" lon="7.0517010">
        <ele>1910.2</ele>
        <time>2017-07-26T12:16:17Z</time>
      </trkpt>
      <trkpt lat="44.8702600" lon="7.0516420">
        <ele>1908.6</ele>
        <time>2017-07-26T12:16:19Z</time>
      </trkpt>
      <trkpt lat="44.8703910" lon="7.0516140">
        <ele>1907.6</ele>
        <time>2017-07-26T12:16:20Z</time>
      </trkpt>
      <trkpt lat="44.8704970" lon="7.0515700">
        <ele>1906.4</ele>
        <time>2017-07-26T12:16:21Z</time>
      </trkpt>
      <trkpt lat="44.8706900" lon="7.0514560">
        <ele>1904.8</ele>
        <time>2017-07-26T12:16:23Z</time>
      </trkpt>
      <trkpt lat="44.8707880" lon="7.0514050">
        <ele>1904.0</ele>
        <time>2017-07-26T12:16:24Z</time>
      </trkpt>
      <trkpt lat="44.8708730" lon="7.0513670">
        <ele>1902.8</ele>
        <time>2017-07-26T12:16:25Z</time>
      </trkpt>
      <trkpt lat="44.8710140" lon="7.0513090">
        <ele>1901.0</ele>
        <time>2017-07-26T12:16:27Z</time>
      </trkpt>
      <trkpt lat="44.8711350" lon="7.0512580">
        <ele>1899.2</ele>
        <time>2017-07-26T12:16:29Z</time>
      </trkpt>
      <trkpt lat="44.8711950" lon="7.0512200">
        <ele>1897.8</ele>
        <time>2017-07-26T12:16:30Z</time>
      </trkpt>
      <trkpt lat="44.8712610" lon="7.0511690">
        <ele>1896.8</ele>
        <time>2017-07-26T12:16:31Z</time>
      </trkpt>
      <trkpt lat="44.8713310" lon="7.0511160">
        <ele>1895.4</ele>
        <time>2017-07-26T12:16:32Z</time>
      </trkpt>
      <trkpt lat="44.8714580" lon="7.0510330">
        <ele>1893.8</ele>
        <time>2017-07-26T12:16:34Z</time>
      </trkpt>
      <trkpt lat="44.8715520" lon="7.0509670">
        <ele>1892.2</ele>
        <time>2017-07-26T12:16:36Z</time>
      </trkpt>
      <trkpt lat="44.8715960" lon="7.0509240">
        <ele>1891.2</ele>
        <time>2017-07-26T12:16:37Z</time>
      </trkpt>
      <trkpt lat="44.8716710" lon="7.0508360">
        <ele>1888.6</ele>
        <time>2017-07-26T12:16:39Z</time>
      </trkpt>
      <trkpt lat="44.8717210" lon="7.0508000">
        <ele>1887.2</ele>
        <time>2017-07-26T12:16:40Z</time>
      </trkpt>
      <trkpt lat="44.8717690" lon="7.0507510">
        <ele>1886.0</ele>
        <time>2017-07-26T12:16:41Z</time>
      </trkpt>
      <trkpt lat="44.8718160" lon="7.0507040">
        <ele>1884.6</ele>
        <time>2017-07-26T12:16:42Z</time>
      </trkpt>
      <trkpt lat="44.8718550" lon="7.0506530">
        <ele>1883.8</ele>
        <time>2017-07-26T12:16:43Z</time>
      </trkpt>
      <trkpt lat="44.8718980" lon="7.0506010">
        <ele>1882.6</ele>
        <time>2017-07-26T12:16:44Z</time>
      </trkpt>
      <trkpt lat="44.8719370" lon="7.0505510">
        <ele>1881.2</ele>
        <time>2017-07-26T12:16:45Z</time>
      </trkpt>
      <trkpt lat="44.8719750" lon="7.0505040">
        <ele>1880.0</ele>
        <time>2017-07-26T12:16:46Z</time>
      </trkpt>
      <trkpt lat="44.8720080" lon="7.0504640">
        <ele>1878.8</ele>
        <time>2017-07-26T12:16:47Z</time>
      </trkpt>
      <trkpt lat="44.8720420" lon="7.0504290">
        <ele>1878.0</ele>
        <time>2017-07-26T12:16:48Z</time>
      </trkpt>
      <trkpt lat="44.8720660" lon="7.0503960">
        <ele>1876.8</ele>
        <time>2017-07-26T12:16:49Z</time>
      </trkpt>
      <trkpt lat="44.8721200" lon="7.0503350">
        <ele>1874.6</ele>
        <time>2017-07-26T12:16:51Z</time>
      </trkpt>
      <trkpt lat="44.8721680" lon="7.0503040">
        <ele>1873.6</ele>
        <time>2017-07-26T12:16:52Z</time>
      </trkpt>
      <trkpt lat="44.8722180" lon="7.0502730">
        <ele>1872.6</ele>
        <time>2017-07-26T12:16:53Z</time>
      </trkpt>
      <trkpt lat="44.8722830" lon="7.0502540">
        <ele>1871.6</ele>
        <time>2017-07-26T12:16:54Z</time>
      </trkpt>
      <trkpt lat="44.8723520" lon="7.0502270">
        <ele>1870.4</ele>
        <time>2017-07-26T12:16:55Z</time>
      </trkpt>
      <trkpt lat="44.8724270" lon="7.0501910">
        <ele>1869.4</ele>
        <time>2017-07-26T12:16:56Z</time>
      </trkpt>
      <trkpt lat="44.8724960" lon="7.0501600">
        <ele>1868.2</ele>
        <time>2017-07-26T12:16:57Z</time>
      </trkpt>
      <trkpt lat="44.8725590" lon="7.0501160">
        <ele>1867.4</ele>
        <time>2017-07-26T12:16:58Z</time>
      </trkpt>
      <trkpt lat="44.8726260" lon="7.0500620">
        <ele>1865.8</ele>
        <time>2017-07-26T12:16:59Z</time>
      </trkpt>
      <trkpt lat="44.8726890" lon="7.0500140">
        <ele>1864.4</ele>
        <time>2017-07-26T12:17:00Z</time>
      </trkpt>
      <trkpt lat="44.8727530" lon="7.0499800">
        <ele>1863.0</ele>
        <time>2017-07-26T12:17:01Z</time>
      </trkpt>
      <trkpt lat="44.8728220" lon="7.0499560">
        <ele>1861.8</ele>
        <time>2017-07-26T12:17:02Z</time>
      </trkpt>
      <trkpt lat="44.8728940" lon="7.0499440">
        <ele>1859.4</ele>
        <time>2017-07-26T12:17:03Z</time>
      </trkpt>
      <trkpt lat="44.8729700" lon="7.0499260">
        <ele>1858.4</ele>
        <time>2017-07-26T12:17:04Z</time>
      </trkpt>
      <trkpt lat="44.8730470" lon="7.0499080">
        <ele>1857.2</ele>
        <time>2017-07-26T12:17:05Z</time>
      </trkpt>
      <trkpt lat="44.8731100" lon="7.0498950">
        <ele>1856.0</ele>
        <time>2017-07-26T12:17:06Z</time>
      </trkpt>
      <trkpt lat="44.8731660" lon="7.0498950">
        <ele>1854.8</ele>
        <time>2017-07-26T12:17:07Z</time>
      </trkpt>
      <trkpt lat="44.8732280" lon="7.0499020">
        <ele>1853.6</ele>
        <time>2017-07-26T12:17:08Z</time>
      </trkpt>
      <trkpt lat="44.8732900" lon="7.0499270">
        <ele>1852.4</ele>
        <time>2017-07-26T12:17:09Z</time>
      </trkpt>
      <trkpt lat="44.8733540" lon="7.0499500">
        <ele>1851.4</ele>
        <time>2017-07-26T12:17:10Z</time>
      </trkpt>
      <trkpt lat="44.8734180" lon="7.0499660">
        <ele>1850.0</ele>
        <time>2017-07-26T12:17:11Z</time>
      </trkpt>
      <trkpt lat="44.8734890" lon="7.0499740">
        <ele>1849.0</ele>
        <time>2017-07-26T12:17:12Z</time>
      </trkpt>
      <trkpt lat="44.8735560" lon="7.0499890">
        <ele>1848.0</ele>
        <time>2017-07-26T12:17:13Z</time>
      </trkpt>
      <trkpt lat="44.8736240" lon="7.0499850">
        <ele>1847.0</ele>
        <time>2017-07-26T12:17:14Z</time>
      </trkpt>
      <trkpt lat="44.8736870" lon="7.0499860">
        <ele>1845.8</ele>
        <time>2017-07-26T12:17:15Z</time>
      </trkpt>
      <trkpt lat="44.8737530" lon="7.0499910">
        <ele>1844.4</ele>
        <time>2017-07-26T12:17:16Z</time>
      </trkpt>
      <trkpt lat="44.8738100" lon="7.0499920">
        <ele>1843.2</ele>
        <time>2017-07-26T12:17:17Z</time>
      </trkpt>
      <trkpt lat="44.8738680" lon="7.0499820">
        <ele>1842.0</ele>
        <time>2017-07-26T12:17:18Z</time>
      </trkpt>
      <trkpt lat="44.8739150" lon="7.0499800">
        <ele>1840.8</ele>
        <time>2017-07-26T12:17:19Z</time>
      </trkpt>
      <trkpt lat="44.8739520" lon="7.0499840">
        <ele>1839.6</ele>
        <time>2017-07-26T12:17:20Z</time>
      </trkpt>
      <trkpt lat="44.8739940" lon="7.0499910">
        <ele>1838.4</ele>
        <time>2017-07-26T12:17:21Z</time>
      </trkpt>
      <trkpt lat="44.8740440" lon="7.0500150">
        <ele>1837.4</ele>
        <time>2017-07-26T12:17:22Z</time>
      </trkpt>
      <trkpt lat="44.8741420" lon="7.0500310">
        <ele>1835.4</ele>
        <time>2017-07-26T12:17:24Z</time>
      </trkpt>
      <trkpt lat="44.8741950" lon="7.0500240">
        <ele>1834.2</ele>
        <time>2017-07-26T12:17:25Z</time>
      </trkpt>
      <trkpt lat="44.8742480" lon="7.0500080">
        <ele>1833.2</ele>
        <time>2017-07-26T12:17:26Z</time>
      </trkpt>
      <trkpt lat="44.8742930" lon="7.0499690">
        <ele>1831.2</ele>
        <time>2017-07-26T12:17:27Z</time>
      </trkpt>
      <trkpt lat="44.8743390" lon="7.0499420">
        <ele>1829.8</ele>
        <time>2017-07-26T12:17:28Z</time>
      </trkpt>
      <trkpt lat="44.8743710" lon="7.0499180">
        <ele>1828.6</ele>
        <time>2017-07-26T12:17:29Z</time>
      </trkpt>
      <trkpt lat="44.8743920" lon="7.0499170">
        <ele>1827.2</ele>
        <time>2017-07-26T12:17:30Z</time>
      </trkpt>
      <trkpt lat="44.8744140" lon="7.0499290">
        <ele>1825.2</ele>
        <time>2017-07-26T12:17:32Z</time>
      </trkpt>
      <trkpt lat="44.8744270" lon="7.0499070">
        <ele>1824.4</ele>
        <time>2017-07-26T12:17:33Z</time>
      </trkpt>
      <trkpt lat="44.8744340" lon="7.0498600">
        <ele>1823.2</ele>
        <time>2017-07-26T12:17:34Z</time>
      </trkpt>
      <trkpt lat="44.8744430" lon="7.0498170">
        <ele>1822.0</ele>
        <time>2017-07-26T12:17:35Z</time>
      </trkpt>
      <trkpt lat="44.8744580" lon="7.0497630">
        <ele>1820.4</ele>
        <time>2017-07-26T12:17:36Z</time>
      </trkpt>
      <trkpt lat="44.8744510" lon="7.0497140">
        <ele>1819.2</ele>
        <time>2017-07-26T12:17:37Z</time>
      </trkpt>
      <trkpt lat="44.8744280" lon="7.0496810">
        <ele>1818.0</ele>
        <time>2017-07-26T12:17:38Z</time>
      </trkpt>
      <trkpt lat="44.8744150" lon="7.0496490">
        <ele>1816.6</ele>
        <time>2017-07-26T12:17:39Z</time>
      </trkpt>
      <trkpt lat="44.8744090" lon="7.0496240">
        <ele>1815.2</ele>
        <time>2017-07-26T12:17:40Z</time>
      </trkpt>
      <trkpt lat="44.8744340" lon="7.0496140">
        <ele>1813.8</ele>
        <time>2017-07-26T12:17:41Z</time>
      </trkpt>
      <trkpt lat="44.8744640" lon="7.0496050">
        <ele>1812.6</ele>
        <time>2017-07-26T12:17:42Z</time>
      </trkpt>
      <trkpt lat="44.8744880" lon="7.0495880">
        <ele>1811.4</ele>
        <time>2017-07-26T12:17:43Z</time>
      </trkpt>
      <trkpt lat="44.8745190" lon="7.0495510">
        <ele>1810.0</ele>
        <time>2017-07-26T12:17:44Z</time>
      </trkpt>
      <trkpt lat="44.8745540" lon="7.0495230">
        <ele>1808.6</ele>
        <time>2017-07-26T12:17:45Z</time>
      </trkpt>
      <trkpt lat="44.8745900" lon="7.0495110">
        <ele>1807.2</ele>
        <time>2017-07-26T12:17:46Z</time>
      </trkpt>
      <trkpt lat="44.8746200" lon="7.0494960">
        <ele>1805.6</ele>
        <time>2017-07-26T12:17:47Z</time>
      </trkpt>
      <trkpt lat="44.8746850" lon="7.0494800">
        <ele>1804.0</ele>
        <time>2017-07-26T12:17:48Z</time>
      </trkpt>
      <trkpt lat="44.8747560" lon="7.0494680">
        <ele>1802.4</ele>
        <time>2017-07-26T12:17:49Z</time>
      </trkpt>
      <trkpt lat="44.8748200" lon="7.0494550">
        <ele>1800.8</ele>
        <time>2017-07-26T12:17:50Z</time>
      </trkpt>
      <trkpt lat="44.8748880" lon="7.0494230">
        <ele>1797.6</ele>
        <time>2017-07-26T12:17:51Z</time>
      </trkpt>
      <trkpt lat="44.8749530" lon="7.0494000">
        <ele>1796.2</ele>
        <time>2017-07-26T12:17:52Z</time>
      </trkpt>
      <trkpt lat="44.8750380" lon="7.0493800">
        <ele>1794.6</ele>
        <time>2017-07-26T12:17:53Z</time>
      </trkpt>
      <trkpt lat="44.8750950" lon="7.0493510">
        <ele>1793.0</ele>
        <time>2017-07-26T12:17:54Z</time>
      </trkpt>
      <trkpt lat="44.8751450" lon="7.0493050">
        <ele>1791.6</ele>
        <time>2017-07-26T12:17:55Z</time>
      </trkpt>
      <trkpt lat="44.8751800" lon="7.0492420">
        <ele>1790.2</ele>
        <time>2017-07-26T12:17:56Z</time>
      </trkpt>
      <trkpt lat="44.8751970" lon="7.0491990">
        <ele>1788.4</ele>
        <time>2017-07-26T12:17:57Z</time>
      </trkpt>
      <trkpt lat="44.8751900" lon="7.0491310">
        <ele>1786.8</ele>
        <time>2017-07-26T12:17:58Z</time>
      </trkpt>
      <trkpt lat="44.8752020" lon="7.0490830">
        <ele>1785.2</ele>
        <time>2017-07-26T12:17:59Z</time>
      </trkpt>
      <trkpt lat="44.8752070" lon="7.0490160">
        <ele>1784.0</ele>
        <time>2017-07-26T12:18:00Z</time>
      </trkpt>
      <trkpt lat="44.8752290" lon="7.0489440">
        <ele>1782.8</ele>
        <time>2017-07-26T12:18:01Z</time>
      </trkpt>
      <trkpt lat="44.8752420" lon="7.0488670">
        <ele>1781.4</ele>
        <time>2017-07-26T12:18:02Z</time>
      </trkpt>
      <trkpt lat="44.8752410" lon="7.0487840">
        <ele>1780.2</ele>
        <time>2017-07-26T12:18:03Z</time>
      </trkpt>
      <trkpt lat="44.8752650" lon="7.0487230">
        <ele>1778.8</ele>
        <time>2017-07-26T12:18:04Z</time>
      </trkpt>
      <trkpt lat="44.8752960" lon="7.0486580">
        <ele>1777.4</ele>
        <time>2017-07-26T12:18:05Z</time>
      </trkpt>
      <trkpt lat="44.8753300" lon="7.0485810">
        <ele>1775.8</ele>
        <time>2017-07-26T12:18:06Z</time>
      </trkpt>
      <trkpt lat="44.8753720" lon="7.0485010">
        <ele>1774.4</ele>
        <time>2017-07-26T12:18:07Z</time>
      </trkpt>
      <trkpt lat="44.8754070" lon="7.0484320">
        <ele>1773.4</ele>
        <time>2017-07-26T12:18:08Z</time>
      </trkpt>
      <trkpt lat="44.8754430" lon="7.0483770">
        <ele>1772.4</ele>
        <time>2017-07-26T12:18:09Z</time>
      </trkpt>
      <trkpt lat="44.8754750" lon="7.0483280">
        <ele>1771.0</ele>
        <time>2017-07-26T12:18:10Z</time>
      </trkpt>
      <trkpt lat="44.8755500" lon="7.0483280">
        <ele>1769.0</ele>
        <time>2017-07-26T12:18:12Z</time>
      </trkpt>
      <trkpt lat="44.8756060" lon="7.0483650">
        <ele>1768.2</ele>
        <time>2017-07-26T12:18:13Z</time>
      </trkpt>
      <trkpt lat="44.8756510" lon="7.0483690">
        <ele>1767.0</ele>
        <time>2017-07-26T12:18:14Z</time>
      </trkpt>
      <trkpt lat="44.8756950" lon="7.0483230">
        <ele>1765.2</ele>
        <time>2017-07-26T12:18:15Z</time>
      </trkpt>
      <trkpt lat="44.8757260" lon="7.0482650">
        <ele>1764.0</ele>
        <time>2017-07-26T12:18:16Z</time>
      </trkpt>
      <trkpt lat="44.8757610" lon="7.0481740">
        <ele>1761.8</ele>
        <time>2017-07-26T12:18:18Z</time>
      </trkpt>
      <trkpt lat="44.8758230" lon="7.0481360">
        <ele>1760.0</ele>
        <time>2017-07-26T12:18:20Z</time>
      </trkpt>
      <trkpt lat="44.8758660" lon="7.0481330">
        <ele>1758.8</ele>
        <time>2017-07-26T12:18:21Z</time>
      </trkpt>
      <trkpt lat="44.8759180" lon="7.0481310">
        <ele>1757.8</ele>
        <time>2017-07-26T12:18:22Z</time>
      </trkpt>
      <trkpt lat="44.8759770" lon="7.0481270">
        <ele>1756.6</ele>
        <time>2017-07-26T12:18:23Z</time>
      </trkpt>
      <trkpt lat="44.8761080" lon="7.0481020">
        <ele>1755.0</ele>
        <time>2017-07-26T12:18:25Z</time>
      </trkpt>
      <trkpt lat="44.8761570" lon="7.0481100">
        <ele>1753.8</ele>
        <time>2017-07-26T12:18:26Z</time>
      </trkpt>
      <trkpt lat="44.8762030" lon="7.0481240">
        <ele>1752.2</ele>
        <time>2017-07-26T12:18:27Z</time>
      </trkpt>
      <trkpt lat="44.8762640" lon="7.0481230">
        <ele>1751.0</ele>
        <time>2017-07-26T12:18:28Z</time>
      </trkpt>
      <trkpt lat="44.8763640" lon="7.0481060">
        <ele>1749.0</ele>
        <time>2017-07-26T12:18:30Z</time>
      </trkpt>
      <trkpt lat="44.8763960" lon="7.0480370">
        <ele>1747.6</ele>
        <time>2017-07-26T12:18:31Z</time>
      </trkpt>
      <trkpt lat="44.8764320" lon="7.0479560">
        <ele>1746.0</ele>
        <time>2017-07-26T12:18:32Z</time>
      </trkpt>
      <trkpt lat="44.8764710" lon="7.0478610">
        <ele>1744.6</ele>
        <time>2017-07-26T12:18:33Z</time>
      </trkpt>
      <trkpt lat="44.8765130" lon="7.0477770">
        <ele>1743.4</ele>
        <time>2017-07-26T12:18:34Z</time>
      </trkpt>
      <trkpt lat="44.8765450" lon="7.0477020">
        <ele>1742.2</ele>
        <time>2017-07-26T12:18:35Z</time>
      </trkpt>
      <trkpt lat="44.8765660" lon="7.0476100">
        <ele>1740.6</ele>
        <time>2017-07-26T12:18:36Z</time>
      </trkpt>
      <trkpt lat="44.8765800" lon="7.0475200">
        <ele>1739.2</ele>
        <time>2017-07-26T12:18:37Z</time>
      </trkpt>
      <trkpt lat="44.8765770" lon="7.0474160">
        <ele>1737.8</ele>
        <time>2017-07-26T12:18:38Z</time>
      </trkpt>
      <trkpt lat="44.8765690" lon="7.0473020">
        <ele>1734.8</ele>
        <time>2017-07-26T12:18:39Z</time>
      </trkpt>
      <trkpt lat="44.8765560" lon="7.0471850">
        <ele>1733.0</ele>
        <time>2017-07-26T12:18:40Z</time>
      </trkpt>
      <trkpt lat="44.8765290" lon="7.0470730">
        <ele>1731.0</ele>
        <time>2017-07-26T12:18:41Z</time>
      </trkpt>
      <trkpt lat="44.8764900" lon="7.0469810">
        <ele>1729.4</ele>
        <time>2017-07-26T12:18:42Z</time>
      </trkpt>
      <trkpt lat="44.8764290" lon="7.0469220">
        <ele>1727.4</ele>
        <time>2017-07-26T12:18:43Z</time>
      </trkpt>
      <trkpt lat="44.8763620" lon="7.0469090">
        <ele>1725.6</ele>
        <time>2017-07-26T12:18:44Z</time>
      </trkpt>
      <trkpt lat="44.8762910" lon="7.0469120">
        <ele>1723.8</ele>
        <time>2017-07-26T12:18:45Z</time>
      </trkpt>
      <trkpt lat="44.8762100" lon="7.0469250">
        <ele>1722.4</ele>
        <time>2017-07-26T12:18:46Z</time>
      </trkpt>
      <trkpt lat="44.8761170" lon="7.0468850">
        <ele>1720.8</ele>
        <time>2017-07-26T12:18:47Z</time>
      </trkpt>
      <trkpt lat="44.8760440" lon="7.0468230">
        <ele>1719.2</ele>
        <time>2017-07-26T12:18:48Z</time>
      </trkpt>
      <trkpt lat="44.8759870" lon="7.0467490">
        <ele>1717.8</ele>
        <time>2017-07-26T12:18:49Z</time>
      </trkpt>
      <trkpt lat="44.8759470" lon="7.0466650">
        <ele>1716.6</ele>
        <time>2017-07-26T12:18:50Z</time>
      </trkpt>
      <trkpt lat="44.8759000" lon="7.0465760">
        <ele>1715.0</ele>
        <time>2017-07-26T12:18:51Z</time>
      </trkpt>
      <trkpt lat="44.8758790" lon="7.0464780">
        <ele>1713.8</ele>
        <time>2017-07-26T12:18:52Z</time>
      </trkpt>
      <trkpt lat="44.8758730" lon="7.0463820">
        <ele>1712.2</ele>
        <time>2017-07-26T12:18:53Z</time>
      </trkpt>
      <trkpt lat="44.8758630" lon="7.0462850">
        <ele>1711.2</ele>
        <time>2017-07-26T12:18:54Z</time>
      </trkpt>
      <trkpt lat="44.8758470" lon="7.0461940">
        <ele>1709.6</ele>
        <time>2017-07-26T12:18:55Z</time>
      </trkpt>
      <trkpt lat="44.8758130" lon="7.0461210">
        <ele>1708.4</ele>
        <time>2017-07-26T12:18:56Z</time>
      </trkpt>
      <trkpt lat="44.8757990" lon="7.0460570">
        <ele>1707.0</ele>
        <time>2017-07-26T12:18:57Z</time>
      </trkpt>
      <trkpt lat="44.8758020" lon="7.0459920">
        <ele>1706.0</ele>
        <time>2017-07-26T12:18:58Z</time>
      </trkpt>
      <trkpt lat="44.8757970" lon="7.0459400">
        <ele>1704.8</ele>
        <time>2017-07-26T12:18:59Z</time>
      </trkpt>
      <trkpt lat="44.8757950" lon="7.0458660">
        <ele>1702.6</ele>
        <time>2017-07-26T12:19:01Z</time>
      </trkpt>
      <trkpt lat="44.8758070" lon="7.0458280">
        <ele>1701.6</ele>
        <time>2017-07-26T12:19:02Z</time>
      </trkpt>
      <trkpt lat="44.8758080" lon="7.0457880">
        <ele>1699.4</ele>
        <time>2017-07-26T12:19:03Z</time>
      </trkpt>
      <trkpt lat="44.8758230" lon="7.0457530">
        <ele>1698.4</ele>
        <time>2017-07-26T12:19:04Z</time>
      </trkpt>
      <trkpt lat="44.8758450" lon="7.0457100">
        <ele>1697.2</ele>
        <time>2017-07-26T12:19:05Z</time>
      </trkpt>
      <trkpt lat="44.8759360" lon="7.0456320">
        <ele>1695.4</ele>
        <time>2017-07-26T12:19:07Z</time>
      </trkpt>
      <trkpt lat="44.8760060" lon="7.0456280">
        <ele>1694.2</ele>
        <time>2017-07-26T12:19:08Z</time>
      </trkpt>
      <trkpt lat="44.8760790" lon="7.0456240">
        <ele>1692.8</ele>
        <time>2017-07-26T12:19:09Z</time>
      </trkpt>
      <trkpt lat="44.8762130" lon="7.0455960">
        <ele>1691.0</ele>
        <time>2017-07-26T12:19:11Z</time>
      </trkpt>
      <trkpt lat="44.8762870" lon="7.0455720">
        <ele>1689.6</ele>
        <time>2017-07-26T12:19:12Z</time>
      </trkpt>
      <trkpt lat="44.8763640" lon="7.0455490">
        <ele>1688.2</ele>
        <time>2017-07-26T12:19:13Z</time>
      </trkpt>
      <trkpt lat="44.8765270" lon="7.0455350">
        <ele>1686.2</ele>
        <time>2017-07-26T12:19:15Z</time>
      </trkpt>
      <trkpt lat="44.8766050" lon="7.0455500">
        <ele>1685.4</ele>
        <time>2017-07-26T12:19:16Z</time>
      </trkpt>
      <trkpt lat="44.8766840" lon="7.0455350">
        <ele>1684.2</ele>
        <time>2017-07-26T12:19:17Z</time>
      </trkpt>
      <trkpt lat="44.8768520" lon="7.0454580">
        <ele>1681.8</ele>
        <time>2017-07-26T12:19:19Z</time>
      </trkpt>
      <trkpt lat="44.8769200" lon="7.0454330">
        <ele>1680.6</ele>
        <time>2017-07-26T12:19:20Z</time>
      </trkpt>
      <trkpt lat="44.8769750" lon="7.0454550">
        <ele>1679.4</ele>
        <time>2017-07-26T12:19:21Z</time>
      </trkpt>
      <trkpt lat="44.8770200" lon="7.0454740">
        <ele>1678.4</ele>
        <time>2017-07-26T12:19:22Z</time>
      </trkpt>
      <trkpt lat="44.8770830" lon="7.0455010">
        <ele>1677.8</ele>
        <time>2017-07-26T12:19:23Z</time>
      </trkpt>
      <trkpt lat="44.8772480" lon="7.0455490">
        <ele>1676.2</ele>
        <time>2017-07-26T12:19:25Z</time>
      </trkpt>
      <trkpt lat="44.8773230" lon="7.0455550">
        <ele>1675.0</ele>
        <time>2017-07-26T12:19:26Z</time>
      </trkpt>
      <trkpt lat="44.8773940" lon="7.0455550">
        <ele>1673.8</ele>
        <time>2017-07-26T12:19:27Z</time>
      </trkpt>
      <trkpt lat="44.8774490" lon="7.0455750">
        <ele>1671.4</ele>
        <time>2017-07-26T12:19:28Z</time>
      </trkpt>
      <trkpt lat="44.8774970" lon="7.0456030">
        <ele>1670.4</ele>
        <time>2017-07-26T12:19:29Z</time>
      </trkpt>
      <trkpt lat="44.8775410" lon="7.0456150">
        <ele>1669.0</ele>
        <time>2017-07-26T12:19:30Z</time>
      </trkpt>
      <trkpt lat="44.8775880" lon="7.0456120">
        <ele>1667.8</ele>
        <time>2017-07-26T12:19:31Z</time>
      </trkpt>
      <trkpt lat="44.8776130" lon="7.0456170">
        <ele>1666.6</ele>
        <time>2017-07-26T12:19:32Z</time>
      </trkpt>
      <trkpt lat="44.8776270" lon="7.0456100">
        <ele>1665.2</ele>
        <time>2017-07-26T12:19:33Z</time>
      </trkpt>
      <trkpt lat="44.8776180" lon="7.0455700">
        <ele>1664.2</ele>
        <time>2017-07-26T12:19:34Z</time>
      </trkpt>
      <trkpt lat="44.8776030" lon="7.0455320">
        <ele>1663.0</ele>
        <time>2017-07-26T12:19:35Z</time>
      </trkpt>
      <trkpt lat="44.8775780" lon="7.0454980">
        <ele>1661.8</ele>
        <time>2017-07-26T12:19:36Z</time>
      </trkpt>
      <trkpt lat="44.8775390" lon="7.0454310">
        <ele>1660.6</ele>
        <time>2017-07-26T12:19:37Z</time>
      </trkpt>
      <trkpt lat="44.8774940" lon="7.0453770">
        <ele>1659.4</ele>
        <time>2017-07-26T12:19:38Z</time>
      </trkpt>
      <trkpt lat="44.8774690" lon="7.0453100">
        <ele>1658.4</ele>
        <time>2017-07-26T12:19:39Z</time>
      </trkpt>
      <trkpt lat="44.8774780" lon="7.0452230">
        <ele>1657.0</ele>
        <time>2017-07-26T12:19:40Z</time>
      </trkpt>
      <trkpt lat="44.8774840" lon="7.0451540">
        <ele>1656.0</ele>
        <time>2017-07-26T12:19:41Z</time>
      </trkpt>
      <trkpt lat="44.8774990" lon="7.0450960">
        <ele>1654.2</ele>
        <time>2017-07-26T12:19:42Z</time>
      </trkpt>
      <trkpt lat="44.8775250" lon="7.0450370">
        <ele>1653.0</ele>
        <time>2017-07-26T12:19:43Z</time>
      </trkpt>
      <trkpt lat="44.8775600" lon="7.0449810">
        <ele>1651.6</ele>
        <time>2017-07-26T12:19:44Z</time>
      </trkpt>
      <trkpt lat="44.8776620" lon="7.0448730">
        <ele>1649.4</ele>
        <time>2017-07-26T12:19:46Z</time>
      </trkpt>
      <trkpt lat="44.8777190" lon="7.0448250">
        <ele>1647.6</ele>
        <time>2017-07-26T12:19:47Z</time>
      </trkpt>
      <trkpt lat="44.8777790" lon="7.0448080">
        <ele>1645.8</ele>
        <time>2017-07-26T12:19:48Z</time>
      </trkpt>
      <trkpt lat="44.8778430" lon="7.0447810">
        <ele>1643.8</ele>
        <time>2017-07-26T12:19:49Z</time>
      </trkpt>
      <trkpt lat="44.8779370" lon="7.0447170">
        <ele>1642.2</ele>
        <time>2017-07-26T12:19:50Z</time>
      </trkpt>
      <trkpt lat="44.8780000" lon="7.0446400">
        <ele>1640.4</ele>
        <time>2017-07-26T12:19:51Z</time>
      </trkpt>
      <trkpt lat="44.8780740" lon="7.0445680">
        <ele>1637.0</ele>
        <time>2017-07-26T12:19:52Z</time>
      </trkpt>
      <trkpt lat="44.8781260" lon="7.0445320">
        <ele>1635.6</ele>
        <time>2017-07-26T12:19:53Z</time>
      </trkpt>
      <trkpt lat="44.8781730" lon="7.0445290">
        <ele>1634.2</ele>
        <time>2017-07-26T12:19:54Z</time>
      </trkpt>
      <trkpt lat="44.8782170" lon="7.0445490">
        <ele>1633.0</ele>
        <time>2017-07-26T12:19:55Z</time>
      </trkpt>
      <trkpt lat="44.8782670" lon="7.0445740">
        <ele>1631.6</ele>
        <time>2017-07-26T12:19:56Z</time>
      </trkpt>
      <trkpt lat="44.8783280" lon="7.0445990">
        <ele>1630.4</ele>
        <time>2017-07-26T12:19:57Z</time>
      </trkpt>
      <trkpt lat="44.8783890" lon="7.0445960">
        <ele>1629.0</ele>
        <time>2017-07-26T12:19:58Z</time>
      </trkpt>
      <trkpt lat="44.8785580" lon="7.0445840">
        <ele>1626.6</ele>
        <time>2017-07-26T12:20:00Z</time>
      </trkpt>
      <trkpt lat="44.8786770" lon="7.0445880">
        <ele>1625.0</ele>
        <time>2017-07-26T12:20:01Z</time>
      </trkpt>
      <trkpt lat="44.8787950" lon="7.0445900">
        <ele>1623.4</ele>
        <time>2017-07-26T12:20:02Z</time>
      </trkpt>
      <trkpt lat="44.8789400" lon="7.0445870">
        <ele>1621.8</ele>
        <time>2017-07-26T12:20:03Z</time>
      </trkpt>
      <trkpt lat="44.8790610" lon="7.0445700">
        <ele>1620.6</ele>
        <time>2017-07-26T12:20:04Z</time>
      </trkpt>
      <trkpt lat="44.8791710" lon="7.0445370">
        <ele>1619.2</ele>
        <time>2017-07-26T12:20:05Z</time>
      </trkpt>
      <trkpt lat="44.8792480" lon="7.0444850">
        <ele>1617.8</ele>
        <time>2017-07-26T12:20:06Z</time>
      </trkpt>
      <trkpt lat="44.8792820" lon="7.0444110">
        <ele>1616.4</ele>
        <time>2017-07-26T12:20:07Z</time>
      </trkpt>
      <trkpt lat="44.8793430" lon="7.0443650">
        <ele>1614.6</ele>
        <time>2017-07-26T12:20:08Z</time>
      </trkpt>
      <trkpt lat="44.8793890" lon="7.0443210">
        <ele>1613.0</ele>
        <time>2017-07-26T12:20:09Z</time>
      </trkpt>
      <trkpt lat="44.8794220" lon="7.0442690">
        <ele>1611.0</ele>
        <time>2017-07-26T12:20:10Z</time>
      </trkpt>
      <trkpt lat="44.8794440" lon="7.0442070">
        <ele>1609.2</ele>
        <time>2017-07-26T12:20:11Z</time>
      </trkpt>
      <trkpt lat="44.8794470" lon="7.0441410">
        <ele>1607.6</ele>
        <time>2017-07-26T12:20:12Z</time>
      </trkpt>
      <trkpt lat="44.8794200" lon="7.0440650">
        <ele>1606.2</ele>
        <time>2017-07-26T12:20:13Z</time>
      </trkpt>
      <trkpt lat="44.8793700" lon="7.0439870">
        <ele>1604.4</ele>
        <time>2017-07-26T12:20:14Z</time>
      </trkpt>
      <trkpt lat="44.8792990" lon="7.0439190">
        <ele>1602.6</ele>
        <time>2017-07-26T12:20:15Z</time>
      </trkpt>
      <trkpt lat="44.8792110" lon="7.0438330">
        <ele>1599.4</ele>
        <time>2017-07-26T12:20:16Z</time>
      </trkpt>
      <trkpt lat="44.8791200" lon="7.0437400">
        <ele>1597.6</ele>
        <time>2017-07-26T12:20:17Z</time>
      </trkpt>
      <trkpt lat="44.8790390" lon="7.0436520">
        <ele>1595.2</ele>
        <time>2017-07-26T12:20:18Z</time>
      </trkpt>
      <trkpt lat="44.8789790" lon="7.0435520">
        <ele>1593.6</ele>
        <time>2017-07-26T12:20:19Z</time>
      </trkpt>
      <trkpt lat="44.8789350" lon="7.0434510">
        <ele>1592.0</ele>
        <time>2017-07-26T12:20:20Z</time>
      </trkpt>
      <trkpt lat="44.8788850" lon="7.0433570">
        <ele>1590.8</ele>
        <time>2017-07-26T12:20:21Z</time>
      </trkpt>
      <trkpt lat="44.8788460" lon="7.0432620">
        <ele>1589.4</ele>
        <time>2017-07-26T12:20:22Z</time>
      </trkpt>
      <trkpt lat="44.8788140" lon="7.0431730">
        <ele>1588.0</ele>
        <time>2017-07-26T12:20:23Z</time>
      </trkpt>
      <trkpt lat="44.8787970" lon="7.0431130">
        <ele>1586.4</ele>
        <time>2017-07-26T12:20:24Z</time>
      </trkpt>
      <trkpt lat="44.8787960" lon="7.0430740">
        <ele>1584.8</ele>
        <time>2017-07-26T12:20:25Z</time>
      </trkpt>
      <trkpt lat="44.8788050" lon="7.0430500">
        <ele>1583.0</ele>
        <time>2017-07-26T12:20:26Z</time>
      </trkpt>
      <trkpt lat="44.8788310" lon="7.0430400">
        <ele>1581.4</ele>
        <time>2017-07-26T12:20:27Z</time>
      </trkpt>
      <trkpt lat="44.8788850" lon="7.0430230">
        <ele>1580.0</ele>
        <time>2017-07-26T12:20:28Z</time>
      </trkpt>
      <trkpt lat="44.8789550" lon="7.0430160">
        <ele>1578.6</ele>
        <time>2017-07-26T12:20:29Z</time>
      </trkpt>
      <trkpt lat="44.8790370" lon="7.0430200">
        <ele>1576.8</ele>
        <time>2017-07-26T12:20:30Z</time>
      </trkpt>
      <trkpt lat="44.8791270" lon="7.0430320">
        <ele>1575.4</ele>
        <time>2017-07-26T12:20:31Z</time>
      </trkpt>
      <trkpt lat="44.8792240" lon="7.0430490">
        <ele>1574.0</ele>
        <time>2017-07-26T12:20:32Z</time>
      </trkpt>
      <trkpt lat="44.8793990" lon="7.0430780">
        <ele>1572.8</ele>
        <time>2017-07-26T12:20:33Z</time>
      </trkpt>
      <trkpt lat="44.8794940" lon="7.0431100">
        <ele>1571.2</ele>
        <time>2017-07-26T12:20:34Z</time>
      </trkpt>
      <trkpt lat="44.8796080" lon="7.0431420">
        <ele>1570.0</ele>
        <time>2017-07-26T12:20:35Z</time>
      </trkpt>
      <trkpt lat="44.8797060" lon="7.0431920">
        <ele>1568.6</ele>
        <time>2017-07-26T12:20:36Z</time>
      </trkpt>
      <trkpt lat="44.8798060" lon="7.0432250">
        <ele>1567.4</ele>
        <time>2017-07-26T12:20:37Z</time>
      </trkpt>
      <trkpt lat="44.8799110" lon="7.0432610">
        <ele>1566.0</ele>
        <time>2017-07-26T12:20:38Z</time>
      </trkpt>
      <trkpt lat="44.8800310" lon="7.0432810">
        <ele>1564.8</ele>
        <time>2017-07-26T12:20:39Z</time>
      </trkpt>
      <trkpt lat="44.8801350" lon="7.0433030">
        <ele>1562.6</ele>
        <time>2017-07-26T12:20:40Z</time>
      </trkpt>
      <trkpt lat="44.8802240" lon="7.0433500">
        <ele>1561.4</ele>
        <time>2017-07-26T12:20:41Z</time>
      </trkpt>
      <trkpt lat="44.8803080" lon="7.0434000">
        <ele>1560.2</ele>
        <time>2017-07-26T12:20:42Z</time>
      </trkpt>
      <trkpt lat="44.8804590" lon="7.0435120">
        <ele>1558.6</ele>
        <time>2017-07-26T12:20:44Z</time>
      </trkpt>
      <trkpt lat="44.8805260" lon="7.0435490">
        <ele>1557.4</ele>
        <time>2017-07-26T12:20:45Z</time>
      </trkpt>
      <trkpt lat="44.8805860" lon="7.0435630">
        <ele>1556.4</ele>
        <time>2017-07-26T12:20:46Z</time>
      </trkpt>
      <trkpt lat="44.8806300" lon="7.0435680">
        <ele>1555.2</ele>
        <time>2017-07-26T12:20:47Z</time>
      </trkpt>
      <trkpt lat="44.8807050" lon="7.0435310">
        <ele>1553.4</ele>
        <time>2017-07-26T12:20:49Z</time>
      </trkpt>
      <trkpt lat="44.8807390" lon="7.0434860">
        <ele>1551.8</ele>
        <time>2017-07-26T12:20:51Z</time>
      </trkpt>
      <trkpt lat="44.8807250" lon="7.0434820">
        <ele>1550.2</ele>
        <time>2017-07-26T12:20:53Z</time>
      </trkpt>
      <trkpt lat="44.8807230" lon="7.0434840">
        <ele>1549.4</ele>
        <time>2017-07-26T12:20:54Z</time>
      </trkpt>
      <trkpt lat="44.8807850" lon="7.0435780">
        <ele>1546.8</ele>
        <time>2017-07-26T12:20:58Z</time>
      </trkpt>
      <trkpt lat="44.8807930" lon="7.0436350">
        <ele>1545.6</ele>
        <time>2017-07-26T12:21:00Z</time>
      </trkpt>
      <trkpt lat="44.8808460" lon="7.0437200">
        <ele>1544.0</ele>
        <time>2017-07-26T12:21:02Z</time>
      </trkpt>
      <trkpt lat="44.8808890" lon="7.0437240">
        <ele>1543.0</ele>
        <time>2017-07-26T12:21:03Z</time>
      </trkpt>
      <trkpt lat="44.8809030" lon="7.0437010">
        <ele>1541.2</ele>
        <time>2017-07-26T12:21:04Z</time>
      </trkpt>
      <trkpt lat="44.8809250" lon="7.0436310">
        <ele>1540.0</ele>
        <time>2017-07-26T12:21:05Z</time>
      </trkpt>
      <trkpt lat="44.8809400" lon="7.0435640">
        <ele>1538.6</ele>
        <time>2017-07-26T12:21:06Z</time>
      </trkpt>
      <trkpt lat="44.8809690" lon="7.0435180">
        <ele>1537.4</ele>
        <time>2017-07-26T12:21:07Z</time>
      </trkpt>
      <trkpt lat="44.8809870" lon="7.0434860">
        <ele>1536.4</ele>
        <time>2017-07-26T12:21:08Z</time>
      </trkpt>
      <trkpt lat="44.8810040" lon="7.0434710">
        <ele>1535.4</ele>
        <time>2017-07-26T12:21:09Z</time>
      </trkpt>
      <trkpt lat="44.8810300" lon="7.0434740">
        <ele>1534.4</ele>
        <time>2017-07-26T12:21:10Z</time>
      </trkpt>
      <trkpt lat="44.8810710" lon="7.0435110">
        <ele>1533.4</ele>
        <time>2017-07-26T12:21:11Z</time>
      </trkpt>
      <trkpt lat="44.8811050" lon="7.0435630">
        <ele>1532.4</ele>
        <time>2017-07-26T12:21:12Z</time>
      </trkpt>
      <trkpt lat="44.8811370" lon="7.0436050">
        <ele>1531.0</ele>
        <time>2017-07-26T12:21:13Z</time>
      </trkpt>
      <trkpt lat="44.8811590" lon="7.0436590">
        <ele>1529.6</ele>
        <time>2017-07-26T12:21:14Z</time>
      </trkpt>
      <trkpt lat="44.8811900" lon="7.0437010">
        <ele>1528.4</ele>
        <time>2017-07-26T12:21:15Z</time>
      </trkpt>
      <trkpt lat="44.8812700" lon="7.0437740">
        <ele>1527.0</ele>
        <time>2017-07-26T12:21:16Z</time>
      </trkpt>
      <trkpt lat="44.8813170" lon="7.0438230">
        <ele>1525.8</ele>
        <time>2017-07-26T12:21:17Z</time>
      </trkpt>
      <trkpt lat="44.8813670" lon="7.0437890">
        <ele>1524.4</ele>
        <time>2017-07-26T12:21:18Z</time>
      </trkpt>
      <trkpt lat="44.8814060" lon="7.0437580">
        <ele>1523.0</ele>
        <time>2017-07-26T12:21:19Z</time>
      </trkpt>
      <trkpt lat="44.8814420" lon="7.0437160">
        <ele>1521.6</ele>
        <time>2017-07-26T12:21:20Z</time>
      </trkpt>
      <trkpt lat="44.8814780" lon="7.0436560">
        <ele>1520.2</ele>
        <time>2017-07-26T12:21:21Z</time>
      </trkpt>
      <trkpt lat="44.8815250" lon="7.0435970">
        <ele>1518.6</ele>
        <time>2017-07-26T12:21:22Z</time>
      </trkpt>
      <trkpt lat="44.8815700" lon="7.0435360">
        <ele>1517.4</ele>
        <time>2017-07-26T12:21:23Z</time>
      </trkpt>
      <trkpt lat="44.8816150" lon="7.0435040">
        <ele>1516.4</ele>
        <time>2017-07-26T12:21:24Z</time>
      </trkpt>
      <trkpt lat="44.8816540" lon="7.0434710">
        <ele>1515.2</ele>
        <time>2017-07-26T12:21:25Z</time>
      </trkpt>
      <trkpt lat="44.8816960" lon="7.0434230">
        <ele>1514.0</ele>
        <time>2017-07-26T12:21:26Z</time>
      </trkpt>
      <trkpt lat="44.8817390" lon="7.0434080">
        <ele>1513.0</ele>
        <time>2017-07-26T12:21:27Z</time>
      </trkpt>
      <trkpt lat="44.8817800" lon="7.0433930">
        <ele>1510.4</ele>
        <time>2017-07-26T12:21:28Z</time>
      </trkpt>
      <trkpt lat="44.8818390" lon="7.0433680">
        <ele>1509.0</ele>
        <time>2017-07-26T12:21:29Z</time>
      </trkpt>
      <trkpt lat="44.8819430" lon="7.0433860">
        <ele>1507.6</ele>
        <time>2017-07-26T12:21:30Z</time>
      </trkpt>
      <trkpt lat="44.8820280" lon="7.0433660">
        <ele>1506.4</ele>
        <time>2017-07-26T12:21:31Z</time>
      </trkpt>
      <trkpt lat="44.8821080" lon="7.0433610">
        <ele>1505.2</ele>
        <time>2017-07-26T12:21:32Z</time>
      </trkpt>
      <trkpt lat="44.8821750" lon="7.0433520">
        <ele>1503.8</ele>
        <time>2017-07-26T12:21:33Z</time>
      </trkpt>
      <trkpt lat="44.8822610" lon="7.0433860">
        <ele>1502.8</ele>
        <time>2017-07-26T12:21:34Z</time>
      </trkpt>
      <trkpt lat="44.8823530" lon="7.0433970">
        <ele>1501.6</ele>
        <time>2017-07-26T12:21:35Z</time>
      </trkpt>
      <trkpt lat="44.8825180" lon="7.0433240">
        <ele>1499.6</ele>
        <time>2017-07-26T12:21:37Z</time>
      </trkpt>
      <trkpt lat="44.8826040" lon="7.0433010">
        <ele>1498.4</ele>
        <time>2017-07-26T12:21:38Z</time>
      </trkpt>
      <trkpt lat="44.8826710" lon="7.0432840">
        <ele>1497.2</ele>
        <time>2017-07-26T12:21:39Z</time>
      </trkpt>
      <trkpt lat="44.8827390" lon="7.0432600">
        <ele>1496.4</ele>
        <time>2017-07-26T12:21:40Z</time>
      </trkpt>
      <trkpt lat="44.8828160" lon="7.0432130">
        <ele>1495.2</ele>
        <time>2017-07-26T12:21:41Z</time>
      </trkpt>
      <trkpt lat="44.8829600" lon="7.0431110">
        <ele>1493.2</ele>
        <time>2017-07-26T12:21:43Z</time>
      </trkpt>
      <trkpt lat="44.8830320" lon="7.0430590">
        <ele>1492.4</ele>
        <time>2017-07-26T12:21:44Z</time>
      </trkpt>
      <trkpt lat="44.8831340" lon="7.0430310">
        <ele>1490.8</ele>
        <time>2017-07-26T12:21:45Z</time>
      </trkpt>
      <trkpt lat="44.8832220" lon="7.0430020">
        <ele>1489.4</ele>
        <time>2017-07-26T12:21:46Z</time>
      </trkpt>
      <trkpt lat="44.8832660" lon="7.0429790">
        <ele>1487.6</ele>
        <time>2017-07-26T12:21:47Z</time>
      </trkpt>
      <trkpt lat="44.8832920" lon="7.0429280">
        <ele>1486.2</ele>
        <time>2017-07-26T12:21:48Z</time>
      </trkpt>
      <trkpt lat="44.8833520" lon="7.0428910">
        <ele>1484.8</ele>
        <time>2017-07-26T12:21:49Z</time>
      </trkpt>
      <trkpt lat="44.8833820" lon="7.0428700">
        <ele>1483.4</ele>
        <time>2017-07-26T12:21:50Z</time>
      </trkpt>
      <trkpt lat="44.8834050" lon="7.0428340">
        <ele>1482.2</ele>
        <time>2017-07-26T12:21:51Z</time>
      </trkpt>
      <trkpt lat="44.8833660" lon="7.0427730">
        <ele>1480.0</ele>
        <time>2017-07-26T12:21:52Z</time>
      </trkpt>
      <trkpt lat="44.8833520" lon="7.0427210">
        <ele>1478.6</ele>
        <time>2017-07-26T12:21:53Z</time>
      </trkpt>
      <trkpt lat="44.8833740" lon="7.0426660">
        <ele>1477.4</ele>
        <time>2017-07-26T12:21:54Z</time>
      </trkpt>
      <trkpt lat="44.8833800" lon="7.0426230">
        <ele>1476.2</ele>
        <time>2017-07-26T12:21:55Z</time>
      </trkpt>
      <trkpt lat="44.8833300" lon="7.0425820">
        <ele>1462.0</ele>
        <time>2017-07-26T12:22:52Z</time>
      </trkpt>
      <trkpt lat="44.8833290" lon="7.0425670">
        <ele>1461.8</ele>
        <time>2017-07-26T12:22:53Z</time>
      </trkpt>
      <trkpt lat="44.8833480" lon="7.0425910">
        <ele>1462.0</ele>
        <time>2017-07-26T12:22:55Z</time>
      </trkpt>
      <trkpt lat="44.8833650" lon="7.0426240">
        <ele>1462.4</ele>
        <time>2017-07-26T12:22:56Z</time>
      </trkpt>
      <trkpt lat="44.8834600" lon="7.0427610">
        <ele>1462.8</ele>
        <time>2017-07-26T12:22:59Z</time>
      </trkpt>
      <trkpt lat="44.8835160" lon="7.0428090">
        <ele>1463.0</ele>
        <time>2017-07-26T12:23:00Z</time>
      </trkpt>
      <trkpt lat="44.8835570" lon="7.0428760">
        <ele>1463.4</ele>
        <time>2017-07-26T12:23:01Z</time>
      </trkpt>
      <trkpt lat="44.8836490" lon="7.0430340">
        <ele>1463.8</ele>
        <time>2017-07-26T12:23:03Z</time>
      </trkpt>
      <trkpt lat="44.8837810" lon="7.0432860">
        <ele>1464.2</ele>
        <time>2017-07-26T12:23:06Z</time>
      </trkpt>
      <trkpt lat="44.8838460" lon="7.0434760">
        <ele>1464.2</ele>
        <time>2017-07-26T12:23:08Z</time>
      </trkpt>
      <trkpt lat="44.8839230" lon="7.0436770">
        <ele>1464.0</ele>
        <time>2017-07-26T12:23:10Z</time>
      </trkpt>
      <trkpt lat="44.8840530" lon="7.0439800">
        <ele>1464.2</ele>
        <time>2017-07-26T12:23:13Z</time>
      </trkpt>
      <trkpt lat="44.8843510" lon="7.0446120">
        <ele>1463.8</ele>
        <time>2017-07-26T12:23:19Z</time>
      </trkpt>
      <trkpt lat="44.8845080" lon="7.0449320">
        <ele>1463.0</ele>
        <time>2017-07-26T12:23:22Z</time>
      </trkpt>
      <trkpt lat="44.8847520" lon="7.0453260">
        <ele>1462.0</ele>
        <time>2017-07-26T12:23:26Z</time>
      </trkpt>
      <trkpt lat="44.8850640" lon="7.0455890">
        <ele>1461.0</ele>
        <time>2017-07-26T12:23:30Z</time>
      </trkpt>
      <trkpt lat="44.8851450" lon="7.0456500">
        <ele>1460.8</ele>
        <time>2017-07-26T12:23:31Z</time>
      </trkpt>
      <trkpt lat="44.8854760" lon="7.0459040">
        <ele>1459.8</ele>
        <time>2017-07-26T12:23:35Z</time>
      </trkpt>
      <trkpt lat="44.8856330" lon="7.0460390">
        <ele>1459.4</ele>
        <time>2017-07-26T12:23:37Z</time>
      </trkpt>
      <trkpt lat="44.8857100" lon="7.0461020">
        <ele>1459.2</ele>
        <time>2017-07-26T12:23:38Z</time>
      </trkpt>
      <trkpt lat="44.8857880" lon="7.0461620">
        <ele>1459.0</ele>
        <time>2017-07-26T12:23:39Z</time>
      </trkpt>
      <trkpt lat="44.8858710" lon="7.0462030">
        <ele>1459.0</ele>
        <time>2017-07-26T12:23:40Z</time>
      </trkpt>
      <trkpt lat="44.8859560" lon="7.0462360">
        <ele>1459.2</ele>
        <time>2017-07-26T12:23:41Z</time>
      </trkpt>
      <trkpt lat="44.8862240" lon="7.0462920">
        <ele>1459.2</ele>
        <time>2017-07-26T12:23:44Z</time>
      </trkpt>
      <trkpt lat="44.8863170" lon="7.0463010">
        <ele>1459.0</ele>
        <time>2017-07-26T12:23:45Z</time>
      </trkpt>
      <trkpt lat="44.8864120" lon="7.0463080">
        <ele>1459.0</ele>
        <time>2017-07-26T12:23:46Z</time>
      </trkpt>
      <trkpt lat="44.8867850" lon="7.0463230">
        <ele>1458.8</ele>
        <time>2017-07-26T12:23:50Z</time>
      </trkpt>
      <trkpt lat="44.8869680" lon="7.0463730">
        <ele>1458.0</ele>
        <time>2017-07-26T12:23:52Z</time>
      </trkpt>
      <trkpt lat="44.8873060" lon="7.0466020">
        <ele>1457.8</ele>
        <time>2017-07-26T12:23:56Z</time>
      </trkpt>
      <trkpt lat="44.8874370" lon="7.0466980">
        <ele>1457.6</ele>
        <time>2017-07-26T12:23:58Z</time>
      </trkpt>
      <trkpt lat="44.8874910" lon="7.0467390">
        <ele>1457.2</ele>
        <time>2017-07-26T12:23:59Z</time>
      </trkpt>
      <trkpt lat="44.8878130" lon="7.0469890">
        <ele>1456.8</ele>
        <time>2017-07-26T12:24:05Z</time>
      </trkpt>
      <trkpt lat="44.8879340" lon="7.0471010">
        <ele>1456.8</ele>
        <time>2017-07-26T12:24:07Z</time>
      </trkpt>
      <trkpt lat="44.8880670" lon="7.0472000">
        <ele>1456.6</ele>
        <time>2017-07-26T12:24:09Z</time>
      </trkpt>
      <trkpt lat="44.8881310" lon="7.0472540">
        <ele>1456.4</ele>
        <time>2017-07-26T12:24:10Z</time>
      </trkpt>
      <trkpt lat="44.8886230" lon="7.0476080">
        <ele>1455.6</ele>
        <time>2017-07-26T12:24:17Z</time>
      </trkpt>
      <trkpt lat="44.8887730" lon="7.0476950">
        <ele>1455.4</ele>
        <time>2017-07-26T12:24:19Z</time>
      </trkpt>
      <trkpt lat="44.8891710" lon="7.0478970">
        <ele>1455.4</ele>
        <time>2017-07-26T12:24:24Z</time>
      </trkpt>
      <trkpt lat="44.8892480" lon="7.0479320">
        <ele>1455.4</ele>
        <time>2017-07-26T12:24:25Z</time>
      </trkpt>
      <trkpt lat="44.8893100" lon="7.0479830">
        <ele>1455.4</ele>
        <time>2017-07-26T12:24:26Z</time>
      </trkpt>
      <trkpt lat="44.8893620" lon="7.0481170">
        <ele>1455.4</ele>
        <time>2017-07-26T12:24:28Z</time>
      </trkpt>
      <trkpt lat="44.8892910" lon="7.0483360">
        <ele>1454.8</ele>
        <time>2017-07-26T12:24:31Z</time>
      </trkpt>
      <trkpt lat="44.8892560" lon="7.0484150">
        <ele>1454.4</ele>
        <time>2017-07-26T12:24:32Z</time>
      </trkpt>
      <trkpt lat="44.8891890" lon="7.0486690">
        <ele>1453.4</ele>
        <time>2017-07-26T12:24:35Z</time>
      </trkpt>
      <trkpt lat="44.8892020" lon="7.0487590">
        <ele>1453.2</ele>
        <time>2017-07-26T12:24:36Z</time>
      </trkpt>
      <trkpt lat="44.8893180" lon="7.0489630">
        <ele>1452.8</ele>
        <time>2017-07-26T12:24:39Z</time>
      </trkpt>
      <trkpt lat="44.8894810" lon="7.0490900">
        <ele>1453.0</ele>
        <time>2017-07-26T12:24:42Z</time>
      </trkpt>
      <trkpt lat="44.8895410" lon="7.0491120">
        <ele>1453.2</ele>
        <time>2017-07-26T12:24:43Z</time>
      </trkpt>
      <trkpt lat="44.8897250" lon="7.0491650">
        <ele>1453.4</ele>
        <time>2017-07-26T12:24:46Z</time>
      </trkpt>
      <trkpt lat="44.8898460" lon="7.0491760">
        <ele>1453.6</ele>
        <time>2017-07-26T12:24:48Z</time>
      </trkpt>
      <trkpt lat="44.8900250" lon="7.0490560">
        <ele>1453.2</ele>
        <time>2017-07-26T12:24:51Z</time>
      </trkpt>
      <trkpt lat="44.8901460" lon="7.0489290">
        <ele>1452.4</ele>
        <time>2017-07-26T12:24:53Z</time>
      </trkpt>
      <trkpt lat="44.8902160" lon="7.0488580">
        <ele>1452.0</ele>
        <time>2017-07-26T12:24:54Z</time>
      </trkpt>
      <trkpt lat="44.8903680" lon="7.0487620">
        <ele>1451.2</ele>
        <time>2017-07-26T12:24:56Z</time>
      </trkpt>
      <trkpt lat="44.8904310" lon="7.0487460">
        <ele>1450.6</ele>
        <time>2017-07-26T12:24:57Z</time>
      </trkpt>
      <trkpt lat="44.8905460" lon="7.0487800">
        <ele>1449.6</ele>
        <time>2017-07-26T12:24:59Z</time>
      </trkpt>
      <trkpt lat="44.8906160" lon="7.0488180">
        <ele>1449.4</ele>
        <time>2017-07-26T12:25:00Z</time>
      </trkpt>
      <trkpt lat="44.8908460" lon="7.0489330">
        <ele>1449.2</ele>
        <time>2017-07-26T12:25:03Z</time>
      </trkpt>
      <trkpt lat="44.8911060" lon="7.0490500">
        <ele>1448.2</ele>
        <time>2017-07-26T12:25:06Z</time>
      </trkpt>
      <trkpt lat="44.8912720" lon="7.0491530">
        <ele>1448.0</ele>
        <time>2017-07-26T12:25:08Z</time>
      </trkpt>
      <trkpt lat="44.8916150" lon="7.0494010">
        <ele>1447.4</ele>
        <time>2017-07-26T12:25:12Z</time>
      </trkpt>
      <trkpt lat="44.8916920" lon="7.0494680">
        <ele>1447.2</ele>
        <time>2017-07-26T12:25:13Z</time>
      </trkpt>
      <trkpt lat="44.8918540" lon="7.0496070">
        <ele>1447.0</ele>
        <time>2017-07-26T12:25:15Z</time>
      </trkpt>
      <trkpt lat="44.8923340" lon="7.0500400">
        <ele>1446.6</ele>
        <time>2017-07-26T12:25:21Z</time>
      </trkpt>
      <trkpt lat="44.8924940" lon="7.0501720">
        <ele>1446.6</ele>
        <time>2017-07-26T12:25:23Z</time>
      </trkpt>
      <trkpt lat="44.8929930" lon="7.0504740">
        <ele>1446.2</ele>
        <time>2017-07-26T12:25:29Z</time>
      </trkpt>
      <trkpt lat="44.8930770" lon="7.0505130">
        <ele>1446.0</ele>
        <time>2017-07-26T12:25:30Z</time>
      </trkpt>
      <trkpt lat="44.8935140" lon="7.0506620">
        <ele>1445.2</ele>
        <time>2017-07-26T12:25:35Z</time>
      </trkpt>
      <trkpt lat="44.8936010" lon="7.0506940">
        <ele>1445.0</ele>
        <time>2017-07-26T12:25:36Z</time>
      </trkpt>
      <trkpt lat="44.8937660" lon="7.0507750">
        <ele>1444.0</ele>
        <time>2017-07-26T12:25:38Z</time>
      </trkpt>
      <trkpt lat="44.8939140" lon="7.0508910">
        <ele>1443.8</ele>
        <time>2017-07-26T12:25:40Z</time>
      </trkpt>
      <trkpt lat="44.8940540" lon="7.0510230">
        <ele>1443.2</ele>
        <time>2017-07-26T12:25:42Z</time>
      </trkpt>
      <trkpt lat="44.8941980" lon="7.0511510">
        <ele>1442.6</ele>
        <time>2017-07-26T12:25:44Z</time>
      </trkpt>
      <trkpt lat="44.8943460" lon="7.0512750">
        <ele>1442.2</ele>
        <time>2017-07-26T12:25:46Z</time>
      </trkpt>
      <trkpt lat="44.8945050" lon="7.0513750">
        <ele>1442.0</ele>
        <time>2017-07-26T12:25:48Z</time>
      </trkpt>
      <trkpt lat="44.8946780" lon="7.0514250">
        <ele>1441.6</ele>
        <time>2017-07-26T12:25:50Z</time>
      </trkpt>
      <trkpt lat="44.8949330" lon="7.0514930">
        <ele>1440.6</ele>
        <time>2017-07-26T12:25:53Z</time>
      </trkpt>
      <trkpt lat="44.8952630" lon="7.0515380">
        <ele>1439.6</ele>
        <time>2017-07-26T12:25:57Z</time>
      </trkpt>
      <trkpt lat="44.8953470" lon="7.0515320">
        <ele>1439.2</ele>
        <time>2017-07-26T12:25:58Z</time>
      </trkpt>
      <trkpt lat="44.8955140" lon="7.0514910">
        <ele>1438.8</ele>
        <time>2017-07-26T12:26:00Z</time>
      </trkpt>
      <trkpt lat="44.8955970" lon="7.0514610">
        <ele>1438.4</ele>
        <time>2017-07-26T12:26:01Z</time>
      </trkpt>
      <trkpt lat="44.8956780" lon="7.0514260">
        <ele>1438.0</ele>
        <time>2017-07-26T12:26:02Z</time>
      </trkpt>
      <trkpt lat="44.8959260" lon="7.0513310">
        <ele>1436.8</ele>
        <time>2017-07-26T12:26:05Z</time>
      </trkpt>
      <trkpt lat="44.8960870" lon="7.0512580">
        <ele>1435.6</ele>
        <time>2017-07-26T12:26:07Z</time>
      </trkpt>
      <trkpt lat="44.8962490" lon="7.0511830">
        <ele>1434.2</ele>
        <time>2017-07-26T12:26:09Z</time>
      </trkpt>
      <trkpt lat="44.8965030" lon="7.0511070">
        <ele>1433.0</ele>
        <time>2017-07-26T12:26:12Z</time>
      </trkpt>
      <trkpt lat="44.8965870" lon="7.0510940">
        <ele>1432.6</ele>
        <time>2017-07-26T12:26:13Z</time>
      </trkpt>
      <trkpt lat="44.8966640" lon="7.0510930">
        <ele>1432.2</ele>
        <time>2017-07-26T12:26:14Z</time>
      </trkpt>
      <trkpt lat="44.8967880" lon="7.0510860">
        <ele>1432.4</ele>
        <time>2017-07-26T12:26:16Z</time>
      </trkpt>
      <trkpt lat="44.8968950" lon="7.0510930">
        <ele>1432.4</ele>
        <time>2017-07-26T12:26:18Z</time>
      </trkpt>
      <trkpt lat="44.8969940" lon="7.0511400">
        <ele>1432.4</ele>
        <time>2017-07-26T12:26:20Z</time>
      </trkpt>
      <trkpt lat="44.8971430" lon="7.0512530">
        <ele>1432.8</ele>
        <time>2017-07-26T12:26:23Z</time>
      </trkpt>
      <trkpt lat="44.8972060" lon="7.0512940">
        <ele>1433.0</ele>
        <time>2017-07-26T12:26:24Z</time>
      </trkpt>
      <trkpt lat="44.8975350" lon="7.0514550">
        <ele>1433.0</ele>
        <time>2017-07-26T12:26:28Z</time>
      </trkpt>
      <trkpt lat="44.8977280" lon="7.0515560">
        <ele>1432.6</ele>
        <time>2017-07-26T12:26:30Z</time>
      </trkpt>
      <trkpt lat="44.8979010" lon="7.0516770">
        <ele>1432.2</ele>
        <time>2017-07-26T12:26:32Z</time>
      </trkpt>
      <trkpt lat="44.8979840" lon="7.0517370">
        <ele>1432.0</ele>
        <time>2017-07-26T12:26:33Z</time>
      </trkpt>
      <trkpt lat="44.8982950" lon="7.0519220">
        <ele>1431.6</ele>
        <time>2017-07-26T12:26:37Z</time>
      </trkpt>
      <trkpt lat="44.8984380" lon="7.0519860">
        <ele>1431.0</ele>
        <time>2017-07-26T12:26:39Z</time>
      </trkpt>
      <trkpt lat="44.8985110" lon="7.0520210">
        <ele>1430.8</ele>
        <time>2017-07-26T12:26:40Z</time>
      </trkpt>
      <trkpt lat="44.8986760" lon="7.0521220">
        <ele>1430.4</ele>
        <time>2017-07-26T12:26:42Z</time>
      </trkpt>
      <trkpt lat="44.8987640" lon="7.0521570">
        <ele>1430.0</ele>
        <time>2017-07-26T12:26:43Z</time>
      </trkpt>
      <trkpt lat="44.8988540" lon="7.0521780">
        <ele>1429.4</ele>
        <time>2017-07-26T12:26:44Z</time>
      </trkpt>
      <trkpt lat="44.8989460" lon="7.0521820">
        <ele>1429.2</ele>
        <time>2017-07-26T12:26:45Z</time>
      </trkpt>
      <trkpt lat="44.8991280" lon="7.0521620">
        <ele>1428.8</ele>
        <time>2017-07-26T12:26:47Z</time>
      </trkpt>
      <trkpt lat="44.8993120" lon="7.0520960">
        <ele>1428.0</ele>
        <time>2017-07-26T12:26:49Z</time>
      </trkpt>
      <trkpt lat="44.8994020" lon="7.0520590">
        <ele>1427.4</ele>
        <time>2017-07-26T12:26:50Z</time>
      </trkpt>
      <trkpt lat="44.8994880" lon="7.0520130">
        <ele>1426.8</ele>
        <time>2017-07-26T12:26:51Z</time>
      </trkpt>
      <trkpt lat="44.8996280" lon="7.0519080">
        <ele>1426.4</ele>
        <time>2017-07-26T12:26:53Z</time>
      </trkpt>
      <trkpt lat="44.8996920" lon="7.0518470">
        <ele>1426.2</ele>
        <time>2017-07-26T12:26:54Z</time>
      </trkpt>
      <trkpt lat="44.8998020" lon="7.0517540">
        <ele>1426.0</ele>
        <time>2017-07-26T12:26:56Z</time>
      </trkpt>
      <trkpt lat="44.8999090" lon="7.0516850">
        <ele>1425.8</ele>
        <time>2017-07-26T12:26:58Z</time>
      </trkpt>
      <trkpt lat="44.9001370" lon="7.0517050">
        <ele>1425.8</ele>
        <time>2017-07-26T12:27:02Z</time>
      </trkpt>
      <trkpt lat="44.9002070" lon="7.0517400">
        <ele>1425.6</ele>
        <time>2017-07-26T12:27:03Z</time>
      </trkpt>
      <trkpt lat="44.9004630" lon="7.0518370">
        <ele>1424.4</ele>
        <time>2017-07-26T12:27:06Z</time>
      </trkpt>
      <trkpt lat="44.9006440" lon="7.0518610">
        <ele>1423.8</ele>
        <time>2017-07-26T12:27:08Z</time>
      </trkpt>
      <trkpt lat="44.9007380" lon="7.0518480">
        <ele>1423.2</ele>
        <time>2017-07-26T12:27:09Z</time>
      </trkpt>
      <trkpt lat="44.9008390" lon="7.0518360">
        <ele>1422.4</ele>
        <time>2017-07-26T12:27:10Z</time>
      </trkpt>
      <trkpt lat="44.9009310" lon="7.0518520">
        <ele>1421.8</ele>
        <time>2017-07-26T12:27:11Z</time>
      </trkpt>
      <trkpt lat="44.9011210" lon="7.0519230">
        <ele>1420.8</ele>
        <time>2017-07-26T12:27:13Z</time>
      </trkpt>
      <trkpt lat="44.9012130" lon="7.0519790">
        <ele>1420.6</ele>
        <time>2017-07-26T12:27:14Z</time>
      </trkpt>
      <trkpt lat="44.9014750" lon="7.0521490">
        <ele>1419.2</ele>
        <time>2017-07-26T12:27:17Z</time>
      </trkpt>
      <trkpt lat="44.9017890" lon="7.0523560">
        <ele>1417.8</ele>
        <time>2017-07-26T12:27:21Z</time>
      </trkpt>
      <trkpt lat="44.9018750" lon="7.0523730">
        <ele>1417.2</ele>
        <time>2017-07-26T12:27:22Z</time>
      </trkpt>
      <trkpt lat="44.9019600" lon="7.0523710">
        <ele>1416.8</ele>
        <time>2017-07-26T12:27:23Z</time>
      </trkpt>
      <trkpt lat="44.9021490" lon="7.0524030">
        <ele>1415.6</ele>
        <time>2017-07-26T12:27:25Z</time>
      </trkpt>
      <trkpt lat="44.9022400" lon="7.0524450">
        <ele>1414.8</ele>
        <time>2017-07-26T12:27:26Z</time>
      </trkpt>
      <trkpt lat="44.9023340" lon="7.0525210">
        <ele>1414.4</ele>
        <time>2017-07-26T12:27:27Z</time>
      </trkpt>
      <trkpt lat="44.9024190" lon="7.0526100">
        <ele>1413.2</ele>
        <time>2017-07-26T12:27:28Z</time>
      </trkpt>
      <trkpt lat="44.9024940" lon="7.0527060">
        <ele>1412.2</ele>
        <time>2017-07-26T12:27:29Z</time>
      </trkpt>
      <trkpt lat="44.9025670" lon="7.0528080">
        <ele>1411.6</ele>
        <time>2017-07-26T12:27:30Z</time>
      </trkpt>
      <trkpt lat="44.9026370" lon="7.0529120">
        <ele>1410.6</ele>
        <time>2017-07-26T12:27:31Z</time>
      </trkpt>
      <trkpt lat="44.9027070" lon="7.0530190">
        <ele>1409.4</ele>
        <time>2017-07-26T12:27:32Z</time>
      </trkpt>
      <trkpt lat="44.9028390" lon="7.0532300">
        <ele>1408.0</ele>
        <time>2017-07-26T12:27:34Z</time>
      </trkpt>
      <trkpt lat="44.9029110" lon="7.0534350">
        <ele>1407.0</ele>
        <time>2017-07-26T12:27:36Z</time>
      </trkpt>
      <trkpt lat="44.9029040" lon="7.0535370">
        <ele>1406.0</ele>
        <time>2017-07-26T12:27:37Z</time>
      </trkpt>
      <trkpt lat="44.9028880" lon="7.0537310">
        <ele>1404.6</ele>
        <time>2017-07-26T12:27:39Z</time>
      </trkpt>
      <trkpt lat="44.9029290" lon="7.0539050">
        <ele>1403.6</ele>
        <time>2017-07-26T12:27:41Z</time>
      </trkpt>
      <trkpt lat="44.9029670" lon="7.0539890">
        <ele>1403.2</ele>
        <time>2017-07-26T12:27:42Z</time>
      </trkpt>
      <trkpt lat="44.9030080" lon="7.0540730">
        <ele>1402.6</ele>
        <time>2017-07-26T12:27:43Z</time>
      </trkpt>
      <trkpt lat="44.9030920" lon="7.0542480">
        <ele>1402.2</ele>
        <time>2017-07-26T12:27:45Z</time>
      </trkpt>
      <trkpt lat="44.9031380" lon="7.0543300">
        <ele>1402.0</ele>
        <time>2017-07-26T12:27:46Z</time>
      </trkpt>
      <trkpt lat="44.9032630" lon="7.0545860">
        <ele>1400.8</ele>
        <time>2017-07-26T12:27:49Z</time>
      </trkpt>
      <trkpt lat="44.9033020" lon="7.0546590">
        <ele>1400.8</ele>
        <time>2017-07-26T12:27:50Z</time>
      </trkpt>
      <trkpt lat="44.9033430" lon="7.0547140">
        <ele>1400.8</ele>
        <time>2017-07-26T12:27:51Z</time>
      </trkpt>
      <trkpt lat="44.9035010" lon="7.0548660">
        <ele>1400.2</ele>
        <time>2017-07-26T12:27:54Z</time>
      </trkpt>
      <trkpt lat="44.9035610" lon="7.0549220">
        <ele>1399.8</ele>
        <time>2017-07-26T12:27:55Z</time>
      </trkpt>
      <trkpt lat="44.9036260" lon="7.0549700">
        <ele>1399.6</ele>
        <time>2017-07-26T12:27:56Z</time>
      </trkpt>
      <trkpt lat="44.9038570" lon="7.0550320">
        <ele>1398.6</ele>
        <time>2017-07-26T12:27:59Z</time>
      </trkpt>
      <trkpt lat="44.9039370" lon="7.0550410">
        <ele>1398.4</ele>
        <time>2017-07-26T12:28:00Z</time>
      </trkpt>
      <trkpt lat="44.9040990" lon="7.0550540">
        <ele>1397.6</ele>
        <time>2017-07-26T12:28:02Z</time>
      </trkpt>
      <trkpt lat="44.9044020" lon="7.0550700">
        <ele>1396.2</ele>
        <time>2017-07-26T12:28:06Z</time>
      </trkpt>
      <trkpt lat="44.9045340" lon="7.0551780">
        <ele>1395.0</ele>
        <time>2017-07-26T12:28:08Z</time>
      </trkpt>
      <trkpt lat="44.9047160" lon="7.0553950">
        <ele>1394.0</ele>
        <time>2017-07-26T12:28:11Z</time>
      </trkpt>
      <trkpt lat="44.9048180" lon="7.0555510">
        <ele>1393.4</ele>
        <time>2017-07-26T12:28:13Z</time>
      </trkpt>
      <trkpt lat="44.9049020" lon="7.0557130">
        <ele>1393.0</ele>
        <time>2017-07-26T12:28:15Z</time>
      </trkpt>
      <trkpt lat="44.9051090" lon="7.0559620">
        <ele>1392.0</ele>
        <time>2017-07-26T12:28:19Z</time>
      </trkpt>
      <trkpt lat="44.9051750" lon="7.0559880">
        <ele>1391.8</ele>
        <time>2017-07-26T12:28:20Z</time>
      </trkpt>
      <trkpt lat="44.9053180" lon="7.0559650">
        <ele>1391.8</ele>
        <time>2017-07-26T12:28:22Z</time>
      </trkpt>
      <trkpt lat="44.9055140" lon="7.0558410">
        <ele>1390.6</ele>
        <time>2017-07-26T12:28:25Z</time>
      </trkpt>
      <trkpt lat="44.9055780" lon="7.0558020">
        <ele>1390.4</ele>
        <time>2017-07-26T12:28:26Z</time>
      </trkpt>
      <trkpt lat="44.9057740" lon="7.0556890">
        <ele>1389.2</ele>
        <time>2017-07-26T12:28:29Z</time>
      </trkpt>
      <trkpt lat="44.9059680" lon="7.0555780">
        <ele>1388.0</ele>
        <time>2017-07-26T12:28:32Z</time>
      </trkpt>
      <trkpt lat="44.9061650" lon="7.0555970">
        <ele>1387.2</ele>
        <time>2017-07-26T12:28:35Z</time>
      </trkpt>
      <trkpt lat="44.9062260" lon="7.0556310">
        <ele>1387.0</ele>
        <time>2017-07-26T12:28:36Z</time>
      </trkpt>
      <trkpt lat="44.9063900" lon="7.0557960">
        <ele>1387.2</ele>
        <time>2017-07-26T12:28:39Z</time>
      </trkpt>
      <trkpt lat="44.9064450" lon="7.0558650">
        <ele>1387.4</ele>
        <time>2017-07-26T12:28:40Z</time>
      </trkpt>
      <trkpt lat="44.9066180" lon="7.0560620">
        <ele>1387.4</ele>
        <time>2017-07-26T12:28:43Z</time>
      </trkpt>
      <trkpt lat="44.9067410" lon="7.0561970">
        <ele>1387.6</ele>
        <time>2017-07-26T12:28:45Z</time>
      </trkpt>
      <trkpt lat="44.9069300" lon="7.0564220">
        <ele>1388.0</ele>
        <time>2017-07-26T12:28:48Z</time>
      </trkpt>
      <trkpt lat="44.9070960" lon="7.0567020">
        <ele>1388.0</ele>
        <time>2017-07-26T12:28:51Z</time>
      </trkpt>
      <trkpt lat="44.9074740" lon="7.0574080">
        <ele>1387.2</ele>
        <time>2017-07-26T12:28:58Z</time>
      </trkpt>
      <trkpt lat="44.9075280" lon="7.0575180">
        <ele>1387.0</ele>
        <time>2017-07-26T12:28:59Z</time>
      </trkpt>
      <trkpt lat="44.9077330" lon="7.0579700">
        <ele>1386.0</ele>
        <time>2017-07-26T12:29:03Z</time>
      </trkpt>
      <trkpt lat="44.9078090" lon="7.0582190">
        <ele>1385.0</ele>
        <time>2017-07-26T12:29:05Z</time>
      </trkpt>
      <trkpt lat="44.9078380" lon="7.0583520">
        <ele>1384.8</ele>
        <time>2017-07-26T12:29:06Z</time>
      </trkpt>
      <trkpt lat="44.9078800" lon="7.0586220">
        <ele>1384.4</ele>
        <time>2017-07-26T12:29:08Z</time>
      </trkpt>
      <trkpt lat="44.9079030" lon="7.0587550">
        <ele>1384.0</ele>
        <time>2017-07-26T12:29:09Z</time>
      </trkpt>
      <trkpt lat="44.9079340" lon="7.0588870">
        <ele>1383.8</ele>
        <time>2017-07-26T12:29:10Z</time>
      </trkpt>
      <trkpt lat="44.9080200" lon="7.0592910">
        <ele>1382.6</ele>
        <time>2017-07-26T12:29:13Z</time>
      </trkpt>
      <trkpt lat="44.9080780" lon="7.0595610">
        <ele>1382.2</ele>
        <time>2017-07-26T12:29:15Z</time>
      </trkpt>
      <trkpt lat="44.9081770" lon="7.0599530">
        <ele>1381.4</ele>
        <time>2017-07-26T12:29:18Z</time>
      </trkpt>
      <trkpt lat="44.9083000" lon="7.0604740">
        <ele>1380.2</ele>
        <time>2017-07-26T12:29:22Z</time>
      </trkpt>
      <trkpt lat="44.9083350" lon="7.0607480">
        <ele>1379.4</ele>
        <time>2017-07-26T12:29:24Z</time>
      </trkpt>
      <trkpt lat="44.9083430" lon="7.0608860">
        <ele>1379.0</ele>
        <time>2017-07-26T12:29:25Z</time>
      </trkpt>
      <trkpt lat="44.9083660" lon="7.0610220">
        <ele>1378.6</ele>
        <time>2017-07-26T12:29:26Z</time>
      </trkpt>
      <trkpt lat="44.9083970" lon="7.0611540">
        <ele>1378.4</ele>
        <time>2017-07-26T12:29:27Z</time>
      </trkpt>
      <trkpt lat="44.9084440" lon="7.0612740">
        <ele>1377.8</ele>
        <time>2017-07-26T12:29:28Z</time>
      </trkpt>
      <trkpt lat="44.9085610" lon="7.0615020">
        <ele>1377.2</ele>
        <time>2017-07-26T12:29:30Z</time>
      </trkpt>
      <trkpt lat="44.9086820" lon="7.0617270">
        <ele>1376.8</ele>
        <time>2017-07-26T12:29:32Z</time>
      </trkpt>
      <trkpt lat="44.9089640" lon="7.0621690">
        <ele>1375.8</ele>
        <time>2017-07-26T12:29:36Z</time>
      </trkpt>
      <trkpt lat="44.9090430" lon="7.0622790">
        <ele>1375.8</ele>
        <time>2017-07-26T12:29:37Z</time>
      </trkpt>
      <trkpt lat="44.9092590" lon="7.0626420">
        <ele>1375.0</ele>
        <time>2017-07-26T12:29:40Z</time>
      </trkpt>
      <trkpt lat="44.9093300" lon="7.0627740">
        <ele>1374.6</ele>
        <time>2017-07-26T12:29:41Z</time>
      </trkpt>
      <trkpt lat="44.9094060" lon="7.0628990">
        <ele>1374.4</ele>
        <time>2017-07-26T12:29:42Z</time>
      </trkpt>
      <trkpt lat="44.9095000" lon="7.0629920">
        <ele>1373.8</ele>
        <time>2017-07-26T12:29:43Z</time>
      </trkpt>
      <trkpt lat="44.9096060" lon="7.0630590">
        <ele>1373.6</ele>
        <time>2017-07-26T12:29:44Z</time>
      </trkpt>
      <trkpt lat="44.9098410" lon="7.0631300">
        <ele>1373.2</ele>
        <time>2017-07-26T12:29:46Z</time>
      </trkpt>
      <trkpt lat="44.9099600" lon="7.0631620">
        <ele>1373.0</ele>
        <time>2017-07-26T12:29:47Z</time>
      </trkpt>
      <trkpt lat="44.9100740" lon="7.0632080">
        <ele>1372.4</ele>
        <time>2017-07-26T12:29:48Z</time>
      </trkpt>
      <trkpt lat="44.9101760" lon="7.0632700">
        <ele>1372.4</ele>
        <time>2017-07-26T12:29:49Z</time>
      </trkpt>
      <trkpt lat="44.9102630" lon="7.0633820">
        <ele>1372.2</ele>
        <time>2017-07-26T12:29:50Z</time>
      </trkpt>
      <trkpt lat="44.9104120" lon="7.0636270">
        <ele>1371.2</ele>
        <time>2017-07-26T12:29:52Z</time>
      </trkpt>
      <trkpt lat="44.9105630" lon="7.0638620">
        <ele>1370.2</ele>
        <time>2017-07-26T12:29:54Z</time>
      </trkpt>
      <trkpt lat="44.9106420" lon="7.0639790">
        <ele>1369.8</ele>
        <time>2017-07-26T12:29:55Z</time>
      </trkpt>
      <trkpt lat="44.9108180" lon="7.0641940">
        <ele>1368.8</ele>
        <time>2017-07-26T12:29:57Z</time>
      </trkpt>
      <trkpt lat="44.9110270" lon="7.0643480">
        <ele>1367.6</ele>
        <time>2017-07-26T12:29:59Z</time>
      </trkpt>
      <trkpt lat="44.9111590" lon="7.0643830">
        <ele>1367.0</ele>
        <time>2017-07-26T12:30:00Z</time>
      </trkpt>
      <trkpt lat="44.9112950" lon="7.0644010">
        <ele>1366.4</ele>
        <time>2017-07-26T12:30:01Z</time>
      </trkpt>
      <trkpt lat="44.9114310" lon="7.0644120">
        <ele>1366.0</ele>
        <time>2017-07-26T12:30:02Z</time>
      </trkpt>
      <trkpt lat="44.9115660" lon="7.0644120">
        <ele>1365.4</ele>
        <time>2017-07-26T12:30:03Z</time>
      </trkpt>
      <trkpt lat="44.9118450" lon="7.0644010">
        <ele>1364.0</ele>
        <time>2017-07-26T12:30:05Z</time>
      </trkpt>
      <trkpt lat="44.9119920" lon="7.0643870">
        <ele>1363.2</ele>
        <time>2017-07-26T12:30:06Z</time>
      </trkpt>
      <trkpt lat="44.9121380" lon="7.0643670">
        <ele>1362.4</ele>
        <time>2017-07-26T12:30:07Z</time>
      </trkpt>
      <trkpt lat="44.9124300" lon="7.0643120">
        <ele>1360.2</ele>
        <time>2017-07-26T12:30:09Z</time>
      </trkpt>
      <trkpt lat="44.9125680" lon="7.0642860">
        <ele>1359.0</ele>
        <time>2017-07-26T12:30:10Z</time>
      </trkpt>
      <trkpt lat="44.9126970" lon="7.0642640">
        <ele>1357.8</ele>
        <time>2017-07-26T12:30:11Z</time>
      </trkpt>
      <trkpt lat="44.9128230" lon="7.0642530">
        <ele>1356.6</ele>
        <time>2017-07-26T12:30:12Z</time>
      </trkpt>
      <trkpt lat="44.9129450" lon="7.0642720">
        <ele>1355.4</ele>
        <time>2017-07-26T12:30:13Z</time>
      </trkpt>
      <trkpt lat="44.9130660" lon="7.0643010">
        <ele>1354.2</ele>
        <time>2017-07-26T12:30:14Z</time>
      </trkpt>
      <trkpt lat="44.9131870" lon="7.0643250">
        <ele>1353.0</ele>
        <time>2017-07-26T12:30:15Z</time>
      </trkpt>
      <trkpt lat="44.9133190" lon="7.0643400">
        <ele>1351.0</ele>
        <time>2017-07-26T12:30:16Z</time>
      </trkpt>
      <trkpt lat="44.9134510" lon="7.0643510">
        <ele>1349.8</ele>
        <time>2017-07-26T12:30:17Z</time>
      </trkpt>
      <trkpt lat="44.9135870" lon="7.0643320">
        <ele>1348.6</ele>
        <time>2017-07-26T12:30:18Z</time>
      </trkpt>
      <trkpt lat="44.9137150" lon="7.0643120">
        <ele>1347.2</ele>
        <time>2017-07-26T12:30:19Z</time>
      </trkpt>
      <trkpt lat="44.9138370" lon="7.0642830">
        <ele>1346.0</ele>
        <time>2017-07-26T12:30:20Z</time>
      </trkpt>
      <trkpt lat="44.9139610" lon="7.0642520">
        <ele>1344.8</ele>
        <time>2017-07-26T12:30:21Z</time>
      </trkpt>
      <trkpt lat="44.9140850" lon="7.0642000">
        <ele>1343.4</ele>
        <time>2017-07-26T12:30:22Z</time>
      </trkpt>
      <trkpt lat="44.9142080" lon="7.0641490">
        <ele>1342.4</ele>
        <time>2017-07-26T12:30:23Z</time>
      </trkpt>
      <trkpt lat="44.9143310" lon="7.0640490">
        <ele>1341.2</ele>
        <time>2017-07-26T12:30:24Z</time>
      </trkpt>
      <trkpt lat="44.9144520" lon="7.0639600">
        <ele>1340.0</ele>
        <time>2017-07-26T12:30:25Z</time>
      </trkpt>
      <trkpt lat="44.9145670" lon="7.0638750">
        <ele>1338.8</ele>
        <time>2017-07-26T12:30:26Z</time>
      </trkpt>
      <trkpt lat="44.9146810" lon="7.0637850">
        <ele>1337.8</ele>
        <time>2017-07-26T12:30:27Z</time>
      </trkpt>
      <trkpt lat="44.9147950" lon="7.0636930">
        <ele>1336.8</ele>
        <time>2017-07-26T12:30:28Z</time>
      </trkpt>
      <trkpt lat="44.9150280" lon="7.0635340">
        <ele>1334.8</ele>
        <time>2017-07-26T12:30:30Z</time>
      </trkpt>
      <trkpt lat="44.9151410" lon="7.0634830">
        <ele>1334.0</ele>
        <time>2017-07-26T12:30:31Z</time>
      </trkpt>
      <trkpt lat="44.9152660" lon="7.0634550">
        <ele>1332.8</ele>
        <time>2017-07-26T12:30:32Z</time>
      </trkpt>
      <trkpt lat="44.9154030" lon="7.0634540">
        <ele>1331.6</ele>
        <time>2017-07-26T12:30:33Z</time>
      </trkpt>
      <trkpt lat="44.9155410" lon="7.0634610">
        <ele>1330.4</ele>
        <time>2017-07-26T12:30:34Z</time>
      </trkpt>
      <trkpt lat="44.9156740" lon="7.0634680">
        <ele>1329.0</ele>
        <time>2017-07-26T12:30:35Z</time>
      </trkpt>
      <trkpt lat="44.9158010" lon="7.0634590">
        <ele>1327.6</ele>
        <time>2017-07-26T12:30:36Z</time>
      </trkpt>
      <trkpt lat="44.9159240" lon="7.0634480">
        <ele>1326.4</ele>
        <time>2017-07-26T12:30:37Z</time>
      </trkpt>
      <trkpt lat="44.9160470" lon="7.0634290">
        <ele>1325.4</ele>
        <time>2017-07-26T12:30:38Z</time>
      </trkpt>
      <trkpt lat="44.9161720" lon="7.0634020">
        <ele>1324.0</ele>
        <time>2017-07-26T12:30:39Z</time>
      </trkpt>
      <trkpt lat="44.9163030" lon="7.0633720">
        <ele>1322.6</ele>
        <time>2017-07-26T12:30:40Z</time>
      </trkpt>
      <trkpt lat="44.9164250" lon="7.0633000">
        <ele>1320.0</ele>
        <time>2017-07-26T12:30:41Z</time>
      </trkpt>
      <trkpt lat="44.9165420" lon="7.0632350">
        <ele>1319.0</ele>
        <time>2017-07-26T12:30:42Z</time>
      </trkpt>
      <trkpt lat="44.9166630" lon="7.0631470">
        <ele>1317.8</ele>
        <time>2017-07-26T12:30:43Z</time>
      </trkpt>
      <trkpt lat="44.9167730" lon="7.0630340">
        <ele>1316.8</ele>
        <time>2017-07-26T12:30:44Z</time>
      </trkpt>
      <trkpt lat="44.9168830" lon="7.0629240">
        <ele>1315.6</ele>
        <time>2017-07-26T12:30:45Z</time>
      </trkpt>
      <trkpt lat="44.9169940" lon="7.0628210">
        <ele>1314.4</ele>
        <time>2017-07-26T12:30:46Z</time>
      </trkpt>
      <trkpt lat="44.9171140" lon="7.0627110">
        <ele>1313.4</ele>
        <time>2017-07-26T12:30:47Z</time>
      </trkpt>
      <trkpt lat="44.9172450" lon="7.0626180">
        <ele>1312.0</ele>
        <time>2017-07-26T12:30:48Z</time>
      </trkpt>
      <trkpt lat="44.9173780" lon="7.0625420">
        <ele>1310.8</ele>
        <time>2017-07-26T12:30:49Z</time>
      </trkpt>
      <trkpt lat="44.9175050" lon="7.0624610">
        <ele>1309.4</ele>
        <time>2017-07-26T12:30:50Z</time>
      </trkpt>
      <trkpt lat="44.9176290" lon="7.0623780">
        <ele>1308.4</ele>
        <time>2017-07-26T12:30:51Z</time>
      </trkpt>
      <trkpt lat="44.9177630" lon="7.0623020">
        <ele>1307.2</ele>
        <time>2017-07-26T12:30:52Z</time>
      </trkpt>
      <trkpt lat="44.9178910" lon="7.0622350">
        <ele>1306.0</ele>
        <time>2017-07-26T12:30:53Z</time>
      </trkpt>
      <trkpt lat="44.9180180" lon="7.0621670">
        <ele>1304.8</ele>
        <time>2017-07-26T12:30:54Z</time>
      </trkpt>
      <trkpt lat="44.9181530" lon="7.0621070">
        <ele>1303.6</ele>
        <time>2017-07-26T12:30:55Z</time>
      </trkpt>
      <trkpt lat="44.9182730" lon="7.0620370">
        <ele>1302.4</ele>
        <time>2017-07-26T12:30:56Z</time>
      </trkpt>
      <trkpt lat="44.9183780" lon="7.0619430">
        <ele>1301.2</ele>
        <time>2017-07-26T12:30:57Z</time>
      </trkpt>
      <trkpt lat="44.9184840" lon="7.0618450">
        <ele>1300.4</ele>
        <time>2017-07-26T12:30:58Z</time>
      </trkpt>
      <trkpt lat="44.9185820" lon="7.0617450">
        <ele>1299.4</ele>
        <time>2017-07-26T12:30:59Z</time>
      </trkpt>
      <trkpt lat="44.9186830" lon="7.0616590">
        <ele>1298.4</ele>
        <time>2017-07-26T12:31:00Z</time>
      </trkpt>
      <trkpt lat="44.9187850" lon="7.0616110">
        <ele>1296.8</ele>
        <time>2017-07-26T12:31:01Z</time>
      </trkpt>
      <trkpt lat="44.9188850" lon="7.0616130">
        <ele>1295.4</ele>
        <time>2017-07-26T12:31:02Z</time>
      </trkpt>
      <trkpt lat="44.9189720" lon="7.0616240">
        <ele>1294.2</ele>
        <time>2017-07-26T12:31:03Z</time>
      </trkpt>
      <trkpt lat="44.9190660" lon="7.0616380">
        <ele>1293.2</ele>
        <time>2017-07-26T12:31:04Z</time>
      </trkpt>
      <trkpt lat="44.9191510" lon="7.0616990">
        <ele>1291.6</ele>
        <time>2017-07-26T12:31:05Z</time>
      </trkpt>
      <trkpt lat="44.9193090" lon="7.0618280">
        <ele>1290.2</ele>
        <time>2017-07-26T12:31:07Z</time>
      </trkpt>
      <trkpt lat="44.9193920" lon="7.0618830">
        <ele>1289.8</ele>
        <time>2017-07-26T12:31:08Z</time>
      </trkpt>
      <trkpt lat="44.9195660" lon="7.0619900">
        <ele>1289.0</ele>
        <time>2017-07-26T12:31:10Z</time>
      </trkpt>
      <trkpt lat="44.9197380" lon="7.0620770">
        <ele>1288.0</ele>
        <time>2017-07-26T12:31:12Z</time>
      </trkpt>
      <trkpt lat="44.9198240" lon="7.0621080">
        <ele>1287.6</ele>
        <time>2017-07-26T12:31:13Z</time>
      </trkpt>
      <trkpt lat="44.9199100" lon="7.0621260">
        <ele>1287.2</ele>
        <time>2017-07-26T12:31:14Z</time>
      </trkpt>
      <trkpt lat="44.9200860" lon="7.0621500">
        <ele>1286.2</ele>
        <time>2017-07-26T12:31:16Z</time>
      </trkpt>
      <trkpt lat="44.9201750" lon="7.0621610">
        <ele>1285.8</ele>
        <time>2017-07-26T12:31:17Z</time>
      </trkpt>
      <trkpt lat="44.9203580" lon="7.0621760">
        <ele>1285.0</ele>
        <time>2017-07-26T12:31:19Z</time>
      </trkpt>
      <trkpt lat="44.9205400" lon="7.0621900">
        <ele>1284.2</ele>
        <time>2017-07-26T12:31:21Z</time>
      </trkpt>
      <trkpt lat="44.9206300" lon="7.0621940">
        <ele>1284.0</ele>
        <time>2017-07-26T12:31:22Z</time>
      </trkpt>
      <trkpt lat="44.9208960" lon="7.0622170">
        <ele>1282.8</ele>
        <time>2017-07-26T12:31:25Z</time>
      </trkpt>
      <trkpt lat="44.9212410" lon="7.0622650">
        <ele>1281.6</ele>
        <time>2017-07-26T12:31:29Z</time>
      </trkpt>
      <trkpt lat="44.9214130" lon="7.0623240">
        <ele>1281.2</ele>
        <time>2017-07-26T12:31:31Z</time>
      </trkpt>
      <trkpt lat="44.9218100" lon="7.0625490">
        <ele>1281.0</ele>
        <time>2017-07-26T12:31:36Z</time>
      </trkpt>
      <trkpt lat="44.9218860" lon="7.0625970">
        <ele>1281.0</ele>
        <time>2017-07-26T12:31:37Z</time>
      </trkpt>
      <trkpt lat="44.9223010" lon="7.0629360">
        <ele>1281.6</ele>
        <time>2017-07-26T12:31:43Z</time>
      </trkpt>
      <trkpt lat="44.9225040" lon="7.0632630">
        <ele>1281.6</ele>
        <time>2017-07-26T12:31:47Z</time>
      </trkpt>
      <trkpt lat="44.9225850" lon="7.0634400">
        <ele>1281.4</ele>
        <time>2017-07-26T12:31:49Z</time>
      </trkpt>
      <trkpt lat="44.9226700" lon="7.0637380">
        <ele>1281.4</ele>
        <time>2017-07-26T12:31:52Z</time>
      </trkpt>
      <trkpt lat="44.9226980" lon="7.0639710">
        <ele>1281.2</ele>
        <time>2017-07-26T12:31:54Z</time>
      </trkpt>
      <trkpt lat="44.9227030" lon="7.0642220">
        <ele>1280.6</ele>
        <time>2017-07-26T12:31:56Z</time>
      </trkpt>
      <trkpt lat="44.9227290" lon="7.0645980">
        <ele>1279.2</ele>
        <time>2017-07-26T12:31:59Z</time>
      </trkpt>
      <trkpt lat="44.9227610" lon="7.0647250">
        <ele>1278.8</ele>
        <time>2017-07-26T12:32:00Z</time>
      </trkpt>
      <trkpt lat="44.9228070" lon="7.0648440">
        <ele>1278.4</ele>
        <time>2017-07-26T12:32:01Z</time>
      </trkpt>
      <trkpt lat="44.9228660" lon="7.0649530">
        <ele>1277.8</ele>
        <time>2017-07-26T12:32:02Z</time>
      </trkpt>
      <trkpt lat="44.9230160" lon="7.0651440">
        <ele>1276.6</ele>
        <time>2017-07-26T12:32:04Z</time>
      </trkpt>
      <trkpt lat="44.9230970" lon="7.0652510">
        <ele>1276.4</ele>
        <time>2017-07-26T12:32:05Z</time>
      </trkpt>
      <trkpt lat="44.9232540" lon="7.0654760">
        <ele>1275.2</ele>
        <time>2017-07-26T12:32:07Z</time>
      </trkpt>
      <trkpt lat="44.9234150" lon="7.0657000">
        <ele>1273.8</ele>
        <time>2017-07-26T12:32:09Z</time>
      </trkpt>
      <trkpt lat="44.9235790" lon="7.0659240">
        <ele>1272.6</ele>
        <time>2017-07-26T12:32:11Z</time>
      </trkpt>
      <trkpt lat="44.9236490" lon="7.0660520">
        <ele>1271.8</ele>
        <time>2017-07-26T12:32:12Z</time>
      </trkpt>
      <trkpt lat="44.9237210" lon="7.0661830">
        <ele>1271.2</ele>
        <time>2017-07-26T12:32:13Z</time>
      </trkpt>
      <trkpt lat="44.9238060" lon="7.0663090">
        <ele>1270.4</ele>
        <time>2017-07-26T12:32:14Z</time>
      </trkpt>
      <trkpt lat="44.9238880" lon="7.0664420">
        <ele>1269.8</ele>
        <time>2017-07-26T12:32:15Z</time>
      </trkpt>
      <trkpt lat="44.9239720" lon="7.0665720">
        <ele>1269.2</ele>
        <time>2017-07-26T12:32:16Z</time>
      </trkpt>
      <trkpt lat="44.9240590" lon="7.0666740">
        <ele>1267.8</ele>
        <time>2017-07-26T12:32:17Z</time>
      </trkpt>
      <trkpt lat="44.9241490" lon="7.0667690">
        <ele>1267.2</ele>
        <time>2017-07-26T12:32:18Z</time>
      </trkpt>
      <trkpt lat="44.9242470" lon="7.0668370">
        <ele>1266.6</ele>
        <time>2017-07-26T12:32:19Z</time>
      </trkpt>
      <trkpt lat="44.9244570" lon="7.0668690">
        <ele>1265.0</ele>
        <time>2017-07-26T12:32:21Z</time>
      </trkpt>
      <trkpt lat="44.9246330" lon="7.0666740">
        <ele>1264.0</ele>
        <time>2017-07-26T12:32:23Z</time>
      </trkpt>
      <trkpt lat="44.9247880" lon="7.0664330">
        <ele>1262.6</ele>
        <time>2017-07-26T12:32:25Z</time>
      </trkpt>
      <trkpt lat="44.9249710" lon="7.0663010">
        <ele>1260.8</ele>
        <time>2017-07-26T12:32:27Z</time>
      </trkpt>
      <trkpt lat="44.9251530" lon="7.0664040">
        <ele>1259.2</ele>
        <time>2017-07-26T12:32:29Z</time>
      </trkpt>
      <trkpt lat="44.9253310" lon="7.0665990">
        <ele>1257.8</ele>
        <time>2017-07-26T12:32:31Z</time>
      </trkpt>
      <trkpt lat="44.9254280" lon="7.0666960">
        <ele>1257.0</ele>
        <time>2017-07-26T12:32:32Z</time>
      </trkpt>
      <trkpt lat="44.9255220" lon="7.0667950">
        <ele>1256.4</ele>
        <time>2017-07-26T12:32:33Z</time>
      </trkpt>
      <trkpt lat="44.9257020" lon="7.0669890">
        <ele>1255.2</ele>
        <time>2017-07-26T12:32:35Z</time>
      </trkpt>
      <trkpt lat="44.9257630" lon="7.0671160">
        <ele>1254.4</ele>
        <time>2017-07-26T12:32:36Z</time>
      </trkpt>
      <trkpt lat="44.9257860" lon="7.0672660">
        <ele>1253.6</ele>
        <time>2017-07-26T12:32:37Z</time>
      </trkpt>
      <trkpt lat="44.9258020" lon="7.0674330">
        <ele>1252.8</ele>
        <time>2017-07-26T12:32:38Z</time>
      </trkpt>
      <trkpt lat="44.9258170" lon="7.0676070">
        <ele>1252.0</ele>
        <time>2017-07-26T12:32:39Z</time>
      </trkpt>
      <trkpt lat="44.9258580" lon="7.0677700">
        <ele>1251.2</ele>
        <time>2017-07-26T12:32:40Z</time>
      </trkpt>
      <trkpt lat="44.9259160" lon="7.0679260">
        <ele>1249.8</ele>
        <time>2017-07-26T12:32:41Z</time>
      </trkpt>
      <trkpt lat="44.9260740" lon="7.0681960">
        <ele>1247.8</ele>
        <time>2017-07-26T12:32:43Z</time>
      </trkpt>
      <trkpt lat="44.9261660" lon="7.0683330">
        <ele>1246.6</ele>
        <time>2017-07-26T12:32:44Z</time>
      </trkpt>
      <trkpt lat="44.9262580" lon="7.0684730">
        <ele>1245.6</ele>
        <time>2017-07-26T12:32:45Z</time>
      </trkpt>
      <trkpt lat="44.9263620" lon="7.0685950">
        <ele>1244.6</ele>
        <time>2017-07-26T12:32:46Z</time>
      </trkpt>
      <trkpt lat="44.9264650" lon="7.0687340">
        <ele>1243.4</ele>
        <time>2017-07-26T12:32:47Z</time>
      </trkpt>
      <trkpt lat="44.9265880" lon="7.0688140">
        <ele>1242.2</ele>
        <time>2017-07-26T12:32:48Z</time>
      </trkpt>
      <trkpt lat="44.9266870" lon="7.0688480">
        <ele>1241.2</ele>
        <time>2017-07-26T12:32:49Z</time>
      </trkpt>
      <trkpt lat="44.9267620" lon="7.0688710">
        <ele>1240.0</ele>
        <time>2017-07-26T12:32:50Z</time>
      </trkpt>
      <trkpt lat="44.9268350" lon="7.0689110">
        <ele>1238.8</ele>
        <time>2017-07-26T12:32:51Z</time>
      </trkpt>
      <trkpt lat="44.9268840" lon="7.0689370">
        <ele>1237.6</ele>
        <time>2017-07-26T12:32:52Z</time>
      </trkpt>
      <trkpt lat="44.9269100" lon="7.0689730">
        <ele>1236.4</ele>
        <time>2017-07-26T12:32:53Z</time>
      </trkpt>
      <trkpt lat="44.9268930" lon="7.0689960">
        <ele>1235.4</ele>
        <time>2017-07-26T12:32:54Z</time>
      </trkpt>
      <trkpt lat="44.9268530" lon="7.0689620">
        <ele>1234.2</ele>
        <time>2017-07-26T12:32:55Z</time>
      </trkpt>
      <trkpt lat="44.9267330" lon="7.0688570">
        <ele>1232.4</ele>
        <time>2017-07-26T12:32:57Z</time>
      </trkpt>
      <trkpt lat="44.9266820" lon="7.0687920">
        <ele>1231.4</ele>
        <time>2017-07-26T12:32:58Z</time>
      </trkpt>
      <trkpt lat="44.9266260" lon="7.0687230">
        <ele>1230.4</ele>
        <time>2017-07-26T12:32:59Z</time>
      </trkpt>
      <trkpt lat="44.9265060" lon="7.0685750">
        <ele>1228.6</ele>
        <time>2017-07-26T12:33:01Z</time>
      </trkpt>
      <trkpt lat="44.9262310" lon="7.0684680">
        <ele>1226.8</ele>
        <time>2017-07-26T12:33:03Z</time>
      </trkpt>
      <trkpt lat="44.9259830" lon="7.0683370">
        <ele>1224.2</ele>
        <time>2017-07-26T12:33:05Z</time>
      </trkpt>
      <trkpt lat="44.9257690" lon="7.0681970">
        <ele>1222.6</ele>
        <time>2017-07-26T12:33:07Z</time>
      </trkpt>
      <trkpt lat="44.9256720" lon="7.0681070">
        <ele>1221.8</ele>
        <time>2017-07-26T12:33:08Z</time>
      </trkpt>
      <trkpt lat="44.9255830" lon="7.0680010">
        <ele>1220.8</ele>
        <time>2017-07-26T12:33:09Z</time>
      </trkpt>
      <trkpt lat="44.9255040" lon="7.0678790">
        <ele>1220.0</ele>
        <time>2017-07-26T12:33:10Z</time>
      </trkpt>
      <trkpt lat="44.9254280" lon="7.0677550">
        <ele>1219.0</ele>
        <time>2017-07-26T12:33:11Z</time>
      </trkpt>
      <trkpt lat="44.9253570" lon="7.0676480">
        <ele>1218.4</ele>
        <time>2017-07-26T12:33:12Z</time>
      </trkpt>
      <trkpt lat="44.9252680" lon="7.0675550">
        <ele>1217.4</ele>
        <time>2017-07-26T12:33:13Z</time>
      </trkpt>
      <trkpt lat="44.9250460" lon="7.0674920">
        <ele>1216.0</ele>
        <time>2017-07-26T12:33:15Z</time>
      </trkpt>
      <trkpt lat="44.9248430" lon="7.0674810">
        <ele>1214.4</ele>
        <time>2017-07-26T12:33:17Z</time>
      </trkpt>
      <trkpt lat="44.9247380" lon="7.0674830">
        <ele>1213.6</ele>
        <time>2017-07-26T12:33:18Z</time>
      </trkpt>
      <trkpt lat="44.9246450" lon="7.0675310">
        <ele>1213.0</ele>
        <time>2017-07-26T12:33:19Z</time>
      </trkpt>
      <trkpt lat="44.9245500" lon="7.0675980">
        <ele>1212.4</ele>
        <time>2017-07-26T12:33:20Z</time>
      </trkpt>
      <trkpt lat="44.9244690" lon="7.0676780">
        <ele>1211.8</ele>
        <time>2017-07-26T12:33:21Z</time>
      </trkpt>
      <trkpt lat="44.9243810" lon="7.0678920">
        <ele>1211.2</ele>
        <time>2017-07-26T12:33:23Z</time>
      </trkpt>
      <trkpt lat="44.9243400" lon="7.0681210">
        <ele>1210.6</ele>
        <time>2017-07-26T12:33:25Z</time>
      </trkpt>
      <trkpt lat="44.9243560" lon="7.0682410">
        <ele>1210.2</ele>
        <time>2017-07-26T12:33:26Z</time>
      </trkpt>
      <trkpt lat="44.9243870" lon="7.0683310">
        <ele>1210.0</ele>
        <time>2017-07-26T12:33:27Z</time>
      </trkpt>
      <trkpt lat="44.9245020" lon="7.0684270">
        <ele>1209.2</ele>
        <time>2017-07-26T12:33:29Z</time>
      </trkpt>
      <trkpt lat="44.9246670" lon="7.0684770">
        <ele>1209.2</ele>
        <time>2017-07-26T12:33:31Z</time>
      </trkpt>
      <trkpt lat="44.9247580" lon="7.0685180">
        <ele>1209.2</ele>
        <time>2017-07-26T12:33:32Z</time>
      </trkpt>
      <trkpt lat="44.9251130" lon="7.0687720">
        <ele>1208.4</ele>
        <time>2017-07-26T12:33:36Z</time>
      </trkpt>
      <trkpt lat="44.9251950" lon="7.0688630">
        <ele>1208.2</ele>
        <time>2017-07-26T12:33:37Z</time>
      </trkpt>
      <trkpt lat="44.9256200" lon="7.0691940">
        <ele>1207.4</ele>
        <time>2017-07-26T12:33:41Z</time>
      </trkpt>
      <trkpt lat="44.9258440" lon="7.0693350">
        <ele>1207.2</ele>
        <time>2017-07-26T12:33:43Z</time>
      </trkpt>
      <trkpt lat="44.9261770" lon="7.0695450">
        <ele>1206.0</ele>
        <time>2017-07-26T12:33:46Z</time>
      </trkpt>
      <trkpt lat="44.9265110" lon="7.0697600">
        <ele>1204.8</ele>
        <time>2017-07-26T12:33:49Z</time>
      </trkpt>
      <trkpt lat="44.9266140" lon="7.0698540">
        <ele>1204.4</ele>
        <time>2017-07-26T12:33:50Z</time>
      </trkpt>
      <trkpt lat="44.9267020" lon="7.0699830">
        <ele>1204.0</ele>
        <time>2017-07-26T12:33:51Z</time>
      </trkpt>
      <trkpt lat="44.9267740" lon="7.0701380">
        <ele>1203.4</ele>
        <time>2017-07-26T12:33:52Z</time>
      </trkpt>
      <trkpt lat="44.9268220" lon="7.0702970">
        <ele>1202.4</ele>
        <time>2017-07-26T12:33:53Z</time>
      </trkpt>
      <trkpt lat="44.9268690" lon="7.0706590">
        <ele>1201.2</ele>
        <time>2017-07-26T12:33:55Z</time>
      </trkpt>
      <trkpt lat="44.9268570" lon="7.0708410">
        <ele>1200.6</ele>
        <time>2017-07-26T12:33:56Z</time>
      </trkpt>
      <trkpt lat="44.9268240" lon="7.0710170">
        <ele>1199.8</ele>
        <time>2017-07-26T12:33:57Z</time>
      </trkpt>
      <trkpt lat="44.9267930" lon="7.0711890">
        <ele>1199.0</ele>
        <time>2017-07-26T12:33:58Z</time>
      </trkpt>
      <trkpt lat="44.9267680" lon="7.0713590">
        <ele>1198.4</ele>
        <time>2017-07-26T12:33:59Z</time>
      </trkpt>
      <trkpt lat="44.9267710" lon="7.0715260">
        <ele>1197.6</ele>
        <time>2017-07-26T12:34:00Z</time>
      </trkpt>
      <trkpt lat="44.9268380" lon="7.0716920">
        <ele>1196.4</ele>
        <time>2017-07-26T12:34:01Z</time>
      </trkpt>
      <trkpt lat="44.9269640" lon="7.0719870">
        <ele>1194.8</ele>
        <time>2017-07-26T12:34:03Z</time>
      </trkpt>
      <trkpt lat="44.9270000" lon="7.0721570">
        <ele>1194.2</ele>
        <time>2017-07-26T12:34:04Z</time>
      </trkpt>
      <trkpt lat="44.9270010" lon="7.0723320">
        <ele>1193.4</ele>
        <time>2017-07-26T12:34:05Z</time>
      </trkpt>
      <trkpt lat="44.9269890" lon="7.0725160">
        <ele>1192.4</ele>
        <time>2017-07-26T12:34:06Z</time>
      </trkpt>
      <trkpt lat="44.9269950" lon="7.0726900">
        <ele>1191.4</ele>
        <time>2017-07-26T12:34:07Z</time>
      </trkpt>
      <trkpt lat="44.9269970" lon="7.0728530">
        <ele>1190.6</ele>
        <time>2017-07-26T12:34:08Z</time>
      </trkpt>
      <trkpt lat="44.9270140" lon="7.0730140">
        <ele>1189.6</ele>
        <time>2017-07-26T12:34:09Z</time>
      </trkpt>
      <trkpt lat="44.9271210" lon="7.0733140">
        <ele>1188.0</ele>
        <time>2017-07-26T12:34:11Z</time>
      </trkpt>
      <trkpt lat="44.9273390" lon="7.0735070">
        <ele>1186.0</ele>
        <time>2017-07-26T12:34:13Z</time>
      </trkpt>
      <trkpt lat="44.9274450" lon="7.0735990">
        <ele>1185.2</ele>
        <time>2017-07-26T12:34:14Z</time>
      </trkpt>
      <trkpt lat="44.9275610" lon="7.0736800">
        <ele>1184.4</ele>
        <time>2017-07-26T12:34:15Z</time>
      </trkpt>
      <trkpt lat="44.9277020" lon="7.0737310">
        <ele>1183.6</ele>
        <time>2017-07-26T12:34:16Z</time>
      </trkpt>
      <trkpt lat="44.9278430" lon="7.0737880">
        <ele>1182.0</ele>
        <time>2017-07-26T12:34:17Z</time>
      </trkpt>
      <trkpt lat="44.9281170" lon="7.0739060">
        <ele>1180.4</ele>
        <time>2017-07-26T12:34:19Z</time>
      </trkpt>
      <trkpt lat="44.9283870" lon="7.0740530">
        <ele>1178.2</ele>
        <time>2017-07-26T12:34:21Z</time>
      </trkpt>
      <trkpt lat="44.9285150" lon="7.0741420">
        <ele>1177.2</ele>
        <time>2017-07-26T12:34:22Z</time>
      </trkpt>
      <trkpt lat="44.9286430" lon="7.0742390">
        <ele>1176.2</ele>
        <time>2017-07-26T12:34:23Z</time>
      </trkpt>
      <trkpt lat="44.9287600" lon="7.0743510">
        <ele>1175.0</ele>
        <time>2017-07-26T12:34:24Z</time>
      </trkpt>
      <trkpt lat="44.9288800" lon="7.0744720">
        <ele>1174.0</ele>
        <time>2017-07-26T12:34:25Z</time>
      </trkpt>
      <trkpt lat="44.9289770" lon="7.0746230">
        <ele>1172.8</ele>
        <time>2017-07-26T12:34:26Z</time>
      </trkpt>
      <trkpt lat="44.9290670" lon="7.0747770">
        <ele>1171.8</ele>
        <time>2017-07-26T12:34:27Z</time>
      </trkpt>
      <trkpt lat="44.9291340" lon="7.0749470">
        <ele>1170.6</ele>
        <time>2017-07-26T12:34:28Z</time>
      </trkpt>
      <trkpt lat="44.9291910" lon="7.0751240">
        <ele>1169.2</ele>
        <time>2017-07-26T12:34:29Z</time>
      </trkpt>
      <trkpt lat="44.9292450" lon="7.0753030">
        <ele>1168.0</ele>
        <time>2017-07-26T12:34:30Z</time>
      </trkpt>
      <trkpt lat="44.9292720" lon="7.0754830">
        <ele>1166.6</ele>
        <time>2017-07-26T12:34:31Z</time>
      </trkpt>
      <trkpt lat="44.9293040" lon="7.0756670">
        <ele>1165.4</ele>
        <time>2017-07-26T12:34:32Z</time>
      </trkpt>
      <trkpt lat="44.9293200" lon="7.0758360">
        <ele>1164.2</ele>
        <time>2017-07-26T12:34:33Z</time>
      </trkpt>
      <trkpt lat="44.9293170" lon="7.0760080">
        <ele>1163.0</ele>
        <time>2017-07-26T12:34:34Z</time>
      </trkpt>
      <trkpt lat="44.9292880" lon="7.0761840">
        <ele>1161.8</ele>
        <time>2017-07-26T12:34:35Z</time>
      </trkpt>
      <trkpt lat="44.9292420" lon="7.0763540">
        <ele>1160.6</ele>
        <time>2017-07-26T12:34:36Z</time>
      </trkpt>
      <trkpt lat="44.9291870" lon="7.0765200">
        <ele>1159.2</ele>
        <time>2017-07-26T12:34:37Z</time>
      </trkpt>
      <trkpt lat="44.9291490" lon="7.0766900">
        <ele>1158.0</ele>
        <time>2017-07-26T12:34:38Z</time>
      </trkpt>
      <trkpt lat="44.9291230" lon="7.0768640">
        <ele>1156.8</ele>
        <time>2017-07-26T12:34:39Z</time>
      </trkpt>
      <trkpt lat="44.9291360" lon="7.0770540">
        <ele>1155.8</ele>
        <time>2017-07-26T12:34:40Z</time>
      </trkpt>
      <trkpt lat="44.9291350" lon="7.0772350">
        <ele>1153.4</ele>
        <time>2017-07-26T12:34:41Z</time>
      </trkpt>
      <trkpt lat="44.9291690" lon="7.0774110">
        <ele>1152.2</ele>
        <time>2017-07-26T12:34:42Z</time>
      </trkpt>
      <trkpt lat="44.9292430" lon="7.0776060">
        <ele>1150.8</ele>
        <time>2017-07-26T12:34:43Z</time>
      </trkpt>
      <trkpt lat="44.9293210" lon="7.0777860">
        <ele>1149.6</ele>
        <time>2017-07-26T12:34:44Z</time>
      </trkpt>
      <trkpt lat="44.9293830" lon="7.0779630">
        <ele>1148.2</ele>
        <time>2017-07-26T12:34:45Z</time>
      </trkpt>
      <trkpt lat="44.9294390" lon="7.0781340">
        <ele>1147.0</ele>
        <time>2017-07-26T12:34:46Z</time>
      </trkpt>
      <trkpt lat="44.9294850" lon="7.0783060">
        <ele>1145.6</ele>
        <time>2017-07-26T12:34:47Z</time>
      </trkpt>
      <trkpt lat="44.9295200" lon="7.0784780">
        <ele>1144.6</ele>
        <time>2017-07-26T12:34:48Z</time>
      </trkpt>
      <trkpt lat="44.9295590" lon="7.0786440">
        <ele>1143.4</ele>
        <time>2017-07-26T12:34:49Z</time>
      </trkpt>
      <trkpt lat="44.9296180" lon="7.0787590">
        <ele>1142.4</ele>
        <time>2017-07-26T12:34:50Z</time>
      </trkpt>
      <trkpt lat="44.9296740" lon="7.0788940">
        <ele>1141.4</ele>
        <time>2017-07-26T12:34:51Z</time>
      </trkpt>
      <trkpt lat="44.9297860" lon="7.0791640">
        <ele>1139.6</ele>
        <time>2017-07-26T12:34:53Z</time>
      </trkpt>
      <trkpt lat="44.9298440" lon="7.0792990">
        <ele>1138.6</ele>
        <time>2017-07-26T12:34:54Z</time>
      </trkpt>
      <trkpt lat="44.9299690" lon="7.0795570">
        <ele>1136.8</ele>
        <time>2017-07-26T12:34:56Z</time>
      </trkpt>
      <trkpt lat="44.9300390" lon="7.0796700">
        <ele>1135.8</ele>
        <time>2017-07-26T12:34:57Z</time>
      </trkpt>
      <trkpt lat="44.9301270" lon="7.0797610">
        <ele>1135.0</ele>
        <time>2017-07-26T12:34:58Z</time>
      </trkpt>
      <trkpt lat="44.9302220" lon="7.0798260">
        <ele>1134.2</ele>
        <time>2017-07-26T12:34:59Z</time>
      </trkpt>
      <trkpt lat="44.9303170" lon="7.0798640">
        <ele>1133.6</ele>
        <time>2017-07-26T12:35:00Z</time>
      </trkpt>
      <trkpt lat="44.9304050" lon="7.0798980">
        <ele>1133.0</ele>
        <time>2017-07-26T12:35:01Z</time>
      </trkpt>
      <trkpt lat="44.9304910" lon="7.0799480">
        <ele>1132.4</ele>
        <time>2017-07-26T12:35:02Z</time>
      </trkpt>
      <trkpt lat="44.9306900" lon="7.0800850">
        <ele>1131.2</ele>
        <time>2017-07-26T12:35:04Z</time>
      </trkpt>
      <trkpt lat="44.9307960" lon="7.0801680">
        <ele>1130.0</ele>
        <time>2017-07-26T12:35:05Z</time>
      </trkpt>
      <trkpt lat="44.9309010" lon="7.0802600">
        <ele>1129.4</ele>
        <time>2017-07-26T12:35:06Z</time>
      </trkpt>
      <trkpt lat="44.9309820" lon="7.0803810">
        <ele>1128.6</ele>
        <time>2017-07-26T12:35:07Z</time>
      </trkpt>
      <trkpt lat="44.9310470" lon="7.0805150">
        <ele>1128.0</ele>
        <time>2017-07-26T12:35:08Z</time>
      </trkpt>
      <trkpt lat="44.9311160" lon="7.0806570">
        <ele>1127.4</ele>
        <time>2017-07-26T12:35:09Z</time>
      </trkpt>
      <trkpt lat="44.9312590" lon="7.0809400">
        <ele>1126.2</ele>
        <time>2017-07-26T12:35:11Z</time>
      </trkpt>
      <trkpt lat="44.9313550" lon="7.0810640">
        <ele>1125.6</ele>
        <time>2017-07-26T12:35:12Z</time>
      </trkpt>
      <trkpt lat="44.9314670" lon="7.0811680">
        <ele>1124.8</ele>
        <time>2017-07-26T12:35:13Z</time>
      </trkpt>
      <trkpt lat="44.9316840" lon="7.0813450">
        <ele>1123.4</ele>
        <time>2017-07-26T12:35:15Z</time>
      </trkpt>
      <trkpt lat="44.9319060" lon="7.0814990">
        <ele>1122.4</ele>
        <time>2017-07-26T12:35:17Z</time>
      </trkpt>
      <trkpt lat="44.9321350" lon="7.0816270">
        <ele>1121.2</ele>
        <time>2017-07-26T12:35:19Z</time>
      </trkpt>
      <trkpt lat="44.9322440" lon="7.0817050">
        <ele>1120.6</ele>
        <time>2017-07-26T12:35:20Z</time>
      </trkpt>
      <trkpt lat="44.9323490" lon="7.0817880">
        <ele>1120.0</ele>
        <time>2017-07-26T12:35:21Z</time>
      </trkpt>
      <trkpt lat="44.9324660" lon="7.0818470">
        <ele>1119.4</ele>
        <time>2017-07-26T12:35:22Z</time>
      </trkpt>
      <trkpt lat="44.9325920" lon="7.0818780">
        <ele>1118.8</ele>
        <time>2017-07-26T12:35:23Z</time>
      </trkpt>
      <trkpt lat="44.9328260" lon="7.0818790">
        <ele>1117.4</ele>
        <time>2017-07-26T12:35:25Z</time>
      </trkpt>
      <trkpt lat="44.9329420" lon="7.0818710">
        <ele>1116.6</ele>
        <time>2017-07-26T12:35:26Z</time>
      </trkpt>
      <trkpt lat="44.9330550" lon="7.0818690">
        <ele>1115.8</ele>
        <time>2017-07-26T12:35:27Z</time>
      </trkpt>
      <trkpt lat="44.9331630" lon="7.0818710">
        <ele>1114.8</ele>
        <time>2017-07-26T12:35:28Z</time>
      </trkpt>
      <trkpt lat="44.9332750" lon="7.0818810">
        <ele>1112.6</ele>
        <time>2017-07-26T12:35:29Z</time>
      </trkpt>
      <trkpt lat="44.9333840" lon="7.0818680">
        <ele>1111.8</ele>
        <time>2017-07-26T12:35:30Z</time>
      </trkpt>
      <trkpt lat="44.9334940" lon="7.0818490">
        <ele>1110.6</ele>
        <time>2017-07-26T12:35:31Z</time>
      </trkpt>
      <trkpt lat="44.9337190" lon="7.0818390">
        <ele>1108.6</ele>
        <time>2017-07-26T12:35:33Z</time>
      </trkpt>
      <trkpt lat="44.9338280" lon="7.0818460">
        <ele>1107.4</ele>
        <time>2017-07-26T12:35:34Z</time>
      </trkpt>
      <trkpt lat="44.9339440" lon="7.0818500">
        <ele>1106.6</ele>
        <time>2017-07-26T12:35:35Z</time>
      </trkpt>
      <trkpt lat="44.9340510" lon="7.0818260">
        <ele>1105.6</ele>
        <time>2017-07-26T12:35:36Z</time>
      </trkpt>
      <trkpt lat="44.9342750" lon="7.0817810">
        <ele>1104.0</ele>
        <time>2017-07-26T12:35:38Z</time>
      </trkpt>
      <trkpt lat="44.9345080" lon="7.0817480">
        <ele>1102.4</ele>
        <time>2017-07-26T12:35:40Z</time>
      </trkpt>
      <trkpt lat="44.9347240" lon="7.0817690">
        <ele>1100.8</ele>
        <time>2017-07-26T12:35:42Z</time>
      </trkpt>
      <trkpt lat="44.9349420" lon="7.0817990">
        <ele>1099.4</ele>
        <time>2017-07-26T12:35:44Z</time>
      </trkpt>
      <trkpt lat="44.9350600" lon="7.0818190">
        <ele>1098.8</ele>
        <time>2017-07-26T12:35:45Z</time>
      </trkpt>
      <trkpt lat="44.9351750" lon="7.0818360">
        <ele>1098.0</ele>
        <time>2017-07-26T12:35:46Z</time>
      </trkpt>
      <trkpt lat="44.9354350" lon="7.0818560">
        <ele>1096.8</ele>
        <time>2017-07-26T12:35:48Z</time>
      </trkpt>
      <trkpt lat="44.9357110" lon="7.0818650">
        <ele>1095.4</ele>
        <time>2017-07-26T12:35:50Z</time>
      </trkpt>
      <trkpt lat="44.9358530" lon="7.0818810">
        <ele>1094.4</ele>
        <time>2017-07-26T12:35:51Z</time>
      </trkpt>
      <trkpt lat="44.9361220" lon="7.0818910">
        <ele>1092.0</ele>
        <time>2017-07-26T12:35:53Z</time>
      </trkpt>
      <trkpt lat="44.9363920" lon="7.0819920">
        <ele>1090.0</ele>
        <time>2017-07-26T12:35:55Z</time>
      </trkpt>
      <trkpt lat="44.9365030" lon="7.0820680">
        <ele>1089.0</ele>
        <time>2017-07-26T12:35:56Z</time>
      </trkpt>
      <trkpt lat="44.9367170" lon="7.0822380">
        <ele>1087.4</ele>
        <time>2017-07-26T12:35:58Z</time>
      </trkpt>
      <trkpt lat="44.9368840" lon="7.0825020">
        <ele>1085.8</ele>
        <time>2017-07-26T12:36:00Z</time>
      </trkpt>
      <trkpt lat="44.9369490" lon="7.0826600">
        <ele>1085.0</ele>
        <time>2017-07-26T12:36:01Z</time>
      </trkpt>
      <trkpt lat="44.9370180" lon="7.0828240">
        <ele>1084.2</ele>
        <time>2017-07-26T12:36:02Z</time>
      </trkpt>
      <trkpt lat="44.9371590" lon="7.0831510">
        <ele>1082.8</ele>
        <time>2017-07-26T12:36:04Z</time>
      </trkpt>
      <trkpt lat="44.9372000" lon="7.0833260">
        <ele>1082.2</ele>
        <time>2017-07-26T12:36:05Z</time>
      </trkpt>
      <trkpt lat="44.9372320" lon="7.0835000">
        <ele>1081.6</ele>
        <time>2017-07-26T12:36:06Z</time>
      </trkpt>
      <trkpt lat="44.9373000" lon="7.0838330">
        <ele>1080.6</ele>
        <time>2017-07-26T12:36:08Z</time>
      </trkpt>
      <trkpt lat="44.9373790" lon="7.0841570">
        <ele>1079.4</ele>
        <time>2017-07-26T12:36:10Z</time>
      </trkpt>
      <trkpt lat="44.9374520" lon="7.0844780">
        <ele>1078.2</ele>
        <time>2017-07-26T12:36:12Z</time>
      </trkpt>
      <trkpt lat="44.9375120" lon="7.0846400">
        <ele>1077.6</ele>
        <time>2017-07-26T12:36:13Z</time>
      </trkpt>
      <trkpt lat="44.9375710" lon="7.0847950">
        <ele>1076.8</ele>
        <time>2017-07-26T12:36:14Z</time>
      </trkpt>
      <trkpt lat="44.9377190" lon="7.0850970">
        <ele>1075.4</ele>
        <time>2017-07-26T12:36:16Z</time>
      </trkpt>
      <trkpt lat="44.9377820" lon="7.0852440">
        <ele>1073.8</ele>
        <time>2017-07-26T12:36:17Z</time>
      </trkpt>
      <trkpt lat="44.9379120" lon="7.0855310">
        <ele>1071.8</ele>
        <time>2017-07-26T12:36:19Z</time>
      </trkpt>
      <trkpt lat="44.9379380" lon="7.0856520">
        <ele>1071.0</ele>
        <time>2017-07-26T12:36:20Z</time>
      </trkpt>
      <trkpt lat="44.9379620" lon="7.0857890">
        <ele>1070.2</ele>
        <time>2017-07-26T12:36:21Z</time>
      </trkpt>
      <trkpt lat="44.9379590" lon="7.0859090">
        <ele>1069.4</ele>
        <time>2017-07-26T12:36:22Z</time>
      </trkpt>
      <trkpt lat="44.9379030" lon="7.0860130">
        <ele>1068.4</ele>
        <time>2017-07-26T12:36:23Z</time>
      </trkpt>
      <trkpt lat="44.9378670" lon="7.0861100">
        <ele>1067.4</ele>
        <time>2017-07-26T12:36:24Z</time>
      </trkpt>
      <trkpt lat="44.9378580" lon="7.0861940">
        <ele>1066.8</ele>
        <time>2017-07-26T12:36:25Z</time>
      </trkpt>
      <trkpt lat="44.9378690" lon="7.0862650">
        <ele>1066.0</ele>
        <time>2017-07-26T12:36:26Z</time>
      </trkpt>
      <trkpt lat="44.9378810" lon="7.0862980">
        <ele>1065.2</ele>
        <time>2017-07-26T12:36:27Z</time>
      </trkpt>
      <trkpt lat="44.9379050" lon="7.0861610">
        <ele>1063.4</ele>
        <time>2017-07-26T12:36:29Z</time>
      </trkpt>
      <trkpt lat="44.9378510" lon="7.0859940">
        <ele>1061.6</ele>
        <time>2017-07-26T12:36:31Z</time>
      </trkpt>
      <trkpt lat="44.9378120" lon="7.0858930">
        <ele>1060.6</ele>
        <time>2017-07-26T12:36:32Z</time>
      </trkpt>
      <trkpt lat="44.9377780" lon="7.0857840">
        <ele>1059.8</ele>
        <time>2017-07-26T12:36:33Z</time>
      </trkpt>
      <trkpt lat="44.9377310" lon="7.0855480">
        <ele>1057.8</ele>
        <time>2017-07-26T12:36:35Z</time>
      </trkpt>
      <trkpt lat="44.9377010" lon="7.0852970">
        <ele>1056.4</ele>
        <time>2017-07-26T12:36:37Z</time>
      </trkpt>
      <trkpt lat="44.9376680" lon="7.0851660">
        <ele>1055.6</ele>
        <time>2017-07-26T12:36:38Z</time>
      </trkpt>
      <trkpt lat="44.9376200" lon="7.0850460">
        <ele>1054.8</ele>
        <time>2017-07-26T12:36:39Z</time>
      </trkpt>
      <trkpt lat="44.9375710" lon="7.0849180">
        <ele>1054.0</ele>
        <time>2017-07-26T12:36:40Z</time>
      </trkpt>
      <trkpt lat="44.9375320" lon="7.0847900">
        <ele>1053.0</ele>
        <time>2017-07-26T12:36:41Z</time>
      </trkpt>
      <trkpt lat="44.9374410" lon="7.0845030">
        <ele>1051.6</ele>
        <time>2017-07-26T12:36:43Z</time>
      </trkpt>
      <trkpt lat="44.9373780" lon="7.0841970">
        <ele>1050.2</ele>
        <time>2017-07-26T12:36:45Z</time>
      </trkpt>
      <trkpt lat="44.9373620" lon="7.0840380">
        <ele>1049.4</ele>
        <time>2017-07-26T12:36:46Z</time>
      </trkpt>
      <trkpt lat="44.9373610" lon="7.0838700">
        <ele>1048.8</ele>
        <time>2017-07-26T12:36:47Z</time>
      </trkpt>
      <trkpt lat="44.9373720" lon="7.0835250">
        <ele>1047.6</ele>
        <time>2017-07-26T12:36:49Z</time>
      </trkpt>
      <trkpt lat="44.9373800" lon="7.0831740">
        <ele>1046.0</ele>
        <time>2017-07-26T12:36:51Z</time>
      </trkpt>
      <trkpt lat="44.9373850" lon="7.0828430">
        <ele>1044.8</ele>
        <time>2017-07-26T12:36:53Z</time>
      </trkpt>
      <trkpt lat="44.9373700" lon="7.0826700">
        <ele>1044.4</ele>
        <time>2017-07-26T12:36:54Z</time>
      </trkpt>
      <trkpt lat="44.9373200" lon="7.0823160">
        <ele>1043.2</ele>
        <time>2017-07-26T12:36:56Z</time>
      </trkpt>
      <trkpt lat="44.9372660" lon="7.0821660">
        <ele>1042.4</ele>
        <time>2017-07-26T12:36:57Z</time>
      </trkpt>
      <trkpt lat="44.9372030" lon="7.0820320">
        <ele>1041.8</ele>
        <time>2017-07-26T12:36:58Z</time>
      </trkpt>
      <trkpt lat="44.9370260" lon="7.0818070">
        <ele>1040.2</ele>
        <time>2017-07-26T12:37:00Z</time>
      </trkpt>
      <trkpt lat="44.9369240" lon="7.0817160">
        <ele>1039.4</ele>
        <time>2017-07-26T12:37:01Z</time>
      </trkpt>
      <trkpt lat="44.9368110" lon="7.0816290">
        <ele>1038.6</ele>
        <time>2017-07-26T12:37:02Z</time>
      </trkpt>
      <trkpt lat="44.9366950" lon="7.0815510">
        <ele>1037.8</ele>
        <time>2017-07-26T12:37:03Z</time>
      </trkpt>
      <trkpt lat="44.9365740" lon="7.0814840">
        <ele>1036.8</ele>
        <time>2017-07-26T12:37:04Z</time>
      </trkpt>
      <trkpt lat="44.9364590" lon="7.0814300">
        <ele>1035.2</ele>
        <time>2017-07-26T12:37:05Z</time>
      </trkpt>
      <trkpt lat="44.9362550" lon="7.0813150">
        <ele>1033.4</ele>
        <time>2017-07-26T12:37:07Z</time>
      </trkpt>
      <trkpt lat="44.9361970" lon="7.0811770">
        <ele>1032.6</ele>
        <time>2017-07-26T12:37:08Z</time>
      </trkpt>
      <trkpt lat="44.9361690" lon="7.0810280">
        <ele>1031.8</ele>
        <time>2017-07-26T12:37:09Z</time>
      </trkpt>
      <trkpt lat="44.9361600" lon="7.0808910">
        <ele>1031.0</ele>
        <time>2017-07-26T12:37:10Z</time>
      </trkpt>
      <trkpt lat="44.9361650" lon="7.0807810">
        <ele>1030.4</ele>
        <time>2017-07-26T12:37:11Z</time>
      </trkpt>
      <trkpt lat="44.9362580" lon="7.0806000">
        <ele>1029.2</ele>
        <time>2017-07-26T12:37:13Z</time>
      </trkpt>
      <trkpt lat="44.9362970" lon="7.0805480">
        <ele>1028.6</ele>
        <time>2017-07-26T12:37:14Z</time>
      </trkpt>
      <trkpt lat="44.9363310" lon="7.0805270">
        <ele>1028.0</ele>
        <time>2017-07-26T12:37:15Z</time>
      </trkpt>
      <trkpt lat="44.9364020" lon="7.0805120">
        <ele>1027.6</ele>
        <time>2017-07-26T12:37:16Z</time>
      </trkpt>
      <trkpt lat="44.9364860" lon="7.0805380">
        <ele>1027.0</ele>
        <time>2017-07-26T12:37:17Z</time>
      </trkpt>
      <trkpt lat="44.9365700" lon="7.0805530">
        <ele>1026.4</ele>
        <time>2017-07-26T12:37:18Z</time>
      </trkpt>
      <trkpt lat="44.9366650" lon="7.0805730">
        <ele>1026.0</ele>
        <time>2017-07-26T12:37:19Z</time>
      </trkpt>
      <trkpt lat="44.9369320" lon="7.0806580">
        <ele>1024.6</ele>
        <time>2017-07-26T12:37:22Z</time>
      </trkpt>
      <trkpt lat="44.9370310" lon="7.0807080">
        <ele>1024.0</ele>
        <time>2017-07-26T12:37:23Z</time>
      </trkpt>
      <trkpt lat="44.9371220" lon="7.0807800">
        <ele>1023.4</ele>
        <time>2017-07-26T12:37:24Z</time>
      </trkpt>
      <trkpt lat="44.9372990" lon="7.0809380">
        <ele>1022.8</ele>
        <time>2017-07-26T12:37:26Z</time>
      </trkpt>
      <trkpt lat="44.9373650" lon="7.0810560">
        <ele>1022.6</ele>
        <time>2017-07-26T12:37:27Z</time>
      </trkpt>
      <trkpt lat="44.9374370" lon="7.0811830">
        <ele>1022.2</ele>
        <time>2017-07-26T12:37:28Z</time>
      </trkpt>
      <trkpt lat="44.9375100" lon="7.0813140">
        <ele>1021.6</ele>
        <time>2017-07-26T12:37:29Z</time>
      </trkpt>
      <trkpt lat="44.9375640" lon="7.0814510">
        <ele>1021.2</ele>
        <time>2017-07-26T12:37:30Z</time>
      </trkpt>
      <trkpt lat="44.9377060" lon="7.0816640">
        <ele>1019.8</ele>
        <time>2017-07-26T12:37:32Z</time>
      </trkpt>
      <trkpt lat="44.9378470" lon="7.0818700">
        <ele>1019.2</ele>
        <time>2017-07-26T12:37:34Z</time>
      </trkpt>
      <trkpt lat="44.9379790" lon="7.0820910">
        <ele>1018.6</ele>
        <time>2017-07-26T12:37:36Z</time>
      </trkpt>
      <trkpt lat="44.9380420" lon="7.0822030">
        <ele>1018.2</ele>
        <time>2017-07-26T12:37:37Z</time>
      </trkpt>
      <trkpt lat="44.9381560" lon="7.0824280">
        <ele>1017.2</ele>
        <time>2017-07-26T12:37:39Z</time>
      </trkpt>
      <trkpt lat="44.9383160" lon="7.0827670">
        <ele>1016.8</ele>
        <time>2017-07-26T12:37:42Z</time>
      </trkpt>
      <trkpt lat="44.9383540" lon="7.0828910">
        <ele>1016.8</ele>
        <time>2017-07-26T12:37:43Z</time>
      </trkpt>
      <trkpt lat="44.9383760" lon="7.0830180">
        <ele>1016.6</ele>
        <time>2017-07-26T12:37:44Z</time>
      </trkpt>
      <trkpt lat="44.9383990" lon="7.0831610">
        <ele>1016.0</ele>
        <time>2017-07-26T12:37:45Z</time>
      </trkpt>
      <trkpt lat="44.9384160" lon="7.0832950">
        <ele>1014.4</ele>
        <time>2017-07-26T12:37:46Z</time>
      </trkpt>
      <trkpt lat="44.9384410" lon="7.0835740">
        <ele>1013.2</ele>
        <time>2017-07-26T12:37:48Z</time>
      </trkpt>
      <trkpt lat="44.9384530" lon="7.0841880">
        <ele>1012.6</ele>
        <time>2017-07-26T12:37:52Z</time>
      </trkpt>
      <trkpt lat="44.9384860" lon="7.0843440">
        <ele>1011.8</ele>
        <time>2017-07-26T12:37:53Z</time>
      </trkpt>
      <trkpt lat="44.9385670" lon="7.0846470">
        <ele>1010.8</ele>
        <time>2017-07-26T12:37:55Z</time>
      </trkpt>
      <trkpt lat="44.9386140" lon="7.0847940">
        <ele>1010.4</ele>
        <time>2017-07-26T12:37:56Z</time>
      </trkpt>
      <trkpt lat="44.9386970" lon="7.0851100">
        <ele>1009.2</ele>
        <time>2017-07-26T12:37:58Z</time>
      </trkpt>
      <trkpt lat="44.9387640" lon="7.0854450">
        <ele>1007.8</ele>
        <time>2017-07-26T12:38:00Z</time>
      </trkpt>
      <trkpt lat="44.9388200" lon="7.0857870">
        <ele>1006.2</ele>
        <time>2017-07-26T12:38:02Z</time>
      </trkpt>
      <trkpt lat="44.9389040" lon="7.0861200">
        <ele>1004.6</ele>
        <time>2017-07-26T12:38:04Z</time>
      </trkpt>
      <trkpt lat="44.9390150" lon="7.0864380">
        <ele>1003.2</ele>
        <time>2017-07-26T12:38:06Z</time>
      </trkpt>
      <trkpt lat="44.9390940" lon="7.0867760">
        <ele>1001.8</ele>
        <time>2017-07-26T12:38:08Z</time>
      </trkpt>
      <trkpt lat="44.9391420" lon="7.0871310">
        <ele>1000.0</ele>
        <time>2017-07-26T12:38:10Z</time>
      </trkpt>
      <trkpt lat="44.9391900" lon="7.0874950">
        <ele>998.4</ele>
        <time>2017-07-26T12:38:12Z</time>
      </trkpt>
      <trkpt lat="44.9392610" lon="7.0878590">
        <ele>997.0</ele>
        <time>2017-07-26T12:38:14Z</time>
      </trkpt>
      <trkpt lat="44.9393180" lon="7.0880260">
        <ele>996.0</ele>
        <time>2017-07-26T12:38:15Z</time>
      </trkpt>
      <trkpt lat="44.9393930" lon="7.0881760">
        <ele>995.2</ele>
        <time>2017-07-26T12:38:16Z</time>
      </trkpt>
      <trkpt lat="44.9394770" lon="7.0883200">
        <ele>993.2</ele>
        <time>2017-07-26T12:38:17Z</time>
      </trkpt>
      <trkpt lat="44.9395720" lon="7.0884580">
        <ele>992.6</ele>
        <time>2017-07-26T12:38:18Z</time>
      </trkpt>
      <trkpt lat="44.9396550" lon="7.0886080">
        <ele>992.0</ele>
        <time>2017-07-26T12:38:19Z</time>
      </trkpt>
      <trkpt lat="44.9397370" lon="7.0887540">
        <ele>991.4</ele>
        <time>2017-07-26T12:38:20Z</time>
      </trkpt>
      <trkpt lat="44.9397970" lon="7.0889210">
        <ele>990.6</ele>
        <time>2017-07-26T12:38:21Z</time>
      </trkpt>
      <trkpt lat="44.9398610" lon="7.0890880">
        <ele>990.0</ele>
        <time>2017-07-26T12:38:22Z</time>
      </trkpt>
      <trkpt lat="44.9399130" lon="7.0892650">
        <ele>989.0</ele>
        <time>2017-07-26T12:38:23Z</time>
      </trkpt>
      <trkpt lat="44.9400210" lon="7.0896090">
        <ele>987.0</ele>
        <time>2017-07-26T12:38:25Z</time>
      </trkpt>
      <trkpt lat="44.9400680" lon="7.0897840">
        <ele>986.0</ele>
        <time>2017-07-26T12:38:26Z</time>
      </trkpt>
      <trkpt lat="44.9401220" lon="7.0899550">
        <ele>985.0</ele>
        <time>2017-07-26T12:38:27Z</time>
      </trkpt>
      <trkpt lat="44.9401750" lon="7.0901260">
        <ele>984.0</ele>
        <time>2017-07-26T12:38:28Z</time>
      </trkpt>
      <trkpt lat="44.9402620" lon="7.0904880">
        <ele>982.4</ele>
        <time>2017-07-26T12:38:30Z</time>
      </trkpt>
      <trkpt lat="44.9402680" lon="7.0906770">
        <ele>981.6</ele>
        <time>2017-07-26T12:38:31Z</time>
      </trkpt>
      <trkpt lat="44.9402930" lon="7.0908720">
        <ele>980.6</ele>
        <time>2017-07-26T12:38:32Z</time>
      </trkpt>
      <trkpt lat="44.9403380" lon="7.0910530">
        <ele>979.4</ele>
        <time>2017-07-26T12:38:33Z</time>
      </trkpt>
      <trkpt lat="44.9404050" lon="7.0912210">
        <ele>978.4</ele>
        <time>2017-07-26T12:38:34Z</time>
      </trkpt>
      <trkpt lat="44.9404750" lon="7.0913860">
        <ele>977.2</ele>
        <time>2017-07-26T12:38:35Z</time>
      </trkpt>
      <trkpt lat="44.9405530" lon="7.0915470">
        <ele>976.2</ele>
        <time>2017-07-26T12:38:36Z</time>
      </trkpt>
      <trkpt lat="44.9406330" lon="7.0917050">
        <ele>975.0</ele>
        <time>2017-07-26T12:38:37Z</time>
      </trkpt>
      <trkpt lat="44.9407690" lon="7.0920390">
        <ele>973.2</ele>
        <time>2017-07-26T12:38:39Z</time>
      </trkpt>
      <trkpt lat="44.9408070" lon="7.0922190">
        <ele>972.4</ele>
        <time>2017-07-26T12:38:40Z</time>
      </trkpt>
      <trkpt lat="44.9408140" lon="7.0923990">
        <ele>970.8</ele>
        <time>2017-07-26T12:38:41Z</time>
      </trkpt>
      <trkpt lat="44.9407860" lon="7.0927810">
        <ele>969.0</ele>
        <time>2017-07-26T12:38:43Z</time>
      </trkpt>
      <trkpt lat="44.9407700" lon="7.0929790">
        <ele>968.0</ele>
        <time>2017-07-26T12:38:44Z</time>
      </trkpt>
      <trkpt lat="44.9407640" lon="7.0933640">
        <ele>965.8</ele>
        <time>2017-07-26T12:38:46Z</time>
      </trkpt>
      <trkpt lat="44.9407480" lon="7.0937450">
        <ele>963.8</ele>
        <time>2017-07-26T12:38:48Z</time>
      </trkpt>
      <trkpt lat="44.9407160" lon="7.0939330">
        <ele>962.6</ele>
        <time>2017-07-26T12:38:49Z</time>
      </trkpt>
      <trkpt lat="44.9406710" lon="7.0941140">
        <ele>961.6</ele>
        <time>2017-07-26T12:38:50Z</time>
      </trkpt>
      <trkpt lat="44.9406210" lon="7.0942910">
        <ele>960.4</ele>
        <time>2017-07-26T12:38:51Z</time>
      </trkpt>
      <trkpt lat="44.9405300" lon="7.0946470">
        <ele>958.6</ele>
        <time>2017-07-26T12:38:53Z</time>
      </trkpt>
      <trkpt lat="44.9404730" lon="7.0948180">
        <ele>957.6</ele>
        <time>2017-07-26T12:38:54Z</time>
      </trkpt>
      <trkpt lat="44.9404130" lon="7.0949880">
        <ele>956.2</ele>
        <time>2017-07-26T12:38:55Z</time>
      </trkpt>
      <trkpt lat="44.9403540" lon="7.0951590">
        <ele>955.2</ele>
        <time>2017-07-26T12:38:56Z</time>
      </trkpt>
      <trkpt lat="44.9403150" lon="7.0953410">
        <ele>954.0</ele>
        <time>2017-07-26T12:38:57Z</time>
      </trkpt>
      <trkpt lat="44.9402850" lon="7.0955240">
        <ele>953.0</ele>
        <time>2017-07-26T12:38:58Z</time>
      </trkpt>
      <trkpt lat="44.9402640" lon="7.0957080">
        <ele>951.8</ele>
        <time>2017-07-26T12:38:59Z</time>
      </trkpt>
      <trkpt lat="44.9402410" lon="7.0958900">
        <ele>950.6</ele>
        <time>2017-07-26T12:39:00Z</time>
      </trkpt>
      <trkpt lat="44.9402230" lon="7.0960680">
        <ele>949.4</ele>
        <time>2017-07-26T12:39:01Z</time>
      </trkpt>
      <trkpt lat="44.9402090" lon="7.0962480">
        <ele>948.4</ele>
        <time>2017-07-26T12:39:02Z</time>
      </trkpt>
      <trkpt lat="44.9401520" lon="7.0966070">
        <ele>946.4</ele>
        <time>2017-07-26T12:39:04Z</time>
      </trkpt>
      <trkpt lat="44.9401010" lon="7.0967740">
        <ele>944.2</ele>
        <time>2017-07-26T12:39:05Z</time>
      </trkpt>
      <trkpt lat="44.9400390" lon="7.0969350">
        <ele>943.0</ele>
        <time>2017-07-26T12:39:06Z</time>
      </trkpt>
      <trkpt lat="44.9399670" lon="7.0970850">
        <ele>941.8</ele>
        <time>2017-07-26T12:39:07Z</time>
      </trkpt>
      <trkpt lat="44.9398920" lon="7.0972320">
        <ele>940.6</ele>
        <time>2017-07-26T12:39:08Z</time>
      </trkpt>
      <trkpt lat="44.9398170" lon="7.0973740">
        <ele>939.8</ele>
        <time>2017-07-26T12:39:09Z</time>
      </trkpt>
      <trkpt lat="44.9397490" lon="7.0975230">
        <ele>938.6</ele>
        <time>2017-07-26T12:39:10Z</time>
      </trkpt>
      <trkpt lat="44.9396880" lon="7.0976740">
        <ele>937.8</ele>
        <time>2017-07-26T12:39:11Z</time>
      </trkpt>
      <trkpt lat="44.9396480" lon="7.0978310">
        <ele>936.6</ele>
        <time>2017-07-26T12:39:12Z</time>
      </trkpt>
      <trkpt lat="44.9396190" lon="7.0981650">
        <ele>935.0</ele>
        <time>2017-07-26T12:39:14Z</time>
      </trkpt>
      <trkpt lat="44.9396300" lon="7.0985050">
        <ele>933.2</ele>
        <time>2017-07-26T12:39:16Z</time>
      </trkpt>
      <trkpt lat="44.9396650" lon="7.0986680">
        <ele>932.4</ele>
        <time>2017-07-26T12:39:17Z</time>
      </trkpt>
      <trkpt lat="44.9397120" lon="7.0988240">
        <ele>931.4</ele>
        <time>2017-07-26T12:39:18Z</time>
      </trkpt>
      <trkpt lat="44.9398520" lon="7.0991050">
        <ele>929.4</ele>
        <time>2017-07-26T12:39:20Z</time>
      </trkpt>
      <trkpt lat="44.9400260" lon="7.0993700">
        <ele>927.8</ele>
        <time>2017-07-26T12:39:22Z</time>
      </trkpt>
      <trkpt lat="44.9401700" lon="7.0996630">
        <ele>926.4</ele>
        <time>2017-07-26T12:39:24Z</time>
      </trkpt>
      <trkpt lat="44.9402420" lon="7.0999960">
        <ele>924.6</ele>
        <time>2017-07-26T12:39:26Z</time>
      </trkpt>
      <trkpt lat="44.9402770" lon="7.1001600">
        <ele>923.6</ele>
        <time>2017-07-26T12:39:27Z</time>
      </trkpt>
      <trkpt lat="44.9403150" lon="7.1003250">
        <ele>922.6</ele>
        <time>2017-07-26T12:39:28Z</time>
      </trkpt>
      <trkpt lat="44.9404370" lon="7.1006260">
        <ele>920.2</ele>
        <time>2017-07-26T12:39:30Z</time>
      </trkpt>
      <trkpt lat="44.9405250" lon="7.1007450">
        <ele>919.2</ele>
        <time>2017-07-26T12:39:31Z</time>
      </trkpt>
      <trkpt lat="44.9406220" lon="7.1008450">
        <ele>918.4</ele>
        <time>2017-07-26T12:39:32Z</time>
      </trkpt>
      <trkpt lat="44.9408370" lon="7.1010030">
        <ele>917.0</ele>
        <time>2017-07-26T12:39:34Z</time>
      </trkpt>
      <trkpt lat="44.9410690" lon="7.1011140">
        <ele>915.6</ele>
        <time>2017-07-26T12:39:36Z</time>
      </trkpt>
      <trkpt lat="44.9411900" lon="7.1011560">
        <ele>915.0</ele>
        <time>2017-07-26T12:39:37Z</time>
      </trkpt>
      <trkpt lat="44.9413020" lon="7.1011760">
        <ele>914.2</ele>
        <time>2017-07-26T12:39:38Z</time>
      </trkpt>
      <trkpt lat="44.9415110" lon="7.1011780">
        <ele>913.0</ele>
        <time>2017-07-26T12:39:40Z</time>
      </trkpt>
      <trkpt lat="44.9416020" lon="7.1011970">
        <ele>912.4</ele>
        <time>2017-07-26T12:39:41Z</time>
      </trkpt>
      <trkpt lat="44.9416850" lon="7.1012380">
        <ele>911.6</ele>
        <time>2017-07-26T12:39:42Z</time>
      </trkpt>
      <trkpt lat="44.9418160" lon="7.1013800">
        <ele>910.4</ele>
        <time>2017-07-26T12:39:44Z</time>
      </trkpt>
      <trkpt lat="44.9418060" lon="7.1016390">
        <ele>909.8</ele>
        <time>2017-07-26T12:39:46Z</time>
      </trkpt>
      <trkpt lat="44.9417680" lon="7.1018870">
        <ele>909.2</ele>
        <time>2017-07-26T12:39:48Z</time>
      </trkpt>
      <trkpt lat="44.9417030" lon="7.1019810">
        <ele>908.8</ele>
        <time>2017-07-26T12:39:49Z</time>
      </trkpt>
      <trkpt lat="44.9415050" lon="7.1020210">
        <ele>907.6</ele>
        <time>2017-07-26T12:39:51Z</time>
      </trkpt>
      <trkpt lat="44.9413100" lon="7.1020390">
        <ele>906.6</ele>
        <time>2017-07-26T12:39:53Z</time>
      </trkpt>
      <trkpt lat="44.9411230" lon="7.1021170">
        <ele>905.2</ele>
        <time>2017-07-26T12:39:55Z</time>
      </trkpt>
      <trkpt lat="44.9409560" lon="7.1022650">
        <ele>904.4</ele>
        <time>2017-07-26T12:39:57Z</time>
      </trkpt>
      <trkpt lat="44.9408810" lon="7.1023590">
        <ele>904.0</ele>
        <time>2017-07-26T12:39:58Z</time>
      </trkpt>
      <trkpt lat="44.9406910" lon="7.1026910">
        <ele>902.8</ele>
        <time>2017-07-26T12:40:01Z</time>
      </trkpt>
      <trkpt lat="44.9406330" lon="7.1028200">
        <ele>902.2</ele>
        <time>2017-07-26T12:40:02Z</time>
      </trkpt>
      <trkpt lat="44.9405700" lon="7.1029490">
        <ele>901.6</ele>
        <time>2017-07-26T12:40:03Z</time>
      </trkpt>
      <trkpt lat="44.9405250" lon="7.1031230">
        <ele>900.8</ele>
        <time>2017-07-26T12:40:04Z</time>
      </trkpt>
      <trkpt lat="44.9404820" lon="7.1033030">
        <ele>900.0</ele>
        <time>2017-07-26T12:40:05Z</time>
      </trkpt>
      <trkpt lat="44.9404360" lon="7.1034850">
        <ele>899.2</ele>
        <time>2017-07-26T12:40:06Z</time>
      </trkpt>
      <trkpt lat="44.9403840" lon="7.1036600">
        <ele>898.4</ele>
        <time>2017-07-26T12:40:07Z</time>
      </trkpt>
      <trkpt lat="44.9402570" lon="7.1039880">
        <ele>896.8</ele>
        <time>2017-07-26T12:40:09Z</time>
      </trkpt>
      <trkpt lat="44.9401510" lon="7.1043080">
        <ele>895.4</ele>
        <time>2017-07-26T12:40:11Z</time>
      </trkpt>
      <trkpt lat="44.9401210" lon="7.1046640">
        <ele>893.8</ele>
        <time>2017-07-26T12:40:13Z</time>
      </trkpt>
      <trkpt lat="44.9400970" lon="7.1048370">
        <ele>892.8</ele>
        <time>2017-07-26T12:40:14Z</time>
      </trkpt>
      <trkpt lat="44.9400650" lon="7.1050090">
        <ele>891.8</ele>
        <time>2017-07-26T12:40:15Z</time>
      </trkpt>
      <trkpt lat="44.9399870" lon="7.1053400">
        <ele>890.2</ele>
        <time>2017-07-26T12:40:17Z</time>
      </trkpt>
      <trkpt lat="44.9399260" lon="7.1054900">
        <ele>888.6</ele>
        <time>2017-07-26T12:40:18Z</time>
      </trkpt>
      <trkpt lat="44.9398610" lon="7.1056390">
        <ele>888.0</ele>
        <time>2017-07-26T12:40:19Z</time>
      </trkpt>
      <trkpt lat="44.9398090" lon="7.1057960">
        <ele>887.2</ele>
        <time>2017-07-26T12:40:20Z</time>
      </trkpt>
      <trkpt lat="44.9397680" lon="7.1059670">
        <ele>886.6</ele>
        <time>2017-07-26T12:40:21Z</time>
      </trkpt>
      <trkpt lat="44.9397410" lon="7.1061370">
        <ele>886.0</ele>
        <time>2017-07-26T12:40:22Z</time>
      </trkpt>
      <trkpt lat="44.9397150" lon="7.1063080">
        <ele>885.2</ele>
        <time>2017-07-26T12:40:23Z</time>
      </trkpt>
      <trkpt lat="44.9396860" lon="7.1064830">
        <ele>884.4</ele>
        <time>2017-07-26T12:40:24Z</time>
      </trkpt>
      <trkpt lat="44.9396550" lon="7.1066550">
        <ele>883.4</ele>
        <time>2017-07-26T12:40:25Z</time>
      </trkpt>
      <trkpt lat="44.9395780" lon="7.1070060">
        <ele>882.4</ele>
        <time>2017-07-26T12:40:27Z</time>
      </trkpt>
      <trkpt lat="44.9394560" lon="7.1073340">
        <ele>880.4</ele>
        <time>2017-07-26T12:40:29Z</time>
      </trkpt>
      <trkpt lat="44.9393290" lon="7.1076470">
        <ele>878.0</ele>
        <time>2017-07-26T12:40:31Z</time>
      </trkpt>
      <trkpt lat="44.9392640" lon="7.1078040">
        <ele>877.0</ele>
        <time>2017-07-26T12:40:32Z</time>
      </trkpt>
      <trkpt lat="44.9391990" lon="7.1079610">
        <ele>875.8</ele>
        <time>2017-07-26T12:40:33Z</time>
      </trkpt>
      <trkpt lat="44.9390010" lon="7.1084390">
        <ele>874.4</ele>
        <time>2017-07-26T12:40:36Z</time>
      </trkpt>
      <trkpt lat="44.9388870" lon="7.1087780">
        <ele>873.0</ele>
        <time>2017-07-26T12:40:38Z</time>
      </trkpt>
      <trkpt lat="44.9388670" lon="7.1091500">
        <ele>871.8</ele>
        <time>2017-07-26T12:40:40Z</time>
      </trkpt>
      <trkpt lat="44.9389190" lon="7.1095240">
        <ele>869.6</ele>
        <time>2017-07-26T12:40:42Z</time>
      </trkpt>
      <trkpt lat="44.9389490" lon="7.1097040">
        <ele>868.8</ele>
        <time>2017-07-26T12:40:43Z</time>
      </trkpt>
      <trkpt lat="44.9389810" lon="7.1098800">
        <ele>868.0</ele>
        <time>2017-07-26T12:40:44Z</time>
      </trkpt>
      <trkpt lat="44.9390320" lon="7.1102370">
        <ele>866.6</ele>
        <time>2017-07-26T12:40:46Z</time>
      </trkpt>
      <trkpt lat="44.9390840" lon="7.1106050">
        <ele>865.0</ele>
        <time>2017-07-26T12:40:48Z</time>
      </trkpt>
      <trkpt lat="44.9391380" lon="7.1109780">
        <ele>863.6</ele>
        <time>2017-07-26T12:40:50Z</time>
      </trkpt>
      <trkpt lat="44.9391680" lon="7.1113480">
        <ele>862.0</ele>
        <time>2017-07-26T12:40:52Z</time>
      </trkpt>
      <trkpt lat="44.9391390" lon="7.1117000">
        <ele>860.4</ele>
        <time>2017-07-26T12:40:54Z</time>
      </trkpt>
      <trkpt lat="44.9390870" lon="7.1118570">
        <ele>859.6</ele>
        <time>2017-07-26T12:40:55Z</time>
      </trkpt>
      <trkpt lat="44.9390310" lon="7.1120140">
        <ele>858.8</ele>
        <time>2017-07-26T12:40:56Z</time>
      </trkpt>
      <trkpt lat="44.9389230" lon="7.1123160">
        <ele>857.2</ele>
        <time>2017-07-26T12:40:58Z</time>
      </trkpt>
      <trkpt lat="44.9388700" lon="7.1124620">
        <ele>856.4</ele>
        <time>2017-07-26T12:40:59Z</time>
      </trkpt>
      <trkpt lat="44.9388150" lon="7.1126000">
        <ele>856.0</ele>
        <time>2017-07-26T12:41:00Z</time>
      </trkpt>
      <trkpt lat="44.9387150" lon="7.1128680">
        <ele>854.8</ele>
        <time>2017-07-26T12:41:02Z</time>
      </trkpt>
      <trkpt lat="44.9386250" lon="7.1131240">
        <ele>853.8</ele>
        <time>2017-07-26T12:41:04Z</time>
      </trkpt>
      <trkpt lat="44.9385530" lon="7.1133780">
        <ele>852.8</ele>
        <time>2017-07-26T12:41:06Z</time>
      </trkpt>
      <trkpt lat="44.9384880" lon="7.1137630">
        <ele>851.8</ele>
        <time>2017-07-26T12:41:09Z</time>
      </trkpt>
      <trkpt lat="44.9384830" lon="7.1138910">
        <ele>851.6</ele>
        <time>2017-07-26T12:41:10Z</time>
      </trkpt>
      <trkpt lat="44.9384550" lon="7.1142570">
        <ele>851.0</ele>
        <time>2017-07-26T12:41:13Z</time>
      </trkpt>
      <trkpt lat="44.9384280" lon="7.1143760">
        <ele>851.0</ele>
        <time>2017-07-26T12:41:14Z</time>
      </trkpt>
      <trkpt lat="44.9383360" lon="7.1146860">
        <ele>850.4</ele>
        <time>2017-07-26T12:41:17Z</time>
      </trkpt>
      <trkpt lat="44.9382890" lon="7.1147430">
        <ele>850.4</ele>
        <time>2017-07-26T12:41:18Z</time>
      </trkpt>
      <trkpt lat="44.9381060" lon="7.1148500">
        <ele>849.6</ele>
        <time>2017-07-26T12:41:21Z</time>
      </trkpt>
      <trkpt lat="44.9380320" lon="7.1148940">
        <ele>849.4</ele>
        <time>2017-07-26T12:41:22Z</time>
      </trkpt>
      <trkpt lat="44.9377770" lon="7.1150130">
        <ele>848.2</ele>
        <time>2017-07-26T12:41:25Z</time>
      </trkpt>
      <trkpt lat="44.9375150" lon="7.1151230">
        <ele>847.2</ele>
        <time>2017-07-26T12:41:28Z</time>
      </trkpt>
      <trkpt lat="44.9374200" lon="7.1151340">
        <ele>846.8</ele>
        <time>2017-07-26T12:41:29Z</time>
      </trkpt>
      <trkpt lat="44.9373290" lon="7.1151470">
        <ele>845.8</ele>
        <time>2017-07-26T12:41:30Z</time>
      </trkpt>
      <trkpt lat="44.9370360" lon="7.1151660">
        <ele>844.8</ele>
        <time>2017-07-26T12:41:33Z</time>
      </trkpt>
      <trkpt lat="44.9368270" lon="7.1151860">
        <ele>844.0</ele>
        <time>2017-07-26T12:41:35Z</time>
      </trkpt>
      <trkpt lat="44.9367210" lon="7.1152280">
        <ele>843.6</ele>
        <time>2017-07-26T12:41:36Z</time>
      </trkpt>
      <trkpt lat="44.9365120" lon="7.1153450">
        <ele>842.6</ele>
        <time>2017-07-26T12:41:38Z</time>
      </trkpt>
      <trkpt lat="44.9364060" lon="7.1154020">
        <ele>842.2</ele>
        <time>2017-07-26T12:41:39Z</time>
      </trkpt>
      <trkpt lat="44.9361880" lon="7.1154790">
        <ele>841.6</ele>
        <time>2017-07-26T12:41:41Z</time>
      </trkpt>
      <trkpt lat="44.9359860" lon="7.1155910">
        <ele>840.8</ele>
        <time>2017-07-26T12:41:43Z</time>
      </trkpt>
      <trkpt lat="44.9358090" lon="7.1157460">
        <ele>839.8</ele>
        <time>2017-07-26T12:41:45Z</time>
      </trkpt>
      <trkpt lat="44.9357250" lon="7.1158380">
        <ele>839.4</ele>
        <time>2017-07-26T12:41:46Z</time>
      </trkpt>
      <trkpt lat="44.9356370" lon="7.1159150">
        <ele>839.2</ele>
        <time>2017-07-26T12:41:47Z</time>
      </trkpt>
      <trkpt lat="44.9353910" lon="7.1161760">
        <ele>838.0</ele>
        <time>2017-07-26T12:41:50Z</time>
      </trkpt>
      <trkpt lat="44.9352110" lon="7.1163430">
        <ele>837.0</ele>
        <time>2017-07-26T12:41:52Z</time>
      </trkpt>
      <trkpt lat="44.9350300" lon="7.1165100">
        <ele>835.8</ele>
        <time>2017-07-26T12:41:54Z</time>
      </trkpt>
      <trkpt lat="44.9348570" lon="7.1167020">
        <ele>835.2</ele>
        <time>2017-07-26T12:41:56Z</time>
      </trkpt>
      <trkpt lat="44.9346830" lon="7.1169030">
        <ele>834.4</ele>
        <time>2017-07-26T12:41:58Z</time>
      </trkpt>
      <trkpt lat="44.9344200" lon="7.1172010">
        <ele>833.0</ele>
        <time>2017-07-26T12:42:01Z</time>
      </trkpt>
      <trkpt lat="44.9343290" lon="7.1172980">
        <ele>832.6</ele>
        <time>2017-07-26T12:42:02Z</time>
      </trkpt>
      <trkpt lat="44.9341420" lon="7.1174780">
        <ele>832.0</ele>
        <time>2017-07-26T12:42:04Z</time>
      </trkpt>
      <trkpt lat="44.9338910" lon="7.1177700">
        <ele>831.0</ele>
        <time>2017-07-26T12:42:07Z</time>
      </trkpt>
      <trkpt lat="44.9337720" lon="7.1181620">
        <ele>829.8</ele>
        <time>2017-07-26T12:42:10Z</time>
      </trkpt>
      <trkpt lat="44.9338240" lon="7.1185780">
        <ele>829.0</ele>
        <time>2017-07-26T12:42:13Z</time>
      </trkpt>
      <trkpt lat="44.9338540" lon="7.1187140">
        <ele>828.6</ele>
        <time>2017-07-26T12:42:14Z</time>
      </trkpt>
      <trkpt lat="44.9340060" lon="7.1191080">
        <ele>827.4</ele>
        <time>2017-07-26T12:42:17Z</time>
      </trkpt>
      <trkpt lat="44.9341420" lon="7.1193680">
        <ele>826.2</ele>
        <time>2017-07-26T12:42:19Z</time>
      </trkpt>
      <trkpt lat="44.9342320" lon="7.1194760">
        <ele>825.8</ele>
        <time>2017-07-26T12:42:20Z</time>
      </trkpt>
      <trkpt lat="44.9343340" lon="7.1195710">
        <ele>825.4</ele>
        <time>2017-07-26T12:42:21Z</time>
      </trkpt>
      <trkpt lat="44.9344410" lon="7.1196640">
        <ele>825.0</ele>
        <time>2017-07-26T12:42:22Z</time>
      </trkpt>
      <trkpt lat="44.9347890" lon="7.1198980">
        <ele>824.4</ele>
        <time>2017-07-26T12:42:25Z</time>
      </trkpt>
      <trkpt lat="44.9350320" lon="7.1200170">
        <ele>823.8</ele>
        <time>2017-07-26T12:42:27Z</time>
      </trkpt>
      <trkpt lat="44.9353900" lon="7.1202060">
        <ele>823.0</ele>
        <time>2017-07-26T12:42:30Z</time>
      </trkpt>
      <trkpt lat="44.9355050" lon="7.1202700">
        <ele>822.8</ele>
        <time>2017-07-26T12:42:31Z</time>
      </trkpt>
      <trkpt lat="44.9359280" lon="7.1205550">
        <ele>821.8</ele>
        <time>2017-07-26T12:42:35Z</time>
      </trkpt>
      <trkpt lat="44.9364240" lon="7.1208630">
        <ele>820.8</ele>
        <time>2017-07-26T12:42:40Z</time>
      </trkpt>
      <trkpt lat="44.9365180" lon="7.1209230">
        <ele>820.4</ele>
        <time>2017-07-26T12:42:41Z</time>
      </trkpt>
      <trkpt lat="44.9367970" lon="7.1210930">
        <ele>819.6</ele>
        <time>2017-07-26T12:42:44Z</time>
      </trkpt>
      <trkpt lat="44.9372540" lon="7.1213740">
        <ele>818.8</ele>
        <time>2017-07-26T12:42:49Z</time>
      </trkpt>
      <trkpt lat="44.9373470" lon="7.1214310">
        <ele>818.6</ele>
        <time>2017-07-26T12:42:50Z</time>
      </trkpt>
      <trkpt lat="44.9377840" lon="7.1217640">
        <ele>817.6</ele>
        <time>2017-07-26T12:42:55Z</time>
      </trkpt>
      <trkpt lat="44.9378550" lon="7.1218570">
        <ele>817.4</ele>
        <time>2017-07-26T12:42:56Z</time>
      </trkpt>
      <trkpt lat="44.9380620" lon="7.1221410">
        <ele>816.6</ele>
        <time>2017-07-26T12:42:59Z</time>
      </trkpt>
      <trkpt lat="44.9381280" lon="7.1222440">
        <ele>816.4</ele>
        <time>2017-07-26T12:43:00Z</time>
      </trkpt>
      <trkpt lat="44.9383090" lon="7.1225850">
        <ele>814.8</ele>
        <time>2017-07-26T12:43:03Z</time>
      </trkpt>
      <trkpt lat="44.9383660" lon="7.1227080">
        <ele>814.0</ele>
        <time>2017-07-26T12:43:04Z</time>
      </trkpt>
      <trkpt lat="44.9384130" lon="7.1228390">
        <ele>813.6</ele>
        <time>2017-07-26T12:43:05Z</time>
      </trkpt>
      <trkpt lat="44.9384520" lon="7.1229750">
        <ele>812.6</ele>
        <time>2017-07-26T12:43:06Z</time>
      </trkpt>
      <trkpt lat="44.9385250" lon="7.1232540">
        <ele>811.4</ele>
        <time>2017-07-26T12:43:08Z</time>
      </trkpt>
      <trkpt lat="44.9385810" lon="7.1235360">
        <ele>809.8</ele>
        <time>2017-07-26T12:43:10Z</time>
      </trkpt>
      <trkpt lat="44.9386230" lon="7.1238220">
        <ele>808.4</ele>
        <time>2017-07-26T12:43:12Z</time>
      </trkpt>
      <trkpt lat="44.9386550" lon="7.1241020">
        <ele>807.0</ele>
        <time>2017-07-26T12:43:14Z</time>
      </trkpt>
      <trkpt lat="44.9386610" lon="7.1243880">
        <ele>805.8</ele>
        <time>2017-07-26T12:43:16Z</time>
      </trkpt>
      <trkpt lat="44.9386490" lon="7.1245320">
        <ele>805.2</ele>
        <time>2017-07-26T12:43:17Z</time>
      </trkpt>
      <trkpt lat="44.9386340" lon="7.1246750">
        <ele>804.8</ele>
        <time>2017-07-26T12:43:18Z</time>
      </trkpt>
      <trkpt lat="44.9385920" lon="7.1249620">
        <ele>803.6</ele>
        <time>2017-07-26T12:43:20Z</time>
      </trkpt>
      <trkpt lat="44.9385360" lon="7.1252440">
        <ele>802.6</ele>
        <time>2017-07-26T12:43:22Z</time>
      </trkpt>
      <trkpt lat="44.9385070" lon="7.1253840">
        <ele>802.2</ele>
        <time>2017-07-26T12:43:23Z</time>
      </trkpt>
      <trkpt lat="44.9384750" lon="7.1255260">
        <ele>801.6</ele>
        <time>2017-07-26T12:43:24Z</time>
      </trkpt>
      <trkpt lat="44.9383970" lon="7.1258090">
        <ele>800.4</ele>
        <time>2017-07-26T12:43:26Z</time>
      </trkpt>
      <trkpt lat="44.9382900" lon="7.1260880">
        <ele>799.4</ele>
        <time>2017-07-26T12:43:28Z</time>
      </trkpt>
      <trkpt lat="44.9381390" lon="7.1263220">
        <ele>797.8</ele>
        <time>2017-07-26T12:43:30Z</time>
      </trkpt>
      <trkpt lat="44.9380500" lon="7.1264200">
        <ele>797.2</ele>
        <time>2017-07-26T12:43:31Z</time>
      </trkpt>
      <trkpt lat="44.9379560" lon="7.1265080">
        <ele>796.8</ele>
        <time>2017-07-26T12:43:32Z</time>
      </trkpt>
      <trkpt lat="44.9377590" lon="7.1266730">
        <ele>795.6</ele>
        <time>2017-07-26T12:43:34Z</time>
      </trkpt>
      <trkpt lat="44.9376580" lon="7.1267420">
        <ele>795.2</ele>
        <time>2017-07-26T12:43:35Z</time>
      </trkpt>
      <trkpt lat="44.9374520" lon="7.1268560">
        <ele>794.4</ele>
        <time>2017-07-26T12:43:37Z</time>
      </trkpt>
      <trkpt lat="44.9371580" lon="7.1270280">
        <ele>793.0</ele>
        <time>2017-07-26T12:43:40Z</time>
      </trkpt>
      <trkpt lat="44.9369750" lon="7.1271700">
        <ele>792.4</ele>
        <time>2017-07-26T12:43:42Z</time>
      </trkpt>
      <trkpt lat="44.9368130" lon="7.1273560">
        <ele>791.8</ele>
        <time>2017-07-26T12:43:44Z</time>
      </trkpt>
      <trkpt lat="44.9366510" lon="7.1275360">
        <ele>791.2</ele>
        <time>2017-07-26T12:43:46Z</time>
      </trkpt>
      <trkpt lat="44.9365650" lon="7.1275990">
        <ele>790.8</ele>
        <time>2017-07-26T12:43:47Z</time>
      </trkpt>
      <trkpt lat="44.9363860" lon="7.1276940">
        <ele>790.6</ele>
        <time>2017-07-26T12:43:49Z</time>
      </trkpt>
      <trkpt lat="44.9362000" lon="7.1277480">
        <ele>790.2</ele>
        <time>2017-07-26T12:43:51Z</time>
      </trkpt>
      <trkpt lat="44.9359210" lon="7.1278700">
        <ele>789.4</ele>
        <time>2017-07-26T12:43:54Z</time>
      </trkpt>
      <trkpt lat="44.9355530" lon="7.1280880">
        <ele>788.4</ele>
        <time>2017-07-26T12:43:58Z</time>
      </trkpt>
      <trkpt lat="44.9354640" lon="7.1281700">
        <ele>788.0</ele>
        <time>2017-07-26T12:43:59Z</time>
      </trkpt>
      <trkpt lat="44.9352930" lon="7.1283550">
        <ele>787.4</ele>
        <time>2017-07-26T12:44:01Z</time>
      </trkpt>
      <trkpt lat="44.9351350" lon="7.1285610">
        <ele>786.4</ele>
        <time>2017-07-26T12:44:03Z</time>
      </trkpt>
      <trkpt lat="44.9350620" lon="7.1286710">
        <ele>786.0</ele>
        <time>2017-07-26T12:44:04Z</time>
      </trkpt>
      <trkpt lat="44.9348390" lon="7.1289960">
        <ele>784.8</ele>
        <time>2017-07-26T12:44:07Z</time>
      </trkpt>
      <trkpt lat="44.9346930" lon="7.1292120">
        <ele>783.8</ele>
        <time>2017-07-26T12:44:09Z</time>
      </trkpt>
      <trkpt lat="44.9346180" lon="7.1293180">
        <ele>783.4</ele>
        <time>2017-07-26T12:44:10Z</time>
      </trkpt>
      <trkpt lat="44.9344120" lon="7.1296480">
        <ele>782.2</ele>
        <time>2017-07-26T12:44:13Z</time>
      </trkpt>
      <trkpt lat="44.9343010" lon="7.1298880">
        <ele>781.6</ele>
        <time>2017-07-26T12:44:15Z</time>
      </trkpt>
      <trkpt lat="44.9342170" lon="7.1301450">
        <ele>780.8</ele>
        <time>2017-07-26T12:44:17Z</time>
      </trkpt>
      <trkpt lat="44.9341660" lon="7.1304060">
        <ele>780.0</ele>
        <time>2017-07-26T12:44:19Z</time>
      </trkpt>
      <trkpt lat="44.9341450" lon="7.1305340">
        <ele>779.8</ele>
        <time>2017-07-26T12:44:20Z</time>
      </trkpt>
      <trkpt lat="44.9341390" lon="7.1310420">
        <ele>779.0</ele>
        <time>2017-07-26T12:44:24Z</time>
      </trkpt>
      <trkpt lat="44.9341840" lon="7.1314160">
        <ele>778.8</ele>
        <time>2017-07-26T12:44:27Z</time>
      </trkpt>
      <trkpt lat="44.9342200" lon="7.1316650">
        <ele>778.4</ele>
        <time>2017-07-26T12:44:29Z</time>
      </trkpt>
      <trkpt lat="44.9342360" lon="7.1317910">
        <ele>778.2</ele>
        <time>2017-07-26T12:44:30Z</time>
      </trkpt>
      <trkpt lat="44.9342760" lon="7.1324220">
        <ele>777.8</ele>
        <time>2017-07-26T12:44:35Z</time>
      </trkpt>
      <trkpt lat="44.9342710" lon="7.1325460">
        <ele>777.6</ele>
        <time>2017-07-26T12:44:36Z</time>
      </trkpt>
      <trkpt lat="44.9342610" lon="7.1330510">
        <ele>776.6</ele>
        <time>2017-07-26T12:44:40Z</time>
      </trkpt>
      <trkpt lat="44.9342920" lon="7.1334260">
        <ele>775.8</ele>
        <time>2017-07-26T12:44:43Z</time>
      </trkpt>
      <trkpt lat="44.9343200" lon="7.1335430">
        <ele>775.8</ele>
        <time>2017-07-26T12:44:44Z</time>
      </trkpt>
      <trkpt lat="44.9343560" lon="7.1336600">
        <ele>775.6</ele>
        <time>2017-07-26T12:44:45Z</time>
      </trkpt>
      <trkpt lat="44.9344200" lon="7.1338960">
        <ele>775.6</ele>
        <time>2017-07-26T12:44:47Z</time>
      </trkpt>
      <trkpt lat="44.9345130" lon="7.1345700">
        <ele>775.4</ele>
        <time>2017-07-26T12:44:52Z</time>
      </trkpt>
      <trkpt lat="44.9345740" lon="7.1350060">
        <ele>774.6</ele>
        <time>2017-07-26T12:44:55Z</time>
      </trkpt>
      <trkpt lat="44.9346240" lon="7.1354640">
        <ele>773.8</ele>
        <time>2017-07-26T12:44:58Z</time>
      </trkpt>
      <trkpt lat="44.9346530" lon="7.1356110">
        <ele>773.2</ele>
        <time>2017-07-26T12:44:59Z</time>
      </trkpt>
      <trkpt lat="44.9347180" lon="7.1359000">
        <ele>772.2</ele>
        <time>2017-07-26T12:45:01Z</time>
      </trkpt>
      <trkpt lat="44.9347910" lon="7.1361670">
        <ele>771.4</ele>
        <time>2017-07-26T12:45:03Z</time>
      </trkpt>
      <trkpt lat="44.9348300" lon="7.1363030">
        <ele>770.8</ele>
        <time>2017-07-26T12:45:04Z</time>
      </trkpt>
      <trkpt lat="44.9349130" lon="7.1365670">
        <ele>769.8</ele>
        <time>2017-07-26T12:45:06Z</time>
      </trkpt>
      <trkpt lat="44.9350520" lon="7.1369680">
        <ele>768.2</ele>
        <time>2017-07-26T12:45:09Z</time>
      </trkpt>
      <trkpt lat="44.9351000" lon="7.1371050">
        <ele>767.8</ele>
        <time>2017-07-26T12:45:10Z</time>
      </trkpt>
      <trkpt lat="44.9352010" lon="7.1373830">
        <ele>767.0</ele>
        <time>2017-07-26T12:45:12Z</time>
      </trkpt>
      <trkpt lat="44.9353500" lon="7.1377970">
        <ele>766.0</ele>
        <time>2017-07-26T12:45:15Z</time>
      </trkpt>
      <trkpt lat="44.9354000" lon="7.1379300">
        <ele>765.4</ele>
        <time>2017-07-26T12:45:16Z</time>
      </trkpt>
      <trkpt lat="44.9354560" lon="7.1380550">
        <ele>765.0</ele>
        <time>2017-07-26T12:45:17Z</time>
      </trkpt>
      <trkpt lat="44.9356560" lon="7.1383830">
        <ele>764.0</ele>
        <time>2017-07-26T12:45:20Z</time>
      </trkpt>
      <trkpt lat="44.9357260" lon="7.1384820">
        <ele>763.6</ele>
        <time>2017-07-26T12:45:21Z</time>
      </trkpt>
      <trkpt lat="44.9360190" lon="7.1389340">
        <ele>763.2</ele>
        <time>2017-07-26T12:45:26Z</time>
      </trkpt>
      <trkpt lat="44.9360170" lon="7.1390380">
        <ele>763.0</ele>
        <time>2017-07-26T12:45:27Z</time>
      </trkpt>
      <trkpt lat="44.9359840" lon="7.1391270">
        <ele>762.8</ele>
        <time>2017-07-26T12:45:28Z</time>
      </trkpt>
      <trkpt lat="44.9358670" lon="7.1392920">
        <ele>762.4</ele>
        <time>2017-07-26T12:45:30Z</time>
      </trkpt>
      <trkpt lat="44.9358210" lon="7.1393850">
        <ele>762.2</ele>
        <time>2017-07-26T12:45:31Z</time>
      </trkpt>
      <trkpt lat="44.9357610" lon="7.1395940">
        <ele>762.2</ele>
        <time>2017-07-26T12:45:33Z</time>
      </trkpt>
      <trkpt lat="44.9357540" lon="7.1396980">
        <ele>762.2</ele>
        <time>2017-07-26T12:45:34Z</time>
      </trkpt>
      <trkpt lat="44.9358040" lon="7.1400120">
        <ele>761.6</ele>
        <time>2017-07-26T12:45:38Z</time>
      </trkpt>
      <trkpt lat="44.9358200" lon="7.1400780">
        <ele>761.6</ele>
        <time>2017-07-26T12:45:39Z</time>
      </trkpt>
      <trkpt lat="44.9358740" lon="7.1403090">
        <ele>761.6</ele>
        <time>2017-07-26T12:45:43Z</time>
      </trkpt>
      <trkpt lat="44.9358960" lon="7.1406930">
        <ele>762.2</ele>
        <time>2017-07-26T12:45:50Z</time>
      </trkpt>
      <trkpt lat="44.9358610" lon="7.1410510">
        <ele>762.8</ele>
        <time>2017-07-26T12:45:57Z</time>
      </trkpt>
      <trkpt lat="44.9357620" lon="7.1411840">
        <ele>763.2</ele>
        <time>2017-07-26T12:46:01Z</time>
      </trkpt>
      <trkpt lat="44.9356680" lon="7.1412190">
        <ele>763.6</ele>
        <time>2017-07-26T12:46:04Z</time>
      </trkpt>
      <trkpt lat="44.9356080" lon="7.1412420">
        <ele>763.8</ele>
        <time>2017-07-26T12:46:06Z</time>
      </trkpt>
      <trkpt lat="44.9355240" lon="7.1412460">
        <ele>765.0</ele>
        <time>2017-07-26T12:46:09Z</time>
      </trkpt>
      <trkpt lat="44.9354450" lon="7.1412680">
        <ele>766.0</ele>
        <time>2017-07-26T12:46:12Z</time>
      </trkpt>
      <trkpt lat="44.9353300" lon="7.1412860">
        <ele>767.0</ele>
        <time>2017-07-26T12:46:16Z</time>
      </trkpt>
      <trkpt lat="44.9352440" lon="7.1412970">
        <ele>768.2</ele>
        <time>2017-07-26T12:46:19Z</time>
      </trkpt>
      <trkpt lat="44.9351190" lon="7.1413070">
        <ele>768.8</ele>
        <time>2017-07-26T12:46:23Z</time>
      </trkpt>
      <trkpt lat="44.9350580" lon="7.1413110">
        <ele>769.6</ele>
        <time>2017-07-26T12:46:25Z</time>
      </trkpt>
      <trkpt lat="44.9350280" lon="7.1413150">
        <ele>770.0</ele>
        <time>2017-07-26T12:46:26Z</time>
      </trkpt>
      <trkpt lat="44.9350010" lon="7.1413140">
        <ele>770.6</ele>
        <time>2017-07-26T12:46:27Z</time>
      </trkpt>
      <trkpt lat="44.9349740" lon="7.1413120">
        <ele>771.0</ele>
        <time>2017-07-26T12:46:28Z</time>
      </trkpt>
      <trkpt lat="44.9349140" lon="7.1413130">
        <ele>771.6</ele>
        <time>2017-07-26T12:46:30Z</time>
      </trkpt>
      <trkpt lat="44.9348860" lon="7.1413140">
        <ele>772.0</ele>
        <time>2017-07-26T12:46:31Z</time>
      </trkpt>
      <trkpt lat="44.9348020" lon="7.1413110">
        <ele>773.2</ele>
        <time>2017-07-26T12:46:34Z</time>
      </trkpt>
      <trkpt lat="44.9346920" lon="7.1413180">
        <ele>774.6</ele>
        <time>2017-07-26T12:46:38Z</time>
      </trkpt>
      <trkpt lat="44.9346070" lon="7.1413290">
        <ele>775.6</ele>
        <time>2017-07-26T12:46:41Z</time>
      </trkpt>
      <trkpt lat="44.9345800" lon="7.1413320">
        <ele>776.0</ele>
        <time>2017-07-26T12:46:42Z</time>
      </trkpt>
      <trkpt lat="44.9344940" lon="7.1413360">
        <ele>776.8</ele>
        <time>2017-07-26T12:46:45Z</time>
      </trkpt>
      <trkpt lat="44.9343710" lon="7.1413580">
        <ele>778.0</ele>
        <time>2017-07-26T12:46:50Z</time>
      </trkpt>
      <trkpt lat="44.9343210" lon="7.1413650">
        <ele>778.2</ele>
        <time>2017-07-26T12:46:52Z</time>
      </trkpt>
      <trkpt lat="44.9342230" lon="7.1413750">
        <ele>779.4</ele>
        <time>2017-07-26T12:46:56Z</time>
      </trkpt>
      <trkpt lat="44.9341730" lon="7.1413770">
        <ele>780.2</ele>
        <time>2017-07-26T12:46:58Z</time>
      </trkpt>
      <trkpt lat="44.9341500" lon="7.1413740">
        <ele>780.8</ele>
        <time>2017-07-26T12:46:59Z</time>
      </trkpt>
      <trkpt lat="44.9341060" lon="7.1413650">
        <ele>781.8</ele>
        <time>2017-07-26T12:47:01Z</time>
      </trkpt>
      <trkpt lat="44.9340350" lon="7.1413700">
        <ele>783.4</ele>
        <time>2017-07-26T12:47:04Z</time>
      </trkpt>
      <trkpt lat="44.9340120" lon="7.1413730">
        <ele>783.8</ele>
        <time>2017-07-26T12:47:05Z</time>
      </trkpt>
      <trkpt lat="44.9339870" lon="7.1413730">
        <ele>784.8</ele>
        <time>2017-07-26T12:47:06Z</time>
      </trkpt>
      <trkpt lat="44.9339590" lon="7.1413800">
        <ele>785.2</ele>
        <time>2017-07-26T12:47:07Z</time>
      </trkpt>
      <trkpt lat="44.9339100" lon="7.1413930">
        <ele>786.2</ele>
        <time>2017-07-26T12:47:09Z</time>
      </trkpt>
      <trkpt lat="44.9338370" lon="7.1414390">
        <ele>787.4</ele>
        <time>2017-07-26T12:47:12Z</time>
      </trkpt>
      <trkpt lat="44.9337710" lon="7.1415530">
        <ele>788.6</ele>
        <time>2017-07-26T12:47:16Z</time>
      </trkpt>
      <trkpt lat="44.9337660" lon="7.1416040">
        <ele>788.8</ele>
        <time>2017-07-26T12:47:17Z</time>
      </trkpt>
      <trkpt lat="44.9338220" lon="7.1416880">
        <ele>789.0</ele>
        <time>2017-07-26T12:47:20Z</time>
      </trkpt>
      <trkpt lat="44.9338860" lon="7.1416900">
        <ele>789.6</ele>
        <time>2017-07-26T12:47:22Z</time>
      </trkpt>
      <trkpt lat="44.9339470" lon="7.1416930">
        <ele>789.4</ele>
        <time>2017-07-26T12:47:24Z</time>
      </trkpt>
      <trkpt lat="44.9340970" lon="7.1416770">
        <ele>790.2</ele>
        <time>2017-07-26T12:47:29Z</time>
      </trkpt>
      <trkpt lat="44.9341620" lon="7.1416730">
        <ele>790.6</ele>
        <time>2017-07-26T12:47:31Z</time>
      </trkpt>
      <trkpt lat="44.9343210" lon="7.1416470">
        <ele>791.6</ele>
        <time>2017-07-26T12:47:36Z</time>
      </trkpt>
      <trkpt lat="44.9343850" lon="7.1416370">
        <ele>792.2</ele>
        <time>2017-07-26T12:47:38Z</time>
      </trkpt>
      <trkpt lat="44.9344500" lon="7.1416320">
        <ele>792.6</ele>
        <time>2017-07-26T12:47:40Z</time>
      </trkpt>
      <trkpt lat="44.9345820" lon="7.1416320">
        <ele>793.6</ele>
        <time>2017-07-26T12:47:44Z</time>
      </trkpt>
      <trkpt lat="44.9347100" lon="7.1416240">
        <ele>794.6</ele>
        <time>2017-07-26T12:47:48Z</time>
      </trkpt>
      <trkpt lat="44.9347480" lon="7.1416300">
        <ele>794.8</ele>
        <time>2017-07-26T12:47:49Z</time>
      </trkpt>
      <trkpt lat="44.9348760" lon="7.1416690">
        <ele>795.8</ele>
        <time>2017-07-26T12:47:53Z</time>
      </trkpt>
      <trkpt lat="44.9349410" lon="7.1416870">
        <ele>796.8</ele>
        <time>2017-07-26T12:47:55Z</time>
      </trkpt>
      <trkpt lat="44.9349680" lon="7.1416940">
        <ele>797.0</ele>
        <time>2017-07-26T12:47:56Z</time>
      </trkpt>
      <trkpt lat="44.9350400" lon="7.1417280">
        <ele>798.0</ele>
        <time>2017-07-26T12:47:59Z</time>
      </trkpt>
      <trkpt lat="44.9350930" lon="7.1417550">
        <ele>798.6</ele>
        <time>2017-07-26T12:48:01Z</time>
      </trkpt>
      <trkpt lat="44.9351560" lon="7.1417800">
        <ele>799.0</ele>
        <time>2017-07-26T12:48:03Z</time>
      </trkpt>
      <trkpt lat="44.9352480" lon="7.1418160">
        <ele>800.2</ele>
        <time>2017-07-26T12:48:07Z</time>
      </trkpt>
      <trkpt lat="44.9352730" lon="7.1418240">
        <ele>800.6</ele>
        <time>2017-07-26T12:48:08Z</time>
      </trkpt>
      <trkpt lat="44.9353360" lon="7.1418470">
        <ele>801.4</ele>
        <time>2017-07-26T12:48:11Z</time>
      </trkpt>
      <trkpt lat="44.9354450" lon="7.1418910">
        <ele>802.6</ele>
        <time>2017-07-26T12:48:15Z</time>
      </trkpt>
      <trkpt lat="44.9354980" lon="7.1419340">
        <ele>803.0</ele>
        <time>2017-07-26T12:48:17Z</time>
      </trkpt>
      <trkpt lat="44.9355530" lon="7.1419520">
        <ele>803.6</ele>
        <time>2017-07-26T12:48:19Z</time>
      </trkpt>
      <trkpt lat="44.9356800" lon="7.1420110">
        <ele>804.8</ele>
        <time>2017-07-26T12:48:24Z</time>
      </trkpt>
      <trkpt lat="44.9358010" lon="7.1420580">
        <ele>805.8</ele>
        <time>2017-07-26T12:48:28Z</time>
      </trkpt>
      <trkpt lat="44.9359140" lon="7.1421430">
        <ele>806.6</ele>
        <time>2017-07-26T12:48:32Z</time>
      </trkpt>
      <trkpt lat="44.9359780" lon="7.1422030">
        <ele>807.2</ele>
        <time>2017-07-26T12:48:34Z</time>
      </trkpt>
      <trkpt lat="44.9359950" lon="7.1422820">
        <ele>807.4</ele>
        <time>2017-07-26T12:48:36Z</time>
      </trkpt>
      <trkpt lat="44.9359630" lon="7.1422850">
        <ele>807.4</ele>
        <time>2017-07-26T12:48:37Z</time>
      </trkpt>
      <trkpt lat="44.9358580" lon="7.1422350">
        <ele>807.2</ele>
        <time>2017-07-26T12:48:41Z</time>
      </trkpt>
      <trkpt lat="44.9357120" lon="7.1421900">
        <ele>807.8</ele>
        <time>2017-07-26T12:48:47Z</time>
      </trkpt>
      <trkpt lat="44.9356430" lon="7.1421830">
        <ele>808.2</ele>
        <time>2017-07-26T12:48:50Z</time>
      </trkpt>
      <trkpt lat="44.9355650" lon="7.1421570">
        <ele>809.2</ele>
        <time>2017-07-26T12:48:54Z</time>
      </trkpt>
      <trkpt lat="44.9355110" lon="7.1421460">
        <ele>809.8</ele>
        <time>2017-07-26T12:48:56Z</time>
      </trkpt>
      <trkpt lat="44.9354530" lon="7.1421440">
        <ele>810.4</ele>
        <time>2017-07-26T12:48:58Z</time>
      </trkpt>
      <trkpt lat="44.9353420" lon="7.1421350">
        <ele>811.4</ele>
        <time>2017-07-26T12:49:02Z</time>
      </trkpt>
      <trkpt lat="44.9352800" lon="7.1421400">
        <ele>811.8</ele>
        <time>2017-07-26T12:49:04Z</time>
      </trkpt>
      <trkpt lat="44.9351320" lon="7.1421640">
        <ele>812.6</ele>
        <time>2017-07-26T12:49:09Z</time>
      </trkpt>
      <trkpt lat="44.9350490" lon="7.1421650">
        <ele>813.4</ele>
        <time>2017-07-26T12:49:12Z</time>
      </trkpt>
      <trkpt lat="44.9349880" lon="7.1421620">
        <ele>813.8</ele>
        <time>2017-07-26T12:49:14Z</time>
      </trkpt>
      <trkpt lat="44.9348840" lon="7.1421860">
        <ele>814.8</ele>
        <time>2017-07-26T12:49:18Z</time>
      </trkpt>
      <trkpt lat="44.9348580" lon="7.1421870">
        <ele>815.0</ele>
        <time>2017-07-26T12:49:19Z</time>
      </trkpt>
      <trkpt lat="44.9347730" lon="7.1421970">
        <ele>816.0</ele>
        <time>2017-07-26T12:49:22Z</time>
      </trkpt>
      <trkpt lat="44.9346680" lon="7.1422310">
        <ele>817.2</ele>
        <time>2017-07-26T12:49:26Z</time>
      </trkpt>
      <trkpt lat="44.9346420" lon="7.1422360">
        <ele>817.6</ele>
        <time>2017-07-26T12:49:27Z</time>
      </trkpt>
      <trkpt lat="44.9345760" lon="7.1422770">
        <ele>818.8</ele>
        <time>2017-07-26T12:49:30Z</time>
      </trkpt>
      <trkpt lat="44.9345260" lon="7.1423530">
        <ele>819.8</ele>
        <time>2017-07-26T12:49:33Z</time>
      </trkpt>
      <trkpt lat="44.9345550" lon="7.1424790">
        <ele>820.2</ele>
        <time>2017-07-26T12:49:37Z</time>
      </trkpt>
      <trkpt lat="44.9346950" lon="7.1424790">
        <ele>820.4</ele>
        <time>2017-07-26T12:49:42Z</time>
      </trkpt>
      <trkpt lat="44.9347220" lon="7.1424720">
        <ele>820.4</ele>
        <time>2017-07-26T12:49:43Z</time>
      </trkpt>
      <trkpt lat="44.9348300" lon="7.1424140">
        <ele>820.8</ele>
        <time>2017-07-26T12:49:47Z</time>
      </trkpt>
      <trkpt lat="44.9348900" lon="7.1423890">
        <ele>820.6</ele>
        <time>2017-07-26T12:49:49Z</time>
      </trkpt>
      <trkpt lat="44.9351450" lon="7.1423310">
        <ele>821.6</ele>
        <time>2017-07-26T12:49:57Z</time>
      </trkpt>
      <trkpt lat="44.9351790" lon="7.1423660">
        <ele>821.8</ele>
        <time>2017-07-26T12:49:58Z</time>
      </trkpt>
      <trkpt lat="44.9351800" lon="7.1424690">
        <ele>822.4</ele>
        <time>2017-07-26T12:50:00Z</time>
      </trkpt>
      <trkpt lat="44.9351520" lon="7.1425380">
        <ele>822.6</ele>
        <time>2017-07-26T12:50:02Z</time>
      </trkpt>
      <trkpt lat="44.9351080" lon="7.1425740">
        <ele>823.0</ele>
        <time>2017-07-26T12:50:04Z</time>
      </trkpt>
      <trkpt lat="44.9350040" lon="7.1425740">
        <ele>824.2</ele>
        <time>2017-07-26T12:50:07Z</time>
      </trkpt>
      <trkpt lat="44.9349720" lon="7.1425770">
        <ele>824.4</ele>
        <time>2017-07-26T12:50:08Z</time>
      </trkpt>
      <trkpt lat="44.9348540" lon="7.1425990">
        <ele>825.4</ele>
        <time>2017-07-26T12:50:12Z</time>
      </trkpt>
      <trkpt lat="44.9347450" lon="7.1426400">
        <ele>826.4</ele>
        <time>2017-07-26T12:50:16Z</time>
      </trkpt>
      <trkpt lat="44.9346900" lon="7.1426710">
        <ele>827.0</ele>
        <time>2017-07-26T12:50:18Z</time>
      </trkpt>
      <trkpt lat="44.9346170" lon="7.1427220">
        <ele>828.2</ele>
        <time>2017-07-26T12:50:21Z</time>
      </trkpt>
      <trkpt lat="44.9345530" lon="7.1427740">
        <ele>829.2</ele>
        <time>2017-07-26T12:50:24Z</time>
      </trkpt>
      <trkpt lat="44.9345310" lon="7.1427940">
        <ele>829.4</ele>
        <time>2017-07-26T12:50:25Z</time>
      </trkpt>
      <trkpt lat="44.9344780" lon="7.1428240">
        <ele>830.4</ele>
        <time>2017-07-26T12:50:27Z</time>
      </trkpt>
      <trkpt lat="44.9344020" lon="7.1428590">
        <ele>831.6</ele>
        <time>2017-07-26T12:50:30Z</time>
      </trkpt>
      <trkpt lat="44.9343560" lon="7.1428880">
        <ele>832.2</ele>
        <time>2017-07-26T12:50:32Z</time>
      </trkpt>
      <trkpt lat="44.9343060" lon="7.1429230">
        <ele>833.0</ele>
        <time>2017-07-26T12:50:34Z</time>
      </trkpt>
      <trkpt lat="44.9342340" lon="7.1429750">
        <ele>834.2</ele>
        <time>2017-07-26T12:50:37Z</time>
      </trkpt>
      <trkpt lat="44.9341890" lon="7.1430140">
        <ele>834.8</ele>
        <time>2017-07-26T12:50:39Z</time>
      </trkpt>
      <trkpt lat="44.9341650" lon="7.1430290">
        <ele>835.2</ele>
        <time>2017-07-26T12:50:40Z</time>
      </trkpt>
      <trkpt lat="44.9341130" lon="7.1430570">
        <ele>836.2</ele>
        <time>2017-07-26T12:50:42Z</time>
      </trkpt>
      <trkpt lat="44.9340400" lon="7.1430880">
        <ele>837.4</ele>
        <time>2017-07-26T12:50:45Z</time>
      </trkpt>
      <trkpt lat="44.9339980" lon="7.1431110">
        <ele>838.4</ele>
        <time>2017-07-26T12:50:47Z</time>
      </trkpt>
      <trkpt lat="44.9339780" lon="7.1431230">
        <ele>838.8</ele>
        <time>2017-07-26T12:50:48Z</time>
      </trkpt>
      <trkpt lat="44.9338970" lon="7.1431860">
        <ele>840.0</ele>
        <time>2017-07-26T12:50:52Z</time>
      </trkpt>
      <trkpt lat="44.9338670" lon="7.1432390">
        <ele>840.8</ele>
        <time>2017-07-26T12:50:54Z</time>
      </trkpt>
      <trkpt lat="44.9338520" lon="7.1433680">
        <ele>841.0</ele>
        <time>2017-07-26T12:50:58Z</time>
      </trkpt>
      <trkpt lat="44.9338590" lon="7.1434020">
        <ele>841.0</ele>
        <time>2017-07-26T12:50:59Z</time>
      </trkpt>
      <trkpt lat="44.9338730" lon="7.1434320">
        <ele>841.0</ele>
        <time>2017-07-26T12:51:00Z</time>
      </trkpt>
      <trkpt lat="44.9339480" lon="7.1435190">
        <ele>841.6</ele>
        <time>2017-07-26T12:51:04Z</time>
      </trkpt>
      <trkpt lat="44.9339930" lon="7.1435180">
        <ele>842.2</ele>
        <time>2017-07-26T12:51:06Z</time>
      </trkpt>
      <trkpt lat="44.9340360" lon="7.1434970">
        <ele>842.6</ele>
        <time>2017-07-26T12:51:08Z</time>
      </trkpt>
      <trkpt lat="44.9340600" lon="7.1434810">
        <ele>842.8</ele>
        <time>2017-07-26T12:51:09Z</time>
      </trkpt>
      <trkpt lat="44.9341090" lon="7.1434500">
        <ele>843.4</ele>
        <time>2017-07-26T12:51:11Z</time>
      </trkpt>
      <trkpt lat="44.9342270" lon="7.1434180">
        <ele>844.0</ele>
        <time>2017-07-26T12:51:16Z</time>
      </trkpt>
      <trkpt lat="44.9343640" lon="7.1434140">
        <ele>844.4</ele>
        <time>2017-07-26T12:51:21Z</time>
      </trkpt>
      <trkpt lat="44.9344440" lon="7.1434270">
        <ele>845.0</ele>
        <time>2017-07-26T12:51:24Z</time>
      </trkpt>
      <trkpt lat="44.9346140" lon="7.1434180">
        <ele>845.2</ele>
        <time>2017-07-26T12:51:31Z</time>
      </trkpt>
      <trkpt lat="44.9347020" lon="7.1434080">
        <ele>845.6</ele>
        <time>2017-07-26T12:51:35Z</time>
      </trkpt>
      <trkpt lat="44.9347730" lon="7.1434030">
        <ele>846.0</ele>
        <time>2017-07-26T12:51:38Z</time>
      </trkpt>
      <trkpt lat="44.9348470" lon="7.1433860">
        <ele>846.8</ele>
        <time>2017-07-26T12:51:41Z</time>
      </trkpt>
      <trkpt lat="44.9349280" lon="7.1433990">
        <ele>847.8</ele>
        <time>2017-07-26T12:51:44Z</time>
      </trkpt>
      <trkpt lat="44.9349950" lon="7.1434270">
        <ele>848.6</ele>
        <time>2017-07-26T12:51:46Z</time>
      </trkpt>
      <trkpt lat="44.9350280" lon="7.1434380">
        <ele>849.0</ele>
        <time>2017-07-26T12:51:47Z</time>
      </trkpt>
      <trkpt lat="44.9351110" lon="7.1434540">
        <ele>850.0</ele>
        <time>2017-07-26T12:51:50Z</time>
      </trkpt>
      <trkpt lat="44.9351840" lon="7.1434700">
        <ele>851.2</ele>
        <time>2017-07-26T12:51:53Z</time>
      </trkpt>
      <trkpt lat="44.9352400" lon="7.1435240">
        <ele>852.2</ele>
        <time>2017-07-26T12:51:55Z</time>
      </trkpt>
      <trkpt lat="44.9352700" lon="7.1435960">
        <ele>853.0</ele>
        <time>2017-07-26T12:51:57Z</time>
      </trkpt>
      <trkpt lat="44.9352530" lon="7.1436420">
        <ele>853.2</ele>
        <time>2017-07-26T12:51:58Z</time>
      </trkpt>
      <trkpt lat="44.9352050" lon="7.1436910">
        <ele>853.4</ele>
        <time>2017-07-26T12:52:00Z</time>
      </trkpt>
      <trkpt lat="44.9351540" lon="7.1437220">
        <ele>853.6</ele>
        <time>2017-07-26T12:52:02Z</time>
      </trkpt>
      <trkpt lat="44.9350020" lon="7.1438410">
        <ele>854.2</ele>
        <time>2017-07-26T12:52:09Z</time>
      </trkpt>
      <trkpt lat="44.9349800" lon="7.1438530">
        <ele>854.4</ele>
        <time>2017-07-26T12:52:10Z</time>
      </trkpt>
      <trkpt lat="44.9349220" lon="7.1438940">
        <ele>855.6</ele>
        <time>2017-07-26T12:52:13Z</time>
      </trkpt>
      <trkpt lat="44.9348710" lon="7.1439430">
        <ele>856.6</ele>
        <time>2017-07-26T12:52:16Z</time>
      </trkpt>
      <trkpt lat="44.9348320" lon="7.1439800">
        <ele>858.0</ele>
        <time>2017-07-26T12:52:18Z</time>
      </trkpt>
      <trkpt lat="44.9348100" lon="7.1439990">
        <ele>858.4</ele>
        <time>2017-07-26T12:52:19Z</time>
      </trkpt>
      <trkpt lat="44.9347710" lon="7.1440340">
        <ele>859.0</ele>
        <time>2017-07-26T12:52:21Z</time>
      </trkpt>
      <trkpt lat="44.9347070" lon="7.1440690">
        <ele>860.2</ele>
        <time>2017-07-26T12:52:24Z</time>
      </trkpt>
      <trkpt lat="44.9346730" lon="7.1441070">
        <ele>861.0</ele>
        <time>2017-07-26T12:52:26Z</time>
      </trkpt>
      <trkpt lat="44.9346560" lon="7.1441250">
        <ele>861.2</ele>
        <time>2017-07-26T12:52:27Z</time>
      </trkpt>
      <trkpt lat="44.9346050" lon="7.1441770">
        <ele>862.4</ele>
        <time>2017-07-26T12:52:30Z</time>
      </trkpt>
      <trkpt lat="44.9345160" lon="7.1442670">
        <ele>863.2</ele>
        <time>2017-07-26T12:52:35Z</time>
      </trkpt>
      <trkpt lat="44.9344010" lon="7.1444300">
        <ele>863.0</ele>
        <time>2017-07-26T12:52:42Z</time>
      </trkpt>
      <trkpt lat="44.9342660" lon="7.1446220">
        <ele>863.0</ele>
        <time>2017-07-26T12:52:50Z</time>
      </trkpt>
      <trkpt lat="44.9341660" lon="7.1447650">
        <ele>863.6</ele>
        <time>2017-07-26T12:52:56Z</time>
      </trkpt>
      <trkpt lat="44.9341260" lon="7.1448540">
        <ele>864.0</ele>
        <time>2017-07-26T12:52:59Z</time>
      </trkpt>
      <trkpt lat="44.9340480" lon="7.1450260">
        <ele>864.6</ele>
        <time>2017-07-26T12:53:05Z</time>
      </trkpt>
      <trkpt lat="44.9340080" lon="7.1451250">
        <ele>865.2</ele>
        <time>2017-07-26T12:53:08Z</time>
      </trkpt>
      <trkpt lat="44.9339860" lon="7.1451930">
        <ele>865.8</ele>
        <time>2017-07-26T12:53:10Z</time>
      </trkpt>
      <trkpt lat="44.9339600" lon="7.1453130">
        <ele>867.2</ele>
        <time>2017-07-26T12:53:13Z</time>
      </trkpt>
      <trkpt lat="44.9339380" lon="7.1453880">
        <ele>868.0</ele>
        <time>2017-07-26T12:53:15Z</time>
      </trkpt>
      <trkpt lat="44.9339290" lon="7.1454280">
        <ele>868.4</ele>
        <time>2017-07-26T12:53:16Z</time>
      </trkpt>
      <trkpt lat="44.9339030" lon="7.1454990">
        <ele>869.2</ele>
        <time>2017-07-26T12:53:18Z</time>
      </trkpt>
      <trkpt lat="44.9338920" lon="7.1455410">
        <ele>869.6</ele>
        <time>2017-07-26T12:53:19Z</time>
      </trkpt>
      <trkpt lat="44.9338690" lon="7.1456710">
        <ele>870.6</ele>
        <time>2017-07-26T12:53:22Z</time>
      </trkpt>
      <trkpt lat="44.9338450" lon="7.1457970">
        <ele>872.0</ele>
        <time>2017-07-26T12:53:25Z</time>
      </trkpt>
      <trkpt lat="44.9338240" lon="7.1458820">
        <ele>872.8</ele>
        <time>2017-07-26T12:53:27Z</time>
      </trkpt>
      <trkpt lat="44.9338150" lon="7.1459210">
        <ele>873.2</ele>
        <time>2017-07-26T12:53:28Z</time>
      </trkpt>
      <trkpt lat="44.9337960" lon="7.1459980">
        <ele>874.6</ele>
        <time>2017-07-26T12:53:30Z</time>
      </trkpt>
      <trkpt lat="44.9337630" lon="7.1461170">
        <ele>875.6</ele>
        <time>2017-07-26T12:53:33Z</time>
      </trkpt>
      <trkpt lat="44.9337340" lon="7.1462400">
        <ele>877.0</ele>
        <time>2017-07-26T12:53:36Z</time>
      </trkpt>
      <trkpt lat="44.9336100" lon="7.1465100">
        <ele>877.6</ele>
        <time>2017-07-26T12:53:44Z</time>
      </trkpt>
      <trkpt lat="44.9335160" lon="7.1466730">
        <ele>878.4</ele>
        <time>2017-07-26T12:53:50Z</time>
      </trkpt>
      <trkpt lat="44.9334450" lon="7.1467680">
        <ele>879.8</ele>
        <time>2017-07-26T12:53:54Z</time>
      </trkpt>
      <trkpt lat="44.9333870" lon="7.1468280">
        <ele>880.8</ele>
        <time>2017-07-26T12:53:57Z</time>
      </trkpt>
      <trkpt lat="44.9333330" lon="7.1468750">
        <ele>882.0</ele>
        <time>2017-07-26T12:54:00Z</time>
      </trkpt>
      <trkpt lat="44.9332900" lon="7.1469060">
        <ele>882.8</ele>
        <time>2017-07-26T12:54:02Z</time>
      </trkpt>
      <trkpt lat="44.9332720" lon="7.1469190">
        <ele>883.2</ele>
        <time>2017-07-26T12:54:03Z</time>
      </trkpt>
      <trkpt lat="44.9331830" lon="7.1469830">
        <ele>884.2</ele>
        <time>2017-07-26T12:54:07Z</time>
      </trkpt>
      <trkpt lat="44.9330770" lon="7.1470460">
        <ele>884.8</ele>
        <time>2017-07-26T12:54:12Z</time>
      </trkpt>
      <trkpt lat="44.9328970" lon="7.1471980">
        <ele>884.6</ele>
        <time>2017-07-26T12:54:21Z</time>
      </trkpt>
      <trkpt lat="44.9328750" lon="7.1472110">
        <ele>884.6</ele>
        <time>2017-07-26T12:54:22Z</time>
      </trkpt>
      <trkpt lat="44.9327060" lon="7.1473170">
        <ele>885.2</ele>
        <time>2017-07-26T12:54:30Z</time>
      </trkpt>
      <trkpt lat="44.9326660" lon="7.1473510">
        <ele>885.4</ele>
        <time>2017-07-26T12:54:32Z</time>
      </trkpt>
      <trkpt lat="44.9325200" lon="7.1474560">
        <ele>886.4</ele>
        <time>2017-07-26T12:54:39Z</time>
      </trkpt>
      <trkpt lat="44.9324520" lon="7.1474960">
        <ele>887.2</ele>
        <time>2017-07-26T12:54:42Z</time>
      </trkpt>
      <trkpt lat="44.9324080" lon="7.1475200">
        <ele>887.6</ele>
        <time>2017-07-26T12:54:44Z</time>
      </trkpt>
      <trkpt lat="44.9323500" lon="7.1475640">
        <ele>888.6</ele>
        <time>2017-07-26T12:54:47Z</time>
      </trkpt>
      <trkpt lat="44.9322840" lon="7.1475920">
        <ele>889.8</ele>
        <time>2017-07-26T12:54:50Z</time>
      </trkpt>
      <trkpt lat="44.9321750" lon="7.1475870">
        <ele>891.0</ele>
        <time>2017-07-26T12:54:55Z</time>
      </trkpt>
      <trkpt lat="44.9321550" lon="7.1475800">
        <ele>891.4</ele>
        <time>2017-07-26T12:54:56Z</time>
      </trkpt>
      <trkpt lat="44.9320790" lon="7.1475780">
        <ele>892.4</ele>
        <time>2017-07-26T12:55:00Z</time>
      </trkpt>
      <trkpt lat="44.9320080" lon="7.1475850">
        <ele>892.8</ele>
        <time>2017-07-26T12:55:03Z</time>
      </trkpt>
      <trkpt lat="44.9319540" lon="7.1476040">
        <ele>893.6</ele>
        <time>2017-07-26T12:55:05Z</time>
      </trkpt>
      <trkpt lat="44.9319060" lon="7.1476220">
        <ele>894.8</ele>
        <time>2017-07-26T12:55:07Z</time>
      </trkpt>
      <trkpt lat="44.9318310" lon="7.1476360">
        <ele>896.2</ele>
        <time>2017-07-26T12:55:10Z</time>
      </trkpt>
      <trkpt lat="44.9317580" lon="7.1476500">
        <ele>897.8</ele>
        <time>2017-07-26T12:55:13Z</time>
      </trkpt>
      <trkpt lat="44.9316970" lon="7.1476640">
        <ele>899.2</ele>
        <time>2017-07-26T12:55:16Z</time>
      </trkpt>
      <trkpt lat="44.9316670" lon="7.1476770">
        <ele>900.0</ele>
        <time>2017-07-26T12:55:18Z</time>
      </trkpt>
      <trkpt lat="44.9316510" lon="7.1476810">
        <ele>900.4</ele>
        <time>2017-07-26T12:55:19Z</time>
      </trkpt>
      <trkpt lat="44.9315950" lon="7.1476810">
        <ele>901.8</ele>
        <time>2017-07-26T12:55:22Z</time>
      </trkpt>
      <trkpt lat="44.9315350" lon="7.1476730">
        <ele>903.4</ele>
        <time>2017-07-26T12:55:25Z</time>
      </trkpt>
      <trkpt lat="44.9314760" lon="7.1476690">
        <ele>904.4</ele>
        <time>2017-07-26T12:55:28Z</time>
      </trkpt>
      <trkpt lat="44.9314430" lon="7.1476580">
        <ele>905.6</ele>
        <time>2017-07-26T12:55:30Z</time>
      </trkpt>
      <trkpt lat="44.9314040" lon="7.1476360">
        <ele>906.4</ele>
        <time>2017-07-26T12:55:32Z</time>
      </trkpt>
      <trkpt lat="44.9313780" lon="7.1476230">
        <ele>906.6</ele>
        <time>2017-07-26T12:55:33Z</time>
      </trkpt>
      <trkpt lat="44.9312670" lon="7.1475700">
        <ele>907.8</ele>
        <time>2017-07-26T12:55:37Z</time>
      </trkpt>
      <trkpt lat="44.9312120" lon="7.1475520">
        <ele>908.0</ele>
        <time>2017-07-26T12:55:39Z</time>
      </trkpt>
      <trkpt lat="44.9311180" lon="7.1475360">
        <ele>908.8</ele>
        <time>2017-07-26T12:55:43Z</time>
      </trkpt>
      <trkpt lat="44.9310450" lon="7.1475290">
        <ele>909.6</ele>
        <time>2017-07-26T12:55:46Z</time>
      </trkpt>
      <trkpt lat="44.9309990" lon="7.1475420">
        <ele>909.8</ele>
        <time>2017-07-26T12:55:48Z</time>
      </trkpt>
      <trkpt lat="44.9309170" lon="7.1476000">
        <ele>911.0</ele>
        <time>2017-07-26T12:55:52Z</time>
      </trkpt>
      <trkpt lat="44.9308390" lon="7.1476440">
        <ele>912.4</ele>
        <time>2017-07-26T12:55:56Z</time>
      </trkpt>
      <trkpt lat="44.9307600" lon="7.1476730">
        <ele>913.6</ele>
        <time>2017-07-26T12:56:00Z</time>
      </trkpt>
      <trkpt lat="44.9306060" lon="7.1477370">
        <ele>914.8</ele>
        <time>2017-07-26T12:56:07Z</time>
      </trkpt>
      <trkpt lat="44.9305160" lon="7.1478160">
        <ele>915.8</ele>
        <time>2017-07-26T12:56:12Z</time>
      </trkpt>
      <trkpt lat="44.9304990" lon="7.1478400">
        <ele>915.8</ele>
        <time>2017-07-26T12:56:13Z</time>
      </trkpt>
      <trkpt lat="44.9304410" lon="7.1479920">
        <ele>916.2</ele>
        <time>2017-07-26T12:56:18Z</time>
      </trkpt>
      <trkpt lat="44.9304370" lon="7.1482200">
        <ele>916.2</ele>
        <time>2017-07-26T12:56:25Z</time>
      </trkpt>
      <trkpt lat="44.9304320" lon="7.1484280">
        <ele>916.8</ele>
        <time>2017-07-26T12:56:31Z</time>
      </trkpt>
      <trkpt lat="44.9304270" lon="7.1485310">
        <ele>917.6</ele>
        <time>2017-07-26T12:56:34Z</time>
      </trkpt>
      <trkpt lat="44.9304200" lon="7.1485660">
        <ele>918.0</ele>
        <time>2017-07-26T12:56:35Z</time>
      </trkpt>
      <trkpt lat="44.9303760" lon="7.1486980">
        <ele>919.4</ele>
        <time>2017-07-26T12:56:39Z</time>
      </trkpt>
      <trkpt lat="44.9303510" lon="7.1488040">
        <ele>919.8</ele>
        <time>2017-07-26T12:56:42Z</time>
      </trkpt>
      <trkpt lat="44.9303360" lon="7.1488700">
        <ele>920.4</ele>
        <time>2017-07-26T12:56:44Z</time>
      </trkpt>
      <trkpt lat="44.9303260" lon="7.1489630">
        <ele>921.6</ele>
        <time>2017-07-26T12:56:47Z</time>
      </trkpt>
      <trkpt lat="44.9303180" lon="7.1490280">
        <ele>922.4</ele>
        <time>2017-07-26T12:56:49Z</time>
      </trkpt>
      <trkpt lat="44.9303100" lon="7.1490600">
        <ele>922.8</ele>
        <time>2017-07-26T12:56:50Z</time>
      </trkpt>
      <trkpt lat="44.9302700" lon="7.1491950">
        <ele>924.0</ele>
        <time>2017-07-26T12:56:54Z</time>
      </trkpt>
      <trkpt lat="44.9302220" lon="7.1492680">
        <ele>925.4</ele>
        <time>2017-07-26T12:56:57Z</time>
      </trkpt>
      <trkpt lat="44.9301630" lon="7.1493140">
        <ele>926.4</ele>
        <time>2017-07-26T12:57:00Z</time>
      </trkpt>
      <trkpt lat="44.9300960" lon="7.1493810">
        <ele>927.6</ele>
        <time>2017-07-26T12:57:03Z</time>
      </trkpt>
      <trkpt lat="44.9300730" lon="7.1494030">
        <ele>928.0</ele>
        <time>2017-07-26T12:57:04Z</time>
      </trkpt>
      <trkpt lat="44.9300300" lon="7.1494400">
        <ele>929.0</ele>
        <time>2017-07-26T12:57:06Z</time>
      </trkpt>
      <trkpt lat="44.9299630" lon="7.1494930">
        <ele>930.0</ele>
        <time>2017-07-26T12:57:09Z</time>
      </trkpt>
      <trkpt lat="44.9298870" lon="7.1495510">
        <ele>931.2</ele>
        <time>2017-07-26T12:57:12Z</time>
      </trkpt>
      <trkpt lat="44.9298630" lon="7.1495760">
        <ele>931.6</ele>
        <time>2017-07-26T12:57:13Z</time>
      </trkpt>
      <trkpt lat="44.9298150" lon="7.1496210">
        <ele>932.4</ele>
        <time>2017-07-26T12:57:15Z</time>
      </trkpt>
      <trkpt lat="44.9297320" lon="7.1496870">
        <ele>933.4</ele>
        <time>2017-07-26T12:57:19Z</time>
      </trkpt>
      <trkpt lat="44.9296300" lon="7.1497430">
        <ele>934.6</ele>
        <time>2017-07-26T12:57:23Z</time>
      </trkpt>
      <trkpt lat="44.9295630" lon="7.1497580">
        <ele>935.4</ele>
        <time>2017-07-26T12:57:26Z</time>
      </trkpt>
      <trkpt lat="44.9295280" lon="7.1497690">
        <ele>936.0</ele>
        <time>2017-07-26T12:57:28Z</time>
      </trkpt>
      <trkpt lat="44.9293780" lon="7.1497580">
        <ele>936.4</ele>
        <time>2017-07-26T12:57:34Z</time>
      </trkpt>
      <trkpt lat="44.9292260" lon="7.1497820">
        <ele>937.0</ele>
        <time>2017-07-26T12:57:40Z</time>
      </trkpt>
      <trkpt lat="44.9292030" lon="7.1497910">
        <ele>937.2</ele>
        <time>2017-07-26T12:57:41Z</time>
      </trkpt>
      <trkpt lat="44.9290880" lon="7.1498460">
        <ele>938.4</ele>
        <time>2017-07-26T12:57:46Z</time>
      </trkpt>
      <trkpt lat="44.9290100" lon="7.1499020">
        <ele>939.2</ele>
        <time>2017-07-26T12:57:50Z</time>
      </trkpt>
      <trkpt lat="44.9289890" lon="7.1499220">
        <ele>939.6</ele>
        <time>2017-07-26T12:57:51Z</time>
      </trkpt>
      <trkpt lat="44.9289160" lon="7.1499790">
        <ele>940.6</ele>
        <time>2017-07-26T12:57:55Z</time>
      </trkpt>
      <trkpt lat="44.9288780" lon="7.1500060">
        <ele>941.4</ele>
        <time>2017-07-26T12:57:57Z</time>
      </trkpt>
      <trkpt lat="44.9288610" lon="7.1500210">
        <ele>941.6</ele>
        <time>2017-07-26T12:57:58Z</time>
      </trkpt>
      <trkpt lat="44.9287720" lon="7.1500830">
        <ele>942.8</ele>
        <time>2017-07-26T12:58:03Z</time>
      </trkpt>
      <trkpt lat="44.9286800" lon="7.1501200">
        <ele>944.0</ele>
        <time>2017-07-26T12:58:07Z</time>
      </trkpt>
      <trkpt lat="44.9286080" lon="7.1501720">
        <ele>945.0</ele>
        <time>2017-07-26T12:58:11Z</time>
      </trkpt>
      <trkpt lat="44.9285210" lon="7.1502210">
        <ele>946.2</ele>
        <time>2017-07-26T12:58:15Z</time>
      </trkpt>
      <trkpt lat="44.9284750" lon="7.1502350">
        <ele>946.2</ele>
        <time>2017-07-26T12:58:17Z</time>
      </trkpt>
      <trkpt lat="44.9283410" lon="7.1502560">
        <ele>946.2</ele>
        <time>2017-07-26T12:58:23Z</time>
      </trkpt>
      <trkpt lat="44.9282060" lon="7.1502790">
        <ele>947.2</ele>
        <time>2017-07-26T12:58:29Z</time>
      </trkpt>
      <trkpt lat="44.9281200" lon="7.1502870">
        <ele>948.2</ele>
        <time>2017-07-26T12:58:33Z</time>
      </trkpt>
      <trkpt lat="44.9280710" lon="7.1502870">
        <ele>948.8</ele>
        <time>2017-07-26T12:58:35Z</time>
      </trkpt>
      <trkpt lat="44.9280250" lon="7.1502930">
        <ele>949.2</ele>
        <time>2017-07-26T12:58:37Z</time>
      </trkpt>
      <trkpt lat="44.9279390" lon="7.1503040">
        <ele>950.4</ele>
        <time>2017-07-26T12:58:41Z</time>
      </trkpt>
      <trkpt lat="44.9278470" lon="7.1503200">
        <ele>951.6</ele>
        <time>2017-07-26T12:58:45Z</time>
      </trkpt>
      <trkpt lat="44.9277840" lon="7.1503390">
        <ele>952.2</ele>
        <time>2017-07-26T12:58:48Z</time>
      </trkpt>
      <trkpt lat="44.9277490" lon="7.1503560">
        <ele>952.6</ele>
        <time>2017-07-26T12:58:50Z</time>
      </trkpt>
      <trkpt lat="44.9276690" lon="7.1504140">
        <ele>953.6</ele>
        <time>2017-07-26T12:58:54Z</time>
      </trkpt>
      <trkpt lat="44.9275170" lon="7.1505130">
        <ele>955.0</ele>
        <time>2017-07-26T12:59:01Z</time>
      </trkpt>
      <trkpt lat="44.9275000" lon="7.1505260">
        <ele>955.0</ele>
        <time>2017-07-26T12:59:02Z</time>
      </trkpt>
      <trkpt lat="44.9274430" lon="7.1506050">
        <ele>956.2</ele>
        <time>2017-07-26T12:59:06Z</time>
      </trkpt>
      <trkpt lat="44.9274120" lon="7.1506430">
        <ele>956.6</ele>
        <time>2017-07-26T12:59:08Z</time>
      </trkpt>
      <trkpt lat="44.9273330" lon="7.1506830">
        <ele>957.2</ele>
        <time>2017-07-26T12:59:12Z</time>
      </trkpt>
      <trkpt lat="44.9272820" lon="7.1507230">
        <ele>957.2</ele>
        <time>2017-07-26T12:59:15Z</time>
      </trkpt>
      <trkpt lat="44.9271500" lon="7.1508060">
        <ele>956.6</ele>
        <time>2017-07-26T12:59:22Z</time>
      </trkpt>
      <trkpt lat="44.9271070" lon="7.1508250">
        <ele>956.2</ele>
        <time>2017-07-26T12:59:24Z</time>
      </trkpt>
      <trkpt lat="44.9269560" lon="7.1509060">
        <ele>957.2</ele>
        <time>2017-07-26T12:59:32Z</time>
      </trkpt>
      <trkpt lat="44.9268780" lon="7.1509420">
        <ele>958.4</ele>
        <time>2017-07-26T12:59:36Z</time>
      </trkpt>
      <trkpt lat="44.9268110" lon="7.1509630">
        <ele>959.2</ele>
        <time>2017-07-26T12:59:39Z</time>
      </trkpt>
      <trkpt lat="44.9267890" lon="7.1509710">
        <ele>959.6</ele>
        <time>2017-07-26T12:59:40Z</time>
      </trkpt>
      <trkpt lat="44.9267380" lon="7.1509910">
        <ele>960.6</ele>
        <time>2017-07-26T12:59:43Z</time>
      </trkpt>
      <trkpt lat="44.9267250" lon="7.1510020">
        <ele>960.8</ele>
        <time>2017-07-26T12:59:44Z</time>
      </trkpt>
      <trkpt lat="44.9266990" lon="7.1510350">
        <ele>961.4</ele>
        <time>2017-07-26T12:59:46Z</time>
      </trkpt>
      <trkpt lat="44.9266740" lon="7.1510670">
        <ele>961.8</ele>
        <time>2017-07-26T12:59:48Z</time>
      </trkpt>
      <trkpt lat="44.9266550" lon="7.1510980">
        <ele>962.6</ele>
        <time>2017-07-26T12:59:50Z</time>
      </trkpt>
      <trkpt lat="44.9266460" lon="7.1511170">
        <ele>962.8</ele>
        <time>2017-07-26T12:59:51Z</time>
      </trkpt>
      <trkpt lat="44.9266430" lon="7.1511490">
        <ele>963.4</ele>
        <time>2017-07-26T12:59:53Z</time>
      </trkpt>
      <trkpt lat="44.9266520" lon="7.1511820">
        <ele>964.0</ele>
        <time>2017-07-26T12:59:55Z</time>
      </trkpt>
      <trkpt lat="44.9266900" lon="7.1512150">
        <ele>964.8</ele>
        <time>2017-07-26T12:59:59Z</time>
      </trkpt>
      <trkpt lat="44.9267020" lon="7.1512140">
        <ele>964.6</ele>
        <time>2017-07-26T13:00:00Z</time>
      </trkpt>
      <trkpt lat="44.9267800" lon="7.1511810">
        <ele>965.0</ele>
        <time>2017-07-26T13:00:04Z</time>
      </trkpt>
      <trkpt lat="44.9268050" lon="7.1511750">
        <ele>965.0</ele>
        <time>2017-07-26T13:00:05Z</time>
      </trkpt>
      <trkpt lat="44.9268320" lon="7.1511720">
        <ele>965.0</ele>
        <time>2017-07-26T13:00:06Z</time>
      </trkpt>
      <trkpt lat="44.9269730" lon="7.1511320">
        <ele>966.0</ele>
        <time>2017-07-26T13:00:11Z</time>
      </trkpt>
      <trkpt lat="44.9270940" lon="7.1511200">
        <ele>966.8</ele>
        <time>2017-07-26T13:00:15Z</time>
      </trkpt>
      <trkpt lat="44.9271510" lon="7.1511320">
        <ele>967.2</ele>
        <time>2017-07-26T13:00:17Z</time>
      </trkpt>
      <trkpt lat="44.9272450" lon="7.1511320">
        <ele>968.2</ele>
        <time>2017-07-26T13:00:21Z</time>
      </trkpt>
      <trkpt lat="44.9272670" lon="7.1511290">
        <ele>968.4</ele>
        <time>2017-07-26T13:00:22Z</time>
      </trkpt>
      <trkpt lat="44.9273620" lon="7.1511350">
        <ele>969.4</ele>
        <time>2017-07-26T13:00:26Z</time>
      </trkpt>
      <trkpt lat="44.9274340" lon="7.1511410">
        <ele>970.2</ele>
        <time>2017-07-26T13:00:29Z</time>
      </trkpt>
      <trkpt lat="44.9274590" lon="7.1511450">
        <ele>970.6</ele>
        <time>2017-07-26T13:00:30Z</time>
      </trkpt>
      <trkpt lat="44.9275680" lon="7.1511370">
        <ele>971.6</ele>
        <time>2017-07-26T13:00:34Z</time>
      </trkpt>
      <trkpt lat="44.9276570" lon="7.1511490">
        <ele>971.8</ele>
        <time>2017-07-26T13:00:37Z</time>
      </trkpt>
      <trkpt lat="44.9278530" lon="7.1511970">
        <ele>972.2</ele>
        <time>2017-07-26T13:00:45Z</time>
      </trkpt>
      <trkpt lat="44.9279280" lon="7.1511960">
        <ele>972.8</ele>
        <time>2017-07-26T13:00:48Z</time>
      </trkpt>
      <trkpt lat="44.9280180" lon="7.1511980">
        <ele>973.2</ele>
        <time>2017-07-26T13:00:52Z</time>
      </trkpt>
      <trkpt lat="44.9280830" lon="7.1511930">
        <ele>974.0</ele>
        <time>2017-07-26T13:00:55Z</time>
      </trkpt>
      <trkpt lat="44.9281720" lon="7.1512090">
        <ele>975.2</ele>
        <time>2017-07-26T13:00:59Z</time>
      </trkpt>
      <trkpt lat="44.9281960" lon="7.1512180">
        <ele>975.4</ele>
        <time>2017-07-26T13:01:00Z</time>
      </trkpt>
      <trkpt lat="44.9282750" lon="7.1512440">
        <ele>976.4</ele>
        <time>2017-07-26T13:01:03Z</time>
      </trkpt>
      <trkpt lat="44.9283620" lon="7.1512520">
        <ele>977.4</ele>
        <time>2017-07-26T13:01:06Z</time>
      </trkpt>
      <trkpt lat="44.9283910" lon="7.1512530">
        <ele>977.6</ele>
        <time>2017-07-26T13:01:07Z</time>
      </trkpt>
      <trkpt lat="44.9285650" lon="7.1512870">
        <ele>977.6</ele>
        <time>2017-07-26T13:01:12Z</time>
      </trkpt>
      <trkpt lat="44.9288270" lon="7.1513090">
        <ele>978.0</ele>
        <time>2017-07-26T13:01:20Z</time>
      </trkpt>
      <trkpt lat="44.9289510" lon="7.1512970">
        <ele>978.8</ele>
        <time>2017-07-26T13:01:24Z</time>
      </trkpt>
      <trkpt lat="44.9290470" lon="7.1512780">
        <ele>979.6</ele>
        <time>2017-07-26T13:01:27Z</time>
      </trkpt>
      <trkpt lat="44.9290800" lon="7.1512680">
        <ele>980.0</ele>
        <time>2017-07-26T13:01:28Z</time>
      </trkpt>
      <trkpt lat="44.9292180" lon="7.1512560">
        <ele>981.2</ele>
        <time>2017-07-26T13:01:33Z</time>
      </trkpt>
      <trkpt lat="44.9293210" lon="7.1512800">
        <ele>982.4</ele>
        <time>2017-07-26T13:01:37Z</time>
      </trkpt>
      <trkpt lat="44.9293780" lon="7.1513100">
        <ele>982.6</ele>
        <time>2017-07-26T13:01:39Z</time>
      </trkpt>
      <trkpt lat="44.9294610" lon="7.1513530">
        <ele>983.6</ele>
        <time>2017-07-26T13:01:42Z</time>
      </trkpt>
      <trkpt lat="44.9295930" lon="7.1514520">
        <ele>984.8</ele>
        <time>2017-07-26T13:01:46Z</time>
      </trkpt>
      <trkpt lat="44.9297100" lon="7.1515540">
        <ele>986.0</ele>
        <time>2017-07-26T13:01:50Z</time>
      </trkpt>
      <trkpt lat="44.9297610" lon="7.1516030">
        <ele>986.6</ele>
        <time>2017-07-26T13:01:52Z</time>
      </trkpt>
      <trkpt lat="44.9298050" lon="7.1516470">
        <ele>987.0</ele>
        <time>2017-07-26T13:01:54Z</time>
      </trkpt>
      <trkpt lat="44.9298630" lon="7.1517080">
        <ele>988.4</ele>
        <time>2017-07-26T13:01:57Z</time>
      </trkpt>
      <trkpt lat="44.9298980" lon="7.1517470">
        <ele>989.0</ele>
        <time>2017-07-26T13:01:59Z</time>
      </trkpt>
      <trkpt lat="44.9299370" lon="7.1517830">
        <ele>989.6</ele>
        <time>2017-07-26T13:02:01Z</time>
      </trkpt>
      <trkpt lat="44.9300650" lon="7.1518530">
        <ele>990.6</ele>
        <time>2017-07-26T13:02:07Z</time>
      </trkpt>
      <trkpt lat="44.9300840" lon="7.1518540">
        <ele>990.6</ele>
        <time>2017-07-26T13:02:08Z</time>
      </trkpt>
      <trkpt lat="44.9301960" lon="7.1518960">
        <ele>991.8</ele>
        <time>2017-07-26T13:02:14Z</time>
      </trkpt>
      <trkpt lat="44.9302580" lon="7.1519440">
        <ele>992.8</ele>
        <time>2017-07-26T13:02:17Z</time>
      </trkpt>
      <trkpt lat="44.9303170" lon="7.1519830">
        <ele>994.2</ele>
        <time>2017-07-26T13:02:20Z</time>
      </trkpt>
      <trkpt lat="44.9303380" lon="7.1519930">
        <ele>994.6</ele>
        <time>2017-07-26T13:02:21Z</time>
      </trkpt>
      <trkpt lat="44.9303960" lon="7.1520120">
        <ele>995.4</ele>
        <time>2017-07-26T13:02:24Z</time>
      </trkpt>
      <trkpt lat="44.9305040" lon="7.1520280">
        <ele>996.0</ele>
        <time>2017-07-26T13:02:29Z</time>
      </trkpt>
      <trkpt lat="44.9305570" lon="7.1520360">
        <ele>996.6</ele>
        <time>2017-07-26T13:02:31Z</time>
      </trkpt>
      <trkpt lat="44.9306550" lon="7.1521240">
        <ele>997.4</ele>
        <time>2017-07-26T13:02:35Z</time>
      </trkpt>
      <trkpt lat="44.9306610" lon="7.1521530">
        <ele>997.8</ele>
        <time>2017-07-26T13:02:36Z</time>
      </trkpt>
      <trkpt lat="44.9306270" lon="7.1522190">
        <ele>998.8</ele>
        <time>2017-07-26T13:02:39Z</time>
      </trkpt>
      <trkpt lat="44.9305830" lon="7.1522320">
        <ele>998.8</ele>
        <time>2017-07-26T13:02:41Z</time>
      </trkpt>
      <trkpt lat="44.9305600" lon="7.1522350">
        <ele>999.2</ele>
        <time>2017-07-26T13:02:42Z</time>
      </trkpt>
      <trkpt lat="44.9305170" lon="7.1522330">
        <ele>1000.0</ele>
        <time>2017-07-26T13:02:44Z</time>
      </trkpt>
      <trkpt lat="44.9304260" lon="7.1522560">
        <ele>1001.2</ele>
        <time>2017-07-26T13:02:48Z</time>
      </trkpt>
      <trkpt lat="44.9303790" lon="7.1522620">
        <ele>1001.8</ele>
        <time>2017-07-26T13:02:50Z</time>
      </trkpt>
      <trkpt lat="44.9303330" lon="7.1522720">
        <ele>1002.4</ele>
        <time>2017-07-26T13:02:52Z</time>
      </trkpt>
      <trkpt lat="44.9302400" lon="7.1522890">
        <ele>1003.6</ele>
        <time>2017-07-26T13:02:56Z</time>
      </trkpt>
      <trkpt lat="44.9302170" lon="7.1522850">
        <ele>1003.8</ele>
        <time>2017-07-26T13:02:57Z</time>
      </trkpt>
      <trkpt lat="44.9301450" lon="7.1522570">
        <ele>1004.8</ele>
        <time>2017-07-26T13:03:01Z</time>
      </trkpt>
      <trkpt lat="44.9301090" lon="7.1522420">
        <ele>1005.2</ele>
        <time>2017-07-26T13:03:03Z</time>
      </trkpt>
      <trkpt lat="44.9300520" lon="7.1522260">
        <ele>1005.8</ele>
        <time>2017-07-26T13:03:06Z</time>
      </trkpt>
      <trkpt lat="44.9299640" lon="7.1521950">
        <ele>1007.0</ele>
        <time>2017-07-26T13:03:10Z</time>
      </trkpt>
      <trkpt lat="44.9299170" lon="7.1521800">
        <ele>1007.0</ele>
        <time>2017-07-26T13:03:12Z</time>
      </trkpt>
      <trkpt lat="44.9297390" lon="7.1521460">
        <ele>1006.8</ele>
        <time>2017-07-26T13:03:18Z</time>
      </trkpt>
      <trkpt lat="44.9294820" lon="7.1521040">
        <ele>1006.4</ele>
        <time>2017-07-26T13:03:24Z</time>
      </trkpt>
      <trkpt lat="44.9294370" lon="7.1521080">
        <ele>1006.4</ele>
        <time>2017-07-26T13:03:25Z</time>
      </trkpt>
      <trkpt lat="44.9292340" lon="7.1521710">
        <ele>1006.4</ele>
        <time>2017-07-26T13:03:30Z</time>
      </trkpt>
      <trkpt lat="44.9289330" lon="7.1523100">
        <ele>1008.2</ele>
        <time>2017-07-26T13:03:37Z</time>
      </trkpt>
      <trkpt lat="44.9288910" lon="7.1523330">
        <ele>1008.6</ele>
        <time>2017-07-26T13:03:38Z</time>
      </trkpt>
      <trkpt lat="44.9286720" lon="7.1524430">
        <ele>1009.0</ele>
        <time>2017-07-26T13:03:43Z</time>
      </trkpt>
      <trkpt lat="44.9286040" lon="7.1524940">
        <ele>1009.2</ele>
        <time>2017-07-26T13:03:45Z</time>
      </trkpt>
      <trkpt lat="44.9285410" lon="7.1525880">
        <ele>1009.2</ele>
        <time>2017-07-26T13:03:48Z</time>
      </trkpt>
      <trkpt lat="44.9285100" lon="7.1526480">
        <ele>1009.2</ele>
        <time>2017-07-26T13:03:50Z</time>
      </trkpt>
      <trkpt lat="44.9284000" lon="7.1528680">
        <ele>1009.6</ele>
        <time>2017-07-26T13:03:58Z</time>
      </trkpt>
      <trkpt lat="44.9282910" lon="7.1530290">
        <ele>1010.0</ele>
        <time>2017-07-26T13:04:05Z</time>
      </trkpt>
      <trkpt lat="44.9282230" lon="7.1531080">
        <ele>1010.4</ele>
        <time>2017-07-26T13:04:09Z</time>
      </trkpt>
      <trkpt lat="44.9282070" lon="7.1531260">
        <ele>1006.6</ele>
        <time>2017-07-26T13:04:10Z</time>
      </trkpt>
      <trkpt lat="44.9281890" lon="7.1531430">
        <ele>1003.8</ele>
        <time>2017-07-26T13:04:11Z</time>
      </trkpt>
      <trkpt lat="44.9281720" lon="7.1531620">
        <ele>994.8</ele>
        <time>2017-07-26T13:04:12Z</time>
      </trkpt>
      <trkpt lat="44.9281560" lon="7.1531830">
        <ele>992.2</ele>
        <time>2017-07-26T13:04:13Z</time>
      </trkpt>
      <trkpt lat="44.9281340" lon="7.1531980">
        <ele>996.6</ele>
        <time>2017-07-26T13:04:14Z</time>
      </trkpt>
      <trkpt lat="44.9281100" lon="7.1532120">
        <ele>1007.6</ele>
        <time>2017-07-26T13:04:15Z</time>
      </trkpt>
      <trkpt lat="44.9280870" lon="7.1532260">
        <ele>1016.0</ele>
        <time>2017-07-26T13:04:16Z</time>
      </trkpt>
      <trkpt lat="44.9280320" lon="7.1532790">
        <ele>1016.8</ele>
        <time>2017-07-26T13:04:19Z</time>
      </trkpt>
      <trkpt lat="44.9280130" lon="7.1532980">
        <ele>1017.2</ele>
        <time>2017-07-26T13:04:20Z</time>
      </trkpt>
      <trkpt lat="44.9279430" lon="7.1533730">
        <ele>1018.4</ele>
        <time>2017-07-26T13:04:24Z</time>
      </trkpt>
      <trkpt lat="44.9278770" lon="7.1534150">
        <ele>1018.6</ele>
        <time>2017-07-26T13:04:27Z</time>
      </trkpt>
      <trkpt lat="44.9277690" lon="7.1534850">
        <ele>1019.6</ele>
        <time>2017-07-26T13:04:32Z</time>
      </trkpt>
      <trkpt lat="44.9276590" lon="7.1535170">
        <ele>1020.6</ele>
        <time>2017-07-26T13:04:37Z</time>
      </trkpt>
      <trkpt lat="44.9275260" lon="7.1535400">
        <ele>1021.8</ele>
        <time>2017-07-26T13:04:43Z</time>
      </trkpt>
      <trkpt lat="44.9274590" lon="7.1535760">
        <ele>1022.0</ele>
        <time>2017-07-26T13:04:46Z</time>
      </trkpt>
      <trkpt lat="44.9274240" lon="7.1537150">
        <ele>1022.4</ele>
        <time>2017-07-26T13:04:51Z</time>
      </trkpt>
      <trkpt lat="44.9274770" lon="7.1537760">
        <ele>1022.8</ele>
        <time>2017-07-26T13:04:54Z</time>
      </trkpt>
      <trkpt lat="44.9274980" lon="7.1537920">
        <ele>1023.2</ele>
        <time>2017-07-26T13:04:55Z</time>
      </trkpt>
      <trkpt lat="44.9275750" lon="7.1538200">
        <ele>1024.0</ele>
        <time>2017-07-26T13:04:58Z</time>
      </trkpt>
      <trkpt lat="44.9276580" lon="7.1538360">
        <ele>1024.6</ele>
        <time>2017-07-26T13:05:01Z</time>
      </trkpt>
      <trkpt lat="44.9276880" lon="7.1538410">
        <ele>1025.0</ele>
        <time>2017-07-26T13:05:02Z</time>
      </trkpt>
      <trkpt lat="44.9277730" lon="7.1538400">
        <ele>1026.2</ele>
        <time>2017-07-26T13:05:05Z</time>
      </trkpt>
      <trkpt lat="44.9278220" lon="7.1538250">
        <ele>1027.4</ele>
        <time>2017-07-26T13:05:07Z</time>
      </trkpt>
      <trkpt lat="44.9278430" lon="7.1538170">
        <ele>1027.8</ele>
        <time>2017-07-26T13:05:08Z</time>
      </trkpt>
      <trkpt lat="44.9278940" lon="7.1538120">
        <ele>1028.8</ele>
        <time>2017-07-26T13:05:10Z</time>
      </trkpt>
      <trkpt lat="44.9280120" lon="7.1537650">
        <ele>1029.8</ele>
        <time>2017-07-26T13:05:15Z</time>
      </trkpt>
      <trkpt lat="44.9280380" lon="7.1537610">
        <ele>1030.0</ele>
        <time>2017-07-26T13:05:16Z</time>
      </trkpt>
      <trkpt lat="44.9282140" lon="7.1537230">
        <ele>1030.8</ele>
        <time>2017-07-26T13:05:23Z</time>
      </trkpt>
      <trkpt lat="44.9283690" lon="7.1537130">
        <ele>1031.0</ele>
        <time>2017-07-26T13:05:29Z</time>
      </trkpt>
      <trkpt lat="44.9284710" lon="7.1537070">
        <ele>1031.0</ele>
        <time>2017-07-26T13:05:33Z</time>
      </trkpt>
      <trkpt lat="44.9286440" lon="7.1536830">
        <ele>1031.4</ele>
        <time>2017-07-26T13:05:41Z</time>
      </trkpt>
      <trkpt lat="44.9287120" lon="7.1536710">
        <ele>1032.0</ele>
        <time>2017-07-26T13:05:44Z</time>
      </trkpt>
      <trkpt lat="44.9287830" lon="7.1536640">
        <ele>1033.0</ele>
        <time>2017-07-26T13:05:47Z</time>
      </trkpt>
      <trkpt lat="44.9288020" lon="7.1536530">
        <ele>1033.2</ele>
        <time>2017-07-26T13:05:48Z</time>
      </trkpt>
      <trkpt lat="44.9288760" lon="7.1536010">
        <ele>1034.2</ele>
        <time>2017-07-26T13:05:52Z</time>
      </trkpt>
      <trkpt lat="44.9289400" lon="7.1535800">
        <ele>1035.0</ele>
        <time>2017-07-26T13:05:55Z</time>
      </trkpt>
      <trkpt lat="44.9289840" lon="7.1535620">
        <ele>1035.2</ele>
        <time>2017-07-26T13:05:57Z</time>
      </trkpt>
      <trkpt lat="44.9290660" lon="7.1535330">
        <ele>1036.4</ele>
        <time>2017-07-26T13:06:01Z</time>
      </trkpt>
      <trkpt lat="44.9290880" lon="7.1535290">
        <ele>1036.6</ele>
        <time>2017-07-26T13:06:02Z</time>
      </trkpt>
      <trkpt lat="44.9291980" lon="7.1534800">
        <ele>1037.4</ele>
        <time>2017-07-26T13:06:07Z</time>
      </trkpt>
      <trkpt lat="44.9292670" lon="7.1534500">
        <ele>1038.2</ele>
        <time>2017-07-26T13:06:10Z</time>
      </trkpt>
      <trkpt lat="44.9293070" lon="7.1534340">
        <ele>1038.4</ele>
        <time>2017-07-26T13:06:12Z</time>
      </trkpt>
      <trkpt lat="44.9293730" lon="7.1534160">
        <ele>1039.8</ele>
        <time>2017-07-26T13:06:15Z</time>
      </trkpt>
      <trkpt lat="44.9294210" lon="7.1534080">
        <ele>1040.6</ele>
        <time>2017-07-26T13:06:17Z</time>
      </trkpt>
      <trkpt lat="44.9294430" lon="7.1533990">
        <ele>1041.0</ele>
        <time>2017-07-26T13:06:18Z</time>
      </trkpt>
      <trkpt lat="44.9294870" lon="7.1533790">
        <ele>1042.4</ele>
        <time>2017-07-26T13:06:20Z</time>
      </trkpt>
      <trkpt lat="44.9295270" lon="7.1533600">
        <ele>1043.4</ele>
        <time>2017-07-26T13:06:22Z</time>
      </trkpt>
      <trkpt lat="44.9295960" lon="7.1533440">
        <ele>1044.6</ele>
        <time>2017-07-26T13:06:25Z</time>
      </trkpt>
      <trkpt lat="44.9296950" lon="7.1533250">
        <ele>1045.6</ele>
        <time>2017-07-26T13:06:29Z</time>
      </trkpt>
      <trkpt lat="44.9297200" lon="7.1533420">
        <ele>1045.8</ele>
        <time>2017-07-26T13:06:30Z</time>
      </trkpt>
      <trkpt lat="44.9297420" lon="7.1533660">
        <ele>1045.8</ele>
        <time>2017-07-26T13:06:31Z</time>
      </trkpt>
      <trkpt lat="44.9297570" lon="7.1534730">
        <ele>1046.8</ele>
        <time>2017-07-26T13:06:34Z</time>
      </trkpt>
      <trkpt lat="44.9297470" lon="7.1535060">
        <ele>1047.0</ele>
        <time>2017-07-26T13:06:35Z</time>
      </trkpt>
      <trkpt lat="44.9296550" lon="7.1536180">
        <ele>1047.6</ele>
        <time>2017-07-26T13:06:40Z</time>
      </trkpt>
      <trkpt lat="44.9296350" lon="7.1536350">
        <ele>1047.8</ele>
        <time>2017-07-26T13:06:41Z</time>
      </trkpt>
      <trkpt lat="44.9294660" lon="7.1537280">
        <ele>1047.6</ele>
        <time>2017-07-26T13:06:49Z</time>
      </trkpt>
      <trkpt lat="44.9293920" lon="7.1537720">
        <ele>1048.0</ele>
        <time>2017-07-26T13:06:53Z</time>
      </trkpt>
      <trkpt lat="44.9293390" lon="7.1538010">
        <ele>1049.4</ele>
        <time>2017-07-26T13:06:56Z</time>
      </trkpt>
      <trkpt lat="44.9293230" lon="7.1538130">
        <ele>1049.8</ele>
        <time>2017-07-26T13:06:57Z</time>
      </trkpt>
      <trkpt lat="44.9292890" lon="7.1538370">
        <ele>1050.6</ele>
        <time>2017-07-26T13:06:59Z</time>
      </trkpt>
      <trkpt lat="44.9292330" lon="7.1538780">
        <ele>1052.0</ele>
        <time>2017-07-26T13:07:02Z</time>
      </trkpt>
      <trkpt lat="44.9291980" lon="7.1539080">
        <ele>1053.0</ele>
        <time>2017-07-26T13:07:04Z</time>
      </trkpt>
      <trkpt lat="44.9291470" lon="7.1539580">
        <ele>1054.4</ele>
        <time>2017-07-26T13:07:07Z</time>
      </trkpt>
      <trkpt lat="44.9290990" lon="7.1540140">
        <ele>1056.0</ele>
        <time>2017-07-26T13:07:10Z</time>
      </trkpt>
      <trkpt lat="44.9290680" lon="7.1540520">
        <ele>1056.8</ele>
        <time>2017-07-26T13:07:12Z</time>
      </trkpt>
      <trkpt lat="44.9290540" lon="7.1540720">
        <ele>1057.2</ele>
        <time>2017-07-26T13:07:13Z</time>
      </trkpt>
      <trkpt lat="44.9290110" lon="7.1541620">
        <ele>1058.6</ele>
        <time>2017-07-26T13:07:17Z</time>
      </trkpt>
      <trkpt lat="44.9290040" lon="7.1542140">
        <ele>1059.4</ele>
        <time>2017-07-26T13:07:19Z</time>
      </trkpt>
      <trkpt lat="44.9290120" lon="7.1542350">
        <ele>1060.0</ele>
        <time>2017-07-26T13:07:20Z</time>
      </trkpt>
      <trkpt lat="44.9290600" lon="7.1542770">
        <ele>1060.8</ele>
        <time>2017-07-26T13:07:23Z</time>
      </trkpt>
      <trkpt lat="44.9290780" lon="7.1542830">
        <ele>1061.2</ele>
        <time>2017-07-26T13:07:24Z</time>
      </trkpt>
      <trkpt lat="44.9291340" lon="7.1543040">
        <ele>1061.0</ele>
        <time>2017-07-26T13:07:27Z</time>
      </trkpt>
      <trkpt lat="44.9291780" lon="7.1543000">
        <ele>1061.2</ele>
        <time>2017-07-26T13:07:29Z</time>
      </trkpt>
      <trkpt lat="44.9291990" lon="7.1542970">
        <ele>1061.0</ele>
        <time>2017-07-26T13:07:30Z</time>
      </trkpt>
      <trkpt lat="44.9293100" lon="7.1542530">
        <ele>1060.0</ele>
        <time>2017-07-26T13:07:36Z</time>
      </trkpt>
      <trkpt lat="44.9293280" lon="7.1542440">
        <ele>1060.2</ele>
        <time>2017-07-26T13:07:37Z</time>
      </trkpt>
      <trkpt lat="44.9294130" lon="7.1541910">
        <ele>1061.0</ele>
        <time>2017-07-26T13:07:41Z</time>
      </trkpt>
      <trkpt lat="44.9294340" lon="7.1541770">
        <ele>1061.2</ele>
        <time>2017-07-26T13:07:42Z</time>
      </trkpt>
      <trkpt lat="44.9294760" lon="7.1541580">
        <ele>1061.6</ele>
        <time>2017-07-26T13:07:44Z</time>
      </trkpt>
      <trkpt lat="44.9295430" lon="7.1541400">
        <ele>1062.6</ele>
        <time>2017-07-26T13:07:47Z</time>
      </trkpt>
      <trkpt lat="44.9296800" lon="7.1541240">
        <ele>1063.0</ele>
        <time>2017-07-26T13:07:52Z</time>
      </trkpt>
      <trkpt lat="44.9297560" lon="7.1541080">
        <ele>1064.0</ele>
        <time>2017-07-26T13:07:55Z</time>
      </trkpt>
      <trkpt lat="44.9298440" lon="7.1541030">
        <ele>1064.8</ele>
        <time>2017-07-26T13:07:59Z</time>
      </trkpt>
      <trkpt lat="44.9298680" lon="7.1541040">
        <ele>1065.2</ele>
        <time>2017-07-26T13:08:00Z</time>
      </trkpt>
      <trkpt lat="44.9299560" lon="7.1541210">
        <ele>1066.2</ele>
        <time>2017-07-26T13:08:04Z</time>
      </trkpt>
      <trkpt lat="44.9300280" lon="7.1541740">
        <ele>1066.6</ele>
        <time>2017-07-26T13:08:07Z</time>
      </trkpt>
      <trkpt lat="44.9300970" lon="7.1542260">
        <ele>1067.2</ele>
        <time>2017-07-26T13:08:10Z</time>
      </trkpt>
      <trkpt lat="44.9302250" lon="7.1543140">
        <ele>1068.2</ele>
        <time>2017-07-26T13:08:16Z</time>
      </trkpt>
      <trkpt lat="44.9302440" lon="7.1543280">
        <ele>1068.4</ele>
        <time>2017-07-26T13:08:17Z</time>
      </trkpt>
      <trkpt lat="44.9303070" lon="7.1543620">
        <ele>1069.4</ele>
        <time>2017-07-26T13:08:20Z</time>
      </trkpt>
      <trkpt lat="44.9303800" lon="7.1544070">
        <ele>1070.4</ele>
        <time>2017-07-26T13:08:24Z</time>
      </trkpt>
      <trkpt lat="44.9303960" lon="7.1544200">
        <ele>1070.8</ele>
        <time>2017-07-26T13:08:25Z</time>
      </trkpt>
      <trkpt lat="44.9304260" lon="7.1544470">
        <ele>1071.6</ele>
        <time>2017-07-26T13:08:27Z</time>
      </trkpt>
      <trkpt lat="44.9304650" lon="7.1544970">
        <ele>1072.8</ele>
        <time>2017-07-26T13:08:30Z</time>
      </trkpt>
      <trkpt lat="44.9304980" lon="7.1545260">
        <ele>1073.4</ele>
        <time>2017-07-26T13:08:32Z</time>
      </trkpt>
      <trkpt lat="44.9305220" lon="7.1545560">
        <ele>1074.0</ele>
        <time>2017-07-26T13:08:34Z</time>
      </trkpt>
      <trkpt lat="44.9305740" lon="7.1546170">
        <ele>1075.4</ele>
        <time>2017-07-26T13:08:38Z</time>
      </trkpt>
      <trkpt lat="44.9305970" lon="7.1546510">
        <ele>1076.0</ele>
        <time>2017-07-26T13:08:40Z</time>
      </trkpt>
      <trkpt lat="44.9306090" lon="7.1546720">
        <ele>1076.4</ele>
        <time>2017-07-26T13:08:41Z</time>
      </trkpt>
      <trkpt lat="44.9306420" lon="7.1547140">
        <ele>1077.6</ele>
        <time>2017-07-26T13:08:43Z</time>
      </trkpt>
      <trkpt lat="44.9306920" lon="7.1547850">
        <ele>1078.6</ele>
        <time>2017-07-26T13:08:46Z</time>
      </trkpt>
      <trkpt lat="44.9307210" lon="7.1548210">
        <ele>1079.2</ele>
        <time>2017-07-26T13:08:48Z</time>
      </trkpt>
      <trkpt lat="44.9307330" lon="7.1548390">
        <ele>1079.8</ele>
        <time>2017-07-26T13:08:49Z</time>
      </trkpt>
      <trkpt lat="44.9307820" lon="7.1548990">
        <ele>1080.8</ele>
        <time>2017-07-26T13:08:52Z</time>
      </trkpt>
      <trkpt lat="44.9308620" lon="7.1550150">
        <ele>1081.8</ele>
        <time>2017-07-26T13:08:56Z</time>
      </trkpt>
      <trkpt lat="44.9309380" lon="7.1550850">
        <ele>1083.2</ele>
        <time>2017-07-26T13:09:00Z</time>
      </trkpt>
      <trkpt lat="44.9309990" lon="7.1551200">
        <ele>1084.2</ele>
        <time>2017-07-26T13:09:03Z</time>
      </trkpt>
      <trkpt lat="44.9311800" lon="7.1552270">
        <ele>1084.8</ele>
        <time>2017-07-26T13:09:11Z</time>
      </trkpt>
      <trkpt lat="44.9312660" lon="7.1552940">
        <ele>1084.8</ele>
        <time>2017-07-26T13:09:15Z</time>
      </trkpt>
      <trkpt lat="44.9312690" lon="7.1553570">
        <ele>1084.8</ele>
        <time>2017-07-26T13:09:17Z</time>
      </trkpt>
      <trkpt lat="44.9311960" lon="7.1553900">
        <ele>1084.4</ele>
        <time>2017-07-26T13:09:21Z</time>
      </trkpt>
      <trkpt lat="44.9311350" lon="7.1553990">
        <ele>1084.4</ele>
        <time>2017-07-26T13:09:24Z</time>
      </trkpt>
      <trkpt lat="44.9310500" lon="7.1554080">
        <ele>1084.2</ele>
        <time>2017-07-26T13:09:28Z</time>
      </trkpt>
      <trkpt lat="44.9309260" lon="7.1553820">
        <ele>1084.6</ele>
        <time>2017-07-26T13:09:34Z</time>
      </trkpt>
      <trkpt lat="44.9308830" lon="7.1553790">
        <ele>1085.2</ele>
        <time>2017-07-26T13:09:36Z</time>
      </trkpt>
      <trkpt lat="44.9307790" lon="7.1553580">
        <ele>1085.6</ele>
        <time>2017-07-26T13:09:41Z</time>
      </trkpt>
      <trkpt lat="44.9307330" lon="7.1553350">
        <ele>1086.4</ele>
        <time>2017-07-26T13:09:43Z</time>
      </trkpt>
      <trkpt lat="44.9306370" lon="7.1552850">
        <ele>1087.2</ele>
        <time>2017-07-26T13:09:47Z</time>
      </trkpt>
      <trkpt lat="44.9305790" lon="7.1552740">
        <ele>1087.4</ele>
        <time>2017-07-26T13:09:49Z</time>
      </trkpt>
      <trkpt lat="44.9305020" lon="7.1552820">
        <ele>1088.0</ele>
        <time>2017-07-26T13:09:52Z</time>
      </trkpt>
      <trkpt lat="44.9304550" lon="7.1552820">
        <ele>1088.6</ele>
        <time>2017-07-26T13:09:54Z</time>
      </trkpt>
      <trkpt lat="44.9303840" lon="7.1552850">
        <ele>1090.0</ele>
        <time>2017-07-26T13:09:57Z</time>
      </trkpt>
      <trkpt lat="44.9303160" lon="7.1553000">
        <ele>1091.2</ele>
        <time>2017-07-26T13:10:00Z</time>
      </trkpt>
      <trkpt lat="44.9302700" lon="7.1552960">
        <ele>1091.8</ele>
        <time>2017-07-26T13:10:02Z</time>
      </trkpt>
      <trkpt lat="44.9302490" lon="7.1552930">
        <ele>1092.4</ele>
        <time>2017-07-26T13:10:03Z</time>
      </trkpt>
      <trkpt lat="44.9301560" lon="7.1552990">
        <ele>1093.4</ele>
        <time>2017-07-26T13:10:07Z</time>
      </trkpt>
      <trkpt lat="44.9301100" lon="7.1553020">
        <ele>1093.8</ele>
        <time>2017-07-26T13:10:09Z</time>
      </trkpt>
      <trkpt lat="44.9300430" lon="7.1553170">
        <ele>1094.6</ele>
        <time>2017-07-26T13:10:12Z</time>
      </trkpt>
      <trkpt lat="44.9299870" lon="7.1553460">
        <ele>1096.0</ele>
        <time>2017-07-26T13:10:15Z</time>
      </trkpt>
      <trkpt lat="44.9299700" lon="7.1553570">
        <ele>1096.4</ele>
        <time>2017-07-26T13:10:16Z</time>
      </trkpt>
      <trkpt lat="44.9299350" lon="7.1553800">
        <ele>1097.4</ele>
        <time>2017-07-26T13:10:18Z</time>
      </trkpt>
      <trkpt lat="44.9298570" lon="7.1554640">
        <ele>1098.4</ele>
        <time>2017-07-26T13:10:23Z</time>
      </trkpt>
      <trkpt lat="44.9298380" lon="7.1554810">
        <ele>1098.6</ele>
        <time>2017-07-26T13:10:24Z</time>
      </trkpt>
      <trkpt lat="44.9296980" lon="7.1555950">
        <ele>1099.2</ele>
        <time>2017-07-26T13:10:32Z</time>
      </trkpt>
      <trkpt lat="44.9296200" lon="7.1556890">
        <ele>1099.6</ele>
        <time>2017-07-26T13:10:37Z</time>
      </trkpt>
      <trkpt lat="44.9295930" lon="7.1557320">
        <ele>1099.6</ele>
        <time>2017-07-26T13:10:39Z</time>
      </trkpt>
      <trkpt lat="44.9295470" lon="7.1558230">
        <ele>1100.6</ele>
        <time>2017-07-26T13:10:43Z</time>
      </trkpt>
      <trkpt lat="44.9295070" lon="7.1559000">
        <ele>1101.4</ele>
        <time>2017-07-26T13:10:46Z</time>
      </trkpt>
      <trkpt lat="44.9294940" lon="7.1559270">
        <ele>1101.6</ele>
        <time>2017-07-26T13:10:47Z</time>
      </trkpt>
      <trkpt lat="44.9294500" lon="7.1560220">
        <ele>1102.8</ele>
        <time>2017-07-26T13:10:51Z</time>
      </trkpt>
      <trkpt lat="44.9294300" lon="7.1560740">
        <ele>1103.4</ele>
        <time>2017-07-26T13:10:53Z</time>
      </trkpt>
      <trkpt lat="44.9293840" lon="7.1561520">
        <ele>1103.8</ele>
        <time>2017-07-26T13:10:56Z</time>
      </trkpt>
      <trkpt lat="44.9292940" lon="7.1562820">
        <ele>1104.2</ele>
        <time>2017-07-26T13:11:01Z</time>
      </trkpt>
      <trkpt lat="44.9292010" lon="7.1564360">
        <ele>1104.6</ele>
        <time>2017-07-26T13:11:07Z</time>
      </trkpt>
      <trkpt lat="44.9291500" lon="7.1564940">
        <ele>1105.0</ele>
        <time>2017-07-26T13:11:10Z</time>
      </trkpt>
      <trkpt lat="44.9291020" lon="7.1565510">
        <ele>1106.2</ele>
        <time>2017-07-26T13:11:13Z</time>
      </trkpt>
      <trkpt lat="44.9290730" lon="7.1565930">
        <ele>1106.4</ele>
        <time>2017-07-26T13:11:15Z</time>
      </trkpt>
      <trkpt lat="44.9290280" lon="7.1566520">
        <ele>1107.2</ele>
        <time>2017-07-26T13:11:18Z</time>
      </trkpt>
      <trkpt lat="44.9289700" lon="7.1567370">
        <ele>1108.2</ele>
        <time>2017-07-26T13:11:22Z</time>
      </trkpt>
      <trkpt lat="44.9289560" lon="7.1567550">
        <ele>1108.4</ele>
        <time>2017-07-26T13:11:23Z</time>
      </trkpt>
      <trkpt lat="44.9288750" lon="7.1568450">
        <ele>1109.4</ele>
        <time>2017-07-26T13:11:28Z</time>
      </trkpt>
      <trkpt lat="44.9288560" lon="7.1568650">
        <ele>1109.6</ele>
        <time>2017-07-26T13:11:29Z</time>
      </trkpt>
      <trkpt lat="44.9287830" lon="7.1569390">
        <ele>1110.6</ele>
        <time>2017-07-26T13:11:33Z</time>
      </trkpt>
      <trkpt lat="44.9287480" lon="7.1569810">
        <ele>1111.6</ele>
        <time>2017-07-26T13:11:35Z</time>
      </trkpt>
      <trkpt lat="44.9287290" lon="7.1570020">
        <ele>1112.0</ele>
        <time>2017-07-26T13:11:36Z</time>
      </trkpt>
      <trkpt lat="44.9286970" lon="7.1570380">
        <ele>1112.8</ele>
        <time>2017-07-26T13:11:38Z</time>
      </trkpt>
      <trkpt lat="44.9286270" lon="7.1570840">
        <ele>1113.4</ele>
        <time>2017-07-26T13:11:42Z</time>
      </trkpt>
      <trkpt lat="44.9286110" lon="7.1571020">
        <ele>1113.8</ele>
        <time>2017-07-26T13:11:43Z</time>
      </trkpt>
      <trkpt lat="44.9285980" lon="7.1571240">
        <ele>1114.2</ele>
        <time>2017-07-26T13:11:44Z</time>
      </trkpt>
      <trkpt lat="44.9285530" lon="7.1571760">
        <ele>1115.2</ele>
        <time>2017-07-26T13:11:47Z</time>
      </trkpt>
      <trkpt lat="44.9285170" lon="7.1571920">
        <ele>1115.6</ele>
        <time>2017-07-26T13:11:49Z</time>
      </trkpt>
      <trkpt lat="44.9284540" lon="7.1572070">
        <ele>1116.2</ele>
        <time>2017-07-26T13:11:52Z</time>
      </trkpt>
      <trkpt lat="44.9283890" lon="7.1572100">
        <ele>1117.2</ele>
        <time>2017-07-26T13:11:55Z</time>
      </trkpt>
      <trkpt lat="44.9283680" lon="7.1572070">
        <ele>1117.6</ele>
        <time>2017-07-26T13:11:56Z</time>
      </trkpt>
      <trkpt lat="44.9283460" lon="7.1572060">
        <ele>1118.0</ele>
        <time>2017-07-26T13:11:57Z</time>
      </trkpt>
      <trkpt lat="44.9283260" lon="7.1572030">
        <ele>1118.4</ele>
        <time>2017-07-26T13:11:58Z</time>
      </trkpt>
      <trkpt lat="44.9282870" lon="7.1571990">
        <ele>1119.4</ele>
        <time>2017-07-26T13:12:00Z</time>
      </trkpt>
      <trkpt lat="44.9282260" lon="7.1571900">
        <ele>1120.6</ele>
        <time>2017-07-26T13:12:03Z</time>
      </trkpt>
      <trkpt lat="44.9281580" lon="7.1571880">
        <ele>1121.4</ele>
        <time>2017-07-26T13:12:06Z</time>
      </trkpt>
      <trkpt lat="44.9281360" lon="7.1571930">
        <ele>1121.8</ele>
        <time>2017-07-26T13:12:07Z</time>
      </trkpt>
      <trkpt lat="44.9280540" lon="7.1572930">
        <ele>1122.4</ele>
        <time>2017-07-26T13:12:12Z</time>
      </trkpt>
      <trkpt lat="44.9280600" lon="7.1573160">
        <ele>1122.4</ele>
        <time>2017-07-26T13:12:13Z</time>
      </trkpt>
      <trkpt lat="44.9280840" lon="7.1573520">
        <ele>1122.8</ele>
        <time>2017-07-26T13:12:15Z</time>
      </trkpt>
      <trkpt lat="44.9281010" lon="7.1573650">
        <ele>1123.4</ele>
        <time>2017-07-26T13:12:16Z</time>
      </trkpt>
      <trkpt lat="44.9281980" lon="7.1573900">
        <ele>1124.0</ele>
        <time>2017-07-26T13:12:20Z</time>
      </trkpt>
      <trkpt lat="44.9282530" lon="7.1574100">
        <ele>1124.2</ele>
        <time>2017-07-26T13:12:22Z</time>
      </trkpt>
      <trkpt lat="44.9283770" lon="7.1574860">
        <ele>1125.4</ele>
        <time>2017-07-26T13:12:26Z</time>
      </trkpt>
      <trkpt lat="44.9284880" lon="7.1575550">
        <ele>1126.6</ele>
        <time>2017-07-26T13:12:29Z</time>
      </trkpt>
      <trkpt lat="44.9285280" lon="7.1575680">
        <ele>1127.0</ele>
        <time>2017-07-26T13:12:30Z</time>
      </trkpt>
      <trkpt lat="44.9286110" lon="7.1575770">
        <ele>1127.6</ele>
        <time>2017-07-26T13:12:32Z</time>
      </trkpt>
      <trkpt lat="44.9286510" lon="7.1575720">
        <ele>1127.8</ele>
        <time>2017-07-26T13:12:33Z</time>
      </trkpt>
      <trkpt lat="44.9287550" lon="7.1575040">
        <ele>1128.8</ele>
        <time>2017-07-26T13:12:36Z</time>
      </trkpt>
      <trkpt lat="44.9287890" lon="7.1574710">
        <ele>1128.8</ele>
        <time>2017-07-26T13:12:37Z</time>
      </trkpt>
      <trkpt lat="44.9290070" lon="7.1572750">
        <ele>1129.6</ele>
        <time>2017-07-26T13:12:43Z</time>
      </trkpt>
      <trkpt lat="44.9290460" lon="7.1572440">
        <ele>1129.4</ele>
        <time>2017-07-26T13:12:44Z</time>
      </trkpt>
      <trkpt lat="44.9291290" lon="7.1571960">
        <ele>1129.4</ele>
        <time>2017-07-26T13:12:46Z</time>
      </trkpt>
      <trkpt lat="44.9292920" lon="7.1571170">
        <ele>1128.8</ele>
        <time>2017-07-26T13:12:50Z</time>
      </trkpt>
      <trkpt lat="44.9294550" lon="7.1570250">
        <ele>1129.2</ele>
        <time>2017-07-26T13:12:55Z</time>
      </trkpt>
      <trkpt lat="44.9294850" lon="7.1570080">
        <ele>1129.4</ele>
        <time>2017-07-26T13:12:56Z</time>
      </trkpt>
      <trkpt lat="44.9295370" lon="7.1569650">
        <ele>1129.8</ele>
        <time>2017-07-26T13:12:58Z</time>
      </trkpt>
      <trkpt lat="44.9296360" lon="7.1568410">
        <ele>1130.4</ele>
        <time>2017-07-26T13:13:03Z</time>
      </trkpt>
      <trkpt lat="44.9296930" lon="7.1567620">
        <ele>1130.8</ele>
        <time>2017-07-26T13:13:06Z</time>
      </trkpt>
      <trkpt lat="44.9297890" lon="7.1566730">
        <ele>1131.0</ele>
        <time>2017-07-26T13:13:10Z</time>
      </trkpt>
      <trkpt lat="44.9299720" lon="7.1565830">
        <ele>1131.2</ele>
        <time>2017-07-26T13:13:16Z</time>
      </trkpt>
      <trkpt lat="44.9300500" lon="7.1566610">
        <ele>1132.0</ele>
        <time>2017-07-26T13:13:19Z</time>
      </trkpt>
      <trkpt lat="44.9300660" lon="7.1567060">
        <ele>1132.4</ele>
        <time>2017-07-26T13:13:20Z</time>
      </trkpt>
      <trkpt lat="44.9300830" lon="7.1568040">
        <ele>1133.0</ele>
        <time>2017-07-26T13:13:22Z</time>
      </trkpt>
      <trkpt lat="44.9300810" lon="7.1568990">
        <ele>1133.8</ele>
        <time>2017-07-26T13:13:24Z</time>
      </trkpt>
      <trkpt lat="44.9300780" lon="7.1569400">
        <ele>1134.4</ele>
        <time>2017-07-26T13:13:25Z</time>
      </trkpt>
      <trkpt lat="44.9300590" lon="7.1570720">
        <ele>1135.6</ele>
        <time>2017-07-26T13:13:28Z</time>
      </trkpt>
      <trkpt lat="44.9300450" lon="7.1571610">
        <ele>1136.2</ele>
        <time>2017-07-26T13:13:30Z</time>
      </trkpt>
      <trkpt lat="44.9300350" lon="7.1572100">
        <ele>1136.8</ele>
        <time>2017-07-26T13:13:31Z</time>
      </trkpt>
      <trkpt lat="44.9299940" lon="7.1574890">
        <ele>1137.6</ele>
        <time>2017-07-26T13:13:37Z</time>
      </trkpt>
      <trkpt lat="44.9299840" lon="7.1575590">
        <ele>1138.2</ele>
        <time>2017-07-26T13:13:39Z</time>
      </trkpt>
      <trkpt lat="44.9299790" lon="7.1576540">
        <ele>1139.4</ele>
        <time>2017-07-26T13:13:42Z</time>
      </trkpt>
      <trkpt lat="44.9299840" lon="7.1577100">
        <ele>1140.0</ele>
        <time>2017-07-26T13:13:44Z</time>
      </trkpt>
      <trkpt lat="44.9299920" lon="7.1577640">
        <ele>1140.8</ele>
        <time>2017-07-26T13:13:46Z</time>
      </trkpt>
      <trkpt lat="44.9300100" lon="7.1579460">
        <ele>1141.8</ele>
        <time>2017-07-26T13:13:53Z</time>
      </trkpt>
      <trkpt lat="44.9300110" lon="7.1579700">
        <ele>1142.2</ele>
        <time>2017-07-26T13:13:54Z</time>
      </trkpt>
      <trkpt lat="44.9300160" lon="7.1580500">
        <ele>1143.4</ele>
        <time>2017-07-26T13:13:57Z</time>
      </trkpt>
      <trkpt lat="44.9300220" lon="7.1581270">
        <ele>1144.6</ele>
        <time>2017-07-26T13:14:00Z</time>
      </trkpt>
      <trkpt lat="44.9300270" lon="7.1582020">
        <ele>1146.0</ele>
        <time>2017-07-26T13:14:03Z</time>
      </trkpt>
      <trkpt lat="44.9300300" lon="7.1582740">
        <ele>1147.2</ele>
        <time>2017-07-26T13:14:06Z</time>
      </trkpt>
      <trkpt lat="44.9300340" lon="7.1584290">
        <ele>1148.4</ele>
        <time>2017-07-26T13:14:12Z</time>
      </trkpt>
      <trkpt lat="44.9300140" lon="7.1585660">
        <ele>1149.6</ele>
        <time>2017-07-26T13:14:17Z</time>
      </trkpt>
      <trkpt lat="44.9300090" lon="7.1586130">
        <ele>1150.6</ele>
        <time>2017-07-26T13:14:19Z</time>
      </trkpt>
      <trkpt lat="44.9300010" lon="7.1586780">
        <ele>1151.6</ele>
        <time>2017-07-26T13:14:22Z</time>
      </trkpt>
      <trkpt lat="44.9299490" lon="7.1588000">
        <ele>1152.4</ele>
        <time>2017-07-26T13:14:28Z</time>
      </trkpt>
      <trkpt lat="44.9299340" lon="7.1588490">
        <ele>1152.8</ele>
        <time>2017-07-26T13:14:30Z</time>
      </trkpt>
      <trkpt lat="44.9299200" lon="7.1589750">
        <ele>1153.6</ele>
        <time>2017-07-26T13:14:35Z</time>
      </trkpt>
      <trkpt lat="44.9299160" lon="7.1590040">
        <ele>1153.8</ele>
        <time>2017-07-26T13:14:36Z</time>
      </trkpt>
      <trkpt lat="44.9299050" lon="7.1591070">
        <ele>1155.0</ele>
        <time>2017-07-26T13:14:40Z</time>
      </trkpt>
      <trkpt lat="44.9298970" lon="7.1591810">
        <ele>1156.4</ele>
        <time>2017-07-26T13:14:43Z</time>
      </trkpt>
      <trkpt lat="44.9298760" lon="7.1593110">
        <ele>1157.6</ele>
        <time>2017-07-26T13:14:48Z</time>
      </trkpt>
      <trkpt lat="44.9298660" lon="7.1593640">
        <ele>1157.2</ele>
        <time>2017-07-26T13:14:50Z</time>
      </trkpt>
      <trkpt lat="44.9298570" lon="7.1594410">
        <ele>1158.6</ele>
        <time>2017-07-26T13:14:53Z</time>
      </trkpt>
      <trkpt lat="44.9298080" lon="7.1595490">
        <ele>1159.0</ele>
        <time>2017-07-26T13:14:58Z</time>
      </trkpt>
      <trkpt lat="44.9297950" lon="7.1595730">
        <ele>1160.0</ele>
        <time>2017-07-26T13:14:59Z</time>
      </trkpt>
      <trkpt lat="44.9297360" lon="7.1596780">
        <ele>1161.2</ele>
        <time>2017-07-26T13:15:03Z</time>
      </trkpt>
      <trkpt lat="44.9297150" lon="7.1596880">
        <ele>1161.4</ele>
        <time>2017-07-26T13:15:04Z</time>
      </trkpt>
      <trkpt lat="44.9296870" lon="7.1596780">
        <ele>1162.4</ele>
        <time>2017-07-26T13:15:07Z</time>
      </trkpt>
      <trkpt lat="44.9296830" lon="7.1596630">
        <ele>1162.6</ele>
        <time>2017-07-26T13:15:08Z</time>
      </trkpt>
      <trkpt lat="44.9296750" lon="7.1596050">
        <ele>1163.6</ele>
        <time>2017-07-26T13:15:12Z</time>
      </trkpt>
      <trkpt lat="44.9296740" lon="7.1595660">
        <ele>1164.2</ele>
        <time>2017-07-26T13:15:14Z</time>
      </trkpt>
      <trkpt lat="44.9296730" lon="7.1595400">
        <ele>1164.4</ele>
        <time>2017-07-26T13:15:15Z</time>
      </trkpt>
      <trkpt lat="44.9296740" lon="7.1595170">
        <ele>1164.6</ele>
        <time>2017-07-26T13:15:16Z</time>
      </trkpt>
      <trkpt lat="44.9296750" lon="7.1594200">
        <ele>1165.8</ele>
        <time>2017-07-26T13:15:21Z</time>
      </trkpt>
      <trkpt lat="44.9296690" lon="7.1593930">
        <ele>1166.0</ele>
        <time>2017-07-26T13:15:22Z</time>
      </trkpt>
      <trkpt lat="44.9296490" lon="7.1593080">
        <ele>1166.4</ele>
        <time>2017-07-26T13:15:25Z</time>
      </trkpt>
      <trkpt lat="44.9296350" lon="7.1592470">
        <ele>1166.8</ele>
        <time>2017-07-26T13:15:27Z</time>
      </trkpt>
      <trkpt lat="44.9296130" lon="7.1591530">
        <ele>1167.2</ele>
        <time>2017-07-26T13:15:30Z</time>
      </trkpt>
      <trkpt lat="44.9295940" lon="7.1590570">
        <ele>1168.0</ele>
        <time>2017-07-26T13:15:33Z</time>
      </trkpt>
      <trkpt lat="44.9295230" lon="7.1589150">
        <ele>1167.4</ele>
        <time>2017-07-26T13:15:38Z</time>
      </trkpt>
      <trkpt lat="44.9294020" lon="7.1588250">
        <ele>1166.8</ele>
        <time>2017-07-26T13:15:43Z</time>
      </trkpt>
      <trkpt lat="44.9293730" lon="7.1588190">
        <ele>1166.6</ele>
        <time>2017-07-26T13:15:44Z</time>
      </trkpt>
      <trkpt lat="44.9292640" lon="7.1588930">
        <ele>1166.0</ele>
        <time>2017-07-26T13:15:49Z</time>
      </trkpt>
      <trkpt lat="44.9292620" lon="7.1589550">
        <ele>1166.2</ele>
        <time>2017-07-26T13:15:51Z</time>
      </trkpt>
      <trkpt lat="44.9292810" lon="7.1589920">
        <ele>1166.2</ele>
        <time>2017-07-26T13:15:53Z</time>
      </trkpt>
      <trkpt lat="44.9292960" lon="7.1590020">
        <ele>1166.2</ele>
        <time>2017-07-26T13:15:55Z</time>
      </trkpt>
      <trkpt lat="44.9293240" lon="7.1589980">
        <ele>1166.4</ele>
        <time>2017-07-26T13:15:57Z</time>
      </trkpt>
      <trkpt lat="44.9293640" lon="7.1590380">
        <ele>1167.2</ele>
        <time>2017-07-26T13:16:01Z</time>
      </trkpt>
      <trkpt lat="44.9293570" lon="7.1590800">
        <ele>1168.6</ele>
        <time>2017-07-26T13:18:18Z</time>
      </trkpt>
      <trkpt lat="44.9293600" lon="7.1590990">
        <ele>1168.8</ele>
        <time>2017-07-26T13:18:19Z</time>
      </trkpt>
      <trkpt lat="44.9293730" lon="7.1591540">
        <ele>1169.0</ele>
        <time>2017-07-26T13:18:21Z</time>
      </trkpt>
      <trkpt lat="44.9293980" lon="7.1592810">
        <ele>1169.6</ele>
        <time>2017-07-26T13:18:24Z</time>
      </trkpt>
      <trkpt lat="44.9294080" lon="7.1593890">
        <ele>1170.2</ele>
        <time>2017-07-26T13:18:26Z</time>
      </trkpt>
      <trkpt lat="44.9294070" lon="7.1595000">
        <ele>1170.8</ele>
        <time>2017-07-26T13:18:28Z</time>
      </trkpt>
      <trkpt lat="44.9293960" lon="7.1596710">
        <ele>1172.0</ele>
        <time>2017-07-26T13:18:31Z</time>
      </trkpt>
      <trkpt lat="44.9293850" lon="7.1597210">
        <ele>1172.2</ele>
        <time>2017-07-26T13:18:32Z</time>
      </trkpt>
      <trkpt lat="44.9293540" lon="7.1598140">
        <ele>1172.4</ele>
        <time>2017-07-26T13:18:34Z</time>
      </trkpt>
      <trkpt lat="44.9293180" lon="7.1599050">
        <ele>1172.4</ele>
        <time>2017-07-26T13:18:36Z</time>
      </trkpt>
      <trkpt lat="44.9292650" lon="7.1600340">
        <ele>1172.8</ele>
        <time>2017-07-26T13:18:39Z</time>
      </trkpt>
      <trkpt lat="44.9292440" lon="7.1600730">
        <ele>1173.2</ele>
        <time>2017-07-26T13:18:40Z</time>
      </trkpt>
      <trkpt lat="44.9291720" lon="7.1601510">
        <ele>1174.4</ele>
        <time>2017-07-26T13:18:43Z</time>
      </trkpt>
      <trkpt lat="44.9291500" lon="7.1601710">
        <ele>1174.8</ele>
        <time>2017-07-26T13:18:44Z</time>
      </trkpt>
      <trkpt lat="44.9290940" lon="7.1602040">
        <ele>1175.8</ele>
        <time>2017-07-26T13:18:46Z</time>
      </trkpt>
      <trkpt lat="44.9290140" lon="7.1602320">
        <ele>1177.0</ele>
        <time>2017-07-26T13:18:49Z</time>
      </trkpt>
      <trkpt lat="44.9289890" lon="7.1602460">
        <ele>1177.2</ele>
        <time>2017-07-26T13:18:50Z</time>
      </trkpt>
      <trkpt lat="44.9289430" lon="7.1603160">
        <ele>1178.2</ele>
        <time>2017-07-26T13:18:53Z</time>
      </trkpt>
      <trkpt lat="44.9289340" lon="7.1603490">
        <ele>1178.6</ele>
        <time>2017-07-26T13:18:54Z</time>
      </trkpt>
      <trkpt lat="44.9289380" lon="7.1604180">
        <ele>1179.4</ele>
        <time>2017-07-26T13:18:56Z</time>
      </trkpt>
      <trkpt lat="44.9289450" lon="7.1605280">
        <ele>1180.6</ele>
        <time>2017-07-26T13:18:59Z</time>
      </trkpt>
      <trkpt lat="44.9289390" lon="7.1606900">
        <ele>1181.8</ele>
        <time>2017-07-26T13:19:03Z</time>
      </trkpt>
      <trkpt lat="44.9289570" lon="7.1608360">
        <ele>1183.2</ele>
        <time>2017-07-26T13:19:07Z</time>
      </trkpt>
      <trkpt lat="44.9289720" lon="7.1609440">
        <ele>1184.2</ele>
        <time>2017-07-26T13:19:10Z</time>
      </trkpt>
      <trkpt lat="44.9289850" lon="7.1610480">
        <ele>1185.4</ele>
        <time>2017-07-26T13:19:13Z</time>
      </trkpt>
      <trkpt lat="44.9290000" lon="7.1611580">
        <ele>1186.0</ele>
        <time>2017-07-26T13:19:16Z</time>
      </trkpt>
      <trkpt lat="44.9289950" lon="7.1612270">
        <ele>1186.6</ele>
        <time>2017-07-26T13:19:18Z</time>
      </trkpt>
      <trkpt lat="44.9290080" lon="7.1613810">
        <ele>1187.2</ele>
        <time>2017-07-26T13:19:22Z</time>
      </trkpt>
      <trkpt lat="44.9290100" lon="7.1614560">
        <ele>1187.6</ele>
        <time>2017-07-26T13:19:24Z</time>
      </trkpt>
      <trkpt lat="44.9289940" lon="7.1616430">
        <ele>1188.8</ele>
        <time>2017-07-26T13:19:29Z</time>
      </trkpt>
      <trkpt lat="44.9289820" lon="7.1617810">
        <ele>1190.0</ele>
        <time>2017-07-26T13:19:33Z</time>
      </trkpt>
      <trkpt lat="44.9289680" lon="7.1618720">
        <ele>1190.8</ele>
        <time>2017-07-26T13:19:36Z</time>
      </trkpt>
      <trkpt lat="44.9289620" lon="7.1619010">
        <ele>1191.2</ele>
        <time>2017-07-26T13:19:37Z</time>
      </trkpt>
      <trkpt lat="44.9289410" lon="7.1620400">
        <ele>1192.2</ele>
        <time>2017-07-26T13:19:41Z</time>
      </trkpt>
      <trkpt lat="44.9289170" lon="7.1621830">
        <ele>1193.6</ele>
        <time>2017-07-26T13:19:45Z</time>
      </trkpt>
      <trkpt lat="44.9289130" lon="7.1622200">
        <ele>1194.0</ele>
        <time>2017-07-26T13:19:46Z</time>
      </trkpt>
      <trkpt lat="44.9289140" lon="7.1623230">
        <ele>1194.8</ele>
        <time>2017-07-26T13:19:49Z</time>
      </trkpt>
      <trkpt lat="44.9288890" lon="7.1624360">
        <ele>1196.0</ele>
        <time>2017-07-26T13:19:53Z</time>
      </trkpt>
      <trkpt lat="44.9288430" lon="7.1625530">
        <ele>1197.4</ele>
        <time>2017-07-26T13:19:57Z</time>
      </trkpt>
      <trkpt lat="44.9288100" lon="7.1626070">
        <ele>1198.0</ele>
        <time>2017-07-26T13:19:59Z</time>
      </trkpt>
      <trkpt lat="44.9287810" lon="7.1626490">
        <ele>1198.6</ele>
        <time>2017-07-26T13:20:01Z</time>
      </trkpt>
      <trkpt lat="44.9287670" lon="7.1626510">
        <ele>1199.0</ele>
        <time>2017-07-26T13:20:02Z</time>
      </trkpt>
      <trkpt lat="44.9287520" lon="7.1626460">
        <ele>1199.2</ele>
        <time>2017-07-26T13:20:03Z</time>
      </trkpt>
      <trkpt lat="44.9287370" lon="7.1626290">
        <ele>1199.6</ele>
        <time>2017-07-26T13:20:04Z</time>
      </trkpt>
      <trkpt lat="44.9287290" lon="7.1626110">
        <ele>1199.6</ele>
        <time>2017-07-26T13:20:05Z</time>
      </trkpt>
      <trkpt lat="44.9287230" lon="7.1625090">
        <ele>1200.2</ele>
        <time>2017-07-26T13:20:09Z</time>
      </trkpt>
      <trkpt lat="44.9286990" lon="7.1624170">
        <ele>1200.8</ele>
        <time>2017-07-26T13:20:12Z</time>
      </trkpt>
      <trkpt lat="44.9286870" lon="7.1623840">
        <ele>1201.0</ele>
        <time>2017-07-26T13:20:13Z</time>
      </trkpt>
      <trkpt lat="44.9286740" lon="7.1623210">
        <ele>1201.4</ele>
        <time>2017-07-26T13:20:15Z</time>
      </trkpt>
      <trkpt lat="44.9286460" lon="7.1622230">
        <ele>1201.8</ele>
        <time>2017-07-26T13:20:18Z</time>
      </trkpt>
      <trkpt lat="44.9286110" lon="7.1621150">
        <ele>1202.4</ele>
        <time>2017-07-26T13:20:21Z</time>
      </trkpt>
      <trkpt lat="44.9285830" lon="7.1620580">
        <ele>1203.2</ele>
        <time>2017-07-26T13:20:23Z</time>
      </trkpt>
      <trkpt lat="44.9285450" lon="7.1619750">
        <ele>1204.0</ele>
        <time>2017-07-26T13:20:26Z</time>
      </trkpt>
      <trkpt lat="44.9285300" lon="7.1619360">
        <ele>1204.4</ele>
        <time>2017-07-26T13:20:27Z</time>
      </trkpt>
      <trkpt lat="44.9284920" lon="7.1617890">
        <ele>1205.4</ele>
        <time>2017-07-26T13:20:31Z</time>
      </trkpt>
      <trkpt lat="44.9284770" lon="7.1617520">
        <ele>1205.8</ele>
        <time>2017-07-26T13:20:32Z</time>
      </trkpt>
      <trkpt lat="44.9284420" lon="7.1616720">
        <ele>1205.8</ele>
        <time>2017-07-26T13:20:34Z</time>
      </trkpt>
      <trkpt lat="44.9283920" lon="7.1615460">
        <ele>1205.6</ele>
        <time>2017-07-26T13:20:37Z</time>
      </trkpt>
      <trkpt lat="44.9283640" lon="7.1614650">
        <ele>1205.4</ele>
        <time>2017-07-26T13:20:39Z</time>
      </trkpt>
      <trkpt lat="44.9282240" lon="7.1611440">
        <ele>1204.8</ele>
        <time>2017-07-26T13:20:48Z</time>
      </trkpt>
      <trkpt lat="44.9280850" lon="7.1610020">
        <ele>1204.8</ele>
        <time>2017-07-26T13:20:54Z</time>
      </trkpt>
      <trkpt lat="44.9280320" lon="7.1609590">
        <ele>1204.8</ele>
        <time>2017-07-26T13:20:56Z</time>
      </trkpt>
      <trkpt lat="44.9278900" lon="7.1608680">
        <ele>1206.2</ele>
        <time>2017-07-26T13:21:01Z</time>
      </trkpt>
      <trkpt lat="44.9277860" lon="7.1607880">
        <ele>1206.8</ele>
        <time>2017-07-26T13:21:05Z</time>
      </trkpt>
      <trkpt lat="44.9277370" lon="7.1607980">
        <ele>1207.4</ele>
        <time>2017-07-26T13:21:07Z</time>
      </trkpt>
      <trkpt lat="44.9277270" lon="7.1608270">
        <ele>1207.6</ele>
        <time>2017-07-26T13:21:08Z</time>
      </trkpt>
      <trkpt lat="44.9277440" lon="7.1608590">
        <ele>1208.0</ele>
        <time>2017-07-26T13:21:09Z</time>
      </trkpt>
      <trkpt lat="44.9277660" lon="7.1608840">
        <ele>1208.2</ele>
        <time>2017-07-26T13:21:10Z</time>
      </trkpt>
      <trkpt lat="44.9278310" lon="7.1609620">
        <ele>1209.4</ele>
        <time>2017-07-26T13:21:13Z</time>
      </trkpt>
      <trkpt lat="44.9278650" lon="7.1610190">
        <ele>1210.4</ele>
        <time>2017-07-26T13:21:15Z</time>
      </trkpt>
      <trkpt lat="44.9278800" lon="7.1610460">
        <ele>1211.0</ele>
        <time>2017-07-26T13:21:16Z</time>
      </trkpt>
      <trkpt lat="44.9279060" lon="7.1611010">
        <ele>1212.0</ele>
        <time>2017-07-26T13:21:18Z</time>
      </trkpt>
      <trkpt lat="44.9279080" lon="7.1611350">
        <ele>1212.6</ele>
        <time>2017-07-26T13:21:19Z</time>
      </trkpt>
      <trkpt lat="44.9279210" lon="7.1612090">
        <ele>1213.2</ele>
        <time>2017-07-26T13:21:21Z</time>
      </trkpt>
      <trkpt lat="44.9279300" lon="7.1612430">
        <ele>1213.6</ele>
        <time>2017-07-26T13:21:22Z</time>
      </trkpt>
      <trkpt lat="44.9279510" lon="7.1613120">
        <ele>1214.4</ele>
        <time>2017-07-26T13:21:24Z</time>
      </trkpt>
      <trkpt lat="44.9279760" lon="7.1614460">
        <ele>1215.4</ele>
        <time>2017-07-26T13:21:28Z</time>
      </trkpt>
      <trkpt lat="44.9279970" lon="7.1615740">
        <ele>1216.0</ele>
        <time>2017-07-26T13:21:32Z</time>
      </trkpt>
      <trkpt lat="44.9280100" lon="7.1617050">
        <ele>1216.6</ele>
        <time>2017-07-26T13:21:36Z</time>
      </trkpt>
      <trkpt lat="44.9280270" lon="7.1617610">
        <ele>1216.8</ele>
        <time>2017-07-26T13:21:38Z</time>
      </trkpt>
      <trkpt lat="44.9280340" lon="7.1619760">
        <ele>1217.8</ele>
        <time>2017-07-26T13:21:45Z</time>
      </trkpt>
      <trkpt lat="44.9280450" lon="7.1620660">
        <ele>1218.8</ele>
        <time>2017-07-26T13:21:48Z</time>
      </trkpt>
      <trkpt lat="44.9280500" lon="7.1621620">
        <ele>1220.0</ele>
        <time>2017-07-26T13:21:51Z</time>
      </trkpt>
      <trkpt lat="44.9280550" lon="7.1622260">
        <ele>1220.6</ele>
        <time>2017-07-26T13:21:53Z</time>
      </trkpt>
      <trkpt lat="44.9280560" lon="7.1622610">
        <ele>1221.2</ele>
        <time>2017-07-26T13:21:54Z</time>
      </trkpt>
      <trkpt lat="44.9280480" lon="7.1623640">
        <ele>1223.2</ele>
        <time>2017-07-26T13:21:57Z</time>
      </trkpt>
      <trkpt lat="44.9280380" lon="7.1624440">
        <ele>1224.6</ele>
        <time>2017-07-26T13:22:00Z</time>
      </trkpt>
      <trkpt lat="44.9280220" lon="7.1625320">
        <ele>1225.6</ele>
        <time>2017-07-26T13:22:03Z</time>
      </trkpt>
      <trkpt lat="44.9280090" lon="7.1626280">
        <ele>1226.2</ele>
        <time>2017-07-26T13:22:06Z</time>
      </trkpt>
      <trkpt lat="44.9279980" lon="7.1626880">
        <ele>1226.8</ele>
        <time>2017-07-26T13:22:08Z</time>
      </trkpt>
      <trkpt lat="44.9279780" lon="7.1627730">
        <ele>1227.8</ele>
        <time>2017-07-26T13:22:11Z</time>
      </trkpt>
      <trkpt lat="44.9279530" lon="7.1628480">
        <ele>1228.8</ele>
        <time>2017-07-26T13:22:14Z</time>
      </trkpt>
      <trkpt lat="44.9279430" lon="7.1628720">
        <ele>1229.2</ele>
        <time>2017-07-26T13:22:15Z</time>
      </trkpt>
      <trkpt lat="44.9279220" lon="7.1629840">
        <ele>1230.4</ele>
        <time>2017-07-26T13:22:18Z</time>
      </trkpt>
      <trkpt lat="44.9279060" lon="7.1630550">
        <ele>1231.2</ele>
        <time>2017-07-26T13:22:20Z</time>
      </trkpt>
      <trkpt lat="44.9279000" lon="7.1630870">
        <ele>1232.0</ele>
        <time>2017-07-26T13:22:21Z</time>
      </trkpt>
      <trkpt lat="44.9278740" lon="7.1631830">
        <ele>1233.2</ele>
        <time>2017-07-26T13:22:24Z</time>
      </trkpt>
      <trkpt lat="44.9278360" lon="7.1632350">
        <ele>1234.2</ele>
        <time>2017-07-26T13:22:27Z</time>
      </trkpt>
      <trkpt lat="44.9277850" lon="7.1631670">
        <ele>1235.6</ele>
        <time>2017-07-26T13:22:31Z</time>
      </trkpt>
      <trkpt lat="44.9277880" lon="7.1631040">
        <ele>1236.2</ele>
        <time>2017-07-26T13:22:33Z</time>
      </trkpt>
      <trkpt lat="44.9277900" lon="7.1630590">
        <ele>1236.8</ele>
        <time>2017-07-26T13:22:35Z</time>
      </trkpt>
      <trkpt lat="44.9277900" lon="7.1630370">
        <ele>1237.0</ele>
        <time>2017-07-26T13:22:36Z</time>
      </trkpt>
      <trkpt lat="44.9277620" lon="7.1629380">
        <ele>1237.8</ele>
        <time>2017-07-26T13:22:40Z</time>
      </trkpt>
      <trkpt lat="44.9277510" lon="7.1629110">
        <ele>1238.2</ele>
        <time>2017-07-26T13:22:41Z</time>
      </trkpt>
      <trkpt lat="44.9277360" lon="7.1628840">
        <ele>1238.4</ele>
        <time>2017-07-26T13:22:42Z</time>
      </trkpt>
      <trkpt lat="44.9277140" lon="7.1628360">
        <ele>1238.8</ele>
        <time>2017-07-26T13:22:44Z</time>
      </trkpt>
      <trkpt lat="44.9276890" lon="7.1627750">
        <ele>1239.4</ele>
        <time>2017-07-26T13:22:46Z</time>
      </trkpt>
      <trkpt lat="44.9276440" lon="7.1627040">
        <ele>1240.0</ele>
        <time>2017-07-26T13:22:49Z</time>
      </trkpt>
      <trkpt lat="44.9275700" lon="7.1625320">
        <ele>1241.2</ele>
        <time>2017-07-26T13:22:54Z</time>
      </trkpt>
      <trkpt lat="44.9275560" lon="7.1624940">
        <ele>1241.4</ele>
        <time>2017-07-26T13:22:55Z</time>
      </trkpt>
      <trkpt lat="44.9275050" lon="7.1624160">
        <ele>1242.2</ele>
        <time>2017-07-26T13:22:58Z</time>
      </trkpt>
      <trkpt lat="44.9274520" lon="7.1623670">
        <ele>1242.8</ele>
        <time>2017-07-26T13:23:01Z</time>
      </trkpt>
      <trkpt lat="44.9273610" lon="7.1622990">
        <ele>1243.4</ele>
        <time>2017-07-26T13:23:05Z</time>
      </trkpt>
      <trkpt lat="44.9273170" lon="7.1622650">
        <ele>1243.6</ele>
        <time>2017-07-26T13:23:07Z</time>
      </trkpt>
      <trkpt lat="44.9271970" lon="7.1621470">
        <ele>1244.2</ele>
        <time>2017-07-26T13:23:14Z</time>
      </trkpt>
      <trkpt lat="44.9271820" lon="7.1621310">
        <ele>1244.4</ele>
        <time>2017-07-26T13:23:15Z</time>
      </trkpt>
      <trkpt lat="44.9270800" lon="7.1620330">
        <ele>1244.2</ele>
        <time>2017-07-26T13:23:21Z</time>
      </trkpt>
      <trkpt lat="44.9269480" lon="7.1619390">
        <ele>1245.2</ele>
        <time>2017-07-26T13:23:27Z</time>
      </trkpt>
      <trkpt lat="44.9269010" lon="7.1619040">
        <ele>1245.6</ele>
        <time>2017-07-26T13:23:29Z</time>
      </trkpt>
      <trkpt lat="44.9268400" lon="7.1618560">
        <ele>1246.8</ele>
        <time>2017-07-26T13:23:32Z</time>
      </trkpt>
      <trkpt lat="44.9267960" lon="7.1618300">
        <ele>1247.4</ele>
        <time>2017-07-26T13:23:34Z</time>
      </trkpt>
      <trkpt lat="44.9266750" lon="7.1617690">
        <ele>1247.8</ele>
        <time>2017-07-26T13:23:39Z</time>
      </trkpt>
      <trkpt lat="44.9266070" lon="7.1617330">
        <ele>1248.4</ele>
        <time>2017-07-26T13:23:42Z</time>
      </trkpt>
      <trkpt lat="44.9265690" lon="7.1617050">
        <ele>1249.2</ele>
        <time>2017-07-26T13:23:44Z</time>
      </trkpt>
      <trkpt lat="44.9265220" lon="7.1616620">
        <ele>1250.4</ele>
        <time>2017-07-26T13:23:47Z</time>
      </trkpt>
      <trkpt lat="44.9265050" lon="7.1616480">
        <ele>1250.8</ele>
        <time>2017-07-26T13:23:48Z</time>
      </trkpt>
      <trkpt lat="44.9264570" lon="7.1615920">
        <ele>1251.8</ele>
        <time>2017-07-26T13:23:51Z</time>
      </trkpt>
      <trkpt lat="44.9263930" lon="7.1614890">
        <ele>1253.0</ele>
        <time>2017-07-26T13:23:55Z</time>
      </trkpt>
      <trkpt lat="44.9263550" lon="7.1614370">
        <ele>1254.2</ele>
        <time>2017-07-26T13:23:57Z</time>
      </trkpt>
      <trkpt lat="44.9262760" lon="7.1613140">
        <ele>1255.0</ele>
        <time>2017-07-26T13:24:02Z</time>
      </trkpt>
      <trkpt lat="44.9262420" lon="7.1612680">
        <ele>1255.4</ele>
        <time>2017-07-26T13:24:04Z</time>
      </trkpt>
      <trkpt lat="44.9261590" lon="7.1611750">
        <ele>1255.6</ele>
        <time>2017-07-26T13:24:09Z</time>
      </trkpt>
      <trkpt lat="44.9261390" lon="7.1611730">
        <ele>1255.8</ele>
        <time>2017-07-26T13:24:10Z</time>
      </trkpt>
      <trkpt lat="44.9261140" lon="7.1612220">
        <ele>1256.0</ele>
        <time>2017-07-26T13:24:13Z</time>
      </trkpt>
      <trkpt lat="44.9261350" lon="7.1613060">
        <ele>1256.4</ele>
        <time>2017-07-26T13:24:16Z</time>
      </trkpt>
      <trkpt lat="44.9261450" lon="7.1613720">
        <ele>1256.8</ele>
        <time>2017-07-26T13:24:18Z</time>
      </trkpt>
      <trkpt lat="44.9261550" lon="7.1614430">
        <ele>1257.8</ele>
        <time>2017-07-26T13:24:20Z</time>
      </trkpt>
      <trkpt lat="44.9261620" lon="7.1615100">
        <ele>1259.0</ele>
        <time>2017-07-26T13:24:22Z</time>
      </trkpt>
      <trkpt lat="44.9261690" lon="7.1616160">
        <ele>1260.2</ele>
        <time>2017-07-26T13:24:25Z</time>
      </trkpt>
      <trkpt lat="44.9261810" lon="7.1616860">
        <ele>1261.0</ele>
        <time>2017-07-26T13:24:27Z</time>
      </trkpt>
      <trkpt lat="44.9261910" lon="7.1617160">
        <ele>1261.6</ele>
        <time>2017-07-26T13:24:28Z</time>
      </trkpt>
      <trkpt lat="44.9262040" lon="7.1617820">
        <ele>1262.6</ele>
        <time>2017-07-26T13:24:30Z</time>
      </trkpt>
      <trkpt lat="44.9262260" lon="7.1618880">
        <ele>1264.0</ele>
        <time>2017-07-26T13:24:33Z</time>
      </trkpt>
      <trkpt lat="44.9262340" lon="7.1619170">
        <ele>1264.4</ele>
        <time>2017-07-26T13:24:34Z</time>
      </trkpt>
      <trkpt lat="44.9262460" lon="7.1619500">
        <ele>1265.0</ele>
        <time>2017-07-26T13:24:35Z</time>
      </trkpt>
      <trkpt lat="44.9262650" lon="7.1620330">
        <ele>1266.4</ele>
        <time>2017-07-26T13:24:38Z</time>
      </trkpt>
      <trkpt lat="44.9262860" lon="7.1620890">
        <ele>1267.2</ele>
        <time>2017-07-26T13:24:40Z</time>
      </trkpt>
      <trkpt lat="44.9262950" lon="7.1621190">
        <ele>1267.6</ele>
        <time>2017-07-26T13:24:41Z</time>
      </trkpt>
      <trkpt lat="44.9263160" lon="7.1621810">
        <ele>1268.6</ele>
        <time>2017-07-26T13:24:43Z</time>
      </trkpt>
      <trkpt lat="44.9263380" lon="7.1622400">
        <ele>1269.8</ele>
        <time>2017-07-26T13:24:45Z</time>
      </trkpt>
      <trkpt lat="44.9263850" lon="7.1623230">
        <ele>1270.8</ele>
        <time>2017-07-26T13:24:49Z</time>
      </trkpt>
      <trkpt lat="44.9263890" lon="7.1623460">
        <ele>1271.0</ele>
        <time>2017-07-26T13:24:50Z</time>
      </trkpt>
      <trkpt lat="44.9264040" lon="7.1624810">
        <ele>1271.8</ele>
        <time>2017-07-26T13:24:55Z</time>
      </trkpt>
      <trkpt lat="44.9264120" lon="7.1625080">
        <ele>1272.0</ele>
        <time>2017-07-26T13:24:56Z</time>
      </trkpt>
      <trkpt lat="44.9264510" lon="7.1626100">
        <ele>1273.2</ele>
        <time>2017-07-26T13:25:01Z</time>
      </trkpt>
      <trkpt lat="44.9264580" lon="7.1626350">
        <ele>1273.4</ele>
        <time>2017-07-26T13:25:02Z</time>
      </trkpt>
      <trkpt lat="44.9264930" lon="7.1627730">
        <ele>1274.4</ele>
        <time>2017-07-26T13:25:07Z</time>
      </trkpt>
      <trkpt lat="44.9265120" lon="7.1628200">
        <ele>1275.2</ele>
        <time>2017-07-26T13:25:09Z</time>
      </trkpt>
      <trkpt lat="44.9265190" lon="7.1628440">
        <ele>1275.4</ele>
        <time>2017-07-26T13:25:10Z</time>
      </trkpt>
      <trkpt lat="44.9265310" lon="7.1628900">
        <ele>1276.0</ele>
        <time>2017-07-26T13:25:12Z</time>
      </trkpt>
      <trkpt lat="44.9265380" lon="7.1629670">
        <ele>1276.6</ele>
        <time>2017-07-26T13:25:15Z</time>
      </trkpt>
      <trkpt lat="44.9265460" lon="7.1629990">
        <ele>1276.8</ele>
        <time>2017-07-26T13:25:16Z</time>
      </trkpt>
      <trkpt lat="44.9265580" lon="7.1630590">
        <ele>1277.0</ele>
        <time>2017-07-26T13:25:18Z</time>
      </trkpt>
      <trkpt lat="44.9265660" lon="7.1631110">
        <ele>1277.6</ele>
        <time>2017-07-26T13:25:20Z</time>
      </trkpt>
      <trkpt lat="44.9265720" lon="7.1631670">
        <ele>1278.0</ele>
        <time>2017-07-26T13:25:22Z</time>
      </trkpt>
      <trkpt lat="44.9265810" lon="7.1632570">
        <ele>1279.0</ele>
        <time>2017-07-26T13:25:25Z</time>
      </trkpt>
      <trkpt lat="44.9265740" lon="7.1633570">
        <ele>1280.2</ele>
        <time>2017-07-26T13:25:29Z</time>
      </trkpt>
      <trkpt lat="44.9265680" lon="7.1634250">
        <ele>1281.2</ele>
        <time>2017-07-26T13:25:32Z</time>
      </trkpt>
      <trkpt lat="44.9265600" lon="7.1635600">
        <ele>1282.2</ele>
        <time>2017-07-26T13:25:36Z</time>
      </trkpt>
      <trkpt lat="44.9265580" lon="7.1635940">
        <ele>1282.4</ele>
        <time>2017-07-26T13:25:37Z</time>
      </trkpt>
      <trkpt lat="44.9265450" lon="7.1637420">
        <ele>1283.6</ele>
        <time>2017-07-26T13:25:41Z</time>
      </trkpt>
      <trkpt lat="44.9265280" lon="7.1638040">
        <ele>1284.2</ele>
        <time>2017-07-26T13:25:43Z</time>
      </trkpt>
      <trkpt lat="44.9265270" lon="7.1638300">
        <ele>1284.6</ele>
        <time>2017-07-26T13:25:44Z</time>
      </trkpt>
      <trkpt lat="44.9265180" lon="7.1639930">
        <ele>1285.6</ele>
        <time>2017-07-26T13:25:49Z</time>
      </trkpt>
      <trkpt lat="44.9265030" lon="7.1641180">
        <ele>1286.8</ele>
        <time>2017-07-26T13:25:53Z</time>
      </trkpt>
      <trkpt lat="44.9264980" lon="7.1642130">
        <ele>1287.6</ele>
        <time>2017-07-26T13:25:56Z</time>
      </trkpt>
      <trkpt lat="44.9264960" lon="7.1642460">
        <ele>1288.2</ele>
        <time>2017-07-26T13:25:57Z</time>
      </trkpt>
      <trkpt lat="44.9264930" lon="7.1643470">
        <ele>1289.2</ele>
        <time>2017-07-26T13:26:01Z</time>
      </trkpt>
      <trkpt lat="44.9264850" lon="7.1643880">
        <ele>1289.8</ele>
        <time>2017-07-26T13:26:03Z</time>
      </trkpt>
      <trkpt lat="44.9264730" lon="7.1644380">
        <ele>1290.2</ele>
        <time>2017-07-26T13:26:05Z</time>
      </trkpt>
      <trkpt lat="44.9264500" lon="7.1645520">
        <ele>1291.4</ele>
        <time>2017-07-26T13:26:09Z</time>
      </trkpt>
      <trkpt lat="44.9264400" lon="7.1645800">
        <ele>1291.8</ele>
        <time>2017-07-26T13:26:10Z</time>
      </trkpt>
      <trkpt lat="44.9264070" lon="7.1646590">
        <ele>1292.6</ele>
        <time>2017-07-26T13:26:13Z</time>
      </trkpt>
      <trkpt lat="44.9263780" lon="7.1647990">
        <ele>1293.8</ele>
        <time>2017-07-26T13:26:18Z</time>
      </trkpt>
      <trkpt lat="44.9263700" lon="7.1648930">
        <ele>1295.0</ele>
        <time>2017-07-26T13:26:21Z</time>
      </trkpt>
      <trkpt lat="44.9263500" lon="7.1650890">
        <ele>1296.2</ele>
        <time>2017-07-26T13:26:27Z</time>
      </trkpt>
      <trkpt lat="44.9263240" lon="7.1652100">
        <ele>1297.2</ele>
        <time>2017-07-26T13:26:31Z</time>
      </trkpt>
      <trkpt lat="44.9262980" lon="7.1653160">
        <ele>1298.4</ele>
        <time>2017-07-26T13:26:35Z</time>
      </trkpt>
      <trkpt lat="44.9262900" lon="7.1653440">
        <ele>1298.6</ele>
        <time>2017-07-26T13:26:36Z</time>
      </trkpt>
      <trkpt lat="44.9262830" lon="7.1653640">
        <ele>1299.0</ele>
        <time>2017-07-26T13:26:37Z</time>
      </trkpt>
      <trkpt lat="44.9262680" lon="7.1654210">
        <ele>1299.6</ele>
        <time>2017-07-26T13:26:39Z</time>
      </trkpt>
      <trkpt lat="44.9262390" lon="7.1654990">
        <ele>1300.4</ele>
        <time>2017-07-26T13:26:42Z</time>
      </trkpt>
      <trkpt lat="44.9262340" lon="7.1655260">
        <ele>1300.8</ele>
        <time>2017-07-26T13:26:43Z</time>
      </trkpt>
      <trkpt lat="44.9262180" lon="7.1656210">
        <ele>1301.8</ele>
        <time>2017-07-26T13:26:46Z</time>
      </trkpt>
      <trkpt lat="44.9262120" lon="7.1657170">
        <ele>1302.6</ele>
        <time>2017-07-26T13:26:49Z</time>
      </trkpt>
      <trkpt lat="44.9262120" lon="7.1657510">
        <ele>1303.0</ele>
        <time>2017-07-26T13:26:50Z</time>
      </trkpt>
      <trkpt lat="44.9261940" lon="7.1659210">
        <ele>1304.0</ele>
        <time>2017-07-26T13:26:54Z</time>
      </trkpt>
      <trkpt lat="44.9261900" lon="7.1660420">
        <ele>1305.0</ele>
        <time>2017-07-26T13:26:57Z</time>
      </trkpt>
      <trkpt lat="44.9261880" lon="7.1660700">
        <ele>1305.2</ele>
        <time>2017-07-26T13:26:58Z</time>
      </trkpt>
      <trkpt lat="44.9261740" lon="7.1661910">
        <ele>1306.2</ele>
        <time>2017-07-26T13:27:02Z</time>
      </trkpt>
      <trkpt lat="44.9261670" lon="7.1662500">
        <ele>1306.4</ele>
        <time>2017-07-26T13:27:04Z</time>
      </trkpt>
      <trkpt lat="44.9261490" lon="7.1663550">
        <ele>1307.2</ele>
        <time>2017-07-26T13:27:08Z</time>
      </trkpt>
      <trkpt lat="44.9261390" lon="7.1664240">
        <ele>1307.2</ele>
        <time>2017-07-26T13:27:10Z</time>
      </trkpt>
      <trkpt lat="44.9261300" lon="7.1665660">
        <ele>1307.4</ele>
        <time>2017-07-26T13:27:14Z</time>
      </trkpt>
      <trkpt lat="44.9261270" lon="7.1666800">
        <ele>1307.6</ele>
        <time>2017-07-26T13:27:17Z</time>
      </trkpt>
      <trkpt lat="44.9261390" lon="7.1667820">
        <ele>1308.4</ele>
        <time>2017-07-26T13:27:20Z</time>
      </trkpt>
      <trkpt lat="44.9261200" lon="7.1668750">
        <ele>1309.2</ele>
        <time>2017-07-26T13:27:23Z</time>
      </trkpt>
      <trkpt lat="44.9261090" lon="7.1669100">
        <ele>1309.6</ele>
        <time>2017-07-26T13:27:24Z</time>
      </trkpt>
      <trkpt lat="44.9260790" lon="7.1670440">
        <ele>1310.6</ele>
        <time>2017-07-26T13:27:28Z</time>
      </trkpt>
      <trkpt lat="44.9260750" lon="7.1670780">
        <ele>1310.8</ele>
        <time>2017-07-26T13:27:29Z</time>
      </trkpt>
      <trkpt lat="44.9260620" lon="7.1671820">
        <ele>1311.8</ele>
        <time>2017-07-26T13:27:32Z</time>
      </trkpt>
      <trkpt lat="44.9260490" lon="7.1673020">
        <ele>1313.0</ele>
        <time>2017-07-26T13:27:36Z</time>
      </trkpt>
      <trkpt lat="44.9260250" lon="7.1674160">
        <ele>1314.0</ele>
        <time>2017-07-26T13:27:40Z</time>
      </trkpt>
      <trkpt lat="44.9260240" lon="7.1675400">
        <ele>1315.2</ele>
        <time>2017-07-26T13:27:44Z</time>
      </trkpt>
      <trkpt lat="44.9260450" lon="7.1676630">
        <ele>1316.2</ele>
        <time>2017-07-26T13:27:48Z</time>
      </trkpt>
      <trkpt lat="44.9260740" lon="7.1677460">
        <ele>1316.8</ele>
        <time>2017-07-26T13:27:51Z</time>
      </trkpt>
      <trkpt lat="44.9260850" lon="7.1677790">
        <ele>1317.2</ele>
        <time>2017-07-26T13:27:52Z</time>
      </trkpt>
      <trkpt lat="44.9261340" lon="7.1679620">
        <ele>1318.0</ele>
        <time>2017-07-26T13:27:58Z</time>
      </trkpt>
      <trkpt lat="44.9261420" lon="7.1680250">
        <ele>1318.4</ele>
        <time>2017-07-26T13:28:00Z</time>
      </trkpt>
      <trkpt lat="44.9261810" lon="7.1681620">
        <ele>1319.4</ele>
        <time>2017-07-26T13:28:04Z</time>
      </trkpt>
      <trkpt lat="44.9262150" lon="7.1683170">
        <ele>1320.4</ele>
        <time>2017-07-26T13:28:09Z</time>
      </trkpt>
      <trkpt lat="44.9262210" lon="7.1683430">
        <ele>1320.6</ele>
        <time>2017-07-26T13:28:10Z</time>
      </trkpt>
      <trkpt lat="44.9262350" lon="7.1684060">
        <ele>1321.2</ele>
        <time>2017-07-26T13:28:12Z</time>
      </trkpt>
      <trkpt lat="44.9262420" lon="7.1684390">
        <ele>1321.4</ele>
        <time>2017-07-26T13:28:13Z</time>
      </trkpt>
      <trkpt lat="44.9262920" lon="7.1686130">
        <ele>1322.8</ele>
        <time>2017-07-26T13:28:18Z</time>
      </trkpt>
      <trkpt lat="44.9263010" lon="7.1686450">
        <ele>1323.0</ele>
        <time>2017-07-26T13:28:19Z</time>
      </trkpt>
      <trkpt lat="44.9263310" lon="7.1688040">
        <ele>1324.0</ele>
        <time>2017-07-26T13:28:24Z</time>
      </trkpt>
      <trkpt lat="44.9263480" lon="7.1688980">
        <ele>1324.4</ele>
        <time>2017-07-26T13:28:27Z</time>
      </trkpt>
      <trkpt lat="44.9263810" lon="7.1691710">
        <ele>1325.0</ele>
        <time>2017-07-26T13:28:35Z</time>
      </trkpt>
      <trkpt lat="44.9263870" lon="7.1692050">
        <ele>1325.2</ele>
        <time>2017-07-26T13:28:36Z</time>
      </trkpt>
      <trkpt lat="44.9264220" lon="7.1693400">
        <ele>1326.0</ele>
        <time>2017-07-26T13:28:40Z</time>
      </trkpt>
      <trkpt lat="44.9264430" lon="7.1694300">
        <ele>1326.2</ele>
        <time>2017-07-26T13:28:43Z</time>
      </trkpt>
      <trkpt lat="44.9264510" lon="7.1694560">
        <ele>1326.4</ele>
        <time>2017-07-26T13:28:44Z</time>
      </trkpt>
      <trkpt lat="44.9264800" lon="7.1695960">
        <ele>1327.6</ele>
        <time>2017-07-26T13:28:48Z</time>
      </trkpt>
      <trkpt lat="44.9265060" lon="7.1696610">
        <ele>1328.6</ele>
        <time>2017-07-26T13:28:50Z</time>
      </trkpt>
      <trkpt lat="44.9265150" lon="7.1696870">
        <ele>1329.0</ele>
        <time>2017-07-26T13:28:51Z</time>
      </trkpt>
      <trkpt lat="44.9265350" lon="7.1697710">
        <ele>1330.0</ele>
        <time>2017-07-26T13:28:54Z</time>
      </trkpt>
      <trkpt lat="44.9265490" lon="7.1698020">
        <ele>1330.4</ele>
        <time>2017-07-26T13:28:55Z</time>
      </trkpt>
      <trkpt lat="44.9265780" lon="7.1698590">
        <ele>1331.0</ele>
        <time>2017-07-26T13:28:57Z</time>
      </trkpt>
      <trkpt lat="44.9266160" lon="7.1699410">
        <ele>1332.4</ele>
        <time>2017-07-26T13:29:00Z</time>
      </trkpt>
      <trkpt lat="44.9266450" lon="7.1700050">
        <ele>1333.2</ele>
        <time>2017-07-26T13:29:02Z</time>
      </trkpt>
      <trkpt lat="44.9266600" lon="7.1700330">
        <ele>1333.4</ele>
        <time>2017-07-26T13:29:03Z</time>
      </trkpt>
      <trkpt lat="44.9267130" lon="7.1701240">
        <ele>1334.6</ele>
        <time>2017-07-26T13:29:06Z</time>
      </trkpt>
      <trkpt lat="44.9267700" lon="7.1702150">
        <ele>1336.0</ele>
        <time>2017-07-26T13:29:09Z</time>
      </trkpt>
      <trkpt lat="44.9268340" lon="7.1703040">
        <ele>1337.2</ele>
        <time>2017-07-26T13:29:13Z</time>
      </trkpt>
      <trkpt lat="44.9268630" lon="7.1703520">
        <ele>1337.6</ele>
        <time>2017-07-26T13:29:15Z</time>
      </trkpt>
      <trkpt lat="44.9268790" lon="7.1703700">
        <ele>1337.8</ele>
        <time>2017-07-26T13:29:16Z</time>
      </trkpt>
      <trkpt lat="44.9269020" lon="7.1704040">
        <ele>1338.4</ele>
        <time>2017-07-26T13:29:18Z</time>
      </trkpt>
      <trkpt lat="44.9269590" lon="7.1704860">
        <ele>1339.6</ele>
        <time>2017-07-26T13:29:22Z</time>
      </trkpt>
      <trkpt lat="44.9270170" lon="7.1705660">
        <ele>1340.8</ele>
        <time>2017-07-26T13:29:26Z</time>
      </trkpt>
      <trkpt lat="44.9270690" lon="7.1706510">
        <ele>1341.4</ele>
        <time>2017-07-26T13:29:29Z</time>
      </trkpt>
      <trkpt lat="44.9271230" lon="7.1707300">
        <ele>1342.0</ele>
        <time>2017-07-26T13:29:32Z</time>
      </trkpt>
      <trkpt lat="44.9272020" lon="7.1708590">
        <ele>1343.2</ele>
        <time>2017-07-26T13:29:37Z</time>
      </trkpt>
      <trkpt lat="44.9272180" lon="7.1708860">
        <ele>1343.6</ele>
        <time>2017-07-26T13:29:38Z</time>
      </trkpt>
      <trkpt lat="44.9272700" lon="7.1709940">
        <ele>1344.6</ele>
        <time>2017-07-26T13:29:42Z</time>
      </trkpt>
      <trkpt lat="44.9273060" lon="7.1710770">
        <ele>1345.4</ele>
        <time>2017-07-26T13:29:45Z</time>
      </trkpt>
      <trkpt lat="44.9273190" lon="7.1711150">
        <ele>1345.8</ele>
        <time>2017-07-26T13:29:46Z</time>
      </trkpt>
      <trkpt lat="44.9273710" lon="7.1712560">
        <ele>1347.0</ele>
        <time>2017-07-26T13:29:50Z</time>
      </trkpt>
      <trkpt lat="44.9273980" lon="7.1713280">
        <ele>1347.6</ele>
        <time>2017-07-26T13:29:52Z</time>
      </trkpt>
      <trkpt lat="44.9274340" lon="7.1714510">
        <ele>1348.0</ele>
        <time>2017-07-26T13:29:56Z</time>
      </trkpt>
      <trkpt lat="44.9274560" lon="7.1715830">
        <ele>1349.0</ele>
        <time>2017-07-26T13:30:00Z</time>
      </trkpt>
      <trkpt lat="44.9274640" lon="7.1716140">
        <ele>1349.2</ele>
        <time>2017-07-26T13:30:01Z</time>
      </trkpt>
      <trkpt lat="44.9275090" lon="7.1717940">
        <ele>1350.2</ele>
        <time>2017-07-26T13:30:07Z</time>
      </trkpt>
      <trkpt lat="44.9275210" lon="7.1718250">
        <ele>1350.4</ele>
        <time>2017-07-26T13:30:08Z</time>
      </trkpt>
      <trkpt lat="44.9275970" lon="7.1719770">
        <ele>1351.4</ele>
        <time>2017-07-26T13:30:13Z</time>
      </trkpt>
      <trkpt lat="44.9276220" lon="7.1720330">
        <ele>1351.8</ele>
        <time>2017-07-26T13:30:15Z</time>
      </trkpt>
      <trkpt lat="44.9276600" lon="7.1721140">
        <ele>1352.4</ele>
        <time>2017-07-26T13:30:18Z</time>
      </trkpt>
      <trkpt lat="44.9277000" lon="7.1722000">
        <ele>1353.6</ele>
        <time>2017-07-26T13:30:21Z</time>
      </trkpt>
      <trkpt lat="44.9277140" lon="7.1722270">
        <ele>1353.8</ele>
        <time>2017-07-26T13:30:22Z</time>
      </trkpt>
      <trkpt lat="44.9277600" lon="7.1723120">
        <ele>1354.8</ele>
        <time>2017-07-26T13:30:25Z</time>
      </trkpt>
      <trkpt lat="44.9278160" lon="7.1724240">
        <ele>1355.6</ele>
        <time>2017-07-26T13:30:29Z</time>
      </trkpt>
      <trkpt lat="44.9278280" lon="7.1724510">
        <ele>1356.0</ele>
        <time>2017-07-26T13:30:30Z</time>
      </trkpt>
      <trkpt lat="44.9279070" lon="7.1725990">
        <ele>1357.0</ele>
        <time>2017-07-26T13:30:35Z</time>
      </trkpt>
      <trkpt lat="44.9279190" lon="7.1726280">
        <ele>1357.4</ele>
        <time>2017-07-26T13:30:36Z</time>
      </trkpt>
      <trkpt lat="44.9279740" lon="7.1727420">
        <ele>1358.2</ele>
        <time>2017-07-26T13:30:40Z</time>
      </trkpt>
      <trkpt lat="44.9280100" lon="7.1728550">
        <ele>1359.2</ele>
        <time>2017-07-26T13:30:44Z</time>
      </trkpt>
      <trkpt lat="44.9280180" lon="7.1728890">
        <ele>1359.6</ele>
        <time>2017-07-26T13:30:45Z</time>
      </trkpt>
      <trkpt lat="44.9280340" lon="7.1729580">
        <ele>1360.2</ele>
        <time>2017-07-26T13:30:47Z</time>
      </trkpt>
      <trkpt lat="44.9280550" lon="7.1730530">
        <ele>1361.4</ele>
        <time>2017-07-26T13:30:50Z</time>
      </trkpt>
      <trkpt lat="44.9280790" lon="7.1731060">
        <ele>1362.0</ele>
        <time>2017-07-26T13:30:52Z</time>
      </trkpt>
      <trkpt lat="44.9281180" lon="7.1731510">
        <ele>1362.4</ele>
        <time>2017-07-26T13:30:54Z</time>
      </trkpt>
      <trkpt lat="44.9281860" lon="7.1732050">
        <ele>1363.6</ele>
        <time>2017-07-26T13:30:57Z</time>
      </trkpt>
      <trkpt lat="44.9282120" lon="7.1732250">
        <ele>1363.8</ele>
        <time>2017-07-26T13:30:58Z</time>
      </trkpt>
      <trkpt lat="44.9282980" lon="7.1732960">
        <ele>1364.8</ele>
        <time>2017-07-26T13:31:01Z</time>
      </trkpt>
      <trkpt lat="44.9284030" lon="7.1733900">
        <ele>1365.6</ele>
        <time>2017-07-26T13:31:05Z</time>
      </trkpt>
      <trkpt lat="44.9285330" lon="7.1734430">
        <ele>1365.6</ele>
        <time>2017-07-26T13:31:10Z</time>
      </trkpt>
      <trkpt lat="44.9285550" lon="7.1734580">
        <ele>1365.8</ele>
        <time>2017-07-26T13:31:11Z</time>
      </trkpt>
      <trkpt lat="44.9285710" lon="7.1734780">
        <ele>1366.0</ele>
        <time>2017-07-26T13:31:12Z</time>
      </trkpt>
      <trkpt lat="44.9286740" lon="7.1735630">
        <ele>1367.0</ele>
        <time>2017-07-26T13:31:17Z</time>
      </trkpt>
      <trkpt lat="44.9287430" lon="7.1736610">
        <ele>1368.4</ele>
        <time>2017-07-26T13:31:21Z</time>
      </trkpt>
      <trkpt lat="44.9287910" lon="7.1737470">
        <ele>1369.2</ele>
        <time>2017-07-26T13:31:24Z</time>
      </trkpt>
      <trkpt lat="44.9288080" lon="7.1737750">
        <ele>1369.6</ele>
        <time>2017-07-26T13:31:25Z</time>
      </trkpt>
      <trkpt lat="44.9288610" lon="7.1738750">
        <ele>1370.8</ele>
        <time>2017-07-26T13:31:28Z</time>
      </trkpt>
      <trkpt lat="44.9289140" lon="7.1739630">
        <ele>1371.8</ele>
        <time>2017-07-26T13:31:31Z</time>
      </trkpt>
      <trkpt lat="44.9289340" lon="7.1739910">
        <ele>1372.2</ele>
        <time>2017-07-26T13:31:32Z</time>
      </trkpt>
      <trkpt lat="44.9289720" lon="7.1740500">
        <ele>1373.4</ele>
        <time>2017-07-26T13:31:34Z</time>
      </trkpt>
      <trkpt lat="44.9290430" lon="7.1741250">
        <ele>1374.4</ele>
        <time>2017-07-26T13:31:37Z</time>
      </trkpt>
      <trkpt lat="44.9291610" lon="7.1742280">
        <ele>1375.4</ele>
        <time>2017-07-26T13:31:43Z</time>
      </trkpt>
      <trkpt lat="44.9291990" lon="7.1742710">
        <ele>1375.6</ele>
        <time>2017-07-26T13:31:45Z</time>
      </trkpt>
      <trkpt lat="44.9292170" lon="7.1742970">
        <ele>1375.8</ele>
        <time>2017-07-26T13:31:46Z</time>
      </trkpt>
      <trkpt lat="44.9292690" lon="7.1743920">
        <ele>1376.6</ele>
        <time>2017-07-26T13:31:49Z</time>
      </trkpt>
      <trkpt lat="44.9293060" lon="7.1744330">
        <ele>1377.0</ele>
        <time>2017-07-26T13:31:51Z</time>
      </trkpt>
      <trkpt lat="44.9293200" lon="7.1744500">
        <ele>1377.2</ele>
        <time>2017-07-26T13:31:52Z</time>
      </trkpt>
      <trkpt lat="44.9293500" lon="7.1745020">
        <ele>1377.6</ele>
        <time>2017-07-26T13:31:54Z</time>
      </trkpt>
      <trkpt lat="44.9293730" lon="7.1745560">
        <ele>1378.0</ele>
        <time>2017-07-26T13:31:56Z</time>
      </trkpt>
      <trkpt lat="44.9294050" lon="7.1746070">
        <ele>1378.4</ele>
        <time>2017-07-26T13:31:58Z</time>
      </trkpt>
      <trkpt lat="44.9294210" lon="7.1746280">
        <ele>1378.6</ele>
        <time>2017-07-26T13:31:59Z</time>
      </trkpt>
      <trkpt lat="44.9294380" lon="7.1746440">
        <ele>1378.8</ele>
        <time>2017-07-26T13:32:00Z</time>
      </trkpt>
      <trkpt lat="44.9294730" lon="7.1746930">
        <ele>1379.4</ele>
        <time>2017-07-26T13:32:02Z</time>
      </trkpt>
      <trkpt lat="44.9295090" lon="7.1747400">
        <ele>1379.6</ele>
        <time>2017-07-26T13:32:04Z</time>
      </trkpt>
      <trkpt lat="44.9295260" lon="7.1747590">
        <ele>1379.8</ele>
        <time>2017-07-26T13:32:05Z</time>
      </trkpt>
      <trkpt lat="44.9295680" lon="7.1748250">
        <ele>1380.8</ele>
        <time>2017-07-26T13:32:08Z</time>
      </trkpt>
      <trkpt lat="44.9296210" lon="7.1748890">
        <ele>1381.4</ele>
        <time>2017-07-26T13:32:11Z</time>
      </trkpt>
      <trkpt lat="44.9296960" lon="7.1749840">
        <ele>1382.0</ele>
        <time>2017-07-26T13:32:15Z</time>
      </trkpt>
      <trkpt lat="44.9297850" lon="7.1751290">
        <ele>1383.2</ele>
        <time>2017-07-26T13:32:20Z</time>
      </trkpt>
      <trkpt lat="44.9298370" lon="7.1752110">
        <ele>1384.4</ele>
        <time>2017-07-26T13:32:23Z</time>
      </trkpt>
      <trkpt lat="44.9298830" lon="7.1753150">
        <ele>1385.2</ele>
        <time>2017-07-26T13:32:26Z</time>
      </trkpt>
      <trkpt lat="44.9299030" lon="7.1753900">
        <ele>1385.6</ele>
        <time>2017-07-26T13:32:28Z</time>
      </trkpt>
      <trkpt lat="44.9299320" lon="7.1755400">
        <ele>1386.4</ele>
        <time>2017-07-26T13:32:32Z</time>
      </trkpt>
      <trkpt lat="44.9299440" lon="7.1755640">
        <ele>1386.6</ele>
        <time>2017-07-26T13:32:33Z</time>
      </trkpt>
      <trkpt lat="44.9299960" lon="7.1756900">
        <ele>1387.4</ele>
        <time>2017-07-26T13:32:37Z</time>
      </trkpt>
      <trkpt lat="44.9300250" lon="7.1757400">
        <ele>1387.8</ele>
        <time>2017-07-26T13:32:39Z</time>
      </trkpt>
      <trkpt lat="44.9300940" lon="7.1758780">
        <ele>1389.0</ele>
        <time>2017-07-26T13:32:44Z</time>
      </trkpt>
      <trkpt lat="44.9301610" lon="7.1759610">
        <ele>1390.2</ele>
        <time>2017-07-26T13:32:48Z</time>
      </trkpt>
      <trkpt lat="44.9302120" lon="7.1760360">
        <ele>1391.0</ele>
        <time>2017-07-26T13:32:51Z</time>
      </trkpt>
      <trkpt lat="44.9302240" lon="7.1760590">
        <ele>1391.4</ele>
        <time>2017-07-26T13:32:52Z</time>
      </trkpt>
      <trkpt lat="44.9302900" lon="7.1761600">
        <ele>1392.4</ele>
        <time>2017-07-26T13:32:56Z</time>
      </trkpt>
      <trkpt lat="44.9303200" lon="7.1762110">
        <ele>1393.0</ele>
        <time>2017-07-26T13:32:58Z</time>
      </trkpt>
      <trkpt lat="44.9303680" lon="7.1762860">
        <ele>1393.4</ele>
        <time>2017-07-26T13:33:01Z</time>
      </trkpt>
      <trkpt lat="44.9304180" lon="7.1763570">
        <ele>1394.2</ele>
        <time>2017-07-26T13:33:04Z</time>
      </trkpt>
      <trkpt lat="44.9304470" lon="7.1763830">
        <ele>1394.6</ele>
        <time>2017-07-26T13:33:06Z</time>
      </trkpt>
      <trkpt lat="44.9304990" lon="7.1764310">
        <ele>1395.6</ele>
        <time>2017-07-26T13:33:09Z</time>
      </trkpt>
      <trkpt lat="44.9305170" lon="7.1764440">
        <ele>1395.8</ele>
        <time>2017-07-26T13:33:10Z</time>
      </trkpt>
      <trkpt lat="44.9306390" lon="7.1765530">
        <ele>1396.4</ele>
        <time>2017-07-26T13:33:16Z</time>
      </trkpt>
      <trkpt lat="44.9306940" lon="7.1766160">
        <ele>1396.8</ele>
        <time>2017-07-26T13:33:19Z</time>
      </trkpt>
      <trkpt lat="44.9307760" lon="7.1766790">
        <ele>1396.8</ele>
        <time>2017-07-26T13:33:23Z</time>
      </trkpt>
      <trkpt lat="44.9309080" lon="7.1768700">
        <ele>1398.0</ele>
        <time>2017-07-26T13:33:30Z</time>
      </trkpt>
      <trkpt lat="44.9309430" lon="7.1769650">
        <ele>1399.0</ele>
        <time>2017-07-26T13:33:33Z</time>
      </trkpt>
      <trkpt lat="44.9309900" lon="7.1770840">
        <ele>1399.8</ele>
        <time>2017-07-26T13:33:37Z</time>
      </trkpt>
      <trkpt lat="44.9310090" lon="7.1771380">
        <ele>1400.0</ele>
        <time>2017-07-26T13:33:39Z</time>
      </trkpt>
      <trkpt lat="44.9310550" lon="7.1772280">
        <ele>1401.2</ele>
        <time>2017-07-26T13:33:43Z</time>
      </trkpt>
      <trkpt lat="44.9310740" lon="7.1772370">
        <ele>1401.6</ele>
        <time>2017-07-26T13:33:44Z</time>
      </trkpt>
      <trkpt lat="44.9311600" lon="7.1772740">
        <ele>1402.6</ele>
        <time>2017-07-26T13:33:48Z</time>
      </trkpt>
      <trkpt lat="44.9312170" lon="7.1772910">
        <ele>1403.6</ele>
        <time>2017-07-26T13:33:51Z</time>
      </trkpt>
      <trkpt lat="44.9312340" lon="7.1772960">
        <ele>1404.0</ele>
        <time>2017-07-26T13:33:52Z</time>
      </trkpt>
      <trkpt lat="44.9312660" lon="7.1773080">
        <ele>1405.0</ele>
        <time>2017-07-26T13:33:54Z</time>
      </trkpt>
      <trkpt lat="44.9313100" lon="7.1773740">
        <ele>1406.6</ele>
        <time>2017-07-26T13:33:57Z</time>
      </trkpt>
      <trkpt lat="44.9313200" lon="7.1774030">
        <ele>1407.0</ele>
        <time>2017-07-26T13:33:58Z</time>
      </trkpt>
      <trkpt lat="44.9313180" lon="7.1774270">
        <ele>1407.2</ele>
        <time>2017-07-26T13:33:59Z</time>
      </trkpt>
      <trkpt lat="44.9312900" lon="7.1774680">
        <ele>1408.0</ele>
        <time>2017-07-26T13:34:01Z</time>
      </trkpt>
      <trkpt lat="44.9312720" lon="7.1774800">
        <ele>1408.4</ele>
        <time>2017-07-26T13:34:02Z</time>
      </trkpt>
      <trkpt lat="44.9312260" lon="7.1774910">
        <ele>1409.2</ele>
        <time>2017-07-26T13:34:04Z</time>
      </trkpt>
      <trkpt lat="44.9311280" lon="7.1774990">
        <ele>1410.2</ele>
        <time>2017-07-26T13:34:08Z</time>
      </trkpt>
      <trkpt lat="44.9311050" lon="7.1774980">
        <ele>1410.4</ele>
        <time>2017-07-26T13:34:09Z</time>
      </trkpt>
      <trkpt lat="44.9309680" lon="7.1774300">
        <ele>1410.0</ele>
        <time>2017-07-26T13:34:15Z</time>
      </trkpt>
      <trkpt lat="44.9308430" lon="7.1773790">
        <ele>1410.2</ele>
        <time>2017-07-26T13:34:21Z</time>
      </trkpt>
      <trkpt lat="44.9307150" lon="7.1773770">
        <ele>1411.4</ele>
        <time>2017-07-26T13:34:27Z</time>
      </trkpt>
      <trkpt lat="44.9306960" lon="7.1773870">
        <ele>1411.8</ele>
        <time>2017-07-26T13:34:28Z</time>
      </trkpt>
      <trkpt lat="44.9305700" lon="7.1774000">
        <ele>1412.6</ele>
        <time>2017-07-26T13:34:34Z</time>
      </trkpt>
      <trkpt lat="44.9305490" lon="7.1774000">
        <ele>1412.8</ele>
        <time>2017-07-26T13:34:35Z</time>
      </trkpt>
      <trkpt lat="44.9304960" lon="7.1774080">
        <ele>1413.6</ele>
        <time>2017-07-26T13:34:38Z</time>
      </trkpt>
      <trkpt lat="44.9304180" lon="7.1774090">
        <ele>1413.8</ele>
        <time>2017-07-26T13:34:42Z</time>
      </trkpt>
      <trkpt lat="44.9303310" lon="7.1774150">
        <ele>1414.8</ele>
        <time>2017-07-26T13:34:46Z</time>
      </trkpt>
      <trkpt lat="44.9302600" lon="7.1774040">
        <ele>1415.8</ele>
        <time>2017-07-26T13:34:49Z</time>
      </trkpt>
      <trkpt lat="44.9302340" lon="7.1774040">
        <ele>1416.0</ele>
        <time>2017-07-26T13:34:50Z</time>
      </trkpt>
      <trkpt lat="44.9301350" lon="7.1774070">
        <ele>1417.2</ele>
        <time>2017-07-26T13:34:54Z</time>
      </trkpt>
      <trkpt lat="44.9301140" lon="7.1774020">
        <ele>1417.6</ele>
        <time>2017-07-26T13:34:55Z</time>
      </trkpt>
      <trkpt lat="44.9300720" lon="7.1773950">
        <ele>1418.2</ele>
        <time>2017-07-26T13:34:57Z</time>
      </trkpt>
      <trkpt lat="44.9299940" lon="7.1773800">
        <ele>1419.4</ele>
        <time>2017-07-26T13:35:01Z</time>
      </trkpt>
      <trkpt lat="44.9299720" lon="7.1773800">
        <ele>1419.8</ele>
        <time>2017-07-26T13:35:02Z</time>
      </trkpt>
      <trkpt lat="44.9299280" lon="7.1773790">
        <ele>1420.4</ele>
        <time>2017-07-26T13:35:04Z</time>
      </trkpt>
      <trkpt lat="44.9297980" lon="7.1773620">
        <ele>1421.2</ele>
        <time>2017-07-26T13:35:10Z</time>
      </trkpt>
      <trkpt lat="44.9297460" lon="7.1773560">
        <ele>1421.4</ele>
        <time>2017-07-26T13:35:13Z</time>
      </trkpt>
      <trkpt lat="44.9296810" lon="7.1773440">
        <ele>1422.6</ele>
        <time>2017-07-26T13:35:16Z</time>
      </trkpt>
      <trkpt lat="44.9295800" lon="7.1773200">
        <ele>1424.0</ele>
        <time>2017-07-26T13:35:21Z</time>
      </trkpt>
      <trkpt lat="44.9295450" lon="7.1773020">
        <ele>1424.4</ele>
        <time>2017-07-26T13:35:23Z</time>
      </trkpt>
      <trkpt lat="44.9295090" lon="7.1772680">
        <ele>1425.2</ele>
        <time>2017-07-26T13:35:25Z</time>
      </trkpt>
      <trkpt lat="44.9294250" lon="7.1772210">
        <ele>1426.4</ele>
        <time>2017-07-26T13:35:29Z</time>
      </trkpt>
      <trkpt lat="44.9293890" lon="7.1772010">
        <ele>1427.0</ele>
        <time>2017-07-26T13:35:31Z</time>
      </trkpt>
      <trkpt lat="44.9293700" lon="7.1771900">
        <ele>1427.4</ele>
        <time>2017-07-26T13:35:32Z</time>
      </trkpt>
      <trkpt lat="44.9293120" lon="7.1771570">
        <ele>1428.6</ele>
        <time>2017-07-26T13:35:35Z</time>
      </trkpt>
      <trkpt lat="44.9292550" lon="7.1771420">
        <ele>1428.6</ele>
        <time>2017-07-26T13:35:38Z</time>
      </trkpt>
      <trkpt lat="44.9291010" lon="7.1771000">
        <ele>1428.4</ele>
        <time>2017-07-26T13:35:45Z</time>
      </trkpt>
      <trkpt lat="44.9289310" lon="7.1770520">
        <ele>1429.8</ele>
        <time>2017-07-26T13:35:53Z</time>
      </trkpt>
      <trkpt lat="44.9288380" lon="7.1770100">
        <ele>1430.8</ele>
        <time>2017-07-26T13:35:57Z</time>
      </trkpt>
      <trkpt lat="44.9287720" lon="7.1769860">
        <ele>1432.0</ele>
        <time>2017-07-26T13:36:00Z</time>
      </trkpt>
      <trkpt lat="44.9286980" lon="7.1769860">
        <ele>1433.2</ele>
        <time>2017-07-26T13:36:03Z</time>
      </trkpt>
      <trkpt lat="44.9286250" lon="7.1769810">
        <ele>1434.4</ele>
        <time>2017-07-26T13:36:06Z</time>
      </trkpt>
      <trkpt lat="44.9285980" lon="7.1769780">
        <ele>1434.8</ele>
        <time>2017-07-26T13:36:07Z</time>
      </trkpt>
      <trkpt lat="44.9285470" lon="7.1769770">
        <ele>1435.6</ele>
        <time>2017-07-26T13:36:09Z</time>
      </trkpt>
      <trkpt lat="44.9284530" lon="7.1769850">
        <ele>1436.8</ele>
        <time>2017-07-26T13:36:13Z</time>
      </trkpt>
      <trkpt lat="44.9284230" lon="7.1770170">
        <ele>1437.4</ele>
        <time>2017-07-26T13:36:15Z</time>
      </trkpt>
      <trkpt lat="44.9284170" lon="7.1770570">
        <ele>1437.8</ele>
        <time>2017-07-26T13:36:17Z</time>
      </trkpt>
      <trkpt lat="44.9284250" lon="7.1770780">
        <ele>1438.2</ele>
        <time>2017-07-26T13:36:19Z</time>
      </trkpt>
      <trkpt lat="44.9284680" lon="7.1770840">
        <ele>1439.0</ele>
        <time>2017-07-26T13:36:22Z</time>
      </trkpt>
      <trkpt lat="44.9285270" lon="7.1771090">
        <ele>1440.2</ele>
        <time>2017-07-26T13:36:25Z</time>
      </trkpt>
      <trkpt lat="44.9285840" lon="7.1771670">
        <ele>1441.4</ele>
        <time>2017-07-26T13:36:28Z</time>
      </trkpt>
      <trkpt lat="44.9286340" lon="7.1772280">
        <ele>1442.8</ele>
        <time>2017-07-26T13:36:31Z</time>
      </trkpt>
      <trkpt lat="44.9286500" lon="7.1772460">
        <ele>1443.2</ele>
        <time>2017-07-26T13:36:32Z</time>
      </trkpt>
      <trkpt lat="44.9286900" lon="7.1772820">
        <ele>1444.0</ele>
        <time>2017-07-26T13:36:34Z</time>
      </trkpt>
      <trkpt lat="44.9287500" lon="7.1773430">
        <ele>1445.2</ele>
        <time>2017-07-26T13:36:37Z</time>
      </trkpt>
      <trkpt lat="44.9288050" lon="7.1774160">
        <ele>1446.0</ele>
        <time>2017-07-26T13:36:40Z</time>
      </trkpt>
      <trkpt lat="44.9288240" lon="7.1774410">
        <ele>1446.6</ele>
        <time>2017-07-26T13:36:41Z</time>
      </trkpt>
      <trkpt lat="44.9289050" lon="7.1775390">
        <ele>1447.6</ele>
        <time>2017-07-26T13:36:45Z</time>
      </trkpt>
      <trkpt lat="44.9289800" lon="7.1776140">
        <ele>1449.2</ele>
        <time>2017-07-26T13:36:48Z</time>
      </trkpt>
      <trkpt lat="44.9290620" lon="7.1777040">
        <ele>1450.2</ele>
        <time>2017-07-26T13:36:52Z</time>
      </trkpt>
      <trkpt lat="44.9291090" lon="7.1777560">
        <ele>1450.6</ele>
        <time>2017-07-26T13:36:54Z</time>
      </trkpt>
      <trkpt lat="44.9291610" lon="7.1778380">
        <ele>1451.2</ele>
        <time>2017-07-26T13:36:57Z</time>
      </trkpt>
      <trkpt lat="44.9292050" lon="7.1779110">
        <ele>1451.8</ele>
        <time>2017-07-26T13:37:00Z</time>
      </trkpt>
      <trkpt lat="44.9292470" lon="7.1779700">
        <ele>1452.2</ele>
        <time>2017-07-26T13:37:02Z</time>
      </trkpt>
      <trkpt lat="44.9293040" lon="7.1780910">
        <ele>1453.0</ele>
        <time>2017-07-26T13:37:06Z</time>
      </trkpt>
      <trkpt lat="44.9293270" lon="7.1781430">
        <ele>1453.4</ele>
        <time>2017-07-26T13:37:08Z</time>
      </trkpt>
      <trkpt lat="44.9293620" lon="7.1781950">
        <ele>1454.6</ele>
        <time>2017-07-26T13:37:11Z</time>
      </trkpt>
      <trkpt lat="44.9293740" lon="7.1782190">
        <ele>1454.8</ele>
        <time>2017-07-26T13:37:12Z</time>
      </trkpt>
      <trkpt lat="44.9294210" lon="7.1783140">
        <ele>1455.8</ele>
        <time>2017-07-26T13:37:16Z</time>
      </trkpt>
      <trkpt lat="44.9294650" lon="7.1783790">
        <ele>1456.0</ele>
        <time>2017-07-26T13:37:18Z</time>
      </trkpt>
      <trkpt lat="44.9295230" lon="7.1784910">
        <ele>1456.8</ele>
        <time>2017-07-26T13:37:22Z</time>
      </trkpt>
      <trkpt lat="44.9295610" lon="7.1785630">
        <ele>1457.6</ele>
        <time>2017-07-26T13:37:25Z</time>
      </trkpt>
      <trkpt lat="44.9295830" lon="7.1786160">
        <ele>1458.0</ele>
        <time>2017-07-26T13:37:27Z</time>
      </trkpt>
      <trkpt lat="44.9296330" lon="7.1787160">
        <ele>1459.2</ele>
        <time>2017-07-26T13:37:32Z</time>
      </trkpt>
      <trkpt lat="44.9296740" lon="7.1788030">
        <ele>1460.2</ele>
        <time>2017-07-26T13:37:36Z</time>
      </trkpt>
      <trkpt lat="44.9296680" lon="7.1788320">
        <ele>1460.6</ele>
        <time>2017-07-26T13:37:37Z</time>
      </trkpt>
      <trkpt lat="44.9296260" lon="7.1788480">
        <ele>1461.0</ele>
        <time>2017-07-26T13:37:40Z</time>
      </trkpt>
      <trkpt lat="44.9296100" lon="7.1788440">
        <ele>1461.0</ele>
        <time>2017-07-26T13:37:41Z</time>
      </trkpt>
      <trkpt lat="44.9295290" lon="7.1788140">
        <ele>1461.8</ele>
        <time>2017-07-26T13:37:45Z</time>
      </trkpt>
      <trkpt lat="44.9294730" lon="7.1788050">
        <ele>1462.2</ele>
        <time>2017-07-26T13:37:48Z</time>
      </trkpt>
      <trkpt lat="44.9294150" lon="7.1787770">
        <ele>1463.0</ele>
        <time>2017-07-26T13:37:51Z</time>
      </trkpt>
      <trkpt lat="44.9293650" lon="7.1787510">
        <ele>1463.8</ele>
        <time>2017-07-26T13:37:54Z</time>
      </trkpt>
      <trkpt lat="44.9293440" lon="7.1787390">
        <ele>1464.2</ele>
        <time>2017-07-26T13:37:55Z</time>
      </trkpt>
      <trkpt lat="44.9292830" lon="7.1787090">
        <ele>1465.4</ele>
        <time>2017-07-26T13:37:59Z</time>
      </trkpt>
      <trkpt lat="44.9292260" lon="7.1786860">
        <ele>1466.4</ele>
        <time>2017-07-26T13:38:02Z</time>
      </trkpt>
      <trkpt lat="44.9292020" lon="7.1786810">
        <ele>1466.8</ele>
        <time>2017-07-26T13:38:03Z</time>
      </trkpt>
      <trkpt lat="44.9291010" lon="7.1786620">
        <ele>1468.0</ele>
        <time>2017-07-26T13:38:08Z</time>
      </trkpt>
      <trkpt lat="44.9290610" lon="7.1786530">
        <ele>1468.6</ele>
        <time>2017-07-26T13:38:10Z</time>
      </trkpt>
      <trkpt lat="44.9290200" lon="7.1786610">
        <ele>1469.0</ele>
        <time>2017-07-26T13:38:12Z</time>
      </trkpt>
      <trkpt lat="44.9289590" lon="7.1786650">
        <ele>1470.0</ele>
        <time>2017-07-26T13:38:15Z</time>
      </trkpt>
      <trkpt lat="44.9289370" lon="7.1786650">
        <ele>1470.0</ele>
        <time>2017-07-26T13:38:16Z</time>
      </trkpt>
      <trkpt lat="44.9288200" lon="7.1787050">
        <ele>1471.2</ele>
        <time>2017-07-26T13:38:22Z</time>
      </trkpt>
      <trkpt lat="44.9287790" lon="7.1787150">
        <ele>1471.6</ele>
        <time>2017-07-26T13:38:24Z</time>
      </trkpt>
      <trkpt lat="44.9287200" lon="7.1787270">
        <ele>1472.2</ele>
        <time>2017-07-26T13:38:27Z</time>
      </trkpt>
      <trkpt lat="44.9286320" lon="7.1787160">
        <ele>1473.4</ele>
        <time>2017-07-26T13:38:31Z</time>
      </trkpt>
      <trkpt lat="44.9286100" lon="7.1787100">
        <ele>1473.8</ele>
        <time>2017-07-26T13:38:32Z</time>
      </trkpt>
      <trkpt lat="44.9285360" lon="7.1786690">
        <ele>1474.8</ele>
        <time>2017-07-26T13:38:36Z</time>
      </trkpt>
      <trkpt lat="44.9284810" lon="7.1786250">
        <ele>1475.0</ele>
        <time>2017-07-26T13:38:39Z</time>
      </trkpt>
      <trkpt lat="44.9283930" lon="7.1785740">
        <ele>1475.8</ele>
        <time>2017-07-26T13:38:44Z</time>
      </trkpt>
      <trkpt lat="44.9283310" lon="7.1785370">
        <ele>1476.4</ele>
        <time>2017-07-26T13:38:47Z</time>
      </trkpt>
      <trkpt lat="44.9282460" lon="7.1785130">
        <ele>1477.0</ele>
        <time>2017-07-26T13:38:50Z</time>
      </trkpt>
      <trkpt lat="44.9281310" lon="7.1784800">
        <ele>1478.0</ele>
        <time>2017-07-26T13:38:54Z</time>
      </trkpt>
      <trkpt lat="44.9281070" lon="7.1784680">
        <ele>1478.2</ele>
        <time>2017-07-26T13:38:55Z</time>
      </trkpt>
      <trkpt lat="44.9279960" lon="7.1784200">
        <ele>1479.4</ele>
        <time>2017-07-26T13:39:00Z</time>
      </trkpt>
      <trkpt lat="44.9279550" lon="7.1784000">
        <ele>1480.0</ele>
        <time>2017-07-26T13:39:02Z</time>
      </trkpt>
      <trkpt lat="44.9279170" lon="7.1783920">
        <ele>1480.4</ele>
        <time>2017-07-26T13:39:04Z</time>
      </trkpt>
      <trkpt lat="44.9278350" lon="7.1783600">
        <ele>1481.4</ele>
        <time>2017-07-26T13:39:08Z</time>
      </trkpt>
      <trkpt lat="44.9278140" lon="7.1783580">
        <ele>1481.6</ele>
        <time>2017-07-26T13:39:09Z</time>
      </trkpt>
      <trkpt lat="44.9277050" lon="7.1782850">
        <ele>1481.2</ele>
        <time>2017-07-26T13:39:15Z</time>
      </trkpt>
      <trkpt lat="44.9275500" lon="7.1782050">
        <ele>1481.6</ele>
        <time>2017-07-26T13:39:23Z</time>
      </trkpt>
      <trkpt lat="44.9275000" lon="7.1781560">
        <ele>1482.6</ele>
        <time>2017-07-26T13:39:26Z</time>
      </trkpt>
      <trkpt lat="44.9274430" lon="7.1781260">
        <ele>1483.6</ele>
        <time>2017-07-26T13:39:29Z</time>
      </trkpt>
      <trkpt lat="44.9274270" lon="7.1781120">
        <ele>1483.8</ele>
        <time>2017-07-26T13:39:30Z</time>
      </trkpt>
      <trkpt lat="44.9273460" lon="7.1780740">
        <ele>1485.0</ele>
        <time>2017-07-26T13:39:34Z</time>
      </trkpt>
      <trkpt lat="44.9273250" lon="7.1780690">
        <ele>1485.0</ele>
        <time>2017-07-26T13:39:35Z</time>
      </trkpt>
      <trkpt lat="44.9272350" lon="7.1780370">
        <ele>1486.0</ele>
        <time>2017-07-26T13:39:39Z</time>
      </trkpt>
      <trkpt lat="44.9271710" lon="7.1780050">
        <ele>1487.0</ele>
        <time>2017-07-26T13:39:42Z</time>
      </trkpt>
      <trkpt lat="44.9271510" lon="7.1780000">
        <ele>1487.2</ele>
        <time>2017-07-26T13:39:43Z</time>
      </trkpt>
      <trkpt lat="44.9270660" lon="7.1779710">
        <ele>1488.2</ele>
        <time>2017-07-26T13:39:47Z</time>
      </trkpt>
      <trkpt lat="44.9270240" lon="7.1779520">
        <ele>1488.6</ele>
        <time>2017-07-26T13:39:49Z</time>
      </trkpt>
      <trkpt lat="44.9268920" lon="7.1778910">
        <ele>1489.2</ele>
        <time>2017-07-26T13:39:56Z</time>
      </trkpt>
      <trkpt lat="44.9268650" lon="7.1778680">
        <ele>1489.4</ele>
        <time>2017-07-26T13:39:58Z</time>
      </trkpt>
      <trkpt lat="44.9267940" lon="7.1778090">
        <ele>1489.8</ele>
        <time>2017-07-26T13:40:02Z</time>
      </trkpt>
      <trkpt lat="44.9266730" lon="7.1777310">
        <ele>1490.4</ele>
        <time>2017-07-26T13:40:08Z</time>
      </trkpt>
      <trkpt lat="44.9265890" lon="7.1776530">
        <ele>1491.2</ele>
        <time>2017-07-26T13:40:13Z</time>
      </trkpt>
      <trkpt lat="44.9265560" lon="7.1776260">
        <ele>1491.4</ele>
        <time>2017-07-26T13:40:15Z</time>
      </trkpt>
      <trkpt lat="44.9264520" lon="7.1775800">
        <ele>1491.8</ele>
        <time>2017-07-26T13:40:20Z</time>
      </trkpt>
      <trkpt lat="44.9264310" lon="7.1775740">
        <ele>1492.0</ele>
        <time>2017-07-26T13:40:21Z</time>
      </trkpt>
      <trkpt lat="44.9264080" lon="7.1775620">
        <ele>1492.6</ele>
        <time>2017-07-26T13:40:22Z</time>
      </trkpt>
      <trkpt lat="44.9263530" lon="7.1775260">
        <ele>1493.8</ele>
        <time>2017-07-26T13:40:25Z</time>
      </trkpt>
      <trkpt lat="44.9263160" lon="7.1775000">
        <ele>1494.2</ele>
        <time>2017-07-26T13:40:27Z</time>
      </trkpt>
      <trkpt lat="44.9262670" lon="7.1774580">
        <ele>1495.0</ele>
        <time>2017-07-26T13:40:30Z</time>
      </trkpt>
      <trkpt lat="44.9262340" lon="7.1773980">
        <ele>1496.2</ele>
        <time>2017-07-26T13:40:33Z</time>
      </trkpt>
      <trkpt lat="44.9262170" lon="7.1773800">
        <ele>1496.8</ele>
        <time>2017-07-26T13:40:34Z</time>
      </trkpt>
      <trkpt lat="44.9261830" lon="7.1773520">
        <ele>1497.4</ele>
        <time>2017-07-26T13:40:36Z</time>
      </trkpt>
      <trkpt lat="44.9261010" lon="7.1772710">
        <ele>1497.8</ele>
        <time>2017-07-26T13:40:41Z</time>
      </trkpt>
      <trkpt lat="44.9260150" lon="7.1772040">
        <ele>1498.8</ele>
        <time>2017-07-26T13:40:45Z</time>
      </trkpt>
      <trkpt lat="44.9259710" lon="7.1771710">
        <ele>1499.6</ele>
        <time>2017-07-26T13:40:47Z</time>
      </trkpt>
      <trkpt lat="44.9259510" lon="7.1771570">
        <ele>1500.0</ele>
        <time>2017-07-26T13:40:48Z</time>
      </trkpt>
      <trkpt lat="44.9258720" lon="7.1771040">
        <ele>1501.2</ele>
        <time>2017-07-26T13:40:52Z</time>
      </trkpt>
      <trkpt lat="44.9257850" lon="7.1770530">
        <ele>1502.4</ele>
        <time>2017-07-26T13:40:56Z</time>
      </trkpt>
      <trkpt lat="44.9257030" lon="7.1770310">
        <ele>1503.4</ele>
        <time>2017-07-26T13:41:00Z</time>
      </trkpt>
      <trkpt lat="44.9256740" lon="7.1770240">
        <ele>1503.6</ele>
        <time>2017-07-26T13:41:02Z</time>
      </trkpt>
      <trkpt lat="44.9255990" lon="7.1769610">
        <ele>1504.0</ele>
        <time>2017-07-26T13:41:07Z</time>
      </trkpt>
      <trkpt lat="44.9255100" lon="7.1768990">
        <ele>1504.4</ele>
        <time>2017-07-26T13:41:12Z</time>
      </trkpt>
      <trkpt lat="44.9254920" lon="7.1768780">
        <ele>1504.4</ele>
        <time>2017-07-26T13:41:13Z</time>
      </trkpt>
      <trkpt lat="44.9254450" lon="7.1768180">
        <ele>1504.6</ele>
        <time>2017-07-26T13:41:16Z</time>
      </trkpt>
      <trkpt lat="44.9253720" lon="7.1767510">
        <ele>1505.6</ele>
        <time>2017-07-26T13:41:20Z</time>
      </trkpt>
      <trkpt lat="44.9253520" lon="7.1767390">
        <ele>1505.8</ele>
        <time>2017-07-26T13:41:21Z</time>
      </trkpt>
      <trkpt lat="44.9252510" lon="7.1766660">
        <ele>1506.8</ele>
        <time>2017-07-26T13:41:27Z</time>
      </trkpt>
      <trkpt lat="44.9252200" lon="7.1766370">
        <ele>1507.0</ele>
        <time>2017-07-26T13:41:29Z</time>
      </trkpt>
      <trkpt lat="44.9251380" lon="7.1765780">
        <ele>1508.0</ele>
        <time>2017-07-26T13:41:34Z</time>
      </trkpt>
      <trkpt lat="44.9250950" lon="7.1765370">
        <ele>1508.6</ele>
        <time>2017-07-26T13:41:37Z</time>
      </trkpt>
      <trkpt lat="44.9250670" lon="7.1765100">
        <ele>1509.0</ele>
        <time>2017-07-26T13:41:39Z</time>
      </trkpt>
      <trkpt lat="44.9249960" lon="7.1764810">
        <ele>1510.2</ele>
        <time>2017-07-26T13:41:43Z</time>
      </trkpt>
      <trkpt lat="44.9249770" lon="7.1764710">
        <ele>1510.6</ele>
        <time>2017-07-26T13:41:44Z</time>
      </trkpt>
      <trkpt lat="44.9248660" lon="7.1764330">
        <ele>1511.4</ele>
        <time>2017-07-26T13:41:49Z</time>
      </trkpt>
      <trkpt lat="44.9248240" lon="7.1764190">
        <ele>1511.8</ele>
        <time>2017-07-26T13:41:51Z</time>
      </trkpt>
      <trkpt lat="44.9247410" lon="7.1764060">
        <ele>1512.8</ele>
        <time>2017-07-26T13:41:55Z</time>
      </trkpt>
      <trkpt lat="44.9246740" lon="7.1764010">
        <ele>1513.8</ele>
        <time>2017-07-26T13:41:58Z</time>
      </trkpt>
      <trkpt lat="44.9245840" lon="7.1763870">
        <ele>1515.2</ele>
        <time>2017-07-26T13:42:02Z</time>
      </trkpt>
      <trkpt lat="44.9245230" lon="7.1763740">
        <ele>1516.4</ele>
        <time>2017-07-26T13:42:05Z</time>
      </trkpt>
      <trkpt lat="44.9245000" lon="7.1763660">
        <ele>1516.8</ele>
        <time>2017-07-26T13:42:06Z</time>
      </trkpt>
      <trkpt lat="44.9244250" lon="7.1763250">
        <ele>1517.6</ele>
        <time>2017-07-26T13:42:10Z</time>
      </trkpt>
      <trkpt lat="44.9243920" lon="7.1763030">
        <ele>1518.4</ele>
        <time>2017-07-26T13:42:12Z</time>
      </trkpt>
      <trkpt lat="44.9243740" lon="7.1762890">
        <ele>1518.8</ele>
        <time>2017-07-26T13:42:13Z</time>
      </trkpt>
      <trkpt lat="44.9243240" lon="7.1762470">
        <ele>1519.8</ele>
        <time>2017-07-26T13:42:16Z</time>
      </trkpt>
      <trkpt lat="44.9242840" lon="7.1762170">
        <ele>1520.6</ele>
        <time>2017-07-26T13:42:18Z</time>
      </trkpt>
      <trkpt lat="44.9242640" lon="7.1762030">
        <ele>1521.0</ele>
        <time>2017-07-26T13:42:19Z</time>
      </trkpt>
      <trkpt lat="44.9241630" lon="7.1761160">
        <ele>1522.2</ele>
        <time>2017-07-26T13:42:24Z</time>
      </trkpt>
      <trkpt lat="44.9241080" lon="7.1760740">
        <ele>1523.4</ele>
        <time>2017-07-26T13:42:27Z</time>
      </trkpt>
      <trkpt lat="44.9240360" lon="7.1760190">
        <ele>1524.4</ele>
        <time>2017-07-26T13:42:31Z</time>
      </trkpt>
      <trkpt lat="44.9239880" lon="7.1759620">
        <ele>1524.6</ele>
        <time>2017-07-26T13:42:34Z</time>
      </trkpt>
      <trkpt lat="44.9239610" lon="7.1759230">
        <ele>1525.2</ele>
        <time>2017-07-26T13:42:36Z</time>
      </trkpt>
      <trkpt lat="44.9239460" lon="7.1759080">
        <ele>1525.4</ele>
        <time>2017-07-26T13:42:37Z</time>
      </trkpt>
      <trkpt lat="44.9239160" lon="7.1758810">
        <ele>1525.6</ele>
        <time>2017-07-26T13:42:39Z</time>
      </trkpt>
      <trkpt lat="44.9238340" lon="7.1757750">
        <ele>1526.4</ele>
        <time>2017-07-26T13:42:45Z</time>
      </trkpt>
      <trkpt lat="44.9237930" lon="7.1757290">
        <ele>1527.6</ele>
        <time>2017-07-26T13:42:48Z</time>
      </trkpt>
      <trkpt lat="44.9237340" lon="7.1756610">
        <ele>1529.0</ele>
        <time>2017-07-26T13:42:52Z</time>
      </trkpt>
      <trkpt lat="44.9237180" lon="7.1756390">
        <ele>1529.2</ele>
        <time>2017-07-26T13:42:53Z</time>
      </trkpt>
      <trkpt lat="44.9236610" lon="7.1755960">
        <ele>1530.2</ele>
        <time>2017-07-26T13:42:56Z</time>
      </trkpt>
      <trkpt lat="44.9236000" lon="7.1755420">
        <ele>1531.2</ele>
        <time>2017-07-26T13:42:59Z</time>
      </trkpt>
      <trkpt lat="44.9235340" lon="7.1755010">
        <ele>1532.4</ele>
        <time>2017-07-26T13:43:02Z</time>
      </trkpt>
      <trkpt lat="44.9234580" lon="7.1754610">
        <ele>1533.2</ele>
        <time>2017-07-26T13:43:05Z</time>
      </trkpt>
      <trkpt lat="44.9234350" lon="7.1754490">
        <ele>1533.6</ele>
        <time>2017-07-26T13:43:06Z</time>
      </trkpt>
      <trkpt lat="44.9233440" lon="7.1753800">
        <ele>1535.2</ele>
        <time>2017-07-26T13:43:10Z</time>
      </trkpt>
      <trkpt lat="44.9233190" lon="7.1753630">
        <ele>1535.6</ele>
        <time>2017-07-26T13:43:11Z</time>
      </trkpt>
      <trkpt lat="44.9232720" lon="7.1753280">
        <ele>1536.4</ele>
        <time>2017-07-26T13:43:13Z</time>
      </trkpt>
      <trkpt lat="44.9231530" lon="7.1752060">
        <ele>1537.4</ele>
        <time>2017-07-26T13:43:19Z</time>
      </trkpt>
      <trkpt lat="44.9231350" lon="7.1751890">
        <ele>1537.6</ele>
        <time>2017-07-26T13:43:20Z</time>
      </trkpt>
      <trkpt lat="44.9230760" lon="7.1751550">
        <ele>1538.0</ele>
        <time>2017-07-26T13:43:23Z</time>
      </trkpt>
      <trkpt lat="44.9230540" lon="7.1751560">
        <ele>1538.0</ele>
        <time>2017-07-26T13:43:24Z</time>
      </trkpt>
      <trkpt lat="44.9230330" lon="7.1752280">
        <ele>1538.6</ele>
        <time>2017-07-26T13:43:28Z</time>
      </trkpt>
      <trkpt lat="44.9230570" lon="7.1752580">
        <ele>1538.6</ele>
        <time>2017-07-26T13:43:30Z</time>
      </trkpt>
      <trkpt lat="44.9230860" lon="7.1752960">
        <ele>1538.6</ele>
        <time>2017-07-26T13:43:32Z</time>
      </trkpt>
      <trkpt lat="44.9231420" lon="7.1753670">
        <ele>1539.8</ele>
        <time>2017-07-26T13:43:36Z</time>
      </trkpt>
      <trkpt lat="44.9231630" lon="7.1754050">
        <ele>1540.0</ele>
        <time>2017-07-26T13:43:38Z</time>
      </trkpt>
      <trkpt lat="44.9232240" lon="7.1755130">
        <ele>1541.0</ele>
        <time>2017-07-26T13:43:44Z</time>
      </trkpt>
      <trkpt lat="44.9232910" lon="7.1755980">
        <ele>1542.4</ele>
        <time>2017-07-26T13:43:49Z</time>
      </trkpt>
      <trkpt lat="44.9233420" lon="7.1756730">
        <ele>1543.6</ele>
        <time>2017-07-26T13:43:53Z</time>
      </trkpt>
      <trkpt lat="44.9233820" lon="7.1757280">
        <ele>1544.6</ele>
        <time>2017-07-26T13:43:56Z</time>
      </trkpt>
      <trkpt lat="44.9234150" lon="7.1757800">
        <ele>1545.6</ele>
        <time>2017-07-26T13:43:59Z</time>
      </trkpt>
      <trkpt lat="44.9234250" lon="7.1757980">
        <ele>1545.8</ele>
        <time>2017-07-26T13:44:00Z</time>
      </trkpt>
      <trkpt lat="44.9234650" lon="7.1758820">
        <ele>1547.0</ele>
        <time>2017-07-26T13:44:04Z</time>
      </trkpt>
      <trkpt lat="44.9234900" lon="7.1759590">
        <ele>1548.0</ele>
        <time>2017-07-26T13:44:07Z</time>
      </trkpt>
      <trkpt lat="44.9235010" lon="7.1759860">
        <ele>1548.2</ele>
        <time>2017-07-26T13:44:08Z</time>
      </trkpt>
      <trkpt lat="44.9235460" lon="7.1761360">
        <ele>1549.2</ele>
        <time>2017-07-26T13:44:13Z</time>
      </trkpt>
      <trkpt lat="44.9235670" lon="7.1762440">
        <ele>1550.4</ele>
        <time>2017-07-26T13:44:16Z</time>
      </trkpt>
      <trkpt lat="44.9235970" lon="7.1763670">
        <ele>1551.4</ele>
        <time>2017-07-26T13:44:19Z</time>
      </trkpt>
      <trkpt lat="44.9236090" lon="7.1764030">
        <ele>1551.8</ele>
        <time>2017-07-26T13:44:20Z</time>
      </trkpt>
      <trkpt lat="44.9236310" lon="7.1764660">
        <ele>1552.6</ele>
        <time>2017-07-26T13:44:22Z</time>
      </trkpt>
      <trkpt lat="44.9236850" lon="7.1765960">
        <ele>1554.0</ele>
        <time>2017-07-26T13:44:26Z</time>
      </trkpt>
      <trkpt lat="44.9237050" lon="7.1766210">
        <ele>1554.4</ele>
        <time>2017-07-26T13:44:27Z</time>
      </trkpt>
      <trkpt lat="44.9237400" lon="7.1766680">
        <ele>1555.0</ele>
        <time>2017-07-26T13:44:29Z</time>
      </trkpt>
      <trkpt lat="44.9238120" lon="7.1767760">
        <ele>1556.2</ele>
        <time>2017-07-26T13:44:34Z</time>
      </trkpt>
      <trkpt lat="44.9238240" lon="7.1767970">
        <ele>1556.6</ele>
        <time>2017-07-26T13:44:35Z</time>
      </trkpt>
      <trkpt lat="44.9238770" lon="7.1768880">
        <ele>1557.6</ele>
        <time>2017-07-26T13:44:39Z</time>
      </trkpt>
      <trkpt lat="44.9239070" lon="7.1769380">
        <ele>1558.0</ele>
        <time>2017-07-26T13:44:41Z</time>
      </trkpt>
      <trkpt lat="44.9239810" lon="7.1770660">
        <ele>1558.8</ele>
        <time>2017-07-26T13:44:46Z</time>
      </trkpt>
      <trkpt lat="44.9240320" lon="7.1772020">
        <ele>1559.2</ele>
        <time>2017-07-26T13:44:50Z</time>
      </trkpt>
      <trkpt lat="44.9240280" lon="7.1772290">
        <ele>1559.4</ele>
        <time>2017-07-26T13:44:51Z</time>
      </trkpt>
      <trkpt lat="44.9239630" lon="7.1772460">
        <ele>1559.2</ele>
        <time>2017-07-26T13:44:55Z</time>
      </trkpt>
      <trkpt lat="44.9239470" lon="7.1772300">
        <ele>1559.2</ele>
        <time>2017-07-26T13:44:56Z</time>
      </trkpt>
      <trkpt lat="44.9238660" lon="7.1771430">
        <ele>1558.8</ele>
        <time>2017-07-26T13:45:01Z</time>
      </trkpt>
      <trkpt lat="44.9236940" lon="7.1770430">
        <ele>1558.8</ele>
        <time>2017-07-26T13:45:09Z</time>
      </trkpt>
      <trkpt lat="44.9235490" lon="7.1769610">
        <ele>1559.6</ele>
        <time>2017-07-26T13:45:16Z</time>
      </trkpt>
      <trkpt lat="44.9235090" lon="7.1769250">
        <ele>1560.0</ele>
        <time>2017-07-26T13:45:18Z</time>
      </trkpt>
      <trkpt lat="44.9234160" lon="7.1768400">
        <ele>1560.4</ele>
        <time>2017-07-26T13:45:23Z</time>
      </trkpt>
      <trkpt lat="44.9233560" lon="7.1767910">
        <ele>1561.0</ele>
        <time>2017-07-26T13:45:26Z</time>
      </trkpt>
      <trkpt lat="44.9233070" lon="7.1767260">
        <ele>1562.0</ele>
        <time>2017-07-26T13:45:29Z</time>
      </trkpt>
      <trkpt lat="44.9232490" lon="7.1766850">
        <ele>1563.4</ele>
        <time>2017-07-26T13:45:32Z</time>
      </trkpt>
      <trkpt lat="44.9232040" lon="7.1766640">
        <ele>1564.2</ele>
        <time>2017-07-26T13:45:34Z</time>
      </trkpt>
      <trkpt lat="44.9231580" lon="7.1766410">
        <ele>1564.6</ele>
        <time>2017-07-26T13:45:36Z</time>
      </trkpt>
      <trkpt lat="44.9230640" lon="7.1766150">
        <ele>1565.6</ele>
        <time>2017-07-26T13:45:40Z</time>
      </trkpt>
      <trkpt lat="44.9230180" lon="7.1766090">
        <ele>1566.0</ele>
        <time>2017-07-26T13:45:42Z</time>
      </trkpt>
      <trkpt lat="44.9229320" lon="7.1765990">
        <ele>1566.6</ele>
        <time>2017-07-26T13:45:46Z</time>
      </trkpt>
      <trkpt lat="44.9228880" lon="7.1765820">
        <ele>1567.2</ele>
        <time>2017-07-26T13:45:48Z</time>
      </trkpt>
      <trkpt lat="44.9228260" lon="7.1765480">
        <ele>1567.8</ele>
        <time>2017-07-26T13:45:51Z</time>
      </trkpt>
      <trkpt lat="44.9227370" lon="7.1765210">
        <ele>1568.4</ele>
        <time>2017-07-26T13:45:55Z</time>
      </trkpt>
      <trkpt lat="44.9226650" lon="7.1765100">
        <ele>1569.0</ele>
        <time>2017-07-26T13:45:58Z</time>
      </trkpt>
      <trkpt lat="44.9225980" lon="7.1764960">
        <ele>1569.8</ele>
        <time>2017-07-26T13:46:01Z</time>
      </trkpt>
      <trkpt lat="44.9225530" lon="7.1764900">
        <ele>1570.0</ele>
        <time>2017-07-26T13:46:03Z</time>
      </trkpt>
      <trkpt lat="44.9224440" lon="7.1764750">
        <ele>1571.0</ele>
        <time>2017-07-26T13:46:08Z</time>
      </trkpt>
      <trkpt lat="44.9223560" lon="7.1764640">
        <ele>1572.0</ele>
        <time>2017-07-26T13:46:12Z</time>
      </trkpt>
      <trkpt lat="44.9222700" lon="7.1764720">
        <ele>1573.0</ele>
        <time>2017-07-26T13:46:16Z</time>
      </trkpt>
      <trkpt lat="44.9222470" lon="7.1764700">
        <ele>1573.2</ele>
        <time>2017-07-26T13:46:17Z</time>
      </trkpt>
      <trkpt lat="44.9221520" lon="7.1764350">
        <ele>1573.8</ele>
        <time>2017-07-26T13:46:21Z</time>
      </trkpt>
      <trkpt lat="44.9220990" lon="7.1764350">
        <ele>1574.4</ele>
        <time>2017-07-26T13:46:23Z</time>
      </trkpt>
      <trkpt lat="44.9219630" lon="7.1764280">
        <ele>1574.8</ele>
        <time>2017-07-26T13:46:27Z</time>
      </trkpt>
      <trkpt lat="44.9219190" lon="7.1764180">
        <ele>1575.0</ele>
        <time>2017-07-26T13:46:28Z</time>
      </trkpt>
      <trkpt lat="44.9217560" lon="7.1763340">
        <ele>1575.4</ele>
        <time>2017-07-26T13:46:31Z</time>
      </trkpt>
      <trkpt lat="44.9216980" lon="7.1762880">
        <ele>1575.4</ele>
        <time>2017-07-26T13:46:32Z</time>
      </trkpt>
      <trkpt lat="44.9215890" lon="7.1761770">
        <ele>1575.6</ele>
        <time>2017-07-26T13:46:34Z</time>
      </trkpt>
      <trkpt lat="44.9215380" lon="7.1761150">
        <ele>1575.6</ele>
        <time>2017-07-26T13:46:35Z</time>
      </trkpt>
      <trkpt lat="44.9214300" lon="7.1759870">
        <ele>1575.4</ele>
        <time>2017-07-26T13:46:37Z</time>
      </trkpt>
      <trkpt lat="44.9212440" lon="7.1758120">
        <ele>1575.2</ele>
        <time>2017-07-26T13:46:40Z</time>
      </trkpt>
      <trkpt lat="44.9210420" lon="7.1756200">
        <ele>1574.4</ele>
        <time>2017-07-26T13:46:43Z</time>
      </trkpt>
      <trkpt lat="44.9209790" lon="7.1755440">
        <ele>1574.2</ele>
        <time>2017-07-26T13:46:44Z</time>
      </trkpt>
      <trkpt lat="44.9209170" lon="7.1754730">
        <ele>1573.8</ele>
        <time>2017-07-26T13:46:45Z</time>
      </trkpt>
      <trkpt lat="44.9208540" lon="7.1754090">
        <ele>1573.2</ele>
        <time>2017-07-26T13:46:46Z</time>
      </trkpt>
      <trkpt lat="44.9207910" lon="7.1753500">
        <ele>1573.0</ele>
        <time>2017-07-26T13:46:47Z</time>
      </trkpt>
      <trkpt lat="44.9206820" lon="7.1752590">
        <ele>1572.6</ele>
        <time>2017-07-26T13:46:49Z</time>
      </trkpt>
      <trkpt lat="44.9206220" lon="7.1752860">
        <ele>1571.6</ele>
        <time>2017-07-26T13:46:51Z</time>
      </trkpt>
      <trkpt lat="44.9206450" lon="7.1753920">
        <ele>1571.4</ele>
        <time>2017-07-26T13:46:53Z</time>
      </trkpt>
      <trkpt lat="44.9207210" lon="7.1755240">
        <ele>1571.4</ele>
        <time>2017-07-26T13:46:55Z</time>
      </trkpt>
      <trkpt lat="44.9207650" lon="7.1756050">
        <ele>1571.2</ele>
        <time>2017-07-26T13:46:56Z</time>
      </trkpt>
      <trkpt lat="44.9208510" lon="7.1758010">
        <ele>1570.6</ele>
        <time>2017-07-26T13:46:58Z</time>
      </trkpt>
      <trkpt lat="44.9209470" lon="7.1760160">
        <ele>1569.8</ele>
        <time>2017-07-26T13:47:00Z</time>
      </trkpt>
      <trkpt lat="44.9210090" lon="7.1761230">
        <ele>1569.4</ele>
        <time>2017-07-26T13:47:01Z</time>
      </trkpt>
      <trkpt lat="44.9211210" lon="7.1763650">
        <ele>1569.2</ele>
        <time>2017-07-26T13:47:03Z</time>
      </trkpt>
      <trkpt lat="44.9212250" lon="7.1766230">
        <ele>1568.2</ele>
        <time>2017-07-26T13:47:05Z</time>
      </trkpt>
      <trkpt lat="44.9213980" lon="7.1769770">
        <ele>1566.6</ele>
        <time>2017-07-26T13:47:08Z</time>
      </trkpt>
      <trkpt lat="44.9214480" lon="7.1771010">
        <ele>1565.8</ele>
        <time>2017-07-26T13:47:09Z</time>
      </trkpt>
      <trkpt lat="44.9214950" lon="7.1772350">
        <ele>1565.2</ele>
        <time>2017-07-26T13:47:10Z</time>
      </trkpt>
      <trkpt lat="44.9215310" lon="7.1773810">
        <ele>1565.0</ele>
        <time>2017-07-26T13:47:11Z</time>
      </trkpt>
      <trkpt lat="44.9215730" lon="7.1776910">
        <ele>1563.8</ele>
        <time>2017-07-26T13:47:13Z</time>
      </trkpt>
      <trkpt lat="44.9215890" lon="7.1778510">
        <ele>1562.8</ele>
        <time>2017-07-26T13:47:14Z</time>
      </trkpt>
      <trkpt lat="44.9216210" lon="7.1780010">
        <ele>1562.0</ele>
        <time>2017-07-26T13:47:15Z</time>
      </trkpt>
      <trkpt lat="44.9216630" lon="7.1781400">
        <ele>1560.8</ele>
        <time>2017-07-26T13:47:16Z</time>
      </trkpt>
      <trkpt lat="44.9217090" lon="7.1782630">
        <ele>1560.0</ele>
        <time>2017-07-26T13:47:17Z</time>
      </trkpt>
      <trkpt lat="44.9217470" lon="7.1783800">
        <ele>1559.2</ele>
        <time>2017-07-26T13:47:18Z</time>
      </trkpt>
      <trkpt lat="44.9217830" lon="7.1786250">
        <ele>1557.8</ele>
        <time>2017-07-26T13:47:20Z</time>
      </trkpt>
      <trkpt lat="44.9217930" lon="7.1787520">
        <ele>1556.8</ele>
        <time>2017-07-26T13:47:21Z</time>
      </trkpt>
      <trkpt lat="44.9218140" lon="7.1788800">
        <ele>1555.8</ele>
        <time>2017-07-26T13:47:22Z</time>
      </trkpt>
      <trkpt lat="44.9218430" lon="7.1790080">
        <ele>1555.0</ele>
        <time>2017-07-26T13:47:23Z</time>
      </trkpt>
      <trkpt lat="44.9218790" lon="7.1791460">
        <ele>1554.0</ele>
        <time>2017-07-26T13:47:24Z</time>
      </trkpt>
      <trkpt lat="44.9219190" lon="7.1792930">
        <ele>1553.2</ele>
        <time>2017-07-26T13:47:25Z</time>
      </trkpt>
      <trkpt lat="44.9219900" lon="7.1795790">
        <ele>1551.6</ele>
        <time>2017-07-26T13:47:27Z</time>
      </trkpt>
      <trkpt lat="44.9220180" lon="7.1797090">
        <ele>1550.4</ele>
        <time>2017-07-26T13:47:28Z</time>
      </trkpt>
      <trkpt lat="44.9220330" lon="7.1798310">
        <ele>1549.0</ele>
        <time>2017-07-26T13:47:29Z</time>
      </trkpt>
      <trkpt lat="44.9220320" lon="7.1799500">
        <ele>1547.8</ele>
        <time>2017-07-26T13:47:30Z</time>
      </trkpt>
      <trkpt lat="44.9220190" lon="7.1800690">
        <ele>1546.8</ele>
        <time>2017-07-26T13:47:31Z</time>
      </trkpt>
      <trkpt lat="44.9219980" lon="7.1801850">
        <ele>1545.8</ele>
        <time>2017-07-26T13:47:32Z</time>
      </trkpt>
      <trkpt lat="44.9219640" lon="7.1803000">
        <ele>1544.4</ele>
        <time>2017-07-26T13:47:33Z</time>
      </trkpt>
      <trkpt lat="44.9219280" lon="7.1804140">
        <ele>1541.8</ele>
        <time>2017-07-26T13:47:34Z</time>
      </trkpt>
      <trkpt lat="44.9218990" lon="7.1805360">
        <ele>1540.8</ele>
        <time>2017-07-26T13:47:35Z</time>
      </trkpt>
      <trkpt lat="44.9218900" lon="7.1806650">
        <ele>1540.0</ele>
        <time>2017-07-26T13:47:36Z</time>
      </trkpt>
      <trkpt lat="44.9218800" lon="7.1807940">
        <ele>1539.2</ele>
        <time>2017-07-26T13:47:37Z</time>
      </trkpt>
      <trkpt lat="44.9218370" lon="7.1810600">
        <ele>1537.2</ele>
        <time>2017-07-26T13:47:39Z</time>
      </trkpt>
      <trkpt lat="44.9218190" lon="7.1811910">
        <ele>1536.0</ele>
        <time>2017-07-26T13:47:40Z</time>
      </trkpt>
      <trkpt lat="44.9218080" lon="7.1813220">
        <ele>1534.8</ele>
        <time>2017-07-26T13:47:41Z</time>
      </trkpt>
      <trkpt lat="44.9217960" lon="7.1815910">
        <ele>1533.2</ele>
        <time>2017-07-26T13:47:43Z</time>
      </trkpt>
      <trkpt lat="44.9218080" lon="7.1818630">
        <ele>1531.8</ele>
        <time>2017-07-26T13:47:45Z</time>
      </trkpt>
      <trkpt lat="44.9218330" lon="7.1821160">
        <ele>1531.2</ele>
        <time>2017-07-26T13:47:47Z</time>
      </trkpt>
      <trkpt lat="44.9218650" lon="7.1823410">
        <ele>1530.2</ele>
        <time>2017-07-26T13:47:49Z</time>
      </trkpt>
      <trkpt lat="44.9218980" lon="7.1824390">
        <ele>1529.4</ele>
        <time>2017-07-26T13:47:50Z</time>
      </trkpt>
      <trkpt lat="44.9219380" lon="7.1825410">
        <ele>1528.4</ele>
        <time>2017-07-26T13:47:51Z</time>
      </trkpt>
      <trkpt lat="44.9219750" lon="7.1826490">
        <ele>1527.8</ele>
        <time>2017-07-26T13:47:52Z</time>
      </trkpt>
      <trkpt lat="44.9220110" lon="7.1827630">
        <ele>1527.2</ele>
        <time>2017-07-26T13:47:53Z</time>
      </trkpt>
      <trkpt lat="44.9220690" lon="7.1830140">
        <ele>1526.0</ele>
        <time>2017-07-26T13:47:55Z</time>
      </trkpt>
      <trkpt lat="44.9220900" lon="7.1831520">
        <ele>1525.2</ele>
        <time>2017-07-26T13:47:56Z</time>
      </trkpt>
      <trkpt lat="44.9221080" lon="7.1832890">
        <ele>1524.6</ele>
        <time>2017-07-26T13:47:57Z</time>
      </trkpt>
      <trkpt lat="44.9221240" lon="7.1834250">
        <ele>1523.2</ele>
        <time>2017-07-26T13:47:58Z</time>
      </trkpt>
      <trkpt lat="44.9221430" lon="7.1835560">
        <ele>1522.4</ele>
        <time>2017-07-26T13:47:59Z</time>
      </trkpt>
      <trkpt lat="44.9221750" lon="7.1836890">
        <ele>1521.8</ele>
        <time>2017-07-26T13:48:00Z</time>
      </trkpt>
      <trkpt lat="44.9222190" lon="7.1838210">
        <ele>1521.0</ele>
        <time>2017-07-26T13:48:01Z</time>
      </trkpt>
      <trkpt lat="44.9222730" lon="7.1839480">
        <ele>1520.4</ele>
        <time>2017-07-26T13:48:02Z</time>
      </trkpt>
      <trkpt lat="44.9223300" lon="7.1840730">
        <ele>1519.6</ele>
        <time>2017-07-26T13:48:03Z</time>
      </trkpt>
      <trkpt lat="44.9223850" lon="7.1841990">
        <ele>1518.8</ele>
        <time>2017-07-26T13:48:04Z</time>
      </trkpt>
      <trkpt lat="44.9224360" lon="7.1843080">
        <ele>1517.8</ele>
        <time>2017-07-26T13:48:05Z</time>
      </trkpt>
      <trkpt lat="44.9224850" lon="7.1843990">
        <ele>1517.2</ele>
        <time>2017-07-26T13:48:06Z</time>
      </trkpt>
      <trkpt lat="44.9225950" lon="7.1845500">
        <ele>1515.4</ele>
        <time>2017-07-26T13:48:08Z</time>
      </trkpt>
      <trkpt lat="44.9226530" lon="7.1846270">
        <ele>1514.6</ele>
        <time>2017-07-26T13:48:09Z</time>
      </trkpt>
      <trkpt lat="44.9227020" lon="7.1847210">
        <ele>1513.8</ele>
        <time>2017-07-26T13:48:10Z</time>
      </trkpt>
      <trkpt lat="44.9227680" lon="7.1849410">
        <ele>1512.6</ele>
        <time>2017-07-26T13:48:12Z</time>
      </trkpt>
      <trkpt lat="44.9227940" lon="7.1850530">
        <ele>1512.0</ele>
        <time>2017-07-26T13:48:13Z</time>
      </trkpt>
      <trkpt lat="44.9228170" lon="7.1851690">
        <ele>1511.6</ele>
        <time>2017-07-26T13:48:14Z</time>
      </trkpt>
      <trkpt lat="44.9228300" lon="7.1852880">
        <ele>1511.0</ele>
        <time>2017-07-26T13:48:15Z</time>
      </trkpt>
      <trkpt lat="44.9228290" lon="7.1854150">
        <ele>1510.4</ele>
        <time>2017-07-26T13:48:16Z</time>
      </trkpt>
      <trkpt lat="44.9228240" lon="7.1855420">
        <ele>1509.4</ele>
        <time>2017-07-26T13:48:17Z</time>
      </trkpt>
      <trkpt lat="44.9227990" lon="7.1857980">
        <ele>1508.2</ele>
        <time>2017-07-26T13:48:19Z</time>
      </trkpt>
      <trkpt lat="44.9227550" lon="7.1860430">
        <ele>1506.8</ele>
        <time>2017-07-26T13:48:21Z</time>
      </trkpt>
      <trkpt lat="44.9226900" lon="7.1862850">
        <ele>1505.0</ele>
        <time>2017-07-26T13:48:23Z</time>
      </trkpt>
      <trkpt lat="44.9226060" lon="7.1865330">
        <ele>1503.8</ele>
        <time>2017-07-26T13:48:25Z</time>
      </trkpt>
      <trkpt lat="44.9225590" lon="7.1866590">
        <ele>1503.0</ele>
        <time>2017-07-26T13:48:26Z</time>
      </trkpt>
      <trkpt lat="44.9225150" lon="7.1867850">
        <ele>1502.0</ele>
        <time>2017-07-26T13:48:27Z</time>
      </trkpt>
      <trkpt lat="44.9224360" lon="7.1870300">
        <ele>1500.2</ele>
        <time>2017-07-26T13:48:29Z</time>
      </trkpt>
      <trkpt lat="44.9224000" lon="7.1871490">
        <ele>1499.2</ele>
        <time>2017-07-26T13:48:30Z</time>
      </trkpt>
      <trkpt lat="44.9223500" lon="7.1872580">
        <ele>1498.2</ele>
        <time>2017-07-26T13:48:31Z</time>
      </trkpt>
      <trkpt lat="44.9222080" lon="7.1874360">
        <ele>1496.2</ele>
        <time>2017-07-26T13:48:33Z</time>
      </trkpt>
      <trkpt lat="44.9221380" lon="7.1875170">
        <ele>1495.0</ele>
        <time>2017-07-26T13:48:34Z</time>
      </trkpt>
      <trkpt lat="44.9220810" lon="7.1876040">
        <ele>1493.2</ele>
        <time>2017-07-26T13:48:35Z</time>
      </trkpt>
      <trkpt lat="44.9220480" lon="7.1877060">
        <ele>1491.8</ele>
        <time>2017-07-26T13:48:36Z</time>
      </trkpt>
      <trkpt lat="44.9220280" lon="7.1878170">
        <ele>1490.6</ele>
        <time>2017-07-26T13:48:37Z</time>
      </trkpt>
      <trkpt lat="44.9220110" lon="7.1880370">
        <ele>1488.6</ele>
        <time>2017-07-26T13:48:39Z</time>
      </trkpt>
      <trkpt lat="44.9220220" lon="7.1881360">
        <ele>1487.2</ele>
        <time>2017-07-26T13:48:40Z</time>
      </trkpt>
      <trkpt lat="44.9220580" lon="7.1881990">
        <ele>1485.6</ele>
        <time>2017-07-26T13:48:41Z</time>
      </trkpt>
      <trkpt lat="44.9221590" lon="7.1883240">
        <ele>1484.0</ele>
        <time>2017-07-26T13:48:43Z</time>
      </trkpt>
      <trkpt lat="44.9222050" lon="7.1884170">
        <ele>1483.6</ele>
        <time>2017-07-26T13:48:44Z</time>
      </trkpt>
      <trkpt lat="44.9222310" lon="7.1885170">
        <ele>1482.2</ele>
        <time>2017-07-26T13:48:45Z</time>
      </trkpt>
      <trkpt lat="44.9222390" lon="7.1886190">
        <ele>1480.4</ele>
        <time>2017-07-26T13:48:46Z</time>
      </trkpt>
      <trkpt lat="44.9221870" lon="7.1887960">
        <ele>1478.8</ele>
        <time>2017-07-26T13:48:48Z</time>
      </trkpt>
      <trkpt lat="44.9221480" lon="7.1888840">
        <ele>1477.8</ele>
        <time>2017-07-26T13:48:49Z</time>
      </trkpt>
      <trkpt lat="44.9221060" lon="7.1889690">
        <ele>1477.0</ele>
        <time>2017-07-26T13:48:50Z</time>
      </trkpt>
      <trkpt lat="44.9220420" lon="7.1891560">
        <ele>1475.6</ele>
        <time>2017-07-26T13:48:52Z</time>
      </trkpt>
      <trkpt lat="44.9220270" lon="7.1892510">
        <ele>1475.0</ele>
        <time>2017-07-26T13:48:53Z</time>
      </trkpt>
      <trkpt lat="44.9220240" lon="7.1893440">
        <ele>1474.0</ele>
        <time>2017-07-26T13:48:54Z</time>
      </trkpt>
      <trkpt lat="44.9220720" lon="7.1895130">
        <ele>1472.6</ele>
        <time>2017-07-26T13:48:56Z</time>
      </trkpt>
      <trkpt lat="44.9221150" lon="7.1896120">
        <ele>1472.4</ele>
        <time>2017-07-26T13:48:57Z</time>
      </trkpt>
      <trkpt lat="44.9221560" lon="7.1897130">
        <ele>1471.6</ele>
        <time>2017-07-26T13:48:58Z</time>
      </trkpt>
      <trkpt lat="44.9221820" lon="7.1898260">
        <ele>1470.8</ele>
        <time>2017-07-26T13:48:59Z</time>
      </trkpt>
      <trkpt lat="44.9221970" lon="7.1899460">
        <ele>1470.0</ele>
        <time>2017-07-26T13:49:00Z</time>
      </trkpt>
      <trkpt lat="44.9221670" lon="7.1901860">
        <ele>1468.2</ele>
        <time>2017-07-26T13:49:02Z</time>
      </trkpt>
      <trkpt lat="44.9221410" lon="7.1902800">
        <ele>1467.2</ele>
        <time>2017-07-26T13:49:03Z</time>
      </trkpt>
      <trkpt lat="44.9220510" lon="7.1903730">
        <ele>1465.6</ele>
        <time>2017-07-26T13:49:05Z</time>
      </trkpt>
      <trkpt lat="44.9219480" lon="7.1903180">
        <ele>1464.0</ele>
        <time>2017-07-26T13:49:07Z</time>
      </trkpt>
      <trkpt lat="44.9218920" lon="7.1902470">
        <ele>1463.0</ele>
        <time>2017-07-26T13:49:08Z</time>
      </trkpt>
      <trkpt lat="44.9218320" lon="7.1901770">
        <ele>1462.0</ele>
        <time>2017-07-26T13:49:09Z</time>
      </trkpt>
      <trkpt lat="44.9217690" lon="7.1901060">
        <ele>1460.4</ele>
        <time>2017-07-26T13:49:10Z</time>
      </trkpt>
      <trkpt lat="44.9217030" lon="7.1900350">
        <ele>1459.8</ele>
        <time>2017-07-26T13:49:11Z</time>
      </trkpt>
      <trkpt lat="44.9216330" lon="7.1899660">
        <ele>1459.0</ele>
        <time>2017-07-26T13:49:12Z</time>
      </trkpt>
      <trkpt lat="44.9215610" lon="7.1899150">
        <ele>1458.0</ele>
        <time>2017-07-26T13:49:13Z</time>
      </trkpt>
      <trkpt lat="44.9214910" lon="7.1898800">
        <ele>1457.6</ele>
        <time>2017-07-26T13:49:14Z</time>
      </trkpt>
      <trkpt lat="44.9214250" lon="7.1898380">
        <ele>1456.6</ele>
        <time>2017-07-26T13:49:15Z</time>
      </trkpt>
      <trkpt lat="44.9213670" lon="7.1897770">
        <ele>1455.8</ele>
        <time>2017-07-26T13:49:16Z</time>
      </trkpt>
      <trkpt lat="44.9213240" lon="7.1896960">
        <ele>1454.6</ele>
        <time>2017-07-26T13:49:17Z</time>
      </trkpt>
      <trkpt lat="44.9212880" lon="7.1896140">
        <ele>1453.8</ele>
        <time>2017-07-26T13:49:18Z</time>
      </trkpt>
      <trkpt lat="44.9212570" lon="7.1895250">
        <ele>1452.8</ele>
        <time>2017-07-26T13:49:19Z</time>
      </trkpt>
      <trkpt lat="44.9212200" lon="7.1894320">
        <ele>1451.8</ele>
        <time>2017-07-26T13:49:20Z</time>
      </trkpt>
      <trkpt lat="44.9211110" lon="7.1892470">
        <ele>1449.8</ele>
        <time>2017-07-26T13:49:22Z</time>
      </trkpt>
      <trkpt lat="44.9209850" lon="7.1890540">
        <ele>1448.0</ele>
        <time>2017-07-26T13:49:24Z</time>
      </trkpt>
      <trkpt lat="44.9209250" lon="7.1889440">
        <ele>1447.0</ele>
        <time>2017-07-26T13:49:25Z</time>
      </trkpt>
      <trkpt lat="44.9208670" lon="7.1888350">
        <ele>1446.0</ele>
        <time>2017-07-26T13:49:26Z</time>
      </trkpt>
      <trkpt lat="44.9208030" lon="7.1887350">
        <ele>1445.0</ele>
        <time>2017-07-26T13:49:27Z</time>
      </trkpt>
      <trkpt lat="44.9206640" lon="7.1885790">
        <ele>1443.4</ele>
        <time>2017-07-26T13:49:29Z</time>
      </trkpt>
      <trkpt lat="44.9205870" lon="7.1885200">
        <ele>1442.8</ele>
        <time>2017-07-26T13:49:30Z</time>
      </trkpt>
      <trkpt lat="44.9205150" lon="7.1884420">
        <ele>1442.2</ele>
        <time>2017-07-26T13:49:31Z</time>
      </trkpt>
      <trkpt lat="44.9203920" lon="7.1882510">
        <ele>1440.8</ele>
        <time>2017-07-26T13:49:33Z</time>
      </trkpt>
      <trkpt lat="44.9203490" lon="7.1881370">
        <ele>1439.0</ele>
        <time>2017-07-26T13:49:34Z</time>
      </trkpt>
      <trkpt lat="44.9202880" lon="7.1879000">
        <ele>1437.8</ele>
        <time>2017-07-26T13:49:36Z</time>
      </trkpt>
      <trkpt lat="44.9202500" lon="7.1877230">
        <ele>1436.8</ele>
        <time>2017-07-26T13:49:38Z</time>
      </trkpt>
      <trkpt lat="44.9202270" lon="7.1876770">
        <ele>1436.2</ele>
        <time>2017-07-26T13:49:39Z</time>
      </trkpt>
      <trkpt lat="44.9201730" lon="7.1876980">
        <ele>1435.0</ele>
        <time>2017-07-26T13:49:41Z</time>
      </trkpt>
      <trkpt lat="44.9201080" lon="7.1878800">
        <ele>1434.0</ele>
        <time>2017-07-26T13:49:44Z</time>
      </trkpt>
      <trkpt lat="44.9200900" lon="7.1879640">
        <ele>1433.6</ele>
        <time>2017-07-26T13:49:45Z</time>
      </trkpt>
      <trkpt lat="44.9200720" lon="7.1880570">
        <ele>1433.0</ele>
        <time>2017-07-26T13:49:46Z</time>
      </trkpt>
      <trkpt lat="44.9200200" lon="7.1883820">
        <ele>1431.6</ele>
        <time>2017-07-26T13:49:49Z</time>
      </trkpt>
      <trkpt lat="44.9200000" lon="7.1885030">
        <ele>1431.0</ele>
        <time>2017-07-26T13:49:50Z</time>
      </trkpt>
      <trkpt lat="44.9199640" lon="7.1886140">
        <ele>1430.6</ele>
        <time>2017-07-26T13:49:51Z</time>
      </trkpt>
      <trkpt lat="44.9199200" lon="7.1887260">
        <ele>1430.0</ele>
        <time>2017-07-26T13:49:52Z</time>
      </trkpt>
      <trkpt lat="44.9198700" lon="7.1888240">
        <ele>1429.4</ele>
        <time>2017-07-26T13:49:53Z</time>
      </trkpt>
      <trkpt lat="44.9197930" lon="7.1889990">
        <ele>1427.8</ele>
        <time>2017-07-26T13:49:55Z</time>
      </trkpt>
      <trkpt lat="44.9197800" lon="7.1890710">
        <ele>1427.0</ele>
        <time>2017-07-26T13:49:56Z</time>
      </trkpt>
      <trkpt lat="44.9197680" lon="7.1891350">
        <ele>1426.6</ele>
        <time>2017-07-26T13:49:57Z</time>
      </trkpt>
      <trkpt lat="44.9197460" lon="7.1891840">
        <ele>1425.4</ele>
        <time>2017-07-26T13:49:58Z</time>
      </trkpt>
      <trkpt lat="44.9197220" lon="7.1892030">
        <ele>1424.6</ele>
        <time>2017-07-26T13:49:59Z</time>
      </trkpt>
      <trkpt lat="44.9196980" lon="7.1891900">
        <ele>1423.8</ele>
        <time>2017-07-26T13:50:00Z</time>
      </trkpt>
      <trkpt lat="44.9196770" lon="7.1891540">
        <ele>1422.8</ele>
        <time>2017-07-26T13:50:01Z</time>
      </trkpt>
      <trkpt lat="44.9196490" lon="7.1891070">
        <ele>1421.8</ele>
        <time>2017-07-26T13:50:02Z</time>
      </trkpt>
      <trkpt lat="44.9196120" lon="7.1890480">
        <ele>1420.8</ele>
        <time>2017-07-26T13:50:03Z</time>
      </trkpt>
      <trkpt lat="44.9195350" lon="7.1888990">
        <ele>1419.4</ele>
        <time>2017-07-26T13:50:05Z</time>
      </trkpt>
      <trkpt lat="44.9194910" lon="7.1888160">
        <ele>1418.8</ele>
        <time>2017-07-26T13:50:06Z</time>
      </trkpt>
      <trkpt lat="44.9194480" lon="7.1887340">
        <ele>1418.0</ele>
        <time>2017-07-26T13:50:07Z</time>
      </trkpt>
      <trkpt lat="44.9193450" lon="7.1885750">
        <ele>1416.8</ele>
        <time>2017-07-26T13:50:09Z</time>
      </trkpt>
      <trkpt lat="44.9192820" lon="7.1885290">
        <ele>1416.2</ele>
        <time>2017-07-26T13:50:10Z</time>
      </trkpt>
      <trkpt lat="44.9191580" lon="7.1884840">
        <ele>1415.0</ele>
        <time>2017-07-26T13:50:12Z</time>
      </trkpt>
      <trkpt lat="44.9190950" lon="7.1884920">
        <ele>1414.4</ele>
        <time>2017-07-26T13:50:13Z</time>
      </trkpt>
      <trkpt lat="44.9190300" lon="7.1885130">
        <ele>1413.8</ele>
        <time>2017-07-26T13:50:14Z</time>
      </trkpt>
      <trkpt lat="44.9188670" lon="7.1886580">
        <ele>1412.2</ele>
        <time>2017-07-26T13:50:16Z</time>
      </trkpt>
      <trkpt lat="44.9188060" lon="7.1887230">
        <ele>1411.4</ele>
        <time>2017-07-26T13:50:17Z</time>
      </trkpt>
      <trkpt lat="44.9187640" lon="7.1887720">
        <ele>1410.8</ele>
        <time>2017-07-26T13:50:18Z</time>
      </trkpt>
      <trkpt lat="44.9187340" lon="7.1888040">
        <ele>1410.0</ele>
        <time>2017-07-26T13:50:19Z</time>
      </trkpt>
      <trkpt lat="44.9187060" lon="7.1888220">
        <ele>1409.4</ele>
        <time>2017-07-26T13:50:20Z</time>
      </trkpt>
      <trkpt lat="44.9186810" lon="7.1888210">
        <ele>1408.6</ele>
        <time>2017-07-26T13:50:21Z</time>
      </trkpt>
      <trkpt lat="44.9186600" lon="7.1887980">
        <ele>1407.8</ele>
        <time>2017-07-26T13:50:22Z</time>
      </trkpt>
      <trkpt lat="44.9186030" lon="7.1887180">
        <ele>1406.4</ele>
        <time>2017-07-26T13:50:24Z</time>
      </trkpt>
      <trkpt lat="44.9185610" lon="7.1886690">
        <ele>1405.8</ele>
        <time>2017-07-26T13:50:25Z</time>
      </trkpt>
      <trkpt lat="44.9185120" lon="7.1886220">
        <ele>1405.4</ele>
        <time>2017-07-26T13:50:26Z</time>
      </trkpt>
      <trkpt lat="44.9184100" lon="7.1885530">
        <ele>1404.6</ele>
        <time>2017-07-26T13:50:28Z</time>
      </trkpt>
      <trkpt lat="44.9183100" lon="7.1884860">
        <ele>1404.4</ele>
        <time>2017-07-26T13:50:30Z</time>
      </trkpt>
      <trkpt lat="44.9182140" lon="7.1884170">
        <ele>1404.2</ele>
        <time>2017-07-26T13:50:32Z</time>
      </trkpt>
      <trkpt lat="44.9180600" lon="7.1882870">
        <ele>1404.2</ele>
        <time>2017-07-26T13:50:35Z</time>
      </trkpt>
      <trkpt lat="44.9180080" lon="7.1882340">
        <ele>1404.2</ele>
        <time>2017-07-26T13:50:36Z</time>
      </trkpt>
      <trkpt lat="44.9178730" lon="7.1879660">
        <ele>1403.0</ele>
        <time>2017-07-26T13:50:40Z</time>
      </trkpt>
      <trkpt lat="44.9178790" lon="7.1877690">
        <ele>1402.0</ele>
        <time>2017-07-26T13:50:42Z</time>
      </trkpt>
      <trkpt lat="44.9178880" lon="7.1876820">
        <ele>1401.6</ele>
        <time>2017-07-26T13:50:43Z</time>
      </trkpt>
      <trkpt lat="44.9179110" lon="7.1876090">
        <ele>1401.2</ele>
        <time>2017-07-26T13:50:44Z</time>
      </trkpt>
      <trkpt lat="44.9179440" lon="7.1875480">
        <ele>1400.6</ele>
        <time>2017-07-26T13:50:45Z</time>
      </trkpt>
      <trkpt lat="44.9180360" lon="7.1874570">
        <ele>1399.2</ele>
        <time>2017-07-26T13:50:47Z</time>
      </trkpt>
      <trkpt lat="44.9181440" lon="7.1873700">
        <ele>1398.4</ele>
        <time>2017-07-26T13:50:49Z</time>
      </trkpt>
      <trkpt lat="44.9181970" lon="7.1873200">
        <ele>1398.0</ele>
        <time>2017-07-26T13:50:50Z</time>
      </trkpt>
      <trkpt lat="44.9183080" lon="7.1872070">
        <ele>1397.6</ele>
        <time>2017-07-26T13:50:52Z</time>
      </trkpt>
      <trkpt lat="44.9184700" lon="7.1870300">
        <ele>1396.8</ele>
        <time>2017-07-26T13:50:55Z</time>
      </trkpt>
      <trkpt lat="44.9185150" lon="7.1869680">
        <ele>1396.4</ele>
        <time>2017-07-26T13:50:56Z</time>
      </trkpt>
      <trkpt lat="44.9185380" lon="7.1868950">
        <ele>1396.4</ele>
        <time>2017-07-26T13:50:57Z</time>
      </trkpt>
      <trkpt lat="44.9185280" lon="7.1866760">
        <ele>1395.6</ele>
        <time>2017-07-26T13:51:00Z</time>
      </trkpt>
      <trkpt lat="44.9184570" lon="7.1863090">
        <ele>1396.0</ele>
        <time>2017-07-26T13:51:05Z</time>
      </trkpt>
      <trkpt lat="44.9184300" lon="7.1862440">
        <ele>1395.8</ele>
        <time>2017-07-26T13:51:06Z</time>
      </trkpt>
      <trkpt lat="44.9182690" lon="7.1860900">
        <ele>1396.8</ele>
        <time>2017-07-26T13:51:10Z</time>
      </trkpt>
      <trkpt lat="44.9180680" lon="7.1860370">
        <ele>1396.8</ele>
        <time>2017-07-26T13:51:13Z</time>
      </trkpt>
      <trkpt lat="44.9179840" lon="7.1860380">
        <ele>1396.4</ele>
        <time>2017-07-26T13:51:14Z</time>
      </trkpt>
      <trkpt lat="44.9176320" lon="7.1861010">
        <ele>1395.8</ele>
        <time>2017-07-26T13:51:18Z</time>
      </trkpt>
      <trkpt lat="44.9174120" lon="7.1860940">
        <ele>1396.0</ele>
        <time>2017-07-26T13:51:21Z</time>
      </trkpt>
      <trkpt lat="44.9173160" lon="7.1861080">
        <ele>1395.8</ele>
        <time>2017-07-26T13:51:23Z</time>
      </trkpt>
      <trkpt lat="44.9172400" lon="7.1861270">
        <ele>1396.0</ele>
        <time>2017-07-26T13:51:25Z</time>
      </trkpt>
      <trkpt lat="44.9171070" lon="7.1861480">
        <ele>1397.2</ele>
        <time>2017-07-26T13:51:29Z</time>
      </trkpt>
      <trkpt lat="44.9170630" lon="7.1861570">
        <ele>1397.4</ele>
        <time>2017-07-26T13:51:30Z</time>
      </trkpt>
      <trkpt lat="44.9168620" lon="7.1861530">
        <ele>1398.6</ele>
        <time>2017-07-26T13:51:34Z</time>
      </trkpt>
      <trkpt lat="44.9167990" lon="7.1861350">
        <ele>1398.8</ele>
        <time>2017-07-26T13:51:35Z</time>
      </trkpt>
      <trkpt lat="44.9166380" lon="7.1859870">
        <ele>1398.8</ele>
        <time>2017-07-26T13:51:38Z</time>
      </trkpt>
      <trkpt lat="44.9165950" lon="7.1859170">
        <ele>1398.4</ele>
        <time>2017-07-26T13:51:39Z</time>
      </trkpt>
      <trkpt lat="44.9165570" lon="7.1858410">
        <ele>1398.0</ele>
        <time>2017-07-26T13:51:40Z</time>
      </trkpt>
      <trkpt lat="44.9164710" lon="7.1856830">
        <ele>1397.4</ele>
        <time>2017-07-26T13:51:42Z</time>
      </trkpt>
      <trkpt lat="44.9164190" lon="7.1856110">
        <ele>1397.2</ele>
        <time>2017-07-26T13:51:43Z</time>
      </trkpt>
      <trkpt lat="44.9163580" lon="7.1855470">
        <ele>1396.8</ele>
        <time>2017-07-26T13:51:44Z</time>
      </trkpt>
      <trkpt lat="44.9162450" lon="7.1854320">
        <ele>1396.4</ele>
        <time>2017-07-26T13:51:46Z</time>
      </trkpt>
      <trkpt lat="44.9161920" lon="7.1852110">
        <ele>1395.6</ele>
        <time>2017-07-26T13:51:49Z</time>
      </trkpt>
      <trkpt lat="44.9162130" lon="7.1850170">
        <ele>1395.6</ele>
        <time>2017-07-26T13:51:52Z</time>
      </trkpt>
      <trkpt lat="44.9161470" lon="7.1846870">
        <ele>1395.4</ele>
        <time>2017-07-26T13:51:56Z</time>
      </trkpt>
      <trkpt lat="44.9161120" lon="7.1845920">
        <ele>1395.0</ele>
        <time>2017-07-26T13:51:57Z</time>
      </trkpt>
      <trkpt lat="44.9159970" lon="7.1843410">
        <ele>1393.8</ele>
        <time>2017-07-26T13:52:00Z</time>
      </trkpt>
      <trkpt lat="44.9159670" lon="7.1842610">
        <ele>1392.8</ele>
        <time>2017-07-26T13:52:01Z</time>
      </trkpt>
      <trkpt lat="44.9158980" lon="7.1840820">
        <ele>1391.2</ele>
        <time>2017-07-26T13:52:03Z</time>
      </trkpt>
      <trkpt lat="44.9158540" lon="7.1839950">
        <ele>1390.8</ele>
        <time>2017-07-26T13:52:04Z</time>
      </trkpt>
      <trkpt lat="44.9158180" lon="7.1839030">
        <ele>1389.6</ele>
        <time>2017-07-26T13:52:05Z</time>
      </trkpt>
      <trkpt lat="44.9157820" lon="7.1838090">
        <ele>1388.0</ele>
        <time>2017-07-26T13:52:06Z</time>
      </trkpt>
      <trkpt lat="44.9157450" lon="7.1837160">
        <ele>1386.8</ele>
        <time>2017-07-26T13:52:07Z</time>
      </trkpt>
      <trkpt lat="44.9156750" lon="7.1835210">
        <ele>1385.2</ele>
        <time>2017-07-26T13:52:09Z</time>
      </trkpt>
      <trkpt lat="44.9156300" lon="7.1834330">
        <ele>1384.4</ele>
        <time>2017-07-26T13:52:10Z</time>
      </trkpt>
      <trkpt lat="44.9155840" lon="7.1833580">
        <ele>1383.6</ele>
        <time>2017-07-26T13:52:11Z</time>
      </trkpt>
      <trkpt lat="44.9155470" lon="7.1832860">
        <ele>1382.4</ele>
        <time>2017-07-26T13:52:12Z</time>
      </trkpt>
      <trkpt lat="44.9155030" lon="7.1831090">
        <ele>1380.8</ele>
        <time>2017-07-26T13:52:14Z</time>
      </trkpt>
      <trkpt lat="44.9154880" lon="7.1830000">
        <ele>1380.2</ele>
        <time>2017-07-26T13:52:15Z</time>
      </trkpt>
      <trkpt lat="44.9154810" lon="7.1828850">
        <ele>1379.4</ele>
        <time>2017-07-26T13:52:16Z</time>
      </trkpt>
      <trkpt lat="44.9154760" lon="7.1827650">
        <ele>1378.4</ele>
        <time>2017-07-26T13:52:17Z</time>
      </trkpt>
      <trkpt lat="44.9154700" lon="7.1825200">
        <ele>1376.6</ele>
        <time>2017-07-26T13:52:19Z</time>
      </trkpt>
      <trkpt lat="44.9154770" lon="7.1823880">
        <ele>1375.8</ele>
        <time>2017-07-26T13:52:20Z</time>
      </trkpt>
      <trkpt lat="44.9154900" lon="7.1822620">
        <ele>1375.0</ele>
        <time>2017-07-26T13:52:21Z</time>
      </trkpt>
      <trkpt lat="44.9155140" lon="7.1821520">
        <ele>1373.6</ele>
        <time>2017-07-26T13:52:22Z</time>
      </trkpt>
      <trkpt lat="44.9155500" lon="7.1820570">
        <ele>1373.0</ele>
        <time>2017-07-26T13:52:23Z</time>
      </trkpt>
      <trkpt lat="44.9155960" lon="7.1819810">
        <ele>1372.2</ele>
        <time>2017-07-26T13:52:24Z</time>
      </trkpt>
      <trkpt lat="44.9156970" lon="7.1818420">
        <ele>1370.6</ele>
        <time>2017-07-26T13:52:26Z</time>
      </trkpt>
      <trkpt lat="44.9157440" lon="7.1817730">
        <ele>1370.4</ele>
        <time>2017-07-26T13:52:27Z</time>
      </trkpt>
      <trkpt lat="44.9157830" lon="7.1817000">
        <ele>1369.8</ele>
        <time>2017-07-26T13:52:28Z</time>
      </trkpt>
      <trkpt lat="44.9158120" lon="7.1816220">
        <ele>1369.6</ele>
        <time>2017-07-26T13:52:29Z</time>
      </trkpt>
      <trkpt lat="44.9158320" lon="7.1815380">
        <ele>1369.2</ele>
        <time>2017-07-26T13:52:30Z</time>
      </trkpt>
      <trkpt lat="44.9158830" lon="7.1812960">
        <ele>1369.0</ele>
        <time>2017-07-26T13:52:33Z</time>
      </trkpt>
      <trkpt lat="44.9159360" lon="7.1810660">
        <ele>1368.4</ele>
        <time>2017-07-26T13:52:36Z</time>
      </trkpt>
      <trkpt lat="44.9159790" lon="7.1809040">
        <ele>1368.2</ele>
        <time>2017-07-26T13:52:38Z</time>
      </trkpt>
      <trkpt lat="44.9160400" lon="7.1806720">
        <ele>1368.2</ele>
        <time>2017-07-26T13:52:41Z</time>
      </trkpt>
      <trkpt lat="44.9160360" lon="7.1805940">
        <ele>1368.2</ele>
        <time>2017-07-26T13:52:42Z</time>
      </trkpt>
      <trkpt lat="44.9159380" lon="7.1804390">
        <ele>1368.2</ele>
        <time>2017-07-26T13:52:45Z</time>
      </trkpt>
      <trkpt lat="44.9158730" lon="7.1803940">
        <ele>1369.6</ele>
        <time>2017-07-26T13:52:47Z</time>
      </trkpt>
      <trkpt lat="44.9157710" lon="7.1803190">
        <ele>1371.2</ele>
        <time>2017-07-26T13:52:50Z</time>
      </trkpt>
      <trkpt lat="44.9156550" lon="7.1802050">
        <ele>1372.4</ele>
        <time>2017-07-26T13:52:54Z</time>
      </trkpt>
      <trkpt lat="44.9156040" lon="7.1801440">
        <ele>1373.2</ele>
        <time>2017-07-26T13:52:56Z</time>
      </trkpt>
      <trkpt lat="44.9155840" lon="7.1801160">
        <ele>1373.6</ele>
        <time>2017-07-26T13:52:57Z</time>
      </trkpt>
      <trkpt lat="44.9155370" lon="7.1800350">
        <ele>1374.6</ele>
        <time>2017-07-26T13:53:00Z</time>
      </trkpt>
      <trkpt lat="44.9155250" lon="7.1800120">
        <ele>1374.8</ele>
        <time>2017-07-26T13:53:01Z</time>
      </trkpt>
      <trkpt lat="44.9154790" lon="7.1799460">
        <ele>1375.6</ele>
        <time>2017-07-26T13:53:04Z</time>
      </trkpt>
      <trkpt lat="44.9154370" lon="7.1798760">
        <ele>1376.2</ele>
        <time>2017-07-26T13:53:07Z</time>
      </trkpt>
      <trkpt lat="44.9154260" lon="7.1798470">
        <ele>1376.6</ele>
        <time>2017-07-26T13:53:08Z</time>
      </trkpt>
      <trkpt lat="44.9154020" lon="7.1797400">
        <ele>1377.8</ele>
        <time>2017-07-26T13:53:11Z</time>
      </trkpt>
      <trkpt lat="44.9153890" lon="7.1796630">
        <ele>1378.4</ele>
        <time>2017-07-26T13:53:13Z</time>
      </trkpt>
      <trkpt lat="44.9153810" lon="7.1795780">
        <ele>1379.0</ele>
        <time>2017-07-26T13:53:15Z</time>
      </trkpt>
      <trkpt lat="44.9153730" lon="7.1794630">
        <ele>1380.2</ele>
        <time>2017-07-26T13:53:18Z</time>
      </trkpt>
      <trkpt lat="44.9153770" lon="7.1793880">
        <ele>1381.0</ele>
        <time>2017-07-26T13:53:20Z</time>
      </trkpt>
      <trkpt lat="44.9153820" lon="7.1793480">
        <ele>1381.4</ele>
        <time>2017-07-26T13:53:21Z</time>
      </trkpt>
      <trkpt lat="44.9154050" lon="7.1792450">
        <ele>1382.6</ele>
        <time>2017-07-26T13:53:24Z</time>
      </trkpt>
      <trkpt lat="44.9154170" lon="7.1791830">
        <ele>1383.6</ele>
        <time>2017-07-26T13:53:26Z</time>
      </trkpt>
      <trkpt lat="44.9154230" lon="7.1791550">
        <ele>1383.8</ele>
        <time>2017-07-26T13:53:27Z</time>
      </trkpt>
      <trkpt lat="44.9154330" lon="7.1790650">
        <ele>1385.0</ele>
        <time>2017-07-26T13:53:30Z</time>
      </trkpt>
      <trkpt lat="44.9154320" lon="7.1790100">
        <ele>1385.6</ele>
        <time>2017-07-26T13:53:32Z</time>
      </trkpt>
      <trkpt lat="44.9154250" lon="7.1789890">
        <ele>1386.0</ele>
        <time>2017-07-26T13:53:33Z</time>
      </trkpt>
      <trkpt lat="44.9154140" lon="7.1789760">
        <ele>1386.4</ele>
        <time>2017-07-26T13:53:34Z</time>
      </trkpt>
      <trkpt lat="44.9154000" lon="7.1789640">
        <ele>1386.8</ele>
        <time>2017-07-26T13:53:35Z</time>
      </trkpt>
      <trkpt lat="44.9153790" lon="7.1789640">
        <ele>1387.2</ele>
        <time>2017-07-26T13:53:37Z</time>
      </trkpt>
      <trkpt lat="44.9153610" lon="7.1789720">
        <ele>1387.4</ele>
        <time>2017-07-26T13:53:38Z</time>
      </trkpt>
      <trkpt lat="44.9153450" lon="7.1789820">
        <ele>1387.4</ele>
        <time>2017-07-26T13:53:39Z</time>
      </trkpt>
      <trkpt lat="44.9152480" lon="7.1790600">
        <ele>1386.0</ele>
        <time>2017-07-26T13:53:43Z</time>
      </trkpt>
      <trkpt lat="44.9151880" lon="7.1791160">
        <ele>1385.0</ele>
        <time>2017-07-26T13:53:45Z</time>
      </trkpt>
      <trkpt lat="44.9151030" lon="7.1791970">
        <ele>1383.8</ele>
        <time>2017-07-26T13:53:47Z</time>
      </trkpt>
      <trkpt lat="44.9150740" lon="7.1792410">
        <ele>1383.4</ele>
        <time>2017-07-26T13:53:48Z</time>
      </trkpt>
      <trkpt lat="44.9150310" lon="7.1793150">
        <ele>1382.4</ele>
        <time>2017-07-26T13:53:50Z</time>
      </trkpt>
      <trkpt lat="44.9149930" lon="7.1793860">
        <ele>1381.2</ele>
        <time>2017-07-26T13:53:52Z</time>
      </trkpt>
      <trkpt lat="44.9149650" lon="7.1794450">
        <ele>1380.4</ele>
        <time>2017-07-26T13:53:53Z</time>
      </trkpt>
      <trkpt lat="44.9149350" lon="7.1795110">
        <ele>1380.0</ele>
        <time>2017-07-26T13:53:54Z</time>
      </trkpt>
      <trkpt lat="44.9149120" lon="7.1795870">
        <ele>1379.4</ele>
        <time>2017-07-26T13:53:55Z</time>
      </trkpt>
      <trkpt lat="44.9148830" lon="7.1797240">
        <ele>1378.4</ele>
        <time>2017-07-26T13:53:57Z</time>
      </trkpt>
      <trkpt lat="44.9148730" lon="7.1797840">
        <ele>1377.2</ele>
        <time>2017-07-26T13:53:58Z</time>
      </trkpt>
      <trkpt lat="44.9148670" lon="7.1798470">
        <ele>1375.0</ele>
        <time>2017-07-26T13:53:59Z</time>
      </trkpt>
      <trkpt lat="44.9148760" lon="7.1799000">
        <ele>1374.4</ele>
        <time>2017-07-26T13:54:00Z</time>
      </trkpt>
      <trkpt lat="44.9148930" lon="7.1799380">
        <ele>1373.6</ele>
        <time>2017-07-26T13:54:01Z</time>
      </trkpt>
      <trkpt lat="44.9148970" lon="7.1799810">
        <ele>1372.8</ele>
        <time>2017-07-26T13:54:02Z</time>
      </trkpt>
      <trkpt lat="44.9148860" lon="7.1800040">
        <ele>1371.8</ele>
        <time>2017-07-26T13:54:03Z</time>
      </trkpt>
      <trkpt lat="44.9148670" lon="7.1800090">
        <ele>1370.8</ele>
        <time>2017-07-26T13:54:04Z</time>
      </trkpt>
      <trkpt lat="44.9148410" lon="7.1799970">
        <ele>1370.2</ele>
        <time>2017-07-26T13:54:05Z</time>
      </trkpt>
      <trkpt lat="44.9147770" lon="7.1799330">
        <ele>1368.8</ele>
        <time>2017-07-26T13:54:07Z</time>
      </trkpt>
      <trkpt lat="44.9147240" lon="7.1798590">
        <ele>1367.6</ele>
        <time>2017-07-26T13:54:09Z</time>
      </trkpt>
      <trkpt lat="44.9146390" lon="7.1797870">
        <ele>1365.8</ele>
        <time>2017-07-26T13:54:11Z</time>
      </trkpt>
      <trkpt lat="44.9145850" lon="7.1797310">
        <ele>1364.4</ele>
        <time>2017-07-26T13:54:13Z</time>
      </trkpt>
      <trkpt lat="44.9145680" lon="7.1797260">
        <ele>1363.6</ele>
        <time>2017-07-26T13:54:14Z</time>
      </trkpt>
      <trkpt lat="44.9145540" lon="7.1797300">
        <ele>1362.8</ele>
        <time>2017-07-26T13:54:15Z</time>
      </trkpt>
      <trkpt lat="44.9145430" lon="7.1797630">
        <ele>1361.0</ele>
        <time>2017-07-26T13:54:17Z</time>
      </trkpt>
      <trkpt lat="44.9145360" lon="7.1797760">
        <ele>1360.4</ele>
        <time>2017-07-26T13:54:18Z</time>
      </trkpt>
      <trkpt lat="44.9145220" lon="7.1797860">
        <ele>1359.8</ele>
        <time>2017-07-26T13:54:19Z</time>
      </trkpt>
      <trkpt lat="44.9144660" lon="7.1798140">
        <ele>1358.4</ele>
        <time>2017-07-26T13:54:21Z</time>
      </trkpt>
      <trkpt lat="44.9144300" lon="7.1798180">
        <ele>1357.6</ele>
        <time>2017-07-26T13:54:22Z</time>
      </trkpt>
      <trkpt lat="44.9143900" lon="7.1798160">
        <ele>1355.8</ele>
        <time>2017-07-26T13:54:23Z</time>
      </trkpt>
      <trkpt lat="44.9143520" lon="7.1798050">
        <ele>1354.6</ele>
        <time>2017-07-26T13:54:24Z</time>
      </trkpt>
      <trkpt lat="44.9142550" lon="7.1798070">
        <ele>1353.2</ele>
        <time>2017-07-26T13:54:26Z</time>
      </trkpt>
      <trkpt lat="44.9142080" lon="7.1798230">
        <ele>1352.6</ele>
        <time>2017-07-26T13:54:27Z</time>
      </trkpt>
      <trkpt lat="44.9141590" lon="7.1798370">
        <ele>1352.2</ele>
        <time>2017-07-26T13:54:28Z</time>
      </trkpt>
      <trkpt lat="44.9141060" lon="7.1798560">
        <ele>1351.0</ele>
        <time>2017-07-26T13:54:29Z</time>
      </trkpt>
      <trkpt lat="44.9140630" lon="7.1798630">
        <ele>1349.8</ele>
        <time>2017-07-26T13:54:30Z</time>
      </trkpt>
      <trkpt lat="44.9140260" lon="7.1798600">
        <ele>1348.4</ele>
        <time>2017-07-26T13:54:31Z</time>
      </trkpt>
      <trkpt lat="44.9139920" lon="7.1798440">
        <ele>1347.2</ele>
        <time>2017-07-26T13:54:32Z</time>
      </trkpt>
      <trkpt lat="44.9139610" lon="7.1798270">
        <ele>1346.0</ele>
        <time>2017-07-26T13:54:33Z</time>
      </trkpt>
      <trkpt lat="44.9139000" lon="7.1797860">
        <ele>1344.2</ele>
        <time>2017-07-26T13:54:35Z</time>
      </trkpt>
      <trkpt lat="44.9138670" lon="7.1798020">
        <ele>1341.8</ele>
        <time>2017-07-26T13:54:37Z</time>
      </trkpt>
      <trkpt lat="44.9138420" lon="7.1798610">
        <ele>1340.0</ele>
        <time>2017-07-26T13:54:39Z</time>
      </trkpt>
      <trkpt lat="44.9137950" lon="7.1799070">
        <ele>1338.0</ele>
        <time>2017-07-26T13:54:41Z</time>
      </trkpt>
      <trkpt lat="44.9137220" lon="7.1799200">
        <ele>1336.0</ele>
        <time>2017-07-26T13:54:43Z</time>
      </trkpt>
      <trkpt lat="44.9136290" lon="7.1799210">
        <ele>1333.8</ele>
        <time>2017-07-26T13:54:45Z</time>
      </trkpt>
      <trkpt lat="44.9135740" lon="7.1799390">
        <ele>1332.6</ele>
        <time>2017-07-26T13:54:46Z</time>
      </trkpt>
      <trkpt lat="44.9135190" lon="7.1799600">
        <ele>1330.4</ele>
        <time>2017-07-26T13:54:47Z</time>
      </trkpt>
      <trkpt lat="44.9134650" lon="7.1799760">
        <ele>1329.2</ele>
        <time>2017-07-26T13:54:48Z</time>
      </trkpt>
      <trkpt lat="44.9134090" lon="7.1799820">
        <ele>1328.0</ele>
        <time>2017-07-26T13:54:49Z</time>
      </trkpt>
      <trkpt lat="44.9133600" lon="7.1799680">
        <ele>1326.6</ele>
        <time>2017-07-26T13:54:50Z</time>
      </trkpt>
      <trkpt lat="44.9132590" lon="7.1799660">
        <ele>1324.8</ele>
        <time>2017-07-26T13:54:52Z</time>
      </trkpt>
      <trkpt lat="44.9132060" lon="7.1799750">
        <ele>1323.8</ele>
        <time>2017-07-26T13:54:53Z</time>
      </trkpt>
      <trkpt lat="44.9130810" lon="7.1799920">
        <ele>1321.8</ele>
        <time>2017-07-26T13:54:55Z</time>
      </trkpt>
      <trkpt lat="44.9130220" lon="7.1799990">
        <ele>1321.0</ele>
        <time>2017-07-26T13:54:56Z</time>
      </trkpt>
      <trkpt lat="44.9129640" lon="7.1799920">
        <ele>1319.4</ele>
        <time>2017-07-26T13:54:57Z</time>
      </trkpt>
      <trkpt lat="44.9129120" lon="7.1799870">
        <ele>1317.8</ele>
        <time>2017-07-26T13:54:58Z</time>
      </trkpt>
      <trkpt lat="44.9128730" lon="7.1800070">
        <ele>1316.2</ele>
        <time>2017-07-26T13:54:59Z</time>
      </trkpt>
      <trkpt lat="44.9128410" lon="7.1800390">
        <ele>1315.0</ele>
        <time>2017-07-26T13:55:00Z</time>
      </trkpt>
      <trkpt lat="44.9127820" lon="7.1801190">
        <ele>1313.2</ele>
        <time>2017-07-26T13:55:02Z</time>
      </trkpt>
      <trkpt lat="44.9127560" lon="7.1801460">
        <ele>1312.0</ele>
        <time>2017-07-26T13:55:03Z</time>
      </trkpt>
      <trkpt lat="44.9127240" lon="7.1801580">
        <ele>1310.6</ele>
        <time>2017-07-26T13:55:04Z</time>
      </trkpt>
      <trkpt lat="44.9126910" lon="7.1801710">
        <ele>1309.4</ele>
        <time>2017-07-26T13:55:05Z</time>
      </trkpt>
      <trkpt lat="44.9126770" lon="7.1801900">
        <ele>1308.2</ele>
        <time>2017-07-26T13:55:06Z</time>
      </trkpt>
      <trkpt lat="44.9126690" lon="7.1802170">
        <ele>1307.0</ele>
        <time>2017-07-26T13:55:07Z</time>
      </trkpt>
      <trkpt lat="44.9126760" lon="7.1802540">
        <ele>1305.8</ele>
        <time>2017-07-26T13:55:08Z</time>
      </trkpt>
      <trkpt lat="44.9126870" lon="7.1802890">
        <ele>1304.6</ele>
        <time>2017-07-26T13:55:09Z</time>
      </trkpt>
      <trkpt lat="44.9126990" lon="7.1803230">
        <ele>1303.4</ele>
        <time>2017-07-26T13:55:10Z</time>
      </trkpt>
      <trkpt lat="44.9127110" lon="7.1803610">
        <ele>1301.8</ele>
        <time>2017-07-26T13:55:11Z</time>
      </trkpt>
      <trkpt lat="44.9127240" lon="7.1803990">
        <ele>1300.8</ele>
        <time>2017-07-26T13:55:12Z</time>
      </trkpt>
      <trkpt lat="44.9127380" lon="7.1804380">
        <ele>1299.4</ele>
        <time>2017-07-26T13:55:13Z</time>
      </trkpt>
      <trkpt lat="44.9127530" lon="7.1804820">
        <ele>1298.4</ele>
        <time>2017-07-26T13:55:14Z</time>
      </trkpt>
      <trkpt lat="44.9127690" lon="7.1805400">
        <ele>1297.2</ele>
        <time>2017-07-26T13:55:15Z</time>
      </trkpt>
      <trkpt lat="44.9127850" lon="7.1805990">
        <ele>1296.2</ele>
        <time>2017-07-26T13:55:16Z</time>
      </trkpt>
      <trkpt lat="44.9127960" lon="7.1806650">
        <ele>1295.2</ele>
        <time>2017-07-26T13:55:17Z</time>
      </trkpt>
      <trkpt lat="44.9128020" lon="7.1808380">
        <ele>1293.4</ele>
        <time>2017-07-26T13:55:19Z</time>
      </trkpt>
      <trkpt lat="44.9127700" lon="7.1809790">
        <ele>1291.2</ele>
        <time>2017-07-26T13:55:21Z</time>
      </trkpt>
      <trkpt lat="44.9127330" lon="7.1809980">
        <ele>1289.8</ele>
        <time>2017-07-26T13:55:22Z</time>
      </trkpt>
      <trkpt lat="44.9126990" lon="7.1809790">
        <ele>1288.4</ele>
        <time>2017-07-26T13:55:23Z</time>
      </trkpt>
      <trkpt lat="44.9126680" lon="7.1809410">
        <ele>1287.2</ele>
        <time>2017-07-26T13:55:24Z</time>
      </trkpt>
      <trkpt lat="44.9126390" lon="7.1808910">
        <ele>1286.0</ele>
        <time>2017-07-26T13:55:25Z</time>
      </trkpt>
      <trkpt lat="44.9126090" lon="7.1808280">
        <ele>1285.0</ele>
        <time>2017-07-26T13:55:26Z</time>
      </trkpt>
      <trkpt lat="44.9125780" lon="7.1807580">
        <ele>1284.0</ele>
        <time>2017-07-26T13:55:27Z</time>
      </trkpt>
      <trkpt lat="44.9125500" lon="7.1806790">
        <ele>1282.8</ele>
        <time>2017-07-26T13:55:28Z</time>
      </trkpt>
      <trkpt lat="44.9125170" lon="7.1806010">
        <ele>1282.0</ele>
        <time>2017-07-26T13:55:29Z</time>
      </trkpt>
      <trkpt lat="44.9124800" lon="7.1805240">
        <ele>1281.2</ele>
        <time>2017-07-26T13:55:30Z</time>
      </trkpt>
      <trkpt lat="44.9124390" lon="7.1804560">
        <ele>1280.6</ele>
        <time>2017-07-26T13:55:31Z</time>
      </trkpt>
      <trkpt lat="44.9123970" lon="7.1804190">
        <ele>1280.0</ele>
        <time>2017-07-26T13:55:32Z</time>
      </trkpt>
      <trkpt lat="44.9123540" lon="7.1804170">
        <ele>1279.4</ele>
        <time>2017-07-26T13:55:33Z</time>
      </trkpt>
      <trkpt lat="44.9123210" lon="7.1804470">
        <ele>1278.4</ele>
        <time>2017-07-26T13:55:34Z</time>
      </trkpt>
      <trkpt lat="44.9123040" lon="7.1805070">
        <ele>1277.2</ele>
        <time>2017-07-26T13:55:35Z</time>
      </trkpt>
      <trkpt lat="44.9122680" lon="7.1806790">
        <ele>1276.0</ele>
        <time>2017-07-26T13:55:37Z</time>
      </trkpt>
      <trkpt lat="44.9122420" lon="7.1807690">
        <ele>1275.0</ele>
        <time>2017-07-26T13:55:38Z</time>
      </trkpt>
      <trkpt lat="44.9122140" lon="7.1808590">
        <ele>1274.6</ele>
        <time>2017-07-26T13:55:39Z</time>
      </trkpt>
      <trkpt lat="44.9122000" lon="7.1809560">
        <ele>1273.8</ele>
        <time>2017-07-26T13:55:40Z</time>
      </trkpt>
      <trkpt lat="44.9122060" lon="7.1810490">
        <ele>1273.0</ele>
        <time>2017-07-26T13:55:41Z</time>
      </trkpt>
      <trkpt lat="44.9122280" lon="7.1811470">
        <ele>1271.8</ele>
        <time>2017-07-26T13:55:42Z</time>
      </trkpt>
      <trkpt lat="44.9123150" lon="7.1813060">
        <ele>1269.8</ele>
        <time>2017-07-26T13:55:44Z</time>
      </trkpt>
      <trkpt lat="44.9123670" lon="7.1813860">
        <ele>1269.0</ele>
        <time>2017-07-26T13:55:45Z</time>
      </trkpt>
      <trkpt lat="44.9124050" lon="7.1814570">
        <ele>1268.0</ele>
        <time>2017-07-26T13:55:46Z</time>
      </trkpt>
      <trkpt lat="44.9124370" lon="7.1816110">
        <ele>1266.2</ele>
        <time>2017-07-26T13:55:48Z</time>
      </trkpt>
      <trkpt lat="44.9124820" lon="7.1818050">
        <ele>1264.6</ele>
        <time>2017-07-26T13:55:51Z</time>
      </trkpt>
      <trkpt lat="44.9125140" lon="7.1818570">
        <ele>1263.6</ele>
        <time>2017-07-26T13:55:52Z</time>
      </trkpt>
      <trkpt lat="44.9126040" lon="7.1819640">
        <ele>1261.8</ele>
        <time>2017-07-26T13:55:54Z</time>
      </trkpt>
      <trkpt lat="44.9126240" lon="7.1820370">
        <ele>1261.0</ele>
        <time>2017-07-26T13:55:55Z</time>
      </trkpt>
      <trkpt lat="44.9126320" lon="7.1821030">
        <ele>1260.0</ele>
        <time>2017-07-26T13:55:56Z</time>
      </trkpt>
      <trkpt lat="44.9126080" lon="7.1822150">
        <ele>1258.4</ele>
        <time>2017-07-26T13:55:58Z</time>
      </trkpt>
      <trkpt lat="44.9125810" lon="7.1822710">
        <ele>1256.4</ele>
        <time>2017-07-26T13:55:59Z</time>
      </trkpt>
      <trkpt lat="44.9125140" lon="7.1823790">
        <ele>1255.0</ele>
        <time>2017-07-26T13:56:01Z</time>
      </trkpt>
      <trkpt lat="44.9124760" lon="7.1824340">
        <ele>1254.2</ele>
        <time>2017-07-26T13:56:02Z</time>
      </trkpt>
      <trkpt lat="44.9124410" lon="7.1824860">
        <ele>1253.4</ele>
        <time>2017-07-26T13:56:03Z</time>
      </trkpt>
      <trkpt lat="44.9124130" lon="7.1825320">
        <ele>1252.4</ele>
        <time>2017-07-26T13:56:04Z</time>
      </trkpt>
      <trkpt lat="44.9123520" lon="7.1826370">
        <ele>1250.2</ele>
        <time>2017-07-26T13:56:06Z</time>
      </trkpt>
      <trkpt lat="44.9123160" lon="7.1826920">
        <ele>1249.0</ele>
        <time>2017-07-26T13:56:07Z</time>
      </trkpt>
      <trkpt lat="44.9122790" lon="7.1827270">
        <ele>1247.6</ele>
        <time>2017-07-26T13:56:08Z</time>
      </trkpt>
      <trkpt lat="44.9122420" lon="7.1827740">
        <ele>1246.6</ele>
        <time>2017-07-26T13:56:09Z</time>
      </trkpt>
      <trkpt lat="44.9122000" lon="7.1828310">
        <ele>1245.4</ele>
        <time>2017-07-26T13:56:10Z</time>
      </trkpt>
      <trkpt lat="44.9121600" lon="7.1828910">
        <ele>1244.4</ele>
        <time>2017-07-26T13:56:11Z</time>
      </trkpt>
      <trkpt lat="44.9121220" lon="7.1829690">
        <ele>1243.2</ele>
        <time>2017-07-26T13:56:12Z</time>
      </trkpt>
      <trkpt lat="44.9120910" lon="7.1830400">
        <ele>1242.2</ele>
        <time>2017-07-26T13:56:13Z</time>
      </trkpt>
      <trkpt lat="44.9120620" lon="7.1831050">
        <ele>1241.2</ele>
        <time>2017-07-26T13:56:14Z</time>
      </trkpt>
      <trkpt lat="44.9120300" lon="7.1831750">
        <ele>1240.2</ele>
        <time>2017-07-26T13:56:15Z</time>
      </trkpt>
      <trkpt lat="44.9119970" lon="7.1832380">
        <ele>1239.2</ele>
        <time>2017-07-26T13:56:16Z</time>
      </trkpt>
      <trkpt lat="44.9119620" lon="7.1832990">
        <ele>1238.0</ele>
        <time>2017-07-26T13:56:17Z</time>
      </trkpt>
      <trkpt lat="44.9118890" lon="7.1834250">
        <ele>1235.6</ele>
        <time>2017-07-26T13:56:19Z</time>
      </trkpt>
      <trkpt lat="44.9118560" lon="7.1834850">
        <ele>1234.2</ele>
        <time>2017-07-26T13:56:20Z</time>
      </trkpt>
      <trkpt lat="44.9118160" lon="7.1835590">
        <ele>1233.0</ele>
        <time>2017-07-26T13:56:21Z</time>
      </trkpt>
      <trkpt lat="44.9117770" lon="7.1836360">
        <ele>1231.8</ele>
        <time>2017-07-26T13:56:22Z</time>
      </trkpt>
      <trkpt lat="44.9117380" lon="7.1837170">
        <ele>1229.0</ele>
        <time>2017-07-26T13:56:23Z</time>
      </trkpt>
      <trkpt lat="44.9117080" lon="7.1838010">
        <ele>1228.0</ele>
        <time>2017-07-26T13:56:24Z</time>
      </trkpt>
      <trkpt lat="44.9116810" lon="7.1839780">
        <ele>1226.0</ele>
        <time>2017-07-26T13:56:26Z</time>
      </trkpt>
      <trkpt lat="44.9116650" lon="7.1841720">
        <ele>1224.2</ele>
        <time>2017-07-26T13:56:28Z</time>
      </trkpt>
      <trkpt lat="44.9116330" lon="7.1843930">
        <ele>1222.0</ele>
        <time>2017-07-26T13:56:30Z</time>
      </trkpt>
      <trkpt lat="44.9116090" lon="7.1845030">
        <ele>1221.0</ele>
        <time>2017-07-26T13:56:31Z</time>
      </trkpt>
      <trkpt lat="44.9115930" lon="7.1845930">
        <ele>1220.0</ele>
        <time>2017-07-26T13:56:32Z</time>
      </trkpt>
      <trkpt lat="44.9115900" lon="7.1846690">
        <ele>1219.2</ele>
        <time>2017-07-26T13:56:33Z</time>
      </trkpt>
      <trkpt lat="44.9115910" lon="7.1847410">
        <ele>1218.2</ele>
        <time>2017-07-26T13:56:34Z</time>
      </trkpt>
      <trkpt lat="44.9115980" lon="7.1848130">
        <ele>1217.4</ele>
        <time>2017-07-26T13:56:35Z</time>
      </trkpt>
      <trkpt lat="44.9116180" lon="7.1848850">
        <ele>1216.8</ele>
        <time>2017-07-26T13:56:36Z</time>
      </trkpt>
      <trkpt lat="44.9116730" lon="7.1850320">
        <ele>1215.8</ele>
        <time>2017-07-26T13:56:38Z</time>
      </trkpt>
      <trkpt lat="44.9116890" lon="7.1852710">
        <ele>1214.4</ele>
        <time>2017-07-26T13:56:41Z</time>
      </trkpt>
      <trkpt lat="44.9116950" lon="7.1853450">
        <ele>1214.0</ele>
        <time>2017-07-26T13:56:42Z</time>
      </trkpt>
      <trkpt lat="44.9117350" lon="7.1854610">
        <ele>1213.2</ele>
        <time>2017-07-26T13:56:44Z</time>
      </trkpt>
      <trkpt lat="44.9117570" lon="7.1855290">
        <ele>1212.8</ele>
        <time>2017-07-26T13:56:45Z</time>
      </trkpt>
      <trkpt lat="44.9118010" lon="7.1856840">
        <ele>1212.0</ele>
        <time>2017-07-26T13:56:47Z</time>
      </trkpt>
      <trkpt lat="44.9118240" lon="7.1857580">
        <ele>1211.4</ele>
        <time>2017-07-26T13:56:48Z</time>
      </trkpt>
      <trkpt lat="44.9118410" lon="7.1858320">
        <ele>1210.8</ele>
        <time>2017-07-26T13:56:49Z</time>
      </trkpt>
      <trkpt lat="44.9118670" lon="7.1859880">
        <ele>1209.6</ele>
        <time>2017-07-26T13:56:51Z</time>
      </trkpt>
      <trkpt lat="44.9118700" lon="7.1860940">
        <ele>1208.8</ele>
        <time>2017-07-26T13:56:52Z</time>
      </trkpt>
      <trkpt lat="44.9118730" lon="7.1861980">
        <ele>1208.0</ele>
        <time>2017-07-26T13:56:53Z</time>
      </trkpt>
      <trkpt lat="44.9118810" lon="7.1863020">
        <ele>1207.2</ele>
        <time>2017-07-26T13:56:54Z</time>
      </trkpt>
      <trkpt lat="44.9118860" lon="7.1864150">
        <ele>1206.8</ele>
        <time>2017-07-26T13:56:55Z</time>
      </trkpt>
      <trkpt lat="44.9118750" lon="7.1865330">
        <ele>1206.0</ele>
        <time>2017-07-26T13:56:56Z</time>
      </trkpt>
      <trkpt lat="44.9118520" lon="7.1866500">
        <ele>1205.2</ele>
        <time>2017-07-26T13:56:57Z</time>
      </trkpt>
      <trkpt lat="44.9118120" lon="7.1867430">
        <ele>1203.8</ele>
        <time>2017-07-26T13:56:58Z</time>
      </trkpt>
      <trkpt lat="44.9117790" lon="7.1868150">
        <ele>1203.0</ele>
        <time>2017-07-26T13:56:59Z</time>
      </trkpt>
      <trkpt lat="44.9117540" lon="7.1868840">
        <ele>1202.0</ele>
        <time>2017-07-26T13:57:00Z</time>
      </trkpt>
      <trkpt lat="44.9117320" lon="7.1869520">
        <ele>1201.6</ele>
        <time>2017-07-26T13:57:01Z</time>
      </trkpt>
      <trkpt lat="44.9117130" lon="7.1870220">
        <ele>1200.8</ele>
        <time>2017-07-26T13:57:02Z</time>
      </trkpt>
      <trkpt lat="44.9116700" lon="7.1872030">
        <ele>1199.6</ele>
        <time>2017-07-26T13:57:04Z</time>
      </trkpt>
      <trkpt lat="44.9116360" lon="7.1874050">
        <ele>1198.4</ele>
        <time>2017-07-26T13:57:06Z</time>
      </trkpt>
      <trkpt lat="44.9116360" lon="7.1874950">
        <ele>1197.0</ele>
        <time>2017-07-26T13:57:07Z</time>
      </trkpt>
      <trkpt lat="44.9116380" lon="7.1875810">
        <ele>1196.4</ele>
        <time>2017-07-26T13:57:08Z</time>
      </trkpt>
      <trkpt lat="44.9116370" lon="7.1876630">
        <ele>1195.8</ele>
        <time>2017-07-26T13:57:09Z</time>
      </trkpt>
      <trkpt lat="44.9116300" lon="7.1878310">
        <ele>1194.8</ele>
        <time>2017-07-26T13:57:11Z</time>
      </trkpt>
      <trkpt lat="44.9116150" lon="7.1880110">
        <ele>1193.6</ele>
        <time>2017-07-26T13:57:13Z</time>
      </trkpt>
      <trkpt lat="44.9116030" lon="7.1881050">
        <ele>1192.8</ele>
        <time>2017-07-26T13:57:14Z</time>
      </trkpt>
      <trkpt lat="44.9115890" lon="7.1882000">
        <ele>1192.2</ele>
        <time>2017-07-26T13:57:15Z</time>
      </trkpt>
      <trkpt lat="44.9115470" lon="7.1883830">
        <ele>1191.0</ele>
        <time>2017-07-26T13:57:17Z</time>
      </trkpt>
      <trkpt lat="44.9115310" lon="7.1884720">
        <ele>1190.4</ele>
        <time>2017-07-26T13:57:18Z</time>
      </trkpt>
      <trkpt lat="44.9115260" lon="7.1885690">
        <ele>1189.8</ele>
        <time>2017-07-26T13:57:19Z</time>
      </trkpt>
      <trkpt lat="44.9115020" lon="7.1888510">
        <ele>1189.0</ele>
        <time>2017-07-26T13:57:22Z</time>
      </trkpt>
      <trkpt lat="44.9114520" lon="7.1890470">
        <ele>1188.6</ele>
        <time>2017-07-26T13:57:24Z</time>
      </trkpt>
      <trkpt lat="44.9114000" lon="7.1892280">
        <ele>1187.8</ele>
        <time>2017-07-26T13:57:26Z</time>
      </trkpt>
      <trkpt lat="44.9113890" lon="7.1892830">
        <ele>1187.2</ele>
        <time>2017-07-26T13:57:27Z</time>
      </trkpt>
      <trkpt lat="44.9113620" lon="7.1892820">
        <ele>1186.8</ele>
        <time>2017-07-26T13:57:28Z</time>
      </trkpt>
      <trkpt lat="44.9113370" lon="7.1893090">
        <ele>1185.8</ele>
        <time>2017-07-26T13:57:29Z</time>
      </trkpt>
      <trkpt lat="44.9113290" lon="7.1893580">
        <ele>1185.4</ele>
        <time>2017-07-26T13:57:30Z</time>
      </trkpt>
      <trkpt lat="44.9113170" lon="7.1894910">
        <ele>1184.8</ele>
        <time>2017-07-26T13:57:32Z</time>
      </trkpt>
      <trkpt lat="44.9113210" lon="7.1895510">
        <ele>1184.4</ele>
        <time>2017-07-26T13:57:33Z</time>
      </trkpt>
      <trkpt lat="44.9113270" lon="7.1896060">
        <ele>1184.0</ele>
        <time>2017-07-26T13:57:34Z</time>
      </trkpt>
      <trkpt lat="44.9113460" lon="7.1896480">
        <ele>1183.4</ele>
        <time>2017-07-26T13:57:35Z</time>
      </trkpt>
      <trkpt lat="44.9114280" lon="7.1897160">
        <ele>1183.2</ele>
        <time>2017-07-26T13:57:37Z</time>
      </trkpt>
      <trkpt lat="44.9115170" lon="7.1897740">
        <ele>1183.2</ele>
        <time>2017-07-26T13:57:39Z</time>
      </trkpt>
      <trkpt lat="44.9116080" lon="7.1898140">
        <ele>1183.2</ele>
        <time>2017-07-26T13:57:41Z</time>
      </trkpt>
      <trkpt lat="44.9117010" lon="7.1898210">
        <ele>1183.2</ele>
        <time>2017-07-26T13:57:43Z</time>
      </trkpt>
      <trkpt lat="44.9117890" lon="7.1898290">
        <ele>1183.4</ele>
        <time>2017-07-26T13:57:45Z</time>
      </trkpt>
      <trkpt lat="44.9118470" lon="7.1898730">
        <ele>1183.4</ele>
        <time>2017-07-26T13:57:47Z</time>
      </trkpt>
      <trkpt lat="44.9118610" lon="7.1899980">
        <ele>1184.0</ele>
        <time>2017-07-26T13:57:51Z</time>
      </trkpt>
      <trkpt lat="44.9118660" lon="7.1901220">
        <ele>1184.8</ele>
        <time>2017-07-26T13:57:54Z</time>
      </trkpt>
      <trkpt lat="44.9118630" lon="7.1902050">
        <ele>1185.0</ele>
        <time>2017-07-26T13:57:56Z</time>
      </trkpt>
      <trkpt lat="44.9118610" lon="7.1903720">
        <ele>1185.8</ele>
        <time>2017-07-26T13:57:59Z</time>
      </trkpt>
      <trkpt lat="44.9118560" lon="7.1904500">
        <ele>1185.8</ele>
        <time>2017-07-26T13:58:00Z</time>
      </trkpt>
      <trkpt lat="44.9118400" lon="7.1905270">
        <ele>1186.0</ele>
        <time>2017-07-26T13:58:01Z</time>
      </trkpt>
      <trkpt lat="44.9117840" lon="7.1906520">
        <ele>1186.0</ele>
        <time>2017-07-26T13:58:03Z</time>
      </trkpt>
      <trkpt lat="44.9117070" lon="7.1908290">
        <ele>1185.4</ele>
        <time>2017-07-26T13:58:06Z</time>
      </trkpt>
      <trkpt lat="44.9116890" lon="7.1908910">
        <ele>1185.2</ele>
        <time>2017-07-26T13:58:07Z</time>
      </trkpt>
      <trkpt lat="44.9116900" lon="7.1910220">
        <ele>1185.2</ele>
        <time>2017-07-26T13:58:09Z</time>
      </trkpt>
      <trkpt lat="44.9117900" lon="7.1913210">
        <ele>1185.4</ele>
        <time>2017-07-26T13:58:13Z</time>
      </trkpt>
      <trkpt lat="44.9118570" lon="7.1914700">
        <ele>1185.0</ele>
        <time>2017-07-26T13:58:15Z</time>
      </trkpt>
      <trkpt lat="44.9118820" lon="7.1915480">
        <ele>1184.6</ele>
        <time>2017-07-26T13:58:16Z</time>
      </trkpt>
      <trkpt lat="44.9119110" lon="7.1917050">
        <ele>1184.6</ele>
        <time>2017-07-26T13:58:18Z</time>
      </trkpt>
      <trkpt lat="44.9119270" lon="7.1918610">
        <ele>1184.4</ele>
        <time>2017-07-26T13:58:20Z</time>
      </trkpt>
      <trkpt lat="44.9119700" lon="7.1920120">
        <ele>1183.8</ele>
        <time>2017-07-26T13:58:23Z</time>
      </trkpt>
      <trkpt lat="44.9120010" lon="7.1920670">
        <ele>1183.6</ele>
        <time>2017-07-26T13:58:25Z</time>
      </trkpt>
      <trkpt lat="44.9120510" lon="7.1921620">
        <ele>1182.0</ele>
        <time>2017-07-26T13:58:28Z</time>
      </trkpt>
      <trkpt lat="44.9120870" lon="7.1922520">
        <ele>1180.8</ele>
        <time>2017-07-26T13:58:31Z</time>
      </trkpt>
      <trkpt lat="44.9120990" lon="7.1923220">
        <ele>1179.4</ele>
        <time>2017-07-26T13:58:33Z</time>
      </trkpt>
      <trkpt lat="44.9121000" lon="7.1923480">
        <ele>1178.8</ele>
        <time>2017-07-26T13:58:34Z</time>
      </trkpt>
      <trkpt lat="44.9121000" lon="7.1923750">
        <ele>1178.0</ele>
        <time>2017-07-26T13:58:35Z</time>
      </trkpt>
      <trkpt lat="44.9121000" lon="7.1924380">
        <ele>1176.6</ele>
        <time>2017-07-26T13:58:37Z</time>
      </trkpt>
      <trkpt lat="44.9121130" lon="7.1924760">
        <ele>1176.0</ele>
        <time>2017-07-26T13:58:38Z</time>
      </trkpt>
      <trkpt lat="44.9121280" lon="7.1925160">
        <ele>1175.4</ele>
        <time>2017-07-26T13:58:39Z</time>
      </trkpt>
      <trkpt lat="44.9121510" lon="7.1926080">
        <ele>1174.4</ele>
        <time>2017-07-26T13:58:41Z</time>
      </trkpt>
      <trkpt lat="44.9121840" lon="7.1927040">
        <ele>1173.4</ele>
        <time>2017-07-26T13:58:43Z</time>
      </trkpt>
      <trkpt lat="44.9122190" lon="7.1927950">
        <ele>1172.0</ele>
        <time>2017-07-26T13:58:45Z</time>
      </trkpt>
      <trkpt lat="44.9122430" lon="7.1929050">
        <ele>1170.6</ele>
        <time>2017-07-26T13:58:47Z</time>
      </trkpt>
      <trkpt lat="44.9122640" lon="7.1930180">
        <ele>1169.0</ele>
        <time>2017-07-26T13:58:49Z</time>
      </trkpt>
      <trkpt lat="44.9122720" lon="7.1930630">
        <ele>1167.8</ele>
        <time>2017-07-26T13:58:50Z</time>
      </trkpt>
      <trkpt lat="44.9122810" lon="7.1931140">
        <ele>1167.2</ele>
        <time>2017-07-26T13:58:51Z</time>
      </trkpt>
      <trkpt lat="44.9122790" lon="7.1931760">
        <ele>1166.2</ele>
        <time>2017-07-26T13:58:52Z</time>
      </trkpt>
      <trkpt lat="44.9122250" lon="7.1932540">
        <ele>1164.8</ele>
        <time>2017-07-26T13:58:54Z</time>
      </trkpt>
      <trkpt lat="44.9121410" lon="7.1932950">
        <ele>1163.6</ele>
        <time>2017-07-26T13:58:56Z</time>
      </trkpt>
      <trkpt lat="44.9120550" lon="7.1933360">
        <ele>1162.2</ele>
        <time>2017-07-26T13:58:58Z</time>
      </trkpt>
      <trkpt lat="44.9120060" lon="7.1933680">
        <ele>1161.8</ele>
        <time>2017-07-26T13:58:59Z</time>
      </trkpt>
      <trkpt lat="44.9119570" lon="7.1934100">
        <ele>1161.2</ele>
        <time>2017-07-26T13:59:00Z</time>
      </trkpt>
      <trkpt lat="44.9118770" lon="7.1936120">
        <ele>1159.6</ele>
        <time>2017-07-26T13:59:03Z</time>
      </trkpt>
      <trkpt lat="44.9118690" lon="7.1936880">
        <ele>1159.2</ele>
        <time>2017-07-26T13:59:04Z</time>
      </trkpt>
      <trkpt lat="44.9118610" lon="7.1937640">
        <ele>1158.4</ele>
        <time>2017-07-26T13:59:05Z</time>
      </trkpt>
      <trkpt lat="44.9118560" lon="7.1938420">
        <ele>1157.8</ele>
        <time>2017-07-26T13:59:06Z</time>
      </trkpt>
      <trkpt lat="44.9118600" lon="7.1940080">
        <ele>1157.2</ele>
        <time>2017-07-26T13:59:08Z</time>
      </trkpt>
      <trkpt lat="44.9118770" lon="7.1940890">
        <ele>1156.8</ele>
        <time>2017-07-26T13:59:09Z</time>
      </trkpt>
      <trkpt lat="44.9119740" lon="7.1942030">
        <ele>1155.4</ele>
        <time>2017-07-26T13:59:11Z</time>
      </trkpt>
      <trkpt lat="44.9120210" lon="7.1942520">
        <ele>1155.0</ele>
        <time>2017-07-26T13:59:12Z</time>
      </trkpt>
      <trkpt lat="44.9120510" lon="7.1943070">
        <ele>1154.8</ele>
        <time>2017-07-26T13:59:13Z</time>
      </trkpt>
      <trkpt lat="44.9120570" lon="7.1943670">
        <ele>1154.6</ele>
        <time>2017-07-26T13:59:14Z</time>
      </trkpt>
      <trkpt lat="44.9120360" lon="7.1944110">
        <ele>1154.2</ele>
        <time>2017-07-26T13:59:15Z</time>
      </trkpt>
      <trkpt lat="44.9120070" lon="7.1944500">
        <ele>1153.8</ele>
        <time>2017-07-26T13:59:16Z</time>
      </trkpt>
      <trkpt lat="44.9119350" lon="7.1945560">
        <ele>1153.2</ele>
        <time>2017-07-26T13:59:18Z</time>
      </trkpt>
      <trkpt lat="44.9119100" lon="7.1946320">
        <ele>1153.0</ele>
        <time>2017-07-26T13:59:19Z</time>
      </trkpt>
      <trkpt lat="44.9118900" lon="7.1947050">
        <ele>1153.0</ele>
        <time>2017-07-26T13:59:20Z</time>
      </trkpt>
      <trkpt lat="44.9118320" lon="7.1949340">
        <ele>1152.4</ele>
        <time>2017-07-26T13:59:23Z</time>
      </trkpt>
      <trkpt lat="44.9118130" lon="7.1950430">
        <ele>1152.2</ele>
        <time>2017-07-26T13:59:24Z</time>
      </trkpt>
      <trkpt lat="44.9117980" lon="7.1951480">
        <ele>1152.0</ele>
        <time>2017-07-26T13:59:25Z</time>
      </trkpt>
      <trkpt lat="44.9118230" lon="7.1954290">
        <ele>1151.0</ele>
        <time>2017-07-26T13:59:27Z</time>
      </trkpt>
      <trkpt lat="44.9118250" lon="7.1955650">
        <ele>1150.6</ele>
        <time>2017-07-26T13:59:28Z</time>
      </trkpt>
      <trkpt lat="44.9117930" lon="7.1958130">
        <ele>1149.4</ele>
        <time>2017-07-26T13:59:30Z</time>
      </trkpt>
      <trkpt lat="44.9117360" lon="7.1961130">
        <ele>1147.8</ele>
        <time>2017-07-26T13:59:32Z</time>
      </trkpt>
      <trkpt lat="44.9117110" lon="7.1962710">
        <ele>1146.6</ele>
        <time>2017-07-26T13:59:33Z</time>
      </trkpt>
      <trkpt lat="44.9117020" lon="7.1964270">
        <ele>1145.4</ele>
        <time>2017-07-26T13:59:34Z</time>
      </trkpt>
      <trkpt lat="44.9116970" lon="7.1965700">
        <ele>1143.2</ele>
        <time>2017-07-26T13:59:35Z</time>
      </trkpt>
      <trkpt lat="44.9116960" lon="7.1966660">
        <ele>1142.0</ele>
        <time>2017-07-26T13:59:36Z</time>
      </trkpt>
      <trkpt lat="44.9116970" lon="7.1967370">
        <ele>1141.0</ele>
        <time>2017-07-26T13:59:37Z</time>
      </trkpt>
      <trkpt lat="44.9117260" lon="7.1967870">
        <ele>1140.2</ele>
        <time>2017-07-26T13:59:38Z</time>
      </trkpt>
      <trkpt lat="44.9117610" lon="7.1967840">
        <ele>1139.2</ele>
        <time>2017-07-26T13:59:39Z</time>
      </trkpt>
      <trkpt lat="44.9117640" lon="7.1967450">
        <ele>1137.4</ele>
        <time>2017-07-26T13:59:41Z</time>
      </trkpt>
      <trkpt lat="44.9116980" lon="7.1967200">
        <ele>1135.8</ele>
        <time>2017-07-26T13:59:43Z</time>
      </trkpt>
      <trkpt lat="44.9116730" lon="7.1967370">
        <ele>1135.2</ele>
        <time>2017-07-26T13:59:44Z</time>
      </trkpt>
      <trkpt lat="44.9116710" lon="7.1963910">
        <ele>1138.6</ele>
        <time>2017-07-27T05:59:07Z</time>
      </trkpt>
      <trkpt lat="44.9116860" lon="7.1964350">
        <ele>1140.0</ele>
        <time>2017-07-27T06:00:04Z</time>
      </trkpt>
      <trkpt lat="44.9117010" lon="7.1965000">
        <ele>1140.0</ele>
        <time>2017-07-27T06:00:06Z</time>
      </trkpt>
      <trkpt lat="44.9117200" lon="7.1965870">
        <ele>1139.8</ele>
        <time>2017-07-27T06:00:08Z</time>
      </trkpt>
      <trkpt lat="44.9117380" lon="7.1966620">
        <ele>1139.6</ele>
        <time>2017-07-27T06:00:10Z</time>
      </trkpt>
      <trkpt lat="44.9117570" lon="7.1966860">
        <ele>1139.8</ele>
        <time>2017-07-27T06:00:11Z</time>
      </trkpt>
      <trkpt lat="44.9118060" lon="7.1967160">
        <ele>1139.8</ele>
        <time>2017-07-27T06:00:13Z</time>
      </trkpt>
      <trkpt lat="44.9118570" lon="7.1967360">
        <ele>1140.2</ele>
        <time>2017-07-27T06:00:15Z</time>
      </trkpt>
      <trkpt lat="44.9118790" lon="7.1967570">
        <ele>1140.2</ele>
        <time>2017-07-27T06:00:16Z</time>
      </trkpt>
      <trkpt lat="44.9119140" lon="7.1968190">
        <ele>1140.6</ele>
        <time>2017-07-27T06:00:18Z</time>
      </trkpt>
      <trkpt lat="44.9119390" lon="7.1968850">
        <ele>1141.0</ele>
        <time>2017-07-27T06:00:20Z</time>
      </trkpt>
      <trkpt lat="44.9119490" lon="7.1969200">
        <ele>1141.2</ele>
        <time>2017-07-27T06:00:21Z</time>
      </trkpt>
      <trkpt lat="44.9120070" lon="7.1969950">
        <ele>1142.0</ele>
        <time>2017-07-27T06:00:24Z</time>
      </trkpt>
      <trkpt lat="44.9120310" lon="7.1970190">
        <ele>1142.4</ele>
        <time>2017-07-27T06:00:25Z</time>
      </trkpt>
      <trkpt lat="44.9120550" lon="7.1970440">
        <ele>1142.4</ele>
        <time>2017-07-27T06:00:26Z</time>
      </trkpt>
      <trkpt lat="44.9121530" lon="7.1971420">
        <ele>1143.4</ele>
        <time>2017-07-27T06:00:30Z</time>
      </trkpt>
      <trkpt lat="44.9121720" lon="7.1971740">
        <ele>1143.6</ele>
        <time>2017-07-27T06:00:31Z</time>
      </trkpt>
      <trkpt lat="44.9121870" lon="7.1972060">
        <ele>1143.8</ele>
        <time>2017-07-27T06:00:32Z</time>
      </trkpt>
      <trkpt lat="44.9122230" lon="7.1973230">
        <ele>1144.4</ele>
        <time>2017-07-27T06:00:35Z</time>
      </trkpt>
      <trkpt lat="44.9122270" lon="7.1974130">
        <ele>1144.8</ele>
        <time>2017-07-27T06:00:37Z</time>
      </trkpt>
      <trkpt lat="44.9122380" lon="7.1976390">
        <ele>1145.6</ele>
        <time>2017-07-27T06:00:42Z</time>
      </trkpt>
      <trkpt lat="44.9122590" lon="7.1977520">
        <ele>1146.0</ele>
        <time>2017-07-27T06:00:45Z</time>
      </trkpt>
      <trkpt lat="44.9122940" lon="7.1978520">
        <ele>1146.8</ele>
        <time>2017-07-27T06:00:48Z</time>
      </trkpt>
      <trkpt lat="44.9123510" lon="7.1979640">
        <ele>1147.6</ele>
        <time>2017-07-27T06:00:52Z</time>
      </trkpt>
      <trkpt lat="44.9123700" lon="7.1979810">
        <ele>1147.8</ele>
        <time>2017-07-27T06:00:53Z</time>
      </trkpt>
      <trkpt lat="44.9124400" lon="7.1980220">
        <ele>1149.0</ele>
        <time>2017-07-27T06:00:57Z</time>
      </trkpt>
      <trkpt lat="44.9124790" lon="7.1980420">
        <ele>1149.4</ele>
        <time>2017-07-27T06:00:59Z</time>
      </trkpt>
      <trkpt lat="44.9125380" lon="7.1980810">
        <ele>1150.0</ele>
        <time>2017-07-27T06:01:02Z</time>
      </trkpt>
      <trkpt lat="44.9126080" lon="7.1981400">
        <ele>1151.2</ele>
        <time>2017-07-27T06:01:06Z</time>
      </trkpt>
      <trkpt lat="44.9126230" lon="7.1981610">
        <ele>1151.4</ele>
        <time>2017-07-27T06:01:07Z</time>
      </trkpt>
      <trkpt lat="44.9126830" lon="7.1982440">
        <ele>1152.4</ele>
        <time>2017-07-27T06:01:11Z</time>
      </trkpt>
      <trkpt lat="44.9127510" lon="7.1983160">
        <ele>1153.8</ele>
        <time>2017-07-27T06:01:15Z</time>
      </trkpt>
      <trkpt lat="44.9127680" lon="7.1983310">
        <ele>1154.2</ele>
        <time>2017-07-27T06:01:16Z</time>
      </trkpt>
      <trkpt lat="44.9128260" lon="7.1983590">
        <ele>1155.0</ele>
        <time>2017-07-27T06:01:19Z</time>
      </trkpt>
      <trkpt lat="44.9128880" lon="7.1983440">
        <ele>1155.8</ele>
        <time>2017-07-27T06:01:22Z</time>
      </trkpt>
      <trkpt lat="44.9129070" lon="7.1983300">
        <ele>1156.0</ele>
        <time>2017-07-27T06:01:23Z</time>
      </trkpt>
      <trkpt lat="44.9129510" lon="7.1982850">
        <ele>1157.2</ele>
        <time>2017-07-27T06:01:26Z</time>
      </trkpt>
      <trkpt lat="44.9129490" lon="7.1982310">
        <ele>1157.8</ele>
        <time>2017-07-27T06:01:28Z</time>
      </trkpt>
      <trkpt lat="44.9129280" lon="7.1981930">
        <ele>1158.4</ele>
        <time>2017-07-27T06:01:30Z</time>
      </trkpt>
      <trkpt lat="44.9128790" lon="7.1981590">
        <ele>1159.2</ele>
        <time>2017-07-27T06:01:33Z</time>
      </trkpt>
      <trkpt lat="44.9128660" lon="7.1981440">
        <ele>1159.4</ele>
        <time>2017-07-27T06:01:34Z</time>
      </trkpt>
      <trkpt lat="44.9128520" lon="7.1981290">
        <ele>1159.6</ele>
        <time>2017-07-27T06:01:35Z</time>
      </trkpt>
      <trkpt lat="44.9128120" lon="7.1980810">
        <ele>1160.4</ele>
        <time>2017-07-27T06:01:38Z</time>
      </trkpt>
      <trkpt lat="44.9127980" lon="7.1980610">
        <ele>1160.8</ele>
        <time>2017-07-27T06:01:39Z</time>
      </trkpt>
      <trkpt lat="44.9127710" lon="7.1979930">
        <ele>1161.6</ele>
        <time>2017-07-27T06:01:42Z</time>
      </trkpt>
      <trkpt lat="44.9127390" lon="7.1978720">
        <ele>1162.8</ele>
        <time>2017-07-27T06:01:47Z</time>
      </trkpt>
      <trkpt lat="44.9127220" lon="7.1977490">
        <ele>1164.0</ele>
        <time>2017-07-27T06:01:52Z</time>
      </trkpt>
      <trkpt lat="44.9127240" lon="7.1976990">
        <ele>1164.6</ele>
        <time>2017-07-27T06:01:54Z</time>
      </trkpt>
      <trkpt lat="44.9127310" lon="7.1976530">
        <ele>1165.2</ele>
        <time>2017-07-27T06:01:56Z</time>
      </trkpt>
      <trkpt lat="44.9127410" lon="7.1975830">
        <ele>1166.0</ele>
        <time>2017-07-27T06:01:59Z</time>
      </trkpt>
      <trkpt lat="44.9127550" lon="7.1975740">
        <ele>1166.2</ele>
        <time>2017-07-27T06:02:00Z</time>
      </trkpt>
      <trkpt lat="44.9128020" lon="7.1975760">
        <ele>1167.4</ele>
        <time>2017-07-27T06:02:03Z</time>
      </trkpt>
      <trkpt lat="44.9128320" lon="7.1975990">
        <ele>1168.0</ele>
        <time>2017-07-27T06:02:05Z</time>
      </trkpt>
      <trkpt lat="44.9128700" lon="7.1976510">
        <ele>1168.6</ele>
        <time>2017-07-27T06:02:08Z</time>
      </trkpt>
      <trkpt lat="44.9129320" lon="7.1976980">
        <ele>1169.6</ele>
        <time>2017-07-27T06:02:12Z</time>
      </trkpt>
      <trkpt lat="44.9129660" lon="7.1977070">
        <ele>1170.2</ele>
        <time>2017-07-27T06:02:14Z</time>
      </trkpt>
      <trkpt lat="44.9130030" lon="7.1977150">
        <ele>1170.8</ele>
        <time>2017-07-27T06:02:16Z</time>
      </trkpt>
      <trkpt lat="44.9130730" lon="7.1977080">
        <ele>1171.8</ele>
        <time>2017-07-27T06:02:20Z</time>
      </trkpt>
      <trkpt lat="44.9131120" lon="7.1976960">
        <ele>1172.4</ele>
        <time>2017-07-27T06:02:22Z</time>
      </trkpt>
      <trkpt lat="44.9131460" lon="7.1976970">
        <ele>1172.8</ele>
        <time>2017-07-27T06:02:24Z</time>
      </trkpt>
      <trkpt lat="44.9131990" lon="7.1977000">
        <ele>1174.0</ele>
        <time>2017-07-27T06:02:27Z</time>
      </trkpt>
      <trkpt lat="44.9132330" lon="7.1976990">
        <ele>1174.4</ele>
        <time>2017-07-27T06:02:29Z</time>
      </trkpt>
      <trkpt lat="44.9132650" lon="7.1977030">
        <ele>1175.0</ele>
        <time>2017-07-27T06:02:31Z</time>
      </trkpt>
      <trkpt lat="44.9133480" lon="7.1977180">
        <ele>1176.2</ele>
        <time>2017-07-27T06:02:36Z</time>
      </trkpt>
      <trkpt lat="44.9134090" lon="7.1977100">
        <ele>1177.4</ele>
        <time>2017-07-27T06:02:40Z</time>
      </trkpt>
      <trkpt lat="44.9134400" lon="7.1977140">
        <ele>1178.0</ele>
        <time>2017-07-27T06:02:42Z</time>
      </trkpt>
      <trkpt lat="44.9134690" lon="7.1977160">
        <ele>1178.6</ele>
        <time>2017-07-27T06:02:44Z</time>
      </trkpt>
      <trkpt lat="44.9135340" lon="7.1977190">
        <ele>1179.8</ele>
        <time>2017-07-27T06:02:48Z</time>
      </trkpt>
      <trkpt lat="44.9135510" lon="7.1977200">
        <ele>1180.0</ele>
        <time>2017-07-27T06:02:49Z</time>
      </trkpt>
      <trkpt lat="44.9135820" lon="7.1977250">
        <ele>1181.0</ele>
        <time>2017-07-27T06:02:51Z</time>
      </trkpt>
      <trkpt lat="44.9136440" lon="7.1977060">
        <ele>1182.4</ele>
        <time>2017-07-27T06:02:55Z</time>
      </trkpt>
      <trkpt lat="44.9136590" lon="7.1976930">
        <ele>1182.8</ele>
        <time>2017-07-27T06:02:56Z</time>
      </trkpt>
      <trkpt lat="44.9136870" lon="7.1976710">
        <ele>1183.4</ele>
        <time>2017-07-27T06:02:58Z</time>
      </trkpt>
      <trkpt lat="44.9137140" lon="7.1976240">
        <ele>1184.4</ele>
        <time>2017-07-27T06:03:01Z</time>
      </trkpt>
      <trkpt lat="44.9137280" lon="7.1975820">
        <ele>1185.2</ele>
        <time>2017-07-27T06:03:03Z</time>
      </trkpt>
      <trkpt lat="44.9137320" lon="7.1975600">
        <ele>1185.4</ele>
        <time>2017-07-27T06:03:04Z</time>
      </trkpt>
      <trkpt lat="44.9137300" lon="7.1974930">
        <ele>1186.4</ele>
        <time>2017-07-27T06:03:07Z</time>
      </trkpt>
      <trkpt lat="44.9137300" lon="7.1974330">
        <ele>1187.2</ele>
        <time>2017-07-27T06:03:10Z</time>
      </trkpt>
      <trkpt lat="44.9137250" lon="7.1974110">
        <ele>1187.4</ele>
        <time>2017-07-27T06:03:11Z</time>
      </trkpt>
      <trkpt lat="44.9137120" lon="7.1973190">
        <ele>1188.6</ele>
        <time>2017-07-27T06:03:15Z</time>
      </trkpt>
      <trkpt lat="44.9137040" lon="7.1972730">
        <ele>1189.0</ele>
        <time>2017-07-27T06:03:17Z</time>
      </trkpt>
      <trkpt lat="44.9137010" lon="7.1972220">
        <ele>1189.6</ele>
        <time>2017-07-27T06:03:19Z</time>
      </trkpt>
      <trkpt lat="44.9136800" lon="7.1970810">
        <ele>1190.6</ele>
        <time>2017-07-27T06:03:25Z</time>
      </trkpt>
      <trkpt lat="44.9136790" lon="7.1970570">
        <ele>1190.8</ele>
        <time>2017-07-27T06:03:26Z</time>
      </trkpt>
      <trkpt lat="44.9136570" lon="7.1968540">
        <ele>1192.0</ele>
        <time>2017-07-27T06:03:34Z</time>
      </trkpt>
      <trkpt lat="44.9136540" lon="7.1968290">
        <ele>1192.2</ele>
        <time>2017-07-27T06:03:35Z</time>
      </trkpt>
      <trkpt lat="44.9136420" lon="7.1967280">
        <ele>1193.0</ele>
        <time>2017-07-27T06:03:39Z</time>
      </trkpt>
      <trkpt lat="44.9136310" lon="7.1966640">
        <ele>1193.6</ele>
        <time>2017-07-27T06:03:42Z</time>
      </trkpt>
      <trkpt lat="44.9136240" lon="7.1966150">
        <ele>1194.0</ele>
        <time>2017-07-27T06:03:44Z</time>
      </trkpt>
      <trkpt lat="44.9136140" lon="7.1964940">
        <ele>1195.0</ele>
        <time>2017-07-27T06:03:49Z</time>
      </trkpt>
      <trkpt lat="44.9136130" lon="7.1964710">
        <ele>1195.2</ele>
        <time>2017-07-27T06:03:50Z</time>
      </trkpt>
      <trkpt lat="44.9136220" lon="7.1963520">
        <ele>1196.4</ele>
        <time>2017-07-27T06:03:55Z</time>
      </trkpt>
      <trkpt lat="44.9136320" lon="7.1963360">
        <ele>1196.6</ele>
        <time>2017-07-27T06:03:56Z</time>
      </trkpt>
      <trkpt lat="44.9136460" lon="7.1963210">
        <ele>1196.8</ele>
        <time>2017-07-27T06:03:57Z</time>
      </trkpt>
      <trkpt lat="44.9136850" lon="7.1963410">
        <ele>1197.6</ele>
        <time>2017-07-27T06:04:00Z</time>
      </trkpt>
      <trkpt lat="44.9137150" lon="7.1963990">
        <ele>1198.4</ele>
        <time>2017-07-27T06:04:03Z</time>
      </trkpt>
      <trkpt lat="44.9137230" lon="7.1964170">
        <ele>1198.8</ele>
        <time>2017-07-27T06:04:04Z</time>
      </trkpt>
      <trkpt lat="44.9137700" lon="7.1965350">
        <ele>1200.2</ele>
        <time>2017-07-27T06:04:09Z</time>
      </trkpt>
      <trkpt lat="44.9138220" lon="7.1966390">
        <ele>1201.2</ele>
        <time>2017-07-27T06:04:14Z</time>
      </trkpt>
      <trkpt lat="44.9138510" lon="7.1966740">
        <ele>1201.4</ele>
        <time>2017-07-27T06:04:16Z</time>
      </trkpt>
      <trkpt lat="44.9139200" lon="7.1967440">
        <ele>1202.2</ele>
        <time>2017-07-27T06:04:21Z</time>
      </trkpt>
      <trkpt lat="44.9139400" lon="7.1967460">
        <ele>1202.4</ele>
        <time>2017-07-27T06:04:22Z</time>
      </trkpt>
      <trkpt lat="44.9140070" lon="7.1967530">
        <ele>1203.4</ele>
        <time>2017-07-27T06:04:26Z</time>
      </trkpt>
      <trkpt lat="44.9140550" lon="7.1967390">
        <ele>1204.2</ele>
        <time>2017-07-27T06:04:29Z</time>
      </trkpt>
      <trkpt lat="44.9140690" lon="7.1967340">
        <ele>1204.6</ele>
        <time>2017-07-27T06:04:30Z</time>
      </trkpt>
      <trkpt lat="44.9141330" lon="7.1967270">
        <ele>1205.8</ele>
        <time>2017-07-27T06:04:34Z</time>
      </trkpt>
      <trkpt lat="44.9141670" lon="7.1967230">
        <ele>1206.4</ele>
        <time>2017-07-27T06:04:36Z</time>
      </trkpt>
      <trkpt lat="44.9141980" lon="7.1967120">
        <ele>1207.2</ele>
        <time>2017-07-27T06:04:38Z</time>
      </trkpt>
      <trkpt lat="44.9142500" lon="7.1966930">
        <ele>1208.4</ele>
        <time>2017-07-27T06:04:41Z</time>
      </trkpt>
      <trkpt lat="44.9142640" lon="7.1966930">
        <ele>1208.6</ele>
        <time>2017-07-27T06:04:42Z</time>
      </trkpt>
      <trkpt lat="44.9144500" lon="7.1967050">
        <ele>1212.8</ele>
        <time>2017-07-27T06:04:55Z</time>
      </trkpt>
      <trkpt lat="44.9144870" lon="7.1967090">
        <ele>1213.6</ele>
        <time>2017-07-27T06:04:57Z</time>
      </trkpt>
      <trkpt lat="44.9145050" lon="7.1967070">
        <ele>1214.0</ele>
        <time>2017-07-27T06:04:58Z</time>
      </trkpt>
      <trkpt lat="44.9145820" lon="7.1967140">
        <ele>1215.0</ele>
        <time>2017-07-27T06:05:02Z</time>
      </trkpt>
      <trkpt lat="44.9146090" lon="7.1966990">
        <ele>1215.6</ele>
        <time>2017-07-27T06:05:04Z</time>
      </trkpt>
      <trkpt lat="44.9146180" lon="7.1966590">
        <ele>1216.2</ele>
        <time>2017-07-27T06:05:06Z</time>
      </trkpt>
      <trkpt lat="44.9146070" lon="7.1966050">
        <ele>1217.2</ele>
        <time>2017-07-27T06:05:09Z</time>
      </trkpt>
      <trkpt lat="44.9145590" lon="7.1965620">
        <ele>1218.6</ele>
        <time>2017-07-27T06:05:14Z</time>
      </trkpt>
      <trkpt lat="44.9145080" lon="7.1965380">
        <ele>1219.4</ele>
        <time>2017-07-27T06:05:17Z</time>
      </trkpt>
      <trkpt lat="44.9144900" lon="7.1965230">
        <ele>1219.6</ele>
        <time>2017-07-27T06:05:18Z</time>
      </trkpt>
      <trkpt lat="44.9143820" lon="7.1964720">
        <ele>1220.8</ele>
        <time>2017-07-27T06:05:23Z</time>
      </trkpt>
      <trkpt lat="44.9143350" lon="7.1964380">
        <ele>1221.8</ele>
        <time>2017-07-27T06:05:26Z</time>
      </trkpt>
      <trkpt lat="44.9143240" lon="7.1964230">
        <ele>1222.0</ele>
        <time>2017-07-27T06:05:27Z</time>
      </trkpt>
      <trkpt lat="44.9142250" lon="7.1963150">
        <ele>1223.0</ele>
        <time>2017-07-27T06:05:32Z</time>
      </trkpt>
      <trkpt lat="44.9142030" lon="7.1962850">
        <ele>1223.2</ele>
        <time>2017-07-27T06:05:33Z</time>
      </trkpt>
      <trkpt lat="44.9141440" lon="7.1960970">
        <ele>1224.2</ele>
        <time>2017-07-27T06:05:38Z</time>
      </trkpt>
      <trkpt lat="44.9141400" lon="7.1960550">
        <ele>1224.4</ele>
        <time>2017-07-27T06:05:39Z</time>
      </trkpt>
      <trkpt lat="44.9141370" lon="7.1959410">
        <ele>1225.2</ele>
        <time>2017-07-27T06:05:42Z</time>
      </trkpt>
      <trkpt lat="44.9141380" lon="7.1959070">
        <ele>1225.2</ele>
        <time>2017-07-27T06:05:43Z</time>
      </trkpt>
      <trkpt lat="44.9141630" lon="7.1957790">
        <ele>1226.0</ele>
        <time>2017-07-27T06:05:47Z</time>
      </trkpt>
      <trkpt lat="44.9142060" lon="7.1956900">
        <ele>1226.2</ele>
        <time>2017-07-27T06:05:50Z</time>
      </trkpt>
      <trkpt lat="44.9142190" lon="7.1956600">
        <ele>1226.4</ele>
        <time>2017-07-27T06:05:51Z</time>
      </trkpt>
      <trkpt lat="44.9142650" lon="7.1955660">
        <ele>1227.0</ele>
        <time>2017-07-27T06:05:54Z</time>
      </trkpt>
      <trkpt lat="44.9142990" lon="7.1954790">
        <ele>1227.4</ele>
        <time>2017-07-27T06:05:57Z</time>
      </trkpt>
      <trkpt lat="44.9143230" lon="7.1954010">
        <ele>1227.8</ele>
        <time>2017-07-27T06:05:59Z</time>
      </trkpt>
      <trkpt lat="44.9143680" lon="7.1952430">
        <ele>1228.6</ele>
        <time>2017-07-27T06:06:03Z</time>
      </trkpt>
      <trkpt lat="44.9143990" lon="7.1951490">
        <ele>1229.4</ele>
        <time>2017-07-27T06:06:06Z</time>
      </trkpt>
      <trkpt lat="44.9144070" lon="7.1951310">
        <ele>1229.8</ele>
        <time>2017-07-27T06:06:07Z</time>
      </trkpt>
      <trkpt lat="44.9144340" lon="7.1950480">
        <ele>1230.2</ele>
        <time>2017-07-27T06:06:10Z</time>
      </trkpt>
      <trkpt lat="44.9144750" lon="7.1949120">
        <ele>1230.8</ele>
        <time>2017-07-27T06:06:14Z</time>
      </trkpt>
      <trkpt lat="44.9144930" lon="7.1948320">
        <ele>1231.4</ele>
        <time>2017-07-27T06:06:16Z</time>
      </trkpt>
      <trkpt lat="44.9145050" lon="7.1947120">
        <ele>1231.8</ele>
        <time>2017-07-27T06:06:19Z</time>
      </trkpt>
      <trkpt lat="44.9145210" lon="7.1945710">
        <ele>1232.8</ele>
        <time>2017-07-27T06:06:23Z</time>
      </trkpt>
      <trkpt lat="44.9145240" lon="7.1945360">
        <ele>1233.2</ele>
        <time>2017-07-27T06:06:24Z</time>
      </trkpt>
      <trkpt lat="44.9145430" lon="7.1944150">
        <ele>1234.8</ele>
        <time>2017-07-27T06:06:28Z</time>
      </trkpt>
      <trkpt lat="44.9145590" lon="7.1943720">
        <ele>1235.4</ele>
        <time>2017-07-27T06:06:30Z</time>
      </trkpt>
      <trkpt lat="44.9145720" lon="7.1943520">
        <ele>1235.6</ele>
        <time>2017-07-27T06:06:31Z</time>
      </trkpt>
      <trkpt lat="44.9145850" lon="7.1943410">
        <ele>1235.8</ele>
        <time>2017-07-27T06:06:32Z</time>
      </trkpt>
      <trkpt lat="44.9146310" lon="7.1943600">
        <ele>1236.6</ele>
        <time>2017-07-27T06:06:35Z</time>
      </trkpt>
      <trkpt lat="44.9146450" lon="7.1943800">
        <ele>1236.8</ele>
        <time>2017-07-27T06:06:36Z</time>
      </trkpt>
      <trkpt lat="44.9146670" lon="7.1944470">
        <ele>1237.8</ele>
        <time>2017-07-27T06:06:39Z</time>
      </trkpt>
      <trkpt lat="44.9146730" lon="7.1944680">
        <ele>1238.2</ele>
        <time>2017-07-27T06:06:40Z</time>
      </trkpt>
      <trkpt lat="44.9146850" lon="7.1945220">
        <ele>1238.6</ele>
        <time>2017-07-27T06:06:42Z</time>
      </trkpt>
      <trkpt lat="44.9147090" lon="7.1945890">
        <ele>1239.4</ele>
        <time>2017-07-27T06:06:45Z</time>
      </trkpt>
      <trkpt lat="44.9147430" lon="7.1946690">
        <ele>1240.2</ele>
        <time>2017-07-27T06:06:48Z</time>
      </trkpt>
      <trkpt lat="44.9147530" lon="7.1946990">
        <ele>1240.4</ele>
        <time>2017-07-27T06:06:49Z</time>
      </trkpt>
      <trkpt lat="44.9147800" lon="7.1947760">
        <ele>1241.6</ele>
        <time>2017-07-27T06:06:52Z</time>
      </trkpt>
      <trkpt lat="44.9147920" lon="7.1948260">
        <ele>1242.0</ele>
        <time>2017-07-27T06:06:54Z</time>
      </trkpt>
      <trkpt lat="44.9148050" lon="7.1948970">
        <ele>1242.6</ele>
        <time>2017-07-27T06:06:57Z</time>
      </trkpt>
      <trkpt lat="44.9148130" lon="7.1949950">
        <ele>1243.8</ele>
        <time>2017-07-27T06:07:01Z</time>
      </trkpt>
      <trkpt lat="44.9148110" lon="7.1950530">
        <ele>1244.2</ele>
        <time>2017-07-27T06:07:03Z</time>
      </trkpt>
      <trkpt lat="44.9148080" lon="7.1951450">
        <ele>1245.0</ele>
        <time>2017-07-27T06:07:06Z</time>
      </trkpt>
      <trkpt lat="44.9147920" lon="7.1952390">
        <ele>1245.8</ele>
        <time>2017-07-27T06:07:09Z</time>
      </trkpt>
      <trkpt lat="44.9147880" lon="7.1952690">
        <ele>1246.2</ele>
        <time>2017-07-27T06:07:10Z</time>
      </trkpt>
      <trkpt lat="44.9147790" lon="7.1953830">
        <ele>1247.2</ele>
        <time>2017-07-27T06:07:14Z</time>
      </trkpt>
      <trkpt lat="44.9147710" lon="7.1954320">
        <ele>1248.0</ele>
        <time>2017-07-27T06:07:16Z</time>
      </trkpt>
      <trkpt lat="44.9147660" lon="7.1954580">
        <ele>1248.2</ele>
        <time>2017-07-27T06:07:17Z</time>
      </trkpt>
      <trkpt lat="44.9147570" lon="7.1956000">
        <ele>1249.4</ele>
        <time>2017-07-27T06:07:21Z</time>
      </trkpt>
      <trkpt lat="44.9147540" lon="7.1956690">
        <ele>1250.0</ele>
        <time>2017-07-27T06:07:23Z</time>
      </trkpt>
      <trkpt lat="44.9147620" lon="7.1957300">
        <ele>1250.4</ele>
        <time>2017-07-27T06:07:25Z</time>
      </trkpt>
      <trkpt lat="44.9147950" lon="7.1957910">
        <ele>1251.2</ele>
        <time>2017-07-27T06:07:28Z</time>
      </trkpt>
      <trkpt lat="44.9148080" lon="7.1957950">
        <ele>1251.4</ele>
        <time>2017-07-27T06:07:29Z</time>
      </trkpt>
      <trkpt lat="44.9148260" lon="7.1957920">
        <ele>1251.8</ele>
        <time>2017-07-27T06:07:30Z</time>
      </trkpt>
      <trkpt lat="44.9148600" lon="7.1957710">
        <ele>1252.2</ele>
        <time>2017-07-27T06:07:32Z</time>
      </trkpt>
      <trkpt lat="44.9148920" lon="7.1957180">
        <ele>1253.0</ele>
        <time>2017-07-27T06:07:35Z</time>
      </trkpt>
      <trkpt lat="44.9149220" lon="7.1956870">
        <ele>1253.6</ele>
        <time>2017-07-27T06:07:37Z</time>
      </trkpt>
      <trkpt lat="44.9149410" lon="7.1956470">
        <ele>1254.2</ele>
        <time>2017-07-27T06:07:39Z</time>
      </trkpt>
      <trkpt lat="44.9149670" lon="7.1955840">
        <ele>1255.4</ele>
        <time>2017-07-27T06:07:42Z</time>
      </trkpt>
      <trkpt lat="44.9149780" lon="7.1955430">
        <ele>1256.0</ele>
        <time>2017-07-27T06:07:44Z</time>
      </trkpt>
      <trkpt lat="44.9149960" lon="7.1955100">
        <ele>1256.6</ele>
        <time>2017-07-27T06:07:46Z</time>
      </trkpt>
      <trkpt lat="44.9150190" lon="7.1954450">
        <ele>1257.6</ele>
        <time>2017-07-27T06:07:49Z</time>
      </trkpt>
      <trkpt lat="44.9150260" lon="7.1954270">
        <ele>1258.0</ele>
        <time>2017-07-27T06:07:50Z</time>
      </trkpt>
      <trkpt lat="44.9150500" lon="7.1953560">
        <ele>1258.8</ele>
        <time>2017-07-27T06:07:53Z</time>
      </trkpt>
      <trkpt lat="44.9151050" lon="7.1952510">
        <ele>1260.0</ele>
        <time>2017-07-27T06:07:57Z</time>
      </trkpt>
      <trkpt lat="44.9151450" lon="7.1951740">
        <ele>1261.2</ele>
        <time>2017-07-27T06:08:00Z</time>
      </trkpt>
      <trkpt lat="44.9151840" lon="7.1950990">
        <ele>1262.2</ele>
        <time>2017-07-27T06:08:03Z</time>
      </trkpt>
      <trkpt lat="44.9152090" lon="7.1950570">
        <ele>1263.4</ele>
        <time>2017-07-27T06:08:05Z</time>
      </trkpt>
      <trkpt lat="44.9152790" lon="7.1949910">
        <ele>1264.4</ele>
        <time>2017-07-27T06:08:09Z</time>
      </trkpt>
      <trkpt lat="44.9152980" lon="7.1949980">
        <ele>1264.8</ele>
        <time>2017-07-27T06:08:10Z</time>
      </trkpt>
      <trkpt lat="44.9153410" lon="7.1950950">
        <ele>1265.6</ele>
        <time>2017-07-27T06:08:14Z</time>
      </trkpt>
      <trkpt lat="44.9153580" lon="7.1952010">
        <ele>1266.6</ele>
        <time>2017-07-27T06:08:18Z</time>
      </trkpt>
      <trkpt lat="44.9153660" lon="7.1952750">
        <ele>1267.2</ele>
        <time>2017-07-27T06:08:21Z</time>
      </trkpt>
      <trkpt lat="44.9153740" lon="7.1953230">
        <ele>1267.8</ele>
        <time>2017-07-27T06:08:23Z</time>
      </trkpt>
      <trkpt lat="44.9153960" lon="7.1954220">
        <ele>1269.0</ele>
        <time>2017-07-27T06:08:27Z</time>
      </trkpt>
      <trkpt lat="44.9154010" lon="7.1954450">
        <ele>1269.4</ele>
        <time>2017-07-27T06:08:28Z</time>
      </trkpt>
      <trkpt lat="44.9154180" lon="7.1955190">
        <ele>1270.2</ele>
        <time>2017-07-27T06:08:31Z</time>
      </trkpt>
      <trkpt lat="44.9154730" lon="7.1956090">
        <ele>1271.4</ele>
        <time>2017-07-27T06:08:36Z</time>
      </trkpt>
      <trkpt lat="44.9155280" lon="7.1956450">
        <ele>1272.2</ele>
        <time>2017-07-27T06:08:40Z</time>
      </trkpt>
      <trkpt lat="44.9155450" lon="7.1956360">
        <ele>1272.4</ele>
        <time>2017-07-27T06:08:41Z</time>
      </trkpt>
      <trkpt lat="44.9155650" lon="7.1956230">
        <ele>1272.8</ele>
        <time>2017-07-27T06:08:42Z</time>
      </trkpt>
      <trkpt lat="44.9155880" lon="7.1955290">
        <ele>1273.6</ele>
        <time>2017-07-27T06:08:46Z</time>
      </trkpt>
      <trkpt lat="44.9155970" lon="7.1954810">
        <ele>1274.0</ele>
        <time>2017-07-27T06:08:48Z</time>
      </trkpt>
      <trkpt lat="44.9156130" lon="7.1954440">
        <ele>1274.4</ele>
        <time>2017-07-27T06:08:50Z</time>
      </trkpt>
      <trkpt lat="44.9156280" lon="7.1954050">
        <ele>1274.8</ele>
        <time>2017-07-27T06:08:52Z</time>
      </trkpt>
      <trkpt lat="44.9156380" lon="7.1953850">
        <ele>1275.0</ele>
        <time>2017-07-27T06:08:53Z</time>
      </trkpt>
      <trkpt lat="44.9156730" lon="7.1953390">
        <ele>1275.8</ele>
        <time>2017-07-27T06:08:56Z</time>
      </trkpt>
      <trkpt lat="44.9156880" lon="7.1953340">
        <ele>1276.0</ele>
        <time>2017-07-27T06:08:57Z</time>
      </trkpt>
      <trkpt lat="44.9157350" lon="7.1953170">
        <ele>1276.6</ele>
        <time>2017-07-27T06:09:00Z</time>
      </trkpt>
      <trkpt lat="44.9157690" lon="7.1953050">
        <ele>1277.0</ele>
        <time>2017-07-27T06:09:02Z</time>
      </trkpt>
      <trkpt lat="44.9158400" lon="7.1952750">
        <ele>1278.0</ele>
        <time>2017-07-27T06:09:06Z</time>
      </trkpt>
      <trkpt lat="44.9158880" lon="7.1952530">
        <ele>1278.8</ele>
        <time>2017-07-27T06:09:09Z</time>
      </trkpt>
      <trkpt lat="44.9159160" lon="7.1952360">
        <ele>1279.4</ele>
        <time>2017-07-27T06:09:11Z</time>
      </trkpt>
      <trkpt lat="44.9159610" lon="7.1952100">
        <ele>1280.4</ele>
        <time>2017-07-27T06:09:14Z</time>
      </trkpt>
      <trkpt lat="44.9159890" lon="7.1951840">
        <ele>1281.4</ele>
        <time>2017-07-27T06:09:16Z</time>
      </trkpt>
      <trkpt lat="44.9160230" lon="7.1951320">
        <ele>1282.4</ele>
        <time>2017-07-27T06:09:19Z</time>
      </trkpt>
      <trkpt lat="44.9160310" lon="7.1951150">
        <ele>1282.8</ele>
        <time>2017-07-27T06:09:20Z</time>
      </trkpt>
      <trkpt lat="44.9160460" lon="7.1950260">
        <ele>1283.8</ele>
        <time>2017-07-27T06:09:24Z</time>
      </trkpt>
      <trkpt lat="44.9160560" lon="7.1949820">
        <ele>1284.4</ele>
        <time>2017-07-27T06:09:26Z</time>
      </trkpt>
      <trkpt lat="44.9160750" lon="7.1949070">
        <ele>1285.0</ele>
        <time>2017-07-27T06:09:29Z</time>
      </trkpt>
      <trkpt lat="44.9160910" lon="7.1948060">
        <ele>1286.0</ele>
        <time>2017-07-27T06:09:33Z</time>
      </trkpt>
      <trkpt lat="44.9160920" lon="7.1947830">
        <ele>1286.4</ele>
        <time>2017-07-27T06:09:34Z</time>
      </trkpt>
      <trkpt lat="44.9160960" lon="7.1947130">
        <ele>1287.2</ele>
        <time>2017-07-27T06:09:37Z</time>
      </trkpt>
      <trkpt lat="44.9160950" lon="7.1946460">
        <ele>1288.2</ele>
        <time>2017-07-27T06:09:40Z</time>
      </trkpt>
      <trkpt lat="44.9160920" lon="7.1945770">
        <ele>1289.2</ele>
        <time>2017-07-27T06:09:43Z</time>
      </trkpt>
      <trkpt lat="44.9160980" lon="7.1945550">
        <ele>1289.4</ele>
        <time>2017-07-27T06:09:44Z</time>
      </trkpt>
      <trkpt lat="44.9161130" lon="7.1944670">
        <ele>1290.4</ele>
        <time>2017-07-27T06:09:48Z</time>
      </trkpt>
      <trkpt lat="44.9161120" lon="7.1944460">
        <ele>1290.8</ele>
        <time>2017-07-27T06:09:49Z</time>
      </trkpt>
      <trkpt lat="44.9161140" lon="7.1943870">
        <ele>1291.6</ele>
        <time>2017-07-27T06:09:52Z</time>
      </trkpt>
      <trkpt lat="44.9161300" lon="7.1942820">
        <ele>1292.8</ele>
        <time>2017-07-27T06:09:56Z</time>
      </trkpt>
      <trkpt lat="44.9161560" lon="7.1941940">
        <ele>1294.0</ele>
        <time>2017-07-27T06:10:00Z</time>
      </trkpt>
      <trkpt lat="44.9161840" lon="7.1941280">
        <ele>1294.8</ele>
        <time>2017-07-27T06:10:03Z</time>
      </trkpt>
      <trkpt lat="44.9161990" lon="7.1941070">
        <ele>1295.4</ele>
        <time>2017-07-27T06:10:04Z</time>
      </trkpt>
      <trkpt lat="44.9162670" lon="7.1940030">
        <ele>1296.6</ele>
        <time>2017-07-27T06:10:09Z</time>
      </trkpt>
      <trkpt lat="44.9162780" lon="7.1939800">
        <ele>1296.8</ele>
        <time>2017-07-27T06:10:10Z</time>
      </trkpt>
      <trkpt lat="44.9163250" lon="7.1938940">
        <ele>1297.6</ele>
        <time>2017-07-27T06:10:14Z</time>
      </trkpt>
      <trkpt lat="44.9163730" lon="7.1938080">
        <ele>1298.6</ele>
        <time>2017-07-27T06:10:18Z</time>
      </trkpt>
      <trkpt lat="44.9163820" lon="7.1937820">
        <ele>1299.0</ele>
        <time>2017-07-27T06:10:19Z</time>
      </trkpt>
      <trkpt lat="44.9164300" lon="7.1937130">
        <ele>1299.8</ele>
        <time>2017-07-27T06:10:23Z</time>
      </trkpt>
      <trkpt lat="44.9164720" lon="7.1936520">
        <ele>1300.4</ele>
        <time>2017-07-27T06:10:26Z</time>
      </trkpt>
      <trkpt lat="44.9164970" lon="7.1936040">
        <ele>1301.2</ele>
        <time>2017-07-27T06:10:28Z</time>
      </trkpt>
      <trkpt lat="44.9165620" lon="7.1934870">
        <ele>1302.2</ele>
        <time>2017-07-27T06:10:33Z</time>
      </trkpt>
      <trkpt lat="44.9165740" lon="7.1934630">
        <ele>1302.4</ele>
        <time>2017-07-27T06:10:34Z</time>
      </trkpt>
      <trkpt lat="44.9166390" lon="7.1933550">
        <ele>1303.4</ele>
        <time>2017-07-27T06:10:39Z</time>
      </trkpt>
      <trkpt lat="44.9166870" lon="7.1932750">
        <ele>1304.6</ele>
        <time>2017-07-27T06:10:43Z</time>
      </trkpt>
      <trkpt lat="44.9167170" lon="7.1932040">
        <ele>1305.4</ele>
        <time>2017-07-27T06:10:46Z</time>
      </trkpt>
      <trkpt lat="44.9167310" lon="7.1931830">
        <ele>1305.8</ele>
        <time>2017-07-27T06:10:47Z</time>
      </trkpt>
      <trkpt lat="44.9167590" lon="7.1931360">
        <ele>1306.4</ele>
        <time>2017-07-27T06:10:49Z</time>
      </trkpt>
      <trkpt lat="44.9168000" lon="7.1930680">
        <ele>1307.2</ele>
        <time>2017-07-27T06:10:52Z</time>
      </trkpt>
      <trkpt lat="44.9168410" lon="7.1929820">
        <ele>1308.4</ele>
        <time>2017-07-27T06:10:55Z</time>
      </trkpt>
      <trkpt lat="44.9169080" lon="7.1928910">
        <ele>1309.8</ele>
        <time>2017-07-27T06:10:59Z</time>
      </trkpt>
      <trkpt lat="44.9169790" lon="7.1928440">
        <ele>1311.0</ele>
        <time>2017-07-27T06:11:02Z</time>
      </trkpt>
      <trkpt lat="44.9170670" lon="7.1928390">
        <ele>1312.4</ele>
        <time>2017-07-27T06:11:06Z</time>
      </trkpt>
      <trkpt lat="44.9170810" lon="7.1928670">
        <ele>1312.8</ele>
        <time>2017-07-27T06:11:07Z</time>
      </trkpt>
      <trkpt lat="44.9170650" lon="7.1929550">
        <ele>1313.4</ele>
        <time>2017-07-27T06:11:10Z</time>
      </trkpt>
      <trkpt lat="44.9170480" lon="7.1929720">
        <ele>1313.8</ele>
        <time>2017-07-27T06:11:11Z</time>
      </trkpt>
      <trkpt lat="44.9170030" lon="7.1930350">
        <ele>1314.6</ele>
        <time>2017-07-27T06:11:14Z</time>
      </trkpt>
      <trkpt lat="44.9169830" lon="7.1931160">
        <ele>1315.6</ele>
        <time>2017-07-27T06:11:17Z</time>
      </trkpt>
      <trkpt lat="44.9169840" lon="7.1931440">
        <ele>1315.8</ele>
        <time>2017-07-27T06:11:18Z</time>
      </trkpt>
      <trkpt lat="44.9170090" lon="7.1932990">
        <ele>1317.0</ele>
        <time>2017-07-27T06:11:23Z</time>
      </trkpt>
      <trkpt lat="44.9170150" lon="7.1933310">
        <ele>1317.4</ele>
        <time>2017-07-27T06:11:24Z</time>
      </trkpt>
      <trkpt lat="44.9170180" lon="7.1934140">
        <ele>1318.2</ele>
        <time>2017-07-27T06:11:27Z</time>
      </trkpt>
      <trkpt lat="44.9170270" lon="7.1934950">
        <ele>1318.8</ele>
        <time>2017-07-27T06:11:30Z</time>
      </trkpt>
      <trkpt lat="44.9170330" lon="7.1935240">
        <ele>1319.2</ele>
        <time>2017-07-27T06:11:31Z</time>
      </trkpt>
      <trkpt lat="44.9170750" lon="7.1936580">
        <ele>1320.2</ele>
        <time>2017-07-27T06:11:36Z</time>
      </trkpt>
      <trkpt lat="44.9171000" lon="7.1936990">
        <ele>1320.6</ele>
        <time>2017-07-27T06:11:38Z</time>
      </trkpt>
      <trkpt lat="44.9171340" lon="7.1937310">
        <ele>1321.2</ele>
        <time>2017-07-27T06:11:40Z</time>
      </trkpt>
      <trkpt lat="44.9172260" lon="7.1938440">
        <ele>1322.4</ele>
        <time>2017-07-27T06:11:46Z</time>
      </trkpt>
      <trkpt lat="44.9172900" lon="7.1940260">
        <ele>1323.4</ele>
        <time>2017-07-27T06:11:53Z</time>
      </trkpt>
      <trkpt lat="44.9173050" lon="7.1942090">
        <ele>1324.6</ele>
        <time>2017-07-27T06:11:59Z</time>
      </trkpt>
      <trkpt lat="44.9173290" lon="7.1942910">
        <ele>1325.2</ele>
        <time>2017-07-27T06:12:02Z</time>
      </trkpt>
      <trkpt lat="44.9173510" lon="7.1943410">
        <ele>1325.8</ele>
        <time>2017-07-27T06:12:04Z</time>
      </trkpt>
      <trkpt lat="44.9174000" lon="7.1944010">
        <ele>1326.2</ele>
        <time>2017-07-27T06:12:07Z</time>
      </trkpt>
      <trkpt lat="44.9174200" lon="7.1944020">
        <ele>1326.4</ele>
        <time>2017-07-27T06:12:08Z</time>
      </trkpt>
      <trkpt lat="44.9174560" lon="7.1943770">
        <ele>1326.8</ele>
        <time>2017-07-27T06:12:10Z</time>
      </trkpt>
      <trkpt lat="44.9174620" lon="7.1943200">
        <ele>1327.4</ele>
        <time>2017-07-27T06:12:12Z</time>
      </trkpt>
      <trkpt lat="44.9174720" lon="7.1942680">
        <ele>1327.8</ele>
        <time>2017-07-27T06:12:14Z</time>
      </trkpt>
      <trkpt lat="44.9174790" lon="7.1942430">
        <ele>1328.2</ele>
        <time>2017-07-27T06:12:15Z</time>
      </trkpt>
      <trkpt lat="44.9174980" lon="7.1941660">
        <ele>1328.6</ele>
        <time>2017-07-27T06:12:18Z</time>
      </trkpt>
      <trkpt lat="44.9175110" lon="7.1941470">
        <ele>1329.0</ele>
        <time>2017-07-27T06:12:19Z</time>
      </trkpt>
      <trkpt lat="44.9175780" lon="7.1940510">
        <ele>1330.2</ele>
        <time>2017-07-27T06:12:24Z</time>
      </trkpt>
      <trkpt lat="44.9175910" lon="7.1940240">
        <ele>1330.4</ele>
        <time>2017-07-27T06:12:25Z</time>
      </trkpt>
      <trkpt lat="44.9176270" lon="7.1939540">
        <ele>1331.4</ele>
        <time>2017-07-27T06:12:28Z</time>
      </trkpt>
      <trkpt lat="44.9176650" lon="7.1938660">
        <ele>1332.4</ele>
        <time>2017-07-27T06:12:32Z</time>
      </trkpt>
      <trkpt lat="44.9176830" lon="7.1938070">
        <ele>1333.0</ele>
        <time>2017-07-27T06:12:34Z</time>
      </trkpt>
      <trkpt lat="44.9177000" lon="7.1937580">
        <ele>1333.6</ele>
        <time>2017-07-27T06:12:36Z</time>
      </trkpt>
      <trkpt lat="44.9177210" lon="7.1936670">
        <ele>1334.8</ele>
        <time>2017-07-27T06:12:40Z</time>
      </trkpt>
      <trkpt lat="44.9177350" lon="7.1935630">
        <ele>1336.2</ele>
        <time>2017-07-27T06:12:44Z</time>
      </trkpt>
      <trkpt lat="44.9177670" lon="7.1934880">
        <ele>1337.0</ele>
        <time>2017-07-27T06:12:47Z</time>
      </trkpt>
      <trkpt lat="44.9177730" lon="7.1934610">
        <ele>1337.4</ele>
        <time>2017-07-27T06:12:48Z</time>
      </trkpt>
      <trkpt lat="44.9178120" lon="7.1933490">
        <ele>1338.8</ele>
        <time>2017-07-27T06:12:52Z</time>
      </trkpt>
      <trkpt lat="44.9178390" lon="7.1932730">
        <ele>1339.8</ele>
        <time>2017-07-27T06:12:55Z</time>
      </trkpt>
      <trkpt lat="44.9178510" lon="7.1932560">
        <ele>1340.2</ele>
        <time>2017-07-27T06:12:56Z</time>
      </trkpt>
      <trkpt lat="44.9178830" lon="7.1932330">
        <ele>1340.8</ele>
        <time>2017-07-27T06:12:58Z</time>
      </trkpt>
      <trkpt lat="44.9178990" lon="7.1932230">
        <ele>1341.2</ele>
        <time>2017-07-27T06:12:59Z</time>
      </trkpt>
      <trkpt lat="44.9179310" lon="7.1931990">
        <ele>1341.8</ele>
        <time>2017-07-27T06:13:01Z</time>
      </trkpt>
      <trkpt lat="44.9179640" lon="7.1931900">
        <ele>1342.2</ele>
        <time>2017-07-27T06:13:03Z</time>
      </trkpt>
      <trkpt lat="44.9180600" lon="7.1931920">
        <ele>1343.4</ele>
        <time>2017-07-27T06:13:07Z</time>
      </trkpt>
      <trkpt lat="44.9180820" lon="7.1932000">
        <ele>1343.6</ele>
        <time>2017-07-27T06:13:08Z</time>
      </trkpt>
      <trkpt lat="44.9181610" lon="7.1932270">
        <ele>1344.4</ele>
        <time>2017-07-27T06:13:12Z</time>
      </trkpt>
      <trkpt lat="44.9182250" lon="7.1932400">
        <ele>1345.0</ele>
        <time>2017-07-27T06:13:15Z</time>
      </trkpt>
      <trkpt lat="44.9182670" lon="7.1932590">
        <ele>1345.6</ele>
        <time>2017-07-27T06:13:17Z</time>
      </trkpt>
      <trkpt lat="44.9183600" lon="7.1933240">
        <ele>1346.8</ele>
        <time>2017-07-27T06:13:22Z</time>
      </trkpt>
      <trkpt lat="44.9184290" lon="7.1934300">
        <ele>1348.0</ele>
        <time>2017-07-27T06:13:27Z</time>
      </trkpt>
      <trkpt lat="44.9184310" lon="7.1935170">
        <ele>1348.8</ele>
        <time>2017-07-27T06:13:30Z</time>
      </trkpt>
      <trkpt lat="44.9184240" lon="7.1935400">
        <ele>1349.0</ele>
        <time>2017-07-27T06:13:31Z</time>
      </trkpt>
      <trkpt lat="44.9184070" lon="7.1935670">
        <ele>1349.2</ele>
        <time>2017-07-27T06:13:32Z</time>
      </trkpt>
      <trkpt lat="44.9183430" lon="7.1936800">
        <ele>1349.8</ele>
        <time>2017-07-27T06:13:36Z</time>
      </trkpt>
      <trkpt lat="44.9183330" lon="7.1937150">
        <ele>1350.2</ele>
        <time>2017-07-27T06:13:37Z</time>
      </trkpt>
      <trkpt lat="44.9183180" lon="7.1938550">
        <ele>1351.4</ele>
        <time>2017-07-27T06:13:41Z</time>
      </trkpt>
      <trkpt lat="44.9183150" lon="7.1938910">
        <ele>1351.6</ele>
        <time>2017-07-27T06:13:42Z</time>
      </trkpt>
      <trkpt lat="44.9183340" lon="7.1939890">
        <ele>1352.4</ele>
        <time>2017-07-27T06:13:45Z</time>
      </trkpt>
      <trkpt lat="44.9183680" lon="7.1940380">
        <ele>1352.8</ele>
        <time>2017-07-27T06:13:47Z</time>
      </trkpt>
      <trkpt lat="44.9184050" lon="7.1940700">
        <ele>1353.6</ele>
        <time>2017-07-27T06:13:49Z</time>
      </trkpt>
      <trkpt lat="44.9184910" lon="7.1941210">
        <ele>1354.8</ele>
        <time>2017-07-27T06:13:53Z</time>
      </trkpt>
      <trkpt lat="44.9185090" lon="7.1941250">
        <ele>1355.2</ele>
        <time>2017-07-27T06:13:54Z</time>
      </trkpt>
      <trkpt lat="44.9185380" lon="7.1941310">
        <ele>1355.8</ele>
        <time>2017-07-27T06:13:56Z</time>
      </trkpt>
      <trkpt lat="44.9186110" lon="7.1941040">
        <ele>1357.0</ele>
        <time>2017-07-27T06:14:00Z</time>
      </trkpt>
      <trkpt lat="44.9186830" lon="7.1940970">
        <ele>1358.6</ele>
        <time>2017-07-27T06:14:04Z</time>
      </trkpt>
      <trkpt lat="44.9187360" lon="7.1940940">
        <ele>1359.0</ele>
        <time>2017-07-27T06:14:06Z</time>
      </trkpt>
      <trkpt lat="44.9187820" lon="7.1940760">
        <ele>1359.6</ele>
        <time>2017-07-27T06:14:08Z</time>
      </trkpt>
      <trkpt lat="44.9189110" lon="7.1940530">
        <ele>1360.6</ele>
        <time>2017-07-27T06:14:13Z</time>
      </trkpt>
      <trkpt lat="44.9190900" lon="7.1940510">
        <ele>1361.6</ele>
        <time>2017-07-27T06:14:20Z</time>
      </trkpt>
      <trkpt lat="44.9191160" lon="7.1940510">
        <ele>1361.6</ele>
        <time>2017-07-27T06:14:21Z</time>
      </trkpt>
      <trkpt lat="44.9191710" lon="7.1940480">
        <ele>1361.6</ele>
        <time>2017-07-27T06:14:23Z</time>
      </trkpt>
      <trkpt lat="44.9192570" lon="7.1940280">
        <ele>1362.0</ele>
        <time>2017-07-27T06:14:26Z</time>
      </trkpt>
      <trkpt lat="44.9193100" lon="7.1939940">
        <ele>1362.2</ele>
        <time>2017-07-27T06:14:28Z</time>
      </trkpt>
      <trkpt lat="44.9194210" lon="7.1938680">
        <ele>1362.8</ele>
        <time>2017-07-27T06:14:33Z</time>
      </trkpt>
      <trkpt lat="44.9194590" lon="7.1938090">
        <ele>1362.8</ele>
        <time>2017-07-27T06:14:35Z</time>
      </trkpt>
      <trkpt lat="44.9195640" lon="7.1936430">
        <ele>1363.8</ele>
        <time>2017-07-27T06:14:41Z</time>
      </trkpt>
      <trkpt lat="44.9196180" lon="7.1935630">
        <ele>1364.4</ele>
        <time>2017-07-27T06:14:44Z</time>
      </trkpt>
      <trkpt lat="44.9196710" lon="7.1934700">
        <ele>1365.0</ele>
        <time>2017-07-27T06:14:47Z</time>
      </trkpt>
      <trkpt lat="44.9197070" lon="7.1933320">
        <ele>1365.8</ele>
        <time>2017-07-27T06:14:51Z</time>
      </trkpt>
      <trkpt lat="44.9197100" lon="7.1932950">
        <ele>1366.0</ele>
        <time>2017-07-27T06:14:52Z</time>
      </trkpt>
      <trkpt lat="44.9197180" lon="7.1931140">
        <ele>1367.2</ele>
        <time>2017-07-27T06:14:57Z</time>
      </trkpt>
      <trkpt lat="44.9197080" lon="7.1929700">
        <ele>1368.2</ele>
        <time>2017-07-27T06:15:01Z</time>
      </trkpt>
      <trkpt lat="44.9197000" lon="7.1929060">
        <ele>1369.0</ele>
        <time>2017-07-27T06:15:03Z</time>
      </trkpt>
      <trkpt lat="44.9196900" lon="7.1928430">
        <ele>1369.4</ele>
        <time>2017-07-27T06:15:05Z</time>
      </trkpt>
      <trkpt lat="44.9196720" lon="7.1927600">
        <ele>1370.6</ele>
        <time>2017-07-27T06:15:08Z</time>
      </trkpt>
      <trkpt lat="44.9196600" lon="7.1927330">
        <ele>1370.8</ele>
        <time>2017-07-27T06:15:09Z</time>
      </trkpt>
      <trkpt lat="44.9196470" lon="7.1926710">
        <ele>1371.6</ele>
        <time>2017-07-27T06:15:11Z</time>
      </trkpt>
      <trkpt lat="44.9196170" lon="7.1925910">
        <ele>1372.4</ele>
        <time>2017-07-27T06:15:14Z</time>
      </trkpt>
      <trkpt lat="44.9196100" lon="7.1925610">
        <ele>1372.8</ele>
        <time>2017-07-27T06:15:15Z</time>
      </trkpt>
      <trkpt lat="44.9195890" lon="7.1924650">
        <ele>1374.2</ele>
        <time>2017-07-27T06:15:18Z</time>
      </trkpt>
      <trkpt lat="44.9195790" lon="7.1923720">
        <ele>1375.4</ele>
        <time>2017-07-27T06:15:21Z</time>
      </trkpt>
      <trkpt lat="44.9195750" lon="7.1922850">
        <ele>1376.8</ele>
        <time>2017-07-27T06:15:24Z</time>
      </trkpt>
      <trkpt lat="44.9195900" lon="7.1922020">
        <ele>1378.0</ele>
        <time>2017-07-27T06:15:27Z</time>
      </trkpt>
      <trkpt lat="44.9196260" lon="7.1920830">
        <ele>1379.4</ele>
        <time>2017-07-27T06:15:31Z</time>
      </trkpt>
      <trkpt lat="44.9196520" lon="7.1920120">
        <ele>1380.4</ele>
        <time>2017-07-27T06:15:34Z</time>
      </trkpt>
      <trkpt lat="44.9197050" lon="7.1919160">
        <ele>1381.6</ele>
        <time>2017-07-27T06:15:38Z</time>
      </trkpt>
      <trkpt lat="44.9197290" lon="7.1918230">
        <ele>1382.8</ele>
        <time>2017-07-27T06:15:41Z</time>
      </trkpt>
      <trkpt lat="44.9197210" lon="7.1917860">
        <ele>1383.0</ele>
        <time>2017-07-27T06:15:42Z</time>
      </trkpt>
      <trkpt lat="44.9196930" lon="7.1916840">
        <ele>1383.6</ele>
        <time>2017-07-27T06:15:45Z</time>
      </trkpt>
      <trkpt lat="44.9196890" lon="7.1916560">
        <ele>1383.8</ele>
        <time>2017-07-27T06:15:46Z</time>
      </trkpt>
      <trkpt lat="44.9196460" lon="7.1915180">
        <ele>1385.0</ele>
        <time>2017-07-27T06:15:51Z</time>
      </trkpt>
      <trkpt lat="44.9196280" lon="7.1913480">
        <ele>1386.0</ele>
        <time>2017-07-27T06:15:57Z</time>
      </trkpt>
      <trkpt lat="44.9196360" lon="7.1913190">
        <ele>1386.2</ele>
        <time>2017-07-27T06:15:58Z</time>
      </trkpt>
      <trkpt lat="44.9196500" lon="7.1912780">
        <ele>1386.6</ele>
        <time>2017-07-27T06:16:00Z</time>
      </trkpt>
      <trkpt lat="44.9196590" lon="7.1912320">
        <ele>1387.0</ele>
        <time>2017-07-27T06:16:02Z</time>
      </trkpt>
      <trkpt lat="44.9196720" lon="7.1911750">
        <ele>1387.4</ele>
        <time>2017-07-27T06:16:04Z</time>
      </trkpt>
      <trkpt lat="44.9196790" lon="7.1910460">
        <ele>1388.2</ele>
        <time>2017-07-27T06:16:08Z</time>
      </trkpt>
      <trkpt lat="44.9196720" lon="7.1910180">
        <ele>1388.4</ele>
        <time>2017-07-27T06:16:09Z</time>
      </trkpt>
      <trkpt lat="44.9196220" lon="7.1909490">
        <ele>1389.4</ele>
        <time>2017-07-27T06:16:14Z</time>
      </trkpt>
      <trkpt lat="44.9195970" lon="7.1909430">
        <ele>1389.8</ele>
        <time>2017-07-27T06:16:16Z</time>
      </trkpt>
      <trkpt lat="44.9195340" lon="7.1908930">
        <ele>1390.6</ele>
        <time>2017-07-27T06:16:20Z</time>
      </trkpt>
      <trkpt lat="44.9194430" lon="7.1907940">
        <ele>1391.8</ele>
        <time>2017-07-27T06:16:26Z</time>
      </trkpt>
      <trkpt lat="44.9194290" lon="7.1907690">
        <ele>1392.0</ele>
        <time>2017-07-27T06:16:27Z</time>
      </trkpt>
      <trkpt lat="44.9193940" lon="7.1907020">
        <ele>1393.0</ele>
        <time>2017-07-27T06:16:30Z</time>
      </trkpt>
      <trkpt lat="44.9193570" lon="7.1906130">
        <ele>1393.4</ele>
        <time>2017-07-27T06:16:33Z</time>
      </trkpt>
      <trkpt lat="44.9192970" lon="7.1905350">
        <ele>1394.0</ele>
        <time>2017-07-27T06:16:37Z</time>
      </trkpt>
      <trkpt lat="44.9192860" lon="7.1905080">
        <ele>1394.2</ele>
        <time>2017-07-27T06:16:38Z</time>
      </trkpt>
      <trkpt lat="44.9192440" lon="7.1903860">
        <ele>1395.0</ele>
        <time>2017-07-27T06:16:42Z</time>
      </trkpt>
      <trkpt lat="44.9192300" lon="7.1903610">
        <ele>1395.2</ele>
        <time>2017-07-27T06:16:43Z</time>
      </trkpt>
      <trkpt lat="44.9191950" lon="7.1903300">
        <ele>1395.4</ele>
        <time>2017-07-27T06:16:45Z</time>
      </trkpt>
      <trkpt lat="44.9191170" lon="7.1902820">
        <ele>1396.4</ele>
        <time>2017-07-27T06:16:50Z</time>
      </trkpt>
      <trkpt lat="44.9190570" lon="7.1902560">
        <ele>1397.2</ele>
        <time>2017-07-27T06:16:53Z</time>
      </trkpt>
      <trkpt lat="44.9189960" lon="7.1902380">
        <ele>1397.6</ele>
        <time>2017-07-27T06:16:56Z</time>
      </trkpt>
      <trkpt lat="44.9189140" lon="7.1902220">
        <ele>1398.6</ele>
        <time>2017-07-27T06:17:00Z</time>
      </trkpt>
      <trkpt lat="44.9188350" lon="7.1902020">
        <ele>1399.8</ele>
        <time>2017-07-27T06:17:04Z</time>
      </trkpt>
      <trkpt lat="44.9187750" lon="7.1901700">
        <ele>1400.2</ele>
        <time>2017-07-27T06:17:07Z</time>
      </trkpt>
      <trkpt lat="44.9187440" lon="7.1901480">
        <ele>1401.0</ele>
        <time>2017-07-27T06:17:09Z</time>
      </trkpt>
      <trkpt lat="44.9186890" lon="7.1900650">
        <ele>1401.8</ele>
        <time>2017-07-27T06:17:13Z</time>
      </trkpt>
      <trkpt lat="44.9186790" lon="7.1900380">
        <ele>1402.0</ele>
        <time>2017-07-27T06:17:14Z</time>
      </trkpt>
      <trkpt lat="44.9186610" lon="7.1899470">
        <ele>1403.2</ele>
        <time>2017-07-27T06:17:17Z</time>
      </trkpt>
      <trkpt lat="44.9186610" lon="7.1899140">
        <ele>1403.4</ele>
        <time>2017-07-27T06:17:18Z</time>
      </trkpt>
      <trkpt lat="44.9186630" lon="7.1898850">
        <ele>1403.6</ele>
        <time>2017-07-27T06:17:19Z</time>
      </trkpt>
      <trkpt lat="44.9186840" lon="7.1897400">
        <ele>1404.4</ele>
        <time>2017-07-27T06:17:24Z</time>
      </trkpt>
      <trkpt lat="44.9186920" lon="7.1896700">
        <ele>1404.8</ele>
        <time>2017-07-27T06:17:26Z</time>
      </trkpt>
      <trkpt lat="44.9186940" lon="7.1895470">
        <ele>1405.6</ele>
        <time>2017-07-27T06:17:30Z</time>
      </trkpt>
      <trkpt lat="44.9186960" lon="7.1894540">
        <ele>1406.2</ele>
        <time>2017-07-27T06:17:33Z</time>
      </trkpt>
      <trkpt lat="44.9186830" lon="7.1893680">
        <ele>1406.6</ele>
        <time>2017-07-27T06:17:36Z</time>
      </trkpt>
      <trkpt lat="44.9186580" lon="7.1892870">
        <ele>1407.8</ele>
        <time>2017-07-27T06:17:39Z</time>
      </trkpt>
      <trkpt lat="44.9186520" lon="7.1892130">
        <ele>1408.8</ele>
        <time>2017-07-27T06:17:42Z</time>
      </trkpt>
      <trkpt lat="44.9186610" lon="7.1891160">
        <ele>1409.8</ele>
        <time>2017-07-27T06:17:46Z</time>
      </trkpt>
      <trkpt lat="44.9186830" lon="7.1890160">
        <ele>1410.8</ele>
        <time>2017-07-27T06:17:50Z</time>
      </trkpt>
      <trkpt lat="44.9187080" lon="7.1889570">
        <ele>1411.8</ele>
        <time>2017-07-27T06:17:53Z</time>
      </trkpt>
      <trkpt lat="44.9187200" lon="7.1889400">
        <ele>1412.0</ele>
        <time>2017-07-27T06:17:54Z</time>
      </trkpt>
      <trkpt lat="44.9187700" lon="7.1888750">
        <ele>1413.2</ele>
        <time>2017-07-27T06:17:58Z</time>
      </trkpt>
      <trkpt lat="44.9187830" lon="7.1888540">
        <ele>1413.4</ele>
        <time>2017-07-27T06:17:59Z</time>
      </trkpt>
      <trkpt lat="44.9188270" lon="7.1887950">
        <ele>1414.2</ele>
        <time>2017-07-27T06:18:02Z</time>
      </trkpt>
      <trkpt lat="44.9188750" lon="7.1887480">
        <ele>1415.2</ele>
        <time>2017-07-27T06:18:05Z</time>
      </trkpt>
      <trkpt lat="44.9189030" lon="7.1887250">
        <ele>1415.8</ele>
        <time>2017-07-27T06:18:07Z</time>
      </trkpt>
      <trkpt lat="44.9189470" lon="7.1886870">
        <ele>1416.4</ele>
        <time>2017-07-27T06:18:10Z</time>
      </trkpt>
      <trkpt lat="44.9190100" lon="7.1886530">
        <ele>1417.4</ele>
        <time>2017-07-27T06:18:14Z</time>
      </trkpt>
      <trkpt lat="44.9190280" lon="7.1886420">
        <ele>1417.6</ele>
        <time>2017-07-27T06:18:15Z</time>
      </trkpt>
      <trkpt lat="44.9191070" lon="7.1886060">
        <ele>1419.0</ele>
        <time>2017-07-27T06:18:20Z</time>
      </trkpt>
      <trkpt lat="44.9191770" lon="7.1885800">
        <ele>1420.0</ele>
        <time>2017-07-27T06:18:24Z</time>
      </trkpt>
      <trkpt lat="44.9192320" lon="7.1886010">
        <ele>1420.8</ele>
        <time>2017-07-27T06:18:27Z</time>
      </trkpt>
      <trkpt lat="44.9192470" lon="7.1886140">
        <ele>1421.0</ele>
        <time>2017-07-27T06:18:28Z</time>
      </trkpt>
      <trkpt lat="44.9193090" lon="7.1886860">
        <ele>1422.2</ele>
        <time>2017-07-27T06:18:32Z</time>
      </trkpt>
      <trkpt lat="44.9193250" lon="7.1887000">
        <ele>1422.4</ele>
        <time>2017-07-27T06:18:33Z</time>
      </trkpt>
      <trkpt lat="44.9193830" lon="7.1887700">
        <ele>1423.2</ele>
        <time>2017-07-27T06:18:37Z</time>
      </trkpt>
      <trkpt lat="44.9194090" lon="7.1888070">
        <ele>1423.8</ele>
        <time>2017-07-27T06:18:39Z</time>
      </trkpt>
      <trkpt lat="44.9194790" lon="7.1889080">
        <ele>1424.4</ele>
        <time>2017-07-27T06:18:43Z</time>
      </trkpt>
      <trkpt lat="44.9195310" lon="7.1889950">
        <ele>1425.0</ele>
        <time>2017-07-27T06:18:46Z</time>
      </trkpt>
      <trkpt lat="44.9195560" lon="7.1890400">
        <ele>1425.4</ele>
        <time>2017-07-27T06:18:48Z</time>
      </trkpt>
      <trkpt lat="44.9196420" lon="7.1891410">
        <ele>1426.0</ele>
        <time>2017-07-27T06:18:52Z</time>
      </trkpt>
      <trkpt lat="44.9196790" lon="7.1891880">
        <ele>1426.4</ele>
        <time>2017-07-27T06:18:54Z</time>
      </trkpt>
      <trkpt lat="44.9197550" lon="7.1892090">
        <ele>1427.0</ele>
        <time>2017-07-27T06:18:58Z</time>
      </trkpt>
      <trkpt lat="44.9197760" lon="7.1891560">
        <ele>1427.4</ele>
        <time>2017-07-27T06:19:00Z</time>
      </trkpt>
      <trkpt lat="44.9197720" lon="7.1890980">
        <ele>1427.8</ele>
        <time>2017-07-27T06:19:02Z</time>
      </trkpt>
      <trkpt lat="44.9197990" lon="7.1890000">
        <ele>1428.6</ele>
        <time>2017-07-27T06:19:06Z</time>
      </trkpt>
      <trkpt lat="44.9198160" lon="7.1889760">
        <ele>1428.8</ele>
        <time>2017-07-27T06:19:07Z</time>
      </trkpt>
      <trkpt lat="44.9198680" lon="7.1889030">
        <ele>1429.8</ele>
        <time>2017-07-27T06:19:11Z</time>
      </trkpt>
      <trkpt lat="44.9198900" lon="7.1888950">
        <ele>1430.0</ele>
        <time>2017-07-27T06:19:12Z</time>
      </trkpt>
      <trkpt lat="44.9199110" lon="7.1888750">
        <ele>1430.2</ele>
        <time>2017-07-27T06:19:13Z</time>
      </trkpt>
      <trkpt lat="44.9199630" lon="7.1888060">
        <ele>1430.6</ele>
        <time>2017-07-27T06:19:16Z</time>
      </trkpt>
      <trkpt lat="44.9199760" lon="7.1887840">
        <ele>1431.2</ele>
        <time>2017-07-27T06:19:17Z</time>
      </trkpt>
      <trkpt lat="44.9200040" lon="7.1887170">
        <ele>1431.8</ele>
        <time>2017-07-27T06:19:20Z</time>
      </trkpt>
      <trkpt lat="44.9200140" lon="7.1886560">
        <ele>1432.2</ele>
        <time>2017-07-27T06:19:22Z</time>
      </trkpt>
      <trkpt lat="44.9200420" lon="7.1885420">
        <ele>1432.8</ele>
        <time>2017-07-27T06:19:26Z</time>
      </trkpt>
      <trkpt lat="44.9200550" lon="7.1884620">
        <ele>1433.4</ele>
        <time>2017-07-27T06:19:29Z</time>
      </trkpt>
      <trkpt lat="44.9200850" lon="7.1883470">
        <ele>1434.2</ele>
        <time>2017-07-27T06:19:33Z</time>
      </trkpt>
      <trkpt lat="44.9200940" lon="7.1883240">
        <ele>1434.4</ele>
        <time>2017-07-27T06:19:34Z</time>
      </trkpt>
      <trkpt lat="44.9201240" lon="7.1882190">
        <ele>1435.6</ele>
        <time>2017-07-27T06:19:38Z</time>
      </trkpt>
      <trkpt lat="44.9201380" lon="7.1881570">
        <ele>1436.6</ele>
        <time>2017-07-27T06:19:41Z</time>
      </trkpt>
      <trkpt lat="44.9201640" lon="7.1880420">
        <ele>1438.0</ele>
        <time>2017-07-27T06:19:45Z</time>
      </trkpt>
      <trkpt lat="44.9201920" lon="7.1879400">
        <ele>1438.8</ele>
        <time>2017-07-27T06:19:49Z</time>
      </trkpt>
      <trkpt lat="44.9201960" lon="7.1879140">
        <ele>1439.0</ele>
        <time>2017-07-27T06:19:50Z</time>
      </trkpt>
      <trkpt lat="44.9202100" lon="7.1878190">
        <ele>1440.2</ele>
        <time>2017-07-27T06:19:54Z</time>
      </trkpt>
      <trkpt lat="44.9202110" lon="7.1877690">
        <ele>1440.6</ele>
        <time>2017-07-27T06:19:56Z</time>
      </trkpt>
      <trkpt lat="44.9202290" lon="7.1877170">
        <ele>1441.2</ele>
        <time>2017-07-27T06:19:58Z</time>
      </trkpt>
      <trkpt lat="44.9202470" lon="7.1877070">
        <ele>1441.4</ele>
        <time>2017-07-27T06:19:59Z</time>
      </trkpt>
      <trkpt lat="44.9202780" lon="7.1877080">
        <ele>1441.8</ele>
        <time>2017-07-27T06:20:01Z</time>
      </trkpt>
      <trkpt lat="44.9202980" lon="7.1877600">
        <ele>1442.2</ele>
        <time>2017-07-27T06:20:03Z</time>
      </trkpt>
      <trkpt lat="44.9203010" lon="7.1878150">
        <ele>1442.8</ele>
        <time>2017-07-27T06:20:05Z</time>
      </trkpt>
      <trkpt lat="44.9203060" lon="7.1879070">
        <ele>1443.2</ele>
        <time>2017-07-27T06:20:08Z</time>
      </trkpt>
      <trkpt lat="44.9203190" lon="7.1879790">
        <ele>1443.6</ele>
        <time>2017-07-27T06:20:10Z</time>
      </trkpt>
      <trkpt lat="44.9203410" lon="7.1880490">
        <ele>1444.0</ele>
        <time>2017-07-27T06:20:12Z</time>
      </trkpt>
      <trkpt lat="44.9203630" lon="7.1881240">
        <ele>1444.2</ele>
        <time>2017-07-27T06:20:14Z</time>
      </trkpt>
      <trkpt lat="44.9204230" lon="7.1882480">
        <ele>1445.0</ele>
        <time>2017-07-27T06:20:18Z</time>
      </trkpt>
      <trkpt lat="44.9204950" lon="7.1883660">
        <ele>1445.4</ele>
        <time>2017-07-27T06:20:22Z</time>
      </trkpt>
      <trkpt lat="44.9205520" lon="7.1884460">
        <ele>1445.8</ele>
        <time>2017-07-27T06:20:25Z</time>
      </trkpt>
      <trkpt lat="44.9206100" lon="7.1885060">
        <ele>1446.6</ele>
        <time>2017-07-27T06:20:28Z</time>
      </trkpt>
      <trkpt lat="44.9206840" lon="7.1885600">
        <ele>1447.2</ele>
        <time>2017-07-27T06:20:31Z</time>
      </trkpt>
      <trkpt lat="44.9207580" lon="7.1886090">
        <ele>1447.6</ele>
        <time>2017-07-27T06:20:34Z</time>
      </trkpt>
      <trkpt lat="44.9208350" lon="7.1886960">
        <ele>1448.4</ele>
        <time>2017-07-27T06:20:38Z</time>
      </trkpt>
      <trkpt lat="44.9208730" lon="7.1887550">
        <ele>1448.8</ele>
        <time>2017-07-27T06:20:40Z</time>
      </trkpt>
      <trkpt lat="44.9209540" lon="7.1889040">
        <ele>1449.8</ele>
        <time>2017-07-27T06:20:45Z</time>
      </trkpt>
      <trkpt lat="44.9210370" lon="7.1890470">
        <ele>1451.0</ele>
        <time>2017-07-27T06:20:50Z</time>
      </trkpt>
      <trkpt lat="44.9210640" lon="7.1890960">
        <ele>1451.2</ele>
        <time>2017-07-27T06:20:52Z</time>
      </trkpt>
      <trkpt lat="44.9210950" lon="7.1891340">
        <ele>1452.0</ele>
        <time>2017-07-27T06:20:54Z</time>
      </trkpt>
      <trkpt lat="44.9211660" lon="7.1892240">
        <ele>1453.0</ele>
        <time>2017-07-27T06:20:59Z</time>
      </trkpt>
      <trkpt lat="44.9212360" lon="7.1893540">
        <ele>1454.0</ele>
        <time>2017-07-27T06:21:04Z</time>
      </trkpt>
      <trkpt lat="44.9212500" lon="7.1893870">
        <ele>1454.2</ele>
        <time>2017-07-27T06:21:05Z</time>
      </trkpt>
      <trkpt lat="44.9213240" lon="7.1895600">
        <ele>1455.4</ele>
        <time>2017-07-27T06:21:11Z</time>
      </trkpt>
      <trkpt lat="44.9213990" lon="7.1897210">
        <ele>1456.4</ele>
        <time>2017-07-27T06:21:16Z</time>
      </trkpt>
      <trkpt lat="44.9214170" lon="7.1897460">
        <ele>1456.6</ele>
        <time>2017-07-27T06:21:17Z</time>
      </trkpt>
      <trkpt lat="44.9214870" lon="7.1898070">
        <ele>1457.4</ele>
        <time>2017-07-27T06:21:21Z</time>
      </trkpt>
      <trkpt lat="44.9215310" lon="7.1898350">
        <ele>1458.0</ele>
        <time>2017-07-27T06:21:23Z</time>
      </trkpt>
      <trkpt lat="44.9215870" lon="7.1898570">
        <ele>1458.6</ele>
        <time>2017-07-27T06:21:26Z</time>
      </trkpt>
      <trkpt lat="44.9216680" lon="7.1899010">
        <ele>1459.6</ele>
        <time>2017-07-27T06:21:30Z</time>
      </trkpt>
      <trkpt lat="44.9216880" lon="7.1899150">
        <ele>1459.6</ele>
        <time>2017-07-27T06:21:31Z</time>
      </trkpt>
      <trkpt lat="44.9217810" lon="7.1899950">
        <ele>1460.8</ele>
        <time>2017-07-27T06:21:36Z</time>
      </trkpt>
      <trkpt lat="44.9218000" lon="7.1900190">
        <ele>1461.0</ele>
        <time>2017-07-27T06:21:37Z</time>
      </trkpt>
      <trkpt lat="44.9218850" lon="7.1901170">
        <ele>1462.2</ele>
        <time>2017-07-27T06:21:41Z</time>
      </trkpt>
      <trkpt lat="44.9219530" lon="7.1902060">
        <ele>1463.2</ele>
        <time>2017-07-27T06:21:45Z</time>
      </trkpt>
      <trkpt lat="44.9219710" lon="7.1902230">
        <ele>1463.4</ele>
        <time>2017-07-27T06:21:46Z</time>
      </trkpt>
      <trkpt lat="44.9220490" lon="7.1902420">
        <ele>1464.2</ele>
        <time>2017-07-27T06:21:50Z</time>
      </trkpt>
      <trkpt lat="44.9220710" lon="7.1902270">
        <ele>1464.4</ele>
        <time>2017-07-27T06:21:51Z</time>
      </trkpt>
      <trkpt lat="44.9221260" lon="7.1901410">
        <ele>1465.2</ele>
        <time>2017-07-27T06:21:55Z</time>
      </trkpt>
      <trkpt lat="44.9221400" lon="7.1901160">
        <ele>1465.4</ele>
        <time>2017-07-27T06:21:56Z</time>
      </trkpt>
      <trkpt lat="44.9221790" lon="7.1899870">
        <ele>1466.4</ele>
        <time>2017-07-27T06:22:01Z</time>
      </trkpt>
      <trkpt lat="44.9221810" lon="7.1899560">
        <ele>1466.6</ele>
        <time>2017-07-27T06:22:02Z</time>
      </trkpt>
      <trkpt lat="44.9221950" lon="7.1898670">
        <ele>1467.6</ele>
        <time>2017-07-27T06:22:05Z</time>
      </trkpt>
      <trkpt lat="44.9222160" lon="7.1897810">
        <ele>1468.2</ele>
        <time>2017-07-27T06:22:08Z</time>
      </trkpt>
      <trkpt lat="44.9222150" lon="7.1897240">
        <ele>1468.8</ele>
        <time>2017-07-27T06:22:10Z</time>
      </trkpt>
      <trkpt lat="44.9222030" lon="7.1896120">
        <ele>1469.8</ele>
        <time>2017-07-27T06:22:14Z</time>
      </trkpt>
      <trkpt lat="44.9222020" lon="7.1895860">
        <ele>1470.0</ele>
        <time>2017-07-27T06:22:15Z</time>
      </trkpt>
      <trkpt lat="44.9221760" lon="7.1894800">
        <ele>1471.2</ele>
        <time>2017-07-27T06:22:19Z</time>
      </trkpt>
      <trkpt lat="44.9221480" lon="7.1894410">
        <ele>1471.8</ele>
        <time>2017-07-27T06:22:21Z</time>
      </trkpt>
      <trkpt lat="44.9221230" lon="7.1894130">
        <ele>1472.4</ele>
        <time>2017-07-27T06:22:23Z</time>
      </trkpt>
      <trkpt lat="44.9220630" lon="7.1893230">
        <ele>1473.6</ele>
        <time>2017-07-27T06:22:28Z</time>
      </trkpt>
      <trkpt lat="44.9220260" lon="7.1892070">
        <ele>1474.6</ele>
        <time>2017-07-27T06:22:32Z</time>
      </trkpt>
      <trkpt lat="44.9220200" lon="7.1891300">
        <ele>1475.2</ele>
        <time>2017-07-27T06:22:35Z</time>
      </trkpt>
      <trkpt lat="44.9220430" lon="7.1890340">
        <ele>1475.8</ele>
        <time>2017-07-27T06:22:38Z</time>
      </trkpt>
      <trkpt lat="44.9220740" lon="7.1889280">
        <ele>1476.6</ele>
        <time>2017-07-27T06:22:41Z</time>
      </trkpt>
      <trkpt lat="44.9220860" lon="7.1888950">
        <ele>1476.8</ele>
        <time>2017-07-27T06:22:42Z</time>
      </trkpt>
      <trkpt lat="44.9221610" lon="7.1887060">
        <ele>1478.0</ele>
        <time>2017-07-27T06:22:48Z</time>
      </trkpt>
      <trkpt lat="44.9221740" lon="7.1886740">
        <ele>1478.4</ele>
        <time>2017-07-27T06:22:49Z</time>
      </trkpt>
      <trkpt lat="44.9222500" lon="7.1885600">
        <ele>1479.4</ele>
        <time>2017-07-27T06:22:53Z</time>
      </trkpt>
      <trkpt lat="44.9222630" lon="7.1885290">
        <ele>1479.6</ele>
        <time>2017-07-27T06:22:54Z</time>
      </trkpt>
      <trkpt lat="44.9222780" lon="7.1883520">
        <ele>1480.2</ele>
        <time>2017-07-27T06:22:59Z</time>
      </trkpt>
      <trkpt lat="44.9222680" lon="7.1883320">
        <ele>1480.6</ele>
        <time>2017-07-27T06:23:00Z</time>
      </trkpt>
      <trkpt lat="44.9222030" lon="7.1882490">
        <ele>1481.4</ele>
        <time>2017-07-27T06:23:04Z</time>
      </trkpt>
      <trkpt lat="44.9221810" lon="7.1882300">
        <ele>1481.6</ele>
        <time>2017-07-27T06:23:05Z</time>
      </trkpt>
      <trkpt lat="44.9220890" lon="7.1881120">
        <ele>1482.8</ele>
        <time>2017-07-27T06:23:11Z</time>
      </trkpt>
      <trkpt lat="44.9220760" lon="7.1880840">
        <ele>1483.0</ele>
        <time>2017-07-27T06:23:12Z</time>
      </trkpt>
      <trkpt lat="44.9220350" lon="7.1879220">
        <ele>1484.0</ele>
        <time>2017-07-27T06:23:17Z</time>
      </trkpt>
      <trkpt lat="44.9220330" lon="7.1878930">
        <ele>1484.4</ele>
        <time>2017-07-27T06:23:18Z</time>
      </trkpt>
      <trkpt lat="44.9220330" lon="7.1878630">
        <ele>1484.4</ele>
        <time>2017-07-27T06:23:19Z</time>
      </trkpt>
      <trkpt lat="44.9220380" lon="7.1877830">
        <ele>1485.2</ele>
        <time>2017-07-27T06:23:22Z</time>
      </trkpt>
      <trkpt lat="44.9220470" lon="7.1877250">
        <ele>1485.6</ele>
        <time>2017-07-27T06:23:24Z</time>
      </trkpt>
      <trkpt lat="44.9220500" lon="7.1876410">
        <ele>1486.2</ele>
        <time>2017-07-27T06:23:27Z</time>
      </trkpt>
      <trkpt lat="44.9220650" lon="7.1875870">
        <ele>1486.6</ele>
        <time>2017-07-27T06:23:29Z</time>
      </trkpt>
      <trkpt lat="44.9220790" lon="7.1875270">
        <ele>1487.0</ele>
        <time>2017-07-27T06:23:31Z</time>
      </trkpt>
      <trkpt lat="44.9220920" lon="7.1874970">
        <ele>1487.4</ele>
        <time>2017-07-27T06:23:32Z</time>
      </trkpt>
      <trkpt lat="44.9221130" lon="7.1874530">
        <ele>1488.0</ele>
        <time>2017-07-27T06:23:34Z</time>
      </trkpt>
      <trkpt lat="44.9221400" lon="7.1874000">
        <ele>1488.6</ele>
        <time>2017-07-27T06:23:37Z</time>
      </trkpt>
      <trkpt lat="44.9221460" lon="7.1873790">
        <ele>1489.0</ele>
        <time>2017-07-27T06:23:38Z</time>
      </trkpt>
      <trkpt lat="44.9221860" lon="7.1873320">
        <ele>1489.8</ele>
        <time>2017-07-27T06:23:41Z</time>
      </trkpt>
      <trkpt lat="44.9222180" lon="7.1872810">
        <ele>1490.6</ele>
        <time>2017-07-27T06:23:44Z</time>
      </trkpt>
      <trkpt lat="44.9222310" lon="7.1872640">
        <ele>1490.8</ele>
        <time>2017-07-27T06:23:45Z</time>
      </trkpt>
      <trkpt lat="44.9222840" lon="7.1871990">
        <ele>1491.8</ele>
        <time>2017-07-27T06:23:49Z</time>
      </trkpt>
      <trkpt lat="44.9223250" lon="7.1871470">
        <ele>1492.8</ele>
        <time>2017-07-27T06:23:52Z</time>
      </trkpt>
      <trkpt lat="44.9223420" lon="7.1871380">
        <ele>1493.2</ele>
        <time>2017-07-27T06:23:53Z</time>
      </trkpt>
      <trkpt lat="44.9223840" lon="7.1870520">
        <ele>1494.0</ele>
        <time>2017-07-27T06:23:57Z</time>
      </trkpt>
      <trkpt lat="44.9223910" lon="7.1870340">
        <ele>1494.2</ele>
        <time>2017-07-27T06:23:58Z</time>
      </trkpt>
      <trkpt lat="44.9224250" lon="7.1869560">
        <ele>1495.4</ele>
        <time>2017-07-27T06:24:02Z</time>
      </trkpt>
      <trkpt lat="44.9224290" lon="7.1869350">
        <ele>1495.6</ele>
        <time>2017-07-27T06:24:03Z</time>
      </trkpt>
      <trkpt lat="44.9224400" lon="7.1868740">
        <ele>1496.6</ele>
        <time>2017-07-27T06:24:06Z</time>
      </trkpt>
      <trkpt lat="44.9224600" lon="7.1867830">
        <ele>1497.6</ele>
        <time>2017-07-27T06:24:10Z</time>
      </trkpt>
      <trkpt lat="44.9224980" lon="7.1866610">
        <ele>1498.8</ele>
        <time>2017-07-27T06:24:15Z</time>
      </trkpt>
      <trkpt lat="44.9225220" lon="7.1865890">
        <ele>1499.6</ele>
        <time>2017-07-27T06:24:18Z</time>
      </trkpt>
      <trkpt lat="44.9225400" lon="7.1865470">
        <ele>1500.0</ele>
        <time>2017-07-27T06:24:20Z</time>
      </trkpt>
      <trkpt lat="44.9225820" lon="7.1864710">
        <ele>1501.0</ele>
        <time>2017-07-27T06:24:24Z</time>
      </trkpt>
      <trkpt lat="44.9225930" lon="7.1864490">
        <ele>1501.2</ele>
        <time>2017-07-27T06:24:25Z</time>
      </trkpt>
      <trkpt lat="44.9226210" lon="7.1863800">
        <ele>1502.0</ele>
        <time>2017-07-27T06:24:28Z</time>
      </trkpt>
      <trkpt lat="44.9226340" lon="7.1863670">
        <ele>1502.6</ele>
        <time>2017-07-27T06:24:29Z</time>
      </trkpt>
      <trkpt lat="44.9226490" lon="7.1863070">
        <ele>1503.0</ele>
        <time>2017-07-27T06:24:31Z</time>
      </trkpt>
      <trkpt lat="44.9226770" lon="7.1862490">
        <ele>1503.8</ele>
        <time>2017-07-27T06:24:34Z</time>
      </trkpt>
      <trkpt lat="44.9227150" lon="7.1861340">
        <ele>1505.0</ele>
        <time>2017-07-27T06:24:39Z</time>
      </trkpt>
      <trkpt lat="44.9227320" lon="7.1860890">
        <ele>1505.4</ele>
        <time>2017-07-27T06:24:41Z</time>
      </trkpt>
      <trkpt lat="44.9227550" lon="7.1860360">
        <ele>1506.0</ele>
        <time>2017-07-27T06:24:44Z</time>
      </trkpt>
      <trkpt lat="44.9227870" lon="7.1859280">
        <ele>1507.2</ele>
        <time>2017-07-27T06:24:49Z</time>
      </trkpt>
      <trkpt lat="44.9227960" lon="7.1858310">
        <ele>1508.4</ele>
        <time>2017-07-27T06:24:53Z</time>
      </trkpt>
      <trkpt lat="44.9228150" lon="7.1857260">
        <ele>1509.0</ele>
        <time>2017-07-27T06:24:57Z</time>
      </trkpt>
      <trkpt lat="44.9228190" lon="7.1856650">
        <ele>1509.4</ele>
        <time>2017-07-27T06:24:59Z</time>
      </trkpt>
      <trkpt lat="44.9227960" lon="7.1853580">
        <ele>1510.4</ele>
        <time>2017-07-27T06:25:05Z</time>
      </trkpt>
      <trkpt lat="44.9228000" lon="7.1853220">
        <ele>1510.4</ele>
        <time>2017-07-27T06:25:06Z</time>
      </trkpt>
      <trkpt lat="44.9227950" lon="7.1851160">
        <ele>1508.6</ele>
        <time>2017-07-27T06:25:11Z</time>
      </trkpt>
      <trkpt lat="44.9227900" lon="7.1850740">
        <ele>1510.0</ele>
        <time>2017-07-27T06:25:12Z</time>
      </trkpt>
      <trkpt lat="44.9227730" lon="7.1849990">
        <ele>1511.4</ele>
        <time>2017-07-27T06:25:14Z</time>
      </trkpt>
      <trkpt lat="44.9227200" lon="7.1847730">
        <ele>1512.2</ele>
        <time>2017-07-27T06:25:20Z</time>
      </trkpt>
      <trkpt lat="44.9226670" lon="7.1846150">
        <ele>1512.6</ele>
        <time>2017-07-27T06:25:24Z</time>
      </trkpt>
      <trkpt lat="44.9226090" lon="7.1845210">
        <ele>1512.8</ele>
        <time>2017-07-27T06:25:27Z</time>
      </trkpt>
      <trkpt lat="44.9224710" lon="7.1843770">
        <ele>1513.2</ele>
        <time>2017-07-27T06:25:33Z</time>
      </trkpt>
      <trkpt lat="44.9224000" lon="7.1843060">
        <ele>1513.6</ele>
        <time>2017-07-27T06:25:36Z</time>
      </trkpt>
      <trkpt lat="44.9223360" lon="7.1841750">
        <ele>1514.0</ele>
        <time>2017-07-27T06:25:40Z</time>
      </trkpt>
      <trkpt lat="44.9222960" lon="7.1840820">
        <ele>1514.6</ele>
        <time>2017-07-27T06:25:43Z</time>
      </trkpt>
      <trkpt lat="44.9222570" lon="7.1839790">
        <ele>1515.2</ele>
        <time>2017-07-27T06:25:46Z</time>
      </trkpt>
      <trkpt lat="44.9222350" lon="7.1839080">
        <ele>1515.8</ele>
        <time>2017-07-27T06:25:48Z</time>
      </trkpt>
      <trkpt lat="44.9221720" lon="7.1837860">
        <ele>1516.2</ele>
        <time>2017-07-27T06:25:52Z</time>
      </trkpt>
      <trkpt lat="44.9221640" lon="7.1837480">
        <ele>1516.4</ele>
        <time>2017-07-27T06:25:53Z</time>
      </trkpt>
      <trkpt lat="44.9221440" lon="7.1836770">
        <ele>1516.8</ele>
        <time>2017-07-27T06:25:55Z</time>
      </trkpt>
      <trkpt lat="44.9221190" lon="7.1836050">
        <ele>1517.2</ele>
        <time>2017-07-27T06:25:57Z</time>
      </trkpt>
      <trkpt lat="44.9220920" lon="7.1835100">
        <ele>1517.8</ele>
        <time>2017-07-27T06:26:00Z</time>
      </trkpt>
      <trkpt lat="44.9220730" lon="7.1833780">
        <ele>1518.6</ele>
        <time>2017-07-27T06:26:04Z</time>
      </trkpt>
      <trkpt lat="44.9220690" lon="7.1833440">
        <ele>1519.4</ele>
        <time>2017-07-27T06:26:05Z</time>
      </trkpt>
      <trkpt lat="44.9220560" lon="7.1831720">
        <ele>1520.4</ele>
        <time>2017-07-27T06:26:10Z</time>
      </trkpt>
      <trkpt lat="44.9220530" lon="7.1831020">
        <ele>1520.8</ele>
        <time>2017-07-27T06:26:12Z</time>
      </trkpt>
      <trkpt lat="44.9220440" lon="7.1830040">
        <ele>1521.4</ele>
        <time>2017-07-27T06:26:15Z</time>
      </trkpt>
      <trkpt lat="44.9220240" lon="7.1828830">
        <ele>1522.2</ele>
        <time>2017-07-27T06:26:19Z</time>
      </trkpt>
      <trkpt lat="44.9220090" lon="7.1828240">
        <ele>1522.6</ele>
        <time>2017-07-27T06:26:21Z</time>
      </trkpt>
      <trkpt lat="44.9219830" lon="7.1826870">
        <ele>1523.6</ele>
        <time>2017-07-27T06:26:26Z</time>
      </trkpt>
      <trkpt lat="44.9219550" lon="7.1825750">
        <ele>1524.6</ele>
        <time>2017-07-27T06:26:30Z</time>
      </trkpt>
      <trkpt lat="44.9219240" lon="7.1824960">
        <ele>1525.4</ele>
        <time>2017-07-27T06:26:33Z</time>
      </trkpt>
      <trkpt lat="44.9218800" lon="7.1824020">
        <ele>1525.8</ele>
        <time>2017-07-27T06:26:37Z</time>
      </trkpt>
      <trkpt lat="44.9218640" lon="7.1823500">
        <ele>1526.2</ele>
        <time>2017-07-27T06:26:39Z</time>
      </trkpt>
      <trkpt lat="44.9218220" lon="7.1822500">
        <ele>1526.8</ele>
        <time>2017-07-27T06:26:43Z</time>
      </trkpt>
      <trkpt lat="44.9218050" lon="7.1821670">
        <ele>1527.4</ele>
        <time>2017-07-27T06:26:46Z</time>
      </trkpt>
      <trkpt lat="44.9217900" lon="7.1821140">
        <ele>1527.8</ele>
        <time>2017-07-27T06:26:48Z</time>
      </trkpt>
      <trkpt lat="44.9217650" lon="7.1819880">
        <ele>1529.0</ele>
        <time>2017-07-27T06:26:53Z</time>
      </trkpt>
      <trkpt lat="44.9217580" lon="7.1818310">
        <ele>1530.2</ele>
        <time>2017-07-27T06:26:59Z</time>
      </trkpt>
      <trkpt lat="44.9217500" lon="7.1816800">
        <ele>1531.2</ele>
        <time>2017-07-27T06:27:04Z</time>
      </trkpt>
      <trkpt lat="44.9217400" lon="7.1815830">
        <ele>1531.8</ele>
        <time>2017-07-27T06:27:07Z</time>
      </trkpt>
      <trkpt lat="44.9217430" lon="7.1815200">
        <ele>1532.2</ele>
        <time>2017-07-27T06:27:09Z</time>
      </trkpt>
      <trkpt lat="44.9217460" lon="7.1813000">
        <ele>1533.2</ele>
        <time>2017-07-27T06:27:15Z</time>
      </trkpt>
      <trkpt lat="44.9217460" lon="7.1812600">
        <ele>1533.4</ele>
        <time>2017-07-27T06:27:16Z</time>
      </trkpt>
      <trkpt lat="44.9217620" lon="7.1810290">
        <ele>1534.2</ele>
        <time>2017-07-27T06:27:22Z</time>
      </trkpt>
      <trkpt lat="44.9217650" lon="7.1809890">
        <ele>1534.4</ele>
        <time>2017-07-27T06:27:23Z</time>
      </trkpt>
      <trkpt lat="44.9218180" lon="7.1807050">
        <ele>1535.4</ele>
        <time>2017-07-27T06:27:30Z</time>
      </trkpt>
      <trkpt lat="44.9218280" lon="7.1804730">
        <ele>1536.4</ele>
        <time>2017-07-27T06:27:36Z</time>
      </trkpt>
      <trkpt lat="44.9218320" lon="7.1803890">
        <ele>1536.6</ele>
        <time>2017-07-27T06:27:38Z</time>
      </trkpt>
      <trkpt lat="44.9218640" lon="7.1802850">
        <ele>1537.4</ele>
        <time>2017-07-27T06:27:41Z</time>
      </trkpt>
      <trkpt lat="44.9218980" lon="7.1801880">
        <ele>1537.8</ele>
        <time>2017-07-27T06:27:44Z</time>
      </trkpt>
      <trkpt lat="44.9219450" lon="7.1799580">
        <ele>1539.0</ele>
        <time>2017-07-27T06:27:50Z</time>
      </trkpt>
      <trkpt lat="44.9219650" lon="7.1797650">
        <ele>1540.0</ele>
        <time>2017-07-27T06:27:55Z</time>
      </trkpt>
      <trkpt lat="44.9219610" lon="7.1797290">
        <ele>1540.2</ele>
        <time>2017-07-27T06:27:56Z</time>
      </trkpt>
      <trkpt lat="44.9219350" lon="7.1795410">
        <ele>1541.0</ele>
        <time>2017-07-27T06:28:01Z</time>
      </trkpt>
      <trkpt lat="44.9219180" lon="7.1794700">
        <ele>1541.6</ele>
        <time>2017-07-27T06:28:03Z</time>
      </trkpt>
      <trkpt lat="44.9219050" lon="7.1794050">
        <ele>1542.4</ele>
        <time>2017-07-27T06:28:05Z</time>
      </trkpt>
      <trkpt lat="44.9218690" lon="7.1792530">
        <ele>1543.6</ele>
        <time>2017-07-27T06:28:10Z</time>
      </trkpt>
      <trkpt lat="44.9218410" lon="7.1790930">
        <ele>1544.6</ele>
        <time>2017-07-27T06:28:15Z</time>
      </trkpt>
      <trkpt lat="44.9218270" lon="7.1790330">
        <ele>1545.2</ele>
        <time>2017-07-27T06:28:17Z</time>
      </trkpt>
      <trkpt lat="44.9218090" lon="7.1789760">
        <ele>1545.8</ele>
        <time>2017-07-27T06:28:19Z</time>
      </trkpt>
      <trkpt lat="44.9217590" lon="7.1788330">
        <ele>1546.8</ele>
        <time>2017-07-27T06:28:24Z</time>
      </trkpt>
      <trkpt lat="44.9217360" lon="7.1787060">
        <ele>1547.8</ele>
        <time>2017-07-27T06:28:28Z</time>
      </trkpt>
      <trkpt lat="44.9217290" lon="7.1786430">
        <ele>1548.6</ele>
        <time>2017-07-27T06:28:30Z</time>
      </trkpt>
      <trkpt lat="44.9217220" lon="7.1785880">
        <ele>1549.2</ele>
        <time>2017-07-27T06:28:32Z</time>
      </trkpt>
      <trkpt lat="44.9217160" lon="7.1785050">
        <ele>1550.2</ele>
        <time>2017-07-27T06:28:35Z</time>
      </trkpt>
      <trkpt lat="44.9217170" lon="7.1784780">
        <ele>1550.4</ele>
        <time>2017-07-27T06:28:36Z</time>
      </trkpt>
      <trkpt lat="44.9217100" lon="7.1783620">
        <ele>1551.2</ele>
        <time>2017-07-27T06:28:40Z</time>
      </trkpt>
      <trkpt lat="44.9216930" lon="7.1782820">
        <ele>1552.0</ele>
        <time>2017-07-27T06:28:43Z</time>
      </trkpt>
      <trkpt lat="44.9216800" lon="7.1782270">
        <ele>1552.4</ele>
        <time>2017-07-27T06:28:45Z</time>
      </trkpt>
      <trkpt lat="44.9216270" lon="7.1780920">
        <ele>1553.4</ele>
        <time>2017-07-27T06:28:50Z</time>
      </trkpt>
      <trkpt lat="44.9215740" lon="7.1779690">
        <ele>1554.6</ele>
        <time>2017-07-27T06:28:55Z</time>
      </trkpt>
      <trkpt lat="44.9215670" lon="7.1779410">
        <ele>1554.8</ele>
        <time>2017-07-27T06:28:56Z</time>
      </trkpt>
      <trkpt lat="44.9215310" lon="7.1777890">
        <ele>1555.8</ele>
        <time>2017-07-27T06:29:01Z</time>
      </trkpt>
      <trkpt lat="44.9215260" lon="7.1777590">
        <ele>1555.8</ele>
        <time>2017-07-27T06:29:02Z</time>
      </trkpt>
      <trkpt lat="44.9215180" lon="7.1776400">
        <ele>1556.8</ele>
        <time>2017-07-27T06:29:06Z</time>
      </trkpt>
      <trkpt lat="44.9215160" lon="7.1775550">
        <ele>1557.8</ele>
        <time>2017-07-27T06:29:09Z</time>
      </trkpt>
      <trkpt lat="44.9215190" lon="7.1775280">
        <ele>1558.0</ele>
        <time>2017-07-27T06:29:10Z</time>
      </trkpt>
      <trkpt lat="44.9215120" lon="7.1774190">
        <ele>1559.0</ele>
        <time>2017-07-27T06:29:14Z</time>
      </trkpt>
      <trkpt lat="44.9215030" lon="7.1773650">
        <ele>1559.6</ele>
        <time>2017-07-27T06:29:16Z</time>
      </trkpt>
      <trkpt lat="44.9215000" lon="7.1773380">
        <ele>1560.0</ele>
        <time>2017-07-27T06:29:17Z</time>
      </trkpt>
      <trkpt lat="44.9214730" lon="7.1772050">
        <ele>1561.4</ele>
        <time>2017-07-27T06:29:22Z</time>
      </trkpt>
      <trkpt lat="44.9214620" lon="7.1771820">
        <ele>1561.6</ele>
        <time>2017-07-27T06:29:23Z</time>
      </trkpt>
      <trkpt lat="44.9214340" lon="7.1771130">
        <ele>1562.4</ele>
        <time>2017-07-27T06:29:26Z</time>
      </trkpt>
      <trkpt lat="44.9213970" lon="7.1770150">
        <ele>1563.2</ele>
        <time>2017-07-27T06:29:30Z</time>
      </trkpt>
      <trkpt lat="44.9213880" lon="7.1769890">
        <ele>1563.6</ele>
        <time>2017-07-27T06:29:31Z</time>
      </trkpt>
      <trkpt lat="44.9213340" lon="7.1768620">
        <ele>1564.8</ele>
        <time>2017-07-27T06:29:36Z</time>
      </trkpt>
      <trkpt lat="44.9213210" lon="7.1768340">
        <ele>1564.8</ele>
        <time>2017-07-27T06:29:37Z</time>
      </trkpt>
      <trkpt lat="44.9212730" lon="7.1767310">
        <ele>1565.8</ele>
        <time>2017-07-27T06:29:41Z</time>
      </trkpt>
      <trkpt lat="44.9212380" lon="7.1766530">
        <ele>1566.2</ele>
        <time>2017-07-27T06:29:44Z</time>
      </trkpt>
      <trkpt lat="44.9211730" lon="7.1765150">
        <ele>1567.0</ele>
        <time>2017-07-27T06:29:49Z</time>
      </trkpt>
      <trkpt lat="44.9211650" lon="7.1764840">
        <ele>1567.0</ele>
        <time>2017-07-27T06:29:50Z</time>
      </trkpt>
      <trkpt lat="44.9211120" lon="7.1763420">
        <ele>1568.0</ele>
        <time>2017-07-27T06:29:55Z</time>
      </trkpt>
      <trkpt lat="44.9211010" lon="7.1763110">
        <ele>1568.0</ele>
        <time>2017-07-27T06:29:56Z</time>
      </trkpt>
      <trkpt lat="44.9210920" lon="7.1762800">
        <ele>1568.2</ele>
        <time>2017-07-27T06:29:57Z</time>
      </trkpt>
      <trkpt lat="44.9210240" lon="7.1761300">
        <ele>1569.2</ele>
        <time>2017-07-27T06:30:02Z</time>
      </trkpt>
      <trkpt lat="44.9210090" lon="7.1761020">
        <ele>1569.6</ele>
        <time>2017-07-27T06:30:03Z</time>
      </trkpt>
      <trkpt lat="44.9209570" lon="7.1760230">
        <ele>1570.4</ele>
        <time>2017-07-27T06:30:06Z</time>
      </trkpt>
      <trkpt lat="44.9209050" lon="7.1759090">
        <ele>1571.4</ele>
        <time>2017-07-27T06:30:10Z</time>
      </trkpt>
      <trkpt lat="44.9208390" lon="7.1757660">
        <ele>1572.8</ele>
        <time>2017-07-27T06:30:15Z</time>
      </trkpt>
      <trkpt lat="44.9208160" lon="7.1757080">
        <ele>1573.2</ele>
        <time>2017-07-27T06:30:17Z</time>
      </trkpt>
      <trkpt lat="44.9207870" lon="7.1756520">
        <ele>1573.8</ele>
        <time>2017-07-27T06:30:19Z</time>
      </trkpt>
      <trkpt lat="44.9207520" lon="7.1755280">
        <ele>1574.8</ele>
        <time>2017-07-27T06:30:23Z</time>
      </trkpt>
      <trkpt lat="44.9206860" lon="7.1754360">
        <ele>1576.0</ele>
        <time>2017-07-27T06:30:27Z</time>
      </trkpt>
      <trkpt lat="44.9206670" lon="7.1754160">
        <ele>1576.6</ele>
        <time>2017-07-27T06:30:28Z</time>
      </trkpt>
      <trkpt lat="44.9206350" lon="7.1753760">
        <ele>1577.6</ele>
        <time>2017-07-27T06:30:30Z</time>
      </trkpt>
      <trkpt lat="44.9206170" lon="7.1753290">
        <ele>1578.2</ele>
        <time>2017-07-27T06:30:32Z</time>
      </trkpt>
      <trkpt lat="44.9206170" lon="7.1753030">
        <ele>1578.4</ele>
        <time>2017-07-27T06:30:33Z</time>
      </trkpt>
      <trkpt lat="44.9206230" lon="7.1752770">
        <ele>1578.8</ele>
        <time>2017-07-27T06:30:34Z</time>
      </trkpt>
      <trkpt lat="44.9206730" lon="7.1752520">
        <ele>1579.6</ele>
        <time>2017-07-27T06:30:37Z</time>
      </trkpt>
      <trkpt lat="44.9206890" lon="7.1752640">
        <ele>1579.8</ele>
        <time>2017-07-27T06:30:38Z</time>
      </trkpt>
      <trkpt lat="44.9207470" lon="7.1753410">
        <ele>1580.6</ele>
        <time>2017-07-27T06:30:42Z</time>
      </trkpt>
      <trkpt lat="44.9207620" lon="7.1753580">
        <ele>1580.8</ele>
        <time>2017-07-27T06:30:43Z</time>
      </trkpt>
      <trkpt lat="44.9207800" lon="7.1753730">
        <ele>1581.0</ele>
        <time>2017-07-27T06:30:44Z</time>
      </trkpt>
      <trkpt lat="44.9208520" lon="7.1754230">
        <ele>1582.0</ele>
        <time>2017-07-27T06:30:48Z</time>
      </trkpt>
      <trkpt lat="44.9208690" lon="7.1754320">
        <ele>1582.0</ele>
        <time>2017-07-27T06:30:49Z</time>
      </trkpt>
      <trkpt lat="44.9209600" lon="7.1755250">
        <ele>1583.0</ele>
        <time>2017-07-27T06:30:54Z</time>
      </trkpt>
      <trkpt lat="44.9209970" lon="7.1755720">
        <ele>1583.2</ele>
        <time>2017-07-27T06:30:56Z</time>
      </trkpt>
      <trkpt lat="44.9210860" lon="7.1757130">
        <ele>1584.2</ele>
        <time>2017-07-27T06:31:02Z</time>
      </trkpt>
      <trkpt lat="44.9211990" lon="7.1757970">
        <ele>1585.2</ele>
        <time>2017-07-27T06:31:08Z</time>
      </trkpt>
      <trkpt lat="44.9212970" lon="7.1758820">
        <ele>1586.2</ele>
        <time>2017-07-27T06:31:13Z</time>
      </trkpt>
      <trkpt lat="44.9213180" lon="7.1759000">
        <ele>1586.4</ele>
        <time>2017-07-27T06:31:14Z</time>
      </trkpt>
      <trkpt lat="44.9213960" lon="7.1759770">
        <ele>1587.4</ele>
        <time>2017-07-27T06:31:18Z</time>
      </trkpt>
      <trkpt lat="44.9214670" lon="7.1760360">
        <ele>1588.0</ele>
        <time>2017-07-27T06:31:21Z</time>
      </trkpt>
      <trkpt lat="44.9215360" lon="7.1761060">
        <ele>1588.6</ele>
        <time>2017-07-27T06:31:24Z</time>
      </trkpt>
      <trkpt lat="44.9216660" lon="7.1762380">
        <ele>1589.6</ele>
        <time>2017-07-27T06:31:30Z</time>
      </trkpt>
      <trkpt lat="44.9218060" lon="7.1763570">
        <ele>1590.2</ele>
        <time>2017-07-27T06:31:35Z</time>
      </trkpt>
      <trkpt lat="44.9219120" lon="7.1764020">
        <ele>1590.6</ele>
        <time>2017-07-27T06:31:38Z</time>
      </trkpt>
      <trkpt lat="44.9219540" lon="7.1764110">
        <ele>1590.6</ele>
        <time>2017-07-27T06:31:39Z</time>
      </trkpt>
      <trkpt lat="44.9220520" lon="7.1764250">
        <ele>1591.0</ele>
        <time>2017-07-27T06:31:41Z</time>
      </trkpt>
      <trkpt lat="44.9222050" lon="7.1764480">
        <ele>1591.4</ele>
        <time>2017-07-27T06:31:44Z</time>
      </trkpt>
      <trkpt lat="44.9223190" lon="7.1764790">
        <ele>1591.4</ele>
        <time>2017-07-27T06:31:46Z</time>
      </trkpt>
      <trkpt lat="44.9226080" lon="7.1765180">
        <ele>1591.0</ele>
        <time>2017-07-27T06:31:50Z</time>
      </trkpt>
      <trkpt lat="44.9226890" lon="7.1765350">
        <ele>1590.6</ele>
        <time>2017-07-27T06:31:51Z</time>
      </trkpt>
      <trkpt lat="44.9229520" lon="7.1766270">
        <ele>1590.4</ele>
        <time>2017-07-27T06:31:54Z</time>
      </trkpt>
      <trkpt lat="44.9231360" lon="7.1766730">
        <ele>1589.6</ele>
        <time>2017-07-27T06:31:56Z</time>
      </trkpt>
      <trkpt lat="44.9232230" lon="7.1767120">
        <ele>1589.0</ele>
        <time>2017-07-27T06:31:57Z</time>
      </trkpt>
      <trkpt lat="44.9233020" lon="7.1767610">
        <ele>1588.2</ele>
        <time>2017-07-27T06:31:58Z</time>
      </trkpt>
      <trkpt lat="44.9233780" lon="7.1768210">
        <ele>1587.8</ele>
        <time>2017-07-27T06:31:59Z</time>
      </trkpt>
      <trkpt lat="44.9235280" lon="7.1769540">
        <ele>1587.0</ele>
        <time>2017-07-27T06:32:01Z</time>
      </trkpt>
      <trkpt lat="44.9236090" lon="7.1770190">
        <ele>1586.8</ele>
        <time>2017-07-27T06:32:02Z</time>
      </trkpt>
      <trkpt lat="44.9236930" lon="7.1770770">
        <ele>1586.0</ele>
        <time>2017-07-27T06:32:03Z</time>
      </trkpt>
      <trkpt lat="44.9237780" lon="7.1771280">
        <ele>1585.4</ele>
        <time>2017-07-27T06:32:04Z</time>
      </trkpt>
      <trkpt lat="44.9239180" lon="7.1772130">
        <ele>1583.6</ele>
        <time>2017-07-27T06:32:06Z</time>
      </trkpt>
      <trkpt lat="44.9239720" lon="7.1772470">
        <ele>1583.2</ele>
        <time>2017-07-27T06:32:07Z</time>
      </trkpt>
      <trkpt lat="44.9240150" lon="7.1772610">
        <ele>1582.4</ele>
        <time>2017-07-27T06:32:08Z</time>
      </trkpt>
      <trkpt lat="44.9240640" lon="7.1772180">
        <ele>1580.8</ele>
        <time>2017-07-27T06:32:10Z</time>
      </trkpt>
      <trkpt lat="44.9240350" lon="7.1771270">
        <ele>1579.6</ele>
        <time>2017-07-27T06:32:12Z</time>
      </trkpt>
      <trkpt lat="44.9240050" lon="7.1770790">
        <ele>1578.8</ele>
        <time>2017-07-27T06:32:13Z</time>
      </trkpt>
      <trkpt lat="44.9239670" lon="7.1770310">
        <ele>1578.2</ele>
        <time>2017-07-27T06:32:14Z</time>
      </trkpt>
      <trkpt lat="44.9238380" lon="7.1768490">
        <ele>1576.8</ele>
        <time>2017-07-27T06:32:17Z</time>
      </trkpt>
      <trkpt lat="44.9237440" lon="7.1767100">
        <ele>1575.8</ele>
        <time>2017-07-27T06:32:19Z</time>
      </trkpt>
      <trkpt lat="44.9236480" lon="7.1765380">
        <ele>1575.0</ele>
        <time>2017-07-27T06:32:21Z</time>
      </trkpt>
      <trkpt lat="44.9236090" lon="7.1764360">
        <ele>1574.4</ele>
        <time>2017-07-27T06:32:22Z</time>
      </trkpt>
      <trkpt lat="44.9235480" lon="7.1762040">
        <ele>1573.2</ele>
        <time>2017-07-27T06:32:24Z</time>
      </trkpt>
      <trkpt lat="44.9234890" lon="7.1759620">
        <ele>1572.4</ele>
        <time>2017-07-27T06:32:26Z</time>
      </trkpt>
      <trkpt lat="44.9234480" lon="7.1758490">
        <ele>1571.8</ele>
        <time>2017-07-27T06:32:27Z</time>
      </trkpt>
      <trkpt lat="44.9233310" lon="7.1756510">
        <ele>1571.0</ele>
        <time>2017-07-27T06:32:29Z</time>
      </trkpt>
      <trkpt lat="44.9232610" lon="7.1755560">
        <ele>1569.4</ele>
        <time>2017-07-27T06:32:30Z</time>
      </trkpt>
      <trkpt lat="44.9231280" lon="7.1753650">
        <ele>1568.4</ele>
        <time>2017-07-27T06:32:32Z</time>
      </trkpt>
      <trkpt lat="44.9230710" lon="7.1752920">
        <ele>1567.8</ele>
        <time>2017-07-27T06:32:33Z</time>
      </trkpt>
      <trkpt lat="44.9230180" lon="7.1752380">
        <ele>1566.6</ele>
        <time>2017-07-27T06:32:34Z</time>
      </trkpt>
      <trkpt lat="44.9229860" lon="7.1751890">
        <ele>1565.6</ele>
        <time>2017-07-27T06:32:35Z</time>
      </trkpt>
      <trkpt lat="44.9229800" lon="7.1751440">
        <ele>1564.8</ele>
        <time>2017-07-27T06:32:36Z</time>
      </trkpt>
      <trkpt lat="44.9229940" lon="7.1751120">
        <ele>1564.0</ele>
        <time>2017-07-27T06:32:37Z</time>
      </trkpt>
      <trkpt lat="44.9230490" lon="7.1751110">
        <ele>1562.4</ele>
        <time>2017-07-27T06:32:39Z</time>
      </trkpt>
      <trkpt lat="44.9231250" lon="7.1751900">
        <ele>1561.2</ele>
        <time>2017-07-27T06:32:41Z</time>
      </trkpt>
      <trkpt lat="44.9232130" lon="7.1752720">
        <ele>1560.0</ele>
        <time>2017-07-27T06:32:43Z</time>
      </trkpt>
      <trkpt lat="44.9232690" lon="7.1753160">
        <ele>1559.4</ele>
        <time>2017-07-27T06:32:44Z</time>
      </trkpt>
      <trkpt lat="44.9233310" lon="7.1753620">
        <ele>1558.8</ele>
        <time>2017-07-27T06:32:45Z</time>
      </trkpt>
      <trkpt lat="44.9235360" lon="7.1754970">
        <ele>1557.2</ele>
        <time>2017-07-27T06:32:48Z</time>
      </trkpt>
      <trkpt lat="44.9236070" lon="7.1755520">
        <ele>1556.6</ele>
        <time>2017-07-27T06:32:49Z</time>
      </trkpt>
      <trkpt lat="44.9236830" lon="7.1756230">
        <ele>1556.2</ele>
        <time>2017-07-27T06:32:50Z</time>
      </trkpt>
      <trkpt lat="44.9238430" lon="7.1758000">
        <ele>1554.8</ele>
        <time>2017-07-27T06:32:52Z</time>
      </trkpt>
      <trkpt lat="44.9239310" lon="7.1758980">
        <ele>1554.6</ele>
        <time>2017-07-27T06:32:53Z</time>
      </trkpt>
      <trkpt lat="44.9240210" lon="7.1759850">
        <ele>1553.6</ele>
        <time>2017-07-27T06:32:54Z</time>
      </trkpt>
      <trkpt lat="44.9242090" lon="7.1761470">
        <ele>1552.0</ele>
        <time>2017-07-27T06:32:56Z</time>
      </trkpt>
      <trkpt lat="44.9243090" lon="7.1762270">
        <ele>1551.2</ele>
        <time>2017-07-27T06:32:57Z</time>
      </trkpt>
      <trkpt lat="44.9244110" lon="7.1763060">
        <ele>1550.4</ele>
        <time>2017-07-27T06:32:58Z</time>
      </trkpt>
      <trkpt lat="44.9245070" lon="7.1763550">
        <ele>1549.4</ele>
        <time>2017-07-27T06:32:59Z</time>
      </trkpt>
      <trkpt lat="44.9246020" lon="7.1763760">
        <ele>1548.4</ele>
        <time>2017-07-27T06:33:00Z</time>
      </trkpt>
      <trkpt lat="44.9247050" lon="7.1763830">
        <ele>1547.6</ele>
        <time>2017-07-27T06:33:01Z</time>
      </trkpt>
      <trkpt lat="44.9249170" lon="7.1764160">
        <ele>1545.8</ele>
        <time>2017-07-27T06:33:03Z</time>
      </trkpt>
      <trkpt lat="44.9250180" lon="7.1764540">
        <ele>1545.2</ele>
        <time>2017-07-27T06:33:04Z</time>
      </trkpt>
      <trkpt lat="44.9251120" lon="7.1765080">
        <ele>1544.0</ele>
        <time>2017-07-27T06:33:05Z</time>
      </trkpt>
      <trkpt lat="44.9253020" lon="7.1766480">
        <ele>1542.4</ele>
        <time>2017-07-27T06:33:07Z</time>
      </trkpt>
      <trkpt lat="44.9254000" lon="7.1767190">
        <ele>1541.4</ele>
        <time>2017-07-27T06:33:08Z</time>
      </trkpt>
      <trkpt lat="44.9254980" lon="7.1767910">
        <ele>1540.6</ele>
        <time>2017-07-27T06:33:09Z</time>
      </trkpt>
      <trkpt lat="44.9257040" lon="7.1769560">
        <ele>1539.0</ele>
        <time>2017-07-27T06:33:11Z</time>
      </trkpt>
      <trkpt lat="44.9258080" lon="7.1770230">
        <ele>1538.0</ele>
        <time>2017-07-27T06:33:12Z</time>
      </trkpt>
      <trkpt lat="44.9260300" lon="7.1771440">
        <ele>1536.2</ele>
        <time>2017-07-27T06:33:14Z</time>
      </trkpt>
      <trkpt lat="44.9262460" lon="7.1772900">
        <ele>1533.8</ele>
        <time>2017-07-27T06:33:16Z</time>
      </trkpt>
      <trkpt lat="44.9264590" lon="7.1774600">
        <ele>1531.2</ele>
        <time>2017-07-27T06:33:18Z</time>
      </trkpt>
      <trkpt lat="44.9265640" lon="7.1775380">
        <ele>1529.8</ele>
        <time>2017-07-27T06:33:19Z</time>
      </trkpt>
      <trkpt lat="44.9266710" lon="7.1776080">
        <ele>1528.6</ele>
        <time>2017-07-27T06:33:20Z</time>
      </trkpt>
      <trkpt lat="44.9267750" lon="7.1776780">
        <ele>1527.4</ele>
        <time>2017-07-27T06:33:21Z</time>
      </trkpt>
      <trkpt lat="44.9268750" lon="7.1777500">
        <ele>1526.4</ele>
        <time>2017-07-27T06:33:22Z</time>
      </trkpt>
      <trkpt lat="44.9269820" lon="7.1778240">
        <ele>1525.2</ele>
        <time>2017-07-27T06:33:23Z</time>
      </trkpt>
      <trkpt lat="44.9271880" lon="7.1779380">
        <ele>1523.4</ele>
        <time>2017-07-27T06:33:25Z</time>
      </trkpt>
      <trkpt lat="44.9272870" lon="7.1779700">
        <ele>1522.4</ele>
        <time>2017-07-27T06:33:26Z</time>
      </trkpt>
      <trkpt lat="44.9273840" lon="7.1780030">
        <ele>1520.8</ele>
        <time>2017-07-27T06:33:27Z</time>
      </trkpt>
      <trkpt lat="44.9274820" lon="7.1780420">
        <ele>1519.8</ele>
        <time>2017-07-27T06:33:28Z</time>
      </trkpt>
      <trkpt lat="44.9275750" lon="7.1780880">
        <ele>1518.6</ele>
        <time>2017-07-27T06:33:29Z</time>
      </trkpt>
      <trkpt lat="44.9276670" lon="7.1781400">
        <ele>1517.4</ele>
        <time>2017-07-27T06:33:30Z</time>
      </trkpt>
      <trkpt lat="44.9277520" lon="7.1781920">
        <ele>1516.2</ele>
        <time>2017-07-27T06:33:31Z</time>
      </trkpt>
      <trkpt lat="44.9279260" lon="7.1783010">
        <ele>1514.0</ele>
        <time>2017-07-27T06:33:33Z</time>
      </trkpt>
      <trkpt lat="44.9280140" lon="7.1783420">
        <ele>1513.0</ele>
        <time>2017-07-27T06:33:34Z</time>
      </trkpt>
      <trkpt lat="44.9280940" lon="7.1783790">
        <ele>1511.6</ele>
        <time>2017-07-27T06:33:35Z</time>
      </trkpt>
      <trkpt lat="44.9281850" lon="7.1784150">
        <ele>1510.2</ele>
        <time>2017-07-27T06:33:36Z</time>
      </trkpt>
      <trkpt lat="44.9282770" lon="7.1784570">
        <ele>1509.2</ele>
        <time>2017-07-27T06:33:37Z</time>
      </trkpt>
      <trkpt lat="44.9283590" lon="7.1785040">
        <ele>1508.0</ele>
        <time>2017-07-27T06:33:38Z</time>
      </trkpt>
      <trkpt lat="44.9284510" lon="7.1785500">
        <ele>1507.0</ele>
        <time>2017-07-27T06:33:39Z</time>
      </trkpt>
      <trkpt lat="44.9285510" lon="7.1785990">
        <ele>1505.4</ele>
        <time>2017-07-27T06:33:40Z</time>
      </trkpt>
      <trkpt lat="44.9286480" lon="7.1786250">
        <ele>1504.2</ele>
        <time>2017-07-27T06:33:41Z</time>
      </trkpt>
      <trkpt lat="44.9287440" lon="7.1786410">
        <ele>1501.8</ele>
        <time>2017-07-27T06:33:42Z</time>
      </trkpt>
      <trkpt lat="44.9288380" lon="7.1786270">
        <ele>1500.6</ele>
        <time>2017-07-27T06:33:43Z</time>
      </trkpt>
      <trkpt lat="44.9289360" lon="7.1786070">
        <ele>1499.8</ele>
        <time>2017-07-27T06:33:44Z</time>
      </trkpt>
      <trkpt lat="44.9290400" lon="7.1785870">
        <ele>1498.6</ele>
        <time>2017-07-27T06:33:45Z</time>
      </trkpt>
      <trkpt lat="44.9291390" lon="7.1785720">
        <ele>1497.4</ele>
        <time>2017-07-27T06:33:46Z</time>
      </trkpt>
      <trkpt lat="44.9292290" lon="7.1785630">
        <ele>1496.0</ele>
        <time>2017-07-27T06:33:47Z</time>
      </trkpt>
      <trkpt lat="44.9293170" lon="7.1785600">
        <ele>1494.8</ele>
        <time>2017-07-27T06:33:48Z</time>
      </trkpt>
      <trkpt lat="44.9294020" lon="7.1785650">
        <ele>1493.8</ele>
        <time>2017-07-27T06:33:49Z</time>
      </trkpt>
      <trkpt lat="44.9294940" lon="7.1786110">
        <ele>1492.6</ele>
        <time>2017-07-27T06:33:50Z</time>
      </trkpt>
      <trkpt lat="44.9295820" lon="7.1786540">
        <ele>1491.2</ele>
        <time>2017-07-27T06:33:51Z</time>
      </trkpt>
      <trkpt lat="44.9296620" lon="7.1786650">
        <ele>1490.0</ele>
        <time>2017-07-27T06:33:52Z</time>
      </trkpt>
      <trkpt lat="44.9297230" lon="7.1786480">
        <ele>1489.0</ele>
        <time>2017-07-27T06:33:53Z</time>
      </trkpt>
      <trkpt lat="44.9297610" lon="7.1786130">
        <ele>1487.8</ele>
        <time>2017-07-27T06:33:54Z</time>
      </trkpt>
      <trkpt lat="44.9297790" lon="7.1785810">
        <ele>1486.6</ele>
        <time>2017-07-27T06:33:55Z</time>
      </trkpt>
      <trkpt lat="44.9297820" lon="7.1785490">
        <ele>1485.4</ele>
        <time>2017-07-27T06:33:56Z</time>
      </trkpt>
      <trkpt lat="44.9297610" lon="7.1784560">
        <ele>1483.6</ele>
        <time>2017-07-27T06:33:58Z</time>
      </trkpt>
      <trkpt lat="44.9296850" lon="7.1783060">
        <ele>1481.8</ele>
        <time>2017-07-27T06:34:00Z</time>
      </trkpt>
      <trkpt lat="44.9296370" lon="7.1782090">
        <ele>1480.6</ele>
        <time>2017-07-27T06:34:01Z</time>
      </trkpt>
      <trkpt lat="44.9295660" lon="7.1780880">
        <ele>1480.0</ele>
        <time>2017-07-27T06:34:02Z</time>
      </trkpt>
      <trkpt lat="44.9294870" lon="7.1779680">
        <ele>1478.8</ele>
        <time>2017-07-27T06:34:03Z</time>
      </trkpt>
      <trkpt lat="44.9294060" lon="7.1778430">
        <ele>1478.0</ele>
        <time>2017-07-27T06:34:04Z</time>
      </trkpt>
      <trkpt lat="44.9293220" lon="7.1777210">
        <ele>1477.2</ele>
        <time>2017-07-27T06:34:05Z</time>
      </trkpt>
      <trkpt lat="44.9292360" lon="7.1776100">
        <ele>1475.4</ele>
        <time>2017-07-27T06:34:06Z</time>
      </trkpt>
      <trkpt lat="44.9291440" lon="7.1775100">
        <ele>1474.2</ele>
        <time>2017-07-27T06:34:07Z</time>
      </trkpt>
      <trkpt lat="44.9290520" lon="7.1774170">
        <ele>1473.6</ele>
        <time>2017-07-27T06:34:08Z</time>
      </trkpt>
      <trkpt lat="44.9289550" lon="7.1773180">
        <ele>1472.8</ele>
        <time>2017-07-27T06:34:09Z</time>
      </trkpt>
      <trkpt lat="44.9287570" lon="7.1771130">
        <ele>1471.0</ele>
        <time>2017-07-27T06:34:11Z</time>
      </trkpt>
      <trkpt lat="44.9286610" lon="7.1770250">
        <ele>1469.8</ele>
        <time>2017-07-27T06:34:12Z</time>
      </trkpt>
      <trkpt lat="44.9285700" lon="7.1769540">
        <ele>1468.8</ele>
        <time>2017-07-27T06:34:13Z</time>
      </trkpt>
      <trkpt lat="44.9284940" lon="7.1768940">
        <ele>1467.6</ele>
        <time>2017-07-27T06:34:14Z</time>
      </trkpt>
      <trkpt lat="44.9284290" lon="7.1768250">
        <ele>1466.4</ele>
        <time>2017-07-27T06:34:15Z</time>
      </trkpt>
      <trkpt lat="44.9283850" lon="7.1767600">
        <ele>1465.4</ele>
        <time>2017-07-27T06:34:16Z</time>
      </trkpt>
      <trkpt lat="44.9283930" lon="7.1767030">
        <ele>1463.4</ele>
        <time>2017-07-27T06:34:18Z</time>
      </trkpt>
      <trkpt lat="44.9285010" lon="7.1767000">
        <ele>1461.8</ele>
        <time>2017-07-27T06:34:20Z</time>
      </trkpt>
      <trkpt lat="44.9285770" lon="7.1767080">
        <ele>1461.0</ele>
        <time>2017-07-27T06:34:21Z</time>
      </trkpt>
      <trkpt lat="44.9286600" lon="7.1767280">
        <ele>1460.2</ele>
        <time>2017-07-27T06:34:22Z</time>
      </trkpt>
      <trkpt lat="44.9287380" lon="7.1767470">
        <ele>1459.6</ele>
        <time>2017-07-27T06:34:23Z</time>
      </trkpt>
      <trkpt lat="44.9288180" lon="7.1767660">
        <ele>1458.8</ele>
        <time>2017-07-27T06:34:24Z</time>
      </trkpt>
      <trkpt lat="44.9289180" lon="7.1767800">
        <ele>1457.8</ele>
        <time>2017-07-27T06:34:25Z</time>
      </trkpt>
      <trkpt lat="44.9290180" lon="7.1767990">
        <ele>1457.0</ele>
        <time>2017-07-27T06:34:26Z</time>
      </trkpt>
      <trkpt lat="44.9292060" lon="7.1768540">
        <ele>1455.8</ele>
        <time>2017-07-27T06:34:28Z</time>
      </trkpt>
      <trkpt lat="44.9293780" lon="7.1769320">
        <ele>1453.2</ele>
        <time>2017-07-27T06:34:30Z</time>
      </trkpt>
      <trkpt lat="44.9295440" lon="7.1770150">
        <ele>1451.6</ele>
        <time>2017-07-27T06:34:32Z</time>
      </trkpt>
      <trkpt lat="44.9296950" lon="7.1770630">
        <ele>1450.2</ele>
        <time>2017-07-27T06:34:34Z</time>
      </trkpt>
      <trkpt lat="44.9298500" lon="7.1771060">
        <ele>1448.4</ele>
        <time>2017-07-27T06:34:36Z</time>
      </trkpt>
      <trkpt lat="44.9299290" lon="7.1771200">
        <ele>1447.4</ele>
        <time>2017-07-27T06:34:37Z</time>
      </trkpt>
      <trkpt lat="44.9300260" lon="7.1771310">
        <ele>1446.2</ele>
        <time>2017-07-27T06:34:38Z</time>
      </trkpt>
      <trkpt lat="44.9301260" lon="7.1771340">
        <ele>1445.6</ele>
        <time>2017-07-27T06:34:39Z</time>
      </trkpt>
      <trkpt lat="44.9302280" lon="7.1771310">
        <ele>1444.6</ele>
        <time>2017-07-27T06:34:40Z</time>
      </trkpt>
      <trkpt lat="44.9304360" lon="7.1771040">
        <ele>1443.0</ele>
        <time>2017-07-27T06:34:42Z</time>
      </trkpt>
      <trkpt lat="44.9306400" lon="7.1770860">
        <ele>1440.8</ele>
        <time>2017-07-27T06:34:44Z</time>
      </trkpt>
      <trkpt lat="44.9308090" lon="7.1771140">
        <ele>1439.2</ele>
        <time>2017-07-27T06:34:46Z</time>
      </trkpt>
      <trkpt lat="44.9308760" lon="7.1771430">
        <ele>1438.2</ele>
        <time>2017-07-27T06:34:47Z</time>
      </trkpt>
      <trkpt lat="44.9309450" lon="7.1771810">
        <ele>1437.4</ele>
        <time>2017-07-27T06:34:48Z</time>
      </trkpt>
      <trkpt lat="44.9310700" lon="7.1772440">
        <ele>1435.6</ele>
        <time>2017-07-27T06:34:50Z</time>
      </trkpt>
      <trkpt lat="44.9311320" lon="7.1772660">
        <ele>1434.6</ele>
        <time>2017-07-27T06:34:51Z</time>
      </trkpt>
      <trkpt lat="44.9311930" lon="7.1772810">
        <ele>1433.6</ele>
        <time>2017-07-27T06:34:52Z</time>
      </trkpt>
      <trkpt lat="44.9312470" lon="7.1772920">
        <ele>1432.4</ele>
        <time>2017-07-27T06:34:53Z</time>
      </trkpt>
      <trkpt lat="44.9312920" lon="7.1772810">
        <ele>1431.0</ele>
        <time>2017-07-27T06:34:54Z</time>
      </trkpt>
      <trkpt lat="44.9313130" lon="7.1772280">
        <ele>1427.8</ele>
        <time>2017-07-27T06:34:58Z</time>
      </trkpt>
      <trkpt lat="44.9312980" lon="7.1772030">
        <ele>1426.8</ele>
        <time>2017-07-27T06:34:59Z</time>
      </trkpt>
      <trkpt lat="44.9312650" lon="7.1771090">
        <ele>1426.2</ele>
        <time>2017-07-27T06:35:00Z</time>
      </trkpt>
      <trkpt lat="44.9312160" lon="7.1769860">
        <ele>1425.2</ele>
        <time>2017-07-27T06:35:01Z</time>
      </trkpt>
      <trkpt lat="44.9311610" lon="7.1768690">
        <ele>1424.2</ele>
        <time>2017-07-27T06:35:02Z</time>
      </trkpt>
      <trkpt lat="44.9310290" lon="7.1766830">
        <ele>1422.6</ele>
        <time>2017-07-27T06:35:04Z</time>
      </trkpt>
      <trkpt lat="44.9308560" lon="7.1765310">
        <ele>1421.6</ele>
        <time>2017-07-27T06:35:06Z</time>
      </trkpt>
      <trkpt lat="44.9307680" lon="7.1764520">
        <ele>1420.4</ele>
        <time>2017-07-27T06:35:07Z</time>
      </trkpt>
      <trkpt lat="44.9306830" lon="7.1763640">
        <ele>1419.8</ele>
        <time>2017-07-27T06:35:08Z</time>
      </trkpt>
      <trkpt lat="44.9306000" lon="7.1762690">
        <ele>1418.6</ele>
        <time>2017-07-27T06:35:09Z</time>
      </trkpt>
      <trkpt lat="44.9304330" lon="7.1760760">
        <ele>1417.0</ele>
        <time>2017-07-27T06:35:11Z</time>
      </trkpt>
      <trkpt lat="44.9303560" lon="7.1759660">
        <ele>1416.8</ele>
        <time>2017-07-27T06:35:12Z</time>
      </trkpt>
      <trkpt lat="44.9302810" lon="7.1758480">
        <ele>1416.0</ele>
        <time>2017-07-27T06:35:13Z</time>
      </trkpt>
      <trkpt lat="44.9301340" lon="7.1755960">
        <ele>1413.6</ele>
        <time>2017-07-27T06:35:15Z</time>
      </trkpt>
      <trkpt lat="44.9300090" lon="7.1753330">
        <ele>1412.2</ele>
        <time>2017-07-27T06:35:17Z</time>
      </trkpt>
      <trkpt lat="44.9299500" lon="7.1751920">
        <ele>1410.6</ele>
        <time>2017-07-27T06:35:18Z</time>
      </trkpt>
      <trkpt lat="44.9298950" lon="7.1750540">
        <ele>1409.6</ele>
        <time>2017-07-27T06:35:19Z</time>
      </trkpt>
      <trkpt lat="44.9298330" lon="7.1749290">
        <ele>1408.4</ele>
        <time>2017-07-27T06:35:20Z</time>
      </trkpt>
      <trkpt lat="44.9297590" lon="7.1748150">
        <ele>1407.4</ele>
        <time>2017-07-27T06:35:21Z</time>
      </trkpt>
      <trkpt lat="44.9296050" lon="7.1746080">
        <ele>1405.6</ele>
        <time>2017-07-27T06:35:23Z</time>
      </trkpt>
      <trkpt lat="44.9294680" lon="7.1744030">
        <ele>1404.2</ele>
        <time>2017-07-27T06:35:25Z</time>
      </trkpt>
      <trkpt lat="44.9293950" lon="7.1742950">
        <ele>1403.0</ele>
        <time>2017-07-27T06:35:26Z</time>
      </trkpt>
      <trkpt lat="44.9292600" lon="7.1741010">
        <ele>1401.4</ele>
        <time>2017-07-27T06:35:28Z</time>
      </trkpt>
      <trkpt lat="44.9290910" lon="7.1739200">
        <ele>1399.4</ele>
        <time>2017-07-27T06:35:30Z</time>
      </trkpt>
      <trkpt lat="44.9290180" lon="7.1738110">
        <ele>1398.2</ele>
        <time>2017-07-27T06:35:31Z</time>
      </trkpt>
      <trkpt lat="44.9288900" lon="7.1735780">
        <ele>1396.4</ele>
        <time>2017-07-27T06:35:33Z</time>
      </trkpt>
      <trkpt lat="44.9288340" lon="7.1734720">
        <ele>1395.0</ele>
        <time>2017-07-27T06:35:34Z</time>
      </trkpt>
      <trkpt lat="44.9287760" lon="7.1733810">
        <ele>1393.8</ele>
        <time>2017-07-27T06:35:35Z</time>
      </trkpt>
      <trkpt lat="44.9286930" lon="7.1733130">
        <ele>1392.6</ele>
        <time>2017-07-27T06:35:36Z</time>
      </trkpt>
      <trkpt lat="44.9286080" lon="7.1732440">
        <ele>1392.2</ele>
        <time>2017-07-27T06:35:37Z</time>
      </trkpt>
      <trkpt lat="44.9285140" lon="7.1731850">
        <ele>1391.4</ele>
        <time>2017-07-27T06:35:38Z</time>
      </trkpt>
      <trkpt lat="44.9283360" lon="7.1730580">
        <ele>1389.4</ele>
        <time>2017-07-27T06:35:40Z</time>
      </trkpt>
      <trkpt lat="44.9282560" lon="7.1729850">
        <ele>1388.4</ele>
        <time>2017-07-27T06:35:41Z</time>
      </trkpt>
      <trkpt lat="44.9281830" lon="7.1729040">
        <ele>1386.4</ele>
        <time>2017-07-27T06:35:42Z</time>
      </trkpt>
      <trkpt lat="44.9280780" lon="7.1727140">
        <ele>1384.6</ele>
        <time>2017-07-27T06:35:44Z</time>
      </trkpt>
      <trkpt lat="44.9280310" lon="7.1725810">
        <ele>1383.6</ele>
        <time>2017-07-27T06:35:45Z</time>
      </trkpt>
      <trkpt lat="44.9279940" lon="7.1724600">
        <ele>1382.6</ele>
        <time>2017-07-27T06:35:46Z</time>
      </trkpt>
      <trkpt lat="44.9279490" lon="7.1723390">
        <ele>1381.4</ele>
        <time>2017-07-27T06:35:47Z</time>
      </trkpt>
      <trkpt lat="44.9278900" lon="7.1722140">
        <ele>1380.4</ele>
        <time>2017-07-27T06:35:48Z</time>
      </trkpt>
      <trkpt lat="44.9278240" lon="7.1720870">
        <ele>1379.4</ele>
        <time>2017-07-27T06:35:49Z</time>
      </trkpt>
      <trkpt lat="44.9277550" lon="7.1719560">
        <ele>1378.6</ele>
        <time>2017-07-27T06:35:50Z</time>
      </trkpt>
      <trkpt lat="44.9276200" lon="7.1716920">
        <ele>1376.8</ele>
        <time>2017-07-27T06:35:52Z</time>
      </trkpt>
      <trkpt lat="44.9275660" lon="7.1715540">
        <ele>1375.8</ele>
        <time>2017-07-27T06:35:53Z</time>
      </trkpt>
      <trkpt lat="44.9275290" lon="7.1714100">
        <ele>1375.0</ele>
        <time>2017-07-27T06:35:54Z</time>
      </trkpt>
      <trkpt lat="44.9275000" lon="7.1712710">
        <ele>1373.8</ele>
        <time>2017-07-27T06:35:55Z</time>
      </trkpt>
      <trkpt lat="44.9274640" lon="7.1710130">
        <ele>1371.8</ele>
        <time>2017-07-27T06:35:57Z</time>
      </trkpt>
      <trkpt lat="44.9274300" lon="7.1708860">
        <ele>1370.6</ele>
        <time>2017-07-27T06:35:58Z</time>
      </trkpt>
      <trkpt lat="44.9273960" lon="7.1707680">
        <ele>1369.2</ele>
        <time>2017-07-27T06:35:59Z</time>
      </trkpt>
      <trkpt lat="44.9272960" lon="7.1705320">
        <ele>1367.4</ele>
        <time>2017-07-27T06:36:01Z</time>
      </trkpt>
      <trkpt lat="44.9272290" lon="7.1704210">
        <ele>1366.4</ele>
        <time>2017-07-27T06:36:02Z</time>
      </trkpt>
      <trkpt lat="44.9271630" lon="7.1703220">
        <ele>1365.2</ele>
        <time>2017-07-27T06:36:03Z</time>
      </trkpt>
      <trkpt lat="44.9270960" lon="7.1702210">
        <ele>1364.0</ele>
        <time>2017-07-27T06:36:04Z</time>
      </trkpt>
      <trkpt lat="44.9269620" lon="7.1700100">
        <ele>1360.6</ele>
        <time>2017-07-27T06:36:06Z</time>
      </trkpt>
      <trkpt lat="44.9268830" lon="7.1698900">
        <ele>1359.4</ele>
        <time>2017-07-27T06:36:07Z</time>
      </trkpt>
      <trkpt lat="44.9267300" lon="7.1696270">
        <ele>1357.6</ele>
        <time>2017-07-27T06:36:09Z</time>
      </trkpt>
      <trkpt lat="44.9266650" lon="7.1694850">
        <ele>1356.2</ele>
        <time>2017-07-27T06:36:10Z</time>
      </trkpt>
      <trkpt lat="44.9265950" lon="7.1693390">
        <ele>1355.2</ele>
        <time>2017-07-27T06:36:11Z</time>
      </trkpt>
      <trkpt lat="44.9265370" lon="7.1691800">
        <ele>1353.8</ele>
        <time>2017-07-27T06:36:12Z</time>
      </trkpt>
      <trkpt lat="44.9264930" lon="7.1690140">
        <ele>1352.6</ele>
        <time>2017-07-27T06:36:13Z</time>
      </trkpt>
      <trkpt lat="44.9264570" lon="7.1688440">
        <ele>1351.2</ele>
        <time>2017-07-27T06:36:14Z</time>
      </trkpt>
      <trkpt lat="44.9263950" lon="7.1685160">
        <ele>1349.2</ele>
        <time>2017-07-27T06:36:16Z</time>
      </trkpt>
      <trkpt lat="44.9263210" lon="7.1681990">
        <ele>1347.4</ele>
        <time>2017-07-27T06:36:18Z</time>
      </trkpt>
      <trkpt lat="44.9262820" lon="7.1680350">
        <ele>1345.8</ele>
        <time>2017-07-27T06:36:19Z</time>
      </trkpt>
      <trkpt lat="44.9262330" lon="7.1678730">
        <ele>1344.6</ele>
        <time>2017-07-27T06:36:20Z</time>
      </trkpt>
      <trkpt lat="44.9261830" lon="7.1677200">
        <ele>1343.4</ele>
        <time>2017-07-27T06:36:21Z</time>
      </trkpt>
      <trkpt lat="44.9261350" lon="7.1675740">
        <ele>1342.4</ele>
        <time>2017-07-27T06:36:22Z</time>
      </trkpt>
      <trkpt lat="44.9260920" lon="7.1674370">
        <ele>1341.0</ele>
        <time>2017-07-27T06:36:23Z</time>
      </trkpt>
      <trkpt lat="44.9260560" lon="7.1673200">
        <ele>1339.6</ele>
        <time>2017-07-27T06:36:24Z</time>
      </trkpt>
      <trkpt lat="44.9260340" lon="7.1670820">
        <ele>1337.4</ele>
        <time>2017-07-27T06:36:26Z</time>
      </trkpt>
      <trkpt lat="44.9260450" lon="7.1669500">
        <ele>1336.4</ele>
        <time>2017-07-27T06:36:27Z</time>
      </trkpt>
      <trkpt lat="44.9260650" lon="7.1668130">
        <ele>1335.0</ele>
        <time>2017-07-27T06:36:28Z</time>
      </trkpt>
      <trkpt lat="44.9260930" lon="7.1666640">
        <ele>1334.0</ele>
        <time>2017-07-27T06:36:29Z</time>
      </trkpt>
      <trkpt lat="44.9261200" lon="7.1665140">
        <ele>1331.8</ele>
        <time>2017-07-27T06:36:30Z</time>
      </trkpt>
      <trkpt lat="44.9261670" lon="7.1662180">
        <ele>1330.0</ele>
        <time>2017-07-27T06:36:32Z</time>
      </trkpt>
      <trkpt lat="44.9262060" lon="7.1659190">
        <ele>1327.8</ele>
        <time>2017-07-27T06:36:34Z</time>
      </trkpt>
      <trkpt lat="44.9262200" lon="7.1657570">
        <ele>1326.8</ele>
        <time>2017-07-27T06:36:35Z</time>
      </trkpt>
      <trkpt lat="44.9262380" lon="7.1655930">
        <ele>1325.6</ele>
        <time>2017-07-27T06:36:36Z</time>
      </trkpt>
      <trkpt lat="44.9262550" lon="7.1654340">
        <ele>1324.4</ele>
        <time>2017-07-27T06:36:37Z</time>
      </trkpt>
      <trkpt lat="44.9262820" lon="7.1651280">
        <ele>1322.4</ele>
        <time>2017-07-27T06:36:39Z</time>
      </trkpt>
      <trkpt lat="44.9263010" lon="7.1649790">
        <ele>1321.2</ele>
        <time>2017-07-27T06:36:40Z</time>
      </trkpt>
      <trkpt lat="44.9263300" lon="7.1648300">
        <ele>1319.8</ele>
        <time>2017-07-27T06:36:41Z</time>
      </trkpt>
      <trkpt lat="44.9263910" lon="7.1645320">
        <ele>1318.0</ele>
        <time>2017-07-27T06:36:43Z</time>
      </trkpt>
      <trkpt lat="44.9264260" lon="7.1643840">
        <ele>1316.8</ele>
        <time>2017-07-27T06:36:44Z</time>
      </trkpt>
      <trkpt lat="44.9264550" lon="7.1642300">
        <ele>1315.6</ele>
        <time>2017-07-27T06:36:45Z</time>
      </trkpt>
      <trkpt lat="44.9264870" lon="7.1640820">
        <ele>1314.4</ele>
        <time>2017-07-27T06:36:46Z</time>
      </trkpt>
      <trkpt lat="44.9265260" lon="7.1639430">
        <ele>1313.0</ele>
        <time>2017-07-27T06:36:47Z</time>
      </trkpt>
      <trkpt lat="44.9265620" lon="7.1637900">
        <ele>1312.0</ele>
        <time>2017-07-27T06:36:48Z</time>
      </trkpt>
      <trkpt lat="44.9265990" lon="7.1636410">
        <ele>1310.6</ele>
        <time>2017-07-27T06:36:49Z</time>
      </trkpt>
      <trkpt lat="44.9266180" lon="7.1634790">
        <ele>1309.2</ele>
        <time>2017-07-27T06:36:50Z</time>
      </trkpt>
      <trkpt lat="44.9266610" lon="7.1633390">
        <ele>1307.8</ele>
        <time>2017-07-27T06:36:51Z</time>
      </trkpt>
      <trkpt lat="44.9266810" lon="7.1631810">
        <ele>1306.8</ele>
        <time>2017-07-27T06:36:52Z</time>
      </trkpt>
      <trkpt lat="44.9266840" lon="7.1630220">
        <ele>1305.6</ele>
        <time>2017-07-27T06:36:53Z</time>
      </trkpt>
      <trkpt lat="44.9266870" lon="7.1628830">
        <ele>1303.4</ele>
        <time>2017-07-27T06:36:54Z</time>
      </trkpt>
      <trkpt lat="44.9266930" lon="7.1627550">
        <ele>1302.0</ele>
        <time>2017-07-27T06:36:55Z</time>
      </trkpt>
      <trkpt lat="44.9266930" lon="7.1626410">
        <ele>1300.6</ele>
        <time>2017-07-27T06:36:56Z</time>
      </trkpt>
      <trkpt lat="44.9266890" lon="7.1625350">
        <ele>1299.4</ele>
        <time>2017-07-27T06:36:57Z</time>
      </trkpt>
      <trkpt lat="44.9266830" lon="7.1624290">
        <ele>1298.2</ele>
        <time>2017-07-27T06:36:58Z</time>
      </trkpt>
      <trkpt lat="44.9266710" lon="7.1623200">
        <ele>1297.0</ele>
        <time>2017-07-27T06:36:59Z</time>
      </trkpt>
      <trkpt lat="44.9266510" lon="7.1622070">
        <ele>1295.8</ele>
        <time>2017-07-27T06:37:00Z</time>
      </trkpt>
      <trkpt lat="44.9266170" lon="7.1619840">
        <ele>1293.8</ele>
        <time>2017-07-27T06:37:02Z</time>
      </trkpt>
      <trkpt lat="44.9265910" lon="7.1618780">
        <ele>1292.8</ele>
        <time>2017-07-27T06:37:03Z</time>
      </trkpt>
      <trkpt lat="44.9265740" lon="7.1617630">
        <ele>1291.6</ele>
        <time>2017-07-27T06:37:04Z</time>
      </trkpt>
      <trkpt lat="44.9265380" lon="7.1616310">
        <ele>1290.6</ele>
        <time>2017-07-27T06:37:05Z</time>
      </trkpt>
      <trkpt lat="44.9265050" lon="7.1614980">
        <ele>1289.2</ele>
        <time>2017-07-27T06:37:06Z</time>
      </trkpt>
      <trkpt lat="44.9264550" lon="7.1613450">
        <ele>1287.8</ele>
        <time>2017-07-27T06:37:07Z</time>
      </trkpt>
      <trkpt lat="44.9264220" lon="7.1611810">
        <ele>1286.6</ele>
        <time>2017-07-27T06:37:08Z</time>
      </trkpt>
      <trkpt lat="44.9263960" lon="7.1610360">
        <ele>1285.4</ele>
        <time>2017-07-27T06:37:09Z</time>
      </trkpt>
      <trkpt lat="44.9263810" lon="7.1609190">
        <ele>1284.4</ele>
        <time>2017-07-27T06:37:10Z</time>
      </trkpt>
      <trkpt lat="44.9263770" lon="7.1608210">
        <ele>1283.0</ele>
        <time>2017-07-27T06:37:11Z</time>
      </trkpt>
      <trkpt lat="44.9263620" lon="7.1607300">
        <ele>1281.8</ele>
        <time>2017-07-27T06:37:12Z</time>
      </trkpt>
      <trkpt lat="44.9263580" lon="7.1606880">
        <ele>1280.6</ele>
        <time>2017-07-27T06:37:13Z</time>
      </trkpt>
      <trkpt lat="44.9263490" lon="7.1606580">
        <ele>1279.6</ele>
        <time>2017-07-27T06:37:14Z</time>
      </trkpt>
      <trkpt lat="44.9263430" lon="7.1606490">
        <ele>1278.4</ele>
        <time>2017-07-27T06:37:15Z</time>
      </trkpt>
      <trkpt lat="44.9263500" lon="7.1606630">
        <ele>1277.6</ele>
        <time>2017-07-27T06:37:16Z</time>
      </trkpt>
      <trkpt lat="44.9263670" lon="7.1607020">
        <ele>1276.8</ele>
        <time>2017-07-27T06:37:17Z</time>
      </trkpt>
      <trkpt lat="44.9263880" lon="7.1607610">
        <ele>1274.8</ele>
        <time>2017-07-27T06:37:18Z</time>
      </trkpt>
      <trkpt lat="44.9265040" lon="7.1609400">
        <ele>1273.2</ele>
        <time>2017-07-27T06:37:20Z</time>
      </trkpt>
      <trkpt lat="44.9265580" lon="7.1610120">
        <ele>1272.2</ele>
        <time>2017-07-27T06:37:21Z</time>
      </trkpt>
      <trkpt lat="44.9267540" lon="7.1612230">
        <ele>1270.8</ele>
        <time>2017-07-27T06:37:23Z</time>
      </trkpt>
      <trkpt lat="44.9268630" lon="7.1613100">
        <ele>1269.8</ele>
        <time>2017-07-27T06:37:24Z</time>
      </trkpt>
      <trkpt lat="44.9269640" lon="7.1613760">
        <ele>1268.6</ele>
        <time>2017-07-27T06:37:25Z</time>
      </trkpt>
      <trkpt lat="44.9270660" lon="7.1614380">
        <ele>1267.6</ele>
        <time>2017-07-27T06:37:26Z</time>
      </trkpt>
      <trkpt lat="44.9273260" lon="7.1616370">
        <ele>1266.0</ele>
        <time>2017-07-27T06:37:28Z</time>
      </trkpt>
      <trkpt lat="44.9274610" lon="7.1617300">
        <ele>1264.8</ele>
        <time>2017-07-27T06:37:29Z</time>
      </trkpt>
      <trkpt lat="44.9275770" lon="7.1618150">
        <ele>1263.6</ele>
        <time>2017-07-27T06:37:30Z</time>
      </trkpt>
      <trkpt lat="44.9276850" lon="7.1618960">
        <ele>1262.4</ele>
        <time>2017-07-27T06:37:31Z</time>
      </trkpt>
      <trkpt lat="44.9277840" lon="7.1619810">
        <ele>1261.2</ele>
        <time>2017-07-27T06:37:32Z</time>
      </trkpt>
      <trkpt lat="44.9278760" lon="7.1620710">
        <ele>1260.2</ele>
        <time>2017-07-27T06:37:33Z</time>
      </trkpt>
      <trkpt lat="44.9280380" lon="7.1622550">
        <ele>1258.4</ele>
        <time>2017-07-27T06:37:35Z</time>
      </trkpt>
      <trkpt lat="44.9281030" lon="7.1623450">
        <ele>1257.4</ele>
        <time>2017-07-27T06:37:36Z</time>
      </trkpt>
      <trkpt lat="44.9281480" lon="7.1624290">
        <ele>1256.2</ele>
        <time>2017-07-27T06:37:37Z</time>
      </trkpt>
      <trkpt lat="44.9281900" lon="7.1625070">
        <ele>1254.8</ele>
        <time>2017-07-27T06:37:38Z</time>
      </trkpt>
      <trkpt lat="44.9282360" lon="7.1625790">
        <ele>1253.8</ele>
        <time>2017-07-27T06:37:39Z</time>
      </trkpt>
      <trkpt lat="44.9283040" lon="7.1627370">
        <ele>1251.8</ele>
        <time>2017-07-27T06:37:41Z</time>
      </trkpt>
      <trkpt lat="44.9283530" lon="7.1627900">
        <ele>1249.8</ele>
        <time>2017-07-27T06:37:42Z</time>
      </trkpt>
      <trkpt lat="44.9284450" lon="7.1628540">
        <ele>1247.8</ele>
        <time>2017-07-27T06:37:44Z</time>
      </trkpt>
      <trkpt lat="44.9285100" lon="7.1628830">
        <ele>1247.0</ele>
        <time>2017-07-27T06:37:45Z</time>
      </trkpt>
      <trkpt lat="44.9285750" lon="7.1628740">
        <ele>1246.4</ele>
        <time>2017-07-27T06:37:46Z</time>
      </trkpt>
      <trkpt lat="44.9286730" lon="7.1627050">
        <ele>1244.8</ele>
        <time>2017-07-27T06:37:48Z</time>
      </trkpt>
      <trkpt lat="44.9287600" lon="7.1625020">
        <ele>1243.2</ele>
        <time>2017-07-27T06:37:50Z</time>
      </trkpt>
      <trkpt lat="44.9288030" lon="7.1623980">
        <ele>1242.0</ele>
        <time>2017-07-27T06:37:51Z</time>
      </trkpt>
      <trkpt lat="44.9288580" lon="7.1623170">
        <ele>1241.2</ele>
        <time>2017-07-27T06:37:52Z</time>
      </trkpt>
      <trkpt lat="44.9288680" lon="7.1621890">
        <ele>1240.6</ele>
        <time>2017-07-27T06:37:53Z</time>
      </trkpt>
      <trkpt lat="44.9288720" lon="7.1619470">
        <ele>1239.2</ele>
        <time>2017-07-27T06:37:55Z</time>
      </trkpt>
      <trkpt lat="44.9288750" lon="7.1616710">
        <ele>1237.6</ele>
        <time>2017-07-27T06:37:57Z</time>
      </trkpt>
      <trkpt lat="44.9288560" lon="7.1614070">
        <ele>1236.0</ele>
        <time>2017-07-27T06:37:59Z</time>
      </trkpt>
      <trkpt lat="44.9288910" lon="7.1612650">
        <ele>1234.2</ele>
        <time>2017-07-27T06:38:01Z</time>
      </trkpt>
      <trkpt lat="44.9288550" lon="7.1611910">
        <ele>1233.2</ele>
        <time>2017-07-27T06:38:02Z</time>
      </trkpt>
      <trkpt lat="44.9288070" lon="7.1611380">
        <ele>1232.0</ele>
        <time>2017-07-27T06:38:03Z</time>
      </trkpt>
      <trkpt lat="44.9287590" lon="7.1610890">
        <ele>1231.0</ele>
        <time>2017-07-27T06:38:04Z</time>
      </trkpt>
      <trkpt lat="44.9287290" lon="7.1610460">
        <ele>1229.8</ele>
        <time>2017-07-27T06:38:05Z</time>
      </trkpt>
      <trkpt lat="44.9287230" lon="7.1610020">
        <ele>1228.2</ele>
        <time>2017-07-27T06:38:06Z</time>
      </trkpt>
      <trkpt lat="44.9287350" lon="7.1609680">
        <ele>1227.2</ele>
        <time>2017-07-27T06:38:07Z</time>
      </trkpt>
      <trkpt lat="44.9287660" lon="7.1609580">
        <ele>1226.6</ele>
        <time>2017-07-27T06:38:08Z</time>
      </trkpt>
      <trkpt lat="44.9288090" lon="7.1609900">
        <ele>1225.8</ele>
        <time>2017-07-27T06:38:09Z</time>
      </trkpt>
      <trkpt lat="44.9288620" lon="7.1610280">
        <ele>1225.0</ele>
        <time>2017-07-27T06:38:10Z</time>
      </trkpt>
      <trkpt lat="44.9289720" lon="7.1611220">
        <ele>1223.6</ele>
        <time>2017-07-27T06:38:12Z</time>
      </trkpt>
      <trkpt lat="44.9290300" lon="7.1611660">
        <ele>1223.2</ele>
        <time>2017-07-27T06:38:13Z</time>
      </trkpt>
      <trkpt lat="44.9291440" lon="7.1612800">
        <ele>1221.8</ele>
        <time>2017-07-27T06:38:15Z</time>
      </trkpt>
      <trkpt lat="44.9292560" lon="7.1614460">
        <ele>1220.2</ele>
        <time>2017-07-27T06:38:17Z</time>
      </trkpt>
      <trkpt lat="44.9293480" lon="7.1616520">
        <ele>1219.2</ele>
        <time>2017-07-27T06:38:19Z</time>
      </trkpt>
      <trkpt lat="44.9294410" lon="7.1618670">
        <ele>1218.0</ele>
        <time>2017-07-27T06:38:21Z</time>
      </trkpt>
      <trkpt lat="44.9294870" lon="7.1619750">
        <ele>1217.4</ele>
        <time>2017-07-27T06:38:22Z</time>
      </trkpt>
      <trkpt lat="44.9295350" lon="7.1620830">
        <ele>1216.8</ele>
        <time>2017-07-27T06:38:23Z</time>
      </trkpt>
      <trkpt lat="44.9296810" lon="7.1624460">
        <ele>1215.4</ele>
        <time>2017-07-27T06:38:26Z</time>
      </trkpt>
      <trkpt lat="44.9297680" lon="7.1626990">
        <ele>1213.8</ele>
        <time>2017-07-27T06:38:28Z</time>
      </trkpt>
      <trkpt lat="44.9298160" lon="7.1629510">
        <ele>1211.8</ele>
        <time>2017-07-27T06:38:30Z</time>
      </trkpt>
      <trkpt lat="44.9298410" lon="7.1631000">
        <ele>1210.2</ele>
        <time>2017-07-27T06:38:32Z</time>
      </trkpt>
      <trkpt lat="44.9298670" lon="7.1631180">
        <ele>1208.8</ele>
        <time>2017-07-27T06:38:34Z</time>
      </trkpt>
      <trkpt lat="44.9298770" lon="7.1630960">
        <ele>1208.2</ele>
        <time>2017-07-27T06:38:35Z</time>
      </trkpt>
      <trkpt lat="44.9298830" lon="7.1630550">
        <ele>1207.6</ele>
        <time>2017-07-27T06:38:36Z</time>
      </trkpt>
      <trkpt lat="44.9298960" lon="7.1629510">
        <ele>1207.0</ele>
        <time>2017-07-27T06:38:37Z</time>
      </trkpt>
      <trkpt lat="44.9298990" lon="7.1628330">
        <ele>1206.4</ele>
        <time>2017-07-27T06:38:38Z</time>
      </trkpt>
      <trkpt lat="44.9299020" lon="7.1627010">
        <ele>1206.0</ele>
        <time>2017-07-27T06:38:39Z</time>
      </trkpt>
      <trkpt lat="44.9299080" lon="7.1625720">
        <ele>1205.2</ele>
        <time>2017-07-27T06:38:40Z</time>
      </trkpt>
      <trkpt lat="44.9299440" lon="7.1622960">
        <ele>1203.4</ele>
        <time>2017-07-27T06:38:42Z</time>
      </trkpt>
      <trkpt lat="44.9300150" lon="7.1618690">
        <ele>1201.8</ele>
        <time>2017-07-27T06:38:45Z</time>
      </trkpt>
      <trkpt lat="44.9300270" lon="7.1615980">
        <ele>1200.2</ele>
        <time>2017-07-27T06:38:47Z</time>
      </trkpt>
      <trkpt lat="44.9300220" lon="7.1613050">
        <ele>1199.0</ele>
        <time>2017-07-27T06:38:49Z</time>
      </trkpt>
      <trkpt lat="44.9299770" lon="7.1609860">
        <ele>1197.0</ele>
        <time>2017-07-27T06:38:51Z</time>
      </trkpt>
      <trkpt lat="44.9299550" lon="7.1608480">
        <ele>1196.0</ele>
        <time>2017-07-27T06:38:52Z</time>
      </trkpt>
      <trkpt lat="44.9299380" lon="7.1606200">
        <ele>1194.0</ele>
        <time>2017-07-27T06:38:54Z</time>
      </trkpt>
      <trkpt lat="44.9299460" lon="7.1605280">
        <ele>1193.0</ele>
        <time>2017-07-27T06:38:55Z</time>
      </trkpt>
      <trkpt lat="44.9299540" lon="7.1604600">
        <ele>1192.2</ele>
        <time>2017-07-27T06:38:56Z</time>
      </trkpt>
      <trkpt lat="44.9299890" lon="7.1604170">
        <ele>1191.2</ele>
        <time>2017-07-27T06:38:57Z</time>
      </trkpt>
      <trkpt lat="44.9301290" lon="7.1603110">
        <ele>1189.2</ele>
        <time>2017-07-27T06:38:59Z</time>
      </trkpt>
      <trkpt lat="44.9301970" lon="7.1602140">
        <ele>1188.4</ele>
        <time>2017-07-27T06:39:00Z</time>
      </trkpt>
      <trkpt lat="44.9302500" lon="7.1601040">
        <ele>1187.8</ele>
        <time>2017-07-27T06:39:01Z</time>
      </trkpt>
      <trkpt lat="44.9303000" lon="7.1599920">
        <ele>1187.2</ele>
        <time>2017-07-27T06:39:02Z</time>
      </trkpt>
      <trkpt lat="44.9303490" lon="7.1598870">
        <ele>1186.2</ele>
        <time>2017-07-27T06:39:03Z</time>
      </trkpt>
      <trkpt lat="44.9303910" lon="7.1597780">
        <ele>1185.4</ele>
        <time>2017-07-27T06:39:04Z</time>
      </trkpt>
      <trkpt lat="44.9304120" lon="7.1596590">
        <ele>1184.6</ele>
        <time>2017-07-27T06:39:05Z</time>
      </trkpt>
      <trkpt lat="44.9303370" lon="7.1594180">
        <ele>1183.4</ele>
        <time>2017-07-27T06:39:07Z</time>
      </trkpt>
      <trkpt lat="44.9302370" lon="7.1592240">
        <ele>1181.8</ele>
        <time>2017-07-27T06:39:09Z</time>
      </trkpt>
      <trkpt lat="44.9301960" lon="7.1591420">
        <ele>1181.0</ele>
        <time>2017-07-27T06:39:10Z</time>
      </trkpt>
      <trkpt lat="44.9301910" lon="7.1590730">
        <ele>1180.4</ele>
        <time>2017-07-27T06:39:11Z</time>
      </trkpt>
      <trkpt lat="44.9302040" lon="7.1590370">
        <ele>1179.6</ele>
        <time>2017-07-27T06:39:12Z</time>
      </trkpt>
      <trkpt lat="44.9302330" lon="7.1590410">
        <ele>1178.8</ele>
        <time>2017-07-27T06:39:13Z</time>
      </trkpt>
      <trkpt lat="44.9302840" lon="7.1590670">
        <ele>1178.2</ele>
        <time>2017-07-27T06:39:14Z</time>
      </trkpt>
      <trkpt lat="44.9303140" lon="7.1591000">
        <ele>1177.4</ele>
        <time>2017-07-27T06:39:15Z</time>
      </trkpt>
      <trkpt lat="44.9303640" lon="7.1592570">
        <ele>1176.0</ele>
        <time>2017-07-27T06:39:17Z</time>
      </trkpt>
      <trkpt lat="44.9303710" lon="7.1593820">
        <ele>1175.0</ele>
        <time>2017-07-27T06:39:18Z</time>
      </trkpt>
      <trkpt lat="44.9303430" lon="7.1594880">
        <ele>1174.2</ele>
        <time>2017-07-27T06:39:19Z</time>
      </trkpt>
      <trkpt lat="44.9303320" lon="7.1596070">
        <ele>1173.6</ele>
        <time>2017-07-27T06:39:20Z</time>
      </trkpt>
      <trkpt lat="44.9303240" lon="7.1599520">
        <ele>1172.2</ele>
        <time>2017-07-27T06:39:23Z</time>
      </trkpt>
      <trkpt lat="44.9303290" lon="7.1600330">
        <ele>1171.6</ele>
        <time>2017-07-27T06:39:24Z</time>
      </trkpt>
      <trkpt lat="44.9303370" lon="7.1601040">
        <ele>1170.8</ele>
        <time>2017-07-27T06:39:25Z</time>
      </trkpt>
      <trkpt lat="44.9303270" lon="7.1601920">
        <ele>1169.4</ele>
        <time>2017-07-27T06:39:27Z</time>
      </trkpt>
      <trkpt lat="44.9302930" lon="7.1602010">
        <ele>1168.8</ele>
        <time>2017-07-27T06:39:28Z</time>
      </trkpt>
      <trkpt lat="44.9302590" lon="7.1601930">
        <ele>1168.4</ele>
        <time>2017-07-27T06:39:29Z</time>
      </trkpt>
      <trkpt lat="44.9302320" lon="7.1600860">
        <ele>1166.4</ele>
        <time>2017-07-27T06:39:32Z</time>
      </trkpt>
      <trkpt lat="44.9302210" lon="7.1599290">
        <ele>1165.2</ele>
        <time>2017-07-27T06:39:34Z</time>
      </trkpt>
      <trkpt lat="44.9301770" lon="7.1596550">
        <ele>1163.4</ele>
        <time>2017-07-27T06:39:36Z</time>
      </trkpt>
      <trkpt lat="44.9301840" lon="7.1594720">
        <ele>1162.4</ele>
        <time>2017-07-27T06:39:37Z</time>
      </trkpt>
      <trkpt lat="44.9302190" lon="7.1592440">
        <ele>1161.6</ele>
        <time>2017-07-27T06:39:38Z</time>
      </trkpt>
      <trkpt lat="44.9302260" lon="7.1588290">
        <ele>1159.8</ele>
        <time>2017-07-27T06:39:40Z</time>
      </trkpt>
      <trkpt lat="44.9302020" lon="7.1586110">
        <ele>1158.8</ele>
        <time>2017-07-27T06:39:41Z</time>
      </trkpt>
      <trkpt lat="44.9301540" lon="7.1583960">
        <ele>1156.8</ele>
        <time>2017-07-27T06:39:42Z</time>
      </trkpt>
      <trkpt lat="44.9301930" lon="7.1581590">
        <ele>1155.8</ele>
        <time>2017-07-27T06:39:43Z</time>
      </trkpt>
      <trkpt lat="44.9301500" lon="7.1579280">
        <ele>1154.6</ele>
        <time>2017-07-27T06:39:44Z</time>
      </trkpt>
      <trkpt lat="44.9301950" lon="7.1577280">
        <ele>1153.4</ele>
        <time>2017-07-27T06:39:45Z</time>
      </trkpt>
      <trkpt lat="44.9301900" lon="7.1575570">
        <ele>1152.2</ele>
        <time>2017-07-27T06:39:46Z</time>
      </trkpt>
      <trkpt lat="44.9302160" lon="7.1574030">
        <ele>1151.2</ele>
        <time>2017-07-27T06:39:47Z</time>
      </trkpt>
      <trkpt lat="44.9301810" lon="7.1573020">
        <ele>1150.2</ele>
        <time>2017-07-27T06:39:48Z</time>
      </trkpt>
      <trkpt lat="44.9301140" lon="7.1572260">
        <ele>1149.0</ele>
        <time>2017-07-27T06:39:49Z</time>
      </trkpt>
      <trkpt lat="44.9300150" lon="7.1571670">
        <ele>1147.8</ele>
        <time>2017-07-27T06:39:50Z</time>
      </trkpt>
      <trkpt lat="44.9298670" lon="7.1570810">
        <ele>1146.0</ele>
        <time>2017-07-27T06:39:52Z</time>
      </trkpt>
      <trkpt lat="44.9298130" lon="7.1570510">
        <ele>1145.2</ele>
        <time>2017-07-27T06:39:53Z</time>
      </trkpt>
      <trkpt lat="44.9297530" lon="7.1570720">
        <ele>1144.4</ele>
        <time>2017-07-27T06:39:54Z</time>
      </trkpt>
      <trkpt lat="44.9296940" lon="7.1571050">
        <ele>1143.8</ele>
        <time>2017-07-27T06:39:55Z</time>
      </trkpt>
      <trkpt lat="44.9296190" lon="7.1571660">
        <ele>1143.0</ele>
        <time>2017-07-27T06:39:56Z</time>
      </trkpt>
      <trkpt lat="44.9294850" lon="7.1572920">
        <ele>1141.6</ele>
        <time>2017-07-27T06:39:58Z</time>
      </trkpt>
      <trkpt lat="44.9293710" lon="7.1574080">
        <ele>1140.2</ele>
        <time>2017-07-27T06:40:00Z</time>
      </trkpt>
      <trkpt lat="44.9292570" lon="7.1575070">
        <ele>1138.8</ele>
        <time>2017-07-27T06:40:02Z</time>
      </trkpt>
      <trkpt lat="44.9291810" lon="7.1575460">
        <ele>1138.2</ele>
        <time>2017-07-27T06:40:03Z</time>
      </trkpt>
      <trkpt lat="44.9290740" lon="7.1575780">
        <ele>1137.8</ele>
        <time>2017-07-27T06:40:04Z</time>
      </trkpt>
      <trkpt lat="44.9289940" lon="7.1576290">
        <ele>1137.0</ele>
        <time>2017-07-27T06:40:05Z</time>
      </trkpt>
      <trkpt lat="44.9288970" lon="7.1576650">
        <ele>1136.4</ele>
        <time>2017-07-27T06:40:06Z</time>
      </trkpt>
      <trkpt lat="44.9286550" lon="7.1577710">
        <ele>1135.8</ele>
        <time>2017-07-27T06:40:09Z</time>
      </trkpt>
      <trkpt lat="44.9285600" lon="7.1577650">
        <ele>1135.6</ele>
        <time>2017-07-27T06:40:10Z</time>
      </trkpt>
      <trkpt lat="44.9284760" lon="7.1577330">
        <ele>1135.2</ele>
        <time>2017-07-27T06:40:11Z</time>
      </trkpt>
      <trkpt lat="44.9284110" lon="7.1576290">
        <ele>1134.8</ele>
        <time>2017-07-27T06:40:12Z</time>
      </trkpt>
      <trkpt lat="44.9282510" lon="7.1574660">
        <ele>1134.0</ele>
        <time>2017-07-27T06:40:14Z</time>
      </trkpt>
      <trkpt lat="44.9281290" lon="7.1574010">
        <ele>1133.6</ele>
        <time>2017-07-27T06:40:16Z</time>
      </trkpt>
      <trkpt lat="44.9280920" lon="7.1572940">
        <ele>1133.0</ele>
        <time>2017-07-27T06:40:18Z</time>
      </trkpt>
      <trkpt lat="44.9281080" lon="7.1572140">
        <ele>1132.6</ele>
        <time>2017-07-27T06:40:19Z</time>
      </trkpt>
      <trkpt lat="44.9281950" lon="7.1571480">
        <ele>1131.6</ele>
        <time>2017-07-27T06:40:21Z</time>
      </trkpt>
      <trkpt lat="44.9282600" lon="7.1571550">
        <ele>1131.2</ele>
        <time>2017-07-27T06:40:22Z</time>
      </trkpt>
      <trkpt lat="44.9283910" lon="7.1571810">
        <ele>1130.2</ele>
        <time>2017-07-27T06:40:24Z</time>
      </trkpt>
      <trkpt lat="44.9284620" lon="7.1571720">
        <ele>1129.8</ele>
        <time>2017-07-27T06:40:25Z</time>
      </trkpt>
      <trkpt lat="44.9286080" lon="7.1570690">
        <ele>1129.2</ele>
        <time>2017-07-27T06:40:27Z</time>
      </trkpt>
      <trkpt lat="44.9286810" lon="7.1569870">
        <ele>1128.6</ele>
        <time>2017-07-27T06:40:28Z</time>
      </trkpt>
      <trkpt lat="44.9287590" lon="7.1568890">
        <ele>1128.2</ele>
        <time>2017-07-27T06:40:29Z</time>
      </trkpt>
      <trkpt lat="44.9288320" lon="7.1567820">
        <ele>1127.0</ele>
        <time>2017-07-27T06:40:30Z</time>
      </trkpt>
      <trkpt lat="44.9289110" lon="7.1566580">
        <ele>1126.4</ele>
        <time>2017-07-27T06:40:31Z</time>
      </trkpt>
      <trkpt lat="44.9290000" lon="7.1565310">
        <ele>1125.8</ele>
        <time>2017-07-27T06:40:32Z</time>
      </trkpt>
      <trkpt lat="44.9291750" lon="7.1562570">
        <ele>1124.4</ele>
        <time>2017-07-27T06:40:34Z</time>
      </trkpt>
      <trkpt lat="44.9292630" lon="7.1561110">
        <ele>1123.8</ele>
        <time>2017-07-27T06:40:35Z</time>
      </trkpt>
      <trkpt lat="44.9293490" lon="7.1559670">
        <ele>1123.0</ele>
        <time>2017-07-27T06:40:36Z</time>
      </trkpt>
      <trkpt lat="44.9295190" lon="7.1556670">
        <ele>1121.2</ele>
        <time>2017-07-27T06:40:38Z</time>
      </trkpt>
      <trkpt lat="44.9295970" lon="7.1555380">
        <ele>1120.2</ele>
        <time>2017-07-27T06:40:39Z</time>
      </trkpt>
      <trkpt lat="44.9296850" lon="7.1554190">
        <ele>1119.2</ele>
        <time>2017-07-27T06:40:40Z</time>
      </trkpt>
      <trkpt lat="44.9298620" lon="7.1552200">
        <ele>1117.4</ele>
        <time>2017-07-27T06:40:42Z</time>
      </trkpt>
      <trkpt lat="44.9299580" lon="7.1551580">
        <ele>1116.4</ele>
        <time>2017-07-27T06:40:43Z</time>
      </trkpt>
      <trkpt lat="44.9300670" lon="7.1551240">
        <ele>1115.2</ele>
        <time>2017-07-27T06:40:44Z</time>
      </trkpt>
      <trkpt lat="44.9302060" lon="7.1551440">
        <ele>1114.2</ele>
        <time>2017-07-27T06:40:45Z</time>
      </trkpt>
      <trkpt lat="44.9303350" lon="7.1551460">
        <ele>1113.0</ele>
        <time>2017-07-27T06:40:46Z</time>
      </trkpt>
      <trkpt lat="44.9304570" lon="7.1551610">
        <ele>1112.0</ele>
        <time>2017-07-27T06:40:47Z</time>
      </trkpt>
      <trkpt lat="44.9305680" lon="7.1552000">
        <ele>1111.0</ele>
        <time>2017-07-27T06:40:48Z</time>
      </trkpt>
      <trkpt lat="44.9306710" lon="7.1552600">
        <ele>1110.2</ele>
        <time>2017-07-27T06:40:49Z</time>
      </trkpt>
      <trkpt lat="44.9307820" lon="7.1553020">
        <ele>1109.0</ele>
        <time>2017-07-27T06:40:50Z</time>
      </trkpt>
      <trkpt lat="44.9309030" lon="7.1553320">
        <ele>1107.8</ele>
        <time>2017-07-27T06:40:51Z</time>
      </trkpt>
      <trkpt lat="44.9310220" lon="7.1553430">
        <ele>1106.2</ele>
        <time>2017-07-27T06:40:52Z</time>
      </trkpt>
      <trkpt lat="44.9311290" lon="7.1553600">
        <ele>1105.2</ele>
        <time>2017-07-27T06:40:53Z</time>
      </trkpt>
      <trkpt lat="44.9312130" lon="7.1553640">
        <ele>1103.0</ele>
        <time>2017-07-27T06:40:54Z</time>
      </trkpt>
      <trkpt lat="44.9312750" lon="7.1553430">
        <ele>1101.6</ele>
        <time>2017-07-27T06:40:55Z</time>
      </trkpt>
      <trkpt lat="44.9313100" lon="7.1553100">
        <ele>1100.4</ele>
        <time>2017-07-27T06:40:56Z</time>
      </trkpt>
      <trkpt lat="44.9313190" lon="7.1552910">
        <ele>1099.4</ele>
        <time>2017-07-27T06:40:57Z</time>
      </trkpt>
      <trkpt lat="44.9312860" lon="7.1552760">
        <ele>1098.2</ele>
        <time>2017-07-27T06:40:58Z</time>
      </trkpt>
      <trkpt lat="44.9312370" lon="7.1552580">
        <ele>1097.2</ele>
        <time>2017-07-27T06:40:59Z</time>
      </trkpt>
      <trkpt lat="44.9311750" lon="7.1552280">
        <ele>1096.2</ele>
        <time>2017-07-27T06:41:00Z</time>
      </trkpt>
      <trkpt lat="44.9310990" lon="7.1551760">
        <ele>1095.4</ele>
        <time>2017-07-27T06:41:01Z</time>
      </trkpt>
      <trkpt lat="44.9310190" lon="7.1551030">
        <ele>1094.4</ele>
        <time>2017-07-27T06:41:02Z</time>
      </trkpt>
      <trkpt lat="44.9309390" lon="7.1550150">
        <ele>1093.4</ele>
        <time>2017-07-27T06:41:03Z</time>
      </trkpt>
      <trkpt lat="44.9308630" lon="7.1549250">
        <ele>1092.4</ele>
        <time>2017-07-27T06:41:04Z</time>
      </trkpt>
      <trkpt lat="44.9306880" lon="7.1547220">
        <ele>1090.8</ele>
        <time>2017-07-27T06:41:06Z</time>
      </trkpt>
      <trkpt lat="44.9304980" lon="7.1544970">
        <ele>1089.0</ele>
        <time>2017-07-27T06:41:08Z</time>
      </trkpt>
      <trkpt lat="44.9302660" lon="7.1543170">
        <ele>1087.2</ele>
        <time>2017-07-27T06:41:10Z</time>
      </trkpt>
      <trkpt lat="44.9300060" lon="7.1541720">
        <ele>1085.2</ele>
        <time>2017-07-27T06:41:12Z</time>
      </trkpt>
      <trkpt lat="44.9298700" lon="7.1541320">
        <ele>1084.2</ele>
        <time>2017-07-27T06:41:13Z</time>
      </trkpt>
      <trkpt lat="44.9297390" lon="7.1541120">
        <ele>1083.2</ele>
        <time>2017-07-27T06:41:14Z</time>
      </trkpt>
      <trkpt lat="44.9296100" lon="7.1541110">
        <ele>1082.2</ele>
        <time>2017-07-27T06:41:15Z</time>
      </trkpt>
      <trkpt lat="44.9293540" lon="7.1541850">
        <ele>1080.0</ele>
        <time>2017-07-27T06:41:17Z</time>
      </trkpt>
      <trkpt lat="44.9292340" lon="7.1542280">
        <ele>1078.0</ele>
        <time>2017-07-27T06:41:18Z</time>
      </trkpt>
      <trkpt lat="44.9291320" lon="7.1542620">
        <ele>1077.0</ele>
        <time>2017-07-27T06:41:19Z</time>
      </trkpt>
      <trkpt lat="44.9290440" lon="7.1542840">
        <ele>1075.6</ele>
        <time>2017-07-27T06:41:20Z</time>
      </trkpt>
      <trkpt lat="44.9289710" lon="7.1543120">
        <ele>1074.4</ele>
        <time>2017-07-27T06:41:21Z</time>
      </trkpt>
      <trkpt lat="44.9289200" lon="7.1543320">
        <ele>1073.2</ele>
        <time>2017-07-27T06:41:22Z</time>
      </trkpt>
      <trkpt lat="44.9288890" lon="7.1543530">
        <ele>1072.2</ele>
        <time>2017-07-27T06:41:23Z</time>
      </trkpt>
      <trkpt lat="44.9288770" lon="7.1543670">
        <ele>1071.2</ele>
        <time>2017-07-27T06:41:24Z</time>
      </trkpt>
      <trkpt lat="44.9288860" lon="7.1543250">
        <ele>1069.2</ele>
        <time>2017-07-27T06:41:26Z</time>
      </trkpt>
      <trkpt lat="44.9289230" lon="7.1542120">
        <ele>1067.4</ele>
        <time>2017-07-27T06:41:28Z</time>
      </trkpt>
      <trkpt lat="44.9290030" lon="7.1541060">
        <ele>1066.4</ele>
        <time>2017-07-27T06:41:29Z</time>
      </trkpt>
      <trkpt lat="44.9291160" lon="7.1539970">
        <ele>1065.6</ele>
        <time>2017-07-27T06:41:30Z</time>
      </trkpt>
      <trkpt lat="44.9293860" lon="7.1537730">
        <ele>1063.8</ele>
        <time>2017-07-27T06:41:32Z</time>
      </trkpt>
      <trkpt lat="44.9295510" lon="7.1536010">
        <ele>1062.2</ele>
        <time>2017-07-27T06:41:34Z</time>
      </trkpt>
      <trkpt lat="44.9296100" lon="7.1535230">
        <ele>1061.4</ele>
        <time>2017-07-27T06:41:35Z</time>
      </trkpt>
      <trkpt lat="44.9296420" lon="7.1534650">
        <ele>1060.4</ele>
        <time>2017-07-27T06:41:36Z</time>
      </trkpt>
      <trkpt lat="44.9296530" lon="7.1534380">
        <ele>1059.6</ele>
        <time>2017-07-27T06:41:37Z</time>
      </trkpt>
      <trkpt lat="44.9296110" lon="7.1534050">
        <ele>1059.0</ele>
        <time>2017-07-27T06:41:38Z</time>
      </trkpt>
      <trkpt lat="44.9295350" lon="7.1534030">
        <ele>1058.2</ele>
        <time>2017-07-27T06:41:39Z</time>
      </trkpt>
      <trkpt lat="44.9294420" lon="7.1534200">
        <ele>1057.2</ele>
        <time>2017-07-27T06:41:40Z</time>
      </trkpt>
      <trkpt lat="44.9292220" lon="7.1534600">
        <ele>1055.0</ele>
        <time>2017-07-27T06:41:42Z</time>
      </trkpt>
      <trkpt lat="44.9289850" lon="7.1535120">
        <ele>1053.8</ele>
        <time>2017-07-27T06:41:44Z</time>
      </trkpt>
      <trkpt lat="44.9287810" lon="7.1535740">
        <ele>1052.2</ele>
        <time>2017-07-27T06:41:46Z</time>
      </trkpt>
      <trkpt lat="44.9285420" lon="7.1536190">
        <ele>1050.6</ele>
        <time>2017-07-27T06:41:48Z</time>
      </trkpt>
      <trkpt lat="44.9282450" lon="7.1536030">
        <ele>1049.0</ele>
        <time>2017-07-27T06:41:50Z</time>
      </trkpt>
      <trkpt lat="44.9279670" lon="7.1536140">
        <ele>1047.2</ele>
        <time>2017-07-27T06:41:52Z</time>
      </trkpt>
      <trkpt lat="44.9277030" lon="7.1536470">
        <ele>1045.2</ele>
        <time>2017-07-27T06:41:54Z</time>
      </trkpt>
      <trkpt lat="44.9275790" lon="7.1536410">
        <ele>1044.4</ele>
        <time>2017-07-27T06:41:55Z</time>
      </trkpt>
      <trkpt lat="44.9274770" lon="7.1536240">
        <ele>1043.6</ele>
        <time>2017-07-27T06:41:56Z</time>
      </trkpt>
      <trkpt lat="44.9273990" lon="7.1535880">
        <ele>1042.6</ele>
        <time>2017-07-27T06:41:57Z</time>
      </trkpt>
      <trkpt lat="44.9273480" lon="7.1535280">
        <ele>1041.6</ele>
        <time>2017-07-27T06:41:58Z</time>
      </trkpt>
      <trkpt lat="44.9273250" lon="7.1534550">
        <ele>1040.6</ele>
        <time>2017-07-27T06:41:59Z</time>
      </trkpt>
      <trkpt lat="44.9273530" lon="7.1533930">
        <ele>1039.4</ele>
        <time>2017-07-27T06:42:00Z</time>
      </trkpt>
      <trkpt lat="44.9274030" lon="7.1533570">
        <ele>1038.6</ele>
        <time>2017-07-27T06:42:01Z</time>
      </trkpt>
      <trkpt lat="44.9274730" lon="7.1533640">
        <ele>1037.6</ele>
        <time>2017-07-27T06:42:02Z</time>
      </trkpt>
      <trkpt lat="44.9275530" lon="7.1533630">
        <ele>1036.6</ele>
        <time>2017-07-27T06:42:03Z</time>
      </trkpt>
      <trkpt lat="44.9276430" lon="7.1533390">
        <ele>1035.8</ele>
        <time>2017-07-27T06:42:04Z</time>
      </trkpt>
      <trkpt lat="44.9278280" lon="7.1532310">
        <ele>1033.4</ele>
        <time>2017-07-27T06:42:06Z</time>
      </trkpt>
      <trkpt lat="44.9279170" lon="7.1531610">
        <ele>1032.6</ele>
        <time>2017-07-27T06:42:07Z</time>
      </trkpt>
      <trkpt lat="44.9280070" lon="7.1530840">
        <ele>1031.8</ele>
        <time>2017-07-27T06:42:08Z</time>
      </trkpt>
      <trkpt lat="44.9281950" lon="7.1529010">
        <ele>1030.0</ele>
        <time>2017-07-27T06:42:10Z</time>
      </trkpt>
      <trkpt lat="44.9282820" lon="7.1528040">
        <ele>1029.2</ele>
        <time>2017-07-27T06:42:11Z</time>
      </trkpt>
      <trkpt lat="44.9283590" lon="7.1526870">
        <ele>1028.2</ele>
        <time>2017-07-27T06:42:12Z</time>
      </trkpt>
      <trkpt lat="44.9284900" lon="7.1524440">
        <ele>1026.6</ele>
        <time>2017-07-27T06:42:14Z</time>
      </trkpt>
      <trkpt lat="44.9285550" lon="7.1523270">
        <ele>1025.6</ele>
        <time>2017-07-27T06:42:15Z</time>
      </trkpt>
      <trkpt lat="44.9286380" lon="7.1522500">
        <ele>1024.4</ele>
        <time>2017-07-27T06:42:16Z</time>
      </trkpt>
      <trkpt lat="44.9287310" lon="7.1521900">
        <ele>1023.4</ele>
        <time>2017-07-27T06:42:17Z</time>
      </trkpt>
      <trkpt lat="44.9288210" lon="7.1521380">
        <ele>1022.6</ele>
        <time>2017-07-27T06:42:18Z</time>
      </trkpt>
      <trkpt lat="44.9290110" lon="7.1520370">
        <ele>1020.8</ele>
        <time>2017-07-27T06:42:20Z</time>
      </trkpt>
      <trkpt lat="44.9292040" lon="7.1519710">
        <ele>1019.4</ele>
        <time>2017-07-27T06:42:22Z</time>
      </trkpt>
      <trkpt lat="44.9293960" lon="7.1519450">
        <ele>1018.0</ele>
        <time>2017-07-27T06:42:24Z</time>
      </trkpt>
      <trkpt lat="44.9294940" lon="7.1519640">
        <ele>1017.4</ele>
        <time>2017-07-27T06:42:25Z</time>
      </trkpt>
      <trkpt lat="44.9295910" lon="7.1519970">
        <ele>1016.8</ele>
        <time>2017-07-27T06:42:26Z</time>
      </trkpt>
      <trkpt lat="44.9297880" lon="7.1520640">
        <ele>1015.6</ele>
        <time>2017-07-27T06:42:28Z</time>
      </trkpt>
      <trkpt lat="44.9298880" lon="7.1521020">
        <ele>1015.2</ele>
        <time>2017-07-27T06:42:29Z</time>
      </trkpt>
      <trkpt lat="44.9299900" lon="7.1521480">
        <ele>1014.0</ele>
        <time>2017-07-27T06:42:30Z</time>
      </trkpt>
      <trkpt lat="44.9300950" lon="7.1521780">
        <ele>1013.4</ele>
        <time>2017-07-27T06:42:31Z</time>
      </trkpt>
      <trkpt lat="44.9302020" lon="7.1521920">
        <ele>1012.8</ele>
        <time>2017-07-27T06:42:32Z</time>
      </trkpt>
      <trkpt lat="44.9303140" lon="7.1521970">
        <ele>1012.2</ele>
        <time>2017-07-27T06:42:33Z</time>
      </trkpt>
      <trkpt lat="44.9304290" lon="7.1521940">
        <ele>1011.6</ele>
        <time>2017-07-27T06:42:34Z</time>
      </trkpt>
      <trkpt lat="44.9306160" lon="7.1521730">
        <ele>1010.2</ele>
        <time>2017-07-27T06:42:36Z</time>
      </trkpt>
      <trkpt lat="44.9306800" lon="7.1521190">
        <ele>1009.4</ele>
        <time>2017-07-27T06:42:37Z</time>
      </trkpt>
      <trkpt lat="44.9307240" lon="7.1520790">
        <ele>1008.6</ele>
        <time>2017-07-27T06:42:38Z</time>
      </trkpt>
      <trkpt lat="44.9307710" lon="7.1520790">
        <ele>1007.0</ele>
        <time>2017-07-27T06:42:40Z</time>
      </trkpt>
      <trkpt lat="44.9307750" lon="7.1521380">
        <ele>1005.6</ele>
        <time>2017-07-27T06:42:42Z</time>
      </trkpt>
      <trkpt lat="44.9307510" lon="7.1521870">
        <ele>1004.0</ele>
        <time>2017-07-27T06:42:44Z</time>
      </trkpt>
      <trkpt lat="44.9306750" lon="7.1521840">
        <ele>1002.6</ele>
        <time>2017-07-27T06:42:46Z</time>
      </trkpt>
      <trkpt lat="44.9306280" lon="7.1521460">
        <ele>1001.8</ele>
        <time>2017-07-27T06:42:47Z</time>
      </trkpt>
      <trkpt lat="44.9305160" lon="7.1520540">
        <ele>1000.8</ele>
        <time>2017-07-27T06:42:48Z</time>
      </trkpt>
      <trkpt lat="44.9303810" lon="7.1519500">
        <ele>999.8</ele>
        <time>2017-07-27T06:42:49Z</time>
      </trkpt>
      <trkpt lat="44.9302460" lon="7.1518540">
        <ele>998.8</ele>
        <time>2017-07-27T06:42:50Z</time>
      </trkpt>
      <trkpt lat="44.9299710" lon="7.1516940">
        <ele>996.8</ele>
        <time>2017-07-27T06:42:52Z</time>
      </trkpt>
      <trkpt lat="44.9294660" lon="7.1514760">
        <ele>995.8</ele>
        <time>2017-07-27T06:42:53Z</time>
      </trkpt>
      <trkpt lat="44.9289610" lon="7.1512580">
        <ele>993.8</ele>
        <time>2017-07-27T06:42:54Z</time>
      </trkpt>
      <trkpt lat="44.9287050" lon="7.1513140">
        <ele>992.0</ele>
        <time>2017-07-27T06:42:56Z</time>
      </trkpt>
      <trkpt lat="44.9284510" lon="7.1513140">
        <ele>990.0</ele>
        <time>2017-07-27T06:42:58Z</time>
      </trkpt>
      <trkpt lat="44.9283290" lon="7.1512990">
        <ele>989.0</ele>
        <time>2017-07-27T06:42:59Z</time>
      </trkpt>
      <trkpt lat="44.9282110" lon="7.1512820">
        <ele>988.2</ele>
        <time>2017-07-27T06:43:00Z</time>
      </trkpt>
      <trkpt lat="44.9279730" lon="7.1512710">
        <ele>986.4</ele>
        <time>2017-07-27T06:43:02Z</time>
      </trkpt>
      <trkpt lat="44.9277150" lon="7.1512360">
        <ele>984.6</ele>
        <time>2017-07-27T06:43:04Z</time>
      </trkpt>
      <trkpt lat="44.9274510" lon="7.1512220">
        <ele>983.0</ele>
        <time>2017-07-27T06:43:06Z</time>
      </trkpt>
      <trkpt lat="44.9271880" lon="7.1511920">
        <ele>981.2</ele>
        <time>2017-07-27T06:43:08Z</time>
      </trkpt>
      <trkpt lat="44.9269440" lon="7.1511840">
        <ele>979.4</ele>
        <time>2017-07-27T06:43:10Z</time>
      </trkpt>
      <trkpt lat="44.9267280" lon="7.1512420">
        <ele>977.6</ele>
        <time>2017-07-27T06:43:12Z</time>
      </trkpt>
      <trkpt lat="44.9266390" lon="7.1512640">
        <ele>976.6</ele>
        <time>2017-07-27T06:43:13Z</time>
      </trkpt>
      <trkpt lat="44.9265550" lon="7.1512590">
        <ele>975.6</ele>
        <time>2017-07-27T06:43:14Z</time>
      </trkpt>
      <trkpt lat="44.9264770" lon="7.1512580">
        <ele>974.6</ele>
        <time>2017-07-27T06:43:15Z</time>
      </trkpt>
      <trkpt lat="44.9264120" lon="7.1512400">
        <ele>973.8</ele>
        <time>2017-07-27T06:43:16Z</time>
      </trkpt>
      <trkpt lat="44.9263590" lon="7.1511840">
        <ele>972.8</ele>
        <time>2017-07-27T06:43:17Z</time>
      </trkpt>
      <trkpt lat="44.9263110" lon="7.1511440">
        <ele>971.0</ele>
        <time>2017-07-27T06:43:18Z</time>
      </trkpt>
      <trkpt lat="44.9262820" lon="7.1511100">
        <ele>970.2</ele>
        <time>2017-07-27T06:43:19Z</time>
      </trkpt>
      <trkpt lat="44.9262670" lon="7.1510950">
        <ele>969.6</ele>
        <time>2017-07-27T06:43:20Z</time>
      </trkpt>
      <trkpt lat="44.9262920" lon="7.1510500">
        <ele>968.0</ele>
        <time>2017-07-27T06:43:22Z</time>
      </trkpt>
      <trkpt lat="44.9263800" lon="7.1509680">
        <ele>966.2</ele>
        <time>2017-07-27T06:43:24Z</time>
      </trkpt>
      <trkpt lat="44.9264480" lon="7.1509100">
        <ele>965.4</ele>
        <time>2017-07-27T06:43:25Z</time>
      </trkpt>
      <trkpt lat="44.9265520" lon="7.1508130">
        <ele>964.8</ele>
        <time>2017-07-27T06:43:26Z</time>
      </trkpt>
      <trkpt lat="44.9267450" lon="7.1507050">
        <ele>964.0</ele>
        <time>2017-07-27T06:43:27Z</time>
      </trkpt>
      <trkpt lat="44.9268800" lon="7.1506240">
        <ele>963.2</ele>
        <time>2017-07-27T06:43:28Z</time>
      </trkpt>
      <trkpt lat="44.9272020" lon="7.1505000">
        <ele>961.4</ele>
        <time>2017-07-27T06:43:30Z</time>
      </trkpt>
      <trkpt lat="44.9273970" lon="7.1504820">
        <ele>960.4</ele>
        <time>2017-07-27T06:43:31Z</time>
      </trkpt>
      <trkpt lat="44.9275760" lon="7.1504680">
        <ele>959.6</ele>
        <time>2017-07-27T06:43:32Z</time>
      </trkpt>
      <trkpt lat="44.9277570" lon="7.1504530">
        <ele>959.0</ele>
        <time>2017-07-27T06:43:33Z</time>
      </trkpt>
      <trkpt lat="44.9279250" lon="7.1504270">
        <ele>958.2</ele>
        <time>2017-07-27T06:43:34Z</time>
      </trkpt>
      <trkpt lat="44.9282470" lon="7.1503030">
        <ele>956.2</ele>
        <time>2017-07-27T06:43:36Z</time>
      </trkpt>
      <trkpt lat="44.9284090" lon="7.1502150">
        <ele>955.4</ele>
        <time>2017-07-27T06:43:37Z</time>
      </trkpt>
      <trkpt lat="44.9285660" lon="7.1501190">
        <ele>954.6</ele>
        <time>2017-07-27T06:43:38Z</time>
      </trkpt>
      <trkpt lat="44.9288700" lon="7.1499330">
        <ele>952.6</ele>
        <time>2017-07-27T06:43:40Z</time>
      </trkpt>
      <trkpt lat="44.9289970" lon="7.1498630">
        <ele>951.6</ele>
        <time>2017-07-27T06:43:41Z</time>
      </trkpt>
      <trkpt lat="44.9291460" lon="7.1498530">
        <ele>949.4</ele>
        <time>2017-07-27T06:43:42Z</time>
      </trkpt>
      <trkpt lat="44.9292900" lon="7.1498810">
        <ele>948.2</ele>
        <time>2017-07-27T06:43:43Z</time>
      </trkpt>
      <trkpt lat="44.9294120" lon="7.1498580">
        <ele>947.0</ele>
        <time>2017-07-27T06:43:44Z</time>
      </trkpt>
      <trkpt lat="44.9295260" lon="7.1498080">
        <ele>945.8</ele>
        <time>2017-07-27T06:43:45Z</time>
      </trkpt>
      <trkpt lat="44.9296470" lon="7.1497250">
        <ele>944.8</ele>
        <time>2017-07-27T06:43:46Z</time>
      </trkpt>
      <trkpt lat="44.9297650" lon="7.1496250">
        <ele>943.8</ele>
        <time>2017-07-27T06:43:47Z</time>
      </trkpt>
      <trkpt lat="44.9298960" lon="7.1495270">
        <ele>942.6</ele>
        <time>2017-07-27T06:43:48Z</time>
      </trkpt>
      <trkpt lat="44.9300990" lon="7.1492450">
        <ele>940.6</ele>
        <time>2017-07-27T06:43:50Z</time>
      </trkpt>
      <trkpt lat="44.9301800" lon="7.1490760">
        <ele>939.4</ele>
        <time>2017-07-27T06:43:51Z</time>
      </trkpt>
      <trkpt lat="44.9302440" lon="7.1488860">
        <ele>938.2</ele>
        <time>2017-07-27T06:43:52Z</time>
      </trkpt>
      <trkpt lat="44.9303000" lon="7.1486930">
        <ele>937.0</ele>
        <time>2017-07-27T06:43:53Z</time>
      </trkpt>
      <trkpt lat="44.9303460" lon="7.1484940">
        <ele>935.8</ele>
        <time>2017-07-27T06:43:54Z</time>
      </trkpt>
      <trkpt lat="44.9303790" lon="7.1483100">
        <ele>934.6</ele>
        <time>2017-07-27T06:43:55Z</time>
      </trkpt>
      <trkpt lat="44.9304030" lon="7.1481410">
        <ele>933.6</ele>
        <time>2017-07-27T06:43:56Z</time>
      </trkpt>
      <trkpt lat="44.9304230" lon="7.1479900">
        <ele>932.4</ele>
        <time>2017-07-27T06:43:57Z</time>
      </trkpt>
      <trkpt lat="44.9304480" lon="7.1478440">
        <ele>931.2</ele>
        <time>2017-07-27T06:43:58Z</time>
      </trkpt>
      <trkpt lat="44.9305500" lon="7.1477550">
        <ele>930.0</ele>
        <time>2017-07-27T06:43:59Z</time>
      </trkpt>
      <trkpt lat="44.9306360" lon="7.1476720">
        <ele>928.6</ele>
        <time>2017-07-27T06:44:00Z</time>
      </trkpt>
      <trkpt lat="44.9307420" lon="7.1476190">
        <ele>927.4</ele>
        <time>2017-07-27T06:44:01Z</time>
      </trkpt>
      <trkpt lat="44.9308390" lon="7.1475560">
        <ele>926.2</ele>
        <time>2017-07-27T06:44:02Z</time>
      </trkpt>
      <trkpt lat="44.9309490" lon="7.1474870">
        <ele>925.0</ele>
        <time>2017-07-27T06:44:03Z</time>
      </trkpt>
      <trkpt lat="44.9310580" lon="7.1474270">
        <ele>923.8</ele>
        <time>2017-07-27T06:44:04Z</time>
      </trkpt>
      <trkpt lat="44.9311760" lon="7.1474390">
        <ele>922.8</ele>
        <time>2017-07-27T06:44:05Z</time>
      </trkpt>
      <trkpt lat="44.9313020" lon="7.1474950">
        <ele>920.6</ele>
        <time>2017-07-27T06:44:06Z</time>
      </trkpt>
      <trkpt lat="44.9314250" lon="7.1475540">
        <ele>919.2</ele>
        <time>2017-07-27T06:44:07Z</time>
      </trkpt>
      <trkpt lat="44.9315370" lon="7.1475840">
        <ele>918.0</ele>
        <time>2017-07-27T06:44:08Z</time>
      </trkpt>
      <trkpt lat="44.9316410" lon="7.1475740">
        <ele>917.0</ele>
        <time>2017-07-27T06:44:09Z</time>
      </trkpt>
      <trkpt lat="44.9317460" lon="7.1475420">
        <ele>916.0</ele>
        <time>2017-07-27T06:44:10Z</time>
      </trkpt>
      <trkpt lat="44.9318630" lon="7.1474960">
        <ele>914.8</ele>
        <time>2017-07-27T06:44:11Z</time>
      </trkpt>
      <trkpt lat="44.9319900" lon="7.1474610">
        <ele>913.4</ele>
        <time>2017-07-27T06:44:12Z</time>
      </trkpt>
      <trkpt lat="44.9320960" lon="7.1474240">
        <ele>912.2</ele>
        <time>2017-07-27T06:44:13Z</time>
      </trkpt>
      <trkpt lat="44.9322100" lon="7.1474320">
        <ele>911.2</ele>
        <time>2017-07-27T06:44:14Z</time>
      </trkpt>
      <trkpt lat="44.9323460" lon="7.1473870">
        <ele>910.0</ele>
        <time>2017-07-27T06:44:15Z</time>
      </trkpt>
      <trkpt lat="44.9324880" lon="7.1473140">
        <ele>908.6</ele>
        <time>2017-07-27T06:44:16Z</time>
      </trkpt>
      <trkpt lat="44.9326070" lon="7.1472300">
        <ele>907.2</ele>
        <time>2017-07-27T06:44:17Z</time>
      </trkpt>
      <trkpt lat="44.9327470" lon="7.1471440">
        <ele>906.0</ele>
        <time>2017-07-27T06:44:18Z</time>
      </trkpt>
      <trkpt lat="44.9328640" lon="7.1470480">
        <ele>904.6</ele>
        <time>2017-07-27T06:44:19Z</time>
      </trkpt>
      <trkpt lat="44.9330020" lon="7.1469570">
        <ele>903.6</ele>
        <time>2017-07-27T06:44:20Z</time>
      </trkpt>
      <trkpt lat="44.9331370" lon="7.1468580">
        <ele>902.2</ele>
        <time>2017-07-27T06:44:21Z</time>
      </trkpt>
      <trkpt lat="44.9332550" lon="7.1467560">
        <ele>900.8</ele>
        <time>2017-07-27T06:44:22Z</time>
      </trkpt>
      <trkpt lat="44.9333840" lon="7.1466570">
        <ele>899.4</ele>
        <time>2017-07-27T06:44:23Z</time>
      </trkpt>
      <trkpt lat="44.9334990" lon="7.1465280">
        <ele>898.4</ele>
        <time>2017-07-27T06:44:24Z</time>
      </trkpt>
      <trkpt lat="44.9336000" lon="7.1463780">
        <ele>897.2</ele>
        <time>2017-07-27T06:44:25Z</time>
      </trkpt>
      <trkpt lat="44.9337050" lon="7.1462310">
        <ele>895.8</ele>
        <time>2017-07-27T06:44:26Z</time>
      </trkpt>
      <trkpt lat="44.9337910" lon="7.1460700">
        <ele>894.2</ele>
        <time>2017-07-27T06:44:27Z</time>
      </trkpt>
      <trkpt lat="44.9338660" lon="7.1458960">
        <ele>892.8</ele>
        <time>2017-07-27T06:44:28Z</time>
      </trkpt>
      <trkpt lat="44.9339390" lon="7.1457230">
        <ele>891.6</ele>
        <time>2017-07-27T06:44:29Z</time>
      </trkpt>
      <trkpt lat="44.9340050" lon="7.1455440">
        <ele>889.0</ele>
        <time>2017-07-27T06:44:30Z</time>
      </trkpt>
      <trkpt lat="44.9340480" lon="7.1453660">
        <ele>887.8</ele>
        <time>2017-07-27T06:44:31Z</time>
      </trkpt>
      <trkpt lat="44.9340740" lon="7.1451740">
        <ele>886.6</ele>
        <time>2017-07-27T06:44:32Z</time>
      </trkpt>
      <trkpt lat="44.9341060" lon="7.1449990">
        <ele>885.4</ele>
        <time>2017-07-27T06:44:33Z</time>
      </trkpt>
      <trkpt lat="44.9341480" lon="7.1448330">
        <ele>884.2</ele>
        <time>2017-07-27T06:44:34Z</time>
      </trkpt>
      <trkpt lat="44.9342070" lon="7.1446780">
        <ele>882.8</ele>
        <time>2017-07-27T06:44:35Z</time>
      </trkpt>
      <trkpt lat="44.9342790" lon="7.1445340">
        <ele>881.8</ele>
        <time>2017-07-27T06:44:36Z</time>
      </trkpt>
      <trkpt lat="44.9343570" lon="7.1443940">
        <ele>880.6</ele>
        <time>2017-07-27T06:44:37Z</time>
      </trkpt>
      <trkpt lat="44.9344510" lon="7.1442650">
        <ele>879.4</ele>
        <time>2017-07-27T06:44:38Z</time>
      </trkpt>
      <trkpt lat="44.9345440" lon="7.1441290">
        <ele>878.2</ele>
        <time>2017-07-27T06:44:39Z</time>
      </trkpt>
      <trkpt lat="44.9346510" lon="7.1440090">
        <ele>877.0</ele>
        <time>2017-07-27T06:44:40Z</time>
      </trkpt>
      <trkpt lat="44.9347580" lon="7.1438930">
        <ele>875.8</ele>
        <time>2017-07-27T06:44:41Z</time>
      </trkpt>
      <trkpt lat="44.9348630" lon="7.1437920">
        <ele>874.4</ele>
        <time>2017-07-27T06:44:42Z</time>
      </trkpt>
      <trkpt lat="44.9349690" lon="7.1436990">
        <ele>873.0</ele>
        <time>2017-07-27T06:44:43Z</time>
      </trkpt>
      <trkpt lat="44.9350790" lon="7.1436210">
        <ele>871.4</ele>
        <time>2017-07-27T06:44:44Z</time>
      </trkpt>
      <trkpt lat="44.9351650" lon="7.1435560">
        <ele>870.0</ele>
        <time>2017-07-27T06:44:45Z</time>
      </trkpt>
      <trkpt lat="44.9352330" lon="7.1435010">
        <ele>868.6</ele>
        <time>2017-07-27T06:44:46Z</time>
      </trkpt>
      <trkpt lat="44.9352970" lon="7.1434570">
        <ele>867.2</ele>
        <time>2017-07-27T06:44:47Z</time>
      </trkpt>
      <trkpt lat="44.9353330" lon="7.1434190">
        <ele>865.6</ele>
        <time>2017-07-27T06:44:48Z</time>
      </trkpt>
      <trkpt lat="44.9353280" lon="7.1434080">
        <ele>864.4</ele>
        <time>2017-07-27T06:44:49Z</time>
      </trkpt>
      <trkpt lat="44.9353010" lon="7.1434370">
        <ele>863.2</ele>
        <time>2017-07-27T06:44:50Z</time>
      </trkpt>
      <trkpt lat="44.9352630" lon="7.1434520">
        <ele>862.0</ele>
        <time>2017-07-27T06:44:51Z</time>
      </trkpt>
      <trkpt lat="44.9351670" lon="7.1434400">
        <ele>861.0</ele>
        <time>2017-07-27T06:44:52Z</time>
      </trkpt>
      <trkpt lat="44.9350620" lon="7.1434370">
        <ele>859.8</ele>
        <time>2017-07-27T06:44:53Z</time>
      </trkpt>
      <trkpt lat="44.9349520" lon="7.1434280">
        <ele>858.8</ele>
        <time>2017-07-27T06:44:54Z</time>
      </trkpt>
      <trkpt lat="44.9348210" lon="7.1434110">
        <ele>857.0</ele>
        <time>2017-07-27T06:44:55Z</time>
      </trkpt>
      <trkpt lat="44.9345700" lon="7.1433810">
        <ele>855.4</ele>
        <time>2017-07-27T06:44:57Z</time>
      </trkpt>
      <trkpt lat="44.9344470" lon="7.1433620">
        <ele>854.6</ele>
        <time>2017-07-27T06:44:58Z</time>
      </trkpt>
      <trkpt lat="44.9343240" lon="7.1433500">
        <ele>853.6</ele>
        <time>2017-07-27T06:44:59Z</time>
      </trkpt>
      <trkpt lat="44.9340880" lon="7.1433770">
        <ele>851.8</ele>
        <time>2017-07-27T06:45:01Z</time>
      </trkpt>
      <trkpt lat="44.9339960" lon="7.1434060">
        <ele>851.0</ele>
        <time>2017-07-27T06:45:02Z</time>
      </trkpt>
      <trkpt lat="44.9339090" lon="7.1434150">
        <ele>850.0</ele>
        <time>2017-07-27T06:45:03Z</time>
      </trkpt>
      <trkpt lat="44.9337680" lon="7.1433860">
        <ele>848.0</ele>
        <time>2017-07-27T06:45:05Z</time>
      </trkpt>
      <trkpt lat="44.9336830" lon="7.1433280">
        <ele>846.2</ele>
        <time>2017-07-27T06:45:07Z</time>
      </trkpt>
      <trkpt lat="44.9336600" lon="7.1432910">
        <ele>845.2</ele>
        <time>2017-07-27T06:45:08Z</time>
      </trkpt>
      <trkpt lat="44.9336500" lon="7.1432690">
        <ele>844.4</ele>
        <time>2017-07-27T06:45:09Z</time>
      </trkpt>
      <trkpt lat="44.9336440" lon="7.1432510">
        <ele>843.4</ele>
        <time>2017-07-27T06:45:10Z</time>
      </trkpt>
      <trkpt lat="44.9336580" lon="7.1432020">
        <ele>841.8</ele>
        <time>2017-07-27T06:45:12Z</time>
      </trkpt>
      <trkpt lat="44.9336810" lon="7.1431560">
        <ele>841.0</ele>
        <time>2017-07-27T06:45:13Z</time>
      </trkpt>
      <trkpt lat="44.9337200" lon="7.1430980">
        <ele>840.2</ele>
        <time>2017-07-27T06:45:14Z</time>
      </trkpt>
      <trkpt lat="44.9337820" lon="7.1430310">
        <ele>839.4</ele>
        <time>2017-07-27T06:45:15Z</time>
      </trkpt>
      <trkpt lat="44.9338840" lon="7.1429490">
        <ele>838.6</ele>
        <time>2017-07-27T06:45:16Z</time>
      </trkpt>
      <trkpt lat="44.9339980" lon="7.1428780">
        <ele>838.0</ele>
        <time>2017-07-27T06:45:17Z</time>
      </trkpt>
      <trkpt lat="44.9342420" lon="7.1428130">
        <ele>835.2</ele>
        <time>2017-07-27T06:45:19Z</time>
      </trkpt>
      <trkpt lat="44.9343870" lon="7.1427650">
        <ele>834.2</ele>
        <time>2017-07-27T06:45:20Z</time>
      </trkpt>
      <trkpt lat="44.9346100" lon="7.1426280">
        <ele>832.2</ele>
        <time>2017-07-27T06:45:22Z</time>
      </trkpt>
      <trkpt lat="44.9347140" lon="7.1425650">
        <ele>830.4</ele>
        <time>2017-07-27T06:45:24Z</time>
      </trkpt>
      <trkpt lat="44.9347320" lon="7.1424920">
        <ele>827.0</ele>
        <time>2017-07-27T06:45:26Z</time>
      </trkpt>
      <trkpt lat="44.9346970" lon="7.1424820">
        <ele>825.4</ele>
        <time>2017-07-27T06:45:27Z</time>
      </trkpt>
      <trkpt lat="44.9346000" lon="7.1425360">
        <ele>825.6</ele>
        <time>2017-07-27T06:45:29Z</time>
      </trkpt>
      <trkpt lat="44.9343780" lon="7.1425890">
        <ele>824.6</ele>
        <time>2017-07-27T06:45:32Z</time>
      </trkpt>
      <trkpt lat="44.9343280" lon="7.1426020">
        <ele>824.0</ele>
        <time>2017-07-27T06:45:33Z</time>
      </trkpt>
      <trkpt lat="44.9343050" lon="7.1426150">
        <ele>823.2</ele>
        <time>2017-07-27T06:45:34Z</time>
      </trkpt>
      <trkpt lat="44.9343080" lon="7.1425630">
        <ele>822.6</ele>
        <time>2017-07-27T06:45:35Z</time>
      </trkpt>
      <trkpt lat="44.9343260" lon="7.1425150">
        <ele>822.0</ele>
        <time>2017-07-27T06:45:36Z</time>
      </trkpt>
      <trkpt lat="44.9343580" lon="7.1424910">
        <ele>821.4</ele>
        <time>2017-07-27T06:45:37Z</time>
      </trkpt>
      <trkpt lat="44.9344800" lon="7.1424510">
        <ele>820.4</ele>
        <time>2017-07-27T06:45:39Z</time>
      </trkpt>
      <trkpt lat="44.9346840" lon="7.1423810">
        <ele>819.4</ele>
        <time>2017-07-27T06:45:41Z</time>
      </trkpt>
      <trkpt lat="44.9347950" lon="7.1423550">
        <ele>818.8</ele>
        <time>2017-07-27T06:45:42Z</time>
      </trkpt>
      <trkpt lat="44.9348940" lon="7.1423450">
        <ele>817.4</ele>
        <time>2017-07-27T06:45:43Z</time>
      </trkpt>
      <trkpt lat="44.9351770" lon="7.1423410">
        <ele>816.0</ele>
        <time>2017-07-27T06:45:45Z</time>
      </trkpt>
      <trkpt lat="44.9352880" lon="7.1423490">
        <ele>815.4</ele>
        <time>2017-07-27T06:45:46Z</time>
      </trkpt>
      <trkpt lat="44.9353810" lon="7.1423780">
        <ele>814.8</ele>
        <time>2017-07-27T06:45:47Z</time>
      </trkpt>
      <trkpt lat="44.9355900" lon="7.1424500">
        <ele>813.2</ele>
        <time>2017-07-27T06:45:49Z</time>
      </trkpt>
      <trkpt lat="44.9357410" lon="7.1424220">
        <ele>812.2</ele>
        <time>2017-07-27T06:45:50Z</time>
      </trkpt>
      <trkpt lat="44.9358600" lon="7.1423560">
        <ele>811.4</ele>
        <time>2017-07-27T06:45:51Z</time>
      </trkpt>
      <trkpt lat="44.9359600" lon="7.1422710">
        <ele>810.0</ele>
        <time>2017-07-27T06:45:53Z</time>
      </trkpt>
      <trkpt lat="44.9359780" lon="7.1422590">
        <ele>809.2</ele>
        <time>2017-07-27T06:45:54Z</time>
      </trkpt>
      <trkpt lat="44.9359630" lon="7.1422640">
        <ele>806.2</ele>
        <time>2017-07-27T06:45:58Z</time>
      </trkpt>
      <trkpt lat="44.9359430" lon="7.1422630">
        <ele>805.6</ele>
        <time>2017-07-27T06:45:59Z</time>
      </trkpt>
      <trkpt lat="44.9359140" lon="7.1422520">
        <ele>804.8</ele>
        <time>2017-07-27T06:46:00Z</time>
      </trkpt>
      <trkpt lat="44.9357360" lon="7.1421490">
        <ele>803.4</ele>
        <time>2017-07-27T06:46:02Z</time>
      </trkpt>
      <trkpt lat="44.9355720" lon="7.1420570">
        <ele>802.0</ele>
        <time>2017-07-27T06:46:04Z</time>
      </trkpt>
      <trkpt lat="44.9353780" lon="7.1419780">
        <ele>800.6</ele>
        <time>2017-07-27T06:46:06Z</time>
      </trkpt>
      <trkpt lat="44.9352290" lon="7.1419180">
        <ele>799.2</ele>
        <time>2017-07-27T06:46:07Z</time>
      </trkpt>
      <trkpt lat="44.9349820" lon="7.1418660">
        <ele>798.0</ele>
        <time>2017-07-27T06:46:09Z</time>
      </trkpt>
      <trkpt lat="44.9348620" lon="7.1418530">
        <ele>797.6</ele>
        <time>2017-07-27T06:46:10Z</time>
      </trkpt>
      <trkpt lat="44.9347410" lon="7.1418350">
        <ele>796.8</ele>
        <time>2017-07-27T06:46:11Z</time>
      </trkpt>
      <trkpt lat="44.9346100" lon="7.1418230">
        <ele>796.2</ele>
        <time>2017-07-27T06:46:12Z</time>
      </trkpt>
      <trkpt lat="44.9344970" lon="7.1418390">
        <ele>795.6</ele>
        <time>2017-07-27T06:46:13Z</time>
      </trkpt>
      <trkpt lat="44.9343850" lon="7.1418510">
        <ele>795.0</ele>
        <time>2017-07-27T06:46:14Z</time>
      </trkpt>
      <trkpt lat="44.9342870" lon="7.1418620">
        <ele>794.2</ele>
        <time>2017-07-27T06:46:15Z</time>
      </trkpt>
      <trkpt lat="44.9341670" lon="7.1418200">
        <ele>793.4</ele>
        <time>2017-07-27T06:46:16Z</time>
      </trkpt>
      <trkpt lat="44.9340480" lon="7.1417570">
        <ele>792.8</ele>
        <time>2017-07-27T06:46:17Z</time>
      </trkpt>
      <trkpt lat="44.9338760" lon="7.1416180">
        <ele>791.4</ele>
        <time>2017-07-27T06:46:19Z</time>
      </trkpt>
      <trkpt lat="44.9338230" lon="7.1415810">
        <ele>790.8</ele>
        <time>2017-07-27T06:46:20Z</time>
      </trkpt>
      <trkpt lat="44.9337830" lon="7.1415630">
        <ele>790.2</ele>
        <time>2017-07-27T06:46:21Z</time>
      </trkpt>
      <trkpt lat="44.9337610" lon="7.1415610">
        <ele>789.6</ele>
        <time>2017-07-27T06:46:22Z</time>
      </trkpt>
      <trkpt lat="44.9337550" lon="7.1415610">
        <ele>789.0</ele>
        <time>2017-07-27T06:46:23Z</time>
      </trkpt>
      <trkpt lat="44.9337880" lon="7.1415750">
        <ele>788.2</ele>
        <time>2017-07-27T06:46:25Z</time>
      </trkpt>
      <trkpt lat="44.9338250" lon="7.1415820">
        <ele>787.6</ele>
        <time>2017-07-27T06:46:26Z</time>
      </trkpt>
      <trkpt lat="44.9340090" lon="7.1415590">
        <ele>786.2</ele>
        <time>2017-07-27T06:46:28Z</time>
      </trkpt>
      <trkpt lat="44.9342430" lon="7.1415050">
        <ele>785.0</ele>
        <time>2017-07-27T06:46:30Z</time>
      </trkpt>
      <trkpt lat="44.9343620" lon="7.1414870">
        <ele>783.4</ele>
        <time>2017-07-27T06:46:31Z</time>
      </trkpt>
      <trkpt lat="44.9344900" lon="7.1414630">
        <ele>782.6</ele>
        <time>2017-07-27T06:46:32Z</time>
      </trkpt>
      <trkpt lat="44.9346400" lon="7.1414350">
        <ele>782.0</ele>
        <time>2017-07-27T06:46:33Z</time>
      </trkpt>
      <trkpt lat="44.9349310" lon="7.1413710">
        <ele>780.4</ele>
        <time>2017-07-27T06:46:35Z</time>
      </trkpt>
      <trkpt lat="44.9350770" lon="7.1413330">
        <ele>779.6</ele>
        <time>2017-07-27T06:46:36Z</time>
      </trkpt>
      <trkpt lat="44.9352030" lon="7.1412880">
        <ele>778.8</ele>
        <time>2017-07-27T06:46:37Z</time>
      </trkpt>
      <trkpt lat="44.9353300" lon="7.1412160">
        <ele>777.8</ele>
        <time>2017-07-27T06:46:38Z</time>
      </trkpt>
      <trkpt lat="44.9354450" lon="7.1411270">
        <ele>776.8</ele>
        <time>2017-07-27T06:46:39Z</time>
      </trkpt>
      <trkpt lat="44.9355820" lon="7.1408580">
        <ele>775.0</ele>
        <time>2017-07-27T06:46:41Z</time>
      </trkpt>
      <trkpt lat="44.9356320" lon="7.1407260">
        <ele>774.0</ele>
        <time>2017-07-27T06:46:42Z</time>
      </trkpt>
      <trkpt lat="44.9357830" lon="7.1404670">
        <ele>772.0</ele>
        <time>2017-07-27T06:46:44Z</time>
      </trkpt>
      <trkpt lat="44.9358340" lon="7.1402200">
        <ele>770.2</ele>
        <time>2017-07-27T06:46:46Z</time>
      </trkpt>
      <trkpt lat="44.9358070" lon="7.1399670">
        <ele>768.6</ele>
        <time>2017-07-27T06:46:48Z</time>
      </trkpt>
      <trkpt lat="44.9357870" lon="7.1398380">
        <ele>767.6</ele>
        <time>2017-07-27T06:46:49Z</time>
      </trkpt>
      <trkpt lat="44.9357750" lon="7.1397020">
        <ele>766.8</ele>
        <time>2017-07-27T06:46:50Z</time>
      </trkpt>
      <trkpt lat="44.9357700" lon="7.1395640">
        <ele>765.6</ele>
        <time>2017-07-27T06:46:51Z</time>
      </trkpt>
      <trkpt lat="44.9357960" lon="7.1394230">
        <ele>764.6</ele>
        <time>2017-07-27T06:46:52Z</time>
      </trkpt>
      <trkpt lat="44.9359000" lon="7.1392000">
        <ele>762.8</ele>
        <time>2017-07-27T06:46:54Z</time>
      </trkpt>
      <trkpt lat="44.9359580" lon="7.1391210">
        <ele>761.4</ele>
        <time>2017-07-27T06:46:55Z</time>
      </trkpt>
      <trkpt lat="44.9360240" lon="7.1389230">
        <ele>759.8</ele>
        <time>2017-07-27T06:46:57Z</time>
      </trkpt>
      <trkpt lat="44.9360530" lon="7.1388500">
        <ele>759.2</ele>
        <time>2017-07-27T06:46:58Z</time>
      </trkpt>
      <trkpt lat="44.9360250" lon="7.1387740">
        <ele>758.8</ele>
        <time>2017-07-27T06:46:59Z</time>
      </trkpt>
      <trkpt lat="44.9359940" lon="7.1386990">
        <ele>758.2</ele>
        <time>2017-07-27T06:47:00Z</time>
      </trkpt>
      <trkpt lat="44.9359490" lon="7.1386260">
        <ele>757.6</ele>
        <time>2017-07-27T06:47:01Z</time>
      </trkpt>
      <trkpt lat="44.9358990" lon="7.1385490">
        <ele>757.2</ele>
        <time>2017-07-27T06:47:02Z</time>
      </trkpt>
      <trkpt lat="44.9358490" lon="7.1384760">
        <ele>756.8</ele>
        <time>2017-07-27T06:47:03Z</time>
      </trkpt>
      <trkpt lat="44.9357950" lon="7.1384060">
        <ele>756.6</ele>
        <time>2017-07-27T06:47:04Z</time>
      </trkpt>
      <trkpt lat="44.9357410" lon="7.1383380">
        <ele>756.4</ele>
        <time>2017-07-27T06:47:05Z</time>
      </trkpt>
      <trkpt lat="44.9356890" lon="7.1382680">
        <ele>756.0</ele>
        <time>2017-07-27T06:47:06Z</time>
      </trkpt>
      <trkpt lat="44.9355910" lon="7.1381230">
        <ele>755.4</ele>
        <time>2017-07-27T06:47:08Z</time>
      </trkpt>
      <trkpt lat="44.9353950" lon="7.1377980">
        <ele>755.0</ele>
        <time>2017-07-27T06:47:13Z</time>
      </trkpt>
      <trkpt lat="44.9353170" lon="7.1376200">
        <ele>754.8</ele>
        <time>2017-07-27T06:47:15Z</time>
      </trkpt>
      <trkpt lat="44.9351930" lon="7.1372890">
        <ele>754.8</ele>
        <time>2017-07-27T06:47:19Z</time>
      </trkpt>
      <trkpt lat="44.9351660" lon="7.1372140">
        <ele>754.8</ele>
        <time>2017-07-27T06:47:20Z</time>
      </trkpt>
      <trkpt lat="44.9350600" lon="7.1369420">
        <ele>755.4</ele>
        <time>2017-07-27T06:47:24Z</time>
      </trkpt>
      <trkpt lat="44.9350040" lon="7.1368050">
        <ele>755.4</ele>
        <time>2017-07-27T06:47:26Z</time>
      </trkpt>
      <trkpt lat="44.9349820" lon="7.1367360">
        <ele>755.6</ele>
        <time>2017-07-27T06:47:27Z</time>
      </trkpt>
      <trkpt lat="44.9349110" lon="7.1365400">
        <ele>756.2</ele>
        <time>2017-07-27T06:47:30Z</time>
      </trkpt>
      <trkpt lat="44.9348640" lon="7.1364180">
        <ele>756.4</ele>
        <time>2017-07-27T06:47:32Z</time>
      </trkpt>
      <trkpt lat="44.9348220" lon="7.1362930">
        <ele>756.6</ele>
        <time>2017-07-27T06:47:34Z</time>
      </trkpt>
      <trkpt lat="44.9347600" lon="7.1360390">
        <ele>757.4</ele>
        <time>2017-07-27T06:47:38Z</time>
      </trkpt>
      <trkpt lat="44.9347530" lon="7.1359730">
        <ele>757.6</ele>
        <time>2017-07-27T06:47:39Z</time>
      </trkpt>
      <trkpt lat="44.9347070" lon="7.1357430">
        <ele>758.6</ele>
        <time>2017-07-27T06:47:43Z</time>
      </trkpt>
      <trkpt lat="44.9346490" lon="7.1355130">
        <ele>760.0</ele>
        <time>2017-07-27T06:47:47Z</time>
      </trkpt>
      <trkpt lat="44.9346240" lon="7.1353370">
        <ele>760.8</ele>
        <time>2017-07-27T06:47:50Z</time>
      </trkpt>
      <trkpt lat="44.9346180" lon="7.1352760">
        <ele>761.0</ele>
        <time>2017-07-27T06:47:51Z</time>
      </trkpt>
      <trkpt lat="44.9346040" lon="7.1350450">
        <ele>762.4</ele>
        <time>2017-07-27T06:47:55Z</time>
      </trkpt>
      <trkpt lat="44.9346070" lon="7.1349320">
        <ele>762.8</ele>
        <time>2017-07-27T06:47:57Z</time>
      </trkpt>
      <trkpt lat="44.9345970" lon="7.1347660">
        <ele>763.6</ele>
        <time>2017-07-27T06:48:00Z</time>
      </trkpt>
      <trkpt lat="44.9345710" lon="7.1345880">
        <ele>764.6</ele>
        <time>2017-07-27T06:48:03Z</time>
      </trkpt>
      <trkpt lat="44.9345230" lon="7.1343480">
        <ele>765.6</ele>
        <time>2017-07-27T06:48:07Z</time>
      </trkpt>
      <trkpt lat="44.9345020" lon="7.1341620">
        <ele>766.8</ele>
        <time>2017-07-27T06:48:10Z</time>
      </trkpt>
      <trkpt lat="44.9344990" lon="7.1341000">
        <ele>767.2</ele>
        <time>2017-07-27T06:48:11Z</time>
      </trkpt>
      <trkpt lat="44.9344990" lon="7.1340390">
        <ele>767.4</ele>
        <time>2017-07-27T06:48:12Z</time>
      </trkpt>
      <trkpt lat="44.9344920" lon="7.1339220">
        <ele>767.8</ele>
        <time>2017-07-27T06:48:14Z</time>
      </trkpt>
      <trkpt lat="44.9344540" lon="7.1337060">
        <ele>768.8</ele>
        <time>2017-07-27T06:48:18Z</time>
      </trkpt>
      <trkpt lat="44.9344390" lon="7.1336510">
        <ele>769.0</ele>
        <time>2017-07-27T06:48:19Z</time>
      </trkpt>
      <trkpt lat="44.9343870" lon="7.1333270">
        <ele>770.0</ele>
        <time>2017-07-27T06:48:24Z</time>
      </trkpt>
      <trkpt lat="44.9343780" lon="7.1332570">
        <ele>770.2</ele>
        <time>2017-07-27T06:48:25Z</time>
      </trkpt>
      <trkpt lat="44.9343680" lon="7.1331220">
        <ele>770.6</ele>
        <time>2017-07-27T06:48:27Z</time>
      </trkpt>
      <trkpt lat="44.9343760" lon="7.1328540">
        <ele>771.0</ele>
        <time>2017-07-27T06:48:31Z</time>
      </trkpt>
      <trkpt lat="44.9343780" lon="7.1327800">
        <ele>771.4</ele>
        <time>2017-07-27T06:48:32Z</time>
      </trkpt>
      <trkpt lat="44.9343810" lon="7.1324890">
        <ele>772.2</ele>
        <time>2017-07-27T06:48:36Z</time>
      </trkpt>
      <trkpt lat="44.9343790" lon="7.1321140">
        <ele>773.2</ele>
        <time>2017-07-27T06:48:41Z</time>
      </trkpt>
      <trkpt lat="44.9343730" lon="7.1320350">
        <ele>773.2</ele>
        <time>2017-07-27T06:48:42Z</time>
      </trkpt>
      <trkpt lat="44.9343420" lon="7.1317170">
        <ele>773.6</ele>
        <time>2017-07-27T06:48:46Z</time>
      </trkpt>
      <trkpt lat="44.9343070" lon="7.1314810">
        <ele>773.8</ele>
        <time>2017-07-27T06:48:49Z</time>
      </trkpt>
      <trkpt lat="44.9342690" lon="7.1310810">
        <ele>774.2</ele>
        <time>2017-07-27T06:48:54Z</time>
      </trkpt>
      <trkpt lat="44.9342640" lon="7.1309200">
        <ele>774.6</ele>
        <time>2017-07-27T06:48:56Z</time>
      </trkpt>
      <trkpt lat="44.9342600" lon="7.1308360">
        <ele>774.6</ele>
        <time>2017-07-27T06:48:57Z</time>
      </trkpt>
      <trkpt lat="44.9342940" lon="7.1303310">
        <ele>775.0</ele>
        <time>2017-07-27T06:49:03Z</time>
      </trkpt>
      <trkpt lat="44.9343850" lon="7.1299300">
        <ele>775.4</ele>
        <time>2017-07-27T06:49:08Z</time>
      </trkpt>
      <trkpt lat="44.9344730" lon="7.1297070">
        <ele>775.6</ele>
        <time>2017-07-27T06:49:11Z</time>
      </trkpt>
      <trkpt lat="44.9347210" lon="7.1292880">
        <ele>776.4</ele>
        <time>2017-07-27T06:49:18Z</time>
      </trkpt>
      <trkpt lat="44.9347590" lon="7.1292360">
        <ele>776.6</ele>
        <time>2017-07-27T06:49:19Z</time>
      </trkpt>
      <trkpt lat="44.9349390" lon="7.1289640">
        <ele>777.8</ele>
        <time>2017-07-27T06:49:24Z</time>
      </trkpt>
      <trkpt lat="44.9350540" lon="7.1288020">
        <ele>778.4</ele>
        <time>2017-07-27T06:49:27Z</time>
      </trkpt>
      <trkpt lat="44.9351630" lon="7.1286400">
        <ele>779.0</ele>
        <time>2017-07-27T06:49:30Z</time>
      </trkpt>
      <trkpt lat="44.9353440" lon="7.1283760">
        <ele>779.8</ele>
        <time>2017-07-27T06:49:35Z</time>
      </trkpt>
      <trkpt lat="44.9353820" lon="7.1283290">
        <ele>780.0</ele>
        <time>2017-07-27T06:49:36Z</time>
      </trkpt>
      <trkpt lat="44.9355710" lon="7.1281310">
        <ele>780.8</ele>
        <time>2017-07-27T06:49:41Z</time>
      </trkpt>
      <trkpt lat="44.9356130" lon="7.1281010">
        <ele>781.0</ele>
        <time>2017-07-27T06:49:42Z</time>
      </trkpt>
      <trkpt lat="44.9356530" lon="7.1280710">
        <ele>781.2</ele>
        <time>2017-07-27T06:49:43Z</time>
      </trkpt>
      <trkpt lat="44.9358150" lon="7.1279690">
        <ele>782.0</ele>
        <time>2017-07-27T06:49:47Z</time>
      </trkpt>
      <trkpt lat="44.9358570" lon="7.1279490">
        <ele>782.2</ele>
        <time>2017-07-27T06:49:48Z</time>
      </trkpt>
      <trkpt lat="44.9361050" lon="7.1278370">
        <ele>783.4</ele>
        <time>2017-07-27T06:49:54Z</time>
      </trkpt>
      <trkpt lat="44.9361470" lon="7.1278170">
        <ele>783.6</ele>
        <time>2017-07-27T06:49:55Z</time>
      </trkpt>
      <trkpt lat="44.9363280" lon="7.1277450">
        <ele>784.6</ele>
        <time>2017-07-27T06:49:59Z</time>
      </trkpt>
      <trkpt lat="44.9364210" lon="7.1277050">
        <ele>785.0</ele>
        <time>2017-07-27T06:50:01Z</time>
      </trkpt>
      <trkpt lat="44.9366050" lon="7.1276260">
        <ele>785.6</ele>
        <time>2017-07-27T06:50:05Z</time>
      </trkpt>
      <trkpt lat="44.9366930" lon="7.1275670">
        <ele>785.8</ele>
        <time>2017-07-27T06:50:07Z</time>
      </trkpt>
      <trkpt lat="44.9367350" lon="7.1275350">
        <ele>786.2</ele>
        <time>2017-07-27T06:50:08Z</time>
      </trkpt>
      <trkpt lat="44.9368610" lon="7.1274270">
        <ele>786.6</ele>
        <time>2017-07-27T06:50:11Z</time>
      </trkpt>
      <trkpt lat="44.9370630" lon="7.1271960">
        <ele>787.2</ele>
        <time>2017-07-27T06:50:16Z</time>
      </trkpt>
      <trkpt lat="44.9371930" lon="7.1270700">
        <ele>787.8</ele>
        <time>2017-07-27T06:50:19Z</time>
      </trkpt>
      <trkpt lat="44.9372390" lon="7.1270390">
        <ele>787.8</ele>
        <time>2017-07-27T06:50:20Z</time>
      </trkpt>
      <trkpt lat="44.9373390" lon="7.1269880">
        <ele>787.2</ele>
        <time>2017-07-27T06:50:22Z</time>
      </trkpt>
      <trkpt lat="44.9373860" lon="7.1269550">
        <ele>787.4</ele>
        <time>2017-07-27T06:50:23Z</time>
      </trkpt>
      <trkpt lat="44.9376290" lon="7.1268040">
        <ele>787.6</ele>
        <time>2017-07-27T06:50:28Z</time>
      </trkpt>
      <trkpt lat="44.9376790" lon="7.1267770">
        <ele>789.0</ele>
        <time>2017-07-27T06:50:29Z</time>
      </trkpt>
      <trkpt lat="44.9379150" lon="7.1266060">
        <ele>789.8</ele>
        <time>2017-07-27T06:50:34Z</time>
      </trkpt>
      <trkpt lat="44.9380050" lon="7.1265250">
        <ele>790.0</ele>
        <time>2017-07-27T06:50:36Z</time>
      </trkpt>
      <trkpt lat="44.9381720" lon="7.1263450">
        <ele>790.4</ele>
        <time>2017-07-27T06:50:40Z</time>
      </trkpt>
      <trkpt lat="44.9383230" lon="7.1261650">
        <ele>791.2</ele>
        <time>2017-07-27T06:50:44Z</time>
      </trkpt>
      <trkpt lat="44.9383570" lon="7.1261160">
        <ele>791.2</ele>
        <time>2017-07-27T06:50:45Z</time>
      </trkpt>
      <trkpt lat="44.9384570" lon="7.1259510">
        <ele>791.8</ele>
        <time>2017-07-27T06:50:48Z</time>
      </trkpt>
      <trkpt lat="44.9384820" lon="7.1258890">
        <ele>792.0</ele>
        <time>2017-07-27T06:50:49Z</time>
      </trkpt>
      <trkpt lat="44.9385070" lon="7.1258250">
        <ele>792.4</ele>
        <time>2017-07-27T06:50:50Z</time>
      </trkpt>
      <trkpt lat="44.9385680" lon="7.1256280">
        <ele>793.0</ele>
        <time>2017-07-27T06:50:53Z</time>
      </trkpt>
      <trkpt lat="44.9386010" lon="7.1254890">
        <ele>793.4</ele>
        <time>2017-07-27T06:50:55Z</time>
      </trkpt>
      <trkpt lat="44.9386430" lon="7.1252740">
        <ele>794.6</ele>
        <time>2017-07-27T06:50:58Z</time>
      </trkpt>
      <trkpt lat="44.9386810" lon="7.1250620">
        <ele>795.4</ele>
        <time>2017-07-27T06:51:01Z</time>
      </trkpt>
      <trkpt lat="44.9387040" lon="7.1249220">
        <ele>795.8</ele>
        <time>2017-07-27T06:51:03Z</time>
      </trkpt>
      <trkpt lat="44.9387360" lon="7.1244990">
        <ele>796.8</ele>
        <time>2017-07-27T06:51:09Z</time>
      </trkpt>
      <trkpt lat="44.9387190" lon="7.1240730">
        <ele>797.8</ele>
        <time>2017-07-27T06:51:15Z</time>
      </trkpt>
      <trkpt lat="44.9387060" lon="7.1239980">
        <ele>798.0</ele>
        <time>2017-07-27T06:51:16Z</time>
      </trkpt>
      <trkpt lat="44.9386130" lon="7.1235550">
        <ele>799.0</ele>
        <time>2017-07-27T06:51:22Z</time>
      </trkpt>
      <trkpt lat="44.9385980" lon="7.1234820">
        <ele>799.0</ele>
        <time>2017-07-27T06:51:23Z</time>
      </trkpt>
      <trkpt lat="44.9384950" lon="7.1229950">
        <ele>799.8</ele>
        <time>2017-07-27T06:51:30Z</time>
      </trkpt>
      <trkpt lat="44.9384520" lon="7.1228710">
        <ele>800.0</ele>
        <time>2017-07-27T06:51:32Z</time>
      </trkpt>
      <trkpt lat="44.9383340" lon="7.1225900">
        <ele>800.6</ele>
        <time>2017-07-27T06:51:37Z</time>
      </trkpt>
      <trkpt lat="44.9382790" lon="7.1224750">
        <ele>801.0</ele>
        <time>2017-07-27T06:51:39Z</time>
      </trkpt>
      <trkpt lat="44.9381450" lon="7.1221800">
        <ele>802.0</ele>
        <time>2017-07-27T06:51:44Z</time>
      </trkpt>
      <trkpt lat="44.9379580" lon="7.1218790">
        <ele>802.8</ele>
        <time>2017-07-27T06:51:50Z</time>
      </trkpt>
      <trkpt lat="44.9379220" lon="7.1218280">
        <ele>803.0</ele>
        <time>2017-07-27T06:51:51Z</time>
      </trkpt>
      <trkpt lat="44.9377030" lon="7.1216010">
        <ele>804.0</ele>
        <time>2017-07-27T06:51:56Z</time>
      </trkpt>
      <trkpt lat="44.9376550" lon="7.1215610">
        <ele>804.2</ele>
        <time>2017-07-27T06:51:57Z</time>
      </trkpt>
      <trkpt lat="44.9373540" lon="7.1213560">
        <ele>804.6</ele>
        <time>2017-07-27T06:52:03Z</time>
      </trkpt>
      <trkpt lat="44.9370890" lon="7.1212050">
        <ele>805.2</ele>
        <time>2017-07-27T06:52:08Z</time>
      </trkpt>
      <trkpt lat="44.9368760" lon="7.1210740">
        <ele>805.6</ele>
        <time>2017-07-27T06:52:12Z</time>
      </trkpt>
      <trkpt lat="44.9364980" lon="7.1208580">
        <ele>806.2</ele>
        <time>2017-07-27T06:52:19Z</time>
      </trkpt>
      <trkpt lat="44.9364440" lon="7.1208260">
        <ele>806.6</ele>
        <time>2017-07-27T06:52:20Z</time>
      </trkpt>
      <trkpt lat="44.9361780" lon="7.1206650">
        <ele>807.4</ele>
        <time>2017-07-27T06:52:25Z</time>
      </trkpt>
      <trkpt lat="44.9358080" lon="7.1204410">
        <ele>808.4</ele>
        <time>2017-07-27T06:52:32Z</time>
      </trkpt>
      <trkpt lat="44.9354920" lon="7.1202540">
        <ele>809.6</ele>
        <time>2017-07-27T06:52:38Z</time>
      </trkpt>
      <trkpt lat="44.9354430" lon="7.1202230">
        <ele>809.8</ele>
        <time>2017-07-27T06:52:39Z</time>
      </trkpt>
      <trkpt lat="44.9351970" lon="7.1200840">
        <ele>810.6</ele>
        <time>2017-07-27T06:52:44Z</time>
      </trkpt>
      <trkpt lat="44.9350980" lon="7.1200270">
        <ele>811.2</ele>
        <time>2017-07-27T06:52:46Z</time>
      </trkpt>
      <trkpt lat="44.9349540" lon="7.1199360">
        <ele>811.8</ele>
        <time>2017-07-27T06:52:49Z</time>
      </trkpt>
      <trkpt lat="44.9347260" lon="7.1197860">
        <ele>812.8</ele>
        <time>2017-07-27T06:52:54Z</time>
      </trkpt>
      <trkpt lat="44.9346830" lon="7.1197550">
        <ele>813.0</ele>
        <time>2017-07-27T06:52:55Z</time>
      </trkpt>
      <trkpt lat="44.9345910" lon="7.1196970">
        <ele>814.0</ele>
        <time>2017-07-27T06:52:57Z</time>
      </trkpt>
      <trkpt lat="44.9344500" lon="7.1195970">
        <ele>815.0</ele>
        <time>2017-07-27T06:53:00Z</time>
      </trkpt>
      <trkpt lat="44.9344070" lon="7.1195550">
        <ele>815.2</ele>
        <time>2017-07-27T06:53:01Z</time>
      </trkpt>
      <trkpt lat="44.9343650" lon="7.1195110">
        <ele>815.6</ele>
        <time>2017-07-27T06:53:02Z</time>
      </trkpt>
      <trkpt lat="44.9343260" lon="7.1194670">
        <ele>816.0</ele>
        <time>2017-07-27T06:53:03Z</time>
      </trkpt>
      <trkpt lat="44.9342140" lon="7.1193320">
        <ele>817.0</ele>
        <time>2017-07-27T06:53:06Z</time>
      </trkpt>
      <trkpt lat="44.9341830" lon="7.1192770">
        <ele>817.4</ele>
        <time>2017-07-27T06:53:07Z</time>
      </trkpt>
      <trkpt lat="44.9341540" lon="7.1192170">
        <ele>817.8</ele>
        <time>2017-07-27T06:53:08Z</time>
      </trkpt>
      <trkpt lat="44.9340740" lon="7.1190450">
        <ele>818.6</ele>
        <time>2017-07-27T06:53:11Z</time>
      </trkpt>
      <trkpt lat="44.9340090" lon="7.1188540">
        <ele>819.8</ele>
        <time>2017-07-27T06:53:14Z</time>
      </trkpt>
      <trkpt lat="44.9339900" lon="7.1187910">
        <ele>820.0</ele>
        <time>2017-07-27T06:53:15Z</time>
      </trkpt>
      <trkpt lat="44.9339530" lon="7.1186610">
        <ele>820.8</ele>
        <time>2017-07-27T06:53:17Z</time>
      </trkpt>
      <trkpt lat="44.9339030" lon="7.1184650">
        <ele>822.2</ele>
        <time>2017-07-27T06:53:20Z</time>
      </trkpt>
      <trkpt lat="44.9338730" lon="7.1182540">
        <ele>823.2</ele>
        <time>2017-07-27T06:53:23Z</time>
      </trkpt>
      <trkpt lat="44.9338710" lon="7.1181870">
        <ele>823.4</ele>
        <time>2017-07-27T06:53:24Z</time>
      </trkpt>
      <trkpt lat="44.9338860" lon="7.1179780">
        <ele>824.2</ele>
        <time>2017-07-27T06:53:27Z</time>
      </trkpt>
      <trkpt lat="44.9339240" lon="7.1178370">
        <ele>824.6</ele>
        <time>2017-07-27T06:53:29Z</time>
      </trkpt>
      <trkpt lat="44.9340010" lon="7.1176290">
        <ele>825.2</ele>
        <time>2017-07-27T06:53:32Z</time>
      </trkpt>
      <trkpt lat="44.9340850" lon="7.1175260">
        <ele>825.6</ele>
        <time>2017-07-27T06:53:34Z</time>
      </trkpt>
      <trkpt lat="44.9341830" lon="7.1174390">
        <ele>826.0</ele>
        <time>2017-07-27T06:53:36Z</time>
      </trkpt>
      <trkpt lat="44.9342790" lon="7.1173580">
        <ele>826.4</ele>
        <time>2017-07-27T06:53:38Z</time>
      </trkpt>
      <trkpt lat="44.9343750" lon="7.1172760">
        <ele>826.8</ele>
        <time>2017-07-27T06:53:40Z</time>
      </trkpt>
      <trkpt lat="44.9345070" lon="7.1171320">
        <ele>827.4</ele>
        <time>2017-07-27T06:53:43Z</time>
      </trkpt>
      <trkpt lat="44.9346360" lon="7.1169910">
        <ele>828.4</ele>
        <time>2017-07-27T06:53:46Z</time>
      </trkpt>
      <trkpt lat="44.9346800" lon="7.1169460">
        <ele>828.6</ele>
        <time>2017-07-27T06:53:47Z</time>
      </trkpt>
      <trkpt lat="44.9348750" lon="7.1167100">
        <ele>829.8</ele>
        <time>2017-07-27T06:53:52Z</time>
      </trkpt>
      <trkpt lat="44.9349120" lon="7.1166680">
        <ele>830.0</ele>
        <time>2017-07-27T06:53:53Z</time>
      </trkpt>
      <trkpt lat="44.9350320" lon="7.1165400">
        <ele>831.0</ele>
        <time>2017-07-27T06:53:56Z</time>
      </trkpt>
      <trkpt lat="44.9351440" lon="7.1164030">
        <ele>831.6</ele>
        <time>2017-07-27T06:53:59Z</time>
      </trkpt>
      <trkpt lat="44.9352240" lon="7.1163090">
        <ele>832.2</ele>
        <time>2017-07-27T06:54:01Z</time>
      </trkpt>
      <trkpt lat="44.9354340" lon="7.1160930">
        <ele>833.4</ele>
        <time>2017-07-27T06:54:06Z</time>
      </trkpt>
      <trkpt lat="44.9356100" lon="7.1159260">
        <ele>834.4</ele>
        <time>2017-07-27T06:54:10Z</time>
      </trkpt>
      <trkpt lat="44.9356570" lon="7.1158830">
        <ele>834.8</ele>
        <time>2017-07-27T06:54:11Z</time>
      </trkpt>
      <trkpt lat="44.9358020" lon="7.1157510">
        <ele>835.6</ele>
        <time>2017-07-27T06:54:14Z</time>
      </trkpt>
      <trkpt lat="44.9359900" lon="7.1155690">
        <ele>836.2</ele>
        <time>2017-07-27T06:54:18Z</time>
      </trkpt>
      <trkpt lat="44.9360380" lon="7.1155300">
        <ele>836.6</ele>
        <time>2017-07-27T06:54:19Z</time>
      </trkpt>
      <trkpt lat="44.9363510" lon="7.1153600">
        <ele>837.6</ele>
        <time>2017-07-27T06:54:25Z</time>
      </trkpt>
      <trkpt lat="44.9366120" lon="7.1152330">
        <ele>838.2</ele>
        <time>2017-07-27T06:54:30Z</time>
      </trkpt>
      <trkpt lat="44.9367130" lon="7.1151860">
        <ele>839.0</ele>
        <time>2017-07-27T06:54:32Z</time>
      </trkpt>
      <trkpt lat="44.9369220" lon="7.1151430">
        <ele>839.8</ele>
        <time>2017-07-27T06:54:36Z</time>
      </trkpt>
      <trkpt lat="44.9370230" lon="7.1151280">
        <ele>840.2</ele>
        <time>2017-07-27T06:54:38Z</time>
      </trkpt>
      <trkpt lat="44.9372290" lon="7.1151340">
        <ele>841.4</ele>
        <time>2017-07-27T06:54:42Z</time>
      </trkpt>
      <trkpt lat="44.9372750" lon="7.1151360">
        <ele>841.6</ele>
        <time>2017-07-27T06:54:43Z</time>
      </trkpt>
      <trkpt lat="44.9374700" lon="7.1151170">
        <ele>842.6</ele>
        <time>2017-07-27T06:54:47Z</time>
      </trkpt>
      <trkpt lat="44.9375660" lon="7.1151030">
        <ele>843.0</ele>
        <time>2017-07-27T06:54:49Z</time>
      </trkpt>
      <trkpt lat="44.9376180" lon="7.1150820">
        <ele>843.0</ele>
        <time>2017-07-27T06:54:50Z</time>
      </trkpt>
      <trkpt lat="44.9377750" lon="7.1150110">
        <ele>843.8</ele>
        <time>2017-07-27T06:54:53Z</time>
      </trkpt>
      <trkpt lat="44.9378240" lon="7.1149800">
        <ele>844.0</ele>
        <time>2017-07-27T06:54:54Z</time>
      </trkpt>
      <trkpt lat="44.9379210" lon="7.1149360">
        <ele>844.6</ele>
        <time>2017-07-27T06:54:56Z</time>
      </trkpt>
      <trkpt lat="44.9380190" lon="7.1149000">
        <ele>845.0</ele>
        <time>2017-07-27T06:54:58Z</time>
      </trkpt>
      <trkpt lat="44.9381170" lon="7.1148560">
        <ele>845.6</ele>
        <time>2017-07-27T06:55:00Z</time>
      </trkpt>
      <trkpt lat="44.9382100" lon="7.1148150">
        <ele>846.0</ele>
        <time>2017-07-27T06:55:02Z</time>
      </trkpt>
      <trkpt lat="44.9383330" lon="7.1147370">
        <ele>846.6</ele>
        <time>2017-07-27T06:55:05Z</time>
      </trkpt>
      <trkpt lat="44.9383730" lon="7.1146900">
        <ele>847.0</ele>
        <time>2017-07-27T06:55:06Z</time>
      </trkpt>
      <trkpt lat="44.9384030" lon="7.1146290">
        <ele>847.2</ele>
        <time>2017-07-27T06:55:07Z</time>
      </trkpt>
      <trkpt lat="44.9384430" lon="7.1144860">
        <ele>847.4</ele>
        <time>2017-07-27T06:55:09Z</time>
      </trkpt>
      <trkpt lat="44.9384610" lon="7.1144100">
        <ele>847.8</ele>
        <time>2017-07-27T06:55:10Z</time>
      </trkpt>
      <trkpt lat="44.9385020" lon="7.1141690">
        <ele>848.2</ele>
        <time>2017-07-27T06:55:13Z</time>
      </trkpt>
      <trkpt lat="44.9385340" lon="7.1139130">
        <ele>848.6</ele>
        <time>2017-07-27T06:55:16Z</time>
      </trkpt>
      <trkpt lat="44.9385670" lon="7.1135570">
        <ele>849.2</ele>
        <time>2017-07-27T06:55:20Z</time>
      </trkpt>
      <trkpt lat="44.9385930" lon="7.1133800">
        <ele>849.4</ele>
        <time>2017-07-27T06:55:22Z</time>
      </trkpt>
      <trkpt lat="44.9386090" lon="7.1132960">
        <ele>849.6</ele>
        <time>2017-07-27T06:55:23Z</time>
      </trkpt>
      <trkpt lat="44.9386340" lon="7.1132150">
        <ele>849.6</ele>
        <time>2017-07-27T06:55:24Z</time>
      </trkpt>
      <trkpt lat="44.9387700" lon="7.1128120">
        <ele>849.8</ele>
        <time>2017-07-27T06:55:29Z</time>
      </trkpt>
      <trkpt lat="44.9389120" lon="7.1124070">
        <ele>850.0</ele>
        <time>2017-07-27T06:55:34Z</time>
      </trkpt>
      <trkpt lat="44.9390300" lon="7.1120810">
        <ele>850.0</ele>
        <time>2017-07-27T06:55:38Z</time>
      </trkpt>
      <trkpt lat="44.9390870" lon="7.1119220">
        <ele>850.2</ele>
        <time>2017-07-27T06:55:40Z</time>
      </trkpt>
      <trkpt lat="44.9392440" lon="7.1114040">
        <ele>851.4</ele>
        <time>2017-07-27T06:55:47Z</time>
      </trkpt>
      <trkpt lat="44.9392660" lon="7.1112690">
        <ele>851.8</ele>
        <time>2017-07-27T06:55:49Z</time>
      </trkpt>
      <trkpt lat="44.9392540" lon="7.1110500">
        <ele>852.6</ele>
        <time>2017-07-27T06:55:52Z</time>
      </trkpt>
      <trkpt lat="44.9392210" lon="7.1107510">
        <ele>853.8</ele>
        <time>2017-07-27T06:55:56Z</time>
      </trkpt>
      <trkpt lat="44.9391970" lon="7.1106710">
        <ele>854.2</ele>
        <time>2017-07-27T06:55:57Z</time>
      </trkpt>
      <trkpt lat="44.9391790" lon="7.1105950">
        <ele>854.4</ele>
        <time>2017-07-27T06:55:58Z</time>
      </trkpt>
      <trkpt lat="44.9391390" lon="7.1103820">
        <ele>855.0</ele>
        <time>2017-07-27T06:56:01Z</time>
      </trkpt>
      <trkpt lat="44.9391010" lon="7.1101790">
        <ele>856.2</ele>
        <time>2017-07-27T06:56:04Z</time>
      </trkpt>
      <trkpt lat="44.9390860" lon="7.1100470">
        <ele>856.6</ele>
        <time>2017-07-27T06:56:06Z</time>
      </trkpt>
      <trkpt lat="44.9390690" lon="7.1099210">
        <ele>857.2</ele>
        <time>2017-07-27T06:56:08Z</time>
      </trkpt>
      <trkpt lat="44.9390140" lon="7.1096050">
        <ele>858.4</ele>
        <time>2017-07-27T06:56:13Z</time>
      </trkpt>
      <trkpt lat="44.9389830" lon="7.1094200">
        <ele>859.0</ele>
        <time>2017-07-27T06:56:16Z</time>
      </trkpt>
      <trkpt lat="44.9389670" lon="7.1092950">
        <ele>859.6</ele>
        <time>2017-07-27T06:56:18Z</time>
      </trkpt>
      <trkpt lat="44.9389340" lon="7.1090420">
        <ele>860.6</ele>
        <time>2017-07-27T06:56:22Z</time>
      </trkpt>
      <trkpt lat="44.9389330" lon="7.1089800">
        <ele>860.8</ele>
        <time>2017-07-27T06:56:23Z</time>
      </trkpt>
      <trkpt lat="44.9389310" lon="7.1088530">
        <ele>861.2</ele>
        <time>2017-07-27T06:56:25Z</time>
      </trkpt>
      <trkpt lat="44.9389440" lon="7.1087270">
        <ele>861.8</ele>
        <time>2017-07-27T06:56:27Z</time>
      </trkpt>
      <trkpt lat="44.9390000" lon="7.1084790">
        <ele>863.0</ele>
        <time>2017-07-27T06:56:31Z</time>
      </trkpt>
      <trkpt lat="44.9390180" lon="7.1084200">
        <ele>863.6</ele>
        <time>2017-07-27T06:56:32Z</time>
      </trkpt>
      <trkpt lat="44.9390620" lon="7.1083040">
        <ele>864.2</ele>
        <time>2017-07-27T06:56:34Z</time>
      </trkpt>
      <trkpt lat="44.9391230" lon="7.1081430">
        <ele>865.2</ele>
        <time>2017-07-27T06:56:37Z</time>
      </trkpt>
      <trkpt lat="44.9391460" lon="7.1080870">
        <ele>865.4</ele>
        <time>2017-07-27T06:56:38Z</time>
      </trkpt>
      <trkpt lat="44.9392260" lon="7.1078630">
        <ele>866.8</ele>
        <time>2017-07-27T06:56:42Z</time>
      </trkpt>
      <trkpt lat="44.9392910" lon="7.1077000">
        <ele>867.6</ele>
        <time>2017-07-27T06:56:45Z</time>
      </trkpt>
      <trkpt lat="44.9393120" lon="7.1076490">
        <ele>867.8</ele>
        <time>2017-07-27T06:56:46Z</time>
      </trkpt>
      <trkpt lat="44.9394180" lon="7.1073970">
        <ele>869.0</ele>
        <time>2017-07-27T06:56:51Z</time>
      </trkpt>
      <trkpt lat="44.9394780" lon="7.1072510">
        <ele>869.8</ele>
        <time>2017-07-27T06:56:54Z</time>
      </trkpt>
      <trkpt lat="44.9394990" lon="7.1072030">
        <ele>870.0</ele>
        <time>2017-07-27T06:56:55Z</time>
      </trkpt>
      <trkpt lat="44.9395800" lon="7.1070110">
        <ele>871.2</ele>
        <time>2017-07-27T06:56:59Z</time>
      </trkpt>
      <trkpt lat="44.9396640" lon="7.1067680">
        <ele>872.2</ele>
        <time>2017-07-27T06:57:04Z</time>
      </trkpt>
      <trkpt lat="44.9396740" lon="7.1067150">
        <ele>872.4</ele>
        <time>2017-07-27T06:57:05Z</time>
      </trkpt>
      <trkpt lat="44.9397080" lon="7.1065580">
        <ele>873.2</ele>
        <time>2017-07-27T06:57:08Z</time>
      </trkpt>
      <trkpt lat="44.9397410" lon="7.1063930">
        <ele>873.8</ele>
        <time>2017-07-27T06:57:11Z</time>
      </trkpt>
      <trkpt lat="44.9397550" lon="7.1062300">
        <ele>874.4</ele>
        <time>2017-07-27T06:57:14Z</time>
      </trkpt>
      <trkpt lat="44.9397710" lon="7.1060500">
        <ele>875.6</ele>
        <time>2017-07-27T06:57:17Z</time>
      </trkpt>
      <trkpt lat="44.9397790" lon="7.1059890">
        <ele>875.8</ele>
        <time>2017-07-27T06:57:18Z</time>
      </trkpt>
      <trkpt lat="44.9398150" lon="7.1058140">
        <ele>876.8</ele>
        <time>2017-07-27T06:57:21Z</time>
      </trkpt>
      <trkpt lat="44.9398750" lon="7.1055890">
        <ele>878.0</ele>
        <time>2017-07-27T06:57:25Z</time>
      </trkpt>
      <trkpt lat="44.9398890" lon="7.1055310">
        <ele>878.2</ele>
        <time>2017-07-27T06:57:26Z</time>
      </trkpt>
      <trkpt lat="44.9399660" lon="7.1053210">
        <ele>879.2</ele>
        <time>2017-07-27T06:57:30Z</time>
      </trkpt>
      <trkpt lat="44.9400350" lon="7.1051660">
        <ele>880.0</ele>
        <time>2017-07-27T06:57:33Z</time>
      </trkpt>
      <trkpt lat="44.9400570" lon="7.1051130">
        <ele>880.4</ele>
        <time>2017-07-27T06:57:34Z</time>
      </trkpt>
      <trkpt lat="44.9401250" lon="7.1049790">
        <ele>881.4</ele>
        <time>2017-07-27T06:57:37Z</time>
      </trkpt>
      <trkpt lat="44.9402020" lon="7.1047860">
        <ele>882.6</ele>
        <time>2017-07-27T06:57:41Z</time>
      </trkpt>
      <trkpt lat="44.9402350" lon="7.1046120">
        <ele>883.8</ele>
        <time>2017-07-27T06:57:44Z</time>
      </trkpt>
      <trkpt lat="44.9402500" lon="7.1044160">
        <ele>884.6</ele>
        <time>2017-07-27T06:57:47Z</time>
      </trkpt>
      <trkpt lat="44.9402520" lon="7.1043550">
        <ele>884.8</ele>
        <time>2017-07-27T06:57:48Z</time>
      </trkpt>
      <trkpt lat="44.9402920" lon="7.1041160">
        <ele>886.0</ele>
        <time>2017-07-27T06:57:52Z</time>
      </trkpt>
      <trkpt lat="44.9403180" lon="7.1040680">
        <ele>886.2</ele>
        <time>2017-07-27T06:57:53Z</time>
      </trkpt>
      <trkpt lat="44.9403970" lon="7.1038600">
        <ele>887.2</ele>
        <time>2017-07-27T06:57:57Z</time>
      </trkpt>
      <trkpt lat="44.9404510" lon="7.1037130">
        <ele>888.0</ele>
        <time>2017-07-27T06:58:00Z</time>
      </trkpt>
      <trkpt lat="44.9404750" lon="7.1036650">
        <ele>888.2</ele>
        <time>2017-07-27T06:58:01Z</time>
      </trkpt>
      <trkpt lat="44.9405790" lon="7.1034350">
        <ele>889.4</ele>
        <time>2017-07-27T06:58:06Z</time>
      </trkpt>
      <trkpt lat="44.9406300" lon="7.1032930">
        <ele>890.4</ele>
        <time>2017-07-27T06:58:09Z</time>
      </trkpt>
      <trkpt lat="44.9406490" lon="7.1032450">
        <ele>890.8</ele>
        <time>2017-07-27T06:58:10Z</time>
      </trkpt>
      <trkpt lat="44.9407290" lon="7.1030640">
        <ele>891.8</ele>
        <time>2017-07-27T06:58:14Z</time>
      </trkpt>
      <trkpt lat="44.9407990" lon="7.1028730">
        <ele>892.8</ele>
        <time>2017-07-27T06:58:18Z</time>
      </trkpt>
      <trkpt lat="44.9408640" lon="7.1026900">
        <ele>893.8</ele>
        <time>2017-07-27T06:58:22Z</time>
      </trkpt>
      <trkpt lat="44.9409060" lon="7.1025470">
        <ele>894.6</ele>
        <time>2017-07-27T06:58:25Z</time>
      </trkpt>
      <trkpt lat="44.9409180" lon="7.1025000">
        <ele>895.0</ele>
        <time>2017-07-27T06:58:26Z</time>
      </trkpt>
      <trkpt lat="44.9409630" lon="7.1023570">
        <ele>896.0</ele>
        <time>2017-07-27T06:58:29Z</time>
      </trkpt>
      <trkpt lat="44.9410080" lon="7.1022170">
        <ele>897.0</ele>
        <time>2017-07-27T06:58:32Z</time>
      </trkpt>
      <trkpt lat="44.9410850" lon="7.1021130">
        <ele>898.2</ele>
        <time>2017-07-27T06:58:35Z</time>
      </trkpt>
      <trkpt lat="44.9411850" lon="7.1020500">
        <ele>899.2</ele>
        <time>2017-07-27T06:58:38Z</time>
      </trkpt>
      <trkpt lat="44.9412210" lon="7.1020350">
        <ele>899.4</ele>
        <time>2017-07-27T06:58:39Z</time>
      </trkpt>
      <trkpt lat="44.9413450" lon="7.1020240">
        <ele>900.6</ele>
        <time>2017-07-27T06:58:42Z</time>
      </trkpt>
      <trkpt lat="44.9414740" lon="7.1020180">
        <ele>901.4</ele>
        <time>2017-07-27T06:58:45Z</time>
      </trkpt>
      <trkpt lat="44.9415250" lon="7.1020190">
        <ele>901.8</ele>
        <time>2017-07-27T06:58:46Z</time>
      </trkpt>
      <trkpt lat="44.9416960" lon="7.1019360">
        <ele>902.8</ele>
        <time>2017-07-27T06:58:50Z</time>
      </trkpt>
      <trkpt lat="44.9417710" lon="7.1017210">
        <ele>903.6</ele>
        <time>2017-07-27T06:58:54Z</time>
      </trkpt>
      <trkpt lat="44.9417610" lon="7.1015970">
        <ele>904.0</ele>
        <time>2017-07-27T06:58:56Z</time>
      </trkpt>
      <trkpt lat="44.9417540" lon="7.1015330">
        <ele>904.2</ele>
        <time>2017-07-27T06:58:57Z</time>
      </trkpt>
      <trkpt lat="44.9417390" lon="7.1013960">
        <ele>904.4</ele>
        <time>2017-07-27T06:58:59Z</time>
      </trkpt>
      <trkpt lat="44.9416940" lon="7.1011880">
        <ele>904.8</ele>
        <time>2017-07-27T06:59:02Z</time>
      </trkpt>
      <trkpt lat="44.9416030" lon="7.1011070">
        <ele>905.0</ele>
        <time>2017-07-27T06:59:04Z</time>
      </trkpt>
      <trkpt lat="44.9414450" lon="7.1010890">
        <ele>905.0</ele>
        <time>2017-07-27T06:59:07Z</time>
      </trkpt>
      <trkpt lat="44.9412850" lon="7.1010800">
        <ele>905.2</ele>
        <time>2017-07-27T06:59:10Z</time>
      </trkpt>
      <trkpt lat="44.9411350" lon="7.1010660">
        <ele>905.6</ele>
        <time>2017-07-27T06:59:13Z</time>
      </trkpt>
      <trkpt lat="44.9409600" lon="7.1010390">
        <ele>906.0</ele>
        <time>2017-07-27T06:59:17Z</time>
      </trkpt>
      <trkpt lat="44.9409140" lon="7.1010270">
        <ele>906.2</ele>
        <time>2017-07-27T06:59:18Z</time>
      </trkpt>
      <trkpt lat="44.9408700" lon="7.1010110">
        <ele>906.4</ele>
        <time>2017-07-27T06:59:19Z</time>
      </trkpt>
      <trkpt lat="44.9407470" lon="7.1009460">
        <ele>907.4</ele>
        <time>2017-07-27T06:59:22Z</time>
      </trkpt>
      <trkpt lat="44.9406600" lon="7.1008770">
        <ele>907.8</ele>
        <time>2017-07-27T06:59:24Z</time>
      </trkpt>
      <trkpt lat="44.9405340" lon="7.1007550">
        <ele>908.4</ele>
        <time>2017-07-27T06:59:27Z</time>
      </trkpt>
      <trkpt lat="44.9404610" lon="7.1006660">
        <ele>908.8</ele>
        <time>2017-07-27T06:59:29Z</time>
      </trkpt>
      <trkpt lat="44.9404250" lon="7.1006070">
        <ele>909.0</ele>
        <time>2017-07-27T06:59:30Z</time>
      </trkpt>
      <trkpt lat="44.9403260" lon="7.1004240">
        <ele>909.4</ele>
        <time>2017-07-27T06:59:33Z</time>
      </trkpt>
      <trkpt lat="44.9402550" lon="7.1002250">
        <ele>910.2</ele>
        <time>2017-07-27T06:59:36Z</time>
      </trkpt>
      <trkpt lat="44.9402420" lon="7.1001670">
        <ele>910.4</ele>
        <time>2017-07-27T06:59:37Z</time>
      </trkpt>
      <trkpt lat="44.9401920" lon="7.0999280">
        <ele>911.6</ele>
        <time>2017-07-27T06:59:41Z</time>
      </trkpt>
      <trkpt lat="44.9401800" lon="7.0998670">
        <ele>912.0</ele>
        <time>2017-07-27T06:59:42Z</time>
      </trkpt>
      <trkpt lat="44.9401620" lon="7.0997520">
        <ele>912.8</ele>
        <time>2017-07-27T06:59:44Z</time>
      </trkpt>
      <trkpt lat="44.9401320" lon="7.0995340">
        <ele>913.8</ele>
        <time>2017-07-27T06:59:48Z</time>
      </trkpt>
      <trkpt lat="44.9401240" lon="7.0994750">
        <ele>914.0</ele>
        <time>2017-07-27T06:59:49Z</time>
      </trkpt>
      <trkpt lat="44.9400380" lon="7.0992650">
        <ele>915.0</ele>
        <time>2017-07-27T06:59:53Z</time>
      </trkpt>
      <trkpt lat="44.9400090" lon="7.0992130">
        <ele>915.4</ele>
        <time>2017-07-27T06:59:54Z</time>
      </trkpt>
      <trkpt lat="44.9399290" lon="7.0990870">
        <ele>916.0</ele>
        <time>2017-07-27T06:59:57Z</time>
      </trkpt>
      <trkpt lat="44.9398550" lon="7.0989430">
        <ele>917.0</ele>
        <time>2017-07-27T07:00:00Z</time>
      </trkpt>
      <trkpt lat="44.9398270" lon="7.0988860">
        <ele>917.2</ele>
        <time>2017-07-27T07:00:01Z</time>
      </trkpt>
      <trkpt lat="44.9397190" lon="7.0986330">
        <ele>918.4</ele>
        <time>2017-07-27T07:00:06Z</time>
      </trkpt>
      <trkpt lat="44.9397030" lon="7.0985840">
        <ele>918.8</ele>
        <time>2017-07-27T07:00:07Z</time>
      </trkpt>
      <trkpt lat="44.9396670" lon="7.0984730">
        <ele>919.6</ele>
        <time>2017-07-27T07:00:09Z</time>
      </trkpt>
      <trkpt lat="44.9396320" lon="7.0982740">
        <ele>920.6</ele>
        <time>2017-07-27T07:00:13Z</time>
      </trkpt>
      <trkpt lat="44.9396310" lon="7.0980690">
        <ele>922.0</ele>
        <time>2017-07-27T07:00:18Z</time>
      </trkpt>
      <trkpt lat="44.9396370" lon="7.0980200">
        <ele>922.4</ele>
        <time>2017-07-27T07:00:19Z</time>
      </trkpt>
      <trkpt lat="44.9396410" lon="7.0979100">
        <ele>923.0</ele>
        <time>2017-07-27T07:00:21Z</time>
      </trkpt>
      <trkpt lat="44.9396610" lon="7.0977600">
        <ele>924.0</ele>
        <time>2017-07-27T07:00:24Z</time>
      </trkpt>
      <trkpt lat="44.9396760" lon="7.0977100">
        <ele>924.2</ele>
        <time>2017-07-27T07:00:25Z</time>
      </trkpt>
      <trkpt lat="44.9397470" lon="7.0975160">
        <ele>925.2</ele>
        <time>2017-07-27T07:00:29Z</time>
      </trkpt>
      <trkpt lat="44.9397660" lon="7.0974670">
        <ele>925.6</ele>
        <time>2017-07-27T07:00:30Z</time>
      </trkpt>
      <trkpt lat="44.9398060" lon="7.0973780">
        <ele>926.4</ele>
        <time>2017-07-27T07:00:32Z</time>
      </trkpt>
      <trkpt lat="44.9398960" lon="7.0972320">
        <ele>927.4</ele>
        <time>2017-07-27T07:00:36Z</time>
      </trkpt>
      <trkpt lat="44.9399170" lon="7.0971900">
        <ele>927.8</ele>
        <time>2017-07-27T07:00:37Z</time>
      </trkpt>
      <trkpt lat="44.9400070" lon="7.0970200">
        <ele>928.8</ele>
        <time>2017-07-27T07:00:41Z</time>
      </trkpt>
      <trkpt lat="44.9400960" lon="7.0968450">
        <ele>929.8</ele>
        <time>2017-07-27T07:00:45Z</time>
      </trkpt>
      <trkpt lat="44.9401160" lon="7.0967990">
        <ele>930.0</ele>
        <time>2017-07-27T07:00:46Z</time>
      </trkpt>
      <trkpt lat="44.9401670" lon="7.0966590">
        <ele>931.0</ele>
        <time>2017-07-27T07:00:49Z</time>
      </trkpt>
      <trkpt lat="44.9402420" lon="7.0964120">
        <ele>932.0</ele>
        <time>2017-07-27T07:00:54Z</time>
      </trkpt>
      <trkpt lat="44.9402640" lon="7.0962360">
        <ele>933.2</ele>
        <time>2017-07-27T07:00:57Z</time>
      </trkpt>
      <trkpt lat="44.9402950" lon="7.0960200">
        <ele>934.4</ele>
        <time>2017-07-27T07:01:01Z</time>
      </trkpt>
      <trkpt lat="44.9403120" lon="7.0958110">
        <ele>935.6</ele>
        <time>2017-07-27T07:01:05Z</time>
      </trkpt>
      <trkpt lat="44.9403100" lon="7.0956360">
        <ele>936.6</ele>
        <time>2017-07-27T07:01:08Z</time>
      </trkpt>
      <trkpt lat="44.9403150" lon="7.0955770">
        <ele>936.8</ele>
        <time>2017-07-27T07:01:09Z</time>
      </trkpt>
      <trkpt lat="44.9403440" lon="7.0954040">
        <ele>937.6</ele>
        <time>2017-07-27T07:01:12Z</time>
      </trkpt>
      <trkpt lat="44.9403790" lon="7.0951930">
        <ele>938.8</ele>
        <time>2017-07-27T07:01:16Z</time>
      </trkpt>
      <trkpt lat="44.9403890" lon="7.0951430">
        <ele>939.0</ele>
        <time>2017-07-27T07:01:17Z</time>
      </trkpt>
      <trkpt lat="44.9404420" lon="7.0949900">
        <ele>940.0</ele>
        <time>2017-07-27T07:01:20Z</time>
      </trkpt>
      <trkpt lat="44.9404960" lon="7.0948570">
        <ele>941.2</ele>
        <time>2017-07-27T07:01:23Z</time>
      </trkpt>
      <trkpt lat="44.9405650" lon="7.0946830">
        <ele>942.2</ele>
        <time>2017-07-27T07:01:27Z</time>
      </trkpt>
      <trkpt lat="44.9406130" lon="7.0945640">
        <ele>943.0</ele>
        <time>2017-07-27T07:01:30Z</time>
      </trkpt>
      <trkpt lat="44.9406300" lon="7.0945250">
        <ele>943.4</ele>
        <time>2017-07-27T07:01:31Z</time>
      </trkpt>
      <trkpt lat="44.9406800" lon="7.0943680">
        <ele>944.4</ele>
        <time>2017-07-27T07:01:35Z</time>
      </trkpt>
      <trkpt lat="44.9407150" lon="7.0942360">
        <ele>945.4</ele>
        <time>2017-07-27T07:01:38Z</time>
      </trkpt>
      <trkpt lat="44.9407270" lon="7.0941910">
        <ele>945.6</ele>
        <time>2017-07-27T07:01:39Z</time>
      </trkpt>
      <trkpt lat="44.9407700" lon="7.0940200">
        <ele>946.8</ele>
        <time>2017-07-27T07:01:43Z</time>
      </trkpt>
      <trkpt lat="44.9407990" lon="7.0938820">
        <ele>947.8</ele>
        <time>2017-07-27T07:01:46Z</time>
      </trkpt>
      <trkpt lat="44.9408180" lon="7.0936340">
        <ele>949.0</ele>
        <time>2017-07-27T07:01:51Z</time>
      </trkpt>
      <trkpt lat="44.9408110" lon="7.0934170">
        <ele>950.0</ele>
        <time>2017-07-27T07:01:55Z</time>
      </trkpt>
      <trkpt lat="44.9407880" lon="7.0932020">
        <ele>951.2</ele>
        <time>2017-07-27T07:01:59Z</time>
      </trkpt>
      <trkpt lat="44.9407730" lon="7.0930040">
        <ele>952.4</ele>
        <time>2017-07-27T07:02:03Z</time>
      </trkpt>
      <trkpt lat="44.9407970" lon="7.0927790">
        <ele>953.8</ele>
        <time>2017-07-27T07:02:08Z</time>
      </trkpt>
      <trkpt lat="44.9408010" lon="7.0927380">
        <ele>954.0</ele>
        <time>2017-07-27T07:02:09Z</time>
      </trkpt>
      <trkpt lat="44.9408370" lon="7.0925460">
        <ele>955.0</ele>
        <time>2017-07-27T07:02:14Z</time>
      </trkpt>
      <trkpt lat="44.9408420" lon="7.0925080">
        <ele>955.2</ele>
        <time>2017-07-27T07:02:15Z</time>
      </trkpt>
      <trkpt lat="44.9408230" lon="7.0923430">
        <ele>956.2</ele>
        <time>2017-07-27T07:02:19Z</time>
      </trkpt>
      <trkpt lat="44.9408090" lon="7.0922620">
        <ele>956.8</ele>
        <time>2017-07-27T07:02:21Z</time>
      </trkpt>
      <trkpt lat="44.9407860" lon="7.0921690">
        <ele>957.2</ele>
        <time>2017-07-27T07:02:23Z</time>
      </trkpt>
      <trkpt lat="44.9407360" lon="7.0919950">
        <ele>958.4</ele>
        <time>2017-07-27T07:02:27Z</time>
      </trkpt>
      <trkpt lat="44.9406630" lon="7.0918060">
        <ele>959.4</ele>
        <time>2017-07-27T07:02:31Z</time>
      </trkpt>
      <trkpt lat="44.9406020" lon="7.0916750">
        <ele>960.4</ele>
        <time>2017-07-27T07:02:34Z</time>
      </trkpt>
      <trkpt lat="44.9405130" lon="7.0914880">
        <ele>961.6</ele>
        <time>2017-07-27T07:02:38Z</time>
      </trkpt>
      <trkpt lat="44.9404340" lon="7.0913110">
        <ele>962.8</ele>
        <time>2017-07-27T07:02:42Z</time>
      </trkpt>
      <trkpt lat="44.9403580" lon="7.0911460">
        <ele>963.8</ele>
        <time>2017-07-27T07:02:46Z</time>
      </trkpt>
      <trkpt lat="44.9403000" lon="7.0909610">
        <ele>964.8</ele>
        <time>2017-07-27T07:02:50Z</time>
      </trkpt>
      <trkpt lat="44.9402930" lon="7.0909110">
        <ele>965.0</ele>
        <time>2017-07-27T07:02:51Z</time>
      </trkpt>
      <trkpt lat="44.9402710" lon="7.0906520">
        <ele>966.4</ele>
        <time>2017-07-27T07:02:56Z</time>
      </trkpt>
      <trkpt lat="44.9402410" lon="7.0904190">
        <ele>967.8</ele>
        <time>2017-07-27T07:03:01Z</time>
      </trkpt>
      <trkpt lat="44.9402240" lon="7.0903200">
        <ele>968.2</ele>
        <time>2017-07-27T07:03:03Z</time>
      </trkpt>
      <trkpt lat="44.9401970" lon="7.0902310">
        <ele>968.8</ele>
        <time>2017-07-27T07:03:05Z</time>
      </trkpt>
      <trkpt lat="44.9401460" lon="7.0900570">
        <ele>969.8</ele>
        <time>2017-07-27T07:03:09Z</time>
      </trkpt>
      <trkpt lat="44.9401300" lon="7.0900160">
        <ele>969.8</ele>
        <time>2017-07-27T07:03:10Z</time>
      </trkpt>
      <trkpt lat="44.9400590" lon="7.0898130">
        <ele>971.0</ele>
        <time>2017-07-27T07:03:15Z</time>
      </trkpt>
      <trkpt lat="44.9400460" lon="7.0897730">
        <ele>971.2</ele>
        <time>2017-07-27T07:03:16Z</time>
      </trkpt>
      <trkpt lat="44.9400000" lon="7.0896480">
        <ele>972.0</ele>
        <time>2017-07-27T07:03:19Z</time>
      </trkpt>
      <trkpt lat="44.9399450" lon="7.0894860">
        <ele>973.2</ele>
        <time>2017-07-27T07:03:23Z</time>
      </trkpt>
      <trkpt lat="44.9399160" lon="7.0894050">
        <ele>973.8</ele>
        <time>2017-07-27T07:03:25Z</time>
      </trkpt>
      <trkpt lat="44.9398880" lon="7.0893340">
        <ele>974.4</ele>
        <time>2017-07-27T07:03:27Z</time>
      </trkpt>
      <trkpt lat="44.9398300" lon="7.0891590">
        <ele>975.2</ele>
        <time>2017-07-27T07:03:31Z</time>
      </trkpt>
      <trkpt lat="44.9398030" lon="7.0890760">
        <ele>975.6</ele>
        <time>2017-07-27T07:03:33Z</time>
      </trkpt>
      <trkpt lat="44.9397620" lon="7.0889290">
        <ele>976.8</ele>
        <time>2017-07-27T07:03:37Z</time>
      </trkpt>
      <trkpt lat="44.9397460" lon="7.0888920">
        <ele>977.2</ele>
        <time>2017-07-27T07:03:38Z</time>
      </trkpt>
      <trkpt lat="44.9397030" lon="7.0887830">
        <ele>977.8</ele>
        <time>2017-07-27T07:03:41Z</time>
      </trkpt>
      <trkpt lat="44.9396530" lon="7.0886680">
        <ele>979.2</ele>
        <time>2017-07-27T07:03:44Z</time>
      </trkpt>
      <trkpt lat="44.9396370" lon="7.0886290">
        <ele>979.6</ele>
        <time>2017-07-27T07:03:45Z</time>
      </trkpt>
      <trkpt lat="44.9396000" lon="7.0885420">
        <ele>980.4</ele>
        <time>2017-07-27T07:03:47Z</time>
      </trkpt>
      <trkpt lat="44.9395150" lon="7.0883960">
        <ele>981.6</ele>
        <time>2017-07-27T07:03:51Z</time>
      </trkpt>
      <trkpt lat="44.9394020" lon="7.0882330">
        <ele>982.8</ele>
        <time>2017-07-27T07:03:55Z</time>
      </trkpt>
      <trkpt lat="44.9393190" lon="7.0880510">
        <ele>984.0</ele>
        <time>2017-07-27T07:03:59Z</time>
      </trkpt>
      <trkpt lat="44.9392380" lon="7.0878280">
        <ele>985.2</ele>
        <time>2017-07-27T07:04:04Z</time>
      </trkpt>
      <trkpt lat="44.9392050" lon="7.0877320">
        <ele>985.8</ele>
        <time>2017-07-27T07:04:06Z</time>
      </trkpt>
      <trkpt lat="44.9392000" lon="7.0876290">
        <ele>986.6</ele>
        <time>2017-07-27T07:04:08Z</time>
      </trkpt>
      <trkpt lat="44.9391860" lon="7.0875390">
        <ele>987.0</ele>
        <time>2017-07-27T07:04:10Z</time>
      </trkpt>
      <trkpt lat="44.9391650" lon="7.0874100">
        <ele>987.8</ele>
        <time>2017-07-27T07:04:13Z</time>
      </trkpt>
      <trkpt lat="44.9391560" lon="7.0872850">
        <ele>988.6</ele>
        <time>2017-07-27T07:04:16Z</time>
      </trkpt>
      <trkpt lat="44.9391420" lon="7.0871980">
        <ele>989.0</ele>
        <time>2017-07-27T07:04:18Z</time>
      </trkpt>
      <trkpt lat="44.9391070" lon="7.0870080">
        <ele>990.0</ele>
        <time>2017-07-27T07:04:22Z</time>
      </trkpt>
      <trkpt lat="44.9390810" lon="7.0867710">
        <ele>991.2</ele>
        <time>2017-07-27T07:04:27Z</time>
      </trkpt>
      <trkpt lat="44.9390550" lon="7.0866830">
        <ele>991.8</ele>
        <time>2017-07-27T07:04:29Z</time>
      </trkpt>
      <trkpt lat="44.9390250" lon="7.0865520">
        <ele>992.4</ele>
        <time>2017-07-27T07:04:32Z</time>
      </trkpt>
      <trkpt lat="44.9389750" lon="7.0863790">
        <ele>993.6</ele>
        <time>2017-07-27T07:04:36Z</time>
      </trkpt>
      <trkpt lat="44.9389120" lon="7.0862090">
        <ele>994.6</ele>
        <time>2017-07-27T07:04:40Z</time>
      </trkpt>
      <trkpt lat="44.9388950" lon="7.0861660">
        <ele>995.0</ele>
        <time>2017-07-27T07:04:41Z</time>
      </trkpt>
      <trkpt lat="44.9388490" lon="7.0860180">
        <ele>995.8</ele>
        <time>2017-07-27T07:04:44Z</time>
      </trkpt>
      <trkpt lat="44.9388030" lon="7.0858200">
        <ele>997.0</ele>
        <time>2017-07-27T07:04:48Z</time>
      </trkpt>
      <trkpt lat="44.9387820" lon="7.0857270">
        <ele>997.6</ele>
        <time>2017-07-27T07:04:50Z</time>
      </trkpt>
      <trkpt lat="44.9387710" lon="7.0856340">
        <ele>998.0</ele>
        <time>2017-07-27T07:04:52Z</time>
      </trkpt>
      <trkpt lat="44.9387320" lon="7.0853910">
        <ele>999.6</ele>
        <time>2017-07-27T07:04:57Z</time>
      </trkpt>
      <trkpt lat="44.9386840" lon="7.0852070">
        <ele>1000.6</ele>
        <time>2017-07-27T07:05:01Z</time>
      </trkpt>
      <trkpt lat="44.9386440" lon="7.0850220">
        <ele>1001.8</ele>
        <time>2017-07-27T07:05:05Z</time>
      </trkpt>
      <trkpt lat="44.9385830" lon="7.0848260">
        <ele>1003.0</ele>
        <time>2017-07-27T07:05:10Z</time>
      </trkpt>
      <trkpt lat="44.9385410" lon="7.0847130">
        <ele>1003.4</ele>
        <time>2017-07-27T07:05:13Z</time>
      </trkpt>
      <trkpt lat="44.9385210" lon="7.0846370">
        <ele>1004.0</ele>
        <time>2017-07-27T07:05:15Z</time>
      </trkpt>
      <trkpt lat="44.9384660" lon="7.0844790">
        <ele>1005.0</ele>
        <time>2017-07-27T07:05:19Z</time>
      </trkpt>
      <trkpt lat="44.9384410" lon="7.0843490">
        <ele>1005.8</ele>
        <time>2017-07-27T07:05:22Z</time>
      </trkpt>
      <trkpt lat="44.9384210" lon="7.0842610">
        <ele>1006.2</ele>
        <time>2017-07-27T07:05:24Z</time>
      </trkpt>
      <trkpt lat="44.9384000" lon="7.0840790">
        <ele>1007.4</ele>
        <time>2017-07-27T07:05:28Z</time>
      </trkpt>
      <trkpt lat="44.9383950" lon="7.0840330">
        <ele>1007.6</ele>
        <time>2017-07-27T07:05:29Z</time>
      </trkpt>
      <trkpt lat="44.9383860" lon="7.0839080">
        <ele>1008.6</ele>
        <time>2017-07-27T07:05:32Z</time>
      </trkpt>
      <trkpt lat="44.9383800" lon="7.0836980">
        <ele>1009.8</ele>
        <time>2017-07-27T07:05:37Z</time>
      </trkpt>
      <trkpt lat="44.9383820" lon="7.0835720">
        <ele>1010.8</ele>
        <time>2017-07-27T07:05:40Z</time>
      </trkpt>
      <trkpt lat="44.9383530" lon="7.0833920">
        <ele>1012.0</ele>
        <time>2017-07-27T07:05:44Z</time>
      </trkpt>
      <trkpt lat="44.9383250" lon="7.0832420">
        <ele>1013.0</ele>
        <time>2017-07-27T07:05:47Z</time>
      </trkpt>
      <trkpt lat="44.9382930" lon="7.0830040">
        <ele>1014.0</ele>
        <time>2017-07-27T07:05:52Z</time>
      </trkpt>
      <trkpt lat="44.9382900" lon="7.0829450">
        <ele>1014.2</ele>
        <time>2017-07-27T07:05:53Z</time>
      </trkpt>
      <trkpt lat="44.9382010" lon="7.0826190">
        <ele>1015.2</ele>
        <time>2017-07-27T07:05:59Z</time>
      </trkpt>
      <trkpt lat="44.9380190" lon="7.0822470">
        <ele>1016.0</ele>
        <time>2017-07-27T07:06:06Z</time>
      </trkpt>
      <trkpt lat="44.9379630" lon="7.0821350">
        <ele>1016.2</ele>
        <time>2017-07-27T07:06:08Z</time>
      </trkpt>
      <trkpt lat="44.9377560" lon="7.0817510">
        <ele>1017.0</ele>
        <time>2017-07-27T07:06:15Z</time>
      </trkpt>
      <trkpt lat="44.9376660" lon="7.0815810">
        <ele>1017.4</ele>
        <time>2017-07-27T07:06:18Z</time>
      </trkpt>
      <trkpt lat="44.9375860" lon="7.0814110">
        <ele>1017.8</ele>
        <time>2017-07-27T07:06:21Z</time>
      </trkpt>
      <trkpt lat="44.9375670" lon="7.0813470">
        <ele>1017.8</ele>
        <time>2017-07-27T07:06:22Z</time>
      </trkpt>
      <trkpt lat="44.9374510" lon="7.0810230">
        <ele>1018.4</ele>
        <time>2017-07-27T07:06:28Z</time>
      </trkpt>
      <trkpt lat="44.9374300" lon="7.0809750">
        <ele>1018.8</ele>
        <time>2017-07-27T07:06:29Z</time>
      </trkpt>
      <trkpt lat="44.9373280" lon="7.0808180">
        <ele>1019.8</ele>
        <time>2017-07-27T07:06:33Z</time>
      </trkpt>
      <trkpt lat="44.9372630" lon="7.0807660">
        <ele>1020.2</ele>
        <time>2017-07-27T07:06:35Z</time>
      </trkpt>
      <trkpt lat="44.9371570" lon="7.0807110">
        <ele>1021.0</ele>
        <time>2017-07-27T07:06:38Z</time>
      </trkpt>
      <trkpt lat="44.9370070" lon="7.0806560">
        <ele>1021.8</ele>
        <time>2017-07-27T07:06:42Z</time>
      </trkpt>
      <trkpt lat="44.9369700" lon="7.0806510">
        <ele>1022.2</ele>
        <time>2017-07-27T07:06:43Z</time>
      </trkpt>
      <trkpt lat="44.9368230" lon="7.0806280">
        <ele>1023.2</ele>
        <time>2017-07-27T07:06:47Z</time>
      </trkpt>
      <trkpt lat="44.9367830" lon="7.0806290">
        <ele>1023.4</ele>
        <time>2017-07-27T07:06:48Z</time>
      </trkpt>
      <trkpt lat="44.9366270" lon="7.0806180">
        <ele>1024.2</ele>
        <time>2017-07-27T07:06:52Z</time>
      </trkpt>
      <trkpt lat="44.9365120" lon="7.0806240">
        <ele>1025.0</ele>
        <time>2017-07-27T07:06:55Z</time>
      </trkpt>
      <trkpt lat="44.9364270" lon="7.0806270">
        <ele>1025.6</ele>
        <time>2017-07-27T07:06:57Z</time>
      </trkpt>
      <trkpt lat="44.9362660" lon="7.0805830">
        <ele>1026.4</ele>
        <time>2017-07-27T07:07:01Z</time>
      </trkpt>
      <trkpt lat="44.9362250" lon="7.0805790">
        <ele>1026.8</ele>
        <time>2017-07-27T07:07:02Z</time>
      </trkpt>
      <trkpt lat="44.9361060" lon="7.0805800">
        <ele>1027.6</ele>
        <time>2017-07-27T07:07:05Z</time>
      </trkpt>
      <trkpt lat="44.9360700" lon="7.0805930">
        <ele>1027.8</ele>
        <time>2017-07-27T07:07:06Z</time>
      </trkpt>
      <trkpt lat="44.9360380" lon="7.0806190">
        <ele>1028.2</ele>
        <time>2017-07-27T07:07:07Z</time>
      </trkpt>
      <trkpt lat="44.9359590" lon="7.0808120">
        <ele>1029.0</ele>
        <time>2017-07-27T07:07:11Z</time>
      </trkpt>
      <trkpt lat="44.9359690" lon="7.0809410">
        <ele>1029.2</ele>
        <time>2017-07-27T07:07:13Z</time>
      </trkpt>
      <trkpt lat="44.9359800" lon="7.0810730">
        <ele>1029.4</ele>
        <time>2017-07-27T07:07:15Z</time>
      </trkpt>
      <trkpt lat="44.9360990" lon="7.0812710">
        <ele>1030.0</ele>
        <time>2017-07-27T07:07:19Z</time>
      </trkpt>
      <trkpt lat="44.9362620" lon="7.0813540">
        <ele>1030.8</ele>
        <time>2017-07-27T07:07:23Z</time>
      </trkpt>
      <trkpt lat="44.9363110" lon="7.0813750">
        <ele>1031.0</ele>
        <time>2017-07-27T07:07:24Z</time>
      </trkpt>
      <trkpt lat="44.9365830" lon="7.0815640">
        <ele>1032.0</ele>
        <time>2017-07-27T07:07:30Z</time>
      </trkpt>
      <trkpt lat="44.9366250" lon="7.0816000">
        <ele>1032.2</ele>
        <time>2017-07-27T07:07:31Z</time>
      </trkpt>
      <trkpt lat="44.9368480" lon="7.0818100">
        <ele>1033.4</ele>
        <time>2017-07-27T07:07:37Z</time>
      </trkpt>
      <trkpt lat="44.9369120" lon="7.0818850">
        <ele>1033.6</ele>
        <time>2017-07-27T07:07:39Z</time>
      </trkpt>
      <trkpt lat="44.9369870" lon="7.0820190">
        <ele>1034.4</ele>
        <time>2017-07-27T07:07:42Z</time>
      </trkpt>
      <trkpt lat="44.9370080" lon="7.0820740">
        <ele>1034.6</ele>
        <time>2017-07-27T07:07:43Z</time>
      </trkpt>
      <trkpt lat="44.9370960" lon="7.0823110">
        <ele>1035.8</ele>
        <time>2017-07-27T07:07:47Z</time>
      </trkpt>
      <trkpt lat="44.9371180" lon="7.0823670">
        <ele>1036.0</ele>
        <time>2017-07-27T07:07:48Z</time>
      </trkpt>
      <trkpt lat="44.9371710" lon="7.0825980">
        <ele>1036.8</ele>
        <time>2017-07-27T07:07:52Z</time>
      </trkpt>
      <trkpt lat="44.9371900" lon="7.0827650">
        <ele>1037.6</ele>
        <time>2017-07-27T07:07:55Z</time>
      </trkpt>
      <trkpt lat="44.9371960" lon="7.0828840">
        <ele>1038.0</ele>
        <time>2017-07-27T07:07:57Z</time>
      </trkpt>
      <trkpt lat="44.9371610" lon="7.0831890">
        <ele>1039.0</ele>
        <time>2017-07-27T07:08:02Z</time>
      </trkpt>
      <trkpt lat="44.9371570" lon="7.0832460">
        <ele>1039.2</ele>
        <time>2017-07-27T07:08:03Z</time>
      </trkpt>
      <trkpt lat="44.9371470" lon="7.0834810">
        <ele>1040.2</ele>
        <time>2017-07-27T07:08:07Z</time>
      </trkpt>
      <trkpt lat="44.9371450" lon="7.0835930">
        <ele>1041.0</ele>
        <time>2017-07-27T07:08:09Z</time>
      </trkpt>
      <trkpt lat="44.9371440" lon="7.0836530">
        <ele>1041.4</ele>
        <time>2017-07-27T07:08:10Z</time>
      </trkpt>
      <trkpt lat="44.9371790" lon="7.0839180">
        <ele>1042.6</ele>
        <time>2017-07-27T07:08:15Z</time>
      </trkpt>
      <trkpt lat="44.9371910" lon="7.0839730">
        <ele>1042.8</ele>
        <time>2017-07-27T07:08:16Z</time>
      </trkpt>
      <trkpt lat="44.9372300" lon="7.0841290">
        <ele>1043.6</ele>
        <time>2017-07-27T07:08:19Z</time>
      </trkpt>
      <trkpt lat="44.9372590" lon="7.0843480">
        <ele>1044.8</ele>
        <time>2017-07-27T07:08:23Z</time>
      </trkpt>
      <trkpt lat="44.9372890" lon="7.0846160">
        <ele>1038.6</ele>
        <time>2017-07-27T07:08:28Z</time>
      </trkpt>
      <trkpt lat="44.9373160" lon="7.0847110">
        <ele>1039.2</ele>
        <time>2017-07-27T07:08:30Z</time>
      </trkpt>
      <trkpt lat="44.9373320" lon="7.0847570">
        <ele>1046.2</ele>
        <time>2017-07-27T07:08:31Z</time>
      </trkpt>
      <trkpt lat="44.9373810" lon="7.0848900">
        <ele>1047.4</ele>
        <time>2017-07-27T07:08:34Z</time>
      </trkpt>
      <trkpt lat="44.9374470" lon="7.0850680">
        <ele>1048.6</ele>
        <time>2017-07-27T07:08:38Z</time>
      </trkpt>
      <trkpt lat="44.9375310" lon="7.0852960">
        <ele>1049.8</ele>
        <time>2017-07-27T07:08:43Z</time>
      </trkpt>
      <trkpt lat="44.9375680" lon="7.0854440">
        <ele>1050.6</ele>
        <time>2017-07-27T07:08:46Z</time>
      </trkpt>
      <trkpt lat="44.9375830" lon="7.0855430">
        <ele>1051.0</ele>
        <time>2017-07-27T07:08:48Z</time>
      </trkpt>
      <trkpt lat="44.9376200" lon="7.0857770">
        <ele>1052.0</ele>
        <time>2017-07-27T07:08:53Z</time>
      </trkpt>
      <trkpt lat="44.9376570" lon="7.0860060">
        <ele>1053.2</ele>
        <time>2017-07-27T07:08:58Z</time>
      </trkpt>
      <trkpt lat="44.9376200" lon="7.0861480">
        <ele>1053.6</ele>
        <time>2017-07-27T07:09:01Z</time>
      </trkpt>
      <trkpt lat="44.9375900" lon="7.0861740">
        <ele>1053.8</ele>
        <time>2017-07-27T07:09:02Z</time>
      </trkpt>
      <trkpt lat="44.9375180" lon="7.0861410">
        <ele>1054.0</ele>
        <time>2017-07-27T07:09:04Z</time>
      </trkpt>
      <trkpt lat="44.9375010" lon="7.0861020">
        <ele>1054.2</ele>
        <time>2017-07-27T07:09:05Z</time>
      </trkpt>
      <trkpt lat="44.9374870" lon="7.0860120">
        <ele>1054.8</ele>
        <time>2017-07-27T07:09:07Z</time>
      </trkpt>
      <trkpt lat="44.9374890" lon="7.0859150">
        <ele>1055.4</ele>
        <time>2017-07-27T07:09:09Z</time>
      </trkpt>
      <trkpt lat="44.9374910" lon="7.0858680">
        <ele>1055.6</ele>
        <time>2017-07-27T07:09:10Z</time>
      </trkpt>
      <trkpt lat="44.9374850" lon="7.0857250">
        <ele>1056.2</ele>
        <time>2017-07-27T07:09:13Z</time>
      </trkpt>
      <trkpt lat="44.9374830" lon="7.0856790">
        <ele>1056.6</ele>
        <time>2017-07-27T07:09:14Z</time>
      </trkpt>
      <trkpt lat="44.9374200" lon="7.0854310">
        <ele>1057.0</ele>
        <time>2017-07-27T07:09:20Z</time>
      </trkpt>
      <trkpt lat="44.9373980" lon="7.0853980">
        <ele>1058.4</ele>
        <time>2017-07-27T07:09:21Z</time>
      </trkpt>
      <trkpt lat="44.9373210" lon="7.0852110">
        <ele>1059.6</ele>
        <time>2017-07-27T07:09:26Z</time>
      </trkpt>
      <trkpt lat="44.9373100" lon="7.0851680">
        <ele>1060.0</ele>
        <time>2017-07-27T07:09:27Z</time>
      </trkpt>
      <trkpt lat="44.9372550" lon="7.0850040">
        <ele>1060.8</ele>
        <time>2017-07-27T07:09:31Z</time>
      </trkpt>
      <trkpt lat="44.9371830" lon="7.0848080">
        <ele>1062.0</ele>
        <time>2017-07-27T07:09:36Z</time>
      </trkpt>
      <trkpt lat="44.9370830" lon="7.0846340">
        <ele>1063.2</ele>
        <time>2017-07-27T07:09:41Z</time>
      </trkpt>
      <trkpt lat="44.9370630" lon="7.0845940">
        <ele>1063.4</ele>
        <time>2017-07-27T07:09:42Z</time>
      </trkpt>
      <trkpt lat="44.9370140" lon="7.0844690">
        <ele>1064.4</ele>
        <time>2017-07-27T07:09:45Z</time>
      </trkpt>
      <trkpt lat="44.9369790" lon="7.0842880">
        <ele>1065.4</ele>
        <time>2017-07-27T07:09:49Z</time>
      </trkpt>
      <trkpt lat="44.9369280" lon="7.0840590">
        <ele>1066.6</ele>
        <time>2017-07-27T07:09:54Z</time>
      </trkpt>
      <trkpt lat="44.9368960" lon="7.0839390">
        <ele>1067.4</ele>
        <time>2017-07-27T07:09:57Z</time>
      </trkpt>
      <trkpt lat="44.9368880" lon="7.0838940">
        <ele>1067.6</ele>
        <time>2017-07-27T07:09:58Z</time>
      </trkpt>
      <trkpt lat="44.9368560" lon="7.0837140">
        <ele>1068.8</ele>
        <time>2017-07-27T07:10:02Z</time>
      </trkpt>
      <trkpt lat="44.9368500" lon="7.0836290">
        <ele>1069.4</ele>
        <time>2017-07-27T07:10:04Z</time>
      </trkpt>
      <trkpt lat="44.9368430" lon="7.0835340">
        <ele>1069.8</ele>
        <time>2017-07-27T07:10:06Z</time>
      </trkpt>
      <trkpt lat="44.9368310" lon="7.0833920">
        <ele>1071.0</ele>
        <time>2017-07-27T07:10:09Z</time>
      </trkpt>
      <trkpt lat="44.9367990" lon="7.0832060">
        <ele>1072.0</ele>
        <time>2017-07-27T07:10:13Z</time>
      </trkpt>
      <trkpt lat="44.9367890" lon="7.0831610">
        <ele>1072.4</ele>
        <time>2017-07-27T07:10:14Z</time>
      </trkpt>
      <trkpt lat="44.9367160" lon="7.0829570">
        <ele>1073.6</ele>
        <time>2017-07-27T07:10:19Z</time>
      </trkpt>
      <trkpt lat="44.9366970" lon="7.0828810">
        <ele>1074.2</ele>
        <time>2017-07-27T07:10:21Z</time>
      </trkpt>
      <trkpt lat="44.9366850" lon="7.0827990">
        <ele>1074.8</ele>
        <time>2017-07-27T07:10:23Z</time>
      </trkpt>
      <trkpt lat="44.9366300" lon="7.0826010">
        <ele>1076.0</ele>
        <time>2017-07-27T07:10:28Z</time>
      </trkpt>
      <trkpt lat="44.9366150" lon="7.0825650">
        <ele>1076.2</ele>
        <time>2017-07-27T07:10:29Z</time>
      </trkpt>
      <trkpt lat="44.9365340" lon="7.0824330">
        <ele>1077.2</ele>
        <time>2017-07-27T07:10:33Z</time>
      </trkpt>
      <trkpt lat="44.9364880" lon="7.0823870">
        <ele>1077.6</ele>
        <time>2017-07-27T07:10:35Z</time>
      </trkpt>
      <trkpt lat="44.9363870" lon="7.0823230">
        <ele>1078.4</ele>
        <time>2017-07-27T07:10:38Z</time>
      </trkpt>
      <trkpt lat="44.9362700" lon="7.0822480">
        <ele>1079.4</ele>
        <time>2017-07-27T07:10:42Z</time>
      </trkpt>
      <trkpt lat="44.9362420" lon="7.0822290">
        <ele>1079.6</ele>
        <time>2017-07-27T07:10:43Z</time>
      </trkpt>
      <trkpt lat="44.9360980" lon="7.0821450">
        <ele>1080.8</ele>
        <time>2017-07-27T07:10:48Z</time>
      </trkpt>
      <trkpt lat="44.9360250" lon="7.0821360">
        <ele>1081.2</ele>
        <time>2017-07-27T07:10:50Z</time>
      </trkpt>
      <trkpt lat="44.9358900" lon="7.0821300">
        <ele>1082.0</ele>
        <time>2017-07-27T07:10:54Z</time>
      </trkpt>
      <trkpt lat="44.9357280" lon="7.0821170">
        <ele>1083.0</ele>
        <time>2017-07-27T07:10:59Z</time>
      </trkpt>
      <trkpt lat="44.9355620" lon="7.0821210">
        <ele>1084.0</ele>
        <time>2017-07-27T07:11:04Z</time>
      </trkpt>
      <trkpt lat="44.9354280" lon="7.0821150">
        <ele>1084.8</ele>
        <time>2017-07-27T07:11:08Z</time>
      </trkpt>
      <trkpt lat="44.9353650" lon="7.0821110">
        <ele>1085.2</ele>
        <time>2017-07-27T07:11:10Z</time>
      </trkpt>
      <trkpt lat="44.9352230" lon="7.0821110">
        <ele>1086.4</ele>
        <time>2017-07-27T07:11:15Z</time>
      </trkpt>
      <trkpt lat="44.9351630" lon="7.0821040">
        <ele>1086.8</ele>
        <time>2017-07-27T07:11:17Z</time>
      </trkpt>
      <trkpt lat="44.9351030" lon="7.0821040">
        <ele>1087.4</ele>
        <time>2017-07-27T07:11:19Z</time>
      </trkpt>
      <trkpt lat="44.9350160" lon="7.0820910">
        <ele>1088.8</ele>
        <time>2017-07-27T07:11:22Z</time>
      </trkpt>
      <trkpt lat="44.9349210" lon="7.0820720">
        <ele>1089.8</ele>
        <time>2017-07-27T07:11:25Z</time>
      </trkpt>
      <trkpt lat="44.9348880" lon="7.0820620">
        <ele>1090.0</ele>
        <time>2017-07-27T07:11:26Z</time>
      </trkpt>
      <trkpt lat="44.9347870" lon="7.0820260">
        <ele>1091.2</ele>
        <time>2017-07-27T07:11:29Z</time>
      </trkpt>
      <trkpt lat="44.9346660" lon="7.0819960">
        <ele>1092.2</ele>
        <time>2017-07-27T07:11:33Z</time>
      </trkpt>
      <trkpt lat="44.9346340" lon="7.0819910">
        <ele>1092.6</ele>
        <time>2017-07-27T07:11:34Z</time>
      </trkpt>
      <trkpt lat="44.9345430" lon="7.0819650">
        <ele>1093.4</ele>
        <time>2017-07-27T07:11:37Z</time>
      </trkpt>
      <trkpt lat="44.9344440" lon="7.0819420">
        <ele>1094.0</ele>
        <time>2017-07-27T07:11:40Z</time>
      </trkpt>
      <trkpt lat="44.9343750" lon="7.0819300">
        <ele>1094.6</ele>
        <time>2017-07-27T07:11:42Z</time>
      </trkpt>
      <trkpt lat="44.9342770" lon="7.0819250">
        <ele>1095.6</ele>
        <time>2017-07-27T07:11:45Z</time>
      </trkpt>
      <trkpt lat="44.9341780" lon="7.0819250">
        <ele>1096.4</ele>
        <time>2017-07-27T07:11:48Z</time>
      </trkpt>
      <trkpt lat="44.9341150" lon="7.0819260">
        <ele>1096.8</ele>
        <time>2017-07-27T07:11:50Z</time>
      </trkpt>
      <trkpt lat="44.9339640" lon="7.0819540">
        <ele>1097.8</ele>
        <time>2017-07-27T07:11:55Z</time>
      </trkpt>
      <trkpt lat="44.9339050" lon="7.0819840">
        <ele>1098.2</ele>
        <time>2017-07-27T07:11:57Z</time>
      </trkpt>
      <trkpt lat="44.9338000" lon="7.0820100">
        <ele>1099.0</ele>
        <time>2017-07-27T07:12:00Z</time>
      </trkpt>
      <trkpt lat="44.9337310" lon="7.0820110">
        <ele>1099.4</ele>
        <time>2017-07-27T07:12:02Z</time>
      </trkpt>
      <trkpt lat="44.9335980" lon="7.0819870">
        <ele>1100.2</ele>
        <time>2017-07-27T07:12:06Z</time>
      </trkpt>
      <trkpt lat="44.9334380" lon="7.0819760">
        <ele>1101.4</ele>
        <time>2017-07-27T07:12:11Z</time>
      </trkpt>
      <trkpt lat="44.9333700" lon="7.0819680">
        <ele>1101.8</ele>
        <time>2017-07-27T07:12:13Z</time>
      </trkpt>
      <trkpt lat="44.9332010" lon="7.0819760">
        <ele>1102.6</ele>
        <time>2017-07-27T07:12:18Z</time>
      </trkpt>
      <trkpt lat="44.9331040" lon="7.0819950">
        <ele>1103.4</ele>
        <time>2017-07-27T07:12:21Z</time>
      </trkpt>
      <trkpt lat="44.9330690" lon="7.0820010">
        <ele>1103.6</ele>
        <time>2017-07-27T07:12:22Z</time>
      </trkpt>
      <trkpt lat="44.9328650" lon="7.0819800">
        <ele>1104.6</ele>
        <time>2017-07-27T07:12:28Z</time>
      </trkpt>
      <trkpt lat="44.9326560" lon="7.0819660">
        <ele>1105.8</ele>
        <time>2017-07-27T07:12:34Z</time>
      </trkpt>
      <trkpt lat="44.9325840" lon="7.0819700">
        <ele>1106.0</ele>
        <time>2017-07-27T07:12:36Z</time>
      </trkpt>
      <trkpt lat="44.9324130" lon="7.0819950">
        <ele>1106.8</ele>
        <time>2017-07-27T07:12:41Z</time>
      </trkpt>
      <trkpt lat="44.9322740" lon="7.0819940">
        <ele>1107.4</ele>
        <time>2017-07-27T07:12:45Z</time>
      </trkpt>
      <trkpt lat="44.9321310" lon="7.0819460">
        <ele>1108.0</ele>
        <time>2017-07-27T07:12:49Z</time>
      </trkpt>
      <trkpt lat="44.9320390" lon="7.0818750">
        <ele>1108.4</ele>
        <time>2017-07-27T07:12:52Z</time>
      </trkpt>
      <trkpt lat="44.9318850" lon="7.0817610">
        <ele>1109.4</ele>
        <time>2017-07-27T07:12:57Z</time>
      </trkpt>
      <trkpt lat="44.9317220" lon="7.0816490">
        <ele>1110.4</ele>
        <time>2017-07-27T07:13:02Z</time>
      </trkpt>
      <trkpt lat="44.9315300" lon="7.0815140">
        <ele>1111.6</ele>
        <time>2017-07-27T07:13:08Z</time>
      </trkpt>
      <trkpt lat="44.9314370" lon="7.0814520">
        <ele>1112.2</ele>
        <time>2017-07-27T07:13:11Z</time>
      </trkpt>
      <trkpt lat="44.9313800" lon="7.0814030">
        <ele>1112.6</ele>
        <time>2017-07-27T07:13:13Z</time>
      </trkpt>
      <trkpt lat="44.9312550" lon="7.0813030">
        <ele>1113.6</ele>
        <time>2017-07-27T07:13:17Z</time>
      </trkpt>
      <trkpt lat="44.9311960" lon="7.0812530">
        <ele>1114.0</ele>
        <time>2017-07-27T07:13:19Z</time>
      </trkpt>
      <trkpt lat="44.9311430" lon="7.0811940">
        <ele>1114.8</ele>
        <time>2017-07-27T07:13:21Z</time>
      </trkpt>
      <trkpt lat="44.9310490" lon="7.0810340">
        <ele>1115.8</ele>
        <time>2017-07-27T07:13:26Z</time>
      </trkpt>
      <trkpt lat="44.9309850" lon="7.0808870">
        <ele>1117.2</ele>
        <time>2017-07-27T07:13:30Z</time>
      </trkpt>
      <trkpt lat="44.9309700" lon="7.0808460">
        <ele>1117.4</ele>
        <time>2017-07-27T07:13:31Z</time>
      </trkpt>
      <trkpt lat="44.9308970" lon="7.0806860">
        <ele>1118.4</ele>
        <time>2017-07-27T07:13:35Z</time>
      </trkpt>
      <trkpt lat="44.9308020" lon="7.0805290">
        <ele>1119.4</ele>
        <time>2017-07-27T07:13:39Z</time>
      </trkpt>
      <trkpt lat="44.9307850" lon="7.0804940">
        <ele>1119.6</ele>
        <time>2017-07-27T07:13:40Z</time>
      </trkpt>
      <trkpt lat="44.9307010" lon="7.0803530">
        <ele>1120.8</ele>
        <time>2017-07-27T07:13:44Z</time>
      </trkpt>
      <trkpt lat="44.9306740" lon="7.0803240">
        <ele>1121.2</ele>
        <time>2017-07-27T07:13:45Z</time>
      </trkpt>
      <trkpt lat="44.9306140" lon="7.0802600">
        <ele>1121.8</ele>
        <time>2017-07-27T07:13:47Z</time>
      </trkpt>
      <trkpt lat="44.9304300" lon="7.0800900">
        <ele>1122.8</ele>
        <time>2017-07-27T07:13:53Z</time>
      </trkpt>
      <trkpt lat="44.9304000" lon="7.0800660">
        <ele>1123.2</ele>
        <time>2017-07-27T07:13:54Z</time>
      </trkpt>
      <trkpt lat="44.9302730" lon="7.0799690">
        <ele>1124.0</ele>
        <time>2017-07-27T07:13:58Z</time>
      </trkpt>
      <trkpt lat="44.9301370" lon="7.0798930">
        <ele>1124.8</ele>
        <time>2017-07-27T07:14:02Z</time>
      </trkpt>
      <trkpt lat="44.9301020" lon="7.0798820">
        <ele>1125.0</ele>
        <time>2017-07-27T07:14:03Z</time>
      </trkpt>
      <trkpt lat="44.9299330" lon="7.0798270">
        <ele>1126.2</ele>
        <time>2017-07-27T07:14:08Z</time>
      </trkpt>
      <trkpt lat="44.9298710" lon="7.0797700">
        <ele>1127.0</ele>
        <time>2017-07-27T07:14:10Z</time>
      </trkpt>
      <trkpt lat="44.9298050" lon="7.0796970">
        <ele>1127.4</ele>
        <time>2017-07-27T07:14:12Z</time>
      </trkpt>
      <trkpt lat="44.9297420" lon="7.0796190">
        <ele>1127.6</ele>
        <time>2017-07-27T07:14:14Z</time>
      </trkpt>
      <trkpt lat="44.9296670" lon="7.0794670">
        <ele>1128.2</ele>
        <time>2017-07-27T07:14:17Z</time>
      </trkpt>
      <trkpt lat="44.9296220" lon="7.0793560">
        <ele>1128.4</ele>
        <time>2017-07-27T07:14:19Z</time>
      </trkpt>
      <trkpt lat="44.9295230" lon="7.0790820">
        <ele>1129.4</ele>
        <time>2017-07-27T07:14:24Z</time>
      </trkpt>
      <trkpt lat="44.9293800" lon="7.0787140">
        <ele>1130.6</ele>
        <time>2017-07-27T07:14:31Z</time>
      </trkpt>
      <trkpt lat="44.9293550" lon="7.0786660">
        <ele>1130.8</ele>
        <time>2017-07-27T07:14:32Z</time>
      </trkpt>
      <trkpt lat="44.9292780" lon="7.0784800">
        <ele>1131.8</ele>
        <time>2017-07-27T07:14:36Z</time>
      </trkpt>
      <trkpt lat="44.9292150" lon="7.0782650">
        <ele>1132.6</ele>
        <time>2017-07-27T07:14:40Z</time>
      </trkpt>
      <trkpt lat="44.9291800" lon="7.0781590">
        <ele>1133.2</ele>
        <time>2017-07-27T07:14:42Z</time>
      </trkpt>
      <trkpt lat="44.9290880" lon="7.0779200">
        <ele>1134.2</ele>
        <time>2017-07-27T07:14:47Z</time>
      </trkpt>
      <trkpt lat="44.9290740" lon="7.0778690">
        <ele>1134.4</ele>
        <time>2017-07-27T07:14:48Z</time>
      </trkpt>
      <trkpt lat="44.9289920" lon="7.0776010">
        <ele>1135.2</ele>
        <time>2017-07-27T07:14:53Z</time>
      </trkpt>
      <trkpt lat="44.9289450" lon="7.0773850">
        <ele>1136.2</ele>
        <time>2017-07-27T07:14:57Z</time>
      </trkpt>
      <trkpt lat="44.9289330" lon="7.0773330">
        <ele>1136.6</ele>
        <time>2017-07-27T07:14:58Z</time>
      </trkpt>
      <trkpt lat="44.9288730" lon="7.0770680">
        <ele>1137.6</ele>
        <time>2017-07-27T07:15:03Z</time>
      </trkpt>
      <trkpt lat="44.9288610" lon="7.0769160">
        <ele>1138.6</ele>
        <time>2017-07-27T07:15:06Z</time>
      </trkpt>
      <trkpt lat="44.9288870" lon="7.0767230">
        <ele>1139.6</ele>
        <time>2017-07-27T07:15:10Z</time>
      </trkpt>
      <trkpt lat="44.9288970" lon="7.0766300">
        <ele>1140.2</ele>
        <time>2017-07-27T07:15:12Z</time>
      </trkpt>
      <trkpt lat="44.9289130" lon="7.0765390">
        <ele>1140.8</ele>
        <time>2017-07-27T07:15:14Z</time>
      </trkpt>
      <trkpt lat="44.9289590" lon="7.0763740">
        <ele>1141.8</ele>
        <time>2017-07-27T07:15:18Z</time>
      </trkpt>
      <trkpt lat="44.9289850" lon="7.0763000">
        <ele>1142.4</ele>
        <time>2017-07-27T07:15:20Z</time>
      </trkpt>
      <trkpt lat="44.9290030" lon="7.0762240">
        <ele>1143.2</ele>
        <time>2017-07-27T07:15:22Z</time>
      </trkpt>
      <trkpt lat="44.9290380" lon="7.0760670">
        <ele>1144.2</ele>
        <time>2017-07-27T07:15:26Z</time>
      </trkpt>
      <trkpt lat="44.9290460" lon="7.0760280">
        <ele>1144.6</ele>
        <time>2017-07-27T07:15:27Z</time>
      </trkpt>
      <trkpt lat="44.9290510" lon="7.0759090">
        <ele>1145.2</ele>
        <time>2017-07-27T07:15:30Z</time>
      </trkpt>
      <trkpt lat="44.9290340" lon="7.0757500">
        <ele>1146.4</ele>
        <time>2017-07-27T07:15:34Z</time>
      </trkpt>
      <trkpt lat="44.9290020" lon="7.0755440">
        <ele>1147.4</ele>
        <time>2017-07-27T07:15:39Z</time>
      </trkpt>
      <trkpt lat="44.9289750" lon="7.0754260">
        <ele>1148.2</ele>
        <time>2017-07-27T07:15:42Z</time>
      </trkpt>
      <trkpt lat="44.9289570" lon="7.0753440">
        <ele>1148.6</ele>
        <time>2017-07-27T07:15:44Z</time>
      </trkpt>
      <trkpt lat="44.9289310" lon="7.0752130">
        <ele>1149.6</ele>
        <time>2017-07-27T07:15:47Z</time>
      </trkpt>
      <trkpt lat="44.9289050" lon="7.0750110">
        <ele>1151.0</ele>
        <time>2017-07-27T07:15:52Z</time>
      </trkpt>
      <trkpt lat="44.9288720" lon="7.0748010">
        <ele>1152.0</ele>
        <time>2017-07-27T07:15:57Z</time>
      </trkpt>
      <trkpt lat="44.9288340" lon="7.0746910">
        <ele>1153.0</ele>
        <time>2017-07-27T07:16:00Z</time>
      </trkpt>
      <trkpt lat="44.9287780" lon="7.0745580">
        <ele>1154.2</ele>
        <time>2017-07-27T07:16:04Z</time>
      </trkpt>
      <trkpt lat="44.9286820" lon="7.0744180">
        <ele>1155.2</ele>
        <time>2017-07-27T07:16:08Z</time>
      </trkpt>
      <trkpt lat="44.9286040" lon="7.0743460">
        <ele>1156.4</ele>
        <time>2017-07-27T07:16:11Z</time>
      </trkpt>
      <trkpt lat="44.9285240" lon="7.0742690">
        <ele>1157.4</ele>
        <time>2017-07-27T07:16:14Z</time>
      </trkpt>
      <trkpt lat="44.9284990" lon="7.0742460">
        <ele>1157.8</ele>
        <time>2017-07-27T07:16:15Z</time>
      </trkpt>
      <trkpt lat="44.9283680" lon="7.0741380">
        <ele>1159.0</ele>
        <time>2017-07-27T07:16:20Z</time>
      </trkpt>
      <trkpt lat="44.9282900" lon="7.0740730">
        <ele>1159.8</ele>
        <time>2017-07-27T07:16:23Z</time>
      </trkpt>
      <trkpt lat="44.9282640" lon="7.0740530">
        <ele>1160.2</ele>
        <time>2017-07-27T07:16:24Z</time>
      </trkpt>
      <trkpt lat="44.9281570" lon="7.0739920">
        <ele>1161.2</ele>
        <time>2017-07-27T07:16:28Z</time>
      </trkpt>
      <trkpt lat="44.9281050" lon="7.0739610">
        <ele>1161.6</ele>
        <time>2017-07-27T07:16:30Z</time>
      </trkpt>
      <trkpt lat="44.9280000" lon="7.0739070">
        <ele>1162.6</ele>
        <time>2017-07-27T07:16:34Z</time>
      </trkpt>
      <trkpt lat="44.9278970" lon="7.0738500">
        <ele>1163.8</ele>
        <time>2017-07-27T07:16:38Z</time>
      </trkpt>
      <trkpt lat="44.9278710" lon="7.0738360">
        <ele>1163.8</ele>
        <time>2017-07-27T07:16:39Z</time>
      </trkpt>
      <trkpt lat="44.9277680" lon="7.0737800">
        <ele>1165.0</ele>
        <time>2017-07-27T07:16:43Z</time>
      </trkpt>
      <trkpt lat="44.9276640" lon="7.0737140">
        <ele>1166.0</ele>
        <time>2017-07-27T07:16:47Z</time>
      </trkpt>
      <trkpt lat="44.9275600" lon="7.0736540">
        <ele>1167.2</ele>
        <time>2017-07-27T07:16:51Z</time>
      </trkpt>
      <trkpt lat="44.9274740" lon="7.0736000">
        <ele>1167.8</ele>
        <time>2017-07-27T07:16:54Z</time>
      </trkpt>
      <trkpt lat="44.9274440" lon="7.0735800">
        <ele>1168.2</ele>
        <time>2017-07-27T07:16:55Z</time>
      </trkpt>
      <trkpt lat="44.9273600" lon="7.0735290">
        <ele>1169.2</ele>
        <time>2017-07-27T07:16:58Z</time>
      </trkpt>
      <trkpt lat="44.9272870" lon="7.0734730">
        <ele>1170.2</ele>
        <time>2017-07-27T07:17:01Z</time>
      </trkpt>
      <trkpt lat="44.9272610" lon="7.0734540">
        <ele>1170.6</ele>
        <time>2017-07-27T07:17:02Z</time>
      </trkpt>
      <trkpt lat="44.9271920" lon="7.0733780">
        <ele>1171.6</ele>
        <time>2017-07-27T07:17:06Z</time>
      </trkpt>
      <trkpt lat="44.9271770" lon="7.0733610">
        <ele>1172.0</ele>
        <time>2017-07-27T07:17:07Z</time>
      </trkpt>
      <trkpt lat="44.9271290" lon="7.0733000">
        <ele>1172.8</ele>
        <time>2017-07-27T07:17:10Z</time>
      </trkpt>
      <trkpt lat="44.9270820" lon="7.0731640">
        <ele>1173.8</ele>
        <time>2017-07-27T07:17:14Z</time>
      </trkpt>
      <trkpt lat="44.9270520" lon="7.0730240">
        <ele>1175.0</ele>
        <time>2017-07-27T07:17:18Z</time>
      </trkpt>
      <trkpt lat="44.9270450" lon="7.0729380">
        <ele>1175.6</ele>
        <time>2017-07-27T07:17:20Z</time>
      </trkpt>
      <trkpt lat="44.9270310" lon="7.0728450">
        <ele>1176.4</ele>
        <time>2017-07-27T07:17:22Z</time>
      </trkpt>
      <trkpt lat="44.9270280" lon="7.0726270">
        <ele>1177.8</ele>
        <time>2017-07-27T07:17:27Z</time>
      </trkpt>
      <trkpt lat="44.9270170" lon="7.0724480">
        <ele>1178.8</ele>
        <time>2017-07-27T07:17:31Z</time>
      </trkpt>
      <trkpt lat="44.9269420" lon="7.0722920">
        <ele>1180.0</ele>
        <time>2017-07-27T07:17:35Z</time>
      </trkpt>
      <trkpt lat="44.9269510" lon="7.0721330">
        <ele>1181.0</ele>
        <time>2017-07-27T07:17:39Z</time>
      </trkpt>
      <trkpt lat="44.9269630" lon="7.0719790">
        <ele>1182.0</ele>
        <time>2017-07-27T07:17:43Z</time>
      </trkpt>
      <trkpt lat="44.9269550" lon="7.0718740">
        <ele>1183.2</ele>
        <time>2017-07-27T07:17:46Z</time>
      </trkpt>
      <trkpt lat="44.9268800" lon="7.0717790">
        <ele>1184.0</ele>
        <time>2017-07-27T07:17:49Z</time>
      </trkpt>
      <trkpt lat="44.9268330" lon="7.0717140">
        <ele>1184.4</ele>
        <time>2017-07-27T07:17:51Z</time>
      </trkpt>
      <trkpt lat="44.9267240" lon="7.0714930">
        <ele>1185.6</ele>
        <time>2017-07-27T07:17:57Z</time>
      </trkpt>
      <trkpt lat="44.9267130" lon="7.0713000">
        <ele>1186.6</ele>
        <time>2017-07-27T07:18:02Z</time>
      </trkpt>
      <trkpt lat="44.9267220" lon="7.0712610">
        <ele>1186.6</ele>
        <time>2017-07-27T07:18:03Z</time>
      </trkpt>
      <trkpt lat="44.9267650" lon="7.0710590">
        <ele>1188.0</ele>
        <time>2017-07-27T07:18:08Z</time>
      </trkpt>
      <trkpt lat="44.9267800" lon="7.0709810">
        <ele>1188.6</ele>
        <time>2017-07-27T07:18:10Z</time>
      </trkpt>
      <trkpt lat="44.9267910" lon="7.0709020">
        <ele>1189.0</ele>
        <time>2017-07-27T07:18:12Z</time>
      </trkpt>
      <trkpt lat="44.9268180" lon="7.0707030">
        <ele>1190.2</ele>
        <time>2017-07-27T07:18:17Z</time>
      </trkpt>
      <trkpt lat="44.9268180" lon="7.0706220">
        <ele>1190.8</ele>
        <time>2017-07-27T07:18:19Z</time>
      </trkpt>
      <trkpt lat="44.9268130" lon="7.0704910">
        <ele>1191.4</ele>
        <time>2017-07-27T07:18:22Z</time>
      </trkpt>
      <trkpt lat="44.9267950" lon="7.0703040">
        <ele>1192.4</ele>
        <time>2017-07-27T07:18:26Z</time>
      </trkpt>
      <trkpt lat="44.9267810" lon="7.0702560">
        <ele>1192.6</ele>
        <time>2017-07-27T07:18:27Z</time>
      </trkpt>
      <trkpt lat="44.9267010" lon="7.0700300">
        <ele>1193.8</ele>
        <time>2017-07-27T07:18:32Z</time>
      </trkpt>
      <trkpt lat="44.9266150" lon="7.0699170">
        <ele>1194.8</ele>
        <time>2017-07-27T07:18:35Z</time>
      </trkpt>
      <trkpt lat="44.9265520" lon="7.0698570">
        <ele>1195.2</ele>
        <time>2017-07-27T07:18:37Z</time>
      </trkpt>
      <trkpt lat="44.9264510" lon="7.0697760">
        <ele>1196.0</ele>
        <time>2017-07-27T07:18:40Z</time>
      </trkpt>
      <trkpt lat="44.9263060" lon="7.0696600">
        <ele>1197.0</ele>
        <time>2017-07-27T07:18:44Z</time>
      </trkpt>
      <trkpt lat="44.9262680" lon="7.0696350">
        <ele>1197.2</ele>
        <time>2017-07-27T07:18:45Z</time>
      </trkpt>
      <trkpt lat="44.9260910" lon="7.0695080">
        <ele>1198.2</ele>
        <time>2017-07-27T07:18:50Z</time>
      </trkpt>
      <trkpt lat="44.9259600" lon="7.0694160">
        <ele>1199.4</ele>
        <time>2017-07-27T07:18:54Z</time>
      </trkpt>
      <trkpt lat="44.9258350" lon="7.0693310">
        <ele>1200.8</ele>
        <time>2017-07-27T07:18:58Z</time>
      </trkpt>
      <trkpt lat="44.9257120" lon="7.0692610">
        <ele>1202.0</ele>
        <time>2017-07-27T07:19:02Z</time>
      </trkpt>
      <trkpt lat="44.9255800" lon="7.0691620">
        <ele>1203.0</ele>
        <time>2017-07-27T07:19:06Z</time>
      </trkpt>
      <trkpt lat="44.9255180" lon="7.0691090">
        <ele>1203.6</ele>
        <time>2017-07-27T07:19:08Z</time>
      </trkpt>
      <trkpt lat="44.9254570" lon="7.0690540">
        <ele>1204.2</ele>
        <time>2017-07-27T07:19:10Z</time>
      </trkpt>
      <trkpt lat="44.9253310" lon="7.0689280">
        <ele>1205.4</ele>
        <time>2017-07-27T07:19:14Z</time>
      </trkpt>
      <trkpt lat="44.9253030" lon="7.0688900">
        <ele>1205.6</ele>
        <time>2017-07-27T07:19:15Z</time>
      </trkpt>
      <trkpt lat="44.9251870" lon="7.0687440">
        <ele>1206.6</ele>
        <time>2017-07-27T07:19:19Z</time>
      </trkpt>
      <trkpt lat="44.9250870" lon="7.0686430">
        <ele>1207.6</ele>
        <time>2017-07-27T07:19:22Z</time>
      </trkpt>
      <trkpt lat="44.9250150" lon="7.0685810">
        <ele>1208.2</ele>
        <time>2017-07-27T07:19:24Z</time>
      </trkpt>
      <trkpt lat="44.9249440" lon="7.0685200">
        <ele>1208.6</ele>
        <time>2017-07-27T07:19:26Z</time>
      </trkpt>
      <trkpt lat="44.9247450" lon="7.0684050">
        <ele>1209.8</ele>
        <time>2017-07-27T07:19:31Z</time>
      </trkpt>
      <trkpt lat="44.9245910" lon="7.0682950">
        <ele>1210.8</ele>
        <time>2017-07-27T07:19:35Z</time>
      </trkpt>
      <trkpt lat="44.9245280" lon="7.0682220">
        <ele>1211.2</ele>
        <time>2017-07-27T07:19:37Z</time>
      </trkpt>
      <trkpt lat="44.9244830" lon="7.0681310">
        <ele>1211.6</ele>
        <time>2017-07-27T07:19:39Z</time>
      </trkpt>
      <trkpt lat="44.9244720" lon="7.0680060">
        <ele>1212.0</ele>
        <time>2017-07-27T07:19:41Z</time>
      </trkpt>
      <trkpt lat="44.9244780" lon="7.0679340">
        <ele>1212.0</ele>
        <time>2017-07-27T07:19:42Z</time>
      </trkpt>
      <trkpt lat="44.9245070" lon="7.0677230">
        <ele>1212.6</ele>
        <time>2017-07-27T07:19:45Z</time>
      </trkpt>
      <trkpt lat="44.9245320" lon="7.0675890">
        <ele>1213.0</ele>
        <time>2017-07-27T07:19:47Z</time>
      </trkpt>
      <trkpt lat="44.9245440" lon="7.0675260">
        <ele>1213.0</ele>
        <time>2017-07-27T07:19:48Z</time>
      </trkpt>
      <trkpt lat="44.9245620" lon="7.0674670">
        <ele>1213.0</ele>
        <time>2017-07-27T07:19:49Z</time>
      </trkpt>
      <trkpt lat="44.9246270" lon="7.0673940">
        <ele>1213.2</ele>
        <time>2017-07-27T07:19:51Z</time>
      </trkpt>
      <trkpt lat="44.9247130" lon="7.0674120">
        <ele>1213.0</ele>
        <time>2017-07-27T07:19:53Z</time>
      </trkpt>
      <trkpt lat="44.9247450" lon="7.0674130">
        <ele>1213.2</ele>
        <time>2017-07-27T07:19:54Z</time>
      </trkpt>
      <trkpt lat="44.9247830" lon="7.0674150">
        <ele>1213.0</ele>
        <time>2017-07-27T07:19:56Z</time>
      </trkpt>
      <trkpt lat="44.9247950" lon="7.0674180">
        <ele>1210.8</ele>
        <time>2017-07-27T07:21:42Z</time>
      </trkpt>
      <trkpt lat="44.9248090" lon="7.0674170">
        <ele>1210.8</ele>
        <time>2017-07-27T07:21:43Z</time>
      </trkpt>
      <trkpt lat="44.9249040" lon="7.0674400">
        <ele>1211.0</ele>
        <time>2017-07-27T07:21:47Z</time>
      </trkpt>
      <trkpt lat="44.9250310" lon="7.0674320">
        <ele>1211.4</ele>
        <time>2017-07-27T07:21:51Z</time>
      </trkpt>
      <trkpt lat="44.9250720" lon="7.0674240">
        <ele>1211.6</ele>
        <time>2017-07-27T07:21:52Z</time>
      </trkpt>
      <trkpt lat="44.9251150" lon="7.0674120">
        <ele>1211.8</ele>
        <time>2017-07-27T07:21:53Z</time>
      </trkpt>
      <trkpt lat="44.9251920" lon="7.0673980">
        <ele>1212.4</ele>
        <time>2017-07-27T07:21:55Z</time>
      </trkpt>
      <trkpt lat="44.9252310" lon="7.0674110">
        <ele>1212.6</ele>
        <time>2017-07-27T07:21:56Z</time>
      </trkpt>
      <trkpt lat="44.9252650" lon="7.0674420">
        <ele>1213.0</ele>
        <time>2017-07-27T07:21:57Z</time>
      </trkpt>
      <trkpt lat="44.9253170" lon="7.0675300">
        <ele>1213.8</ele>
        <time>2017-07-27T07:21:59Z</time>
      </trkpt>
      <trkpt lat="44.9253410" lon="7.0675760">
        <ele>1214.0</ele>
        <time>2017-07-27T07:22:00Z</time>
      </trkpt>
      <trkpt lat="44.9253890" lon="7.0676670">
        <ele>1214.8</ele>
        <time>2017-07-27T07:22:02Z</time>
      </trkpt>
      <trkpt lat="44.9254120" lon="7.0677170">
        <ele>1215.2</ele>
        <time>2017-07-27T07:22:03Z</time>
      </trkpt>
      <trkpt lat="44.9255010" lon="7.0678570">
        <ele>1216.4</ele>
        <time>2017-07-27T07:22:06Z</time>
      </trkpt>
      <trkpt lat="44.9255910" lon="7.0679790">
        <ele>1217.4</ele>
        <time>2017-07-27T07:22:09Z</time>
      </trkpt>
      <trkpt lat="44.9256190" lon="7.0680150">
        <ele>1218.2</ele>
        <time>2017-07-27T07:22:10Z</time>
      </trkpt>
      <trkpt lat="44.9257110" lon="7.0681130">
        <ele>1219.4</ele>
        <time>2017-07-27T07:22:13Z</time>
      </trkpt>
      <trkpt lat="44.9258380" lon="7.0682430">
        <ele>1220.4</ele>
        <time>2017-07-27T07:22:17Z</time>
      </trkpt>
      <trkpt lat="44.9258680" lon="7.0682790">
        <ele>1220.8</ele>
        <time>2017-07-27T07:22:18Z</time>
      </trkpt>
      <trkpt lat="44.9260160" lon="7.0684550">
        <ele>1221.8</ele>
        <time>2017-07-27T07:22:23Z</time>
      </trkpt>
      <trkpt lat="44.9260490" lon="7.0684870">
        <ele>1222.0</ele>
        <time>2017-07-27T07:22:24Z</time>
      </trkpt>
      <trkpt lat="44.9261970" lon="7.0686050">
        <ele>1223.2</ele>
        <time>2017-07-27T07:22:28Z</time>
      </trkpt>
      <trkpt lat="44.9262350" lon="7.0686340">
        <ele>1223.4</ele>
        <time>2017-07-27T07:22:29Z</time>
      </trkpt>
      <trkpt lat="44.9263780" lon="7.0687450">
        <ele>1224.2</ele>
        <time>2017-07-27T07:22:33Z</time>
      </trkpt>
      <trkpt lat="44.9264850" lon="7.0688130">
        <ele>1225.2</ele>
        <time>2017-07-27T07:22:36Z</time>
      </trkpt>
      <trkpt lat="44.9266880" lon="7.0689530">
        <ele>1226.4</ele>
        <time>2017-07-27T07:22:42Z</time>
      </trkpt>
      <trkpt lat="44.9267550" lon="7.0689540">
        <ele>1227.0</ele>
        <time>2017-07-27T07:22:44Z</time>
      </trkpt>
      <trkpt lat="44.9267840" lon="7.0689240">
        <ele>1227.4</ele>
        <time>2017-07-27T07:22:45Z</time>
      </trkpt>
      <trkpt lat="44.9268040" lon="7.0688800">
        <ele>1227.6</ele>
        <time>2017-07-27T07:22:46Z</time>
      </trkpt>
      <trkpt lat="44.9267930" lon="7.0687720">
        <ele>1228.2</ele>
        <time>2017-07-27T07:22:48Z</time>
      </trkpt>
      <trkpt lat="44.9267260" lon="7.0687270">
        <ele>1229.0</ele>
        <time>2017-07-27T07:22:50Z</time>
      </trkpt>
      <trkpt lat="44.9266820" lon="7.0687190">
        <ele>1229.2</ele>
        <time>2017-07-27T07:22:51Z</time>
      </trkpt>
      <trkpt lat="44.9266360" lon="7.0687120">
        <ele>1229.4</ele>
        <time>2017-07-27T07:22:52Z</time>
      </trkpt>
      <trkpt lat="44.9265190" lon="7.0686540">
        <ele>1230.0</ele>
        <time>2017-07-27T07:22:55Z</time>
      </trkpt>
      <trkpt lat="44.9264450" lon="7.0686090">
        <ele>1230.4</ele>
        <time>2017-07-27T07:22:57Z</time>
      </trkpt>
      <trkpt lat="44.9263810" lon="7.0685580">
        <ele>1231.2</ele>
        <time>2017-07-27T07:22:59Z</time>
      </trkpt>
      <trkpt lat="44.9262850" lon="7.0684520">
        <ele>1232.2</ele>
        <time>2017-07-27T07:23:03Z</time>
      </trkpt>
      <trkpt lat="44.9262010" lon="7.0683370">
        <ele>1233.6</ele>
        <time>2017-07-27T07:23:07Z</time>
      </trkpt>
      <trkpt lat="44.9261310" lon="7.0682530">
        <ele>1234.8</ele>
        <time>2017-07-27T07:23:10Z</time>
      </trkpt>
      <trkpt lat="44.9260570" lon="7.0681700">
        <ele>1235.8</ele>
        <time>2017-07-27T07:23:13Z</time>
      </trkpt>
      <trkpt lat="44.9259740" lon="7.0680390">
        <ele>1237.0</ele>
        <time>2017-07-27T07:23:17Z</time>
      </trkpt>
      <trkpt lat="44.9258970" lon="7.0679140">
        <ele>1238.0</ele>
        <time>2017-07-27T07:23:21Z</time>
      </trkpt>
      <trkpt lat="44.9258530" lon="7.0678070">
        <ele>1239.2</ele>
        <time>2017-07-27T07:23:24Z</time>
      </trkpt>
      <trkpt lat="44.9258320" lon="7.0677070">
        <ele>1240.4</ele>
        <time>2017-07-27T07:23:27Z</time>
      </trkpt>
      <trkpt lat="44.9258070" lon="7.0676000">
        <ele>1241.2</ele>
        <time>2017-07-27T07:23:30Z</time>
      </trkpt>
      <trkpt lat="44.9258020" lon="7.0675630">
        <ele>1241.6</ele>
        <time>2017-07-27T07:23:31Z</time>
      </trkpt>
      <trkpt lat="44.9257850" lon="7.0674210">
        <ele>1243.0</ele>
        <time>2017-07-27T07:23:35Z</time>
      </trkpt>
      <trkpt lat="44.9257830" lon="7.0673900">
        <ele>1243.2</ele>
        <time>2017-07-27T07:23:36Z</time>
      </trkpt>
      <trkpt lat="44.9257700" lon="7.0673210">
        <ele>1244.0</ele>
        <time>2017-07-27T07:23:38Z</time>
      </trkpt>
      <trkpt lat="44.9257410" lon="7.0671840">
        <ele>1245.2</ele>
        <time>2017-07-27T07:23:42Z</time>
      </trkpt>
      <trkpt lat="44.9257290" lon="7.0671480">
        <ele>1245.6</ele>
        <time>2017-07-27T07:23:43Z</time>
      </trkpt>
      <trkpt lat="44.9257010" lon="7.0670760">
        <ele>1246.2</ele>
        <time>2017-07-27T07:23:45Z</time>
      </trkpt>
      <trkpt lat="44.9256640" lon="7.0670130">
        <ele>1247.4</ele>
        <time>2017-07-27T07:23:47Z</time>
      </trkpt>
      <trkpt lat="44.9256150" lon="7.0669490">
        <ele>1247.8</ele>
        <time>2017-07-27T07:23:49Z</time>
      </trkpt>
      <trkpt lat="44.9255670" lon="7.0668950">
        <ele>1248.6</ele>
        <time>2017-07-27T07:23:51Z</time>
      </trkpt>
      <trkpt lat="44.9254630" lon="7.0668130">
        <ele>1249.8</ele>
        <time>2017-07-27T07:23:55Z</time>
      </trkpt>
      <trkpt lat="44.9254360" lon="7.0667910">
        <ele>1250.2</ele>
        <time>2017-07-27T07:23:56Z</time>
      </trkpt>
      <trkpt lat="44.9253550" lon="7.0667250">
        <ele>1251.0</ele>
        <time>2017-07-27T07:23:59Z</time>
      </trkpt>
      <trkpt lat="44.9252760" lon="7.0666420">
        <ele>1252.2</ele>
        <time>2017-07-27T07:24:02Z</time>
      </trkpt>
      <trkpt lat="44.9251950" lon="7.0665530">
        <ele>1252.8</ele>
        <time>2017-07-27T07:24:05Z</time>
      </trkpt>
      <trkpt lat="44.9251690" lon="7.0665300">
        <ele>1253.2</ele>
        <time>2017-07-27T07:24:06Z</time>
      </trkpt>
      <trkpt lat="44.9250600" lon="7.0664440">
        <ele>1254.6</ele>
        <time>2017-07-27T07:24:10Z</time>
      </trkpt>
      <trkpt lat="44.9250000" lon="7.0664100">
        <ele>1255.2</ele>
        <time>2017-07-27T07:24:12Z</time>
      </trkpt>
      <trkpt lat="44.9249060" lon="7.0663670">
        <ele>1255.8</ele>
        <time>2017-07-27T07:24:15Z</time>
      </trkpt>
      <trkpt lat="44.9248130" lon="7.0663550">
        <ele>1256.4</ele>
        <time>2017-07-27T07:24:18Z</time>
      </trkpt>
      <trkpt lat="44.9247540" lon="7.0663830">
        <ele>1257.0</ele>
        <time>2017-07-27T07:24:20Z</time>
      </trkpt>
      <trkpt lat="44.9246760" lon="7.0664510">
        <ele>1257.6</ele>
        <time>2017-07-27T07:24:23Z</time>
      </trkpt>
      <trkpt lat="44.9246310" lon="7.0665060">
        <ele>1258.0</ele>
        <time>2017-07-27T07:24:25Z</time>
      </trkpt>
      <trkpt lat="44.9245510" lon="7.0666210">
        <ele>1259.0</ele>
        <time>2017-07-27T07:24:29Z</time>
      </trkpt>
      <trkpt lat="44.9245310" lon="7.0666530">
        <ele>1259.0</ele>
        <time>2017-07-27T07:24:30Z</time>
      </trkpt>
      <trkpt lat="44.9244470" lon="7.0667630">
        <ele>1260.2</ele>
        <time>2017-07-27T07:24:34Z</time>
      </trkpt>
      <trkpt lat="44.9243980" lon="7.0668050">
        <ele>1260.4</ele>
        <time>2017-07-27T07:24:36Z</time>
      </trkpt>
      <trkpt lat="44.9242730" lon="7.0668250">
        <ele>1261.2</ele>
        <time>2017-07-27T07:24:40Z</time>
      </trkpt>
      <trkpt lat="44.9242380" lon="7.0668120">
        <ele>1261.4</ele>
        <time>2017-07-27T07:24:41Z</time>
      </trkpt>
      <trkpt lat="44.9241050" lon="7.0667190">
        <ele>1262.4</ele>
        <time>2017-07-27T07:24:45Z</time>
      </trkpt>
      <trkpt lat="44.9240770" lon="7.0666930">
        <ele>1262.8</ele>
        <time>2017-07-27T07:24:46Z</time>
      </trkpt>
      <trkpt lat="44.9239740" lon="7.0665560">
        <ele>1263.6</ele>
        <time>2017-07-27T07:24:50Z</time>
      </trkpt>
      <trkpt lat="44.9239010" lon="7.0664440">
        <ele>1264.2</ele>
        <time>2017-07-27T07:24:53Z</time>
      </trkpt>
      <trkpt lat="44.9238540" lon="7.0663740">
        <ele>1264.6</ele>
        <time>2017-07-27T07:24:55Z</time>
      </trkpt>
      <trkpt lat="44.9237710" lon="7.0662280">
        <ele>1266.0</ele>
        <time>2017-07-27T07:24:59Z</time>
      </trkpt>
      <trkpt lat="44.9236840" lon="7.0660780">
        <ele>1267.0</ele>
        <time>2017-07-27T07:25:03Z</time>
      </trkpt>
      <trkpt lat="44.9236050" lon="7.0659630">
        <ele>1267.6</ele>
        <time>2017-07-27T07:25:06Z</time>
      </trkpt>
      <trkpt lat="44.9235690" lon="7.0658790">
        <ele>1268.0</ele>
        <time>2017-07-27T07:25:08Z</time>
      </trkpt>
      <trkpt lat="44.9235000" lon="7.0657730">
        <ele>1268.8</ele>
        <time>2017-07-27T07:25:11Z</time>
      </trkpt>
      <trkpt lat="44.9234510" lon="7.0656920">
        <ele>1269.2</ele>
        <time>2017-07-27T07:25:13Z</time>
      </trkpt>
      <trkpt lat="44.9233400" lon="7.0655300">
        <ele>1270.0</ele>
        <time>2017-07-27T07:25:17Z</time>
      </trkpt>
      <trkpt lat="44.9232910" lon="7.0654400">
        <ele>1270.4</ele>
        <time>2017-07-27T07:25:19Z</time>
      </trkpt>
      <trkpt lat="44.9232070" lon="7.0653220">
        <ele>1271.0</ele>
        <time>2017-07-27T07:25:22Z</time>
      </trkpt>
      <trkpt lat="44.9231540" lon="7.0652450">
        <ele>1271.6</ele>
        <time>2017-07-27T07:25:24Z</time>
      </trkpt>
      <trkpt lat="44.9230780" lon="7.0651250">
        <ele>1272.6</ele>
        <time>2017-07-27T07:25:27Z</time>
      </trkpt>
      <trkpt lat="44.9229420" lon="7.0649380">
        <ele>1273.8</ele>
        <time>2017-07-27T07:25:32Z</time>
      </trkpt>
      <trkpt lat="44.9229140" lon="7.0649010">
        <ele>1274.2</ele>
        <time>2017-07-27T07:25:33Z</time>
      </trkpt>
      <trkpt lat="44.9228410" lon="7.0647710">
        <ele>1275.0</ele>
        <time>2017-07-27T07:25:36Z</time>
      </trkpt>
      <trkpt lat="44.9227800" lon="7.0646200">
        <ele>1276.0</ele>
        <time>2017-07-27T07:25:39Z</time>
      </trkpt>
      <trkpt lat="44.9227690" lon="7.0645670">
        <ele>1276.2</ele>
        <time>2017-07-27T07:25:40Z</time>
      </trkpt>
      <trkpt lat="44.9227350" lon="7.0643990">
        <ele>1277.2</ele>
        <time>2017-07-27T07:25:43Z</time>
      </trkpt>
      <trkpt lat="44.9227220" lon="7.0642360">
        <ele>1278.8</ele>
        <time>2017-07-27T07:25:46Z</time>
      </trkpt>
      <trkpt lat="44.9227230" lon="7.0641850">
        <ele>1279.0</ele>
        <time>2017-07-27T07:25:47Z</time>
      </trkpt>
      <trkpt lat="44.9227270" lon="7.0640780">
        <ele>1279.8</ele>
        <time>2017-07-27T07:25:49Z</time>
      </trkpt>
      <trkpt lat="44.9227190" lon="7.0638650">
        <ele>1281.0</ele>
        <time>2017-07-27T07:25:53Z</time>
      </trkpt>
      <trkpt lat="44.9227160" lon="7.0638130">
        <ele>1281.4</ele>
        <time>2017-07-27T07:25:54Z</time>
      </trkpt>
      <trkpt lat="44.9227090" lon="7.0636500">
        <ele>1282.4</ele>
        <time>2017-07-27T07:25:57Z</time>
      </trkpt>
      <trkpt lat="44.9226750" lon="7.0634550">
        <ele>1283.6</ele>
        <time>2017-07-27T07:26:01Z</time>
      </trkpt>
      <trkpt lat="44.9226440" lon="7.0632370">
        <ele>1284.8</ele>
        <time>2017-07-27T07:26:05Z</time>
      </trkpt>
      <trkpt lat="44.9226160" lon="7.0630770">
        <ele>1285.4</ele>
        <time>2017-07-27T07:26:08Z</time>
      </trkpt>
      <trkpt lat="44.9226030" lon="7.0630250">
        <ele>1285.8</ele>
        <time>2017-07-27T07:26:09Z</time>
      </trkpt>
      <trkpt lat="44.9225770" lon="7.0629290">
        <ele>1286.8</ele>
        <time>2017-07-27T07:26:11Z</time>
      </trkpt>
      <trkpt lat="44.9225440" lon="7.0627920">
        <ele>1287.8</ele>
        <time>2017-07-27T07:26:14Z</time>
      </trkpt>
      <trkpt lat="44.9225240" lon="7.0626980">
        <ele>1288.6</ele>
        <time>2017-07-27T07:26:16Z</time>
      </trkpt>
      <trkpt lat="44.9225120" lon="7.0626090">
        <ele>1289.2</ele>
        <time>2017-07-27T07:26:18Z</time>
      </trkpt>
      <trkpt lat="44.9224620" lon="7.0624710">
        <ele>1290.4</ele>
        <time>2017-07-27T07:26:22Z</time>
      </trkpt>
      <trkpt lat="44.9223840" lon="7.0623830">
        <ele>1291.6</ele>
        <time>2017-07-27T07:26:26Z</time>
      </trkpt>
      <trkpt lat="44.9223580" lon="7.0623640">
        <ele>1292.0</ele>
        <time>2017-07-27T07:26:27Z</time>
      </trkpt>
      <trkpt lat="44.9222930" lon="7.0623030">
        <ele>1293.0</ele>
        <time>2017-07-27T07:26:30Z</time>
      </trkpt>
      <trkpt lat="44.9222420" lon="7.0622400">
        <ele>1294.0</ele>
        <time>2017-07-27T07:26:33Z</time>
      </trkpt>
      <trkpt lat="44.9222230" lon="7.0622220">
        <ele>1294.6</ele>
        <time>2017-07-27T07:26:34Z</time>
      </trkpt>
      <trkpt lat="44.9221480" lon="7.0621440">
        <ele>1295.8</ele>
        <time>2017-07-27T07:26:38Z</time>
      </trkpt>
      <trkpt lat="44.9221090" lon="7.0620970">
        <ele>1296.4</ele>
        <time>2017-07-27T07:26:40Z</time>
      </trkpt>
      <trkpt lat="44.9220640" lon="7.0620510">
        <ele>1297.0</ele>
        <time>2017-07-27T07:26:42Z</time>
      </trkpt>
      <trkpt lat="44.9219960" lon="7.0619830">
        <ele>1298.2</ele>
        <time>2017-07-27T07:26:45Z</time>
      </trkpt>
      <trkpt lat="44.9219760" lon="7.0619660">
        <ele>1298.6</ele>
        <time>2017-07-27T07:26:46Z</time>
      </trkpt>
      <trkpt lat="44.9219160" lon="7.0618960">
        <ele>1299.6</ele>
        <time>2017-07-27T07:26:49Z</time>
      </trkpt>
      <trkpt lat="44.9218540" lon="7.0618360">
        <ele>1300.8</ele>
        <time>2017-07-27T07:26:52Z</time>
      </trkpt>
      <trkpt lat="44.9217930" lon="7.0617820">
        <ele>1301.8</ele>
        <time>2017-07-27T07:26:55Z</time>
      </trkpt>
      <trkpt lat="44.9217490" lon="7.0617400">
        <ele>1303.0</ele>
        <time>2017-07-27T07:26:58Z</time>
      </trkpt>
      <trkpt lat="44.9217090" lon="7.0616310">
        <ele>1304.0</ele>
        <time>2017-07-27T07:27:02Z</time>
      </trkpt>
      <trkpt lat="44.9216950" lon="7.0616040">
        <ele>1304.4</ele>
        <time>2017-07-27T07:27:03Z</time>
      </trkpt>
      <trkpt lat="44.9216750" lon="7.0615870">
        <ele>1304.6</ele>
        <time>2017-07-27T07:27:04Z</time>
      </trkpt>
      <trkpt lat="44.9216320" lon="7.0615620">
        <ele>1305.2</ele>
        <time>2017-07-27T07:27:06Z</time>
      </trkpt>
      <trkpt lat="44.9215660" lon="7.0615340">
        <ele>1306.4</ele>
        <time>2017-07-27T07:27:09Z</time>
      </trkpt>
      <trkpt lat="44.9215270" lon="7.0615160">
        <ele>1307.0</ele>
        <time>2017-07-27T07:27:11Z</time>
      </trkpt>
      <trkpt lat="44.9214860" lon="7.0614880">
        <ele>1307.6</ele>
        <time>2017-07-27T07:27:13Z</time>
      </trkpt>
      <trkpt lat="44.9214200" lon="7.0614370">
        <ele>1308.4</ele>
        <time>2017-07-27T07:27:17Z</time>
      </trkpt>
      <trkpt lat="44.9213990" lon="7.0614300">
        <ele>1308.6</ele>
        <time>2017-07-27T07:27:18Z</time>
      </trkpt>
      <trkpt lat="44.9213120" lon="7.0613830">
        <ele>1310.0</ele>
        <time>2017-07-27T07:27:22Z</time>
      </trkpt>
      <trkpt lat="44.9212720" lon="7.0613590">
        <ele>1310.6</ele>
        <time>2017-07-27T07:27:24Z</time>
      </trkpt>
      <trkpt lat="44.9212270" lon="7.0613370">
        <ele>1311.0</ele>
        <time>2017-07-27T07:27:26Z</time>
      </trkpt>
      <trkpt lat="44.9211440" lon="7.0612920">
        <ele>1312.2</ele>
        <time>2017-07-27T07:27:30Z</time>
      </trkpt>
      <trkpt lat="44.9210610" lon="7.0612340">
        <ele>1313.6</ele>
        <time>2017-07-27T07:27:34Z</time>
      </trkpt>
      <trkpt lat="44.9210350" lon="7.0612220">
        <ele>1313.8</ele>
        <time>2017-07-27T07:27:35Z</time>
      </trkpt>
      <trkpt lat="44.9209750" lon="7.0611830">
        <ele>1315.0</ele>
        <time>2017-07-27T07:27:38Z</time>
      </trkpt>
      <trkpt lat="44.9209400" lon="7.0611710">
        <ele>1315.6</ele>
        <time>2017-07-27T07:27:40Z</time>
      </trkpt>
      <trkpt lat="44.9208990" lon="7.0611710">
        <ele>1316.2</ele>
        <time>2017-07-27T07:27:42Z</time>
      </trkpt>
      <trkpt lat="44.9208360" lon="7.0611720">
        <ele>1317.4</ele>
        <time>2017-07-27T07:27:45Z</time>
      </trkpt>
      <trkpt lat="44.9208160" lon="7.0611720">
        <ele>1318.2</ele>
        <time>2017-07-27T07:27:46Z</time>
      </trkpt>
      <trkpt lat="44.9207980" lon="7.0611680">
        <ele>1318.4</ele>
        <time>2017-07-27T07:27:47Z</time>
      </trkpt>
      <trkpt lat="44.9207300" lon="7.0611470">
        <ele>1319.6</ele>
        <time>2017-07-27T07:27:50Z</time>
      </trkpt>
      <trkpt lat="44.9206840" lon="7.0611480">
        <ele>1320.2</ele>
        <time>2017-07-27T07:27:52Z</time>
      </trkpt>
      <trkpt lat="44.9206610" lon="7.0611560">
        <ele>1320.6</ele>
        <time>2017-07-27T07:27:53Z</time>
      </trkpt>
      <trkpt lat="44.9205970" lon="7.0611740">
        <ele>1321.6</ele>
        <time>2017-07-27T07:27:56Z</time>
      </trkpt>
      <trkpt lat="44.9205280" lon="7.0611800">
        <ele>1322.6</ele>
        <time>2017-07-27T07:27:59Z</time>
      </trkpt>
      <trkpt lat="44.9205060" lon="7.0611780">
        <ele>1323.0</ele>
        <time>2017-07-27T07:28:00Z</time>
      </trkpt>
      <trkpt lat="44.9203760" lon="7.0611690">
        <ele>1324.2</ele>
        <time>2017-07-27T07:28:05Z</time>
      </trkpt>
      <trkpt lat="44.9203460" lon="7.0611660">
        <ele>1324.4</ele>
        <time>2017-07-27T07:28:06Z</time>
      </trkpt>
      <trkpt lat="44.9202730" lon="7.0611400">
        <ele>1325.4</ele>
        <time>2017-07-27T07:28:09Z</time>
      </trkpt>
      <trkpt lat="44.9202190" lon="7.0611230">
        <ele>1326.4</ele>
        <time>2017-07-27T07:28:11Z</time>
      </trkpt>
      <trkpt lat="44.9201940" lon="7.0611110">
        <ele>1326.6</ele>
        <time>2017-07-27T07:28:12Z</time>
      </trkpt>
      <trkpt lat="44.9201260" lon="7.0610670">
        <ele>1327.6</ele>
        <time>2017-07-27T07:28:15Z</time>
      </trkpt>
      <trkpt lat="44.9200380" lon="7.0610190">
        <ele>1328.8</ele>
        <time>2017-07-27T07:28:19Z</time>
      </trkpt>
      <trkpt lat="44.9199600" lon="7.0609650">
        <ele>1330.2</ele>
        <time>2017-07-27T07:28:23Z</time>
      </trkpt>
      <trkpt lat="44.9198910" lon="7.0609230">
        <ele>1331.4</ele>
        <time>2017-07-27T07:28:26Z</time>
      </trkpt>
      <trkpt lat="44.9198660" lon="7.0609100">
        <ele>1331.6</ele>
        <time>2017-07-27T07:28:27Z</time>
      </trkpt>
      <trkpt lat="44.9197970" lon="7.0608770">
        <ele>1332.6</ele>
        <time>2017-07-27T07:28:30Z</time>
      </trkpt>
      <trkpt lat="44.9197330" lon="7.0608350">
        <ele>1333.8</ele>
        <time>2017-07-27T07:28:33Z</time>
      </trkpt>
      <trkpt lat="44.9196600" lon="7.0607540">
        <ele>1335.0</ele>
        <time>2017-07-27T07:28:37Z</time>
      </trkpt>
      <trkpt lat="44.9196070" lon="7.0606410">
        <ele>1336.2</ele>
        <time>2017-07-27T07:28:41Z</time>
      </trkpt>
      <trkpt lat="44.9195740" lon="7.0605460">
        <ele>1336.8</ele>
        <time>2017-07-27T07:28:44Z</time>
      </trkpt>
      <trkpt lat="44.9195670" lon="7.0605130">
        <ele>1337.2</ele>
        <time>2017-07-27T07:28:45Z</time>
      </trkpt>
      <trkpt lat="44.9195160" lon="7.0603800">
        <ele>1338.4</ele>
        <time>2017-07-27T07:28:49Z</time>
      </trkpt>
      <trkpt lat="44.9194830" lon="7.0603080">
        <ele>1339.0</ele>
        <time>2017-07-27T07:28:51Z</time>
      </trkpt>
      <trkpt lat="44.9194480" lon="7.0602440">
        <ele>1339.6</ele>
        <time>2017-07-27T07:28:53Z</time>
      </trkpt>
      <trkpt lat="44.9193840" lon="7.0601010">
        <ele>1341.0</ele>
        <time>2017-07-27T07:28:57Z</time>
      </trkpt>
      <trkpt lat="44.9193690" lon="7.0600610">
        <ele>1341.6</ele>
        <time>2017-07-27T07:28:58Z</time>
      </trkpt>
      <trkpt lat="44.9193560" lon="7.0600280">
        <ele>1342.0</ele>
        <time>2017-07-27T07:28:59Z</time>
      </trkpt>
      <trkpt lat="44.9193060" lon="7.0598930">
        <ele>1343.0</ele>
        <time>2017-07-27T07:29:03Z</time>
      </trkpt>
      <trkpt lat="44.9192920" lon="7.0598230">
        <ele>1343.8</ele>
        <time>2017-07-27T07:29:05Z</time>
      </trkpt>
      <trkpt lat="44.9192870" lon="7.0597880">
        <ele>1344.0</ele>
        <time>2017-07-27T07:29:06Z</time>
      </trkpt>
      <trkpt lat="44.9192320" lon="7.0596000">
        <ele>1345.2</ele>
        <time>2017-07-27T07:29:11Z</time>
      </trkpt>
      <trkpt lat="44.9192150" lon="7.0595670">
        <ele>1345.6</ele>
        <time>2017-07-27T07:29:12Z</time>
      </trkpt>
      <trkpt lat="44.9191760" lon="7.0595050">
        <ele>1346.2</ele>
        <time>2017-07-27T07:29:14Z</time>
      </trkpt>
      <trkpt lat="44.9191000" lon="7.0593980">
        <ele>1347.2</ele>
        <time>2017-07-27T07:29:18Z</time>
      </trkpt>
      <trkpt lat="44.9190720" lon="7.0592650">
        <ele>1348.6</ele>
        <time>2017-07-27T07:29:22Z</time>
      </trkpt>
      <trkpt lat="44.9190720" lon="7.0592240">
        <ele>1348.8</ele>
        <time>2017-07-27T07:29:23Z</time>
      </trkpt>
      <trkpt lat="44.9190560" lon="7.0591060">
        <ele>1349.8</ele>
        <time>2017-07-27T07:29:26Z</time>
      </trkpt>
      <trkpt lat="44.9190460" lon="7.0589350">
        <ele>1351.2</ele>
        <time>2017-07-27T07:29:30Z</time>
      </trkpt>
      <trkpt lat="44.9190290" lon="7.0587690">
        <ele>1352.4</ele>
        <time>2017-07-27T07:29:34Z</time>
      </trkpt>
      <trkpt lat="44.9190150" lon="7.0586060">
        <ele>1353.6</ele>
        <time>2017-07-27T07:29:38Z</time>
      </trkpt>
      <trkpt lat="44.9189980" lon="7.0584380">
        <ele>1354.8</ele>
        <time>2017-07-27T07:29:42Z</time>
      </trkpt>
      <trkpt lat="44.9189710" lon="7.0582760">
        <ele>1356.6</ele>
        <time>2017-07-27T07:29:46Z</time>
      </trkpt>
      <trkpt lat="44.9189640" lon="7.0582340">
        <ele>1357.0</ele>
        <time>2017-07-27T07:29:47Z</time>
      </trkpt>
      <trkpt lat="44.9189530" lon="7.0580940">
        <ele>1357.8</ele>
        <time>2017-07-27T07:29:50Z</time>
      </trkpt>
      <trkpt lat="44.9189430" lon="7.0579220">
        <ele>1358.6</ele>
        <time>2017-07-27T07:29:53Z</time>
      </trkpt>
      <trkpt lat="44.9189320" lon="7.0577990">
        <ele>1359.0</ele>
        <time>2017-07-27T07:29:55Z</time>
      </trkpt>
      <trkpt lat="44.9189330" lon="7.0576630">
        <ele>1359.6</ele>
        <time>2017-07-27T07:29:57Z</time>
      </trkpt>
      <trkpt lat="44.9189580" lon="7.0575320">
        <ele>1359.8</ele>
        <time>2017-07-27T07:29:59Z</time>
      </trkpt>
      <trkpt lat="44.9189810" lon="7.0574710">
        <ele>1360.0</ele>
        <time>2017-07-27T07:30:00Z</time>
      </trkpt>
      <trkpt lat="44.9190050" lon="7.0574130">
        <ele>1360.2</ele>
        <time>2017-07-27T07:30:01Z</time>
      </trkpt>
      <trkpt lat="44.9190900" lon="7.0572270">
        <ele>1360.4</ele>
        <time>2017-07-27T07:30:04Z</time>
      </trkpt>
      <trkpt lat="44.9191140" lon="7.0571580">
        <ele>1360.6</ele>
        <time>2017-07-27T07:30:05Z</time>
      </trkpt>
      <trkpt lat="44.9191510" lon="7.0569340">
        <ele>1361.0</ele>
        <time>2017-07-27T07:30:08Z</time>
      </trkpt>
      <trkpt lat="44.9191500" lon="7.0568570">
        <ele>1361.2</ele>
        <time>2017-07-27T07:30:09Z</time>
      </trkpt>
      <trkpt lat="44.9191450" lon="7.0567810">
        <ele>1361.4</ele>
        <time>2017-07-27T07:30:10Z</time>
      </trkpt>
      <trkpt lat="44.9191300" lon="7.0566360">
        <ele>1361.6</ele>
        <time>2017-07-27T07:30:12Z</time>
      </trkpt>
      <trkpt lat="44.9191190" lon="7.0565680">
        <ele>1361.6</ele>
        <time>2017-07-27T07:30:13Z</time>
      </trkpt>
      <trkpt lat="44.9191010" lon="7.0563790">
        <ele>1362.0</ele>
        <time>2017-07-27T07:30:16Z</time>
      </trkpt>
      <trkpt lat="44.9190970" lon="7.0563210">
        <ele>1362.2</ele>
        <time>2017-07-27T07:30:17Z</time>
      </trkpt>
      <trkpt lat="44.9190880" lon="7.0562160">
        <ele>1362.8</ele>
        <time>2017-07-27T07:30:19Z</time>
      </trkpt>
      <trkpt lat="44.9190790" lon="7.0560550">
        <ele>1363.4</ele>
        <time>2017-07-27T07:30:22Z</time>
      </trkpt>
      <trkpt lat="44.9190660" lon="7.0559490">
        <ele>1364.0</ele>
        <time>2017-07-27T07:30:24Z</time>
      </trkpt>
      <trkpt lat="44.9190520" lon="7.0558470">
        <ele>1364.6</ele>
        <time>2017-07-27T07:30:26Z</time>
      </trkpt>
      <trkpt lat="44.9190250" lon="7.0556490">
        <ele>1365.8</ele>
        <time>2017-07-27T07:30:30Z</time>
      </trkpt>
      <trkpt lat="44.9190060" lon="7.0555000">
        <ele>1367.0</ele>
        <time>2017-07-27T07:30:33Z</time>
      </trkpt>
      <trkpt lat="44.9189660" lon="7.0553550">
        <ele>1368.2</ele>
        <time>2017-07-27T07:30:36Z</time>
      </trkpt>
      <trkpt lat="44.9188930" lon="7.0551950">
        <ele>1369.2</ele>
        <time>2017-07-27T07:30:40Z</time>
      </trkpt>
      <trkpt lat="44.9188270" lon="7.0550910">
        <ele>1370.0</ele>
        <time>2017-07-27T07:30:43Z</time>
      </trkpt>
      <trkpt lat="44.9188060" lon="7.0550570">
        <ele>1370.2</ele>
        <time>2017-07-27T07:30:44Z</time>
      </trkpt>
      <trkpt lat="44.9187160" lon="7.0549330">
        <ele>1371.4</ele>
        <time>2017-07-27T07:30:48Z</time>
      </trkpt>
      <trkpt lat="44.9186760" lon="7.0548660">
        <ele>1371.8</ele>
        <time>2017-07-27T07:30:50Z</time>
      </trkpt>
      <trkpt lat="44.9186140" lon="7.0547740">
        <ele>1372.6</ele>
        <time>2017-07-27T07:30:53Z</time>
      </trkpt>
      <trkpt lat="44.9185080" lon="7.0546280">
        <ele>1373.8</ele>
        <time>2017-07-27T07:30:58Z</time>
      </trkpt>
      <trkpt lat="44.9184870" lon="7.0545970">
        <ele>1374.0</ele>
        <time>2017-07-27T07:30:59Z</time>
      </trkpt>
      <trkpt lat="44.9184140" lon="7.0544560">
        <ele>1375.0</ele>
        <time>2017-07-27T07:31:03Z</time>
      </trkpt>
      <trkpt lat="44.9183600" lon="7.0543150">
        <ele>1376.0</ele>
        <time>2017-07-27T07:31:07Z</time>
      </trkpt>
      <trkpt lat="44.9183530" lon="7.0542750">
        <ele>1376.2</ele>
        <time>2017-07-27T07:31:08Z</time>
      </trkpt>
      <trkpt lat="44.9183650" lon="7.0541430">
        <ele>1377.0</ele>
        <time>2017-07-27T07:31:11Z</time>
      </trkpt>
      <trkpt lat="44.9183780" lon="7.0540990">
        <ele>1377.4</ele>
        <time>2017-07-27T07:31:12Z</time>
      </trkpt>
      <trkpt lat="44.9184280" lon="7.0539370">
        <ele>1378.6</ele>
        <time>2017-07-27T07:31:16Z</time>
      </trkpt>
      <trkpt lat="44.9184530" lon="7.0538670">
        <ele>1379.2</ele>
        <time>2017-07-27T07:31:18Z</time>
      </trkpt>
      <trkpt lat="44.9184680" lon="7.0538010">
        <ele>1379.8</ele>
        <time>2017-07-27T07:31:20Z</time>
      </trkpt>
      <trkpt lat="44.9184770" lon="7.0537370">
        <ele>1381.0</ele>
        <time>2017-07-27T07:31:22Z</time>
      </trkpt>
      <trkpt lat="44.9184830" lon="7.0536300">
        <ele>1381.8</ele>
        <time>2017-07-27T07:31:25Z</time>
      </trkpt>
      <trkpt lat="44.9184840" lon="7.0535960">
        <ele>1382.2</ele>
        <time>2017-07-27T07:31:26Z</time>
      </trkpt>
      <trkpt lat="44.9184990" lon="7.0534740">
        <ele>1383.4</ele>
        <time>2017-07-27T07:31:30Z</time>
      </trkpt>
      <trkpt lat="44.9185080" lon="7.0534160">
        <ele>1384.0</ele>
        <time>2017-07-27T07:31:32Z</time>
      </trkpt>
      <trkpt lat="44.9185080" lon="7.0533530">
        <ele>1384.6</ele>
        <time>2017-07-27T07:31:34Z</time>
      </trkpt>
      <trkpt lat="44.9185110" lon="7.0532260">
        <ele>1386.0</ele>
        <time>2017-07-27T07:31:38Z</time>
      </trkpt>
      <trkpt lat="44.9185150" lon="7.0531980">
        <ele>1386.2</ele>
        <time>2017-07-27T07:31:39Z</time>
      </trkpt>
      <trkpt lat="44.9185380" lon="7.0531170">
        <ele>1387.2</ele>
        <time>2017-07-27T07:31:42Z</time>
      </trkpt>
      <trkpt lat="44.9185560" lon="7.0530280">
        <ele>1388.4</ele>
        <time>2017-07-27T07:31:45Z</time>
      </trkpt>
      <trkpt lat="44.9185660" lon="7.0529700">
        <ele>1389.4</ele>
        <time>2017-07-27T07:31:47Z</time>
      </trkpt>
      <trkpt lat="44.9185910" lon="7.0528890">
        <ele>1390.4</ele>
        <time>2017-07-27T07:31:50Z</time>
      </trkpt>
      <trkpt lat="44.9186000" lon="7.0528280">
        <ele>1391.0</ele>
        <time>2017-07-27T07:31:52Z</time>
      </trkpt>
      <trkpt lat="44.9186150" lon="7.0527700">
        <ele>1391.6</ele>
        <time>2017-07-27T07:31:54Z</time>
      </trkpt>
      <trkpt lat="44.9186580" lon="7.0526520">
        <ele>1393.0</ele>
        <time>2017-07-27T07:31:58Z</time>
      </trkpt>
      <trkpt lat="44.9186670" lon="7.0526230">
        <ele>1393.2</ele>
        <time>2017-07-27T07:31:59Z</time>
      </trkpt>
      <trkpt lat="44.9186870" lon="7.0525290">
        <ele>1394.0</ele>
        <time>2017-07-27T07:32:02Z</time>
      </trkpt>
      <trkpt lat="44.9187160" lon="7.0524530">
        <ele>1394.8</ele>
        <time>2017-07-27T07:32:05Z</time>
      </trkpt>
      <trkpt lat="44.9187250" lon="7.0524260">
        <ele>1395.0</ele>
        <time>2017-07-27T07:32:06Z</time>
      </trkpt>
      <trkpt lat="44.9187260" lon="7.0523170">
        <ele>1396.6</ele>
        <time>2017-07-27T07:32:10Z</time>
      </trkpt>
      <trkpt lat="44.9187150" lon="7.0523020">
        <ele>1396.8</ele>
        <time>2017-07-27T07:32:11Z</time>
      </trkpt>
      <trkpt lat="44.9186740" lon="7.0522450">
        <ele>1398.0</ele>
        <time>2017-07-27T07:32:14Z</time>
      </trkpt>
      <trkpt lat="44.9186470" lon="7.0521940">
        <ele>1399.0</ele>
        <time>2017-07-27T07:32:17Z</time>
      </trkpt>
      <trkpt lat="44.9186220" lon="7.0521630">
        <ele>1399.8</ele>
        <time>2017-07-27T07:32:19Z</time>
      </trkpt>
      <trkpt lat="44.9185920" lon="7.0521360">
        <ele>1400.2</ele>
        <time>2017-07-27T07:32:21Z</time>
      </trkpt>
      <trkpt lat="44.9185780" lon="7.0521160">
        <ele>1400.4</ele>
        <time>2017-07-27T07:32:22Z</time>
      </trkpt>
      <trkpt lat="44.9185420" lon="7.0520500">
        <ele>1401.4</ele>
        <time>2017-07-27T07:32:25Z</time>
      </trkpt>
      <trkpt lat="44.9185190" lon="7.0519790">
        <ele>1402.4</ele>
        <time>2017-07-27T07:32:28Z</time>
      </trkpt>
      <trkpt lat="44.9185110" lon="7.0519550">
        <ele>1402.6</ele>
        <time>2017-07-27T07:32:29Z</time>
      </trkpt>
      <trkpt lat="44.9184920" lon="7.0518700">
        <ele>1403.8</ele>
        <time>2017-07-27T07:32:32Z</time>
      </trkpt>
      <trkpt lat="44.9184750" lon="7.0517650">
        <ele>1405.0</ele>
        <time>2017-07-27T07:32:35Z</time>
      </trkpt>
      <trkpt lat="44.9184580" lon="7.0516800">
        <ele>1406.2</ele>
        <time>2017-07-27T07:32:38Z</time>
      </trkpt>
      <trkpt lat="44.9184300" lon="7.0515720">
        <ele>1407.2</ele>
        <time>2017-07-27T07:32:42Z</time>
      </trkpt>
      <trkpt lat="44.9184110" lon="7.0514880">
        <ele>1408.2</ele>
        <time>2017-07-27T07:32:45Z</time>
      </trkpt>
      <trkpt lat="44.9184080" lon="7.0514610">
        <ele>1408.4</ele>
        <time>2017-07-27T07:32:46Z</time>
      </trkpt>
      <trkpt lat="44.9183910" lon="7.0513520">
        <ele>1409.6</ele>
        <time>2017-07-27T07:32:50Z</time>
      </trkpt>
      <trkpt lat="44.9183740" lon="7.0513000">
        <ele>1410.2</ele>
        <time>2017-07-27T07:32:52Z</time>
      </trkpt>
      <trkpt lat="44.9183570" lon="7.0512440">
        <ele>1410.6</ele>
        <time>2017-07-27T07:32:54Z</time>
      </trkpt>
      <trkpt lat="44.9183340" lon="7.0511200">
        <ele>1411.8</ele>
        <time>2017-07-27T07:32:58Z</time>
      </trkpt>
      <trkpt lat="44.9183300" lon="7.0510610">
        <ele>1412.2</ele>
        <time>2017-07-27T07:33:00Z</time>
      </trkpt>
      <trkpt lat="44.9183270" lon="7.0509780">
        <ele>1413.0</ele>
        <time>2017-07-27T07:33:03Z</time>
      </trkpt>
      <trkpt lat="44.9183140" lon="7.0508610">
        <ele>1414.0</ele>
        <time>2017-07-27T07:33:07Z</time>
      </trkpt>
      <trkpt lat="44.9183130" lon="7.0508320">
        <ele>1414.2</ele>
        <time>2017-07-27T07:33:08Z</time>
      </trkpt>
      <trkpt lat="44.9183080" lon="7.0507510">
        <ele>1415.0</ele>
        <time>2017-07-27T07:33:11Z</time>
      </trkpt>
      <trkpt lat="44.9183150" lon="7.0506290">
        <ele>1416.4</ele>
        <time>2017-07-27T07:33:15Z</time>
      </trkpt>
      <trkpt lat="44.9183120" lon="7.0505910">
        <ele>1416.6</ele>
        <time>2017-07-27T07:33:16Z</time>
      </trkpt>
      <trkpt lat="44.9183030" lon="7.0504770">
        <ele>1417.6</ele>
        <time>2017-07-27T07:33:19Z</time>
      </trkpt>
      <trkpt lat="44.9183000" lon="7.0503650">
        <ele>1418.8</ele>
        <time>2017-07-27T07:33:22Z</time>
      </trkpt>
      <trkpt lat="44.9182950" lon="7.0502530">
        <ele>1420.0</ele>
        <time>2017-07-27T07:33:25Z</time>
      </trkpt>
      <trkpt lat="44.9182920" lon="7.0501320">
        <ele>1421.2</ele>
        <time>2017-07-27T07:33:28Z</time>
      </trkpt>
      <trkpt lat="44.9182770" lon="7.0500120">
        <ele>1422.4</ele>
        <time>2017-07-27T07:33:31Z</time>
      </trkpt>
      <trkpt lat="44.9182710" lon="7.0499730">
        <ele>1422.6</ele>
        <time>2017-07-27T07:33:32Z</time>
      </trkpt>
      <trkpt lat="44.9182580" lon="7.0498990">
        <ele>1423.4</ele>
        <time>2017-07-27T07:33:34Z</time>
      </trkpt>
      <trkpt lat="44.9182590" lon="7.0497820">
        <ele>1424.4</ele>
        <time>2017-07-27T07:33:37Z</time>
      </trkpt>
      <trkpt lat="44.9182580" lon="7.0497420">
        <ele>1424.8</ele>
        <time>2017-07-27T07:33:38Z</time>
      </trkpt>
      <trkpt lat="44.9182900" lon="7.0496940">
        <ele>1425.4</ele>
        <time>2017-07-27T07:33:40Z</time>
      </trkpt>
      <trkpt lat="44.9183110" lon="7.0497180">
        <ele>1425.8</ele>
        <time>2017-07-27T07:33:41Z</time>
      </trkpt>
      <trkpt lat="44.9183460" lon="7.0498470">
        <ele>1426.6</ele>
        <time>2017-07-27T07:33:44Z</time>
      </trkpt>
      <trkpt lat="44.9183560" lon="7.0498940">
        <ele>1426.8</ele>
        <time>2017-07-27T07:33:45Z</time>
      </trkpt>
      <trkpt lat="44.9183930" lon="7.0500530">
        <ele>1427.8</ele>
        <time>2017-07-27T07:33:49Z</time>
      </trkpt>
      <trkpt lat="44.9184300" lon="7.0502020">
        <ele>1428.6</ele>
        <time>2017-07-27T07:33:53Z</time>
      </trkpt>
      <trkpt lat="44.9184360" lon="7.0502430">
        <ele>1428.8</ele>
        <time>2017-07-27T07:33:54Z</time>
      </trkpt>
      <trkpt lat="44.9184950" lon="7.0504770">
        <ele>1430.0</ele>
        <time>2017-07-27T07:34:00Z</time>
      </trkpt>
      <trkpt lat="44.9185130" lon="7.0505570">
        <ele>1430.4</ele>
        <time>2017-07-27T07:34:02Z</time>
      </trkpt>
      <trkpt lat="44.9185470" lon="7.0506710">
        <ele>1431.2</ele>
        <time>2017-07-27T07:34:05Z</time>
      </trkpt>
      <trkpt lat="44.9185870" lon="7.0507980">
        <ele>1431.8</ele>
        <time>2017-07-27T07:34:08Z</time>
      </trkpt>
      <trkpt lat="44.9186550" lon="7.0509550">
        <ele>1432.8</ele>
        <time>2017-07-27T07:34:12Z</time>
      </trkpt>
      <trkpt lat="44.9187320" lon="7.0510660">
        <ele>1433.6</ele>
        <time>2017-07-27T07:34:16Z</time>
      </trkpt>
      <trkpt lat="44.9188050" lon="7.0511010">
        <ele>1434.0</ele>
        <time>2017-07-27T07:34:18Z</time>
      </trkpt>
      <trkpt lat="44.9188470" lon="7.0510970">
        <ele>1434.0</ele>
        <time>2017-07-27T07:34:19Z</time>
      </trkpt>
      <trkpt lat="44.9188900" lon="7.0510730">
        <ele>1434.2</ele>
        <time>2017-07-27T07:34:20Z</time>
      </trkpt>
      <trkpt lat="44.9189810" lon="7.0509210">
        <ele>1434.4</ele>
        <time>2017-07-27T07:34:23Z</time>
      </trkpt>
      <trkpt lat="44.9190040" lon="7.0508640">
        <ele>1434.4</ele>
        <time>2017-07-27T07:34:24Z</time>
      </trkpt>
      <trkpt lat="44.9190340" lon="7.0508220">
        <ele>1434.4</ele>
        <time>2017-07-27T07:34:25Z</time>
      </trkpt>
      <trkpt lat="44.9190910" lon="7.0508250">
        <ele>1435.0</ele>
        <time>2017-07-27T07:34:27Z</time>
      </trkpt>
      <trkpt lat="44.9191440" lon="7.0509390">
        <ele>1435.8</ele>
        <time>2017-07-27T07:34:31Z</time>
      </trkpt>
      <trkpt lat="44.9191510" lon="7.0509700">
        <ele>1436.2</ele>
        <time>2017-07-27T07:34:32Z</time>
      </trkpt>
      <trkpt lat="44.9191730" lon="7.0510620">
        <ele>1437.2</ele>
        <time>2017-07-27T07:34:35Z</time>
      </trkpt>
      <trkpt lat="44.9192110" lon="7.0512010">
        <ele>1438.4</ele>
        <time>2017-07-27T07:34:39Z</time>
      </trkpt>
      <trkpt lat="44.9192780" lon="7.0513420">
        <ele>1439.4</ele>
        <time>2017-07-27T07:34:44Z</time>
      </trkpt>
      <trkpt lat="44.9193130" lon="7.0514000">
        <ele>1440.2</ele>
        <time>2017-07-27T07:34:47Z</time>
      </trkpt>
      <trkpt lat="44.9193350" lon="7.0514460">
        <ele>1440.8</ele>
        <time>2017-07-27T07:34:49Z</time>
      </trkpt>
      <trkpt lat="44.9193850" lon="7.0515360">
        <ele>1442.0</ele>
        <time>2017-07-27T07:34:53Z</time>
      </trkpt>
      <trkpt lat="44.9194070" lon="7.0515850">
        <ele>1442.2</ele>
        <time>2017-07-27T07:34:55Z</time>
      </trkpt>
      <trkpt lat="44.9194370" lon="7.0516590">
        <ele>1443.0</ele>
        <time>2017-07-27T07:34:58Z</time>
      </trkpt>
      <trkpt lat="44.9194750" lon="7.0517340">
        <ele>1444.0</ele>
        <time>2017-07-27T07:35:01Z</time>
      </trkpt>
      <trkpt lat="44.9194900" lon="7.0517550">
        <ele>1444.4</ele>
        <time>2017-07-27T07:35:02Z</time>
      </trkpt>
      <trkpt lat="44.9195320" lon="7.0518380">
        <ele>1445.2</ele>
        <time>2017-07-27T07:35:06Z</time>
      </trkpt>
      <trkpt lat="44.9195530" lon="7.0518780">
        <ele>1445.8</ele>
        <time>2017-07-27T07:35:08Z</time>
      </trkpt>
      <trkpt lat="44.9195730" lon="7.0519250">
        <ele>1446.2</ele>
        <time>2017-07-27T07:35:10Z</time>
      </trkpt>
      <trkpt lat="44.9196570" lon="7.0520700">
        <ele>1447.4</ele>
        <time>2017-07-27T07:35:16Z</time>
      </trkpt>
      <trkpt lat="44.9197090" lon="7.0521520">
        <ele>1448.4</ele>
        <time>2017-07-27T07:35:20Z</time>
      </trkpt>
      <trkpt lat="44.9197540" lon="7.0522450">
        <ele>1449.6</ele>
        <time>2017-07-27T07:35:24Z</time>
      </trkpt>
      <trkpt lat="44.9197980" lon="7.0523340">
        <ele>1450.6</ele>
        <time>2017-07-27T07:35:28Z</time>
      </trkpt>
      <trkpt lat="44.9198370" lon="7.0524270">
        <ele>1451.8</ele>
        <time>2017-07-27T07:35:32Z</time>
      </trkpt>
      <trkpt lat="44.9198610" lon="7.0524720">
        <ele>1452.6</ele>
        <time>2017-07-27T07:35:34Z</time>
      </trkpt>
      <trkpt lat="44.9198750" lon="7.0524950">
        <ele>1453.0</ele>
        <time>2017-07-27T07:35:35Z</time>
      </trkpt>
      <trkpt lat="44.9199490" lon="7.0525880">
        <ele>1454.0</ele>
        <time>2017-07-27T07:35:39Z</time>
      </trkpt>
      <trkpt lat="44.9199730" lon="7.0526010">
        <ele>1454.6</ele>
        <time>2017-07-27T07:35:40Z</time>
      </trkpt>
      <trkpt lat="44.9200770" lon="7.0526310">
        <ele>1455.2</ele>
        <time>2017-07-27T07:35:43Z</time>
      </trkpt>
      <trkpt lat="44.9201170" lon="7.0526380">
        <ele>1455.6</ele>
        <time>2017-07-27T07:35:44Z</time>
      </trkpt>
      <trkpt lat="44.9201630" lon="7.0526560">
        <ele>1455.8</ele>
        <time>2017-07-27T07:35:45Z</time>
      </trkpt>
      <trkpt lat="44.9202910" lon="7.0527240">
        <ele>1456.0</ele>
        <time>2017-07-27T07:35:48Z</time>
      </trkpt>
      <trkpt lat="44.9203740" lon="7.0528230">
        <ele>1456.4</ele>
        <time>2017-07-27T07:35:50Z</time>
      </trkpt>
      <trkpt lat="44.9204280" lon="7.0529530">
        <ele>1456.6</ele>
        <time>2017-07-27T07:35:52Z</time>
      </trkpt>
      <trkpt lat="44.9204060" lon="7.0530850">
        <ele>1457.2</ele>
        <time>2017-07-27T07:35:55Z</time>
      </trkpt>
      <trkpt lat="44.9203910" lon="7.0531180">
        <ele>1457.6</ele>
        <time>2017-07-27T07:35:56Z</time>
      </trkpt>
      <trkpt lat="44.9203770" lon="7.0531450">
        <ele>1457.6</ele>
        <time>2017-07-27T07:35:57Z</time>
      </trkpt>
      <trkpt lat="44.9203330" lon="7.0532550">
        <ele>1458.8</ele>
        <time>2017-07-27T07:36:01Z</time>
      </trkpt>
      <trkpt lat="44.9203120" lon="7.0533670">
        <ele>1460.0</ele>
        <time>2017-07-27T07:36:05Z</time>
      </trkpt>
      <trkpt lat="44.9202970" lon="7.0534140">
        <ele>1460.6</ele>
        <time>2017-07-27T07:36:07Z</time>
      </trkpt>
      <trkpt lat="44.9202900" lon="7.0534590">
        <ele>1461.2</ele>
        <time>2017-07-27T07:36:09Z</time>
      </trkpt>
      <trkpt lat="44.9202970" lon="7.0535350">
        <ele>1462.4</ele>
        <time>2017-07-27T07:36:12Z</time>
      </trkpt>
      <trkpt lat="44.9203020" lon="7.0535920">
        <ele>1463.0</ele>
        <time>2017-07-27T07:36:14Z</time>
      </trkpt>
      <trkpt lat="44.9203060" lon="7.0536170">
        <ele>1463.4</ele>
        <time>2017-07-27T07:36:15Z</time>
      </trkpt>
      <trkpt lat="44.9203530" lon="7.0537270">
        <ele>1464.6</ele>
        <time>2017-07-27T07:36:20Z</time>
      </trkpt>
      <trkpt lat="44.9204070" lon="7.0537870">
        <ele>1465.6</ele>
        <time>2017-07-27T07:36:24Z</time>
      </trkpt>
      <trkpt lat="44.9204580" lon="7.0538060">
        <ele>1466.4</ele>
        <time>2017-07-27T07:36:27Z</time>
      </trkpt>
      <trkpt lat="44.9204880" lon="7.0538200">
        <ele>1466.8</ele>
        <time>2017-07-27T07:36:29Z</time>
      </trkpt>
      <trkpt lat="44.9205450" lon="7.0538540">
        <ele>1468.0</ele>
        <time>2017-07-27T07:36:33Z</time>
      </trkpt>
      <trkpt lat="44.9205730" lon="7.0538740">
        <ele>1468.6</ele>
        <time>2017-07-27T07:36:35Z</time>
      </trkpt>
      <trkpt lat="44.9205860" lon="7.0538870">
        <ele>1469.2</ele>
        <time>2017-07-27T07:36:36Z</time>
      </trkpt>
      <trkpt lat="44.9206250" lon="7.0539280">
        <ele>1470.2</ele>
        <time>2017-07-27T07:36:39Z</time>
      </trkpt>
      <trkpt lat="44.9206640" lon="7.0539630">
        <ele>1471.2</ele>
        <time>2017-07-27T07:36:42Z</time>
      </trkpt>
      <trkpt lat="44.9206760" lon="7.0539770">
        <ele>1471.4</ele>
        <time>2017-07-27T07:36:43Z</time>
      </trkpt>
      <trkpt lat="44.9207240" lon="7.0540460">
        <ele>1472.8</ele>
        <time>2017-07-27T07:36:47Z</time>
      </trkpt>
      <trkpt lat="44.9207660" lon="7.0540990">
        <ele>1473.6</ele>
        <time>2017-07-27T07:36:50Z</time>
      </trkpt>
      <trkpt lat="44.9207810" lon="7.0541110">
        <ele>1474.0</ele>
        <time>2017-07-27T07:36:51Z</time>
      </trkpt>
      <trkpt lat="44.9208390" lon="7.0541640">
        <ele>1475.2</ele>
        <time>2017-07-27T07:36:55Z</time>
      </trkpt>
      <trkpt lat="44.9208690" lon="7.0541950">
        <ele>1476.0</ele>
        <time>2017-07-27T07:36:57Z</time>
      </trkpt>
      <trkpt lat="44.9208830" lon="7.0542110">
        <ele>1476.2</ele>
        <time>2017-07-27T07:36:58Z</time>
      </trkpt>
      <trkpt lat="44.9209060" lon="7.0542550">
        <ele>1477.2</ele>
        <time>2017-07-27T07:37:00Z</time>
      </trkpt>
      <trkpt lat="44.9209090" lon="7.0543090">
        <ele>1478.0</ele>
        <time>2017-07-27T07:37:02Z</time>
      </trkpt>
      <trkpt lat="44.9209110" lon="7.0543580">
        <ele>1478.4</ele>
        <time>2017-07-27T07:37:04Z</time>
      </trkpt>
      <trkpt lat="44.9209130" lon="7.0543850">
        <ele>1478.6</ele>
        <time>2017-07-27T07:37:05Z</time>
      </trkpt>
      <trkpt lat="44.9209040" lon="7.0545090">
        <ele>1479.6</ele>
        <time>2017-07-27T07:37:09Z</time>
      </trkpt>
      <trkpt lat="44.9209100" lon="7.0545370">
        <ele>1480.0</ele>
        <time>2017-07-27T07:37:10Z</time>
      </trkpt>
      <trkpt lat="44.9209380" lon="7.0545460">
        <ele>1480.6</ele>
        <time>2017-07-27T07:37:13Z</time>
      </trkpt>
      <trkpt lat="44.9209630" lon="7.0544540">
        <ele>1481.6</ele>
        <time>2017-07-27T07:37:17Z</time>
      </trkpt>
      <trkpt lat="44.9209670" lon="7.0544310">
        <ele>1481.8</ele>
        <time>2017-07-27T07:37:18Z</time>
      </trkpt>
      <trkpt lat="44.9209790" lon="7.0543920">
        <ele>1482.4</ele>
        <time>2017-07-27T07:37:20Z</time>
      </trkpt>
      <trkpt lat="44.9209970" lon="7.0543590">
        <ele>1482.8</ele>
        <time>2017-07-27T07:37:22Z</time>
      </trkpt>
      <trkpt lat="44.9210300" lon="7.0543050">
        <ele>1484.0</ele>
        <time>2017-07-27T07:37:25Z</time>
      </trkpt>
      <trkpt lat="44.9210580" lon="7.0542920">
        <ele>1484.4</ele>
        <time>2017-07-27T07:37:27Z</time>
      </trkpt>
      <trkpt lat="44.9210830" lon="7.0543270">
        <ele>1485.0</ele>
        <time>2017-07-27T07:37:29Z</time>
      </trkpt>
      <trkpt lat="44.9210870" lon="7.0543690">
        <ele>1485.4</ele>
        <time>2017-07-27T07:37:31Z</time>
      </trkpt>
      <trkpt lat="44.9210780" lon="7.0544330">
        <ele>1486.2</ele>
        <time>2017-07-27T07:37:34Z</time>
      </trkpt>
      <trkpt lat="44.9210730" lon="7.0544760">
        <ele>1486.6</ele>
        <time>2017-07-27T07:37:36Z</time>
      </trkpt>
      <trkpt lat="44.9210650" lon="7.0545500">
        <ele>1487.4</ele>
        <time>2017-07-27T07:37:39Z</time>
      </trkpt>
      <trkpt lat="44.9210440" lon="7.0546770">
        <ele>1488.4</ele>
        <time>2017-07-27T07:37:44Z</time>
      </trkpt>
      <trkpt lat="44.9210420" lon="7.0547910">
        <ele>1489.4</ele>
        <time>2017-07-27T07:37:49Z</time>
      </trkpt>
      <trkpt lat="44.9210240" lon="7.0548820">
        <ele>1490.6</ele>
        <time>2017-07-27T07:37:53Z</time>
      </trkpt>
      <trkpt lat="44.9210230" lon="7.0548960">
        <ele>1490.8</ele>
        <time>2017-07-27T07:37:54Z</time>
      </trkpt>
      <trkpt lat="44.9210210" lon="7.0549670">
        <ele>1491.8</ele>
        <time>2017-07-27T07:37:57Z</time>
      </trkpt>
      <trkpt lat="44.9210220" lon="7.0550890">
        <ele>1492.6</ele>
        <time>2017-07-27T07:38:01Z</time>
      </trkpt>
      <trkpt lat="44.9210210" lon="7.0551170">
        <ele>1492.8</ele>
        <time>2017-07-27T07:38:02Z</time>
      </trkpt>
      <trkpt lat="44.9210320" lon="7.0551670">
        <ele>1493.2</ele>
        <time>2017-07-27T07:38:04Z</time>
      </trkpt>
      <trkpt lat="44.9210460" lon="7.0552130">
        <ele>1493.4</ele>
        <time>2017-07-27T07:38:06Z</time>
      </trkpt>
      <trkpt lat="44.9210690" lon="7.0552540">
        <ele>1494.0</ele>
        <time>2017-07-27T07:38:08Z</time>
      </trkpt>
      <trkpt lat="44.9211190" lon="7.0553000">
        <ele>1494.4</ele>
        <time>2017-07-27T07:38:11Z</time>
      </trkpt>
      <trkpt lat="44.9211470" lon="7.0553600">
        <ele>1495.0</ele>
        <time>2017-07-27T07:38:14Z</time>
      </trkpt>
      <trkpt lat="44.9211730" lon="7.0554340">
        <ele>1496.0</ele>
        <time>2017-07-27T07:38:17Z</time>
      </trkpt>
      <trkpt lat="44.9211840" lon="7.0554510">
        <ele>1496.2</ele>
        <time>2017-07-27T07:38:18Z</time>
      </trkpt>
      <trkpt lat="44.9212320" lon="7.0555400">
        <ele>1497.4</ele>
        <time>2017-07-27T07:38:22Z</time>
      </trkpt>
      <trkpt lat="44.9212510" lon="7.0555630">
        <ele>1497.6</ele>
        <time>2017-07-27T07:38:23Z</time>
      </trkpt>
      <trkpt lat="44.9213810" lon="7.0557120">
        <ele>1498.6</ele>
        <time>2017-07-27T07:38:28Z</time>
      </trkpt>
      <trkpt lat="44.9214560" lon="7.0558640">
        <ele>1499.0</ele>
        <time>2017-07-27T07:38:32Z</time>
      </trkpt>
      <trkpt lat="44.9215060" lon="7.0559450">
        <ele>1499.6</ele>
        <time>2017-07-27T07:38:35Z</time>
      </trkpt>
      <trkpt lat="44.9215330" lon="7.0559860">
        <ele>1500.6</ele>
        <time>2017-07-27T07:38:37Z</time>
      </trkpt>
      <trkpt lat="44.9215440" lon="7.0560090">
        <ele>1501.0</ele>
        <time>2017-07-27T07:38:38Z</time>
      </trkpt>
      <trkpt lat="44.9215780" lon="7.0560610">
        <ele>1502.0</ele>
        <time>2017-07-27T07:38:41Z</time>
      </trkpt>
      <trkpt lat="44.9216160" lon="7.0560970">
        <ele>1502.8</ele>
        <time>2017-07-27T07:38:43Z</time>
      </trkpt>
      <trkpt lat="44.9216320" lon="7.0561180">
        <ele>1503.2</ele>
        <time>2017-07-27T07:38:44Z</time>
      </trkpt>
      <trkpt lat="44.9216830" lon="7.0561460">
        <ele>1504.2</ele>
        <time>2017-07-27T07:38:47Z</time>
      </trkpt>
      <trkpt lat="44.9217240" lon="7.0561920">
        <ele>1504.8</ele>
        <time>2017-07-27T07:38:49Z</time>
      </trkpt>
      <trkpt lat="44.9218450" lon="7.0563980">
        <ele>1505.2</ele>
        <time>2017-07-27T07:38:53Z</time>
      </trkpt>
      <trkpt lat="44.9218600" lon="7.0564670">
        <ele>1505.2</ele>
        <time>2017-07-27T07:38:55Z</time>
      </trkpt>
      <trkpt lat="44.9218450" lon="7.0564890">
        <ele>1505.4</ele>
        <time>2017-07-27T07:38:56Z</time>
      </trkpt>
      <trkpt lat="44.9217530" lon="7.0565880">
        <ele>1506.0</ele>
        <time>2017-07-27T07:39:01Z</time>
      </trkpt>
      <trkpt lat="44.9217350" lon="7.0566000">
        <ele>1506.2</ele>
        <time>2017-07-27T07:39:02Z</time>
      </trkpt>
      <trkpt lat="44.9217200" lon="7.0566110">
        <ele>1506.4</ele>
        <time>2017-07-27T07:39:03Z</time>
      </trkpt>
      <trkpt lat="44.9217050" lon="7.0566560">
        <ele>1506.8</ele>
        <time>2017-07-27T07:39:05Z</time>
      </trkpt>
      <trkpt lat="44.9217060" lon="7.0567130">
        <ele>1507.2</ele>
        <time>2017-07-27T07:39:07Z</time>
      </trkpt>
      <trkpt lat="44.9217030" lon="7.0567660">
        <ele>1507.8</ele>
        <time>2017-07-27T07:39:09Z</time>
      </trkpt>
      <trkpt lat="44.9216980" lon="7.0567910">
        <ele>1508.2</ele>
        <time>2017-07-27T07:39:10Z</time>
      </trkpt>
      <trkpt lat="44.9216840" lon="7.0568420">
        <ele>1508.8</ele>
        <time>2017-07-27T07:39:12Z</time>
      </trkpt>
      <trkpt lat="44.9216800" lon="7.0569110">
        <ele>1509.8</ele>
        <time>2017-07-27T07:39:15Z</time>
      </trkpt>
      <trkpt lat="44.9216810" lon="7.0569320">
        <ele>1510.0</ele>
        <time>2017-07-27T07:39:16Z</time>
      </trkpt>
      <trkpt lat="44.9216680" lon="7.0570290">
        <ele>1511.2</ele>
        <time>2017-07-27T07:39:20Z</time>
      </trkpt>
      <trkpt lat="44.9216710" lon="7.0570820">
        <ele>1511.6</ele>
        <time>2017-07-27T07:39:22Z</time>
      </trkpt>
      <trkpt lat="44.9216710" lon="7.0571250">
        <ele>1512.4</ele>
        <time>2017-07-27T07:39:24Z</time>
      </trkpt>
      <trkpt lat="44.9214680" lon="7.0582760">
        <ele>1539.6</ele>
        <time>2017-07-27T07:41:14Z</time>
      </trkpt>
      <trkpt lat="44.9214820" lon="7.0582870">
        <ele>1539.8</ele>
        <time>2017-07-27T07:41:15Z</time>
      </trkpt>
      <trkpt lat="44.9215470" lon="7.0583260">
        <ele>1540.6</ele>
        <time>2017-07-27T07:41:20Z</time>
      </trkpt>
      <trkpt lat="44.9215610" lon="7.0583330">
        <ele>1540.8</ele>
        <time>2017-07-27T07:41:21Z</time>
      </trkpt>
      <trkpt lat="44.9216170" lon="7.0583530">
        <ele>1541.6</ele>
        <time>2017-07-27T07:41:25Z</time>
      </trkpt>
      <trkpt lat="44.9216650" lon="7.0583510">
        <ele>1542.2</ele>
        <time>2017-07-27T07:41:28Z</time>
      </trkpt>
      <trkpt lat="44.9216990" lon="7.0583420">
        <ele>1542.8</ele>
        <time>2017-07-27T07:41:30Z</time>
      </trkpt>
      <trkpt lat="44.9217680" lon="7.0583240">
        <ele>1543.8</ele>
        <time>2017-07-27T07:41:35Z</time>
      </trkpt>
      <trkpt lat="44.9222170" lon="7.0584740">
        <ele>1557.6</ele>
        <time>2017-07-27T07:42:33Z</time>
      </trkpt>
      <trkpt lat="44.9222780" lon="7.0584450">
        <ele>1559.4</ele>
        <time>2017-07-27T07:42:50Z</time>
      </trkpt>
      <trkpt lat="44.9222980" lon="7.0584480">
        <ele>1559.4</ele>
        <time>2017-07-27T07:42:51Z</time>
      </trkpt>
      <trkpt lat="44.9223550" lon="7.0584580">
        <ele>1560.4</ele>
        <time>2017-07-27T07:42:55Z</time>
      </trkpt>
      <trkpt lat="44.9224150" lon="7.0585150">
        <ele>1561.4</ele>
        <time>2017-07-27T07:43:00Z</time>
      </trkpt>
      <trkpt lat="44.9225090" lon="7.0585750">
        <ele>1561.4</ele>
        <time>2017-07-27T07:43:03Z</time>
      </trkpt>
      <trkpt lat="44.9226860" lon="7.0586570">
        <ele>1561.6</ele>
        <time>2017-07-27T07:43:07Z</time>
      </trkpt>
      <trkpt lat="44.9227820" lon="7.0586900">
        <ele>1561.6</ele>
        <time>2017-07-27T07:43:09Z</time>
      </trkpt>
      <trkpt lat="44.9229430" lon="7.0587490">
        <ele>1561.8</ele>
        <time>2017-07-27T07:43:12Z</time>
      </trkpt>
      <trkpt lat="44.9230770" lon="7.0587730">
        <ele>1561.6</ele>
        <time>2017-07-27T07:43:14Z</time>
      </trkpt>
      <trkpt lat="44.9234870" lon="7.0587830">
        <ele>1561.2</ele>
        <time>2017-07-27T07:43:19Z</time>
      </trkpt>
      <trkpt lat="44.9236770" lon="7.0588220">
        <ele>1560.0</ele>
        <time>2017-07-27T07:43:21Z</time>
      </trkpt>
      <trkpt lat="44.9239750" lon="7.0589140">
        <ele>1558.6</ele>
        <time>2017-07-27T07:43:24Z</time>
      </trkpt>
      <trkpt lat="44.9240760" lon="7.0589240">
        <ele>1558.0</ele>
        <time>2017-07-27T07:43:25Z</time>
      </trkpt>
      <trkpt lat="44.9243780" lon="7.0589610">
        <ele>1557.4</ele>
        <time>2017-07-27T07:43:28Z</time>
      </trkpt>
      <trkpt lat="44.9245720" lon="7.0589850">
        <ele>1556.4</ele>
        <time>2017-07-27T07:43:30Z</time>
      </trkpt>
      <trkpt lat="44.9246640" lon="7.0589830">
        <ele>1555.8</ele>
        <time>2017-07-27T07:43:31Z</time>
      </trkpt>
      <trkpt lat="44.9247490" lon="7.0589740">
        <ele>1555.4</ele>
        <time>2017-07-27T07:43:32Z</time>
      </trkpt>
      <trkpt lat="44.9248100" lon="7.0589740">
        <ele>1554.6</ele>
        <time>2017-07-27T07:43:33Z</time>
      </trkpt>
      <trkpt lat="44.9248530" lon="7.0590030">
        <ele>1554.2</ele>
        <time>2017-07-27T07:43:34Z</time>
      </trkpt>
      <trkpt lat="44.9248700" lon="7.0590490">
        <ele>1553.4</ele>
        <time>2017-07-27T07:43:35Z</time>
      </trkpt>
      <trkpt lat="44.9248940" lon="7.0591770">
        <ele>1552.2</ele>
        <time>2017-07-27T07:43:37Z</time>
      </trkpt>
      <trkpt lat="44.9249530" lon="7.0593300">
        <ele>1551.2</ele>
        <time>2017-07-27T07:43:39Z</time>
      </trkpt>
      <trkpt lat="44.9249990" lon="7.0594060">
        <ele>1550.4</ele>
        <time>2017-07-27T07:43:40Z</time>
      </trkpt>
      <trkpt lat="44.9250470" lon="7.0594860">
        <ele>1550.0</ele>
        <time>2017-07-27T07:43:41Z</time>
      </trkpt>
      <trkpt lat="44.9251340" lon="7.0596460">
        <ele>1549.0</ele>
        <time>2017-07-27T07:43:43Z</time>
      </trkpt>
      <trkpt lat="44.9252160" lon="7.0598150">
        <ele>1547.8</ele>
        <time>2017-07-27T07:43:45Z</time>
      </trkpt>
      <trkpt lat="44.9252720" lon="7.0598800">
        <ele>1547.4</ele>
        <time>2017-07-27T07:43:46Z</time>
      </trkpt>
      <trkpt lat="44.9253410" lon="7.0599430">
        <ele>1546.8</ele>
        <time>2017-07-27T07:43:47Z</time>
      </trkpt>
      <trkpt lat="44.9254880" lon="7.0600870">
        <ele>1545.2</ele>
        <time>2017-07-27T07:43:49Z</time>
      </trkpt>
      <trkpt lat="44.9255700" lon="7.0601770">
        <ele>1544.2</ele>
        <time>2017-07-27T07:43:50Z</time>
      </trkpt>
      <trkpt lat="44.9256530" lon="7.0602760">
        <ele>1543.4</ele>
        <time>2017-07-27T07:43:51Z</time>
      </trkpt>
      <trkpt lat="44.9258490" lon="7.0604810">
        <ele>1541.6</ele>
        <time>2017-07-27T07:43:53Z</time>
      </trkpt>
      <trkpt lat="44.9259430" lon="7.0605790">
        <ele>1540.4</ele>
        <time>2017-07-27T07:43:54Z</time>
      </trkpt>
      <trkpt lat="44.9260390" lon="7.0606770">
        <ele>1539.2</ele>
        <time>2017-07-27T07:43:55Z</time>
      </trkpt>
      <trkpt lat="44.9261250" lon="7.0607760">
        <ele>1538.0</ele>
        <time>2017-07-27T07:43:56Z</time>
      </trkpt>
      <trkpt lat="44.9262040" lon="7.0608680">
        <ele>1536.2</ele>
        <time>2017-07-27T07:43:57Z</time>
      </trkpt>
      <trkpt lat="44.9262750" lon="7.0609520">
        <ele>1534.8</ele>
        <time>2017-07-27T07:43:58Z</time>
      </trkpt>
      <trkpt lat="44.9263280" lon="7.0610660">
        <ele>1533.2</ele>
        <time>2017-07-27T07:43:59Z</time>
      </trkpt>
      <trkpt lat="44.9263760" lon="7.0611850">
        <ele>1531.8</ele>
        <time>2017-07-27T07:44:00Z</time>
      </trkpt>
      <trkpt lat="44.9264230" lon="7.0613010">
        <ele>1530.2</ele>
        <time>2017-07-27T07:44:01Z</time>
      </trkpt>
      <trkpt lat="44.9264560" lon="7.0614190">
        <ele>1529.0</ele>
        <time>2017-07-27T07:44:02Z</time>
      </trkpt>
      <trkpt lat="44.9264950" lon="7.0615440">
        <ele>1527.8</ele>
        <time>2017-07-27T07:44:03Z</time>
      </trkpt>
      <trkpt lat="44.9265400" lon="7.0616720">
        <ele>1526.4</ele>
        <time>2017-07-27T07:44:04Z</time>
      </trkpt>
      <trkpt lat="44.9265830" lon="7.0617970">
        <ele>1525.4</ele>
        <time>2017-07-27T07:44:05Z</time>
      </trkpt>
      <trkpt lat="44.9266380" lon="7.0619410">
        <ele>1524.2</ele>
        <time>2017-07-27T07:44:06Z</time>
      </trkpt>
      <trkpt lat="44.9266950" lon="7.0620890">
        <ele>1522.8</ele>
        <time>2017-07-27T07:44:07Z</time>
      </trkpt>
      <trkpt lat="44.9267650" lon="7.0622220">
        <ele>1521.4</ele>
        <time>2017-07-27T07:44:08Z</time>
      </trkpt>
      <trkpt lat="44.9268060" lon="7.0623580">
        <ele>1520.0</ele>
        <time>2017-07-27T07:44:09Z</time>
      </trkpt>
      <trkpt lat="44.9268590" lon="7.0624860">
        <ele>1519.2</ele>
        <time>2017-07-27T07:44:10Z</time>
      </trkpt>
      <trkpt lat="44.9269070" lon="7.0626110">
        <ele>1518.4</ele>
        <time>2017-07-27T07:44:11Z</time>
      </trkpt>
      <trkpt lat="44.9269510" lon="7.0627420">
        <ele>1516.8</ele>
        <time>2017-07-27T07:44:12Z</time>
      </trkpt>
      <trkpt lat="44.9270560" lon="7.0629760">
        <ele>1515.2</ele>
        <time>2017-07-27T07:44:14Z</time>
      </trkpt>
      <trkpt lat="44.9271270" lon="7.0630830">
        <ele>1514.6</ele>
        <time>2017-07-27T07:44:15Z</time>
      </trkpt>
      <trkpt lat="44.9272060" lon="7.0631840">
        <ele>1513.8</ele>
        <time>2017-07-27T07:44:16Z</time>
      </trkpt>
      <trkpt lat="44.9272840" lon="7.0632920">
        <ele>1512.8</ele>
        <time>2017-07-27T07:44:17Z</time>
      </trkpt>
      <trkpt lat="44.9273540" lon="7.0634080">
        <ele>1511.8</ele>
        <time>2017-07-27T07:44:18Z</time>
      </trkpt>
      <trkpt lat="44.9274200" lon="7.0635210">
        <ele>1510.6</ele>
        <time>2017-07-27T07:44:19Z</time>
      </trkpt>
      <trkpt lat="44.9275040" lon="7.0636170">
        <ele>1509.6</ele>
        <time>2017-07-27T07:44:20Z</time>
      </trkpt>
      <trkpt lat="44.9275970" lon="7.0637030">
        <ele>1508.6</ele>
        <time>2017-07-27T07:44:21Z</time>
      </trkpt>
      <trkpt lat="44.9276970" lon="7.0637830">
        <ele>1507.4</ele>
        <time>2017-07-27T07:44:22Z</time>
      </trkpt>
      <trkpt lat="44.9278910" lon="7.0639370">
        <ele>1505.8</ele>
        <time>2017-07-27T07:44:24Z</time>
      </trkpt>
      <trkpt lat="44.9280420" lon="7.0640520">
        <ele>1504.0</ele>
        <time>2017-07-27T07:44:26Z</time>
      </trkpt>
      <trkpt lat="44.9281170" lon="7.0640740">
        <ele>1503.2</ele>
        <time>2017-07-27T07:44:27Z</time>
      </trkpt>
      <trkpt lat="44.9281930" lon="7.0640850">
        <ele>1502.4</ele>
        <time>2017-07-27T07:44:28Z</time>
      </trkpt>
      <trkpt lat="44.9282700" lon="7.0640970">
        <ele>1501.4</ele>
        <time>2017-07-27T07:44:29Z</time>
      </trkpt>
      <trkpt lat="44.9283440" lon="7.0641130">
        <ele>1500.4</ele>
        <time>2017-07-27T07:44:30Z</time>
      </trkpt>
      <trkpt lat="44.9284080" lon="7.0641470">
        <ele>1499.0</ele>
        <time>2017-07-27T07:44:31Z</time>
      </trkpt>
      <trkpt lat="44.9285320" lon="7.0642220">
        <ele>1497.2</ele>
        <time>2017-07-27T07:44:33Z</time>
      </trkpt>
      <trkpt lat="44.9286070" lon="7.0642500">
        <ele>1496.2</ele>
        <time>2017-07-27T07:44:34Z</time>
      </trkpt>
      <trkpt lat="44.9286940" lon="7.0642620">
        <ele>1495.0</ele>
        <time>2017-07-27T07:44:35Z</time>
      </trkpt>
      <trkpt lat="44.9287710" lon="7.0642820">
        <ele>1492.8</ele>
        <time>2017-07-27T07:44:36Z</time>
      </trkpt>
      <trkpt lat="44.9288440" lon="7.0643200">
        <ele>1491.8</ele>
        <time>2017-07-27T07:44:37Z</time>
      </trkpt>
      <trkpt lat="44.9289220" lon="7.0643610">
        <ele>1490.6</ele>
        <time>2017-07-27T07:44:38Z</time>
      </trkpt>
      <trkpt lat="44.9290110" lon="7.0643770">
        <ele>1489.4</ele>
        <time>2017-07-27T07:44:39Z</time>
      </trkpt>
      <trkpt lat="44.9291010" lon="7.0643860">
        <ele>1488.4</ele>
        <time>2017-07-27T07:44:40Z</time>
      </trkpt>
      <trkpt lat="44.9291950" lon="7.0643970">
        <ele>1487.0</ele>
        <time>2017-07-27T07:44:41Z</time>
      </trkpt>
      <trkpt lat="44.9292870" lon="7.0644460">
        <ele>1485.6</ele>
        <time>2017-07-27T07:44:42Z</time>
      </trkpt>
      <trkpt lat="44.9293790" lon="7.0645120">
        <ele>1484.0</ele>
        <time>2017-07-27T07:44:43Z</time>
      </trkpt>
      <trkpt lat="44.9294670" lon="7.0645830">
        <ele>1482.6</ele>
        <time>2017-07-27T07:44:44Z</time>
      </trkpt>
      <trkpt lat="44.9295480" lon="7.0646770">
        <ele>1481.4</ele>
        <time>2017-07-27T07:44:45Z</time>
      </trkpt>
      <trkpt lat="44.9296470" lon="7.0648300">
        <ele>1479.8</ele>
        <time>2017-07-27T07:44:46Z</time>
      </trkpt>
      <trkpt lat="44.9297440" lon="7.0649870">
        <ele>1478.6</ele>
        <time>2017-07-27T07:44:47Z</time>
      </trkpt>
      <trkpt lat="44.9298380" lon="7.0651440">
        <ele>1477.2</ele>
        <time>2017-07-27T07:44:48Z</time>
      </trkpt>
      <trkpt lat="44.9299360" lon="7.0653110">
        <ele>1475.8</ele>
        <time>2017-07-27T07:44:49Z</time>
      </trkpt>
      <trkpt lat="44.9300300" lon="7.0654890">
        <ele>1474.0</ele>
        <time>2017-07-27T07:44:50Z</time>
      </trkpt>
      <trkpt lat="44.9301220" lon="7.0656760">
        <ele>1472.2</ele>
        <time>2017-07-27T07:44:51Z</time>
      </trkpt>
      <trkpt lat="44.9301990" lon="7.0658500">
        <ele>1470.4</ele>
        <time>2017-07-27T07:44:52Z</time>
      </trkpt>
      <trkpt lat="44.9302710" lon="7.0660190">
        <ele>1468.6</ele>
        <time>2017-07-27T07:44:53Z</time>
      </trkpt>
      <trkpt lat="44.9303140" lon="7.0662030">
        <ele>1466.8</ele>
        <time>2017-07-27T07:44:54Z</time>
      </trkpt>
      <trkpt lat="44.9303410" lon="7.0664150">
        <ele>1465.0</ele>
        <time>2017-07-27T07:44:55Z</time>
      </trkpt>
      <trkpt lat="44.9303450" lon="7.0666450">
        <ele>1462.8</ele>
        <time>2017-07-27T07:44:56Z</time>
      </trkpt>
      <trkpt lat="44.9303560" lon="7.0668840">
        <ele>1460.8</ele>
        <time>2017-07-27T07:44:57Z</time>
      </trkpt>
      <trkpt lat="44.9303510" lon="7.0671150">
        <ele>1458.2</ele>
        <time>2017-07-27T07:44:58Z</time>
      </trkpt>
      <trkpt lat="44.9303460" lon="7.0673430">
        <ele>1456.0</ele>
        <time>2017-07-27T07:44:59Z</time>
      </trkpt>
      <trkpt lat="44.9303350" lon="7.0675720">
        <ele>1451.4</ele>
        <time>2017-07-27T07:45:00Z</time>
      </trkpt>
      <trkpt lat="44.9303250" lon="7.0677720">
        <ele>1449.2</ele>
        <time>2017-07-27T07:45:01Z</time>
      </trkpt>
      <trkpt lat="44.9303150" lon="7.0679470">
        <ele>1446.8</ele>
        <time>2017-07-27T07:45:02Z</time>
      </trkpt>
      <trkpt lat="44.9303100" lon="7.0681070">
        <ele>1444.6</ele>
        <time>2017-07-27T07:45:03Z</time>
      </trkpt>
      <trkpt lat="44.9303300" lon="7.0682550">
        <ele>1442.2</ele>
        <time>2017-07-27T07:45:04Z</time>
      </trkpt>
      <trkpt lat="44.9303730" lon="7.0683830">
        <ele>1440.0</ele>
        <time>2017-07-27T07:45:05Z</time>
      </trkpt>
      <trkpt lat="44.9304210" lon="7.0685030">
        <ele>1437.8</ele>
        <time>2017-07-27T07:45:06Z</time>
      </trkpt>
      <trkpt lat="44.9304730" lon="7.0686260">
        <ele>1435.6</ele>
        <time>2017-07-27T07:45:07Z</time>
      </trkpt>
      <trkpt lat="44.9305290" lon="7.0687600">
        <ele>1433.6</ele>
        <time>2017-07-27T07:45:08Z</time>
      </trkpt>
      <trkpt lat="44.9305930" lon="7.0688640">
        <ele>1431.6</ele>
        <time>2017-07-27T07:45:09Z</time>
      </trkpt>
      <trkpt lat="44.9306570" lon="7.0689660">
        <ele>1429.8</ele>
        <time>2017-07-27T07:45:10Z</time>
      </trkpt>
      <trkpt lat="44.9307230" lon="7.0690510">
        <ele>1428.2</ele>
        <time>2017-07-27T07:45:11Z</time>
      </trkpt>
      <trkpt lat="44.9307890" lon="7.0691300">
        <ele>1426.8</ele>
        <time>2017-07-27T07:45:12Z</time>
      </trkpt>
      <trkpt lat="44.9308220" lon="7.0692250">
        <ele>1425.4</ele>
        <time>2017-07-27T07:45:13Z</time>
      </trkpt>
      <trkpt lat="44.9308230" lon="7.0693210">
        <ele>1424.2</ele>
        <time>2017-07-27T07:45:14Z</time>
      </trkpt>
      <trkpt lat="44.9308130" lon="7.0694220">
        <ele>1423.0</ele>
        <time>2017-07-27T07:45:15Z</time>
      </trkpt>
      <trkpt lat="44.9307930" lon="7.0696350">
        <ele>1421.2</ele>
        <time>2017-07-27T07:45:17Z</time>
      </trkpt>
      <trkpt lat="44.9307960" lon="7.0697380">
        <ele>1420.4</ele>
        <time>2017-07-27T07:45:18Z</time>
      </trkpt>
      <trkpt lat="44.9308230" lon="7.0698410">
        <ele>1419.8</ele>
        <time>2017-07-27T07:45:19Z</time>
      </trkpt>
      <trkpt lat="44.9308610" lon="7.0699490">
        <ele>1419.2</ele>
        <time>2017-07-27T07:45:20Z</time>
      </trkpt>
      <trkpt lat="44.9309020" lon="7.0700710">
        <ele>1418.4</ele>
        <time>2017-07-27T07:45:21Z</time>
      </trkpt>
      <trkpt lat="44.9309710" lon="7.0703320">
        <ele>1416.8</ele>
        <time>2017-07-27T07:45:23Z</time>
      </trkpt>
      <trkpt lat="44.9309940" lon="7.0704730">
        <ele>1415.4</ele>
        <time>2017-07-27T07:45:24Z</time>
      </trkpt>
      <trkpt lat="44.9310850" lon="7.0706880">
        <ele>1414.2</ele>
        <time>2017-07-27T07:45:26Z</time>
      </trkpt>
      <trkpt lat="44.9311560" lon="7.0707360">
        <ele>1413.8</ele>
        <time>2017-07-27T07:45:27Z</time>
      </trkpt>
      <trkpt lat="44.9312940" lon="7.0707670">
        <ele>1413.2</ele>
        <time>2017-07-27T07:45:29Z</time>
      </trkpt>
      <trkpt lat="44.9313400" lon="7.0707810">
        <ele>1413.0</ele>
        <time>2017-07-27T07:45:30Z</time>
      </trkpt>
      <trkpt lat="44.9315140" lon="7.0708470">
        <ele>1413.0</ele>
        <time>2017-07-27T07:45:34Z</time>
      </trkpt>
      <trkpt lat="44.9315570" lon="7.0708470">
        <ele>1413.2</ele>
        <time>2017-07-27T07:45:35Z</time>
      </trkpt>
      <trkpt lat="44.9316770" lon="7.0708480">
        <ele>1413.6</ele>
        <time>2017-07-27T07:45:38Z</time>
      </trkpt>
      <trkpt lat="44.9317540" lon="7.0708960">
        <ele>1414.0</ele>
        <time>2017-07-27T07:45:40Z</time>
      </trkpt>
      <trkpt lat="44.9317880" lon="7.0709280">
        <ele>1414.2</ele>
        <time>2017-07-27T07:45:41Z</time>
      </trkpt>
      <trkpt lat="44.9318230" lon="7.0709580">
        <ele>1414.2</ele>
        <time>2017-07-27T07:45:42Z</time>
      </trkpt>
      <trkpt lat="44.9319270" lon="7.0710290">
        <ele>1415.0</ele>
        <time>2017-07-27T07:45:45Z</time>
      </trkpt>
      <trkpt lat="44.9319650" lon="7.0710260">
        <ele>1415.2</ele>
        <time>2017-07-27T07:45:46Z</time>
      </trkpt>
      <trkpt lat="44.9320020" lon="7.0710250">
        <ele>1415.2</ele>
        <time>2017-07-27T07:45:47Z</time>
      </trkpt>
      <trkpt lat="44.9321490" lon="7.0710370">
        <ele>1416.4</ele>
        <time>2017-07-27T07:45:51Z</time>
      </trkpt>
      <trkpt lat="44.9322190" lon="7.0710740">
        <ele>1416.6</ele>
        <time>2017-07-27T07:45:53Z</time>
      </trkpt>
      <trkpt lat="44.9322830" lon="7.0711220">
        <ele>1417.4</ele>
        <time>2017-07-27T07:45:55Z</time>
      </trkpt>
      <trkpt lat="44.9323580" lon="7.0712070">
        <ele>1418.2</ele>
        <time>2017-07-27T07:45:58Z</time>
      </trkpt>
      <trkpt lat="44.9323830" lon="7.0712140">
        <ele>1418.6</ele>
        <time>2017-07-27T07:45:59Z</time>
      </trkpt>
      <trkpt lat="44.9324420" lon="7.0712440">
        <ele>1419.6</ele>
        <time>2017-07-27T07:46:02Z</time>
      </trkpt>
      <trkpt lat="44.9324990" lon="7.0712950">
        <ele>1420.6</ele>
        <time>2017-07-27T07:46:05Z</time>
      </trkpt>
      <trkpt lat="44.9325860" lon="7.0713480">
        <ele>1421.6</ele>
        <time>2017-07-27T07:46:09Z</time>
      </trkpt>
      <trkpt lat="44.9326450" lon="7.0713800">
        <ele>1422.6</ele>
        <time>2017-07-27T07:46:12Z</time>
      </trkpt>
      <trkpt lat="44.9326650" lon="7.0713970">
        <ele>1422.8</ele>
        <time>2017-07-27T07:46:13Z</time>
      </trkpt>
      <trkpt lat="44.9327550" lon="7.0714910">
        <ele>1423.8</ele>
        <time>2017-07-27T07:46:18Z</time>
      </trkpt>
      <trkpt lat="44.9327640" lon="7.0715140">
        <ele>1424.0</ele>
        <time>2017-07-27T07:46:19Z</time>
      </trkpt>
      <trkpt lat="44.9327730" lon="7.0716190">
        <ele>1424.8</ele>
        <time>2017-07-27T07:46:23Z</time>
      </trkpt>
      <trkpt lat="44.9327680" lon="7.0716450">
        <ele>1425.0</ele>
        <time>2017-07-27T07:46:24Z</time>
      </trkpt>
      <trkpt lat="44.9327340" lon="7.0717220">
        <ele>1426.2</ele>
        <time>2017-07-27T07:46:28Z</time>
      </trkpt>
      <trkpt lat="44.9327210" lon="7.0717380">
        <ele>1426.4</ele>
        <time>2017-07-27T07:46:29Z</time>
      </trkpt>
      <trkpt lat="44.9326950" lon="7.0717850">
        <ele>1427.4</ele>
        <time>2017-07-27T07:46:32Z</time>
      </trkpt>
      <trkpt lat="44.9326530" lon="7.0718500">
        <ele>1429.0</ele>
        <time>2017-07-27T07:46:36Z</time>
      </trkpt>
      <trkpt lat="44.9326440" lon="7.0718710">
        <ele>1429.4</ele>
        <time>2017-07-27T07:46:37Z</time>
      </trkpt>
      <trkpt lat="44.9326270" lon="7.0719140">
        <ele>1430.0</ele>
        <time>2017-07-27T07:46:39Z</time>
      </trkpt>
      <trkpt lat="44.9325890" lon="7.0719910">
        <ele>1431.4</ele>
        <time>2017-07-27T07:46:43Z</time>
      </trkpt>
      <trkpt lat="44.9325720" lon="7.0720260">
        <ele>1432.0</ele>
        <time>2017-07-27T07:46:45Z</time>
      </trkpt>
      <trkpt lat="44.9325750" lon="7.0720850">
        <ele>1432.4</ele>
        <time>2017-07-27T07:46:47Z</time>
      </trkpt>
      <trkpt lat="44.9325990" lon="7.0721700">
        <ele>1432.8</ele>
        <time>2017-07-27T07:46:50Z</time>
      </trkpt>
      <trkpt lat="44.9326390" lon="7.0721990">
        <ele>1433.4</ele>
        <time>2017-07-27T07:46:52Z</time>
      </trkpt>
      <trkpt lat="44.9327080" lon="7.0722070">
        <ele>1434.0</ele>
        <time>2017-07-27T07:46:54Z</time>
      </trkpt>
      <trkpt lat="44.9327670" lon="7.0722040">
        <ele>1434.6</ele>
        <time>2017-07-27T07:46:56Z</time>
      </trkpt>
      <trkpt lat="44.9328130" lon="7.0721940">
        <ele>1435.0</ele>
        <time>2017-07-27T07:46:58Z</time>
      </trkpt>
      <trkpt lat="44.9328560" lon="7.0721770">
        <ele>1436.0</ele>
        <time>2017-07-27T07:47:00Z</time>
      </trkpt>
      <trkpt lat="44.9329480" lon="7.0721270">
        <ele>1437.0</ele>
        <time>2017-07-27T07:47:04Z</time>
      </trkpt>
      <trkpt lat="44.9330330" lon="7.0720830">
        <ele>1437.6</ele>
        <time>2017-07-27T07:47:07Z</time>
      </trkpt>
      <trkpt lat="44.9330910" lon="7.0720220">
        <ele>1438.2</ele>
        <time>2017-07-27T07:47:10Z</time>
      </trkpt>
      <trkpt lat="44.9331580" lon="7.0719330">
        <ele>1439.0</ele>
        <time>2017-07-27T07:47:14Z</time>
      </trkpt>
      <trkpt lat="44.9331790" lon="7.0719080">
        <ele>1439.2</ele>
        <time>2017-07-27T07:47:15Z</time>
      </trkpt>
      <trkpt lat="44.9332550" lon="7.0718970">
        <ele>1440.2</ele>
        <time>2017-07-27T07:47:18Z</time>
      </trkpt>
      <trkpt lat="44.9332800" lon="7.0719090">
        <ele>1440.4</ele>
        <time>2017-07-27T07:47:19Z</time>
      </trkpt>
      <trkpt lat="44.9332920" lon="7.0719980">
        <ele>1441.6</ele>
        <time>2017-07-27T07:47:23Z</time>
      </trkpt>
      <trkpt lat="44.9332760" lon="7.0720730">
        <ele>1442.8</ele>
        <time>2017-07-27T07:47:26Z</time>
      </trkpt>
      <trkpt lat="44.9332690" lon="7.0721640">
        <ele>1443.6</ele>
        <time>2017-07-27T07:47:29Z</time>
      </trkpt>
      <trkpt lat="44.9332680" lon="7.0721970">
        <ele>1444.0</ele>
        <time>2017-07-27T07:47:30Z</time>
      </trkpt>
      <trkpt lat="44.9332580" lon="7.0722910">
        <ele>1445.0</ele>
        <time>2017-07-27T07:47:33Z</time>
      </trkpt>
      <trkpt lat="44.9332560" lon="7.0723520">
        <ele>1445.4</ele>
        <time>2017-07-27T07:47:35Z</time>
      </trkpt>
      <trkpt lat="44.9332520" lon="7.0724240">
        <ele>1446.0</ele>
        <time>2017-07-27T07:47:37Z</time>
      </trkpt>
      <trkpt lat="44.9332490" lon="7.0725970">
        <ele>1447.2</ele>
        <time>2017-07-27T07:47:42Z</time>
      </trkpt>
      <trkpt lat="44.9332200" lon="7.0728240">
        <ele>1448.2</ele>
        <time>2017-07-27T07:47:48Z</time>
      </trkpt>
      <trkpt lat="44.9332100" lon="7.0728580">
        <ele>1448.4</ele>
        <time>2017-07-27T07:47:49Z</time>
      </trkpt>
      <trkpt lat="44.9331720" lon="7.0729640">
        <ele>1449.4</ele>
        <time>2017-07-27T07:47:52Z</time>
      </trkpt>
      <trkpt lat="44.9330900" lon="7.0730710">
        <ele>1450.4</ele>
        <time>2017-07-27T07:47:56Z</time>
      </trkpt>
      <trkpt lat="44.9330710" lon="7.0730950">
        <ele>1450.8</ele>
        <time>2017-07-27T07:47:57Z</time>
      </trkpt>
      <trkpt lat="44.9329850" lon="7.0731860">
        <ele>1452.0</ele>
        <time>2017-07-27T07:48:01Z</time>
      </trkpt>
      <trkpt lat="44.9329470" lon="7.0732340">
        <ele>1452.4</ele>
        <time>2017-07-27T07:48:03Z</time>
      </trkpt>
      <trkpt lat="44.9329090" lon="7.0732760">
        <ele>1453.0</ele>
        <time>2017-07-27T07:48:05Z</time>
      </trkpt>
      <trkpt lat="44.9328280" lon="7.0734100">
        <ele>1454.0</ele>
        <time>2017-07-27T07:48:10Z</time>
      </trkpt>
      <trkpt lat="44.9328130" lon="7.0734370">
        <ele>1454.2</ele>
        <time>2017-07-27T07:48:11Z</time>
      </trkpt>
      <trkpt lat="44.9327540" lon="7.0735020">
        <ele>1455.0</ele>
        <time>2017-07-27T07:48:14Z</time>
      </trkpt>
      <trkpt lat="44.9327160" lon="7.0735740">
        <ele>1455.4</ele>
        <time>2017-07-27T07:48:17Z</time>
      </trkpt>
      <trkpt lat="44.9327440" lon="7.0736130">
        <ele>1456.2</ele>
        <time>2017-07-27T07:48:20Z</time>
      </trkpt>
      <trkpt lat="44.9327640" lon="7.0735970">
        <ele>1456.4</ele>
        <time>2017-07-27T07:48:21Z</time>
      </trkpt>
      <trkpt lat="44.9327990" lon="7.0735450">
        <ele>1456.6</ele>
        <time>2017-07-27T07:48:23Z</time>
      </trkpt>
      <trkpt lat="44.9328530" lon="7.0734640">
        <ele>1457.2</ele>
        <time>2017-07-27T07:48:26Z</time>
      </trkpt>
      <trkpt lat="44.9328780" lon="7.0734390">
        <ele>1457.4</ele>
        <time>2017-07-27T07:48:27Z</time>
      </trkpt>
      <trkpt lat="44.9330080" lon="7.0733590">
        <ele>1458.4</ele>
        <time>2017-07-27T07:48:32Z</time>
      </trkpt>
      <trkpt lat="44.9330480" lon="7.0733300">
        <ele>1458.8</ele>
        <time>2017-07-27T07:48:34Z</time>
      </trkpt>
      <trkpt lat="44.9330940" lon="7.0732980">
        <ele>1459.8</ele>
        <time>2017-07-27T07:48:36Z</time>
      </trkpt>
      <trkpt lat="44.9332070" lon="7.0732440">
        <ele>1461.0</ele>
        <time>2017-07-27T07:48:41Z</time>
      </trkpt>
      <trkpt lat="44.9332780" lon="7.0732130">
        <ele>1462.2</ele>
        <time>2017-07-27T07:48:44Z</time>
      </trkpt>
      <trkpt lat="44.9333780" lon="7.0731430">
        <ele>1463.4</ele>
        <time>2017-07-27T07:48:48Z</time>
      </trkpt>
      <trkpt lat="44.9334830" lon="7.0730720">
        <ele>1464.4</ele>
        <time>2017-07-27T07:48:52Z</time>
      </trkpt>
      <trkpt lat="44.9335230" lon="7.0730310">
        <ele>1465.2</ele>
        <time>2017-07-27T07:48:54Z</time>
      </trkpt>
      <trkpt lat="44.9335430" lon="7.0730060">
        <ele>1465.6</ele>
        <time>2017-07-27T07:48:55Z</time>
      </trkpt>
      <trkpt lat="44.9336210" lon="7.0728860">
        <ele>1466.6</ele>
        <time>2017-07-27T07:48:59Z</time>
      </trkpt>
      <trkpt lat="44.9336490" lon="7.0728170">
        <ele>1467.6</ele>
        <time>2017-07-27T07:49:01Z</time>
      </trkpt>
      <trkpt lat="44.9336660" lon="7.0727780">
        <ele>1467.8</ele>
        <time>2017-07-27T07:49:02Z</time>
      </trkpt>
      <trkpt lat="44.9337530" lon="7.0726050">
        <ele>1469.0</ele>
        <time>2017-07-27T07:49:07Z</time>
      </trkpt>
      <trkpt lat="44.9337760" lon="7.0725590">
        <ele>1469.2</ele>
        <time>2017-07-27T07:49:08Z</time>
      </trkpt>
      <trkpt lat="44.9338250" lon="7.0723290">
        <ele>1470.0</ele>
        <time>2017-07-27T07:49:13Z</time>
      </trkpt>
      <trkpt lat="44.9338210" lon="7.0722880">
        <ele>1470.4</ele>
        <time>2017-07-27T07:49:14Z</time>
      </trkpt>
      <trkpt lat="44.9337820" lon="7.0721350">
        <ele>1471.2</ele>
        <time>2017-07-27T07:49:18Z</time>
      </trkpt>
      <trkpt lat="44.9337740" lon="7.0720610">
        <ele>1471.6</ele>
        <time>2017-07-27T07:49:20Z</time>
      </trkpt>
      <trkpt lat="44.9338020" lon="7.0719550">
        <ele>1472.2</ele>
        <time>2017-07-27T07:49:23Z</time>
      </trkpt>
      <trkpt lat="44.9338090" lon="7.0719190">
        <ele>1472.8</ele>
        <time>2017-07-27T07:49:24Z</time>
      </trkpt>
      <trkpt lat="44.9338490" lon="7.0718230">
        <ele>1473.4</ele>
        <time>2017-07-27T07:49:27Z</time>
      </trkpt>
      <trkpt lat="44.9338600" lon="7.0717470">
        <ele>1473.8</ele>
        <time>2017-07-27T07:49:29Z</time>
      </trkpt>
      <trkpt lat="44.9338820" lon="7.0716330">
        <ele>1474.6</ele>
        <time>2017-07-27T07:49:32Z</time>
      </trkpt>
      <trkpt lat="44.9339040" lon="7.0714880">
        <ele>1475.4</ele>
        <time>2017-07-27T07:49:36Z</time>
      </trkpt>
      <trkpt lat="44.9339100" lon="7.0714540">
        <ele>1475.8</ele>
        <time>2017-07-27T07:49:37Z</time>
      </trkpt>
      <trkpt lat="44.9339390" lon="7.0712370">
        <ele>1476.8</ele>
        <time>2017-07-27T07:49:43Z</time>
      </trkpt>
      <trkpt lat="44.9339430" lon="7.0710420">
        <ele>1478.2</ele>
        <time>2017-07-27T07:49:48Z</time>
      </trkpt>
      <trkpt lat="44.9339460" lon="7.0709690">
        <ele>1479.0</ele>
        <time>2017-07-27T07:49:50Z</time>
      </trkpt>
      <trkpt lat="44.9339520" lon="7.0709060">
        <ele>1479.4</ele>
        <time>2017-07-27T07:49:52Z</time>
      </trkpt>
      <trkpt lat="44.9339530" lon="7.0707620">
        <ele>1480.2</ele>
        <time>2017-07-27T07:49:56Z</time>
      </trkpt>
      <trkpt lat="44.9339520" lon="7.0707290">
        <ele>1480.6</ele>
        <time>2017-07-27T07:49:57Z</time>
      </trkpt>
      <trkpt lat="44.9339470" lon="7.0705990">
        <ele>1481.6</ele>
        <time>2017-07-27T07:50:01Z</time>
      </trkpt>
      <trkpt lat="44.9339540" lon="7.0705310">
        <ele>1482.0</ele>
        <time>2017-07-27T07:50:03Z</time>
      </trkpt>
      <trkpt lat="44.9339640" lon="7.0704620">
        <ele>1482.8</ele>
        <time>2017-07-27T07:50:05Z</time>
      </trkpt>
      <trkpt lat="44.9340070" lon="7.0703330">
        <ele>1483.8</ele>
        <time>2017-07-27T07:50:09Z</time>
      </trkpt>
      <trkpt lat="44.9340270" lon="7.0702610">
        <ele>1484.4</ele>
        <time>2017-07-27T07:50:11Z</time>
      </trkpt>
      <trkpt lat="44.9340510" lon="7.0701970">
        <ele>1485.2</ele>
        <time>2017-07-27T07:50:13Z</time>
      </trkpt>
      <trkpt lat="44.9340980" lon="7.0700690">
        <ele>1486.2</ele>
        <time>2017-07-27T07:50:17Z</time>
      </trkpt>
      <trkpt lat="44.9341200" lon="7.0699970">
        <ele>1486.6</ele>
        <time>2017-07-27T07:50:19Z</time>
      </trkpt>
      <trkpt lat="44.9341370" lon="7.0699290">
        <ele>1487.2</ele>
        <time>2017-07-27T07:50:21Z</time>
      </trkpt>
      <trkpt lat="44.9341670" lon="7.0697540">
        <ele>1488.4</ele>
        <time>2017-07-27T07:50:26Z</time>
      </trkpt>
      <trkpt lat="44.9341620" lon="7.0696070">
        <ele>1489.6</ele>
        <time>2017-07-27T07:50:30Z</time>
      </trkpt>
      <trkpt lat="44.9341670" lon="7.0694610">
        <ele>1490.6</ele>
        <time>2017-07-27T07:50:34Z</time>
      </trkpt>
      <trkpt lat="44.9341840" lon="7.0693580">
        <ele>1492.0</ele>
        <time>2017-07-27T07:50:37Z</time>
      </trkpt>
      <trkpt lat="44.9341930" lon="7.0692630">
        <ele>1493.0</ele>
        <time>2017-07-27T07:50:40Z</time>
      </trkpt>
      <trkpt lat="44.9341870" lon="7.0691570">
        <ele>1494.4</ele>
        <time>2017-07-27T07:50:44Z</time>
      </trkpt>
      <trkpt lat="44.9341940" lon="7.0691050">
        <ele>1495.0</ele>
        <time>2017-07-27T07:50:46Z</time>
      </trkpt>
      <trkpt lat="44.9342140" lon="7.0690740">
        <ele>1495.6</ele>
        <time>2017-07-27T07:50:48Z</time>
      </trkpt>
      <trkpt lat="44.9342610" lon="7.0690540">
        <ele>1496.4</ele>
        <time>2017-07-27T07:50:51Z</time>
      </trkpt>
      <trkpt lat="44.9342840" lon="7.0690680">
        <ele>1496.6</ele>
        <time>2017-07-27T07:50:52Z</time>
      </trkpt>
      <trkpt lat="44.9343340" lon="7.0691360">
        <ele>1497.2</ele>
        <time>2017-07-27T07:50:55Z</time>
      </trkpt>
      <trkpt lat="44.9343770" lon="7.0691840">
        <ele>1497.6</ele>
        <time>2017-07-27T07:50:57Z</time>
      </trkpt>
      <trkpt lat="44.9344700" lon="7.0692810">
        <ele>1498.8</ele>
        <time>2017-07-27T07:51:01Z</time>
      </trkpt>
      <trkpt lat="44.9345960" lon="7.0693900">
        <ele>1500.0</ele>
        <time>2017-07-27T07:51:06Z</time>
      </trkpt>
      <trkpt lat="44.9346150" lon="7.0694190">
        <ele>1500.2</ele>
        <time>2017-07-27T07:51:07Z</time>
      </trkpt>
      <trkpt lat="44.9346640" lon="7.0695470">
        <ele>1501.0</ele>
        <time>2017-07-27T07:51:11Z</time>
      </trkpt>
      <trkpt lat="44.9346800" lon="7.0695860">
        <ele>1501.2</ele>
        <time>2017-07-27T07:51:12Z</time>
      </trkpt>
      <trkpt lat="44.9347410" lon="7.0697650">
        <ele>1502.2</ele>
        <time>2017-07-27T07:51:16Z</time>
      </trkpt>
      <trkpt lat="44.9347620" lon="7.0698560">
        <ele>1502.6</ele>
        <time>2017-07-27T07:51:18Z</time>
      </trkpt>
      <trkpt lat="44.9347970" lon="7.0700620">
        <ele>1503.2</ele>
        <time>2017-07-27T07:51:22Z</time>
      </trkpt>
      <trkpt lat="44.9348020" lon="7.0701550">
        <ele>1503.4</ele>
        <time>2017-07-27T07:51:24Z</time>
      </trkpt>
      <trkpt lat="44.9348180" lon="7.0704280">
        <ele>1504.2</ele>
        <time>2017-07-27T07:51:30Z</time>
      </trkpt>
      <trkpt lat="44.9348290" lon="7.0704760">
        <ele>1504.4</ele>
        <time>2017-07-27T07:51:31Z</time>
      </trkpt>
      <trkpt lat="44.9349160" lon="7.0706910">
        <ele>1505.2</ele>
        <time>2017-07-27T07:51:37Z</time>
      </trkpt>
      <trkpt lat="44.9349420" lon="7.0707170">
        <ele>1505.4</ele>
        <time>2017-07-27T07:51:38Z</time>
      </trkpt>
      <trkpt lat="44.9350980" lon="7.0708070">
        <ele>1506.2</ele>
        <time>2017-07-27T07:51:44Z</time>
      </trkpt>
      <trkpt lat="44.9351280" lon="7.0708050">
        <ele>1506.4</ele>
        <time>2017-07-27T07:51:45Z</time>
      </trkpt>
      <trkpt lat="44.9352440" lon="7.0707080">
        <ele>1507.6</ele>
        <time>2017-07-27T07:51:50Z</time>
      </trkpt>
      <trkpt lat="44.9353030" lon="7.0705450">
        <ele>1508.8</ele>
        <time>2017-07-27T07:51:54Z</time>
      </trkpt>
      <trkpt lat="44.9353260" lon="7.0704550">
        <ele>1509.4</ele>
        <time>2017-07-27T07:51:56Z</time>
      </trkpt>
      <trkpt lat="44.9353380" lon="7.0703650">
        <ele>1509.8</ele>
        <time>2017-07-27T07:51:58Z</time>
      </trkpt>
      <trkpt lat="44.9353210" lon="7.0702340">
        <ele>1510.8</ele>
        <time>2017-07-27T07:52:01Z</time>
      </trkpt>
      <trkpt lat="44.9352930" lon="7.0701220">
        <ele>1512.0</ele>
        <time>2017-07-27T07:52:04Z</time>
      </trkpt>
      <trkpt lat="44.9352770" lon="7.0700080">
        <ele>1513.0</ele>
        <time>2017-07-27T07:52:07Z</time>
      </trkpt>
      <trkpt lat="44.9352780" lon="7.0699690">
        <ele>1513.4</ele>
        <time>2017-07-27T07:52:08Z</time>
      </trkpt>
      <trkpt lat="44.9353020" lon="7.0698610">
        <ele>1514.4</ele>
        <time>2017-07-27T07:52:11Z</time>
      </trkpt>
      <trkpt lat="44.9353360" lon="7.0697960">
        <ele>1515.4</ele>
        <time>2017-07-27T07:52:13Z</time>
      </trkpt>
      <trkpt lat="44.9353830" lon="7.0696510">
        <ele>1517.0</ele>
        <time>2017-07-27T07:52:17Z</time>
      </trkpt>
      <trkpt lat="44.9353970" lon="7.0695780">
        <ele>1517.6</ele>
        <time>2017-07-27T07:52:19Z</time>
      </trkpt>
      <trkpt lat="44.9353910" lon="7.0695060">
        <ele>1518.2</ele>
        <time>2017-07-27T07:52:21Z</time>
      </trkpt>
      <trkpt lat="44.9353870" lon="7.0693740">
        <ele>1519.4</ele>
        <time>2017-07-27T07:52:25Z</time>
      </trkpt>
      <trkpt lat="44.9353810" lon="7.0692880">
        <ele>1520.6</ele>
        <time>2017-07-27T07:52:28Z</time>
      </trkpt>
      <trkpt lat="44.9353590" lon="7.0691720">
        <ele>1521.8</ele>
        <time>2017-07-27T07:52:32Z</time>
      </trkpt>
      <trkpt lat="44.9353520" lon="7.0690800">
        <ele>1522.8</ele>
        <time>2017-07-27T07:52:35Z</time>
      </trkpt>
      <trkpt lat="44.9353450" lon="7.0689790">
        <ele>1524.0</ele>
        <time>2017-07-27T07:52:38Z</time>
      </trkpt>
      <trkpt lat="44.9353420" lon="7.0689450">
        <ele>1524.4</ele>
        <time>2017-07-27T07:52:39Z</time>
      </trkpt>
      <trkpt lat="44.9353200" lon="7.0688830">
        <ele>1525.0</ele>
        <time>2017-07-27T07:52:41Z</time>
      </trkpt>
      <trkpt lat="44.9352920" lon="7.0687570">
        <ele>1526.0</ele>
        <time>2017-07-27T07:52:45Z</time>
      </trkpt>
      <trkpt lat="44.9352870" lon="7.0687220">
        <ele>1526.2</ele>
        <time>2017-07-27T07:52:46Z</time>
      </trkpt>
      <trkpt lat="44.9352580" lon="7.0685600">
        <ele>1527.4</ele>
        <time>2017-07-27T07:52:51Z</time>
      </trkpt>
      <trkpt lat="44.9352440" lon="7.0685300">
        <ele>1527.6</ele>
        <time>2017-07-27T07:52:52Z</time>
      </trkpt>
      <trkpt lat="44.9352060" lon="7.0683970">
        <ele>1528.8</ele>
        <time>2017-07-27T07:52:56Z</time>
      </trkpt>
      <trkpt lat="44.9351960" lon="7.0683290">
        <ele>1529.2</ele>
        <time>2017-07-27T07:52:58Z</time>
      </trkpt>
      <trkpt lat="44.9352030" lon="7.0682970">
        <ele>1529.6</ele>
        <time>2017-07-27T07:52:59Z</time>
      </trkpt>
      <trkpt lat="44.9352140" lon="7.0682760">
        <ele>1529.8</ele>
        <time>2017-07-27T07:53:00Z</time>
      </trkpt>
      <trkpt lat="44.9352450" lon="7.0682750">
        <ele>1530.8</ele>
        <time>2017-07-27T07:53:02Z</time>
      </trkpt>
      <trkpt lat="44.9352590" lon="7.0682800">
        <ele>1531.2</ele>
        <time>2017-07-27T07:53:03Z</time>
      </trkpt>
      <trkpt lat="44.9353050" lon="7.0683420">
        <ele>1532.0</ele>
        <time>2017-07-27T07:53:06Z</time>
      </trkpt>
      <trkpt lat="44.9353380" lon="7.0683900">
        <ele>1532.4</ele>
        <time>2017-07-27T07:53:08Z</time>
      </trkpt>
      <trkpt lat="44.9354130" lon="7.0684590">
        <ele>1533.4</ele>
        <time>2017-07-27T07:53:12Z</time>
      </trkpt>
      <trkpt lat="44.9354680" lon="7.0685090">
        <ele>1534.0</ele>
        <time>2017-07-27T07:53:15Z</time>
      </trkpt>
      <trkpt lat="44.9354870" lon="7.0685150">
        <ele>1534.4</ele>
        <time>2017-07-27T07:53:16Z</time>
      </trkpt>
      <trkpt lat="44.9355770" lon="7.0685570">
        <ele>1535.6</ele>
        <time>2017-07-27T07:53:20Z</time>
      </trkpt>
      <trkpt lat="44.9356290" lon="7.0685930">
        <ele>1536.0</ele>
        <time>2017-07-27T07:53:22Z</time>
      </trkpt>
      <trkpt lat="44.9357000" lon="7.0686230">
        <ele>1536.8</ele>
        <time>2017-07-27T07:53:25Z</time>
      </trkpt>
      <trkpt lat="44.9357480" lon="7.0686610">
        <ele>1537.4</ele>
        <time>2017-07-27T07:53:27Z</time>
      </trkpt>
      <trkpt lat="44.9357650" lon="7.0686790">
        <ele>1537.8</ele>
        <time>2017-07-27T07:53:28Z</time>
      </trkpt>
      <trkpt lat="44.9358200" lon="7.0687660">
        <ele>1538.8</ele>
        <time>2017-07-27T07:53:31Z</time>
      </trkpt>
      <trkpt lat="44.9358310" lon="7.0687960">
        <ele>1539.0</ele>
        <time>2017-07-27T07:53:32Z</time>
      </trkpt>
      <trkpt lat="44.9358840" lon="7.0689790">
        <ele>1539.8</ele>
        <time>2017-07-27T07:53:37Z</time>
      </trkpt>
      <trkpt lat="44.9358900" lon="7.0690230">
        <ele>1540.0</ele>
        <time>2017-07-27T07:53:38Z</time>
      </trkpt>
      <trkpt lat="44.9359470" lon="7.0692510">
        <ele>1541.0</ele>
        <time>2017-07-27T07:53:44Z</time>
      </trkpt>
      <trkpt lat="44.9359600" lon="7.0692850">
        <ele>1541.0</ele>
        <time>2017-07-27T07:53:45Z</time>
      </trkpt>
      <trkpt lat="44.9359880" lon="7.0694920">
        <ele>1542.2</ele>
        <time>2017-07-27T07:53:50Z</time>
      </trkpt>
      <trkpt lat="44.9359890" lon="7.0695370">
        <ele>1542.4</ele>
        <time>2017-07-27T07:53:51Z</time>
      </trkpt>
      <trkpt lat="44.9360090" lon="7.0697130">
        <ele>1543.4</ele>
        <time>2017-07-27T07:53:55Z</time>
      </trkpt>
      <trkpt lat="44.9360350" lon="7.0697900">
        <ele>1544.0</ele>
        <time>2017-07-27T07:53:57Z</time>
      </trkpt>
      <trkpt lat="44.9360800" lon="7.0698990">
        <ele>1544.6</ele>
        <time>2017-07-27T07:54:00Z</time>
      </trkpt>
      <trkpt lat="44.9361160" lon="7.0699880">
        <ele>1545.2</ele>
        <time>2017-07-27T07:54:03Z</time>
      </trkpt>
      <trkpt lat="44.9361350" lon="7.0700760">
        <ele>1545.8</ele>
        <time>2017-07-27T07:54:06Z</time>
      </trkpt>
      <trkpt lat="44.9361570" lon="7.0701630">
        <ele>1546.4</ele>
        <time>2017-07-27T07:54:09Z</time>
      </trkpt>
      <trkpt lat="44.9361750" lon="7.0702500">
        <ele>1546.8</ele>
        <time>2017-07-27T07:54:12Z</time>
      </trkpt>
      <trkpt lat="44.9362030" lon="7.0704070">
        <ele>1548.0</ele>
        <time>2017-07-27T07:54:17Z</time>
      </trkpt>
      <trkpt lat="44.9362360" lon="7.0705730">
        <ele>1549.0</ele>
        <time>2017-07-27T07:54:22Z</time>
      </trkpt>
      <trkpt lat="44.9362600" lon="7.0706460">
        <ele>1549.8</ele>
        <time>2017-07-27T07:54:25Z</time>
      </trkpt>
      <trkpt lat="44.9363050" lon="7.0706610">
        <ele>1550.4</ele>
        <time>2017-07-27T07:54:27Z</time>
      </trkpt>
      <trkpt lat="44.9363510" lon="7.0706520">
        <ele>1551.0</ele>
        <time>2017-07-27T07:54:29Z</time>
      </trkpt>
      <trkpt lat="44.9364020" lon="7.0706450">
        <ele>1551.6</ele>
        <time>2017-07-27T07:54:31Z</time>
      </trkpt>
      <trkpt lat="44.9364920" lon="7.0706290">
        <ele>1552.8</ele>
        <time>2017-07-27T07:54:35Z</time>
      </trkpt>
      <trkpt lat="44.9365510" lon="7.0706160">
        <ele>1554.0</ele>
        <time>2017-07-27T07:54:38Z</time>
      </trkpt>
      <trkpt lat="44.9366340" lon="7.0706020">
        <ele>1555.0</ele>
        <time>2017-07-27T07:54:41Z</time>
      </trkpt>
      <trkpt lat="44.9366610" lon="7.0705980">
        <ele>1555.4</ele>
        <time>2017-07-27T07:54:42Z</time>
      </trkpt>
      <trkpt lat="44.9367570" lon="7.0705800">
        <ele>1556.4</ele>
        <time>2017-07-27T07:54:46Z</time>
      </trkpt>
      <trkpt lat="44.9368310" lon="7.0705500">
        <ele>1557.0</ele>
        <time>2017-07-27T07:54:49Z</time>
      </trkpt>
      <trkpt lat="44.9368540" lon="7.0705330">
        <ele>1557.4</ele>
        <time>2017-07-27T07:54:50Z</time>
      </trkpt>
      <trkpt lat="44.9368770" lon="7.0704530">
        <ele>1558.0</ele>
        <time>2017-07-27T07:54:53Z</time>
      </trkpt>
      <trkpt lat="44.9368670" lon="7.0704260">
        <ele>1558.4</ele>
        <time>2017-07-27T07:54:54Z</time>
      </trkpt>
      <trkpt lat="44.9368030" lon="7.0704260">
        <ele>1559.4</ele>
        <time>2017-07-27T07:54:57Z</time>
      </trkpt>
      <trkpt lat="44.9367770" lon="7.0704240">
        <ele>1559.8</ele>
        <time>2017-07-27T07:54:58Z</time>
      </trkpt>
      <trkpt lat="44.9367510" lon="7.0704230">
        <ele>1560.2</ele>
        <time>2017-07-27T07:54:59Z</time>
      </trkpt>
      <trkpt lat="44.9366960" lon="7.0704120">
        <ele>1561.2</ele>
        <time>2017-07-27T07:55:01Z</time>
      </trkpt>
      <trkpt lat="44.9366430" lon="7.0704020">
        <ele>1561.8</ele>
        <time>2017-07-27T07:55:03Z</time>
      </trkpt>
      <trkpt lat="44.9365890" lon="7.0703860">
        <ele>1562.2</ele>
        <time>2017-07-27T07:55:05Z</time>
      </trkpt>
      <trkpt lat="44.9364840" lon="7.0703740">
        <ele>1562.8</ele>
        <time>2017-07-27T07:55:08Z</time>
      </trkpt>
      <trkpt lat="44.9364250" lon="7.0703350">
        <ele>1563.4</ele>
        <time>2017-07-27T07:55:10Z</time>
      </trkpt>
      <trkpt lat="44.9363830" lon="7.0702800">
        <ele>1563.8</ele>
        <time>2017-07-27T07:55:12Z</time>
      </trkpt>
      <trkpt lat="44.9363790" lon="7.0701710">
        <ele>1564.6</ele>
        <time>2017-07-27T07:55:15Z</time>
      </trkpt>
      <trkpt lat="44.9363900" lon="7.0701370">
        <ele>1564.8</ele>
        <time>2017-07-27T07:55:16Z</time>
      </trkpt>
      <trkpt lat="44.9364170" lon="7.0700780">
        <ele>1565.4</ele>
        <time>2017-07-27T07:55:18Z</time>
      </trkpt>
      <trkpt lat="44.9364340" lon="7.0700590">
        <ele>1565.8</ele>
        <time>2017-07-27T07:55:19Z</time>
      </trkpt>
      <trkpt lat="44.9364730" lon="7.0700380">
        <ele>1566.2</ele>
        <time>2017-07-27T07:55:21Z</time>
      </trkpt>
      <trkpt lat="44.9365200" lon="7.0700380">
        <ele>1567.0</ele>
        <time>2017-07-27T07:55:23Z</time>
      </trkpt>
      <trkpt lat="44.9365490" lon="7.0700670">
        <ele>1568.0</ele>
        <time>2017-07-27T07:55:25Z</time>
      </trkpt>
      <trkpt lat="44.9365630" lon="7.0700930">
        <ele>1568.2</ele>
        <time>2017-07-27T07:55:26Z</time>
      </trkpt>
      <trkpt lat="44.9365860" lon="7.0701310">
        <ele>1568.8</ele>
        <time>2017-07-27T07:55:28Z</time>
      </trkpt>
      <trkpt lat="44.9366240" lon="7.0701620">
        <ele>1569.4</ele>
        <time>2017-07-27T07:55:30Z</time>
      </trkpt>
      <trkpt lat="44.9367210" lon="7.0701740">
        <ele>1570.6</ele>
        <time>2017-07-27T07:55:35Z</time>
      </trkpt>
      <trkpt lat="44.9368070" lon="7.0701870">
        <ele>1571.8</ele>
        <time>2017-07-27T07:55:39Z</time>
      </trkpt>
      <trkpt lat="44.9368250" lon="7.0701780">
        <ele>1572.2</ele>
        <time>2017-07-27T07:55:40Z</time>
      </trkpt>
      <trkpt lat="44.9368880" lon="7.0701660">
        <ele>1572.8</ele>
        <time>2017-07-27T07:55:43Z</time>
      </trkpt>
      <trkpt lat="44.9369650" lon="7.0701690">
        <ele>1574.2</ele>
        <time>2017-07-27T07:55:47Z</time>
      </trkpt>
      <trkpt lat="44.9370260" lon="7.0701890">
        <ele>1575.4</ele>
        <time>2017-07-27T07:55:50Z</time>
      </trkpt>
      <trkpt lat="44.9371440" lon="7.0702470">
        <ele>1576.6</ele>
        <time>2017-07-27T07:55:54Z</time>
      </trkpt>
      <trkpt lat="44.9372510" lon="7.0702710">
        <ele>1578.0</ele>
        <time>2017-07-27T07:55:57Z</time>
      </trkpt>
      <trkpt lat="44.9373270" lon="7.0703140">
        <ele>1578.8</ele>
        <time>2017-07-27T07:56:00Z</time>
      </trkpt>
      <trkpt lat="44.9373530" lon="7.0703260">
        <ele>1579.0</ele>
        <time>2017-07-27T07:56:01Z</time>
      </trkpt>
      <trkpt lat="44.9374530" lon="7.0703470">
        <ele>1580.2</ele>
        <time>2017-07-27T07:56:05Z</time>
      </trkpt>
      <trkpt lat="44.9375040" lon="7.0703630">
        <ele>1580.6</ele>
        <time>2017-07-27T07:56:07Z</time>
      </trkpt>
      <trkpt lat="44.9375830" lon="7.0704030">
        <ele>1581.2</ele>
        <time>2017-07-27T07:56:10Z</time>
      </trkpt>
      <trkpt lat="44.9376740" lon="7.0704350">
        <ele>1582.4</ele>
        <time>2017-07-27T07:56:14Z</time>
      </trkpt>
      <trkpt lat="44.9377620" lon="7.0704390">
        <ele>1583.6</ele>
        <time>2017-07-27T07:56:18Z</time>
      </trkpt>
      <trkpt lat="44.9378190" lon="7.0704090">
        <ele>1584.2</ele>
        <time>2017-07-27T07:56:21Z</time>
      </trkpt>
      <trkpt lat="44.9378540" lon="7.0703870">
        <ele>1584.6</ele>
        <time>2017-07-27T07:56:23Z</time>
      </trkpt>
      <trkpt lat="44.9379420" lon="7.0703760">
        <ele>1585.8</ele>
        <time>2017-07-27T07:56:27Z</time>
      </trkpt>
      <trkpt lat="44.9379650" lon="7.0703780">
        <ele>1586.0</ele>
        <time>2017-07-27T07:56:28Z</time>
      </trkpt>
      <trkpt lat="44.9380610" lon="7.0703750">
        <ele>1586.8</ele>
        <time>2017-07-27T07:56:32Z</time>
      </trkpt>
      <trkpt lat="44.9380900" lon="7.0703350">
        <ele>1587.2</ele>
        <time>2017-07-27T07:56:34Z</time>
      </trkpt>
      <trkpt lat="44.9381030" lon="7.0703010">
        <ele>1587.4</ele>
        <time>2017-07-27T07:56:35Z</time>
      </trkpt>
      <trkpt lat="44.9380980" lon="7.0702250">
        <ele>1588.0</ele>
        <time>2017-07-27T07:56:37Z</time>
      </trkpt>
      <trkpt lat="44.9380490" lon="7.0701380">
        <ele>1588.4</ele>
        <time>2017-07-27T07:56:39Z</time>
      </trkpt>
      <trkpt lat="44.9380090" lon="7.0701030">
        <ele>1588.6</ele>
        <time>2017-07-27T07:56:40Z</time>
      </trkpt>
      <trkpt lat="44.9379250" lon="7.0700480">
        <ele>1589.0</ele>
        <time>2017-07-27T07:56:42Z</time>
      </trkpt>
      <trkpt lat="44.9378390" lon="7.0699930">
        <ele>1589.2</ele>
        <time>2017-07-27T07:56:44Z</time>
      </trkpt>
      <trkpt lat="44.9376790" lon="7.0698950">
        <ele>1589.6</ele>
        <time>2017-07-27T07:56:47Z</time>
      </trkpt>
      <trkpt lat="44.9374880" lon="7.0697640">
        <ele>1589.8</ele>
        <time>2017-07-27T07:56:50Z</time>
      </trkpt>
      <trkpt lat="44.9374490" lon="7.0696880">
        <ele>1589.8</ele>
        <time>2017-07-27T07:56:51Z</time>
      </trkpt>
      <trkpt lat="44.9373250" lon="7.0694220">
        <ele>1589.8</ele>
        <time>2017-07-27T07:56:54Z</time>
      </trkpt>
      <trkpt lat="44.9372690" lon="7.0693470">
        <ele>1589.8</ele>
        <time>2017-07-27T07:56:55Z</time>
      </trkpt>
      <trkpt lat="44.9369370" lon="7.0689510">
        <ele>1589.4</ele>
        <time>2017-07-27T07:57:00Z</time>
      </trkpt>
      <trkpt lat="44.9367080" lon="7.0687350">
        <ele>1589.2</ele>
        <time>2017-07-27T07:57:03Z</time>
      </trkpt>
      <trkpt lat="44.9365550" lon="7.0685870">
        <ele>1588.6</ele>
        <time>2017-07-27T07:57:05Z</time>
      </trkpt>
      <trkpt lat="44.9363990" lon="7.0684090">
        <ele>1587.8</ele>
        <time>2017-07-27T07:57:07Z</time>
      </trkpt>
      <trkpt lat="44.9361750" lon="7.0681320">
        <ele>1586.8</ele>
        <time>2017-07-27T07:57:10Z</time>
      </trkpt>
      <trkpt lat="44.9359420" lon="7.0678500">
        <ele>1585.6</ele>
        <time>2017-07-27T07:57:13Z</time>
      </trkpt>
      <trkpt lat="44.9357790" lon="7.0676770">
        <ele>1584.6</ele>
        <time>2017-07-27T07:57:15Z</time>
      </trkpt>
      <trkpt lat="44.9357030" lon="7.0675830">
        <ele>1584.2</ele>
        <time>2017-07-27T07:57:16Z</time>
      </trkpt>
      <trkpt lat="44.9354730" lon="7.0673080">
        <ele>1583.2</ele>
        <time>2017-07-27T07:57:19Z</time>
      </trkpt>
      <trkpt lat="44.9353100" lon="7.0671210">
        <ele>1582.6</ele>
        <time>2017-07-27T07:57:21Z</time>
      </trkpt>
      <trkpt lat="44.9352240" lon="7.0670350">
        <ele>1582.2</ele>
        <time>2017-07-27T07:57:22Z</time>
      </trkpt>
      <trkpt lat="44.9351370" lon="7.0669390">
        <ele>1581.2</ele>
        <time>2017-07-27T07:57:23Z</time>
      </trkpt>
      <trkpt lat="44.9350620" lon="7.0668340">
        <ele>1580.6</ele>
        <time>2017-07-27T07:57:24Z</time>
      </trkpt>
      <trkpt lat="44.9349980" lon="7.0667110">
        <ele>1579.4</ele>
        <time>2017-07-27T07:57:25Z</time>
      </trkpt>
      <trkpt lat="44.9349330" lon="7.0665850">
        <ele>1578.8</ele>
        <time>2017-07-27T07:57:26Z</time>
      </trkpt>
      <trkpt lat="44.9348880" lon="7.0664520">
        <ele>1578.2</ele>
        <time>2017-07-27T07:57:27Z</time>
      </trkpt>
      <trkpt lat="44.9348230" lon="7.0661140">
        <ele>1577.0</ele>
        <time>2017-07-27T07:57:29Z</time>
      </trkpt>
      <trkpt lat="44.9347910" lon="7.0657430">
        <ele>1575.8</ele>
        <time>2017-07-27T07:57:31Z</time>
      </trkpt>
      <trkpt lat="44.9347650" lon="7.0654100">
        <ele>1574.4</ele>
        <time>2017-07-27T07:57:33Z</time>
      </trkpt>
      <trkpt lat="44.9347630" lon="7.0650760">
        <ele>1573.4</ele>
        <time>2017-07-27T07:57:35Z</time>
      </trkpt>
      <trkpt lat="44.9347700" lon="7.0647440">
        <ele>1571.8</ele>
        <time>2017-07-27T07:57:37Z</time>
      </trkpt>
      <trkpt lat="44.9347720" lon="7.0645730">
        <ele>1571.2</ele>
        <time>2017-07-27T07:57:38Z</time>
      </trkpt>
      <trkpt lat="44.9347730" lon="7.0644050">
        <ele>1570.6</ele>
        <time>2017-07-27T07:57:39Z</time>
      </trkpt>
      <trkpt lat="44.9347900" lon="7.0640550">
        <ele>1568.6</ele>
        <time>2017-07-27T07:57:41Z</time>
      </trkpt>
      <trkpt lat="44.9348080" lon="7.0637210">
        <ele>1567.2</ele>
        <time>2017-07-27T07:57:43Z</time>
      </trkpt>
      <trkpt lat="44.9348120" lon="7.0635660">
        <ele>1566.2</ele>
        <time>2017-07-27T07:57:44Z</time>
      </trkpt>
      <trkpt lat="44.9348010" lon="7.0634110">
        <ele>1565.0</ele>
        <time>2017-07-27T07:57:45Z</time>
      </trkpt>
      <trkpt lat="44.9347690" lon="7.0632480">
        <ele>1563.8</ele>
        <time>2017-07-27T07:57:46Z</time>
      </trkpt>
      <trkpt lat="44.9347340" lon="7.0630910">
        <ele>1563.0</ele>
        <time>2017-07-27T07:57:47Z</time>
      </trkpt>
      <trkpt lat="44.9346990" lon="7.0629260">
        <ele>1562.0</ele>
        <time>2017-07-27T07:57:48Z</time>
      </trkpt>
      <trkpt lat="44.9346630" lon="7.0627590">
        <ele>1559.6</ele>
        <time>2017-07-27T07:57:49Z</time>
      </trkpt>
      <trkpt lat="44.9346260" lon="7.0625920">
        <ele>1558.4</ele>
        <time>2017-07-27T07:57:50Z</time>
      </trkpt>
      <trkpt lat="44.9345660" lon="7.0622440">
        <ele>1556.6</ele>
        <time>2017-07-27T07:57:52Z</time>
      </trkpt>
      <trkpt lat="44.9345290" lon="7.0619010">
        <ele>1554.4</ele>
        <time>2017-07-27T07:57:54Z</time>
      </trkpt>
      <trkpt lat="44.9345060" lon="7.0617580">
        <ele>1553.2</ele>
        <time>2017-07-27T07:57:55Z</time>
      </trkpt>
      <trkpt lat="44.9344680" lon="7.0616270">
        <ele>1552.4</ele>
        <time>2017-07-27T07:57:56Z</time>
      </trkpt>
      <trkpt lat="44.9344310" lon="7.0614890">
        <ele>1551.4</ele>
        <time>2017-07-27T07:57:57Z</time>
      </trkpt>
      <trkpt lat="44.9343420" lon="7.0612190">
        <ele>1549.4</ele>
        <time>2017-07-27T07:57:59Z</time>
      </trkpt>
      <trkpt lat="44.9342510" lon="7.0609530">
        <ele>1547.8</ele>
        <time>2017-07-27T07:58:01Z</time>
      </trkpt>
      <trkpt lat="44.9342030" lon="7.0608190">
        <ele>1546.8</ele>
        <time>2017-07-27T07:58:02Z</time>
      </trkpt>
      <trkpt lat="44.9341550" lon="7.0606900">
        <ele>1545.6</ele>
        <time>2017-07-27T07:58:03Z</time>
      </trkpt>
      <trkpt lat="44.9340560" lon="7.0604410">
        <ele>1544.0</ele>
        <time>2017-07-27T07:58:05Z</time>
      </trkpt>
      <trkpt lat="44.9339910" lon="7.0603180">
        <ele>1542.8</ele>
        <time>2017-07-27T07:58:06Z</time>
      </trkpt>
      <trkpt lat="44.9339240" lon="7.0601990">
        <ele>1541.8</ele>
        <time>2017-07-27T07:58:07Z</time>
      </trkpt>
      <trkpt lat="44.9338520" lon="7.0600920">
        <ele>1541.0</ele>
        <time>2017-07-27T07:58:08Z</time>
      </trkpt>
      <trkpt lat="44.9336830" lon="7.0598720">
        <ele>1539.6</ele>
        <time>2017-07-27T07:58:10Z</time>
      </trkpt>
      <trkpt lat="44.9335220" lon="7.0596460">
        <ele>1537.8</ele>
        <time>2017-07-27T07:58:12Z</time>
      </trkpt>
      <trkpt lat="44.9334680" lon="7.0595040">
        <ele>1535.6</ele>
        <time>2017-07-27T07:58:13Z</time>
      </trkpt>
      <trkpt lat="44.9333660" lon="7.0592150">
        <ele>1533.8</ele>
        <time>2017-07-27T07:58:15Z</time>
      </trkpt>
      <trkpt lat="44.9332900" lon="7.0589340">
        <ele>1532.8</ele>
        <time>2017-07-27T07:58:17Z</time>
      </trkpt>
      <trkpt lat="44.9332380" lon="7.0586280">
        <ele>1531.4</ele>
        <time>2017-07-27T07:58:19Z</time>
      </trkpt>
      <trkpt lat="44.9332340" lon="7.0583200">
        <ele>1529.4</ele>
        <time>2017-07-27T07:58:21Z</time>
      </trkpt>
      <trkpt lat="44.9332090" lon="7.0580330">
        <ele>1527.8</ele>
        <time>2017-07-27T07:58:23Z</time>
      </trkpt>
      <trkpt lat="44.9331640" lon="7.0577330">
        <ele>1526.8</ele>
        <time>2017-07-27T07:58:25Z</time>
      </trkpt>
      <trkpt lat="44.9331430" lon="7.0575730">
        <ele>1525.8</ele>
        <time>2017-07-27T07:58:26Z</time>
      </trkpt>
      <trkpt lat="44.9331630" lon="7.0574070">
        <ele>1524.4</ele>
        <time>2017-07-27T07:58:27Z</time>
      </trkpt>
      <trkpt lat="44.9331790" lon="7.0572530">
        <ele>1523.4</ele>
        <time>2017-07-27T07:58:28Z</time>
      </trkpt>
      <trkpt lat="44.9332290" lon="7.0569300">
        <ele>1521.6</ele>
        <time>2017-07-27T07:58:30Z</time>
      </trkpt>
      <trkpt lat="44.9333090" lon="7.0565960">
        <ele>1519.8</ele>
        <time>2017-07-27T07:58:32Z</time>
      </trkpt>
      <trkpt lat="44.9333550" lon="7.0564320">
        <ele>1518.8</ele>
        <time>2017-07-27T07:58:33Z</time>
      </trkpt>
      <trkpt lat="44.9334310" lon="7.0561270">
        <ele>1516.8</ele>
        <time>2017-07-27T07:58:35Z</time>
      </trkpt>
      <trkpt lat="44.9334360" lon="7.0560030">
        <ele>1516.2</ele>
        <time>2017-07-27T07:58:36Z</time>
      </trkpt>
      <trkpt lat="44.9334390" lon="7.0558910">
        <ele>1514.4</ele>
        <time>2017-07-27T07:58:37Z</time>
      </trkpt>
      <trkpt lat="44.9334310" lon="7.0558070">
        <ele>1513.2</ele>
        <time>2017-07-27T07:58:38Z</time>
      </trkpt>
      <trkpt lat="44.9334460" lon="7.0557330">
        <ele>1511.8</ele>
        <time>2017-07-27T07:58:39Z</time>
      </trkpt>
      <trkpt lat="44.9334880" lon="7.0557020">
        <ele>1510.8</ele>
        <time>2017-07-27T07:58:40Z</time>
      </trkpt>
      <trkpt lat="44.9335280" lon="7.0557000">
        <ele>1509.8</ele>
        <time>2017-07-27T07:58:41Z</time>
      </trkpt>
      <trkpt lat="44.9335630" lon="7.0557090">
        <ele>1508.8</ele>
        <time>2017-07-27T07:58:42Z</time>
      </trkpt>
      <trkpt lat="44.9335930" lon="7.0557260">
        <ele>1508.0</ele>
        <time>2017-07-27T07:58:43Z</time>
      </trkpt>
      <trkpt lat="44.9336300" lon="7.0557760">
        <ele>1507.0</ele>
        <time>2017-07-27T07:58:44Z</time>
      </trkpt>
      <trkpt lat="44.9336690" lon="7.0560650">
        <ele>1505.2</ele>
        <time>2017-07-27T07:58:46Z</time>
      </trkpt>
      <trkpt lat="44.9337120" lon="7.0563980">
        <ele>1503.8</ele>
        <time>2017-07-27T07:58:48Z</time>
      </trkpt>
      <trkpt lat="44.9337360" lon="7.0567120">
        <ele>1501.8</ele>
        <time>2017-07-27T07:58:50Z</time>
      </trkpt>
      <trkpt lat="44.9337430" lon="7.0570430">
        <ele>1500.0</ele>
        <time>2017-07-27T07:58:52Z</time>
      </trkpt>
      <trkpt lat="44.9337530" lon="7.0573540">
        <ele>1498.4</ele>
        <time>2017-07-27T07:58:54Z</time>
      </trkpt>
      <trkpt lat="44.9337670" lon="7.0576690">
        <ele>1497.0</ele>
        <time>2017-07-27T07:58:56Z</time>
      </trkpt>
      <trkpt lat="44.9338120" lon="7.0577660">
        <ele>1496.4</ele>
        <time>2017-07-27T07:58:57Z</time>
      </trkpt>
      <trkpt lat="44.9338640" lon="7.0578540">
        <ele>1495.8</ele>
        <time>2017-07-27T07:58:58Z</time>
      </trkpt>
      <trkpt lat="44.9339910" lon="7.0580410">
        <ele>1495.2</ele>
        <time>2017-07-27T07:59:00Z</time>
      </trkpt>
      <trkpt lat="44.9340550" lon="7.0581410">
        <ele>1494.2</ele>
        <time>2017-07-27T07:59:01Z</time>
      </trkpt>
      <trkpt lat="44.9341890" lon="7.0583240">
        <ele>1493.6</ele>
        <time>2017-07-27T07:59:03Z</time>
      </trkpt>
      <trkpt lat="44.9342620" lon="7.0584140">
        <ele>1493.0</ele>
        <time>2017-07-27T07:59:04Z</time>
      </trkpt>
      <trkpt lat="44.9343370" lon="7.0585070">
        <ele>1492.6</ele>
        <time>2017-07-27T07:59:05Z</time>
      </trkpt>
      <trkpt lat="44.9344940" lon="7.0587210">
        <ele>1491.4</ele>
        <time>2017-07-27T07:59:07Z</time>
      </trkpt>
      <trkpt lat="44.9346590" lon="7.0589480">
        <ele>1489.8</ele>
        <time>2017-07-27T07:59:09Z</time>
      </trkpt>
      <trkpt lat="44.9347390" lon="7.0590760">
        <ele>1489.2</ele>
        <time>2017-07-27T07:59:10Z</time>
      </trkpt>
      <trkpt lat="44.9348140" lon="7.0592000">
        <ele>1488.6</ele>
        <time>2017-07-27T07:59:11Z</time>
      </trkpt>
      <trkpt lat="44.9349700" lon="7.0594400">
        <ele>1487.0</ele>
        <time>2017-07-27T07:59:13Z</time>
      </trkpt>
      <trkpt lat="44.9351310" lon="7.0596440">
        <ele>1486.0</ele>
        <time>2017-07-27T07:59:15Z</time>
      </trkpt>
      <trkpt lat="44.9352320" lon="7.0597160">
        <ele>1485.4</ele>
        <time>2017-07-27T07:59:16Z</time>
      </trkpt>
      <trkpt lat="44.9354200" lon="7.0598350">
        <ele>1484.0</ele>
        <time>2017-07-27T07:59:18Z</time>
      </trkpt>
      <trkpt lat="44.9356100" lon="7.0599140">
        <ele>1482.8</ele>
        <time>2017-07-27T07:59:20Z</time>
      </trkpt>
      <trkpt lat="44.9358180" lon="7.0599350">
        <ele>1481.4</ele>
        <time>2017-07-27T07:59:22Z</time>
      </trkpt>
      <trkpt lat="44.9359320" lon="7.0599160">
        <ele>1480.8</ele>
        <time>2017-07-27T07:59:23Z</time>
      </trkpt>
      <trkpt lat="44.9360460" lon="7.0599050">
        <ele>1480.2</ele>
        <time>2017-07-27T07:59:24Z</time>
      </trkpt>
      <trkpt lat="44.9361480" lon="7.0598900">
        <ele>1479.0</ele>
        <time>2017-07-27T07:59:25Z</time>
      </trkpt>
      <trkpt lat="44.9362550" lon="7.0598490">
        <ele>1478.4</ele>
        <time>2017-07-27T07:59:26Z</time>
      </trkpt>
      <trkpt lat="44.9363590" lon="7.0598050">
        <ele>1477.4</ele>
        <time>2017-07-27T07:59:27Z</time>
      </trkpt>
      <trkpt lat="44.9364580" lon="7.0597520">
        <ele>1476.6</ele>
        <time>2017-07-27T07:59:28Z</time>
      </trkpt>
      <trkpt lat="44.9365560" lon="7.0596990">
        <ele>1476.2</ele>
        <time>2017-07-27T07:59:29Z</time>
      </trkpt>
      <trkpt lat="44.9367680" lon="7.0596190">
        <ele>1475.0</ele>
        <time>2017-07-27T07:59:31Z</time>
      </trkpt>
      <trkpt lat="44.9368620" lon="7.0595840">
        <ele>1474.0</ele>
        <time>2017-07-27T07:59:32Z</time>
      </trkpt>
      <trkpt lat="44.9369620" lon="7.0595650">
        <ele>1473.2</ele>
        <time>2017-07-27T07:59:33Z</time>
      </trkpt>
      <trkpt lat="44.9370630" lon="7.0595710">
        <ele>1472.6</ele>
        <time>2017-07-27T07:59:34Z</time>
      </trkpt>
      <trkpt lat="44.9371600" lon="7.0596020">
        <ele>1472.2</ele>
        <time>2017-07-27T07:59:35Z</time>
      </trkpt>
      <trkpt lat="44.9372480" lon="7.0596550">
        <ele>1471.0</ele>
        <time>2017-07-27T07:59:36Z</time>
      </trkpt>
      <trkpt lat="44.9373240" lon="7.0597160">
        <ele>1470.0</ele>
        <time>2017-07-27T07:59:37Z</time>
      </trkpt>
      <trkpt lat="44.9373730" lon="7.0597720">
        <ele>1468.8</ele>
        <time>2017-07-27T07:59:38Z</time>
      </trkpt>
      <trkpt lat="44.9374540" lon="7.0597700">
        <ele>1466.6</ele>
        <time>2017-07-27T07:59:40Z</time>
      </trkpt>
      <trkpt lat="44.9374550" lon="7.0596780">
        <ele>1465.6</ele>
        <time>2017-07-27T07:59:41Z</time>
      </trkpt>
      <trkpt lat="44.9374500" lon="7.0595920">
        <ele>1464.8</ele>
        <time>2017-07-27T07:59:42Z</time>
      </trkpt>
      <trkpt lat="44.9374270" lon="7.0595060">
        <ele>1463.8</ele>
        <time>2017-07-27T07:59:43Z</time>
      </trkpt>
      <trkpt lat="44.9373630" lon="7.0593320">
        <ele>1462.2</ele>
        <time>2017-07-27T07:59:45Z</time>
      </trkpt>
      <trkpt lat="44.9372720" lon="7.0591440">
        <ele>1460.8</ele>
        <time>2017-07-27T07:59:47Z</time>
      </trkpt>
      <trkpt lat="44.9372210" lon="7.0590740">
        <ele>1460.2</ele>
        <time>2017-07-27T07:59:48Z</time>
      </trkpt>
      <trkpt lat="44.9371590" lon="7.0589830">
        <ele>1459.0</ele>
        <time>2017-07-27T07:59:49Z</time>
      </trkpt>
      <trkpt lat="44.9370280" lon="7.0587930">
        <ele>1457.4</ele>
        <time>2017-07-27T07:59:51Z</time>
      </trkpt>
      <trkpt lat="44.9368910" lon="7.0585990">
        <ele>1456.0</ele>
        <time>2017-07-27T07:59:53Z</time>
      </trkpt>
      <trkpt lat="44.9368110" lon="7.0585050">
        <ele>1455.2</ele>
        <time>2017-07-27T07:59:54Z</time>
      </trkpt>
      <trkpt lat="44.9367250" lon="7.0584100">
        <ele>1454.4</ele>
        <time>2017-07-27T07:59:55Z</time>
      </trkpt>
      <trkpt lat="44.9366350" lon="7.0583180">
        <ele>1453.2</ele>
        <time>2017-07-27T07:59:56Z</time>
      </trkpt>
      <trkpt lat="44.9365380" lon="7.0582330">
        <ele>1452.0</ele>
        <time>2017-07-27T07:59:57Z</time>
      </trkpt>
      <trkpt lat="44.9364310" lon="7.0581540">
        <ele>1451.0</ele>
        <time>2017-07-27T07:59:58Z</time>
      </trkpt>
      <trkpt lat="44.9363190" lon="7.0580880">
        <ele>1449.6</ele>
        <time>2017-07-27T07:59:59Z</time>
      </trkpt>
      <trkpt lat="44.9361360" lon="7.0579730">
        <ele>1447.2</ele>
        <time>2017-07-27T08:00:01Z</time>
      </trkpt>
      <trkpt lat="44.9360640" lon="7.0579320">
        <ele>1446.2</ele>
        <time>2017-07-27T08:00:02Z</time>
      </trkpt>
      <trkpt lat="44.9360540" lon="7.0579040">
        <ele>1444.8</ele>
        <time>2017-07-27T08:00:03Z</time>
      </trkpt>
      <trkpt lat="44.9360730" lon="7.0578600">
        <ele>1443.8</ele>
        <time>2017-07-27T08:00:04Z</time>
      </trkpt>
      <trkpt lat="44.9360850" lon="7.0578390">
        <ele>1442.6</ele>
        <time>2017-07-27T08:00:05Z</time>
      </trkpt>
      <trkpt lat="44.9361110" lon="7.0578340">
        <ele>1441.6</ele>
        <time>2017-07-27T08:00:06Z</time>
      </trkpt>
      <trkpt lat="44.9361420" lon="7.0578400">
        <ele>1440.6</ele>
        <time>2017-07-27T08:00:07Z</time>
      </trkpt>
      <trkpt lat="44.9361730" lon="7.0578490">
        <ele>1439.4</ele>
        <time>2017-07-27T08:00:08Z</time>
      </trkpt>
      <trkpt lat="44.9362530" lon="7.0578710">
        <ele>1437.8</ele>
        <time>2017-07-27T08:00:10Z</time>
      </trkpt>
      <trkpt lat="44.9362980" lon="7.0578720">
        <ele>1436.8</ele>
        <time>2017-07-27T08:00:11Z</time>
      </trkpt>
      <trkpt lat="44.9363600" lon="7.0578540">
        <ele>1435.6</ele>
        <time>2017-07-27T08:00:12Z</time>
      </trkpt>
      <trkpt lat="44.9364340" lon="7.0578250">
        <ele>1433.6</ele>
        <time>2017-07-27T08:00:13Z</time>
      </trkpt>
      <trkpt lat="44.9366230" lon="7.0577860">
        <ele>1431.8</ele>
        <time>2017-07-27T08:00:15Z</time>
      </trkpt>
      <trkpt lat="44.9368390" lon="7.0577380">
        <ele>1430.4</ele>
        <time>2017-07-27T08:00:17Z</time>
      </trkpt>
      <trkpt lat="44.9369520" lon="7.0577370">
        <ele>1429.6</ele>
        <time>2017-07-27T08:00:18Z</time>
      </trkpt>
      <trkpt lat="44.9370470" lon="7.0577400">
        <ele>1429.0</ele>
        <time>2017-07-27T08:00:19Z</time>
      </trkpt>
      <trkpt lat="44.9373430" lon="7.0577860">
        <ele>1427.4</ele>
        <time>2017-07-27T08:00:22Z</time>
      </trkpt>
      <trkpt lat="44.9375460" lon="7.0578110">
        <ele>1425.4</ele>
        <time>2017-07-27T08:00:24Z</time>
      </trkpt>
      <trkpt lat="44.9377530" lon="7.0578250">
        <ele>1424.2</ele>
        <time>2017-07-27T08:00:26Z</time>
      </trkpt>
      <trkpt lat="44.9379500" lon="7.0578470">
        <ele>1422.8</ele>
        <time>2017-07-27T08:00:28Z</time>
      </trkpt>
      <trkpt lat="44.9380410" lon="7.0578770">
        <ele>1421.8</ele>
        <time>2017-07-27T08:00:29Z</time>
      </trkpt>
      <trkpt lat="44.9382180" lon="7.0579780">
        <ele>1420.4</ele>
        <time>2017-07-27T08:00:31Z</time>
      </trkpt>
      <trkpt lat="44.9383770" lon="7.0581050">
        <ele>1419.0</ele>
        <time>2017-07-27T08:00:33Z</time>
      </trkpt>
      <trkpt lat="44.9384410" lon="7.0581790">
        <ele>1418.2</ele>
        <time>2017-07-27T08:00:34Z</time>
      </trkpt>
      <trkpt lat="44.9384950" lon="7.0582430">
        <ele>1417.0</ele>
        <time>2017-07-27T08:00:35Z</time>
      </trkpt>
      <trkpt lat="44.9385930" lon="7.0583030">
        <ele>1414.0</ele>
        <time>2017-07-27T08:00:37Z</time>
      </trkpt>
      <trkpt lat="44.9386470" lon="7.0583090">
        <ele>1413.0</ele>
        <time>2017-07-27T08:00:38Z</time>
      </trkpt>
      <trkpt lat="44.9386810" lon="7.0582900">
        <ele>1412.2</ele>
        <time>2017-07-27T08:00:39Z</time>
      </trkpt>
      <trkpt lat="44.9386920" lon="7.0582540">
        <ele>1411.0</ele>
        <time>2017-07-27T08:00:40Z</time>
      </trkpt>
      <trkpt lat="44.9386850" lon="7.0581110">
        <ele>1409.4</ele>
        <time>2017-07-27T08:00:42Z</time>
      </trkpt>
      <trkpt lat="44.9386630" lon="7.0579410">
        <ele>1408.0</ele>
        <time>2017-07-27T08:00:44Z</time>
      </trkpt>
      <trkpt lat="44.9385970" lon="7.0578270">
        <ele>1407.6</ele>
        <time>2017-07-27T08:00:45Z</time>
      </trkpt>
      <trkpt lat="44.9385480" lon="7.0577150">
        <ele>1406.8</ele>
        <time>2017-07-27T08:00:46Z</time>
      </trkpt>
      <trkpt lat="44.9384860" lon="7.0576000">
        <ele>1406.0</ele>
        <time>2017-07-27T08:00:47Z</time>
      </trkpt>
      <trkpt lat="44.9384320" lon="7.0574930">
        <ele>1405.0</ele>
        <time>2017-07-27T08:00:48Z</time>
      </trkpt>
      <trkpt lat="44.9383070" lon="7.0572790">
        <ele>1403.6</ele>
        <time>2017-07-27T08:00:50Z</time>
      </trkpt>
      <trkpt lat="44.9381770" lon="7.0571350">
        <ele>1402.4</ele>
        <time>2017-07-27T08:00:52Z</time>
      </trkpt>
      <trkpt lat="44.9380440" lon="7.0570090">
        <ele>1401.0</ele>
        <time>2017-07-27T08:00:54Z</time>
      </trkpt>
      <trkpt lat="44.9378580" lon="7.0567520">
        <ele>1399.6</ele>
        <time>2017-07-27T08:00:57Z</time>
      </trkpt>
      <trkpt lat="44.9377220" lon="7.0565670">
        <ele>1398.6</ele>
        <time>2017-07-27T08:00:59Z</time>
      </trkpt>
      <trkpt lat="44.9375730" lon="7.0564000">
        <ele>1396.4</ele>
        <time>2017-07-27T08:01:01Z</time>
      </trkpt>
      <trkpt lat="44.9374220" lon="7.0562920">
        <ele>1394.6</ele>
        <time>2017-07-27T08:01:03Z</time>
      </trkpt>
      <trkpt lat="44.9372630" lon="7.0561890">
        <ele>1393.2</ele>
        <time>2017-07-27T08:01:05Z</time>
      </trkpt>
      <trkpt lat="44.9370780" lon="7.0560830">
        <ele>1391.2</ele>
        <time>2017-07-27T08:01:07Z</time>
      </trkpt>
      <trkpt lat="44.9369900" lon="7.0560210">
        <ele>1389.4</ele>
        <time>2017-07-27T08:01:08Z</time>
      </trkpt>
      <trkpt lat="44.9369230" lon="7.0559500">
        <ele>1388.4</ele>
        <time>2017-07-27T08:01:09Z</time>
      </trkpt>
      <trkpt lat="44.9368820" lon="7.0558800">
        <ele>1387.2</ele>
        <time>2017-07-27T08:01:10Z</time>
      </trkpt>
      <trkpt lat="44.9368750" lon="7.0558110">
        <ele>1386.6</ele>
        <time>2017-07-27T08:01:11Z</time>
      </trkpt>
      <trkpt lat="44.9369010" lon="7.0557520">
        <ele>1385.6</ele>
        <time>2017-07-27T08:01:12Z</time>
      </trkpt>
      <trkpt lat="44.9369480" lon="7.0557220">
        <ele>1384.6</ele>
        <time>2017-07-27T08:01:13Z</time>
      </trkpt>
      <trkpt lat="44.9369940" lon="7.0557150">
        <ele>1383.8</ele>
        <time>2017-07-27T08:01:14Z</time>
      </trkpt>
      <trkpt lat="44.9370990" lon="7.0557490">
        <ele>1381.8</ele>
        <time>2017-07-27T08:01:16Z</time>
      </trkpt>
      <trkpt lat="44.9372360" lon="7.0557410">
        <ele>1380.0</ele>
        <time>2017-07-27T08:01:18Z</time>
      </trkpt>
      <trkpt lat="44.9373100" lon="7.0557140">
        <ele>1379.6</ele>
        <time>2017-07-27T08:01:19Z</time>
      </trkpt>
      <trkpt lat="44.9373950" lon="7.0556760">
        <ele>1378.8</ele>
        <time>2017-07-27T08:01:20Z</time>
      </trkpt>
      <trkpt lat="44.9375800" lon="7.0556090">
        <ele>1377.0</ele>
        <time>2017-07-27T08:01:22Z</time>
      </trkpt>
      <trkpt lat="44.9376740" lon="7.0555960">
        <ele>1376.0</ele>
        <time>2017-07-27T08:01:23Z</time>
      </trkpt>
      <trkpt lat="44.9377700" lon="7.0555970">
        <ele>1375.2</ele>
        <time>2017-07-27T08:01:24Z</time>
      </trkpt>
      <trkpt lat="44.9378640" lon="7.0556020">
        <ele>1373.8</ele>
        <time>2017-07-27T08:01:25Z</time>
      </trkpt>
      <trkpt lat="44.9380580" lon="7.0556080">
        <ele>1372.6</ele>
        <time>2017-07-27T08:01:27Z</time>
      </trkpt>
      <trkpt lat="44.9382570" lon="7.0556170">
        <ele>1371.2</ele>
        <time>2017-07-27T08:01:29Z</time>
      </trkpt>
      <trkpt lat="44.9384430" lon="7.0556490">
        <ele>1369.2</ele>
        <time>2017-07-27T08:01:31Z</time>
      </trkpt>
      <trkpt lat="44.9385300" lon="7.0556640">
        <ele>1368.4</ele>
        <time>2017-07-27T08:01:32Z</time>
      </trkpt>
      <trkpt lat="44.9385990" lon="7.0556760">
        <ele>1367.8</ele>
        <time>2017-07-27T08:01:33Z</time>
      </trkpt>
      <trkpt lat="44.9386940" lon="7.0556850">
        <ele>1366.0</ele>
        <time>2017-07-27T08:01:35Z</time>
      </trkpt>
      <trkpt lat="44.9387260" lon="7.0556540">
        <ele>1364.8</ele>
        <time>2017-07-27T08:01:36Z</time>
      </trkpt>
      <trkpt lat="44.9387390" lon="7.0556110">
        <ele>1363.6</ele>
        <time>2017-07-27T08:01:37Z</time>
      </trkpt>
      <trkpt lat="44.9386930" lon="7.0555220">
        <ele>1361.8</ele>
        <time>2017-07-27T08:01:39Z</time>
      </trkpt>
      <trkpt lat="44.9386040" lon="7.0554630">
        <ele>1360.4</ele>
        <time>2017-07-27T08:01:41Z</time>
      </trkpt>
      <trkpt lat="44.9385460" lon="7.0554260">
        <ele>1359.6</ele>
        <time>2017-07-27T08:01:42Z</time>
      </trkpt>
      <trkpt lat="44.9384800" lon="7.0553720">
        <ele>1358.6</ele>
        <time>2017-07-27T08:01:43Z</time>
      </trkpt>
      <trkpt lat="44.9382540" lon="7.0554660">
        <ele>1357.8</ele>
        <time>2017-07-27T08:01:44Z</time>
      </trkpt>
      <trkpt lat="44.9380280" lon="7.0555600">
        <ele>1357.0</ele>
        <time>2017-07-27T08:01:45Z</time>
      </trkpt>
      <trkpt lat="44.9377580" lon="7.0555020">
        <ele>1355.2</ele>
        <time>2017-07-27T08:01:47Z</time>
      </trkpt>
      <trkpt lat="44.9375370" lon="7.0553660">
        <ele>1352.6</ele>
        <time>2017-07-27T08:01:49Z</time>
      </trkpt>
      <trkpt lat="44.9374330" lon="7.0552670">
        <ele>1351.6</ele>
        <time>2017-07-27T08:01:50Z</time>
      </trkpt>
      <trkpt lat="44.9373300" lon="7.0551610">
        <ele>1350.8</ele>
        <time>2017-07-27T08:01:51Z</time>
      </trkpt>
      <trkpt lat="44.9371090" lon="7.0549860">
        <ele>1348.8</ele>
        <time>2017-07-27T08:01:53Z</time>
      </trkpt>
      <trkpt lat="44.9369990" lon="7.0549040">
        <ele>1347.8</ele>
        <time>2017-07-27T08:01:54Z</time>
      </trkpt>
      <trkpt lat="44.9368920" lon="7.0548360">
        <ele>1346.6</ele>
        <time>2017-07-27T08:01:55Z</time>
      </trkpt>
      <trkpt lat="44.9366860" lon="7.0547880">
        <ele>1344.2</ele>
        <time>2017-07-27T08:01:57Z</time>
      </trkpt>
      <trkpt lat="44.9365990" lon="7.0547320">
        <ele>1343.0</ele>
        <time>2017-07-27T08:01:58Z</time>
      </trkpt>
      <trkpt lat="44.9365260" lon="7.0546630">
        <ele>1341.6</ele>
        <time>2017-07-27T08:01:59Z</time>
      </trkpt>
      <trkpt lat="44.9364670" lon="7.0545820">
        <ele>1340.4</ele>
        <time>2017-07-27T08:02:00Z</time>
      </trkpt>
      <trkpt lat="44.9364150" lon="7.0544990">
        <ele>1339.4</ele>
        <time>2017-07-27T08:02:01Z</time>
      </trkpt>
      <trkpt lat="44.9363650" lon="7.0544200">
        <ele>1338.4</ele>
        <time>2017-07-27T08:02:02Z</time>
      </trkpt>
      <trkpt lat="44.9363120" lon="7.0543370">
        <ele>1337.0</ele>
        <time>2017-07-27T08:02:03Z</time>
      </trkpt>
      <trkpt lat="44.9362120" lon="7.0541710">
        <ele>1335.6</ele>
        <time>2017-07-27T08:02:05Z</time>
      </trkpt>
      <trkpt lat="44.9361730" lon="7.0540870">
        <ele>1334.8</ele>
        <time>2017-07-27T08:02:06Z</time>
      </trkpt>
      <trkpt lat="44.9361540" lon="7.0540020">
        <ele>1333.6</ele>
        <time>2017-07-27T08:02:07Z</time>
      </trkpt>
      <trkpt lat="44.9361520" lon="7.0539200">
        <ele>1332.2</ele>
        <time>2017-07-27T08:02:08Z</time>
      </trkpt>
      <trkpt lat="44.9361690" lon="7.0538480">
        <ele>1331.2</ele>
        <time>2017-07-27T08:02:09Z</time>
      </trkpt>
      <trkpt lat="44.9363090" lon="7.0537270">
        <ele>1329.6</ele>
        <time>2017-07-27T08:02:11Z</time>
      </trkpt>
      <trkpt lat="44.9364080" lon="7.0536640">
        <ele>1328.6</ele>
        <time>2017-07-27T08:02:12Z</time>
      </trkpt>
      <trkpt lat="44.9364980" lon="7.0536300">
        <ele>1327.6</ele>
        <time>2017-07-27T08:02:13Z</time>
      </trkpt>
      <trkpt lat="44.9365740" lon="7.0536370">
        <ele>1325.4</ele>
        <time>2017-07-27T08:02:14Z</time>
      </trkpt>
      <trkpt lat="44.9366750" lon="7.0536510">
        <ele>1324.4</ele>
        <time>2017-07-27T08:02:15Z</time>
      </trkpt>
      <trkpt lat="44.9368550" lon="7.0537110">
        <ele>1322.4</ele>
        <time>2017-07-27T08:02:17Z</time>
      </trkpt>
      <trkpt lat="44.9368900" lon="7.0538590">
        <ele>1320.8</ele>
        <time>2017-07-27T08:02:19Z</time>
      </trkpt>
      <trkpt lat="44.9368660" lon="7.0539840">
        <ele>1320.2</ele>
        <time>2017-07-27T08:02:20Z</time>
      </trkpt>
      <trkpt lat="44.9368390" lon="7.0540920">
        <ele>1319.4</ele>
        <time>2017-07-27T08:02:21Z</time>
      </trkpt>
      <trkpt lat="44.9368000" lon="7.0542040">
        <ele>1318.6</ele>
        <time>2017-07-27T08:02:22Z</time>
      </trkpt>
      <trkpt lat="44.9367630" lon="7.0543150">
        <ele>1318.0</ele>
        <time>2017-07-27T08:02:23Z</time>
      </trkpt>
      <trkpt lat="44.9367000" lon="7.0544850">
        <ele>1316.8</ele>
        <time>2017-07-27T08:02:25Z</time>
      </trkpt>
      <trkpt lat="44.9366780" lon="7.0545500">
        <ele>1316.0</ele>
        <time>2017-07-27T08:02:26Z</time>
      </trkpt>
      <trkpt lat="44.9366660" lon="7.0545980">
        <ele>1315.4</ele>
        <time>2017-07-27T08:02:27Z</time>
      </trkpt>
      <trkpt lat="44.9366730" lon="7.0546310">
        <ele>1314.8</ele>
        <time>2017-07-27T08:02:28Z</time>
      </trkpt>
      <trkpt lat="44.9367010" lon="7.0546530">
        <ele>1314.0</ele>
        <time>2017-07-27T08:02:29Z</time>
      </trkpt>
      <trkpt lat="44.9368050" lon="7.0546560">
        <ele>1312.8</ele>
        <time>2017-07-27T08:02:31Z</time>
      </trkpt>
      <trkpt lat="44.9368700" lon="7.0546490">
        <ele>1312.2</ele>
        <time>2017-07-27T08:02:32Z</time>
      </trkpt>
      <trkpt lat="44.9369390" lon="7.0546480">
        <ele>1311.4</ele>
        <time>2017-07-27T08:02:33Z</time>
      </trkpt>
      <trkpt lat="44.9370940" lon="7.0546710">
        <ele>1310.0</ele>
        <time>2017-07-27T08:02:35Z</time>
      </trkpt>
      <trkpt lat="44.9372000" lon="7.0546990">
        <ele>1309.4</ele>
        <time>2017-07-27T08:02:36Z</time>
      </trkpt>
      <trkpt lat="44.9373000" lon="7.0547250">
        <ele>1308.8</ele>
        <time>2017-07-27T08:02:37Z</time>
      </trkpt>
      <trkpt lat="44.9374030" lon="7.0547510">
        <ele>1307.6</ele>
        <time>2017-07-27T08:02:38Z</time>
      </trkpt>
      <trkpt lat="44.9376860" lon="7.0547880">
        <ele>1305.8</ele>
        <time>2017-07-27T08:02:40Z</time>
      </trkpt>
      <trkpt lat="44.9379890" lon="7.0548050">
        <ele>1304.4</ele>
        <time>2017-07-27T08:02:42Z</time>
      </trkpt>
      <trkpt lat="44.9382790" lon="7.0548140">
        <ele>1303.0</ele>
        <time>2017-07-27T08:02:44Z</time>
      </trkpt>
      <trkpt lat="44.9384340" lon="7.0548300">
        <ele>1301.8</ele>
        <time>2017-07-27T08:02:45Z</time>
      </trkpt>
      <trkpt lat="44.9387230" lon="7.0548800">
        <ele>1300.4</ele>
        <time>2017-07-27T08:02:47Z</time>
      </trkpt>
      <trkpt lat="44.9388290" lon="7.0548960">
        <ele>1299.6</ele>
        <time>2017-07-27T08:02:48Z</time>
      </trkpt>
      <trkpt lat="44.9389480" lon="7.0549050">
        <ele>1298.8</ele>
        <time>2017-07-27T08:02:49Z</time>
      </trkpt>
      <trkpt lat="44.9391510" lon="7.0549690">
        <ele>1296.8</ele>
        <time>2017-07-27T08:02:51Z</time>
      </trkpt>
      <trkpt lat="44.9392740" lon="7.0550490">
        <ele>1295.2</ele>
        <time>2017-07-27T08:02:53Z</time>
      </trkpt>
      <trkpt lat="44.9393320" lon="7.0550770">
        <ele>1294.6</ele>
        <time>2017-07-27T08:02:54Z</time>
      </trkpt>
      <trkpt lat="44.9393900" lon="7.0550880">
        <ele>1293.6</ele>
        <time>2017-07-27T08:02:55Z</time>
      </trkpt>
      <trkpt lat="44.9394240" lon="7.0550420">
        <ele>1291.6</ele>
        <time>2017-07-27T08:02:57Z</time>
      </trkpt>
      <trkpt lat="44.9393620" lon="7.0550050">
        <ele>1290.2</ele>
        <time>2017-07-27T08:02:59Z</time>
      </trkpt>
      <trkpt lat="44.9393130" lon="7.0549760">
        <ele>1289.4</ele>
        <time>2017-07-27T08:03:00Z</time>
      </trkpt>
      <trkpt lat="44.9392590" lon="7.0549440">
        <ele>1288.8</ele>
        <time>2017-07-27T08:03:01Z</time>
      </trkpt>
      <trkpt lat="44.9391920" lon="7.0549100">
        <ele>1287.6</ele>
        <time>2017-07-27T08:03:02Z</time>
      </trkpt>
      <trkpt lat="44.9390350" lon="7.0548310">
        <ele>1286.2</ele>
        <time>2017-07-27T08:03:04Z</time>
      </trkpt>
      <trkpt lat="44.9388770" lon="7.0547370">
        <ele>1284.8</ele>
        <time>2017-07-27T08:03:06Z</time>
      </trkpt>
      <trkpt lat="44.9386120" lon="7.0545660">
        <ele>1283.4</ele>
        <time>2017-07-27T08:03:09Z</time>
      </trkpt>
      <trkpt lat="44.9384360" lon="7.0544620">
        <ele>1281.8</ele>
        <time>2017-07-27T08:03:11Z</time>
      </trkpt>
      <trkpt lat="44.9383030" lon="7.0543550">
        <ele>1280.6</ele>
        <time>2017-07-27T08:03:13Z</time>
      </trkpt>
      <trkpt lat="44.9382370" lon="7.0542460">
        <ele>1279.4</ele>
        <time>2017-07-27T08:03:15Z</time>
      </trkpt>
      <trkpt lat="44.9382290" lon="7.0541990">
        <ele>1278.8</ele>
        <time>2017-07-27T08:03:16Z</time>
      </trkpt>
      <trkpt lat="44.9383040" lon="7.0540810">
        <ele>1278.0</ele>
        <time>2017-07-27T08:03:18Z</time>
      </trkpt>
      <trkpt lat="44.9385030" lon="7.0540260">
        <ele>1276.6</ele>
        <time>2017-07-27T08:03:21Z</time>
      </trkpt>
      <trkpt lat="44.9385820" lon="7.0540270">
        <ele>1276.2</ele>
        <time>2017-07-27T08:03:22Z</time>
      </trkpt>
      <trkpt lat="44.9387430" lon="7.0540280">
        <ele>1275.2</ele>
        <time>2017-07-27T08:03:24Z</time>
      </trkpt>
      <trkpt lat="44.9389100" lon="7.0540340">
        <ele>1273.0</ele>
        <time>2017-07-27T08:03:26Z</time>
      </trkpt>
      <trkpt lat="44.9389850" lon="7.0540240">
        <ele>1272.0</ele>
        <time>2017-07-27T08:03:27Z</time>
      </trkpt>
      <trkpt lat="44.9390340" lon="7.0540170">
        <ele>1271.2</ele>
        <time>2017-07-27T08:03:28Z</time>
      </trkpt>
      <trkpt lat="44.9390820" lon="7.0540290">
        <ele>1270.0</ele>
        <time>2017-07-27T08:03:29Z</time>
      </trkpt>
      <trkpt lat="44.9391300" lon="7.0540270">
        <ele>1269.0</ele>
        <time>2017-07-27T08:03:30Z</time>
      </trkpt>
      <trkpt lat="44.9391490" lon="7.0539820">
        <ele>1268.0</ele>
        <time>2017-07-27T08:03:31Z</time>
      </trkpt>
      <trkpt lat="44.9391210" lon="7.0539040">
        <ele>1267.0</ele>
        <time>2017-07-27T08:03:32Z</time>
      </trkpt>
      <trkpt lat="44.9390850" lon="7.0538250">
        <ele>1266.2</ele>
        <time>2017-07-27T08:03:33Z</time>
      </trkpt>
      <trkpt lat="44.9390210" lon="7.0536480">
        <ele>1264.4</ele>
        <time>2017-07-27T08:03:35Z</time>
      </trkpt>
      <trkpt lat="44.9390140" lon="7.0535570">
        <ele>1263.8</ele>
        <time>2017-07-27T08:03:36Z</time>
      </trkpt>
      <trkpt lat="44.9390190" lon="7.0534650">
        <ele>1263.0</ele>
        <time>2017-07-27T08:03:37Z</time>
      </trkpt>
      <trkpt lat="44.9390620" lon="7.0533460">
        <ele>1261.4</ele>
        <time>2017-07-27T08:03:39Z</time>
      </trkpt>
      <trkpt lat="44.9391560" lon="7.0533420">
        <ele>1259.8</ele>
        <time>2017-07-27T08:03:41Z</time>
      </trkpt>
      <trkpt lat="44.9392160" lon="7.0533710">
        <ele>1258.8</ele>
        <time>2017-07-27T08:03:42Z</time>
      </trkpt>
      <trkpt lat="44.9392710" lon="7.0534140">
        <ele>1258.0</ele>
        <time>2017-07-27T08:03:43Z</time>
      </trkpt>
      <trkpt lat="44.9393190" lon="7.0534340">
        <ele>1257.2</ele>
        <time>2017-07-27T08:03:44Z</time>
      </trkpt>
      <trkpt lat="44.9393600" lon="7.0534160">
        <ele>1256.2</ele>
        <time>2017-07-27T08:03:45Z</time>
      </trkpt>
      <trkpt lat="44.9393920" lon="7.0533150">
        <ele>1254.6</ele>
        <time>2017-07-27T08:03:47Z</time>
      </trkpt>
      <trkpt lat="44.9393830" lon="7.0532500">
        <ele>1253.8</ele>
        <time>2017-07-27T08:03:48Z</time>
      </trkpt>
      <trkpt lat="44.9393630" lon="7.0531810">
        <ele>1253.2</ele>
        <time>2017-07-27T08:03:49Z</time>
      </trkpt>
      <trkpt lat="44.9393430" lon="7.0531050">
        <ele>1251.6</ele>
        <time>2017-07-27T08:03:50Z</time>
      </trkpt>
      <trkpt lat="44.9393090" lon="7.0529140">
        <ele>1250.2</ele>
        <time>2017-07-27T08:03:52Z</time>
      </trkpt>
      <trkpt lat="44.9393140" lon="7.0526660">
        <ele>1248.8</ele>
        <time>2017-07-27T08:03:54Z</time>
      </trkpt>
      <trkpt lat="44.9393480" lon="7.0523590">
        <ele>1247.2</ele>
        <time>2017-07-27T08:03:56Z</time>
      </trkpt>
      <trkpt lat="44.9393790" lon="7.0520820">
        <ele>1246.0</ele>
        <time>2017-07-27T08:03:58Z</time>
      </trkpt>
      <trkpt lat="44.9394080" lon="7.0519690">
        <ele>1245.2</ele>
        <time>2017-07-27T08:03:59Z</time>
      </trkpt>
      <trkpt lat="44.9394500" lon="7.0518630">
        <ele>1244.4</ele>
        <time>2017-07-27T08:04:00Z</time>
      </trkpt>
      <trkpt lat="44.9395610" lon="7.0516830">
        <ele>1243.0</ele>
        <time>2017-07-27T08:04:02Z</time>
      </trkpt>
      <trkpt lat="44.9396210" lon="7.0516130">
        <ele>1242.4</ele>
        <time>2017-07-27T08:04:03Z</time>
      </trkpt>
      <trkpt lat="44.9396810" lon="7.0515530">
        <ele>1241.6</ele>
        <time>2017-07-27T08:04:04Z</time>
      </trkpt>
      <trkpt lat="44.9397700" lon="7.0515060">
        <ele>1239.8</ele>
        <time>2017-07-27T08:04:06Z</time>
      </trkpt>
      <trkpt lat="44.9397900" lon="7.0515360">
        <ele>1239.0</ele>
        <time>2017-07-27T08:04:07Z</time>
      </trkpt>
      <trkpt lat="44.9397970" lon="7.0516150">
        <ele>1238.2</ele>
        <time>2017-07-27T08:04:08Z</time>
      </trkpt>
      <trkpt lat="44.9398020" lon="7.0517270">
        <ele>1237.2</ele>
        <time>2017-07-27T08:04:09Z</time>
      </trkpt>
      <trkpt lat="44.9398120" lon="7.0518470">
        <ele>1236.4</ele>
        <time>2017-07-27T08:04:10Z</time>
      </trkpt>
      <trkpt lat="44.9398750" lon="7.0520710">
        <ele>1235.0</ele>
        <time>2017-07-27T08:04:12Z</time>
      </trkpt>
      <trkpt lat="44.9399650" lon="7.0522630">
        <ele>1232.8</ele>
        <time>2017-07-27T08:04:14Z</time>
      </trkpt>
      <trkpt lat="44.9400700" lon="7.0524380">
        <ele>1231.8</ele>
        <time>2017-07-27T08:04:16Z</time>
      </trkpt>
      <trkpt lat="44.9401880" lon="7.0526160">
        <ele>1230.6</ele>
        <time>2017-07-27T08:04:18Z</time>
      </trkpt>
      <trkpt lat="44.9402940" lon="7.0527940">
        <ele>1229.4</ele>
        <time>2017-07-27T08:04:20Z</time>
      </trkpt>
      <trkpt lat="44.9403480" lon="7.0528580">
        <ele>1228.8</ele>
        <time>2017-07-27T08:04:21Z</time>
      </trkpt>
      <trkpt lat="44.9403980" lon="7.0529160">
        <ele>1228.2</ele>
        <time>2017-07-27T08:04:22Z</time>
      </trkpt>
      <trkpt lat="44.9404930" lon="7.0530280">
        <ele>1226.6</ele>
        <time>2017-07-27T08:04:24Z</time>
      </trkpt>
      <trkpt lat="44.9405980" lon="7.0531430">
        <ele>1225.2</ele>
        <time>2017-07-27T08:04:26Z</time>
      </trkpt>
      <trkpt lat="44.9407220" lon="7.0532870">
        <ele>1224.0</ele>
        <time>2017-07-27T08:04:28Z</time>
      </trkpt>
      <trkpt lat="44.9408660" lon="7.0534450">
        <ele>1222.6</ele>
        <time>2017-07-27T08:04:30Z</time>
      </trkpt>
      <trkpt lat="44.9410250" lon="7.0536280">
        <ele>1221.0</ele>
        <time>2017-07-27T08:04:32Z</time>
      </trkpt>
      <trkpt lat="44.9411910" lon="7.0538500">
        <ele>1219.4</ele>
        <time>2017-07-27T08:04:34Z</time>
      </trkpt>
      <trkpt lat="44.9413550" lon="7.0541080">
        <ele>1217.8</ele>
        <time>2017-07-27T08:04:36Z</time>
      </trkpt>
      <trkpt lat="44.9415140" lon="7.0543830">
        <ele>1215.4</ele>
        <time>2017-07-27T08:04:38Z</time>
      </trkpt>
      <trkpt lat="44.9416510" lon="7.0546670">
        <ele>1213.4</ele>
        <time>2017-07-27T08:04:40Z</time>
      </trkpt>
      <trkpt lat="44.9417060" lon="7.0548190">
        <ele>1212.4</ele>
        <time>2017-07-27T08:04:41Z</time>
      </trkpt>
      <trkpt lat="44.9418000" lon="7.0551270">
        <ele>1210.4</ele>
        <time>2017-07-27T08:04:43Z</time>
      </trkpt>
      <trkpt lat="44.9418790" lon="7.0554410">
        <ele>1208.6</ele>
        <time>2017-07-27T08:04:45Z</time>
      </trkpt>
      <trkpt lat="44.9419100" lon="7.0556000">
        <ele>1207.6</ele>
        <time>2017-07-27T08:04:46Z</time>
      </trkpt>
      <trkpt lat="44.9419300" lon="7.0557600">
        <ele>1206.6</ele>
        <time>2017-07-27T08:04:47Z</time>
      </trkpt>
      <trkpt lat="44.9419410" lon="7.0559160">
        <ele>1205.6</ele>
        <time>2017-07-27T08:04:48Z</time>
      </trkpt>
      <trkpt lat="44.9419530" lon="7.0562250">
        <ele>1203.8</ele>
        <time>2017-07-27T08:04:50Z</time>
      </trkpt>
      <trkpt lat="44.9419220" lon="7.0565570">
        <ele>1202.2</ele>
        <time>2017-07-27T08:04:52Z</time>
      </trkpt>
      <trkpt lat="44.9419110" lon="7.0567250">
        <ele>1201.0</ele>
        <time>2017-07-27T08:04:53Z</time>
      </trkpt>
      <trkpt lat="44.9419170" lon="7.0568800">
        <ele>1200.0</ele>
        <time>2017-07-27T08:04:54Z</time>
      </trkpt>
      <trkpt lat="44.9419580" lon="7.0571430">
        <ele>1198.0</ele>
        <time>2017-07-27T08:04:56Z</time>
      </trkpt>
      <trkpt lat="44.9419970" lon="7.0572450">
        <ele>1197.2</ele>
        <time>2017-07-27T08:04:57Z</time>
      </trkpt>
      <trkpt lat="44.9420610" lon="7.0573220">
        <ele>1196.2</ele>
        <time>2017-07-27T08:04:58Z</time>
      </trkpt>
      <trkpt lat="44.9421380" lon="7.0573880">
        <ele>1195.2</ele>
        <time>2017-07-27T08:04:59Z</time>
      </trkpt>
      <trkpt lat="44.9422190" lon="7.0574540">
        <ele>1194.2</ele>
        <time>2017-07-27T08:05:00Z</time>
      </trkpt>
      <trkpt lat="44.9423040" lon="7.0575170">
        <ele>1193.2</ele>
        <time>2017-07-27T08:05:01Z</time>
      </trkpt>
      <trkpt lat="44.9423890" lon="7.0575800">
        <ele>1191.0</ele>
        <time>2017-07-27T08:05:02Z</time>
      </trkpt>
      <trkpt lat="44.9425570" lon="7.0577080">
        <ele>1189.2</ele>
        <time>2017-07-27T08:05:04Z</time>
      </trkpt>
      <trkpt lat="44.9427590" lon="7.0578690">
        <ele>1187.2</ele>
        <time>2017-07-27T08:05:06Z</time>
      </trkpt>
      <trkpt lat="44.9428560" lon="7.0579950">
        <ele>1186.4</ele>
        <time>2017-07-27T08:05:07Z</time>
      </trkpt>
      <trkpt lat="44.9429540" lon="7.0581350">
        <ele>1185.4</ele>
        <time>2017-07-27T08:05:08Z</time>
      </trkpt>
      <trkpt lat="44.9431730" lon="7.0584130">
        <ele>1183.8</ele>
        <time>2017-07-27T08:05:10Z</time>
      </trkpt>
      <trkpt lat="44.9433350" lon="7.0586650">
        <ele>1182.2</ele>
        <time>2017-07-27T08:05:12Z</time>
      </trkpt>
      <trkpt lat="44.9433980" lon="7.0587880">
        <ele>1181.4</ele>
        <time>2017-07-27T08:05:13Z</time>
      </trkpt>
      <trkpt lat="44.9434420" lon="7.0589230">
        <ele>1181.0</ele>
        <time>2017-07-27T08:05:14Z</time>
      </trkpt>
      <trkpt lat="44.9435390" lon="7.0593120">
        <ele>1179.6</ele>
        <time>2017-07-27T08:05:17Z</time>
      </trkpt>
      <trkpt lat="44.9436040" lon="7.0595210">
        <ele>1179.2</ele>
        <time>2017-07-27T08:05:19Z</time>
      </trkpt>
      <trkpt lat="44.9436430" lon="7.0596050">
        <ele>1179.0</ele>
        <time>2017-07-27T08:05:20Z</time>
      </trkpt>
      <trkpt lat="44.9436910" lon="7.0596750">
        <ele>1178.8</ele>
        <time>2017-07-27T08:05:21Z</time>
      </trkpt>
      <trkpt lat="44.9438600" lon="7.0598300">
        <ele>1178.8</ele>
        <time>2017-07-27T08:05:24Z</time>
      </trkpt>
      <trkpt lat="44.9439210" lon="7.0598700">
        <ele>1178.6</ele>
        <time>2017-07-27T08:05:25Z</time>
      </trkpt>
      <trkpt lat="44.9441140" lon="7.0599790">
        <ele>1178.6</ele>
        <time>2017-07-27T08:05:28Z</time>
      </trkpt>
      <trkpt lat="44.9442960" lon="7.0600710">
        <ele>1178.8</ele>
        <time>2017-07-27T08:05:31Z</time>
      </trkpt>
      <trkpt lat="44.9443550" lon="7.0600840">
        <ele>1179.0</ele>
        <time>2017-07-27T08:05:32Z</time>
      </trkpt>
      <trkpt lat="44.9444730" lon="7.0600660">
        <ele>1179.0</ele>
        <time>2017-07-27T08:05:34Z</time>
      </trkpt>
      <trkpt lat="44.9446800" lon="7.0599480">
        <ele>1179.2</ele>
        <time>2017-07-27T08:05:38Z</time>
      </trkpt>
      <trkpt lat="44.9447430" lon="7.0599070">
        <ele>1179.4</ele>
        <time>2017-07-27T08:05:39Z</time>
      </trkpt>
      <trkpt lat="44.9449050" lon="7.0597670">
        <ele>1179.6</ele>
        <time>2017-07-27T08:05:42Z</time>
      </trkpt>
      <trkpt lat="44.9450630" lon="7.0596310">
        <ele>1179.8</ele>
        <time>2017-07-27T08:05:45Z</time>
      </trkpt>
      <trkpt lat="44.9453220" lon="7.0595080">
        <ele>1178.4</ele>
        <time>2017-07-27T08:05:50Z</time>
      </trkpt>
      <trkpt lat="44.9453770" lon="7.0594960">
        <ele>1178.6</ele>
        <time>2017-07-27T08:05:51Z</time>
      </trkpt>
      <trkpt lat="44.9454830" lon="7.0594660">
        <ele>1180.4</ele>
        <time>2017-07-27T08:05:53Z</time>
      </trkpt>
      <trkpt lat="44.9455360" lon="7.0594450">
        <ele>1180.4</ele>
        <time>2017-07-27T08:05:54Z</time>
      </trkpt>
      <trkpt lat="44.9456170" lon="7.0593740">
        <ele>1180.2</ele>
        <time>2017-07-27T08:05:56Z</time>
      </trkpt>
      <trkpt lat="44.9456930" lon="7.0591490">
        <ele>1180.8</ele>
        <time>2017-07-27T08:05:59Z</time>
      </trkpt>
      <trkpt lat="44.9457170" lon="7.0590560">
        <ele>1180.8</ele>
        <time>2017-07-27T08:06:00Z</time>
      </trkpt>
      <trkpt lat="44.9457760" lon="7.0588740">
        <ele>1181.0</ele>
        <time>2017-07-27T08:06:02Z</time>
      </trkpt>
      <trkpt lat="44.9458160" lon="7.0588090">
        <ele>1180.8</ele>
        <time>2017-07-27T08:06:03Z</time>
      </trkpt>
      <trkpt lat="44.9458980" lon="7.0587930">
        <ele>1180.8</ele>
        <time>2017-07-27T08:06:06Z</time>
      </trkpt>
      <trkpt lat="44.9459960" lon="7.0589250">
        <ele>1180.6</ele>
        <time>2017-07-27T08:06:08Z</time>
      </trkpt>
      <trkpt lat="44.9463070" lon="7.0593440">
        <ele>1180.0</ele>
        <time>2017-07-27T08:06:13Z</time>
      </trkpt>
      <trkpt lat="44.9465200" lon="7.0595880">
        <ele>1179.2</ele>
        <time>2017-07-27T08:06:16Z</time>
      </trkpt>
      <trkpt lat="44.9466780" lon="7.0597420">
        <ele>1178.8</ele>
        <time>2017-07-27T08:06:18Z</time>
      </trkpt>
      <trkpt lat="44.9468450" lon="7.0598750">
        <ele>1178.0</ele>
        <time>2017-07-27T08:06:20Z</time>
      </trkpt>
      <trkpt lat="44.9471240" lon="7.0600540">
        <ele>1177.0</ele>
        <time>2017-07-27T08:06:23Z</time>
      </trkpt>
      <trkpt lat="44.9474190" lon="7.0602200">
        <ele>1175.6</ele>
        <time>2017-07-27T08:06:26Z</time>
      </trkpt>
      <trkpt lat="44.9475230" lon="7.0602700">
        <ele>1175.0</ele>
        <time>2017-07-27T08:06:27Z</time>
      </trkpt>
      <trkpt lat="44.9476320" lon="7.0603100">
        <ele>1174.4</ele>
        <time>2017-07-27T08:06:28Z</time>
      </trkpt>
      <trkpt lat="44.9478550" lon="7.0603330">
        <ele>1173.2</ele>
        <time>2017-07-27T08:06:30Z</time>
      </trkpt>
      <trkpt lat="44.9479710" lon="7.0603000">
        <ele>1172.6</ele>
        <time>2017-07-27T08:06:31Z</time>
      </trkpt>
      <trkpt lat="44.9480840" lon="7.0602600">
        <ele>1172.2</ele>
        <time>2017-07-27T08:06:32Z</time>
      </trkpt>
      <trkpt lat="44.9483270" lon="7.0602060">
        <ele>1170.6</ele>
        <time>2017-07-27T08:06:34Z</time>
      </trkpt>
      <trkpt lat="44.9484580" lon="7.0601950">
        <ele>1169.8</ele>
        <time>2017-07-27T08:06:35Z</time>
      </trkpt>
      <trkpt lat="44.9485910" lon="7.0602070">
        <ele>1169.0</ele>
        <time>2017-07-27T08:06:36Z</time>
      </trkpt>
      <trkpt lat="44.9488550" lon="7.0602940">
        <ele>1166.2</ele>
        <time>2017-07-27T08:06:38Z</time>
      </trkpt>
      <trkpt lat="44.9489870" lon="7.0603470">
        <ele>1165.0</ele>
        <time>2017-07-27T08:06:39Z</time>
      </trkpt>
      <trkpt lat="44.9491070" lon="7.0604120">
        <ele>1164.0</ele>
        <time>2017-07-27T08:06:40Z</time>
      </trkpt>
      <trkpt lat="44.9492220" lon="7.0604770">
        <ele>1163.0</ele>
        <time>2017-07-27T08:06:41Z</time>
      </trkpt>
      <trkpt lat="44.9493280" lon="7.0605270">
        <ele>1162.2</ele>
        <time>2017-07-27T08:06:42Z</time>
      </trkpt>
      <trkpt lat="44.9494320" lon="7.0605430">
        <ele>1161.2</ele>
        <time>2017-07-27T08:06:43Z</time>
      </trkpt>
      <trkpt lat="44.9495330" lon="7.0605100">
        <ele>1160.4</ele>
        <time>2017-07-27T08:06:44Z</time>
      </trkpt>
      <trkpt lat="44.9496240" lon="7.0604430">
        <ele>1159.4</ele>
        <time>2017-07-27T08:06:45Z</time>
      </trkpt>
      <trkpt lat="44.9498240" lon="7.0603350">
        <ele>1157.6</ele>
        <time>2017-07-27T08:06:47Z</time>
      </trkpt>
      <trkpt lat="44.9500430" lon="7.0602590">
        <ele>1155.6</ele>
        <time>2017-07-27T08:06:49Z</time>
      </trkpt>
      <trkpt lat="44.9501550" lon="7.0602280">
        <ele>1154.6</ele>
        <time>2017-07-27T08:06:50Z</time>
      </trkpt>
      <trkpt lat="44.9502700" lon="7.0602010">
        <ele>1153.6</ele>
        <time>2017-07-27T08:06:51Z</time>
      </trkpt>
      <trkpt lat="44.9503920" lon="7.0601910">
        <ele>1152.6</ele>
        <time>2017-07-27T08:06:52Z</time>
      </trkpt>
      <trkpt lat="44.9506350" lon="7.0602360">
        <ele>1150.8</ele>
        <time>2017-07-27T08:06:54Z</time>
      </trkpt>
      <trkpt lat="44.9508790" lon="7.0603100">
        <ele>1148.8</ele>
        <time>2017-07-27T08:06:56Z</time>
      </trkpt>
      <trkpt lat="44.9510010" lon="7.0603530">
        <ele>1148.0</ele>
        <time>2017-07-27T08:06:57Z</time>
      </trkpt>
      <trkpt lat="44.9511170" lon="7.0603990">
        <ele>1146.8</ele>
        <time>2017-07-27T08:06:58Z</time>
      </trkpt>
      <trkpt lat="44.9512250" lon="7.0604480">
        <ele>1145.8</ele>
        <time>2017-07-27T08:06:59Z</time>
      </trkpt>
      <trkpt lat="44.9513970" lon="7.0605620">
        <ele>1143.8</ele>
        <time>2017-07-27T08:07:01Z</time>
      </trkpt>
      <trkpt lat="44.9514780" lon="7.0605870">
        <ele>1141.8</ele>
        <time>2017-07-27T08:07:02Z</time>
      </trkpt>
      <trkpt lat="44.9516290" lon="7.0605600">
        <ele>1140.2</ele>
        <time>2017-07-27T08:07:04Z</time>
      </trkpt>
      <trkpt lat="44.9517010" lon="7.0605280">
        <ele>1139.6</ele>
        <time>2017-07-27T08:07:05Z</time>
      </trkpt>
      <trkpt lat="44.9517690" lon="7.0604880">
        <ele>1139.0</ele>
        <time>2017-07-27T08:07:06Z</time>
      </trkpt>
      <trkpt lat="44.9518350" lon="7.0604460">
        <ele>1138.6</ele>
        <time>2017-07-27T08:07:07Z</time>
      </trkpt>
      <trkpt lat="44.9519610" lon="7.0603570">
        <ele>1137.8</ele>
        <time>2017-07-27T08:07:09Z</time>
      </trkpt>
      <trkpt lat="44.9520790" lon="7.0602710">
        <ele>1137.4</ele>
        <time>2017-07-27T08:07:11Z</time>
      </trkpt>
      <trkpt lat="44.9521920" lon="7.0602000">
        <ele>1137.0</ele>
        <time>2017-07-27T08:07:13Z</time>
      </trkpt>
      <trkpt lat="44.9522480" lon="7.0601700">
        <ele>1136.8</ele>
        <time>2017-07-27T08:07:14Z</time>
      </trkpt>
      <trkpt lat="44.9523590" lon="7.0601130">
        <ele>1136.6</ele>
        <time>2017-07-27T08:07:16Z</time>
      </trkpt>
      <trkpt lat="44.9524130" lon="7.0600910">
        <ele>1136.6</ele>
        <time>2017-07-27T08:07:17Z</time>
      </trkpt>
      <trkpt lat="44.9525200" lon="7.0600630">
        <ele>1136.6</ele>
        <time>2017-07-27T08:07:19Z</time>
      </trkpt>
      <trkpt lat="44.9526310" lon="7.0600480">
        <ele>1136.6</ele>
        <time>2017-07-27T08:07:21Z</time>
      </trkpt>
      <trkpt lat="44.9527310" lon="7.0600610">
        <ele>1136.6</ele>
        <time>2017-07-27T08:07:23Z</time>
      </trkpt>
      <trkpt lat="44.9528710" lon="7.0600830">
        <ele>1137.0</ele>
        <time>2017-07-27T08:07:26Z</time>
      </trkpt>
      <trkpt lat="44.9531100" lon="7.0600830">
        <ele>1137.6</ele>
        <time>2017-07-27T08:07:31Z</time>
      </trkpt>
      <trkpt lat="44.9532120" lon="7.0600860">
        <ele>1137.8</ele>
        <time>2017-07-27T08:07:33Z</time>
      </trkpt>
      <trkpt lat="44.9534090" lon="7.0601140">
        <ele>1138.2</ele>
        <time>2017-07-27T08:07:37Z</time>
      </trkpt>
      <trkpt lat="44.9534590" lon="7.0601280">
        <ele>1138.6</ele>
        <time>2017-07-27T08:07:38Z</time>
      </trkpt>
      <trkpt lat="44.9535080" lon="7.0601360">
        <ele>1138.8</ele>
        <time>2017-07-27T08:07:39Z</time>
      </trkpt>
      <trkpt lat="44.9535560" lon="7.0601380">
        <ele>1139.0</ele>
        <time>2017-07-27T08:07:40Z</time>
      </trkpt>
      <trkpt lat="44.9537450" lon="7.0601510">
        <ele>1140.0</ele>
        <time>2017-07-27T08:07:44Z</time>
      </trkpt>
      <trkpt lat="44.9537920" lon="7.0601520">
        <ele>1140.2</ele>
        <time>2017-07-27T08:07:45Z</time>
      </trkpt>
      <trkpt lat="44.9539880" lon="7.0601540">
        <ele>1141.2</ele>
        <time>2017-07-27T08:07:49Z</time>
      </trkpt>
      <trkpt lat="44.9541880" lon="7.0601330">
        <ele>1142.4</ele>
        <time>2017-07-27T08:07:53Z</time>
      </trkpt>
      <trkpt lat="44.9542410" lon="7.0601250">
        <ele>1142.8</ele>
        <time>2017-07-27T08:07:54Z</time>
      </trkpt>
      <trkpt lat="44.9543980" lon="7.0601070">
        <ele>1143.6</ele>
        <time>2017-07-27T08:07:57Z</time>
      </trkpt>
      <trkpt lat="44.9545830" lon="7.0599880">
        <ele>1144.4</ele>
        <time>2017-07-27T08:08:00Z</time>
      </trkpt>
      <trkpt lat="44.9546540" lon="7.0599030">
        <ele>1144.6</ele>
        <time>2017-07-27T08:08:01Z</time>
      </trkpt>
      <trkpt lat="44.9547190" lon="7.0598280">
        <ele>1145.0</ele>
        <time>2017-07-27T08:08:02Z</time>
      </trkpt>
      <trkpt lat="44.9548890" lon="7.0596610">
        <ele>1145.8</ele>
        <time>2017-07-27T08:08:05Z</time>
      </trkpt>
      <trkpt lat="44.9550470" lon="7.0595880">
        <ele>1146.8</ele>
        <time>2017-07-27T08:08:09Z</time>
      </trkpt>
      <trkpt lat="44.9552810" lon="7.0594230">
        <ele>1148.2</ele>
        <time>2017-07-27T08:08:14Z</time>
      </trkpt>
      <trkpt lat="44.9553710" lon="7.0593860">
        <ele>1148.6</ele>
        <time>2017-07-27T08:08:16Z</time>
      </trkpt>
      <trkpt lat="44.9554570" lon="7.0593490">
        <ele>1149.2</ele>
        <time>2017-07-27T08:08:18Z</time>
      </trkpt>
      <trkpt lat="44.9555010" lon="7.0593270">
        <ele>1149.4</ele>
        <time>2017-07-27T08:08:19Z</time>
      </trkpt>
      <trkpt lat="44.9556390" lon="7.0592470">
        <ele>1150.0</ele>
        <time>2017-07-27T08:08:22Z</time>
      </trkpt>
      <trkpt lat="44.9556840" lon="7.0592210">
        <ele>1150.2</ele>
        <time>2017-07-27T08:08:23Z</time>
      </trkpt>
      <trkpt lat="44.9558990" lon="7.0591360">
        <ele>1151.4</ele>
        <time>2017-07-27T08:08:28Z</time>
      </trkpt>
      <trkpt lat="44.9560800" lon="7.0590230">
        <ele>1152.6</ele>
        <time>2017-07-27T08:08:33Z</time>
      </trkpt>
      <trkpt lat="44.9561160" lon="7.0589980">
        <ele>1152.8</ele>
        <time>2017-07-27T08:08:34Z</time>
      </trkpt>
      <trkpt lat="44.9562610" lon="7.0589060">
        <ele>1154.0</ele>
        <time>2017-07-27T08:08:38Z</time>
      </trkpt>
      <trkpt lat="44.9563340" lon="7.0588560">
        <ele>1154.4</ele>
        <time>2017-07-27T08:08:40Z</time>
      </trkpt>
      <trkpt lat="44.9564340" lon="7.0587750">
        <ele>1155.2</ele>
        <time>2017-07-27T08:08:43Z</time>
      </trkpt>
      <trkpt lat="44.9565650" lon="7.0586820">
        <ele>1156.2</ele>
        <time>2017-07-27T08:08:47Z</time>
      </trkpt>
      <trkpt lat="44.9566810" lon="7.0585580">
        <ele>1157.2</ele>
        <time>2017-07-27T08:08:51Z</time>
      </trkpt>
      <trkpt lat="44.9567420" lon="7.0585010">
        <ele>1157.8</ele>
        <time>2017-07-27T08:08:53Z</time>
      </trkpt>
      <trkpt lat="44.9567970" lon="7.0584400">
        <ele>1158.4</ele>
        <time>2017-07-27T08:08:55Z</time>
      </trkpt>
      <trkpt lat="44.9568950" lon="7.0583040">
        <ele>1159.6</ele>
        <time>2017-07-27T08:08:59Z</time>
      </trkpt>
      <trkpt lat="44.9569130" lon="7.0582630">
        <ele>1159.8</ele>
        <time>2017-07-27T08:09:00Z</time>
      </trkpt>
      <trkpt lat="44.9569430" lon="7.0581860">
        <ele>1160.6</ele>
        <time>2017-07-27T08:09:02Z</time>
      </trkpt>
      <trkpt lat="44.9569980" lon="7.0580670">
        <ele>1161.8</ele>
        <time>2017-07-27T08:09:06Z</time>
      </trkpt>
      <trkpt lat="44.9570760" lon="7.0579050">
        <ele>1163.0</ele>
        <time>2017-07-27T08:09:12Z</time>
      </trkpt>
      <trkpt lat="44.9571480" lon="7.0576930">
        <ele>1164.0</ele>
        <time>2017-07-27T08:09:18Z</time>
      </trkpt>
      <trkpt lat="44.9572220" lon="7.0575260">
        <ele>1165.2</ele>
        <time>2017-07-27T08:09:23Z</time>
      </trkpt>
      <trkpt lat="44.9572530" lon="7.0574590">
        <ele>1165.6</ele>
        <time>2017-07-27T08:09:25Z</time>
      </trkpt>
      <trkpt lat="44.9572770" lon="7.0573850">
        <ele>1166.4</ele>
        <time>2017-07-27T08:09:27Z</time>
      </trkpt>
      <trkpt lat="44.9573490" lon="7.0571790">
        <ele>1167.4</ele>
        <time>2017-07-27T08:09:32Z</time>
      </trkpt>
      <trkpt lat="44.9574420" lon="7.0570060">
        <ele>1168.6</ele>
        <time>2017-07-27T08:09:37Z</time>
      </trkpt>
      <trkpt lat="44.9574610" lon="7.0569720">
        <ele>1168.8</ele>
        <time>2017-07-27T08:09:38Z</time>
      </trkpt>
      <trkpt lat="44.9575330" lon="7.0568530">
        <ele>1170.0</ele>
        <time>2017-07-27T08:09:42Z</time>
      </trkpt>
      <trkpt lat="44.9575920" lon="7.0567650">
        <ele>1171.0</ele>
        <time>2017-07-27T08:09:45Z</time>
      </trkpt>
      <trkpt lat="44.9576120" lon="7.0567380">
        <ele>1171.2</ele>
        <time>2017-07-27T08:09:46Z</time>
      </trkpt>
      <trkpt lat="44.9577080" lon="7.0566480">
        <ele>1172.6</ele>
        <time>2017-07-27T08:09:50Z</time>
      </trkpt>
      <trkpt lat="44.9577350" lon="7.0566260">
        <ele>1172.8</ele>
        <time>2017-07-27T08:09:51Z</time>
      </trkpt>
      <trkpt lat="44.9578240" lon="7.0565590">
        <ele>1173.6</ele>
        <time>2017-07-27T08:09:54Z</time>
      </trkpt>
      <trkpt lat="44.9579410" lon="7.0564350">
        <ele>1174.6</ele>
        <time>2017-07-27T08:09:58Z</time>
      </trkpt>
      <trkpt lat="44.9579670" lon="7.0563960">
        <ele>1175.0</ele>
        <time>2017-07-27T08:09:59Z</time>
      </trkpt>
      <trkpt lat="44.9580460" lon="7.0562950">
        <ele>1176.0</ele>
        <time>2017-07-27T08:10:02Z</time>
      </trkpt>
      <trkpt lat="44.9581210" lon="7.0562090">
        <ele>1177.0</ele>
        <time>2017-07-27T08:10:05Z</time>
      </trkpt>
      <trkpt lat="44.9581930" lon="7.0561000">
        <ele>1178.0</ele>
        <time>2017-07-27T08:10:08Z</time>
      </trkpt>
      <trkpt lat="44.9582180" lon="7.0560640">
        <ele>1178.4</ele>
        <time>2017-07-27T08:10:09Z</time>
      </trkpt>
      <trkpt lat="44.9582950" lon="7.0559290">
        <ele>1179.6</ele>
        <time>2017-07-27T08:10:13Z</time>
      </trkpt>
      <trkpt lat="44.9583210" lon="7.0559020">
        <ele>1180.0</ele>
        <time>2017-07-27T08:10:14Z</time>
      </trkpt>
      <trkpt lat="44.9584570" lon="7.0558020">
        <ele>1181.4</ele>
        <time>2017-07-27T08:10:19Z</time>
      </trkpt>
      <trkpt lat="44.9585610" lon="7.0558220">
        <ele>1182.6</ele>
        <time>2017-07-27T08:10:23Z</time>
      </trkpt>
      <trkpt lat="44.9585850" lon="7.0558340">
        <ele>1182.0</ele>
        <time>2017-07-27T08:10:24Z</time>
      </trkpt>
      <trkpt lat="44.9586880" lon="7.0558570">
        <ele>1183.8</ele>
        <time>2017-07-27T08:10:28Z</time>
      </trkpt>
      <trkpt lat="44.9587460" lon="7.0558480">
        <ele>1184.8</ele>
        <time>2017-07-27T08:10:30Z</time>
      </trkpt>
      <trkpt lat="44.9587750" lon="7.0558390">
        <ele>1185.0</ele>
        <time>2017-07-27T08:10:31Z</time>
      </trkpt>
      <trkpt lat="44.9588630" lon="7.0557370">
        <ele>1186.0</ele>
        <time>2017-07-27T08:10:35Z</time>
      </trkpt>
      <trkpt lat="44.9588860" lon="7.0556920">
        <ele>1186.2</ele>
        <time>2017-07-27T08:10:36Z</time>
      </trkpt>
      <trkpt lat="44.9589250" lon="7.0555000">
        <ele>1187.4</ele>
        <time>2017-07-27T08:10:40Z</time>
      </trkpt>
      <trkpt lat="44.9589310" lon="7.0554520">
        <ele>1187.6</ele>
        <time>2017-07-27T08:10:41Z</time>
      </trkpt>
      <trkpt lat="44.9589450" lon="7.0552800">
        <ele>1188.4</ele>
        <time>2017-07-27T08:10:45Z</time>
      </trkpt>
      <trkpt lat="44.9589920" lon="7.0551070">
        <ele>1189.6</ele>
        <time>2017-07-27T08:10:49Z</time>
      </trkpt>
      <trkpt lat="44.9590590" lon="7.0548920">
        <ele>1190.6</ele>
        <time>2017-07-27T08:10:54Z</time>
      </trkpt>
      <trkpt lat="44.9591000" lon="7.0547660">
        <ele>1191.2</ele>
        <time>2017-07-27T08:10:57Z</time>
      </trkpt>
      <trkpt lat="44.9591330" lon="7.0546370">
        <ele>1191.8</ele>
        <time>2017-07-27T08:11:00Z</time>
      </trkpt>
      <trkpt lat="44.9591720" lon="7.0544710">
        <ele>1192.8</ele>
        <time>2017-07-27T08:11:04Z</time>
      </trkpt>
      <trkpt lat="44.9592260" lon="7.0542220">
        <ele>1194.0</ele>
        <time>2017-07-27T08:11:10Z</time>
      </trkpt>
      <trkpt lat="44.9592290" lon="7.0541720">
        <ele>1194.4</ele>
        <time>2017-07-27T08:11:11Z</time>
      </trkpt>
      <trkpt lat="44.9592430" lon="7.0539370">
        <ele>1195.0</ele>
        <time>2017-07-27T08:11:16Z</time>
      </trkpt>
      <trkpt lat="44.9592680" lon="7.0537330">
        <ele>1195.8</ele>
        <time>2017-07-27T08:11:20Z</time>
      </trkpt>
      <trkpt lat="44.9593060" lon="7.0535930">
        <ele>1196.2</ele>
        <time>2017-07-27T08:11:23Z</time>
      </trkpt>
      <trkpt lat="44.9593900" lon="7.0534150">
        <ele>1197.0</ele>
        <time>2017-07-27T08:11:28Z</time>
      </trkpt>
      <trkpt lat="44.9594050" lon="7.0533780">
        <ele>1197.4</ele>
        <time>2017-07-27T08:11:29Z</time>
      </trkpt>
      <trkpt lat="44.9594730" lon="7.0532360">
        <ele>1198.4</ele>
        <time>2017-07-27T08:11:33Z</time>
      </trkpt>
      <trkpt lat="44.9595070" lon="7.0531610">
        <ele>1199.0</ele>
        <time>2017-07-27T08:11:35Z</time>
      </trkpt>
      <trkpt lat="44.9595340" lon="7.0530860">
        <ele>1199.6</ele>
        <time>2017-07-27T08:11:37Z</time>
      </trkpt>
      <trkpt lat="44.9595840" lon="7.0529320">
        <ele>1200.6</ele>
        <time>2017-07-27T08:11:41Z</time>
      </trkpt>
      <trkpt lat="44.9596100" lon="7.0528520">
        <ele>1201.4</ele>
        <time>2017-07-27T08:11:43Z</time>
      </trkpt>
      <trkpt lat="44.9596290" lon="7.0527760">
        <ele>1201.8</ele>
        <time>2017-07-27T08:11:45Z</time>
      </trkpt>
      <trkpt lat="44.9596780" lon="7.0526430">
        <ele>1203.0</ele>
        <time>2017-07-27T08:11:49Z</time>
      </trkpt>
      <trkpt lat="44.9596910" lon="7.0526120">
        <ele>1203.6</ele>
        <time>2017-07-27T08:11:50Z</time>
      </trkpt>
      <trkpt lat="44.9597070" lon="7.0525420">
        <ele>1204.2</ele>
        <time>2017-07-27T08:11:52Z</time>
      </trkpt>
      <trkpt lat="44.9597510" lon="7.0524200">
        <ele>1205.4</ele>
        <time>2017-07-27T08:11:56Z</time>
      </trkpt>
      <trkpt lat="44.9598050" lon="7.0523060">
        <ele>1206.6</ele>
        <time>2017-07-27T08:12:00Z</time>
      </trkpt>
      <trkpt lat="44.9598430" lon="7.0522260">
        <ele>1207.6</ele>
        <time>2017-07-27T08:12:03Z</time>
      </trkpt>
      <trkpt lat="44.9598550" lon="7.0521980">
        <ele>1207.8</ele>
        <time>2017-07-27T08:12:04Z</time>
      </trkpt>
      <trkpt lat="44.9598780" lon="7.0521410">
        <ele>1208.6</ele>
        <time>2017-07-27T08:12:06Z</time>
      </trkpt>
      <trkpt lat="44.9599300" lon="7.0520350">
        <ele>1209.8</ele>
        <time>2017-07-27T08:12:10Z</time>
      </trkpt>
      <trkpt lat="44.9599460" lon="7.0520110">
        <ele>1210.0</ele>
        <time>2017-07-27T08:12:11Z</time>
      </trkpt>
      <trkpt lat="44.9599990" lon="7.0519360">
        <ele>1211.4</ele>
        <time>2017-07-27T08:12:14Z</time>
      </trkpt>
      <trkpt lat="44.9600380" lon="7.0518390">
        <ele>1212.2</ele>
        <time>2017-07-27T08:12:17Z</time>
      </trkpt>
      <trkpt lat="44.9600550" lon="7.0518050">
        <ele>1212.4</ele>
        <time>2017-07-27T08:12:18Z</time>
      </trkpt>
      <trkpt lat="44.9601330" lon="7.0516910">
        <ele>1213.8</ele>
        <time>2017-07-27T08:12:22Z</time>
      </trkpt>
      <trkpt lat="44.9601690" lon="7.0516410">
        <ele>1214.2</ele>
        <time>2017-07-27T08:12:24Z</time>
      </trkpt>
      <trkpt lat="44.9602040" lon="7.0515950">
        <ele>1214.8</ele>
        <time>2017-07-27T08:12:26Z</time>
      </trkpt>
      <trkpt lat="44.9602700" lon="7.0515000">
        <ele>1215.8</ele>
        <time>2017-07-27T08:12:30Z</time>
      </trkpt>
      <trkpt lat="44.9603120" lon="7.0514630">
        <ele>1216.4</ele>
        <time>2017-07-27T08:12:32Z</time>
      </trkpt>
      <trkpt lat="44.9603570" lon="7.0514300">
        <ele>1217.0</ele>
        <time>2017-07-27T08:12:34Z</time>
      </trkpt>
      <trkpt lat="44.9604340" lon="7.0513500">
        <ele>1218.2</ele>
        <time>2017-07-27T08:12:38Z</time>
      </trkpt>
      <trkpt lat="44.9604520" lon="7.0513320">
        <ele>1218.4</ele>
        <time>2017-07-27T08:12:39Z</time>
      </trkpt>
      <trkpt lat="44.9605110" lon="7.0512710">
        <ele>1219.2</ele>
        <time>2017-07-27T08:12:42Z</time>
      </trkpt>
      <trkpt lat="44.9605930" lon="7.0511790">
        <ele>1220.2</ele>
        <time>2017-07-27T08:12:46Z</time>
      </trkpt>
      <trkpt lat="44.9606130" lon="7.0511560">
        <ele>1220.6</ele>
        <time>2017-07-27T08:12:47Z</time>
      </trkpt>
      <trkpt lat="44.9606680" lon="7.0510850">
        <ele>1221.4</ele>
        <time>2017-07-27T08:12:50Z</time>
      </trkpt>
      <trkpt lat="44.9607270" lon="7.0509730">
        <ele>1222.6</ele>
        <time>2017-07-27T08:12:54Z</time>
      </trkpt>
      <trkpt lat="44.9607510" lon="7.0508330">
        <ele>1223.6</ele>
        <time>2017-07-27T08:12:58Z</time>
      </trkpt>
      <trkpt lat="44.9607580" lon="7.0508030">
        <ele>1224.0</ele>
        <time>2017-07-27T08:12:59Z</time>
      </trkpt>
      <trkpt lat="44.9607790" lon="7.0506880">
        <ele>1224.8</ele>
        <time>2017-07-27T08:13:02Z</time>
      </trkpt>
      <trkpt lat="44.9607870" lon="7.0505430">
        <ele>1225.8</ele>
        <time>2017-07-27T08:13:06Z</time>
      </trkpt>
      <trkpt lat="44.9608410" lon="7.0503690">
        <ele>1227.0</ele>
        <time>2017-07-27T08:13:11Z</time>
      </trkpt>
      <trkpt lat="44.9608520" lon="7.0503360">
        <ele>1227.2</ele>
        <time>2017-07-27T08:13:12Z</time>
      </trkpt>
      <trkpt lat="44.9608990" lon="7.0502170">
        <ele>1228.0</ele>
        <time>2017-07-27T08:13:16Z</time>
      </trkpt>
      <trkpt lat="44.9609320" lon="7.0501050">
        <ele>1229.0</ele>
        <time>2017-07-27T08:13:20Z</time>
      </trkpt>
      <trkpt lat="44.9609420" lon="7.0500770">
        <ele>1229.2</ele>
        <time>2017-07-27T08:13:21Z</time>
      </trkpt>
      <trkpt lat="44.9610210" lon="7.0499310">
        <ele>1230.8</ele>
        <time>2017-07-27T08:13:26Z</time>
      </trkpt>
      <trkpt lat="44.9610400" lon="7.0499040">
        <ele>1231.0</ele>
        <time>2017-07-27T08:13:27Z</time>
      </trkpt>
      <trkpt lat="44.9610870" lon="7.0498260">
        <ele>1231.8</ele>
        <time>2017-07-27T08:13:30Z</time>
      </trkpt>
      <trkpt lat="44.9611350" lon="7.0497490">
        <ele>1232.6</ele>
        <time>2017-07-27T08:13:33Z</time>
      </trkpt>
      <trkpt lat="44.9611520" lon="7.0497230">
        <ele>1233.0</ele>
        <time>2017-07-27T08:13:34Z</time>
      </trkpt>
      <trkpt lat="44.9612190" lon="7.0496100">
        <ele>1234.0</ele>
        <time>2017-07-27T08:13:38Z</time>
      </trkpt>
      <trkpt lat="44.9612540" lon="7.0495540">
        <ele>1234.4</ele>
        <time>2017-07-27T08:13:40Z</time>
      </trkpt>
      <trkpt lat="44.9613340" lon="7.0494560">
        <ele>1235.2</ele>
        <time>2017-07-27T08:13:44Z</time>
      </trkpt>
      <trkpt lat="44.9613790" lon="7.0493880">
        <ele>1236.2</ele>
        <time>2017-07-27T08:13:47Z</time>
      </trkpt>
      <trkpt lat="44.9613920" lon="7.0493640">
        <ele>1236.4</ele>
        <time>2017-07-27T08:13:48Z</time>
      </trkpt>
      <trkpt lat="44.9614500" lon="7.0492490">
        <ele>1237.6</ele>
        <time>2017-07-27T08:13:52Z</time>
      </trkpt>
      <trkpt lat="44.9614970" lon="7.0491110">
        <ele>1238.4</ele>
        <time>2017-07-27T08:13:56Z</time>
      </trkpt>
      <trkpt lat="44.9615250" lon="7.0490490">
        <ele>1238.8</ele>
        <time>2017-07-27T08:13:58Z</time>
      </trkpt>
      <trkpt lat="44.9616250" lon="7.0489030">
        <ele>1240.0</ele>
        <time>2017-07-27T08:14:03Z</time>
      </trkpt>
      <trkpt lat="44.9616510" lon="7.0488730">
        <ele>1240.2</ele>
        <time>2017-07-27T08:14:04Z</time>
      </trkpt>
      <trkpt lat="44.9617550" lon="7.0487680">
        <ele>1241.0</ele>
        <time>2017-07-27T08:14:08Z</time>
      </trkpt>
      <trkpt lat="44.9618240" lon="7.0486750">
        <ele>1241.6</ele>
        <time>2017-07-27T08:14:11Z</time>
      </trkpt>
      <trkpt lat="44.9618660" lon="7.0485450">
        <ele>1242.2</ele>
        <time>2017-07-27T08:14:14Z</time>
      </trkpt>
      <trkpt lat="44.9618740" lon="7.0484500">
        <ele>1242.6</ele>
        <time>2017-07-27T08:14:16Z</time>
      </trkpt>
      <trkpt lat="44.9618580" lon="7.0482640">
        <ele>1243.4</ele>
        <time>2017-07-27T08:14:20Z</time>
      </trkpt>
      <trkpt lat="44.9618370" lon="7.0481690">
        <ele>1243.8</ele>
        <time>2017-07-27T08:14:22Z</time>
      </trkpt>
      <trkpt lat="44.9617680" lon="7.0479380">
        <ele>1244.4</ele>
        <time>2017-07-27T08:14:27Z</time>
      </trkpt>
      <trkpt lat="44.9617330" lon="7.0478060">
        <ele>1244.8</ele>
        <time>2017-07-27T08:14:30Z</time>
      </trkpt>
      <trkpt lat="44.9616690" lon="7.0475660">
        <ele>1245.4</ele>
        <time>2017-07-27T08:14:35Z</time>
      </trkpt>
      <trkpt lat="44.9616190" lon="7.0473530">
        <ele>1246.0</ele>
        <time>2017-07-27T08:14:39Z</time>
      </trkpt>
      <trkpt lat="44.9615390" lon="7.0470140">
        <ele>1246.6</ele>
        <time>2017-07-27T08:14:45Z</time>
      </trkpt>
      <trkpt lat="44.9614960" lon="7.0469190">
        <ele>1246.8</ele>
        <time>2017-07-27T08:14:47Z</time>
      </trkpt>
      <trkpt lat="44.9613910" lon="7.0468210">
        <ele>1247.6</ele>
        <time>2017-07-27T08:14:51Z</time>
      </trkpt>
      <trkpt lat="44.9613640" lon="7.0467710">
        <ele>1248.2</ele>
        <time>2017-07-27T08:15:03Z</time>
      </trkpt>
      <trkpt lat="44.9613490" lon="7.0467480">
        <ele>1248.2</ele>
        <time>2017-07-27T08:15:04Z</time>
      </trkpt>
      <trkpt lat="44.9612940" lon="7.0467050">
        <ele>1248.4</ele>
        <time>2017-07-27T08:15:06Z</time>
      </trkpt>
      <trkpt lat="44.9612010" lon="7.0466310">
        <ele>1248.6</ele>
        <time>2017-07-27T08:15:09Z</time>
      </trkpt>
      <trkpt lat="44.9611680" lon="7.0466010">
        <ele>1248.6</ele>
        <time>2017-07-27T08:15:10Z</time>
      </trkpt>
      <trkpt lat="44.9610770" lon="7.0464500">
        <ele>1249.0</ele>
        <time>2017-07-27T08:15:14Z</time>
      </trkpt>
      <trkpt lat="44.9610630" lon="7.0463130">
        <ele>1249.8</ele>
        <time>2017-07-27T08:15:17Z</time>
      </trkpt>
      <trkpt lat="44.9610830" lon="7.0462360">
        <ele>1250.4</ele>
        <time>2017-07-27T08:15:19Z</time>
      </trkpt>
      <trkpt lat="44.9611050" lon="7.0461650">
        <ele>1251.0</ele>
        <time>2017-07-27T08:15:21Z</time>
      </trkpt>
      <trkpt lat="44.9611650" lon="7.0460900">
        <ele>1252.4</ele>
        <time>2017-07-27T08:15:24Z</time>
      </trkpt>
      <trkpt lat="44.9612140" lon="7.0460710">
        <ele>1253.8</ele>
        <time>2017-07-27T08:15:26Z</time>
      </trkpt>
      <trkpt lat="44.9612800" lon="7.0460340">
        <ele>1254.8</ele>
        <time>2017-07-27T08:15:29Z</time>
      </trkpt>
      <trkpt lat="44.9613030" lon="7.0460180">
        <ele>1255.2</ele>
        <time>2017-07-27T08:15:30Z</time>
      </trkpt>
      <trkpt lat="44.9613690" lon="7.0459760">
        <ele>1256.2</ele>
        <time>2017-07-27T08:15:33Z</time>
      </trkpt>
      <trkpt lat="44.9614380" lon="7.0459370">
        <ele>1257.4</ele>
        <time>2017-07-27T08:15:36Z</time>
      </trkpt>
      <trkpt lat="44.9615030" lon="7.0458950">
        <ele>1258.6</ele>
        <time>2017-07-27T08:15:39Z</time>
      </trkpt>
      <trkpt lat="44.9615580" lon="7.0458550">
        <ele>1259.6</ele>
        <time>2017-07-27T08:15:42Z</time>
      </trkpt>
      <trkpt lat="44.9615990" lon="7.0458390">
        <ele>1260.4</ele>
        <time>2017-07-27T08:15:44Z</time>
      </trkpt>
      <trkpt lat="44.9616190" lon="7.0458290">
        <ele>1260.6</ele>
        <time>2017-07-27T08:15:45Z</time>
      </trkpt>
      <trkpt lat="44.9616710" lon="7.0457880">
        <ele>1261.8</ele>
        <time>2017-07-27T08:15:48Z</time>
      </trkpt>
      <trkpt lat="44.9617200" lon="7.0457610">
        <ele>1263.2</ele>
        <time>2017-07-27T08:15:51Z</time>
      </trkpt>
      <trkpt lat="44.9617570" lon="7.0457530">
        <ele>1261.6</ele>
        <time>2017-07-27T08:15:54Z</time>
      </trkpt>
      <trkpt lat="44.9617850" lon="7.0457510">
        <ele>1263.0</ele>
        <time>2017-07-27T08:15:56Z</time>
      </trkpt>
      <trkpt lat="44.9618010" lon="7.0457430">
        <ele>1265.2</ele>
        <time>2017-07-27T08:15:57Z</time>
      </trkpt>
      <trkpt lat="44.9618570" lon="7.0456830">
        <ele>1266.4</ele>
        <time>2017-07-27T08:16:02Z</time>
      </trkpt>
      <trkpt lat="44.9618720" lon="7.0456450">
        <ele>1267.0</ele>
        <time>2017-07-27T08:16:04Z</time>
      </trkpt>
      <trkpt lat="44.9618870" lon="7.0455800">
        <ele>1267.4</ele>
        <time>2017-07-27T08:16:06Z</time>
      </trkpt>
      <trkpt lat="44.9618880" lon="7.0455470">
        <ele>1267.8</ele>
        <time>2017-07-27T08:16:07Z</time>
      </trkpt>
      <trkpt lat="44.9618780" lon="7.0454930">
        <ele>1268.0</ele>
        <time>2017-07-27T08:16:09Z</time>
      </trkpt>
      <trkpt lat="44.9618540" lon="7.0454100">
        <ele>1268.8</ele>
        <time>2017-07-27T08:16:12Z</time>
      </trkpt>
      <trkpt lat="44.9618080" lon="7.0453120">
        <ele>1270.0</ele>
        <time>2017-07-27T08:16:16Z</time>
      </trkpt>
      <trkpt lat="44.9617300" lon="7.0452780">
        <ele>1271.0</ele>
        <time>2017-07-27T08:16:21Z</time>
      </trkpt>
      <trkpt lat="44.9617130" lon="7.0452670">
        <ele>1271.2</ele>
        <time>2017-07-27T08:16:22Z</time>
      </trkpt>
      <trkpt lat="44.9616500" lon="7.0452050">
        <ele>1272.4</ele>
        <time>2017-07-27T08:16:27Z</time>
      </trkpt>
      <trkpt lat="44.9616390" lon="7.0451890">
        <ele>1272.6</ele>
        <time>2017-07-27T08:16:28Z</time>
      </trkpt>
      <trkpt lat="44.9616010" lon="7.0451440">
        <ele>1273.4</ele>
        <time>2017-07-27T08:16:31Z</time>
      </trkpt>
      <trkpt lat="44.9615610" lon="7.0450870">
        <ele>1274.2</ele>
        <time>2017-07-27T08:16:34Z</time>
      </trkpt>
      <trkpt lat="44.9615480" lon="7.0450680">
        <ele>1274.4</ele>
        <time>2017-07-27T08:16:35Z</time>
      </trkpt>
      <trkpt lat="44.9614790" lon="7.0450080">
        <ele>1275.6</ele>
        <time>2017-07-27T08:16:39Z</time>
      </trkpt>
      <trkpt lat="44.9614690" lon="7.0449840">
        <ele>1275.8</ele>
        <time>2017-07-27T08:16:40Z</time>
      </trkpt>
      <trkpt lat="44.9614090" lon="7.0449550">
        <ele>1276.8</ele>
        <time>2017-07-27T08:16:43Z</time>
      </trkpt>
      <trkpt lat="44.9613570" lon="7.0449230">
        <ele>1277.6</ele>
        <time>2017-07-27T08:16:46Z</time>
      </trkpt>
      <trkpt lat="44.9613220" lon="7.0448990">
        <ele>1278.0</ele>
        <time>2017-07-27T08:16:48Z</time>
      </trkpt>
      <trkpt lat="44.9612630" lon="7.0448570">
        <ele>1279.2</ele>
        <time>2017-07-27T08:16:52Z</time>
      </trkpt>
      <trkpt lat="44.9612480" lon="7.0448450">
        <ele>1279.4</ele>
        <time>2017-07-27T08:16:53Z</time>
      </trkpt>
      <trkpt lat="44.9612330" lon="7.0447780">
        <ele>1280.2</ele>
        <time>2017-07-27T08:16:56Z</time>
      </trkpt>
      <trkpt lat="44.9612490" lon="7.0447250">
        <ele>1280.6</ele>
        <time>2017-07-27T08:16:58Z</time>
      </trkpt>
      <trkpt lat="44.9612990" lon="7.0446710">
        <ele>1281.6</ele>
        <time>2017-07-27T08:17:02Z</time>
      </trkpt>
      <trkpt lat="44.9613180" lon="7.0446680">
        <ele>1281.8</ele>
        <time>2017-07-27T08:17:03Z</time>
      </trkpt>
      <trkpt lat="44.9613370" lon="7.0446660">
        <ele>1282.0</ele>
        <time>2017-07-27T08:17:04Z</time>
      </trkpt>
      <trkpt lat="44.9614220" lon="7.0446590">
        <ele>1282.6</ele>
        <time>2017-07-27T08:17:08Z</time>
      </trkpt>
      <trkpt lat="44.9614610" lon="7.0446690">
        <ele>1283.0</ele>
        <time>2017-07-27T08:17:10Z</time>
      </trkpt>
      <trkpt lat="44.9615220" lon="7.0446780">
        <ele>1283.8</ele>
        <time>2017-07-27T08:17:13Z</time>
      </trkpt>
      <trkpt lat="44.9616230" lon="7.0446700">
        <ele>1284.8</ele>
        <time>2017-07-27T08:17:18Z</time>
      </trkpt>
      <trkpt lat="44.9616940" lon="7.0446920">
        <ele>1286.0</ele>
        <time>2017-07-27T08:17:22Z</time>
      </trkpt>
      <trkpt lat="44.9617330" lon="7.0447000">
        <ele>1286.6</ele>
        <time>2017-07-27T08:17:25Z</time>
      </trkpt>
      <trkpt lat="44.9617340" lon="7.0446790">
        <ele>1287.0</ele>
        <time>2017-07-27T08:17:26Z</time>
      </trkpt>
      <trkpt lat="44.9617300" lon="7.0446510">
        <ele>1287.4</ele>
        <time>2017-07-27T08:17:27Z</time>
      </trkpt>
      <trkpt lat="44.9617240" lon="7.0446260">
        <ele>1287.6</ele>
        <time>2017-07-27T08:17:28Z</time>
      </trkpt>
      <trkpt lat="44.9617070" lon="7.0445820">
        <ele>1288.2</ele>
        <time>2017-07-27T08:17:30Z</time>
      </trkpt>
      <trkpt lat="44.9616820" lon="7.0445530">
        <ele>1288.6</ele>
        <time>2017-07-27T08:17:32Z</time>
      </trkpt>
      <trkpt lat="44.9616570" lon="7.0445180">
        <ele>1289.4</ele>
        <time>2017-07-27T08:17:34Z</time>
      </trkpt>
      <trkpt lat="44.9616460" lon="7.0445000">
        <ele>1289.6</ele>
        <time>2017-07-27T08:17:35Z</time>
      </trkpt>
      <trkpt lat="44.9616040" lon="7.0444130">
        <ele>1291.0</ele>
        <time>2017-07-27T08:17:40Z</time>
      </trkpt>
      <trkpt lat="44.9615930" lon="7.0443910">
        <ele>1291.2</ele>
        <time>2017-07-27T08:17:41Z</time>
      </trkpt>
      <trkpt lat="44.9615580" lon="7.0443320">
        <ele>1292.0</ele>
        <time>2017-07-27T08:17:44Z</time>
      </trkpt>
      <trkpt lat="44.9615210" lon="7.0442780">
        <ele>1292.8</ele>
        <time>2017-07-27T08:17:47Z</time>
      </trkpt>
      <trkpt lat="44.9615090" lon="7.0442590">
        <ele>1293.2</ele>
        <time>2017-07-27T08:17:48Z</time>
      </trkpt>
      <trkpt lat="44.9614780" lon="7.0441990">
        <ele>1294.4</ele>
        <time>2017-07-27T08:17:51Z</time>
      </trkpt>
      <trkpt lat="44.9614440" lon="7.0441220">
        <ele>1295.2</ele>
        <time>2017-07-27T08:17:55Z</time>
      </trkpt>
      <trkpt lat="44.9614420" lon="7.0441010">
        <ele>1295.6</ele>
        <time>2017-07-27T08:17:56Z</time>
      </trkpt>
      <trkpt lat="44.9614050" lon="7.0440110">
        <ele>1296.8</ele>
        <time>2017-07-27T08:18:01Z</time>
      </trkpt>
      <trkpt lat="44.9614120" lon="7.0438990">
        <ele>1297.8</ele>
        <time>2017-07-27T08:18:05Z</time>
      </trkpt>
      <trkpt lat="44.9614400" lon="7.0438420">
        <ele>1298.4</ele>
        <time>2017-07-27T08:18:07Z</time>
      </trkpt>
      <trkpt lat="44.9614700" lon="7.0437770">
        <ele>1299.0</ele>
        <time>2017-07-27T08:18:09Z</time>
      </trkpt>
      <trkpt lat="44.9615470" lon="7.0436190">
        <ele>1300.2</ele>
        <time>2017-07-27T08:18:14Z</time>
      </trkpt>
      <trkpt lat="44.9616480" lon="7.0434830">
        <ele>1301.4</ele>
        <time>2017-07-27T08:18:19Z</time>
      </trkpt>
      <trkpt lat="44.9617000" lon="7.0434420">
        <ele>1301.6</ele>
        <time>2017-07-27T08:18:21Z</time>
      </trkpt>
      <trkpt lat="44.9617820" lon="7.0433910">
        <ele>1302.4</ele>
        <time>2017-07-27T08:18:24Z</time>
      </trkpt>
      <trkpt lat="44.9618710" lon="7.0433470">
        <ele>1303.0</ele>
        <time>2017-07-27T08:18:28Z</time>
      </trkpt>
      <trkpt lat="44.9619170" lon="7.0433330">
        <ele>1303.4</ele>
        <time>2017-07-27T08:18:30Z</time>
      </trkpt>
      <trkpt lat="44.9620180" lon="7.0432670">
        <ele>1304.6</ele>
        <time>2017-07-27T08:18:35Z</time>
      </trkpt>
      <trkpt lat="44.9620400" lon="7.0432480">
        <ele>1304.8</ele>
        <time>2017-07-27T08:18:36Z</time>
      </trkpt>
      <trkpt lat="44.9621120" lon="7.0431760">
        <ele>1305.8</ele>
        <time>2017-07-27T08:18:40Z</time>
      </trkpt>
      <trkpt lat="44.9621660" lon="7.0431210">
        <ele>1306.6</ele>
        <time>2017-07-27T08:18:43Z</time>
      </trkpt>
      <trkpt lat="44.9621990" lon="7.0430710">
        <ele>1307.2</ele>
        <time>2017-07-27T08:18:45Z</time>
      </trkpt>
      <trkpt lat="44.9622360" lon="7.0429760">
        <ele>1308.4</ele>
        <time>2017-07-27T08:18:49Z</time>
      </trkpt>
      <trkpt lat="44.9622460" lon="7.0429550">
        <ele>1308.6</ele>
        <time>2017-07-27T08:18:50Z</time>
      </trkpt>
      <trkpt lat="44.9622650" lon="7.0428820">
        <ele>1309.4</ele>
        <time>2017-07-27T08:18:53Z</time>
      </trkpt>
      <trkpt lat="44.9622930" lon="7.0428070">
        <ele>1310.2</ele>
        <time>2017-07-27T08:18:56Z</time>
      </trkpt>
      <trkpt lat="44.9623010" lon="7.0427820">
        <ele>1310.6</ele>
        <time>2017-07-27T08:18:57Z</time>
      </trkpt>
      <trkpt lat="44.9623280" lon="7.0426780">
        <ele>1311.6</ele>
        <time>2017-07-27T08:19:01Z</time>
      </trkpt>
      <trkpt lat="44.9623450" lon="7.0426010">
        <ele>1313.0</ele>
        <time>2017-07-27T08:19:04Z</time>
      </trkpt>
      <trkpt lat="44.9623820" lon="7.0424590">
        <ele>1314.2</ele>
        <time>2017-07-27T08:19:09Z</time>
      </trkpt>
      <trkpt lat="44.9623870" lon="7.0423860">
        <ele>1314.8</ele>
        <time>2017-07-27T08:19:11Z</time>
      </trkpt>
      <trkpt lat="44.9623980" lon="7.0423080">
        <ele>1315.4</ele>
        <time>2017-07-27T08:19:13Z</time>
      </trkpt>
      <trkpt lat="44.9624540" lon="7.0421310">
        <ele>1316.4</ele>
        <time>2017-07-27T08:19:17Z</time>
      </trkpt>
      <trkpt lat="44.9624640" lon="7.0420870">
        <ele>1316.6</ele>
        <time>2017-07-27T08:19:18Z</time>
      </trkpt>
      <trkpt lat="44.9624560" lon="7.0419300">
        <ele>1317.0</ele>
        <time>2017-07-27T08:19:21Z</time>
      </trkpt>
      <trkpt lat="44.9624360" lon="7.0416830">
        <ele>1317.8</ele>
        <time>2017-07-27T08:19:25Z</time>
      </trkpt>
      <trkpt lat="44.9624420" lon="7.0414800">
        <ele>1318.0</ele>
        <time>2017-07-27T08:19:28Z</time>
      </trkpt>
      <trkpt lat="44.9624480" lon="7.0414110">
        <ele>1318.2</ele>
        <time>2017-07-27T08:19:29Z</time>
      </trkpt>
      <trkpt lat="44.9625070" lon="7.0411620">
        <ele>1318.6</ele>
        <time>2017-07-27T08:19:33Z</time>
      </trkpt>
      <trkpt lat="44.9625210" lon="7.0411110">
        <ele>1318.8</ele>
        <time>2017-07-27T08:19:34Z</time>
      </trkpt>
      <trkpt lat="44.9625520" lon="7.0409420">
        <ele>1319.4</ele>
        <time>2017-07-27T08:19:38Z</time>
      </trkpt>
      <trkpt lat="44.9625600" lon="7.0408400">
        <ele>1320.0</ele>
        <time>2017-07-27T08:19:41Z</time>
      </trkpt>
      <trkpt lat="44.9625790" lon="7.0406810">
        <ele>1321.0</ele>
        <time>2017-07-27T08:19:46Z</time>
      </trkpt>
      <trkpt lat="44.9626000" lon="7.0404890">
        <ele>1322.6</ele>
        <time>2017-07-27T08:19:51Z</time>
      </trkpt>
      <trkpt lat="44.9626050" lon="7.0404050">
        <ele>1323.4</ele>
        <time>2017-07-27T08:19:53Z</time>
      </trkpt>
      <trkpt lat="44.9626050" lon="7.0403650">
        <ele>1323.8</ele>
        <time>2017-07-27T08:19:54Z</time>
      </trkpt>
      <trkpt lat="44.9626170" lon="7.0401900">
        <ele>1324.8</ele>
        <time>2017-07-27T08:19:58Z</time>
      </trkpt>
      <trkpt lat="44.9626270" lon="7.0401410">
        <ele>1325.2</ele>
        <time>2017-07-27T08:19:59Z</time>
      </trkpt>
      <trkpt lat="44.9626160" lon="7.0399420">
        <ele>1326.0</ele>
        <time>2017-07-27T08:20:03Z</time>
      </trkpt>
      <trkpt lat="44.9626110" lon="7.0398840">
        <ele>1326.2</ele>
        <time>2017-07-27T08:20:04Z</time>
      </trkpt>
      <trkpt lat="44.9626100" lon="7.0398240">
        <ele>1326.2</ele>
        <time>2017-07-27T08:20:05Z</time>
      </trkpt>
      <trkpt lat="44.9626530" lon="7.0395820">
        <ele>1326.8</ele>
        <time>2017-07-27T08:20:09Z</time>
      </trkpt>
      <trkpt lat="44.9626840" lon="7.0395160">
        <ele>1327.0</ele>
        <time>2017-07-27T08:20:10Z</time>
      </trkpt>
      <trkpt lat="44.9627810" lon="7.0392080">
        <ele>1327.6</ele>
        <time>2017-07-27T08:20:15Z</time>
      </trkpt>
      <trkpt lat="44.9627930" lon="7.0391480">
        <ele>1327.8</ele>
        <time>2017-07-27T08:20:16Z</time>
      </trkpt>
      <trkpt lat="44.9628380" lon="7.0388920">
        <ele>1322.2</ele>
        <time>2017-07-27T08:20:20Z</time>
      </trkpt>
      <trkpt lat="44.9628810" lon="7.0387090">
        <ele>1327.6</ele>
        <time>2017-07-27T08:20:23Z</time>
      </trkpt>
      <trkpt lat="44.9629570" lon="7.0384130">
        <ele>1328.8</ele>
        <time>2017-07-27T08:20:28Z</time>
      </trkpt>
      <trkpt lat="44.9629730" lon="7.0383530">
        <ele>1329.0</ele>
        <time>2017-07-27T08:20:29Z</time>
      </trkpt>
      <trkpt lat="44.9630500" lon="7.0379040">
        <ele>1329.8</ele>
        <time>2017-07-27T08:20:36Z</time>
      </trkpt>
      <trkpt lat="44.9630600" lon="7.0375930">
        <ele>1331.0</ele>
        <time>2017-07-27T08:20:41Z</time>
      </trkpt>
      <trkpt lat="44.9630710" lon="7.0375370">
        <ele>1331.2</ele>
        <time>2017-07-27T08:20:42Z</time>
      </trkpt>
      <trkpt lat="44.9631500" lon="7.0373820">
        <ele>1331.8</ele>
        <time>2017-07-27T08:20:45Z</time>
      </trkpt>
      <trkpt lat="44.9632290" lon="7.0372960">
        <ele>1332.2</ele>
        <time>2017-07-27T08:20:47Z</time>
      </trkpt>
      <trkpt lat="44.9633190" lon="7.0371440">
        <ele>1333.4</ele>
        <time>2017-07-27T08:20:51Z</time>
      </trkpt>
      <trkpt lat="44.9633650" lon="7.0370790">
        <ele>1334.2</ele>
        <time>2017-07-27T08:20:53Z</time>
      </trkpt>
      <trkpt lat="44.9633860" lon="7.0370490">
        <ele>1334.6</ele>
        <time>2017-07-27T08:20:54Z</time>
      </trkpt>
      <trkpt lat="44.9634460" lon="7.0369550">
        <ele>1335.8</ele>
        <time>2017-07-27T08:20:57Z</time>
      </trkpt>
      <trkpt lat="44.9635060" lon="7.0368540">
        <ele>1337.0</ele>
        <time>2017-07-27T08:21:00Z</time>
      </trkpt>
      <trkpt lat="44.9635610" lon="7.0367410">
        <ele>1338.2</ele>
        <time>2017-07-27T08:21:03Z</time>
      </trkpt>
      <trkpt lat="44.9636140" lon="7.0366470">
        <ele>1339.4</ele>
        <time>2017-07-27T08:21:06Z</time>
      </trkpt>
      <trkpt lat="44.9636590" lon="7.0365690">
        <ele>1340.6</ele>
        <time>2017-07-27T08:21:09Z</time>
      </trkpt>
      <trkpt lat="44.9636650" lon="7.0365240">
        <ele>1341.0</ele>
        <time>2017-07-27T08:21:10Z</time>
      </trkpt>
      <trkpt lat="44.9636910" lon="7.0364400">
        <ele>1341.8</ele>
        <time>2017-07-27T08:21:13Z</time>
      </trkpt>
      <trkpt lat="44.9637340" lon="7.0363590">
        <ele>1343.0</ele>
        <time>2017-07-27T08:21:16Z</time>
      </trkpt>
      <trkpt lat="44.9637520" lon="7.0363300">
        <ele>1343.2</ele>
        <time>2017-07-27T08:21:17Z</time>
      </trkpt>
      <trkpt lat="44.9638140" lon="7.0362240">
        <ele>1344.0</ele>
        <time>2017-07-27T08:21:21Z</time>
      </trkpt>
      <trkpt lat="44.9638800" lon="7.0361280">
        <ele>1345.0</ele>
        <time>2017-07-27T08:21:25Z</time>
      </trkpt>
      <trkpt lat="44.9638960" lon="7.0361040">
        <ele>1345.4</ele>
        <time>2017-07-27T08:21:26Z</time>
      </trkpt>
      <trkpt lat="44.9639640" lon="7.0360050">
        <ele>1346.4</ele>
        <time>2017-07-27T08:21:30Z</time>
      </trkpt>
      <trkpt lat="44.9640490" lon="7.0358590">
        <ele>1347.6</ele>
        <time>2017-07-27T08:21:35Z</time>
      </trkpt>
      <trkpt lat="44.9641310" lon="7.0357430">
        <ele>1348.8</ele>
        <time>2017-07-27T08:21:40Z</time>
      </trkpt>
      <trkpt lat="44.9641800" lon="7.0356640">
        <ele>1349.4</ele>
        <time>2017-07-27T08:21:43Z</time>
      </trkpt>
      <trkpt lat="44.9642360" lon="7.0355590">
        <ele>1350.0</ele>
        <time>2017-07-27T08:21:46Z</time>
      </trkpt>
      <trkpt lat="44.9643120" lon="7.0354430">
        <ele>1350.8</ele>
        <time>2017-07-27T08:21:50Z</time>
      </trkpt>
      <trkpt lat="44.9643290" lon="7.0354100">
        <ele>1351.4</ele>
        <time>2017-07-27T08:21:51Z</time>
      </trkpt>
      <trkpt lat="44.9643650" lon="7.0353720">
        <ele>1351.8</ele>
        <time>2017-07-27T08:21:54Z</time>
      </trkpt>
      <trkpt lat="44.9644310" lon="7.0353030">
        <ele>1352.6</ele>
        <time>2017-07-27T08:21:57Z</time>
      </trkpt>
      <trkpt lat="44.9645130" lon="7.0351970">
        <ele>1353.2</ele>
        <time>2017-07-27T08:22:01Z</time>
      </trkpt>
      <trkpt lat="44.9645410" lon="7.0351310">
        <ele>1353.6</ele>
        <time>2017-07-27T08:22:03Z</time>
      </trkpt>
      <trkpt lat="44.9646010" lon="7.0349530">
        <ele>1354.4</ele>
        <time>2017-07-27T08:22:08Z</time>
      </trkpt>
      <trkpt lat="44.9646060" lon="7.0349200">
        <ele>1354.6</ele>
        <time>2017-07-27T08:22:09Z</time>
      </trkpt>
      <trkpt lat="44.9646460" lon="7.0347280">
        <ele>1355.8</ele>
        <time>2017-07-27T08:22:15Z</time>
      </trkpt>
      <trkpt lat="44.9646500" lon="7.0346230">
        <ele>1356.8</ele>
        <time>2017-07-27T08:22:18Z</time>
      </trkpt>
      <trkpt lat="44.9646600" lon="7.0344700">
        <ele>1357.8</ele>
        <time>2017-07-27T08:22:22Z</time>
      </trkpt>
      <trkpt lat="44.9646740" lon="7.0344250">
        <ele>1358.0</ele>
        <time>2017-07-27T08:22:23Z</time>
      </trkpt>
      <trkpt lat="44.9647530" lon="7.0342320">
        <ele>1359.4</ele>
        <time>2017-07-27T08:22:28Z</time>
      </trkpt>
      <trkpt lat="44.9648680" lon="7.0341000">
        <ele>1360.6</ele>
        <time>2017-07-27T08:22:33Z</time>
      </trkpt>
      <trkpt lat="44.9648870" lon="7.0340790">
        <ele>1360.8</ele>
        <time>2017-07-27T08:22:34Z</time>
      </trkpt>
      <trkpt lat="44.9649390" lon="7.0339730">
        <ele>1361.8</ele>
        <time>2017-07-27T08:22:37Z</time>
      </trkpt>
      <trkpt lat="44.9650030" lon="7.0338360">
        <ele>1363.0</ele>
        <time>2017-07-27T08:22:41Z</time>
      </trkpt>
      <trkpt lat="44.9650610" lon="7.0336780">
        <ele>1364.0</ele>
        <time>2017-07-27T08:22:46Z</time>
      </trkpt>
      <trkpt lat="44.9650670" lon="7.0336050">
        <ele>1364.6</ele>
        <time>2017-07-27T08:22:48Z</time>
      </trkpt>
      <trkpt lat="44.9650630" lon="7.0335250">
        <ele>1365.2</ele>
        <time>2017-07-27T08:22:50Z</time>
      </trkpt>
      <trkpt lat="44.9650370" lon="7.0333750">
        <ele>1366.2</ele>
        <time>2017-07-27T08:22:54Z</time>
      </trkpt>
      <trkpt lat="44.9650310" lon="7.0333400">
        <ele>1366.6</ele>
        <time>2017-07-27T08:22:55Z</time>
      </trkpt>
      <trkpt lat="44.9649960" lon="7.0332420">
        <ele>1367.4</ele>
        <time>2017-07-27T08:22:58Z</time>
      </trkpt>
      <trkpt lat="44.9649310" lon="7.0331090">
        <ele>1368.4</ele>
        <time>2017-07-27T08:23:02Z</time>
      </trkpt>
      <trkpt lat="44.9649180" lon="7.0330760">
        <ele>1368.6</ele>
        <time>2017-07-27T08:23:03Z</time>
      </trkpt>
      <trkpt lat="44.9648780" lon="7.0329760">
        <ele>1369.6</ele>
        <time>2017-07-27T08:23:06Z</time>
      </trkpt>
      <trkpt lat="44.9648160" lon="7.0328110">
        <ele>1370.8</ele>
        <time>2017-07-27T08:23:11Z</time>
      </trkpt>
      <trkpt lat="44.9648120" lon="7.0327740">
        <ele>1371.0</ele>
        <time>2017-07-27T08:23:12Z</time>
      </trkpt>
      <trkpt lat="44.9648010" lon="7.0326640">
        <ele>1371.8</ele>
        <time>2017-07-27T08:23:15Z</time>
      </trkpt>
      <trkpt lat="44.9647890" lon="7.0324910">
        <ele>1372.8</ele>
        <time>2017-07-27T08:23:20Z</time>
      </trkpt>
      <trkpt lat="44.9647870" lon="7.0323460">
        <ele>1374.0</ele>
        <time>2017-07-27T08:23:24Z</time>
      </trkpt>
      <trkpt lat="44.9648170" lon="7.0322680">
        <ele>1374.6</ele>
        <time>2017-07-27T08:23:26Z</time>
      </trkpt>
      <trkpt lat="44.9648590" lon="7.0322090">
        <ele>1375.6</ele>
        <time>2017-07-27T08:23:28Z</time>
      </trkpt>
      <trkpt lat="44.9649390" lon="7.0321440">
        <ele>1376.2</ele>
        <time>2017-07-27T08:23:31Z</time>
      </trkpt>
      <trkpt lat="44.9649640" lon="7.0321040">
        <ele>1376.8</ele>
        <time>2017-07-27T08:23:33Z</time>
      </trkpt>
      <trkpt lat="44.9649760" lon="7.0321140">
        <ele>1377.2</ele>
        <time>2017-07-27T08:26:52Z</time>
      </trkpt>
      <trkpt lat="44.9649890" lon="7.0321160">
        <ele>1377.2</ele>
        <time>2017-07-27T08:26:53Z</time>
      </trkpt>
      <trkpt lat="44.9650130" lon="7.0321380">
        <ele>1377.4</ele>
        <time>2017-07-27T08:26:55Z</time>
      </trkpt>
      <trkpt lat="44.9650480" lon="7.0321620">
        <ele>1377.8</ele>
        <time>2017-07-27T08:26:59Z</time>
      </trkpt>
      <trkpt lat="44.9650650" lon="7.0321690">
        <ele>1378.2</ele>
        <time>2017-07-27T08:27:01Z</time>
      </trkpt>
      <trkpt lat="44.9650990" lon="7.0321840">
        <ele>1379.4</ele>
        <time>2017-07-27T08:27:04Z</time>
      </trkpt>
      <trkpt lat="44.9651150" lon="7.0321900">
        <ele>1379.8</ele>
        <time>2017-07-27T08:27:06Z</time>
      </trkpt>
      <trkpt lat="44.9651520" lon="7.0324380">
        <ele>1385.4</ele>
        <time>2017-07-27T08:27:29Z</time>
      </trkpt>
      <trkpt lat="44.9651590" lon="7.0324730">
        <ele>1385.4</ele>
        <time>2017-07-27T08:27:31Z</time>
      </trkpt>
      <trkpt lat="44.9661080" lon="7.0315080">
        <ele>1421.4</ele>
        <time>2017-07-27T08:30:11Z</time>
      </trkpt>
      <trkpt lat="44.9661210" lon="7.0314930">
        <ele>1422.0</ele>
        <time>2017-07-27T08:30:13Z</time>
      </trkpt>
      <trkpt lat="44.9661290" lon="7.0314660">
        <ele>1422.6</ele>
        <time>2017-07-27T08:30:16Z</time>
      </trkpt>
      <trkpt lat="44.9661560" lon="7.0314400">
        <ele>1423.4</ele>
        <time>2017-07-27T08:30:20Z</time>
      </trkpt>
      <trkpt lat="44.9661650" lon="7.0314200">
        <ele>1423.8</ele>
        <time>2017-07-27T08:30:22Z</time>
      </trkpt>
      <trkpt lat="44.9661920" lon="7.0313800">
        <ele>1425.0</ele>
        <time>2017-07-27T08:30:27Z</time>
      </trkpt>
      <trkpt lat="44.9662290" lon="7.0313400">
        <ele>1426.0</ele>
        <time>2017-07-27T08:30:32Z</time>
      </trkpt>
      <trkpt lat="44.9662380" lon="7.0313190">
        <ele>1426.6</ele>
        <time>2017-07-27T08:30:34Z</time>
      </trkpt>
      <trkpt lat="44.9662420" lon="7.0313040">
        <ele>1427.0</ele>
        <time>2017-07-27T08:30:36Z</time>
      </trkpt>
      <trkpt lat="44.9662610" lon="7.0312720">
        <ele>1427.6</ele>
        <time>2017-07-27T08:30:39Z</time>
      </trkpt>
      <trkpt lat="44.9662650" lon="7.0312620">
        <ele>1428.2</ele>
        <time>2017-07-27T08:30:40Z</time>
      </trkpt>
      <trkpt lat="44.9662700" lon="7.0312490">
        <ele>1428.6</ele>
        <time>2017-07-27T08:30:41Z</time>
      </trkpt>
      <trkpt lat="44.9662940" lon="7.0312060">
        <ele>1429.2</ele>
        <time>2017-07-27T08:30:46Z</time>
      </trkpt>
      <trkpt lat="44.9663020" lon="7.0311980">
        <ele>1429.6</ele>
        <time>2017-07-27T08:30:47Z</time>
      </trkpt>
      <trkpt lat="44.9663300" lon="7.0311690">
        <ele>1430.4</ele>
        <time>2017-07-27T08:30:51Z</time>
      </trkpt>
      <trkpt lat="44.9663750" lon="7.0311470">
        <ele>1431.2</ele>
        <time>2017-07-27T08:30:56Z</time>
      </trkpt>
      <trkpt lat="44.9663840" lon="7.0311430">
        <ele>1431.4</ele>
        <time>2017-07-27T08:30:57Z</time>
      </trkpt>
      <trkpt lat="44.9664280" lon="7.0311320">
        <ele>1432.6</ele>
        <time>2017-07-27T08:31:02Z</time>
      </trkpt>
      <trkpt lat="44.9664380" lon="7.0311240">
        <ele>1432.8</ele>
        <time>2017-07-27T08:31:03Z</time>
      </trkpt>
      <trkpt lat="44.9665180" lon="7.0309640">
        <ele>1436.0</ele>
        <time>2017-07-27T08:31:21Z</time>
      </trkpt>
      <trkpt lat="44.9665090" lon="7.0309310">
        <ele>1436.4</ele>
        <time>2017-07-27T08:31:23Z</time>
      </trkpt>
      <trkpt lat="44.9664970" lon="7.0308990">
        <ele>1436.4</ele>
        <time>2017-07-27T08:31:25Z</time>
      </trkpt>
      <trkpt lat="44.9664870" lon="7.0308600">
        <ele>1436.8</ele>
        <time>2017-07-27T08:31:28Z</time>
      </trkpt>
      <trkpt lat="44.9664660" lon="7.0307380">
        <ele>1438.0</ele>
        <time>2017-07-27T08:31:37Z</time>
      </trkpt>
      <trkpt lat="44.9664610" lon="7.0306920">
        <ele>1438.4</ele>
        <time>2017-07-27T08:31:40Z</time>
      </trkpt>
      <trkpt lat="44.9664280" lon="7.0304360">
        <ele>1442.4</ele>
        <time>2017-07-27T08:32:07Z</time>
      </trkpt>
      <trkpt lat="44.9664360" lon="7.0303940">
        <ele>1442.6</ele>
        <time>2017-07-27T08:32:09Z</time>
      </trkpt>
      <trkpt lat="44.9664820" lon="7.0302780">
        <ele>1443.6</ele>
        <time>2017-07-27T08:32:15Z</time>
      </trkpt>
      <trkpt lat="44.9664880" lon="7.0302570">
        <ele>1444.2</ele>
        <time>2017-07-27T08:32:16Z</time>
      </trkpt>
      <trkpt lat="44.9664970" lon="7.0302200">
        <ele>1444.8</ele>
        <time>2017-07-27T08:32:18Z</time>
      </trkpt>
      <trkpt lat="44.9665040" lon="7.0301380">
        <ele>1446.0</ele>
        <time>2017-07-27T08:32:22Z</time>
      </trkpt>
      <trkpt lat="44.9665100" lon="7.0301020">
        <ele>1446.6</ele>
        <time>2017-07-27T08:32:24Z</time>
      </trkpt>
      <trkpt lat="44.9665160" lon="7.0300660">
        <ele>1447.2</ele>
        <time>2017-07-27T08:32:26Z</time>
      </trkpt>
      <trkpt lat="44.9665090" lon="7.0299810">
        <ele>1448.8</ele>
        <time>2017-07-27T08:32:31Z</time>
      </trkpt>
      <trkpt lat="44.9665130" lon="7.0299600">
        <ele>1449.0</ele>
        <time>2017-07-27T08:32:32Z</time>
      </trkpt>
      <trkpt lat="44.9665270" lon="7.0298930">
        <ele>1449.8</ele>
        <time>2017-07-27T08:32:35Z</time>
      </trkpt>
      <trkpt lat="44.9665190" lon="7.0297780">
        <ele>1451.4</ele>
        <time>2017-07-27T08:32:40Z</time>
      </trkpt>
      <trkpt lat="44.9664820" lon="7.0296510">
        <ele>1452.4</ele>
        <time>2017-07-27T08:32:45Z</time>
      </trkpt>
      <trkpt lat="44.9664800" lon="7.0296270">
        <ele>1452.6</ele>
        <time>2017-07-27T08:32:46Z</time>
      </trkpt>
      <trkpt lat="44.9664890" lon="7.0295300">
        <ele>1453.4</ele>
        <time>2017-07-27T08:32:50Z</time>
      </trkpt>
      <trkpt lat="44.9667190" lon="7.0279530">
        <ele>1488.0</ele>
        <time>2017-07-27T08:35:26Z</time>
      </trkpt>
      <trkpt lat="44.9667240" lon="7.0279380">
        <ele>1488.0</ele>
        <time>2017-07-27T08:35:27Z</time>
      </trkpt>
      <trkpt lat="44.9667380" lon="7.0278730">
        <ele>1488.6</ele>
        <time>2017-07-27T08:35:34Z</time>
      </trkpt>
      <trkpt lat="44.9667490" lon="7.0278230">
        <ele>1489.0</ele>
        <time>2017-07-27T08:35:36Z</time>
      </trkpt>
      <trkpt lat="44.9667680" lon="7.0277040">
        <ele>1489.6</ele>
        <time>2017-07-27T08:35:40Z</time>
      </trkpt>
      <trkpt lat="44.9667870" lon="7.0276280">
        <ele>1490.4</ele>
        <time>2017-07-27T08:35:43Z</time>
      </trkpt>
      <trkpt lat="44.9668020" lon="7.0275610">
        <ele>1491.2</ele>
        <time>2017-07-27T08:35:46Z</time>
      </trkpt>
      <trkpt lat="44.9668110" lon="7.0275410">
        <ele>1491.6</ele>
        <time>2017-07-27T08:35:47Z</time>
      </trkpt>
      <trkpt lat="44.9668340" lon="7.0275180">
        <ele>1492.0</ele>
        <time>2017-07-27T08:35:49Z</time>
      </trkpt>
      <trkpt lat="44.9668700" lon="7.0275080">
        <ele>1492.4</ele>
        <time>2017-07-27T08:35:51Z</time>
      </trkpt>
      <trkpt lat="44.9669200" lon="7.0274910">
        <ele>1492.6</ele>
        <time>2017-07-27T08:35:53Z</time>
      </trkpt>
      <trkpt lat="44.9670280" lon="7.0274440">
        <ele>1493.2</ele>
        <time>2017-07-27T08:35:56Z</time>
      </trkpt>
      <trkpt lat="44.9670760" lon="7.0273670">
        <ele>1493.2</ele>
        <time>2017-07-27T08:35:59Z</time>
      </trkpt>
      <trkpt lat="44.9670920" lon="7.0272650">
        <ele>1493.2</ele>
        <time>2017-07-27T08:36:13Z</time>
      </trkpt>
      <trkpt lat="44.9670720" lon="7.0272260">
        <ele>1493.4</ele>
        <time>2017-07-27T08:36:15Z</time>
      </trkpt>
      <trkpt lat="44.9669890" lon="7.0271030">
        <ele>1492.8</ele>
        <time>2017-07-27T08:36:20Z</time>
      </trkpt>
      <trkpt lat="44.9669730" lon="7.0270730">
        <ele>1492.8</ele>
        <time>2017-07-27T08:36:21Z</time>
      </trkpt>
      <trkpt lat="44.9669330" lon="7.0268860">
        <ele>1493.4</ele>
        <time>2017-07-27T08:36:25Z</time>
      </trkpt>
      <trkpt lat="44.9669190" lon="7.0266660">
        <ele>1494.0</ele>
        <time>2017-07-27T08:36:29Z</time>
      </trkpt>
      <trkpt lat="44.9669230" lon="7.0265710">
        <ele>1494.2</ele>
        <time>2017-07-27T08:36:31Z</time>
      </trkpt>
      <trkpt lat="44.9669070" lon="7.0263180">
        <ele>1495.0</ele>
        <time>2017-07-27T08:36:37Z</time>
      </trkpt>
      <trkpt lat="44.9669420" lon="7.0261910">
        <ele>1496.2</ele>
        <time>2017-07-27T08:36:41Z</time>
      </trkpt>
      <trkpt lat="44.9669560" lon="7.0261490">
        <ele>1496.6</ele>
        <time>2017-07-27T08:36:42Z</time>
      </trkpt>
      <trkpt lat="44.9669870" lon="7.0258680">
        <ele>1497.2</ele>
        <time>2017-07-27T08:36:48Z</time>
      </trkpt>
      <trkpt lat="44.9669830" lon="7.0258180">
        <ele>1497.4</ele>
        <time>2017-07-27T08:36:49Z</time>
      </trkpt>
      <trkpt lat="44.9669750" lon="7.0256310">
        <ele>1498.8</ele>
        <time>2017-07-27T08:36:54Z</time>
      </trkpt>
      <trkpt lat="44.9669370" lon="7.0254470">
        <ele>1499.8</ele>
        <time>2017-07-27T08:37:00Z</time>
      </trkpt>
      <trkpt lat="44.9670040" lon="7.0252690">
        <ele>1500.8</ele>
        <time>2017-07-27T08:37:06Z</time>
      </trkpt>
      <trkpt lat="44.9670130" lon="7.0252410">
        <ele>1501.0</ele>
        <time>2017-07-27T08:37:07Z</time>
      </trkpt>
      <trkpt lat="44.9670760" lon="7.0251030">
        <ele>1502.0</ele>
        <time>2017-07-27T08:37:12Z</time>
      </trkpt>
      <trkpt lat="44.9671490" lon="7.0249660">
        <ele>1503.0</ele>
        <time>2017-07-27T08:37:18Z</time>
      </trkpt>
      <trkpt lat="44.9671580" lon="7.0249470">
        <ele>1503.2</ele>
        <time>2017-07-27T08:37:19Z</time>
      </trkpt>
      <trkpt lat="44.9672170" lon="7.0248610">
        <ele>1504.0</ele>
        <time>2017-07-27T08:37:24Z</time>
      </trkpt>
      <trkpt lat="44.9672430" lon="7.0248170">
        <ele>1504.4</ele>
        <time>2017-07-27T08:37:26Z</time>
      </trkpt>
      <trkpt lat="44.9673080" lon="7.0247420">
        <ele>1505.6</ele>
        <time>2017-07-27T08:37:31Z</time>
      </trkpt>
      <trkpt lat="44.9673260" lon="7.0247230">
        <ele>1505.8</ele>
        <time>2017-07-27T08:37:32Z</time>
      </trkpt>
      <trkpt lat="44.9673800" lon="7.0246520">
        <ele>1506.8</ele>
        <time>2017-07-27T08:37:37Z</time>
      </trkpt>
      <trkpt lat="44.9673910" lon="7.0246360">
        <ele>1507.2</ele>
        <time>2017-07-27T08:37:38Z</time>
      </trkpt>
      <trkpt lat="44.9674430" lon="7.0245900">
        <ele>1508.0</ele>
        <time>2017-07-27T08:37:42Z</time>
      </trkpt>
      <trkpt lat="44.9676540" lon="7.0241430">
        <ele>1526.0</ele>
        <time>2017-07-27T08:38:44Z</time>
      </trkpt>
      <trkpt lat="44.9676650" lon="7.0241320">
        <ele>1525.8</ele>
        <time>2017-07-27T08:38:45Z</time>
      </trkpt>
      <trkpt lat="44.9677030" lon="7.0240690">
        <ele>1526.0</ele>
        <time>2017-07-27T08:38:50Z</time>
      </trkpt>
      <trkpt lat="44.9677180" lon="7.0240290">
        <ele>1526.4</ele>
        <time>2017-07-27T08:38:52Z</time>
      </trkpt>
      <trkpt lat="44.9677550" lon="7.0239110">
        <ele>1527.0</ele>
        <time>2017-07-27T08:38:57Z</time>
      </trkpt>
      <trkpt lat="44.9677810" lon="7.0238270">
        <ele>1527.6</ele>
        <time>2017-07-27T08:38:59Z</time>
      </trkpt>
      <trkpt lat="44.9678140" lon="7.0236760">
        <ele>1527.8</ele>
        <time>2017-07-27T08:39:02Z</time>
      </trkpt>
      <trkpt lat="44.9678450" lon="7.0236080">
        <ele>1528.0</ele>
        <time>2017-07-27T08:39:03Z</time>
      </trkpt>
      <trkpt lat="44.9678650" lon="7.0235380">
        <ele>1528.2</ele>
        <time>2017-07-27T08:39:04Z</time>
      </trkpt>
      <trkpt lat="44.9678690" lon="7.0234350">
        <ele>1528.0</ele>
        <time>2017-07-27T08:39:06Z</time>
      </trkpt>
      <trkpt lat="44.9678770" lon="7.0233940">
        <ele>1528.0</ele>
        <time>2017-07-27T08:39:07Z</time>
      </trkpt>
      <trkpt lat="44.9678890" lon="7.0233780">
        <ele>1528.2</ele>
        <time>2017-07-27T08:39:08Z</time>
      </trkpt>
      <trkpt lat="44.9678980" lon="7.0233370">
        <ele>1528.6</ele>
        <time>2017-07-27T08:39:10Z</time>
      </trkpt>
      <trkpt lat="44.9678860" lon="7.0233160">
        <ele>1528.0</ele>
        <time>2017-07-27T08:39:19Z</time>
      </trkpt>
      <trkpt lat="44.9678830" lon="7.0232750">
        <ele>1528.0</ele>
        <time>2017-07-27T08:39:21Z</time>
      </trkpt>
      <trkpt lat="44.9678990" lon="7.0231850">
        <ele>1527.2</ele>
        <time>2017-07-27T08:39:26Z</time>
      </trkpt>
      <trkpt lat="44.9679040" lon="7.0231470">
        <ele>1527.0</ele>
        <time>2017-07-27T08:39:28Z</time>
      </trkpt>
      <trkpt lat="44.9679050" lon="7.0231160">
        <ele>1527.8</ele>
        <time>2017-07-27T08:39:31Z</time>
      </trkpt>
      <trkpt lat="44.9679120" lon="7.0230880">
        <ele>1528.0</ele>
        <time>2017-07-27T08:39:32Z</time>
      </trkpt>
      <trkpt lat="44.9679180" lon="7.0230670">
        <ele>1528.2</ele>
        <time>2017-07-27T08:39:33Z</time>
      </trkpt>
      <trkpt lat="44.9679710" lon="7.0229200">
        <ele>1529.4</ele>
        <time>2017-07-27T08:39:39Z</time>
      </trkpt>
      <trkpt lat="44.9679800" lon="7.0228960">
        <ele>1529.8</ele>
        <time>2017-07-27T08:39:40Z</time>
      </trkpt>
      <trkpt lat="44.9679900" lon="7.0228480">
        <ele>1530.6</ele>
        <time>2017-07-27T08:39:42Z</time>
      </trkpt>
      <trkpt lat="44.9680000" lon="7.0228300">
        <ele>1531.2</ele>
        <time>2017-07-27T08:39:43Z</time>
      </trkpt>
      <trkpt lat="44.9680150" lon="7.0227970">
        <ele>1532.2</ele>
        <time>2017-07-27T08:39:45Z</time>
      </trkpt>
      <trkpt lat="44.9680180" lon="7.0227790">
        <ele>1532.4</ele>
        <time>2017-07-27T08:39:46Z</time>
      </trkpt>
      <trkpt lat="44.9680510" lon="7.0225480">
        <ele>1536.4</ele>
        <time>2017-07-27T08:40:08Z</time>
      </trkpt>
      <trkpt lat="44.9680620" lon="7.0225230">
        <ele>1536.8</ele>
        <time>2017-07-27T08:40:09Z</time>
      </trkpt>
      <trkpt lat="44.9680690" lon="7.0224180">
        <ele>1537.0</ele>
        <time>2017-07-27T08:40:15Z</time>
      </trkpt>
      <trkpt lat="44.9680640" lon="7.0224040">
        <ele>1537.2</ele>
        <time>2017-07-27T08:40:16Z</time>
      </trkpt>
      <trkpt lat="44.9680630" lon="7.0223950">
        <ele>1537.8</ele>
        <time>2017-07-27T08:40:17Z</time>
      </trkpt>
      <trkpt lat="44.9680710" lon="7.0223200">
        <ele>1538.2</ele>
        <time>2017-07-27T08:40:21Z</time>
      </trkpt>
      <trkpt lat="44.9680790" lon="7.0223090">
        <ele>1538.4</ele>
        <time>2017-07-27T08:40:22Z</time>
      </trkpt>
      <trkpt lat="44.9681170" lon="7.0222700">
        <ele>1539.6</ele>
        <time>2017-07-27T08:40:29Z</time>
      </trkpt>
      <trkpt lat="44.9681310" lon="7.0222510">
        <ele>1539.8</ele>
        <time>2017-07-27T08:40:30Z</time>
      </trkpt>
      <trkpt lat="44.9681570" lon="7.0222170">
        <ele>1539.8</ele>
        <time>2017-07-27T08:40:32Z</time>
      </trkpt>
      <trkpt lat="44.9681660" lon="7.0222080">
        <ele>1540.2</ele>
        <time>2017-07-27T08:40:33Z</time>
      </trkpt>
      <trkpt lat="44.9681880" lon="7.0221760">
        <ele>1540.6</ele>
        <time>2017-07-27T08:40:35Z</time>
      </trkpt>
      <trkpt lat="44.9682090" lon="7.0221350">
        <ele>1541.2</ele>
        <time>2017-07-27T08:40:37Z</time>
      </trkpt>
      <trkpt lat="44.9682240" lon="7.0220990">
        <ele>1541.8</ele>
        <time>2017-07-27T08:40:39Z</time>
      </trkpt>
      <trkpt lat="44.9682330" lon="7.0220500">
        <ele>1543.0</ele>
        <time>2017-07-27T08:40:41Z</time>
      </trkpt>
      <trkpt lat="44.9682380" lon="7.0220140">
        <ele>1543.6</ele>
        <time>2017-07-27T08:40:43Z</time>
      </trkpt>
      <trkpt lat="44.9682400" lon="7.0219990">
        <ele>1544.0</ele>
        <time>2017-07-27T08:40:44Z</time>
      </trkpt>
      <trkpt lat="44.9683610" lon="7.0217440">
        <ele>1546.8</ele>
        <time>2017-07-27T08:41:09Z</time>
      </trkpt>
      <trkpt lat="44.9683750" lon="7.0217230">
        <ele>1547.0</ele>
        <time>2017-07-27T08:41:11Z</time>
      </trkpt>
      <trkpt lat="44.9683970" lon="7.0216640">
        <ele>1547.2</ele>
        <time>2017-07-27T08:41:15Z</time>
      </trkpt>
      <trkpt lat="44.9684050" lon="7.0216390">
        <ele>1547.4</ele>
        <time>2017-07-27T08:41:17Z</time>
      </trkpt>
      <trkpt lat="44.9684740" lon="7.0214810">
        <ele>1550.4</ele>
        <time>2017-07-27T08:41:34Z</time>
      </trkpt>
      <trkpt lat="44.9684780" lon="7.0214670">
        <ele>1550.6</ele>
        <time>2017-07-27T08:41:35Z</time>
      </trkpt>
      <trkpt lat="44.9684990" lon="7.0214120">
        <ele>1551.6</ele>
        <time>2017-07-27T08:41:38Z</time>
      </trkpt>
      <trkpt lat="44.9685300" lon="7.0213440">
        <ele>1552.4</ele>
        <time>2017-07-27T08:41:41Z</time>
      </trkpt>
      <trkpt lat="44.9685510" lon="7.0212770">
        <ele>1552.8</ele>
        <time>2017-07-27T08:41:43Z</time>
      </trkpt>
      <trkpt lat="44.9685900" lon="7.0211620">
        <ele>1554.2</ele>
        <time>2017-07-27T08:41:47Z</time>
      </trkpt>
      <trkpt lat="44.9686030" lon="7.0211410">
        <ele>1554.4</ele>
        <time>2017-07-27T08:41:48Z</time>
      </trkpt>
      <trkpt lat="44.9686380" lon="7.0210610">
        <ele>1555.2</ele>
        <time>2017-07-27T08:41:51Z</time>
      </trkpt>
      <trkpt lat="44.9686790" lon="7.0209930">
        <ele>1556.2</ele>
        <time>2017-07-27T08:41:54Z</time>
      </trkpt>
      <trkpt lat="44.9686870" lon="7.0209710">
        <ele>1556.4</ele>
        <time>2017-07-27T08:41:55Z</time>
      </trkpt>
      <trkpt lat="44.9687030" lon="7.0209660">
        <ele>1556.4</ele>
        <time>2017-07-27T08:41:56Z</time>
      </trkpt>
      <trkpt lat="44.9687330" lon="7.0209210">
        <ele>1557.4</ele>
        <time>2017-07-27T08:42:00Z</time>
      </trkpt>
      <trkpt lat="44.9687360" lon="7.0208190">
        <ele>1558.8</ele>
        <time>2017-07-27T08:42:10Z</time>
      </trkpt>
      <trkpt lat="44.9687410" lon="7.0207990">
        <ele>1558.8</ele>
        <time>2017-07-27T08:42:11Z</time>
      </trkpt>
      <trkpt lat="44.9687410" lon="7.0207480">
        <ele>1559.0</ele>
        <time>2017-07-27T08:42:13Z</time>
      </trkpt>
      <trkpt lat="44.9687620" lon="7.0206260">
        <ele>1560.0</ele>
        <time>2017-07-27T08:42:17Z</time>
      </trkpt>
      <trkpt lat="44.9687730" lon="7.0205880">
        <ele>1560.0</ele>
        <time>2017-07-27T08:42:18Z</time>
      </trkpt>
      <trkpt lat="44.9688600" lon="7.0204300">
        <ele>1561.0</ele>
        <time>2017-07-27T08:42:23Z</time>
      </trkpt>
      <trkpt lat="44.9688780" lon="7.0203970">
        <ele>1561.2</ele>
        <time>2017-07-27T08:42:24Z</time>
      </trkpt>
      <trkpt lat="44.9689470" lon="7.0202360">
        <ele>1562.0</ele>
        <time>2017-07-27T08:42:29Z</time>
      </trkpt>
      <trkpt lat="44.9689660" lon="7.0202010">
        <ele>1562.2</ele>
        <time>2017-07-27T08:42:30Z</time>
      </trkpt>
      <trkpt lat="44.9690670" lon="7.0200940">
        <ele>1563.0</ele>
        <time>2017-07-27T08:42:35Z</time>
      </trkpt>
      <trkpt lat="44.9691190" lon="7.0200650">
        <ele>1563.4</ele>
        <time>2017-07-27T08:42:40Z</time>
      </trkpt>
      <trkpt lat="44.9691520" lon="7.0200410">
        <ele>1562.4</ele>
        <time>2017-07-27T08:42:46Z</time>
      </trkpt>
      <trkpt lat="44.9691750" lon="7.0200400">
        <ele>1562.2</ele>
        <time>2017-07-27T08:42:47Z</time>
      </trkpt>
      <trkpt lat="44.9692050" lon="7.0200290">
        <ele>1562.0</ele>
        <time>2017-07-27T08:42:48Z</time>
      </trkpt>
      <trkpt lat="44.9693360" lon="7.0199820">
        <ele>1561.2</ele>
        <time>2017-07-27T08:42:52Z</time>
      </trkpt>
      <trkpt lat="44.9694010" lon="7.0199740">
        <ele>1561.0</ele>
        <time>2017-07-27T08:42:54Z</time>
      </trkpt>
      <trkpt lat="44.9695230" lon="7.0200070">
        <ele>1561.2</ele>
        <time>2017-07-27T08:42:59Z</time>
      </trkpt>
      <trkpt lat="44.9695450" lon="7.0199890">
        <ele>1561.4</ele>
        <time>2017-07-27T08:43:00Z</time>
      </trkpt>
      <trkpt lat="44.9695920" lon="7.0199520">
        <ele>1562.0</ele>
        <time>2017-07-27T08:43:03Z</time>
      </trkpt>
      <trkpt lat="44.9696050" lon="7.0199350">
        <ele>1562.4</ele>
        <time>2017-07-27T08:43:04Z</time>
      </trkpt>
      <trkpt lat="44.9696190" lon="7.0199140">
        <ele>1562.8</ele>
        <time>2017-07-27T08:43:05Z</time>
      </trkpt>
      <trkpt lat="44.9696340" lon="7.0198760">
        <ele>1563.4</ele>
        <time>2017-07-27T08:43:07Z</time>
      </trkpt>
      <trkpt lat="44.9696510" lon="7.0198300">
        <ele>1564.0</ele>
        <time>2017-07-27T08:43:09Z</time>
      </trkpt>
      <trkpt lat="44.9696640" lon="7.0197900">
        <ele>1564.8</ele>
        <time>2017-07-27T08:43:11Z</time>
      </trkpt>
      <trkpt lat="44.9696970" lon="7.0197410">
        <ele>1565.6</ele>
        <time>2017-07-27T08:43:14Z</time>
      </trkpt>
      <trkpt lat="44.9697050" lon="7.0197240">
        <ele>1565.8</ele>
        <time>2017-07-27T08:43:15Z</time>
      </trkpt>
      <trkpt lat="44.9697240" lon="7.0197020">
        <ele>1566.0</ele>
        <time>2017-07-27T08:43:18Z</time>
      </trkpt>
      <trkpt lat="44.9697350" lon="7.0196820">
        <ele>1565.8</ele>
        <time>2017-07-27T08:43:20Z</time>
      </trkpt>
      <trkpt lat="44.9697600" lon="7.0196610">
        <ele>1565.6</ele>
        <time>2017-07-27T08:43:23Z</time>
      </trkpt>
      <trkpt lat="44.9698420" lon="7.0195170">
        <ele>1566.0</ele>
        <time>2017-07-27T08:43:39Z</time>
      </trkpt>
      <trkpt lat="44.9698370" lon="7.0195030">
        <ele>1566.0</ele>
        <time>2017-07-27T08:43:40Z</time>
      </trkpt>
      <trkpt lat="44.9698200" lon="7.0194040">
        <ele>1567.0</ele>
        <time>2017-07-27T08:43:50Z</time>
      </trkpt>
      <trkpt lat="44.9698330" lon="7.0193340">
        <ele>1568.0</ele>
        <time>2017-07-27T08:43:53Z</time>
      </trkpt>
      <trkpt lat="44.9698440" lon="7.0193070">
        <ele>1568.2</ele>
        <time>2017-07-27T08:43:54Z</time>
      </trkpt>
      <trkpt lat="44.9698390" lon="7.0192460">
        <ele>1568.8</ele>
        <time>2017-07-27T08:43:56Z</time>
      </trkpt>
      <trkpt lat="44.9698080" lon="7.0191930">
        <ele>1569.0</ele>
        <time>2017-07-27T08:43:58Z</time>
      </trkpt>
      <trkpt lat="44.9697900" lon="7.0191570">
        <ele>1569.4</ele>
        <time>2017-07-27T08:43:59Z</time>
      </trkpt>
      <trkpt lat="44.9697680" lon="7.0190240">
        <ele>1569.8</ele>
        <time>2017-07-27T08:44:02Z</time>
      </trkpt>
      <trkpt lat="44.9697630" lon="7.0189620">
        <ele>1570.6</ele>
        <time>2017-07-27T08:44:04Z</time>
      </trkpt>
      <trkpt lat="44.9697790" lon="7.0188840">
        <ele>1571.6</ele>
        <time>2017-07-27T08:44:07Z</time>
      </trkpt>
      <trkpt lat="44.9697940" lon="7.0188480">
        <ele>1571.8</ele>
        <time>2017-07-27T08:44:08Z</time>
      </trkpt>
      <trkpt lat="44.9698380" lon="7.0187150">
        <ele>1572.4</ele>
        <time>2017-07-27T08:44:12Z</time>
      </trkpt>
      <trkpt lat="44.9698490" lon="7.0186910">
        <ele>1572.8</ele>
        <time>2017-07-27T08:44:13Z</time>
      </trkpt>
      <trkpt lat="44.9699040" lon="7.0186040">
        <ele>1574.0</ele>
        <time>2017-07-27T08:44:17Z</time>
      </trkpt>
      <trkpt lat="44.9699280" lon="7.0185610">
        <ele>1574.4</ele>
        <time>2017-07-27T08:44:19Z</time>
      </trkpt>
      <trkpt lat="44.9699420" lon="7.0185290">
        <ele>1575.0</ele>
        <time>2017-07-27T08:44:21Z</time>
      </trkpt>
      <trkpt lat="44.9699890" lon="7.0184560">
        <ele>1576.0</ele>
        <time>2017-07-27T08:44:25Z</time>
      </trkpt>
      <trkpt lat="44.9700290" lon="7.0184060">
        <ele>1577.4</ele>
        <time>2017-07-27T08:44:29Z</time>
      </trkpt>
      <trkpt lat="44.9700650" lon="7.0183880">
        <ele>1577.8</ele>
        <time>2017-07-27T08:44:31Z</time>
      </trkpt>
      <trkpt lat="44.9700920" lon="7.0183650">
        <ele>1578.6</ele>
        <time>2017-07-27T08:44:33Z</time>
      </trkpt>
      <trkpt lat="44.9701390" lon="7.0183110">
        <ele>1579.6</ele>
        <time>2017-07-27T08:44:37Z</time>
      </trkpt>
      <trkpt lat="44.9701750" lon="7.0182900">
        <ele>1580.6</ele>
        <time>2017-07-27T08:44:40Z</time>
      </trkpt>
      <trkpt lat="44.9701860" lon="7.0182780">
        <ele>1581.2</ele>
        <time>2017-07-27T08:44:41Z</time>
      </trkpt>
      <trkpt lat="44.9702040" lon="7.0182500">
        <ele>1581.6</ele>
        <time>2017-07-27T08:44:43Z</time>
      </trkpt>
      <trkpt lat="44.9702090" lon="7.0182300">
        <ele>1581.8</ele>
        <time>2017-07-27T08:44:44Z</time>
      </trkpt>
      <trkpt lat="44.9702180" lon="7.0181960">
        <ele>1582.2</ele>
        <time>2017-07-27T08:44:46Z</time>
      </trkpt>
      <trkpt lat="44.9702560" lon="7.0181460">
        <ele>1583.4</ele>
        <time>2017-07-27T08:44:50Z</time>
      </trkpt>
      <trkpt lat="44.9702920" lon="7.0181140">
        <ele>1584.6</ele>
        <time>2017-07-27T08:44:54Z</time>
      </trkpt>
      <trkpt lat="44.9703070" lon="7.0180850">
        <ele>1585.0</ele>
        <time>2017-07-27T08:44:56Z</time>
      </trkpt>
      <trkpt lat="44.9704890" lon="7.0178720">
        <ele>1589.0</ele>
        <time>2017-07-27T08:45:21Z</time>
      </trkpt>
      <trkpt lat="44.9705000" lon="7.0178490">
        <ele>1589.0</ele>
        <time>2017-07-27T08:45:23Z</time>
      </trkpt>
      <trkpt lat="44.9705680" lon="7.0176770">
        <ele>1589.6</ele>
        <time>2017-07-27T08:45:37Z</time>
      </trkpt>
      <trkpt lat="44.9705740" lon="7.0176040">
        <ele>1590.2</ele>
        <time>2017-07-27T08:45:39Z</time>
      </trkpt>
      <trkpt lat="44.9706330" lon="7.0174020">
        <ele>1591.4</ele>
        <time>2017-07-27T08:45:44Z</time>
      </trkpt>
      <trkpt lat="44.9706470" lon="7.0173640">
        <ele>1591.4</ele>
        <time>2017-07-27T08:45:45Z</time>
      </trkpt>
      <trkpt lat="44.9707060" lon="7.0172920">
        <ele>1592.2</ele>
        <time>2017-07-27T08:45:49Z</time>
      </trkpt>
      <trkpt lat="44.9707210" lon="7.0172710">
        <ele>1592.6</ele>
        <time>2017-07-27T08:45:50Z</time>
      </trkpt>
      <trkpt lat="44.9707270" lon="7.0172320">
        <ele>1593.0</ele>
        <time>2017-07-27T08:45:51Z</time>
      </trkpt>
      <trkpt lat="44.9707640" lon="7.0171570">
        <ele>1594.2</ele>
        <time>2017-07-27T08:45:54Z</time>
      </trkpt>
      <trkpt lat="44.9708000" lon="7.0170960">
        <ele>1595.4</ele>
        <time>2017-07-27T08:45:57Z</time>
      </trkpt>
      <trkpt lat="44.9708230" lon="7.0170680">
        <ele>1596.0</ele>
        <time>2017-07-27T08:45:59Z</time>
      </trkpt>
      <trkpt lat="44.9708350" lon="7.0170520">
        <ele>1596.4</ele>
        <time>2017-07-27T08:46:00Z</time>
      </trkpt>
      <trkpt lat="44.9708800" lon="7.0169900">
        <ele>1597.4</ele>
        <time>2017-07-27T08:46:04Z</time>
      </trkpt>
      <trkpt lat="44.9709470" lon="7.0167580">
        <ele>1600.0</ele>
        <time>2017-07-27T08:46:26Z</time>
      </trkpt>
      <trkpt lat="44.9710040" lon="7.0166680">
        <ele>1600.4</ele>
        <time>2017-07-27T08:46:30Z</time>
      </trkpt>
      <trkpt lat="44.9711980" lon="7.0163470">
        <ele>1600.4</ele>
        <time>2017-07-27T08:46:57Z</time>
      </trkpt>
      <trkpt lat="44.9712330" lon="7.0162870">
        <ele>1600.8</ele>
        <time>2017-07-27T08:47:01Z</time>
      </trkpt>
      <trkpt lat="44.9712590" lon="7.0162600">
        <ele>1601.2</ele>
        <time>2017-07-27T08:47:03Z</time>
      </trkpt>
      <trkpt lat="44.9712890" lon="7.0162230">
        <ele>1601.8</ele>
        <time>2017-07-27T08:47:06Z</time>
      </trkpt>
      <trkpt lat="44.9713000" lon="7.0162070">
        <ele>1602.2</ele>
        <time>2017-07-27T08:47:07Z</time>
      </trkpt>
      <trkpt lat="44.9713370" lon="7.0161690">
        <ele>1603.0</ele>
        <time>2017-07-27T08:47:12Z</time>
      </trkpt>
      <trkpt lat="44.9713440" lon="7.0161630">
        <ele>1603.4</ele>
        <time>2017-07-27T08:47:13Z</time>
      </trkpt>
      <trkpt lat="44.9713660" lon="7.0161350">
        <ele>1604.4</ele>
        <time>2017-07-27T08:47:16Z</time>
      </trkpt>
      <trkpt lat="44.9713820" lon="7.0161110">
        <ele>1605.0</ele>
        <time>2017-07-27T08:47:18Z</time>
      </trkpt>
      <trkpt lat="44.9713880" lon="7.0160980">
        <ele>1605.2</ele>
        <time>2017-07-27T08:47:19Z</time>
      </trkpt>
      <trkpt lat="44.9713970" lon="7.0160870">
        <ele>1605.4</ele>
        <time>2017-07-27T08:47:20Z</time>
      </trkpt>
      <trkpt lat="44.9714320" lon="7.0160350">
        <ele>1606.2</ele>
        <time>2017-07-27T08:47:25Z</time>
      </trkpt>
      <trkpt lat="44.9716380" lon="7.0157350">
        <ele>1615.4</ele>
        <time>2017-07-27T08:48:06Z</time>
      </trkpt>
      <trkpt lat="44.9716640" lon="7.0157140">
        <ele>1616.0</ele>
        <time>2017-07-27T08:48:09Z</time>
      </trkpt>
      <trkpt lat="44.9717000" lon="7.0156890">
        <ele>1616.4</ele>
        <time>2017-07-27T08:48:13Z</time>
      </trkpt>
      <trkpt lat="44.9717180" lon="7.0156680">
        <ele>1616.8</ele>
        <time>2017-07-27T08:48:15Z</time>
      </trkpt>
      <trkpt lat="44.9717510" lon="7.0156450">
        <ele>1617.8</ele>
        <time>2017-07-27T08:48:18Z</time>
      </trkpt>
      <trkpt lat="44.9717840" lon="7.0156200">
        <ele>1618.2</ele>
        <time>2017-07-27T08:48:21Z</time>
      </trkpt>
      <trkpt lat="44.9717940" lon="7.0156170">
        <ele>1618.4</ele>
        <time>2017-07-27T08:48:22Z</time>
      </trkpt>
      <trkpt lat="44.9718210" lon="7.0156120">
        <ele>1618.8</ele>
        <time>2017-07-27T08:48:24Z</time>
      </trkpt>
      <trkpt lat="44.9718450" lon="7.0155960">
        <ele>1619.4</ele>
        <time>2017-07-27T08:48:27Z</time>
      </trkpt>
      <trkpt lat="44.9719030" lon="7.0153480">
        <ele>1622.8</ele>
        <time>2017-07-27T08:48:45Z</time>
      </trkpt>
      <trkpt lat="44.9719210" lon="7.0152890">
        <ele>1623.4</ele>
        <time>2017-07-27T08:48:48Z</time>
      </trkpt>
      <trkpt lat="44.9719380" lon="7.0152240">
        <ele>1623.6</ele>
        <time>2017-07-27T08:48:52Z</time>
      </trkpt>
      <trkpt lat="44.9719440" lon="7.0152100">
        <ele>1623.8</ele>
        <time>2017-07-27T08:48:53Z</time>
      </trkpt>
      <trkpt lat="44.9719510" lon="7.0151800">
        <ele>1624.2</ele>
        <time>2017-07-27T08:48:55Z</time>
      </trkpt>
      <trkpt lat="44.9719650" lon="7.0151450">
        <ele>1624.8</ele>
        <time>2017-07-27T08:48:59Z</time>
      </trkpt>
      <trkpt lat="44.9719830" lon="7.0151320">
        <ele>1625.2</ele>
        <time>2017-07-27T08:49:01Z</time>
      </trkpt>
      <trkpt lat="44.9721790" lon="7.0149230">
        <ele>1629.2</ele>
        <time>2017-07-27T08:49:27Z</time>
      </trkpt>
      <trkpt lat="44.9721900" lon="7.0149070">
        <ele>1629.2</ele>
        <time>2017-07-27T08:49:28Z</time>
      </trkpt>
      <trkpt lat="44.9721980" lon="7.0148910">
        <ele>1629.2</ele>
        <time>2017-07-27T08:49:29Z</time>
      </trkpt>
      <trkpt lat="44.9722620" lon="7.0147990">
        <ele>1630.4</ele>
        <time>2017-07-27T08:49:38Z</time>
      </trkpt>
      <trkpt lat="44.9722710" lon="7.0147860">
        <ele>1630.6</ele>
        <time>2017-07-27T08:49:39Z</time>
      </trkpt>
      <trkpt lat="44.9723030" lon="7.0147420">
        <ele>1631.6</ele>
        <time>2017-07-27T08:49:43Z</time>
      </trkpt>
      <trkpt lat="44.9723620" lon="7.0146020">
        <ele>1633.6</ele>
        <time>2017-07-27T08:49:57Z</time>
      </trkpt>
      <trkpt lat="44.9723670" lon="7.0145900">
        <ele>1633.6</ele>
        <time>2017-07-27T08:49:58Z</time>
      </trkpt>
      <trkpt lat="44.9723950" lon="7.0145050">
        <ele>1634.2</ele>
        <time>2017-07-27T08:50:04Z</time>
      </trkpt>
      <trkpt lat="44.9724000" lon="7.0144850">
        <ele>1634.8</ele>
        <time>2017-07-27T08:50:05Z</time>
      </trkpt>
      <trkpt lat="44.9724040" lon="7.0144660">
        <ele>1632.2</ele>
        <time>2017-07-27T08:50:06Z</time>
      </trkpt>
      <trkpt lat="44.9724060" lon="7.0144460">
        <ele>1631.8</ele>
        <time>2017-07-27T08:50:07Z</time>
      </trkpt>
      <trkpt lat="44.9724140" lon="7.0143930">
        <ele>1633.6</ele>
        <time>2017-07-27T08:50:09Z</time>
      </trkpt>
      <trkpt lat="44.9724240" lon="7.0143330">
        <ele>1633.8</ele>
        <time>2017-07-27T08:50:12Z</time>
      </trkpt>
      <trkpt lat="44.9724270" lon="7.0143140">
        <ele>1634.2</ele>
        <time>2017-07-27T08:50:13Z</time>
      </trkpt>
      <trkpt lat="44.9724340" lon="7.0142990">
        <ele>1634.4</ele>
        <time>2017-07-27T08:50:14Z</time>
      </trkpt>
      <trkpt lat="44.9724440" lon="7.0142920">
        <ele>1634.6</ele>
        <time>2017-07-27T08:50:15Z</time>
      </trkpt>
      <trkpt lat="44.9724630" lon="7.0142770">
        <ele>1635.2</ele>
        <time>2017-07-27T08:50:17Z</time>
      </trkpt>
      <trkpt lat="44.9724680" lon="7.0142630">
        <ele>1635.6</ele>
        <time>2017-07-27T08:50:18Z</time>
      </trkpt>
      <trkpt lat="44.9724720" lon="7.0142440">
        <ele>1636.0</ele>
        <time>2017-07-27T08:50:19Z</time>
      </trkpt>
      <trkpt lat="44.9724970" lon="7.0141660">
        <ele>1636.8</ele>
        <time>2017-07-27T08:50:24Z</time>
      </trkpt>
      <trkpt lat="44.9725070" lon="7.0141510">
        <ele>1637.2</ele>
        <time>2017-07-27T08:50:25Z</time>
      </trkpt>
      <trkpt lat="44.9725580" lon="7.0140850">
        <ele>1638.0</ele>
        <time>2017-07-27T08:50:30Z</time>
      </trkpt>
      <trkpt lat="44.9725650" lon="7.0140670">
        <ele>1638.2</ele>
        <time>2017-07-27T08:50:31Z</time>
      </trkpt>
      <trkpt lat="44.9725920" lon="7.0140080">
        <ele>1639.0</ele>
        <time>2017-07-27T08:50:36Z</time>
      </trkpt>
      <trkpt lat="44.9726010" lon="7.0139980">
        <ele>1639.2</ele>
        <time>2017-07-27T08:50:37Z</time>
      </trkpt>
      <trkpt lat="44.9726550" lon="7.0139360">
        <ele>1640.4</ele>
        <time>2017-07-27T08:50:43Z</time>
      </trkpt>
      <trkpt lat="44.9726990" lon="7.0139140">
        <ele>1641.0</ele>
        <time>2017-07-27T08:50:47Z</time>
      </trkpt>
      <trkpt lat="44.9727180" lon="7.0138980">
        <ele>1641.4</ele>
        <time>2017-07-27T08:50:49Z</time>
      </trkpt>
      <trkpt lat="44.9727200" lon="7.0138860">
        <ele>1641.4</ele>
        <time>2017-07-27T08:50:50Z</time>
      </trkpt>
      <trkpt lat="44.9727280" lon="7.0138690">
        <ele>1641.8</ele>
        <time>2017-07-27T08:50:52Z</time>
      </trkpt>
      <trkpt lat="44.9727450" lon="7.0138470">
        <ele>1642.0</ele>
        <time>2017-07-27T08:50:54Z</time>
      </trkpt>
      <trkpt lat="44.9727520" lon="7.0138400">
        <ele>1642.2</ele>
        <time>2017-07-27T08:50:55Z</time>
      </trkpt>
      <trkpt lat="44.9727760" lon="7.0138240">
        <ele>1642.6</ele>
        <time>2017-07-27T08:50:57Z</time>
      </trkpt>
      <trkpt lat="44.9727850" lon="7.0137970">
        <ele>1643.0</ele>
        <time>2017-07-27T08:50:59Z</time>
      </trkpt>
      <trkpt lat="44.9727880" lon="7.0137860">
        <ele>1643.2</ele>
        <time>2017-07-27T08:51:00Z</time>
      </trkpt>
      <trkpt lat="44.9728020" lon="7.0137440">
        <ele>1643.8</ele>
        <time>2017-07-27T08:51:03Z</time>
      </trkpt>
      <trkpt lat="44.9728040" lon="7.0137290">
        <ele>1644.0</ele>
        <time>2017-07-27T08:51:04Z</time>
      </trkpt>
      <trkpt lat="44.9728100" lon="7.0137170">
        <ele>1644.2</ele>
        <time>2017-07-27T08:51:05Z</time>
      </trkpt>
      <trkpt lat="44.9728310" lon="7.0136930">
        <ele>1645.0</ele>
        <time>2017-07-27T08:51:08Z</time>
      </trkpt>
      <trkpt lat="44.9728590" lon="7.0136690">
        <ele>1645.8</ele>
        <time>2017-07-27T08:51:12Z</time>
      </trkpt>
      <trkpt lat="44.9728640" lon="7.0136430">
        <ele>1646.0</ele>
        <time>2017-07-27T08:51:14Z</time>
      </trkpt>
      <trkpt lat="44.9728840" lon="7.0135940">
        <ele>1646.6</ele>
        <time>2017-07-27T08:51:17Z</time>
      </trkpt>
      <trkpt lat="44.9728920" lon="7.0135200">
        <ele>1647.0</ele>
        <time>2017-07-27T08:51:22Z</time>
      </trkpt>
      <trkpt lat="44.9728990" lon="7.0135070">
        <ele>1647.2</ele>
        <time>2017-07-27T08:51:23Z</time>
      </trkpt>
      <trkpt lat="44.9728990" lon="7.0134920">
        <ele>1647.4</ele>
        <time>2017-07-27T08:51:24Z</time>
      </trkpt>
      <trkpt lat="44.9729040" lon="7.0134440">
        <ele>1648.0</ele>
        <time>2017-07-27T08:51:28Z</time>
      </trkpt>
      <trkpt lat="44.9729130" lon="7.0134340">
        <ele>1648.2</ele>
        <time>2017-07-27T08:51:29Z</time>
      </trkpt>
      <trkpt lat="44.9729250" lon="7.0134070">
        <ele>1648.8</ele>
        <time>2017-07-27T08:51:31Z</time>
      </trkpt>
      <trkpt lat="44.9729360" lon="7.0133750">
        <ele>1649.2</ele>
        <time>2017-07-27T08:51:34Z</time>
      </trkpt>
      <trkpt lat="44.9729460" lon="7.0133370">
        <ele>1649.8</ele>
        <time>2017-07-27T08:51:37Z</time>
      </trkpt>
      <trkpt lat="44.9729570" lon="7.0133020">
        <ele>1650.4</ele>
        <time>2017-07-27T08:51:40Z</time>
      </trkpt>
      <trkpt lat="44.9729760" lon="7.0132700">
        <ele>1650.6</ele>
        <time>2017-07-27T08:51:43Z</time>
      </trkpt>
      <trkpt lat="44.9730090" lon="7.0131750">
        <ele>1651.4</ele>
        <time>2017-07-27T08:51:49Z</time>
      </trkpt>
      <trkpt lat="44.9730170" lon="7.0131620">
        <ele>1651.4</ele>
        <time>2017-07-27T08:51:50Z</time>
      </trkpt>
      <trkpt lat="44.9730490" lon="7.0131150">
        <ele>1651.6</ele>
        <time>2017-07-27T08:51:54Z</time>
      </trkpt>
      <trkpt lat="44.9730700" lon="7.0130760">
        <ele>1652.0</ele>
        <time>2017-07-27T08:51:57Z</time>
      </trkpt>
      <trkpt lat="44.9730830" lon="7.0130320">
        <ele>1652.4</ele>
        <time>2017-07-27T08:52:00Z</time>
      </trkpt>
      <trkpt lat="44.9730990" lon="7.0130080">
        <ele>1652.6</ele>
        <time>2017-07-27T08:52:02Z</time>
      </trkpt>
      <trkpt lat="44.9731200" lon="7.0129690">
        <ele>1652.8</ele>
        <time>2017-07-27T08:52:05Z</time>
      </trkpt>
      <trkpt lat="44.9731230" lon="7.0129550">
        <ele>1653.0</ele>
        <time>2017-07-27T08:52:06Z</time>
      </trkpt>
      <trkpt lat="44.9731290" lon="7.0129280">
        <ele>1653.4</ele>
        <time>2017-07-27T08:52:08Z</time>
      </trkpt>
      <trkpt lat="44.9731330" lon="7.0129210">
        <ele>1653.6</ele>
        <time>2017-07-27T08:52:09Z</time>
      </trkpt>
      <trkpt lat="44.9731430" lon="7.0129030">
        <ele>1653.8</ele>
        <time>2017-07-27T08:52:11Z</time>
      </trkpt>
      <trkpt lat="44.9731610" lon="7.0128910">
        <ele>1654.4</ele>
        <time>2017-07-27T08:52:14Z</time>
      </trkpt>
      <trkpt lat="44.9731900" lon="7.0128750">
        <ele>1654.8</ele>
        <time>2017-07-27T08:52:16Z</time>
      </trkpt>
      <trkpt lat="44.9732010" lon="7.0128660">
        <ele>1655.0</ele>
        <time>2017-07-27T08:52:17Z</time>
      </trkpt>
      <trkpt lat="44.9732050" lon="7.0128390">
        <ele>1655.4</ele>
        <time>2017-07-27T08:52:19Z</time>
      </trkpt>
      <trkpt lat="44.9732140" lon="7.0128190">
        <ele>1655.6</ele>
        <time>2017-07-27T08:52:21Z</time>
      </trkpt>
      <trkpt lat="44.9732270" lon="7.0127510">
        <ele>1656.4</ele>
        <time>2017-07-27T08:52:26Z</time>
      </trkpt>
      <trkpt lat="44.9732170" lon="7.0126930">
        <ele>1657.2</ele>
        <time>2017-07-27T08:52:31Z</time>
      </trkpt>
      <trkpt lat="44.9732460" lon="7.0126910">
        <ele>1657.6</ele>
        <time>2017-07-27T08:52:33Z</time>
      </trkpt>
      <trkpt lat="44.9732810" lon="7.0126780">
        <ele>1658.4</ele>
        <time>2017-07-27T08:52:38Z</time>
      </trkpt>
      <trkpt lat="44.9733070" lon="7.0126700">
        <ele>1658.6</ele>
        <time>2017-07-27T08:52:40Z</time>
      </trkpt>
      <trkpt lat="44.9733180" lon="7.0126670">
        <ele>1658.8</ele>
        <time>2017-07-27T08:52:41Z</time>
      </trkpt>
      <trkpt lat="44.9733420" lon="7.0126350">
        <ele>1659.4</ele>
        <time>2017-07-27T08:52:44Z</time>
      </trkpt>
      <trkpt lat="44.9733670" lon="7.0126170">
        <ele>1659.6</ele>
        <time>2017-07-27T08:52:46Z</time>
      </trkpt>
      <trkpt lat="44.9733990" lon="7.0125940">
        <ele>1660.4</ele>
        <time>2017-07-27T08:52:50Z</time>
      </trkpt>
      <trkpt lat="44.9734140" lon="7.0125750">
        <ele>1660.8</ele>
        <time>2017-07-27T08:52:52Z</time>
      </trkpt>
      <trkpt lat="44.9734140" lon="7.0125640">
        <ele>1660.8</ele>
        <time>2017-07-27T08:52:53Z</time>
      </trkpt>
      <trkpt lat="44.9734330" lon="7.0125360">
        <ele>1661.4</ele>
        <time>2017-07-27T08:52:56Z</time>
      </trkpt>
      <trkpt lat="44.9734670" lon="7.0124910">
        <ele>1661.8</ele>
        <time>2017-07-27T08:53:00Z</time>
      </trkpt>
      <trkpt lat="44.9734690" lon="7.0124750">
        <ele>1662.0</ele>
        <time>2017-07-27T08:53:01Z</time>
      </trkpt>
      <trkpt lat="44.9734790" lon="7.0124050">
        <ele>1663.2</ele>
        <time>2017-07-27T08:53:06Z</time>
      </trkpt>
      <trkpt lat="44.9734920" lon="7.0124040">
        <ele>1663.4</ele>
        <time>2017-07-27T08:53:07Z</time>
      </trkpt>
      <trkpt lat="44.9735320" lon="7.0123600">
        <ele>1664.4</ele>
        <time>2017-07-27T08:53:12Z</time>
      </trkpt>
      <trkpt lat="44.9735540" lon="7.0123000">
        <ele>1665.4</ele>
        <time>2017-07-27T08:53:17Z</time>
      </trkpt>
      <trkpt lat="44.9735620" lon="7.0122940">
        <ele>1665.6</ele>
        <time>2017-07-27T08:53:18Z</time>
      </trkpt>
      <trkpt lat="44.9735910" lon="7.0122680">
        <ele>1666.4</ele>
        <time>2017-07-27T08:53:22Z</time>
      </trkpt>
      <trkpt lat="44.9735990" lon="7.0122420">
        <ele>1666.8</ele>
        <time>2017-07-27T08:53:24Z</time>
      </trkpt>
      <trkpt lat="44.9736100" lon="7.0122100">
        <ele>1667.4</ele>
        <time>2017-07-27T08:53:27Z</time>
      </trkpt>
      <trkpt lat="44.9736120" lon="7.0121980">
        <ele>1667.6</ele>
        <time>2017-07-27T08:53:28Z</time>
      </trkpt>
      <trkpt lat="44.9736250" lon="7.0121840">
        <ele>1668.2</ele>
        <time>2017-07-27T08:53:30Z</time>
      </trkpt>
      <trkpt lat="44.9736410" lon="7.0121740">
        <ele>1668.6</ele>
        <time>2017-07-27T08:53:31Z</time>
      </trkpt>
      <trkpt lat="44.9736870" lon="7.0121490">
        <ele>1669.4</ele>
        <time>2017-07-27T08:53:35Z</time>
      </trkpt>
      <trkpt lat="44.9736970" lon="7.0121430">
        <ele>1669.6</ele>
        <time>2017-07-27T08:53:36Z</time>
      </trkpt>
      <trkpt lat="44.9737190" lon="7.0121070">
        <ele>1670.6</ele>
        <time>2017-07-27T08:53:40Z</time>
      </trkpt>
      <trkpt lat="44.9737250" lon="7.0121030">
        <ele>1670.8</ele>
        <time>2017-07-27T08:53:41Z</time>
      </trkpt>
      <trkpt lat="44.9737580" lon="7.0121020">
        <ele>1671.8</ele>
        <time>2017-07-27T08:53:44Z</time>
      </trkpt>
      <trkpt lat="44.9737640" lon="7.0120980">
        <ele>1672.2</ele>
        <time>2017-07-27T08:53:45Z</time>
      </trkpt>
      <trkpt lat="44.9737730" lon="7.0120860">
        <ele>1672.4</ele>
        <time>2017-07-27T08:53:46Z</time>
      </trkpt>
      <trkpt lat="44.9737970" lon="7.0120570">
        <ele>1673.0</ele>
        <time>2017-07-27T08:53:49Z</time>
      </trkpt>
      <trkpt lat="44.9738030" lon="7.0120330">
        <ele>1673.4</ele>
        <time>2017-07-27T08:53:51Z</time>
      </trkpt>
      <trkpt lat="44.9738320" lon="7.0119900">
        <ele>1674.0</ele>
        <time>2017-07-27T08:53:55Z</time>
      </trkpt>
      <trkpt lat="44.9738520" lon="7.0119690">
        <ele>1674.2</ele>
        <time>2017-07-27T08:53:57Z</time>
      </trkpt>
      <trkpt lat="44.9738670" lon="7.0119440">
        <ele>1675.0</ele>
        <time>2017-07-27T08:54:01Z</time>
      </trkpt>
      <trkpt lat="44.9738690" lon="7.0119310">
        <ele>1675.0</ele>
        <time>2017-07-27T08:54:02Z</time>
      </trkpt>
      <trkpt lat="44.9738970" lon="7.0118930">
        <ele>1675.6</ele>
        <time>2017-07-27T08:54:06Z</time>
      </trkpt>
      <trkpt lat="44.9739150" lon="7.0118570">
        <ele>1676.2</ele>
        <time>2017-07-27T08:54:09Z</time>
      </trkpt>
      <trkpt lat="44.9739460" lon="7.0118270">
        <ele>1676.6</ele>
        <time>2017-07-27T08:54:12Z</time>
      </trkpt>
      <trkpt lat="44.9739720" lon="7.0117930">
        <ele>1677.2</ele>
        <time>2017-07-27T08:54:16Z</time>
      </trkpt>
      <trkpt lat="44.9739910" lon="7.0117730">
        <ele>1678.0</ele>
        <time>2017-07-27T08:54:19Z</time>
      </trkpt>
      <trkpt lat="44.9740020" lon="7.0117650">
        <ele>1678.4</ele>
        <time>2017-07-27T08:54:21Z</time>
      </trkpt>
      <trkpt lat="44.9740140" lon="7.0117570">
        <ele>1678.6</ele>
        <time>2017-07-27T08:54:22Z</time>
      </trkpt>
      <trkpt lat="44.9740600" lon="7.0117500">
        <ele>1679.4</ele>
        <time>2017-07-27T08:54:26Z</time>
      </trkpt>
      <trkpt lat="44.9740660" lon="7.0117520">
        <ele>1679.6</ele>
        <time>2017-07-27T08:54:27Z</time>
      </trkpt>
      <trkpt lat="44.9740760" lon="7.0117550">
        <ele>1679.8</ele>
        <time>2017-07-27T08:54:28Z</time>
      </trkpt>
      <trkpt lat="44.9741090" lon="7.0117500">
        <ele>1680.6</ele>
        <time>2017-07-27T08:54:31Z</time>
      </trkpt>
      <trkpt lat="44.9741340" lon="7.0117510">
        <ele>1680.8</ele>
        <time>2017-07-27T08:54:33Z</time>
      </trkpt>
      <trkpt lat="44.9741890" lon="7.0117790">
        <ele>1681.6</ele>
        <time>2017-07-27T08:54:38Z</time>
      </trkpt>
      <trkpt lat="44.9742180" lon="7.0117770">
        <ele>1682.6</ele>
        <time>2017-07-27T08:54:42Z</time>
      </trkpt>
      <trkpt lat="44.9742310" lon="7.0117690">
        <ele>1682.8</ele>
        <time>2017-07-27T08:54:43Z</time>
      </trkpt>
      <trkpt lat="44.9742720" lon="7.0117270">
        <ele>1683.8</ele>
        <time>2017-07-27T08:54:49Z</time>
      </trkpt>
      <trkpt lat="44.9743170" lon="7.0116930">
        <ele>1684.6</ele>
        <time>2017-07-27T08:54:54Z</time>
      </trkpt>
      <trkpt lat="44.9743290" lon="7.0116770">
        <ele>1685.0</ele>
        <time>2017-07-27T08:54:56Z</time>
      </trkpt>
      <trkpt lat="44.9743470" lon="7.0116480">
        <ele>1685.4</ele>
        <time>2017-07-27T08:54:59Z</time>
      </trkpt>
      <trkpt lat="44.9743500" lon="7.0116390">
        <ele>1685.6</ele>
        <time>2017-07-27T08:55:00Z</time>
      </trkpt>
      <trkpt lat="44.9743590" lon="7.0116250">
        <ele>1686.2</ele>
        <time>2017-07-27T08:55:03Z</time>
      </trkpt>
      <trkpt lat="44.9743680" lon="7.0116190">
        <ele>1686.4</ele>
        <time>2017-07-27T08:55:05Z</time>
      </trkpt>
      <trkpt lat="44.9743790" lon="7.0116100">
        <ele>1687.2</ele>
        <time>2017-07-27T08:55:08Z</time>
      </trkpt>
      <trkpt lat="44.9744090" lon="7.0115880">
        <ele>1688.0</ele>
        <time>2017-07-27T08:55:12Z</time>
      </trkpt>
      <trkpt lat="44.9744170" lon="7.0115820">
        <ele>1688.2</ele>
        <time>2017-07-27T08:55:13Z</time>
      </trkpt>
      <trkpt lat="44.9744410" lon="7.0115310">
        <ele>1689.2</ele>
        <time>2017-07-27T08:55:18Z</time>
      </trkpt>
      <trkpt lat="44.9744430" lon="7.0115170">
        <ele>1689.2</ele>
        <time>2017-07-27T08:55:19Z</time>
      </trkpt>
      <trkpt lat="44.9744420" lon="7.0114870">
        <ele>1689.6</ele>
        <time>2017-07-27T08:55:21Z</time>
      </trkpt>
      <trkpt lat="44.9744310" lon="7.0114430">
        <ele>1690.2</ele>
        <time>2017-07-27T08:55:24Z</time>
      </trkpt>
      <trkpt lat="44.9744310" lon="7.0114460">
        <ele>1690.4</ele>
        <time>2017-07-27T08:55:25Z</time>
      </trkpt>
      <trkpt lat="44.9744270" lon="7.0113830">
        <ele>1691.6</ele>
        <time>2017-07-27T08:55:29Z</time>
      </trkpt>
      <trkpt lat="44.9744380" lon="7.0113710">
        <ele>1692.2</ele>
        <time>2017-07-27T08:55:31Z</time>
      </trkpt>
      <trkpt lat="44.9744560" lon="7.0113660">
        <ele>1692.6</ele>
        <time>2017-07-27T08:55:33Z</time>
      </trkpt>
      <trkpt lat="44.9744670" lon="7.0113510">
        <ele>1693.2</ele>
        <time>2017-07-27T08:55:36Z</time>
      </trkpt>
      <trkpt lat="44.9744690" lon="7.0113310">
        <ele>1693.6</ele>
        <time>2017-07-27T08:55:37Z</time>
      </trkpt>
      <trkpt lat="44.9744690" lon="7.0113190">
        <ele>1693.6</ele>
        <time>2017-07-27T08:55:38Z</time>
      </trkpt>
      <trkpt lat="44.9744710" lon="7.0112890">
        <ele>1694.0</ele>
        <time>2017-07-27T08:55:41Z</time>
      </trkpt>
      <trkpt lat="44.9745040" lon="7.0112590">
        <ele>1694.6</ele>
        <time>2017-07-27T08:55:45Z</time>
      </trkpt>
      <trkpt lat="44.9745100" lon="7.0112560">
        <ele>1694.8</ele>
        <time>2017-07-27T08:55:46Z</time>
      </trkpt>
      <trkpt lat="44.9745140" lon="7.0112470">
        <ele>1694.8</ele>
        <time>2017-07-27T08:55:47Z</time>
      </trkpt>
      <trkpt lat="44.9745270" lon="7.0112180">
        <ele>1695.0</ele>
        <time>2017-07-27T08:55:50Z</time>
      </trkpt>
      <trkpt lat="44.9745140" lon="7.0111910">
        <ele>1695.2</ele>
        <time>2017-07-27T08:55:52Z</time>
      </trkpt>
      <trkpt lat="44.9744870" lon="7.0111660">
        <ele>1695.2</ele>
        <time>2017-07-27T08:55:55Z</time>
      </trkpt>
      <trkpt lat="44.9744650" lon="7.0111580">
        <ele>1695.4</ele>
        <time>2017-07-27T08:55:58Z</time>
      </trkpt>
      <trkpt lat="44.9744560" lon="7.0111490">
        <ele>1695.4</ele>
        <time>2017-07-27T08:55:59Z</time>
      </trkpt>
      <trkpt lat="44.9744420" lon="7.0111080">
        <ele>1695.4</ele>
        <time>2017-07-27T08:56:03Z</time>
      </trkpt>
      <trkpt lat="44.9744390" lon="7.0109600">
        <ele>1695.8</ele>
        <time>2017-07-27T08:56:07Z</time>
      </trkpt>
      <trkpt lat="44.9744850" lon="7.0107240">
        <ele>1696.2</ele>
        <time>2017-07-27T08:56:14Z</time>
      </trkpt>
      <trkpt lat="44.9745200" lon="7.0106330">
        <ele>1697.6</ele>
        <time>2017-07-27T08:56:18Z</time>
      </trkpt>
      <trkpt lat="44.9745420" lon="7.0106230">
        <ele>1698.0</ele>
        <time>2017-07-27T08:56:20Z</time>
      </trkpt>
      <trkpt lat="44.9745740" lon="7.0106020">
        <ele>1698.6</ele>
        <time>2017-07-27T08:56:22Z</time>
      </trkpt>
      <trkpt lat="44.9746060" lon="7.0105490">
        <ele>1699.4</ele>
        <time>2017-07-27T08:56:25Z</time>
      </trkpt>
      <trkpt lat="44.9746050" lon="7.0105520">
        <ele>1699.6</ele>
        <time>2017-07-27T08:56:26Z</time>
      </trkpt>
      <trkpt lat="44.9746180" lon="7.0105380">
        <ele>1700.0</ele>
        <time>2017-07-27T08:56:29Z</time>
      </trkpt>
      <trkpt lat="44.9746410" lon="7.0105350">
        <ele>1700.8</ele>
        <time>2017-07-27T08:56:33Z</time>
      </trkpt>
      <trkpt lat="44.9746540" lon="7.0105220">
        <ele>1701.2</ele>
        <time>2017-07-27T08:56:35Z</time>
      </trkpt>
      <trkpt lat="44.9746870" lon="7.0104620">
        <ele>1702.0</ele>
        <time>2017-07-27T08:56:42Z</time>
      </trkpt>
      <trkpt lat="44.9746970" lon="7.0104320">
        <ele>1702.4</ele>
        <time>2017-07-27T08:56:45Z</time>
      </trkpt>
      <trkpt lat="44.9747050" lon="7.0104010">
        <ele>1702.8</ele>
        <time>2017-07-27T08:56:47Z</time>
      </trkpt>
      <trkpt lat="44.9747130" lon="7.0103760">
        <ele>1703.2</ele>
        <time>2017-07-27T08:56:49Z</time>
      </trkpt>
      <trkpt lat="44.9747240" lon="7.0103320">
        <ele>1703.4</ele>
        <time>2017-07-27T08:56:52Z</time>
      </trkpt>
      <trkpt lat="44.9747400" lon="7.0103140">
        <ele>1703.6</ele>
        <time>2017-07-27T08:56:54Z</time>
      </trkpt>
      <trkpt lat="44.9747700" lon="7.0102820">
        <ele>1704.2</ele>
        <time>2017-07-27T08:56:58Z</time>
      </trkpt>
      <trkpt lat="44.9748100" lon="7.0102700">
        <ele>1704.8</ele>
        <time>2017-07-27T08:57:02Z</time>
      </trkpt>
      <trkpt lat="44.9748370" lon="7.0102310">
        <ele>1705.4</ele>
        <time>2017-07-27T08:57:06Z</time>
      </trkpt>
      <trkpt lat="44.9748420" lon="7.0102220">
        <ele>1705.6</ele>
        <time>2017-07-27T08:57:07Z</time>
      </trkpt>
      <trkpt lat="44.9748650" lon="7.0101820">
        <ele>1706.0</ele>
        <time>2017-07-27T08:57:11Z</time>
      </trkpt>
      <trkpt lat="44.9748750" lon="7.0101780">
        <ele>1706.2</ele>
        <time>2017-07-27T08:57:12Z</time>
      </trkpt>
      <trkpt lat="44.9748950" lon="7.0101660">
        <ele>1706.4</ele>
        <time>2017-07-27T08:57:14Z</time>
      </trkpt>
      <trkpt lat="44.9749260" lon="7.0101370">
        <ele>1706.8</ele>
        <time>2017-07-27T08:57:18Z</time>
      </trkpt>
      <trkpt lat="44.9749590" lon="7.0101160">
        <ele>1707.2</ele>
        <time>2017-07-27T08:57:21Z</time>
      </trkpt>
      <trkpt lat="44.9749770" lon="7.0101010">
        <ele>1707.6</ele>
        <time>2017-07-27T08:57:23Z</time>
      </trkpt>
      <trkpt lat="44.9749860" lon="7.0100920">
        <ele>1707.6</ele>
        <time>2017-07-27T08:57:24Z</time>
      </trkpt>
      <trkpt lat="44.9750010" lon="7.0100690">
        <ele>1708.0</ele>
        <time>2017-07-27T08:57:26Z</time>
      </trkpt>
      <trkpt lat="44.9750320" lon="7.0100210">
        <ele>1708.6</ele>
        <time>2017-07-27T08:57:30Z</time>
      </trkpt>
      <trkpt lat="44.9750390" lon="7.0100090">
        <ele>1708.8</ele>
        <time>2017-07-27T08:57:31Z</time>
      </trkpt>
      <trkpt lat="44.9750780" lon="7.0099600">
        <ele>1709.8</ele>
        <time>2017-07-27T08:57:36Z</time>
      </trkpt>
      <trkpt lat="44.9750930" lon="7.0099430">
        <ele>1710.0</ele>
        <time>2017-07-27T08:57:38Z</time>
      </trkpt>
      <trkpt lat="44.9751180" lon="7.0099190">
        <ele>1710.8</ele>
        <time>2017-07-27T08:57:41Z</time>
      </trkpt>
      <trkpt lat="44.9751210" lon="7.0099070">
        <ele>1711.0</ele>
        <time>2017-07-27T08:57:42Z</time>
      </trkpt>
      <trkpt lat="44.9751520" lon="7.0098700">
        <ele>1711.6</ele>
        <time>2017-07-27T08:57:46Z</time>
      </trkpt>
      <trkpt lat="44.9751710" lon="7.0098480">
        <ele>1712.2</ele>
        <time>2017-07-27T08:57:49Z</time>
      </trkpt>
      <trkpt lat="44.9751870" lon="7.0098060">
        <ele>1713.0</ele>
        <time>2017-07-27T08:57:54Z</time>
      </trkpt>
      <trkpt lat="44.9751930" lon="7.0097940">
        <ele>1713.2</ele>
        <time>2017-07-27T08:57:55Z</time>
      </trkpt>
      <trkpt lat="44.9752140" lon="7.0097610">
        <ele>1713.8</ele>
        <time>2017-07-27T08:57:59Z</time>
      </trkpt>
      <trkpt lat="44.9752310" lon="7.0097570">
        <ele>1714.0</ele>
        <time>2017-07-27T08:58:01Z</time>
      </trkpt>
      <trkpt lat="44.9752390" lon="7.0097560">
        <ele>1714.4</ele>
        <time>2017-07-27T08:58:02Z</time>
      </trkpt>
      <trkpt lat="44.9752820" lon="7.0097360">
        <ele>1715.2</ele>
        <time>2017-07-27T08:58:08Z</time>
      </trkpt>
      <trkpt lat="44.9752920" lon="7.0097330">
        <ele>1715.4</ele>
        <time>2017-07-27T08:58:10Z</time>
      </trkpt>
      <trkpt lat="44.9753060" lon="7.0097300">
        <ele>1715.8</ele>
        <time>2017-07-27T08:58:13Z</time>
      </trkpt>
      <trkpt lat="44.9753430" lon="7.0097580">
        <ele>1716.4</ele>
        <time>2017-07-27T08:58:19Z</time>
      </trkpt>
      <trkpt lat="44.9753680" lon="7.0098120">
        <ele>1717.4</ele>
        <time>2017-07-27T08:58:25Z</time>
      </trkpt>
      <trkpt lat="44.9753700" lon="7.0098210">
        <ele>1717.8</ele>
        <time>2017-07-27T08:58:26Z</time>
      </trkpt>
      <trkpt lat="44.9753980" lon="7.0098750">
        <ele>1718.4</ele>
        <time>2017-07-27T08:58:32Z</time>
      </trkpt>
      <trkpt lat="44.9754060" lon="7.0098580">
        <ele>1718.8</ele>
        <time>2017-07-27T08:58:34Z</time>
      </trkpt>
      <trkpt lat="44.9754290" lon="7.0098530">
        <ele>1719.6</ele>
        <time>2017-07-27T08:58:38Z</time>
      </trkpt>
      <trkpt lat="44.9754420" lon="7.0098590">
        <ele>1720.0</ele>
        <time>2017-07-27T08:58:39Z</time>
      </trkpt>
      <trkpt lat="44.9754620" lon="7.0098720">
        <ele>1721.0</ele>
        <time>2017-07-27T08:58:43Z</time>
      </trkpt>
      <trkpt lat="44.9755050" lon="7.0098750">
        <ele>1722.0</ele>
        <time>2017-07-27T08:58:48Z</time>
      </trkpt>
      <trkpt lat="44.9755110" lon="7.0098780">
        <ele>1722.4</ele>
        <time>2017-07-27T08:58:49Z</time>
      </trkpt>
      <trkpt lat="44.9755670" lon="7.0099030">
        <ele>1723.4</ele>
        <time>2017-07-27T08:58:54Z</time>
      </trkpt>
      <trkpt lat="44.9755960" lon="7.0098990">
        <ele>1724.0</ele>
        <time>2017-07-27T08:58:57Z</time>
      </trkpt>
      <trkpt lat="44.9756040" lon="7.0098980">
        <ele>1724.6</ele>
        <time>2017-07-27T08:58:59Z</time>
      </trkpt>
      <trkpt lat="44.9756330" lon="7.0098730">
        <ele>1725.8</ele>
        <time>2017-07-27T08:59:03Z</time>
      </trkpt>
      <trkpt lat="44.9756500" lon="7.0098830">
        <ele>1726.2</ele>
        <time>2017-07-27T08:59:05Z</time>
      </trkpt>
      <trkpt lat="44.9756680" lon="7.0098990">
        <ele>1727.0</ele>
        <time>2017-07-27T08:59:07Z</time>
      </trkpt>
      <trkpt lat="44.9757050" lon="7.0099150">
        <ele>1727.6</ele>
        <time>2017-07-27T08:59:11Z</time>
      </trkpt>
      <trkpt lat="44.9757080" lon="7.0099160">
        <ele>1728.0</ele>
        <time>2017-07-27T08:59:13Z</time>
      </trkpt>
      <trkpt lat="44.9757190" lon="7.0098980">
        <ele>1728.4</ele>
        <time>2017-07-27T08:59:16Z</time>
      </trkpt>
      <trkpt lat="44.9757330" lon="7.0098770">
        <ele>1729.0</ele>
        <time>2017-07-27T08:59:18Z</time>
      </trkpt>
      <trkpt lat="44.9757330" lon="7.0098460">
        <ele>1729.6</ele>
        <time>2017-07-27T08:59:21Z</time>
      </trkpt>
      <trkpt lat="44.9757330" lon="7.0098330">
        <ele>1729.8</ele>
        <time>2017-07-27T08:59:22Z</time>
      </trkpt>
      <trkpt lat="44.9757340" lon="7.0098110">
        <ele>1730.2</ele>
        <time>2017-07-27T08:59:24Z</time>
      </trkpt>
      <trkpt lat="44.9757300" lon="7.0097780">
        <ele>1730.8</ele>
        <time>2017-07-27T08:59:28Z</time>
      </trkpt>
      <trkpt lat="44.9757200" lon="7.0097720">
        <ele>1731.0</ele>
        <time>2017-07-27T08:59:29Z</time>
      </trkpt>
      <trkpt lat="44.9757090" lon="7.0097660">
        <ele>1731.4</ele>
        <time>2017-07-27T08:59:30Z</time>
      </trkpt>
      <trkpt lat="44.9756890" lon="7.0097340">
        <ele>1731.8</ele>
        <time>2017-07-27T08:59:33Z</time>
      </trkpt>
      <trkpt lat="44.9756730" lon="7.0096950">
        <ele>1732.4</ele>
        <time>2017-07-27T08:59:36Z</time>
      </trkpt>
      <trkpt lat="44.9756660" lon="7.0096610">
        <ele>1733.4</ele>
        <time>2017-07-27T08:59:39Z</time>
      </trkpt>
      <trkpt lat="44.9756620" lon="7.0096460">
        <ele>1733.6</ele>
        <time>2017-07-27T08:59:40Z</time>
      </trkpt>
      <trkpt lat="44.9756510" lon="7.0095950">
        <ele>1734.6</ele>
        <time>2017-07-27T08:59:44Z</time>
      </trkpt>
      <trkpt lat="44.9756440" lon="7.0095710">
        <ele>1735.0</ele>
        <time>2017-07-27T08:59:46Z</time>
      </trkpt>
      <trkpt lat="44.9756570" lon="7.0095440">
        <ele>1735.6</ele>
        <time>2017-07-27T08:59:50Z</time>
      </trkpt>
      <trkpt lat="44.9756710" lon="7.0095190">
        <ele>1736.0</ele>
        <time>2017-07-27T08:59:52Z</time>
      </trkpt>
      <trkpt lat="44.9756830" lon="7.0095060">
        <ele>1736.6</ele>
        <time>2017-07-27T08:59:56Z</time>
      </trkpt>
      <trkpt lat="44.9756980" lon="7.0095180">
        <ele>1737.0</ele>
        <time>2017-07-27T08:59:58Z</time>
      </trkpt>
      <trkpt lat="44.9757400" lon="7.0095380">
        <ele>1737.6</ele>
        <time>2017-07-27T09:00:04Z</time>
      </trkpt>
      <trkpt lat="44.9757410" lon="7.0095410">
        <ele>1737.8</ele>
        <time>2017-07-27T09:00:05Z</time>
      </trkpt>
      <trkpt lat="44.9757610" lon="7.0095210">
        <ele>1738.2</ele>
        <time>2017-07-27T09:00:08Z</time>
      </trkpt>
      <trkpt lat="44.9757680" lon="7.0095000">
        <ele>1738.8</ele>
        <time>2017-07-27T09:00:12Z</time>
      </trkpt>
      <trkpt lat="44.9757650" lon="7.0094850">
        <ele>1738.8</ele>
        <time>2017-07-27T09:00:13Z</time>
      </trkpt>
      <trkpt lat="44.9757480" lon="7.0094330">
        <ele>1740.0</ele>
        <time>2017-07-27T09:00:19Z</time>
      </trkpt>
      <trkpt lat="44.9757430" lon="7.0094230">
        <ele>1740.2</ele>
        <time>2017-07-27T09:00:20Z</time>
      </trkpt>
      <trkpt lat="44.9757490" lon="7.0094140">
        <ele>1741.2</ele>
        <time>2017-07-27T09:00:24Z</time>
      </trkpt>
      <trkpt lat="44.9757490" lon="7.0094140">
        <ele>1741.2</ele>
        <time>2017-07-27T09:00:25Z</time>
      </trkpt>
      <trkpt lat="44.9757780" lon="7.0094170">
        <ele>1741.6</ele>
        <time>2017-07-27T09:00:28Z</time>
      </trkpt>
      <trkpt lat="44.9758000" lon="7.0094380">
        <ele>1742.2</ele>
        <time>2017-07-27T09:00:31Z</time>
      </trkpt>
      <trkpt lat="44.9758310" lon="7.0094320">
        <ele>1742.6</ele>
        <time>2017-07-27T09:00:37Z</time>
      </trkpt>
      <trkpt lat="44.9758220" lon="7.0093950">
        <ele>1743.4</ele>
        <time>2017-07-27T09:00:40Z</time>
      </trkpt>
      <trkpt lat="44.9758060" lon="7.0093650">
        <ele>1744.0</ele>
        <time>2017-07-27T09:00:43Z</time>
      </trkpt>
      <trkpt lat="44.9757990" lon="7.0093460">
        <ele>1744.4</ele>
        <time>2017-07-27T09:00:45Z</time>
      </trkpt>
      <trkpt lat="44.9757960" lon="7.0093260">
        <ele>1744.8</ele>
        <time>2017-07-27T09:00:47Z</time>
      </trkpt>
      <trkpt lat="44.9757910" lon="7.0093010">
        <ele>1745.4</ele>
        <time>2017-07-27T09:00:49Z</time>
      </trkpt>
      <trkpt lat="44.9757860" lon="7.0092920">
        <ele>1745.6</ele>
        <time>2017-07-27T09:00:50Z</time>
      </trkpt>
      <trkpt lat="44.9757660" lon="7.0092610">
        <ele>1746.4</ele>
        <time>2017-07-27T09:00:54Z</time>
      </trkpt>
      <trkpt lat="44.9757680" lon="7.0092640">
        <ele>1746.8</ele>
        <time>2017-07-27T09:00:55Z</time>
      </trkpt>
      <trkpt lat="44.9757510" lon="7.0092100">
        <ele>1748.0</ele>
        <time>2017-07-27T09:01:00Z</time>
      </trkpt>
      <trkpt lat="44.9757470" lon="7.0091760">
        <ele>1749.0</ele>
        <time>2017-07-27T09:01:04Z</time>
      </trkpt>
      <trkpt lat="44.9757500" lon="7.0091710">
        <ele>1749.4</ele>
        <time>2017-07-27T09:01:06Z</time>
      </trkpt>
      <trkpt lat="44.9757580" lon="7.0091580">
        <ele>1750.2</ele>
        <time>2017-07-27T09:01:08Z</time>
      </trkpt>
      <trkpt lat="44.9757830" lon="7.0091390">
        <ele>1750.6</ele>
        <time>2017-07-27T09:01:10Z</time>
      </trkpt>
      <trkpt lat="44.9758310" lon="7.0091230">
        <ele>1751.2</ele>
        <time>2017-07-27T09:01:15Z</time>
      </trkpt>
      <trkpt lat="44.9758340" lon="7.0091170">
        <ele>1751.4</ele>
        <time>2017-07-27T09:01:16Z</time>
      </trkpt>
      <trkpt lat="44.9758420" lon="7.0090840">
        <ele>1751.6</ele>
        <time>2017-07-27T09:01:19Z</time>
      </trkpt>
      <trkpt lat="44.9758790" lon="7.0090460">
        <ele>1752.4</ele>
        <time>2017-07-27T09:01:24Z</time>
      </trkpt>
      <trkpt lat="44.9759010" lon="7.0090310">
        <ele>1752.6</ele>
        <time>2017-07-27T09:01:26Z</time>
      </trkpt>
      <trkpt lat="44.9759100" lon="7.0090240">
        <ele>1752.6</ele>
        <time>2017-07-27T09:01:27Z</time>
      </trkpt>
      <trkpt lat="44.9759320" lon="7.0090280">
        <ele>1753.2</ele>
        <time>2017-07-27T09:01:32Z</time>
      </trkpt>
      <trkpt lat="44.9759420" lon="7.0090490">
        <ele>1753.6</ele>
        <time>2017-07-27T09:01:35Z</time>
      </trkpt>
      <trkpt lat="44.9759390" lon="7.0090670">
        <ele>1753.6</ele>
        <time>2017-07-27T09:01:37Z</time>
      </trkpt>
      <trkpt lat="44.9759180" lon="7.0091280">
        <ele>1754.0</ele>
        <time>2017-07-27T09:01:44Z</time>
      </trkpt>
      <trkpt lat="44.9759240" lon="7.0091420">
        <ele>1754.6</ele>
        <time>2017-07-27T09:01:46Z</time>
      </trkpt>
      <trkpt lat="44.9759380" lon="7.0091750">
        <ele>1755.6</ele>
        <time>2017-07-27T09:01:50Z</time>
      </trkpt>
      <trkpt lat="44.9759380" lon="7.0091860">
        <ele>1755.8</ele>
        <time>2017-07-27T09:01:51Z</time>
      </trkpt>
      <trkpt lat="44.9759480" lon="7.0092160">
        <ele>1755.8</ele>
        <time>2017-07-27T09:01:53Z</time>
      </trkpt>
      <trkpt lat="44.9759750" lon="7.0092290">
        <ele>1756.6</ele>
        <time>2017-07-27T09:01:55Z</time>
      </trkpt>
      <trkpt lat="44.9759720" lon="7.0092280">
        <ele>1757.0</ele>
        <time>2017-07-27T09:01:56Z</time>
      </trkpt>
      <trkpt lat="44.9759940" lon="7.0092600">
        <ele>1757.8</ele>
        <time>2017-07-27T09:01:59Z</time>
      </trkpt>
      <trkpt lat="44.9760100" lon="7.0092910">
        <ele>1758.8</ele>
        <time>2017-07-27T09:02:03Z</time>
      </trkpt>
      <trkpt lat="44.9760240" lon="7.0092920">
        <ele>1759.2</ele>
        <time>2017-07-27T09:02:04Z</time>
      </trkpt>
      <trkpt lat="44.9760490" lon="7.0092940">
        <ele>1760.2</ele>
        <time>2017-07-27T09:02:08Z</time>
      </trkpt>
      <trkpt lat="44.9760840" lon="7.0093290">
        <ele>1760.8</ele>
        <time>2017-07-27T09:02:11Z</time>
      </trkpt>
      <trkpt lat="44.9761240" lon="7.0093790">
        <ele>1761.2</ele>
        <time>2017-07-27T09:02:15Z</time>
      </trkpt>
      <trkpt lat="44.9761350" lon="7.0093930">
        <ele>1761.6</ele>
        <time>2017-07-27T09:02:17Z</time>
      </trkpt>
      <trkpt lat="44.9761470" lon="7.0094290">
        <ele>1762.4</ele>
        <time>2017-07-27T09:02:21Z</time>
      </trkpt>
      <trkpt lat="44.9761450" lon="7.0094490">
        <ele>1762.6</ele>
        <time>2017-07-27T09:02:23Z</time>
      </trkpt>
      <trkpt lat="44.9761270" lon="7.0094770">
        <ele>1763.4</ele>
        <time>2017-07-27T09:02:27Z</time>
      </trkpt>
      <trkpt lat="44.9761160" lon="7.0094890">
        <ele>1763.8</ele>
        <time>2017-07-27T09:02:28Z</time>
      </trkpt>
      <trkpt lat="44.9761120" lon="7.0094910">
        <ele>1764.8</ele>
        <time>2017-07-27T09:02:30Z</time>
      </trkpt>
      <trkpt lat="44.9761200" lon="7.0094590">
        <ele>1766.0</ele>
        <time>2017-07-27T09:02:34Z</time>
      </trkpt>
      <trkpt lat="44.9761330" lon="7.0094450">
        <ele>1767.0</ele>
        <time>2017-07-27T09:02:38Z</time>
      </trkpt>
      <trkpt lat="44.9761400" lon="7.0094350">
        <ele>1767.8</ele>
        <time>2017-07-27T09:02:40Z</time>
      </trkpt>
      <trkpt lat="44.9761440" lon="7.0094290">
        <ele>1768.2</ele>
        <time>2017-07-27T09:02:41Z</time>
      </trkpt>
      <trkpt lat="44.9761540" lon="7.0094080">
        <ele>1769.2</ele>
        <time>2017-07-27T09:02:44Z</time>
      </trkpt>
      <trkpt lat="44.9761560" lon="7.0094150">
        <ele>1769.8</ele>
        <time>2017-07-27T09:02:46Z</time>
      </trkpt>
      <trkpt lat="44.9761570" lon="7.0094180">
        <ele>1770.2</ele>
        <time>2017-07-27T09:02:48Z</time>
      </trkpt>
      <trkpt lat="44.9761370" lon="7.0094280">
        <ele>1770.4</ele>
        <time>2017-07-27T09:02:51Z</time>
      </trkpt>
      <trkpt lat="44.9761270" lon="7.0094340">
        <ele>1770.6</ele>
        <time>2017-07-27T09:02:52Z</time>
      </trkpt>
      <trkpt lat="44.9760900" lon="7.0094530">
        <ele>1771.4</ele>
        <time>2017-07-27T09:02:55Z</time>
      </trkpt>
      <trkpt lat="44.9760580" lon="7.0094670">
        <ele>1772.4</ele>
        <time>2017-07-27T09:02:58Z</time>
      </trkpt>
      <trkpt lat="44.9760200" lon="7.0094760">
        <ele>1773.4</ele>
        <time>2017-07-27T09:03:01Z</time>
      </trkpt>
      <trkpt lat="44.9760000" lon="7.0094750">
        <ele>1774.4</ele>
        <time>2017-07-27T09:03:03Z</time>
      </trkpt>
      <trkpt lat="44.9759670" lon="7.0094740">
        <ele>1775.8</ele>
        <time>2017-07-27T09:03:06Z</time>
      </trkpt>
      <trkpt lat="44.9759480" lon="7.0094630">
        <ele>1776.8</ele>
        <time>2017-07-27T09:03:08Z</time>
      </trkpt>
      <trkpt lat="44.9759400" lon="7.0094500">
        <ele>1777.0</ele>
        <time>2017-07-27T09:03:09Z</time>
      </trkpt>
      <trkpt lat="44.9759160" lon="7.0094280">
        <ele>1777.6</ele>
        <time>2017-07-27T09:03:11Z</time>
      </trkpt>
      <trkpt lat="44.9758990" lon="7.0094190">
        <ele>1778.0</ele>
        <time>2017-07-27T09:03:12Z</time>
      </trkpt>
      <trkpt lat="44.9758460" lon="7.0093660">
        <ele>1779.4</ele>
        <time>2017-07-27T09:03:16Z</time>
      </trkpt>
      <trkpt lat="44.9758680" lon="7.0093730">
        <ele>1780.0</ele>
        <time>2017-07-27T09:03:18Z</time>
      </trkpt>
      <trkpt lat="44.9758980" lon="7.0093820">
        <ele>1780.6</ele>
        <time>2017-07-27T09:03:20Z</time>
      </trkpt>
      <trkpt lat="44.9760150" lon="7.0094270">
        <ele>1781.4</ele>
        <time>2017-07-27T09:03:23Z</time>
      </trkpt>
      <trkpt lat="44.9760110" lon="7.0094260">
        <ele>1781.6</ele>
        <time>2017-07-27T09:03:24Z</time>
      </trkpt>
      <trkpt lat="44.9760400" lon="7.0094560">
        <ele>1782.8</ele>
        <time>2017-07-27T09:03:28Z</time>
      </trkpt>
      <trkpt lat="44.9760260" lon="7.0095050">
        <ele>1783.8</ele>
        <time>2017-07-27T09:03:33Z</time>
      </trkpt>
      <trkpt lat="44.9760150" lon="7.0095400">
        <ele>1785.0</ele>
        <time>2017-07-27T09:03:38Z</time>
      </trkpt>
      <trkpt lat="44.9760170" lon="7.0095360">
        <ele>1785.2</ele>
        <time>2017-07-27T09:03:39Z</time>
      </trkpt>
      <trkpt lat="44.9759910" lon="7.0095470">
        <ele>1786.2</ele>
        <time>2017-07-27T09:03:43Z</time>
      </trkpt>
      <trkpt lat="44.9759910" lon="7.0095530">
        <ele>1786.4</ele>
        <time>2017-07-27T09:03:44Z</time>
      </trkpt>
      <trkpt lat="44.9760060" lon="7.0095180">
        <ele>1787.2</ele>
        <time>2017-07-27T09:03:49Z</time>
      </trkpt>
      <trkpt lat="44.9760020" lon="7.0095190">
        <ele>1787.4</ele>
        <time>2017-07-27T09:03:50Z</time>
      </trkpt>
      <trkpt lat="44.9760460" lon="7.0095130">
        <ele>1788.4</ele>
        <time>2017-07-27T09:03:54Z</time>
      </trkpt>
      <trkpt lat="44.9760680" lon="7.0094730">
        <ele>1789.6</ele>
        <time>2017-07-27T09:03:59Z</time>
      </trkpt>
      <trkpt lat="44.9760620" lon="7.0094600">
        <ele>1789.6</ele>
        <time>2017-07-27T09:04:00Z</time>
      </trkpt>
      <trkpt lat="44.9760560" lon="7.0094500">
        <ele>1789.8</ele>
        <time>2017-07-27T09:04:01Z</time>
      </trkpt>
      <trkpt lat="44.9775640" lon="7.0095580">
        <ele>1790.6</ele>
        <time>2017-07-27T09:04:08Z</time>
      </trkpt>
      <trkpt lat="44.9780810" lon="7.0096480">
        <ele>1790.6</ele>
        <time>2017-07-27T09:04:09Z</time>
      </trkpt>
      <trkpt lat="44.9803440" lon="7.0100780">
        <ele>1791.6</ele>
        <time>2017-07-27T09:04:15Z</time>
      </trkpt>
      <trkpt lat="44.9804090" lon="7.0101010">
        <ele>1791.6</ele>
        <time>2017-07-27T09:04:16Z</time>
      </trkpt>
      <trkpt lat="44.9806750" lon="7.0101490">
        <ele>1792.6</ele>
        <time>2017-07-27T09:04:22Z</time>
      </trkpt>
      <trkpt lat="44.9807070" lon="7.0101500">
        <ele>1792.8</ele>
        <time>2017-07-27T09:04:23Z</time>
      </trkpt>
      <trkpt lat="44.9807910" lon="7.0101470">
        <ele>1793.0</ele>
        <time>2017-07-27T09:04:26Z</time>
      </trkpt>
      <trkpt lat="44.9808700" lon="7.0101370">
        <ele>1793.6</ele>
        <time>2017-07-27T09:04:30Z</time>
      </trkpt>
      <trkpt lat="44.9809370" lon="7.0101180">
        <ele>1793.8</ele>
        <time>2017-07-27T09:04:34Z</time>
      </trkpt>
      <trkpt lat="44.9810650" lon="7.0100950">
        <ele>1794.0</ele>
        <time>2017-07-27T09:04:37Z</time>
      </trkpt>
      <trkpt lat="44.9810910" lon="7.0100940">
        <ele>1794.0</ele>
        <time>2017-07-27T09:04:38Z</time>
      </trkpt>
      <trkpt lat="44.9811970" lon="7.0100800">
        <ele>1794.2</ele>
        <time>2017-07-27T09:04:42Z</time>
      </trkpt>
      <trkpt lat="44.9812230" lon="7.0100740">
        <ele>1794.2</ele>
        <time>2017-07-27T09:04:43Z</time>
      </trkpt>
      <trkpt lat="44.9813660" lon="7.0100390">
        <ele>1794.6</ele>
        <time>2017-07-27T09:04:49Z</time>
      </trkpt>
      <trkpt lat="44.9813970" lon="7.0100300">
        <ele>1795.0</ele>
        <time>2017-07-27T09:04:51Z</time>
      </trkpt>
      <trkpt lat="44.9815190" lon="7.0100080">
        <ele>1795.4</ele>
        <time>2017-07-27T09:04:55Z</time>
      </trkpt>
      <trkpt lat="44.9815370" lon="7.0100110">
        <ele>1795.4</ele>
        <time>2017-07-27T09:04:56Z</time>
      </trkpt>
      <trkpt lat="44.9815760" lon="7.0100120">
        <ele>1795.6</ele>
        <time>2017-07-27T09:04:57Z</time>
      </trkpt>
      <trkpt lat="44.9817240" lon="7.0099970">
        <ele>1796.0</ele>
        <time>2017-07-27T09:05:01Z</time>
      </trkpt>
      <trkpt lat="44.9818000" lon="7.0099850">
        <ele>1796.2</ele>
        <time>2017-07-27T09:05:03Z</time>
      </trkpt>
      <trkpt lat="44.9819070" lon="7.0099640">
        <ele>1797.0</ele>
        <time>2017-07-27T09:05:07Z</time>
      </trkpt>
      <trkpt lat="44.9819300" lon="7.0099610">
        <ele>1797.2</ele>
        <time>2017-07-27T09:05:08Z</time>
      </trkpt>
      <trkpt lat="44.9820700" lon="7.0099610">
        <ele>1798.0</ele>
        <time>2017-07-27T09:05:12Z</time>
      </trkpt>
      <trkpt lat="44.9821320" lon="7.0099580">
        <ele>1798.4</ele>
        <time>2017-07-27T09:05:14Z</time>
      </trkpt>
      <trkpt lat="44.9822600" lon="7.0099440">
        <ele>1799.2</ele>
        <time>2017-07-27T09:05:19Z</time>
      </trkpt>
      <trkpt lat="44.9822830" lon="7.0099440">
        <ele>1799.4</ele>
        <time>2017-07-27T09:05:20Z</time>
      </trkpt>
      <trkpt lat="44.9823930" lon="7.0099360">
        <ele>1800.6</ele>
        <time>2017-07-27T09:05:26Z</time>
      </trkpt>
      <trkpt lat="44.9824510" lon="7.0098980">
        <ele>1801.8</ele>
        <time>2017-07-27T09:05:31Z</time>
      </trkpt>
      <trkpt lat="44.9825510" lon="7.0098270">
        <ele>1802.6</ele>
        <time>2017-07-27T09:05:38Z</time>
      </trkpt>
      <trkpt lat="44.9825640" lon="7.0098190">
        <ele>1802.8</ele>
        <time>2017-07-27T09:05:39Z</time>
      </trkpt>
      <trkpt lat="44.9826240" lon="7.0097850">
        <ele>1803.6</ele>
        <time>2017-07-27T09:05:43Z</time>
      </trkpt>
      <trkpt lat="44.9826500" lon="7.0097850">
        <ele>1803.6</ele>
        <time>2017-07-27T09:05:44Z</time>
      </trkpt>
      <trkpt lat="44.9827010" lon="7.0097710">
        <ele>1803.8</ele>
        <time>2017-07-27T09:05:46Z</time>
      </trkpt>
      <trkpt lat="44.9827670" lon="7.0097580">
        <ele>1804.2</ele>
        <time>2017-07-27T09:05:48Z</time>
      </trkpt>
      <trkpt lat="44.9828330" lon="7.0097500">
        <ele>1804.6</ele>
        <time>2017-07-27T09:05:50Z</time>
      </trkpt>
      <trkpt lat="44.9828810" lon="7.0097440">
        <ele>1805.0</ele>
        <time>2017-07-27T09:05:52Z</time>
      </trkpt>
      <trkpt lat="44.9829790" lon="7.0097310">
        <ele>1805.6</ele>
        <time>2017-07-27T09:05:56Z</time>
      </trkpt>
      <trkpt lat="44.9830580" lon="7.0097190">
        <ele>1806.0</ele>
        <time>2017-07-27T09:05:59Z</time>
      </trkpt>
      <trkpt lat="44.9831140" lon="7.0097080">
        <ele>1806.4</ele>
        <time>2017-07-27T09:06:02Z</time>
      </trkpt>
      <trkpt lat="44.9831730" lon="7.0096950">
        <ele>1807.2</ele>
        <time>2017-07-27T09:06:05Z</time>
      </trkpt>
      <trkpt lat="44.9832190" lon="7.0096770">
        <ele>1808.0</ele>
        <time>2017-07-27T09:06:08Z</time>
      </trkpt>
      <trkpt lat="44.9832900" lon="7.0096650">
        <ele>1808.2</ele>
        <time>2017-07-27T09:06:11Z</time>
      </trkpt>
      <trkpt lat="44.9833200" lon="7.0096500">
        <ele>1808.6</ele>
        <time>2017-07-27T09:06:14Z</time>
      </trkpt>
      <trkpt lat="44.9833360" lon="7.0096420">
        <ele>1808.8</ele>
        <time>2017-07-27T09:06:15Z</time>
      </trkpt>
      <trkpt lat="44.9834000" lon="7.0096090">
        <ele>1809.6</ele>
        <time>2017-07-27T09:06:19Z</time>
      </trkpt>
      <trkpt lat="44.9834800" lon="7.0095620">
        <ele>1810.0</ele>
        <time>2017-07-27T09:06:24Z</time>
      </trkpt>
      <trkpt lat="44.9835500" lon="7.0095370">
        <ele>1809.4</ele>
        <time>2017-07-27T09:06:31Z</time>
      </trkpt>
      <trkpt lat="44.9836380" lon="7.0095550">
        <ele>1809.6</ele>
        <time>2017-07-27T09:06:38Z</time>
      </trkpt>
      <trkpt lat="44.9836520" lon="7.0095500">
        <ele>1809.8</ele>
        <time>2017-07-27T09:06:39Z</time>
      </trkpt>
      <trkpt lat="44.9837100" lon="7.0095390">
        <ele>1810.8</ele>
        <time>2017-07-27T09:06:43Z</time>
      </trkpt>
      <trkpt lat="44.9837400" lon="7.0095260">
        <ele>1811.6</ele>
        <time>2017-07-27T09:06:46Z</time>
      </trkpt>
      <trkpt lat="44.9837460" lon="7.0095220">
        <ele>1812.0</ele>
        <time>2017-07-27T09:06:47Z</time>
      </trkpt>
      <trkpt lat="44.9838180" lon="7.0095280">
        <ele>1813.0</ele>
        <time>2017-07-27T09:06:51Z</time>
      </trkpt>
      <trkpt lat="44.9838420" lon="7.0095230">
        <ele>1813.4</ele>
        <time>2017-07-27T09:06:52Z</time>
      </trkpt>
      <trkpt lat="44.9838930" lon="7.0095170">
        <ele>1814.2</ele>
        <time>2017-07-27T09:06:55Z</time>
      </trkpt>
      <trkpt lat="44.9839500" lon="7.0095290">
        <ele>1814.6</ele>
        <time>2017-07-27T09:06:58Z</time>
      </trkpt>
      <trkpt lat="44.9838110" lon="7.0091140">
        <ele>1815.2</ele>
        <time>2017-07-27T09:07:02Z</time>
      </trkpt>
      <trkpt lat="44.9838130" lon="7.0091050">
        <ele>1815.4</ele>
        <time>2017-07-27T09:07:03Z</time>
      </trkpt>
      <trkpt lat="44.9837380" lon="7.0091340">
        <ele>1816.4</ele>
        <time>2017-07-27T09:07:09Z</time>
      </trkpt>
      <trkpt lat="44.9837280" lon="7.0091630">
        <ele>1817.2</ele>
        <time>2017-07-27T09:07:15Z</time>
      </trkpt>
      <trkpt lat="44.9837310" lon="7.0091630">
        <ele>1817.4</ele>
        <time>2017-07-27T09:07:16Z</time>
      </trkpt>
      <trkpt lat="44.9837440" lon="7.0091610">
        <ele>1818.4</ele>
        <time>2017-07-27T09:07:21Z</time>
      </trkpt>
      <trkpt lat="44.9837550" lon="7.0091510">
        <ele>1818.6</ele>
        <time>2017-07-27T09:07:22Z</time>
      </trkpt>
      <trkpt lat="44.9837830" lon="7.0091420">
        <ele>1819.4</ele>
        <time>2017-07-27T09:07:25Z</time>
      </trkpt>
      <trkpt lat="44.9838150" lon="7.0091350">
        <ele>1820.2</ele>
        <time>2017-07-27T09:07:29Z</time>
      </trkpt>
      <trkpt lat="44.9838320" lon="7.0091390">
        <ele>1820.4</ele>
        <time>2017-07-27T09:07:31Z</time>
      </trkpt>
      <trkpt lat="44.9838840" lon="7.0091790">
        <ele>1820.6</ele>
        <time>2017-07-27T09:07:35Z</time>
      </trkpt>
      <trkpt lat="44.9839460" lon="7.0092110">
        <ele>1820.8</ele>
        <time>2017-07-27T09:07:39Z</time>
      </trkpt>
      <trkpt lat="44.9839720" lon="7.0092200">
        <ele>1820.8</ele>
        <time>2017-07-27T09:07:40Z</time>
      </trkpt>
      <trkpt lat="44.9841550" lon="7.0092830">
        <ele>1821.4</ele>
        <time>2017-07-27T09:07:44Z</time>
      </trkpt>
      <trkpt lat="44.9842010" lon="7.0092970">
        <ele>1821.4</ele>
        <time>2017-07-27T09:07:45Z</time>
      </trkpt>
      <trkpt lat="44.9842950" lon="7.0093260">
        <ele>1821.4</ele>
        <time>2017-07-27T09:07:47Z</time>
      </trkpt>
      <trkpt lat="44.9844330" lon="7.0093340">
        <ele>1822.0</ele>
        <time>2017-07-27T09:07:50Z</time>
      </trkpt>
      <trkpt lat="44.9845420" lon="7.0093310">
        <ele>1822.6</ele>
        <time>2017-07-27T09:07:53Z</time>
      </trkpt>
      <trkpt lat="44.9846760" lon="7.0093380">
        <ele>1823.2</ele>
        <time>2017-07-27T09:07:57Z</time>
      </trkpt>
      <trkpt lat="44.9847380" lon="7.0093450">
        <ele>1823.6</ele>
        <time>2017-07-27T09:07:59Z</time>
      </trkpt>
      <trkpt lat="44.9848480" lon="7.0093580">
        <ele>1824.0</ele>
        <time>2017-07-27T09:08:02Z</time>
      </trkpt>
      <trkpt lat="44.9849560" lon="7.0093750">
        <ele>1824.4</ele>
        <time>2017-07-27T09:08:04Z</time>
      </trkpt>
      <trkpt lat="44.9850080" lon="7.0093800">
        <ele>1824.6</ele>
        <time>2017-07-27T09:08:05Z</time>
      </trkpt>
      <trkpt lat="44.9852760" lon="7.0094640">
        <ele>1825.2</ele>
        <time>2017-07-27T09:08:10Z</time>
      </trkpt>
      <trkpt lat="44.9855150" lon="7.0095360">
        <ele>1825.8</ele>
        <time>2017-07-27T09:08:15Z</time>
      </trkpt>
      <trkpt lat="44.9857430" lon="7.0096030">
        <ele>1826.8</ele>
        <time>2017-07-27T09:08:20Z</time>
      </trkpt>
      <trkpt lat="44.9857930" lon="7.0096090">
        <ele>1827.0</ele>
        <time>2017-07-27T09:08:21Z</time>
      </trkpt>
      <trkpt lat="44.9859810" lon="7.0096260">
        <ele>1827.8</ele>
        <time>2017-07-27T09:08:25Z</time>
      </trkpt>
      <trkpt lat="44.9860220" lon="7.0096250">
        <ele>1828.2</ele>
        <time>2017-07-27T09:08:26Z</time>
      </trkpt>
      <trkpt lat="44.9862830" lon="7.0096530">
        <ele>1829.4</ele>
        <time>2017-07-27T09:08:32Z</time>
      </trkpt>
      <trkpt lat="44.9865410" lon="7.0096650">
        <ele>1830.2</ele>
        <time>2017-07-27T09:08:38Z</time>
      </trkpt>
      <trkpt lat="44.9865790" lon="7.0096690">
        <ele>1830.6</ele>
        <time>2017-07-27T09:08:39Z</time>
      </trkpt>
      <trkpt lat="44.9867990" lon="7.0096760">
        <ele>1831.6</ele>
        <time>2017-07-27T09:08:44Z</time>
      </trkpt>
      <trkpt lat="44.9871160" lon="7.0096980">
        <ele>1832.8</ele>
        <time>2017-07-27T09:08:50Z</time>
      </trkpt>
      <trkpt lat="44.9871800" lon="7.0097130">
        <ele>1832.8</ele>
        <time>2017-07-27T09:08:51Z</time>
      </trkpt>
      <trkpt lat="44.9874220" lon="7.0097760">
        <ele>1833.6</ele>
        <time>2017-07-27T09:08:55Z</time>
      </trkpt>
      <trkpt lat="44.9874730" lon="7.0097900">
        <ele>1833.8</ele>
        <time>2017-07-27T09:08:56Z</time>
      </trkpt>
      <trkpt lat="44.9876100" lon="7.0098320">
        <ele>1833.8</ele>
        <time>2017-07-27T09:08:59Z</time>
      </trkpt>
      <trkpt lat="44.9879250" lon="7.0099410">
        <ele>1834.8</ele>
        <time>2017-07-27T09:09:05Z</time>
      </trkpt>
      <trkpt lat="44.9881000" lon="7.0099880">
        <ele>1835.8</ele>
        <time>2017-07-27T09:09:08Z</time>
      </trkpt>
      <trkpt lat="44.9881650" lon="7.0099950">
        <ele>1836.2</ele>
        <time>2017-07-27T09:09:09Z</time>
      </trkpt>
      <trkpt lat="44.9882320" lon="7.0100050">
        <ele>1836.2</ele>
        <time>2017-07-27T09:09:11Z</time>
      </trkpt>
      <trkpt lat="44.9884650" lon="7.0100270">
        <ele>1837.2</ele>
        <time>2017-07-27T09:09:15Z</time>
      </trkpt>
      <trkpt lat="44.9886690" lon="7.0100480">
        <ele>1837.8</ele>
        <time>2017-07-27T09:09:18Z</time>
      </trkpt>
      <trkpt lat="44.9888390" lon="7.0100590">
        <ele>1838.4</ele>
        <time>2017-07-27T09:09:21Z</time>
      </trkpt>
      <trkpt lat="44.9890180" lon="7.0100660">
        <ele>1838.8</ele>
        <time>2017-07-27T09:09:24Z</time>
      </trkpt>
      <trkpt lat="44.9892720" lon="7.0100810">
        <ele>1839.6</ele>
        <time>2017-07-27T09:09:28Z</time>
      </trkpt>
      <trkpt lat="44.9894010" lon="7.0100920">
        <ele>1840.0</ele>
        <time>2017-07-27T09:09:30Z</time>
      </trkpt>
      <trkpt lat="44.9895310" lon="7.0100970">
        <ele>1840.6</ele>
        <time>2017-07-27T09:09:32Z</time>
      </trkpt>
      <trkpt lat="44.9898550" lon="7.0101120">
        <ele>1841.6</ele>
        <time>2017-07-27T09:09:37Z</time>
      </trkpt>
      <trkpt lat="44.9899130" lon="7.0101110">
        <ele>1841.8</ele>
        <time>2017-07-27T09:09:38Z</time>
      </trkpt>
      <trkpt lat="44.9901930" lon="7.0101250">
        <ele>1842.6</ele>
        <time>2017-07-27T09:09:43Z</time>
      </trkpt>
      <trkpt lat="44.9902440" lon="7.0101260">
        <ele>1842.8</ele>
        <time>2017-07-27T09:09:44Z</time>
      </trkpt>
      <trkpt lat="44.9903010" lon="7.0101360">
        <ele>1843.0</ele>
        <time>2017-07-27T09:09:45Z</time>
      </trkpt>
      <trkpt lat="44.9904980" lon="7.0101830">
        <ele>1843.4</ele>
        <time>2017-07-27T09:09:48Z</time>
      </trkpt>
      <trkpt lat="44.9907840" lon="7.0102490">
        <ele>1843.8</ele>
        <time>2017-07-27T09:09:52Z</time>
      </trkpt>
      <trkpt lat="44.9909290" lon="7.0102830">
        <ele>1844.0</ele>
        <time>2017-07-27T09:09:54Z</time>
      </trkpt>
      <trkpt lat="44.9911470" lon="7.0103260">
        <ele>1845.0</ele>
        <time>2017-07-27T09:09:57Z</time>
      </trkpt>
      <trkpt lat="44.9912990" lon="7.0103670">
        <ele>1845.6</ele>
        <time>2017-07-27T09:09:59Z</time>
      </trkpt>
      <trkpt lat="44.9914520" lon="7.0103990">
        <ele>1846.4</ele>
        <time>2017-07-27T09:10:01Z</time>
      </trkpt>
      <trkpt lat="44.9917430" lon="7.0104670">
        <ele>1847.6</ele>
        <time>2017-07-27T09:10:05Z</time>
      </trkpt>
      <trkpt lat="44.9920520" lon="7.0104990">
        <ele>1848.8</ele>
        <time>2017-07-27T09:10:09Z</time>
      </trkpt>
      <trkpt lat="44.9923530" lon="7.0105330">
        <ele>1850.2</ele>
        <time>2017-07-27T09:10:13Z</time>
      </trkpt>
      <trkpt lat="44.9925590" lon="7.0105480">
        <ele>1851.0</ele>
        <time>2017-07-27T09:10:16Z</time>
      </trkpt>
      <trkpt lat="44.9926210" lon="7.0105510">
        <ele>1851.2</ele>
        <time>2017-07-27T09:10:17Z</time>
      </trkpt>
      <trkpt lat="44.9929140" lon="7.0105880">
        <ele>1852.0</ele>
        <time>2017-07-27T09:10:21Z</time>
      </trkpt>
      <trkpt lat="44.9930700" lon="7.0106060">
        <ele>1852.2</ele>
        <time>2017-07-27T09:10:23Z</time>
      </trkpt>
      <trkpt lat="44.9932750" lon="7.0106340">
        <ele>1852.6</ele>
        <time>2017-07-27T09:10:26Z</time>
      </trkpt>
      <trkpt lat="44.9936160" lon="7.0106640">
        <ele>1853.4</ele>
        <time>2017-07-27T09:10:31Z</time>
      </trkpt>
      <trkpt lat="44.9937710" lon="7.0106890">
        <ele>1853.6</ele>
        <time>2017-07-27T09:10:33Z</time>
      </trkpt>
      <trkpt lat="44.9941330" lon="7.0107450">
        <ele>1854.4</ele>
        <time>2017-07-27T09:10:38Z</time>
      </trkpt>
      <trkpt lat="44.9942670" lon="7.0107660">
        <ele>1854.8</ele>
        <time>2017-07-27T09:10:40Z</time>
      </trkpt>
      <trkpt lat="44.9945330" lon="7.0107950">
        <ele>1855.6</ele>
        <time>2017-07-27T09:10:43Z</time>
      </trkpt>
      <trkpt lat="44.9948010" lon="7.0108330">
        <ele>1856.8</ele>
        <time>2017-07-27T09:10:46Z</time>
      </trkpt>
      <trkpt lat="44.9950700" lon="7.0108660">
        <ele>1857.6</ele>
        <time>2017-07-27T09:10:49Z</time>
      </trkpt>
      <trkpt lat="44.9951650" lon="7.0108800">
        <ele>1857.8</ele>
        <time>2017-07-27T09:10:50Z</time>
      </trkpt>
      <trkpt lat="44.9955410" lon="7.0109350">
        <ele>1858.6</ele>
        <time>2017-07-27T09:10:54Z</time>
      </trkpt>
      <trkpt lat="44.9957420" lon="7.0109710">
        <ele>1858.8</ele>
        <time>2017-07-27T09:10:56Z</time>
      </trkpt>
      <trkpt lat="44.9961200" lon="7.0110290">
        <ele>1859.8</ele>
        <time>2017-07-27T09:11:00Z</time>
      </trkpt>
      <trkpt lat="44.9962100" lon="7.0110440">
        <ele>1860.0</ele>
        <time>2017-07-27T09:11:01Z</time>
      </trkpt>
      <trkpt lat="44.9968200" lon="7.0111540">
        <ele>1861.0</ele>
        <time>2017-07-27T09:11:07Z</time>
      </trkpt>
      <trkpt lat="44.9969630" lon="7.0111800">
        <ele>1861.2</ele>
        <time>2017-07-27T09:11:08Z</time>
      </trkpt>
      <trkpt lat="44.9975170" lon="7.0113110">
        <ele>1861.6</ele>
        <time>2017-07-27T09:11:12Z</time>
      </trkpt>
      <trkpt lat="44.9980460" lon="7.0114160">
        <ele>1861.6</ele>
        <time>2017-07-27T09:11:16Z</time>
      </trkpt>
      <trkpt lat="44.9981870" lon="7.0114400">
        <ele>1861.6</ele>
        <time>2017-07-27T09:11:17Z</time>
      </trkpt>
      <trkpt lat="44.9986060" lon="7.0115270">
        <ele>1862.2</ele>
        <time>2017-07-27T09:11:20Z</time>
      </trkpt>
      <trkpt lat="44.9988990" lon="7.0115970">
        <ele>1862.2</ele>
        <time>2017-07-27T09:11:22Z</time>
      </trkpt>
      <trkpt lat="44.9994990" lon="7.0117220">
        <ele>1862.8</ele>
        <time>2017-07-27T09:11:26Z</time>
      </trkpt>
      <trkpt lat="44.9998140" lon="7.0117940">
        <ele>1863.2</ele>
        <time>2017-07-27T09:11:28Z</time>
      </trkpt>
      <trkpt lat="45.0001580" lon="7.0118850">
        <ele>1864.0</ele>
        <time>2017-07-27T09:11:31Z</time>
      </trkpt>
      <trkpt lat="45.0003360" lon="7.0119210">
        <ele>1864.6</ele>
        <time>2017-07-27T09:11:33Z</time>
      </trkpt>
      <trkpt lat="45.0004850" lon="7.0119620">
        <ele>1865.0</ele>
        <time>2017-07-27T09:11:35Z</time>
      </trkpt>
      <trkpt lat="45.0007530" lon="7.0120420">
        <ele>1865.6</ele>
        <time>2017-07-27T09:11:39Z</time>
      </trkpt>
      <trkpt lat="45.0008300" lon="7.0120530">
        <ele>1866.0</ele>
        <time>2017-07-27T09:11:40Z</time>
      </trkpt>
      <trkpt lat="45.0011260" lon="7.0121280">
        <ele>1866.6</ele>
        <time>2017-07-27T09:11:44Z</time>
      </trkpt>
      <trkpt lat="45.0012660" lon="7.0121560">
        <ele>1866.8</ele>
        <time>2017-07-27T09:11:46Z</time>
      </trkpt>
      <trkpt lat="45.0014960" lon="7.0122120">
        <ele>1867.6</ele>
        <time>2017-07-27T09:11:49Z</time>
      </trkpt>
      <trkpt lat="45.0016300" lon="7.0122490">
        <ele>1867.8</ele>
        <time>2017-07-27T09:11:51Z</time>
      </trkpt>
      <trkpt lat="45.0017280" lon="7.0122770">
        <ele>1868.2</ele>
        <time>2017-07-27T09:11:53Z</time>
      </trkpt>
      <trkpt lat="45.0018680" lon="7.0123230">
        <ele>1868.8</ele>
        <time>2017-07-27T09:11:57Z</time>
      </trkpt>
      <trkpt lat="45.0019170" lon="7.0123360">
        <ele>1869.0</ele>
        <time>2017-07-27T09:11:59Z</time>
      </trkpt>
      <trkpt lat="45.0019790" lon="7.0123690">
        <ele>1868.8</ele>
        <time>2017-07-27T09:12:03Z</time>
      </trkpt>
      <trkpt lat="45.0019700" lon="7.0123750">
        <ele>1869.2</ele>
        <time>2017-07-27T09:12:08Z</time>
      </trkpt>
      <trkpt lat="45.0018790" lon="7.0123540">
        <ele>1869.6</ele>
        <time>2017-07-27T09:12:12Z</time>
      </trkpt>
      <trkpt lat="45.0018020" lon="7.0123190">
        <ele>1870.0</ele>
        <time>2017-07-27T09:12:14Z</time>
      </trkpt>
      <trkpt lat="45.0016930" lon="7.0122840">
        <ele>1870.2</ele>
        <time>2017-07-27T09:12:16Z</time>
      </trkpt>
      <trkpt lat="45.0013710" lon="7.0121690">
        <ele>1871.2</ele>
        <time>2017-07-27T09:12:21Z</time>
      </trkpt>
      <trkpt lat="45.0010020" lon="7.0120540">
        <ele>1872.4</ele>
        <time>2017-07-27T09:12:25Z</time>
      </trkpt>
      <trkpt lat="45.0007490" lon="7.0119980">
        <ele>1872.4</ele>
        <time>2017-07-27T09:12:28Z</time>
      </trkpt>
      <trkpt lat="45.0006220" lon="7.0119870">
        <ele>1873.4</ele>
        <time>2017-07-27T09:12:32Z</time>
      </trkpt>
      <trkpt lat="45.0007480" lon="7.0120300">
        <ele>1874.4</ele>
        <time>2017-07-27T09:12:35Z</time>
      </trkpt>
      <trkpt lat="45.0008190" lon="7.0120620">
        <ele>1875.0</ele>
        <time>2017-07-27T09:12:37Z</time>
      </trkpt>
      <trkpt lat="45.0008780" lon="7.0120840">
        <ele>1875.4</ele>
        <time>2017-07-27T09:12:38Z</time>
      </trkpt>
      <trkpt lat="45.0009300" lon="7.0121010">
        <ele>1875.6</ele>
        <time>2017-07-27T09:12:39Z</time>
      </trkpt>
      <trkpt lat="45.0012610" lon="7.0122330">
        <ele>1876.4</ele>
        <time>2017-07-27T09:12:44Z</time>
      </trkpt>
      <trkpt lat="45.0013260" lon="7.0122520">
        <ele>1876.6</ele>
        <time>2017-07-27T09:12:45Z</time>
      </trkpt>
      <trkpt lat="45.0016120" lon="7.0123520">
        <ele>1877.4</ele>
        <time>2017-07-27T09:12:50Z</time>
      </trkpt>
      <trkpt lat="45.0017210" lon="7.0123760">
        <ele>1877.6</ele>
        <time>2017-07-27T09:12:53Z</time>
      </trkpt>
      <trkpt lat="45.0018340" lon="7.0124040">
        <ele>1878.0</ele>
        <time>2017-07-27T09:12:56Z</time>
      </trkpt>
      <trkpt lat="45.0018890" lon="7.0124020">
        <ele>1878.2</ele>
        <time>2017-07-27T09:12:58Z</time>
      </trkpt>
      <trkpt lat="45.0019630" lon="7.0124330">
        <ele>1878.4</ele>
        <time>2017-07-27T09:13:00Z</time>
      </trkpt>
      <trkpt lat="45.0021630" lon="7.0124960">
        <ele>1878.4</ele>
        <time>2017-07-27T09:13:04Z</time>
      </trkpt>
      <trkpt lat="45.0022170" lon="7.0125140">
        <ele>1878.6</ele>
        <time>2017-07-27T09:13:05Z</time>
      </trkpt>
      <trkpt lat="45.0024790" lon="7.0125850">
        <ele>1879.4</ele>
        <time>2017-07-27T09:13:10Z</time>
      </trkpt>
      <trkpt lat="45.0025350" lon="7.0126070">
        <ele>1879.8</ele>
        <time>2017-07-27T09:13:11Z</time>
      </trkpt>
      <trkpt lat="45.0026900" lon="7.0126640">
        <ele>1880.4</ele>
        <time>2017-07-27T09:13:15Z</time>
      </trkpt>
      <trkpt lat="45.0027430" lon="7.0126800">
        <ele>1880.8</ele>
        <time>2017-07-27T09:13:17Z</time>
      </trkpt>
      <trkpt lat="45.0027660" lon="7.0126970">
        <ele>1881.4</ele>
        <time>2017-07-27T09:13:20Z</time>
      </trkpt>
      <trkpt lat="45.0027630" lon="7.0126960">
        <ele>1882.0</ele>
        <time>2017-07-27T09:13:25Z</time>
      </trkpt>
      <trkpt lat="45.0027350" lon="7.0126780">
        <ele>1882.6</ele>
        <time>2017-07-27T09:13:29Z</time>
      </trkpt>
      <trkpt lat="45.0027200" lon="7.0126790">
        <ele>1883.0</ele>
        <time>2017-07-27T09:13:32Z</time>
      </trkpt>
      <trkpt lat="45.0026750" lon="7.0126440">
        <ele>1884.2</ele>
        <time>2017-07-27T09:13:35Z</time>
      </trkpt>
      <trkpt lat="45.0026460" lon="7.0126350">
        <ele>1884.6</ele>
        <time>2017-07-27T09:13:37Z</time>
      </trkpt>
      <trkpt lat="45.0026300" lon="7.0126390">
        <ele>1885.2</ele>
        <time>2017-07-27T09:13:40Z</time>
      </trkpt>
      <trkpt lat="45.0025480" lon="7.0126400">
        <ele>1886.2</ele>
        <time>2017-07-27T09:13:46Z</time>
      </trkpt>
      <trkpt lat="45.0024360" lon="7.0126050">
        <ele>1886.4</ele>
        <time>2017-07-27T09:13:51Z</time>
      </trkpt>
      <trkpt lat="45.0023180" lon="7.0125740">
        <ele>1887.4</ele>
        <time>2017-07-27T09:13:56Z</time>
      </trkpt>
      <trkpt lat="45.0022710" lon="7.0125780">
        <ele>1888.0</ele>
        <time>2017-07-27T09:13:58Z</time>
      </trkpt>
      <trkpt lat="45.0022210" lon="7.0125720">
        <ele>1888.4</ele>
        <time>2017-07-27T09:14:00Z</time>
      </trkpt>
      <trkpt lat="45.0021420" lon="7.0125570">
        <ele>1888.8</ele>
        <time>2017-07-27T09:14:02Z</time>
      </trkpt>
      <trkpt lat="45.0019650" lon="7.0125110">
        <ele>1889.8</ele>
        <time>2017-07-27T09:14:05Z</time>
      </trkpt>
      <trkpt lat="45.0017540" lon="7.0124630">
        <ele>1890.2</ele>
        <time>2017-07-27T09:14:08Z</time>
      </trkpt>
      <trkpt lat="45.0016700" lon="7.0124500">
        <ele>1890.2</ele>
        <time>2017-07-27T09:14:09Z</time>
      </trkpt>
      <trkpt lat="45.0013860" lon="7.0123580">
        <ele>1890.4</ele>
        <time>2017-07-27T09:14:12Z</time>
      </trkpt>
      <trkpt lat="45.0009550" lon="7.0122680">
        <ele>1890.6</ele>
        <time>2017-07-27T09:14:16Z</time>
      </trkpt>
      <trkpt lat="45.0007370" lon="7.0122250">
        <ele>1890.6</ele>
        <time>2017-07-27T09:14:18Z</time>
      </trkpt>
      <trkpt lat="45.0006140" lon="7.0121960">
        <ele>1890.8</ele>
        <time>2017-07-27T09:14:19Z</time>
      </trkpt>
      <trkpt lat="45.0003440" lon="7.0121210">
        <ele>1890.4</ele>
        <time>2017-07-27T09:14:21Z</time>
      </trkpt>
      <trkpt lat="44.9999490" lon="7.0119940">
        <ele>1890.2</ele>
        <time>2017-07-27T09:14:24Z</time>
      </trkpt>
      <trkpt lat="44.9997030" lon="7.0118870">
        <ele>1890.6</ele>
        <time>2017-07-27T09:14:26Z</time>
      </trkpt>
      <trkpt lat="44.9992230" lon="7.0117090">
        <ele>1891.4</ele>
        <time>2017-07-27T09:14:30Z</time>
      </trkpt>
      <trkpt lat="44.9991090" lon="7.0116680">
        <ele>1891.6</ele>
        <time>2017-07-27T09:14:31Z</time>
      </trkpt>
      <trkpt lat="44.9988960" lon="7.0115870">
        <ele>1891.8</ele>
        <time>2017-07-27T09:14:33Z</time>
      </trkpt>
      <trkpt lat="44.9985970" lon="7.0114880">
        <ele>1892.4</ele>
        <time>2017-07-27T09:14:36Z</time>
      </trkpt>
      <trkpt lat="44.9982910" lon="7.0113790">
        <ele>1893.0</ele>
        <time>2017-07-27T09:14:39Z</time>
      </trkpt>
      <trkpt lat="44.9980720" lon="7.0112990">
        <ele>1893.2</ele>
        <time>2017-07-27T09:14:41Z</time>
      </trkpt>
      <trkpt lat="44.9976490" lon="7.0111560">
        <ele>1894.2</ele>
        <time>2017-07-27T09:14:45Z</time>
      </trkpt>
      <trkpt lat="44.9972850" lon="7.0110260">
        <ele>1895.0</ele>
        <time>2017-07-27T09:14:48Z</time>
      </trkpt>
      <trkpt lat="44.9971590" lon="7.0109850">
        <ele>1895.2</ele>
        <time>2017-07-27T09:14:49Z</time>
      </trkpt>
      <trkpt lat="44.9970290" lon="7.0109490">
        <ele>1895.4</ele>
        <time>2017-07-27T09:14:50Z</time>
      </trkpt>
      <trkpt lat="44.9967930" lon="7.0108810">
        <ele>1896.0</ele>
        <time>2017-07-27T09:14:52Z</time>
      </trkpt>
      <trkpt lat="44.9966750" lon="7.0108420">
        <ele>1896.4</ele>
        <time>2017-07-27T09:14:53Z</time>
      </trkpt>
      <trkpt lat="44.9965440" lon="7.0108110">
        <ele>1896.6</ele>
        <time>2017-07-27T09:14:54Z</time>
      </trkpt>
      <trkpt lat="44.9963000" lon="7.0107450">
        <ele>1897.2</ele>
        <time>2017-07-27T09:14:56Z</time>
      </trkpt>
      <trkpt lat="44.9961680" lon="7.0107160">
        <ele>1897.4</ele>
        <time>2017-07-27T09:14:57Z</time>
      </trkpt>
      <trkpt lat="44.9958110" lon="7.0106150">
        <ele>1898.2</ele>
        <time>2017-07-27T09:15:00Z</time>
      </trkpt>
      <trkpt lat="44.9956970" lon="7.0105880">
        <ele>1898.6</ele>
        <time>2017-07-27T09:15:01Z</time>
      </trkpt>
      <trkpt lat="44.9953620" lon="7.0105010">
        <ele>1899.6</ele>
        <time>2017-07-27T09:15:04Z</time>
      </trkpt>
      <trkpt lat="44.9950420" lon="7.0104130">
        <ele>1900.8</ele>
        <time>2017-07-27T09:15:07Z</time>
      </trkpt>
      <trkpt lat="44.9948250" lon="7.0103560">
        <ele>1902.0</ele>
        <time>2017-07-27T09:15:09Z</time>
      </trkpt>
      <trkpt lat="44.9944940" lon="7.0102780">
        <ele>1903.0</ele>
        <time>2017-07-27T09:15:12Z</time>
      </trkpt>
      <trkpt lat="44.9942410" lon="7.0102220">
        <ele>1903.4</ele>
        <time>2017-07-27T09:15:14Z</time>
      </trkpt>
      <trkpt lat="44.9939840" lon="7.0101520">
        <ele>1904.2</ele>
        <time>2017-07-27T09:15:16Z</time>
      </trkpt>
      <trkpt lat="44.9934500" lon="7.0100420">
        <ele>1905.2</ele>
        <time>2017-07-27T09:15:20Z</time>
      </trkpt>
      <trkpt lat="44.9929060" lon="7.0099160">
        <ele>1906.2</ele>
        <time>2017-07-27T09:15:24Z</time>
      </trkpt>
      <trkpt lat="44.9927700" lon="7.0098860">
        <ele>1906.4</ele>
        <time>2017-07-27T09:15:25Z</time>
      </trkpt>
      <trkpt lat="44.9926310" lon="7.0098540">
        <ele>1906.6</ele>
        <time>2017-07-27T09:15:26Z</time>
      </trkpt>
      <trkpt lat="44.9921990" lon="7.0097320">
        <ele>1907.4</ele>
        <time>2017-07-27T09:15:29Z</time>
      </trkpt>
      <trkpt lat="44.9920750" lon="7.0096930">
        <ele>1907.8</ele>
        <time>2017-07-27T09:15:30Z</time>
      </trkpt>
      <trkpt lat="44.9918400" lon="7.0096210">
        <ele>1908.6</ele>
        <time>2017-07-27T09:15:32Z</time>
      </trkpt>
      <trkpt lat="44.9916510" lon="7.0095730">
        <ele>1909.8</ele>
        <time>2017-07-27T09:15:35Z</time>
      </trkpt>
      <trkpt lat="44.9912720" lon="7.0094420">
        <ele>1910.4</ele>
        <time>2017-07-27T09:15:40Z</time>
      </trkpt>
      <trkpt lat="44.9910390" lon="7.0093830">
        <ele>1910.8</ele>
        <time>2017-07-27T09:15:42Z</time>
      </trkpt>
      <trkpt lat="44.9909240" lon="7.0093600">
        <ele>1911.0</ele>
        <time>2017-07-27T09:15:43Z</time>
      </trkpt>
      <trkpt lat="44.9908030" lon="7.0093340">
        <ele>1911.0</ele>
        <time>2017-07-27T09:15:44Z</time>
      </trkpt>
      <trkpt lat="44.9901620" lon="7.0092100">
        <ele>1910.8</ele>
        <time>2017-07-27T09:15:49Z</time>
      </trkpt>
      <trkpt lat="44.9900270" lon="7.0091770">
        <ele>1910.6</ele>
        <time>2017-07-27T09:15:50Z</time>
      </trkpt>
      <trkpt lat="44.9893930" lon="7.0089900">
        <ele>1911.6</ele>
        <time>2017-07-27T09:15:55Z</time>
      </trkpt>
      <trkpt lat="44.9891070" lon="7.0089010">
        <ele>1912.0</ele>
        <time>2017-07-27T09:15:58Z</time>
      </trkpt>
      <trkpt lat="44.9890260" lon="7.0088830">
        <ele>1912.2</ele>
        <time>2017-07-27T09:16:00Z</time>
      </trkpt>
      <trkpt lat="44.9890340" lon="7.0088800">
        <ele>1912.4</ele>
        <time>2017-07-27T09:16:02Z</time>
      </trkpt>
      <trkpt lat="44.9887900" lon="7.0088180">
        <ele>1912.4</ele>
        <time>2017-07-27T09:16:05Z</time>
      </trkpt>
      <trkpt lat="44.9885000" lon="7.0087360">
        <ele>1913.2</ele>
        <time>2017-07-27T09:16:09Z</time>
      </trkpt>
      <trkpt lat="44.9884150" lon="7.0087170">
        <ele>1913.4</ele>
        <time>2017-07-27T09:16:10Z</time>
      </trkpt>
      <trkpt lat="44.9882160" lon="7.0086620">
        <ele>1914.4</ele>
        <time>2017-07-27T09:16:13Z</time>
      </trkpt>
      <trkpt lat="44.9882160" lon="7.0086620">
        <ele>1914.8</ele>
        <time>2017-07-27T09:16:14Z</time>
      </trkpt>
      <trkpt lat="44.9882160" lon="7.0086620">
        <ele>1915.6</ele>
        <time>2017-07-27T09:16:18Z</time>
      </trkpt>
      <trkpt lat="44.9880890" lon="7.0086240">
        <ele>1915.8</ele>
        <time>2017-07-27T09:16:20Z</time>
      </trkpt>
      <trkpt lat="44.9879580" lon="7.0085890">
        <ele>1916.0</ele>
        <time>2017-07-27T09:16:21Z</time>
      </trkpt>
      <trkpt lat="44.9875660" lon="7.0084830">
        <ele>1916.2</ele>
        <time>2017-07-27T09:16:24Z</time>
      </trkpt>
      <trkpt lat="44.9869190" lon="7.0083370">
        <ele>1916.0</ele>
        <time>2017-07-27T09:16:29Z</time>
      </trkpt>
      <trkpt lat="44.9866610" lon="7.0082800">
        <ele>1916.2</ele>
        <time>2017-07-27T09:16:31Z</time>
      </trkpt>
      <trkpt lat="44.9860420" lon="7.0081350">
        <ele>1916.2</ele>
        <time>2017-07-27T09:16:36Z</time>
      </trkpt>
      <trkpt lat="44.9859220" lon="7.0080940">
        <ele>1916.4</ele>
        <time>2017-07-27T09:16:37Z</time>
      </trkpt>
      <trkpt lat="44.9858000" lon="7.0080540">
        <ele>1916.6</ele>
        <time>2017-07-27T09:16:38Z</time>
      </trkpt>
      <trkpt lat="44.9783840" lon="7.0059680">
        <ele>1917.4</ele>
        <time>2017-07-27T09:16:41Z</time>
      </trkpt>
      <trkpt lat="44.9783840" lon="7.0059660">
        <ele>1917.8</ele>
        <time>2017-07-27T09:16:42Z</time>
      </trkpt>
      <trkpt lat="44.9784020" lon="7.0059370">
        <ele>1918.8</ele>
        <time>2017-07-27T09:16:45Z</time>
      </trkpt>
      <trkpt lat="44.9784130" lon="7.0059270">
        <ele>1919.8</ele>
        <time>2017-07-27T09:16:48Z</time>
      </trkpt>
      <trkpt lat="44.9784200" lon="7.0059160">
        <ele>1920.0</ele>
        <time>2017-07-27T09:16:49Z</time>
      </trkpt>
      <trkpt lat="44.9784210" lon="7.0058980">
        <ele>1920.2</ele>
        <time>2017-07-27T09:16:50Z</time>
      </trkpt>
      <trkpt lat="44.9784360" lon="7.0058350">
        <ele>1921.0</ele>
        <time>2017-07-27T09:16:54Z</time>
      </trkpt>
      <trkpt lat="44.9784670" lon="7.0058070">
        <ele>1922.2</ele>
        <time>2017-07-27T09:16:58Z</time>
      </trkpt>
      <trkpt lat="44.9784890" lon="7.0058160">
        <ele>1922.6</ele>
        <time>2017-07-27T09:17:00Z</time>
      </trkpt>
      <trkpt lat="44.9785370" lon="7.0058420">
        <ele>1923.0</ele>
        <time>2017-07-27T09:17:04Z</time>
      </trkpt>
      <trkpt lat="44.9785460" lon="7.0058760">
        <ele>1922.8</ele>
        <time>2017-07-27T09:17:06Z</time>
      </trkpt>
      <trkpt lat="44.9785450" lon="7.0058900">
        <ele>1922.6</ele>
        <time>2017-07-27T09:17:07Z</time>
      </trkpt>
      <trkpt lat="44.9785670" lon="7.0059090">
        <ele>1922.4</ele>
        <time>2017-07-27T09:17:11Z</time>
      </trkpt>
      <trkpt lat="44.9785660" lon="7.0059280">
        <ele>1922.2</ele>
        <time>2017-07-27T09:17:12Z</time>
      </trkpt>
      <trkpt lat="44.9785670" lon="7.0059450">
        <ele>1922.0</ele>
        <time>2017-07-27T09:17:16Z</time>
      </trkpt>
      <trkpt lat="44.9785680" lon="7.0060180">
        <ele>1921.8</ele>
        <time>2017-07-27T09:17:21Z</time>
      </trkpt>
      <trkpt lat="44.9785830" lon="7.0060580">
        <ele>1922.4</ele>
        <time>2017-07-27T09:17:26Z</time>
      </trkpt>
      <trkpt lat="44.9785950" lon="7.0060590">
        <ele>1923.0</ele>
        <time>2017-07-27T09:17:28Z</time>
      </trkpt>
      <trkpt lat="44.9786100" lon="7.0060610">
        <ele>1923.4</ele>
        <time>2017-07-27T09:17:30Z</time>
      </trkpt>
      <trkpt lat="44.9786280" lon="7.0060790">
        <ele>1924.6</ele>
        <time>2017-07-27T09:17:33Z</time>
      </trkpt>
      <trkpt lat="44.9786330" lon="7.0060870">
        <ele>1924.6</ele>
        <time>2017-07-27T09:17:34Z</time>
      </trkpt>
      <trkpt lat="44.9786390" lon="7.0061070">
        <ele>1925.6</ele>
        <time>2017-07-27T09:17:38Z</time>
      </trkpt>
      <trkpt lat="44.9786460" lon="7.0061220">
        <ele>1925.8</ele>
        <time>2017-07-27T09:17:40Z</time>
      </trkpt>
      <trkpt lat="44.9786550" lon="7.0061540">
        <ele>1925.8</ele>
        <time>2017-07-27T09:17:41Z</time>
      </trkpt>
      <trkpt lat="44.9786860" lon="7.0061980">
        <ele>1926.6</ele>
        <time>2017-07-27T09:17:46Z</time>
      </trkpt>
      <trkpt lat="44.9786760" lon="7.0062410">
        <ele>1926.8</ele>
        <time>2017-07-27T09:17:50Z</time>
      </trkpt>
      <trkpt lat="44.9786730" lon="7.0062670">
        <ele>1926.8</ele>
        <time>2017-07-27T09:17:52Z</time>
      </trkpt>
      <trkpt lat="44.9786620" lon="7.0063410">
        <ele>1927.6</ele>
        <time>2017-07-27T09:17:59Z</time>
      </trkpt>
      <trkpt lat="44.9786690" lon="7.0063610">
        <ele>1928.2</ele>
        <time>2017-07-27T09:18:01Z</time>
      </trkpt>
      <trkpt lat="44.9786710" lon="7.0063620">
        <ele>1928.8</ele>
        <time>2017-07-27T09:18:03Z</time>
      </trkpt>
      <trkpt lat="44.9786760" lon="7.0063750">
        <ele>1928.8</ele>
        <time>2017-07-27T09:18:04Z</time>
      </trkpt>
      <trkpt lat="44.9786720" lon="7.0064300">
        <ele>1929.8</ele>
        <time>2017-07-27T09:18:09Z</time>
      </trkpt>
      <trkpt lat="44.9786680" lon="7.0064430">
        <ele>1930.0</ele>
        <time>2017-07-27T09:18:10Z</time>
      </trkpt>
      <trkpt lat="44.9786510" lon="7.0064870">
        <ele>1930.8</ele>
        <time>2017-07-27T09:18:14Z</time>
      </trkpt>
      <trkpt lat="44.9786530" lon="7.0065150">
        <ele>1931.8</ele>
        <time>2017-07-27T09:18:17Z</time>
      </trkpt>
      <trkpt lat="44.9786510" lon="7.0065230">
        <ele>1932.0</ele>
        <time>2017-07-27T09:18:18Z</time>
      </trkpt>
      <trkpt lat="44.9786690" lon="7.0065530">
        <ele>1933.4</ele>
        <time>2017-07-27T09:18:22Z</time>
      </trkpt>
      <trkpt lat="44.9786730" lon="7.0065700">
        <ele>1933.8</ele>
        <time>2017-07-27T09:18:23Z</time>
      </trkpt>
      <trkpt lat="44.9786790" lon="7.0065910">
        <ele>1934.6</ele>
        <time>2017-07-27T09:18:27Z</time>
      </trkpt>
      <trkpt lat="44.9786870" lon="7.0066080">
        <ele>1935.0</ele>
        <time>2017-07-27T09:18:29Z</time>
      </trkpt>
      <trkpt lat="44.9786750" lon="7.0066570">
        <ele>1935.6</ele>
        <time>2017-07-27T09:18:35Z</time>
      </trkpt>
      <trkpt lat="44.9786740" lon="7.0066690">
        <ele>1935.6</ele>
        <time>2017-07-27T09:18:36Z</time>
      </trkpt>
      <trkpt lat="44.9786740" lon="7.0067060">
        <ele>1936.0</ele>
        <time>2017-07-27T09:18:39Z</time>
      </trkpt>
      <trkpt lat="44.9786800" lon="7.0067300">
        <ele>1936.2</ele>
        <time>2017-07-27T09:18:41Z</time>
      </trkpt>
      <trkpt lat="44.9786730" lon="7.0067820">
        <ele>1936.4</ele>
        <time>2017-07-27T09:18:45Z</time>
      </trkpt>
      <trkpt lat="44.9786600" lon="7.0068220">
        <ele>1936.6</ele>
        <time>2017-07-27T09:18:48Z</time>
      </trkpt>
      <trkpt lat="44.9786510" lon="7.0068410">
        <ele>1937.2</ele>
        <time>2017-07-27T09:18:50Z</time>
      </trkpt>
      <trkpt lat="44.9786470" lon="7.0068930">
        <ele>1937.4</ele>
        <time>2017-07-27T09:18:54Z</time>
      </trkpt>
      <trkpt lat="44.9786390" lon="7.0069050">
        <ele>1937.4</ele>
        <time>2017-07-27T09:18:55Z</time>
      </trkpt>
      <trkpt lat="44.9786340" lon="7.0069470">
        <ele>1937.6</ele>
        <time>2017-07-27T09:18:58Z</time>
      </trkpt>
      <trkpt lat="44.9786320" lon="7.0069600">
        <ele>1937.8</ele>
        <time>2017-07-27T09:18:59Z</time>
      </trkpt>
      <trkpt lat="44.9786400" lon="7.0070510">
        <ele>1938.8</ele>
        <time>2017-07-27T09:19:06Z</time>
      </trkpt>
      <trkpt lat="44.9786370" lon="7.0070430">
        <ele>1938.8</ele>
        <time>2017-07-27T09:19:07Z</time>
      </trkpt>
      <trkpt lat="44.9786650" lon="7.0071260">
        <ele>1939.8</ele>
        <time>2017-07-27T09:19:13Z</time>
      </trkpt>
      <trkpt lat="44.9786680" lon="7.0071360">
        <ele>1939.8</ele>
        <time>2017-07-27T09:19:14Z</time>
      </trkpt>
      <trkpt lat="44.9786950" lon="7.0071750">
        <ele>1941.0</ele>
        <time>2017-07-27T09:19:18Z</time>
      </trkpt>
      <trkpt lat="44.9787040" lon="7.0071840">
        <ele>1941.2</ele>
        <time>2017-07-27T09:19:19Z</time>
      </trkpt>
      <trkpt lat="44.9787140" lon="7.0071940">
        <ele>1942.0</ele>
        <time>2017-07-27T09:19:22Z</time>
      </trkpt>
      <trkpt lat="44.9787430" lon="7.0072470">
        <ele>1942.8</ele>
        <time>2017-07-27T09:19:26Z</time>
      </trkpt>
      <trkpt lat="44.9787460" lon="7.0072570">
        <ele>1943.2</ele>
        <time>2017-07-27T09:19:27Z</time>
      </trkpt>
      <trkpt lat="44.9787520" lon="7.0073020">
        <ele>1944.2</ele>
        <time>2017-07-27T09:19:32Z</time>
      </trkpt>
      <trkpt lat="44.9787590" lon="7.0073570">
        <ele>1945.4</ele>
        <time>2017-07-27T09:19:39Z</time>
      </trkpt>
      <trkpt lat="44.9787830" lon="7.0074160">
        <ele>1945.8</ele>
        <time>2017-07-27T09:19:46Z</time>
      </trkpt>
      <trkpt lat="44.9788210" lon="7.0074840">
        <ele>1946.2</ele>
        <time>2017-07-27T09:19:52Z</time>
      </trkpt>
      <trkpt lat="44.9788290" lon="7.0074940">
        <ele>1946.4</ele>
        <time>2017-07-27T09:19:53Z</time>
      </trkpt>
      <trkpt lat="44.9788550" lon="7.0075140">
        <ele>1947.2</ele>
        <time>2017-07-27T09:19:56Z</time>
      </trkpt>
      <trkpt lat="44.9788660" lon="7.0075180">
        <ele>1947.6</ele>
        <time>2017-07-27T09:19:57Z</time>
      </trkpt>
      <trkpt lat="44.9788750" lon="7.0075360">
        <ele>1948.2</ele>
        <time>2017-07-27T09:19:59Z</time>
      </trkpt>
      <trkpt lat="44.9788820" lon="7.0075410">
        <ele>1948.4</ele>
        <time>2017-07-27T09:20:00Z</time>
      </trkpt>
      <trkpt lat="44.9788890" lon="7.0075460">
        <ele>1948.8</ele>
        <time>2017-07-27T09:20:01Z</time>
      </trkpt>
      <trkpt lat="44.9789080" lon="7.0075680">
        <ele>1949.6</ele>
        <time>2017-07-27T09:20:04Z</time>
      </trkpt>
      <trkpt lat="44.9789120" lon="7.0075770">
        <ele>1950.0</ele>
        <time>2017-07-27T09:20:05Z</time>
      </trkpt>
      <trkpt lat="44.9789260" lon="7.0075780">
        <ele>1950.4</ele>
        <time>2017-07-27T09:20:06Z</time>
      </trkpt>
      <trkpt lat="44.9789410" lon="7.0076120">
        <ele>1951.0</ele>
        <time>2017-07-27T09:20:10Z</time>
      </trkpt>
      <trkpt lat="44.9789440" lon="7.0076240">
        <ele>1951.4</ele>
        <time>2017-07-27T09:20:11Z</time>
      </trkpt>
      <trkpt lat="44.9789520" lon="7.0076610">
        <ele>1952.2</ele>
        <time>2017-07-27T09:20:14Z</time>
      </trkpt>
      <trkpt lat="44.9789570" lon="7.0077090">
        <ele>1952.8</ele>
        <time>2017-07-27T09:20:18Z</time>
      </trkpt>
      <trkpt lat="44.9789620" lon="7.0077540">
        <ele>1953.2</ele>
        <time>2017-07-27T09:20:21Z</time>
      </trkpt>
      <trkpt lat="44.9789640" lon="7.0078440">
        <ele>1953.6</ele>
        <time>2017-07-27T09:20:27Z</time>
      </trkpt>
      <trkpt lat="44.9789700" lon="7.0078760">
        <ele>1953.6</ele>
        <time>2017-07-27T09:20:30Z</time>
      </trkpt>
      <trkpt lat="44.9789820" lon="7.0079070">
        <ele>1953.8</ele>
        <time>2017-07-27T09:20:33Z</time>
      </trkpt>
      <trkpt lat="44.9789880" lon="7.0079320">
        <ele>1954.2</ele>
        <time>2017-07-27T09:20:35Z</time>
      </trkpt>
      <trkpt lat="44.9789840" lon="7.0079470">
        <ele>1954.4</ele>
        <time>2017-07-27T09:20:36Z</time>
      </trkpt>
      <trkpt lat="44.9789800" lon="7.0079850">
        <ele>1954.4</ele>
        <time>2017-07-27T09:20:39Z</time>
      </trkpt>
      <trkpt lat="44.9789910" lon="7.0080120">
        <ele>1954.6</ele>
        <time>2017-07-27T09:20:41Z</time>
      </trkpt>
      <trkpt lat="44.9790020" lon="7.0080310">
        <ele>1954.8</ele>
        <time>2017-07-27T09:20:44Z</time>
      </trkpt>
      <trkpt lat="44.9790070" lon="7.0080660">
        <ele>1955.4</ele>
        <time>2017-07-27T09:20:47Z</time>
      </trkpt>
      <trkpt lat="44.9790130" lon="7.0081170">
        <ele>1956.0</ele>
        <time>2017-07-27T09:20:51Z</time>
      </trkpt>
      <trkpt lat="44.9790050" lon="7.0081670">
        <ele>1956.2</ele>
        <time>2017-07-27T09:20:55Z</time>
      </trkpt>
      <trkpt lat="44.9789990" lon="7.0081940">
        <ele>1956.2</ele>
        <time>2017-07-27T09:20:57Z</time>
      </trkpt>
      <trkpt lat="44.9789910" lon="7.0082880">
        <ele>1956.4</ele>
        <time>2017-07-27T09:21:04Z</time>
      </trkpt>
      <trkpt lat="44.9789960" lon="7.0082970">
        <ele>1956.6</ele>
        <time>2017-07-27T09:21:05Z</time>
      </trkpt>
      <trkpt lat="44.9790060" lon="7.0083890">
        <ele>1957.0</ele>
        <time>2017-07-27T09:21:11Z</time>
      </trkpt>
      <trkpt lat="44.9790150" lon="7.0084610">
        <ele>1957.4</ele>
        <time>2017-07-27T09:21:17Z</time>
      </trkpt>
      <trkpt lat="44.9790190" lon="7.0084690">
        <ele>1957.6</ele>
        <time>2017-07-27T09:21:18Z</time>
      </trkpt>
      <trkpt lat="44.9790360" lon="7.0085780">
        <ele>1958.8</ele>
        <time>2017-07-27T09:21:27Z</time>
      </trkpt>
      <trkpt lat="44.9790320" lon="7.0086170">
        <ele>1959.8</ele>
        <time>2017-07-27T09:21:32Z</time>
      </trkpt>
      <trkpt lat="44.9790280" lon="7.0086600">
        <ele>1960.0</ele>
        <time>2017-07-27T09:21:33Z</time>
      </trkpt>
      <trkpt lat="44.9790260" lon="7.0086840">
        <ele>1960.4</ele>
        <time>2017-07-27T09:21:36Z</time>
      </trkpt>
      <trkpt lat="44.9790200" lon="7.0087340">
        <ele>1961.0</ele>
        <time>2017-07-27T09:21:41Z</time>
      </trkpt>
      <trkpt lat="44.9790180" lon="7.0087440">
        <ele>1961.0</ele>
        <time>2017-07-27T09:21:42Z</time>
      </trkpt>
      <trkpt lat="44.9789960" lon="7.0088110">
        <ele>1961.4</ele>
        <time>2017-07-27T09:21:47Z</time>
      </trkpt>
      <trkpt lat="44.9789880" lon="7.0088450">
        <ele>1961.8</ele>
        <time>2017-07-27T09:21:50Z</time>
      </trkpt>
      <trkpt lat="44.9789790" lon="7.0088610">
        <ele>1962.2</ele>
        <time>2017-07-27T09:21:52Z</time>
      </trkpt>
      <trkpt lat="44.9789680" lon="7.0088870">
        <ele>1962.6</ele>
        <time>2017-07-27T09:21:54Z</time>
      </trkpt>
      <trkpt lat="44.9789410" lon="7.0089160">
        <ele>1963.4</ele>
        <time>2017-07-27T09:21:57Z</time>
      </trkpt>
      <trkpt lat="44.9789400" lon="7.0089460">
        <ele>1963.8</ele>
        <time>2017-07-27T09:21:59Z</time>
      </trkpt>
      <trkpt lat="44.9789440" lon="7.0089740">
        <ele>1964.4</ele>
        <time>2017-07-27T09:22:01Z</time>
      </trkpt>
      <trkpt lat="44.9789430" lon="7.0089870">
        <ele>1964.4</ele>
        <time>2017-07-27T09:22:02Z</time>
      </trkpt>
      <trkpt lat="44.9789330" lon="7.0090670">
        <ele>1965.0</ele>
        <time>2017-07-27T09:22:07Z</time>
      </trkpt>
      <trkpt lat="44.9789250" lon="7.0091070">
        <ele>1965.6</ele>
        <time>2017-07-27T09:22:10Z</time>
      </trkpt>
      <trkpt lat="44.9789230" lon="7.0091360">
        <ele>1966.2</ele>
        <time>2017-07-27T09:22:12Z</time>
      </trkpt>
      <trkpt lat="44.9789170" lon="7.0091650">
        <ele>1966.6</ele>
        <time>2017-07-27T09:22:14Z</time>
      </trkpt>
      <trkpt lat="44.9789140" lon="7.0091780">
        <ele>1966.8</ele>
        <time>2017-07-27T09:22:15Z</time>
      </trkpt>
      <trkpt lat="44.9789000" lon="7.0092400">
        <ele>1967.8</ele>
        <time>2017-07-27T09:22:20Z</time>
      </trkpt>
      <trkpt lat="44.9788850" lon="7.0092760">
        <ele>1968.8</ele>
        <time>2017-07-27T09:22:23Z</time>
      </trkpt>
      <trkpt lat="44.9788810" lon="7.0092840">
        <ele>1969.2</ele>
        <time>2017-07-27T09:22:24Z</time>
      </trkpt>
      <trkpt lat="44.9788680" lon="7.0093330">
        <ele>1970.2</ele>
        <time>2017-07-27T09:22:28Z</time>
      </trkpt>
      <trkpt lat="44.9788660" lon="7.0093890">
        <ele>1971.4</ele>
        <time>2017-07-27T09:22:33Z</time>
      </trkpt>
      <trkpt lat="44.9788610" lon="7.0094020">
        <ele>1971.6</ele>
        <time>2017-07-27T09:22:34Z</time>
      </trkpt>
      <trkpt lat="44.9788540" lon="7.0094440">
        <ele>1972.8</ele>
        <time>2017-07-27T09:22:38Z</time>
      </trkpt>
      <trkpt lat="44.9788440" lon="7.0094700">
        <ele>1973.2</ele>
        <time>2017-07-27T09:22:40Z</time>
      </trkpt>
      <trkpt lat="44.9788430" lon="7.0094990">
        <ele>1973.8</ele>
        <time>2017-07-27T09:22:42Z</time>
      </trkpt>
      <trkpt lat="44.9788440" lon="7.0095120">
        <ele>1974.8</ele>
        <time>2017-07-27T09:22:45Z</time>
      </trkpt>
      <trkpt lat="44.9788340" lon="7.0095570">
        <ele>1975.2</ele>
        <time>2017-07-27T09:22:47Z</time>
      </trkpt>
      <trkpt lat="44.9788290" lon="7.0095750">
        <ele>1975.4</ele>
        <time>2017-07-27T09:22:48Z</time>
      </trkpt>
      <trkpt lat="44.9788260" lon="7.0096030">
        <ele>1975.8</ele>
        <time>2017-07-27T09:22:50Z</time>
      </trkpt>
      <trkpt lat="44.9788230" lon="7.0096510">
        <ele>1976.4</ele>
        <time>2017-07-27T09:22:53Z</time>
      </trkpt>
      <trkpt lat="44.9788220" lon="7.0096680">
        <ele>1976.6</ele>
        <time>2017-07-27T09:22:54Z</time>
      </trkpt>
      <trkpt lat="44.9788280" lon="7.0096970">
        <ele>1977.0</ele>
        <time>2017-07-27T09:22:56Z</time>
      </trkpt>
      <trkpt lat="44.9788240" lon="7.0097420">
        <ele>1977.4</ele>
        <time>2017-07-27T09:22:59Z</time>
      </trkpt>
      <trkpt lat="44.9788190" lon="7.0097700">
        <ele>1977.8</ele>
        <time>2017-07-27T09:23:01Z</time>
      </trkpt>
      <trkpt lat="44.9788210" lon="7.0097830">
        <ele>1978.0</ele>
        <time>2017-07-27T09:23:02Z</time>
      </trkpt>
      <trkpt lat="44.9788290" lon="7.0098140">
        <ele>1978.8</ele>
        <time>2017-07-27T09:23:05Z</time>
      </trkpt>
      <trkpt lat="44.9788360" lon="7.0098210">
        <ele>1979.0</ele>
        <time>2017-07-27T09:23:06Z</time>
      </trkpt>
      <trkpt lat="44.9788380" lon="7.0098320">
        <ele>1979.4</ele>
        <time>2017-07-27T09:23:07Z</time>
      </trkpt>
      <trkpt lat="44.9788380" lon="7.0098480">
        <ele>1979.8</ele>
        <time>2017-07-27T09:23:08Z</time>
      </trkpt>
      <trkpt lat="44.9788510" lon="7.0098830">
        <ele>1980.8</ele>
        <time>2017-07-27T09:23:11Z</time>
      </trkpt>
      <trkpt lat="44.9788570" lon="7.0098900">
        <ele>1981.0</ele>
        <time>2017-07-27T09:23:12Z</time>
      </trkpt>
      <trkpt lat="44.9788690" lon="7.0098950">
        <ele>1981.4</ele>
        <time>2017-07-27T09:23:13Z</time>
      </trkpt>
      <trkpt lat="44.9788800" lon="7.0099080">
        <ele>1981.8</ele>
        <time>2017-07-27T09:23:15Z</time>
      </trkpt>
      <trkpt lat="44.9788890" lon="7.0099100">
        <ele>1982.0</ele>
        <time>2017-07-27T09:23:16Z</time>
      </trkpt>
      <trkpt lat="44.9789000" lon="7.0099310">
        <ele>1982.8</ele>
        <time>2017-07-27T09:23:18Z</time>
      </trkpt>
      <trkpt lat="44.9789040" lon="7.0099420">
        <ele>1983.0</ele>
        <time>2017-07-27T09:23:19Z</time>
      </trkpt>
      <trkpt lat="44.9789120" lon="7.0099830">
        <ele>1983.2</ele>
        <time>2017-07-27T09:23:22Z</time>
      </trkpt>
      <trkpt lat="44.9789100" lon="7.0099960">
        <ele>1983.2</ele>
        <time>2017-07-27T09:23:23Z</time>
      </trkpt>
      <trkpt lat="44.9789230" lon="7.0100840">
        <ele>1982.8</ele>
        <time>2017-07-27T09:23:29Z</time>
      </trkpt>
      <trkpt lat="44.9789310" lon="7.0101170">
        <ele>1983.2</ele>
        <time>2017-07-27T09:23:32Z</time>
      </trkpt>
      <trkpt lat="44.9789500" lon="7.0101460">
        <ele>1983.6</ele>
        <time>2017-07-27T09:23:35Z</time>
      </trkpt>
      <trkpt lat="44.9789930" lon="7.0102080">
        <ele>1984.0</ele>
        <time>2017-07-27T09:23:41Z</time>
      </trkpt>
      <trkpt lat="44.9790420" lon="7.0102560">
        <ele>1985.0</ele>
        <time>2017-07-27T09:23:47Z</time>
      </trkpt>
      <trkpt lat="44.9790660" lon="7.0103370">
        <ele>1985.6</ele>
        <time>2017-07-27T09:23:53Z</time>
      </trkpt>
      <trkpt lat="44.9790660" lon="7.0103530">
        <ele>1985.6</ele>
        <time>2017-07-27T09:23:54Z</time>
      </trkpt>
      <trkpt lat="44.9790800" lon="7.0104230">
        <ele>1986.2</ele>
        <time>2017-07-27T09:23:58Z</time>
      </trkpt>
      <trkpt lat="44.9790810" lon="7.0104380">
        <ele>1986.2</ele>
        <time>2017-07-27T09:23:59Z</time>
      </trkpt>
      <trkpt lat="44.9790970" lon="7.0104580">
        <ele>1986.4</ele>
        <time>2017-07-27T09:24:01Z</time>
      </trkpt>
      <trkpt lat="44.9791260" lon="7.0104990">
        <ele>1987.2</ele>
        <time>2017-07-27T09:24:05Z</time>
      </trkpt>
      <trkpt lat="44.9791430" lon="7.0105360">
        <ele>1987.8</ele>
        <time>2017-07-27T09:24:08Z</time>
      </trkpt>
      <trkpt lat="44.9791570" lon="7.0106250">
        <ele>1988.4</ele>
        <time>2017-07-27T09:24:15Z</time>
      </trkpt>
      <trkpt lat="44.9791650" lon="7.0107130">
        <ele>1989.2</ele>
        <time>2017-07-27T09:24:21Z</time>
      </trkpt>
      <trkpt lat="44.9791720" lon="7.0107310">
        <ele>1989.4</ele>
        <time>2017-07-27T09:24:23Z</time>
      </trkpt>
      <trkpt lat="44.9791830" lon="7.0107830">
        <ele>1990.0</ele>
        <time>2017-07-27T09:24:27Z</time>
      </trkpt>
      <trkpt lat="44.9792010" lon="7.0108150">
        <ele>1990.6</ele>
        <time>2017-07-27T09:24:30Z</time>
      </trkpt>
      <trkpt lat="44.9792170" lon="7.0108470">
        <ele>1991.8</ele>
        <time>2017-07-27T09:24:33Z</time>
      </trkpt>
      <trkpt lat="44.9792250" lon="7.0108530">
        <ele>1992.2</ele>
        <time>2017-07-27T09:24:34Z</time>
      </trkpt>
      <trkpt lat="44.9792320" lon="7.0108720">
        <ele>1992.8</ele>
        <time>2017-07-27T09:24:36Z</time>
      </trkpt>
      <trkpt lat="44.9792380" lon="7.0109170">
        <ele>1994.0</ele>
        <time>2017-07-27T09:24:39Z</time>
      </trkpt>
      <trkpt lat="44.9792410" lon="7.0109430">
        <ele>1994.6</ele>
        <time>2017-07-27T09:24:41Z</time>
      </trkpt>
      <trkpt lat="44.9792410" lon="7.0109750">
        <ele>1995.2</ele>
        <time>2017-07-27T09:24:43Z</time>
      </trkpt>
      <trkpt lat="44.9792600" lon="7.0110410">
        <ele>1996.4</ele>
        <time>2017-07-27T09:24:48Z</time>
      </trkpt>
      <trkpt lat="44.9792770" lon="7.0111140">
        <ele>1997.6</ele>
        <time>2017-07-27T09:24:53Z</time>
      </trkpt>
      <trkpt lat="44.9792870" lon="7.0111360">
        <ele>1998.0</ele>
        <time>2017-07-27T09:24:55Z</time>
      </trkpt>
      <trkpt lat="44.9792930" lon="7.0111760">
        <ele>1998.6</ele>
        <time>2017-07-27T09:24:58Z</time>
      </trkpt>
      <trkpt lat="44.9793040" lon="7.0112450">
        <ele>1999.4</ele>
        <time>2017-07-27T09:25:03Z</time>
      </trkpt>
      <trkpt lat="44.9793050" lon="7.0112870">
        <ele>1999.8</ele>
        <time>2017-07-27T09:25:06Z</time>
      </trkpt>
      <trkpt lat="44.9792970" lon="7.0113400">
        <ele>2000.0</ele>
        <time>2017-07-27T09:25:10Z</time>
      </trkpt>
      <trkpt lat="44.9792790" lon="7.0114350">
        <ele>2000.2</ele>
        <time>2017-07-27T09:25:17Z</time>
      </trkpt>
      <trkpt lat="44.9792810" lon="7.0114470">
        <ele>2000.4</ele>
        <time>2017-07-27T09:25:18Z</time>
      </trkpt>
      <trkpt lat="44.9792840" lon="7.0114890">
        <ele>2000.8</ele>
        <time>2017-07-27T09:25:21Z</time>
      </trkpt>
      <trkpt lat="44.9792770" lon="7.0114990">
        <ele>2001.0</ele>
        <time>2017-07-27T09:25:22Z</time>
      </trkpt>
      <trkpt lat="44.9792750" lon="7.0115120">
        <ele>2001.2</ele>
        <time>2017-07-27T09:25:23Z</time>
      </trkpt>
      <trkpt lat="44.9792660" lon="7.0115810">
        <ele>2001.8</ele>
        <time>2017-07-27T09:25:28Z</time>
      </trkpt>
      <trkpt lat="44.9792640" lon="7.0116290">
        <ele>2002.4</ele>
        <time>2017-07-27T09:25:31Z</time>
      </trkpt>
      <trkpt lat="44.9792600" lon="7.0116500">
        <ele>2003.2</ele>
        <time>2017-07-27T09:25:33Z</time>
      </trkpt>
      <trkpt lat="44.9792690" lon="7.0117060">
        <ele>2004.4</ele>
        <time>2017-07-27T09:25:38Z</time>
      </trkpt>
      <trkpt lat="44.9792690" lon="7.0117160">
        <ele>2004.6</ele>
        <time>2017-07-27T09:25:39Z</time>
      </trkpt>
      <trkpt lat="44.9792650" lon="7.0117310">
        <ele>2005.0</ele>
        <time>2017-07-27T09:25:40Z</time>
      </trkpt>
      <trkpt lat="44.9792720" lon="7.0117590">
        <ele>2005.6</ele>
        <time>2017-07-27T09:25:42Z</time>
      </trkpt>
      <trkpt lat="44.9792680" lon="7.0117880">
        <ele>2006.2</ele>
        <time>2017-07-27T09:25:44Z</time>
      </trkpt>
      <trkpt lat="44.9792660" lon="7.0118150">
        <ele>2006.8</ele>
        <time>2017-07-27T09:25:46Z</time>
      </trkpt>
      <trkpt lat="44.9792700" lon="7.0118400">
        <ele>2008.0</ele>
        <time>2017-07-27T09:25:48Z</time>
      </trkpt>
      <trkpt lat="44.9792710" lon="7.0118570">
        <ele>2008.2</ele>
        <time>2017-07-27T09:25:49Z</time>
      </trkpt>
      <trkpt lat="44.9792710" lon="7.0118680">
        <ele>2008.6</ele>
        <time>2017-07-27T09:25:50Z</time>
      </trkpt>
      <trkpt lat="44.9792740" lon="7.0119000">
        <ele>2009.2</ele>
        <time>2017-07-27T09:25:52Z</time>
      </trkpt>
      <trkpt lat="44.9792870" lon="7.0119350">
        <ele>2010.0</ele>
        <time>2017-07-27T09:25:55Z</time>
      </trkpt>
      <trkpt lat="44.9792930" lon="7.0119410">
        <ele>2010.4</ele>
        <time>2017-07-27T09:25:56Z</time>
      </trkpt>
      <trkpt lat="44.9793020" lon="7.0119450">
        <ele>2010.8</ele>
        <time>2017-07-27T09:25:57Z</time>
      </trkpt>
      <trkpt lat="44.9793190" lon="7.0119390">
        <ele>2011.2</ele>
        <time>2017-07-27T09:25:59Z</time>
      </trkpt>
      <trkpt lat="44.9793280" lon="7.0119380">
        <ele>2011.4</ele>
        <time>2017-07-27T09:26:00Z</time>
      </trkpt>
      <trkpt lat="44.9793260" lon="7.0119400">
        <ele>2011.8</ele>
        <time>2017-07-27T09:26:02Z</time>
      </trkpt>
      <trkpt lat="44.9793260" lon="7.0119390">
        <ele>2011.6</ele>
        <time>2017-07-27T09:26:09Z</time>
      </trkpt>
      <trkpt lat="44.9793260" lon="7.0119390">
        <ele>2011.2</ele>
        <time>2017-07-27T09:26:17Z</time>
      </trkpt>
      <trkpt lat="44.9793260" lon="7.0119390">
        <ele>2011.0</ele>
        <time>2017-07-27T09:26:19Z</time>
      </trkpt>
      <trkpt lat="44.9793260" lon="7.0119390">
        <ele>2010.8</ele>
        <time>2017-07-27T09:26:30Z</time>
      </trkpt>
      <trkpt lat="44.9793260" lon="7.0119390">
        <ele>2010.8</ele>
        <time>2017-07-27T09:26:32Z</time>
      </trkpt>
      <trkpt lat="44.9793520" lon="7.0119120">
        <ele>2010.8</ele>
        <time>2017-07-27T09:26:39Z</time>
      </trkpt>
      <trkpt lat="44.9793580" lon="7.0118870">
        <ele>2010.4</ele>
        <time>2017-07-27T09:26:43Z</time>
      </trkpt>
      <trkpt lat="44.9793810" lon="7.0118610">
        <ele>2012.4</ele>
        <time>2017-07-27T09:26:45Z</time>
      </trkpt>
      <trkpt lat="44.9793890" lon="7.0118590">
        <ele>2013.4</ele>
        <time>2017-07-27T09:26:46Z</time>
      </trkpt>
      <trkpt lat="44.9794010" lon="7.0118560">
        <ele>2013.8</ele>
        <time>2017-07-27T09:26:47Z</time>
      </trkpt>
      <trkpt lat="44.9794190" lon="7.0118310">
        <ele>2014.6</ele>
        <time>2017-07-27T09:26:50Z</time>
      </trkpt>
      <trkpt lat="44.9794500" lon="7.0118040">
        <ele>2015.8</ele>
        <time>2017-07-27T09:26:55Z</time>
      </trkpt>
      <trkpt lat="44.9794870" lon="7.0118100">
        <ele>2016.6</ele>
        <time>2017-07-27T09:26:59Z</time>
      </trkpt>
      <trkpt lat="44.9794910" lon="7.0118190">
        <ele>2016.8</ele>
        <time>2017-07-27T09:27:00Z</time>
      </trkpt>
      <trkpt lat="44.9794950" lon="7.0118280">
        <ele>2017.0</ele>
        <time>2017-07-27T09:27:01Z</time>
      </trkpt>
      <trkpt lat="44.9795180" lon="7.0119250">
        <ele>2018.0</ele>
        <time>2017-07-27T09:27:08Z</time>
      </trkpt>
      <trkpt lat="44.9795280" lon="7.0119290">
        <ele>2018.2</ele>
        <time>2017-07-27T09:27:09Z</time>
      </trkpt>
      <trkpt lat="44.9795700" lon="7.0119970">
        <ele>2018.6</ele>
        <time>2017-07-27T09:27:16Z</time>
      </trkpt>
      <trkpt lat="44.9795650" lon="7.0120110">
        <ele>2018.8</ele>
        <time>2017-07-27T09:27:17Z</time>
      </trkpt>
      <trkpt lat="44.9796150" lon="7.0120730">
        <ele>2019.0</ele>
        <time>2017-07-27T09:27:21Z</time>
      </trkpt>
      <trkpt lat="44.9796310" lon="7.0120750">
        <ele>2019.0</ele>
        <time>2017-07-27T09:27:22Z</time>
      </trkpt>
      <trkpt lat="44.9796910" lon="7.0120370">
        <ele>2019.4</ele>
        <time>2017-07-27T09:27:26Z</time>
      </trkpt>
      <trkpt lat="44.9796940" lon="7.0120140">
        <ele>2019.6</ele>
        <time>2017-07-27T09:27:27Z</time>
      </trkpt>
      <trkpt lat="44.9796960" lon="7.0119750">
        <ele>2020.4</ele>
        <time>2017-07-27T09:27:29Z</time>
      </trkpt>
      <trkpt lat="44.9796980" lon="7.0119100">
        <ele>2021.0</ele>
        <time>2017-07-27T09:27:32Z</time>
      </trkpt>
      <trkpt lat="44.9796980" lon="7.0118930">
        <ele>2021.6</ele>
        <time>2017-07-27T09:27:33Z</time>
      </trkpt>
      <trkpt lat="44.9797180" lon="7.0118430">
        <ele>2023.0</ele>
        <time>2017-07-27T09:27:36Z</time>
      </trkpt>
      <trkpt lat="44.9797320" lon="7.0118110">
        <ele>2023.8</ele>
        <time>2017-07-27T09:27:38Z</time>
      </trkpt>
      <trkpt lat="44.9797470" lon="7.0117970">
        <ele>2024.0</ele>
        <time>2017-07-27T09:27:39Z</time>
      </trkpt>
      <trkpt lat="44.9797560" lon="7.0117830">
        <ele>2024.2</ele>
        <time>2017-07-27T09:27:40Z</time>
      </trkpt>
      <trkpt lat="44.9797820" lon="7.0117410">
        <ele>2025.6</ele>
        <time>2017-07-27T09:27:43Z</time>
      </trkpt>
      <trkpt lat="44.9797910" lon="7.0117010">
        <ele>2026.6</ele>
        <time>2017-07-27T09:27:45Z</time>
      </trkpt>
      <trkpt lat="44.9797960" lon="7.0116860">
        <ele>2027.0</ele>
        <time>2017-07-27T09:27:46Z</time>
      </trkpt>
      <trkpt lat="44.9798020" lon="7.0116670">
        <ele>2027.4</ele>
        <time>2017-07-27T09:27:47Z</time>
      </trkpt>
      <trkpt lat="44.9798050" lon="7.0116330">
        <ele>2028.0</ele>
        <time>2017-07-27T09:27:49Z</time>
      </trkpt>
      <trkpt lat="44.9798190" lon="7.0115960">
        <ele>2028.6</ele>
        <time>2017-07-27T09:27:51Z</time>
      </trkpt>
      <trkpt lat="44.9798250" lon="7.0115780">
        <ele>2029.0</ele>
        <time>2017-07-27T09:27:52Z</time>
      </trkpt>
      <trkpt lat="44.9798320" lon="7.0115220">
        <ele>2030.2</ele>
        <time>2017-07-27T09:27:55Z</time>
      </trkpt>
      <trkpt lat="44.9798520" lon="7.0114750">
        <ele>2031.2</ele>
        <time>2017-07-27T09:27:58Z</time>
      </trkpt>
      <trkpt lat="44.9798560" lon="7.0114630">
        <ele>2031.8</ele>
        <time>2017-07-27T09:27:59Z</time>
      </trkpt>
      <trkpt lat="44.9798530" lon="7.0114590">
        <ele>2032.6</ele>
        <time>2017-07-27T09:28:01Z</time>
      </trkpt>
      <trkpt lat="44.9798650" lon="7.0114310">
        <ele>2032.6</ele>
        <time>2017-07-27T09:28:04Z</time>
      </trkpt>
      <trkpt lat="44.9798870" lon="7.0113670">
        <ele>2032.2</ele>
        <time>2017-07-27T09:28:10Z</time>
      </trkpt>
      <trkpt lat="44.9798930" lon="7.0113500">
        <ele>2032.2</ele>
        <time>2017-07-27T09:28:11Z</time>
      </trkpt>
      <trkpt lat="44.9799090" lon="7.0112680">
        <ele>2032.0</ele>
        <time>2017-07-27T09:28:18Z</time>
      </trkpt>
      <trkpt lat="44.9799310" lon="7.0111460">
        <ele>2032.2</ele>
        <time>2017-07-27T09:28:27Z</time>
      </trkpt>
      <trkpt lat="44.9799350" lon="7.0111080">
        <ele>2032.0</ele>
        <time>2017-07-27T09:28:30Z</time>
      </trkpt>
      <trkpt lat="44.9799330" lon="7.0110320">
        <ele>2032.8</ele>
        <time>2017-07-27T09:28:35Z</time>
      </trkpt>
      <trkpt lat="44.9799370" lon="7.0109490">
        <ele>2033.2</ele>
        <time>2017-07-27T09:28:41Z</time>
      </trkpt>
      <trkpt lat="44.9799350" lon="7.0109240">
        <ele>2033.4</ele>
        <time>2017-07-27T09:28:43Z</time>
      </trkpt>
      <trkpt lat="44.9799380" lon="7.0108750">
        <ele>2033.2</ele>
        <time>2017-07-27T09:28:47Z</time>
      </trkpt>
      <trkpt lat="44.9799430" lon="7.0108330">
        <ele>2033.4</ele>
        <time>2017-07-27T09:28:51Z</time>
      </trkpt>
      <trkpt lat="44.9799480" lon="7.0108080">
        <ele>2033.6</ele>
        <time>2017-07-27T09:28:53Z</time>
      </trkpt>
      <trkpt lat="44.9799560" lon="7.0107460">
        <ele>2034.6</ele>
        <time>2017-07-27T09:28:58Z</time>
      </trkpt>
      <trkpt lat="44.9799580" lon="7.0107380">
        <ele>2034.8</ele>
        <time>2017-07-27T09:28:59Z</time>
      </trkpt>
      <trkpt lat="44.9799720" lon="7.0106830">
        <ele>2035.8</ele>
        <time>2017-07-27T09:29:04Z</time>
      </trkpt>
      <trkpt lat="44.9799740" lon="7.0106500">
        <ele>2036.0</ele>
        <time>2017-07-27T09:29:06Z</time>
      </trkpt>
      <trkpt lat="44.9799760" lon="7.0105830">
        <ele>2037.0</ele>
        <time>2017-07-27T09:29:12Z</time>
      </trkpt>
      <trkpt lat="44.9799790" lon="7.0105480">
        <ele>2037.4</ele>
        <time>2017-07-27T09:29:15Z</time>
      </trkpt>
      <trkpt lat="44.9799910" lon="7.0105140">
        <ele>2038.0</ele>
        <time>2017-07-27T09:29:18Z</time>
      </trkpt>
      <trkpt lat="44.9799970" lon="7.0104550">
        <ele>2039.4</ele>
        <time>2017-07-27T09:29:23Z</time>
      </trkpt>
      <trkpt lat="44.9800000" lon="7.0104130">
        <ele>2040.4</ele>
        <time>2017-07-27T09:29:26Z</time>
      </trkpt>
      <trkpt lat="44.9800000" lon="7.0103700">
        <ele>2041.6</ele>
        <time>2017-07-27T09:29:30Z</time>
      </trkpt>
      <trkpt lat="44.9800000" lon="7.0103580">
        <ele>2042.0</ele>
        <time>2017-07-27T09:29:31Z</time>
      </trkpt>
      <trkpt lat="44.9800020" lon="7.0103300">
        <ele>2042.8</ele>
        <time>2017-07-27T09:29:33Z</time>
      </trkpt>
      <trkpt lat="44.9800100" lon="7.0102720">
        <ele>2043.8</ele>
        <time>2017-07-27T09:29:37Z</time>
      </trkpt>
      <trkpt lat="44.9800150" lon="7.0102560">
        <ele>2044.0</ele>
        <time>2017-07-27T09:29:38Z</time>
      </trkpt>
      <trkpt lat="44.9800340" lon="7.0101840">
        <ele>2045.0</ele>
        <time>2017-07-27T09:29:43Z</time>
      </trkpt>
      <trkpt lat="44.9800540" lon="7.0101330">
        <ele>2045.2</ele>
        <time>2017-07-27T09:29:47Z</time>
      </trkpt>
      <trkpt lat="44.9800800" lon="7.0100730">
        <ele>2045.8</ele>
        <time>2017-07-27T09:29:52Z</time>
      </trkpt>
      <trkpt lat="44.9800840" lon="7.0100670">
        <ele>2046.0</ele>
        <time>2017-07-27T09:29:53Z</time>
      </trkpt>
      <trkpt lat="44.9800970" lon="7.0100320">
        <ele>2046.4</ele>
        <time>2017-07-27T09:29:56Z</time>
      </trkpt>
      <trkpt lat="44.9801300" lon="7.0099440">
        <ele>2046.8</ele>
        <time>2017-07-27T09:30:03Z</time>
      </trkpt>
      <trkpt lat="44.9801370" lon="7.0099330">
        <ele>2047.0</ele>
        <time>2017-07-27T09:30:04Z</time>
      </trkpt>
      <trkpt lat="44.9801530" lon="7.0098670">
        <ele>2046.6</ele>
        <time>2017-07-27T09:30:09Z</time>
      </trkpt>
      <trkpt lat="44.9801790" lon="7.0097800">
        <ele>2046.2</ele>
        <time>2017-07-27T09:30:16Z</time>
      </trkpt>
      <trkpt lat="44.9802100" lon="7.0097620">
        <ele>2046.4</ele>
        <time>2017-07-27T09:30:22Z</time>
      </trkpt>
      <trkpt lat="44.9802040" lon="7.0097540">
        <ele>2046.6</ele>
        <time>2017-07-27T09:30:23Z</time>
      </trkpt>
      <trkpt lat="44.9802310" lon="7.0097930">
        <ele>2047.2</ele>
        <time>2017-07-27T09:30:27Z</time>
      </trkpt>
      <trkpt lat="44.9802420" lon="7.0098020">
        <ele>2047.8</ele>
        <time>2017-07-27T09:30:29Z</time>
      </trkpt>
      <trkpt lat="44.9802510" lon="7.0098030">
        <ele>2048.2</ele>
        <time>2017-07-27T09:30:30Z</time>
      </trkpt>
      <trkpt lat="44.9802550" lon="7.0097870">
        <ele>2048.6</ele>
        <time>2017-07-27T09:30:31Z</time>
      </trkpt>
      <trkpt lat="44.9802670" lon="7.0097680">
        <ele>2049.4</ele>
        <time>2017-07-27T09:30:34Z</time>
      </trkpt>
      <trkpt lat="44.9802800" lon="7.0097600">
        <ele>2050.2</ele>
        <time>2017-07-27T09:30:37Z</time>
      </trkpt>
      <trkpt lat="44.9802920" lon="7.0097540">
        <ele>2050.6</ele>
        <time>2017-07-27T09:30:39Z</time>
      </trkpt>
      <trkpt lat="44.9802870" lon="7.0097570">
        <ele>2050.8</ele>
        <time>2017-07-27T09:30:40Z</time>
      </trkpt>
      <trkpt lat="44.9803000" lon="7.0097160">
        <ele>2051.6</ele>
        <time>2017-07-27T09:30:44Z</time>
      </trkpt>
      <trkpt lat="44.9803010" lon="7.0096890">
        <ele>2051.6</ele>
        <time>2017-07-27T09:30:45Z</time>
      </trkpt>
      <trkpt lat="44.9803330" lon="7.0096420">
        <ele>2052.6</ele>
        <time>2017-07-27T09:30:50Z</time>
      </trkpt>
      <trkpt lat="44.9803740" lon="7.0095870">
        <ele>2053.8</ele>
        <time>2017-07-27T09:30:55Z</time>
      </trkpt>
      <trkpt lat="44.9803780" lon="7.0095680">
        <ele>2054.2</ele>
        <time>2017-07-27T09:30:56Z</time>
      </trkpt>
      <trkpt lat="44.9803940" lon="7.0095310">
        <ele>2054.6</ele>
        <time>2017-07-27T09:30:59Z</time>
      </trkpt>
      <trkpt lat="44.9804100" lon="7.0094930">
        <ele>2054.8</ele>
        <time>2017-07-27T09:31:02Z</time>
      </trkpt>
      <trkpt lat="44.9804140" lon="7.0094750">
        <ele>2054.8</ele>
        <time>2017-07-27T09:31:03Z</time>
      </trkpt>
      <trkpt lat="44.9804110" lon="7.0094620">
        <ele>2054.8</ele>
        <time>2017-07-27T09:31:04Z</time>
      </trkpt>
      <trkpt lat="44.9803990" lon="7.0094020">
        <ele>2054.8</ele>
        <time>2017-07-27T09:31:08Z</time>
      </trkpt>
      <trkpt lat="44.9803990" lon="7.0093720">
        <ele>2054.4</ele>
        <time>2017-07-27T09:31:10Z</time>
      </trkpt>
      <trkpt lat="44.9803980" lon="7.0093390">
        <ele>2054.4</ele>
        <time>2017-07-27T09:31:12Z</time>
      </trkpt>
      <trkpt lat="44.9803940" lon="7.0092970">
        <ele>2054.8</ele>
        <time>2017-07-27T09:31:15Z</time>
      </trkpt>
      <trkpt lat="44.9803890" lon="7.0092620">
        <ele>2055.0</ele>
        <time>2017-07-27T09:31:17Z</time>
      </trkpt>
      <trkpt lat="44.9803950" lon="7.0091840">
        <ele>2055.6</ele>
        <time>2017-07-27T09:31:22Z</time>
      </trkpt>
      <trkpt lat="44.9804150" lon="7.0091700">
        <ele>2055.6</ele>
        <time>2017-07-27T09:31:24Z</time>
      </trkpt>
      <trkpt lat="44.9804160" lon="7.0091250">
        <ele>2055.6</ele>
        <time>2017-07-27T09:31:27Z</time>
      </trkpt>
      <trkpt lat="44.9804090" lon="7.0090970">
        <ele>2055.8</ele>
        <time>2017-07-27T09:31:29Z</time>
      </trkpt>
      <trkpt lat="44.9804060" lon="7.0090710">
        <ele>2056.0</ele>
        <time>2017-07-27T09:31:31Z</time>
      </trkpt>
      <trkpt lat="44.9804040" lon="7.0090590">
        <ele>2056.2</ele>
        <time>2017-07-27T09:31:32Z</time>
      </trkpt>
      <trkpt lat="44.9803850" lon="7.0089970">
        <ele>2057.0</ele>
        <time>2017-07-27T09:31:36Z</time>
      </trkpt>
      <trkpt lat="44.9803820" lon="7.0089670">
        <ele>2057.8</ele>
        <time>2017-07-27T09:31:38Z</time>
      </trkpt>
      <trkpt lat="44.9803830" lon="7.0089340">
        <ele>2058.2</ele>
        <time>2017-07-27T09:31:40Z</time>
      </trkpt>
      <trkpt lat="44.9803770" lon="7.0089100">
        <ele>2058.6</ele>
        <time>2017-07-27T09:31:42Z</time>
      </trkpt>
      <trkpt lat="44.9803730" lon="7.0089020">
        <ele>2058.6</ele>
        <time>2017-07-27T09:31:43Z</time>
      </trkpt>
      <trkpt lat="44.9803550" lon="7.0088630">
        <ele>2058.2</ele>
        <time>2017-07-27T09:31:48Z</time>
      </trkpt>
      <trkpt lat="44.9803470" lon="7.0088340">
        <ele>2058.2</ele>
        <time>2017-07-27T09:31:49Z</time>
      </trkpt>
      <trkpt lat="44.9803310" lon="7.0086740">
        <ele>2057.6</ele>
        <time>2017-07-27T09:31:53Z</time>
      </trkpt>
      <trkpt lat="44.9803130" lon="7.0086360">
        <ele>2057.4</ele>
        <time>2017-07-27T09:31:54Z</time>
      </trkpt>
      <trkpt lat="44.9803030" lon="7.0085440">
        <ele>2057.2</ele>
        <time>2017-07-27T09:31:56Z</time>
      </trkpt>
      <trkpt lat="44.9802810" lon="7.0084530">
        <ele>2056.4</ele>
        <time>2017-07-27T09:31:58Z</time>
      </trkpt>
      <trkpt lat="44.9802660" lon="7.0084130">
        <ele>2056.0</ele>
        <time>2017-07-27T09:31:59Z</time>
      </trkpt>
      <trkpt lat="44.9802110" lon="7.0082450">
        <ele>2055.4</ele>
        <time>2017-07-27T09:32:03Z</time>
      </trkpt>
      <trkpt lat="44.9801940" lon="7.0081880">
        <ele>2055.0</ele>
        <time>2017-07-27T09:32:04Z</time>
      </trkpt>
      <trkpt lat="44.9801960" lon="7.0080400">
        <ele>2054.6</ele>
        <time>2017-07-27T09:32:07Z</time>
      </trkpt>
      <trkpt lat="44.9801900" lon="7.0078890">
        <ele>2054.0</ele>
        <time>2017-07-27T09:32:11Z</time>
      </trkpt>
      <trkpt lat="44.9801880" lon="7.0078480">
        <ele>2053.8</ele>
        <time>2017-07-27T09:32:12Z</time>
      </trkpt>
      <trkpt lat="44.9801880" lon="7.0078070">
        <ele>2053.8</ele>
        <time>2017-07-27T09:32:13Z</time>
      </trkpt>
      <trkpt lat="44.9801820" lon="7.0076620">
        <ele>2053.8</ele>
        <time>2017-07-27T09:32:18Z</time>
      </trkpt>
      <trkpt lat="44.9802060" lon="7.0075270">
        <ele>2054.8</ele>
        <time>2017-07-27T09:32:24Z</time>
      </trkpt>
      <trkpt lat="44.9802060" lon="7.0074900">
        <ele>2054.6</ele>
        <time>2017-07-27T09:32:27Z</time>
      </trkpt>
      <trkpt lat="44.9802030" lon="7.0074850">
        <ele>2054.6</ele>
        <time>2017-07-27T09:32:29Z</time>
      </trkpt>
      <trkpt lat="44.9801980" lon="7.0074650">
        <ele>2055.0</ele>
        <time>2017-07-27T09:32:31Z</time>
      </trkpt>
      <trkpt lat="44.9801940" lon="7.0074380">
        <ele>2055.8</ele>
        <time>2017-07-27T09:32:34Z</time>
      </trkpt>
      <trkpt lat="44.9801910" lon="7.0074250">
        <ele>2056.0</ele>
        <time>2017-07-27T09:32:35Z</time>
      </trkpt>
      <trkpt lat="44.9801930" lon="7.0073980">
        <ele>2056.4</ele>
        <time>2017-07-27T09:32:37Z</time>
      </trkpt>
      <trkpt lat="44.9801750" lon="7.0073760">
        <ele>2056.8</ele>
        <time>2017-07-27T09:32:39Z</time>
      </trkpt>
      <trkpt lat="44.9801760" lon="7.0073440">
        <ele>2057.2</ele>
        <time>2017-07-27T09:32:41Z</time>
      </trkpt>
      <trkpt lat="44.9801590" lon="7.0073170">
        <ele>2058.4</ele>
        <time>2017-07-27T09:32:44Z</time>
      </trkpt>
      <trkpt lat="44.9801660" lon="7.0072690">
        <ele>2059.6</ele>
        <time>2017-07-27T09:32:48Z</time>
      </trkpt>
      <trkpt lat="44.9801640" lon="7.0072560">
        <ele>2059.8</ele>
        <time>2017-07-27T09:32:49Z</time>
      </trkpt>
      <trkpt lat="44.9801730" lon="7.0072280">
        <ele>2060.6</ele>
        <time>2017-07-27T09:32:51Z</time>
      </trkpt>
      <trkpt lat="44.9801650" lon="7.0071840">
        <ele>2061.2</ele>
        <time>2017-07-27T09:32:54Z</time>
      </trkpt>
      <trkpt lat="44.9801640" lon="7.0071570">
        <ele>2061.6</ele>
        <time>2017-07-27T09:32:56Z</time>
      </trkpt>
      <trkpt lat="44.9801550" lon="7.0070800">
        <ele>2062.4</ele>
        <time>2017-07-27T09:33:01Z</time>
      </trkpt>
      <trkpt lat="44.9801560" lon="7.0070670">
        <ele>2062.8</ele>
        <time>2017-07-27T09:33:02Z</time>
      </trkpt>
      <trkpt lat="44.9801650" lon="7.0070540">
        <ele>2063.0</ele>
        <time>2017-07-27T09:33:03Z</time>
      </trkpt>
      <trkpt lat="44.9801670" lon="7.0070110">
        <ele>2063.8</ele>
        <time>2017-07-27T09:33:06Z</time>
      </trkpt>
      <trkpt lat="44.9801640" lon="7.0069870">
        <ele>2063.8</ele>
        <time>2017-07-27T09:33:08Z</time>
      </trkpt>
      <trkpt lat="44.9801530" lon="7.0069230">
        <ele>2064.2</ele>
        <time>2017-07-27T09:33:12Z</time>
      </trkpt>
      <trkpt lat="44.9801510" lon="7.0068770">
        <ele>2064.8</ele>
        <time>2017-07-27T09:33:15Z</time>
      </trkpt>
      <trkpt lat="44.9801520" lon="7.0068650">
        <ele>2064.8</ele>
        <time>2017-07-27T09:33:16Z</time>
      </trkpt>
      <trkpt lat="44.9801470" lon="7.0068290">
        <ele>2065.4</ele>
        <time>2017-07-27T09:33:19Z</time>
      </trkpt>
      <trkpt lat="44.9801250" lon="7.0067630">
        <ele>2065.4</ele>
        <time>2017-07-27T09:33:23Z</time>
      </trkpt>
      <trkpt lat="44.9800880" lon="7.0066440">
        <ele>2065.0</ele>
        <time>2017-07-27T09:33:27Z</time>
      </trkpt>
      <trkpt lat="44.9800720" lon="7.0066060">
        <ele>2065.0</ele>
        <time>2017-07-27T09:33:28Z</time>
      </trkpt>
      <trkpt lat="44.9800330" lon="7.0064510">
        <ele>2064.8</ele>
        <time>2017-07-27T09:33:31Z</time>
      </trkpt>
      <trkpt lat="44.9800160" lon="7.0063310">
        <ele>2065.0</ele>
        <time>2017-07-27T09:33:33Z</time>
      </trkpt>
      <trkpt lat="44.9799930" lon="7.0061500">
        <ele>2064.4</ele>
        <time>2017-07-27T09:33:36Z</time>
      </trkpt>
      <trkpt lat="44.9799910" lon="7.0060880">
        <ele>2064.2</ele>
        <time>2017-07-27T09:33:37Z</time>
      </trkpt>
      <trkpt lat="44.9799960" lon="7.0059420">
        <ele>2065.2</ele>
        <time>2017-07-27T09:33:40Z</time>
      </trkpt>
      <trkpt lat="44.9799990" lon="7.0057920">
        <ele>2065.8</ele>
        <time>2017-07-27T09:33:44Z</time>
      </trkpt>
      <trkpt lat="44.9800340" lon="7.0057370">
        <ele>2066.6</ele>
        <time>2017-07-27T09:33:48Z</time>
      </trkpt>
      <trkpt lat="44.9800390" lon="7.0057100">
        <ele>2066.6</ele>
        <time>2017-07-27T09:33:50Z</time>
      </trkpt>
      <trkpt lat="44.9800480" lon="7.0057060">
        <ele>2066.8</ele>
        <time>2017-07-27T09:33:51Z</time>
      </trkpt>
      <trkpt lat="44.9800540" lon="7.0056570">
        <ele>2066.6</ele>
        <time>2017-07-27T09:33:55Z</time>
      </trkpt>
      <trkpt lat="44.9800560" lon="7.0056300">
        <ele>2066.6</ele>
        <time>2017-07-27T09:33:59Z</time>
      </trkpt>
      <trkpt lat="44.9800580" lon="7.0056160">
        <ele>2066.6</ele>
        <time>2017-07-27T09:34:00Z</time>
      </trkpt>
      <trkpt lat="44.9800750" lon="7.0055280">
        <ele>2065.8</ele>
        <time>2017-07-27T09:34:07Z</time>
      </trkpt>
      <trkpt lat="44.9800870" lon="7.0054980">
        <ele>2066.2</ele>
        <time>2017-07-27T09:34:10Z</time>
      </trkpt>
      <trkpt lat="44.9800980" lon="7.0054800">
        <ele>2066.8</ele>
        <time>2017-07-27T09:34:12Z</time>
      </trkpt>
      <trkpt lat="44.9801000" lon="7.0054790">
        <ele>2067.2</ele>
        <time>2017-07-27T09:34:13Z</time>
      </trkpt>
      <trkpt lat="44.9800950" lon="7.0054180">
        <ele>2068.0</ele>
        <time>2017-07-27T09:34:17Z</time>
      </trkpt>
      <trkpt lat="44.9801060" lon="7.0053950">
        <ele>2068.6</ele>
        <time>2017-07-27T09:34:19Z</time>
      </trkpt>
      <trkpt lat="44.9801120" lon="7.0053630">
        <ele>2069.2</ele>
        <time>2017-07-27T09:34:22Z</time>
      </trkpt>
      <trkpt lat="44.9801090" lon="7.0053380">
        <ele>2069.6</ele>
        <time>2017-07-27T09:34:26Z</time>
      </trkpt>
      <trkpt lat="44.9801100" lon="7.0052460">
        <ele>2070.0</ele>
        <time>2017-07-27T09:34:32Z</time>
      </trkpt>
      <trkpt lat="44.9801200" lon="7.0052270">
        <ele>2070.2</ele>
        <time>2017-07-27T09:34:34Z</time>
      </trkpt>
      <trkpt lat="44.9801180" lon="7.0052130">
        <ele>2070.4</ele>
        <time>2017-07-27T09:34:35Z</time>
      </trkpt>
      <trkpt lat="44.9801110" lon="7.0051660">
        <ele>2070.8</ele>
        <time>2017-07-27T09:34:38Z</time>
      </trkpt>
      <trkpt lat="44.9801130" lon="7.0051000">
        <ele>2071.0</ele>
        <time>2017-07-27T09:34:42Z</time>
      </trkpt>
      <trkpt lat="44.9800910" lon="7.0050430">
        <ele>2071.0</ele>
        <time>2017-07-27T09:34:46Z</time>
      </trkpt>
      <trkpt lat="44.9800560" lon="7.0049780">
        <ele>2070.4</ele>
        <time>2017-07-27T09:34:51Z</time>
      </trkpt>
      <trkpt lat="44.9800540" lon="7.0049630">
        <ele>2070.4</ele>
        <time>2017-07-27T09:34:52Z</time>
      </trkpt>
      <trkpt lat="44.9800500" lon="7.0048360">
        <ele>2070.4</ele>
        <time>2017-07-27T09:35:00Z</time>
      </trkpt>
      <trkpt lat="44.9800260" lon="7.0047680">
        <ele>2070.2</ele>
        <time>2017-07-27T09:35:07Z</time>
      </trkpt>
      <trkpt lat="44.9799840" lon="7.0047110">
        <ele>2069.6</ele>
        <time>2017-07-27T09:35:13Z</time>
      </trkpt>
      <trkpt lat="44.9799780" lon="7.0046950">
        <ele>2069.4</ele>
        <time>2017-07-27T09:35:14Z</time>
      </trkpt>
      <trkpt lat="44.9799750" lon="7.0046810">
        <ele>2069.2</ele>
        <time>2017-07-27T09:35:15Z</time>
      </trkpt>
      <trkpt lat="44.9799560" lon="7.0046300">
        <ele>2069.0</ele>
        <time>2017-07-27T09:35:19Z</time>
      </trkpt>
      <trkpt lat="44.9799370" lon="7.0045680">
        <ele>2068.8</ele>
        <time>2017-07-27T09:35:26Z</time>
      </trkpt>
      <trkpt lat="44.9799280" lon="7.0045280">
        <ele>2069.4</ele>
        <time>2017-07-27T09:35:30Z</time>
      </trkpt>
      <trkpt lat="44.9799340" lon="7.0045210">
        <ele>2069.6</ele>
        <time>2017-07-27T09:35:33Z</time>
      </trkpt>
      <trkpt lat="44.9799460" lon="7.0045190">
        <ele>2070.2</ele>
        <time>2017-07-27T09:35:36Z</time>
      </trkpt>
      <trkpt lat="44.9799490" lon="7.0044890">
        <ele>2070.6</ele>
        <time>2017-07-27T09:35:39Z</time>
      </trkpt>
      <trkpt lat="44.9799460" lon="7.0044780">
        <ele>2071.0</ele>
        <time>2017-07-27T09:35:41Z</time>
      </trkpt>
      <trkpt lat="44.9799320" lon="7.0044670">
        <ele>2071.4</ele>
        <time>2017-07-27T09:35:43Z</time>
      </trkpt>
      <trkpt lat="44.9799250" lon="7.0044580">
        <ele>2071.8</ele>
        <time>2017-07-27T09:35:45Z</time>
      </trkpt>
      <trkpt lat="44.9799150" lon="7.0044350">
        <ele>2072.4</ele>
        <time>2017-07-27T09:35:49Z</time>
      </trkpt>
      <trkpt lat="44.9799030" lon="7.0044250">
        <ele>2072.2</ele>
        <time>2017-07-27T09:35:52Z</time>
      </trkpt>
      <trkpt lat="44.9798940" lon="7.0044150">
        <ele>2072.4</ele>
        <time>2017-07-27T09:35:58Z</time>
      </trkpt>
      <trkpt lat="44.9798900" lon="7.0044070">
        <ele>2072.4</ele>
        <time>2017-07-27T09:36:00Z</time>
      </trkpt>
      <trkpt lat="44.9798860" lon="7.0044020">
        <ele>2072.6</ele>
        <time>2017-07-27T09:36:04Z</time>
      </trkpt>
      <trkpt lat="44.9798830" lon="7.0043920">
        <ele>2073.2</ele>
        <time>2017-07-27T09:36:08Z</time>
      </trkpt>
      <trkpt lat="44.9798810" lon="7.0043800">
        <ele>2073.6</ele>
        <time>2017-07-27T09:36:09Z</time>
      </trkpt>
      <trkpt lat="44.9798590" lon="7.0043430">
        <ele>2074.6</ele>
        <time>2017-07-27T09:36:13Z</time>
      </trkpt>
      <trkpt lat="44.9798270" lon="7.0042960">
        <ele>2075.6</ele>
        <time>2017-07-27T09:36:17Z</time>
      </trkpt>
      <trkpt lat="44.9798020" lon="7.0042720">
        <ele>2076.8</ele>
        <time>2017-07-27T09:36:20Z</time>
      </trkpt>
      <trkpt lat="44.9797750" lon="7.0042340">
        <ele>2078.0</ele>
        <time>2017-07-27T09:36:23Z</time>
      </trkpt>
      <trkpt lat="44.9797410" lon="7.0041910">
        <ele>2079.4</ele>
        <time>2017-07-27T09:36:27Z</time>
      </trkpt>
      <trkpt lat="44.9797240" lon="7.0041520">
        <ele>2080.2</ele>
        <time>2017-07-27T09:36:30Z</time>
      </trkpt>
      <trkpt lat="44.9797210" lon="7.0041390">
        <ele>2080.6</ele>
        <time>2017-07-27T09:36:31Z</time>
      </trkpt>
      <trkpt lat="44.9797090" lon="7.0040930">
        <ele>2081.8</ele>
        <time>2017-07-27T09:36:34Z</time>
      </trkpt>
      <trkpt lat="44.9797140" lon="7.0040570">
        <ele>2082.8</ele>
        <time>2017-07-27T09:36:37Z</time>
      </trkpt>
      <trkpt lat="44.9797250" lon="7.0040150">
        <ele>2083.8</ele>
        <time>2017-07-27T09:36:42Z</time>
      </trkpt>
      <trkpt lat="44.9797380" lon="7.0040100">
        <ele>2084.0</ele>
        <time>2017-07-27T09:36:43Z</time>
      </trkpt>
      <trkpt lat="44.9797590" lon="7.0039800">
        <ele>2084.8</ele>
        <time>2017-07-27T09:36:48Z</time>
      </trkpt>
      <trkpt lat="44.9797590" lon="7.0039810">
        <ele>2084.8</ele>
        <time>2017-07-27T09:36:49Z</time>
      </trkpt>
      <trkpt lat="44.9797600" lon="7.0039610">
        <ele>2084.8</ele>
        <time>2017-07-27T09:36:50Z</time>
      </trkpt>
      <trkpt lat="44.9797580" lon="7.0038680">
        <ele>2085.4</ele>
        <time>2017-07-27T09:36:57Z</time>
      </trkpt>
      <trkpt lat="44.9797450" lon="7.0038350">
        <ele>2085.8</ele>
        <time>2017-07-27T09:37:00Z</time>
      </trkpt>
      <trkpt lat="44.9797330" lon="7.0038040">
        <ele>2086.0</ele>
        <time>2017-07-27T09:37:03Z</time>
      </trkpt>
      <trkpt lat="44.9797260" lon="7.0037930">
        <ele>2086.0</ele>
        <time>2017-07-27T09:37:04Z</time>
      </trkpt>
      <trkpt lat="44.9797000" lon="7.0037200">
        <ele>2087.2</ele>
        <time>2017-07-27T09:37:10Z</time>
      </trkpt>
      <trkpt lat="44.9796890" lon="7.0036700">
        <ele>2088.0</ele>
        <time>2017-07-27T09:37:14Z</time>
      </trkpt>
      <trkpt lat="44.9796870" lon="7.0036580">
        <ele>2088.2</ele>
        <time>2017-07-27T09:37:15Z</time>
      </trkpt>
      <trkpt lat="44.9796800" lon="7.0036200">
        <ele>2088.8</ele>
        <time>2017-07-27T09:37:18Z</time>
      </trkpt>
      <trkpt lat="44.9796710" lon="7.0035910">
        <ele>2089.0</ele>
        <time>2017-07-27T09:37:20Z</time>
      </trkpt>
      <trkpt lat="44.9796720" lon="7.0035680">
        <ele>2089.4</ele>
        <time>2017-07-27T09:37:22Z</time>
      </trkpt>
      <trkpt lat="44.9796710" lon="7.0035250">
        <ele>2089.4</ele>
        <time>2017-07-27T09:37:25Z</time>
      </trkpt>
      <trkpt lat="44.9796660" lon="7.0035100">
        <ele>2089.2</ele>
        <time>2017-07-27T09:37:26Z</time>
      </trkpt>
      <trkpt lat="44.9796250" lon="7.0034480">
        <ele>2089.0</ele>
        <time>2017-07-27T09:37:31Z</time>
      </trkpt>
      <trkpt lat="44.9796120" lon="7.0034350">
        <ele>2088.8</ele>
        <time>2017-07-27T09:37:32Z</time>
      </trkpt>
      <trkpt lat="44.9795840" lon="7.0034010">
        <ele>2088.4</ele>
        <time>2017-07-27T09:37:35Z</time>
      </trkpt>
      <trkpt lat="44.9795760" lon="7.0033890">
        <ele>2088.2</ele>
        <time>2017-07-27T09:37:36Z</time>
      </trkpt>
      <trkpt lat="44.9795480" lon="7.0033200">
        <ele>2088.0</ele>
        <time>2017-07-27T09:37:41Z</time>
      </trkpt>
      <trkpt lat="44.9795440" lon="7.0032870">
        <ele>2088.2</ele>
        <time>2017-07-27T09:37:43Z</time>
      </trkpt>
      <trkpt lat="44.9795430" lon="7.0032220">
        <ele>2088.6</ele>
        <time>2017-07-27T09:37:47Z</time>
      </trkpt>
      <trkpt lat="44.9795440" lon="7.0032080">
        <ele>2088.8</ele>
        <time>2017-07-27T09:37:48Z</time>
      </trkpt>
      <trkpt lat="44.9795620" lon="7.0031470">
        <ele>2089.2</ele>
        <time>2017-07-27T09:37:52Z</time>
      </trkpt>
      <trkpt lat="44.9795620" lon="7.0031310">
        <ele>2089.4</ele>
        <time>2017-07-27T09:37:53Z</time>
      </trkpt>
      <trkpt lat="44.9795610" lon="7.0031170">
        <ele>2089.4</ele>
        <time>2017-07-27T09:37:54Z</time>
      </trkpt>
      <trkpt lat="44.9795450" lon="7.0030790">
        <ele>2089.6</ele>
        <time>2017-07-27T09:37:57Z</time>
      </trkpt>
      <trkpt lat="44.9795220" lon="7.0030580">
        <ele>2089.0</ele>
        <time>2017-07-27T09:37:59Z</time>
      </trkpt>
      <trkpt lat="44.9794890" lon="7.0030480">
        <ele>2088.4</ele>
        <time>2017-07-27T09:38:02Z</time>
      </trkpt>
      <trkpt lat="44.9794790" lon="7.0030430">
        <ele>2088.0</ele>
        <time>2017-07-27T09:38:03Z</time>
      </trkpt>
      <trkpt lat="44.9794680" lon="7.0030410">
        <ele>2087.0</ele>
        <time>2017-07-27T09:38:05Z</time>
      </trkpt>
      <trkpt lat="44.9794520" lon="7.0030360">
        <ele>2086.6</ele>
        <time>2017-07-27T09:38:06Z</time>
      </trkpt>
      <trkpt lat="44.9794450" lon="7.0030270">
        <ele>2086.2</ele>
        <time>2017-07-27T09:38:07Z</time>
      </trkpt>
      <trkpt lat="44.9794180" lon="7.0029780">
        <ele>2085.6</ele>
        <time>2017-07-27T09:38:09Z</time>
      </trkpt>
      <trkpt lat="44.9794020" lon="7.0029370">
        <ele>2085.4</ele>
        <time>2017-07-27T09:38:10Z</time>
      </trkpt>
      <trkpt lat="44.9793200" lon="7.0027480">
        <ele>2084.2</ele>
        <time>2017-07-27T09:38:14Z</time>
      </trkpt>
      <trkpt lat="44.9792900" lon="7.0026880">
        <ele>2083.6</ele>
        <time>2017-07-27T09:38:18Z</time>
      </trkpt>
      <trkpt lat="44.9792750" lon="7.0026250">
        <ele>2083.4</ele>
        <time>2017-07-27T09:38:21Z</time>
      </trkpt>
      <trkpt lat="44.9792640" lon="7.0025320">
        <ele>2084.0</ele>
        <time>2017-07-27T09:38:24Z</time>
      </trkpt>
      <trkpt lat="44.9792170" lon="7.0023840">
        <ele>2085.2</ele>
        <time>2017-07-27T09:38:28Z</time>
      </trkpt>
      <trkpt lat="44.9792030" lon="7.0023100">
        <ele>2085.8</ele>
        <time>2017-07-27T09:38:30Z</time>
      </trkpt>
      <trkpt lat="44.9791860" lon="7.0022470">
        <ele>2086.4</ele>
        <time>2017-07-27T09:38:32Z</time>
      </trkpt>
      <trkpt lat="44.9791750" lon="7.0021760">
        <ele>2087.0</ele>
        <time>2017-07-27T09:38:35Z</time>
      </trkpt>
      <trkpt lat="44.9791640" lon="7.0021600">
        <ele>2087.6</ele>
        <time>2017-07-27T09:38:37Z</time>
      </trkpt>
      <trkpt lat="44.9791660" lon="7.0021350">
        <ele>2088.4</ele>
        <time>2017-07-27T09:38:41Z</time>
      </trkpt>
      <trkpt lat="44.9791630" lon="7.0021160">
        <ele>2088.2</ele>
        <time>2017-07-27T09:38:43Z</time>
      </trkpt>
      <trkpt lat="44.9791480" lon="7.0020980">
        <ele>2088.4</ele>
        <time>2017-07-27T09:38:45Z</time>
      </trkpt>
      <trkpt lat="44.9791430" lon="7.0020880">
        <ele>2088.6</ele>
        <time>2017-07-27T09:38:46Z</time>
      </trkpt>
      <trkpt lat="44.9791450" lon="7.0020380">
        <ele>2088.8</ele>
        <time>2017-07-27T09:38:51Z</time>
      </trkpt>
      <trkpt lat="44.9791430" lon="7.0020230">
        <ele>2088.8</ele>
        <time>2017-07-27T09:38:52Z</time>
      </trkpt>
      <trkpt lat="44.9791240" lon="7.0019640">
        <ele>2089.6</ele>
        <time>2017-07-27T09:38:57Z</time>
      </trkpt>
      <trkpt lat="44.9791110" lon="7.0019520">
        <ele>2089.8</ele>
        <time>2017-07-27T09:38:59Z</time>
      </trkpt>
      <trkpt lat="44.9790840" lon="7.0018970">
        <ele>2090.4</ele>
        <time>2017-07-27T09:39:04Z</time>
      </trkpt>
      <trkpt lat="44.9790830" lon="7.0018880">
        <ele>2090.8</ele>
        <time>2017-07-27T09:39:05Z</time>
      </trkpt>
      <trkpt lat="44.9790820" lon="7.0018760">
        <ele>2091.0</ele>
        <time>2017-07-27T09:39:06Z</time>
      </trkpt>
      <trkpt lat="44.9790800" lon="7.0018590">
        <ele>2091.2</ele>
        <time>2017-07-27T09:39:08Z</time>
      </trkpt>
      <trkpt lat="44.9790680" lon="7.0018260">
        <ele>2091.6</ele>
        <time>2017-07-27T09:39:11Z</time>
      </trkpt>
      <trkpt lat="44.9790650" lon="7.0018230">
        <ele>2091.8</ele>
        <time>2017-07-27T09:39:12Z</time>
      </trkpt>
      <trkpt lat="44.9790670" lon="7.0018130">
        <ele>2091.8</ele>
        <time>2017-07-27T09:39:13Z</time>
      </trkpt>
      <trkpt lat="44.9790730" lon="7.0017800">
        <ele>2092.6</ele>
        <time>2017-07-27T09:39:16Z</time>
      </trkpt>
      <trkpt lat="44.9790730" lon="7.0017700">
        <ele>2092.8</ele>
        <time>2017-07-27T09:39:17Z</time>
      </trkpt>
      <trkpt lat="44.9790660" lon="7.0016880">
        <ele>2094.0</ele>
        <time>2017-07-27T09:39:23Z</time>
      </trkpt>
      <trkpt lat="44.9790610" lon="7.0016310">
        <ele>2095.0</ele>
        <time>2017-07-27T09:39:27Z</time>
      </trkpt>
      <trkpt lat="44.9790440" lon="7.0015960">
        <ele>2095.8</ele>
        <time>2017-07-27T09:39:30Z</time>
      </trkpt>
      <trkpt lat="44.9790320" lon="7.0015510">
        <ele>2096.0</ele>
        <time>2017-07-27T09:39:33Z</time>
      </trkpt>
      <trkpt lat="44.9790190" lon="7.0014780">
        <ele>2097.2</ele>
        <time>2017-07-27T09:39:38Z</time>
      </trkpt>
      <trkpt lat="44.9789970" lon="7.0014100">
        <ele>2097.8</ele>
        <time>2017-07-27T09:39:42Z</time>
      </trkpt>
      <trkpt lat="44.9789920" lon="7.0013740">
        <ele>2098.0</ele>
        <time>2017-07-27T09:39:44Z</time>
      </trkpt>
      <trkpt lat="44.9789840" lon="7.0013420">
        <ele>2098.2</ele>
        <time>2017-07-27T09:39:46Z</time>
      </trkpt>
      <trkpt lat="44.9789760" lon="7.0013000">
        <ele>2098.2</ele>
        <time>2017-07-27T09:39:49Z</time>
      </trkpt>
      <trkpt lat="44.9789600" lon="7.0012480">
        <ele>2098.4</ele>
        <time>2017-07-27T09:39:52Z</time>
      </trkpt>
      <trkpt lat="44.9789490" lon="7.0011530">
        <ele>2098.4</ele>
        <time>2017-07-27T09:39:58Z</time>
      </trkpt>
      <trkpt lat="44.9789340" lon="7.0011020">
        <ele>2098.4</ele>
        <time>2017-07-27T09:40:01Z</time>
      </trkpt>
      <trkpt lat="44.9789310" lon="7.0010850">
        <ele>2098.4</ele>
        <time>2017-07-27T09:40:02Z</time>
      </trkpt>
      <trkpt lat="44.9789240" lon="7.0009960">
        <ele>2098.4</ele>
        <time>2017-07-27T09:40:07Z</time>
      </trkpt>
      <trkpt lat="44.9789190" lon="7.0009010">
        <ele>2098.4</ele>
        <time>2017-07-27T09:40:14Z</time>
      </trkpt>
      <trkpt lat="44.9789180" lon="7.0008540">
        <ele>2098.6</ele>
        <time>2017-07-27T09:40:17Z</time>
      </trkpt>
      <trkpt lat="44.9789080" lon="7.0008050">
        <ele>2098.8</ele>
        <time>2017-07-27T09:40:21Z</time>
      </trkpt>
      <trkpt lat="44.9789070" lon="7.0007820">
        <ele>2099.0</ele>
        <time>2017-07-27T09:40:23Z</time>
      </trkpt>
      <trkpt lat="44.9789020" lon="7.0007380">
        <ele>2099.0</ele>
        <time>2017-07-27T09:40:26Z</time>
      </trkpt>
      <trkpt lat="44.9788990" lon="7.0007230">
        <ele>2099.2</ele>
        <time>2017-07-27T09:40:27Z</time>
      </trkpt>
      <trkpt lat="44.9788890" lon="7.0006800">
        <ele>2099.6</ele>
        <time>2017-07-27T09:40:31Z</time>
      </trkpt>
      <trkpt lat="44.9788860" lon="7.0006710">
        <ele>2099.6</ele>
        <time>2017-07-27T09:40:32Z</time>
      </trkpt>
      <trkpt lat="44.9788910" lon="7.0006410">
        <ele>2099.8</ele>
        <time>2017-07-27T09:40:35Z</time>
      </trkpt>
      <trkpt lat="44.9788930" lon="7.0006170">
        <ele>2100.2</ele>
        <time>2017-07-27T09:40:37Z</time>
      </trkpt>
      <trkpt lat="44.9788850" lon="7.0006140">
        <ele>2100.4</ele>
        <time>2017-07-27T09:40:38Z</time>
      </trkpt>
      <trkpt lat="44.9788630" lon="7.0006010">
        <ele>2100.8</ele>
        <time>2017-07-27T09:40:42Z</time>
      </trkpt>
      <trkpt lat="44.9788520" lon="7.0005920">
        <ele>2100.8</ele>
        <time>2017-07-27T09:40:44Z</time>
      </trkpt>
      <trkpt lat="44.9788210" lon="7.0005610">
        <ele>2100.8</ele>
        <time>2017-07-27T09:40:50Z</time>
      </trkpt>
      <trkpt lat="44.9788190" lon="7.0005250">
        <ele>2101.4</ele>
        <time>2017-07-27T09:40:55Z</time>
      </trkpt>
      <trkpt lat="44.9788130" lon="7.0005020">
        <ele>2102.0</ele>
        <time>2017-07-27T09:40:57Z</time>
      </trkpt>
      <trkpt lat="44.9788010" lon="7.0004730">
        <ele>2102.6</ele>
        <time>2017-07-27T09:40:59Z</time>
      </trkpt>
      <trkpt lat="44.9787820" lon="7.0004380">
        <ele>2103.2</ele>
        <time>2017-07-27T09:41:02Z</time>
      </trkpt>
      <trkpt lat="44.9787570" lon="7.0004130">
        <ele>2103.6</ele>
        <time>2017-07-27T09:41:05Z</time>
      </trkpt>
      <trkpt lat="44.9787510" lon="7.0004030">
        <ele>2103.6</ele>
        <time>2017-07-27T09:41:06Z</time>
      </trkpt>
      <trkpt lat="44.9787400" lon="7.0003840">
        <ele>2104.0</ele>
        <time>2017-07-27T09:41:08Z</time>
      </trkpt>
      <trkpt lat="44.9787340" lon="7.0003820">
        <ele>2104.0</ele>
        <time>2017-07-27T09:41:09Z</time>
      </trkpt>
      <trkpt lat="44.9787130" lon="7.0003600">
        <ele>2104.0</ele>
        <time>2017-07-27T09:41:14Z</time>
      </trkpt>
      <trkpt lat="44.9787320" lon="7.0003270">
        <ele>2104.4</ele>
        <time>2017-07-27T09:41:18Z</time>
      </trkpt>
      <trkpt lat="44.9787290" lon="7.0003080">
        <ele>2104.6</ele>
        <time>2017-07-27T09:41:20Z</time>
      </trkpt>
      <trkpt lat="44.9787290" lon="7.0003090">
        <ele>2104.8</ele>
        <time>2017-07-27T09:41:21Z</time>
      </trkpt>
      <trkpt lat="44.9787370" lon="7.0002610">
        <ele>2105.8</ele>
        <time>2017-07-27T09:41:26Z</time>
      </trkpt>
      <trkpt lat="44.9787400" lon="7.0002550">
        <ele>2105.8</ele>
        <time>2017-07-27T09:41:27Z</time>
      </trkpt>
      <trkpt lat="44.9787410" lon="7.0002220">
        <ele>2106.4</ele>
        <time>2017-07-27T09:41:30Z</time>
      </trkpt>
      <trkpt lat="44.9787270" lon="7.0002070">
        <ele>2106.6</ele>
        <time>2017-07-27T09:41:32Z</time>
      </trkpt>
      <trkpt lat="44.9787180" lon="7.0002040">
        <ele>2106.8</ele>
        <time>2017-07-27T09:41:33Z</time>
      </trkpt>
      <trkpt lat="44.9787110" lon="7.0002110">
        <ele>2107.0</ele>
        <time>2017-07-27T09:41:34Z</time>
      </trkpt>
      <trkpt lat="44.9787090" lon="7.0002180">
        <ele>2107.2</ele>
        <time>2017-07-27T09:41:36Z</time>
      </trkpt>
      <trkpt lat="44.9786910" lon="7.0002020">
        <ele>2107.8</ele>
        <time>2017-07-27T09:41:41Z</time>
      </trkpt>
      <trkpt lat="44.9786900" lon="7.0002000">
        <ele>2108.0</ele>
        <time>2017-07-27T09:41:42Z</time>
      </trkpt>
      <trkpt lat="44.9786870" lon="7.0001900">
        <ele>2108.2</ele>
        <time>2017-07-27T09:41:43Z</time>
      </trkpt>
      <trkpt lat="44.9786700" lon="7.0001400">
        <ele>2109.0</ele>
        <time>2017-07-27T09:41:49Z</time>
      </trkpt>
      <trkpt lat="44.9786700" lon="7.0000870">
        <ele>2110.0</ele>
        <time>2017-07-27T09:41:54Z</time>
      </trkpt>
      <trkpt lat="44.9786690" lon="7.0000890">
        <ele>2110.4</ele>
        <time>2017-07-27T09:41:55Z</time>
      </trkpt>
      <trkpt lat="44.9786860" lon="7.0000640">
        <ele>2111.2</ele>
        <time>2017-07-27T09:41:58Z</time>
      </trkpt>
      <trkpt lat="44.9787010" lon="7.0000530">
        <ele>2111.8</ele>
        <time>2017-07-27T09:42:01Z</time>
      </trkpt>
      <trkpt lat="44.9787080" lon="7.0000160">
        <ele>2112.4</ele>
        <time>2017-07-27T09:42:04Z</time>
      </trkpt>
      <trkpt lat="44.9787020" lon="6.9999790">
        <ele>2113.4</ele>
        <time>2017-07-27T09:42:07Z</time>
      </trkpt>
      <trkpt lat="44.9787000" lon="6.9999710">
        <ele>2113.6</ele>
        <time>2017-07-27T09:42:08Z</time>
      </trkpt>
      <trkpt lat="44.9787110" lon="6.9999250">
        <ele>2114.8</ele>
        <time>2017-07-27T09:42:14Z</time>
      </trkpt>
      <trkpt lat="44.9787100" lon="6.9998870">
        <ele>2115.6</ele>
        <time>2017-07-27T09:42:19Z</time>
      </trkpt>
      <trkpt lat="44.9787110" lon="6.9998780">
        <ele>2115.8</ele>
        <time>2017-07-27T09:42:20Z</time>
      </trkpt>
      <trkpt lat="44.9787100" lon="6.9998360">
        <ele>2117.0</ele>
        <time>2017-07-27T09:42:25Z</time>
      </trkpt>
      <trkpt lat="44.9787110" lon="6.9998270">
        <ele>2117.4</ele>
        <time>2017-07-27T09:42:26Z</time>
      </trkpt>
      <trkpt lat="44.9787100" lon="6.9998070">
        <ele>2118.2</ele>
        <time>2017-07-27T09:42:29Z</time>
      </trkpt>
      <trkpt lat="44.9787180" lon="6.9997910">
        <ele>2118.4</ele>
        <time>2017-07-27T09:42:30Z</time>
      </trkpt>
      <trkpt lat="44.9787250" lon="6.9997650">
        <ele>2118.6</ele>
        <time>2017-07-27T09:42:32Z</time>
      </trkpt>
      <trkpt lat="44.9787360" lon="6.9997370">
        <ele>2119.0</ele>
        <time>2017-07-27T09:42:35Z</time>
      </trkpt>
      <trkpt lat="44.9787460" lon="6.9997340">
        <ele>2119.2</ele>
        <time>2017-07-27T09:42:37Z</time>
      </trkpt>
      <trkpt lat="44.9787640" lon="6.9997310">
        <ele>2119.8</ele>
        <time>2017-07-27T09:42:41Z</time>
      </trkpt>
      <trkpt lat="44.9787670" lon="6.9997180">
        <ele>2120.0</ele>
        <time>2017-07-27T09:42:42Z</time>
      </trkpt>
      <trkpt lat="44.9787680" lon="6.9996960">
        <ele>2120.2</ele>
        <time>2017-07-27T09:42:44Z</time>
      </trkpt>
      <trkpt lat="44.9787620" lon="6.9996760">
        <ele>2120.4</ele>
        <time>2017-07-27T09:42:46Z</time>
      </trkpt>
      <trkpt lat="44.9787550" lon="6.9996690">
        <ele>2120.4</ele>
        <time>2017-07-27T09:42:47Z</time>
      </trkpt>
      <trkpt lat="44.9787700" lon="6.9996520">
        <ele>2120.6</ele>
        <time>2017-07-27T09:42:51Z</time>
      </trkpt>
      <trkpt lat="44.9787780" lon="6.9996490">
        <ele>2120.6</ele>
        <time>2017-07-27T09:42:52Z</time>
      </trkpt>
      <trkpt lat="44.9788050" lon="6.9996350">
        <ele>2121.0</ele>
        <time>2017-07-27T09:42:56Z</time>
      </trkpt>
      <trkpt lat="44.9788130" lon="6.9996200">
        <ele>2121.4</ele>
        <time>2017-07-27T09:42:58Z</time>
      </trkpt>
      <trkpt lat="44.9788120" lon="6.9996100">
        <ele>2121.6</ele>
        <time>2017-07-27T09:42:59Z</time>
      </trkpt>
      <trkpt lat="44.9787940" lon="6.9995460">
        <ele>2122.2</ele>
        <time>2017-07-27T09:43:04Z</time>
      </trkpt>
      <trkpt lat="44.9787960" lon="6.9995410">
        <ele>2122.4</ele>
        <time>2017-07-27T09:43:05Z</time>
      </trkpt>
      <trkpt lat="44.9787870" lon="6.9995110">
        <ele>2123.0</ele>
        <time>2017-07-27T09:43:09Z</time>
      </trkpt>
      <trkpt lat="44.9787650" lon="6.9994940">
        <ele>2123.6</ele>
        <time>2017-07-27T09:43:12Z</time>
      </trkpt>
      <trkpt lat="44.9787610" lon="6.9994800">
        <ele>2123.8</ele>
        <time>2017-07-27T09:43:14Z</time>
      </trkpt>
      <trkpt lat="44.9787620" lon="6.9994730">
        <ele>2124.0</ele>
        <time>2017-07-27T09:43:16Z</time>
      </trkpt>
      <trkpt lat="44.9787660" lon="6.9994380">
        <ele>2124.4</ele>
        <time>2017-07-27T09:43:19Z</time>
      </trkpt>
      <trkpt lat="44.9787620" lon="6.9994190">
        <ele>2124.6</ele>
        <time>2017-07-27T09:43:21Z</time>
      </trkpt>
      <trkpt lat="44.9787810" lon="6.9993990">
        <ele>2125.2</ele>
        <time>2017-07-27T09:43:25Z</time>
      </trkpt>
      <trkpt lat="44.9787870" lon="6.9993920">
        <ele>2125.4</ele>
        <time>2017-07-27T09:43:26Z</time>
      </trkpt>
      <trkpt lat="44.9787920" lon="6.9993820">
        <ele>2125.6</ele>
        <time>2017-07-27T09:43:27Z</time>
      </trkpt>
      <trkpt lat="44.9787940" lon="6.9993600">
        <ele>2126.2</ele>
        <time>2017-07-27T09:43:29Z</time>
      </trkpt>
      <trkpt lat="44.9787940" lon="6.9993460">
        <ele>2126.2</ele>
        <time>2017-07-27T09:43:30Z</time>
      </trkpt>
      <trkpt lat="44.9787910" lon="6.9993240">
        <ele>2126.8</ele>
        <time>2017-07-27T09:43:32Z</time>
      </trkpt>
      <trkpt lat="44.9787840" lon="6.9992830">
        <ele>2127.4</ele>
        <time>2017-07-27T09:43:35Z</time>
      </trkpt>
      <trkpt lat="44.9787840" lon="6.9992670">
        <ele>2127.6</ele>
        <time>2017-07-27T09:43:36Z</time>
      </trkpt>
      <trkpt lat="44.9787840" lon="6.9992470">
        <ele>2128.0</ele>
        <time>2017-07-27T09:43:38Z</time>
      </trkpt>
      <trkpt lat="44.9787770" lon="6.9992220">
        <ele>2128.6</ele>
        <time>2017-07-27T09:43:40Z</time>
      </trkpt>
      <trkpt lat="44.9787780" lon="6.9992130">
        <ele>2128.8</ele>
        <time>2017-07-27T09:43:41Z</time>
      </trkpt>
      <trkpt lat="44.9787810" lon="6.9992040">
        <ele>2129.0</ele>
        <time>2017-07-27T09:43:42Z</time>
      </trkpt>
      <trkpt lat="44.9787810" lon="6.9991920">
        <ele>2129.2</ele>
        <time>2017-07-27T09:43:44Z</time>
      </trkpt>
      <trkpt lat="44.9787830" lon="6.9991690">
        <ele>2129.6</ele>
        <time>2017-07-27T09:43:46Z</time>
      </trkpt>
      <trkpt lat="44.9787940" lon="6.9991310">
        <ele>2130.0</ele>
        <time>2017-07-27T09:43:50Z</time>
      </trkpt>
      <trkpt lat="44.9787900" lon="6.9991070">
        <ele>2130.6</ele>
        <time>2017-07-27T09:43:53Z</time>
      </trkpt>
      <trkpt lat="44.9787900" lon="6.9990980">
        <ele>2130.8</ele>
        <time>2017-07-27T09:43:54Z</time>
      </trkpt>
      <trkpt lat="44.9787920" lon="6.9990770">
        <ele>2131.0</ele>
        <time>2017-07-27T09:43:56Z</time>
      </trkpt>
      <trkpt lat="44.9787870" lon="6.9990510">
        <ele>2131.4</ele>
        <time>2017-07-27T09:43:59Z</time>
      </trkpt>
      <trkpt lat="44.9787880" lon="6.9989990">
        <ele>2132.2</ele>
        <time>2017-07-27T09:44:04Z</time>
      </trkpt>
      <trkpt lat="44.9787850" lon="6.9989880">
        <ele>2132.2</ele>
        <time>2017-07-27T09:44:05Z</time>
      </trkpt>
      <trkpt lat="44.9788070" lon="6.9989370">
        <ele>2133.2</ele>
        <time>2017-07-27T09:44:11Z</time>
      </trkpt>
      <trkpt lat="44.9788000" lon="6.9989270">
        <ele>2133.2</ele>
        <time>2017-07-27T09:44:12Z</time>
      </trkpt>
      <trkpt lat="44.9787850" lon="6.9988650">
        <ele>2133.8</ele>
        <time>2017-07-27T09:44:19Z</time>
      </trkpt>
      <trkpt lat="44.9787950" lon="6.9988530">
        <ele>2134.4</ele>
        <time>2017-07-27T09:44:21Z</time>
      </trkpt>
      <trkpt lat="44.9787990" lon="6.9988250">
        <ele>2135.2</ele>
        <time>2017-07-27T09:44:24Z</time>
      </trkpt>
      <trkpt lat="44.9787950" lon="6.9988160">
        <ele>2135.4</ele>
        <time>2017-07-27T09:44:25Z</time>
      </trkpt>
      <trkpt lat="44.9787630" lon="6.9987710">
        <ele>2136.2</ele>
        <time>2017-07-27T09:44:31Z</time>
      </trkpt>
      <trkpt lat="44.9787520" lon="6.9987640">
        <ele>2136.8</ele>
        <time>2017-07-27T09:44:34Z</time>
      </trkpt>
      <trkpt lat="44.9787540" lon="6.9987450">
        <ele>2137.2</ele>
        <time>2017-07-27T09:44:37Z</time>
      </trkpt>
      <trkpt lat="44.9787560" lon="6.9987200">
        <ele>2138.0</ele>
        <time>2017-07-27T09:44:40Z</time>
      </trkpt>
      <trkpt lat="44.9787500" lon="6.9987120">
        <ele>2138.8</ele>
        <time>2017-07-27T09:44:43Z</time>
      </trkpt>
      <trkpt lat="44.9787430" lon="6.9987060">
        <ele>2139.2</ele>
        <time>2017-07-27T09:44:45Z</time>
      </trkpt>
      <trkpt lat="44.9787380" lon="6.9986800">
        <ele>2140.0</ele>
        <time>2017-07-27T09:44:48Z</time>
      </trkpt>
      <trkpt lat="44.9787330" lon="6.9986600">
        <ele>2140.4</ele>
        <time>2017-07-27T09:44:50Z</time>
      </trkpt>
      <trkpt lat="44.9787350" lon="6.9986210">
        <ele>2141.6</ele>
        <time>2017-07-27T09:44:55Z</time>
      </trkpt>
      <trkpt lat="44.9787350" lon="6.9986140">
        <ele>2141.8</ele>
        <time>2017-07-27T09:44:56Z</time>
      </trkpt>
      <trkpt lat="44.9787300" lon="6.9986060">
        <ele>2142.0</ele>
        <time>2017-07-27T09:44:57Z</time>
      </trkpt>
      <trkpt lat="44.9787050" lon="6.9985930">
        <ele>2142.8</ele>
        <time>2017-07-27T09:45:00Z</time>
      </trkpt>
      <trkpt lat="44.9786570" lon="6.9986030">
        <ele>2142.4</ele>
        <time>2017-07-27T09:45:06Z</time>
      </trkpt>
      <trkpt lat="44.9786240" lon="6.9986480">
        <ele>2142.2</ele>
        <time>2017-07-27T09:45:13Z</time>
      </trkpt>
      <trkpt lat="44.9786070" lon="6.9987060">
        <ele>2143.0</ele>
        <time>2017-07-27T09:45:18Z</time>
      </trkpt>
      <trkpt lat="44.9785760" lon="6.9987190">
        <ele>2143.4</ele>
        <time>2017-07-27T09:45:23Z</time>
      </trkpt>
      <trkpt lat="44.9785520" lon="6.9986990">
        <ele>2143.6</ele>
        <time>2017-07-27T09:45:26Z</time>
      </trkpt>
      <trkpt lat="44.9785400" lon="6.9986820">
        <ele>2143.8</ele>
        <time>2017-07-27T09:45:28Z</time>
      </trkpt>
      <trkpt lat="44.9785350" lon="6.9986630">
        <ele>2144.0</ele>
        <time>2017-07-27T09:45:30Z</time>
      </trkpt>
      <trkpt lat="44.9785210" lon="6.9986320">
        <ele>2145.2</ele>
        <time>2017-07-27T09:45:34Z</time>
      </trkpt>
      <trkpt lat="44.9785130" lon="6.9986130">
        <ele>2145.6</ele>
        <time>2017-07-27T09:45:36Z</time>
      </trkpt>
      <trkpt lat="44.9785060" lon="6.9985950">
        <ele>2146.4</ele>
        <time>2017-07-27T09:45:38Z</time>
      </trkpt>
      <trkpt lat="44.9784990" lon="6.9985670">
        <ele>2147.6</ele>
        <time>2017-07-27T09:45:42Z</time>
      </trkpt>
      <trkpt lat="44.9784990" lon="6.9985610">
        <ele>2148.0</ele>
        <time>2017-07-27T09:45:43Z</time>
      </trkpt>
      <trkpt lat="44.9784950" lon="6.9985370">
        <ele>2149.0</ele>
        <time>2017-07-27T09:45:46Z</time>
      </trkpt>
      <trkpt lat="44.9784930" lon="6.9984940">
        <ele>2149.8</ele>
        <time>2017-07-27T09:45:50Z</time>
      </trkpt>
      <trkpt lat="44.9784930" lon="6.9984810">
        <ele>2150.0</ele>
        <time>2017-07-27T09:45:51Z</time>
      </trkpt>
      <trkpt lat="44.9784940" lon="6.9984480">
        <ele>2151.4</ele>
        <time>2017-07-27T09:45:56Z</time>
      </trkpt>
      <trkpt lat="44.9784920" lon="6.9984210">
        <ele>2152.8</ele>
        <time>2017-07-27T09:45:59Z</time>
      </trkpt>
      <trkpt lat="44.9784880" lon="6.9983980">
        <ele>2153.6</ele>
        <time>2017-07-27T09:46:02Z</time>
      </trkpt>
      <trkpt lat="44.9784870" lon="6.9983760">
        <ele>2154.0</ele>
        <time>2017-07-27T09:46:04Z</time>
      </trkpt>
      <trkpt lat="44.9784880" lon="6.9983570">
        <ele>2154.4</ele>
        <time>2017-07-27T09:46:06Z</time>
      </trkpt>
      <trkpt lat="44.9784910" lon="6.9983470">
        <ele>2154.6</ele>
        <time>2017-07-27T09:46:07Z</time>
      </trkpt>
      <trkpt lat="44.9785030" lon="6.9983030">
        <ele>2155.0</ele>
        <time>2017-07-27T09:46:12Z</time>
      </trkpt>
      <trkpt lat="44.9785030" lon="6.9983030">
        <ele>2155.2</ele>
        <time>2017-07-27T09:46:13Z</time>
      </trkpt>
      <trkpt lat="44.9784980" lon="6.9982610">
        <ele>2155.8</ele>
        <time>2017-07-27T09:46:18Z</time>
      </trkpt>
      <trkpt lat="44.9784900" lon="6.9982610">
        <ele>2156.0</ele>
        <time>2017-07-27T09:46:19Z</time>
      </trkpt>
      <trkpt lat="44.9784630" lon="6.9982690">
        <ele>2155.6</ele>
        <time>2017-07-27T09:46:25Z</time>
      </trkpt>
      <trkpt lat="44.9784590" lon="6.9982680">
        <ele>2155.6</ele>
        <time>2017-07-27T09:46:26Z</time>
      </trkpt>
      <trkpt lat="44.9784600" lon="6.9982610">
        <ele>2155.8</ele>
        <time>2017-07-27T09:46:28Z</time>
      </trkpt>
      <trkpt lat="44.9784640" lon="6.9982400">
        <ele>2156.0</ele>
        <time>2017-07-27T09:46:31Z</time>
      </trkpt>
      <trkpt lat="44.9784800" lon="6.9981910">
        <ele>2156.6</ele>
        <time>2017-07-27T09:46:36Z</time>
      </trkpt>
      <trkpt lat="44.9784880" lon="6.9981630">
        <ele>2157.4</ele>
        <time>2017-07-27T09:46:39Z</time>
      </trkpt>
      <trkpt lat="44.9784900" lon="6.9981510">
        <ele>2157.6</ele>
        <time>2017-07-27T09:46:40Z</time>
      </trkpt>
      <trkpt lat="44.9784910" lon="6.9981250">
        <ele>2158.4</ele>
        <time>2017-07-27T09:46:43Z</time>
      </trkpt>
      <trkpt lat="44.9784810" lon="6.9980810">
        <ele>2159.2</ele>
        <time>2017-07-27T09:46:47Z</time>
      </trkpt>
      <trkpt lat="44.9784820" lon="6.9980620">
        <ele>2159.4</ele>
        <time>2017-07-27T09:46:49Z</time>
      </trkpt>
      <trkpt lat="44.9784810" lon="6.9980540">
        <ele>2159.4</ele>
        <time>2017-07-27T09:46:50Z</time>
      </trkpt>
      <trkpt lat="44.9784680" lon="6.9980540">
        <ele>2159.8</ele>
        <time>2017-07-27T09:46:52Z</time>
      </trkpt>
      <trkpt lat="44.9784530" lon="6.9980670">
        <ele>2160.2</ele>
        <time>2017-07-27T09:46:54Z</time>
      </trkpt>
      <trkpt lat="44.9784420" lon="6.9980840">
        <ele>2160.6</ele>
        <time>2017-07-27T09:46:56Z</time>
      </trkpt>
      <trkpt lat="44.9784210" lon="6.9981020">
        <ele>2160.8</ele>
        <time>2017-07-27T09:47:01Z</time>
      </trkpt>
      <trkpt lat="44.9784290" lon="6.9980650">
        <ele>2161.6</ele>
        <time>2017-07-27T09:47:05Z</time>
      </trkpt>
      <trkpt lat="44.9784290" lon="6.9980540">
        <ele>2162.0</ele>
        <time>2017-07-27T09:47:06Z</time>
      </trkpt>
      <trkpt lat="44.9784240" lon="6.9980270">
        <ele>2162.6</ele>
        <time>2017-07-27T09:47:09Z</time>
      </trkpt>
      <trkpt lat="44.9784220" lon="6.9980090">
        <ele>2163.2</ele>
        <time>2017-07-27T09:47:11Z</time>
      </trkpt>
      <trkpt lat="44.9784190" lon="6.9979920">
        <ele>2163.8</ele>
        <time>2017-07-27T09:47:13Z</time>
      </trkpt>
      <trkpt lat="44.9784070" lon="6.9979560">
        <ele>2165.0</ele>
        <time>2017-07-27T09:47:17Z</time>
      </trkpt>
      <trkpt lat="44.9783860" lon="6.9979500">
        <ele>2165.8</ele>
        <time>2017-07-27T09:47:20Z</time>
      </trkpt>
      <trkpt lat="44.9783800" lon="6.9979510">
        <ele>2166.0</ele>
        <time>2017-07-27T09:47:21Z</time>
      </trkpt>
      <trkpt lat="44.9783760" lon="6.9979490">
        <ele>2166.2</ele>
        <time>2017-07-27T09:47:22Z</time>
      </trkpt>
      <trkpt lat="44.9783660" lon="6.9979110">
        <ele>2167.2</ele>
        <time>2017-07-27T09:47:27Z</time>
      </trkpt>
      <trkpt lat="44.9783680" lon="6.9979010">
        <ele>2167.2</ele>
        <time>2017-07-27T09:47:28Z</time>
      </trkpt>
      <trkpt lat="44.9783650" lon="6.9978900">
        <ele>2167.4</ele>
        <time>2017-07-27T09:47:29Z</time>
      </trkpt>
      <trkpt lat="44.9783630" lon="6.9978570">
        <ele>2167.8</ele>
        <time>2017-07-27T09:47:33Z</time>
      </trkpt>
      <trkpt lat="44.9783630" lon="6.9978440">
        <ele>2168.2</ele>
        <time>2017-07-27T09:47:35Z</time>
      </trkpt>
      <trkpt lat="44.9783690" lon="6.9978170">
        <ele>2169.2</ele>
        <time>2017-07-27T09:47:39Z</time>
      </trkpt>
      <trkpt lat="44.9783750" lon="6.9977880">
        <ele>2170.2</ele>
        <time>2017-07-27T09:47:43Z</time>
      </trkpt>
      <trkpt lat="44.9783750" lon="6.9977780">
        <ele>2170.4</ele>
        <time>2017-07-27T09:47:44Z</time>
      </trkpt>
      <trkpt lat="44.9783770" lon="6.9977700">
        <ele>2170.6</ele>
        <time>2017-07-27T09:47:45Z</time>
      </trkpt>
      <trkpt lat="44.9783790" lon="6.9977120">
        <ele>2171.4</ele>
        <time>2017-07-27T09:47:51Z</time>
      </trkpt>
      <trkpt lat="44.9783520" lon="6.9977160">
        <ele>2171.8</ele>
        <time>2017-07-27T09:47:55Z</time>
      </trkpt>
      <trkpt lat="44.9783460" lon="6.9977230">
        <ele>2171.8</ele>
        <time>2017-07-27T09:47:56Z</time>
      </trkpt>
      <trkpt lat="44.9783160" lon="6.9977330">
        <ele>2172.0</ele>
        <time>2017-07-27T09:48:02Z</time>
      </trkpt>
      <trkpt lat="44.9783040" lon="6.9977110">
        <ele>2172.2</ele>
        <time>2017-07-27T09:48:07Z</time>
      </trkpt>
      <trkpt lat="44.9783030" lon="6.9977010">
        <ele>2172.2</ele>
        <time>2017-07-27T09:48:08Z</time>
      </trkpt>
      <trkpt lat="44.9783040" lon="6.9976820">
        <ele>2172.6</ele>
        <time>2017-07-27T09:48:10Z</time>
      </trkpt>
      <trkpt lat="44.9783040" lon="6.9976610">
        <ele>2173.4</ele>
        <time>2017-07-27T09:48:13Z</time>
      </trkpt>
      <trkpt lat="44.9783050" lon="6.9976540">
        <ele>2173.8</ele>
        <time>2017-07-27T09:48:14Z</time>
      </trkpt>
      <trkpt lat="44.9783040" lon="6.9976340">
        <ele>2175.2</ele>
        <time>2017-07-27T09:48:18Z</time>
      </trkpt>
      <trkpt lat="44.9783090" lon="6.9976040">
        <ele>2175.8</ele>
        <time>2017-07-27T09:48:20Z</time>
      </trkpt>
      <trkpt lat="44.9783110" lon="6.9975940">
        <ele>2176.2</ele>
        <time>2017-07-27T09:48:21Z</time>
      </trkpt>
      <trkpt lat="44.9782980" lon="6.9975590">
        <ele>2177.4</ele>
        <time>2017-07-27T09:48:25Z</time>
      </trkpt>
      <trkpt lat="44.9782920" lon="6.9975530">
        <ele>2177.6</ele>
        <time>2017-07-27T09:48:26Z</time>
      </trkpt>
      <trkpt lat="44.9782720" lon="6.9975260">
        <ele>2178.4</ele>
        <time>2017-07-27T09:48:31Z</time>
      </trkpt>
      <trkpt lat="44.9782710" lon="6.9975200">
        <ele>2178.4</ele>
        <time>2017-07-27T09:48:32Z</time>
      </trkpt>
      <trkpt lat="44.9782570" lon="6.9974610">
        <ele>2179.4</ele>
        <time>2017-07-27T09:48:39Z</time>
      </trkpt>
      <trkpt lat="44.9782530" lon="6.9974530">
        <ele>2179.6</ele>
        <time>2017-07-27T09:48:40Z</time>
      </trkpt>
      <trkpt lat="44.9782460" lon="6.9973950">
        <ele>2180.6</ele>
        <time>2017-07-27T09:48:46Z</time>
      </trkpt>
      <trkpt lat="44.9782480" lon="6.9973880">
        <ele>2181.4</ele>
        <time>2017-07-27T09:48:47Z</time>
      </trkpt>
      <trkpt lat="44.9782510" lon="6.9973640">
        <ele>2181.8</ele>
        <time>2017-07-27T09:48:49Z</time>
      </trkpt>
      <trkpt lat="44.9782520" lon="6.9973240">
        <ele>2182.6</ele>
        <time>2017-07-27T09:48:53Z</time>
      </trkpt>
      <trkpt lat="44.9782500" lon="6.9973140">
        <ele>2182.8</ele>
        <time>2017-07-27T09:48:54Z</time>
      </trkpt>
      <trkpt lat="44.9782640" lon="6.9972410">
        <ele>2183.6</ele>
        <time>2017-07-27T09:49:01Z</time>
      </trkpt>
      <trkpt lat="44.9782570" lon="6.9972280">
        <ele>2184.0</ele>
        <time>2017-07-27T09:49:03Z</time>
      </trkpt>
      <trkpt lat="44.9782350" lon="6.9972200">
        <ele>2184.6</ele>
        <time>2017-07-27T09:49:06Z</time>
      </trkpt>
      <trkpt lat="44.9781890" lon="6.9972330">
        <ele>2184.4</ele>
        <time>2017-07-27T09:49:12Z</time>
      </trkpt>
      <trkpt lat="44.9781830" lon="6.9972280">
        <ele>2184.2</ele>
        <time>2017-07-27T09:49:13Z</time>
      </trkpt>
      <trkpt lat="44.9781730" lon="6.9972280">
        <ele>2184.2</ele>
        <time>2017-07-27T09:49:14Z</time>
      </trkpt>
      <trkpt lat="44.9781360" lon="6.9972160">
        <ele>2184.0</ele>
        <time>2017-07-27T09:49:18Z</time>
      </trkpt>
      <trkpt lat="44.9780850" lon="6.9971580">
        <ele>2183.8</ele>
        <time>2017-07-27T09:49:25Z</time>
      </trkpt>
      <trkpt lat="44.9780950" lon="6.9970940">
        <ele>2184.0</ele>
        <time>2017-07-27T09:49:32Z</time>
      </trkpt>
      <trkpt lat="44.9780880" lon="6.9970790">
        <ele>2184.2</ele>
        <time>2017-07-27T09:49:33Z</time>
      </trkpt>
      <trkpt lat="44.9780730" lon="6.9970130">
        <ele>2185.0</ele>
        <time>2017-07-27T09:49:38Z</time>
      </trkpt>
      <trkpt lat="44.9780730" lon="6.9970000">
        <ele>2185.2</ele>
        <time>2017-07-27T09:49:39Z</time>
      </trkpt>
      <trkpt lat="44.9780640" lon="6.9968980">
        <ele>2186.2</ele>
        <time>2017-07-27T09:49:46Z</time>
      </trkpt>
      <trkpt lat="44.9780570" lon="6.9968770">
        <ele>2186.4</ele>
        <time>2017-07-27T09:49:47Z</time>
      </trkpt>
      <trkpt lat="44.9780490" lon="6.9968300">
        <ele>2187.6</ele>
        <time>2017-07-27T09:49:51Z</time>
      </trkpt>
      <trkpt lat="44.9780530" lon="6.9967790">
        <ele>2188.4</ele>
        <time>2017-07-27T09:49:55Z</time>
      </trkpt>
      <trkpt lat="44.9780550" lon="6.9967640">
        <ele>2188.6</ele>
        <time>2017-07-27T09:49:56Z</time>
      </trkpt>
      <trkpt lat="44.9780600" lon="6.9967420">
        <ele>2189.0</ele>
        <time>2017-07-27T09:49:58Z</time>
      </trkpt>
      <trkpt lat="44.9780610" lon="6.9967310">
        <ele>2189.6</ele>
        <time>2017-07-27T09:49:59Z</time>
      </trkpt>
      <trkpt lat="44.9780640" lon="6.9966700">
        <ele>2190.8</ele>
        <time>2017-07-27T09:50:04Z</time>
      </trkpt>
      <trkpt lat="44.9780470" lon="6.9966020">
        <ele>2192.0</ele>
        <time>2017-07-27T09:50:09Z</time>
      </trkpt>
      <trkpt lat="44.9780420" lon="6.9965890">
        <ele>2192.2</ele>
        <time>2017-07-27T09:50:10Z</time>
      </trkpt>
      <trkpt lat="44.9780370" lon="6.9965730">
        <ele>2192.2</ele>
        <time>2017-07-27T09:50:11Z</time>
      </trkpt>
      <trkpt lat="44.9780030" lon="6.9964550">
        <ele>2191.8</ele>
        <time>2017-07-27T09:50:20Z</time>
      </trkpt>
      <trkpt lat="44.9779710" lon="6.9963320">
        <ele>2192.2</ele>
        <time>2017-07-27T09:50:28Z</time>
      </trkpt>
      <trkpt lat="44.9779610" lon="6.9963030">
        <ele>2192.2</ele>
        <time>2017-07-27T09:50:31Z</time>
      </trkpt>
      <trkpt lat="44.9779530" lon="6.9962690">
        <ele>2192.4</ele>
        <time>2017-07-27T09:50:35Z</time>
      </trkpt>
      <trkpt lat="44.9779490" lon="6.9962530">
        <ele>2193.2</ele>
        <time>2017-07-27T09:50:37Z</time>
      </trkpt>
      <trkpt lat="44.9779410" lon="6.9962100">
        <ele>2194.4</ele>
        <time>2017-07-27T09:50:41Z</time>
      </trkpt>
      <trkpt lat="44.9779330" lon="6.9961980">
        <ele>2194.8</ele>
        <time>2017-07-27T09:50:42Z</time>
      </trkpt>
      <trkpt lat="44.9779220" lon="6.9961750">
        <ele>2195.4</ele>
        <time>2017-07-27T09:50:44Z</time>
      </trkpt>
      <trkpt lat="44.9779090" lon="6.9961660">
        <ele>2195.8</ele>
        <time>2017-07-27T09:50:45Z</time>
      </trkpt>
      <trkpt lat="44.9778980" lon="6.9961540">
        <ele>2197.0</ele>
        <time>2017-07-27T09:50:47Z</time>
      </trkpt>
      <trkpt lat="44.9778930" lon="6.9961320">
        <ele>2198.2</ele>
        <time>2017-07-27T09:50:50Z</time>
      </trkpt>
      <trkpt lat="44.9778820" lon="6.9960920">
        <ele>2199.4</ele>
        <time>2017-07-27T09:50:53Z</time>
      </trkpt>
      <trkpt lat="44.9778740" lon="6.9960800">
        <ele>2199.6</ele>
        <time>2017-07-27T09:50:54Z</time>
      </trkpt>
      <trkpt lat="44.9778500" lon="6.9960610">
        <ele>2200.0</ele>
        <time>2017-07-27T09:50:57Z</time>
      </trkpt>
      <trkpt lat="44.9778460" lon="6.9960500">
        <ele>2200.4</ele>
        <time>2017-07-27T09:50:58Z</time>
      </trkpt>
      <trkpt lat="44.9778490" lon="6.9960400">
        <ele>2200.6</ele>
        <time>2017-07-27T09:50:59Z</time>
      </trkpt>
      <trkpt lat="44.9778700" lon="6.9960270">
        <ele>2201.4</ele>
        <time>2017-07-27T09:51:02Z</time>
      </trkpt>
      <trkpt lat="44.9778750" lon="6.9960270">
        <ele>2201.6</ele>
        <time>2017-07-27T09:51:03Z</time>
      </trkpt>
      <trkpt lat="44.9778800" lon="6.9960270">
        <ele>2201.8</ele>
        <time>2017-07-27T09:51:04Z</time>
      </trkpt>
      <trkpt lat="44.9779180" lon="6.9960400">
        <ele>2202.8</ele>
        <time>2017-07-27T09:51:10Z</time>
      </trkpt>
      <trkpt lat="44.9779260" lon="6.9960390">
        <ele>2203.2</ele>
        <time>2017-07-27T09:51:11Z</time>
      </trkpt>
      <trkpt lat="44.9779450" lon="6.9960360">
        <ele>2203.8</ele>
        <time>2017-07-27T09:51:13Z</time>
      </trkpt>
      <trkpt lat="44.9779410" lon="6.9960030">
        <ele>2204.0</ele>
        <time>2017-07-27T09:51:16Z</time>
      </trkpt>
      <trkpt lat="44.9779350" lon="6.9959930">
        <ele>2204.4</ele>
        <time>2017-07-27T09:51:17Z</time>
      </trkpt>
      <trkpt lat="44.9779200" lon="6.9959580">
        <ele>2204.8</ele>
        <time>2017-07-27T09:51:21Z</time>
      </trkpt>
      <trkpt lat="44.9779060" lon="6.9959300">
        <ele>2205.6</ele>
        <time>2017-07-27T09:51:24Z</time>
      </trkpt>
      <trkpt lat="44.9778790" lon="6.9959190">
        <ele>2206.6</ele>
        <time>2017-07-27T09:51:27Z</time>
      </trkpt>
      <trkpt lat="44.9778720" lon="6.9959110">
        <ele>2206.8</ele>
        <time>2017-07-27T09:51:28Z</time>
      </trkpt>
      <trkpt lat="44.9778520" lon="6.9958810">
        <ele>2207.6</ele>
        <time>2017-07-27T09:51:31Z</time>
      </trkpt>
      <trkpt lat="44.9778500" lon="6.9958590">
        <ele>2207.8</ele>
        <time>2017-07-27T09:51:33Z</time>
      </trkpt>
      <trkpt lat="44.9778460" lon="6.9958370">
        <ele>2208.0</ele>
        <time>2017-07-27T09:51:35Z</time>
      </trkpt>
      <trkpt lat="44.9778240" lon="6.9957910">
        <ele>2209.0</ele>
        <time>2017-07-27T09:51:39Z</time>
      </trkpt>
      <trkpt lat="44.9778210" lon="6.9957780">
        <ele>2209.2</ele>
        <time>2017-07-27T09:51:40Z</time>
      </trkpt>
      <trkpt lat="44.9778200" lon="6.9957660">
        <ele>2209.4</ele>
        <time>2017-07-27T09:51:41Z</time>
      </trkpt>
      <trkpt lat="44.9778050" lon="6.9957270">
        <ele>2210.4</ele>
        <time>2017-07-27T09:51:44Z</time>
      </trkpt>
      <trkpt lat="44.9777990" lon="6.9957150">
        <ele>2210.6</ele>
        <time>2017-07-27T09:51:45Z</time>
      </trkpt>
      <trkpt lat="44.9777890" lon="6.9956930">
        <ele>2211.0</ele>
        <time>2017-07-27T09:51:47Z</time>
      </trkpt>
      <trkpt lat="44.9777770" lon="6.9956720">
        <ele>2211.4</ele>
        <time>2017-07-27T09:51:49Z</time>
      </trkpt>
      <trkpt lat="44.9777410" lon="6.9956380">
        <ele>2211.6</ele>
        <time>2017-07-27T09:51:53Z</time>
      </trkpt>
      <trkpt lat="44.9777220" lon="6.9956270">
        <ele>2211.4</ele>
        <time>2017-07-27T09:51:58Z</time>
      </trkpt>
      <trkpt lat="44.9776860" lon="6.9955780">
        <ele>2211.2</ele>
        <time>2017-07-27T09:52:02Z</time>
      </trkpt>
      <trkpt lat="44.9776690" lon="6.9954740">
        <ele>2212.2</ele>
        <time>2017-07-27T09:52:06Z</time>
      </trkpt>
      <trkpt lat="44.9776670" lon="6.9954440">
        <ele>2212.6</ele>
        <time>2017-07-27T09:52:07Z</time>
      </trkpt>
      <trkpt lat="44.9776620" lon="6.9953560">
        <ele>2213.6</ele>
        <time>2017-07-27T09:52:10Z</time>
      </trkpt>
      <trkpt lat="44.9776550" lon="6.9952600">
        <ele>2214.8</ele>
        <time>2017-07-27T09:52:13Z</time>
      </trkpt>
      <trkpt lat="44.9776590" lon="6.9952300">
        <ele>2215.2</ele>
        <time>2017-07-27T09:52:14Z</time>
      </trkpt>
      <trkpt lat="44.9776710" lon="6.9951680">
        <ele>2216.0</ele>
        <time>2017-07-27T09:52:16Z</time>
      </trkpt>
      <trkpt lat="44.9776660" lon="6.9950420">
        <ele>2216.8</ele>
        <time>2017-07-27T09:52:20Z</time>
      </trkpt>
      <trkpt lat="44.9776680" lon="6.9950110">
        <ele>2217.0</ele>
        <time>2017-07-27T09:52:21Z</time>
      </trkpt>
      <trkpt lat="44.9776960" lon="6.9948970">
        <ele>2217.4</ele>
        <time>2017-07-27T09:52:25Z</time>
      </trkpt>
      <trkpt lat="44.9777050" lon="6.9948710">
        <ele>2217.8</ele>
        <time>2017-07-27T09:52:26Z</time>
      </trkpt>
      <trkpt lat="44.9777140" lon="6.9948070">
        <ele>2218.4</ele>
        <time>2017-07-27T09:52:28Z</time>
      </trkpt>
      <trkpt lat="44.9777200" lon="6.9947360">
        <ele>2218.6</ele>
        <time>2017-07-27T09:52:30Z</time>
      </trkpt>
      <trkpt lat="44.9777250" lon="6.9947030">
        <ele>2218.6</ele>
        <time>2017-07-27T09:52:31Z</time>
      </trkpt>
      <trkpt lat="44.9777420" lon="6.9945080">
        <ele>2218.2</ele>
        <time>2017-07-27T09:52:36Z</time>
      </trkpt>
      <trkpt lat="44.9777750" lon="6.9941850">
        <ele>2217.4</ele>
        <time>2017-07-27T09:52:44Z</time>
      </trkpt>
      <trkpt lat="44.9778140" lon="6.9939520">
        <ele>2217.6</ele>
        <time>2017-07-27T09:52:51Z</time>
      </trkpt>
      <trkpt lat="44.9778590" lon="6.9937690">
        <ele>2218.2</ele>
        <time>2017-07-27T09:52:57Z</time>
      </trkpt>
      <trkpt lat="44.9779290" lon="6.9936040">
        <ele>2219.4</ele>
        <time>2017-07-27T09:53:03Z</time>
      </trkpt>
      <trkpt lat="44.9779390" lon="6.9935750">
        <ele>2219.4</ele>
        <time>2017-07-27T09:53:04Z</time>
      </trkpt>
      <trkpt lat="44.9780230" lon="6.9933980">
        <ele>2220.8</ele>
        <time>2017-07-27T09:53:11Z</time>
      </trkpt>
      <trkpt lat="44.9780790" lon="6.9932750">
        <ele>2221.8</ele>
        <time>2017-07-27T09:53:16Z</time>
      </trkpt>
      <trkpt lat="44.9780900" lon="6.9932470">
        <ele>2222.0</ele>
        <time>2017-07-27T09:53:17Z</time>
      </trkpt>
      <trkpt lat="44.9781510" lon="6.9930690">
        <ele>2222.6</ele>
        <time>2017-07-27T09:53:24Z</time>
      </trkpt>
      <trkpt lat="44.9781770" lon="6.9930040">
        <ele>2223.2</ele>
        <time>2017-07-27T09:53:27Z</time>
      </trkpt>
      <trkpt lat="44.9781930" lon="6.9929690">
        <ele>2224.0</ele>
        <time>2017-07-27T09:53:30Z</time>
      </trkpt>
      <trkpt lat="44.9782370" lon="6.9928740">
        <ele>2224.2</ele>
        <time>2017-07-27T09:53:38Z</time>
      </trkpt>
      <trkpt lat="44.9782630" lon="6.9928160">
        <ele>2225.4</ele>
        <time>2017-07-27T09:53:43Z</time>
      </trkpt>
      <trkpt lat="44.9782750" lon="6.9927980">
        <ele>2225.8</ele>
        <time>2017-07-27T09:53:45Z</time>
      </trkpt>
      <trkpt lat="44.9782820" lon="6.9927710">
        <ele>2226.4</ele>
        <time>2017-07-27T09:53:47Z</time>
      </trkpt>
      <trkpt lat="44.9782930" lon="6.9927470">
        <ele>2226.8</ele>
        <time>2017-07-27T09:53:49Z</time>
      </trkpt>
      <trkpt lat="44.9783050" lon="6.9927280">
        <ele>2227.0</ele>
        <time>2017-07-27T09:53:51Z</time>
      </trkpt>
      <trkpt lat="44.9783220" lon="6.9927170">
        <ele>2227.6</ele>
        <time>2017-07-27T09:53:53Z</time>
      </trkpt>
      <trkpt lat="44.9783260" lon="6.9927060">
        <ele>2228.0</ele>
        <time>2017-07-27T09:53:54Z</time>
      </trkpt>
      <trkpt lat="44.9783380" lon="6.9926850">
        <ele>2228.4</ele>
        <time>2017-07-27T09:53:57Z</time>
      </trkpt>
      <trkpt lat="44.9783400" lon="6.9926700">
        <ele>2228.6</ele>
        <time>2017-07-27T09:53:58Z</time>
      </trkpt>
      <trkpt lat="44.9783460" lon="6.9926230">
        <ele>2229.8</ele>
        <time>2017-07-27T09:54:02Z</time>
      </trkpt>
      <trkpt lat="44.9783450" lon="6.9926110">
        <ele>2230.0</ele>
        <time>2017-07-27T09:54:03Z</time>
      </trkpt>
      <trkpt lat="44.9783480" lon="6.9925980">
        <ele>2230.2</ele>
        <time>2017-07-27T09:54:04Z</time>
      </trkpt>
      <trkpt lat="44.9783560" lon="6.9925690">
        <ele>2231.0</ele>
        <time>2017-07-27T09:54:07Z</time>
      </trkpt>
      <trkpt lat="44.9783520" lon="6.9925550">
        <ele>2231.0</ele>
        <time>2017-07-27T09:54:08Z</time>
      </trkpt>
      <trkpt lat="44.9783600" lon="6.9925050">
        <ele>2231.8</ele>
        <time>2017-07-27T09:54:13Z</time>
      </trkpt>
      <trkpt lat="44.9783630" lon="6.9924940">
        <ele>2232.0</ele>
        <time>2017-07-27T09:54:14Z</time>
      </trkpt>
      <trkpt lat="44.9783680" lon="6.9924750">
        <ele>2232.0</ele>
        <time>2017-07-27T09:54:16Z</time>
      </trkpt>
      <trkpt lat="44.9783740" lon="6.9924540">
        <ele>2232.6</ele>
        <time>2017-07-27T09:54:19Z</time>
      </trkpt>
      <trkpt lat="44.9783800" lon="6.9924300">
        <ele>2233.0</ele>
        <time>2017-07-27T09:54:21Z</time>
      </trkpt>
      <trkpt lat="44.9783830" lon="6.9924060">
        <ele>2234.2</ele>
        <time>2017-07-27T09:54:23Z</time>
      </trkpt>
      <trkpt lat="44.9783850" lon="6.9923800">
        <ele>2234.8</ele>
        <time>2017-07-27T09:54:25Z</time>
      </trkpt>
      <trkpt lat="44.9783890" lon="6.9923590">
        <ele>2235.4</ele>
        <time>2017-07-27T09:54:28Z</time>
      </trkpt>
      <trkpt lat="44.9783940" lon="6.9923300">
        <ele>2236.0</ele>
        <time>2017-07-27T09:54:31Z</time>
      </trkpt>
      <trkpt lat="44.9784000" lon="6.9923180">
        <ele>2236.6</ele>
        <time>2017-07-27T09:54:33Z</time>
      </trkpt>
      <trkpt lat="44.9784120" lon="6.9923060">
        <ele>2237.2</ele>
        <time>2017-07-27T09:54:35Z</time>
      </trkpt>
      <trkpt lat="44.9784130" lon="6.9922820">
        <ele>2237.6</ele>
        <time>2017-07-27T09:54:37Z</time>
      </trkpt>
      <trkpt lat="44.9784120" lon="6.9922220">
        <ele>2238.6</ele>
        <time>2017-07-27T09:54:43Z</time>
      </trkpt>
      <trkpt lat="44.9784130" lon="6.9922110">
        <ele>2238.6</ele>
        <time>2017-07-27T09:54:44Z</time>
      </trkpt>
      <trkpt lat="44.9784280" lon="6.9921450">
        <ele>2239.0</ele>
        <time>2017-07-27T09:54:51Z</time>
      </trkpt>
      <trkpt lat="44.9784290" lon="6.9921310">
        <ele>2239.0</ele>
        <time>2017-07-27T09:54:52Z</time>
      </trkpt>
      <trkpt lat="44.9784390" lon="6.9920810">
        <ele>2239.6</ele>
        <time>2017-07-27T09:54:57Z</time>
      </trkpt>
      <trkpt lat="44.9784380" lon="6.9920600">
        <ele>2239.8</ele>
        <time>2017-07-27T09:54:59Z</time>
      </trkpt>
      <trkpt lat="44.9784330" lon="6.9919920">
        <ele>2240.8</ele>
        <time>2017-07-27T09:55:04Z</time>
      </trkpt>
      <trkpt lat="44.9784340" lon="6.9919870">
        <ele>2241.0</ele>
        <time>2017-07-27T09:55:05Z</time>
      </trkpt>
      <trkpt lat="44.9784450" lon="6.9919270">
        <ele>2242.0</ele>
        <time>2017-07-27T09:55:11Z</time>
      </trkpt>
      <trkpt lat="44.9784440" lon="6.9919140">
        <ele>2242.4</ele>
        <time>2017-07-27T09:55:12Z</time>
      </trkpt>
      <trkpt lat="44.9784460" lon="6.9919070">
        <ele>2242.6</ele>
        <time>2017-07-27T09:55:13Z</time>
      </trkpt>
      <trkpt lat="44.9784470" lon="6.9918700">
        <ele>2243.2</ele>
        <time>2017-07-27T09:55:17Z</time>
      </trkpt>
      <trkpt lat="44.9784430" lon="6.9918310">
        <ele>2243.6</ele>
        <time>2017-07-27T09:55:20Z</time>
      </trkpt>
      <trkpt lat="44.9784540" lon="6.9918160">
        <ele>2244.0</ele>
        <time>2017-07-27T09:55:22Z</time>
      </trkpt>
      <trkpt lat="44.9784560" lon="6.9918040">
        <ele>2244.2</ele>
        <time>2017-07-27T09:55:23Z</time>
      </trkpt>
      <trkpt lat="44.9784570" lon="6.9917930">
        <ele>2244.4</ele>
        <time>2017-07-27T09:55:24Z</time>
      </trkpt>
      <trkpt lat="44.9784600" lon="6.9917660">
        <ele>2244.8</ele>
        <time>2017-07-27T09:55:26Z</time>
      </trkpt>
      <trkpt lat="44.9784620" lon="6.9917450">
        <ele>2245.2</ele>
        <time>2017-07-27T09:55:28Z</time>
      </trkpt>
      <trkpt lat="44.9784660" lon="6.9917170">
        <ele>2245.8</ele>
        <time>2017-07-27T09:55:30Z</time>
      </trkpt>
      <trkpt lat="44.9784700" lon="6.9916640">
        <ele>2246.4</ele>
        <time>2017-07-27T09:55:34Z</time>
      </trkpt>
      <trkpt lat="44.9784730" lon="6.9916480">
        <ele>2246.8</ele>
        <time>2017-07-27T09:55:35Z</time>
      </trkpt>
      <trkpt lat="44.9784750" lon="6.9916220">
        <ele>2247.2</ele>
        <time>2017-07-27T09:55:37Z</time>
      </trkpt>
      <trkpt lat="44.9784800" lon="6.9915970">
        <ele>2247.6</ele>
        <time>2017-07-27T09:55:39Z</time>
      </trkpt>
      <trkpt lat="44.9784960" lon="6.9915550">
        <ele>2248.4</ele>
        <time>2017-07-27T09:55:45Z</time>
      </trkpt>
      <trkpt lat="44.9784980" lon="6.9915470">
        <ele>2248.6</ele>
        <time>2017-07-27T09:55:46Z</time>
      </trkpt>
      <trkpt lat="44.9784960" lon="6.9915340">
        <ele>2249.0</ele>
        <time>2017-07-27T09:55:47Z</time>
      </trkpt>
      <trkpt lat="44.9784970" lon="6.9915140">
        <ele>2249.4</ele>
        <time>2017-07-27T09:55:50Z</time>
      </trkpt>
      <trkpt lat="44.9785060" lon="6.9914820">
        <ele>2249.6</ele>
        <time>2017-07-27T09:55:55Z</time>
      </trkpt>
      <trkpt lat="44.9785080" lon="6.9914730">
        <ele>2249.8</ele>
        <time>2017-07-27T09:55:56Z</time>
      </trkpt>
      <trkpt lat="44.9785260" lon="6.9914400">
        <ele>2250.8</ele>
        <time>2017-07-27T09:56:01Z</time>
      </trkpt>
      <trkpt lat="44.9785280" lon="6.9914290">
        <ele>2250.8</ele>
        <time>2017-07-27T09:56:02Z</time>
      </trkpt>
      <trkpt lat="44.9785370" lon="6.9913910">
        <ele>2251.4</ele>
        <time>2017-07-27T09:56:08Z</time>
      </trkpt>
      <trkpt lat="44.9785400" lon="6.9913670">
        <ele>2251.8</ele>
        <time>2017-07-27T09:56:10Z</time>
      </trkpt>
      <trkpt lat="44.9785430" lon="6.9913350">
        <ele>2252.6</ele>
        <time>2017-07-27T09:56:13Z</time>
      </trkpt>
      <trkpt lat="44.9785480" lon="6.9913280">
        <ele>2253.0</ele>
        <time>2017-07-27T09:56:14Z</time>
      </trkpt>
      <trkpt lat="44.9785590" lon="6.9912840">
        <ele>2254.2</ele>
        <time>2017-07-27T09:56:18Z</time>
      </trkpt>
      <trkpt lat="44.9785600" lon="6.9912750">
        <ele>2254.4</ele>
        <time>2017-07-27T09:56:19Z</time>
      </trkpt>
      <trkpt lat="44.9785730" lon="6.9912180">
        <ele>2255.4</ele>
        <time>2017-07-27T09:56:24Z</time>
      </trkpt>
      <trkpt lat="44.9785770" lon="6.9911960">
        <ele>2255.6</ele>
        <time>2017-07-27T09:56:26Z</time>
      </trkpt>
      <trkpt lat="44.9785850" lon="6.9911480">
        <ele>2256.4</ele>
        <time>2017-07-27T09:56:31Z</time>
      </trkpt>
      <trkpt lat="44.9785940" lon="6.9911250">
        <ele>2256.6</ele>
        <time>2017-07-27T09:56:33Z</time>
      </trkpt>
      <trkpt lat="44.9786040" lon="6.9910550">
        <ele>2257.0</ele>
        <time>2017-07-27T09:56:39Z</time>
      </trkpt>
      <trkpt lat="44.9786040" lon="6.9910440">
        <ele>2257.0</ele>
        <time>2017-07-27T09:56:40Z</time>
      </trkpt>
      <trkpt lat="44.9786090" lon="6.9910220">
        <ele>2257.4</ele>
        <time>2017-07-27T09:56:42Z</time>
      </trkpt>
      <trkpt lat="44.9786250" lon="6.9909890">
        <ele>2258.4</ele>
        <time>2017-07-27T09:56:46Z</time>
      </trkpt>
      <trkpt lat="44.9786320" lon="6.9909650">
        <ele>2258.6</ele>
        <time>2017-07-27T09:56:48Z</time>
      </trkpt>
      <trkpt lat="44.9786500" lon="6.9909130">
        <ele>2259.4</ele>
        <time>2017-07-27T09:56:54Z</time>
      </trkpt>
      <trkpt lat="44.9786540" lon="6.9908980">
        <ele>2259.6</ele>
        <time>2017-07-27T09:56:56Z</time>
      </trkpt>
      <trkpt lat="44.9786620" lon="6.9908740">
        <ele>2259.8</ele>
        <time>2017-07-27T09:56:59Z</time>
      </trkpt>
      <trkpt lat="44.9786670" lon="6.9908650">
        <ele>2260.0</ele>
        <time>2017-07-27T09:57:00Z</time>
      </trkpt>
      <trkpt lat="44.9786910" lon="6.9908340">
        <ele>2260.6</ele>
        <time>2017-07-27T09:57:04Z</time>
      </trkpt>
      <trkpt lat="44.9786960" lon="6.9908290">
        <ele>2260.8</ele>
        <time>2017-07-27T09:57:05Z</time>
      </trkpt>
      <trkpt lat="44.9787140" lon="6.9907830">
        <ele>2261.6</ele>
        <time>2017-07-27T09:57:10Z</time>
      </trkpt>
      <trkpt lat="44.9787160" lon="6.9907740">
        <ele>2261.8</ele>
        <time>2017-07-27T09:57:11Z</time>
      </trkpt>
      <trkpt lat="44.9787260" lon="6.9907350">
        <ele>2262.8</ele>
        <time>2017-07-27T09:57:15Z</time>
      </trkpt>
      <trkpt lat="44.9787290" lon="6.9907270">
        <ele>2263.0</ele>
        <time>2017-07-27T09:57:16Z</time>
      </trkpt>
      <trkpt lat="44.9787310" lon="6.9907060">
        <ele>2263.2</ele>
        <time>2017-07-27T09:57:18Z</time>
      </trkpt>
      <trkpt lat="44.9787370" lon="6.9906780">
        <ele>2264.0</ele>
        <time>2017-07-27T09:57:21Z</time>
      </trkpt>
      <trkpt lat="44.9787390" lon="6.9906610">
        <ele>2264.2</ele>
        <time>2017-07-27T09:57:23Z</time>
      </trkpt>
      <trkpt lat="44.9787630" lon="6.9906190">
        <ele>2265.2</ele>
        <time>2017-07-27T09:57:28Z</time>
      </trkpt>
      <trkpt lat="44.9787720" lon="6.9906000">
        <ele>2265.8</ele>
        <time>2017-07-27T09:57:30Z</time>
      </trkpt>
      <trkpt lat="44.9787790" lon="6.9905970">
        <ele>2266.0</ele>
        <time>2017-07-27T09:57:31Z</time>
      </trkpt>
      <trkpt lat="44.9787860" lon="6.9905930">
        <ele>2266.2</ele>
        <time>2017-07-27T09:57:32Z</time>
      </trkpt>
      <trkpt lat="44.9787980" lon="6.9905450">
        <ele>2267.4</ele>
        <time>2017-07-27T09:57:38Z</time>
      </trkpt>
      <trkpt lat="44.9788040" lon="6.9905340">
        <ele>2267.4</ele>
        <time>2017-07-27T09:57:39Z</time>
      </trkpt>
      <trkpt lat="44.9788210" lon="6.9904960">
        <ele>2268.4</ele>
        <time>2017-07-27T09:57:44Z</time>
      </trkpt>
      <trkpt lat="44.9788230" lon="6.9904890">
        <ele>2268.6</ele>
        <time>2017-07-27T09:57:45Z</time>
      </trkpt>
      <trkpt lat="44.9788400" lon="6.9904700">
        <ele>2269.2</ele>
        <time>2017-07-27T09:57:48Z</time>
      </trkpt>
      <trkpt lat="44.9788430" lon="6.9904600">
        <ele>2269.4</ele>
        <time>2017-07-27T09:57:49Z</time>
      </trkpt>
      <trkpt lat="44.9788630" lon="6.9904360">
        <ele>2270.2</ele>
        <time>2017-07-27T09:57:52Z</time>
      </trkpt>
      <trkpt lat="44.9788830" lon="6.9904190">
        <ele>2270.6</ele>
        <time>2017-07-27T09:57:55Z</time>
      </trkpt>
      <trkpt lat="44.9788900" lon="6.9903870">
        <ele>2270.8</ele>
        <time>2017-07-27T09:57:58Z</time>
      </trkpt>
      <trkpt lat="44.9789050" lon="6.9903660">
        <ele>2271.6</ele>
        <time>2017-07-27T09:58:01Z</time>
      </trkpt>
      <trkpt lat="44.9789290" lon="6.9903330">
        <ele>2271.8</ele>
        <time>2017-07-27T09:58:05Z</time>
      </trkpt>
      <trkpt lat="44.9789360" lon="6.9903150">
        <ele>2272.0</ele>
        <time>2017-07-27T09:58:07Z</time>
      </trkpt>
      <trkpt lat="44.9789520" lon="6.9902830">
        <ele>2272.0</ele>
        <time>2017-07-27T09:58:10Z</time>
      </trkpt>
      <trkpt lat="44.9789600" lon="6.9902730">
        <ele>2272.0</ele>
        <time>2017-07-27T09:58:11Z</time>
      </trkpt>
      <trkpt lat="44.9789820" lon="6.9902220">
        <ele>2272.8</ele>
        <time>2017-07-27T09:58:16Z</time>
      </trkpt>
      <trkpt lat="44.9789810" lon="6.9901950">
        <ele>2273.0</ele>
        <time>2017-07-27T09:58:18Z</time>
      </trkpt>
      <trkpt lat="44.9789950" lon="6.9901290">
        <ele>2273.2</ele>
        <time>2017-07-27T09:58:24Z</time>
      </trkpt>
      <trkpt lat="44.9790180" lon="6.9900960">
        <ele>2273.8</ele>
        <time>2017-07-27T09:58:28Z</time>
      </trkpt>
      <trkpt lat="44.9790310" lon="6.9900870">
        <ele>2273.8</ele>
        <time>2017-07-27T09:58:30Z</time>
      </trkpt>
      <trkpt lat="44.9790400" lon="6.9900830">
        <ele>2273.8</ele>
        <time>2017-07-27T09:58:31Z</time>
      </trkpt>
      <trkpt lat="44.9790550" lon="6.9900750">
        <ele>2274.2</ele>
        <time>2017-07-27T09:58:33Z</time>
      </trkpt>
      <trkpt lat="44.9790600" lon="6.9900490">
        <ele>2274.4</ele>
        <time>2017-07-27T09:58:35Z</time>
      </trkpt>
      <trkpt lat="44.9790700" lon="6.9900210">
        <ele>2274.8</ele>
        <time>2017-07-27T09:58:38Z</time>
      </trkpt>
      <trkpt lat="44.9790730" lon="6.9900130">
        <ele>2274.6</ele>
        <time>2017-07-27T09:58:39Z</time>
      </trkpt>
      <trkpt lat="44.9790770" lon="6.9900130">
        <ele>2274.8</ele>
        <time>2017-07-27T09:58:40Z</time>
      </trkpt>
      <trkpt lat="44.9791240" lon="6.9899910">
        <ele>2275.6</ele>
        <time>2017-07-27T09:58:45Z</time>
      </trkpt>
      <trkpt lat="44.9791310" lon="6.9899910">
        <ele>2276.0</ele>
        <time>2017-07-27T09:58:46Z</time>
      </trkpt>
      <trkpt lat="44.9791380" lon="6.9899790">
        <ele>2276.2</ele>
        <time>2017-07-27T09:58:47Z</time>
      </trkpt>
      <trkpt lat="44.9791550" lon="6.9899690">
        <ele>2277.2</ele>
        <time>2017-07-27T09:58:49Z</time>
      </trkpt>
      <trkpt lat="44.9791980" lon="6.9899510">
        <ele>2278.0</ele>
        <time>2017-07-27T09:58:54Z</time>
      </trkpt>
      <trkpt lat="44.9792200" lon="6.9899300">
        <ele>2278.4</ele>
        <time>2017-07-27T09:58:57Z</time>
      </trkpt>
      <trkpt lat="44.9792350" lon="6.9899120">
        <ele>2278.4</ele>
        <time>2017-07-27T09:59:00Z</time>
      </trkpt>
      <trkpt lat="44.9792970" lon="6.9898900">
        <ele>2279.0</ele>
        <time>2017-07-27T09:59:07Z</time>
      </trkpt>
      <trkpt lat="44.9793420" lon="6.9898610">
        <ele>2279.4</ele>
        <time>2017-07-27T09:59:13Z</time>
      </trkpt>
      <trkpt lat="44.9793570" lon="6.9898470">
        <ele>2279.2</ele>
        <time>2017-07-27T09:59:15Z</time>
      </trkpt>
      <trkpt lat="44.9793720" lon="6.9898390">
        <ele>2279.2</ele>
        <time>2017-07-27T09:59:17Z</time>
      </trkpt>
      <trkpt lat="44.9794170" lon="6.9898260">
        <ele>2279.4</ele>
        <time>2017-07-27T09:59:21Z</time>
      </trkpt>
      <trkpt lat="44.9794750" lon="6.9897880">
        <ele>2280.2</ele>
        <time>2017-07-27T09:59:27Z</time>
      </trkpt>
      <trkpt lat="44.9794830" lon="6.9897780">
        <ele>2280.4</ele>
        <time>2017-07-27T09:59:28Z</time>
      </trkpt>
      <trkpt lat="44.9794900" lon="6.9897740">
        <ele>2280.6</ele>
        <time>2017-07-27T09:59:29Z</time>
      </trkpt>
      <trkpt lat="44.9795230" lon="6.9897510">
        <ele>2280.8</ele>
        <time>2017-07-27T09:59:35Z</time>
      </trkpt>
      <trkpt lat="44.9795520" lon="6.9897450">
        <ele>2281.8</ele>
        <time>2017-07-27T09:59:38Z</time>
      </trkpt>
      <trkpt lat="44.9795680" lon="6.9897330">
        <ele>2282.0</ele>
        <time>2017-07-27T09:59:41Z</time>
      </trkpt>
      <trkpt lat="44.9795810" lon="6.9897060">
        <ele>2282.2</ele>
        <time>2017-07-27T09:59:44Z</time>
      </trkpt>
      <trkpt lat="44.9795920" lon="6.9896720">
        <ele>2282.6</ele>
        <time>2017-07-27T09:59:47Z</time>
      </trkpt>
      <trkpt lat="44.9796110" lon="6.9896420">
        <ele>2282.4</ele>
        <time>2017-07-27T09:59:50Z</time>
      </trkpt>
      <trkpt lat="44.9796260" lon="6.9896180">
        <ele>2283.0</ele>
        <time>2017-07-27T09:59:53Z</time>
      </trkpt>
      <trkpt lat="44.9796320" lon="6.9896150">
        <ele>2283.0</ele>
        <time>2017-07-27T09:59:54Z</time>
      </trkpt>
      <trkpt lat="44.9796350" lon="6.9896060">
        <ele>2283.2</ele>
        <time>2017-07-27T09:59:55Z</time>
      </trkpt>
      <trkpt lat="44.9796400" lon="6.9895940">
        <ele>2283.4</ele>
        <time>2017-07-27T09:59:56Z</time>
      </trkpt>
      <trkpt lat="44.9796540" lon="6.9895630">
        <ele>2284.0</ele>
        <time>2017-07-27T09:59:59Z</time>
      </trkpt>
      <trkpt lat="44.9796760" lon="6.9895390">
        <ele>2284.6</ele>
        <time>2017-07-27T10:00:02Z</time>
      </trkpt>
      <trkpt lat="44.9796870" lon="6.9895170">
        <ele>2285.2</ele>
        <time>2017-07-27T10:00:04Z</time>
      </trkpt>
      <trkpt lat="44.9797350" lon="6.9894560">
        <ele>2286.0</ele>
        <time>2017-07-27T10:00:10Z</time>
      </trkpt>
      <trkpt lat="44.9797440" lon="6.9894500">
        <ele>2286.2</ele>
        <time>2017-07-27T10:00:11Z</time>
      </trkpt>
      <trkpt lat="44.9797800" lon="6.9894200">
        <ele>2287.4</ele>
        <time>2017-07-27T10:00:16Z</time>
      </trkpt>
      <trkpt lat="44.9797930" lon="6.9894100">
        <ele>2287.4</ele>
        <time>2017-07-27T10:00:18Z</time>
      </trkpt>
      <trkpt lat="44.9798080" lon="6.9894000">
        <ele>2287.6</ele>
        <time>2017-07-27T10:00:20Z</time>
      </trkpt>
      <trkpt lat="44.9798480" lon="6.9893820">
        <ele>2288.4</ele>
        <time>2017-07-27T10:00:25Z</time>
      </trkpt>
      <trkpt lat="44.9799110" lon="6.9893290">
        <ele>2289.4</ele>
        <time>2017-07-27T10:00:34Z</time>
      </trkpt>
      <trkpt lat="44.9799250" lon="6.9893150">
        <ele>2289.6</ele>
        <time>2017-07-27T10:00:36Z</time>
      </trkpt>
      <trkpt lat="44.9799340" lon="6.9893130">
        <ele>2289.6</ele>
        <time>2017-07-27T10:00:38Z</time>
      </trkpt>
      <trkpt lat="44.9799530" lon="6.9893070">
        <ele>2289.6</ele>
        <time>2017-07-27T10:00:40Z</time>
      </trkpt>
      <trkpt lat="44.9799580" lon="6.9893010">
        <ele>2289.6</ele>
        <time>2017-07-27T10:00:41Z</time>
      </trkpt>
      <trkpt lat="44.9799910" lon="6.9892590">
        <ele>2289.8</ele>
        <time>2017-07-27T10:00:46Z</time>
      </trkpt>
      <trkpt lat="44.9800350" lon="6.9892430">
        <ele>2290.6</ele>
        <time>2017-07-27T10:00:50Z</time>
      </trkpt>
      <trkpt lat="44.9800470" lon="6.9892360">
        <ele>2291.0</ele>
        <time>2017-07-27T10:00:51Z</time>
      </trkpt>
      <trkpt lat="44.9800610" lon="6.9892110">
        <ele>2291.6</ele>
        <time>2017-07-27T10:00:53Z</time>
      </trkpt>
      <trkpt lat="44.9800690" lon="6.9892050">
        <ele>2292.0</ele>
        <time>2017-07-27T10:00:54Z</time>
      </trkpt>
      <trkpt lat="44.9800750" lon="6.9891950">
        <ele>2292.0</ele>
        <time>2017-07-27T10:00:55Z</time>
      </trkpt>
      <trkpt lat="44.9801180" lon="6.9891550">
        <ele>2292.8</ele>
        <time>2017-07-27T10:01:00Z</time>
      </trkpt>
      <trkpt lat="44.9801260" lon="6.9891490">
        <ele>2293.0</ele>
        <time>2017-07-27T10:01:01Z</time>
      </trkpt>
      <trkpt lat="44.9801390" lon="6.9891340">
        <ele>2293.2</ele>
        <time>2017-07-27T10:01:03Z</time>
      </trkpt>
      <trkpt lat="44.9801670" lon="6.9891150">
        <ele>2293.4</ele>
        <time>2017-07-27T10:01:06Z</time>
      </trkpt>
      <trkpt lat="44.9802010" lon="6.9890890">
        <ele>2294.2</ele>
        <time>2017-07-27T10:01:09Z</time>
      </trkpt>
      <trkpt lat="44.9802150" lon="6.9890820">
        <ele>2294.2</ele>
        <time>2017-07-27T10:01:10Z</time>
      </trkpt>
      <trkpt lat="44.9802390" lon="6.9890720">
        <ele>2294.4</ele>
        <time>2017-07-27T10:01:12Z</time>
      </trkpt>
      <trkpt lat="44.9802600" lon="6.9890790">
        <ele>2294.4</ele>
        <time>2017-07-27T10:01:14Z</time>
      </trkpt>
      <trkpt lat="44.9803340" lon="6.9890650">
        <ele>2295.2</ele>
        <time>2017-07-27T10:01:21Z</time>
      </trkpt>
      <trkpt lat="44.9803450" lon="6.9890690">
        <ele>2295.6</ele>
        <time>2017-07-27T10:01:22Z</time>
      </trkpt>
      <trkpt lat="44.9804230" lon="6.9890690">
        <ele>2296.2</ele>
        <time>2017-07-27T10:01:29Z</time>
      </trkpt>
      <trkpt lat="44.9804360" lon="6.9890650">
        <ele>2296.2</ele>
        <time>2017-07-27T10:01:30Z</time>
      </trkpt>
      <trkpt lat="44.9805260" lon="6.9890580">
        <ele>2295.8</ele>
        <time>2017-07-27T10:01:37Z</time>
      </trkpt>
      <trkpt lat="44.9806110" lon="6.9890270">
        <ele>2295.4</ele>
        <time>2017-07-27T10:01:45Z</time>
      </trkpt>
      <trkpt lat="44.9806260" lon="6.9890300">
        <ele>2295.6</ele>
        <time>2017-07-27T10:01:46Z</time>
      </trkpt>
      <trkpt lat="44.9806590" lon="6.9889800">
        <ele>2295.4</ele>
        <time>2017-07-27T10:01:51Z</time>
      </trkpt>
      <trkpt lat="44.9806890" lon="6.9889410">
        <ele>2295.4</ele>
        <time>2017-07-27T10:01:55Z</time>
      </trkpt>
      <trkpt lat="44.9806940" lon="6.9889290">
        <ele>2295.2</ele>
        <time>2017-07-27T10:01:56Z</time>
      </trkpt>
      <trkpt lat="44.9806970" lon="6.9889170">
        <ele>2295.4</ele>
        <time>2017-07-27T10:01:57Z</time>
      </trkpt>
      <trkpt lat="44.9807110" lon="6.9888880">
        <ele>2295.4</ele>
        <time>2017-07-27T10:02:00Z</time>
      </trkpt>
      <trkpt lat="44.9807180" lon="6.9888660">
        <ele>2295.4</ele>
        <time>2017-07-27T10:02:02Z</time>
      </trkpt>
      <trkpt lat="44.9807210" lon="6.9888590">
        <ele>2295.6</ele>
        <time>2017-07-27T10:02:03Z</time>
      </trkpt>
      <trkpt lat="44.9807600" lon="6.9888280">
        <ele>2296.4</ele>
        <time>2017-07-27T10:02:08Z</time>
      </trkpt>
      <trkpt lat="44.9807720" lon="6.9888180">
        <ele>2296.6</ele>
        <time>2017-07-27T10:02:10Z</time>
      </trkpt>
      <trkpt lat="44.9808100" lon="6.9887900">
        <ele>2297.4</ele>
        <time>2017-07-27T10:02:15Z</time>
      </trkpt>
      <trkpt lat="44.9808330" lon="6.9887740">
        <ele>2298.2</ele>
        <time>2017-07-27T10:02:18Z</time>
      </trkpt>
      <trkpt lat="44.9808410" lon="6.9887660">
        <ele>2298.4</ele>
        <time>2017-07-27T10:02:19Z</time>
      </trkpt>
      <trkpt lat="44.9808890" lon="6.9887200">
        <ele>2299.8</ele>
        <time>2017-07-27T10:02:24Z</time>
      </trkpt>
      <trkpt lat="44.9809140" lon="6.9886890">
        <ele>2300.6</ele>
        <time>2017-07-27T10:02:27Z</time>
      </trkpt>
      <trkpt lat="44.9809230" lon="6.9886830">
        <ele>2300.8</ele>
        <time>2017-07-27T10:02:28Z</time>
      </trkpt>
      <trkpt lat="44.9809550" lon="6.9886680">
        <ele>2301.0</ele>
        <time>2017-07-27T10:02:31Z</time>
      </trkpt>
      <trkpt lat="44.9809660" lon="6.9886490">
        <ele>2301.2</ele>
        <time>2017-07-27T10:02:33Z</time>
      </trkpt>
      <trkpt lat="44.9809850" lon="6.9886250">
        <ele>2301.6</ele>
        <time>2017-07-27T10:02:35Z</time>
      </trkpt>
      <trkpt lat="44.9809940" lon="6.9886180">
        <ele>2302.0</ele>
        <time>2017-07-27T10:02:36Z</time>
      </trkpt>
      <trkpt lat="44.9810000" lon="6.9886080">
        <ele>2302.0</ele>
        <time>2017-07-27T10:02:37Z</time>
      </trkpt>
      <trkpt lat="44.9810340" lon="6.9885720">
        <ele>2302.6</ele>
        <time>2017-07-27T10:02:41Z</time>
      </trkpt>
      <trkpt lat="44.9810860" lon="6.9885100">
        <ele>2302.8</ele>
        <time>2017-07-27T10:02:47Z</time>
      </trkpt>
      <trkpt lat="44.9810960" lon="6.9885000">
        <ele>2303.0</ele>
        <time>2017-07-27T10:02:48Z</time>
      </trkpt>
      <trkpt lat="44.9811010" lon="6.9884960">
        <ele>2303.8</ele>
        <time>2017-07-27T10:02:53Z</time>
      </trkpt>
      <trkpt lat="44.9811500" lon="6.9884440">
        <ele>2304.0</ele>
        <time>2017-07-27T10:02:56Z</time>
      </trkpt>
      <trkpt lat="44.9811960" lon="6.9884080">
        <ele>2304.4</ele>
        <time>2017-07-27T10:02:58Z</time>
      </trkpt>
      <trkpt lat="44.9813840" lon="6.9883580">
        <ele>2304.6</ele>
        <time>2017-07-27T10:03:04Z</time>
      </trkpt>
      <trkpt lat="44.9814180" lon="6.9883310">
        <ele>2304.4</ele>
        <time>2017-07-27T10:03:05Z</time>
      </trkpt>
      <trkpt lat="44.9814140" lon="6.9882780">
        <ele>2304.2</ele>
        <time>2017-07-27T10:03:07Z</time>
      </trkpt>
      <trkpt lat="44.9814770" lon="6.9882120">
        <ele>2304.6</ele>
        <time>2017-07-27T10:03:11Z</time>
      </trkpt>
      <trkpt lat="44.9815030" lon="6.9881830">
        <ele>2304.6</ele>
        <time>2017-07-27T10:03:13Z</time>
      </trkpt>
      <trkpt lat="44.9815570" lon="6.9881090">
        <ele>2304.8</ele>
        <time>2017-07-27T10:03:16Z</time>
      </trkpt>
      <trkpt lat="44.9815960" lon="6.9880680">
        <ele>2305.2</ele>
        <time>2017-07-27T10:03:18Z</time>
      </trkpt>
      <trkpt lat="44.9816530" lon="6.9879940">
        <ele>2305.4</ele>
        <time>2017-07-27T10:03:22Z</time>
      </trkpt>
      <trkpt lat="44.9817010" lon="6.9879200">
        <ele>2306.2</ele>
        <time>2017-07-27T10:03:25Z</time>
      </trkpt>
      <trkpt lat="44.9817310" lon="6.9878880">
        <ele>2306.4</ele>
        <time>2017-07-27T10:03:27Z</time>
      </trkpt>
      <trkpt lat="44.9817750" lon="6.9878290">
        <ele>2307.0</ele>
        <time>2017-07-27T10:03:30Z</time>
      </trkpt>
      <trkpt lat="44.9818160" lon="6.9877800">
        <ele>2307.4</ele>
        <time>2017-07-27T10:03:32Z</time>
      </trkpt>
      <trkpt lat="44.9819070" lon="6.9876880">
        <ele>2308.4</ele>
        <time>2017-07-27T10:03:37Z</time>
      </trkpt>
      <trkpt lat="44.9819230" lon="6.9876610">
        <ele>2308.6</ele>
        <time>2017-07-27T10:03:38Z</time>
      </trkpt>
      <trkpt lat="44.9819680" lon="6.9875450">
        <ele>2309.2</ele>
        <time>2017-07-27T10:03:42Z</time>
      </trkpt>
      <trkpt lat="44.9820050" lon="6.9874970">
        <ele>2309.6</ele>
        <time>2017-07-27T10:03:44Z</time>
      </trkpt>
      <trkpt lat="44.9820630" lon="6.9873930">
        <ele>2310.0</ele>
        <time>2017-07-27T10:03:48Z</time>
      </trkpt>
      <trkpt lat="44.9821520" lon="6.9872690">
        <ele>2310.2</ele>
        <time>2017-07-27T10:03:54Z</time>
      </trkpt>
      <trkpt lat="44.9822210" lon="6.9871130">
        <ele>2310.2</ele>
        <time>2017-07-27T10:04:00Z</time>
      </trkpt>
      <trkpt lat="44.9823000" lon="6.9870110">
        <ele>2310.6</ele>
        <time>2017-07-27T10:04:05Z</time>
      </trkpt>
      <trkpt lat="44.9823510" lon="6.9869490">
        <ele>2311.2</ele>
        <time>2017-07-27T10:04:08Z</time>
      </trkpt>
      <trkpt lat="44.9824000" lon="6.9868870">
        <ele>2312.0</ele>
        <time>2017-07-27T10:04:11Z</time>
      </trkpt>
      <trkpt lat="44.9824640" lon="6.9868140">
        <ele>2313.2</ele>
        <time>2017-07-27T10:04:15Z</time>
      </trkpt>
      <trkpt lat="44.9825500" lon="6.9866740">
        <ele>2314.2</ele>
        <time>2017-07-27T10:04:20Z</time>
      </trkpt>
      <trkpt lat="44.9826160" lon="6.9866120">
        <ele>2314.6</ele>
        <time>2017-07-27T10:04:23Z</time>
      </trkpt>
      <trkpt lat="44.9827200" lon="6.9864600">
        <ele>2315.0</ele>
        <time>2017-07-27T10:04:28Z</time>
      </trkpt>
      <trkpt lat="44.9828160" lon="6.9862780">
        <ele>2315.4</ele>
        <time>2017-07-27T10:04:34Z</time>
      </trkpt>
      <trkpt lat="44.9828840" lon="6.9861160">
        <ele>2315.4</ele>
        <time>2017-07-27T10:04:40Z</time>
      </trkpt>
      <trkpt lat="44.9829710" lon="6.9859450">
        <ele>2316.0</ele>
        <time>2017-07-27T10:04:46Z</time>
      </trkpt>
      <trkpt lat="44.9830230" lon="6.9858430">
        <ele>2316.4</ele>
        <time>2017-07-27T10:04:51Z</time>
      </trkpt>
      <trkpt lat="44.9830460" lon="6.9858040">
        <ele>2316.8</ele>
        <time>2017-07-27T10:04:53Z</time>
      </trkpt>
      <trkpt lat="44.9830860" lon="6.9857670">
        <ele>2317.0</ele>
        <time>2017-07-27T10:04:55Z</time>
      </trkpt>
      <trkpt lat="44.9831140" lon="6.9857200">
        <ele>2317.4</ele>
        <time>2017-07-27T10:04:57Z</time>
      </trkpt>
      <trkpt lat="44.9831200" lon="6.9856920">
        <ele>2317.4</ele>
        <time>2017-07-27T10:04:58Z</time>
      </trkpt>
      <trkpt lat="44.9831550" lon="6.9855690">
        <ele>2318.4</ele>
        <time>2017-07-27T10:05:02Z</time>
      </trkpt>
      <trkpt lat="44.9831730" lon="6.9855420">
        <ele>2318.6</ele>
        <time>2017-07-27T10:05:03Z</time>
      </trkpt>
      <trkpt lat="44.9832240" lon="6.9853790">
        <ele>2319.0</ele>
        <time>2017-07-27T10:05:08Z</time>
      </trkpt>
      <trkpt lat="44.9832770" lon="6.9851740">
        <ele>2318.4</ele>
        <time>2017-07-27T10:05:14Z</time>
      </trkpt>
      <trkpt lat="44.9832820" lon="6.9850430">
        <ele>2317.8</ele>
        <time>2017-07-27T10:05:19Z</time>
      </trkpt>
      <trkpt lat="44.9832820" lon="6.9850120">
        <ele>2317.6</ele>
        <time>2017-07-27T10:05:20Z</time>
      </trkpt>
      <trkpt lat="44.9833060" lon="6.9848940">
        <ele>2317.6</ele>
        <time>2017-07-27T10:05:25Z</time>
      </trkpt>
      <trkpt lat="44.9833680" lon="6.9847390">
        <ele>2318.2</ele>
        <time>2017-07-27T10:05:32Z</time>
      </trkpt>
      <trkpt lat="44.9833810" lon="6.9846930">
        <ele>2318.8</ele>
        <time>2017-07-27T10:05:34Z</time>
      </trkpt>
      <trkpt lat="44.9833990" lon="6.9846530">
        <ele>2319.6</ele>
        <time>2017-07-27T10:05:36Z</time>
      </trkpt>
      <trkpt lat="44.9834110" lon="6.9846250">
        <ele>2319.8</ele>
        <time>2017-07-27T10:05:37Z</time>
      </trkpt>
      <trkpt lat="44.9834210" lon="6.9846060">
        <ele>2320.2</ele>
        <time>2017-07-27T10:05:38Z</time>
      </trkpt>
      <trkpt lat="44.9834380" lon="6.9845630">
        <ele>2321.0</ele>
        <time>2017-07-27T10:05:40Z</time>
      </trkpt>
      <trkpt lat="44.9834610" lon="6.9845040">
        <ele>2322.0</ele>
        <time>2017-07-27T10:05:43Z</time>
      </trkpt>
      <trkpt lat="44.9834670" lon="6.9844840">
        <ele>2322.4</ele>
        <time>2017-07-27T10:05:44Z</time>
      </trkpt>
      <trkpt lat="44.9834950" lon="6.9844330">
        <ele>2323.4</ele>
        <time>2017-07-27T10:05:47Z</time>
      </trkpt>
      <trkpt lat="44.9835160" lon="6.9843930">
        <ele>2324.0</ele>
        <time>2017-07-27T10:05:49Z</time>
      </trkpt>
      <trkpt lat="44.9835370" lon="6.9843580">
        <ele>2324.6</ele>
        <time>2017-07-27T10:05:51Z</time>
      </trkpt>
      <trkpt lat="44.9835400" lon="6.9843320">
        <ele>2325.0</ele>
        <time>2017-07-27T10:05:52Z</time>
      </trkpt>
      <trkpt lat="44.9835560" lon="6.9842820">
        <ele>2325.6</ele>
        <time>2017-07-27T10:05:54Z</time>
      </trkpt>
      <trkpt lat="44.9835680" lon="6.9842360">
        <ele>2326.2</ele>
        <time>2017-07-27T10:05:56Z</time>
      </trkpt>
      <trkpt lat="44.9835760" lon="6.9842170">
        <ele>2326.4</ele>
        <time>2017-07-27T10:05:57Z</time>
      </trkpt>
      <trkpt lat="44.9835840" lon="6.9841970">
        <ele>2326.6</ele>
        <time>2017-07-27T10:05:58Z</time>
      </trkpt>
      <trkpt lat="44.9836320" lon="6.9841020">
        <ele>2327.8</ele>
        <time>2017-07-27T10:06:03Z</time>
      </trkpt>
      <trkpt lat="44.9836650" lon="6.9840300">
        <ele>2328.4</ele>
        <time>2017-07-27T10:06:07Z</time>
      </trkpt>
      <trkpt lat="44.9836780" lon="6.9839830">
        <ele>2328.8</ele>
        <time>2017-07-27T10:06:09Z</time>
      </trkpt>
      <trkpt lat="44.9837370" lon="6.9838740">
        <ele>2329.6</ele>
        <time>2017-07-27T10:06:15Z</time>
      </trkpt>
      <trkpt lat="44.9837460" lon="6.9838360">
        <ele>2330.0</ele>
        <time>2017-07-27T10:06:17Z</time>
      </trkpt>
      <trkpt lat="44.9837650" lon="6.9838030">
        <ele>2330.6</ele>
        <time>2017-07-27T10:06:20Z</time>
      </trkpt>
      <trkpt lat="44.9837710" lon="6.9837990">
        <ele>2330.6</ele>
        <time>2017-07-27T10:06:21Z</time>
      </trkpt>
      <trkpt lat="44.9837730" lon="6.9837880">
        <ele>2330.8</ele>
        <time>2017-07-27T10:06:22Z</time>
      </trkpt>
      <trkpt lat="44.9837890" lon="6.9837800">
        <ele>2331.0</ele>
        <time>2017-07-27T10:06:24Z</time>
      </trkpt>
      <trkpt lat="44.9837980" lon="6.9837500">
        <ele>2331.4</ele>
        <time>2017-07-27T10:06:27Z</time>
      </trkpt>
      <trkpt lat="44.9838020" lon="6.9837390">
        <ele>2331.4</ele>
        <time>2017-07-27T10:06:28Z</time>
      </trkpt>
      <trkpt lat="44.9838110" lon="6.9837140">
        <ele>2332.0</ele>
        <time>2017-07-27T10:06:31Z</time>
      </trkpt>
      <trkpt lat="44.9838340" lon="6.9836500">
        <ele>2333.0</ele>
        <time>2017-07-27T10:06:37Z</time>
      </trkpt>
      <trkpt lat="44.9838490" lon="6.9836360">
        <ele>2333.2</ele>
        <time>2017-07-27T10:06:39Z</time>
      </trkpt>
      <trkpt lat="44.9838570" lon="6.9836130">
        <ele>2334.2</ele>
        <time>2017-07-27T10:06:42Z</time>
      </trkpt>
      <trkpt lat="44.9838680" lon="6.9835980">
        <ele>2334.8</ele>
        <time>2017-07-27T10:06:44Z</time>
      </trkpt>
      <trkpt lat="44.9838840" lon="6.9835710">
        <ele>2335.4</ele>
        <time>2017-07-27T10:06:47Z</time>
      </trkpt>
      <trkpt lat="44.9838880" lon="6.9835590">
        <ele>2336.2</ele>
        <time>2017-07-27T10:06:48Z</time>
      </trkpt>
      <trkpt lat="44.9838850" lon="6.9835350">
        <ele>2336.6</ele>
        <time>2017-07-27T10:06:50Z</time>
      </trkpt>
      <trkpt lat="44.9838950" lon="6.9834720">
        <ele>2337.6</ele>
        <time>2017-07-27T10:06:55Z</time>
      </trkpt>
      <trkpt lat="44.9839010" lon="6.9834560">
        <ele>2337.8</ele>
        <time>2017-07-27T10:06:57Z</time>
      </trkpt>
      <trkpt lat="44.9839170" lon="6.9834060">
        <ele>2338.8</ele>
        <time>2017-07-27T10:07:02Z</time>
      </trkpt>
      <trkpt lat="44.9839240" lon="6.9833850">
        <ele>2339.2</ele>
        <time>2017-07-27T10:07:04Z</time>
      </trkpt>
      <trkpt lat="44.9839370" lon="6.9833780">
        <ele>2339.8</ele>
        <time>2017-07-27T10:07:06Z</time>
      </trkpt>
      <trkpt lat="44.9839470" lon="6.9833580">
        <ele>2340.2</ele>
        <time>2017-07-27T10:07:08Z</time>
      </trkpt>
      <trkpt lat="44.9839540" lon="6.9833360">
        <ele>2340.8</ele>
        <time>2017-07-27T10:07:10Z</time>
      </trkpt>
      <trkpt lat="44.9839640" lon="6.9833020">
        <ele>2342.0</ele>
        <time>2017-07-27T10:07:13Z</time>
      </trkpt>
      <trkpt lat="44.9839780" lon="6.9832540">
        <ele>2343.0</ele>
        <time>2017-07-27T10:07:18Z</time>
      </trkpt>
      <trkpt lat="44.9839940" lon="6.9832020">
        <ele>2344.0</ele>
        <time>2017-07-27T10:07:23Z</time>
      </trkpt>
      <trkpt lat="44.9840040" lon="6.9831920">
        <ele>2344.6</ele>
        <time>2017-07-27T10:07:25Z</time>
      </trkpt>
      <trkpt lat="44.9840120" lon="6.9831720">
        <ele>2345.2</ele>
        <time>2017-07-27T10:07:27Z</time>
      </trkpt>
      <trkpt lat="44.9840230" lon="6.9831290">
        <ele>2346.4</ele>
        <time>2017-07-27T10:07:31Z</time>
      </trkpt>
      <trkpt lat="44.9840290" lon="6.9831190">
        <ele>2346.6</ele>
        <time>2017-07-27T10:07:32Z</time>
      </trkpt>
      <trkpt lat="44.9840390" lon="6.9830870">
        <ele>2347.4</ele>
        <time>2017-07-27T10:07:35Z</time>
      </trkpt>
      <trkpt lat="44.9840430" lon="6.9830690">
        <ele>2348.2</ele>
        <time>2017-07-27T10:07:37Z</time>
      </trkpt>
      <trkpt lat="44.9840550" lon="6.9830430">
        <ele>2348.6</ele>
        <time>2017-07-27T10:07:39Z</time>
      </trkpt>
      <trkpt lat="44.9840780" lon="6.9829920">
        <ele>2349.6</ele>
        <time>2017-07-27T10:07:45Z</time>
      </trkpt>
      <trkpt lat="44.9841010" lon="6.9829100">
        <ele>2350.6</ele>
        <time>2017-07-27T10:07:52Z</time>
      </trkpt>
      <trkpt lat="44.9841100" lon="6.9828970">
        <ele>2350.8</ele>
        <time>2017-07-27T10:07:54Z</time>
      </trkpt>
      <trkpt lat="44.9841190" lon="6.9828710">
        <ele>2351.2</ele>
        <time>2017-07-27T10:07:57Z</time>
      </trkpt>
      <trkpt lat="44.9841210" lon="6.9828620">
        <ele>2351.6</ele>
        <time>2017-07-27T10:07:58Z</time>
      </trkpt>
      <trkpt lat="44.9841250" lon="6.9828490">
        <ele>2351.8</ele>
        <time>2017-07-27T10:07:59Z</time>
      </trkpt>
      <trkpt lat="44.9841320" lon="6.9828140">
        <ele>2352.8</ele>
        <time>2017-07-27T10:08:02Z</time>
      </trkpt>
      <trkpt lat="44.9841440" lon="6.9827830">
        <ele>2353.6</ele>
        <time>2017-07-27T10:08:05Z</time>
      </trkpt>
      <trkpt lat="44.9841510" lon="6.9827790">
        <ele>2354.0</ele>
        <time>2017-07-27T10:08:06Z</time>
      </trkpt>
      <trkpt lat="44.9841660" lon="6.9827230">
        <ele>2354.6</ele>
        <time>2017-07-27T10:08:12Z</time>
      </trkpt>
      <trkpt lat="44.9841680" lon="6.9827080">
        <ele>2355.0</ele>
        <time>2017-07-27T10:08:14Z</time>
      </trkpt>
      <trkpt lat="44.9841810" lon="6.9826530">
        <ele>2355.8</ele>
        <time>2017-07-27T10:08:19Z</time>
      </trkpt>
      <trkpt lat="44.9841910" lon="6.9826320">
        <ele>2356.2</ele>
        <time>2017-07-27T10:08:21Z</time>
      </trkpt>
      <trkpt lat="44.9842090" lon="6.9825950">
        <ele>2358.0</ele>
        <time>2017-07-27T10:08:24Z</time>
      </trkpt>
      <trkpt lat="44.9842160" lon="6.9825790">
        <ele>2358.4</ele>
        <time>2017-07-27T10:08:26Z</time>
      </trkpt>
      <trkpt lat="44.9842200" lon="6.9825680">
        <ele>2359.0</ele>
        <time>2017-07-27T10:08:28Z</time>
      </trkpt>
      <trkpt lat="44.9842310" lon="6.9825490">
        <ele>2359.6</ele>
        <time>2017-07-27T10:08:30Z</time>
      </trkpt>
      <trkpt lat="44.9842480" lon="6.9825050">
        <ele>2360.2</ele>
        <time>2017-07-27T10:08:33Z</time>
      </trkpt>
      <trkpt lat="44.9842870" lon="6.9824460">
        <ele>2360.8</ele>
        <time>2017-07-27T10:08:40Z</time>
      </trkpt>
      <trkpt lat="44.9843050" lon="6.9824100">
        <ele>2361.2</ele>
        <time>2017-07-27T10:08:44Z</time>
      </trkpt>
      <trkpt lat="44.9843220" lon="6.9823830">
        <ele>2361.6</ele>
        <time>2017-07-27T10:08:47Z</time>
      </trkpt>
      <trkpt lat="44.9843260" lon="6.9823770">
        <ele>2361.6</ele>
        <time>2017-07-27T10:08:48Z</time>
      </trkpt>
      <trkpt lat="44.9843430" lon="6.9823450">
        <ele>2362.2</ele>
        <time>2017-07-27T10:08:52Z</time>
      </trkpt>
      <trkpt lat="44.9843650" lon="6.9823230">
        <ele>2362.4</ele>
        <time>2017-07-27T10:08:55Z</time>
      </trkpt>
      <trkpt lat="44.9844090" lon="6.9822800">
        <ele>2363.2</ele>
        <time>2017-07-27T10:09:02Z</time>
      </trkpt>
      <trkpt lat="44.9844360" lon="6.9822410">
        <ele>2363.8</ele>
        <time>2017-07-27T10:09:06Z</time>
      </trkpt>
      <trkpt lat="44.9844560" lon="6.9822290">
        <ele>2364.2</ele>
        <time>2017-07-27T10:09:08Z</time>
      </trkpt>
      <trkpt lat="44.9844640" lon="6.9822240">
        <ele>2364.2</ele>
        <time>2017-07-27T10:09:09Z</time>
      </trkpt>
      <trkpt lat="44.9844950" lon="6.9822150">
        <ele>2364.8</ele>
        <time>2017-07-27T10:09:15Z</time>
      </trkpt>
      <trkpt lat="44.9845420" lon="6.9821830">
        <ele>2364.8</ele>
        <time>2017-07-27T10:09:20Z</time>
      </trkpt>
      <trkpt lat="44.9846480" lon="6.9820980">
        <ele>2365.2</ele>
        <time>2017-07-27T10:09:28Z</time>
      </trkpt>
      <trkpt lat="44.9847010" lon="6.9820460">
        <ele>2365.4</ele>
        <time>2017-07-27T10:09:32Z</time>
      </trkpt>
      <trkpt lat="44.9847570" lon="6.9819730">
        <ele>2366.0</ele>
        <time>2017-07-27T10:09:37Z</time>
      </trkpt>
      <trkpt lat="44.9847790" lon="6.9819500">
        <ele>2366.4</ele>
        <time>2017-07-27T10:09:39Z</time>
      </trkpt>
      <trkpt lat="44.9848260" lon="6.9819070">
        <ele>2367.0</ele>
        <time>2017-07-27T10:09:43Z</time>
      </trkpt>
      <trkpt lat="44.9848660" lon="6.9818790">
        <ele>2367.6</ele>
        <time>2017-07-27T10:09:46Z</time>
      </trkpt>
      <trkpt lat="44.9849050" lon="6.9818580">
        <ele>2368.6</ele>
        <time>2017-07-27T10:09:50Z</time>
      </trkpt>
      <trkpt lat="44.9849170" lon="6.9818520">
        <ele>2368.8</ele>
        <time>2017-07-27T10:09:51Z</time>
      </trkpt>
      <trkpt lat="44.9849920" lon="6.9818080">
        <ele>2369.8</ele>
        <time>2017-07-27T10:09:56Z</time>
      </trkpt>
      <trkpt lat="44.9850190" lon="6.9817980">
        <ele>2370.2</ele>
        <time>2017-07-27T10:09:58Z</time>
      </trkpt>
      <trkpt lat="44.9850910" lon="6.9817670">
        <ele>2370.8</ele>
        <time>2017-07-27T10:10:02Z</time>
      </trkpt>
      <trkpt lat="44.9851730" lon="6.9817400">
        <ele>2371.2</ele>
        <time>2017-07-27T10:10:06Z</time>
      </trkpt>
      <trkpt lat="44.9852340" lon="6.9817450">
        <ele>2371.8</ele>
        <time>2017-07-27T10:10:09Z</time>
      </trkpt>
      <trkpt lat="44.9853150" lon="6.9818160">
        <ele>2371.8</ele>
        <time>2017-07-27T10:10:14Z</time>
      </trkpt>
      <trkpt lat="44.9854180" lon="6.9818510">
        <ele>2371.8</ele>
        <time>2017-07-27T10:10:20Z</time>
      </trkpt>
      <trkpt lat="44.9854360" lon="6.9818170">
        <ele>2371.8</ele>
        <time>2017-07-27T10:10:24Z</time>
      </trkpt>
      <trkpt lat="44.9854260" lon="6.9817080">
        <ele>2371.6</ele>
        <time>2017-07-27T10:10:28Z</time>
      </trkpt>
      <trkpt lat="44.9854300" lon="6.9816420">
        <ele>2371.8</ele>
        <time>2017-07-27T10:10:30Z</time>
      </trkpt>
      <trkpt lat="44.9854520" lon="6.9815720">
        <ele>2372.0</ele>
        <time>2017-07-27T10:10:33Z</time>
      </trkpt>
      <trkpt lat="44.9854550" lon="6.9815210">
        <ele>2372.4</ele>
        <time>2017-07-27T10:10:35Z</time>
      </trkpt>
      <trkpt lat="44.9854640" lon="6.9814270">
        <ele>2373.2</ele>
        <time>2017-07-27T10:10:39Z</time>
      </trkpt>
      <trkpt lat="44.9854800" lon="6.9814120">
        <ele>2373.4</ele>
        <time>2017-07-27T10:10:40Z</time>
      </trkpt>
      <trkpt lat="44.9855110" lon="6.9813520">
        <ele>2374.0</ele>
        <time>2017-07-27T10:10:44Z</time>
      </trkpt>
      <trkpt lat="44.9855240" lon="6.9813360">
        <ele>2374.2</ele>
        <time>2017-07-27T10:10:45Z</time>
      </trkpt>
      <trkpt lat="44.9855450" lon="6.9813020">
        <ele>2374.6</ele>
        <time>2017-07-27T10:10:47Z</time>
      </trkpt>
      <trkpt lat="44.9855900" lon="6.9812120">
        <ele>2375.4</ele>
        <time>2017-07-27T10:10:51Z</time>
      </trkpt>
      <trkpt lat="44.9856020" lon="6.9811860">
        <ele>2375.8</ele>
        <time>2017-07-27T10:10:52Z</time>
      </trkpt>
      <trkpt lat="44.9856430" lon="6.9811360">
        <ele>2376.2</ele>
        <time>2017-07-27T10:10:56Z</time>
      </trkpt>
      <trkpt lat="44.9857040" lon="6.9810190">
        <ele>2376.8</ele>
        <time>2017-07-27T10:11:02Z</time>
      </trkpt>
      <trkpt lat="44.9857360" lon="6.9809840">
        <ele>2378.0</ele>
        <time>2017-07-27T10:11:07Z</time>
      </trkpt>
      <trkpt lat="44.9857940" lon="6.9808990">
        <ele>2379.0</ele>
        <time>2017-07-27T10:11:11Z</time>
      </trkpt>
      <trkpt lat="44.9858130" lon="6.9808460">
        <ele>2379.4</ele>
        <time>2017-07-27T10:11:13Z</time>
      </trkpt>
      <trkpt lat="44.9858910" lon="6.9807180">
        <ele>2379.8</ele>
        <time>2017-07-27T10:11:18Z</time>
      </trkpt>
      <trkpt lat="44.9859470" lon="6.9806500">
        <ele>2379.8</ele>
        <time>2017-07-27T10:11:22Z</time>
      </trkpt>
      <trkpt lat="44.9859630" lon="6.9806480">
        <ele>2379.8</ele>
        <time>2017-07-27T10:11:23Z</time>
      </trkpt>
      <trkpt lat="44.9859880" lon="6.9806390">
        <ele>2380.0</ele>
        <time>2017-07-27T10:11:25Z</time>
      </trkpt>
      <trkpt lat="44.9860310" lon="6.9805940">
        <ele>2380.6</ele>
        <time>2017-07-27T10:11:29Z</time>
      </trkpt>
      <trkpt lat="44.9860520" lon="6.9805450">
        <ele>2381.2</ele>
        <time>2017-07-27T10:11:32Z</time>
      </trkpt>
      <trkpt lat="44.9860840" lon="6.9804820">
        <ele>2381.8</ele>
        <time>2017-07-27T10:11:35Z</time>
      </trkpt>
      <trkpt lat="44.9861220" lon="6.9804250">
        <ele>2382.4</ele>
        <time>2017-07-27T10:11:39Z</time>
      </trkpt>
      <trkpt lat="44.9861490" lon="6.9803940">
        <ele>2382.8</ele>
        <time>2017-07-27T10:11:41Z</time>
      </trkpt>
      <trkpt lat="44.9862180" lon="6.9803430">
        <ele>2383.4</ele>
        <time>2017-07-27T10:11:45Z</time>
      </trkpt>
      <trkpt lat="44.9862360" lon="6.9803250">
        <ele>2383.6</ele>
        <time>2017-07-27T10:11:46Z</time>
      </trkpt>
      <trkpt lat="44.9863450" lon="6.9802400">
        <ele>2384.6</ele>
        <time>2017-07-27T10:11:50Z</time>
      </trkpt>
      <trkpt lat="44.9863760" lon="6.9802060">
        <ele>2385.0</ele>
        <time>2017-07-27T10:11:52Z</time>
      </trkpt>
      <trkpt lat="44.9864030" lon="6.9801690">
        <ele>2385.2</ele>
        <time>2017-07-27T10:11:54Z</time>
      </trkpt>
      <trkpt lat="44.9864520" lon="6.9801380">
        <ele>2385.6</ele>
        <time>2017-07-27T10:11:56Z</time>
      </trkpt>
      <trkpt lat="44.9865220" lon="6.9801390">
        <ele>2385.6</ele>
        <time>2017-07-27T10:11:59Z</time>
      </trkpt>
      <trkpt lat="44.9865220" lon="6.9801360">
        <ele>2383.8</ele>
        <time>2017-07-27T10:12:02Z</time>
      </trkpt>
      <trkpt lat="44.9865220" lon="6.9801360">
        <ele>2382.2</ele>
        <time>2017-07-27T10:12:03Z</time>
      </trkpt>
      <trkpt lat="44.9865220" lon="6.9801360">
        <ele>2383.4</ele>
        <time>2017-07-27T10:12:06Z</time>
      </trkpt>
      <trkpt lat="44.9865500" lon="6.9801310">
        <ele>2383.6</ele>
        <time>2017-07-27T10:12:10Z</time>
      </trkpt>
      <trkpt lat="44.9865670" lon="6.9801140">
        <ele>2383.6</ele>
        <time>2017-07-27T10:12:13Z</time>
      </trkpt>
      <trkpt lat="44.9865810" lon="6.9801170">
        <ele>2383.8</ele>
        <time>2017-07-27T10:12:15Z</time>
      </trkpt>
      <trkpt lat="44.9865960" lon="6.9801020">
        <ele>2384.0</ele>
        <time>2017-07-27T10:12:17Z</time>
      </trkpt>
      <trkpt lat="44.9866050" lon="6.9800570">
        <ele>2384.0</ele>
        <time>2017-07-27T10:12:21Z</time>
      </trkpt>
      <trkpt lat="44.9866190" lon="6.9800260">
        <ele>2384.6</ele>
        <time>2017-07-27T10:12:25Z</time>
      </trkpt>
      <trkpt lat="44.9866270" lon="6.9800100">
        <ele>2384.8</ele>
        <time>2017-07-27T10:12:27Z</time>
      </trkpt>
      <trkpt lat="44.9866420" lon="6.9799910">
        <ele>2385.6</ele>
        <time>2017-07-27T10:12:30Z</time>
      </trkpt>
      <trkpt lat="44.9866640" lon="6.9799860">
        <ele>2386.6</ele>
        <time>2017-07-27T10:12:33Z</time>
      </trkpt>
      <trkpt lat="44.9866710" lon="6.9799810">
        <ele>2386.8</ele>
        <time>2017-07-27T10:12:34Z</time>
      </trkpt>
      <trkpt lat="44.9867170" lon="6.9799580">
        <ele>2387.8</ele>
        <time>2017-07-27T10:12:39Z</time>
      </trkpt>
      <trkpt lat="44.9867340" lon="6.9799080">
        <ele>2388.6</ele>
        <time>2017-07-27T10:12:44Z</time>
      </trkpt>
      <trkpt lat="44.9867310" lon="6.9798970">
        <ele>2389.0</ele>
        <time>2017-07-27T10:12:45Z</time>
      </trkpt>
      <trkpt lat="44.9867190" lon="6.9798840">
        <ele>2389.4</ele>
        <time>2017-07-27T10:12:47Z</time>
      </trkpt>
      <trkpt lat="44.9867130" lon="6.9798620">
        <ele>2390.0</ele>
        <time>2017-07-27T10:12:49Z</time>
      </trkpt>
      <trkpt lat="44.9867130" lon="6.9798200">
        <ele>2390.6</ele>
        <time>2017-07-27T10:12:54Z</time>
      </trkpt>
      <trkpt lat="44.9867080" lon="6.9797950">
        <ele>2391.0</ele>
        <time>2017-07-27T10:12:56Z</time>
      </trkpt>
      <trkpt lat="44.9867080" lon="6.9797870">
        <ele>2391.4</ele>
        <time>2017-07-27T10:12:59Z</time>
      </trkpt>
      <trkpt lat="44.9866960" lon="6.9797470">
        <ele>2391.8</ele>
        <time>2017-07-27T10:13:04Z</time>
      </trkpt>
      <trkpt lat="44.9866740" lon="6.9797210">
        <ele>2392.0</ele>
        <time>2017-07-27T10:13:08Z</time>
      </trkpt>
      <trkpt lat="44.9866690" lon="6.9797100">
        <ele>2392.2</ele>
        <time>2017-07-27T10:13:09Z</time>
      </trkpt>
      <trkpt lat="44.9866660" lon="6.9796820">
        <ele>2393.4</ele>
        <time>2017-07-27T10:13:14Z</time>
      </trkpt>
      <trkpt lat="44.9866710" lon="6.9796660">
        <ele>2393.6</ele>
        <time>2017-07-27T10:13:16Z</time>
      </trkpt>
      <trkpt lat="44.9866990" lon="6.9796320">
        <ele>2393.2</ele>
        <time>2017-07-27T10:13:20Z</time>
      </trkpt>
      <trkpt lat="44.9867220" lon="6.9796010">
        <ele>2392.8</ele>
        <time>2017-07-27T10:13:26Z</time>
      </trkpt>
      <trkpt lat="44.9867560" lon="6.9795580">
        <ele>2393.8</ele>
        <time>2017-07-27T10:13:31Z</time>
      </trkpt>
      <trkpt lat="44.9867970" lon="6.9795040">
        <ele>2394.6</ele>
        <time>2017-07-27T10:13:34Z</time>
      </trkpt>
      <trkpt lat="44.9868420" lon="6.9794450">
        <ele>2395.8</ele>
        <time>2017-07-27T10:13:37Z</time>
      </trkpt>
      <trkpt lat="44.9868540" lon="6.9794260">
        <ele>2396.2</ele>
        <time>2017-07-27T10:13:38Z</time>
      </trkpt>
      <trkpt lat="44.9868830" lon="6.9793890">
        <ele>2396.8</ele>
        <time>2017-07-27T10:13:40Z</time>
      </trkpt>
      <trkpt lat="44.9869500" lon="6.9793190">
        <ele>2397.8</ele>
        <time>2017-07-27T10:13:45Z</time>
      </trkpt>
      <trkpt lat="44.9870170" lon="6.9792450">
        <ele>2398.8</ele>
        <time>2017-07-27T10:13:49Z</time>
      </trkpt>
      <trkpt lat="44.9870410" lon="6.9792030">
        <ele>2399.2</ele>
        <time>2017-07-27T10:13:51Z</time>
      </trkpt>
      <trkpt lat="44.9870880" lon="6.9790910">
        <ele>2399.6</ele>
        <time>2017-07-27T10:13:56Z</time>
      </trkpt>
      <trkpt lat="44.9871350" lon="6.9789670">
        <ele>2400.0</ele>
        <time>2017-07-27T10:14:01Z</time>
      </trkpt>
      <trkpt lat="44.9871530" lon="6.9789300">
        <ele>2400.4</ele>
        <time>2017-07-27T10:14:03Z</time>
      </trkpt>
      <trkpt lat="44.9871790" lon="6.9788940">
        <ele>2401.0</ele>
        <time>2017-07-27T10:14:06Z</time>
      </trkpt>
      <trkpt lat="44.9872350" lon="6.9788330">
        <ele>2401.8</ele>
        <time>2017-07-27T10:14:09Z</time>
      </trkpt>
      <trkpt lat="44.9873140" lon="6.9788310">
        <ele>2402.2</ele>
        <time>2017-07-27T10:14:14Z</time>
      </trkpt>
      <trkpt lat="44.9873400" lon="6.9788270">
        <ele>2402.6</ele>
        <time>2017-07-27T10:14:16Z</time>
      </trkpt>
      <trkpt lat="44.9873900" lon="6.9788300">
        <ele>2403.2</ele>
        <time>2017-07-27T10:14:19Z</time>
      </trkpt>
      <trkpt lat="44.9874290" lon="6.9788570">
        <ele>2403.6</ele>
        <time>2017-07-27T10:14:21Z</time>
      </trkpt>
      <trkpt lat="44.9874890" lon="6.9789410">
        <ele>2403.4</ele>
        <time>2017-07-27T10:14:26Z</time>
      </trkpt>
      <trkpt lat="44.9875400" lon="6.9790210">
        <ele>2404.0</ele>
        <time>2017-07-27T10:14:32Z</time>
      </trkpt>
      <trkpt lat="44.9875630" lon="6.9790690">
        <ele>2404.0</ele>
        <time>2017-07-27T10:14:35Z</time>
      </trkpt>
      <trkpt lat="44.9875780" lon="6.9791290">
        <ele>2404.2</ele>
        <time>2017-07-27T10:14:38Z</time>
      </trkpt>
      <trkpt lat="44.9875750" lon="6.9791550">
        <ele>2404.4</ele>
        <time>2017-07-27T10:14:39Z</time>
      </trkpt>
      <trkpt lat="44.9875660" lon="6.9792040">
        <ele>2404.6</ele>
        <time>2017-07-27T10:14:41Z</time>
      </trkpt>
      <trkpt lat="44.9875630" lon="6.9792300">
        <ele>2404.6</ele>
        <time>2017-07-27T10:14:42Z</time>
      </trkpt>
      <trkpt lat="44.9875870" lon="6.9794460">
        <ele>2404.8</ele>
        <time>2017-07-27T10:14:49Z</time>
      </trkpt>
      <trkpt lat="44.9875670" lon="6.9796010">
        <ele>2404.4</ele>
        <time>2017-07-27T10:14:54Z</time>
      </trkpt>
      <trkpt lat="44.9875930" lon="6.9797460">
        <ele>2404.6</ele>
        <time>2017-07-27T10:15:00Z</time>
      </trkpt>
      <trkpt lat="44.9876160" lon="6.9798920">
        <ele>2405.2</ele>
        <time>2017-07-27T10:15:05Z</time>
      </trkpt>
      <trkpt lat="44.9876280" lon="6.9799210">
        <ele>2405.4</ele>
        <time>2017-07-27T10:15:07Z</time>
      </trkpt>
      <trkpt lat="44.9876300" lon="6.9799470">
        <ele>2406.0</ele>
        <time>2017-07-27T10:15:10Z</time>
      </trkpt>
      <trkpt lat="44.9876180" lon="6.9799780">
        <ele>2406.4</ele>
        <time>2017-07-27T10:15:13Z</time>
      </trkpt>
      <trkpt lat="44.9875980" lon="6.9800000">
        <ele>2406.8</ele>
        <time>2017-07-27T10:15:16Z</time>
      </trkpt>
      <trkpt lat="44.9875990" lon="6.9800150">
        <ele>2406.8</ele>
        <time>2017-07-27T10:15:17Z</time>
      </trkpt>
      <trkpt lat="44.9875930" lon="6.9800490">
        <ele>2407.2</ele>
        <time>2017-07-27T10:15:20Z</time>
      </trkpt>
      <trkpt lat="44.9875880" lon="6.9800810">
        <ele>2407.4</ele>
        <time>2017-07-27T10:15:22Z</time>
      </trkpt>
      <trkpt lat="44.9875770" lon="6.9801430">
        <ele>2407.6</ele>
        <time>2017-07-27T10:15:27Z</time>
      </trkpt>
      <trkpt lat="44.9875750" lon="6.9801930">
        <ele>2408.2</ele>
        <time>2017-07-27T10:15:30Z</time>
      </trkpt>
      <trkpt lat="44.9875730" lon="6.9802100">
        <ele>2408.2</ele>
        <time>2017-07-27T10:15:31Z</time>
      </trkpt>
      <trkpt lat="44.9875690" lon="6.9802820">
        <ele>2408.6</ele>
        <time>2017-07-27T10:15:35Z</time>
      </trkpt>
      <trkpt lat="44.9875630" lon="6.9803390">
        <ele>2409.6</ele>
        <time>2017-07-27T10:15:39Z</time>
      </trkpt>
      <trkpt lat="44.9875650" lon="6.9803540">
        <ele>2409.8</ele>
        <time>2017-07-27T10:15:40Z</time>
      </trkpt>
      <trkpt lat="44.9875590" lon="6.9803640">
        <ele>2410.0</ele>
        <time>2017-07-27T10:15:41Z</time>
      </trkpt>
      <trkpt lat="44.9875510" lon="6.9804110">
        <ele>2410.6</ele>
        <time>2017-07-27T10:15:44Z</time>
      </trkpt>
      <trkpt lat="44.9875450" lon="6.9804430">
        <ele>2410.8</ele>
        <time>2017-07-27T10:15:45Z</time>
      </trkpt>
      <trkpt lat="44.9875340" lon="6.9806150">
        <ele>2411.4</ele>
        <time>2017-07-27T10:15:50Z</time>
      </trkpt>
      <trkpt lat="44.9875220" lon="6.9806270">
        <ele>2411.6</ele>
        <time>2017-07-27T10:15:51Z</time>
      </trkpt>
      <trkpt lat="44.9875240" lon="6.9806480">
        <ele>2411.8</ele>
        <time>2017-07-27T10:15:52Z</time>
      </trkpt>
      <trkpt lat="44.9875210" lon="6.9807020">
        <ele>2412.4</ele>
        <time>2017-07-27T10:15:54Z</time>
      </trkpt>
      <trkpt lat="44.9875260" lon="6.9807270">
        <ele>2412.8</ele>
        <time>2017-07-27T10:15:55Z</time>
      </trkpt>
      <trkpt lat="44.9875300" lon="6.9807560">
        <ele>2413.2</ele>
        <time>2017-07-27T10:15:56Z</time>
      </trkpt>
      <trkpt lat="44.9875240" lon="6.9808550">
        <ele>2413.8</ele>
        <time>2017-07-27T10:15:59Z</time>
      </trkpt>
      <trkpt lat="44.9875250" lon="6.9808860">
        <ele>2414.2</ele>
        <time>2017-07-27T10:16:00Z</time>
      </trkpt>
      <trkpt lat="44.9875250" lon="6.9809890">
        <ele>2415.0</ele>
        <time>2017-07-27T10:16:03Z</time>
      </trkpt>
      <trkpt lat="44.9875420" lon="6.9810930">
        <ele>2416.2</ele>
        <time>2017-07-27T10:16:06Z</time>
      </trkpt>
      <trkpt lat="44.9875410" lon="6.9811260">
        <ele>2416.6</ele>
        <time>2017-07-27T10:16:07Z</time>
      </trkpt>
      <trkpt lat="44.9875550" lon="6.9811630">
        <ele>2417.2</ele>
        <time>2017-07-27T10:16:09Z</time>
      </trkpt>
      <trkpt lat="44.9875610" lon="6.9811730">
        <ele>2418.4</ele>
        <time>2017-07-27T10:16:11Z</time>
      </trkpt>
      <trkpt lat="44.9875860" lon="6.9811920">
        <ele>2419.6</ele>
        <time>2017-07-27T10:16:14Z</time>
      </trkpt>
      <trkpt lat="44.9876140" lon="6.9812140">
        <ele>2421.0</ele>
        <time>2017-07-27T10:16:18Z</time>
      </trkpt>
      <trkpt lat="44.9876210" lon="6.9812190">
        <ele>2421.2</ele>
        <time>2017-07-27T10:16:19Z</time>
      </trkpt>
      <trkpt lat="44.9876410" lon="6.9812350">
        <ele>2422.4</ele>
        <time>2017-07-27T10:16:22Z</time>
      </trkpt>
      <trkpt lat="44.9876560" lon="6.9812600">
        <ele>2423.8</ele>
        <time>2017-07-27T10:16:25Z</time>
      </trkpt>
      <trkpt lat="44.9876630" lon="6.9812780">
        <ele>2424.4</ele>
        <time>2017-07-27T10:16:27Z</time>
      </trkpt>
      <trkpt lat="44.9876730" lon="6.9812840">
        <ele>2424.8</ele>
        <time>2017-07-27T10:16:28Z</time>
      </trkpt>
      <trkpt lat="44.9876990" lon="6.9813030">
        <ele>2426.0</ele>
        <time>2017-07-27T10:16:32Z</time>
      </trkpt>
      <trkpt lat="44.9877040" lon="6.9813080">
        <ele>2426.4</ele>
        <time>2017-07-27T10:16:33Z</time>
      </trkpt>
      <trkpt lat="44.9876960" lon="6.9813340">
        <ele>2427.4</ele>
        <time>2017-07-27T10:16:37Z</time>
      </trkpt>
      <trkpt lat="44.9876940" lon="6.9813470">
        <ele>2427.6</ele>
        <time>2017-07-27T10:16:38Z</time>
      </trkpt>
      <trkpt lat="44.9876630" lon="6.9813780">
        <ele>2428.4</ele>
        <time>2017-07-27T10:16:41Z</time>
      </trkpt>
      <trkpt lat="44.9876490" lon="6.9814160">
        <ele>2429.0</ele>
        <time>2017-07-27T10:16:45Z</time>
      </trkpt>
      <trkpt lat="44.9876010" lon="6.9815030">
        <ele>2429.0</ele>
        <time>2017-07-27T10:16:53Z</time>
      </trkpt>
      <trkpt lat="44.9875720" lon="6.9815480">
        <ele>2429.2</ele>
        <time>2017-07-27T10:16:59Z</time>
      </trkpt>
      <trkpt lat="44.9875170" lon="6.9815890">
        <ele>2429.4</ele>
        <time>2017-07-27T10:17:05Z</time>
      </trkpt>
      <trkpt lat="44.9875120" lon="6.9816020">
        <ele>2429.4</ele>
        <time>2017-07-27T10:17:06Z</time>
      </trkpt>
      <trkpt lat="44.9874560" lon="6.9816660">
        <ele>2430.8</ele>
        <time>2017-07-27T10:17:13Z</time>
      </trkpt>
      <trkpt lat="44.9874210" lon="6.9816990">
        <ele>2432.0</ele>
        <time>2017-07-27T10:17:18Z</time>
      </trkpt>
      <trkpt lat="44.9874170" lon="6.9817220">
        <ele>2432.4</ele>
        <time>2017-07-27T10:17:20Z</time>
      </trkpt>
      <trkpt lat="44.9874120" lon="6.9817360">
        <ele>2432.6</ele>
        <time>2017-07-27T10:17:21Z</time>
      </trkpt>
      <trkpt lat="44.9874130" lon="6.9817410">
        <ele>2433.0</ele>
        <time>2017-07-27T10:17:22Z</time>
      </trkpt>
      <trkpt lat="44.9874140" lon="6.9817550">
        <ele>2433.2</ele>
        <time>2017-07-27T10:17:23Z</time>
      </trkpt>
      <trkpt lat="44.9874140" lon="6.9817910">
        <ele>2434.0</ele>
        <time>2017-07-27T10:17:27Z</time>
      </trkpt>
      <trkpt lat="44.9874030" lon="6.9818440">
        <ele>2435.2</ele>
        <time>2017-07-27T10:17:32Z</time>
      </trkpt>
      <trkpt lat="44.9873920" lon="6.9818670">
        <ele>2435.6</ele>
        <time>2017-07-27T10:17:34Z</time>
      </trkpt>
      <trkpt lat="44.9873780" lon="6.9819010">
        <ele>2436.2</ele>
        <time>2017-07-27T10:17:37Z</time>
      </trkpt>
      <trkpt lat="44.9873700" lon="6.9819450">
        <ele>2436.8</ele>
        <time>2017-07-27T10:17:40Z</time>
      </trkpt>
      <trkpt lat="44.9873590" lon="6.9819690">
        <ele>2437.4</ele>
        <time>2017-07-27T10:17:42Z</time>
      </trkpt>
      <trkpt lat="44.9873410" lon="6.9820260">
        <ele>2438.6</ele>
        <time>2017-07-27T10:17:47Z</time>
      </trkpt>
      <trkpt lat="44.9873350" lon="6.9820350">
        <ele>2438.8</ele>
        <time>2017-07-27T10:17:48Z</time>
      </trkpt>
      <trkpt lat="44.9873190" lon="6.9820650">
        <ele>2439.8</ele>
        <time>2017-07-27T10:17:51Z</time>
      </trkpt>
      <trkpt lat="44.9872990" lon="6.9820920">
        <ele>2440.4</ele>
        <time>2017-07-27T10:17:54Z</time>
      </trkpt>
      <trkpt lat="44.9872890" lon="6.9820970">
        <ele>2440.8</ele>
        <time>2017-07-27T10:17:55Z</time>
      </trkpt>
      <trkpt lat="44.9872630" lon="6.9821530">
        <ele>2441.8</ele>
        <time>2017-07-27T10:18:00Z</time>
      </trkpt>
      <trkpt lat="44.9872570" lon="6.9821590">
        <ele>2442.4</ele>
        <time>2017-07-27T10:18:01Z</time>
      </trkpt>
      <trkpt lat="44.9872570" lon="6.9821700">
        <ele>2443.0</ele>
        <time>2017-07-27T10:18:05Z</time>
      </trkpt>
      <trkpt lat="44.9872530" lon="6.9821720">
        <ele>2443.0</ele>
        <time>2017-07-27T10:18:06Z</time>
      </trkpt>
      <trkpt lat="44.9872390" lon="6.9822090">
        <ele>2443.2</ele>
        <time>2017-07-27T10:18:09Z</time>
      </trkpt>
      <trkpt lat="44.9872290" lon="6.9822640">
        <ele>2443.4</ele>
        <time>2017-07-27T10:18:11Z</time>
      </trkpt>
      <trkpt lat="44.9871830" lon="6.9824660">
        <ele>2443.8</ele>
        <time>2017-07-27T10:18:17Z</time>
      </trkpt>
      <trkpt lat="44.9871720" lon="6.9824960">
        <ele>2444.0</ele>
        <time>2017-07-27T10:18:18Z</time>
      </trkpt>
      <trkpt lat="44.9871230" lon="6.9827500">
        <ele>2444.2</ele>
        <time>2017-07-27T10:18:24Z</time>
      </trkpt>
      <trkpt lat="44.9871600" lon="6.9829760">
        <ele>2444.0</ele>
        <time>2017-07-27T10:18:29Z</time>
      </trkpt>
      <trkpt lat="44.9871660" lon="6.9830200">
        <ele>2444.0</ele>
        <time>2017-07-27T10:18:30Z</time>
      </trkpt>
      <trkpt lat="44.9871500" lon="6.9830790">
        <ele>2444.0</ele>
        <time>2017-07-27T10:18:32Z</time>
      </trkpt>
      <trkpt lat="44.9871420" lon="6.9831330">
        <ele>2443.8</ele>
        <time>2017-07-27T10:18:34Z</time>
      </trkpt>
      <trkpt lat="44.9871440" lon="6.9831920">
        <ele>2444.4</ele>
        <time>2017-07-27T10:18:38Z</time>
      </trkpt>
      <trkpt lat="44.9871670" lon="6.9832590">
        <ele>2445.0</ele>
        <time>2017-07-27T10:18:41Z</time>
      </trkpt>
      <trkpt lat="44.9871970" lon="6.9833240">
        <ele>2445.2</ele>
        <time>2017-07-27T10:18:44Z</time>
      </trkpt>
      <trkpt lat="44.9871920" lon="6.9834500">
        <ele>2445.2</ele>
        <time>2017-07-27T10:18:49Z</time>
      </trkpt>
      <trkpt lat="44.9872000" lon="6.9836510">
        <ele>2446.0</ele>
        <time>2017-07-27T10:18:57Z</time>
      </trkpt>
      <trkpt lat="44.9871650" lon="6.9837580">
        <ele>2446.4</ele>
        <time>2017-07-27T10:19:02Z</time>
      </trkpt>
      <trkpt lat="44.9871590" lon="6.9837850">
        <ele>2446.4</ele>
        <time>2017-07-27T10:19:03Z</time>
      </trkpt>
      <trkpt lat="44.9871560" lon="6.9838560">
        <ele>2447.0</ele>
        <time>2017-07-27T10:19:07Z</time>
      </trkpt>
      <trkpt lat="44.9871540" lon="6.9838480">
        <ele>2447.2</ele>
        <time>2017-07-27T10:19:08Z</time>
      </trkpt>
      <trkpt lat="44.9871580" lon="6.9838710">
        <ele>2447.6</ele>
        <time>2017-07-27T10:19:11Z</time>
      </trkpt>
      <trkpt lat="44.9871610" lon="6.9838900">
        <ele>2448.0</ele>
        <time>2017-07-27T10:19:13Z</time>
      </trkpt>
      <trkpt lat="44.9871720" lon="6.9839140">
        <ele>2448.0</ele>
        <time>2017-07-27T10:19:15Z</time>
      </trkpt>
      <trkpt lat="44.9871970" lon="6.9839640">
        <ele>2448.0</ele>
        <time>2017-07-27T10:19:20Z</time>
      </trkpt>
      <trkpt lat="44.9872020" lon="6.9840000">
        <ele>2448.2</ele>
        <time>2017-07-27T10:19:23Z</time>
      </trkpt>
      <trkpt lat="44.9872130" lon="6.9840250">
        <ele>2448.2</ele>
        <time>2017-07-27T10:19:28Z</time>
      </trkpt>
      <trkpt lat="44.9872130" lon="6.9840320">
        <ele>2448.2</ele>
        <time>2017-07-27T10:19:29Z</time>
      </trkpt>
      <trkpt lat="44.9872180" lon="6.9840690">
        <ele>2448.4</ele>
        <time>2017-07-27T10:19:32Z</time>
      </trkpt>
      <trkpt lat="44.9872390" lon="6.9841110">
        <ele>2448.8</ele>
        <time>2017-07-27T10:19:36Z</time>
      </trkpt>
      <trkpt lat="44.9872550" lon="6.9841370">
        <ele>2449.0</ele>
        <time>2017-07-27T10:19:38Z</time>
      </trkpt>
      <trkpt lat="44.9872710" lon="6.9841720">
        <ele>2449.4</ele>
        <time>2017-07-27T10:19:42Z</time>
      </trkpt>
      <trkpt lat="44.9873030" lon="6.9842710">
        <ele>2450.0</ele>
        <time>2017-07-27T10:19:49Z</time>
      </trkpt>
      <trkpt lat="44.9873090" lon="6.9842800">
        <ele>2450.0</ele>
        <time>2017-07-27T10:19:50Z</time>
      </trkpt>
      <trkpt lat="44.9873400" lon="6.9843290">
        <ele>2451.0</ele>
        <time>2017-07-27T10:19:55Z</time>
      </trkpt>
      <trkpt lat="44.9873480" lon="6.9843370">
        <ele>2451.2</ele>
        <time>2017-07-27T10:19:56Z</time>
      </trkpt>
      <trkpt lat="44.9873660" lon="6.9843760">
        <ele>2452.2</ele>
        <time>2017-07-27T10:19:59Z</time>
      </trkpt>
      <trkpt lat="44.9873820" lon="6.9844060">
        <ele>2453.2</ele>
        <time>2017-07-27T10:20:02Z</time>
      </trkpt>
      <trkpt lat="44.9873940" lon="6.9844180">
        <ele>2453.8</ele>
        <time>2017-07-27T10:20:04Z</time>
      </trkpt>
      <trkpt lat="44.9874050" lon="6.9844340">
        <ele>2454.2</ele>
        <time>2017-07-27T10:20:06Z</time>
      </trkpt>
      <trkpt lat="44.9874310" lon="6.9844690">
        <ele>2455.4</ele>
        <time>2017-07-27T10:20:11Z</time>
      </trkpt>
      <trkpt lat="44.9874420" lon="6.9844840">
        <ele>2456.0</ele>
        <time>2017-07-27T10:20:13Z</time>
      </trkpt>
      <trkpt lat="44.9874550" lon="6.9845130">
        <ele>2456.6</ele>
        <time>2017-07-27T10:20:16Z</time>
      </trkpt>
      <trkpt lat="44.9874790" lon="6.9845510">
        <ele>2457.6</ele>
        <time>2017-07-27T10:20:20Z</time>
      </trkpt>
      <trkpt lat="44.9874920" lon="6.9845680">
        <ele>2458.0</ele>
        <time>2017-07-27T10:20:22Z</time>
      </trkpt>
      <trkpt lat="44.9875070" lon="6.9845940">
        <ele>2458.6</ele>
        <time>2017-07-27T10:20:25Z</time>
      </trkpt>
      <trkpt lat="44.9875150" lon="6.9846210">
        <ele>2459.4</ele>
        <time>2017-07-27T10:20:29Z</time>
      </trkpt>
      <trkpt lat="44.9875190" lon="6.9846400">
        <ele>2460.0</ele>
        <time>2017-07-27T10:20:30Z</time>
      </trkpt>
      <trkpt lat="44.9875180" lon="6.9846560">
        <ele>2461.0</ele>
        <time>2017-07-27T10:20:33Z</time>
      </trkpt>
      <trkpt lat="44.9875190" lon="6.9846600">
        <ele>2461.2</ele>
        <time>2017-07-27T10:20:34Z</time>
      </trkpt>
      <trkpt lat="44.9875230" lon="6.9846860">
        <ele>2462.2</ele>
        <time>2017-07-27T10:20:37Z</time>
      </trkpt>
      <trkpt lat="44.9875240" lon="6.9847080">
        <ele>2462.6</ele>
        <time>2017-07-27T10:20:39Z</time>
      </trkpt>
      <trkpt lat="44.9875300" lon="6.9847220">
        <ele>2462.6</ele>
        <time>2017-07-27T10:20:40Z</time>
      </trkpt>
      <trkpt lat="44.9875390" lon="6.9847480">
        <ele>2463.2</ele>
        <time>2017-07-27T10:20:43Z</time>
      </trkpt>
      <trkpt lat="44.9875440" lon="6.9847850">
        <ele>2464.2</ele>
        <time>2017-07-27T10:20:47Z</time>
      </trkpt>
      <trkpt lat="44.9875400" lon="6.9847870">
        <ele>2464.4</ele>
        <time>2017-07-27T10:20:48Z</time>
      </trkpt>
      <trkpt lat="44.9875410" lon="6.9848220">
        <ele>2465.6</ele>
        <time>2017-07-27T10:20:52Z</time>
      </trkpt>
      <trkpt lat="44.9875420" lon="6.9848330">
        <ele>2465.8</ele>
        <time>2017-07-27T10:20:53Z</time>
      </trkpt>
      <trkpt lat="44.9875450" lon="6.9848650">
        <ele>2466.8</ele>
        <time>2017-07-27T10:20:56Z</time>
      </trkpt>
      <trkpt lat="44.9875480" lon="6.9849080">
        <ele>2467.8</ele>
        <time>2017-07-27T10:21:00Z</time>
      </trkpt>
      <trkpt lat="44.9875440" lon="6.9849170">
        <ele>2467.8</ele>
        <time>2017-07-27T10:21:01Z</time>
      </trkpt>
      <trkpt lat="44.9875520" lon="6.9849970">
        <ele>2469.0</ele>
        <time>2017-07-27T10:21:07Z</time>
      </trkpt>
      <trkpt lat="44.9875490" lon="6.9850410">
        <ele>2469.4</ele>
        <time>2017-07-27T10:21:11Z</time>
      </trkpt>
      <trkpt lat="44.9875490" lon="6.9850780">
        <ele>2469.8</ele>
        <time>2017-07-27T10:21:14Z</time>
      </trkpt>
      <trkpt lat="44.9875480" lon="6.9850810">
        <ele>2470.0</ele>
        <time>2017-07-27T10:21:15Z</time>
      </trkpt>
      <trkpt lat="44.9875560" lon="6.9851450">
        <ele>2470.6</ele>
        <time>2017-07-27T10:21:21Z</time>
      </trkpt>
      <trkpt lat="44.9875760" lon="6.9852120">
        <ele>2471.0</ele>
        <time>2017-07-27T10:21:28Z</time>
      </trkpt>
      <trkpt lat="44.9875710" lon="6.9852320">
        <ele>2471.4</ele>
        <time>2017-07-27T10:21:30Z</time>
      </trkpt>
      <trkpt lat="44.9875830" lon="6.9852670">
        <ele>2472.0</ele>
        <time>2017-07-27T10:21:34Z</time>
      </trkpt>
      <trkpt lat="44.9875840" lon="6.9852760">
        <ele>2472.2</ele>
        <time>2017-07-27T10:21:35Z</time>
      </trkpt>
      <trkpt lat="44.9875860" lon="6.9853130">
        <ele>2473.2</ele>
        <time>2017-07-27T10:21:39Z</time>
      </trkpt>
      <trkpt lat="44.9875870" lon="6.9853210">
        <ele>2473.4</ele>
        <time>2017-07-27T10:21:40Z</time>
      </trkpt>
      <trkpt lat="44.9875880" lon="6.9853320">
        <ele>2473.6</ele>
        <time>2017-07-27T10:21:41Z</time>
      </trkpt>
      <trkpt lat="44.9876040" lon="6.9853530">
        <ele>2474.2</ele>
        <time>2017-07-27T10:21:44Z</time>
      </trkpt>
      <trkpt lat="44.9876190" lon="6.9853940">
        <ele>2475.4</ele>
        <time>2017-07-27T10:21:48Z</time>
      </trkpt>
      <trkpt lat="44.9876250" lon="6.9854300">
        <ele>2476.6</ele>
        <time>2017-07-27T10:21:52Z</time>
      </trkpt>
      <trkpt lat="44.9876390" lon="6.9854590">
        <ele>2477.6</ele>
        <time>2017-07-27T10:21:55Z</time>
      </trkpt>
      <trkpt lat="44.9876480" lon="6.9854810">
        <ele>2478.2</ele>
        <time>2017-07-27T10:21:57Z</time>
      </trkpt>
      <trkpt lat="44.9876460" lon="6.9855110">
        <ele>2479.0</ele>
        <time>2017-07-27T10:22:01Z</time>
      </trkpt>
      <trkpt lat="44.9876530" lon="6.9855180">
        <ele>2479.2</ele>
        <time>2017-07-27T10:22:02Z</time>
      </trkpt>
      <trkpt lat="44.9876660" lon="6.9855500">
        <ele>2479.8</ele>
        <time>2017-07-27T10:22:05Z</time>
      </trkpt>
      <trkpt lat="44.9876690" lon="6.9855840">
        <ele>2480.0</ele>
        <time>2017-07-27T10:22:08Z</time>
      </trkpt>
      <trkpt lat="44.9876620" lon="6.9856170">
        <ele>2480.6</ele>
        <time>2017-07-27T10:22:11Z</time>
      </trkpt>
      <trkpt lat="44.9876650" lon="6.9856520">
        <ele>2481.2</ele>
        <time>2017-07-27T10:22:14Z</time>
      </trkpt>
      <trkpt lat="44.9876660" lon="6.9856740">
        <ele>2481.6</ele>
        <time>2017-07-27T10:22:16Z</time>
      </trkpt>
      <trkpt lat="44.9876670" lon="6.9857000">
        <ele>2482.2</ele>
        <time>2017-07-27T10:22:18Z</time>
      </trkpt>
      <trkpt lat="44.9876710" lon="6.9857760">
        <ele>2483.0</ele>
        <time>2017-07-27T10:22:24Z</time>
      </trkpt>
      <trkpt lat="44.9876680" lon="6.9858070">
        <ele>2483.2</ele>
        <time>2017-07-27T10:22:27Z</time>
      </trkpt>
      <trkpt lat="44.9876760" lon="6.9858350">
        <ele>2483.2</ele>
        <time>2017-07-27T10:22:30Z</time>
      </trkpt>
      <trkpt lat="44.9876830" lon="6.9858520">
        <ele>2483.4</ele>
        <time>2017-07-27T10:22:35Z</time>
      </trkpt>
      <trkpt lat="44.9877070" lon="6.9859430">
        <ele>2483.0</ele>
        <time>2017-07-27T10:22:40Z</time>
      </trkpt>
      <trkpt lat="44.9877080" lon="6.9859620">
        <ele>2482.8</ele>
        <time>2017-07-27T10:22:41Z</time>
      </trkpt>
      <trkpt lat="44.9876770" lon="6.9860300">
        <ele>2483.2</ele>
        <time>2017-07-27T10:22:45Z</time>
      </trkpt>
      <trkpt lat="44.9876550" lon="6.9860590">
        <ele>2483.4</ele>
        <time>2017-07-27T10:22:47Z</time>
      </trkpt>
      <trkpt lat="44.9876230" lon="6.9861050">
        <ele>2483.8</ele>
        <time>2017-07-27T10:22:50Z</time>
      </trkpt>
      <trkpt lat="44.9875970" lon="6.9861180">
        <ele>2483.8</ele>
        <time>2017-07-27T10:22:52Z</time>
      </trkpt>
      <trkpt lat="44.9875270" lon="6.9861820">
        <ele>2484.4</ele>
        <time>2017-07-27T10:22:58Z</time>
      </trkpt>
      <trkpt lat="44.9875100" lon="6.9862800">
        <ele>2485.4</ele>
        <time>2017-07-27T10:23:03Z</time>
      </trkpt>
      <trkpt lat="44.9874960" lon="6.9862890">
        <ele>2485.4</ele>
        <time>2017-07-27T10:23:04Z</time>
      </trkpt>
      <trkpt lat="44.9874810" lon="6.9862980">
        <ele>2485.6</ele>
        <time>2017-07-27T10:23:05Z</time>
      </trkpt>
      <trkpt lat="44.9874720" lon="6.9863070">
        <ele>2485.6</ele>
        <time>2017-07-27T10:23:06Z</time>
      </trkpt>
      <trkpt lat="44.9874880" lon="6.9863790">
        <ele>2486.2</ele>
        <time>2017-07-27T10:23:10Z</time>
      </trkpt>
      <trkpt lat="44.9874890" lon="6.9864850">
        <ele>2486.6</ele>
        <time>2017-07-27T10:23:16Z</time>
      </trkpt>
      <trkpt lat="44.9875120" lon="6.9866150">
        <ele>2487.6</ele>
        <time>2017-07-27T10:23:23Z</time>
      </trkpt>
      <trkpt lat="44.9875190" lon="6.9866340">
        <ele>2487.6</ele>
        <time>2017-07-27T10:23:24Z</time>
      </trkpt>
      <trkpt lat="44.9875190" lon="6.9866950">
        <ele>2488.0</ele>
        <time>2017-07-27T10:23:27Z</time>
      </trkpt>
      <trkpt lat="44.9875210" lon="6.9867170">
        <ele>2488.0</ele>
        <time>2017-07-27T10:23:28Z</time>
      </trkpt>
      <trkpt lat="44.9875400" lon="6.9867890">
        <ele>2489.0</ele>
        <time>2017-07-27T10:23:32Z</time>
      </trkpt>
      <trkpt lat="44.9875450" lon="6.9868310">
        <ele>2489.4</ele>
        <time>2017-07-27T10:23:35Z</time>
      </trkpt>
      <trkpt lat="44.9875480" lon="6.9868760">
        <ele>2490.4</ele>
        <time>2017-07-27T10:23:38Z</time>
      </trkpt>
      <trkpt lat="44.9875690" lon="6.9869260">
        <ele>2490.8</ele>
        <time>2017-07-27T10:23:41Z</time>
      </trkpt>
      <trkpt lat="44.9875610" lon="6.9869640">
        <ele>2491.6</ele>
        <time>2017-07-27T10:23:44Z</time>
      </trkpt>
      <trkpt lat="44.9875570" lon="6.9870000">
        <ele>2492.2</ele>
        <time>2017-07-27T10:23:46Z</time>
      </trkpt>
      <trkpt lat="44.9875560" lon="6.9870230">
        <ele>2492.6</ele>
        <time>2017-07-27T10:23:47Z</time>
      </trkpt>
      <trkpt lat="44.9875720" lon="6.9870780">
        <ele>2493.8</ele>
        <time>2017-07-27T10:23:50Z</time>
      </trkpt>
      <trkpt lat="44.9875820" lon="6.9871130">
        <ele>2494.4</ele>
        <time>2017-07-27T10:23:52Z</time>
      </trkpt>
      <trkpt lat="44.9875880" lon="6.9871320">
        <ele>2494.6</ele>
        <time>2017-07-27T10:23:53Z</time>
      </trkpt>
      <trkpt lat="44.9875900" lon="6.9871510">
        <ele>2495.0</ele>
        <time>2017-07-27T10:23:54Z</time>
      </trkpt>
      <trkpt lat="44.9875890" lon="6.9871970">
        <ele>2496.2</ele>
        <time>2017-07-27T10:23:57Z</time>
      </trkpt>
      <trkpt lat="44.9875880" lon="6.9872310">
        <ele>2497.2</ele>
        <time>2017-07-27T10:23:59Z</time>
      </trkpt>
      <trkpt lat="44.9875850" lon="6.9872470">
        <ele>2497.6</ele>
        <time>2017-07-27T10:24:00Z</time>
      </trkpt>
      <trkpt lat="44.9875810" lon="6.9872670">
        <ele>2498.0</ele>
        <time>2017-07-27T10:24:01Z</time>
      </trkpt>
      <trkpt lat="44.9875810" lon="6.9872910">
        <ele>2498.6</ele>
        <time>2017-07-27T10:24:02Z</time>
      </trkpt>
      <trkpt lat="44.9875720" lon="6.9873940">
        <ele>2499.8</ele>
        <time>2017-07-27T10:24:07Z</time>
      </trkpt>
      <trkpt lat="44.9875640" lon="6.9874040">
        <ele>2500.0</ele>
        <time>2017-07-27T10:24:08Z</time>
      </trkpt>
      <trkpt lat="44.9875620" lon="6.9874300">
        <ele>2500.4</ele>
        <time>2017-07-27T10:24:10Z</time>
      </trkpt>
      <trkpt lat="44.9875790" lon="6.9874620">
        <ele>2501.0</ele>
        <time>2017-07-27T10:24:12Z</time>
      </trkpt>
      <trkpt lat="44.9875900" lon="6.9874770">
        <ele>2501.2</ele>
        <time>2017-07-27T10:24:13Z</time>
      </trkpt>
      <trkpt lat="44.9876550" lon="6.9875850">
        <ele>2502.0</ele>
        <time>2017-07-27T10:24:19Z</time>
      </trkpt>
      <trkpt lat="44.9877390" lon="6.9877010">
        <ele>2502.2</ele>
        <time>2017-07-27T10:24:25Z</time>
      </trkpt>
      <trkpt lat="44.9877560" lon="6.9877260">
        <ele>2502.4</ele>
        <time>2017-07-27T10:24:26Z</time>
      </trkpt>
      <trkpt lat="44.9878510" lon="6.9878500">
        <ele>2502.4</ele>
        <time>2017-07-27T10:24:32Z</time>
      </trkpt>
      <trkpt lat="44.9879150" lon="6.9879510">
        <ele>2502.4</ele>
        <time>2017-07-27T10:24:37Z</time>
      </trkpt>
      <trkpt lat="44.9879210" lon="6.9879790">
        <ele>2502.4</ele>
        <time>2017-07-27T10:24:38Z</time>
      </trkpt>
      <trkpt lat="44.9879570" lon="6.9880580">
        <ele>2502.4</ele>
        <time>2017-07-27T10:24:41Z</time>
      </trkpt>
      <trkpt lat="44.9879700" lon="6.9880770">
        <ele>2502.4</ele>
        <time>2017-07-27T10:24:42Z</time>
      </trkpt>
      <trkpt lat="44.9880570" lon="6.9882540">
        <ele>2503.0</ele>
        <time>2017-07-27T10:24:48Z</time>
      </trkpt>
      <trkpt lat="44.9881280" lon="6.9883740">
        <ele>2503.0</ele>
        <time>2017-07-27T10:24:53Z</time>
      </trkpt>
      <trkpt lat="44.9882020" lon="6.9884460">
        <ele>2503.2</ele>
        <time>2017-07-27T10:24:57Z</time>
      </trkpt>
      <trkpt lat="44.9882420" lon="6.9884840">
        <ele>2503.4</ele>
        <time>2017-07-27T10:24:59Z</time>
      </trkpt>
      <trkpt lat="44.9883870" lon="6.9886060">
        <ele>2503.2</ele>
        <time>2017-07-27T10:25:06Z</time>
      </trkpt>
      <trkpt lat="44.9884480" lon="6.9886300">
        <ele>2503.0</ele>
        <time>2017-07-27T10:25:08Z</time>
      </trkpt>
      <trkpt lat="44.9885840" lon="6.9887100">
        <ele>2503.2</ele>
        <time>2017-07-27T10:25:13Z</time>
      </trkpt>
      <trkpt lat="44.9887410" lon="6.9888150">
        <ele>2503.2</ele>
        <time>2017-07-27T10:25:20Z</time>
      </trkpt>
      <trkpt lat="44.9888290" lon="6.9888410">
        <ele>2503.4</ele>
        <time>2017-07-27T10:25:25Z</time>
      </trkpt>
      <trkpt lat="44.9888920" lon="6.9888100">
        <ele>2504.4</ele>
        <time>2017-07-27T10:25:29Z</time>
      </trkpt>
      <trkpt lat="44.9889100" lon="6.9888110">
        <ele>2504.6</ele>
        <time>2017-07-27T10:25:30Z</time>
      </trkpt>
      <trkpt lat="44.9889840" lon="6.9888160">
        <ele>2505.6</ele>
        <time>2017-07-27T10:25:34Z</time>
      </trkpt>
      <trkpt lat="44.9890180" lon="6.9888140">
        <ele>2506.0</ele>
        <time>2017-07-27T10:25:36Z</time>
      </trkpt>
      <trkpt lat="44.9890510" lon="6.9888170">
        <ele>2506.8</ele>
        <time>2017-07-27T10:25:38Z</time>
      </trkpt>
      <trkpt lat="44.9891280" lon="6.9888450">
        <ele>2507.6</ele>
        <time>2017-07-27T10:25:42Z</time>
      </trkpt>
      <trkpt lat="44.9891440" lon="6.9888580">
        <ele>2508.0</ele>
        <time>2017-07-27T10:25:43Z</time>
      </trkpt>
      <trkpt lat="44.9891550" lon="6.9888730">
        <ele>2508.2</ele>
        <time>2017-07-27T10:25:44Z</time>
      </trkpt>
      <trkpt lat="44.9891840" lon="6.9889240">
        <ele>2508.6</ele>
        <time>2017-07-27T10:25:47Z</time>
      </trkpt>
      <trkpt lat="44.9892080" lon="6.9889510">
        <ele>2509.0</ele>
        <time>2017-07-27T10:25:49Z</time>
      </trkpt>
      <trkpt lat="44.9892360" lon="6.9889740">
        <ele>2509.4</ele>
        <time>2017-07-27T10:25:51Z</time>
      </trkpt>
      <trkpt lat="44.9892750" lon="6.9890080">
        <ele>2510.0</ele>
        <time>2017-07-27T10:25:54Z</time>
      </trkpt>
      <trkpt lat="44.9892870" lon="6.9890210">
        <ele>2510.2</ele>
        <time>2017-07-27T10:25:55Z</time>
      </trkpt>
      <trkpt lat="44.9893280" lon="6.9890860">
        <ele>2511.4</ele>
        <time>2017-07-27T10:25:59Z</time>
      </trkpt>
      <trkpt lat="44.9893380" lon="6.9891040">
        <ele>2511.6</ele>
        <time>2017-07-27T10:26:00Z</time>
      </trkpt>
      <trkpt lat="44.9893550" lon="6.9891300">
        <ele>2512.8</ele>
        <time>2017-07-27T10:26:02Z</time>
      </trkpt>
      <trkpt lat="44.9893710" lon="6.9891620">
        <ele>2513.8</ele>
        <time>2017-07-27T10:26:05Z</time>
      </trkpt>
      <trkpt lat="44.9893780" lon="6.9891760">
        <ele>2514.2</ele>
        <time>2017-07-27T10:26:06Z</time>
      </trkpt>
      <trkpt lat="44.9894050" lon="6.9892230">
        <ele>2515.2</ele>
        <time>2017-07-27T10:26:09Z</time>
      </trkpt>
      <trkpt lat="44.9894200" lon="6.9892570">
        <ele>2515.8</ele>
        <time>2017-07-27T10:26:11Z</time>
      </trkpt>
      <trkpt lat="44.9894360" lon="6.9892860">
        <ele>2516.6</ele>
        <time>2017-07-27T10:26:13Z</time>
      </trkpt>
      <trkpt lat="44.9894510" lon="6.9893160">
        <ele>2517.2</ele>
        <time>2017-07-27T10:26:15Z</time>
      </trkpt>
      <trkpt lat="44.9894810" lon="6.9893300">
        <ele>2517.6</ele>
        <time>2017-07-27T10:26:17Z</time>
      </trkpt>
      <trkpt lat="44.9895230" lon="6.9893400">
        <ele>2519.0</ele>
        <time>2017-07-27T10:26:22Z</time>
      </trkpt>
      <trkpt lat="44.9895460" lon="6.9893560">
        <ele>2520.0</ele>
        <time>2017-07-27T10:26:26Z</time>
      </trkpt>
      <trkpt lat="44.9895630" lon="6.9893720">
        <ele>2520.6</ele>
        <time>2017-07-27T10:26:28Z</time>
      </trkpt>
      <trkpt lat="44.9895790" lon="6.9893820">
        <ele>2521.2</ele>
        <time>2017-07-27T10:26:30Z</time>
      </trkpt>
      <trkpt lat="44.9896110" lon="6.9894230">
        <ele>2522.4</ele>
        <time>2017-07-27T10:26:34Z</time>
      </trkpt>
      <trkpt lat="44.9896250" lon="6.9894440">
        <ele>2523.2</ele>
        <time>2017-07-27T10:26:36Z</time>
      </trkpt>
      <trkpt lat="44.9896330" lon="6.9894530">
        <ele>2523.4</ele>
        <time>2017-07-27T10:26:37Z</time>
      </trkpt>
      <trkpt lat="44.9896700" lon="6.9894980">
        <ele>2524.6</ele>
        <time>2017-07-27T10:26:41Z</time>
      </trkpt>
      <trkpt lat="44.9897040" lon="6.9895380">
        <ele>2525.0</ele>
        <time>2017-07-27T10:26:44Z</time>
      </trkpt>
      <trkpt lat="44.9897180" lon="6.9895430">
        <ele>2525.0</ele>
        <time>2017-07-27T10:26:45Z</time>
      </trkpt>
      <trkpt lat="44.9897330" lon="6.9895490">
        <ele>2525.2</ele>
        <time>2017-07-27T10:26:48Z</time>
      </trkpt>
      <trkpt lat="44.9897490" lon="6.9895540">
        <ele>2525.8</ele>
        <time>2017-07-27T10:26:52Z</time>
      </trkpt>
      <trkpt lat="44.9897660" lon="6.9895530">
        <ele>2526.4</ele>
        <time>2017-07-27T10:26:54Z</time>
      </trkpt>
      <trkpt lat="44.9897810" lon="6.9895470">
        <ele>2527.0</ele>
        <time>2017-07-27T10:26:56Z</time>
      </trkpt>
      <trkpt lat="44.9898070" lon="6.9895420">
        <ele>2528.2</ele>
        <time>2017-07-27T10:27:00Z</time>
      </trkpt>
      <trkpt lat="44.9898170" lon="6.9895390">
        <ele>2528.4</ele>
        <time>2017-07-27T10:27:01Z</time>
      </trkpt>
      <trkpt lat="44.9898390" lon="6.9895330">
        <ele>2529.2</ele>
        <time>2017-07-27T10:27:04Z</time>
      </trkpt>
      <trkpt lat="44.9898810" lon="6.9895280">
        <ele>2530.4</ele>
        <time>2017-07-27T10:27:09Z</time>
      </trkpt>
      <trkpt lat="44.9898940" lon="6.9895340">
        <ele>2530.8</ele>
        <time>2017-07-27T10:27:11Z</time>
      </trkpt>
      <trkpt lat="44.9899100" lon="6.9895440">
        <ele>2531.2</ele>
        <time>2017-07-27T10:27:13Z</time>
      </trkpt>
      <trkpt lat="44.9899200" lon="6.9895440">
        <ele>2531.8</ele>
        <time>2017-07-27T10:27:14Z</time>
      </trkpt>
      <trkpt lat="44.9899520" lon="6.9895450">
        <ele>2532.4</ele>
        <time>2017-07-27T10:27:17Z</time>
      </trkpt>
      <trkpt lat="44.9899680" lon="6.9895410">
        <ele>2533.0</ele>
        <time>2017-07-27T10:27:19Z</time>
      </trkpt>
      <trkpt lat="44.9900050" lon="6.9895380">
        <ele>2534.2</ele>
        <time>2017-07-27T10:27:24Z</time>
      </trkpt>
      <trkpt lat="44.9900570" lon="6.9895370">
        <ele>2535.2</ele>
        <time>2017-07-27T10:27:29Z</time>
      </trkpt>
      <trkpt lat="44.9900730" lon="6.9895310">
        <ele>2535.8</ele>
        <time>2017-07-27T10:27:31Z</time>
      </trkpt>
      <trkpt lat="44.9900900" lon="6.9895230">
        <ele>2536.6</ele>
        <time>2017-07-27T10:27:33Z</time>
      </trkpt>
      <trkpt lat="44.9901040" lon="6.9895090">
        <ele>2537.0</ele>
        <time>2017-07-27T10:27:35Z</time>
      </trkpt>
      <trkpt lat="44.9901190" lon="6.9894960">
        <ele>2537.8</ele>
        <time>2017-07-27T10:27:37Z</time>
      </trkpt>
      <trkpt lat="44.9901260" lon="6.9894920">
        <ele>2538.6</ele>
        <time>2017-07-27T10:27:38Z</time>
      </trkpt>
      <trkpt lat="44.9901330" lon="6.9894820">
        <ele>2539.0</ele>
        <time>2017-07-27T10:27:39Z</time>
      </trkpt>
      <trkpt lat="44.9901490" lon="6.9894660">
        <ele>2540.2</ele>
        <time>2017-07-27T10:27:42Z</time>
      </trkpt>
      <trkpt lat="44.9901600" lon="6.9894500">
        <ele>2540.8</ele>
        <time>2017-07-27T10:27:44Z</time>
      </trkpt>
      <trkpt lat="44.9901720" lon="6.9894370">
        <ele>2541.2</ele>
        <time>2017-07-27T10:27:46Z</time>
      </trkpt>
      <trkpt lat="44.9901990" lon="6.9894150">
        <ele>2542.6</ele>
        <time>2017-07-27T10:27:51Z</time>
      </trkpt>
      <trkpt lat="44.9902070" lon="6.9894180">
        <ele>2542.8</ele>
        <time>2017-07-27T10:27:52Z</time>
      </trkpt>
      <trkpt lat="44.9902450" lon="6.9894640">
        <ele>2543.6</ele>
        <time>2017-07-27T10:27:57Z</time>
      </trkpt>
      <trkpt lat="44.9902660" lon="6.9894840">
        <ele>2543.8</ele>
        <time>2017-07-27T10:27:59Z</time>
      </trkpt>
      <trkpt lat="44.9903000" lon="6.9895410">
        <ele>2544.0</ele>
        <time>2017-07-27T10:28:05Z</time>
      </trkpt>
      <trkpt lat="44.9903240" lon="6.9895990">
        <ele>2544.4</ele>
        <time>2017-07-27T10:28:12Z</time>
      </trkpt>
      <trkpt lat="44.9903290" lon="6.9896180">
        <ele>2544.8</ele>
        <time>2017-07-27T10:28:14Z</time>
      </trkpt>
      <trkpt lat="44.9903330" lon="6.9896260">
        <ele>2544.8</ele>
        <time>2017-07-27T10:28:15Z</time>
      </trkpt>
      <trkpt lat="44.9903490" lon="6.9896330">
        <ele>2545.4</ele>
        <time>2017-07-27T10:28:18Z</time>
      </trkpt>
      <trkpt lat="44.9903660" lon="6.9896150">
        <ele>2546.0</ele>
        <time>2017-07-27T10:28:21Z</time>
      </trkpt>
      <trkpt lat="44.9903700" lon="6.9895980">
        <ele>2546.4</ele>
        <time>2017-07-27T10:28:23Z</time>
      </trkpt>
      <trkpt lat="44.9903860" lon="6.9895850">
        <ele>2547.2</ele>
        <time>2017-07-27T10:28:26Z</time>
      </trkpt>
      <trkpt lat="44.9903910" lon="6.9895980">
        <ele>2547.8</ele>
        <time>2017-07-27T10:28:28Z</time>
      </trkpt>
      <trkpt lat="44.9903950" lon="6.9896180">
        <ele>2548.2</ele>
        <time>2017-07-27T10:28:30Z</time>
      </trkpt>
      <trkpt lat="44.9904110" lon="6.9896450">
        <ele>2549.2</ele>
        <time>2017-07-27T10:28:33Z</time>
      </trkpt>
      <trkpt lat="44.9904280" lon="6.9896590">
        <ele>2549.8</ele>
        <time>2017-07-27T10:28:35Z</time>
      </trkpt>
      <trkpt lat="44.9904400" lon="6.9896710">
        <ele>2550.4</ele>
        <time>2017-07-27T10:28:37Z</time>
      </trkpt>
      <trkpt lat="44.9904520" lon="6.9896900">
        <ele>2551.2</ele>
        <time>2017-07-27T10:28:40Z</time>
      </trkpt>
      <trkpt lat="44.9904590" lon="6.9896920">
        <ele>2551.4</ele>
        <time>2017-07-27T10:28:41Z</time>
      </trkpt>
      <trkpt lat="44.9904760" lon="6.9897240">
        <ele>2552.2</ele>
        <time>2017-07-27T10:28:46Z</time>
      </trkpt>
      <trkpt lat="44.9904820" lon="6.9897410">
        <ele>2552.6</ele>
        <time>2017-07-27T10:28:48Z</time>
      </trkpt>
      <trkpt lat="44.9905010" lon="6.9897820">
        <ele>2553.6</ele>
        <time>2017-07-27T10:28:53Z</time>
      </trkpt>
      <trkpt lat="44.9905220" lon="6.9898320">
        <ele>2554.8</ele>
        <time>2017-07-27T10:28:58Z</time>
      </trkpt>
      <trkpt lat="44.9905280" lon="6.9898410">
        <ele>2555.0</ele>
        <time>2017-07-27T10:28:59Z</time>
      </trkpt>
      <trkpt lat="44.9905380" lon="6.9898610">
        <ele>2555.8</ele>
        <time>2017-07-27T10:29:03Z</time>
      </trkpt>
      <trkpt lat="44.9905390" lon="6.9898710">
        <ele>2556.0</ele>
        <time>2017-07-27T10:29:04Z</time>
      </trkpt>
      <trkpt lat="44.9905470" lon="6.9898940">
        <ele>2556.4</ele>
        <time>2017-07-27T10:29:06Z</time>
      </trkpt>
      <trkpt lat="44.9905600" lon="6.9899190">
        <ele>2556.4</ele>
        <time>2017-07-27T10:29:09Z</time>
      </trkpt>
      <trkpt lat="44.9905680" lon="6.9899230">
        <ele>2556.4</ele>
        <time>2017-07-27T10:29:10Z</time>
      </trkpt>
      <trkpt lat="44.9906010" lon="6.9899860">
        <ele>2556.6</ele>
        <time>2017-07-27T10:29:17Z</time>
      </trkpt>
      <trkpt lat="44.9906100" lon="6.9900160">
        <ele>2556.8</ele>
        <time>2017-07-27T10:29:20Z</time>
      </trkpt>
      <trkpt lat="44.9906130" lon="6.9900260">
        <ele>2557.0</ele>
        <time>2017-07-27T10:29:21Z</time>
      </trkpt>
      <trkpt lat="44.9906190" lon="6.9900500">
        <ele>2557.0</ele>
        <time>2017-07-27T10:29:23Z</time>
      </trkpt>
      <trkpt lat="44.9906350" lon="6.9901350">
        <ele>2557.4</ele>
        <time>2017-07-27T10:29:30Z</time>
      </trkpt>
      <trkpt lat="44.9906380" lon="6.9901480">
        <ele>2557.4</ele>
        <time>2017-07-27T10:29:31Z</time>
      </trkpt>
      <trkpt lat="44.9906600" lon="6.9902170">
        <ele>2558.0</ele>
        <time>2017-07-27T10:29:38Z</time>
      </trkpt>
      <trkpt lat="44.9906750" lon="6.9902890">
        <ele>2558.8</ele>
        <time>2017-07-27T10:29:45Z</time>
      </trkpt>
      <trkpt lat="44.9906790" lon="6.9902990">
        <ele>2559.0</ele>
        <time>2017-07-27T10:29:46Z</time>
      </trkpt>
      <trkpt lat="44.9906920" lon="6.9903610">
        <ele>2560.2</ele>
        <time>2017-07-27T10:29:52Z</time>
      </trkpt>
      <trkpt lat="44.9906920" lon="6.9903680">
        <ele>2560.6</ele>
        <time>2017-07-27T10:29:53Z</time>
      </trkpt>
      <trkpt lat="44.9907070" lon="6.9904110">
        <ele>2561.4</ele>
        <time>2017-07-27T10:29:57Z</time>
      </trkpt>
      <trkpt lat="44.9907180" lon="6.9904260">
        <ele>2562.0</ele>
        <time>2017-07-27T10:29:59Z</time>
      </trkpt>
      <trkpt lat="44.9907230" lon="6.9904270">
        <ele>2562.2</ele>
        <time>2017-07-27T10:30:00Z</time>
      </trkpt>
      <trkpt lat="44.9907350" lon="6.9904250">
        <ele>2562.6</ele>
        <time>2017-07-27T10:30:02Z</time>
      </trkpt>
      <trkpt lat="44.9907400" lon="6.9904140">
        <ele>2562.8</ele>
        <time>2017-07-27T10:30:03Z</time>
      </trkpt>
      <trkpt lat="44.9907530" lon="6.9903770">
        <ele>2563.4</ele>
        <time>2017-07-27T10:30:06Z</time>
      </trkpt>
      <trkpt lat="44.9907560" lon="6.9903510">
        <ele>2563.6</ele>
        <time>2017-07-27T10:30:08Z</time>
      </trkpt>
      <trkpt lat="44.9907570" lon="6.9903360">
        <ele>2563.8</ele>
        <time>2017-07-27T10:30:09Z</time>
      </trkpt>
      <trkpt lat="44.9907640" lon="6.9902700">
        <ele>2564.6</ele>
        <time>2017-07-27T10:30:14Z</time>
      </trkpt>
      <trkpt lat="44.9907670" lon="6.9902600">
        <ele>2564.8</ele>
        <time>2017-07-27T10:30:15Z</time>
      </trkpt>
      <trkpt lat="44.9907790" lon="6.9902510">
        <ele>2565.0</ele>
        <time>2017-07-27T10:30:17Z</time>
      </trkpt>
      <trkpt lat="44.9907920" lon="6.9902690">
        <ele>2565.6</ele>
        <time>2017-07-27T10:30:20Z</time>
      </trkpt>
      <trkpt lat="44.9907970" lon="6.9902800">
        <ele>2565.8</ele>
        <time>2017-07-27T10:30:21Z</time>
      </trkpt>
      <trkpt lat="44.9907940" lon="6.9903240">
        <ele>2566.4</ele>
        <time>2017-07-27T10:30:25Z</time>
      </trkpt>
      <trkpt lat="44.9907970" lon="6.9903430">
        <ele>2566.8</ele>
        <time>2017-07-27T10:30:27Z</time>
      </trkpt>
      <trkpt lat="44.9908050" lon="6.9903510">
        <ele>2567.0</ele>
        <time>2017-07-27T10:30:28Z</time>
      </trkpt>
      <trkpt lat="44.9908240" lon="6.9903780">
        <ele>2568.0</ele>
        <time>2017-07-27T10:30:32Z</time>
      </trkpt>
      <trkpt lat="44.9908360" lon="6.9904090">
        <ele>2569.2</ele>
        <time>2017-07-27T10:30:37Z</time>
      </trkpt>
      <trkpt lat="44.9908390" lon="6.9904180">
        <ele>2569.4</ele>
        <time>2017-07-27T10:30:38Z</time>
      </trkpt>
      <trkpt lat="44.9908400" lon="6.9904790">
        <ele>2570.2</ele>
        <time>2017-07-27T10:30:44Z</time>
      </trkpt>
      <trkpt lat="44.9908490" lon="6.9904990">
        <ele>2570.4</ele>
        <time>2017-07-27T10:30:46Z</time>
      </trkpt>
      <trkpt lat="44.9908760" lon="6.9905420">
        <ele>2571.0</ele>
        <time>2017-07-27T10:30:52Z</time>
      </trkpt>
      <trkpt lat="44.9908760" lon="6.9905590">
        <ele>2571.2</ele>
        <time>2017-07-27T10:30:54Z</time>
      </trkpt>
      <trkpt lat="44.9908840" lon="6.9905920">
        <ele>2571.8</ele>
        <time>2017-07-27T10:30:58Z</time>
      </trkpt>
      <trkpt lat="44.9908880" lon="6.9906120">
        <ele>2572.4</ele>
        <time>2017-07-27T10:31:00Z</time>
      </trkpt>
      <trkpt lat="44.9909050" lon="6.9906510">
        <ele>2573.4</ele>
        <time>2017-07-27T10:31:05Z</time>
      </trkpt>
      <trkpt lat="44.9909260" lon="6.9906700">
        <ele>2574.2</ele>
        <time>2017-07-27T10:31:09Z</time>
      </trkpt>
      <trkpt lat="44.9909270" lon="6.9906810">
        <ele>2574.4</ele>
        <time>2017-07-27T10:31:10Z</time>
      </trkpt>
      <trkpt lat="44.9909510" lon="6.9907300">
        <ele>2575.4</ele>
        <time>2017-07-27T10:31:16Z</time>
      </trkpt>
      <trkpt lat="44.9909530" lon="6.9907370">
        <ele>2575.6</ele>
        <time>2017-07-27T10:31:17Z</time>
      </trkpt>
      <trkpt lat="44.9909600" lon="6.9907700">
        <ele>2576.4</ele>
        <time>2017-07-27T10:31:21Z</time>
      </trkpt>
      <trkpt lat="44.9909610" lon="6.9907800">
        <ele>2576.8</ele>
        <time>2017-07-27T10:31:22Z</time>
      </trkpt>
      <trkpt lat="44.9909620" lon="6.9908040">
        <ele>2577.2</ele>
        <time>2017-07-27T10:31:24Z</time>
      </trkpt>
      <trkpt lat="44.9909670" lon="6.9908260">
        <ele>2577.4</ele>
        <time>2017-07-27T10:31:26Z</time>
      </trkpt>
      <trkpt lat="44.9909810" lon="6.9908570">
        <ele>2578.0</ele>
        <time>2017-07-27T10:31:29Z</time>
      </trkpt>
      <trkpt lat="44.9909870" lon="6.9908770">
        <ele>2578.4</ele>
        <time>2017-07-27T10:31:31Z</time>
      </trkpt>
      <trkpt lat="44.9910110" lon="6.9909140">
        <ele>2579.2</ele>
        <time>2017-07-27T10:31:35Z</time>
      </trkpt>
      <trkpt lat="44.9910250" lon="6.9908990">
        <ele>2579.6</ele>
        <time>2017-07-27T10:31:37Z</time>
      </trkpt>
      <trkpt lat="44.9910330" lon="6.9908500">
        <ele>2580.2</ele>
        <time>2017-07-27T10:31:41Z</time>
      </trkpt>
      <trkpt lat="44.9910390" lon="6.9908010">
        <ele>2580.6</ele>
        <time>2017-07-27T10:31:45Z</time>
      </trkpt>
      <trkpt lat="44.9910580" lon="6.9907820">
        <ele>2581.8</ele>
        <time>2017-07-27T10:31:49Z</time>
      </trkpt>
      <trkpt lat="44.9910690" lon="6.9907950">
        <ele>2582.2</ele>
        <time>2017-07-27T10:31:51Z</time>
      </trkpt>
      <trkpt lat="44.9910750" lon="6.9908180">
        <ele>2582.8</ele>
        <time>2017-07-27T10:31:53Z</time>
      </trkpt>
      <trkpt lat="44.9910830" lon="6.9908590">
        <ele>2583.8</ele>
        <time>2017-07-27T10:31:57Z</time>
      </trkpt>
      <trkpt lat="44.9910870" lon="6.9908800">
        <ele>2584.6</ele>
        <time>2017-07-27T10:31:59Z</time>
      </trkpt>
      <trkpt lat="44.9910920" lon="6.9909040">
        <ele>2585.0</ele>
        <time>2017-07-27T10:32:01Z</time>
      </trkpt>
      <trkpt lat="44.9911030" lon="6.9909390">
        <ele>2586.2</ele>
        <time>2017-07-27T10:32:04Z</time>
      </trkpt>
      <trkpt lat="44.9911050" lon="6.9909650">
        <ele>2586.8</ele>
        <time>2017-07-27T10:32:06Z</time>
      </trkpt>
      <trkpt lat="44.9911050" lon="6.9909780">
        <ele>2587.2</ele>
        <time>2017-07-27T10:32:07Z</time>
      </trkpt>
      <trkpt lat="44.9911060" lon="6.9909910">
        <ele>2587.4</ele>
        <time>2017-07-27T10:32:08Z</time>
      </trkpt>
      <trkpt lat="44.9911080" lon="6.9910290">
        <ele>2588.4</ele>
        <time>2017-07-27T10:32:11Z</time>
      </trkpt>
      <trkpt lat="44.9911210" lon="6.9910760">
        <ele>2589.6</ele>
        <time>2017-07-27T10:32:15Z</time>
      </trkpt>
      <trkpt lat="44.9911520" lon="6.9910660">
        <ele>2589.8</ele>
        <time>2017-07-27T10:32:19Z</time>
      </trkpt>
      <trkpt lat="44.9911760" lon="6.9909990">
        <ele>2589.6</ele>
        <time>2017-07-27T10:32:26Z</time>
      </trkpt>
      <trkpt lat="44.9911830" lon="6.9909750">
        <ele>2589.8</ele>
        <time>2017-07-27T10:32:28Z</time>
      </trkpt>
      <trkpt lat="44.9911950" lon="6.9908950">
        <ele>2590.8</ele>
        <time>2017-07-27T10:32:34Z</time>
      </trkpt>
      <trkpt lat="44.9911990" lon="6.9908850">
        <ele>2591.2</ele>
        <time>2017-07-27T10:32:35Z</time>
      </trkpt>
      <trkpt lat="44.9912220" lon="6.9908510">
        <ele>2592.0</ele>
        <time>2017-07-27T10:32:41Z</time>
      </trkpt>
      <trkpt lat="44.9912270" lon="6.9908610">
        <ele>2592.2</ele>
        <time>2017-07-27T10:32:42Z</time>
      </trkpt>
      <trkpt lat="44.9912350" lon="6.9909120">
        <ele>2593.2</ele>
        <time>2017-07-27T10:32:46Z</time>
      </trkpt>
      <trkpt lat="44.9912450" lon="6.9909350">
        <ele>2593.6</ele>
        <time>2017-07-27T10:32:48Z</time>
      </trkpt>
      <trkpt lat="44.9912540" lon="6.9909550">
        <ele>2594.4</ele>
        <time>2017-07-27T10:32:50Z</time>
      </trkpt>
      <trkpt lat="44.9912680" lon="6.9909700">
        <ele>2595.4</ele>
        <time>2017-07-27T10:32:53Z</time>
      </trkpt>
      <trkpt lat="44.9912680" lon="6.9910030">
        <ele>2596.0</ele>
        <time>2017-07-27T10:32:56Z</time>
      </trkpt>
      <trkpt lat="44.9912720" lon="6.9910160">
        <ele>2596.2</ele>
        <time>2017-07-27T10:32:57Z</time>
      </trkpt>
      <trkpt lat="44.9912760" lon="6.9910290">
        <ele>2596.6</ele>
        <time>2017-07-27T10:32:58Z</time>
      </trkpt>
      <trkpt lat="44.9912940" lon="6.9910680">
        <ele>2597.8</ele>
        <time>2017-07-27T10:33:03Z</time>
      </trkpt>
      <trkpt lat="44.9913050" lon="6.9911270">
        <ele>2599.0</ele>
        <time>2017-07-27T10:33:08Z</time>
      </trkpt>
      <trkpt lat="44.9913070" lon="6.9911560">
        <ele>2599.2</ele>
        <time>2017-07-27T10:33:10Z</time>
      </trkpt>
      <trkpt lat="44.9913160" lon="6.9912000">
        <ele>2600.0</ele>
        <time>2017-07-27T10:33:14Z</time>
      </trkpt>
      <trkpt lat="44.9913180" lon="6.9912090">
        <ele>2600.2</ele>
        <time>2017-07-27T10:33:15Z</time>
      </trkpt>
      <trkpt lat="44.9913220" lon="6.9912330">
        <ele>2600.6</ele>
        <time>2017-07-27T10:33:17Z</time>
      </trkpt>
      <trkpt lat="44.9913240" lon="6.9912750">
        <ele>2601.0</ele>
        <time>2017-07-27T10:33:20Z</time>
      </trkpt>
      <trkpt lat="44.9913260" lon="6.9912860">
        <ele>2601.2</ele>
        <time>2017-07-27T10:33:21Z</time>
      </trkpt>
      <trkpt lat="44.9913310" lon="6.9913040">
        <ele>2601.4</ele>
        <time>2017-07-27T10:33:23Z</time>
      </trkpt>
      <trkpt lat="44.9913500" lon="6.9912880">
        <ele>2601.6</ele>
        <time>2017-07-27T10:33:26Z</time>
      </trkpt>
      <trkpt lat="44.9913780" lon="6.9912580">
        <ele>2602.0</ele>
        <time>2017-07-27T10:33:30Z</time>
      </trkpt>
      <trkpt lat="44.9914020" lon="6.9912240">
        <ele>2602.0</ele>
        <time>2017-07-27T10:33:34Z</time>
      </trkpt>
      <trkpt lat="44.9914320" lon="6.9911620">
        <ele>2602.6</ele>
        <time>2017-07-27T10:33:40Z</time>
      </trkpt>
      <trkpt lat="44.9914400" lon="6.9911440">
        <ele>2602.8</ele>
        <time>2017-07-27T10:33:42Z</time>
      </trkpt>
      <trkpt lat="44.9914490" lon="6.9911210">
        <ele>2603.2</ele>
        <time>2017-07-27T10:33:44Z</time>
      </trkpt>
      <trkpt lat="44.9914640" lon="6.9910910">
        <ele>2603.8</ele>
        <time>2017-07-27T10:33:47Z</time>
      </trkpt>
      <trkpt lat="44.9914660" lon="6.9910690">
        <ele>2604.2</ele>
        <time>2017-07-27T10:33:49Z</time>
      </trkpt>
      <trkpt lat="44.9914760" lon="6.9910320">
        <ele>2605.2</ele>
        <time>2017-07-27T10:33:53Z</time>
      </trkpt>
      <trkpt lat="44.9914860" lon="6.9910070">
        <ele>2606.2</ele>
        <time>2017-07-27T10:33:56Z</time>
      </trkpt>
      <trkpt lat="44.9915070" lon="6.9910070">
        <ele>2607.4</ele>
        <time>2017-07-27T10:34:00Z</time>
      </trkpt>
      <trkpt lat="44.9915320" lon="6.9909900">
        <ele>2608.6</ele>
        <time>2017-07-27T10:34:04Z</time>
      </trkpt>
      <trkpt lat="44.9915540" lon="6.9909850">
        <ele>2610.0</ele>
        <time>2017-07-27T10:34:08Z</time>
      </trkpt>
      <trkpt lat="44.9915820" lon="6.9910070">
        <ele>2611.2</ele>
        <time>2017-07-27T10:34:12Z</time>
      </trkpt>
      <trkpt lat="44.9916030" lon="6.9910280">
        <ele>2612.6</ele>
        <time>2017-07-27T10:34:15Z</time>
      </trkpt>
      <trkpt lat="44.9916220" lon="6.9910610">
        <ele>2613.6</ele>
        <time>2017-07-27T10:34:18Z</time>
      </trkpt>
      <trkpt lat="44.9916330" lon="6.9911020">
        <ele>2615.0</ele>
        <time>2017-07-27T10:34:21Z</time>
      </trkpt>
      <trkpt lat="44.9916360" lon="6.9911200">
        <ele>2615.4</ele>
        <time>2017-07-27T10:34:22Z</time>
      </trkpt>
      <trkpt lat="44.9916440" lon="6.9911530">
        <ele>2616.2</ele>
        <time>2017-07-27T10:34:25Z</time>
      </trkpt>
      <trkpt lat="44.9916560" lon="6.9911900">
        <ele>2617.2</ele>
        <time>2017-07-27T10:34:29Z</time>
      </trkpt>
      <trkpt lat="44.9916600" lon="6.9912070">
        <ele>2617.4</ele>
        <time>2017-07-27T10:34:31Z</time>
      </trkpt>
      <trkpt lat="44.9916700" lon="6.9912460">
        <ele>2617.4</ele>
        <time>2017-07-27T10:34:34Z</time>
      </trkpt>
      <trkpt lat="44.9916880" lon="6.9913170">
        <ele>2616.8</ele>
        <time>2017-07-27T10:34:40Z</time>
      </trkpt>
      <trkpt lat="44.9916940" lon="6.9913280">
        <ele>2616.8</ele>
        <time>2017-07-27T10:34:41Z</time>
      </trkpt>
      <trkpt lat="44.9917120" lon="6.9913980">
        <ele>2617.0</ele>
        <time>2017-07-27T10:34:48Z</time>
      </trkpt>
      <trkpt lat="44.9917230" lon="6.9914650">
        <ele>2616.8</ele>
        <time>2017-07-27T10:34:54Z</time>
      </trkpt>
      <trkpt lat="44.9917600" lon="6.9915390">
        <ele>2618.2</ele>
        <time>2017-07-27T10:35:01Z</time>
      </trkpt>
      <trkpt lat="44.9917640" lon="6.9915510">
        <ele>2618.4</ele>
        <time>2017-07-27T10:35:02Z</time>
      </trkpt>
      <trkpt lat="44.9918090" lon="6.9916230">
        <ele>2619.4</ele>
        <time>2017-07-27T10:35:09Z</time>
      </trkpt>
      <trkpt lat="44.9918570" lon="6.9917020">
        <ele>2618.6</ele>
        <time>2017-07-27T10:35:18Z</time>
      </trkpt>
      <trkpt lat="44.9918850" lon="6.9917520">
        <ele>2618.2</ele>
        <time>2017-07-27T10:35:24Z</time>
      </trkpt>
      <trkpt lat="44.9918940" lon="6.9917610">
        <ele>2618.4</ele>
        <time>2017-07-27T10:35:25Z</time>
      </trkpt>
      <trkpt lat="44.9919380" lon="6.9918040">
        <ele>2618.4</ele>
        <time>2017-07-27T10:35:30Z</time>
      </trkpt>
      <trkpt lat="44.9919620" lon="6.9918280">
        <ele>2619.0</ele>
        <time>2017-07-27T10:35:33Z</time>
      </trkpt>
      <trkpt lat="44.9919840" lon="6.9918510">
        <ele>2619.6</ele>
        <time>2017-07-27T10:35:36Z</time>
      </trkpt>
      <trkpt lat="44.9920210" lon="6.9918880">
        <ele>2620.8</ele>
        <time>2017-07-27T10:35:40Z</time>
      </trkpt>
      <trkpt lat="44.9920600" lon="6.9919410">
        <ele>2621.6</ele>
        <time>2017-07-27T10:35:44Z</time>
      </trkpt>
      <trkpt lat="44.9920770" lon="6.9919690">
        <ele>2621.8</ele>
        <time>2017-07-27T10:35:46Z</time>
      </trkpt>
      <trkpt lat="44.9920890" lon="6.9919940">
        <ele>2622.0</ele>
        <time>2017-07-27T10:35:48Z</time>
      </trkpt>
      <trkpt lat="44.9920990" lon="6.9920280">
        <ele>2622.4</ele>
        <time>2017-07-27T10:35:51Z</time>
      </trkpt>
      <trkpt lat="44.9921350" lon="6.9920440">
        <ele>2622.4</ele>
        <time>2017-07-27T10:35:55Z</time>
      </trkpt>
      <trkpt lat="44.9921820" lon="6.9920390">
        <ele>2622.8</ele>
        <time>2017-07-27T10:36:00Z</time>
      </trkpt>
      <trkpt lat="44.9921860" lon="6.9920490">
        <ele>2623.0</ele>
        <time>2017-07-27T10:36:01Z</time>
      </trkpt>
      <trkpt lat="44.9922040" lon="6.9920880">
        <ele>2623.6</ele>
        <time>2017-07-27T10:36:05Z</time>
      </trkpt>
      <trkpt lat="44.9922240" lon="6.9920950">
        <ele>2624.0</ele>
        <time>2017-07-27T10:36:07Z</time>
      </trkpt>
      <trkpt lat="44.9922840" lon="6.9921230">
        <ele>2625.2</ele>
        <time>2017-07-27T10:36:13Z</time>
      </trkpt>
      <trkpt lat="44.9923400" lon="6.9921630">
        <ele>2626.0</ele>
        <time>2017-07-27T10:36:20Z</time>
      </trkpt>
      <trkpt lat="44.9924020" lon="6.9921630">
        <ele>2626.2</ele>
        <time>2017-07-27T10:36:25Z</time>
      </trkpt>
      <trkpt lat="44.9924250" lon="6.9921770">
        <ele>2626.4</ele>
        <time>2017-07-27T10:36:28Z</time>
      </trkpt>
      <trkpt lat="44.9924500" lon="6.9922090">
        <ele>2627.0</ele>
        <time>2017-07-27T10:36:32Z</time>
      </trkpt>
      <trkpt lat="44.9924550" lon="6.9922280">
        <ele>2627.4</ele>
        <time>2017-07-27T10:36:34Z</time>
      </trkpt>
      <trkpt lat="44.9924590" lon="6.9922530">
        <ele>2628.2</ele>
        <time>2017-07-27T10:36:38Z</time>
      </trkpt>
      <trkpt lat="44.9924610" lon="6.9922620">
        <ele>2628.6</ele>
        <time>2017-07-27T10:36:39Z</time>
      </trkpt>
      <trkpt lat="44.9924620" lon="6.9922730">
        <ele>2629.0</ele>
        <time>2017-07-27T10:36:40Z</time>
      </trkpt>
      <trkpt lat="44.9924670" lon="6.9923070">
        <ele>2630.0</ele>
        <time>2017-07-27T10:36:43Z</time>
      </trkpt>
      <trkpt lat="44.9924710" lon="6.9923400">
        <ele>2630.6</ele>
        <time>2017-07-27T10:36:46Z</time>
      </trkpt>
      <trkpt lat="44.9924720" lon="6.9923510">
        <ele>2630.8</ele>
        <time>2017-07-27T10:36:47Z</time>
      </trkpt>
      <trkpt lat="44.9924710" lon="6.9923620">
        <ele>2631.2</ele>
        <time>2017-07-27T10:36:48Z</time>
      </trkpt>
      <trkpt lat="44.9924760" lon="6.9923860">
        <ele>2631.6</ele>
        <time>2017-07-27T10:36:50Z</time>
      </trkpt>
      <trkpt lat="44.9924900" lon="6.9924120">
        <ele>2632.0</ele>
        <time>2017-07-27T10:36:53Z</time>
      </trkpt>
      <trkpt lat="44.9924960" lon="6.9924250">
        <ele>2632.2</ele>
        <time>2017-07-27T10:36:54Z</time>
      </trkpt>
      <trkpt lat="44.9925060" lon="6.9924400">
        <ele>2632.8</ele>
        <time>2017-07-27T10:36:56Z</time>
      </trkpt>
      <trkpt lat="44.9925160" lon="6.9924680">
        <ele>2633.2</ele>
        <time>2017-07-27T10:36:59Z</time>
      </trkpt>
      <trkpt lat="44.9925320" lon="6.9925210">
        <ele>2634.4</ele>
        <time>2017-07-27T10:37:04Z</time>
      </trkpt>
      <trkpt lat="44.9925470" lon="6.9925380">
        <ele>2635.0</ele>
        <time>2017-07-27T10:37:06Z</time>
      </trkpt>
      <trkpt lat="44.9925620" lon="6.9925630">
        <ele>2635.6</ele>
        <time>2017-07-27T10:37:09Z</time>
      </trkpt>
      <trkpt lat="44.9925710" lon="6.9925950">
        <ele>2635.8</ele>
        <time>2017-07-27T10:37:12Z</time>
      </trkpt>
      <trkpt lat="44.9925740" lon="6.9926110">
        <ele>2636.4</ele>
        <time>2017-07-27T10:37:14Z</time>
      </trkpt>
      <trkpt lat="44.9925760" lon="6.9926310">
        <ele>2636.8</ele>
        <time>2017-07-27T10:37:16Z</time>
      </trkpt>
      <trkpt lat="44.9925830" lon="6.9926660">
        <ele>2637.8</ele>
        <time>2017-07-27T10:37:20Z</time>
      </trkpt>
      <trkpt lat="44.9925930" lon="6.9926850">
        <ele>2638.8</ele>
        <time>2017-07-27T10:37:23Z</time>
      </trkpt>
      <trkpt lat="44.9926140" lon="6.9927100">
        <ele>2640.0</ele>
        <time>2017-07-27T10:37:27Z</time>
      </trkpt>
      <trkpt lat="44.9926230" lon="6.9927150">
        <ele>2640.4</ele>
        <time>2017-07-27T10:37:28Z</time>
      </trkpt>
      <trkpt lat="44.9926430" lon="6.9927270">
        <ele>2641.2</ele>
        <time>2017-07-27T10:37:30Z</time>
      </trkpt>
      <trkpt lat="44.9926880" lon="6.9927430">
        <ele>2642.0</ele>
        <time>2017-07-27T10:37:35Z</time>
      </trkpt>
      <trkpt lat="44.9927110" lon="6.9927690">
        <ele>2642.2</ele>
        <time>2017-07-27T10:37:40Z</time>
      </trkpt>
      <trkpt lat="44.9927210" lon="6.9927810">
        <ele>2642.2</ele>
        <time>2017-07-27T10:37:42Z</time>
      </trkpt>
      <trkpt lat="44.9927570" lon="6.9928220">
        <ele>2643.0</ele>
        <time>2017-07-27T10:37:50Z</time>
      </trkpt>
      <trkpt lat="44.9927670" lon="6.9928370">
        <ele>2643.4</ele>
        <time>2017-07-27T10:37:53Z</time>
      </trkpt>
      <trkpt lat="44.9927830" lon="6.9928530">
        <ele>2644.6</ele>
        <time>2017-07-27T10:37:56Z</time>
      </trkpt>
      <trkpt lat="44.9927920" lon="6.9928520">
        <ele>2645.0</ele>
        <time>2017-07-27T10:37:57Z</time>
      </trkpt>
      <trkpt lat="44.9928090" lon="6.9928480">
        <ele>2645.6</ele>
        <time>2017-07-27T10:37:59Z</time>
      </trkpt>
      <trkpt lat="44.9928320" lon="6.9928610">
        <ele>2647.0</ele>
        <time>2017-07-27T10:38:02Z</time>
      </trkpt>
      <trkpt lat="44.9928360" lon="6.9928660">
        <ele>2647.8</ele>
        <time>2017-07-27T10:38:03Z</time>
      </trkpt>
      <trkpt lat="44.9928430" lon="6.9928700">
        <ele>2648.2</ele>
        <time>2017-07-27T10:38:04Z</time>
      </trkpt>
      <trkpt lat="44.9928720" lon="6.9928880">
        <ele>2649.4</ele>
        <time>2017-07-27T10:38:07Z</time>
      </trkpt>
      <trkpt lat="44.9928950" lon="6.9929000">
        <ele>2650.4</ele>
        <time>2017-07-27T10:38:10Z</time>
      </trkpt>
      <trkpt lat="44.9928980" lon="6.9929090">
        <ele>2650.4</ele>
        <time>2017-07-27T10:38:11Z</time>
      </trkpt>
      <trkpt lat="44.9929490" lon="6.9929410">
        <ele>2650.8</ele>
        <time>2017-07-27T10:38:16Z</time>
      </trkpt>
      <trkpt lat="44.9929850" lon="6.9929660">
        <ele>2651.4</ele>
        <time>2017-07-27T10:38:20Z</time>
      </trkpt>
      <trkpt lat="44.9930010" lon="6.9929970">
        <ele>2651.2</ele>
        <time>2017-07-27T10:38:23Z</time>
      </trkpt>
      <trkpt lat="44.9930200" lon="6.9930230">
        <ele>2651.0</ele>
        <time>2017-07-27T10:38:26Z</time>
      </trkpt>
      <trkpt lat="44.9930470" lon="6.9930350">
        <ele>2650.8</ele>
        <time>2017-07-27T10:38:29Z</time>
      </trkpt>
      <trkpt lat="44.9931100" lon="6.9930720">
        <ele>2650.4</ele>
        <time>2017-07-27T10:38:36Z</time>
      </trkpt>
      <trkpt lat="44.9931270" lon="6.9930770">
        <ele>2650.2</ele>
        <time>2017-07-27T10:38:38Z</time>
      </trkpt>
      <trkpt lat="44.9931560" lon="6.9930710">
        <ele>2650.6</ele>
        <time>2017-07-27T10:38:41Z</time>
      </trkpt>
      <trkpt lat="44.9931980" lon="6.9930940">
        <ele>2651.2</ele>
        <time>2017-07-27T10:38:47Z</time>
      </trkpt>
      <trkpt lat="44.9932110" lon="6.9931060">
        <ele>2651.4</ele>
        <time>2017-07-27T10:38:49Z</time>
      </trkpt>
      <trkpt lat="44.9932330" lon="6.9931230">
        <ele>2652.4</ele>
        <time>2017-07-27T10:38:53Z</time>
      </trkpt>
      <trkpt lat="44.9932310" lon="6.9931220">
        <ele>2652.6</ele>
        <time>2017-07-27T10:38:54Z</time>
      </trkpt>
      <trkpt lat="44.9932540" lon="6.9931320">
        <ele>2653.4</ele>
        <time>2017-07-27T10:38:57Z</time>
      </trkpt>
      <trkpt lat="44.9932790" lon="6.9931360">
        <ele>2654.6</ele>
        <time>2017-07-27T10:39:00Z</time>
      </trkpt>
      <trkpt lat="44.9932910" lon="6.9931430">
        <ele>2655.2</ele>
        <time>2017-07-27T10:39:02Z</time>
      </trkpt>
      <trkpt lat="44.9933020" lon="6.9931450">
        <ele>2655.6</ele>
        <time>2017-07-27T10:39:03Z</time>
      </trkpt>
      <trkpt lat="44.9933340" lon="6.9931430">
        <ele>2656.8</ele>
        <time>2017-07-27T10:39:05Z</time>
      </trkpt>
      <trkpt lat="44.9933760" lon="6.9931490">
        <ele>2657.6</ele>
        <time>2017-07-27T10:39:08Z</time>
      </trkpt>
      <trkpt lat="44.9933900" lon="6.9931560">
        <ele>2658.0</ele>
        <time>2017-07-27T10:39:09Z</time>
      </trkpt>
      <trkpt lat="44.9934300" lon="6.9931790">
        <ele>2659.0</ele>
        <time>2017-07-27T10:39:13Z</time>
      </trkpt>
      <trkpt lat="44.9934410" lon="6.9931820">
        <ele>2659.2</ele>
        <time>2017-07-27T10:39:14Z</time>
      </trkpt>
      <trkpt lat="44.9934650" lon="6.9931870">
        <ele>2660.0</ele>
        <time>2017-07-27T10:39:16Z</time>
      </trkpt>
      <trkpt lat="44.9934890" lon="6.9932010">
        <ele>2661.2</ele>
        <time>2017-07-27T10:39:19Z</time>
      </trkpt>
      <trkpt lat="44.9935080" lon="6.9932100">
        <ele>2662.4</ele>
        <time>2017-07-27T10:39:21Z</time>
      </trkpt>
      <trkpt lat="44.9935240" lon="6.9932180">
        <ele>2663.6</ele>
        <time>2017-07-27T10:39:23Z</time>
      </trkpt>
      <trkpt lat="44.9935390" lon="6.9932250">
        <ele>2664.8</ele>
        <time>2017-07-27T10:39:25Z</time>
      </trkpt>
      <trkpt lat="44.9935440" lon="6.9932240">
        <ele>2665.8</ele>
        <time>2017-07-27T10:39:27Z</time>
      </trkpt>
      <trkpt lat="44.9935450" lon="6.9932240">
        <ele>2666.4</ele>
        <time>2017-07-27T10:39:28Z</time>
      </trkpt>
      <trkpt lat="44.9935450" lon="6.9932240">
        <ele>2667.2</ele>
        <time>2017-07-27T10:39:30Z</time>
      </trkpt>
      <trkpt lat="44.9935460" lon="6.9932270">
        <ele>2668.4</ele>
        <time>2017-07-27T10:39:35Z</time>
      </trkpt>
      <trkpt lat="44.9935540" lon="6.9932300">
        <ele>2669.0</ele>
        <time>2017-07-27T10:39:38Z</time>
      </trkpt>
      <trkpt lat="44.9935540" lon="6.9932300">
        <ele>2669.0</ele>
        <time>2017-07-27T10:39:40Z</time>
      </trkpt>
      <trkpt lat="44.9935620" lon="6.9932370">
        <ele>2668.8</ele>
        <time>2017-07-27T10:39:43Z</time>
      </trkpt>
      <trkpt lat="44.9935760" lon="6.9932410">
        <ele>2668.6</ele>
        <time>2017-07-27T10:39:44Z</time>
      </trkpt>
      <trkpt lat="44.9935970" lon="6.9932390">
        <ele>2668.0</ele>
        <time>2017-07-27T10:39:46Z</time>
      </trkpt>
      <trkpt lat="44.9936100" lon="6.9932440">
        <ele>2667.4</ele>
        <time>2017-07-27T10:39:48Z</time>
      </trkpt>
      <trkpt lat="44.9936120" lon="6.9932440">
        <ele>2667.0</ele>
        <time>2017-07-27T10:39:49Z</time>
      </trkpt>
      <trkpt lat="44.9936170" lon="6.9932660">
        <ele>2665.8</ele>
        <time>2017-07-27T10:39:52Z</time>
      </trkpt>
      <trkpt lat="44.9936080" lon="6.9932860">
        <ele>2664.6</ele>
        <time>2017-07-27T10:39:55Z</time>
      </trkpt>
      <trkpt lat="44.9936100" lon="6.9933040">
        <ele>2663.8</ele>
        <time>2017-07-27T10:39:57Z</time>
      </trkpt>
      <trkpt lat="44.9936110" lon="6.9932990">
        <ele>2663.4</ele>
        <time>2017-07-27T10:39:58Z</time>
      </trkpt>
      <trkpt lat="44.9936150" lon="6.9933040">
        <ele>2662.8</ele>
        <time>2017-07-27T10:40:01Z</time>
      </trkpt>
      <trkpt lat="44.9936020" lon="6.9933200">
        <ele>2662.8</ele>
        <time>2017-07-27T10:40:05Z</time>
      </trkpt>
      <trkpt lat="44.9935980" lon="6.9933440">
        <ele>2662.8</ele>
        <time>2017-07-27T10:40:06Z</time>
      </trkpt>
      <trkpt lat="44.9935860" lon="6.9934060">
        <ele>2661.8</ele>
        <time>2017-07-27T10:40:09Z</time>
      </trkpt>
      <trkpt lat="44.9935880" lon="6.9934700">
        <ele>2661.0</ele>
        <time>2017-07-27T10:40:11Z</time>
      </trkpt>
      <trkpt lat="44.9935860" lon="6.9935020">
        <ele>2660.4</ele>
        <time>2017-07-27T10:40:12Z</time>
      </trkpt>
      <trkpt lat="44.9935740" lon="6.9935540">
        <ele>2659.2</ele>
        <time>2017-07-27T10:40:14Z</time>
      </trkpt>
      <trkpt lat="44.9935780" lon="6.9935940">
        <ele>2657.6</ele>
        <time>2017-07-27T10:40:16Z</time>
      </trkpt>
      <trkpt lat="44.9936020" lon="6.9936120">
        <ele>2656.4</ele>
        <time>2017-07-27T10:40:18Z</time>
      </trkpt>
      <trkpt lat="44.9936010" lon="6.9936350">
        <ele>2655.4</ele>
        <time>2017-07-27T10:40:20Z</time>
      </trkpt>
      <trkpt lat="44.9935940" lon="6.9936550">
        <ele>2654.6</ele>
        <time>2017-07-27T10:40:21Z</time>
      </trkpt>
      <trkpt lat="44.9935630" lon="6.9937240">
        <ele>2653.4</ele>
        <time>2017-07-27T10:40:23Z</time>
      </trkpt>
      <trkpt lat="44.9935480" lon="6.9937630">
        <ele>2653.2</ele>
        <time>2017-07-27T10:40:24Z</time>
      </trkpt>
      <trkpt lat="44.9935230" lon="6.9938000">
        <ele>2652.4</ele>
        <time>2017-07-27T10:40:25Z</time>
      </trkpt>
      <trkpt lat="44.9934750" lon="6.9938540">
        <ele>2650.4</ele>
        <time>2017-07-27T10:40:27Z</time>
      </trkpt>
      <trkpt lat="44.9934580" lon="6.9938740">
        <ele>2649.8</ele>
        <time>2017-07-27T10:40:28Z</time>
      </trkpt>
      <trkpt lat="44.9934470" lon="6.9939020">
        <ele>2649.2</ele>
        <time>2017-07-27T10:40:29Z</time>
      </trkpt>
      <trkpt lat="44.9934290" lon="6.9939840">
        <ele>2647.8</ele>
        <time>2017-07-27T10:40:31Z</time>
      </trkpt>
      <trkpt lat="44.9934190" lon="6.9940400">
        <ele>2646.2</ele>
        <time>2017-07-27T10:40:33Z</time>
      </trkpt>
      <trkpt lat="44.9934670" lon="6.9940310">
        <ele>2645.2</ele>
        <time>2017-07-27T10:40:35Z</time>
      </trkpt>
      <trkpt lat="44.9935690" lon="6.9939840">
        <ele>2644.0</ele>
        <time>2017-07-27T10:40:38Z</time>
      </trkpt>
      <trkpt lat="44.9936050" lon="6.9939440">
        <ele>2643.6</ele>
        <time>2017-07-27T10:40:39Z</time>
      </trkpt>
      <trkpt lat="44.9936790" lon="6.9938920">
        <ele>2642.6</ele>
        <time>2017-07-27T10:40:41Z</time>
      </trkpt>
      <trkpt lat="44.9937080" lon="6.9938860">
        <ele>2642.0</ele>
        <time>2017-07-27T10:40:42Z</time>
      </trkpt>
      <trkpt lat="44.9937580" lon="6.9938950">
        <ele>2641.4</ele>
        <time>2017-07-27T10:40:44Z</time>
      </trkpt>
      <trkpt lat="44.9937920" lon="6.9938940">
        <ele>2641.2</ele>
        <time>2017-07-27T10:40:45Z</time>
      </trkpt>
      <trkpt lat="44.9938350" lon="6.9938950">
        <ele>2640.2</ele>
        <time>2017-07-27T10:40:46Z</time>
      </trkpt>
      <trkpt lat="44.9939180" lon="6.9939030">
        <ele>2639.4</ele>
        <time>2017-07-27T10:40:48Z</time>
      </trkpt>
      <trkpt lat="44.9939600" lon="6.9939110">
        <ele>2639.2</ele>
        <time>2017-07-27T10:40:49Z</time>
      </trkpt>
      <trkpt lat="44.9939940" lon="6.9938860">
        <ele>2638.4</ele>
        <time>2017-07-27T10:40:50Z</time>
      </trkpt>
      <trkpt lat="44.9940230" lon="6.9938610">
        <ele>2637.0</ele>
        <time>2017-07-27T10:40:51Z</time>
      </trkpt>
      <trkpt lat="44.9940790" lon="6.9938400">
        <ele>2635.6</ele>
        <time>2017-07-27T10:40:53Z</time>
      </trkpt>
      <trkpt lat="44.9941000" lon="6.9938550">
        <ele>2635.0</ele>
        <time>2017-07-27T10:40:54Z</time>
      </trkpt>
      <trkpt lat="44.9941160" lon="6.9938750">
        <ele>2634.6</ele>
        <time>2017-07-27T10:40:55Z</time>
      </trkpt>
      <trkpt lat="44.9941300" lon="6.9938950">
        <ele>2634.4</ele>
        <time>2017-07-27T10:40:56Z</time>
      </trkpt>
      <trkpt lat="44.9942100" lon="6.9939330">
        <ele>2633.4</ele>
        <time>2017-07-27T10:40:59Z</time>
      </trkpt>
      <trkpt lat="44.9942440" lon="6.9939000">
        <ele>2632.6</ele>
        <time>2017-07-27T10:41:00Z</time>
      </trkpt>
      <trkpt lat="44.9942680" lon="6.9938660">
        <ele>2632.2</ele>
        <time>2017-07-27T10:41:01Z</time>
      </trkpt>
      <trkpt lat="44.9943180" lon="6.9938510">
        <ele>2631.0</ele>
        <time>2017-07-27T10:41:03Z</time>
      </trkpt>
      <trkpt lat="44.9944180" lon="6.9938410">
        <ele>2630.2</ele>
        <time>2017-07-27T10:41:06Z</time>
      </trkpt>
      <trkpt lat="44.9944330" lon="6.9938300">
        <ele>2629.6</ele>
        <time>2017-07-27T10:41:07Z</time>
      </trkpt>
      <trkpt lat="44.9944570" lon="6.9937980">
        <ele>2628.6</ele>
        <time>2017-07-27T10:41:09Z</time>
      </trkpt>
      <trkpt lat="44.9944790" lon="6.9937840">
        <ele>2628.0</ele>
        <time>2017-07-27T10:41:10Z</time>
      </trkpt>
      <trkpt lat="44.9945400" lon="6.9937530">
        <ele>2627.2</ele>
        <time>2017-07-27T10:41:12Z</time>
      </trkpt>
      <trkpt lat="44.9946510" lon="6.9937480">
        <ele>2626.0</ele>
        <time>2017-07-27T10:41:15Z</time>
      </trkpt>
      <trkpt lat="44.9948000" lon="6.9937230">
        <ele>2624.8</ele>
        <time>2017-07-27T10:41:18Z</time>
      </trkpt>
      <trkpt lat="44.9949020" lon="6.9937200">
        <ele>2623.6</ele>
        <time>2017-07-27T10:41:20Z</time>
      </trkpt>
      <trkpt lat="44.9949500" lon="6.9937270">
        <ele>2622.8</ele>
        <time>2017-07-27T10:41:21Z</time>
      </trkpt>
      <trkpt lat="44.9949960" lon="6.9937530">
        <ele>2622.4</ele>
        <time>2017-07-27T10:41:22Z</time>
      </trkpt>
      <trkpt lat="44.9950880" lon="6.9937770">
        <ele>2621.2</ele>
        <time>2017-07-27T10:41:24Z</time>
      </trkpt>
      <trkpt lat="44.9951400" lon="6.9937850">
        <ele>2620.6</ele>
        <time>2017-07-27T10:41:25Z</time>
      </trkpt>
      <trkpt lat="44.9951940" lon="6.9937950">
        <ele>2620.0</ele>
        <time>2017-07-27T10:41:26Z</time>
      </trkpt>
      <trkpt lat="44.9952510" lon="6.9937870">
        <ele>2619.6</ele>
        <time>2017-07-27T10:41:27Z</time>
      </trkpt>
      <trkpt lat="44.9953050" lon="6.9937710">
        <ele>2619.0</ele>
        <time>2017-07-27T10:41:28Z</time>
      </trkpt>
      <trkpt lat="44.9954210" lon="6.9938010">
        <ele>2617.4</ele>
        <time>2017-07-27T10:41:30Z</time>
      </trkpt>
      <trkpt lat="44.9954650" lon="6.9938370">
        <ele>2616.6</ele>
        <time>2017-07-27T10:41:31Z</time>
      </trkpt>
      <trkpt lat="44.9954940" lon="6.9938910">
        <ele>2615.6</ele>
        <time>2017-07-27T10:41:32Z</time>
      </trkpt>
      <trkpt lat="44.9955560" lon="6.9939800">
        <ele>2613.8</ele>
        <time>2017-07-27T10:41:34Z</time>
      </trkpt>
      <trkpt lat="44.9956070" lon="6.9940820">
        <ele>2612.2</ele>
        <time>2017-07-27T10:41:36Z</time>
      </trkpt>
      <trkpt lat="44.9956240" lon="6.9941340">
        <ele>2611.2</ele>
        <time>2017-07-27T10:41:37Z</time>
      </trkpt>
      <trkpt lat="44.9956430" lon="6.9941860">
        <ele>2610.0</ele>
        <time>2017-07-27T10:41:38Z</time>
      </trkpt>
      <trkpt lat="44.9956650" lon="6.9942320">
        <ele>2608.4</ele>
        <time>2017-07-27T10:41:39Z</time>
      </trkpt>
      <trkpt lat="44.9956920" lon="6.9943290">
        <ele>2606.6</ele>
        <time>2017-07-27T10:41:41Z</time>
      </trkpt>
      <trkpt lat="44.9957340" lon="6.9943940">
        <ele>2604.6</ele>
        <time>2017-07-27T10:41:43Z</time>
      </trkpt>
      <trkpt lat="44.9957660" lon="6.9944790">
        <ele>2602.8</ele>
        <time>2017-07-27T10:41:45Z</time>
      </trkpt>
      <trkpt lat="44.9957860" lon="6.9945560">
        <ele>2600.8</ele>
        <time>2017-07-27T10:41:47Z</time>
      </trkpt>
      <trkpt lat="44.9957940" lon="6.9946170">
        <ele>2599.2</ele>
        <time>2017-07-27T10:41:49Z</time>
      </trkpt>
      <trkpt lat="44.9957940" lon="6.9946620">
        <ele>2597.6</ele>
        <time>2017-07-27T10:41:51Z</time>
      </trkpt>
      <trkpt lat="44.9957870" lon="6.9946980">
        <ele>2596.6</ele>
        <time>2017-07-27T10:41:52Z</time>
      </trkpt>
      <trkpt lat="44.9957720" lon="6.9947950">
        <ele>2595.0</ele>
        <time>2017-07-27T10:41:54Z</time>
      </trkpt>
      <trkpt lat="44.9957820" lon="6.9948510">
        <ele>2594.2</ele>
        <time>2017-07-27T10:41:55Z</time>
      </trkpt>
      <trkpt lat="44.9958050" lon="6.9949030">
        <ele>2593.4</ele>
        <time>2017-07-27T10:41:56Z</time>
      </trkpt>
      <trkpt lat="44.9958620" lon="6.9950310">
        <ele>2591.4</ele>
        <time>2017-07-27T10:41:58Z</time>
      </trkpt>
      <trkpt lat="44.9959000" lon="6.9950950">
        <ele>2590.6</ele>
        <time>2017-07-27T10:41:59Z</time>
      </trkpt>
      <trkpt lat="44.9959500" lon="6.9951460">
        <ele>2589.6</ele>
        <time>2017-07-27T10:42:00Z</time>
      </trkpt>
      <trkpt lat="44.9960440" lon="6.9951920">
        <ele>2588.2</ele>
        <time>2017-07-27T10:42:02Z</time>
      </trkpt>
      <trkpt lat="44.9960810" lon="6.9951960">
        <ele>2586.6</ele>
        <time>2017-07-27T10:42:03Z</time>
      </trkpt>
      <trkpt lat="44.9961470" lon="6.9952270">
        <ele>2585.2</ele>
        <time>2017-07-27T10:42:05Z</time>
      </trkpt>
      <trkpt lat="44.9961780" lon="6.9952150">
        <ele>2584.8</ele>
        <time>2017-07-27T10:42:06Z</time>
      </trkpt>
      <trkpt lat="44.9962070" lon="6.9952110">
        <ele>2584.4</ele>
        <time>2017-07-27T10:42:07Z</time>
      </trkpt>
      <trkpt lat="44.9962320" lon="6.9952110">
        <ele>2584.0</ele>
        <time>2017-07-27T10:42:08Z</time>
      </trkpt>
      <trkpt lat="44.9962890" lon="6.9952320">
        <ele>2583.0</ele>
        <time>2017-07-27T10:42:10Z</time>
      </trkpt>
      <trkpt lat="44.9963190" lon="6.9952600">
        <ele>2582.6</ele>
        <time>2017-07-27T10:42:11Z</time>
      </trkpt>
      <trkpt lat="44.9964020" lon="6.9953060">
        <ele>2581.6</ele>
        <time>2017-07-27T10:42:13Z</time>
      </trkpt>
      <trkpt lat="44.9964920" lon="6.9953520">
        <ele>2580.6</ele>
        <time>2017-07-27T10:42:15Z</time>
      </trkpt>
      <trkpt lat="44.9965820" lon="6.9954120">
        <ele>2579.4</ele>
        <time>2017-07-27T10:42:18Z</time>
      </trkpt>
      <trkpt lat="44.9965940" lon="6.9954380">
        <ele>2579.0</ele>
        <time>2017-07-27T10:42:19Z</time>
      </trkpt>
      <trkpt lat="44.9966050" lon="6.9954650">
        <ele>2578.6</ele>
        <time>2017-07-27T10:42:20Z</time>
      </trkpt>
      <trkpt lat="44.9966050" lon="6.9954950">
        <ele>2578.2</ele>
        <time>2017-07-27T10:42:21Z</time>
      </trkpt>
      <trkpt lat="44.9965870" lon="6.9955830">
        <ele>2577.2</ele>
        <time>2017-07-27T10:42:23Z</time>
      </trkpt>
      <trkpt lat="44.9965360" lon="6.9956740">
        <ele>2576.2</ele>
        <time>2017-07-27T10:42:25Z</time>
      </trkpt>
      <trkpt lat="44.9965120" lon="6.9957140">
        <ele>2575.8</ele>
        <time>2017-07-27T10:42:26Z</time>
      </trkpt>
      <trkpt lat="44.9964790" lon="6.9957440">
        <ele>2574.4</ele>
        <time>2017-07-27T10:42:27Z</time>
      </trkpt>
      <trkpt lat="44.9964090" lon="6.9957720">
        <ele>2573.0</ele>
        <time>2017-07-27T10:42:29Z</time>
      </trkpt>
      <trkpt lat="44.9963540" lon="6.9957800">
        <ele>2572.0</ele>
        <time>2017-07-27T10:42:31Z</time>
      </trkpt>
      <trkpt lat="44.9963430" lon="6.9958000">
        <ele>2571.8</ele>
        <time>2017-07-27T10:42:32Z</time>
      </trkpt>
      <trkpt lat="44.9963670" lon="6.9958310">
        <ele>2571.2</ele>
        <time>2017-07-27T10:42:34Z</time>
      </trkpt>
      <trkpt lat="44.9964230" lon="6.9958920">
        <ele>2570.6</ele>
        <time>2017-07-27T10:42:36Z</time>
      </trkpt>
      <trkpt lat="44.9965010" lon="6.9959540">
        <ele>2570.2</ele>
        <time>2017-07-27T10:42:38Z</time>
      </trkpt>
      <trkpt lat="44.9965410" lon="6.9959840">
        <ele>2569.6</ele>
        <time>2017-07-27T10:42:39Z</time>
      </trkpt>
      <trkpt lat="44.9965860" lon="6.9960090">
        <ele>2569.0</ele>
        <time>2017-07-27T10:42:40Z</time>
      </trkpt>
      <trkpt lat="44.9966870" lon="6.9960380">
        <ele>2567.8</ele>
        <time>2017-07-27T10:42:42Z</time>
      </trkpt>
      <trkpt lat="44.9967400" lon="6.9960430">
        <ele>2567.4</ele>
        <time>2017-07-27T10:42:43Z</time>
      </trkpt>
      <trkpt lat="44.9967920" lon="6.9960430">
        <ele>2566.8</ele>
        <time>2017-07-27T10:42:44Z</time>
      </trkpt>
      <trkpt lat="44.9968880" lon="6.9960750">
        <ele>2565.4</ele>
        <time>2017-07-27T10:42:46Z</time>
      </trkpt>
      <trkpt lat="44.9969940" lon="6.9961300">
        <ele>2563.6</ele>
        <time>2017-07-27T10:42:48Z</time>
      </trkpt>
      <trkpt lat="44.9970310" lon="6.9961650">
        <ele>2562.6</ele>
        <time>2017-07-27T10:42:49Z</time>
      </trkpt>
      <trkpt lat="44.9970670" lon="6.9961990">
        <ele>2561.8</ele>
        <time>2017-07-27T10:42:50Z</time>
      </trkpt>
      <trkpt lat="44.9971070" lon="6.9962300">
        <ele>2560.6</ele>
        <time>2017-07-27T10:42:51Z</time>
      </trkpt>
      <trkpt lat="44.9971520" lon="6.9962470">
        <ele>2559.8</ele>
        <time>2017-07-27T10:42:52Z</time>
      </trkpt>
      <trkpt lat="44.9971930" lon="6.9962610">
        <ele>2559.0</ele>
        <time>2017-07-27T10:42:53Z</time>
      </trkpt>
      <trkpt lat="44.9972710" lon="6.9962710">
        <ele>2557.4</ele>
        <time>2017-07-27T10:42:55Z</time>
      </trkpt>
      <trkpt lat="44.9973130" lon="6.9962730">
        <ele>2557.2</ele>
        <time>2017-07-27T10:42:56Z</time>
      </trkpt>
      <trkpt lat="44.9973910" lon="6.9962730">
        <ele>2556.4</ele>
        <time>2017-07-27T10:42:58Z</time>
      </trkpt>
      <trkpt lat="44.9974400" lon="6.9962620">
        <ele>2554.6</ele>
        <time>2017-07-27T10:43:00Z</time>
      </trkpt>
      <trkpt lat="44.9974590" lon="6.9962710">
        <ele>2552.8</ele>
        <time>2017-07-27T10:43:02Z</time>
      </trkpt>
      <trkpt lat="44.9974540" lon="6.9962780">
        <ele>2551.8</ele>
        <time>2017-07-27T10:43:04Z</time>
      </trkpt>
      <trkpt lat="44.9974430" lon="6.9962940">
        <ele>2551.2</ele>
        <time>2017-07-27T10:43:05Z</time>
      </trkpt>
      <trkpt lat="44.9974300" lon="6.9963120">
        <ele>2550.4</ele>
        <time>2017-07-27T10:43:06Z</time>
      </trkpt>
      <trkpt lat="44.9973920" lon="6.9963610">
        <ele>2548.8</ele>
        <time>2017-07-27T10:43:09Z</time>
      </trkpt>
      <trkpt lat="44.9973580" lon="6.9964250">
        <ele>2547.8</ele>
        <time>2017-07-27T10:43:11Z</time>
      </trkpt>
      <trkpt lat="44.9973260" lon="6.9964930">
        <ele>2546.4</ele>
        <time>2017-07-27T10:43:13Z</time>
      </trkpt>
      <trkpt lat="44.9973060" lon="6.9965640">
        <ele>2545.0</ele>
        <time>2017-07-27T10:43:15Z</time>
      </trkpt>
      <trkpt lat="44.9972890" lon="6.9966040">
        <ele>2543.4</ele>
        <time>2017-07-27T10:43:16Z</time>
      </trkpt>
      <trkpt lat="44.9972470" lon="6.9966900">
        <ele>2541.8</ele>
        <time>2017-07-27T10:43:18Z</time>
      </trkpt>
      <trkpt lat="44.9972450" lon="6.9967380">
        <ele>2541.2</ele>
        <time>2017-07-27T10:43:19Z</time>
      </trkpt>
      <trkpt lat="44.9972340" lon="6.9967760">
        <ele>2540.6</ele>
        <time>2017-07-27T10:43:20Z</time>
      </trkpt>
      <trkpt lat="44.9972130" lon="6.9968080">
        <ele>2540.2</ele>
        <time>2017-07-27T10:43:21Z</time>
      </trkpt>
      <trkpt lat="44.9971790" lon="6.9968870">
        <ele>2539.4</ele>
        <time>2017-07-27T10:43:23Z</time>
      </trkpt>
      <trkpt lat="44.9971410" lon="6.9970220">
        <ele>2538.0</ele>
        <time>2017-07-27T10:43:26Z</time>
      </trkpt>
      <trkpt lat="44.9971340" lon="6.9971200">
        <ele>2537.6</ele>
        <time>2017-07-27T10:43:28Z</time>
      </trkpt>
      <trkpt lat="44.9971210" lon="6.9972670">
        <ele>2536.4</ele>
        <time>2017-07-27T10:43:31Z</time>
      </trkpt>
      <trkpt lat="44.9970390" lon="6.9974350">
        <ele>2535.6</ele>
        <time>2017-07-27T10:43:35Z</time>
      </trkpt>
      <trkpt lat="44.9970170" lon="6.9974770">
        <ele>2535.6</ele>
        <time>2017-07-27T10:43:36Z</time>
      </trkpt>
      <trkpt lat="44.9970070" lon="6.9975250">
        <ele>2535.4</ele>
        <time>2017-07-27T10:43:37Z</time>
      </trkpt>
      <trkpt lat="44.9970100" lon="6.9976110">
        <ele>2534.6</ele>
        <time>2017-07-27T10:43:39Z</time>
      </trkpt>
      <trkpt lat="44.9970110" lon="6.9976550">
        <ele>2534.0</ele>
        <time>2017-07-27T10:43:40Z</time>
      </trkpt>
      <trkpt lat="44.9970280" lon="6.9976880">
        <ele>2533.8</ele>
        <time>2017-07-27T10:43:41Z</time>
      </trkpt>
      <trkpt lat="44.9970750" lon="6.9977140">
        <ele>2533.4</ele>
        <time>2017-07-27T10:43:43Z</time>
      </trkpt>
      <trkpt lat="44.9971010" lon="6.9977280">
        <ele>2533.0</ele>
        <time>2017-07-27T10:43:44Z</time>
      </trkpt>
      <trkpt lat="44.9972240" lon="6.9977160">
        <ele>2532.0</ele>
        <time>2017-07-27T10:43:47Z</time>
      </trkpt>
      <trkpt lat="44.9972720" lon="6.9977140">
        <ele>2531.8</ele>
        <time>2017-07-27T10:43:48Z</time>
      </trkpt>
      <trkpt lat="44.9973240" lon="6.9976710">
        <ele>2531.2</ele>
        <time>2017-07-27T10:43:50Z</time>
      </trkpt>
      <trkpt lat="44.9973470" lon="6.9976480">
        <ele>2530.6</ele>
        <time>2017-07-27T10:43:51Z</time>
      </trkpt>
      <trkpt lat="44.9973730" lon="6.9976470">
        <ele>2530.2</ele>
        <time>2017-07-27T10:43:52Z</time>
      </trkpt>
      <trkpt lat="44.9973980" lon="6.9976720">
        <ele>2529.6</ele>
        <time>2017-07-27T10:43:53Z</time>
      </trkpt>
      <trkpt lat="44.9974200" lon="6.9977150">
        <ele>2529.2</ele>
        <time>2017-07-27T10:43:54Z</time>
      </trkpt>
      <trkpt lat="44.9974340" lon="6.9978040">
        <ele>2528.4</ele>
        <time>2017-07-27T10:43:56Z</time>
      </trkpt>
      <trkpt lat="44.9974180" lon="6.9978410">
        <ele>2527.8</ele>
        <time>2017-07-27T10:43:57Z</time>
      </trkpt>
      <trkpt lat="44.9974020" lon="6.9978770">
        <ele>2527.2</ele>
        <time>2017-07-27T10:43:58Z</time>
      </trkpt>
      <trkpt lat="44.9974070" lon="6.9979080">
        <ele>2526.6</ele>
        <time>2017-07-27T10:43:59Z</time>
      </trkpt>
      <trkpt lat="44.9974240" lon="6.9979080">
        <ele>2526.0</ele>
        <time>2017-07-27T10:44:00Z</time>
      </trkpt>
      <trkpt lat="44.9974830" lon="6.9979090">
        <ele>2525.0</ele>
        <time>2017-07-27T10:44:02Z</time>
      </trkpt>
      <trkpt lat="44.9975490" lon="6.9978780">
        <ele>2523.8</ele>
        <time>2017-07-27T10:44:04Z</time>
      </trkpt>
      <trkpt lat="44.9976260" lon="6.9978330">
        <ele>2522.4</ele>
        <time>2017-07-27T10:44:06Z</time>
      </trkpt>
      <trkpt lat="44.9977020" lon="6.9977870">
        <ele>2520.8</ele>
        <time>2017-07-27T10:44:08Z</time>
      </trkpt>
      <trkpt lat="44.9977650" lon="6.9977960">
        <ele>2519.6</ele>
        <time>2017-07-27T10:44:10Z</time>
      </trkpt>
      <trkpt lat="44.9978120" lon="6.9978400">
        <ele>2517.8</ele>
        <time>2017-07-27T10:44:12Z</time>
      </trkpt>
      <trkpt lat="44.9978380" lon="6.9979400">
        <ele>2515.8</ele>
        <time>2017-07-27T10:44:14Z</time>
      </trkpt>
      <trkpt lat="44.9978360" lon="6.9979950">
        <ele>2515.0</ele>
        <time>2017-07-27T10:44:15Z</time>
      </trkpt>
      <trkpt lat="44.9978300" lon="6.9980480">
        <ele>2514.0</ele>
        <time>2017-07-27T10:44:16Z</time>
      </trkpt>
      <trkpt lat="44.9978110" lon="6.9981720">
        <ele>2512.0</ele>
        <time>2017-07-27T10:44:18Z</time>
      </trkpt>
      <trkpt lat="44.9978410" lon="6.9982400">
        <ele>2511.4</ele>
        <time>2017-07-27T10:44:19Z</time>
      </trkpt>
      <trkpt lat="44.9978810" lon="6.9982980">
        <ele>2510.8</ele>
        <time>2017-07-27T10:44:20Z</time>
      </trkpt>
      <trkpt lat="44.9979730" lon="6.9983640">
        <ele>2509.4</ele>
        <time>2017-07-27T10:44:22Z</time>
      </trkpt>
      <trkpt lat="44.9980610" lon="6.9983740">
        <ele>2508.2</ele>
        <time>2017-07-27T10:44:24Z</time>
      </trkpt>
      <trkpt lat="44.9981430" lon="6.9983290">
        <ele>2507.2</ele>
        <time>2017-07-27T10:44:26Z</time>
      </trkpt>
      <trkpt lat="44.9981910" lon="6.9983140">
        <ele>2507.2</ele>
        <time>2017-07-27T10:44:27Z</time>
      </trkpt>
      <trkpt lat="44.9982370" lon="6.9983130">
        <ele>2506.6</ele>
        <time>2017-07-27T10:44:28Z</time>
      </trkpt>
      <trkpt lat="44.9983190" lon="6.9982870">
        <ele>2505.6</ele>
        <time>2017-07-27T10:44:30Z</time>
      </trkpt>
      <trkpt lat="44.9983580" lon="6.9982800">
        <ele>2505.0</ele>
        <time>2017-07-27T10:44:31Z</time>
      </trkpt>
      <trkpt lat="44.9984750" lon="6.9982110">
        <ele>2503.6</ele>
        <time>2017-07-27T10:44:34Z</time>
      </trkpt>
      <trkpt lat="44.9985420" lon="6.9981950">
        <ele>2502.2</ele>
        <time>2017-07-27T10:44:36Z</time>
      </trkpt>
      <trkpt lat="44.9985630" lon="6.9982120">
        <ele>2501.6</ele>
        <time>2017-07-27T10:44:37Z</time>
      </trkpt>
      <trkpt lat="44.9985630" lon="6.9982430">
        <ele>2500.6</ele>
        <time>2017-07-27T10:44:38Z</time>
      </trkpt>
      <trkpt lat="44.9985560" lon="6.9982840">
        <ele>2499.4</ele>
        <time>2017-07-27T10:44:39Z</time>
      </trkpt>
      <trkpt lat="44.9985470" lon="6.9983310">
        <ele>2498.2</ele>
        <time>2017-07-27T10:44:40Z</time>
      </trkpt>
      <trkpt lat="44.9985440" lon="6.9983870">
        <ele>2497.0</ele>
        <time>2017-07-27T10:44:41Z</time>
      </trkpt>
      <trkpt lat="44.9985420" lon="6.9984970">
        <ele>2495.0</ele>
        <time>2017-07-27T10:44:43Z</time>
      </trkpt>
      <trkpt lat="44.9985380" lon="6.9985390">
        <ele>2493.8</ele>
        <time>2017-07-27T10:44:44Z</time>
      </trkpt>
      <trkpt lat="44.9985260" lon="6.9985650">
        <ele>2492.6</ele>
        <time>2017-07-27T10:44:45Z</time>
      </trkpt>
      <trkpt lat="44.9985100" lon="6.9985890">
        <ele>2491.4</ele>
        <time>2017-07-27T10:44:46Z</time>
      </trkpt>
      <trkpt lat="44.9984950" lon="6.9986230">
        <ele>2490.4</ele>
        <time>2017-07-27T10:44:47Z</time>
      </trkpt>
      <trkpt lat="44.9984870" lon="6.9986610">
        <ele>2489.2</ele>
        <time>2017-07-27T10:44:48Z</time>
      </trkpt>
      <trkpt lat="44.9984720" lon="6.9986840">
        <ele>2488.2</ele>
        <time>2017-07-27T10:44:49Z</time>
      </trkpt>
      <trkpt lat="44.9984610" lon="6.9987120">
        <ele>2486.8</ele>
        <time>2017-07-27T10:44:50Z</time>
      </trkpt>
      <trkpt lat="44.9984610" lon="6.9987340">
        <ele>2485.8</ele>
        <time>2017-07-27T10:44:51Z</time>
      </trkpt>
      <trkpt lat="44.9984790" lon="6.9987380">
        <ele>2484.2</ele>
        <time>2017-07-27T10:44:52Z</time>
      </trkpt>
      <trkpt lat="44.9985530" lon="6.9987010">
        <ele>2482.8</ele>
        <time>2017-07-27T10:44:54Z</time>
      </trkpt>
      <trkpt lat="44.9986000" lon="6.9986720">
        <ele>2482.0</ele>
        <time>2017-07-27T10:44:55Z</time>
      </trkpt>
      <trkpt lat="44.9986450" lon="6.9986590">
        <ele>2481.2</ele>
        <time>2017-07-27T10:44:56Z</time>
      </trkpt>
      <trkpt lat="44.9987310" lon="6.9985970">
        <ele>2479.6</ele>
        <time>2017-07-27T10:44:58Z</time>
      </trkpt>
      <trkpt lat="44.9987860" lon="6.9985880">
        <ele>2478.2</ele>
        <time>2017-07-27T10:45:00Z</time>
      </trkpt>
      <trkpt lat="44.9987860" lon="6.9986150">
        <ele>2477.4</ele>
        <time>2017-07-27T10:45:01Z</time>
      </trkpt>
      <trkpt lat="44.9987700" lon="6.9986500">
        <ele>2476.6</ele>
        <time>2017-07-27T10:45:02Z</time>
      </trkpt>
      <trkpt lat="44.9987130" lon="6.9987530">
        <ele>2475.0</ele>
        <time>2017-07-27T10:45:04Z</time>
      </trkpt>
      <trkpt lat="44.9986560" lon="6.9988450">
        <ele>2473.2</ele>
        <time>2017-07-27T10:45:06Z</time>
      </trkpt>
      <trkpt lat="44.9985870" lon="6.9989670">
        <ele>2471.8</ele>
        <time>2017-07-27T10:45:08Z</time>
      </trkpt>
      <trkpt lat="44.9985350" lon="6.9991000">
        <ele>2470.0</ele>
        <time>2017-07-27T10:45:10Z</time>
      </trkpt>
      <trkpt lat="44.9985130" lon="6.9991640">
        <ele>2468.8</ele>
        <time>2017-07-27T10:45:11Z</time>
      </trkpt>
      <trkpt lat="44.9984880" lon="6.9992190">
        <ele>2467.8</ele>
        <time>2017-07-27T10:45:12Z</time>
      </trkpt>
      <trkpt lat="44.9984950" lon="6.9993040">
        <ele>2466.2</ele>
        <time>2017-07-27T10:45:14Z</time>
      </trkpt>
      <trkpt lat="44.9985000" lon="6.9993450">
        <ele>2465.4</ele>
        <time>2017-07-27T10:45:15Z</time>
      </trkpt>
      <trkpt lat="44.9984920" lon="6.9993900">
        <ele>2463.8</ele>
        <time>2017-07-27T10:45:16Z</time>
      </trkpt>
      <trkpt lat="44.9984840" lon="6.9994400">
        <ele>2463.0</ele>
        <time>2017-07-27T10:45:17Z</time>
      </trkpt>
      <trkpt lat="44.9984690" lon="6.9994860">
        <ele>2462.2</ele>
        <time>2017-07-27T10:45:18Z</time>
      </trkpt>
      <trkpt lat="44.9984550" lon="6.9995310">
        <ele>2461.0</ele>
        <time>2017-07-27T10:45:19Z</time>
      </trkpt>
      <trkpt lat="44.9984410" lon="6.9995720">
        <ele>2460.0</ele>
        <time>2017-07-27T10:45:20Z</time>
      </trkpt>
      <trkpt lat="44.9984300" lon="6.9996130">
        <ele>2458.8</ele>
        <time>2017-07-27T10:45:21Z</time>
      </trkpt>
      <trkpt lat="44.9984370" lon="6.9996350">
        <ele>2458.2</ele>
        <time>2017-07-27T10:45:22Z</time>
      </trkpt>
      <trkpt lat="44.9984500" lon="6.9996360">
        <ele>2457.4</ele>
        <time>2017-07-27T10:45:23Z</time>
      </trkpt>
      <trkpt lat="44.9984840" lon="6.9995990">
        <ele>2456.2</ele>
        <time>2017-07-27T10:45:25Z</time>
      </trkpt>
      <trkpt lat="44.9985090" lon="6.9996030">
        <ele>2455.6</ele>
        <time>2017-07-27T10:45:26Z</time>
      </trkpt>
      <trkpt lat="44.9985180" lon="6.9996230">
        <ele>2455.0</ele>
        <time>2017-07-27T10:45:27Z</time>
      </trkpt>
      <trkpt lat="44.9985020" lon="6.9996630">
        <ele>2453.6</ele>
        <time>2017-07-27T10:45:29Z</time>
      </trkpt>
      <trkpt lat="44.9984790" lon="6.9997090">
        <ele>2452.4</ele>
        <time>2017-07-27T10:45:31Z</time>
      </trkpt>
      <trkpt lat="44.9984510" lon="6.9997520">
        <ele>2451.2</ele>
        <time>2017-07-27T10:45:33Z</time>
      </trkpt>
      <trkpt lat="44.9984250" lon="6.9998150">
        <ele>2449.8</ele>
        <time>2017-07-27T10:45:35Z</time>
      </trkpt>
      <trkpt lat="44.9983930" lon="6.9998680">
        <ele>2448.4</ele>
        <time>2017-07-27T10:45:37Z</time>
      </trkpt>
      <trkpt lat="44.9983810" lon="6.9999400">
        <ele>2447.4</ele>
        <time>2017-07-27T10:45:39Z</time>
      </trkpt>
      <trkpt lat="44.9984170" lon="7.0000150">
        <ele>2445.8</ele>
        <time>2017-07-27T10:45:41Z</time>
      </trkpt>
      <trkpt lat="44.9984490" lon="7.0000210">
        <ele>2445.4</ele>
        <time>2017-07-27T10:45:42Z</time>
      </trkpt>
      <trkpt lat="44.9985270" lon="6.9999420">
        <ele>2444.6</ele>
        <time>2017-07-27T10:45:45Z</time>
      </trkpt>
      <trkpt lat="44.9986070" lon="6.9998640">
        <ele>2443.8</ele>
        <time>2017-07-27T10:45:48Z</time>
      </trkpt>
      <trkpt lat="44.9986360" lon="6.9998190">
        <ele>2443.6</ele>
        <time>2017-07-27T10:45:49Z</time>
      </trkpt>
      <trkpt lat="44.9986870" lon="6.9997210">
        <ele>2443.0</ele>
        <time>2017-07-27T10:45:51Z</time>
      </trkpt>
      <trkpt lat="44.9987520" lon="6.9996350">
        <ele>2443.0</ele>
        <time>2017-07-27T10:45:53Z</time>
      </trkpt>
      <trkpt lat="44.9988020" lon="6.9995840">
        <ele>2442.8</ele>
        <time>2017-07-27T10:45:54Z</time>
      </trkpt>
      <trkpt lat="44.9988510" lon="6.9995530">
        <ele>2442.2</ele>
        <time>2017-07-27T10:45:55Z</time>
      </trkpt>
      <trkpt lat="44.9989340" lon="6.9995180">
        <ele>2441.6</ele>
        <time>2017-07-27T10:45:57Z</time>
      </trkpt>
      <trkpt lat="44.9989710" lon="6.9994990">
        <ele>2441.2</ele>
        <time>2017-07-27T10:45:58Z</time>
      </trkpt>
      <trkpt lat="44.9990550" lon="6.9994530">
        <ele>2440.2</ele>
        <time>2017-07-27T10:46:01Z</time>
      </trkpt>
      <trkpt lat="44.9990650" lon="6.9994520">
        <ele>2439.6</ele>
        <time>2017-07-27T10:46:02Z</time>
      </trkpt>
      <trkpt lat="44.9990660" lon="6.9994530">
        <ele>2439.0</ele>
        <time>2017-07-27T10:46:03Z</time>
      </trkpt>
      <trkpt lat="44.9990640" lon="6.9994520">
        <ele>2437.8</ele>
        <time>2017-07-27T10:46:04Z</time>
      </trkpt>
      <trkpt lat="44.9990630" lon="6.9994840">
        <ele>2436.4</ele>
        <time>2017-07-27T10:46:07Z</time>
      </trkpt>
      <trkpt lat="44.9990540" lon="6.9994950">
        <ele>2435.2</ele>
        <time>2017-07-27T10:46:09Z</time>
      </trkpt>
      <trkpt lat="44.9990540" lon="6.9995320">
        <ele>2433.8</ele>
        <time>2017-07-27T10:46:12Z</time>
      </trkpt>
      <trkpt lat="44.9990350" lon="6.9995950">
        <ele>2432.2</ele>
        <time>2017-07-27T10:46:15Z</time>
      </trkpt>
      <trkpt lat="44.9990310" lon="6.9996540">
        <ele>2431.0</ele>
        <time>2017-07-27T10:46:17Z</time>
      </trkpt>
      <trkpt lat="44.9990130" lon="6.9997670">
        <ele>2429.8</ele>
        <time>2017-07-27T10:46:20Z</time>
      </trkpt>
      <trkpt lat="44.9989900" lon="6.9997940">
        <ele>2429.2</ele>
        <time>2017-07-27T10:46:21Z</time>
      </trkpt>
      <trkpt lat="44.9989690" lon="6.9998310">
        <ele>2428.6</ele>
        <time>2017-07-27T10:46:22Z</time>
      </trkpt>
      <trkpt lat="44.9989380" lon="6.9999290">
        <ele>2427.2</ele>
        <time>2017-07-27T10:46:25Z</time>
      </trkpt>
      <trkpt lat="44.9990190" lon="6.9999390">
        <ele>2426.0</ele>
        <time>2017-07-27T10:46:28Z</time>
      </trkpt>
      <trkpt lat="44.9990450" lon="6.9999350">
        <ele>2425.6</ele>
        <time>2017-07-27T10:46:29Z</time>
      </trkpt>
      <trkpt lat="44.9990890" lon="6.9999350">
        <ele>2424.6</ele>
        <time>2017-07-27T10:46:31Z</time>
      </trkpt>
      <trkpt lat="44.9991420" lon="6.9999470">
        <ele>2423.8</ele>
        <time>2017-07-27T10:46:33Z</time>
      </trkpt>
      <trkpt lat="44.9991720" lon="6.9999390">
        <ele>2423.2</ele>
        <time>2017-07-27T10:46:34Z</time>
      </trkpt>
      <trkpt lat="44.9991890" lon="6.9998980">
        <ele>2422.6</ele>
        <time>2017-07-27T10:46:35Z</time>
      </trkpt>
      <trkpt lat="44.9992030" lon="6.9998660">
        <ele>2422.0</ele>
        <time>2017-07-27T10:46:36Z</time>
      </trkpt>
      <trkpt lat="44.9992280" lon="6.9998450">
        <ele>2421.6</ele>
        <time>2017-07-27T10:46:37Z</time>
      </trkpt>
      <trkpt lat="44.9992900" lon="6.9997990">
        <ele>2420.8</ele>
        <time>2017-07-27T10:46:39Z</time>
      </trkpt>
      <trkpt lat="44.9993800" lon="6.9997530">
        <ele>2419.6</ele>
        <time>2017-07-27T10:46:42Z</time>
      </trkpt>
      <trkpt lat="44.9994010" lon="6.9998060">
        <ele>2418.0</ele>
        <time>2017-07-27T10:46:45Z</time>
      </trkpt>
      <trkpt lat="44.9993920" lon="6.9998660">
        <ele>2416.8</ele>
        <time>2017-07-27T10:46:47Z</time>
      </trkpt>
      <trkpt lat="44.9993970" lon="6.9999720">
        <ele>2416.0</ele>
        <time>2017-07-27T10:46:49Z</time>
      </trkpt>
      <trkpt lat="44.9993970" lon="7.0000350">
        <ele>2415.2</ele>
        <time>2017-07-27T10:46:50Z</time>
      </trkpt>
      <trkpt lat="44.9993810" lon="7.0001040">
        <ele>2414.4</ele>
        <time>2017-07-27T10:46:51Z</time>
      </trkpt>
      <trkpt lat="44.9993540" lon="7.0001650">
        <ele>2413.2</ele>
        <time>2017-07-27T10:46:52Z</time>
      </trkpt>
      <trkpt lat="44.9993220" lon="7.0002100">
        <ele>2412.8</ele>
        <time>2017-07-27T10:46:53Z</time>
      </trkpt>
      <trkpt lat="44.9993030" lon="7.0002600">
        <ele>2412.0</ele>
        <time>2017-07-27T10:46:54Z</time>
      </trkpt>
      <trkpt lat="44.9993330" lon="7.0003210">
        <ele>2411.0</ele>
        <time>2017-07-27T10:46:56Z</time>
      </trkpt>
      <trkpt lat="44.9993990" lon="7.0003210">
        <ele>2409.8</ele>
        <time>2017-07-27T10:46:58Z</time>
      </trkpt>
      <trkpt lat="44.9994370" lon="7.0003140">
        <ele>2409.0</ele>
        <time>2017-07-27T10:46:59Z</time>
      </trkpt>
      <trkpt lat="44.9994820" lon="7.0003050">
        <ele>2408.4</ele>
        <time>2017-07-27T10:47:00Z</time>
      </trkpt>
      <trkpt lat="44.9995250" lon="7.0002920">
        <ele>2408.0</ele>
        <time>2017-07-27T10:47:01Z</time>
      </trkpt>
      <trkpt lat="44.9995630" lon="7.0002830">
        <ele>2407.4</ele>
        <time>2017-07-27T10:47:02Z</time>
      </trkpt>
      <trkpt lat="44.9996020" lon="7.0002830">
        <ele>2406.8</ele>
        <time>2017-07-27T10:47:03Z</time>
      </trkpt>
      <trkpt lat="44.9996270" lon="7.0002960">
        <ele>2406.0</ele>
        <time>2017-07-27T10:47:04Z</time>
      </trkpt>
      <trkpt lat="44.9996800" lon="7.0002850">
        <ele>2405.0</ele>
        <time>2017-07-27T10:47:06Z</time>
      </trkpt>
      <trkpt lat="44.9997010" lon="7.0002580">
        <ele>2404.6</ele>
        <time>2017-07-27T10:47:07Z</time>
      </trkpt>
      <trkpt lat="44.9997200" lon="7.0002260">
        <ele>2404.0</ele>
        <time>2017-07-27T10:47:08Z</time>
      </trkpt>
      <trkpt lat="44.9997300" lon="7.0001790">
        <ele>2403.4</ele>
        <time>2017-07-27T10:47:09Z</time>
      </trkpt>
      <trkpt lat="44.9997310" lon="7.0001160">
        <ele>2402.8</ele>
        <time>2017-07-27T10:47:10Z</time>
      </trkpt>
      <trkpt lat="44.9997660" lon="6.9999970">
        <ele>2401.4</ele>
        <time>2017-07-27T10:47:12Z</time>
      </trkpt>
      <trkpt lat="44.9998360" lon="6.9999600">
        <ele>2400.0</ele>
        <time>2017-07-27T10:47:15Z</time>
      </trkpt>
      <trkpt lat="44.9998590" lon="6.9999680">
        <ele>2398.8</ele>
        <time>2017-07-27T10:47:16Z</time>
      </trkpt>
      <trkpt lat="44.9998950" lon="7.0000110">
        <ele>2397.4</ele>
        <time>2017-07-27T10:47:18Z</time>
      </trkpt>
      <trkpt lat="44.9999450" lon="7.0000640">
        <ele>2396.2</ele>
        <time>2017-07-27T10:47:20Z</time>
      </trkpt>
      <trkpt lat="45.0000270" lon="7.0001120">
        <ele>2395.0</ele>
        <time>2017-07-27T10:47:23Z</time>
      </trkpt>
      <trkpt lat="45.0000400" lon="7.0001120">
        <ele>2394.4</ele>
        <time>2017-07-27T10:47:24Z</time>
      </trkpt>
      <trkpt lat="45.0000480" lon="7.0001240">
        <ele>2393.4</ele>
        <time>2017-07-27T10:47:26Z</time>
      </trkpt>
      <trkpt lat="45.0000610" lon="7.0001540">
        <ele>2392.2</ele>
        <time>2017-07-27T10:47:29Z</time>
      </trkpt>
      <trkpt lat="45.0000820" lon="7.0001690">
        <ele>2391.8</ele>
        <time>2017-07-27T10:47:30Z</time>
      </trkpt>
      <trkpt lat="45.0001270" lon="7.0001450">
        <ele>2391.0</ele>
        <time>2017-07-27T10:47:32Z</time>
      </trkpt>
      <trkpt lat="45.0001520" lon="7.0001230">
        <ele>2390.4</ele>
        <time>2017-07-27T10:47:33Z</time>
      </trkpt>
      <trkpt lat="45.0001900" lon="7.0001010">
        <ele>2389.8</ele>
        <time>2017-07-27T10:47:34Z</time>
      </trkpt>
      <trkpt lat="45.0002650" lon="7.0000820">
        <ele>2389.0</ele>
        <time>2017-07-27T10:47:36Z</time>
      </trkpt>
      <trkpt lat="45.0002880" lon="7.0000930">
        <ele>2388.4</ele>
        <time>2017-07-27T10:47:37Z</time>
      </trkpt>
      <trkpt lat="45.0003440" lon="7.0000950">
        <ele>2387.2</ele>
        <time>2017-07-27T10:47:39Z</time>
      </trkpt>
      <trkpt lat="45.0003770" lon="7.0001050">
        <ele>2386.2</ele>
        <time>2017-07-27T10:47:40Z</time>
      </trkpt>
      <trkpt lat="45.0004000" lon="7.0001250">
        <ele>2385.6</ele>
        <time>2017-07-27T10:47:41Z</time>
      </trkpt>
      <trkpt lat="45.0004510" lon="7.0001590">
        <ele>2384.6</ele>
        <time>2017-07-27T10:47:43Z</time>
      </trkpt>
      <trkpt lat="45.0004590" lon="7.0001900">
        <ele>2384.2</ele>
        <time>2017-07-27T10:47:44Z</time>
      </trkpt>
      <trkpt lat="45.0004590" lon="7.0002230">
        <ele>2383.4</ele>
        <time>2017-07-27T10:47:45Z</time>
      </trkpt>
      <trkpt lat="45.0004590" lon="7.0002680">
        <ele>2382.6</ele>
        <time>2017-07-27T10:47:46Z</time>
      </trkpt>
      <trkpt lat="45.0004570" lon="7.0003140">
        <ele>2382.0</ele>
        <time>2017-07-27T10:47:47Z</time>
      </trkpt>
      <trkpt lat="45.0004560" lon="7.0003690">
        <ele>2381.2</ele>
        <time>2017-07-27T10:47:48Z</time>
      </trkpt>
      <trkpt lat="45.0004580" lon="7.0004190">
        <ele>2380.4</ele>
        <time>2017-07-27T10:47:49Z</time>
      </trkpt>
      <trkpt lat="45.0004750" lon="7.0004580">
        <ele>2379.8</ele>
        <time>2017-07-27T10:47:50Z</time>
      </trkpt>
      <trkpt lat="45.0004930" lon="7.0004810">
        <ele>2379.0</ele>
        <time>2017-07-27T10:47:51Z</time>
      </trkpt>
      <trkpt lat="45.0005350" lon="7.0004770">
        <ele>2378.8</ele>
        <time>2017-07-27T10:47:52Z</time>
      </trkpt>
      <trkpt lat="45.0006190" lon="7.0004700">
        <ele>2378.0</ele>
        <time>2017-07-27T10:47:54Z</time>
      </trkpt>
      <trkpt lat="45.0006850" lon="7.0004820">
        <ele>2376.4</ele>
        <time>2017-07-27T10:47:56Z</time>
      </trkpt>
      <trkpt lat="45.0007190" lon="7.0005290">
        <ele>2374.6</ele>
        <time>2017-07-27T10:47:58Z</time>
      </trkpt>
      <trkpt lat="45.0006970" lon="7.0005820">
        <ele>2373.6</ele>
        <time>2017-07-27T10:47:59Z</time>
      </trkpt>
      <trkpt lat="45.0006400" lon="7.0006710">
        <ele>2371.6</ele>
        <time>2017-07-27T10:48:01Z</time>
      </trkpt>
      <trkpt lat="45.0005780" lon="7.0007520">
        <ele>2369.8</ele>
        <time>2017-07-27T10:48:03Z</time>
      </trkpt>
      <trkpt lat="45.0005500" lon="7.0007750">
        <ele>2368.2</ele>
        <time>2017-07-27T10:48:04Z</time>
      </trkpt>
      <trkpt lat="45.0005330" lon="7.0008400">
        <ele>2366.6</ele>
        <time>2017-07-27T10:48:06Z</time>
      </trkpt>
      <trkpt lat="45.0005500" lon="7.0008600">
        <ele>2365.8</ele>
        <time>2017-07-27T10:48:07Z</time>
      </trkpt>
      <trkpt lat="45.0005820" lon="7.0008620">
        <ele>2365.0</ele>
        <time>2017-07-27T10:48:08Z</time>
      </trkpt>
      <trkpt lat="45.0006880" lon="7.0008570">
        <ele>2363.4</ele>
        <time>2017-07-27T10:48:10Z</time>
      </trkpt>
      <trkpt lat="45.0007740" lon="7.0008360">
        <ele>2362.2</ele>
        <time>2017-07-27T10:48:12Z</time>
      </trkpt>
      <trkpt lat="45.0008350" lon="7.0008720">
        <ele>2360.6</ele>
        <time>2017-07-27T10:48:14Z</time>
      </trkpt>
      <trkpt lat="45.0008860" lon="7.0009240">
        <ele>2359.0</ele>
        <time>2017-07-27T10:48:16Z</time>
      </trkpt>
      <trkpt lat="45.0009070" lon="7.0009400">
        <ele>2358.4</ele>
        <time>2017-07-27T10:48:17Z</time>
      </trkpt>
      <trkpt lat="45.0009080" lon="7.0009620">
        <ele>2357.4</ele>
        <time>2017-07-27T10:48:18Z</time>
      </trkpt>
      <trkpt lat="45.0008950" lon="7.0009830">
        <ele>2356.6</ele>
        <time>2017-07-27T10:48:19Z</time>
      </trkpt>
      <trkpt lat="45.0008770" lon="7.0010090">
        <ele>2355.6</ele>
        <time>2017-07-27T10:48:20Z</time>
      </trkpt>
      <trkpt lat="45.0008330" lon="7.0010490">
        <ele>2353.8</ele>
        <time>2017-07-27T10:48:22Z</time>
      </trkpt>
      <trkpt lat="45.0008250" lon="7.0010850">
        <ele>2353.0</ele>
        <time>2017-07-27T10:48:23Z</time>
      </trkpt>
      <trkpt lat="45.0008340" lon="7.0011140">
        <ele>2352.4</ele>
        <time>2017-07-27T10:48:24Z</time>
      </trkpt>
      <trkpt lat="45.0008920" lon="7.0011650">
        <ele>2351.4</ele>
        <time>2017-07-27T10:48:26Z</time>
      </trkpt>
      <trkpt lat="45.0008880" lon="7.0012300">
        <ele>2348.8</ele>
        <time>2017-07-27T10:48:28Z</time>
      </trkpt>
      <trkpt lat="45.0008840" lon="7.0012760">
        <ele>2348.0</ele>
        <time>2017-07-27T10:48:29Z</time>
      </trkpt>
      <trkpt lat="45.0009010" lon="7.0013250">
        <ele>2347.4</ele>
        <time>2017-07-27T10:48:30Z</time>
      </trkpt>
      <trkpt lat="45.0009430" lon="7.0014150">
        <ele>2345.8</ele>
        <time>2017-07-27T10:48:32Z</time>
      </trkpt>
      <trkpt lat="45.0009630" lon="7.0014660">
        <ele>2344.8</ele>
        <time>2017-07-27T10:48:33Z</time>
      </trkpt>
      <trkpt lat="45.0010060" lon="7.0015650">
        <ele>2343.4</ele>
        <time>2017-07-27T10:48:35Z</time>
      </trkpt>
      <trkpt lat="45.0010540" lon="7.0016330">
        <ele>2341.6</ele>
        <time>2017-07-27T10:48:37Z</time>
      </trkpt>
      <trkpt lat="45.0010760" lon="7.0016940">
        <ele>2340.4</ele>
        <time>2017-07-27T10:48:39Z</time>
      </trkpt>
      <trkpt lat="45.0011000" lon="7.0017170">
        <ele>2339.4</ele>
        <time>2017-07-27T10:48:40Z</time>
      </trkpt>
      <trkpt lat="45.0011240" lon="7.0017380">
        <ele>2338.8</ele>
        <time>2017-07-27T10:48:41Z</time>
      </trkpt>
      <trkpt lat="45.0011730" lon="7.0017970">
        <ele>2337.6</ele>
        <time>2017-07-27T10:48:43Z</time>
      </trkpt>
      <trkpt lat="45.0011910" lon="7.0018310">
        <ele>2336.8</ele>
        <time>2017-07-27T10:48:44Z</time>
      </trkpt>
      <trkpt lat="45.0012060" lon="7.0018680">
        <ele>2336.0</ele>
        <time>2017-07-27T10:48:45Z</time>
      </trkpt>
      <trkpt lat="45.0012480" lon="7.0019780">
        <ele>2334.8</ele>
        <time>2017-07-27T10:48:47Z</time>
      </trkpt>
      <trkpt lat="45.0012690" lon="7.0020500">
        <ele>2334.0</ele>
        <time>2017-07-27T10:48:48Z</time>
      </trkpt>
      <trkpt lat="45.0012820" lon="7.0021260">
        <ele>2333.0</ele>
        <time>2017-07-27T10:48:49Z</time>
      </trkpt>
      <trkpt lat="45.0012990" lon="7.0021970">
        <ele>2331.8</ele>
        <time>2017-07-27T10:48:50Z</time>
      </trkpt>
      <trkpt lat="45.0013060" lon="7.0022640">
        <ele>2331.0</ele>
        <time>2017-07-27T10:48:51Z</time>
      </trkpt>
      <trkpt lat="45.0013160" lon="7.0023270">
        <ele>2329.4</ele>
        <time>2017-07-27T10:48:52Z</time>
      </trkpt>
      <trkpt lat="45.0013260" lon="7.0024310">
        <ele>2327.4</ele>
        <time>2017-07-27T10:48:54Z</time>
      </trkpt>
      <trkpt lat="45.0013400" lon="7.0024760">
        <ele>2325.6</ele>
        <time>2017-07-27T10:48:56Z</time>
      </trkpt>
      <trkpt lat="45.0013450" lon="7.0024530">
        <ele>2325.0</ele>
        <time>2017-07-27T10:48:57Z</time>
      </trkpt>
      <trkpt lat="45.0013460" lon="7.0024080">
        <ele>2324.4</ele>
        <time>2017-07-27T10:48:58Z</time>
      </trkpt>
      <trkpt lat="45.0013460" lon="7.0023060">
        <ele>2323.0</ele>
        <time>2017-07-27T10:49:00Z</time>
      </trkpt>
      <trkpt lat="45.0013560" lon="7.0022190">
        <ele>2321.4</ele>
        <time>2017-07-27T10:49:02Z</time>
      </trkpt>
      <trkpt lat="45.0013880" lon="7.0021430">
        <ele>2320.0</ele>
        <time>2017-07-27T10:49:04Z</time>
      </trkpt>
      <trkpt lat="45.0014160" lon="7.0021260">
        <ele>2319.6</ele>
        <time>2017-07-27T10:49:05Z</time>
      </trkpt>
      <trkpt lat="45.0014700" lon="7.0021170">
        <ele>2318.8</ele>
        <time>2017-07-27T10:49:07Z</time>
      </trkpt>
      <trkpt lat="45.0015000" lon="7.0021310">
        <ele>2318.6</ele>
        <time>2017-07-27T10:49:08Z</time>
      </trkpt>
      <trkpt lat="45.0015600" lon="7.0021650">
        <ele>2317.8</ele>
        <time>2017-07-27T10:49:10Z</time>
      </trkpt>
      <trkpt lat="45.0016290" lon="7.0022060">
        <ele>2316.8</ele>
        <time>2017-07-27T10:49:13Z</time>
      </trkpt>
      <trkpt lat="45.0016590" lon="7.0022340">
        <ele>2316.6</ele>
        <time>2017-07-27T10:49:14Z</time>
      </trkpt>
      <trkpt lat="45.0017630" lon="7.0022980">
        <ele>2315.8</ele>
        <time>2017-07-27T10:49:17Z</time>
      </trkpt>
      <trkpt lat="45.0018070" lon="7.0023070">
        <ele>2315.2</ele>
        <time>2017-07-27T10:49:18Z</time>
      </trkpt>
      <trkpt lat="45.0019030" lon="7.0023230">
        <ele>2314.8</ele>
        <time>2017-07-27T10:49:20Z</time>
      </trkpt>
      <trkpt lat="45.0019430" lon="7.0022940">
        <ele>2314.2</ele>
        <time>2017-07-27T10:49:21Z</time>
      </trkpt>
      <trkpt lat="45.0020060" lon="7.0022380">
        <ele>2313.6</ele>
        <time>2017-07-27T10:49:23Z</time>
      </trkpt>
      <trkpt lat="45.0020720" lon="7.0021330">
        <ele>2313.0</ele>
        <time>2017-07-27T10:49:27Z</time>
      </trkpt>
      <trkpt lat="45.0021310" lon="7.0021030">
        <ele>2312.0</ele>
        <time>2017-07-27T10:49:30Z</time>
      </trkpt>
      <trkpt lat="45.0021510" lon="7.0021180">
        <ele>2312.0</ele>
        <time>2017-07-27T10:49:31Z</time>
      </trkpt>
      <trkpt lat="45.0022230" lon="7.0022110">
        <ele>2311.4</ele>
        <time>2017-07-27T10:49:34Z</time>
      </trkpt>
      <trkpt lat="45.0022380" lon="7.0022560">
        <ele>2311.2</ele>
        <time>2017-07-27T10:49:35Z</time>
      </trkpt>
      <trkpt lat="45.0023030" lon="7.0023040">
        <ele>2310.6</ele>
        <time>2017-07-27T10:49:37Z</time>
      </trkpt>
      <trkpt lat="45.0023440" lon="7.0023200">
        <ele>2310.2</ele>
        <time>2017-07-27T10:49:38Z</time>
      </trkpt>
      <trkpt lat="45.0023880" lon="7.0023530">
        <ele>2310.0</ele>
        <time>2017-07-27T10:49:39Z</time>
      </trkpt>
      <trkpt lat="45.0024370" lon="7.0023710">
        <ele>2309.2</ele>
        <time>2017-07-27T10:49:40Z</time>
      </trkpt>
      <trkpt lat="45.0024830" lon="7.0023740">
        <ele>2308.4</ele>
        <time>2017-07-27T10:49:41Z</time>
      </trkpt>
      <trkpt lat="45.0025240" lon="7.0023940">
        <ele>2308.0</ele>
        <time>2017-07-27T10:49:42Z</time>
      </trkpt>
      <trkpt lat="45.0026520" lon="7.0024270">
        <ele>2306.6</ele>
        <time>2017-07-27T10:49:45Z</time>
      </trkpt>
      <trkpt lat="45.0027310" lon="7.0023860">
        <ele>2305.6</ele>
        <time>2017-07-27T10:49:47Z</time>
      </trkpt>
      <trkpt lat="45.0027540" lon="7.0023590">
        <ele>2305.6</ele>
        <time>2017-07-27T10:49:48Z</time>
      </trkpt>
      <trkpt lat="45.0027890" lon="7.0023550">
        <ele>2305.2</ele>
        <time>2017-07-27T10:49:49Z</time>
      </trkpt>
      <trkpt lat="45.0028740" lon="7.0023760">
        <ele>2304.2</ele>
        <time>2017-07-27T10:49:51Z</time>
      </trkpt>
      <trkpt lat="45.0030620" lon="7.0023650">
        <ele>2303.4</ele>
        <time>2017-07-27T10:49:55Z</time>
      </trkpt>
      <trkpt lat="45.0030960" lon="7.0023420">
        <ele>2303.0</ele>
        <time>2017-07-27T10:49:56Z</time>
      </trkpt>
      <trkpt lat="45.0031320" lon="7.0023240">
        <ele>2302.6</ele>
        <time>2017-07-27T10:49:57Z</time>
      </trkpt>
      <trkpt lat="45.0031970" lon="7.0022960">
        <ele>2301.8</ele>
        <time>2017-07-27T10:49:59Z</time>
      </trkpt>
      <trkpt lat="45.0032370" lon="7.0023020">
        <ele>2301.8</ele>
        <time>2017-07-27T10:50:00Z</time>
      </trkpt>
      <trkpt lat="45.0033420" lon="7.0023150">
        <ele>2301.6</ele>
        <time>2017-07-27T10:50:02Z</time>
      </trkpt>
      <trkpt lat="45.0033880" lon="7.0023340">
        <ele>2301.4</ele>
        <time>2017-07-27T10:50:03Z</time>
      </trkpt>
      <trkpt lat="45.0034320" lon="7.0023190">
        <ele>2300.6</ele>
        <time>2017-07-27T10:50:04Z</time>
      </trkpt>
      <trkpt lat="45.0034650" lon="7.0022740">
        <ele>2300.4</ele>
        <time>2017-07-27T10:50:05Z</time>
      </trkpt>
      <trkpt lat="45.0035340" lon="7.0022380">
        <ele>2299.4</ele>
        <time>2017-07-27T10:50:07Z</time>
      </trkpt>
      <trkpt lat="45.0035850" lon="7.0022930">
        <ele>2298.2</ele>
        <time>2017-07-27T10:50:09Z</time>
      </trkpt>
      <trkpt lat="45.0037020" lon="7.0023360">
        <ele>2296.8</ele>
        <time>2017-07-27T10:50:12Z</time>
      </trkpt>
      <trkpt lat="45.0038380" lon="7.0023670">
        <ele>2295.4</ele>
        <time>2017-07-27T10:50:15Z</time>
      </trkpt>
      <trkpt lat="45.0038690" lon="7.0023280">
        <ele>2295.2</ele>
        <time>2017-07-27T10:50:16Z</time>
      </trkpt>
      <trkpt lat="45.0039360" lon="7.0023260">
        <ele>2294.4</ele>
        <time>2017-07-27T10:50:18Z</time>
      </trkpt>
      <trkpt lat="45.0039650" lon="7.0023260">
        <ele>2294.2</ele>
        <time>2017-07-27T10:50:19Z</time>
      </trkpt>
      <trkpt lat="45.0040230" lon="7.0022950">
        <ele>2293.8</ele>
        <time>2017-07-27T10:50:21Z</time>
      </trkpt>
      <trkpt lat="45.0041050" lon="7.0023000">
        <ele>2293.6</ele>
        <time>2017-07-27T10:50:23Z</time>
      </trkpt>
      <trkpt lat="45.0041500" lon="7.0023150">
        <ele>2293.4</ele>
        <time>2017-07-27T10:50:24Z</time>
      </trkpt>
      <trkpt lat="45.0042800" lon="7.0023600">
        <ele>2293.2</ele>
        <time>2017-07-27T10:50:27Z</time>
      </trkpt>
      <trkpt lat="45.0044440" lon="7.0024410">
        <ele>2292.0</ele>
        <time>2017-07-27T10:50:31Z</time>
      </trkpt>
      <trkpt lat="45.0044920" lon="7.0024490">
        <ele>2291.8</ele>
        <time>2017-07-27T10:50:32Z</time>
      </trkpt>
      <trkpt lat="45.0045720" lon="7.0025100">
        <ele>2291.4</ele>
        <time>2017-07-27T10:50:34Z</time>
      </trkpt>
      <trkpt lat="45.0046540" lon="7.0025740">
        <ele>2290.6</ele>
        <time>2017-07-27T10:50:36Z</time>
      </trkpt>
      <trkpt lat="45.0047680" lon="7.0025870">
        <ele>2290.0</ele>
        <time>2017-07-27T10:50:38Z</time>
      </trkpt>
      <trkpt lat="45.0048390" lon="7.0026720">
        <ele>2289.2</ele>
        <time>2017-07-27T10:50:40Z</time>
      </trkpt>
      <trkpt lat="45.0048900" lon="7.0027140">
        <ele>2288.6</ele>
        <time>2017-07-27T10:50:41Z</time>
      </trkpt>
      <trkpt lat="45.0049390" lon="7.0027710">
        <ele>2287.4</ele>
        <time>2017-07-27T10:50:42Z</time>
      </trkpt>
      <trkpt lat="45.0050380" lon="7.0028550">
        <ele>2286.2</ele>
        <time>2017-07-27T10:50:44Z</time>
      </trkpt>
      <trkpt lat="45.0050820" lon="7.0028970">
        <ele>2285.8</ele>
        <time>2017-07-27T10:50:45Z</time>
      </trkpt>
      <trkpt lat="45.0051290" lon="7.0029410">
        <ele>2285.0</ele>
        <time>2017-07-27T10:50:46Z</time>
      </trkpt>
      <trkpt lat="45.0051800" lon="7.0029740">
        <ele>2284.2</ele>
        <time>2017-07-27T10:50:47Z</time>
      </trkpt>
      <trkpt lat="45.0052190" lon="7.0030180">
        <ele>2283.6</ele>
        <time>2017-07-27T10:50:48Z</time>
      </trkpt>
      <trkpt lat="45.0052600" lon="7.0030740">
        <ele>2283.0</ele>
        <time>2017-07-27T10:50:49Z</time>
      </trkpt>
      <trkpt lat="45.0052980" lon="7.0031290">
        <ele>2282.2</ele>
        <time>2017-07-27T10:50:50Z</time>
      </trkpt>
      <trkpt lat="45.0053350" lon="7.0031910">
        <ele>2281.2</ele>
        <time>2017-07-27T10:50:51Z</time>
      </trkpt>
      <trkpt lat="45.0053770" lon="7.0032480">
        <ele>2279.6</ele>
        <time>2017-07-27T10:50:52Z</time>
      </trkpt>
      <trkpt lat="45.0054470" lon="7.0033100">
        <ele>2278.2</ele>
        <time>2017-07-27T10:50:54Z</time>
      </trkpt>
      <trkpt lat="45.0054990" lon="7.0033460">
        <ele>2276.6</ele>
        <time>2017-07-27T10:50:56Z</time>
      </trkpt>
      <trkpt lat="45.0055470" lon="7.0034230">
        <ele>2274.6</ele>
        <time>2017-07-27T10:50:58Z</time>
      </trkpt>
      <trkpt lat="45.0055760" lon="7.0034610">
        <ele>2273.6</ele>
        <time>2017-07-27T10:50:59Z</time>
      </trkpt>
      <trkpt lat="45.0056090" lon="7.0034970">
        <ele>2272.6</ele>
        <time>2017-07-27T10:51:00Z</time>
      </trkpt>
      <trkpt lat="45.0056470" lon="7.0035080">
        <ele>2271.6</ele>
        <time>2017-07-27T10:51:01Z</time>
      </trkpt>
      <trkpt lat="45.0056870" lon="7.0035150">
        <ele>2271.0</ele>
        <time>2017-07-27T10:51:02Z</time>
      </trkpt>
      <trkpt lat="45.0057500" lon="7.0035880">
        <ele>2269.4</ele>
        <time>2017-07-27T10:51:04Z</time>
      </trkpt>
      <trkpt lat="45.0057800" lon="7.0036250">
        <ele>2268.8</ele>
        <time>2017-07-27T10:51:05Z</time>
      </trkpt>
      <trkpt lat="45.0058100" lon="7.0036620">
        <ele>2267.8</ele>
        <time>2017-07-27T10:51:06Z</time>
      </trkpt>
      <trkpt lat="45.0058670" lon="7.0037440">
        <ele>2265.8</ele>
        <time>2017-07-27T10:51:08Z</time>
      </trkpt>
      <trkpt lat="45.0059360" lon="7.0038170">
        <ele>2264.2</ele>
        <time>2017-07-27T10:51:10Z</time>
      </trkpt>
      <trkpt lat="45.0059760" lon="7.0038610">
        <ele>2263.4</ele>
        <time>2017-07-27T10:51:11Z</time>
      </trkpt>
      <trkpt lat="45.0060190" lon="7.0039120">
        <ele>2262.6</ele>
        <time>2017-07-27T10:51:12Z</time>
      </trkpt>
      <trkpt lat="45.0060880" lon="7.0040110">
        <ele>2261.0</ele>
        <time>2017-07-27T10:51:14Z</time>
      </trkpt>
      <trkpt lat="45.0061170" lon="7.0040390">
        <ele>2260.2</ele>
        <time>2017-07-27T10:51:15Z</time>
      </trkpt>
      <trkpt lat="45.0061520" lon="7.0040730">
        <ele>2258.4</ele>
        <time>2017-07-27T10:51:16Z</time>
      </trkpt>
      <trkpt lat="45.0062130" lon="7.0041530">
        <ele>2256.8</ele>
        <time>2017-07-27T10:51:18Z</time>
      </trkpt>
      <trkpt lat="45.0062710" lon="7.0042300">
        <ele>2255.0</ele>
        <time>2017-07-27T10:51:20Z</time>
      </trkpt>
      <trkpt lat="45.0062960" lon="7.0042460">
        <ele>2254.0</ele>
        <time>2017-07-27T10:51:21Z</time>
      </trkpt>
      <trkpt lat="45.0063370" lon="7.0042910">
        <ele>2252.4</ele>
        <time>2017-07-27T10:51:23Z</time>
      </trkpt>
      <trkpt lat="45.0064040" lon="7.0043450">
        <ele>2250.6</ele>
        <time>2017-07-27T10:51:25Z</time>
      </trkpt>
      <trkpt lat="45.0064660" lon="7.0044230">
        <ele>2249.4</ele>
        <time>2017-07-27T10:51:27Z</time>
      </trkpt>
      <trkpt lat="45.0065480" lon="7.0045330">
        <ele>2248.2</ele>
        <time>2017-07-27T10:51:29Z</time>
      </trkpt>
      <trkpt lat="45.0066130" lon="7.0046290">
        <ele>2247.0</ele>
        <time>2017-07-27T10:51:31Z</time>
      </trkpt>
      <trkpt lat="45.0066740" lon="7.0047070">
        <ele>2245.2</ele>
        <time>2017-07-27T10:51:33Z</time>
      </trkpt>
      <trkpt lat="45.0067520" lon="7.0047460">
        <ele>2244.0</ele>
        <time>2017-07-27T10:51:35Z</time>
      </trkpt>
      <trkpt lat="45.0068280" lon="7.0048210">
        <ele>2242.8</ele>
        <time>2017-07-27T10:51:37Z</time>
      </trkpt>
      <trkpt lat="45.0068940" lon="7.0049020">
        <ele>2241.4</ele>
        <time>2017-07-27T10:51:39Z</time>
      </trkpt>
      <trkpt lat="45.0069310" lon="7.0049410">
        <ele>2240.0</ele>
        <time>2017-07-27T10:51:40Z</time>
      </trkpt>
      <trkpt lat="45.0069690" lon="7.0049930">
        <ele>2239.0</ele>
        <time>2017-07-27T10:51:41Z</time>
      </trkpt>
      <trkpt lat="45.0070050" lon="7.0050430">
        <ele>2238.4</ele>
        <time>2017-07-27T10:51:42Z</time>
      </trkpt>
      <trkpt lat="45.0071090" lon="7.0051650">
        <ele>2237.2</ele>
        <time>2017-07-27T10:51:45Z</time>
      </trkpt>
      <trkpt lat="45.0071480" lon="7.0051980">
        <ele>2236.6</ele>
        <time>2017-07-27T10:51:46Z</time>
      </trkpt>
      <trkpt lat="45.0071880" lon="7.0052320">
        <ele>2236.0</ele>
        <time>2017-07-27T10:51:47Z</time>
      </trkpt>
      <trkpt lat="45.0072320" lon="7.0052800">
        <ele>2235.4</ele>
        <time>2017-07-27T10:51:48Z</time>
      </trkpt>
      <trkpt lat="45.0072760" lon="7.0053240">
        <ele>2234.6</ele>
        <time>2017-07-27T10:51:49Z</time>
      </trkpt>
      <trkpt lat="45.0073170" lon="7.0053630">
        <ele>2233.8</ele>
        <time>2017-07-27T10:51:50Z</time>
      </trkpt>
      <trkpt lat="45.0073480" lon="7.0053980">
        <ele>2233.2</ele>
        <time>2017-07-27T10:51:51Z</time>
      </trkpt>
      <trkpt lat="45.0074100" lon="7.0054630">
        <ele>2231.6</ele>
        <time>2017-07-27T10:51:53Z</time>
      </trkpt>
      <trkpt lat="45.0074480" lon="7.0054740">
        <ele>2230.8</ele>
        <time>2017-07-27T10:51:54Z</time>
      </trkpt>
      <trkpt lat="45.0074760" lon="7.0055050">
        <ele>2230.2</ele>
        <time>2017-07-27T10:51:55Z</time>
      </trkpt>
      <trkpt lat="45.0075330" lon="7.0055250">
        <ele>2228.6</ele>
        <time>2017-07-27T10:51:57Z</time>
      </trkpt>
      <trkpt lat="45.0075840" lon="7.0055530">
        <ele>2227.0</ele>
        <time>2017-07-27T10:51:59Z</time>
      </trkpt>
      <trkpt lat="45.0075860" lon="7.0055600">
        <ele>2225.6</ele>
        <time>2017-07-27T10:52:01Z</time>
      </trkpt>
      <trkpt lat="45.0075930" lon="7.0055890">
        <ele>2224.2</ele>
        <time>2017-07-27T10:52:03Z</time>
      </trkpt>
      <trkpt lat="45.0075970" lon="7.0055830">
        <ele>2222.8</ele>
        <time>2017-07-27T10:52:04Z</time>
      </trkpt>
      <trkpt lat="45.0075660" lon="7.0055910">
        <ele>2222.2</ele>
        <time>2017-07-27T10:52:05Z</time>
      </trkpt>
      <trkpt lat="45.0075450" lon="7.0055980">
        <ele>2221.4</ele>
        <time>2017-07-27T10:52:06Z</time>
      </trkpt>
      <trkpt lat="45.0075160" lon="7.0056240">
        <ele>2220.0</ele>
        <time>2017-07-27T10:52:08Z</time>
      </trkpt>
      <trkpt lat="45.0075170" lon="7.0056310">
        <ele>2219.4</ele>
        <time>2017-07-27T10:52:09Z</time>
      </trkpt>
      <trkpt lat="45.0075300" lon="7.0056460">
        <ele>2218.8</ele>
        <time>2017-07-27T10:52:10Z</time>
      </trkpt>
      <trkpt lat="45.0076010" lon="7.0057140">
        <ele>2217.4</ele>
        <time>2017-07-27T10:52:13Z</time>
      </trkpt>
      <trkpt lat="45.0076390" lon="7.0057330">
        <ele>2216.8</ele>
        <time>2017-07-27T10:52:14Z</time>
      </trkpt>
      <trkpt lat="45.0076700" lon="7.0057530">
        <ele>2216.2</ele>
        <time>2017-07-27T10:52:15Z</time>
      </trkpt>
      <trkpt lat="45.0077310" lon="7.0057960">
        <ele>2215.0</ele>
        <time>2017-07-27T10:52:17Z</time>
      </trkpt>
      <trkpt lat="45.0077520" lon="7.0058190">
        <ele>2214.4</ele>
        <time>2017-07-27T10:52:18Z</time>
      </trkpt>
      <trkpt lat="45.0077700" lon="7.0058540">
        <ele>2213.8</ele>
        <time>2017-07-27T10:52:19Z</time>
      </trkpt>
      <trkpt lat="45.0078010" lon="7.0059530">
        <ele>2212.6</ele>
        <time>2017-07-27T10:52:21Z</time>
      </trkpt>
      <trkpt lat="45.0078270" lon="7.0059960">
        <ele>2212.0</ele>
        <time>2017-07-27T10:52:22Z</time>
      </trkpt>
      <trkpt lat="45.0078840" lon="7.0060960">
        <ele>2210.8</ele>
        <time>2017-07-27T10:52:24Z</time>
      </trkpt>
      <trkpt lat="45.0079340" lon="7.0061770">
        <ele>2209.4</ele>
        <time>2017-07-27T10:52:26Z</time>
      </trkpt>
      <trkpt lat="45.0079670" lon="7.0061880">
        <ele>2207.2</ele>
        <time>2017-07-27T10:52:28Z</time>
      </trkpt>
      <trkpt lat="45.0080070" lon="7.0062040">
        <ele>2206.0</ele>
        <time>2017-07-27T10:52:31Z</time>
      </trkpt>
      <trkpt lat="45.0080130" lon="7.0062500">
        <ele>2205.0</ele>
        <time>2017-07-27T10:52:33Z</time>
      </trkpt>
      <trkpt lat="45.0079830" lon="7.0062880">
        <ele>2203.8</ele>
        <time>2017-07-27T10:52:35Z</time>
      </trkpt>
      <trkpt lat="45.0079330" lon="7.0062980">
        <ele>2202.8</ele>
        <time>2017-07-27T10:52:37Z</time>
      </trkpt>
      <trkpt lat="45.0079130" lon="7.0063090">
        <ele>2202.0</ele>
        <time>2017-07-27T10:52:38Z</time>
      </trkpt>
      <trkpt lat="45.0079040" lon="7.0063360">
        <ele>2201.6</ele>
        <time>2017-07-27T10:52:39Z</time>
      </trkpt>
      <trkpt lat="45.0079250" lon="7.0063760">
        <ele>2200.6</ele>
        <time>2017-07-27T10:52:41Z</time>
      </trkpt>
      <trkpt lat="45.0079490" lon="7.0064000">
        <ele>2200.2</ele>
        <time>2017-07-27T10:52:42Z</time>
      </trkpt>
      <trkpt lat="45.0079740" lon="7.0064190">
        <ele>2199.8</ele>
        <time>2017-07-27T10:52:43Z</time>
      </trkpt>
      <trkpt lat="45.0080060" lon="7.0064650">
        <ele>2198.6</ele>
        <time>2017-07-27T10:52:45Z</time>
      </trkpt>
      <trkpt lat="45.0080140" lon="7.0064670">
        <ele>2197.8</ele>
        <time>2017-07-27T10:52:46Z</time>
      </trkpt>
      <trkpt lat="45.0080300" lon="7.0064680">
        <ele>2197.4</ele>
        <time>2017-07-27T10:52:47Z</time>
      </trkpt>
      <trkpt lat="45.0080710" lon="7.0064840">
        <ele>2196.4</ele>
        <time>2017-07-27T10:52:49Z</time>
      </trkpt>
      <trkpt lat="45.0080790" lon="7.0065020">
        <ele>2195.8</ele>
        <time>2017-07-27T10:52:50Z</time>
      </trkpt>
      <trkpt lat="45.0081040" lon="7.0065670">
        <ele>2193.8</ele>
        <time>2017-07-27T10:52:52Z</time>
      </trkpt>
      <trkpt lat="45.0081170" lon="7.0065540">
        <ele>2193.0</ele>
        <time>2017-07-27T10:52:53Z</time>
      </trkpt>
      <trkpt lat="45.0081570" lon="7.0064930">
        <ele>2192.6</ele>
        <time>2017-07-27T10:52:55Z</time>
      </trkpt>
      <trkpt lat="45.0082240" lon="7.0064410">
        <ele>2191.6</ele>
        <time>2017-07-27T10:52:57Z</time>
      </trkpt>
      <trkpt lat="45.0082830" lon="7.0063970">
        <ele>2190.2</ele>
        <time>2017-07-27T10:52:59Z</time>
      </trkpt>
      <trkpt lat="45.0083240" lon="7.0063750">
        <ele>2188.6</ele>
        <time>2017-07-27T10:53:01Z</time>
      </trkpt>
      <trkpt lat="45.0083330" lon="7.0063600">
        <ele>2188.2</ele>
        <time>2017-07-27T10:53:02Z</time>
      </trkpt>
      <trkpt lat="45.0083380" lon="7.0063500">
        <ele>2187.6</ele>
        <time>2017-07-27T10:53:03Z</time>
      </trkpt>
      <trkpt lat="45.0083650" lon="7.0063350">
        <ele>2186.6</ele>
        <time>2017-07-27T10:53:05Z</time>
      </trkpt>
      <trkpt lat="45.0083780" lon="7.0063350">
        <ele>2186.0</ele>
        <time>2017-07-27T10:53:06Z</time>
      </trkpt>
      <trkpt lat="45.0083910" lon="7.0063370">
        <ele>2185.4</ele>
        <time>2017-07-27T10:53:07Z</time>
      </trkpt>
      <trkpt lat="45.0083880" lon="7.0063260">
        <ele>2184.2</ele>
        <time>2017-07-27T10:53:10Z</time>
      </trkpt>
      <trkpt lat="45.0083920" lon="7.0063240">
        <ele>2183.6</ele>
        <time>2017-07-27T10:53:11Z</time>
      </trkpt>
      <trkpt lat="45.0083970" lon="7.0063230">
        <ele>2183.0</ele>
        <time>2017-07-27T10:53:12Z</time>
      </trkpt>
      <trkpt lat="45.0084090" lon="7.0063300">
        <ele>2181.8</ele>
        <time>2017-07-27T10:53:15Z</time>
      </trkpt>
      <trkpt lat="45.0084060" lon="7.0063380">
        <ele>2180.6</ele>
        <time>2017-07-27T10:53:17Z</time>
      </trkpt>
      <trkpt lat="45.0084280" lon="7.0063480">
        <ele>2179.2</ele>
        <time>2017-07-27T10:53:20Z</time>
      </trkpt>
      <trkpt lat="45.0084420" lon="7.0063510">
        <ele>2178.8</ele>
        <time>2017-07-27T10:53:22Z</time>
      </trkpt>
      <trkpt lat="45.0084580" lon="7.0063530">
        <ele>2178.2</ele>
        <time>2017-07-27T10:53:24Z</time>
      </trkpt>
      <trkpt lat="45.0085090" lon="7.0063900">
        <ele>2177.4</ele>
        <time>2017-07-27T10:53:29Z</time>
      </trkpt>
      <trkpt lat="45.0085260" lon="7.0064010">
        <ele>2177.2</ele>
        <time>2017-07-27T10:53:31Z</time>
      </trkpt>
      <trkpt lat="45.0085250" lon="7.0063990">
        <ele>2177.2</ele>
        <time>2017-07-27T10:53:34Z</time>
      </trkpt>
      <trkpt lat="45.0085360" lon="7.0064190">
        <ele>2177.2</ele>
        <time>2017-07-27T10:53:35Z</time>
      </trkpt>
      <trkpt lat="45.0086080" lon="7.0064790">
        <ele>2176.8</ele>
        <time>2017-07-27T10:53:38Z</time>
      </trkpt>
      <trkpt lat="45.0086770" lon="7.0064490">
        <ele>2176.6</ele>
        <time>2017-07-27T10:53:41Z</time>
      </trkpt>
      <trkpt lat="45.0087830" lon="7.0064300">
        <ele>2176.4</ele>
        <time>2017-07-27T10:53:44Z</time>
      </trkpt>
      <trkpt lat="45.0088460" lon="7.0064200">
        <ele>2176.0</ele>
        <time>2017-07-27T10:53:46Z</time>
      </trkpt>
      <trkpt lat="45.0088720" lon="7.0064750">
        <ele>2175.6</ele>
        <time>2017-07-27T10:53:48Z</time>
      </trkpt>
      <trkpt lat="45.0088800" lon="7.0064890">
        <ele>2175.6</ele>
        <time>2017-07-27T10:53:49Z</time>
      </trkpt>
      <trkpt lat="45.0088850" lon="7.0065140">
        <ele>2175.4</ele>
        <time>2017-07-27T10:53:50Z</time>
      </trkpt>
      <trkpt lat="45.0089160" lon="7.0066010">
        <ele>2175.2</ele>
        <time>2017-07-27T10:53:52Z</time>
      </trkpt>
      <trkpt lat="45.0089640" lon="7.0067380">
        <ele>2175.0</ele>
        <time>2017-07-27T10:53:55Z</time>
      </trkpt>
      <trkpt lat="45.0090130" lon="7.0068160">
        <ele>2174.4</ele>
        <time>2017-07-27T10:53:57Z</time>
      </trkpt>
      <trkpt lat="45.0091200" lon="7.0069530">
        <ele>2174.0</ele>
        <time>2017-07-27T10:54:00Z</time>
      </trkpt>
      <trkpt lat="45.0091520" lon="7.0069830">
        <ele>2173.8</ele>
        <time>2017-07-27T10:54:01Z</time>
      </trkpt>
      <trkpt lat="45.0092080" lon="7.0071230">
        <ele>2173.2</ele>
        <time>2017-07-27T10:54:04Z</time>
      </trkpt>
      <trkpt lat="45.0092220" lon="7.0071750">
        <ele>2173.2</ele>
        <time>2017-07-27T10:54:05Z</time>
      </trkpt>
      <trkpt lat="45.0092640" lon="7.0072770">
        <ele>2173.0</ele>
        <time>2017-07-27T10:54:07Z</time>
      </trkpt>
      <trkpt lat="45.0093410" lon="7.0073370">
        <ele>2173.0</ele>
        <time>2017-07-27T10:54:09Z</time>
      </trkpt>
      <trkpt lat="45.0094250" lon="7.0074090">
        <ele>2173.0</ele>
        <time>2017-07-27T10:54:11Z</time>
      </trkpt>
      <trkpt lat="45.0095580" lon="7.0075460">
        <ele>2173.4</ele>
        <time>2017-07-27T10:54:14Z</time>
      </trkpt>
      <trkpt lat="45.0096050" lon="7.0075600">
        <ele>2173.2</ele>
        <time>2017-07-27T10:54:15Z</time>
      </trkpt>
      <trkpt lat="45.0096740" lon="7.0075430">
        <ele>2173.2</ele>
        <time>2017-07-27T10:54:17Z</time>
      </trkpt>
      <trkpt lat="45.0098350" lon="7.0076000">
        <ele>2173.0</ele>
        <time>2017-07-27T10:54:21Z</time>
      </trkpt>
      <trkpt lat="45.0098940" lon="7.0077030">
        <ele>2172.6</ele>
        <time>2017-07-27T10:54:24Z</time>
      </trkpt>
      <trkpt lat="45.0098920" lon="7.0077710">
        <ele>2172.4</ele>
        <time>2017-07-27T10:54:26Z</time>
      </trkpt>
      <trkpt lat="45.0098930" lon="7.0078080">
        <ele>2172.0</ele>
        <time>2017-07-27T10:54:27Z</time>
      </trkpt>
      <trkpt lat="45.0098930" lon="7.0078510">
        <ele>2171.8</ele>
        <time>2017-07-27T10:54:28Z</time>
      </trkpt>
      <trkpt lat="45.0099450" lon="7.0079930">
        <ele>2171.4</ele>
        <time>2017-07-27T10:54:31Z</time>
      </trkpt>
      <trkpt lat="45.0100710" lon="7.0081890">
        <ele>2171.4</ele>
        <time>2017-07-27T10:54:36Z</time>
      </trkpt>
      <trkpt lat="45.0101080" lon="7.0082210">
        <ele>2171.4</ele>
        <time>2017-07-27T10:54:37Z</time>
      </trkpt>
      <trkpt lat="45.0102380" lon="7.0083180">
        <ele>2171.0</ele>
        <time>2017-07-27T10:54:40Z</time>
      </trkpt>
      <trkpt lat="45.0103670" lon="7.0084650">
        <ele>2170.8</ele>
        <time>2017-07-27T10:54:43Z</time>
      </trkpt>
      <trkpt lat="45.0104020" lon="7.0085030">
        <ele>2170.6</ele>
        <time>2017-07-27T10:54:44Z</time>
      </trkpt>
      <trkpt lat="45.0104260" lon="7.0084840">
        <ele>2170.6</ele>
        <time>2017-07-27T10:54:45Z</time>
      </trkpt>
      <trkpt lat="45.0105000" lon="7.0084440">
        <ele>2170.0</ele>
        <time>2017-07-27T10:54:47Z</time>
      </trkpt>
      <trkpt lat="45.0105250" lon="7.0084690">
        <ele>2169.6</ele>
        <time>2017-07-27T10:54:48Z</time>
      </trkpt>
      <trkpt lat="45.0105380" lon="7.0084980">
        <ele>2169.4</ele>
        <time>2017-07-27T10:54:49Z</time>
      </trkpt>
      <trkpt lat="45.0105630" lon="7.0086400">
        <ele>2168.6</ele>
        <time>2017-07-27T10:54:52Z</time>
      </trkpt>
      <trkpt lat="45.0105940" lon="7.0086760">
        <ele>2168.4</ele>
        <time>2017-07-27T10:54:53Z</time>
      </trkpt>
      <trkpt lat="45.0106590" lon="7.0087430">
        <ele>2168.2</ele>
        <time>2017-07-27T10:54:55Z</time>
      </trkpt>
      <trkpt lat="45.0108250" lon="7.0088880">
        <ele>2167.6</ele>
        <time>2017-07-27T10:54:59Z</time>
      </trkpt>
      <trkpt lat="45.0108530" lon="7.0089060">
        <ele>2167.4</ele>
        <time>2017-07-27T10:55:00Z</time>
      </trkpt>
      <trkpt lat="45.0108880" lon="7.0089230">
        <ele>2167.0</ele>
        <time>2017-07-27T10:55:01Z</time>
      </trkpt>
      <trkpt lat="45.0109150" lon="7.0089680">
        <ele>2166.6</ele>
        <time>2017-07-27T10:55:02Z</time>
      </trkpt>
      <trkpt lat="45.0109790" lon="7.0090410">
        <ele>2165.8</ele>
        <time>2017-07-27T10:55:04Z</time>
      </trkpt>
      <trkpt lat="45.0110790" lon="7.0090800">
        <ele>2165.2</ele>
        <time>2017-07-27T10:55:06Z</time>
      </trkpt>
      <trkpt lat="45.0111300" lon="7.0091170">
        <ele>2165.0</ele>
        <time>2017-07-27T10:55:07Z</time>
      </trkpt>
      <trkpt lat="45.0111880" lon="7.0091310">
        <ele>2164.6</ele>
        <time>2017-07-27T10:55:08Z</time>
      </trkpt>
      <trkpt lat="45.0113120" lon="7.0091580">
        <ele>2163.6</ele>
        <time>2017-07-27T10:55:10Z</time>
      </trkpt>
      <trkpt lat="45.0114320" lon="7.0091710">
        <ele>2163.2</ele>
        <time>2017-07-27T10:55:12Z</time>
      </trkpt>
      <trkpt lat="45.0114780" lon="7.0092050">
        <ele>2162.8</ele>
        <time>2017-07-27T10:55:13Z</time>
      </trkpt>
      <trkpt lat="45.0115210" lon="7.0092320">
        <ele>2162.0</ele>
        <time>2017-07-27T10:55:14Z</time>
      </trkpt>
      <trkpt lat="45.0115750" lon="7.0092520">
        <ele>2161.8</ele>
        <time>2017-07-27T10:55:15Z</time>
      </trkpt>
      <trkpt lat="45.0116340" lon="7.0092760">
        <ele>2160.6</ele>
        <time>2017-07-27T10:55:16Z</time>
      </trkpt>
      <trkpt lat="45.0116900" lon="7.0092860">
        <ele>2159.8</ele>
        <time>2017-07-27T10:55:17Z</time>
      </trkpt>
      <trkpt lat="45.0117400" lon="7.0092980">
        <ele>2159.4</ele>
        <time>2017-07-27T10:55:18Z</time>
      </trkpt>
      <trkpt lat="45.0118220" lon="7.0093080">
        <ele>2158.8</ele>
        <time>2017-07-27T10:55:20Z</time>
      </trkpt>
      <trkpt lat="45.0118670" lon="7.0093100">
        <ele>2158.2</ele>
        <time>2017-07-27T10:55:21Z</time>
      </trkpt>
      <trkpt lat="45.0119140" lon="7.0093560">
        <ele>2157.6</ele>
        <time>2017-07-27T10:55:22Z</time>
      </trkpt>
      <trkpt lat="45.0119410" lon="7.0094080">
        <ele>2157.0</ele>
        <time>2017-07-27T10:55:23Z</time>
      </trkpt>
      <trkpt lat="45.0119890" lon="7.0095570">
        <ele>2155.6</ele>
        <time>2017-07-27T10:55:25Z</time>
      </trkpt>
      <trkpt lat="45.0120080" lon="7.0096360">
        <ele>2155.0</ele>
        <time>2017-07-27T10:55:26Z</time>
      </trkpt>
      <trkpt lat="45.0120360" lon="7.0097100">
        <ele>2154.6</ele>
        <time>2017-07-27T10:55:27Z</time>
      </trkpt>
      <trkpt lat="45.0120750" lon="7.0098010">
        <ele>2154.2</ele>
        <time>2017-07-27T10:55:28Z</time>
      </trkpt>
      <trkpt lat="45.0121300" lon="7.0099900">
        <ele>2153.2</ele>
        <time>2017-07-27T10:55:30Z</time>
      </trkpt>
      <trkpt lat="45.0121600" lon="7.0100810">
        <ele>2152.6</ele>
        <time>2017-07-27T10:55:31Z</time>
      </trkpt>
      <trkpt lat="45.0121800" lon="7.0101780">
        <ele>2152.2</ele>
        <time>2017-07-27T10:55:32Z</time>
      </trkpt>
      <trkpt lat="45.0121950" lon="7.0102520">
        <ele>2151.4</ele>
        <time>2017-07-27T10:55:33Z</time>
      </trkpt>
      <trkpt lat="45.0122250" lon="7.0103110">
        <ele>2151.0</ele>
        <time>2017-07-27T10:55:34Z</time>
      </trkpt>
      <trkpt lat="45.0122490" lon="7.0103750">
        <ele>2150.2</ele>
        <time>2017-07-27T10:55:35Z</time>
      </trkpt>
      <trkpt lat="45.0123790" lon="7.0105450">
        <ele>2149.0</ele>
        <time>2017-07-27T10:55:38Z</time>
      </trkpt>
      <trkpt lat="45.0124340" lon="7.0106100">
        <ele>2148.4</ele>
        <time>2017-07-27T10:55:39Z</time>
      </trkpt>
      <trkpt lat="45.0124920" lon="7.0106940">
        <ele>2147.0</ele>
        <time>2017-07-27T10:55:40Z</time>
      </trkpt>
      <trkpt lat="45.0126090" lon="7.0108800">
        <ele>2145.6</ele>
        <time>2017-07-27T10:55:42Z</time>
      </trkpt>
      <trkpt lat="45.0126620" lon="7.0109820">
        <ele>2144.8</ele>
        <time>2017-07-27T10:55:43Z</time>
      </trkpt>
      <trkpt lat="45.0127130" lon="7.0110680">
        <ele>2144.4</ele>
        <time>2017-07-27T10:55:44Z</time>
      </trkpt>
      <trkpt lat="45.0128250" lon="7.0112150">
        <ele>2143.4</ele>
        <time>2017-07-27T10:55:46Z</time>
      </trkpt>
      <trkpt lat="45.0128930" lon="7.0112630">
        <ele>2142.4</ele>
        <time>2017-07-27T10:55:47Z</time>
      </trkpt>
      <trkpt lat="45.0130190" lon="7.0114040">
        <ele>2141.2</ele>
        <time>2017-07-27T10:55:49Z</time>
      </trkpt>
      <trkpt lat="45.0131160" lon="7.0115680">
        <ele>2139.6</ele>
        <time>2017-07-27T10:55:51Z</time>
      </trkpt>
      <trkpt lat="45.0131520" lon="7.0116450">
        <ele>2138.6</ele>
        <time>2017-07-27T10:55:52Z</time>
      </trkpt>
      <trkpt lat="45.0131890" lon="7.0117080">
        <ele>2137.4</ele>
        <time>2017-07-27T10:55:53Z</time>
      </trkpt>
      <trkpt lat="45.0132820" lon="7.0117710">
        <ele>2135.8</ele>
        <time>2017-07-27T10:55:55Z</time>
      </trkpt>
      <trkpt lat="45.0133470" lon="7.0117870">
        <ele>2135.2</ele>
        <time>2017-07-27T10:55:56Z</time>
      </trkpt>
      <trkpt lat="45.0134120" lon="7.0118190">
        <ele>2134.2</ele>
        <time>2017-07-27T10:55:57Z</time>
      </trkpt>
      <trkpt lat="45.0135500" lon="7.0119420">
        <ele>2133.2</ele>
        <time>2017-07-27T10:55:59Z</time>
      </trkpt>
      <trkpt lat="45.0136170" lon="7.0120100">
        <ele>2132.6</ele>
        <time>2017-07-27T10:56:00Z</time>
      </trkpt>
      <trkpt lat="45.0137500" lon="7.0121490">
        <ele>2130.8</ele>
        <time>2017-07-27T10:56:02Z</time>
      </trkpt>
      <trkpt lat="45.0138600" lon="7.0122930">
        <ele>2127.8</ele>
        <time>2017-07-27T10:56:04Z</time>
      </trkpt>
      <trkpt lat="45.0139070" lon="7.0123440">
        <ele>2126.8</ele>
        <time>2017-07-27T10:56:05Z</time>
      </trkpt>
      <trkpt lat="45.0139570" lon="7.0123830">
        <ele>2126.0</ele>
        <time>2017-07-27T10:56:06Z</time>
      </trkpt>
      <trkpt lat="45.0140100" lon="7.0124240">
        <ele>2125.0</ele>
        <time>2017-07-27T10:56:07Z</time>
      </trkpt>
      <trkpt lat="45.0140650" lon="7.0124720">
        <ele>2124.0</ele>
        <time>2017-07-27T10:56:08Z</time>
      </trkpt>
      <trkpt lat="45.0141300" lon="7.0125180">
        <ele>2122.6</ele>
        <time>2017-07-27T10:56:09Z</time>
      </trkpt>
      <trkpt lat="45.0142690" lon="7.0126010">
        <ele>2121.0</ele>
        <time>2017-07-27T10:56:11Z</time>
      </trkpt>
      <trkpt lat="45.0143860" lon="7.0126940">
        <ele>2119.0</ele>
        <time>2017-07-27T10:56:13Z</time>
      </trkpt>
      <trkpt lat="45.0144410" lon="7.0127410">
        <ele>2118.2</ele>
        <time>2017-07-27T10:56:14Z</time>
      </trkpt>
      <trkpt lat="45.0144930" lon="7.0127950">
        <ele>2117.2</ele>
        <time>2017-07-27T10:56:15Z</time>
      </trkpt>
      <trkpt lat="45.0146160" lon="7.0128730">
        <ele>2115.2</ele>
        <time>2017-07-27T10:56:17Z</time>
      </trkpt>
      <trkpt lat="45.0146890" lon="7.0128920">
        <ele>2114.6</ele>
        <time>2017-07-27T10:56:18Z</time>
      </trkpt>
      <trkpt lat="45.0147740" lon="7.0129030">
        <ele>2113.4</ele>
        <time>2017-07-27T10:56:19Z</time>
      </trkpt>
      <trkpt lat="45.0148600" lon="7.0129130">
        <ele>2112.4</ele>
        <time>2017-07-27T10:56:20Z</time>
      </trkpt>
      <trkpt lat="45.0149560" lon="7.0129150">
        <ele>2111.2</ele>
        <time>2017-07-27T10:56:21Z</time>
      </trkpt>
      <trkpt lat="45.0150560" lon="7.0129240">
        <ele>2110.2</ele>
        <time>2017-07-27T10:56:22Z</time>
      </trkpt>
      <trkpt lat="45.0151430" lon="7.0129730">
        <ele>2109.6</ele>
        <time>2017-07-27T10:56:23Z</time>
      </trkpt>
      <trkpt lat="45.0152130" lon="7.0130250">
        <ele>2108.8</ele>
        <time>2017-07-27T10:56:24Z</time>
      </trkpt>
      <trkpt lat="45.0152740" lon="7.0130740">
        <ele>2108.0</ele>
        <time>2017-07-27T10:56:25Z</time>
      </trkpt>
      <trkpt lat="45.0153340" lon="7.0131190">
        <ele>2106.8</ele>
        <time>2017-07-27T10:56:26Z</time>
      </trkpt>
      <trkpt lat="45.0153890" lon="7.0131410">
        <ele>2105.8</ele>
        <time>2017-07-27T10:56:27Z</time>
      </trkpt>
      <trkpt lat="45.0154430" lon="7.0131700">
        <ele>2104.8</ele>
        <time>2017-07-27T10:56:28Z</time>
      </trkpt>
      <trkpt lat="45.0155580" lon="7.0132000">
        <ele>2104.0</ele>
        <time>2017-07-27T10:56:30Z</time>
      </trkpt>
      <trkpt lat="45.0156130" lon="7.0132090">
        <ele>2103.6</ele>
        <time>2017-07-27T10:56:31Z</time>
      </trkpt>
      <trkpt lat="45.0157000" lon="7.0132190">
        <ele>2102.4</ele>
        <time>2017-07-27T10:56:33Z</time>
      </trkpt>
      <trkpt lat="45.0157920" lon="7.0132840">
        <ele>2101.2</ele>
        <time>2017-07-27T10:56:35Z</time>
      </trkpt>
      <trkpt lat="45.0158440" lon="7.0133410">
        <ele>2100.4</ele>
        <time>2017-07-27T10:56:36Z</time>
      </trkpt>
      <trkpt lat="45.0158980" lon="7.0133930">
        <ele>2099.4</ele>
        <time>2017-07-27T10:56:37Z</time>
      </trkpt>
      <trkpt lat="45.0159550" lon="7.0134210">
        <ele>2099.2</ele>
        <time>2017-07-27T10:56:38Z</time>
      </trkpt>
      <trkpt lat="45.0160870" lon="7.0134330">
        <ele>2097.6</ele>
        <time>2017-07-27T10:56:40Z</time>
      </trkpt>
      <trkpt lat="45.0161580" lon="7.0134440">
        <ele>2096.4</ele>
        <time>2017-07-27T10:56:41Z</time>
      </trkpt>
      <trkpt lat="45.0162330" lon="7.0134510">
        <ele>2095.0</ele>
        <time>2017-07-27T10:56:42Z</time>
      </trkpt>
      <trkpt lat="45.0163050" lon="7.0134750">
        <ele>2094.2</ele>
        <time>2017-07-27T10:56:43Z</time>
      </trkpt>
      <trkpt lat="45.0163710" lon="7.0135070">
        <ele>2093.2</ele>
        <time>2017-07-27T10:56:44Z</time>
      </trkpt>
      <trkpt lat="45.0164290" lon="7.0135500">
        <ele>2092.2</ele>
        <time>2017-07-27T10:56:45Z</time>
      </trkpt>
      <trkpt lat="45.0164930" lon="7.0135920">
        <ele>2091.2</ele>
        <time>2017-07-27T10:56:46Z</time>
      </trkpt>
      <trkpt lat="45.0166310" lon="7.0136610">
        <ele>2089.8</ele>
        <time>2017-07-27T10:56:48Z</time>
      </trkpt>
      <trkpt lat="45.0166950" lon="7.0136800">
        <ele>2089.0</ele>
        <time>2017-07-27T10:56:49Z</time>
      </trkpt>
      <trkpt lat="45.0167440" lon="7.0136830">
        <ele>2088.0</ele>
        <time>2017-07-27T10:56:50Z</time>
      </trkpt>
      <trkpt lat="45.0167850" lon="7.0137410">
        <ele>2085.2</ele>
        <time>2017-07-27T10:56:52Z</time>
      </trkpt>
      <trkpt lat="45.0167690" lon="7.0137620">
        <ele>2084.2</ele>
        <time>2017-07-27T10:56:53Z</time>
      </trkpt>
      <trkpt lat="45.0167300" lon="7.0137850">
        <ele>2083.6</ele>
        <time>2017-07-27T10:56:54Z</time>
      </trkpt>
      <trkpt lat="45.0166380" lon="7.0138290">
        <ele>2082.0</ele>
        <time>2017-07-27T10:56:56Z</time>
      </trkpt>
      <trkpt lat="45.0165730" lon="7.0138440">
        <ele>2081.0</ele>
        <time>2017-07-27T10:56:57Z</time>
      </trkpt>
      <trkpt lat="45.0164970" lon="7.0138660">
        <ele>2079.8</ele>
        <time>2017-07-27T10:56:58Z</time>
      </trkpt>
      <trkpt lat="45.0164020" lon="7.0138880">
        <ele>2079.0</ele>
        <time>2017-07-27T10:56:59Z</time>
      </trkpt>
      <trkpt lat="45.0163050" lon="7.0139050">
        <ele>2077.8</ele>
        <time>2017-07-27T10:57:00Z</time>
      </trkpt>
      <trkpt lat="45.0161960" lon="7.0139540">
        <ele>2076.4</ele>
        <time>2017-07-27T10:57:01Z</time>
      </trkpt>
      <trkpt lat="45.0160990" lon="7.0140020">
        <ele>2075.2</ele>
        <time>2017-07-27T10:57:02Z</time>
      </trkpt>
      <trkpt lat="45.0160090" lon="7.0140420">
        <ele>2074.2</ele>
        <time>2017-07-27T10:57:03Z</time>
      </trkpt>
      <trkpt lat="45.0159350" lon="7.0140710">
        <ele>2073.4</ele>
        <time>2017-07-27T10:57:04Z</time>
      </trkpt>
      <trkpt lat="45.0158990" lon="7.0141220">
        <ele>2072.4</ele>
        <time>2017-07-27T10:57:05Z</time>
      </trkpt>
      <trkpt lat="45.0158880" lon="7.0141570">
        <ele>2071.4</ele>
        <time>2017-07-27T10:57:06Z</time>
      </trkpt>
      <trkpt lat="45.0159070" lon="7.0141810">
        <ele>2070.4</ele>
        <time>2017-07-27T10:57:07Z</time>
      </trkpt>
      <trkpt lat="45.0159450" lon="7.0142240">
        <ele>2069.8</ele>
        <time>2017-07-27T10:57:08Z</time>
      </trkpt>
      <trkpt lat="45.0160180" lon="7.0142470">
        <ele>2068.6</ele>
        <time>2017-07-27T10:57:09Z</time>
      </trkpt>
      <trkpt lat="45.0160870" lon="7.0142750">
        <ele>2067.6</ele>
        <time>2017-07-27T10:57:10Z</time>
      </trkpt>
      <trkpt lat="45.0161550" lon="7.0142780">
        <ele>2066.2</ele>
        <time>2017-07-27T10:57:11Z</time>
      </trkpt>
      <trkpt lat="45.0162100" lon="7.0142590">
        <ele>2065.2</ele>
        <time>2017-07-27T10:57:12Z</time>
      </trkpt>
      <trkpt lat="45.0162480" lon="7.0142550">
        <ele>2064.0</ele>
        <time>2017-07-27T10:57:13Z</time>
      </trkpt>
      <trkpt lat="45.0163150" lon="7.0142810">
        <ele>2062.2</ele>
        <time>2017-07-27T10:57:15Z</time>
      </trkpt>
      <trkpt lat="45.0163470" lon="7.0143240">
        <ele>2060.2</ele>
        <time>2017-07-27T10:57:16Z</time>
      </trkpt>
      <trkpt lat="45.0163790" lon="7.0143700">
        <ele>2059.0</ele>
        <time>2017-07-27T10:57:17Z</time>
      </trkpt>
      <trkpt lat="45.0164110" lon="7.0144140">
        <ele>2057.4</ele>
        <time>2017-07-27T10:57:18Z</time>
      </trkpt>
      <trkpt lat="45.0164520" lon="7.0144550">
        <ele>2056.4</ele>
        <time>2017-07-27T10:57:19Z</time>
      </trkpt>
      <trkpt lat="45.0164960" lon="7.0144990">
        <ele>2055.2</ele>
        <time>2017-07-27T10:57:20Z</time>
      </trkpt>
      <trkpt lat="45.0165360" lon="7.0145470">
        <ele>2054.0</ele>
        <time>2017-07-27T10:57:21Z</time>
      </trkpt>
      <trkpt lat="45.0165910" lon="7.0145860">
        <ele>2052.6</ele>
        <time>2017-07-27T10:57:22Z</time>
      </trkpt>
      <trkpt lat="45.0166430" lon="7.0146190">
        <ele>2051.4</ele>
        <time>2017-07-27T10:57:23Z</time>
      </trkpt>
      <trkpt lat="45.0166790" lon="7.0146610">
        <ele>2050.2</ele>
        <time>2017-07-27T10:57:24Z</time>
      </trkpt>
      <trkpt lat="45.0167020" lon="7.0147090">
        <ele>2049.0</ele>
        <time>2017-07-27T10:57:25Z</time>
      </trkpt>
      <trkpt lat="45.0167070" lon="7.0147480">
        <ele>2047.8</ele>
        <time>2017-07-27T10:57:26Z</time>
      </trkpt>
      <trkpt lat="45.0166940" lon="7.0147730">
        <ele>2046.4</ele>
        <time>2017-07-27T10:57:27Z</time>
      </trkpt>
      <trkpt lat="45.0166670" lon="7.0148020">
        <ele>2045.0</ele>
        <time>2017-07-27T10:57:28Z</time>
      </trkpt>
      <trkpt lat="45.0166240" lon="7.0148380">
        <ele>2043.4</ele>
        <time>2017-07-27T10:57:29Z</time>
      </trkpt>
      <trkpt lat="45.0165450" lon="7.0148870">
        <ele>2042.2</ele>
        <time>2017-07-27T10:57:30Z</time>
      </trkpt>
      <trkpt lat="45.0164630" lon="7.0149270">
        <ele>2041.0</ele>
        <time>2017-07-27T10:57:31Z</time>
      </trkpt>
      <trkpt lat="45.0163770" lon="7.0149730">
        <ele>2039.8</ele>
        <time>2017-07-27T10:57:32Z</time>
      </trkpt>
      <trkpt lat="45.0163050" lon="7.0149900">
        <ele>2038.4</ele>
        <time>2017-07-27T10:57:33Z</time>
      </trkpt>
      <trkpt lat="45.0162650" lon="7.0150290">
        <ele>2037.2</ele>
        <time>2017-07-27T10:57:34Z</time>
      </trkpt>
      <trkpt lat="45.0162480" lon="7.0150540">
        <ele>2035.8</ele>
        <time>2017-07-27T10:57:35Z</time>
      </trkpt>
      <trkpt lat="45.0162560" lon="7.0150580">
        <ele>2034.6</ele>
        <time>2017-07-27T10:57:36Z</time>
      </trkpt>
      <trkpt lat="45.0162880" lon="7.0150470">
        <ele>2033.4</ele>
        <time>2017-07-27T10:57:37Z</time>
      </trkpt>
      <trkpt lat="45.0163410" lon="7.0150560">
        <ele>2032.2</ele>
        <time>2017-07-27T10:57:38Z</time>
      </trkpt>
      <trkpt lat="45.0164040" lon="7.0150830">
        <ele>2031.4</ele>
        <time>2017-07-27T10:57:39Z</time>
      </trkpt>
      <trkpt lat="45.0164660" lon="7.0151150">
        <ele>2030.4</ele>
        <time>2017-07-27T10:57:40Z</time>
      </trkpt>
      <trkpt lat="45.0165330" lon="7.0151510">
        <ele>2028.2</ele>
        <time>2017-07-27T10:57:41Z</time>
      </trkpt>
      <trkpt lat="45.0165740" lon="7.0151850">
        <ele>2027.0</ele>
        <time>2017-07-27T10:57:42Z</time>
      </trkpt>
      <trkpt lat="45.0166220" lon="7.0152420">
        <ele>2025.2</ele>
        <time>2017-07-27T10:57:44Z</time>
      </trkpt>
      <trkpt lat="45.0165780" lon="7.0152860">
        <ele>2023.2</ele>
        <time>2017-07-27T10:57:46Z</time>
      </trkpt>
      <trkpt lat="45.0165210" lon="7.0152830">
        <ele>2022.0</ele>
        <time>2017-07-27T10:57:47Z</time>
      </trkpt>
      <trkpt lat="45.0164840" lon="7.0153150">
        <ele>2021.0</ele>
        <time>2017-07-27T10:57:48Z</time>
      </trkpt>
      <trkpt lat="45.0165160" lon="7.0154030">
        <ele>2019.2</ele>
        <time>2017-07-27T10:57:50Z</time>
      </trkpt>
      <trkpt lat="45.0165530" lon="7.0154640">
        <ele>2018.2</ele>
        <time>2017-07-27T10:57:51Z</time>
      </trkpt>
      <trkpt lat="45.0165900" lon="7.0155230">
        <ele>2017.4</ele>
        <time>2017-07-27T10:57:52Z</time>
      </trkpt>
      <trkpt lat="45.0166140" lon="7.0155340">
        <ele>2016.4</ele>
        <time>2017-07-27T10:57:53Z</time>
      </trkpt>
      <trkpt lat="45.0166380" lon="7.0155580">
        <ele>2015.2</ele>
        <time>2017-07-27T10:57:54Z</time>
      </trkpt>
      <trkpt lat="45.0166290" lon="7.0155780">
        <ele>2014.4</ele>
        <time>2017-07-27T10:57:55Z</time>
      </trkpt>
      <trkpt lat="45.0165900" lon="7.0155850">
        <ele>2013.4</ele>
        <time>2017-07-27T10:57:56Z</time>
      </trkpt>
      <trkpt lat="45.0164370" lon="7.0155760">
        <ele>2011.6</ele>
        <time>2017-07-27T10:57:58Z</time>
      </trkpt>
      <trkpt lat="45.0163590" lon="7.0155690">
        <ele>2010.4</ele>
        <time>2017-07-27T10:57:59Z</time>
      </trkpt>
      <trkpt lat="45.0162910" lon="7.0155860">
        <ele>2009.4</ele>
        <time>2017-07-27T10:58:00Z</time>
      </trkpt>
      <trkpt lat="45.0161730" lon="7.0156580">
        <ele>2007.6</ele>
        <time>2017-07-27T10:58:02Z</time>
      </trkpt>
      <trkpt lat="45.0161030" lon="7.0158050">
        <ele>2005.8</ele>
        <time>2017-07-27T10:58:04Z</time>
      </trkpt>
      <trkpt lat="45.0160820" lon="7.0158950">
        <ele>2004.2</ele>
        <time>2017-07-27T10:58:05Z</time>
      </trkpt>
      <trkpt lat="45.0160670" lon="7.0160850">
        <ele>2002.6</ele>
        <time>2017-07-27T10:58:07Z</time>
      </trkpt>
      <trkpt lat="45.0160900" lon="7.0162800">
        <ele>2001.2</ele>
        <time>2017-07-27T10:58:09Z</time>
      </trkpt>
      <trkpt lat="45.0161090" lon="7.0164330">
        <ele>1999.8</ele>
        <time>2017-07-27T10:58:11Z</time>
      </trkpt>
      <trkpt lat="45.0160630" lon="7.0165400">
        <ele>1998.2</ele>
        <time>2017-07-27T10:58:13Z</time>
      </trkpt>
      <trkpt lat="45.0160020" lon="7.0166120">
        <ele>1997.0</ele>
        <time>2017-07-27T10:58:15Z</time>
      </trkpt>
      <trkpt lat="45.0159620" lon="7.0166580">
        <ele>1995.4</ele>
        <time>2017-07-27T10:58:17Z</time>
      </trkpt>
      <trkpt lat="45.0159610" lon="7.0167120">
        <ele>1993.6</ele>
        <time>2017-07-27T10:58:19Z</time>
      </trkpt>
      <trkpt lat="45.0159830" lon="7.0167460">
        <ele>1992.8</ele>
        <time>2017-07-27T10:58:20Z</time>
      </trkpt>
      <trkpt lat="45.0160280" lon="7.0167820">
        <ele>1992.0</ele>
        <time>2017-07-27T10:58:21Z</time>
      </trkpt>
      <trkpt lat="45.0161250" lon="7.0168470">
        <ele>1990.2</ele>
        <time>2017-07-27T10:58:23Z</time>
      </trkpt>
      <trkpt lat="45.0161490" lon="7.0169340">
        <ele>1988.4</ele>
        <time>2017-07-27T10:58:25Z</time>
      </trkpt>
      <trkpt lat="45.0161430" lon="7.0169650">
        <ele>1987.6</ele>
        <time>2017-07-27T10:58:26Z</time>
      </trkpt>
      <trkpt lat="45.0161240" lon="7.0170140">
        <ele>1986.8</ele>
        <time>2017-07-27T10:58:27Z</time>
      </trkpt>
      <trkpt lat="45.0160300" lon="7.0170750">
        <ele>1983.4</ele>
        <time>2017-07-27T10:58:29Z</time>
      </trkpt>
      <trkpt lat="45.0159170" lon="7.0171290">
        <ele>1981.2</ele>
        <time>2017-07-27T10:58:31Z</time>
      </trkpt>
      <trkpt lat="45.0158610" lon="7.0171550">
        <ele>1979.8</ele>
        <time>2017-07-27T10:58:32Z</time>
      </trkpt>
      <trkpt lat="45.0158190" lon="7.0171720">
        <ele>1978.2</ele>
        <time>2017-07-27T10:58:33Z</time>
      </trkpt>
      <trkpt lat="45.0157810" lon="7.0171910">
        <ele>1977.0</ele>
        <time>2017-07-27T10:58:34Z</time>
      </trkpt>
      <trkpt lat="45.0157790" lon="7.0172280">
        <ele>1976.2</ele>
        <time>2017-07-27T10:58:35Z</time>
      </trkpt>
      <trkpt lat="45.0157930" lon="7.0172630">
        <ele>1975.2</ele>
        <time>2017-07-27T10:58:36Z</time>
      </trkpt>
      <trkpt lat="45.0158150" lon="7.0173140">
        <ele>1974.0</ele>
        <time>2017-07-27T10:58:37Z</time>
      </trkpt>
      <trkpt lat="45.0158750" lon="7.0173600">
        <ele>1972.8</ele>
        <time>2017-07-27T10:58:38Z</time>
      </trkpt>
      <trkpt lat="45.0159310" lon="7.0174020">
        <ele>1971.8</ele>
        <time>2017-07-27T10:58:39Z</time>
      </trkpt>
      <trkpt lat="45.0159930" lon="7.0174420">
        <ele>1970.8</ele>
        <time>2017-07-27T10:58:40Z</time>
      </trkpt>
      <trkpt lat="45.0160580" lon="7.0174790">
        <ele>1969.6</ele>
        <time>2017-07-27T10:58:41Z</time>
      </trkpt>
      <trkpt lat="45.0161220" lon="7.0175140">
        <ele>1968.0</ele>
        <time>2017-07-27T10:58:42Z</time>
      </trkpt>
      <trkpt lat="45.0161890" lon="7.0175480">
        <ele>1966.6</ele>
        <time>2017-07-27T10:58:43Z</time>
      </trkpt>
      <trkpt lat="45.0162320" lon="7.0175810">
        <ele>1965.4</ele>
        <time>2017-07-27T10:58:44Z</time>
      </trkpt>
      <trkpt lat="45.0162590" lon="7.0176090">
        <ele>1964.2</ele>
        <time>2017-07-27T10:58:45Z</time>
      </trkpt>
      <trkpt lat="45.0162370" lon="7.0176110">
        <ele>1962.8</ele>
        <time>2017-07-27T10:58:46Z</time>
      </trkpt>
      <trkpt lat="45.0162190" lon="7.0176120">
        <ele>1961.6</ele>
        <time>2017-07-27T10:58:47Z</time>
      </trkpt>
      <trkpt lat="45.0162020" lon="7.0176140">
        <ele>1960.4</ele>
        <time>2017-07-27T10:58:48Z</time>
      </trkpt>
      <trkpt lat="45.0161840" lon="7.0176150">
        <ele>1959.2</ele>
        <time>2017-07-27T10:58:49Z</time>
      </trkpt>
      <trkpt lat="45.0161160" lon="7.0176260">
        <ele>1958.2</ele>
        <time>2017-07-27T10:58:50Z</time>
      </trkpt>
      <trkpt lat="45.0160500" lon="7.0176430">
        <ele>1957.0</ele>
        <time>2017-07-27T10:58:51Z</time>
      </trkpt>
      <trkpt lat="45.0159820" lon="7.0176520">
        <ele>1955.6</ele>
        <time>2017-07-27T10:58:52Z</time>
      </trkpt>
      <trkpt lat="45.0159170" lon="7.0176600">
        <ele>1953.2</ele>
        <time>2017-07-27T10:58:53Z</time>
      </trkpt>
      <trkpt lat="45.0158830" lon="7.0176740">
        <ele>1952.4</ele>
        <time>2017-07-27T10:58:54Z</time>
      </trkpt>
      <trkpt lat="45.0158510" lon="7.0176750">
        <ele>1951.6</ele>
        <time>2017-07-27T10:58:55Z</time>
      </trkpt>
      <trkpt lat="45.0157760" lon="7.0176670">
        <ele>1950.0</ele>
        <time>2017-07-27T10:58:57Z</time>
      </trkpt>
      <trkpt lat="45.0157310" lon="7.0176610">
        <ele>1949.2</ele>
        <time>2017-07-27T10:58:58Z</time>
      </trkpt>
      <trkpt lat="45.0156850" lon="7.0176560">
        <ele>1948.6</ele>
        <time>2017-07-27T10:58:59Z</time>
      </trkpt>
      <trkpt lat="45.0155610" lon="7.0176530">
        <ele>1947.0</ele>
        <time>2017-07-27T10:59:02Z</time>
      </trkpt>
      <trkpt lat="45.0155350" lon="7.0176670">
        <ele>1946.4</ele>
        <time>2017-07-27T10:59:03Z</time>
      </trkpt>
      <trkpt lat="45.0155310" lon="7.0177040">
        <ele>1945.8</ele>
        <time>2017-07-27T10:59:04Z</time>
      </trkpt>
      <trkpt lat="45.0155400" lon="7.0177440">
        <ele>1945.4</ele>
        <time>2017-07-27T10:59:05Z</time>
      </trkpt>
      <trkpt lat="45.0155720" lon="7.0178500">
        <ele>1944.2</ele>
        <time>2017-07-27T10:59:07Z</time>
      </trkpt>
      <trkpt lat="45.0155940" lon="7.0178990">
        <ele>1943.6</ele>
        <time>2017-07-27T10:59:08Z</time>
      </trkpt>
      <trkpt lat="45.0156250" lon="7.0179350">
        <ele>1943.0</ele>
        <time>2017-07-27T10:59:09Z</time>
      </trkpt>
      <trkpt lat="45.0157240" lon="7.0179490">
        <ele>1941.4</ele>
        <time>2017-07-27T10:59:11Z</time>
      </trkpt>
      <trkpt lat="45.0157710" lon="7.0179580">
        <ele>1941.2</ele>
        <time>2017-07-27T10:59:12Z</time>
      </trkpt>
      <trkpt lat="45.0159540" lon="7.0179920">
        <ele>1940.2</ele>
        <time>2017-07-27T10:59:15Z</time>
      </trkpt>
      <trkpt lat="45.0160870" lon="7.0180010">
        <ele>1939.0</ele>
        <time>2017-07-27T10:59:17Z</time>
      </trkpt>
      <trkpt lat="45.0161960" lon="7.0179900">
        <ele>1938.2</ele>
        <time>2017-07-27T10:59:19Z</time>
      </trkpt>
      <trkpt lat="45.0162450" lon="7.0179700">
        <ele>1937.6</ele>
        <time>2017-07-27T10:59:20Z</time>
      </trkpt>
      <trkpt lat="45.0162950" lon="7.0179640">
        <ele>1937.0</ele>
        <time>2017-07-27T10:59:21Z</time>
      </trkpt>
      <trkpt lat="45.0163450" lon="7.0179740">
        <ele>1936.4</ele>
        <time>2017-07-27T10:59:22Z</time>
      </trkpt>
      <trkpt lat="45.0164050" lon="7.0179800">
        <ele>1935.8</ele>
        <time>2017-07-27T10:59:23Z</time>
      </trkpt>
      <trkpt lat="45.0164710" lon="7.0180050">
        <ele>1935.0</ele>
        <time>2017-07-27T10:59:24Z</time>
      </trkpt>
      <trkpt lat="45.0165340" lon="7.0180210">
        <ele>1934.4</ele>
        <time>2017-07-27T10:59:25Z</time>
      </trkpt>
      <trkpt lat="45.0166000" lon="7.0180340">
        <ele>1933.6</ele>
        <time>2017-07-27T10:59:26Z</time>
      </trkpt>
      <trkpt lat="45.0167280" lon="7.0180520">
        <ele>1932.6</ele>
        <time>2017-07-27T10:59:28Z</time>
      </trkpt>
      <trkpt lat="45.0169220" lon="7.0180690">
        <ele>1931.0</ele>
        <time>2017-07-27T10:59:31Z</time>
      </trkpt>
      <trkpt lat="45.0170430" lon="7.0180740">
        <ele>1929.8</ele>
        <time>2017-07-27T10:59:33Z</time>
      </trkpt>
      <trkpt lat="45.0171040" lon="7.0180780">
        <ele>1929.6</ele>
        <time>2017-07-27T10:59:34Z</time>
      </trkpt>
      <trkpt lat="45.0172030" lon="7.0180620">
        <ele>1928.8</ele>
        <time>2017-07-27T10:59:36Z</time>
      </trkpt>
      <trkpt lat="45.0173060" lon="7.0180260">
        <ele>1927.0</ele>
        <time>2017-07-27T10:59:38Z</time>
      </trkpt>
      <trkpt lat="45.0173850" lon="7.0179890">
        <ele>1925.2</ele>
        <time>2017-07-27T10:59:40Z</time>
      </trkpt>
      <trkpt lat="45.0174180" lon="7.0179540">
        <ele>1924.0</ele>
        <time>2017-07-27T10:59:41Z</time>
      </trkpt>
      <trkpt lat="45.0174550" lon="7.0178120">
        <ele>1922.4</ele>
        <time>2017-07-27T10:59:43Z</time>
      </trkpt>
      <trkpt lat="45.0174770" lon="7.0177470">
        <ele>1921.4</ele>
        <time>2017-07-27T10:59:44Z</time>
      </trkpt>
      <trkpt lat="45.0175200" lon="7.0176920">
        <ele>1920.4</ele>
        <time>2017-07-27T10:59:45Z</time>
      </trkpt>
      <trkpt lat="45.0175510" lon="7.0176610">
        <ele>1919.6</ele>
        <time>2017-07-27T10:59:46Z</time>
      </trkpt>
      <trkpt lat="45.0175800" lon="7.0176490">
        <ele>1919.2</ele>
        <time>2017-07-27T10:59:47Z</time>
      </trkpt>
      <trkpt lat="45.0176150" lon="7.0176610">
        <ele>1918.4</ele>
        <time>2017-07-27T10:59:48Z</time>
      </trkpt>
      <trkpt lat="45.0177210" lon="7.0177930">
        <ele>1917.0</ele>
        <time>2017-07-27T10:59:50Z</time>
      </trkpt>
      <trkpt lat="45.0178140" lon="7.0178900">
        <ele>1915.6</ele>
        <time>2017-07-27T10:59:52Z</time>
      </trkpt>
      <trkpt lat="45.0178860" lon="7.0179090">
        <ele>1914.0</ele>
        <time>2017-07-27T10:59:54Z</time>
      </trkpt>
      <trkpt lat="45.0179550" lon="7.0178990">
        <ele>1912.4</ele>
        <time>2017-07-27T10:59:56Z</time>
      </trkpt>
      <trkpt lat="45.0180020" lon="7.0178880">
        <ele>1911.4</ele>
        <time>2017-07-27T10:59:57Z</time>
      </trkpt>
      <trkpt lat="45.0180350" lon="7.0178760">
        <ele>1910.2</ele>
        <time>2017-07-27T10:59:58Z</time>
      </trkpt>
      <trkpt lat="45.0180830" lon="7.0178400">
        <ele>1909.0</ele>
        <time>2017-07-27T10:59:59Z</time>
      </trkpt>
      <trkpt lat="45.0181880" lon="7.0178600">
        <ele>1907.0</ele>
        <time>2017-07-27T11:00:01Z</time>
      </trkpt>
      <trkpt lat="45.0182280" lon="7.0179100">
        <ele>1906.0</ele>
        <time>2017-07-27T11:00:02Z</time>
      </trkpt>
      <trkpt lat="45.0182770" lon="7.0179670">
        <ele>1905.0</ele>
        <time>2017-07-27T11:00:03Z</time>
      </trkpt>
      <trkpt lat="45.0183330" lon="7.0180180">
        <ele>1904.0</ele>
        <time>2017-07-27T11:00:04Z</time>
      </trkpt>
      <trkpt lat="45.0183940" lon="7.0180350">
        <ele>1902.2</ele>
        <time>2017-07-27T11:00:05Z</time>
      </trkpt>
      <trkpt lat="45.0184600" lon="7.0180450">
        <ele>1901.4</ele>
        <time>2017-07-27T11:00:06Z</time>
      </trkpt>
      <trkpt lat="45.0184980" lon="7.0180580">
        <ele>1900.4</ele>
        <time>2017-07-27T11:00:07Z</time>
      </trkpt>
      <trkpt lat="45.0185310" lon="7.0180680">
        <ele>1899.0</ele>
        <time>2017-07-27T11:00:08Z</time>
      </trkpt>
      <trkpt lat="45.0185840" lon="7.0180640">
        <ele>1897.6</ele>
        <time>2017-07-27T11:00:09Z</time>
      </trkpt>
      <trkpt lat="45.0186670" lon="7.0180560">
        <ele>1896.4</ele>
        <time>2017-07-27T11:00:10Z</time>
      </trkpt>
      <trkpt lat="45.0187170" lon="7.0180590">
        <ele>1895.0</ele>
        <time>2017-07-27T11:00:11Z</time>
      </trkpt>
      <trkpt lat="45.0187510" lon="7.0180800">
        <ele>1893.8</ele>
        <time>2017-07-27T11:00:12Z</time>
      </trkpt>
      <trkpt lat="45.0187650" lon="7.0181010">
        <ele>1892.8</ele>
        <time>2017-07-27T11:00:13Z</time>
      </trkpt>
      <trkpt lat="45.0187700" lon="7.0181430">
        <ele>1892.0</ele>
        <time>2017-07-27T11:00:14Z</time>
      </trkpt>
      <trkpt lat="45.0187850" lon="7.0181860">
        <ele>1890.8</ele>
        <time>2017-07-27T11:00:15Z</time>
      </trkpt>
      <trkpt lat="45.0187900" lon="7.0182250">
        <ele>1889.4</ele>
        <time>2017-07-27T11:00:16Z</time>
      </trkpt>
      <trkpt lat="45.0187920" lon="7.0182640">
        <ele>1888.4</ele>
        <time>2017-07-27T11:00:17Z</time>
      </trkpt>
      <trkpt lat="45.0187860" lon="7.0182910">
        <ele>1887.2</ele>
        <time>2017-07-27T11:00:18Z</time>
      </trkpt>
      <trkpt lat="45.0187790" lon="7.0183090">
        <ele>1886.4</ele>
        <time>2017-07-27T11:00:19Z</time>
      </trkpt>
      <trkpt lat="45.0187710" lon="7.0183150">
        <ele>1885.2</ele>
        <time>2017-07-27T11:00:20Z</time>
      </trkpt>
      <trkpt lat="45.0187770" lon="7.0183340">
        <ele>1884.4</ele>
        <time>2017-07-27T11:00:21Z</time>
      </trkpt>
      <trkpt lat="45.0187770" lon="7.0183640">
        <ele>1883.2</ele>
        <time>2017-07-27T11:00:22Z</time>
      </trkpt>
      <trkpt lat="45.0187600" lon="7.0183860">
        <ele>1882.2</ele>
        <time>2017-07-27T11:00:23Z</time>
      </trkpt>
      <trkpt lat="45.0187500" lon="7.0184330">
        <ele>1881.2</ele>
        <time>2017-07-27T11:00:24Z</time>
      </trkpt>
      <trkpt lat="45.0187230" lon="7.0184930">
        <ele>1879.2</ele>
        <time>2017-07-27T11:00:26Z</time>
      </trkpt>
      <trkpt lat="45.0187190" lon="7.0185160">
        <ele>1877.4</ele>
        <time>2017-07-27T11:00:28Z</time>
      </trkpt>
      <trkpt lat="45.0187230" lon="7.0185060">
        <ele>1875.6</ele>
        <time>2017-07-27T11:00:29Z</time>
      </trkpt>
      <trkpt lat="45.0187540" lon="7.0184820">
        <ele>1873.8</ele>
        <time>2017-07-27T11:00:31Z</time>
      </trkpt>
      <trkpt lat="45.0187760" lon="7.0184650">
        <ele>1873.0</ele>
        <time>2017-07-27T11:00:32Z</time>
      </trkpt>
      <trkpt lat="45.0187970" lon="7.0184640">
        <ele>1872.2</ele>
        <time>2017-07-27T11:00:33Z</time>
      </trkpt>
      <trkpt lat="45.0188400" lon="7.0185140">
        <ele>1870.6</ele>
        <time>2017-07-27T11:00:35Z</time>
      </trkpt>
      <trkpt lat="45.0188410" lon="7.0185830">
        <ele>1869.0</ele>
        <time>2017-07-27T11:00:37Z</time>
      </trkpt>
      <trkpt lat="45.0188270" lon="7.0186460">
        <ele>1867.4</ele>
        <time>2017-07-27T11:00:39Z</time>
      </trkpt>
      <trkpt lat="45.0188160" lon="7.0186820">
        <ele>1866.4</ele>
        <time>2017-07-27T11:00:40Z</time>
      </trkpt>
      <trkpt lat="45.0188110" lon="7.0187270">
        <ele>1865.4</ele>
        <time>2017-07-27T11:00:41Z</time>
      </trkpt>
      <trkpt lat="45.0188090" lon="7.0187580">
        <ele>1864.4</ele>
        <time>2017-07-27T11:00:42Z</time>
      </trkpt>
      <trkpt lat="45.0188130" lon="7.0187510">
        <ele>1862.8</ele>
        <time>2017-07-27T11:00:44Z</time>
      </trkpt>
      <trkpt lat="45.0188020" lon="7.0187970">
        <ele>1862.0</ele>
        <time>2017-07-27T11:00:45Z</time>
      </trkpt>
      <trkpt lat="45.0188100" lon="7.0188270">
        <ele>1861.2</ele>
        <time>2017-07-27T11:00:46Z</time>
      </trkpt>
      <trkpt lat="45.0188790" lon="7.0188490">
        <ele>1859.2</ele>
        <time>2017-07-27T11:00:48Z</time>
      </trkpt>
      <trkpt lat="45.0189440" lon="7.0188060">
        <ele>1857.6</ele>
        <time>2017-07-27T11:00:50Z</time>
      </trkpt>
      <trkpt lat="45.0189870" lon="7.0187630">
        <ele>1855.8</ele>
        <time>2017-07-27T11:00:52Z</time>
      </trkpt>
      <trkpt lat="45.0189960" lon="7.0187410">
        <ele>1854.4</ele>
        <time>2017-07-27T11:00:53Z</time>
      </trkpt>
      <trkpt lat="45.0190180" lon="7.0187140">
        <ele>1853.2</ele>
        <time>2017-07-27T11:00:55Z</time>
      </trkpt>
      <trkpt lat="45.0190530" lon="7.0187100">
        <ele>1852.0</ele>
        <time>2017-07-27T11:00:57Z</time>
      </trkpt>
      <trkpt lat="45.0191310" lon="7.0186930">
        <ele>1850.6</ele>
        <time>2017-07-27T11:00:59Z</time>
      </trkpt>
      <trkpt lat="45.0191820" lon="7.0186790">
        <ele>1850.0</ele>
        <time>2017-07-27T11:01:00Z</time>
      </trkpt>
      <trkpt lat="45.0192000" lon="7.0186530">
        <ele>1849.4</ele>
        <time>2017-07-27T11:01:01Z</time>
      </trkpt>
      <trkpt lat="45.0192250" lon="7.0186350">
        <ele>1849.0</ele>
        <time>2017-07-27T11:01:02Z</time>
      </trkpt>
      <trkpt lat="45.0192580" lon="7.0186270">
        <ele>1848.2</ele>
        <time>2017-07-27T11:01:03Z</time>
      </trkpt>
      <trkpt lat="45.0193130" lon="7.0186020">
        <ele>1846.4</ele>
        <time>2017-07-27T11:01:05Z</time>
      </trkpt>
      <trkpt lat="45.0193440" lon="7.0185870">
        <ele>1845.8</ele>
        <time>2017-07-27T11:01:06Z</time>
      </trkpt>
      <trkpt lat="45.0193780" lon="7.0185780">
        <ele>1845.2</ele>
        <time>2017-07-27T11:01:07Z</time>
      </trkpt>
      <trkpt lat="45.0194450" lon="7.0185380">
        <ele>1843.6</ele>
        <time>2017-07-27T11:01:09Z</time>
      </trkpt>
      <trkpt lat="45.0195480" lon="7.0184580">
        <ele>1842.2</ele>
        <time>2017-07-27T11:01:11Z</time>
      </trkpt>
      <trkpt lat="45.0196650" lon="7.0183890">
        <ele>1840.4</ele>
        <time>2017-07-27T11:01:13Z</time>
      </trkpt>
      <trkpt lat="45.0198520" lon="7.0184080">
        <ele>1838.6</ele>
        <time>2017-07-27T11:01:15Z</time>
      </trkpt>
      <trkpt lat="45.0200150" lon="7.0184610">
        <ele>1836.2</ele>
        <time>2017-07-27T11:01:17Z</time>
      </trkpt>
      <trkpt lat="45.0201540" lon="7.0186010">
        <ele>1834.4</ele>
        <time>2017-07-27T11:01:19Z</time>
      </trkpt>
      <trkpt lat="45.0202050" lon="7.0186460">
        <ele>1833.6</ele>
        <time>2017-07-27T11:01:20Z</time>
      </trkpt>
      <trkpt lat="45.0202480" lon="7.0186710">
        <ele>1832.4</ele>
        <time>2017-07-27T11:01:21Z</time>
      </trkpt>
      <trkpt lat="45.0203060" lon="7.0186780">
        <ele>1831.2</ele>
        <time>2017-07-27T11:01:22Z</time>
      </trkpt>
      <trkpt lat="45.0203730" lon="7.0186570">
        <ele>1830.2</ele>
        <time>2017-07-27T11:01:23Z</time>
      </trkpt>
      <trkpt lat="45.0204230" lon="7.0186530">
        <ele>1829.2</ele>
        <time>2017-07-27T11:01:24Z</time>
      </trkpt>
      <trkpt lat="45.0204740" lon="7.0186720">
        <ele>1828.4</ele>
        <time>2017-07-27T11:01:25Z</time>
      </trkpt>
      <trkpt lat="45.0205330" lon="7.0186930">
        <ele>1827.4</ele>
        <time>2017-07-27T11:01:26Z</time>
      </trkpt>
      <trkpt lat="45.0206000" lon="7.0187020">
        <ele>1826.6</ele>
        <time>2017-07-27T11:01:27Z</time>
      </trkpt>
      <trkpt lat="45.0206540" lon="7.0187290">
        <ele>1825.6</ele>
        <time>2017-07-27T11:01:28Z</time>
      </trkpt>
      <trkpt lat="45.0206550" lon="7.0187660">
        <ele>1823.4</ele>
        <time>2017-07-27T11:01:30Z</time>
      </trkpt>
      <trkpt lat="45.0206120" lon="7.0188370">
        <ele>1821.4</ele>
        <time>2017-07-27T11:01:32Z</time>
      </trkpt>
      <trkpt lat="45.0205850" lon="7.0188930">
        <ele>1820.6</ele>
        <time>2017-07-27T11:01:33Z</time>
      </trkpt>
      <trkpt lat="45.0204990" lon="7.0189340">
        <ele>1819.8</ele>
        <time>2017-07-27T11:01:34Z</time>
      </trkpt>
      <trkpt lat="45.0203990" lon="7.0190100">
        <ele>1818.0</ele>
        <time>2017-07-27T11:01:36Z</time>
      </trkpt>
      <trkpt lat="45.0203550" lon="7.0190670">
        <ele>1817.4</ele>
        <time>2017-07-27T11:01:37Z</time>
      </trkpt>
      <trkpt lat="45.0203370" lon="7.0191320">
        <ele>1816.8</ele>
        <time>2017-07-27T11:01:38Z</time>
      </trkpt>
      <trkpt lat="45.0203250" lon="7.0191720">
        <ele>1816.0</ele>
        <time>2017-07-27T11:01:39Z</time>
      </trkpt>
      <trkpt lat="45.0202800" lon="7.0191960">
        <ele>1815.2</ele>
        <time>2017-07-27T11:01:40Z</time>
      </trkpt>
      <trkpt lat="45.0202360" lon="7.0191960">
        <ele>1813.6</ele>
        <time>2017-07-27T11:01:41Z</time>
      </trkpt>
      <trkpt lat="45.0202070" lon="7.0192530">
        <ele>1812.4</ele>
        <time>2017-07-27T11:01:43Z</time>
      </trkpt>
      <trkpt lat="45.0202070" lon="7.0192680">
        <ele>1812.0</ele>
        <time>2017-07-27T11:01:44Z</time>
      </trkpt>
      <trkpt lat="45.0202280" lon="7.0192770">
        <ele>1811.2</ele>
        <time>2017-07-27T11:01:45Z</time>
      </trkpt>
      <trkpt lat="45.0202700" lon="7.0193300">
        <ele>1809.4</ele>
        <time>2017-07-27T11:01:47Z</time>
      </trkpt>
      <trkpt lat="45.0203570" lon="7.0193690">
        <ele>1807.6</ele>
        <time>2017-07-27T11:01:49Z</time>
      </trkpt>
      <trkpt lat="45.0204040" lon="7.0193820">
        <ele>1806.6</ele>
        <time>2017-07-27T11:01:50Z</time>
      </trkpt>
      <trkpt lat="45.0204330" lon="7.0194210">
        <ele>1805.6</ele>
        <time>2017-07-27T11:01:51Z</time>
      </trkpt>
      <trkpt lat="45.0204230" lon="7.0194640">
        <ele>1804.8</ele>
        <time>2017-07-27T11:01:52Z</time>
      </trkpt>
      <trkpt lat="45.0203970" lon="7.0195090">
        <ele>1804.0</ele>
        <time>2017-07-27T11:01:53Z</time>
      </trkpt>
      <trkpt lat="45.0203790" lon="7.0195650">
        <ele>1803.4</ele>
        <time>2017-07-27T11:01:54Z</time>
      </trkpt>
      <trkpt lat="45.0203210" lon="7.0196510">
        <ele>1801.6</ele>
        <time>2017-07-27T11:01:56Z</time>
      </trkpt>
      <trkpt lat="45.0202760" lon="7.0196880">
        <ele>1800.6</ele>
        <time>2017-07-27T11:01:57Z</time>
      </trkpt>
      <trkpt lat="45.0202740" lon="7.0197200">
        <ele>1800.0</ele>
        <time>2017-07-27T11:01:58Z</time>
      </trkpt>
      <trkpt lat="45.0202880" lon="7.0197320">
        <ele>1799.0</ele>
        <time>2017-07-27T11:01:59Z</time>
      </trkpt>
      <trkpt lat="45.0203180" lon="7.0197370">
        <ele>1798.4</ele>
        <time>2017-07-27T11:02:00Z</time>
      </trkpt>
      <trkpt lat="45.0203580" lon="7.0197710">
        <ele>1796.8</ele>
        <time>2017-07-27T11:02:02Z</time>
      </trkpt>
      <trkpt lat="45.0204090" lon="7.0197620">
        <ele>1795.0</ele>
        <time>2017-07-27T11:02:04Z</time>
      </trkpt>
      <trkpt lat="45.0204450" lon="7.0197500">
        <ele>1793.4</ele>
        <time>2017-07-27T11:02:05Z</time>
      </trkpt>
      <trkpt lat="45.0205030" lon="7.0197610">
        <ele>1792.4</ele>
        <time>2017-07-27T11:02:06Z</time>
      </trkpt>
      <trkpt lat="45.0205570" lon="7.0197720">
        <ele>1791.8</ele>
        <time>2017-07-27T11:02:07Z</time>
      </trkpt>
      <trkpt lat="45.0205980" lon="7.0198130">
        <ele>1791.0</ele>
        <time>2017-07-27T11:02:08Z</time>
      </trkpt>
      <trkpt lat="45.0206330" lon="7.0198650">
        <ele>1790.4</ele>
        <time>2017-07-27T11:02:09Z</time>
      </trkpt>
      <trkpt lat="45.0206690" lon="7.0198970">
        <ele>1789.4</ele>
        <time>2017-07-27T11:02:10Z</time>
      </trkpt>
      <trkpt lat="45.0207130" lon="7.0199180">
        <ele>1788.6</ele>
        <time>2017-07-27T11:02:11Z</time>
      </trkpt>
      <trkpt lat="45.0207750" lon="7.0199590">
        <ele>1787.6</ele>
        <time>2017-07-27T11:02:12Z</time>
      </trkpt>
      <trkpt lat="45.0208460" lon="7.0200040">
        <ele>1786.8</ele>
        <time>2017-07-27T11:02:13Z</time>
      </trkpt>
      <trkpt lat="45.0209010" lon="7.0200420">
        <ele>1785.8</ele>
        <time>2017-07-27T11:02:14Z</time>
      </trkpt>
      <trkpt lat="45.0210370" lon="7.0201080">
        <ele>1784.0</ele>
        <time>2017-07-27T11:02:16Z</time>
      </trkpt>
      <trkpt lat="45.0211880" lon="7.0201200">
        <ele>1782.0</ele>
        <time>2017-07-27T11:02:18Z</time>
      </trkpt>
      <trkpt lat="45.0212780" lon="7.0201320">
        <ele>1780.8</ele>
        <time>2017-07-27T11:02:19Z</time>
      </trkpt>
      <trkpt lat="45.0213710" lon="7.0201580">
        <ele>1780.0</ele>
        <time>2017-07-27T11:02:20Z</time>
      </trkpt>
      <trkpt lat="45.0214440" lon="7.0201870">
        <ele>1779.0</ele>
        <time>2017-07-27T11:02:21Z</time>
      </trkpt>
      <trkpt lat="45.0215090" lon="7.0201980">
        <ele>1777.8</ele>
        <time>2017-07-27T11:02:22Z</time>
      </trkpt>
      <trkpt lat="45.0215770" lon="7.0202050">
        <ele>1776.4</ele>
        <time>2017-07-27T11:02:23Z</time>
      </trkpt>
      <trkpt lat="45.0216300" lon="7.0202200">
        <ele>1775.4</ele>
        <time>2017-07-27T11:02:24Z</time>
      </trkpt>
      <trkpt lat="45.0216790" lon="7.0202560">
        <ele>1773.6</ele>
        <time>2017-07-27T11:02:26Z</time>
      </trkpt>
      <trkpt lat="45.0217580" lon="7.0202240">
        <ele>1772.4</ele>
        <time>2017-07-27T11:02:28Z</time>
      </trkpt>
      <trkpt lat="45.0217750" lon="7.0201670">
        <ele>1771.4</ele>
        <time>2017-07-27T11:02:29Z</time>
      </trkpt>
      <trkpt lat="45.0218000" lon="7.0201300">
        <ele>1770.6</ele>
        <time>2017-07-27T11:02:30Z</time>
      </trkpt>
      <trkpt lat="45.0218370" lon="7.0200700">
        <ele>1769.6</ele>
        <time>2017-07-27T11:02:31Z</time>
      </trkpt>
      <trkpt lat="45.0218730" lon="7.0200250">
        <ele>1768.8</ele>
        <time>2017-07-27T11:02:32Z</time>
      </trkpt>
      <trkpt lat="45.0219160" lon="7.0199840">
        <ele>1767.6</ele>
        <time>2017-07-27T11:02:33Z</time>
      </trkpt>
      <trkpt lat="45.0219620" lon="7.0200030">
        <ele>1765.6</ele>
        <time>2017-07-27T11:02:35Z</time>
      </trkpt>
      <trkpt lat="45.0220000" lon="7.0200520">
        <ele>1764.6</ele>
        <time>2017-07-27T11:02:36Z</time>
      </trkpt>
      <trkpt lat="45.0220320" lon="7.0201550">
        <ele>1763.6</ele>
        <time>2017-07-27T11:02:37Z</time>
      </trkpt>
      <trkpt lat="45.0220970" lon="7.0202290">
        <ele>1762.6</ele>
        <time>2017-07-27T11:02:38Z</time>
      </trkpt>
      <trkpt lat="45.0221360" lon="7.0202830">
        <ele>1761.6</ele>
        <time>2017-07-27T11:02:39Z</time>
      </trkpt>
      <trkpt lat="45.0221910" lon="7.0203460">
        <ele>1760.6</ele>
        <time>2017-07-27T11:02:40Z</time>
      </trkpt>
      <trkpt lat="45.0222390" lon="7.0204060">
        <ele>1759.2</ele>
        <time>2017-07-27T11:02:41Z</time>
      </trkpt>
      <trkpt lat="45.0223320" lon="7.0205410">
        <ele>1757.4</ele>
        <time>2017-07-27T11:02:43Z</time>
      </trkpt>
      <trkpt lat="45.0223770" lon="7.0206180">
        <ele>1756.6</ele>
        <time>2017-07-27T11:02:44Z</time>
      </trkpt>
      <trkpt lat="45.0224280" lon="7.0206860">
        <ele>1755.8</ele>
        <time>2017-07-27T11:02:45Z</time>
      </trkpt>
      <trkpt lat="45.0224960" lon="7.0208520">
        <ele>1754.2</ele>
        <time>2017-07-27T11:02:47Z</time>
      </trkpt>
      <trkpt lat="45.0225230" lon="7.0209520">
        <ele>1753.2</ele>
        <time>2017-07-27T11:02:48Z</time>
      </trkpt>
      <trkpt lat="45.0225350" lon="7.0210540">
        <ele>1752.2</ele>
        <time>2017-07-27T11:02:49Z</time>
      </trkpt>
      <trkpt lat="45.0225730" lon="7.0211500">
        <ele>1751.2</ele>
        <time>2017-07-27T11:02:50Z</time>
      </trkpt>
      <trkpt lat="45.0226210" lon="7.0212200">
        <ele>1750.2</ele>
        <time>2017-07-27T11:02:51Z</time>
      </trkpt>
      <trkpt lat="45.0226560" lon="7.0212760">
        <ele>1749.0</ele>
        <time>2017-07-27T11:02:52Z</time>
      </trkpt>
      <trkpt lat="45.0226990" lon="7.0213520">
        <ele>1746.8</ele>
        <time>2017-07-27T11:02:53Z</time>
      </trkpt>
      <trkpt lat="45.0227920" lon="7.0214680">
        <ele>1744.8</ele>
        <time>2017-07-27T11:02:55Z</time>
      </trkpt>
      <trkpt lat="45.0228450" lon="7.0215190">
        <ele>1743.6</ele>
        <time>2017-07-27T11:02:56Z</time>
      </trkpt>
      <trkpt lat="45.0229010" lon="7.0215820">
        <ele>1742.6</ele>
        <time>2017-07-27T11:02:57Z</time>
      </trkpt>
      <trkpt lat="45.0229490" lon="7.0216490">
        <ele>1742.0</ele>
        <time>2017-07-27T11:02:58Z</time>
      </trkpt>
      <trkpt lat="45.0230320" lon="7.0217760">
        <ele>1740.2</ele>
        <time>2017-07-27T11:03:00Z</time>
      </trkpt>
      <trkpt lat="45.0230730" lon="7.0218300">
        <ele>1739.4</ele>
        <time>2017-07-27T11:03:01Z</time>
      </trkpt>
      <trkpt lat="45.0231200" lon="7.0218800">
        <ele>1738.8</ele>
        <time>2017-07-27T11:03:02Z</time>
      </trkpt>
      <trkpt lat="45.0231990" lon="7.0219790">
        <ele>1738.2</ele>
        <time>2017-07-27T11:03:04Z</time>
      </trkpt>
      <trkpt lat="45.0232440" lon="7.0220120">
        <ele>1737.8</ele>
        <time>2017-07-27T11:03:05Z</time>
      </trkpt>
      <trkpt lat="45.0232770" lon="7.0220500">
        <ele>1737.4</ele>
        <time>2017-07-27T11:03:06Z</time>
      </trkpt>
      <trkpt lat="45.0233040" lon="7.0220960">
        <ele>1737.0</ele>
        <time>2017-07-27T11:03:07Z</time>
      </trkpt>
      <trkpt lat="45.0233350" lon="7.0221450">
        <ele>1736.8</ele>
        <time>2017-07-27T11:03:08Z</time>
      </trkpt>
      <trkpt lat="45.0234070" lon="7.0222530">
        <ele>1736.4</ele>
        <time>2017-07-27T11:03:10Z</time>
      </trkpt>
      <trkpt lat="45.0234320" lon="7.0223090">
        <ele>1736.2</ele>
        <time>2017-07-27T11:03:11Z</time>
      </trkpt>
      <trkpt lat="45.0234450" lon="7.0223640">
        <ele>1735.8</ele>
        <time>2017-07-27T11:03:12Z</time>
      </trkpt>
      <trkpt lat="45.0234920" lon="7.0224160">
        <ele>1735.4</ele>
        <time>2017-07-27T11:03:14Z</time>
      </trkpt>
      <trkpt lat="45.0235030" lon="7.0224560">
        <ele>1735.2</ele>
        <time>2017-07-27T11:03:15Z</time>
      </trkpt>
      <trkpt lat="45.0235080" lon="7.0225010">
        <ele>1735.0</ele>
        <time>2017-07-27T11:03:16Z</time>
      </trkpt>
      <trkpt lat="45.0235400" lon="7.0226290">
        <ele>1733.8</ele>
        <time>2017-07-27T11:03:18Z</time>
      </trkpt>
      <trkpt lat="45.0235570" lon="7.0226890">
        <ele>1733.6</ele>
        <time>2017-07-27T11:03:19Z</time>
      </trkpt>
      <trkpt lat="45.0236040" lon="7.0227820">
        <ele>1732.8</ele>
        <time>2017-07-27T11:03:21Z</time>
      </trkpt>
      <trkpt lat="45.0236360" lon="7.0228140">
        <ele>1732.2</ele>
        <time>2017-07-27T11:03:22Z</time>
      </trkpt>
      <trkpt lat="45.0236700" lon="7.0228390">
        <ele>1732.2</ele>
        <time>2017-07-27T11:03:23Z</time>
      </trkpt>
      <trkpt lat="45.0237070" lon="7.0228610">
        <ele>1731.6</ele>
        <time>2017-07-27T11:03:24Z</time>
      </trkpt>
      <trkpt lat="45.0238080" lon="7.0229730">
        <ele>1730.6</ele>
        <time>2017-07-27T11:03:27Z</time>
      </trkpt>
      <trkpt lat="45.0238230" lon="7.0230830">
        <ele>1729.6</ele>
        <time>2017-07-27T11:03:29Z</time>
      </trkpt>
      <trkpt lat="45.0238370" lon="7.0231270">
        <ele>1729.2</ele>
        <time>2017-07-27T11:03:30Z</time>
      </trkpt>
      <trkpt lat="45.0239690" lon="7.0231980">
        <ele>1728.6</ele>
        <time>2017-07-27T11:03:33Z</time>
      </trkpt>
      <trkpt lat="45.0240380" lon="7.0231710">
        <ele>1728.4</ele>
        <time>2017-07-27T11:03:34Z</time>
      </trkpt>
      <trkpt lat="45.0240920" lon="7.0231580">
        <ele>1728.2</ele>
        <time>2017-07-27T11:03:35Z</time>
      </trkpt>
      <trkpt lat="45.0241750" lon="7.0231110">
        <ele>1728.0</ele>
        <time>2017-07-27T11:03:36Z</time>
      </trkpt>
      <trkpt lat="45.0242650" lon="7.0230950">
        <ele>1728.0</ele>
        <time>2017-07-27T11:03:37Z</time>
      </trkpt>
      <trkpt lat="45.0244110" lon="7.0231270">
        <ele>1727.4</ele>
        <time>2017-07-27T11:03:39Z</time>
      </trkpt>
      <trkpt lat="45.0244830" lon="7.0231410">
        <ele>1726.8</ele>
        <time>2017-07-27T11:03:40Z</time>
      </trkpt>
      <trkpt lat="45.0246430" lon="7.0231480">
        <ele>1726.0</ele>
        <time>2017-07-27T11:03:42Z</time>
      </trkpt>
      <trkpt lat="45.0247220" lon="7.0231830">
        <ele>1725.4</ele>
        <time>2017-07-27T11:03:43Z</time>
      </trkpt>
      <trkpt lat="45.0248130" lon="7.0232260">
        <ele>1724.6</ele>
        <time>2017-07-27T11:03:44Z</time>
      </trkpt>
      <trkpt lat="45.0248910" lon="7.0233020">
        <ele>1724.2</ele>
        <time>2017-07-27T11:03:45Z</time>
      </trkpt>
      <trkpt lat="45.0250190" lon="7.0234670">
        <ele>1722.8</ele>
        <time>2017-07-27T11:03:47Z</time>
      </trkpt>
      <trkpt lat="45.0250640" lon="7.0237240">
        <ele>1721.8</ele>
        <time>2017-07-27T11:03:50Z</time>
      </trkpt>
      <trkpt lat="45.0252010" lon="7.0238940">
        <ele>1720.4</ele>
        <time>2017-07-27T11:03:53Z</time>
      </trkpt>
      <trkpt lat="45.0254330" lon="7.0239590">
        <ele>1719.4</ele>
        <time>2017-07-27T11:03:56Z</time>
      </trkpt>
      <trkpt lat="45.0255210" lon="7.0239830">
        <ele>1718.8</ele>
        <time>2017-07-27T11:03:57Z</time>
      </trkpt>
      <trkpt lat="45.0256120" lon="7.0240110">
        <ele>1717.8</ele>
        <time>2017-07-27T11:03:58Z</time>
      </trkpt>
      <trkpt lat="45.0257970" lon="7.0240550">
        <ele>1716.8</ele>
        <time>2017-07-27T11:04:00Z</time>
      </trkpt>
      <trkpt lat="45.0258870" lon="7.0240630">
        <ele>1716.0</ele>
        <time>2017-07-27T11:04:01Z</time>
      </trkpt>
      <trkpt lat="45.0259790" lon="7.0240710">
        <ele>1715.4</ele>
        <time>2017-07-27T11:04:02Z</time>
      </trkpt>
      <trkpt lat="45.0261740" lon="7.0240790">
        <ele>1713.8</ele>
        <time>2017-07-27T11:04:04Z</time>
      </trkpt>
      <trkpt lat="45.0262850" lon="7.0241100">
        <ele>1712.4</ele>
        <time>2017-07-27T11:04:05Z</time>
      </trkpt>
      <trkpt lat="45.0263860" lon="7.0241350">
        <ele>1711.6</ele>
        <time>2017-07-27T11:04:06Z</time>
      </trkpt>
      <trkpt lat="45.0264950" lon="7.0241590">
        <ele>1710.4</ele>
        <time>2017-07-27T11:04:07Z</time>
      </trkpt>
      <trkpt lat="45.0265930" lon="7.0241730">
        <ele>1709.4</ele>
        <time>2017-07-27T11:04:08Z</time>
      </trkpt>
      <trkpt lat="45.0266780" lon="7.0241490">
        <ele>1708.0</ele>
        <time>2017-07-27T11:04:09Z</time>
      </trkpt>
      <trkpt lat="45.0267630" lon="7.0241110">
        <ele>1707.4</ele>
        <time>2017-07-27T11:04:10Z</time>
      </trkpt>
      <trkpt lat="45.0268510" lon="7.0240600">
        <ele>1706.2</ele>
        <time>2017-07-27T11:04:11Z</time>
      </trkpt>
      <trkpt lat="45.0270280" lon="7.0239380">
        <ele>1704.0</ele>
        <time>2017-07-27T11:04:13Z</time>
      </trkpt>
      <trkpt lat="45.0271050" lon="7.0238800">
        <ele>1702.8</ele>
        <time>2017-07-27T11:04:14Z</time>
      </trkpt>
      <trkpt lat="45.0271690" lon="7.0238420">
        <ele>1701.6</ele>
        <time>2017-07-27T11:04:15Z</time>
      </trkpt>
      <trkpt lat="45.0272310" lon="7.0238390">
        <ele>1700.4</ele>
        <time>2017-07-27T11:04:16Z</time>
      </trkpt>
      <trkpt lat="45.0272810" lon="7.0238740">
        <ele>1699.2</ele>
        <time>2017-07-27T11:04:17Z</time>
      </trkpt>
      <trkpt lat="45.0273150" lon="7.0239260">
        <ele>1697.0</ele>
        <time>2017-07-27T11:04:19Z</time>
      </trkpt>
      <trkpt lat="45.0273180" lon="7.0239770">
        <ele>1696.2</ele>
        <time>2017-07-27T11:04:20Z</time>
      </trkpt>
      <trkpt lat="45.0273140" lon="7.0240410">
        <ele>1694.8</ele>
        <time>2017-07-27T11:04:21Z</time>
      </trkpt>
      <trkpt lat="45.0273130" lon="7.0241190">
        <ele>1694.0</ele>
        <time>2017-07-27T11:04:22Z</time>
      </trkpt>
      <trkpt lat="45.0273110" lon="7.0242050">
        <ele>1693.0</ele>
        <time>2017-07-27T11:04:23Z</time>
      </trkpt>
      <trkpt lat="45.0273080" lon="7.0243020">
        <ele>1692.2</ele>
        <time>2017-07-27T11:04:24Z</time>
      </trkpt>
      <trkpt lat="45.0272970" lon="7.0244190">
        <ele>1691.0</ele>
        <time>2017-07-27T11:04:25Z</time>
      </trkpt>
      <trkpt lat="45.0272590" lon="7.0245460">
        <ele>1689.4</ele>
        <time>2017-07-27T11:04:26Z</time>
      </trkpt>
      <trkpt lat="45.0272190" lon="7.0246360">
        <ele>1688.0</ele>
        <time>2017-07-27T11:04:27Z</time>
      </trkpt>
      <trkpt lat="45.0271720" lon="7.0247390">
        <ele>1686.8</ele>
        <time>2017-07-27T11:04:28Z</time>
      </trkpt>
      <trkpt lat="45.0270950" lon="7.0247950">
        <ele>1684.8</ele>
        <time>2017-07-27T11:04:29Z</time>
      </trkpt>
      <trkpt lat="45.0270250" lon="7.0248650">
        <ele>1683.8</ele>
        <time>2017-07-27T11:04:30Z</time>
      </trkpt>
      <trkpt lat="45.0269730" lon="7.0249790">
        <ele>1682.6</ele>
        <time>2017-07-27T11:04:31Z</time>
      </trkpt>
      <trkpt lat="45.0269160" lon="7.0250840">
        <ele>1681.4</ele>
        <time>2017-07-27T11:04:32Z</time>
      </trkpt>
      <trkpt lat="45.0268560" lon="7.0252040">
        <ele>1680.8</ele>
        <time>2017-07-27T11:04:33Z</time>
      </trkpt>
      <trkpt lat="45.0267950" lon="7.0253240">
        <ele>1680.2</ele>
        <time>2017-07-27T11:04:34Z</time>
      </trkpt>
      <trkpt lat="45.0267430" lon="7.0254540">
        <ele>1679.4</ele>
        <time>2017-07-27T11:04:35Z</time>
      </trkpt>
      <trkpt lat="45.0266750" lon="7.0255570">
        <ele>1678.0</ele>
        <time>2017-07-27T11:04:36Z</time>
      </trkpt>
      <trkpt lat="45.0266050" lon="7.0256510">
        <ele>1677.0</ele>
        <time>2017-07-27T11:04:37Z</time>
      </trkpt>
      <trkpt lat="45.0265290" lon="7.0257400">
        <ele>1676.0</ele>
        <time>2017-07-27T11:04:38Z</time>
      </trkpt>
      <trkpt lat="45.0263690" lon="7.0258970">
        <ele>1674.6</ele>
        <time>2017-07-27T11:04:40Z</time>
      </trkpt>
      <trkpt lat="45.0262860" lon="7.0259590">
        <ele>1674.0</ele>
        <time>2017-07-27T11:04:41Z</time>
      </trkpt>
      <trkpt lat="45.0262290" lon="7.0260200">
        <ele>1673.0</ele>
        <time>2017-07-27T11:04:42Z</time>
      </trkpt>
      <trkpt lat="45.0261970" lon="7.0260760">
        <ele>1672.4</ele>
        <time>2017-07-27T11:04:43Z</time>
      </trkpt>
      <trkpt lat="45.0261900" lon="7.0261260">
        <ele>1672.0</ele>
        <time>2017-07-27T11:04:44Z</time>
      </trkpt>
      <trkpt lat="45.0262700" lon="7.0262690">
        <ele>1670.8</ele>
        <time>2017-07-27T11:04:47Z</time>
      </trkpt>
      <trkpt lat="45.0263970" lon="7.0263350">
        <ele>1669.8</ele>
        <time>2017-07-27T11:04:49Z</time>
      </trkpt>
      <trkpt lat="45.0264830" lon="7.0263820">
        <ele>1669.4</ele>
        <time>2017-07-27T11:04:50Z</time>
      </trkpt>
      <trkpt lat="45.0266820" lon="7.0264750">
        <ele>1667.8</ele>
        <time>2017-07-27T11:04:52Z</time>
      </trkpt>
      <trkpt lat="45.0268000" lon="7.0265140">
        <ele>1666.2</ele>
        <time>2017-07-27T11:04:53Z</time>
      </trkpt>
      <trkpt lat="45.0269060" lon="7.0265500">
        <ele>1665.8</ele>
        <time>2017-07-27T11:04:54Z</time>
      </trkpt>
      <trkpt lat="45.0270110" lon="7.0265820">
        <ele>1664.8</ele>
        <time>2017-07-27T11:04:55Z</time>
      </trkpt>
      <trkpt lat="45.0272240" lon="7.0266510">
        <ele>1662.8</ele>
        <time>2017-07-27T11:04:57Z</time>
      </trkpt>
      <trkpt lat="45.0273520" lon="7.0266690">
        <ele>1661.8</ele>
        <time>2017-07-27T11:04:58Z</time>
      </trkpt>
      <trkpt lat="45.0274780" lon="7.0266800">
        <ele>1660.8</ele>
        <time>2017-07-27T11:04:59Z</time>
      </trkpt>
      <trkpt lat="45.0275910" lon="7.0266590">
        <ele>1659.6</ele>
        <time>2017-07-27T11:05:00Z</time>
      </trkpt>
      <trkpt lat="45.0276940" lon="7.0266110">
        <ele>1658.4</ele>
        <time>2017-07-27T11:05:01Z</time>
      </trkpt>
      <trkpt lat="45.0277980" lon="7.0265520">
        <ele>1657.2</ele>
        <time>2017-07-27T11:05:02Z</time>
      </trkpt>
      <trkpt lat="45.0278940" lon="7.0264480">
        <ele>1656.0</ele>
        <time>2017-07-27T11:05:03Z</time>
      </trkpt>
      <trkpt lat="45.0279870" lon="7.0263480">
        <ele>1654.6</ele>
        <time>2017-07-27T11:05:04Z</time>
      </trkpt>
      <trkpt lat="45.0280810" lon="7.0262320">
        <ele>1653.6</ele>
        <time>2017-07-27T11:05:05Z</time>
      </trkpt>
      <trkpt lat="45.0281770" lon="7.0261190">
        <ele>1652.2</ele>
        <time>2017-07-27T11:05:06Z</time>
      </trkpt>
      <trkpt lat="45.0282860" lon="7.0260060">
        <ele>1651.4</ele>
        <time>2017-07-27T11:05:07Z</time>
      </trkpt>
      <trkpt lat="45.0283840" lon="7.0258940">
        <ele>1650.2</ele>
        <time>2017-07-27T11:05:08Z</time>
      </trkpt>
      <trkpt lat="45.0285780" lon="7.0256830">
        <ele>1648.4</ele>
        <time>2017-07-27T11:05:10Z</time>
      </trkpt>
      <trkpt lat="45.0287140" lon="7.0254740">
        <ele>1645.8</ele>
        <time>2017-07-27T11:05:12Z</time>
      </trkpt>
      <trkpt lat="45.0287510" lon="7.0253460">
        <ele>1644.8</ele>
        <time>2017-07-27T11:05:13Z</time>
      </trkpt>
      <trkpt lat="45.0288060" lon="7.0251930">
        <ele>1643.2</ele>
        <time>2017-07-27T11:05:14Z</time>
      </trkpt>
      <trkpt lat="45.0288680" lon="7.0250490">
        <ele>1641.8</ele>
        <time>2017-07-27T11:05:15Z</time>
      </trkpt>
      <trkpt lat="45.0289130" lon="7.0249270">
        <ele>1640.2</ele>
        <time>2017-07-27T11:05:16Z</time>
      </trkpt>
      <trkpt lat="45.0289610" lon="7.0248020">
        <ele>1637.8</ele>
        <time>2017-07-27T11:05:17Z</time>
      </trkpt>
      <trkpt lat="45.0290160" lon="7.0246900">
        <ele>1636.8</ele>
        <time>2017-07-27T11:05:18Z</time>
      </trkpt>
      <trkpt lat="45.0290870" lon="7.0246020">
        <ele>1635.6</ele>
        <time>2017-07-27T11:05:19Z</time>
      </trkpt>
      <trkpt lat="45.0291690" lon="7.0245320">
        <ele>1634.4</ele>
        <time>2017-07-27T11:05:20Z</time>
      </trkpt>
      <trkpt lat="45.0292490" lon="7.0244710">
        <ele>1632.8</ele>
        <time>2017-07-27T11:05:21Z</time>
      </trkpt>
      <trkpt lat="45.0293410" lon="7.0244290">
        <ele>1631.2</ele>
        <time>2017-07-27T11:05:22Z</time>
      </trkpt>
      <trkpt lat="45.0294480" lon="7.0244430">
        <ele>1630.0</ele>
        <time>2017-07-27T11:05:23Z</time>
      </trkpt>
      <trkpt lat="45.0295400" lon="7.0244870">
        <ele>1629.0</ele>
        <time>2017-07-27T11:05:24Z</time>
      </trkpt>
      <trkpt lat="45.0296220" lon="7.0245560">
        <ele>1628.2</ele>
        <time>2017-07-27T11:05:25Z</time>
      </trkpt>
      <trkpt lat="45.0296840" lon="7.0246960">
        <ele>1627.0</ele>
        <time>2017-07-27T11:05:26Z</time>
      </trkpt>
      <trkpt lat="45.0297500" lon="7.0248460">
        <ele>1625.6</ele>
        <time>2017-07-27T11:05:27Z</time>
      </trkpt>
      <trkpt lat="45.0298230" lon="7.0249480">
        <ele>1624.2</ele>
        <time>2017-07-27T11:05:28Z</time>
      </trkpt>
      <trkpt lat="45.0298870" lon="7.0250540">
        <ele>1623.0</ele>
        <time>2017-07-27T11:05:29Z</time>
      </trkpt>
      <trkpt lat="45.0299600" lon="7.0251420">
        <ele>1622.0</ele>
        <time>2017-07-27T11:05:30Z</time>
      </trkpt>
      <trkpt lat="45.0300200" lon="7.0251890">
        <ele>1620.4</ele>
        <time>2017-07-27T11:05:31Z</time>
      </trkpt>
      <trkpt lat="45.0300700" lon="7.0252090">
        <ele>1619.0</ele>
        <time>2017-07-27T11:05:32Z</time>
      </trkpt>
      <trkpt lat="45.0301230" lon="7.0252110">
        <ele>1617.6</ele>
        <time>2017-07-27T11:05:33Z</time>
      </trkpt>
      <trkpt lat="45.0301840" lon="7.0252110">
        <ele>1616.4</ele>
        <time>2017-07-27T11:05:34Z</time>
      </trkpt>
      <trkpt lat="45.0302680" lon="7.0251970">
        <ele>1615.2</ele>
        <time>2017-07-27T11:05:35Z</time>
      </trkpt>
      <trkpt lat="45.0303460" lon="7.0251950">
        <ele>1614.2</ele>
        <time>2017-07-27T11:05:36Z</time>
      </trkpt>
      <trkpt lat="45.0305090" lon="7.0251950">
        <ele>1611.8</ele>
        <time>2017-07-27T11:05:38Z</time>
      </trkpt>
      <trkpt lat="45.0305840" lon="7.0251760">
        <ele>1610.4</ele>
        <time>2017-07-27T11:05:39Z</time>
      </trkpt>
      <trkpt lat="45.0306580" lon="7.0251310">
        <ele>1609.0</ele>
        <time>2017-07-27T11:05:40Z</time>
      </trkpt>
      <trkpt lat="45.0307350" lon="7.0250890">
        <ele>1606.4</ele>
        <time>2017-07-27T11:05:41Z</time>
      </trkpt>
      <trkpt lat="45.0308080" lon="7.0250540">
        <ele>1605.2</ele>
        <time>2017-07-27T11:05:42Z</time>
      </trkpt>
      <trkpt lat="45.0308890" lon="7.0250410">
        <ele>1603.8</ele>
        <time>2017-07-27T11:05:43Z</time>
      </trkpt>
      <trkpt lat="45.0310830" lon="7.0250320">
        <ele>1601.6</ele>
        <time>2017-07-27T11:05:45Z</time>
      </trkpt>
      <trkpt lat="45.0311920" lon="7.0250150">
        <ele>1600.0</ele>
        <time>2017-07-27T11:05:46Z</time>
      </trkpt>
      <trkpt lat="45.0312980" lon="7.0249950">
        <ele>1598.4</ele>
        <time>2017-07-27T11:05:47Z</time>
      </trkpt>
      <trkpt lat="45.0314030" lon="7.0249630">
        <ele>1597.2</ele>
        <time>2017-07-27T11:05:48Z</time>
      </trkpt>
      <trkpt lat="45.0315040" lon="7.0249210">
        <ele>1595.8</ele>
        <time>2017-07-27T11:05:49Z</time>
      </trkpt>
      <trkpt lat="45.0316010" lon="7.0248500">
        <ele>1594.4</ele>
        <time>2017-07-27T11:05:50Z</time>
      </trkpt>
      <trkpt lat="45.0316950" lon="7.0247620">
        <ele>1593.0</ele>
        <time>2017-07-27T11:05:51Z</time>
      </trkpt>
      <trkpt lat="45.0317790" lon="7.0246500">
        <ele>1592.0</ele>
        <time>2017-07-27T11:05:52Z</time>
      </trkpt>
      <trkpt lat="45.0318570" lon="7.0245660">
        <ele>1590.4</ele>
        <time>2017-07-27T11:05:53Z</time>
      </trkpt>
      <trkpt lat="45.0319420" lon="7.0244900">
        <ele>1588.6</ele>
        <time>2017-07-27T11:05:54Z</time>
      </trkpt>
      <trkpt lat="45.0320300" lon="7.0244320">
        <ele>1587.0</ele>
        <time>2017-07-27T11:05:55Z</time>
      </trkpt>
      <trkpt lat="45.0321200" lon="7.0243710">
        <ele>1585.8</ele>
        <time>2017-07-27T11:05:56Z</time>
      </trkpt>
      <trkpt lat="45.0322120" lon="7.0242940">
        <ele>1584.4</ele>
        <time>2017-07-27T11:05:57Z</time>
      </trkpt>
      <trkpt lat="45.0323020" lon="7.0241970">
        <ele>1582.8</ele>
        <time>2017-07-27T11:05:58Z</time>
      </trkpt>
      <trkpt lat="45.0323920" lon="7.0241000">
        <ele>1581.0</ele>
        <time>2017-07-27T11:05:59Z</time>
      </trkpt>
      <trkpt lat="45.0324680" lon="7.0240250">
        <ele>1579.4</ele>
        <time>2017-07-27T11:06:00Z</time>
      </trkpt>
      <trkpt lat="45.0325430" lon="7.0239480">
        <ele>1577.8</ele>
        <time>2017-07-27T11:06:01Z</time>
      </trkpt>
      <trkpt lat="45.0326140" lon="7.0238630">
        <ele>1576.2</ele>
        <time>2017-07-27T11:06:02Z</time>
      </trkpt>
      <trkpt lat="45.0326670" lon="7.0237770">
        <ele>1574.6</ele>
        <time>2017-07-27T11:06:03Z</time>
      </trkpt>
      <trkpt lat="45.0327120" lon="7.0236990">
        <ele>1572.8</ele>
        <time>2017-07-27T11:06:04Z</time>
      </trkpt>
      <trkpt lat="45.0327560" lon="7.0236280">
        <ele>1569.6</ele>
        <time>2017-07-27T11:06:05Z</time>
      </trkpt>
      <trkpt lat="45.0328020" lon="7.0235620">
        <ele>1568.4</ele>
        <time>2017-07-27T11:06:06Z</time>
      </trkpt>
      <trkpt lat="45.0328560" lon="7.0235170">
        <ele>1567.0</ele>
        <time>2017-07-27T11:06:07Z</time>
      </trkpt>
      <trkpt lat="45.0329090" lon="7.0234680">
        <ele>1565.8</ele>
        <time>2017-07-27T11:06:08Z</time>
      </trkpt>
      <trkpt lat="45.0329500" lon="7.0234500">
        <ele>1564.2</ele>
        <time>2017-07-27T11:06:09Z</time>
      </trkpt>
      <trkpt lat="45.0329820" lon="7.0234810">
        <ele>1562.8</ele>
        <time>2017-07-27T11:06:10Z</time>
      </trkpt>
      <trkpt lat="45.0329980" lon="7.0235330">
        <ele>1561.6</ele>
        <time>2017-07-27T11:06:11Z</time>
      </trkpt>
      <trkpt lat="45.0330000" lon="7.0236000">
        <ele>1560.6</ele>
        <time>2017-07-27T11:06:12Z</time>
      </trkpt>
      <trkpt lat="45.0329950" lon="7.0236780">
        <ele>1559.4</ele>
        <time>2017-07-27T11:06:13Z</time>
      </trkpt>
      <trkpt lat="45.0329950" lon="7.0237600">
        <ele>1558.2</ele>
        <time>2017-07-27T11:06:14Z</time>
      </trkpt>
      <trkpt lat="45.0329830" lon="7.0238390">
        <ele>1557.0</ele>
        <time>2017-07-27T11:06:15Z</time>
      </trkpt>
      <trkpt lat="45.0329860" lon="7.0239330">
        <ele>1555.8</ele>
        <time>2017-07-27T11:06:16Z</time>
      </trkpt>
      <trkpt lat="45.0329630" lon="7.0240610">
        <ele>1554.6</ele>
        <time>2017-07-27T11:06:17Z</time>
      </trkpt>
      <trkpt lat="45.0329470" lon="7.0241750">
        <ele>1553.4</ele>
        <time>2017-07-27T11:06:18Z</time>
      </trkpt>
      <trkpt lat="45.0329340" lon="7.0242910">
        <ele>1552.4</ele>
        <time>2017-07-27T11:06:19Z</time>
      </trkpt>
      <trkpt lat="45.0329310" lon="7.0244100">
        <ele>1551.2</ele>
        <time>2017-07-27T11:06:20Z</time>
      </trkpt>
      <trkpt lat="45.0329080" lon="7.0245650">
        <ele>1550.4</ele>
        <time>2017-07-27T11:06:21Z</time>
      </trkpt>
      <trkpt lat="45.0328870" lon="7.0247170">
        <ele>1548.6</ele>
        <time>2017-07-27T11:06:22Z</time>
      </trkpt>
      <trkpt lat="45.0328580" lon="7.0248650">
        <ele>1547.4</ele>
        <time>2017-07-27T11:06:23Z</time>
      </trkpt>
      <trkpt lat="45.0328160" lon="7.0250120">
        <ele>1546.0</ele>
        <time>2017-07-27T11:06:24Z</time>
      </trkpt>
      <trkpt lat="45.0327030" lon="7.0252930">
        <ele>1544.0</ele>
        <time>2017-07-27T11:06:26Z</time>
      </trkpt>
      <trkpt lat="45.0325900" lon="7.0255330">
        <ele>1541.8</ele>
        <time>2017-07-27T11:06:28Z</time>
      </trkpt>
      <trkpt lat="45.0325360" lon="7.0256220">
        <ele>1538.8</ele>
        <time>2017-07-27T11:06:29Z</time>
      </trkpt>
      <trkpt lat="45.0324830" lon="7.0257160">
        <ele>1537.2</ele>
        <time>2017-07-27T11:06:30Z</time>
      </trkpt>
      <trkpt lat="45.0324280" lon="7.0258060">
        <ele>1535.6</ele>
        <time>2017-07-27T11:06:31Z</time>
      </trkpt>
      <trkpt lat="45.0323710" lon="7.0258800">
        <ele>1534.2</ele>
        <time>2017-07-27T11:06:32Z</time>
      </trkpt>
      <trkpt lat="45.0323210" lon="7.0259500">
        <ele>1532.6</ele>
        <time>2017-07-27T11:06:33Z</time>
      </trkpt>
      <trkpt lat="45.0323020" lon="7.0259860">
        <ele>1531.2</ele>
        <time>2017-07-27T11:06:34Z</time>
      </trkpt>
      <trkpt lat="45.0323210" lon="7.0259550">
        <ele>1530.2</ele>
        <time>2017-07-27T11:06:35Z</time>
      </trkpt>
      <trkpt lat="45.0323470" lon="7.0259290">
        <ele>1529.2</ele>
        <time>2017-07-27T11:06:36Z</time>
      </trkpt>
      <trkpt lat="45.0324470" lon="7.0258080">
        <ele>1527.0</ele>
        <time>2017-07-27T11:06:38Z</time>
      </trkpt>
      <trkpt lat="45.0324980" lon="7.0257570">
        <ele>1526.2</ele>
        <time>2017-07-27T11:06:39Z</time>
      </trkpt>
      <trkpt lat="45.0325640" lon="7.0257040">
        <ele>1525.2</ele>
        <time>2017-07-27T11:06:40Z</time>
      </trkpt>
      <trkpt lat="45.0326330" lon="7.0256400">
        <ele>1524.2</ele>
        <time>2017-07-27T11:06:41Z</time>
      </trkpt>
      <trkpt lat="45.0327830" lon="7.0254970">
        <ele>1522.0</ele>
        <time>2017-07-27T11:06:43Z</time>
      </trkpt>
      <trkpt lat="45.0328680" lon="7.0254170">
        <ele>1520.8</ele>
        <time>2017-07-27T11:06:44Z</time>
      </trkpt>
      <trkpt lat="45.0329580" lon="7.0253250">
        <ele>1519.6</ele>
        <time>2017-07-27T11:06:45Z</time>
      </trkpt>
      <trkpt lat="45.0330430" lon="7.0252190">
        <ele>1518.4</ele>
        <time>2017-07-27T11:06:46Z</time>
      </trkpt>
      <trkpt lat="45.0331180" lon="7.0251220">
        <ele>1517.4</ele>
        <time>2017-07-27T11:06:47Z</time>
      </trkpt>
      <trkpt lat="45.0332200" lon="7.0250290">
        <ele>1516.0</ele>
        <time>2017-07-27T11:06:48Z</time>
      </trkpt>
      <trkpt lat="45.0333060" lon="7.0249430">
        <ele>1514.8</ele>
        <time>2017-07-27T11:06:49Z</time>
      </trkpt>
      <trkpt lat="45.0333920" lon="7.0248370">
        <ele>1513.2</ele>
        <time>2017-07-27T11:06:50Z</time>
      </trkpt>
      <trkpt lat="45.0334800" lon="7.0247300">
        <ele>1512.0</ele>
        <time>2017-07-27T11:06:51Z</time>
      </trkpt>
      <trkpt lat="45.0335450" lon="7.0246210">
        <ele>1510.6</ele>
        <time>2017-07-27T11:06:52Z</time>
      </trkpt>
      <trkpt lat="45.0335900" lon="7.0245190">
        <ele>1508.2</ele>
        <time>2017-07-27T11:06:53Z</time>
      </trkpt>
      <trkpt lat="45.0336640" lon="7.0244530">
        <ele>1507.2</ele>
        <time>2017-07-27T11:06:54Z</time>
      </trkpt>
      <trkpt lat="45.0337400" lon="7.0244040">
        <ele>1505.8</ele>
        <time>2017-07-27T11:06:55Z</time>
      </trkpt>
      <trkpt lat="45.0338220" lon="7.0243650">
        <ele>1504.6</ele>
        <time>2017-07-27T11:06:56Z</time>
      </trkpt>
      <trkpt lat="45.0339100" lon="7.0243370">
        <ele>1503.4</ele>
        <time>2017-07-27T11:06:57Z</time>
      </trkpt>
      <trkpt lat="45.0340030" lon="7.0243140">
        <ele>1502.2</ele>
        <time>2017-07-27T11:06:58Z</time>
      </trkpt>
      <trkpt lat="45.0340990" lon="7.0242990">
        <ele>1500.8</ele>
        <time>2017-07-27T11:06:59Z</time>
      </trkpt>
      <trkpt lat="45.0342100" lon="7.0242730">
        <ele>1499.2</ele>
        <time>2017-07-27T11:07:00Z</time>
      </trkpt>
      <trkpt lat="45.0343510" lon="7.0242410">
        <ele>1497.8</ele>
        <time>2017-07-27T11:07:01Z</time>
      </trkpt>
      <trkpt lat="45.0344830" lon="7.0242370">
        <ele>1496.4</ele>
        <time>2017-07-27T11:07:02Z</time>
      </trkpt>
      <trkpt lat="45.0346020" lon="7.0242480">
        <ele>1495.0</ele>
        <time>2017-07-27T11:07:03Z</time>
      </trkpt>
      <trkpt lat="45.0347130" lon="7.0242660">
        <ele>1493.6</ele>
        <time>2017-07-27T11:07:04Z</time>
      </trkpt>
      <trkpt lat="45.0348170" lon="7.0243010">
        <ele>1492.2</ele>
        <time>2017-07-27T11:07:05Z</time>
      </trkpt>
      <trkpt lat="45.0349150" lon="7.0243370">
        <ele>1490.4</ele>
        <time>2017-07-27T11:07:06Z</time>
      </trkpt>
      <trkpt lat="45.0349990" lon="7.0243670">
        <ele>1488.2</ele>
        <time>2017-07-27T11:07:07Z</time>
      </trkpt>
      <trkpt lat="45.0350550" lon="7.0244280">
        <ele>1486.4</ele>
        <time>2017-07-27T11:07:08Z</time>
      </trkpt>
      <trkpt lat="45.0351110" lon="7.0244790">
        <ele>1485.2</ele>
        <time>2017-07-27T11:07:09Z</time>
      </trkpt>
      <trkpt lat="45.0351360" lon="7.0245290">
        <ele>1483.6</ele>
        <time>2017-07-27T11:07:10Z</time>
      </trkpt>
      <trkpt lat="45.0351510" lon="7.0245420">
        <ele>1482.2</ele>
        <time>2017-07-27T11:07:11Z</time>
      </trkpt>
      <trkpt lat="45.0351490" lon="7.0245510">
        <ele>1480.8</ele>
        <time>2017-07-27T11:07:12Z</time>
      </trkpt>
      <trkpt lat="45.0351210" lon="7.0245240">
        <ele>1479.4</ele>
        <time>2017-07-27T11:07:13Z</time>
      </trkpt>
      <trkpt lat="45.0350900" lon="7.0245270">
        <ele>1478.0</ele>
        <time>2017-07-27T11:07:14Z</time>
      </trkpt>
      <trkpt lat="45.0349740" lon="7.0245420">
        <ele>1476.6</ele>
        <time>2017-07-27T11:07:15Z</time>
      </trkpt>
      <trkpt lat="45.0347800" lon="7.0245910">
        <ele>1475.2</ele>
        <time>2017-07-27T11:07:16Z</time>
      </trkpt>
      <trkpt lat="45.0347240" lon="7.0246520">
        <ele>1472.6</ele>
        <time>2017-07-27T11:07:17Z</time>
      </trkpt>
      <trkpt lat="45.0346590" lon="7.0247160">
        <ele>1471.4</ele>
        <time>2017-07-27T11:07:18Z</time>
      </trkpt>
      <trkpt lat="45.0345390" lon="7.0248500">
        <ele>1469.8</ele>
        <time>2017-07-27T11:07:20Z</time>
      </trkpt>
      <trkpt lat="45.0344380" lon="7.0249740">
        <ele>1468.0</ele>
        <time>2017-07-27T11:07:22Z</time>
      </trkpt>
      <trkpt lat="45.0343270" lon="7.0250800">
        <ele>1467.0</ele>
        <time>2017-07-27T11:07:23Z</time>
      </trkpt>
      <trkpt lat="45.0342380" lon="7.0251600">
        <ele>1466.2</ele>
        <time>2017-07-27T11:07:24Z</time>
      </trkpt>
      <trkpt lat="45.0341640" lon="7.0252410">
        <ele>1465.6</ele>
        <time>2017-07-27T11:07:25Z</time>
      </trkpt>
      <trkpt lat="45.0341130" lon="7.0253270">
        <ele>1464.6</ele>
        <time>2017-07-27T11:07:26Z</time>
      </trkpt>
      <trkpt lat="45.0340500" lon="7.0254020">
        <ele>1463.8</ele>
        <time>2017-07-27T11:07:27Z</time>
      </trkpt>
      <trkpt lat="45.0339970" lon="7.0254640">
        <ele>1462.8</ele>
        <time>2017-07-27T11:07:28Z</time>
      </trkpt>
      <trkpt lat="45.0339380" lon="7.0255120">
        <ele>1462.2</ele>
        <time>2017-07-27T11:07:29Z</time>
      </trkpt>
      <trkpt lat="45.0338940" lon="7.0255380">
        <ele>1461.6</ele>
        <time>2017-07-27T11:07:30Z</time>
      </trkpt>
      <trkpt lat="45.0338470" lon="7.0255600">
        <ele>1461.0</ele>
        <time>2017-07-27T11:07:31Z</time>
      </trkpt>
      <trkpt lat="45.0338080" lon="7.0255900">
        <ele>1460.6</ele>
        <time>2017-07-27T11:07:32Z</time>
      </trkpt>
      <trkpt lat="45.0338480" lon="7.0255230">
        <ele>1458.4</ele>
        <time>2017-07-27T11:07:35Z</time>
      </trkpt>
      <trkpt lat="45.0339140" lon="7.0254730">
        <ele>1457.6</ele>
        <time>2017-07-27T11:07:36Z</time>
      </trkpt>
      <trkpt lat="45.0340600" lon="7.0254030">
        <ele>1457.0</ele>
        <time>2017-07-27T11:07:37Z</time>
      </trkpt>
      <trkpt lat="45.0342030" lon="7.0253900">
        <ele>1456.6</ele>
        <time>2017-07-27T11:07:38Z</time>
      </trkpt>
      <trkpt lat="45.0344480" lon="7.0253910">
        <ele>1455.2</ele>
        <time>2017-07-27T11:07:40Z</time>
      </trkpt>
      <trkpt lat="45.0345190" lon="7.0254160">
        <ele>1453.4</ele>
        <time>2017-07-27T11:07:41Z</time>
      </trkpt>
      <trkpt lat="45.0345850" lon="7.0254730">
        <ele>1452.0</ele>
        <time>2017-07-27T11:07:42Z</time>
      </trkpt>
      <trkpt lat="45.0346550" lon="7.0255780">
        <ele>1450.8</ele>
        <time>2017-07-27T11:07:43Z</time>
      </trkpt>
      <trkpt lat="45.0347290" lon="7.0256480">
        <ele>1449.4</ele>
        <time>2017-07-27T11:07:44Z</time>
      </trkpt>
      <trkpt lat="45.0347970" lon="7.0257120">
        <ele>1448.4</ele>
        <time>2017-07-27T11:07:45Z</time>
      </trkpt>
      <trkpt lat="45.0348880" lon="7.0257440">
        <ele>1447.2</ele>
        <time>2017-07-27T11:07:46Z</time>
      </trkpt>
      <trkpt lat="45.0350240" lon="7.0257700">
        <ele>1445.6</ele>
        <time>2017-07-27T11:07:48Z</time>
      </trkpt>
      <trkpt lat="45.0350850" lon="7.0257570">
        <ele>1444.6</ele>
        <time>2017-07-27T11:07:49Z</time>
      </trkpt>
      <trkpt lat="45.0352010" lon="7.0257060">
        <ele>1442.6</ele>
        <time>2017-07-27T11:07:51Z</time>
      </trkpt>
      <trkpt lat="45.0354170" lon="7.0254410">
        <ele>1440.6</ele>
        <time>2017-07-27T11:07:53Z</time>
      </trkpt>
      <trkpt lat="45.0356160" lon="7.0252370">
        <ele>1438.8</ele>
        <time>2017-07-27T11:07:55Z</time>
      </trkpt>
      <trkpt lat="45.0356990" lon="7.0251560">
        <ele>1438.0</ele>
        <time>2017-07-27T11:07:56Z</time>
      </trkpt>
      <trkpt lat="45.0358030" lon="7.0250970">
        <ele>1436.6</ele>
        <time>2017-07-27T11:07:57Z</time>
      </trkpt>
      <trkpt lat="45.0359200" lon="7.0250400">
        <ele>1435.4</ele>
        <time>2017-07-27T11:07:58Z</time>
      </trkpt>
      <trkpt lat="45.0360160" lon="7.0250050">
        <ele>1434.4</ele>
        <time>2017-07-27T11:07:59Z</time>
      </trkpt>
      <trkpt lat="45.0361950" lon="7.0249400">
        <ele>1432.4</ele>
        <time>2017-07-27T11:08:01Z</time>
      </trkpt>
      <trkpt lat="45.0362840" lon="7.0248960">
        <ele>1430.8</ele>
        <time>2017-07-27T11:08:02Z</time>
      </trkpt>
      <trkpt lat="45.0365410" lon="7.0247140">
        <ele>1428.6</ele>
        <time>2017-07-27T11:08:04Z</time>
      </trkpt>
      <trkpt lat="45.0366520" lon="7.0245820">
        <ele>1425.6</ele>
        <time>2017-07-27T11:08:05Z</time>
      </trkpt>
      <trkpt lat="45.0367670" lon="7.0244710">
        <ele>1424.2</ele>
        <time>2017-07-27T11:08:06Z</time>
      </trkpt>
      <trkpt lat="45.0369070" lon="7.0243580">
        <ele>1422.8</ele>
        <time>2017-07-27T11:08:07Z</time>
      </trkpt>
      <trkpt lat="45.0370250" lon="7.0242660">
        <ele>1421.2</ele>
        <time>2017-07-27T11:08:08Z</time>
      </trkpt>
      <trkpt lat="45.0371520" lon="7.0241870">
        <ele>1420.0</ele>
        <time>2017-07-27T11:08:09Z</time>
      </trkpt>
      <trkpt lat="45.0372880" lon="7.0241150">
        <ele>1418.8</ele>
        <time>2017-07-27T11:08:10Z</time>
      </trkpt>
      <trkpt lat="45.0374210" lon="7.0240560">
        <ele>1417.4</ele>
        <time>2017-07-27T11:08:11Z</time>
      </trkpt>
      <trkpt lat="45.0375420" lon="7.0240110">
        <ele>1415.6</ele>
        <time>2017-07-27T11:08:12Z</time>
      </trkpt>
      <trkpt lat="45.0376550" lon="7.0239930">
        <ele>1414.0</ele>
        <time>2017-07-27T11:08:13Z</time>
      </trkpt>
      <trkpt lat="45.0377660" lon="7.0240250">
        <ele>1412.2</ele>
        <time>2017-07-27T11:08:14Z</time>
      </trkpt>
      <trkpt lat="45.0378640" lon="7.0240590">
        <ele>1411.0</ele>
        <time>2017-07-27T11:08:15Z</time>
      </trkpt>
      <trkpt lat="45.0379580" lon="7.0241660">
        <ele>1409.8</ele>
        <time>2017-07-27T11:08:16Z</time>
      </trkpt>
      <trkpt lat="45.0380430" lon="7.0242480">
        <ele>1408.4</ele>
        <time>2017-07-27T11:08:17Z</time>
      </trkpt>
      <trkpt lat="45.0381500" lon="7.0243170">
        <ele>1407.2</ele>
        <time>2017-07-27T11:08:18Z</time>
      </trkpt>
      <trkpt lat="45.0382610" lon="7.0243530">
        <ele>1406.0</ele>
        <time>2017-07-27T11:08:19Z</time>
      </trkpt>
      <trkpt lat="45.0383630" lon="7.0243700">
        <ele>1404.8</ele>
        <time>2017-07-27T11:08:20Z</time>
      </trkpt>
      <trkpt lat="45.0384700" lon="7.0243740">
        <ele>1403.8</ele>
        <time>2017-07-27T11:08:21Z</time>
      </trkpt>
      <trkpt lat="45.0385800" lon="7.0243910">
        <ele>1402.6</ele>
        <time>2017-07-27T11:08:22Z</time>
      </trkpt>
      <trkpt lat="45.0386690" lon="7.0244220">
        <ele>1401.6</ele>
        <time>2017-07-27T11:08:23Z</time>
      </trkpt>
      <trkpt lat="45.0387530" lon="7.0244760">
        <ele>1400.6</ele>
        <time>2017-07-27T11:08:24Z</time>
      </trkpt>
      <trkpt lat="45.0389060" lon="7.0246370">
        <ele>1398.4</ele>
        <time>2017-07-27T11:08:26Z</time>
      </trkpt>
      <trkpt lat="45.0389370" lon="7.0247470">
        <ele>1397.4</ele>
        <time>2017-07-27T11:08:27Z</time>
      </trkpt>
      <trkpt lat="45.0390050" lon="7.0249380">
        <ele>1395.2</ele>
        <time>2017-07-27T11:08:29Z</time>
      </trkpt>
      <trkpt lat="45.0390890" lon="7.0250840">
        <ele>1394.0</ele>
        <time>2017-07-27T11:08:31Z</time>
      </trkpt>
      <trkpt lat="45.0393490" lon="7.0252990">
        <ele>1392.2</ele>
        <time>2017-07-27T11:08:35Z</time>
      </trkpt>
      <trkpt lat="45.0394200" lon="7.0253850">
        <ele>1391.8</ele>
        <time>2017-07-27T11:08:36Z</time>
      </trkpt>
      <trkpt lat="45.0394890" lon="7.0254790">
        <ele>1391.0</ele>
        <time>2017-07-27T11:08:37Z</time>
      </trkpt>
      <trkpt lat="45.0395590" lon="7.0255970">
        <ele>1390.6</ele>
        <time>2017-07-27T11:08:38Z</time>
      </trkpt>
      <trkpt lat="45.0396080" lon="7.0257320">
        <ele>1390.0</ele>
        <time>2017-07-27T11:08:39Z</time>
      </trkpt>
      <trkpt lat="45.0396770" lon="7.0258230">
        <ele>1389.2</ele>
        <time>2017-07-27T11:08:40Z</time>
      </trkpt>
      <trkpt lat="45.0397470" lon="7.0258880">
        <ele>1388.0</ele>
        <time>2017-07-27T11:08:41Z</time>
      </trkpt>
      <trkpt lat="45.0398050" lon="7.0259400">
        <ele>1387.0</ele>
        <time>2017-07-27T11:08:42Z</time>
      </trkpt>
      <trkpt lat="45.0398830" lon="7.0260140">
        <ele>1385.6</ele>
        <time>2017-07-27T11:08:44Z</time>
      </trkpt>
      <trkpt lat="45.0398530" lon="7.0260340">
        <ele>1384.8</ele>
        <time>2017-07-27T11:08:45Z</time>
      </trkpt>
      <trkpt lat="45.0398300" lon="7.0260450">
        <ele>1384.2</ele>
        <time>2017-07-27T11:08:46Z</time>
      </trkpt>
      <trkpt lat="45.0398350" lon="7.0260670">
        <ele>1382.8</ele>
        <time>2017-07-27T11:08:48Z</time>
      </trkpt>
      <trkpt lat="45.0397550" lon="7.0260550">
        <ele>1381.6</ele>
        <time>2017-07-27T11:08:50Z</time>
      </trkpt>
      <trkpt lat="45.0397050" lon="7.0260220">
        <ele>1381.0</ele>
        <time>2017-07-27T11:08:51Z</time>
      </trkpt>
      <trkpt lat="45.0396950" lon="7.0260100">
        <ele>1380.4</ele>
        <time>2017-07-27T11:08:52Z</time>
      </trkpt>
      <trkpt lat="45.0396790" lon="7.0259890">
        <ele>1379.2</ele>
        <time>2017-07-27T11:08:53Z</time>
      </trkpt>
      <trkpt lat="45.0396540" lon="7.0259350">
        <ele>1378.4</ele>
        <time>2017-07-27T11:08:55Z</time>
      </trkpt>
      <trkpt lat="45.0396160" lon="7.0259270">
        <ele>1378.0</ele>
        <time>2017-07-27T11:08:56Z</time>
      </trkpt>
      <trkpt lat="45.0395680" lon="7.0259150">
        <ele>1377.0</ele>
        <time>2017-07-27T11:08:58Z</time>
      </trkpt>
      <trkpt lat="45.0395500" lon="7.0259160">
        <ele>1376.4</ele>
        <time>2017-07-27T11:08:59Z</time>
      </trkpt>
      <trkpt lat="45.0395020" lon="7.0258900">
        <ele>1376.0</ele>
        <time>2017-07-27T11:09:00Z</time>
      </trkpt>
      <trkpt lat="45.0394760" lon="7.0258730">
        <ele>1375.6</ele>
        <time>2017-07-27T11:09:01Z</time>
      </trkpt>
      <trkpt lat="45.0394220" lon="7.0258300">
        <ele>1374.8</ele>
        <time>2017-07-27T11:09:04Z</time>
      </trkpt>
      <trkpt lat="45.0394180" lon="7.0258130">
        <ele>1374.6</ele>
        <time>2017-07-27T11:09:05Z</time>
      </trkpt>
      <trkpt lat="45.0394080" lon="7.0258010">
        <ele>1374.0</ele>
        <time>2017-07-27T11:09:08Z</time>
      </trkpt>
      <trkpt lat="45.0394400" lon="7.0257640">
        <ele>1373.4</ele>
        <time>2017-07-27T11:09:11Z</time>
      </trkpt>
      <trkpt lat="45.0394670" lon="7.0257640">
        <ele>1373.4</ele>
        <time>2017-07-27T11:09:13Z</time>
      </trkpt>
      <trkpt lat="45.0394590" lon="7.0257660">
        <ele>1373.4</ele>
        <time>2017-07-27T11:09:18Z</time>
      </trkpt>
      <trkpt lat="45.0394600" lon="7.0257660">
        <ele>1373.0</ele>
        <time>2017-07-27T11:09:27Z</time>
      </trkpt>
      <trkpt lat="45.0394870" lon="7.0257470">
        <ele>1373.2</ele>
        <time>2017-07-27T11:09:29Z</time>
      </trkpt>
      <trkpt lat="45.0395350" lon="7.0256910">
        <ele>1373.2</ele>
        <time>2017-07-27T11:09:31Z</time>
      </trkpt>
      <trkpt lat="45.0395870" lon="7.0256200">
        <ele>1373.2</ele>
        <time>2017-07-27T11:09:33Z</time>
      </trkpt>
      <trkpt lat="45.0396890" lon="7.0255710">
        <ele>1373.2</ele>
        <time>2017-07-27T11:09:36Z</time>
      </trkpt>
      <trkpt lat="45.0397240" lon="7.0256230">
        <ele>1373.2</ele>
        <time>2017-07-27T11:09:37Z</time>
      </trkpt>
      <trkpt lat="45.0399270" lon="7.0257670">
        <ele>1372.8</ele>
        <time>2017-07-27T11:09:42Z</time>
      </trkpt>
      <trkpt lat="45.0399780" lon="7.0257590">
        <ele>1372.8</ele>
        <time>2017-07-27T11:09:43Z</time>
      </trkpt>
      <trkpt lat="45.0401280" lon="7.0256860">
        <ele>1372.8</ele>
        <time>2017-07-27T11:09:47Z</time>
      </trkpt>
      <trkpt lat="45.0403440" lon="7.0255120">
        <ele>1373.0</ele>
        <time>2017-07-27T11:09:52Z</time>
      </trkpt>
      <trkpt lat="45.0404020" lon="7.0254690">
        <ele>1372.8</ele>
        <time>2017-07-27T11:09:53Z</time>
      </trkpt>
      <trkpt lat="45.0405210" lon="7.0253670">
        <ele>1372.4</ele>
        <time>2017-07-27T11:09:55Z</time>
      </trkpt>
      <trkpt lat="45.0405840" lon="7.0253030">
        <ele>1372.2</ele>
        <time>2017-07-27T11:09:56Z</time>
      </trkpt>
      <trkpt lat="45.0407640" lon="7.0250550">
        <ele>1371.4</ele>
        <time>2017-07-27T11:09:59Z</time>
      </trkpt>
      <trkpt lat="45.0408700" lon="7.0248800">
        <ele>1370.8</ele>
        <time>2017-07-27T11:10:01Z</time>
      </trkpt>
      <trkpt lat="45.0409590" lon="7.0246920">
        <ele>1370.0</ele>
        <time>2017-07-27T11:10:03Z</time>
      </trkpt>
      <trkpt lat="45.0409950" lon="7.0245880">
        <ele>1369.6</ele>
        <time>2017-07-27T11:10:04Z</time>
      </trkpt>
      <trkpt lat="45.0410230" lon="7.0244790">
        <ele>1369.0</ele>
        <time>2017-07-27T11:10:05Z</time>
      </trkpt>
      <trkpt lat="45.0410430" lon="7.0243660">
        <ele>1368.6</ele>
        <time>2017-07-27T11:10:06Z</time>
      </trkpt>
      <trkpt lat="45.0410960" lon="7.0239970">
        <ele>1367.6</ele>
        <time>2017-07-27T11:10:09Z</time>
      </trkpt>
      <trkpt lat="45.0411040" lon="7.0238620">
        <ele>1367.2</ele>
        <time>2017-07-27T11:10:10Z</time>
      </trkpt>
      <trkpt lat="45.0411160" lon="7.0235360">
        <ele>1366.2</ele>
        <time>2017-07-27T11:10:13Z</time>
      </trkpt>
      <trkpt lat="45.0411150" lon="7.0234660">
        <ele>1365.8</ele>
        <time>2017-07-27T11:10:14Z</time>
      </trkpt>
      <trkpt lat="45.0411170" lon="7.0234030">
        <ele>1365.6</ele>
        <time>2017-07-27T11:10:15Z</time>
      </trkpt>
      <trkpt lat="45.0411520" lon="7.0233750">
        <ele>1365.4</ele>
        <time>2017-07-27T11:10:16Z</time>
      </trkpt>
      <trkpt lat="45.0412230" lon="7.0233240">
        <ele>1364.6</ele>
        <time>2017-07-27T11:10:18Z</time>
      </trkpt>
      <trkpt lat="45.0412400" lon="7.0232990">
        <ele>1363.6</ele>
        <time>2017-07-27T11:10:20Z</time>
      </trkpt>
      <trkpt lat="45.0412530" lon="7.0232950">
        <ele>1363.4</ele>
        <time>2017-07-27T11:10:21Z</time>
      </trkpt>
      <trkpt lat="45.0412920" lon="7.0233240">
        <ele>1363.0</ele>
        <time>2017-07-27T11:10:24Z</time>
      </trkpt>
      <trkpt lat="45.0412960" lon="7.0233260">
        <ele>1362.4</ele>
        <time>2017-07-27T11:10:28Z</time>
      </trkpt>
      <trkpt lat="45.0412960" lon="7.0233260">
        <ele>1362.4</ele>
        <time>2017-07-27T11:10:30Z</time>
      </trkpt>
      <trkpt lat="45.0412960" lon="7.0233260">
        <ele>1362.2</ele>
        <time>2017-07-27T11:10:33Z</time>
      </trkpt>
      <trkpt lat="45.0412960" lon="7.0233260">
        <ele>1362.2</ele>
        <time>2017-07-27T11:10:39Z</time>
      </trkpt>
      <trkpt lat="45.0412960" lon="7.0233260">
        <ele>1362.4</ele>
        <time>2017-07-27T11:10:50Z</time>
      </trkpt>
      <trkpt lat="45.0412960" lon="7.0233260">
        <ele>1362.8</ele>
        <time>2017-07-27T11:11:00Z</time>
      </trkpt>
      <trkpt lat="45.0412990" lon="7.0233260">
        <ele>1362.8</ele>
        <time>2017-07-27T11:11:06Z</time>
      </trkpt>
      <trkpt lat="45.0412990" lon="7.0233260">
        <ele>1362.8</ele>
        <time>2017-07-27T11:11:09Z</time>
      </trkpt>
      <trkpt lat="45.0412990" lon="7.0233260">
        <ele>1362.8</ele>
        <time>2017-07-27T11:11:10Z</time>
      </trkpt>
      <trkpt lat="45.0412990" lon="7.0233260">
        <ele>1362.8</ele>
        <time>2017-07-27T11:11:16Z</time>
      </trkpt>
      <trkpt lat="45.0412990" lon="7.0233260">
        <ele>1363.0</ele>
        <time>2017-07-27T11:11:22Z</time>
      </trkpt>
      <trkpt lat="45.0412990" lon="7.0233260">
        <ele>1362.8</ele>
        <time>2017-07-27T11:11:26Z</time>
      </trkpt>
      <trkpt lat="45.0412990" lon="7.0233260">
        <ele>1362.8</ele>
        <time>2017-07-27T11:11:27Z</time>
      </trkpt>
      <trkpt lat="45.0412990" lon="7.0233260">
        <ele>1363.0</ele>
        <time>2017-07-27T11:11:32Z</time>
      </trkpt>
      <trkpt lat="45.0412990" lon="7.0233260">
        <ele>1363.0</ele>
        <time>2017-07-27T11:11:36Z</time>
      </trkpt>
      <trkpt lat="45.0413020" lon="7.0233260">
        <ele>1363.2</ele>
        <time>2017-07-27T11:11:49Z</time>
      </trkpt>
      <trkpt lat="45.0413020" lon="7.0233260">
        <ele>1363.2</ele>
        <time>2017-07-27T11:11:52Z</time>
      </trkpt>
      <trkpt lat="45.0413020" lon="7.0233260">
        <ele>1363.2</ele>
        <time>2017-07-27T11:12:06Z</time>
      </trkpt>
      <trkpt lat="45.0413020" lon="7.0233260">
        <ele>1363.4</ele>
        <time>2017-07-27T11:12:12Z</time>
      </trkpt>
      <trkpt lat="45.0413020" lon="7.0233260">
        <ele>1363.4</ele>
        <time>2017-07-27T11:12:14Z</time>
      </trkpt>
      <trkpt lat="45.0413020" lon="7.0233260">
        <ele>1363.4</ele>
        <time>2017-07-27T11:12:18Z</time>
      </trkpt>
      <trkpt lat="45.0413020" lon="7.0233280">
        <ele>1363.4</ele>
        <time>2017-07-27T11:12:31Z</time>
      </trkpt>
      <trkpt lat="45.0413020" lon="7.0233280">
        <ele>1363.4</ele>
        <time>2017-07-27T11:12:43Z</time>
      </trkpt>
      <trkpt lat="45.0413020" lon="7.0233280">
        <ele>1363.4</ele>
        <time>2017-07-27T11:12:50Z</time>
      </trkpt>
      <trkpt lat="45.0413020" lon="7.0233280">
        <ele>1363.4</ele>
        <time>2017-07-27T11:12:56Z</time>
      </trkpt>
      <trkpt lat="45.0413050" lon="7.0233270">
        <ele>1363.4</ele>
        <time>2017-07-27T11:13:08Z</time>
      </trkpt>
      <trkpt lat="45.0413050" lon="7.0233270">
        <ele>1363.0</ele>
        <time>2017-07-27T11:13:24Z</time>
      </trkpt>
      <trkpt lat="45.0413050" lon="7.0233270">
        <ele>1363.0</ele>
        <time>2017-07-27T11:13:44Z</time>
      </trkpt>
      <trkpt lat="45.0413070" lon="7.0233270">
        <ele>1363.2</ele>
        <time>2017-07-27T11:13:56Z</time>
      </trkpt>
      <trkpt lat="45.0413070" lon="7.0233270">
        <ele>1363.2</ele>
        <time>2017-07-27T11:13:59Z</time>
      </trkpt>
      <trkpt lat="45.0413070" lon="7.0233270">
        <ele>1363.2</ele>
        <time>2017-07-27T11:14:01Z</time>
      </trkpt>
      <trkpt lat="45.0413070" lon="7.0233270">
        <ele>1363.0</ele>
        <time>2017-07-27T11:14:10Z</time>
      </trkpt>
      <trkpt lat="45.0413070" lon="7.0233270">
        <ele>1363.0</ele>
        <time>2017-07-27T11:14:16Z</time>
      </trkpt>
      <trkpt lat="45.0413080" lon="7.0233280">
        <ele>1363.0</ele>
        <time>2017-07-27T11:14:27Z</time>
      </trkpt>
      <trkpt lat="45.0413080" lon="7.0233280">
        <ele>1363.0</ele>
        <time>2017-07-27T11:14:30Z</time>
      </trkpt>
      <trkpt lat="45.0413080" lon="7.0233280">
        <ele>1363.0</ele>
        <time>2017-07-27T11:14:44Z</time>
      </trkpt>
      <trkpt lat="45.0413080" lon="7.0233280">
        <ele>1363.0</ele>
        <time>2017-07-27T11:14:50Z</time>
      </trkpt>
      <trkpt lat="45.0413080" lon="7.0233280">
        <ele>1363.0</ele>
        <time>2017-07-27T11:14:58Z</time>
      </trkpt>
      <trkpt lat="45.0413070" lon="7.0233290">
        <ele>1362.8</ele>
        <time>2017-07-27T11:15:08Z</time>
      </trkpt>
      <trkpt lat="45.0413070" lon="7.0233290">
        <ele>1363.0</ele>
        <time>2017-07-27T11:15:14Z</time>
      </trkpt>
      <trkpt lat="45.0413070" lon="7.0233290">
        <ele>1363.2</ele>
        <time>2017-07-27T11:15:30Z</time>
      </trkpt>
      <trkpt lat="45.0413070" lon="7.0233290">
        <ele>1363.4</ele>
        <time>2017-07-27T11:15:37Z</time>
      </trkpt>
      <trkpt lat="45.0413090" lon="7.0233310">
        <ele>1363.2</ele>
        <time>2017-07-27T11:15:48Z</time>
      </trkpt>
      <trkpt lat="45.0413090" lon="7.0233310">
        <ele>1363.2</ele>
        <time>2017-07-27T11:16:03Z</time>
      </trkpt>
      <trkpt lat="45.0413090" lon="7.0233310">
        <ele>1363.2</ele>
        <time>2017-07-27T11:16:18Z</time>
      </trkpt>
      <trkpt lat="45.0413090" lon="7.0233310">
        <ele>1363.4</ele>
        <time>2017-07-27T11:16:23Z</time>
      </trkpt>
      <trkpt lat="45.0413100" lon="7.0233350">
        <ele>1363.2</ele>
        <time>2017-07-27T11:16:32Z</time>
      </trkpt>
      <trkpt lat="45.0413100" lon="7.0233350">
        <ele>1363.2</ele>
        <time>2017-07-27T11:16:36Z</time>
      </trkpt>
      <trkpt lat="45.0413100" lon="7.0233350">
        <ele>1363.2</ele>
        <time>2017-07-27T11:16:52Z</time>
      </trkpt>
      <trkpt lat="45.0413100" lon="7.0233350">
        <ele>1363.4</ele>
        <time>2017-07-27T11:16:54Z</time>
      </trkpt>
      <trkpt lat="45.0413100" lon="7.0233350">
        <ele>1363.4</ele>
        <time>2017-07-27T11:17:04Z</time>
      </trkpt>
      <trkpt lat="45.0413100" lon="7.0233360">
        <ele>1363.4</ele>
        <time>2017-07-27T11:17:06Z</time>
      </trkpt>
      <trkpt lat="45.0413100" lon="7.0233360">
        <ele>1363.2</ele>
        <time>2017-07-27T11:17:23Z</time>
      </trkpt>
      <trkpt lat="45.0413110" lon="7.0233430">
        <ele>1363.4</ele>
        <time>2017-07-27T11:17:37Z</time>
      </trkpt>
      <trkpt lat="45.0413190" lon="7.0233480">
        <ele>1363.0</ele>
        <time>2017-07-27T11:17:43Z</time>
      </trkpt>
      <trkpt lat="45.0413460" lon="7.0233700">
        <ele>1362.8</ele>
        <time>2017-07-27T11:17:53Z</time>
      </trkpt>
      <trkpt lat="45.0413640" lon="7.0233610">
        <ele>1362.8</ele>
        <time>2017-07-27T11:17:54Z</time>
      </trkpt>
      <trkpt lat="45.0413890" lon="7.0232940">
        <ele>1362.6</ele>
        <time>2017-07-27T11:17:56Z</time>
      </trkpt>
      <trkpt lat="45.0413910" lon="7.0232390">
        <ele>1362.4</ele>
        <time>2017-07-27T11:17:57Z</time>
      </trkpt>
      <trkpt lat="45.0413740" lon="7.0231150">
        <ele>1362.0</ele>
        <time>2017-07-27T11:17:59Z</time>
      </trkpt>
      <trkpt lat="45.0413700" lon="7.0230500">
        <ele>1362.0</ele>
        <time>2017-07-27T11:18:00Z</time>
      </trkpt>
      <trkpt lat="45.0413700" lon="7.0229050">
        <ele>1361.6</ele>
        <time>2017-07-27T11:18:02Z</time>
      </trkpt>
      <trkpt lat="45.0413840" lon="7.0228350">
        <ele>1361.4</ele>
        <time>2017-07-27T11:18:03Z</time>
      </trkpt>
      <trkpt lat="45.0414030" lon="7.0227610">
        <ele>1361.2</ele>
        <time>2017-07-27T11:18:04Z</time>
      </trkpt>
      <trkpt lat="45.0414540" lon="7.0226120">
        <ele>1360.4</ele>
        <time>2017-07-27T11:18:06Z</time>
      </trkpt>
      <trkpt lat="45.0414870" lon="7.0225370">
        <ele>1360.2</ele>
        <time>2017-07-27T11:18:07Z</time>
      </trkpt>
      <trkpt lat="45.0415580" lon="7.0223780">
        <ele>1359.8</ele>
        <time>2017-07-27T11:18:09Z</time>
      </trkpt>
      <trkpt lat="45.0415970" lon="7.0222900">
        <ele>1359.4</ele>
        <time>2017-07-27T11:18:10Z</time>
      </trkpt>
      <trkpt lat="45.0417250" lon="7.0220020">
        <ele>1358.2</ele>
        <time>2017-07-27T11:18:13Z</time>
      </trkpt>
      <trkpt lat="45.0417690" lon="7.0219020">
        <ele>1357.8</ele>
        <time>2017-07-27T11:18:14Z</time>
      </trkpt>
      <trkpt lat="45.0418540" lon="7.0217080">
        <ele>1356.8</ele>
        <time>2017-07-27T11:18:16Z</time>
      </trkpt>
      <trkpt lat="45.0419870" lon="7.0214380">
        <ele>1355.6</ele>
        <time>2017-07-27T11:18:19Z</time>
      </trkpt>
      <trkpt lat="45.0420270" lon="7.0213480">
        <ele>1355.4</ele>
        <time>2017-07-27T11:18:20Z</time>
      </trkpt>
      <trkpt lat="45.0420570" lon="7.0212530">
        <ele>1355.0</ele>
        <time>2017-07-27T11:18:21Z</time>
      </trkpt>
      <trkpt lat="45.0420820" lon="7.0211580">
        <ele>1354.6</ele>
        <time>2017-07-27T11:18:22Z</time>
      </trkpt>
      <trkpt lat="45.0421100" lon="7.0209810">
        <ele>1353.8</ele>
        <time>2017-07-27T11:18:24Z</time>
      </trkpt>
      <trkpt lat="45.0421160" lon="7.0208970">
        <ele>1353.4</ele>
        <time>2017-07-27T11:18:25Z</time>
      </trkpt>
      <trkpt lat="45.0421230" lon="7.0208160">
        <ele>1353.2</ele>
        <time>2017-07-27T11:18:26Z</time>
      </trkpt>
      <trkpt lat="45.0421250" lon="7.0207460">
        <ele>1352.8</ele>
        <time>2017-07-27T11:18:27Z</time>
      </trkpt>
      <trkpt lat="45.0421250" lon="7.0206300">
        <ele>1352.8</ele>
        <time>2017-07-27T11:18:29Z</time>
      </trkpt>
      <trkpt lat="45.0421260" lon="7.0205770">
        <ele>1353.0</ele>
        <time>2017-07-27T11:18:30Z</time>
      </trkpt>
      <trkpt lat="45.0421280" lon="7.0205270">
        <ele>1353.2</ele>
        <time>2017-07-27T11:18:31Z</time>
      </trkpt>
      <trkpt lat="45.0421280" lon="7.0204770">
        <ele>1353.4</ele>
        <time>2017-07-27T11:18:32Z</time>
      </trkpt>
      <trkpt lat="45.0421330" lon="7.0202920">
        <ele>1354.6</ele>
        <time>2017-07-27T11:18:36Z</time>
      </trkpt>
      <trkpt lat="45.0421400" lon="7.0202520">
        <ele>1355.0</ele>
        <time>2017-07-27T11:18:37Z</time>
      </trkpt>
      <trkpt lat="45.0421640" lon="7.0201770">
        <ele>1355.6</ele>
        <time>2017-07-27T11:18:39Z</time>
      </trkpt>
      <trkpt lat="45.0422300" lon="7.0200790">
        <ele>1356.4</ele>
        <time>2017-07-27T11:18:42Z</time>
      </trkpt>
      <trkpt lat="45.0422600" lon="7.0200500">
        <ele>1356.8</ele>
        <time>2017-07-27T11:18:43Z</time>
      </trkpt>
      <trkpt lat="45.0423620" lon="7.0199780">
        <ele>1357.4</ele>
        <time>2017-07-27T11:18:46Z</time>
      </trkpt>
      <trkpt lat="45.0424410" lon="7.0199560">
        <ele>1357.6</ele>
        <time>2017-07-27T11:18:48Z</time>
      </trkpt>
      <trkpt lat="45.0424840" lon="7.0199450">
        <ele>1357.8</ele>
        <time>2017-07-27T11:18:49Z</time>
      </trkpt>
      <trkpt lat="45.0426210" lon="7.0198880">
        <ele>1358.2</ele>
        <time>2017-07-27T11:18:52Z</time>
      </trkpt>
      <trkpt lat="45.0426700" lon="7.0198720">
        <ele>1358.2</ele>
        <time>2017-07-27T11:18:53Z</time>
      </trkpt>
      <trkpt lat="45.0428260" lon="7.0198030">
        <ele>1358.6</ele>
        <time>2017-07-27T11:18:56Z</time>
      </trkpt>
      <trkpt lat="45.0429430" lon="7.0197280">
        <ele>1358.6</ele>
        <time>2017-07-27T11:18:58Z</time>
      </trkpt>
      <trkpt lat="45.0429990" lon="7.0196770">
        <ele>1358.4</ele>
        <time>2017-07-27T11:18:59Z</time>
      </trkpt>
      <trkpt lat="45.0431690" lon="7.0194990">
        <ele>1358.4</ele>
        <time>2017-07-27T11:19:02Z</time>
      </trkpt>
      <trkpt lat="45.0432900" lon="7.0193500">
        <ele>1358.2</ele>
        <time>2017-07-27T11:19:04Z</time>
      </trkpt>
      <trkpt lat="45.0434120" lon="7.0191990">
        <ele>1358.0</ele>
        <time>2017-07-27T11:19:06Z</time>
      </trkpt>
      <trkpt lat="45.0437100" lon="7.0187510">
        <ele>1358.4</ele>
        <time>2017-07-27T11:19:12Z</time>
      </trkpt>
      <trkpt lat="45.0437480" lon="7.0186720">
        <ele>1358.4</ele>
        <time>2017-07-27T11:19:13Z</time>
      </trkpt>
      <trkpt lat="45.0438420" lon="7.0184370">
        <ele>1358.8</ele>
        <time>2017-07-27T11:19:16Z</time>
      </trkpt>
      <trkpt lat="45.0438730" lon="7.0183600">
        <ele>1358.8</ele>
        <time>2017-07-27T11:19:17Z</time>
      </trkpt>
      <trkpt lat="45.0439710" lon="7.0180330">
        <ele>1359.4</ele>
        <time>2017-07-27T11:19:21Z</time>
      </trkpt>
      <trkpt lat="45.0439970" lon="7.0179500">
        <ele>1359.4</ele>
        <time>2017-07-27T11:19:22Z</time>
      </trkpt>
      <trkpt lat="45.0441530" lon="7.0173420">
        <ele>1359.4</ele>
        <time>2017-07-27T11:19:29Z</time>
      </trkpt>
      <trkpt lat="45.0443240" lon="7.0170640">
        <ele>1359.2</ele>
        <time>2017-07-27T11:19:33Z</time>
      </trkpt>
      <trkpt lat="45.0443830" lon="7.0170140">
        <ele>1359.2</ele>
        <time>2017-07-27T11:19:34Z</time>
      </trkpt>
      <trkpt lat="45.0445110" lon="7.0168770">
        <ele>1359.0</ele>
        <time>2017-07-27T11:19:36Z</time>
      </trkpt>
      <trkpt lat="45.0445750" lon="7.0167830">
        <ele>1358.8</ele>
        <time>2017-07-27T11:19:37Z</time>
      </trkpt>
      <trkpt lat="45.0447600" lon="7.0165760">
        <ele>1358.0</ele>
        <time>2017-07-27T11:19:40Z</time>
      </trkpt>
      <trkpt lat="45.0447990" lon="7.0165500">
        <ele>1357.6</ele>
        <time>2017-07-27T11:19:41Z</time>
      </trkpt>
      <trkpt lat="45.0448290" lon="7.0165480">
        <ele>1356.6</ele>
        <time>2017-07-27T11:19:42Z</time>
      </trkpt>
      <trkpt lat="45.0448400" lon="7.0165680">
        <ele>1356.2</ele>
        <time>2017-07-27T11:19:43Z</time>
      </trkpt>
      <trkpt lat="45.0448380" lon="7.0166390">
        <ele>1355.8</ele>
        <time>2017-07-27T11:19:44Z</time>
      </trkpt>
      <trkpt lat="45.0448020" lon="7.0167910">
        <ele>1355.0</ele>
        <time>2017-07-27T11:19:46Z</time>
      </trkpt>
      <trkpt lat="45.0447900" lon="7.0168810">
        <ele>1354.8</ele>
        <time>2017-07-27T11:19:47Z</time>
      </trkpt>
      <trkpt lat="45.0447830" lon="7.0169810">
        <ele>1354.4</ele>
        <time>2017-07-27T11:19:48Z</time>
      </trkpt>
      <trkpt lat="45.0447970" lon="7.0172730">
        <ele>1354.0</ele>
        <time>2017-07-27T11:19:51Z</time>
      </trkpt>
      <trkpt lat="45.0448560" lon="7.0174930">
        <ele>1353.8</ele>
        <time>2017-07-27T11:19:53Z</time>
      </trkpt>
      <trkpt lat="45.0449240" lon="7.0178670">
        <ele>1354.6</ele>
        <time>2017-07-27T11:19:58Z</time>
      </trkpt>
      <trkpt lat="45.0449420" lon="7.0179860">
        <ele>1355.0</ele>
        <time>2017-07-27T11:20:00Z</time>
      </trkpt>
      <trkpt lat="45.0449530" lon="7.0180400">
        <ele>1355.2</ele>
        <time>2017-07-27T11:20:01Z</time>
      </trkpt>
      <trkpt lat="45.0449790" lon="7.0181680">
        <ele>1356.4</ele>
        <time>2017-07-27T11:20:04Z</time>
      </trkpt>
      <trkpt lat="45.0450130" lon="7.0182710">
        <ele>1357.6</ele>
        <time>2017-07-27T11:20:07Z</time>
      </trkpt>
      <trkpt lat="45.0450680" lon="7.0184010">
        <ele>1358.8</ele>
        <time>2017-07-27T11:20:11Z</time>
      </trkpt>
      <trkpt lat="45.0451080" lon="7.0185000">
        <ele>1359.4</ele>
        <time>2017-07-27T11:20:14Z</time>
      </trkpt>
      <trkpt lat="45.0451200" lon="7.0185290">
        <ele>1359.8</ele>
        <time>2017-07-27T11:20:15Z</time>
      </trkpt>
      <trkpt lat="45.0451960" lon="7.0186300">
        <ele>1360.8</ele>
        <time>2017-07-27T11:20:19Z</time>
      </trkpt>
      <trkpt lat="45.0452160" lon="7.0186560">
        <ele>1361.0</ele>
        <time>2017-07-27T11:20:20Z</time>
      </trkpt>
      <trkpt lat="45.0452760" lon="7.0186950">
        <ele>1361.8</ele>
        <time>2017-07-27T11:20:23Z</time>
      </trkpt>
      <trkpt lat="45.0452990" lon="7.0187020">
        <ele>1362.0</ele>
        <time>2017-07-27T11:20:24Z</time>
      </trkpt>
      <trkpt lat="45.0453230" lon="7.0187100">
        <ele>1362.2</ele>
        <time>2017-07-27T11:20:25Z</time>
      </trkpt>
      <trkpt lat="45.0454390" lon="7.0187630">
        <ele>1363.4</ele>
        <time>2017-07-27T11:20:30Z</time>
      </trkpt>
      <trkpt lat="45.0454940" lon="7.0188140">
        <ele>1364.4</ele>
        <time>2017-07-27T11:20:33Z</time>
      </trkpt>
      <trkpt lat="45.0455140" lon="7.0188320">
        <ele>1364.6</ele>
        <time>2017-07-27T11:20:34Z</time>
      </trkpt>
      <trkpt lat="45.0455570" lon="7.0188710">
        <ele>1365.2</ele>
        <time>2017-07-27T11:20:36Z</time>
      </trkpt>
      <trkpt lat="45.0455900" lon="7.0189170">
        <ele>1365.8</ele>
        <time>2017-07-27T11:20:38Z</time>
      </trkpt>
      <trkpt lat="45.0456060" lon="7.0189420">
        <ele>1366.0</ele>
        <time>2017-07-27T11:20:39Z</time>
      </trkpt>
      <trkpt lat="45.0456250" lon="7.0189710">
        <ele>1366.4</ele>
        <time>2017-07-27T11:20:40Z</time>
      </trkpt>
      <trkpt lat="45.0456680" lon="7.0190390">
        <ele>1367.0</ele>
        <time>2017-07-27T11:20:42Z</time>
      </trkpt>
      <trkpt lat="45.0457440" lon="7.0191690">
        <ele>1368.0</ele>
        <time>2017-07-27T11:20:45Z</time>
      </trkpt>
      <trkpt lat="45.0457670" lon="7.0192110">
        <ele>1368.2</ele>
        <time>2017-07-27T11:20:46Z</time>
      </trkpt>
      <trkpt lat="45.0458750" lon="7.0193960">
        <ele>1368.4</ele>
        <time>2017-07-27T11:20:51Z</time>
      </trkpt>
      <trkpt lat="45.0459020" lon="7.0194280">
        <ele>1368.0</ele>
        <time>2017-07-27T11:20:52Z</time>
      </trkpt>
      <trkpt lat="45.0459570" lon="7.0195000">
        <ele>1369.2</ele>
        <time>2017-07-27T11:20:54Z</time>
      </trkpt>
      <trkpt lat="45.0460580" lon="7.0196630">
        <ele>1370.4</ele>
        <time>2017-07-27T11:20:58Z</time>
      </trkpt>
      <trkpt lat="45.0474120" lon="7.1198560">
        <ele>2038.4</ele>
        <time>2017-07-28T06:33:42Z</time>
      </trkpt>
      <trkpt lat="45.0473240" lon="7.1198300">
        <ele>2042.6</ele>
        <time>2017-07-28T06:34:19Z</time>
      </trkpt>
      <trkpt lat="45.0473060" lon="7.1198130">
        <ele>2042.8</ele>
        <time>2017-07-28T06:34:20Z</time>
      </trkpt>
      <trkpt lat="45.0472870" lon="7.1197920">
        <ele>2042.8</ele>
        <time>2017-07-28T06:34:21Z</time>
      </trkpt>
      <trkpt lat="45.0472480" lon="7.1197470">
        <ele>2043.2</ele>
        <time>2017-07-28T06:34:23Z</time>
      </trkpt>
      <trkpt lat="45.0472060" lon="7.1196930">
        <ele>2043.6</ele>
        <time>2017-07-28T06:34:25Z</time>
      </trkpt>
      <trkpt lat="45.0471650" lon="7.1196390">
        <ele>2044.2</ele>
        <time>2017-07-28T06:34:27Z</time>
      </trkpt>
      <trkpt lat="45.0471470" lon="7.1196090">
        <ele>2044.6</ele>
        <time>2017-07-28T06:34:28Z</time>
      </trkpt>
      <trkpt lat="45.0471250" lon="7.1195850">
        <ele>2045.2</ele>
        <time>2017-07-28T06:34:29Z</time>
      </trkpt>
      <trkpt lat="45.0470750" lon="7.1195490">
        <ele>2046.0</ele>
        <time>2017-07-28T06:34:31Z</time>
      </trkpt>
      <trkpt lat="45.0470430" lon="7.1195370">
        <ele>2046.4</ele>
        <time>2017-07-28T06:34:32Z</time>
      </trkpt>
      <trkpt lat="45.0470150" lon="7.1195240">
        <ele>2047.0</ele>
        <time>2017-07-28T06:34:33Z</time>
      </trkpt>
      <trkpt lat="45.0469530" lon="7.1195100">
        <ele>2047.8</ele>
        <time>2017-07-28T06:34:35Z</time>
      </trkpt>
      <trkpt lat="45.0468900" lon="7.1194900">
        <ele>2048.8</ele>
        <time>2017-07-28T06:34:37Z</time>
      </trkpt>
      <trkpt lat="45.0468600" lon="7.1194800">
        <ele>2049.0</ele>
        <time>2017-07-28T06:34:38Z</time>
      </trkpt>
      <trkpt lat="45.0468300" lon="7.1194670">
        <ele>2049.4</ele>
        <time>2017-07-28T06:34:39Z</time>
      </trkpt>
      <trkpt lat="45.0467770" lon="7.1194310">
        <ele>2050.2</ele>
        <time>2017-07-28T06:34:41Z</time>
      </trkpt>
      <trkpt lat="45.0467080" lon="7.1193730">
        <ele>2051.6</ele>
        <time>2017-07-28T06:34:44Z</time>
      </trkpt>
      <trkpt lat="45.0466840" lon="7.1193500">
        <ele>2051.8</ele>
        <time>2017-07-28T06:34:45Z</time>
      </trkpt>
      <trkpt lat="45.0466360" lon="7.1193060">
        <ele>2052.8</ele>
        <time>2017-07-28T06:34:47Z</time>
      </trkpt>
      <trkpt lat="45.0465400" lon="7.1192430">
        <ele>2053.8</ele>
        <time>2017-07-28T06:34:51Z</time>
      </trkpt>
      <trkpt lat="45.0464640" lon="7.1191960">
        <ele>2055.0</ele>
        <time>2017-07-28T06:34:54Z</time>
      </trkpt>
      <trkpt lat="45.0463880" lon="7.1191970">
        <ele>2055.6</ele>
        <time>2017-07-28T06:34:57Z</time>
      </trkpt>
      <trkpt lat="45.0463650" lon="7.1191960">
        <ele>2056.0</ele>
        <time>2017-07-28T06:34:58Z</time>
      </trkpt>
      <trkpt lat="45.0462970" lon="7.1191920">
        <ele>2057.0</ele>
        <time>2017-07-28T06:35:01Z</time>
      </trkpt>
      <trkpt lat="45.0462740" lon="7.1192010">
        <ele>2057.4</ele>
        <time>2017-07-28T06:35:02Z</time>
      </trkpt>
      <trkpt lat="45.0461990" lon="7.1192560">
        <ele>2058.2</ele>
        <time>2017-07-28T06:35:05Z</time>
      </trkpt>
      <trkpt lat="45.0461180" lon="7.1193230">
        <ele>2058.8</ele>
        <time>2017-07-28T06:35:08Z</time>
      </trkpt>
      <trkpt lat="45.0460410" lon="7.1193800">
        <ele>2059.2</ele>
        <time>2017-07-28T06:35:10Z</time>
      </trkpt>
      <trkpt lat="45.0459290" lon="7.1193270">
        <ele>2059.0</ele>
        <time>2017-07-28T06:35:12Z</time>
      </trkpt>
      <trkpt lat="45.0458120" lon="7.1191950">
        <ele>2059.2</ele>
        <time>2017-07-28T06:35:14Z</time>
      </trkpt>
      <trkpt lat="45.0457480" lon="7.1191190">
        <ele>2059.0</ele>
        <time>2017-07-28T06:35:15Z</time>
      </trkpt>
      <trkpt lat="45.0454770" lon="7.1186530">
        <ele>2058.0</ele>
        <time>2017-07-28T06:35:20Z</time>
      </trkpt>
      <trkpt lat="45.0454390" lon="7.1185510">
        <ele>2058.2</ele>
        <time>2017-07-28T06:35:21Z</time>
      </trkpt>
      <trkpt lat="45.0453480" lon="7.1182210">
        <ele>2057.0</ele>
        <time>2017-07-28T06:35:24Z</time>
      </trkpt>
      <trkpt lat="45.0452650" lon="7.1178580">
        <ele>2056.4</ele>
        <time>2017-07-28T06:35:27Z</time>
      </trkpt>
      <trkpt lat="45.0452490" lon="7.1177270">
        <ele>2055.6</ele>
        <time>2017-07-28T06:35:28Z</time>
      </trkpt>
      <trkpt lat="45.0452410" lon="7.1175960">
        <ele>2055.4</ele>
        <time>2017-07-28T06:35:29Z</time>
      </trkpt>
      <trkpt lat="45.0452390" lon="7.1173410">
        <ele>2055.2</ele>
        <time>2017-07-28T06:35:31Z</time>
      </trkpt>
      <trkpt lat="45.0452680" lon="7.1171060">
        <ele>2055.0</ele>
        <time>2017-07-28T06:35:33Z</time>
      </trkpt>
      <trkpt lat="45.0453310" lon="7.1166950">
        <ele>2054.8</ele>
        <time>2017-07-28T06:35:37Z</time>
      </trkpt>
      <trkpt lat="45.0453360" lon="7.1165900">
        <ele>2054.8</ele>
        <time>2017-07-28T06:35:38Z</time>
      </trkpt>
      <trkpt lat="45.0453360" lon="7.1164810">
        <ele>2054.6</ele>
        <time>2017-07-28T06:35:39Z</time>
      </trkpt>
      <trkpt lat="45.0453280" lon="7.1163760">
        <ele>2054.6</ele>
        <time>2017-07-28T06:35:40Z</time>
      </trkpt>
      <trkpt lat="45.0452950" lon="7.1161690">
        <ele>2054.6</ele>
        <time>2017-07-28T06:35:42Z</time>
      </trkpt>
      <trkpt lat="45.0451810" lon="7.1156670">
        <ele>2054.4</ele>
        <time>2017-07-28T06:35:47Z</time>
      </trkpt>
      <trkpt lat="45.0451280" lon="7.1152410">
        <ele>2053.8</ele>
        <time>2017-07-28T06:35:51Z</time>
      </trkpt>
      <trkpt lat="45.0451030" lon="7.1151390">
        <ele>2053.4</ele>
        <time>2017-07-28T06:35:52Z</time>
      </trkpt>
      <trkpt lat="45.0449790" lon="7.1147790">
        <ele>2053.0</ele>
        <time>2017-07-28T06:35:56Z</time>
      </trkpt>
      <trkpt lat="45.0447610" lon="7.1143070">
        <ele>2052.6</ele>
        <time>2017-07-28T06:36:02Z</time>
      </trkpt>
      <trkpt lat="45.0447310" lon="7.1142250">
        <ele>2052.4</ele>
        <time>2017-07-28T06:36:03Z</time>
      </trkpt>
      <trkpt lat="45.0447050" lon="7.1141400">
        <ele>2052.2</ele>
        <time>2017-07-28T06:36:04Z</time>
      </trkpt>
      <trkpt lat="45.0446660" lon="7.1139590">
        <ele>2052.0</ele>
        <time>2017-07-28T06:36:06Z</time>
      </trkpt>
      <trkpt lat="45.0446200" lon="7.1135290">
        <ele>2051.8</ele>
        <time>2017-07-28T06:36:11Z</time>
      </trkpt>
      <trkpt lat="45.0446520" lon="7.1130430">
        <ele>2052.4</ele>
        <time>2017-07-28T06:36:17Z</time>
      </trkpt>
      <trkpt lat="45.0447780" lon="7.1125250">
        <ele>2052.2</ele>
        <time>2017-07-28T06:36:23Z</time>
      </trkpt>
      <trkpt lat="45.0449710" lon="7.1119810">
        <ele>2051.4</ele>
        <time>2017-07-28T06:36:29Z</time>
      </trkpt>
      <trkpt lat="45.0450140" lon="7.1118960">
        <ele>2051.2</ele>
        <time>2017-07-28T06:36:30Z</time>
      </trkpt>
      <trkpt lat="45.0452700" lon="7.1115720">
        <ele>2050.8</ele>
        <time>2017-07-28T06:36:35Z</time>
      </trkpt>
      <trkpt lat="45.0454400" lon="7.1114360">
        <ele>2051.0</ele>
        <time>2017-07-28T06:36:38Z</time>
      </trkpt>
      <trkpt lat="45.0456120" lon="7.1113110">
        <ele>2051.2</ele>
        <time>2017-07-28T06:36:41Z</time>
      </trkpt>
      <trkpt lat="45.0459750" lon="7.1109600">
        <ele>2051.6</ele>
        <time>2017-07-28T06:36:48Z</time>
      </trkpt>
      <trkpt lat="45.0460070" lon="7.1107350">
        <ele>2051.2</ele>
        <time>2017-07-28T06:36:51Z</time>
      </trkpt>
      <trkpt lat="45.0459540" lon="7.1104390">
        <ele>2050.8</ele>
        <time>2017-07-28T06:36:55Z</time>
      </trkpt>
      <trkpt lat="45.0459530" lon="7.1103560">
        <ele>2050.8</ele>
        <time>2017-07-28T06:36:56Z</time>
      </trkpt>
      <trkpt lat="45.0459700" lon="7.1099580">
        <ele>2050.4</ele>
        <time>2017-07-28T06:37:01Z</time>
      </trkpt>
      <trkpt lat="45.0459860" lon="7.1098810">
        <ele>2050.2</ele>
        <time>2017-07-28T06:37:02Z</time>
      </trkpt>
      <trkpt lat="45.0460220" lon="7.1097240">
        <ele>2050.2</ele>
        <time>2017-07-28T06:37:04Z</time>
      </trkpt>
      <trkpt lat="45.0461080" lon="7.1093340">
        <ele>2049.4</ele>
        <time>2017-07-28T06:37:09Z</time>
      </trkpt>
      <trkpt lat="45.0461600" lon="7.1091000">
        <ele>2049.6</ele>
        <time>2017-07-28T06:37:12Z</time>
      </trkpt>
      <trkpt lat="45.0462170" lon="7.1089500">
        <ele>2049.4</ele>
        <time>2017-07-28T06:37:14Z</time>
      </trkpt>
      <trkpt lat="45.0463170" lon="7.1087390">
        <ele>2049.0</ele>
        <time>2017-07-28T06:37:17Z</time>
      </trkpt>
      <trkpt lat="45.0464150" lon="7.1085380">
        <ele>2048.8</ele>
        <time>2017-07-28T06:37:20Z</time>
      </trkpt>
      <trkpt lat="45.0464490" lon="7.1084710">
        <ele>2048.8</ele>
        <time>2017-07-28T06:37:21Z</time>
      </trkpt>
      <trkpt lat="45.0464880" lon="7.1084080">
        <ele>2048.6</ele>
        <time>2017-07-28T06:37:22Z</time>
      </trkpt>
      <trkpt lat="45.0466130" lon="7.1082240">
        <ele>2048.4</ele>
        <time>2017-07-28T06:37:25Z</time>
      </trkpt>
      <trkpt lat="45.0466390" lon="7.1081470">
        <ele>2048.2</ele>
        <time>2017-07-28T06:37:26Z</time>
      </trkpt>
      <trkpt lat="45.0466400" lon="7.1079080">
        <ele>2048.4</ele>
        <time>2017-07-28T06:37:29Z</time>
      </trkpt>
      <trkpt lat="45.0465330" lon="7.1076550">
        <ele>2048.2</ele>
        <time>2017-07-28T06:37:33Z</time>
      </trkpt>
      <trkpt lat="45.0465130" lon="7.1076010">
        <ele>2048.2</ele>
        <time>2017-07-28T06:37:34Z</time>
      </trkpt>
      <trkpt lat="45.0465140" lon="7.1074950">
        <ele>2048.4</ele>
        <time>2017-07-28T06:37:36Z</time>
      </trkpt>
      <trkpt lat="45.0465870" lon="7.1073810">
        <ele>2048.6</ele>
        <time>2017-07-28T06:37:39Z</time>
      </trkpt>
      <trkpt lat="45.0467030" lon="7.1073520">
        <ele>2048.8</ele>
        <time>2017-07-28T06:37:42Z</time>
      </trkpt>
      <trkpt lat="45.0467410" lon="7.1073380">
        <ele>2048.6</ele>
        <time>2017-07-28T06:37:43Z</time>
      </trkpt>
      <trkpt lat="45.0467780" lon="7.1073140">
        <ele>2048.8</ele>
        <time>2017-07-28T06:37:44Z</time>
      </trkpt>
      <trkpt lat="45.0468720" lon="7.1071990">
        <ele>2049.2</ele>
        <time>2017-07-28T06:37:47Z</time>
      </trkpt>
      <trkpt lat="45.0469110" lon="7.1069680">
        <ele>2049.6</ele>
        <time>2017-07-28T06:37:51Z</time>
      </trkpt>
      <trkpt lat="45.0469100" lon="7.1069040">
        <ele>2049.6</ele>
        <time>2017-07-28T06:37:52Z</time>
      </trkpt>
      <trkpt lat="45.0469110" lon="7.1068470">
        <ele>2050.0</ele>
        <time>2017-07-28T06:37:53Z</time>
      </trkpt>
      <trkpt lat="45.0469430" lon="7.1066890">
        <ele>2050.4</ele>
        <time>2017-07-28T06:37:56Z</time>
      </trkpt>
      <trkpt lat="45.0469650" lon="7.1065190">
        <ele>2050.8</ele>
        <time>2017-07-28T06:37:59Z</time>
      </trkpt>
      <trkpt lat="45.0469640" lon="7.1064610">
        <ele>2051.0</ele>
        <time>2017-07-28T06:38:00Z</time>
      </trkpt>
      <trkpt lat="45.0469450" lon="7.1064050">
        <ele>2051.2</ele>
        <time>2017-07-28T06:38:01Z</time>
      </trkpt>
      <trkpt lat="45.0468330" lon="7.1062960">
        <ele>2051.6</ele>
        <time>2017-07-28T06:38:04Z</time>
      </trkpt>
      <trkpt lat="45.0467100" lon="7.1062290">
        <ele>2051.8</ele>
        <time>2017-07-28T06:38:07Z</time>
      </trkpt>
      <trkpt lat="45.0466250" lon="7.1062030">
        <ele>2052.2</ele>
        <time>2017-07-28T06:38:09Z</time>
      </trkpt>
      <trkpt lat="45.0465860" lon="7.1061880">
        <ele>2052.2</ele>
        <time>2017-07-28T06:38:10Z</time>
      </trkpt>
      <trkpt lat="45.0464190" lon="7.1060620">
        <ele>2052.8</ele>
        <time>2017-07-28T06:38:15Z</time>
      </trkpt>
      <trkpt lat="45.0463570" lon="7.1060040">
        <ele>2053.2</ele>
        <time>2017-07-28T06:38:17Z</time>
      </trkpt>
      <trkpt lat="45.0462280" lon="7.1059130">
        <ele>2053.6</ele>
        <time>2017-07-28T06:38:21Z</time>
      </trkpt>
      <trkpt lat="45.0460620" lon="7.1058670">
        <ele>2053.8</ele>
        <time>2017-07-28T06:38:26Z</time>
      </trkpt>
      <trkpt lat="45.0458750" lon="7.1058190">
        <ele>2054.2</ele>
        <time>2017-07-28T06:38:32Z</time>
      </trkpt>
      <trkpt lat="45.0458130" lon="7.1057990">
        <ele>2054.4</ele>
        <time>2017-07-28T06:38:34Z</time>
      </trkpt>
      <trkpt lat="45.0456120" lon="7.1057670">
        <ele>2055.0</ele>
        <time>2017-07-28T06:38:41Z</time>
      </trkpt>
      <trkpt lat="45.0455830" lon="7.1057720">
        <ele>2055.2</ele>
        <time>2017-07-28T06:38:42Z</time>
      </trkpt>
      <trkpt lat="45.0454310" lon="7.1058000">
        <ele>2055.8</ele>
        <time>2017-07-28T06:38:47Z</time>
      </trkpt>
      <trkpt lat="45.0453690" lon="7.1058150">
        <ele>2056.6</ele>
        <time>2017-07-28T06:38:49Z</time>
      </trkpt>
      <trkpt lat="45.0452890" lon="7.1058370">
        <ele>2057.8</ele>
        <time>2017-07-28T06:38:52Z</time>
      </trkpt>
      <trkpt lat="45.0452390" lon="7.1058500">
        <ele>2058.6</ele>
        <time>2017-07-28T06:38:54Z</time>
      </trkpt>
      <trkpt lat="45.0452130" lon="7.1058610">
        <ele>2059.0</ele>
        <time>2017-07-28T06:38:55Z</time>
      </trkpt>
      <trkpt lat="45.0451280" lon="7.1058830">
        <ele>2060.0</ele>
        <time>2017-07-28T06:38:58Z</time>
      </trkpt>
      <trkpt lat="45.0450690" lon="7.1058960">
        <ele>2061.0</ele>
        <time>2017-07-28T06:39:00Z</time>
      </trkpt>
      <trkpt lat="45.0450420" lon="7.1059000">
        <ele>2061.8</ele>
        <time>2017-07-28T06:39:01Z</time>
      </trkpt>
      <trkpt lat="45.0449570" lon="7.1059120">
        <ele>2063.0</ele>
        <time>2017-07-28T06:39:04Z</time>
      </trkpt>
      <trkpt lat="45.0448460" lon="7.1059470">
        <ele>2064.4</ele>
        <time>2017-07-28T06:39:08Z</time>
      </trkpt>
      <trkpt lat="45.0447720" lon="7.1059580">
        <ele>2065.8</ele>
        <time>2017-07-28T06:39:11Z</time>
      </trkpt>
      <trkpt lat="45.0446930" lon="7.1059790">
        <ele>2066.8</ele>
        <time>2017-07-28T06:39:14Z</time>
      </trkpt>
      <trkpt lat="45.0446120" lon="7.1060050">
        <ele>2068.2</ele>
        <time>2017-07-28T06:39:17Z</time>
      </trkpt>
      <trkpt lat="45.0445150" lon="7.1060610">
        <ele>2069.0</ele>
        <time>2017-07-28T06:39:21Z</time>
      </trkpt>
      <trkpt lat="45.0444890" lon="7.1060770">
        <ele>2069.4</ele>
        <time>2017-07-28T06:39:22Z</time>
      </trkpt>
      <trkpt lat="45.0444110" lon="7.1061180">
        <ele>2070.4</ele>
        <time>2017-07-28T06:39:25Z</time>
      </trkpt>
      <trkpt lat="45.0443390" lon="7.1061640">
        <ele>2071.4</ele>
        <time>2017-07-28T06:39:28Z</time>
      </trkpt>
      <trkpt lat="45.0443160" lon="7.1061810">
        <ele>2071.6</ele>
        <time>2017-07-28T06:39:29Z</time>
      </trkpt>
      <trkpt lat="45.0442420" lon="7.1062160">
        <ele>2072.8</ele>
        <time>2017-07-28T06:39:32Z</time>
      </trkpt>
      <trkpt lat="45.0441690" lon="7.1062430">
        <ele>2073.6</ele>
        <time>2017-07-28T06:39:35Z</time>
      </trkpt>
      <trkpt lat="45.0441460" lon="7.1062530">
        <ele>2074.0</ele>
        <time>2017-07-28T06:39:36Z</time>
      </trkpt>
      <trkpt lat="45.0440770" lon="7.1062840">
        <ele>2075.2</ele>
        <time>2017-07-28T06:39:39Z</time>
      </trkpt>
      <trkpt lat="45.0440140" lon="7.1063050">
        <ele>2076.4</ele>
        <time>2017-07-28T06:39:42Z</time>
      </trkpt>
      <trkpt lat="45.0439870" lon="7.1062960">
        <ele>2076.6</ele>
        <time>2017-07-28T06:39:43Z</time>
      </trkpt>
      <trkpt lat="45.0438400" lon="7.1062260">
        <ele>2077.8</ele>
        <time>2017-07-28T06:39:49Z</time>
      </trkpt>
      <trkpt lat="45.0437150" lon="7.1060900">
        <ele>2078.8</ele>
        <time>2017-07-28T06:39:54Z</time>
      </trkpt>
      <trkpt lat="45.0436860" lon="7.1060530">
        <ele>2079.2</ele>
        <time>2017-07-28T06:39:55Z</time>
      </trkpt>
      <trkpt lat="45.0435930" lon="7.1059610">
        <ele>2080.0</ele>
        <time>2017-07-28T06:39:58Z</time>
      </trkpt>
      <trkpt lat="45.0434900" lon="7.1058760">
        <ele>2080.8</ele>
        <time>2017-07-28T06:40:01Z</time>
      </trkpt>
      <trkpt lat="45.0434570" lon="7.1058490">
        <ele>2081.2</ele>
        <time>2017-07-28T06:40:02Z</time>
      </trkpt>
      <trkpt lat="45.0433370" lon="7.1056940">
        <ele>2082.2</ele>
        <time>2017-07-28T06:40:06Z</time>
      </trkpt>
      <trkpt lat="45.0433240" lon="7.1056370">
        <ele>2082.6</ele>
        <time>2017-07-28T06:40:07Z</time>
      </trkpt>
      <trkpt lat="45.0433300" lon="7.1055180">
        <ele>2083.6</ele>
        <time>2017-07-28T06:40:09Z</time>
      </trkpt>
      <trkpt lat="45.0433550" lon="7.1054080">
        <ele>2084.4</ele>
        <time>2017-07-28T06:40:11Z</time>
      </trkpt>
      <trkpt lat="45.0433730" lon="7.1053620">
        <ele>2084.8</ele>
        <time>2017-07-28T06:40:12Z</time>
      </trkpt>
      <trkpt lat="45.0434180" lon="7.1052750">
        <ele>2085.8</ele>
        <time>2017-07-28T06:40:14Z</time>
      </trkpt>
      <trkpt lat="45.0434670" lon="7.1052070">
        <ele>2087.0</ele>
        <time>2017-07-28T06:40:16Z</time>
      </trkpt>
      <trkpt lat="45.0435480" lon="7.1050910">
        <ele>2088.2</ele>
        <time>2017-07-28T06:40:19Z</time>
      </trkpt>
      <trkpt lat="45.0436360" lon="7.1049810">
        <ele>2089.4</ele>
        <time>2017-07-28T06:40:22Z</time>
      </trkpt>
      <trkpt lat="45.0437190" lon="7.1048680">
        <ele>2090.4</ele>
        <time>2017-07-28T06:40:25Z</time>
      </trkpt>
      <trkpt lat="45.0437450" lon="7.1048210">
        <ele>2090.6</ele>
        <time>2017-07-28T06:40:26Z</time>
      </trkpt>
      <trkpt lat="45.0438410" lon="7.1046630">
        <ele>2091.2</ele>
        <time>2017-07-28T06:40:29Z</time>
      </trkpt>
      <trkpt lat="45.0439110" lon="7.1045570">
        <ele>2091.6</ele>
        <time>2017-07-28T06:40:31Z</time>
      </trkpt>
      <trkpt lat="45.0440440" lon="7.1043500">
        <ele>2092.6</ele>
        <time>2017-07-28T06:40:35Z</time>
      </trkpt>
      <trkpt lat="45.0441160" lon="7.1042320">
        <ele>2092.6</ele>
        <time>2017-07-28T06:40:37Z</time>
      </trkpt>
      <trkpt lat="45.0441590" lon="7.1041690">
        <ele>2092.8</ele>
        <time>2017-07-28T06:40:38Z</time>
      </trkpt>
      <trkpt lat="45.0443120" lon="7.1039560">
        <ele>2092.8</ele>
        <time>2017-07-28T06:40:41Z</time>
      </trkpt>
      <trkpt lat="45.0445850" lon="7.1035020">
        <ele>2092.4</ele>
        <time>2017-07-28T06:40:46Z</time>
      </trkpt>
      <trkpt lat="45.0447530" lon="7.1031850">
        <ele>2092.0</ele>
        <time>2017-07-28T06:40:49Z</time>
      </trkpt>
      <trkpt lat="45.0448190" lon="7.1030770">
        <ele>2091.8</ele>
        <time>2017-07-28T06:40:50Z</time>
      </trkpt>
      <trkpt lat="45.0448850" lon="7.1029660">
        <ele>2091.8</ele>
        <time>2017-07-28T06:40:51Z</time>
      </trkpt>
      <trkpt lat="45.0449500" lon="7.1028520">
        <ele>2091.6</ele>
        <time>2017-07-28T06:40:52Z</time>
      </trkpt>
      <trkpt lat="45.0450890" lon="7.1026220">
        <ele>2090.4</ele>
        <time>2017-07-28T06:40:54Z</time>
      </trkpt>
      <trkpt lat="45.0451460" lon="7.1024990">
        <ele>2090.0</ele>
        <time>2017-07-28T06:40:55Z</time>
      </trkpt>
      <trkpt lat="45.0451970" lon="7.1023700">
        <ele>2089.6</ele>
        <time>2017-07-28T06:40:56Z</time>
      </trkpt>
      <trkpt lat="45.0452500" lon="7.1022320">
        <ele>2089.2</ele>
        <time>2017-07-28T06:40:57Z</time>
      </trkpt>
      <trkpt lat="45.0453390" lon="7.1019450">
        <ele>2088.0</ele>
        <time>2017-07-28T06:40:59Z</time>
      </trkpt>
      <trkpt lat="45.0453680" lon="7.1017920">
        <ele>2087.6</ele>
        <time>2017-07-28T06:41:00Z</time>
      </trkpt>
      <trkpt lat="45.0453820" lon="7.1016310">
        <ele>2086.2</ele>
        <time>2017-07-28T06:41:01Z</time>
      </trkpt>
      <trkpt lat="45.0454000" lon="7.1012730">
        <ele>2084.2</ele>
        <time>2017-07-28T06:41:03Z</time>
      </trkpt>
      <trkpt lat="45.0454530" lon="7.1009170">
        <ele>2082.8</ele>
        <time>2017-07-28T06:41:05Z</time>
      </trkpt>
      <trkpt lat="45.0454830" lon="7.1007410">
        <ele>2082.2</ele>
        <time>2017-07-28T06:41:06Z</time>
      </trkpt>
      <trkpt lat="45.0455110" lon="7.1005760">
        <ele>2081.2</ele>
        <time>2017-07-28T06:41:07Z</time>
      </trkpt>
      <trkpt lat="45.0455170" lon="7.1004070">
        <ele>2080.2</ele>
        <time>2017-07-28T06:41:08Z</time>
      </trkpt>
      <trkpt lat="45.0455060" lon="7.1002380">
        <ele>2079.4</ele>
        <time>2017-07-28T06:41:09Z</time>
      </trkpt>
      <trkpt lat="45.0454930" lon="7.1000600">
        <ele>2078.6</ele>
        <time>2017-07-28T06:41:10Z</time>
      </trkpt>
      <trkpt lat="45.0454810" lon="7.0998780">
        <ele>2077.6</ele>
        <time>2017-07-28T06:41:11Z</time>
      </trkpt>
      <trkpt lat="45.0454610" lon="7.0997020">
        <ele>2076.4</ele>
        <time>2017-07-28T06:41:12Z</time>
      </trkpt>
      <trkpt lat="45.0454300" lon="7.0995220">
        <ele>2074.8</ele>
        <time>2017-07-28T06:41:13Z</time>
      </trkpt>
      <trkpt lat="45.0453950" lon="7.0993410">
        <ele>2073.8</ele>
        <time>2017-07-28T06:41:14Z</time>
      </trkpt>
      <trkpt lat="45.0453150" lon="7.0989730">
        <ele>2071.8</ele>
        <time>2017-07-28T06:41:16Z</time>
      </trkpt>
      <trkpt lat="45.0452770" lon="7.0988050">
        <ele>2070.6</ele>
        <time>2017-07-28T06:41:17Z</time>
      </trkpt>
      <trkpt lat="45.0452480" lon="7.0986550">
        <ele>2069.0</ele>
        <time>2017-07-28T06:41:18Z</time>
      </trkpt>
      <trkpt lat="45.0452410" lon="7.0985050">
        <ele>2067.6</ele>
        <time>2017-07-28T06:41:19Z</time>
      </trkpt>
      <trkpt lat="45.0452600" lon="7.0983630">
        <ele>2065.8</ele>
        <time>2017-07-28T06:41:20Z</time>
      </trkpt>
      <trkpt lat="45.0452840" lon="7.0982420">
        <ele>2064.4</ele>
        <time>2017-07-28T06:41:21Z</time>
      </trkpt>
      <trkpt lat="45.0453080" lon="7.0981550">
        <ele>2063.2</ele>
        <time>2017-07-28T06:41:22Z</time>
      </trkpt>
      <trkpt lat="45.0453450" lon="7.0980980">
        <ele>2062.0</ele>
        <time>2017-07-28T06:41:23Z</time>
      </trkpt>
      <trkpt lat="45.0453910" lon="7.0980370">
        <ele>2060.6</ele>
        <time>2017-07-28T06:41:24Z</time>
      </trkpt>
      <trkpt lat="45.0454320" lon="7.0979510">
        <ele>2057.6</ele>
        <time>2017-07-28T06:41:25Z</time>
      </trkpt>
      <trkpt lat="45.0454690" lon="7.0978490">
        <ele>2056.2</ele>
        <time>2017-07-28T06:41:26Z</time>
      </trkpt>
      <trkpt lat="45.0455040" lon="7.0977420">
        <ele>2055.2</ele>
        <time>2017-07-28T06:41:27Z</time>
      </trkpt>
      <trkpt lat="45.0455480" lon="7.0976450">
        <ele>2054.2</ele>
        <time>2017-07-28T06:41:28Z</time>
      </trkpt>
      <trkpt lat="45.0456070" lon="7.0975780">
        <ele>2053.4</ele>
        <time>2017-07-28T06:41:29Z</time>
      </trkpt>
      <trkpt lat="45.0456700" lon="7.0975280">
        <ele>2052.4</ele>
        <time>2017-07-28T06:41:30Z</time>
      </trkpt>
      <trkpt lat="45.0457310" lon="7.0974900">
        <ele>2051.4</ele>
        <time>2017-07-28T06:41:31Z</time>
      </trkpt>
      <trkpt lat="45.0458990" lon="7.0975140">
        <ele>2049.6</ele>
        <time>2017-07-28T06:41:33Z</time>
      </trkpt>
      <trkpt lat="45.0460370" lon="7.0974600">
        <ele>2048.2</ele>
        <time>2017-07-28T06:41:35Z</time>
      </trkpt>
      <trkpt lat="45.0460970" lon="7.0973930">
        <ele>2047.4</ele>
        <time>2017-07-28T06:41:37Z</time>
      </trkpt>
      <trkpt lat="45.0461620" lon="7.0972820">
        <ele>2046.4</ele>
        <time>2017-07-28T06:41:38Z</time>
      </trkpt>
      <trkpt lat="45.0462220" lon="7.0971470">
        <ele>2045.6</ele>
        <time>2017-07-28T06:41:39Z</time>
      </trkpt>
      <trkpt lat="45.0462400" lon="7.0969860">
        <ele>2044.6</ele>
        <time>2017-07-28T06:41:40Z</time>
      </trkpt>
      <trkpt lat="45.0462510" lon="7.0968380">
        <ele>2043.4</ele>
        <time>2017-07-28T06:41:41Z</time>
      </trkpt>
      <trkpt lat="45.0462760" lon="7.0966900">
        <ele>2042.2</ele>
        <time>2017-07-28T06:41:42Z</time>
      </trkpt>
      <trkpt lat="45.0462610" lon="7.0963720">
        <ele>2040.4</ele>
        <time>2017-07-28T06:41:44Z</time>
      </trkpt>
      <trkpt lat="45.0462790" lon="7.0962270">
        <ele>2039.6</ele>
        <time>2017-07-28T06:41:45Z</time>
      </trkpt>
      <trkpt lat="45.0462830" lon="7.0960610">
        <ele>2038.2</ele>
        <time>2017-07-28T06:41:46Z</time>
      </trkpt>
      <trkpt lat="45.0462810" lon="7.0958990">
        <ele>2037.2</ele>
        <time>2017-07-28T06:41:47Z</time>
      </trkpt>
      <trkpt lat="45.0462770" lon="7.0957320">
        <ele>2035.8</ele>
        <time>2017-07-28T06:41:48Z</time>
      </trkpt>
      <trkpt lat="45.0462870" lon="7.0955620">
        <ele>2034.4</ele>
        <time>2017-07-28T06:41:49Z</time>
      </trkpt>
      <trkpt lat="45.0463020" lon="7.0953930">
        <ele>2032.0</ele>
        <time>2017-07-28T06:41:50Z</time>
      </trkpt>
      <trkpt lat="45.0463220" lon="7.0952260">
        <ele>2030.6</ele>
        <time>2017-07-28T06:41:51Z</time>
      </trkpt>
      <trkpt lat="45.0463500" lon="7.0950640">
        <ele>2029.2</ele>
        <time>2017-07-28T06:41:52Z</time>
      </trkpt>
      <trkpt lat="45.0463790" lon="7.0949010">
        <ele>2027.8</ele>
        <time>2017-07-28T06:41:53Z</time>
      </trkpt>
      <trkpt lat="45.0464070" lon="7.0947520">
        <ele>2026.8</ele>
        <time>2017-07-28T06:41:54Z</time>
      </trkpt>
      <trkpt lat="45.0464390" lon="7.0946370">
        <ele>2025.2</ele>
        <time>2017-07-28T06:41:55Z</time>
      </trkpt>
      <trkpt lat="45.0464580" lon="7.0945350">
        <ele>2024.0</ele>
        <time>2017-07-28T06:41:56Z</time>
      </trkpt>
      <trkpt lat="45.0464540" lon="7.0944300">
        <ele>2022.4</ele>
        <time>2017-07-28T06:41:57Z</time>
      </trkpt>
      <trkpt lat="45.0464230" lon="7.0943460">
        <ele>2021.0</ele>
        <time>2017-07-28T06:41:58Z</time>
      </trkpt>
      <trkpt lat="45.0463690" lon="7.0942730">
        <ele>2019.4</ele>
        <time>2017-07-28T06:41:59Z</time>
      </trkpt>
      <trkpt lat="45.0463030" lon="7.0941850">
        <ele>2018.0</ele>
        <time>2017-07-28T06:42:00Z</time>
      </trkpt>
      <trkpt lat="45.0462270" lon="7.0941000">
        <ele>2016.8</ele>
        <time>2017-07-28T06:42:01Z</time>
      </trkpt>
      <trkpt lat="45.0461730" lon="7.0940110">
        <ele>2015.2</ele>
        <time>2017-07-28T06:42:02Z</time>
      </trkpt>
      <trkpt lat="45.0461320" lon="7.0939030">
        <ele>2014.0</ele>
        <time>2017-07-28T06:42:03Z</time>
      </trkpt>
      <trkpt lat="45.0461100" lon="7.0937780">
        <ele>2013.0</ele>
        <time>2017-07-28T06:42:04Z</time>
      </trkpt>
      <trkpt lat="45.0460950" lon="7.0936510">
        <ele>2011.8</ele>
        <time>2017-07-28T06:42:05Z</time>
      </trkpt>
      <trkpt lat="45.0460840" lon="7.0935210">
        <ele>2010.6</ele>
        <time>2017-07-28T06:42:06Z</time>
      </trkpt>
      <trkpt lat="45.0460920" lon="7.0933870">
        <ele>2009.4</ele>
        <time>2017-07-28T06:42:07Z</time>
      </trkpt>
      <trkpt lat="45.0461010" lon="7.0932520">
        <ele>2008.0</ele>
        <time>2017-07-28T06:42:08Z</time>
      </trkpt>
      <trkpt lat="45.0461220" lon="7.0931080">
        <ele>2007.0</ele>
        <time>2017-07-28T06:42:09Z</time>
      </trkpt>
      <trkpt lat="45.0461470" lon="7.0929620">
        <ele>2005.6</ele>
        <time>2017-07-28T06:42:10Z</time>
      </trkpt>
      <trkpt lat="45.0461770" lon="7.0928200">
        <ele>2004.4</ele>
        <time>2017-07-28T06:42:11Z</time>
      </trkpt>
      <trkpt lat="45.0462080" lon="7.0926820">
        <ele>2003.4</ele>
        <time>2017-07-28T06:42:12Z</time>
      </trkpt>
      <trkpt lat="45.0462390" lon="7.0925320">
        <ele>2002.0</ele>
        <time>2017-07-28T06:42:13Z</time>
      </trkpt>
      <trkpt lat="45.0462730" lon="7.0923800">
        <ele>1999.2</ele>
        <time>2017-07-28T06:42:14Z</time>
      </trkpt>
      <trkpt lat="45.0463100" lon="7.0922270">
        <ele>1998.0</ele>
        <time>2017-07-28T06:42:15Z</time>
      </trkpt>
      <trkpt lat="45.0463470" lon="7.0920740">
        <ele>1996.8</ele>
        <time>2017-07-28T06:42:16Z</time>
      </trkpt>
      <trkpt lat="45.0463870" lon="7.0919200">
        <ele>1995.8</ele>
        <time>2017-07-28T06:42:17Z</time>
      </trkpt>
      <trkpt lat="45.0464300" lon="7.0917720">
        <ele>1994.4</ele>
        <time>2017-07-28T06:42:18Z</time>
      </trkpt>
      <trkpt lat="45.0464710" lon="7.0916390">
        <ele>1993.0</ele>
        <time>2017-07-28T06:42:19Z</time>
      </trkpt>
      <trkpt lat="45.0464910" lon="7.0915160">
        <ele>1991.6</ele>
        <time>2017-07-28T06:42:20Z</time>
      </trkpt>
      <trkpt lat="45.0464880" lon="7.0914010">
        <ele>1990.2</ele>
        <time>2017-07-28T06:42:21Z</time>
      </trkpt>
      <trkpt lat="45.0464790" lon="7.0912980">
        <ele>1988.6</ele>
        <time>2017-07-28T06:42:22Z</time>
      </trkpt>
      <trkpt lat="45.0464660" lon="7.0911940">
        <ele>1987.2</ele>
        <time>2017-07-28T06:42:23Z</time>
      </trkpt>
      <trkpt lat="45.0464550" lon="7.0910810">
        <ele>1985.8</ele>
        <time>2017-07-28T06:42:24Z</time>
      </trkpt>
      <trkpt lat="45.0464350" lon="7.0909470">
        <ele>1984.4</ele>
        <time>2017-07-28T06:42:25Z</time>
      </trkpt>
      <trkpt lat="45.0464140" lon="7.0908030">
        <ele>1983.0</ele>
        <time>2017-07-28T06:42:26Z</time>
      </trkpt>
      <trkpt lat="45.0463930" lon="7.0906550">
        <ele>1981.2</ele>
        <time>2017-07-28T06:42:27Z</time>
      </trkpt>
      <trkpt lat="45.0463760" lon="7.0904810">
        <ele>1979.6</ele>
        <time>2017-07-28T06:42:28Z</time>
      </trkpt>
      <trkpt lat="45.0463600" lon="7.0903020">
        <ele>1978.2</ele>
        <time>2017-07-28T06:42:29Z</time>
      </trkpt>
      <trkpt lat="45.0463540" lon="7.0901150">
        <ele>1976.8</ele>
        <time>2017-07-28T06:42:30Z</time>
      </trkpt>
      <trkpt lat="45.0463410" lon="7.0899400">
        <ele>1975.2</ele>
        <time>2017-07-28T06:42:31Z</time>
      </trkpt>
      <trkpt lat="45.0463330" lon="7.0897730">
        <ele>1973.8</ele>
        <time>2017-07-28T06:42:32Z</time>
      </trkpt>
      <trkpt lat="45.0463400" lon="7.0896140">
        <ele>1972.4</ele>
        <time>2017-07-28T06:42:33Z</time>
      </trkpt>
      <trkpt lat="45.0463460" lon="7.0894540">
        <ele>1971.2</ele>
        <time>2017-07-28T06:42:34Z</time>
      </trkpt>
      <trkpt lat="45.0463520" lon="7.0893020">
        <ele>1970.0</ele>
        <time>2017-07-28T06:42:35Z</time>
      </trkpt>
      <trkpt lat="45.0463580" lon="7.0891430">
        <ele>1968.6</ele>
        <time>2017-07-28T06:42:36Z</time>
      </trkpt>
      <trkpt lat="45.0463640" lon="7.0889870">
        <ele>1967.0</ele>
        <time>2017-07-28T06:42:37Z</time>
      </trkpt>
      <trkpt lat="45.0463740" lon="7.0888370">
        <ele>1964.0</ele>
        <time>2017-07-28T06:42:38Z</time>
      </trkpt>
      <trkpt lat="45.0463960" lon="7.0887060">
        <ele>1962.6</ele>
        <time>2017-07-28T06:42:39Z</time>
      </trkpt>
      <trkpt lat="45.0464260" lon="7.0886000">
        <ele>1961.2</ele>
        <time>2017-07-28T06:42:40Z</time>
      </trkpt>
      <trkpt lat="45.0464690" lon="7.0885160">
        <ele>1959.8</ele>
        <time>2017-07-28T06:42:41Z</time>
      </trkpt>
      <trkpt lat="45.0465250" lon="7.0884540">
        <ele>1958.6</ele>
        <time>2017-07-28T06:42:42Z</time>
      </trkpt>
      <trkpt lat="45.0465880" lon="7.0884110">
        <ele>1957.6</ele>
        <time>2017-07-28T06:42:43Z</time>
      </trkpt>
      <trkpt lat="45.0466320" lon="7.0883560">
        <ele>1956.4</ele>
        <time>2017-07-28T06:42:44Z</time>
      </trkpt>
      <trkpt lat="45.0466510" lon="7.0882870">
        <ele>1955.2</ele>
        <time>2017-07-28T06:42:45Z</time>
      </trkpt>
      <trkpt lat="45.0466280" lon="7.0882070">
        <ele>1953.2</ele>
        <time>2017-07-28T06:42:47Z</time>
      </trkpt>
      <trkpt lat="45.0464910" lon="7.0881600">
        <ele>1951.2</ele>
        <time>2017-07-28T06:42:49Z</time>
      </trkpt>
      <trkpt lat="45.0464180" lon="7.0880950">
        <ele>1950.4</ele>
        <time>2017-07-28T06:42:50Z</time>
      </trkpt>
      <trkpt lat="45.0463590" lon="7.0880120">
        <ele>1949.6</ele>
        <time>2017-07-28T06:42:51Z</time>
      </trkpt>
      <trkpt lat="45.0462730" lon="7.0877900">
        <ele>1947.8</ele>
        <time>2017-07-28T06:42:53Z</time>
      </trkpt>
      <trkpt lat="45.0462320" lon="7.0876830">
        <ele>1946.8</ele>
        <time>2017-07-28T06:42:54Z</time>
      </trkpt>
      <trkpt lat="45.0461660" lon="7.0875840">
        <ele>1945.8</ele>
        <time>2017-07-28T06:42:55Z</time>
      </trkpt>
      <trkpt lat="45.0461060" lon="7.0874880">
        <ele>1945.0</ele>
        <time>2017-07-28T06:42:56Z</time>
      </trkpt>
      <trkpt lat="45.0460340" lon="7.0873950">
        <ele>1944.2</ele>
        <time>2017-07-28T06:42:57Z</time>
      </trkpt>
      <trkpt lat="45.0459540" lon="7.0873090">
        <ele>1943.2</ele>
        <time>2017-07-28T06:42:58Z</time>
      </trkpt>
      <trkpt lat="45.0458960" lon="7.0872070">
        <ele>1942.2</ele>
        <time>2017-07-28T06:42:59Z</time>
      </trkpt>
      <trkpt lat="45.0458600" lon="7.0871010">
        <ele>1940.8</ele>
        <time>2017-07-28T06:43:00Z</time>
      </trkpt>
      <trkpt lat="45.0458320" lon="7.0869990">
        <ele>1939.8</ele>
        <time>2017-07-28T06:43:01Z</time>
      </trkpt>
      <trkpt lat="45.0458070" lon="7.0868880">
        <ele>1937.6</ele>
        <time>2017-07-28T06:43:02Z</time>
      </trkpt>
      <trkpt lat="45.0457920" lon="7.0867650">
        <ele>1936.4</ele>
        <time>2017-07-28T06:43:03Z</time>
      </trkpt>
      <trkpt lat="45.0457750" lon="7.0866460">
        <ele>1935.4</ele>
        <time>2017-07-28T06:43:04Z</time>
      </trkpt>
      <trkpt lat="45.0457330" lon="7.0863600">
        <ele>1933.8</ele>
        <time>2017-07-28T06:43:06Z</time>
      </trkpt>
      <trkpt lat="45.0457160" lon="7.0862020">
        <ele>1932.6</ele>
        <time>2017-07-28T06:43:07Z</time>
      </trkpt>
      <trkpt lat="45.0456820" lon="7.0858920">
        <ele>1930.8</ele>
        <time>2017-07-28T06:43:09Z</time>
      </trkpt>
      <trkpt lat="45.0456660" lon="7.0857510">
        <ele>1929.8</ele>
        <time>2017-07-28T06:43:10Z</time>
      </trkpt>
      <trkpt lat="45.0456420" lon="7.0856290">
        <ele>1928.6</ele>
        <time>2017-07-28T06:43:11Z</time>
      </trkpt>
      <trkpt lat="45.0456050" lon="7.0855030">
        <ele>1927.2</ele>
        <time>2017-07-28T06:43:12Z</time>
      </trkpt>
      <trkpt lat="45.0454980" lon="7.0852420">
        <ele>1924.6</ele>
        <time>2017-07-28T06:43:14Z</time>
      </trkpt>
      <trkpt lat="45.0454200" lon="7.0851230">
        <ele>1923.4</ele>
        <time>2017-07-28T06:43:15Z</time>
      </trkpt>
      <trkpt lat="45.0453270" lon="7.0850210">
        <ele>1921.8</ele>
        <time>2017-07-28T06:43:16Z</time>
      </trkpt>
      <trkpt lat="45.0452180" lon="7.0849490">
        <ele>1920.6</ele>
        <time>2017-07-28T06:43:17Z</time>
      </trkpt>
      <trkpt lat="45.0451040" lon="7.0849030">
        <ele>1918.8</ele>
        <time>2017-07-28T06:43:18Z</time>
      </trkpt>
      <trkpt lat="45.0449870" lon="7.0848790">
        <ele>1917.4</ele>
        <time>2017-07-28T06:43:19Z</time>
      </trkpt>
      <trkpt lat="45.0448680" lon="7.0848620">
        <ele>1915.8</ele>
        <time>2017-07-28T06:43:20Z</time>
      </trkpt>
      <trkpt lat="45.0447510" lon="7.0848460">
        <ele>1914.4</ele>
        <time>2017-07-28T06:43:21Z</time>
      </trkpt>
      <trkpt lat="45.0446330" lon="7.0848090">
        <ele>1913.2</ele>
        <time>2017-07-28T06:43:22Z</time>
      </trkpt>
      <trkpt lat="45.0445160" lon="7.0847620">
        <ele>1912.0</ele>
        <time>2017-07-28T06:43:23Z</time>
      </trkpt>
      <trkpt lat="45.0444000" lon="7.0847220">
        <ele>1910.8</ele>
        <time>2017-07-28T06:43:24Z</time>
      </trkpt>
      <trkpt lat="45.0441700" lon="7.0846480">
        <ele>1907.8</ele>
        <time>2017-07-28T06:43:26Z</time>
      </trkpt>
      <trkpt lat="45.0440590" lon="7.0846170">
        <ele>1906.6</ele>
        <time>2017-07-28T06:43:27Z</time>
      </trkpt>
      <trkpt lat="45.0439490" lon="7.0845980">
        <ele>1905.8</ele>
        <time>2017-07-28T06:43:28Z</time>
      </trkpt>
      <trkpt lat="45.0438380" lon="7.0845810">
        <ele>1904.8</ele>
        <time>2017-07-28T06:43:29Z</time>
      </trkpt>
      <trkpt lat="45.0436400" lon="7.0845470">
        <ele>1903.0</ele>
        <time>2017-07-28T06:43:31Z</time>
      </trkpt>
      <trkpt lat="45.0435650" lon="7.0845130">
        <ele>1902.4</ele>
        <time>2017-07-28T06:43:32Z</time>
      </trkpt>
      <trkpt lat="45.0435070" lon="7.0844550">
        <ele>1901.8</ele>
        <time>2017-07-28T06:43:33Z</time>
      </trkpt>
      <trkpt lat="45.0434810" lon="7.0843810">
        <ele>1901.2</ele>
        <time>2017-07-28T06:43:34Z</time>
      </trkpt>
      <trkpt lat="45.0434860" lon="7.0842880">
        <ele>1900.6</ele>
        <time>2017-07-28T06:43:35Z</time>
      </trkpt>
      <trkpt lat="45.0435180" lon="7.0841820">
        <ele>1900.0</ele>
        <time>2017-07-28T06:43:36Z</time>
      </trkpt>
      <trkpt lat="45.0435480" lon="7.0840760">
        <ele>1899.4</ele>
        <time>2017-07-28T06:43:37Z</time>
      </trkpt>
      <trkpt lat="45.0436590" lon="7.0837700">
        <ele>1898.2</ele>
        <time>2017-07-28T06:43:40Z</time>
      </trkpt>
      <trkpt lat="45.0437700" lon="7.0835650">
        <ele>1897.0</ele>
        <time>2017-07-28T06:43:42Z</time>
      </trkpt>
      <trkpt lat="45.0439590" lon="7.0832480">
        <ele>1895.6</ele>
        <time>2017-07-28T06:43:45Z</time>
      </trkpt>
      <trkpt lat="45.0440190" lon="7.0831660">
        <ele>1895.0</ele>
        <time>2017-07-28T06:43:46Z</time>
      </trkpt>
      <trkpt lat="45.0440670" lon="7.0830940">
        <ele>1894.4</ele>
        <time>2017-07-28T06:43:47Z</time>
      </trkpt>
      <trkpt lat="45.0440840" lon="7.0829510">
        <ele>1893.0</ele>
        <time>2017-07-28T06:43:49Z</time>
      </trkpt>
      <trkpt lat="45.0440470" lon="7.0829120">
        <ele>1891.6</ele>
        <time>2017-07-28T06:43:50Z</time>
      </trkpt>
      <trkpt lat="45.0440050" lon="7.0829060">
        <ele>1891.0</ele>
        <time>2017-07-28T06:43:51Z</time>
      </trkpt>
      <trkpt lat="45.0439490" lon="7.0829300">
        <ele>1890.2</ele>
        <time>2017-07-28T06:43:52Z</time>
      </trkpt>
      <trkpt lat="45.0438770" lon="7.0829730">
        <ele>1889.8</ele>
        <time>2017-07-28T06:43:53Z</time>
      </trkpt>
      <trkpt lat="45.0438010" lon="7.0830130">
        <ele>1889.2</ele>
        <time>2017-07-28T06:43:54Z</time>
      </trkpt>
      <trkpt lat="45.0436350" lon="7.0830660">
        <ele>1888.2</ele>
        <time>2017-07-28T06:43:56Z</time>
      </trkpt>
      <trkpt lat="45.0435440" lon="7.0830980">
        <ele>1887.8</ele>
        <time>2017-07-28T06:43:57Z</time>
      </trkpt>
      <trkpt lat="45.0433560" lon="7.0831800">
        <ele>1887.0</ele>
        <time>2017-07-28T06:43:59Z</time>
      </trkpt>
      <trkpt lat="45.0431500" lon="7.0832380">
        <ele>1885.6</ele>
        <time>2017-07-28T06:44:01Z</time>
      </trkpt>
      <trkpt lat="45.0428240" lon="7.0832480">
        <ele>1884.0</ele>
        <time>2017-07-28T06:44:04Z</time>
      </trkpt>
      <trkpt lat="45.0427340" lon="7.0832470">
        <ele>1883.2</ele>
        <time>2017-07-28T06:44:05Z</time>
      </trkpt>
      <trkpt lat="45.0426660" lon="7.0832300">
        <ele>1882.0</ele>
        <time>2017-07-28T06:44:06Z</time>
      </trkpt>
      <trkpt lat="45.0426210" lon="7.0831910">
        <ele>1881.0</ele>
        <time>2017-07-28T06:44:07Z</time>
      </trkpt>
      <trkpt lat="45.0426250" lon="7.0830670">
        <ele>1879.4</ele>
        <time>2017-07-28T06:44:09Z</time>
      </trkpt>
      <trkpt lat="45.0427050" lon="7.0829300">
        <ele>1877.6</ele>
        <time>2017-07-28T06:44:11Z</time>
      </trkpt>
      <trkpt lat="45.0427580" lon="7.0828630">
        <ele>1876.8</ele>
        <time>2017-07-28T06:44:12Z</time>
      </trkpt>
      <trkpt lat="45.0428150" lon="7.0827890">
        <ele>1876.0</ele>
        <time>2017-07-28T06:44:13Z</time>
      </trkpt>
      <trkpt lat="45.0428770" lon="7.0827100">
        <ele>1874.6</ele>
        <time>2017-07-28T06:44:14Z</time>
      </trkpt>
      <trkpt lat="45.0429520" lon="7.0825400">
        <ele>1873.0</ele>
        <time>2017-07-28T06:44:16Z</time>
      </trkpt>
      <trkpt lat="45.0428950" lon="7.0823920">
        <ele>1871.4</ele>
        <time>2017-07-28T06:44:18Z</time>
      </trkpt>
      <trkpt lat="45.0427380" lon="7.0823400">
        <ele>1869.8</ele>
        <time>2017-07-28T06:44:20Z</time>
      </trkpt>
      <trkpt lat="45.0425520" lon="7.0822590">
        <ele>1868.2</ele>
        <time>2017-07-28T06:44:22Z</time>
      </trkpt>
      <trkpt lat="45.0424520" lon="7.0822060">
        <ele>1867.6</ele>
        <time>2017-07-28T06:44:23Z</time>
      </trkpt>
      <trkpt lat="45.0423410" lon="7.0821570">
        <ele>1866.6</ele>
        <time>2017-07-28T06:44:24Z</time>
      </trkpt>
      <trkpt lat="45.0421030" lon="7.0820590">
        <ele>1864.6</ele>
        <time>2017-07-28T06:44:26Z</time>
      </trkpt>
      <trkpt lat="45.0419790" lon="7.0819990">
        <ele>1863.6</ele>
        <time>2017-07-28T06:44:27Z</time>
      </trkpt>
      <trkpt lat="45.0417280" lon="7.0818660">
        <ele>1861.8</ele>
        <time>2017-07-28T06:44:29Z</time>
      </trkpt>
      <trkpt lat="45.0415990" lon="7.0817890">
        <ele>1860.6</ele>
        <time>2017-07-28T06:44:30Z</time>
      </trkpt>
      <trkpt lat="45.0414680" lon="7.0817080">
        <ele>1859.2</ele>
        <time>2017-07-28T06:44:31Z</time>
      </trkpt>
      <trkpt lat="45.0412000" lon="7.0815380">
        <ele>1857.2</ele>
        <time>2017-07-28T06:44:33Z</time>
      </trkpt>
      <trkpt lat="45.0410680" lon="7.0814540">
        <ele>1855.4</ele>
        <time>2017-07-28T06:44:34Z</time>
      </trkpt>
      <trkpt lat="45.0409410" lon="7.0813580">
        <ele>1854.0</ele>
        <time>2017-07-28T06:44:35Z</time>
      </trkpt>
      <trkpt lat="45.0408260" lon="7.0812450">
        <ele>1852.6</ele>
        <time>2017-07-28T06:44:36Z</time>
      </trkpt>
      <trkpt lat="45.0407180" lon="7.0811290">
        <ele>1851.4</ele>
        <time>2017-07-28T06:44:37Z</time>
      </trkpt>
      <trkpt lat="45.0406140" lon="7.0810230">
        <ele>1849.0</ele>
        <time>2017-07-28T06:44:38Z</time>
      </trkpt>
      <trkpt lat="45.0404260" lon="7.0808370">
        <ele>1847.0</ele>
        <time>2017-07-28T06:44:40Z</time>
      </trkpt>
      <trkpt lat="45.0403520" lon="7.0807300">
        <ele>1846.0</ele>
        <time>2017-07-28T06:44:41Z</time>
      </trkpt>
      <trkpt lat="45.0402560" lon="7.0804670">
        <ele>1844.0</ele>
        <time>2017-07-28T06:44:43Z</time>
      </trkpt>
      <trkpt lat="45.0402070" lon="7.0802040">
        <ele>1842.0</ele>
        <time>2017-07-28T06:44:45Z</time>
      </trkpt>
      <trkpt lat="45.0401920" lon="7.0800730">
        <ele>1841.4</ele>
        <time>2017-07-28T06:44:46Z</time>
      </trkpt>
      <trkpt lat="45.0401780" lon="7.0799440">
        <ele>1840.6</ele>
        <time>2017-07-28T06:44:47Z</time>
      </trkpt>
      <trkpt lat="45.0401440" lon="7.0796930">
        <ele>1839.0</ele>
        <time>2017-07-28T06:44:49Z</time>
      </trkpt>
      <trkpt lat="45.0400950" lon="7.0794540">
        <ele>1837.6</ele>
        <time>2017-07-28T06:44:51Z</time>
      </trkpt>
      <trkpt lat="45.0400680" lon="7.0793250">
        <ele>1837.2</ele>
        <time>2017-07-28T06:44:52Z</time>
      </trkpt>
      <trkpt lat="45.0400320" lon="7.0792000">
        <ele>1836.4</ele>
        <time>2017-07-28T06:44:53Z</time>
      </trkpt>
      <trkpt lat="45.0399590" lon="7.0789530">
        <ele>1835.2</ele>
        <time>2017-07-28T06:44:55Z</time>
      </trkpt>
      <trkpt lat="45.0398880" lon="7.0787130">
        <ele>1834.6</ele>
        <time>2017-07-28T06:44:57Z</time>
      </trkpt>
      <trkpt lat="45.0398380" lon="7.0786030">
        <ele>1834.0</ele>
        <time>2017-07-28T06:44:58Z</time>
      </trkpt>
      <trkpt lat="45.0397550" lon="7.0783510">
        <ele>1832.8</ele>
        <time>2017-07-28T06:45:00Z</time>
      </trkpt>
      <trkpt lat="45.0397290" lon="7.0782140">
        <ele>1832.4</ele>
        <time>2017-07-28T06:45:01Z</time>
      </trkpt>
      <trkpt lat="45.0397100" lon="7.0780700">
        <ele>1831.4</ele>
        <time>2017-07-28T06:45:02Z</time>
      </trkpt>
      <trkpt lat="45.0396960" lon="7.0779270">
        <ele>1830.8</ele>
        <time>2017-07-28T06:45:03Z</time>
      </trkpt>
      <trkpt lat="45.0396790" lon="7.0777960">
        <ele>1830.2</ele>
        <time>2017-07-28T06:45:04Z</time>
      </trkpt>
      <trkpt lat="45.0396650" lon="7.0775730">
        <ele>1828.4</ele>
        <time>2017-07-28T06:45:06Z</time>
      </trkpt>
      <trkpt lat="45.0396600" lon="7.0774750">
        <ele>1827.2</ele>
        <time>2017-07-28T06:45:07Z</time>
      </trkpt>
      <trkpt lat="45.0396580" lon="7.0773960">
        <ele>1826.2</ele>
        <time>2017-07-28T06:45:08Z</time>
      </trkpt>
      <trkpt lat="45.0396660" lon="7.0773340">
        <ele>1825.4</ele>
        <time>2017-07-28T06:45:09Z</time>
      </trkpt>
      <trkpt lat="45.0396840" lon="7.0772790">
        <ele>1824.6</ele>
        <time>2017-07-28T06:45:10Z</time>
      </trkpt>
      <trkpt lat="45.0397720" lon="7.0772340">
        <ele>1823.0</ele>
        <time>2017-07-28T06:45:12Z</time>
      </trkpt>
      <trkpt lat="45.0398640" lon="7.0772900">
        <ele>1821.4</ele>
        <time>2017-07-28T06:45:14Z</time>
      </trkpt>
      <trkpt lat="45.0399060" lon="7.0773510">
        <ele>1820.8</ele>
        <time>2017-07-28T06:45:15Z</time>
      </trkpt>
      <trkpt lat="45.0399550" lon="7.0774250">
        <ele>1820.0</ele>
        <time>2017-07-28T06:45:16Z</time>
      </trkpt>
      <trkpt lat="45.0399970" lon="7.0775130">
        <ele>1819.0</ele>
        <time>2017-07-28T06:45:17Z</time>
      </trkpt>
      <trkpt lat="45.0400370" lon="7.0776090">
        <ele>1818.2</ele>
        <time>2017-07-28T06:45:18Z</time>
      </trkpt>
      <trkpt lat="45.0400800" lon="7.0777080">
        <ele>1817.6</ele>
        <time>2017-07-28T06:45:19Z</time>
      </trkpt>
      <trkpt lat="45.0401350" lon="7.0778010">
        <ele>1816.8</ele>
        <time>2017-07-28T06:45:20Z</time>
      </trkpt>
      <trkpt lat="45.0402460" lon="7.0779910">
        <ele>1815.4</ele>
        <time>2017-07-28T06:45:22Z</time>
      </trkpt>
      <trkpt lat="45.0403020" lon="7.0780920">
        <ele>1814.8</ele>
        <time>2017-07-28T06:45:23Z</time>
      </trkpt>
      <trkpt lat="45.0403610" lon="7.0781950">
        <ele>1814.2</ele>
        <time>2017-07-28T06:45:24Z</time>
      </trkpt>
      <trkpt lat="45.0404890" lon="7.0783790">
        <ele>1812.4</ele>
        <time>2017-07-28T06:45:26Z</time>
      </trkpt>
      <trkpt lat="45.0406420" lon="7.0784860">
        <ele>1811.2</ele>
        <time>2017-07-28T06:45:28Z</time>
      </trkpt>
      <trkpt lat="45.0408040" lon="7.0784810">
        <ele>1810.2</ele>
        <time>2017-07-28T06:45:30Z</time>
      </trkpt>
      <trkpt lat="45.0408930" lon="7.0784400">
        <ele>1809.6</ele>
        <time>2017-07-28T06:45:31Z</time>
      </trkpt>
      <trkpt lat="45.0409870" lon="7.0783960">
        <ele>1809.0</ele>
        <time>2017-07-28T06:45:32Z</time>
      </trkpt>
      <trkpt lat="45.0410870" lon="7.0783490">
        <ele>1808.2</ele>
        <time>2017-07-28T06:45:33Z</time>
      </trkpt>
      <trkpt lat="45.0412840" lon="7.0782700">
        <ele>1807.0</ele>
        <time>2017-07-28T06:45:35Z</time>
      </trkpt>
      <trkpt lat="45.0414890" lon="7.0782420">
        <ele>1806.2</ele>
        <time>2017-07-28T06:45:37Z</time>
      </trkpt>
      <trkpt lat="45.0415880" lon="7.0782350">
        <ele>1805.6</ele>
        <time>2017-07-28T06:45:38Z</time>
      </trkpt>
      <trkpt lat="45.0417770" lon="7.0782460">
        <ele>1804.4</ele>
        <time>2017-07-28T06:45:40Z</time>
      </trkpt>
      <trkpt lat="45.0419460" lon="7.0782700">
        <ele>1803.4</ele>
        <time>2017-07-28T06:45:42Z</time>
      </trkpt>
      <trkpt lat="45.0420170" lon="7.0782630">
        <ele>1802.8</ele>
        <time>2017-07-28T06:45:43Z</time>
      </trkpt>
      <trkpt lat="45.0420490" lon="7.0781550">
        <ele>1801.4</ele>
        <time>2017-07-28T06:45:45Z</time>
      </trkpt>
      <trkpt lat="45.0419910" lon="7.0780810">
        <ele>1799.8</ele>
        <time>2017-07-28T06:45:47Z</time>
      </trkpt>
      <trkpt lat="45.0419440" lon="7.0780750">
        <ele>1799.0</ele>
        <time>2017-07-28T06:45:48Z</time>
      </trkpt>
      <trkpt lat="45.0418940" lon="7.0780620">
        <ele>1798.4</ele>
        <time>2017-07-28T06:45:49Z</time>
      </trkpt>
      <trkpt lat="45.0418270" lon="7.0780480">
        <ele>1797.2</ele>
        <time>2017-07-28T06:45:50Z</time>
      </trkpt>
      <trkpt lat="45.0416880" lon="7.0779980">
        <ele>1796.4</ele>
        <time>2017-07-28T06:45:52Z</time>
      </trkpt>
      <trkpt lat="45.0416170" lon="7.0779610">
        <ele>1796.2</ele>
        <time>2017-07-28T06:45:53Z</time>
      </trkpt>
      <trkpt lat="45.0414000" lon="7.0778330">
        <ele>1795.2</ele>
        <time>2017-07-28T06:45:56Z</time>
      </trkpt>
      <trkpt lat="45.0412530" lon="7.0777510">
        <ele>1794.6</ele>
        <time>2017-07-28T06:45:58Z</time>
      </trkpt>
      <trkpt lat="45.0411740" lon="7.0777260">
        <ele>1794.2</ele>
        <time>2017-07-28T06:45:59Z</time>
      </trkpt>
      <trkpt lat="45.0410900" lon="7.0777250">
        <ele>1794.0</ele>
        <time>2017-07-28T06:46:00Z</time>
      </trkpt>
      <trkpt lat="45.0410050" lon="7.0777310">
        <ele>1793.8</ele>
        <time>2017-07-28T06:46:01Z</time>
      </trkpt>
      <trkpt lat="45.0407580" lon="7.0776470">
        <ele>1793.0</ele>
        <time>2017-07-28T06:46:04Z</time>
      </trkpt>
      <trkpt lat="45.0406840" lon="7.0775890">
        <ele>1792.8</ele>
        <time>2017-07-28T06:46:05Z</time>
      </trkpt>
      <trkpt lat="45.0404810" lon="7.0773350">
        <ele>1792.4</ele>
        <time>2017-07-28T06:46:08Z</time>
      </trkpt>
      <trkpt lat="45.0403080" lon="7.0769110">
        <ele>1791.8</ele>
        <time>2017-07-28T06:46:12Z</time>
      </trkpt>
      <trkpt lat="45.0402340" lon="7.0766970">
        <ele>1790.8</ele>
        <time>2017-07-28T06:46:14Z</time>
      </trkpt>
      <trkpt lat="45.0401730" lon="7.0764690">
        <ele>1790.6</ele>
        <time>2017-07-28T06:46:16Z</time>
      </trkpt>
      <trkpt lat="45.0401410" lon="7.0763510">
        <ele>1790.4</ele>
        <time>2017-07-28T06:46:17Z</time>
      </trkpt>
      <trkpt lat="45.0400610" lon="7.0758530">
        <ele>1790.0</ele>
        <time>2017-07-28T06:46:21Z</time>
      </trkpt>
      <trkpt lat="45.0399940" lon="7.0755060">
        <ele>1789.4</ele>
        <time>2017-07-28T06:46:24Z</time>
      </trkpt>
      <trkpt lat="45.0399310" lon="7.0752860">
        <ele>1789.2</ele>
        <time>2017-07-28T06:46:26Z</time>
      </trkpt>
      <trkpt lat="45.0396950" lon="7.0748040">
        <ele>1788.4</ele>
        <time>2017-07-28T06:46:31Z</time>
      </trkpt>
      <trkpt lat="45.0394830" lon="7.0742230">
        <ele>1787.4</ele>
        <time>2017-07-28T06:46:36Z</time>
      </trkpt>
      <trkpt lat="45.0393690" lon="7.0737350">
        <ele>1786.2</ele>
        <time>2017-07-28T06:46:40Z</time>
      </trkpt>
      <trkpt lat="45.0393180" lon="7.0736460">
        <ele>1786.0</ele>
        <time>2017-07-28T06:46:41Z</time>
      </trkpt>
      <trkpt lat="45.0391110" lon="7.0732400">
        <ele>1785.4</ele>
        <time>2017-07-28T06:46:45Z</time>
      </trkpt>
      <trkpt lat="45.0390670" lon="7.0731240">
        <ele>1785.0</ele>
        <time>2017-07-28T06:46:46Z</time>
      </trkpt>
      <trkpt lat="45.0389950" lon="7.0728810">
        <ele>1784.6</ele>
        <time>2017-07-28T06:46:48Z</time>
      </trkpt>
      <trkpt lat="45.0389700" lon="7.0727500">
        <ele>1784.4</ele>
        <time>2017-07-28T06:46:49Z</time>
      </trkpt>
      <trkpt lat="45.0389530" lon="7.0724760">
        <ele>1784.0</ele>
        <time>2017-07-28T06:46:51Z</time>
      </trkpt>
      <trkpt lat="45.0389470" lon="7.0723520">
        <ele>1784.0</ele>
        <time>2017-07-28T06:46:52Z</time>
      </trkpt>
      <trkpt lat="45.0388580" lon="7.0717520">
        <ele>1783.0</ele>
        <time>2017-07-28T06:46:57Z</time>
      </trkpt>
      <trkpt lat="45.0388340" lon="7.0716290">
        <ele>1783.0</ele>
        <time>2017-07-28T06:46:58Z</time>
      </trkpt>
      <trkpt lat="45.0386670" lon="7.0710240">
        <ele>1782.0</ele>
        <time>2017-07-28T06:47:03Z</time>
      </trkpt>
      <trkpt lat="45.0386210" lon="7.0709120">
        <ele>1781.8</ele>
        <time>2017-07-28T06:47:04Z</time>
      </trkpt>
      <trkpt lat="45.0385500" lon="7.0708300">
        <ele>1781.6</ele>
        <time>2017-07-28T06:47:05Z</time>
      </trkpt>
      <trkpt lat="45.0384690" lon="7.0707640">
        <ele>1781.4</ele>
        <time>2017-07-28T06:47:06Z</time>
      </trkpt>
      <trkpt lat="45.0382290" lon="7.0706550">
        <ele>1780.8</ele>
        <time>2017-07-28T06:47:09Z</time>
      </trkpt>
      <trkpt lat="45.0381650" lon="7.0706480">
        <ele>1780.4</ele>
        <time>2017-07-28T06:47:10Z</time>
      </trkpt>
      <trkpt lat="45.0380940" lon="7.0705970">
        <ele>1779.6</ele>
        <time>2017-07-28T06:47:12Z</time>
      </trkpt>
      <trkpt lat="45.0380800" lon="7.0705510">
        <ele>1779.4</ele>
        <time>2017-07-28T06:47:13Z</time>
      </trkpt>
      <trkpt lat="45.0380380" lon="7.0704150">
        <ele>1779.0</ele>
        <time>2017-07-28T06:47:16Z</time>
      </trkpt>
      <trkpt lat="45.0380090" lon="7.0703240">
        <ele>1778.8</ele>
        <time>2017-07-28T06:47:18Z</time>
      </trkpt>
      <trkpt lat="45.0379930" lon="7.0702790">
        <ele>1778.6</ele>
        <time>2017-07-28T06:47:19Z</time>
      </trkpt>
      <trkpt lat="45.0379640" lon="7.0701850">
        <ele>1778.8</ele>
        <time>2017-07-28T06:47:21Z</time>
      </trkpt>
      <trkpt lat="45.0379210" lon="7.0700540">
        <ele>1778.8</ele>
        <time>2017-07-28T06:47:24Z</time>
      </trkpt>
      <trkpt lat="45.0379000" lon="7.0699720">
        <ele>1779.0</ele>
        <time>2017-07-28T06:47:26Z</time>
      </trkpt>
      <trkpt lat="45.0378480" lon="7.0698600">
        <ele>1779.6</ele>
        <time>2017-07-28T06:47:29Z</time>
      </trkpt>
      <trkpt lat="45.0378120" lon="7.0697740">
        <ele>1779.8</ele>
        <time>2017-07-28T06:47:32Z</time>
      </trkpt>
      <trkpt lat="45.0377820" lon="7.0697070">
        <ele>1781.4</ele>
        <time>2017-07-28T06:48:42Z</time>
      </trkpt>
      <trkpt lat="45.0377820" lon="7.0696900">
        <ele>1781.6</ele>
        <time>2017-07-28T06:48:43Z</time>
      </trkpt>
      <trkpt lat="45.0377770" lon="7.0696630">
        <ele>1781.8</ele>
        <time>2017-07-28T06:49:19Z</time>
      </trkpt>
      <trkpt lat="45.0377760" lon="7.0696170">
        <ele>1781.8</ele>
        <time>2017-07-28T06:49:20Z</time>
      </trkpt>
      <trkpt lat="45.0377690" lon="7.0695630">
        <ele>1782.0</ele>
        <time>2017-07-28T06:49:21Z</time>
      </trkpt>
      <trkpt lat="45.0377430" lon="7.0694150">
        <ele>1782.0</ele>
        <time>2017-07-28T06:49:23Z</time>
      </trkpt>
      <trkpt lat="45.0377380" lon="7.0693270">
        <ele>1782.2</ele>
        <time>2017-07-28T06:49:24Z</time>
      </trkpt>
      <trkpt lat="45.0377350" lon="7.0692400">
        <ele>1782.2</ele>
        <time>2017-07-28T06:49:25Z</time>
      </trkpt>
      <trkpt lat="45.0377180" lon="7.0691690">
        <ele>1782.2</ele>
        <time>2017-07-28T06:49:26Z</time>
      </trkpt>
      <trkpt lat="45.0376420" lon="7.0690170">
        <ele>1782.2</ele>
        <time>2017-07-28T06:49:28Z</time>
      </trkpt>
      <trkpt lat="45.0374670" lon="7.0689250">
        <ele>1781.0</ele>
        <time>2017-07-28T06:49:31Z</time>
      </trkpt>
      <trkpt lat="45.0374270" lon="7.0689220">
        <ele>1780.4</ele>
        <time>2017-07-28T06:49:32Z</time>
      </trkpt>
      <trkpt lat="45.0374200" lon="7.0688870">
        <ele>1779.8</ele>
        <time>2017-07-28T06:49:33Z</time>
      </trkpt>
      <trkpt lat="45.0374250" lon="7.0688490">
        <ele>1779.2</ele>
        <time>2017-07-28T06:49:34Z</time>
      </trkpt>
      <trkpt lat="45.0374510" lon="7.0687100">
        <ele>1778.6</ele>
        <time>2017-07-28T06:49:36Z</time>
      </trkpt>
      <trkpt lat="45.0374910" lon="7.0684850">
        <ele>1778.0</ele>
        <time>2017-07-28T06:49:39Z</time>
      </trkpt>
      <trkpt lat="45.0375130" lon="7.0683350">
        <ele>1777.4</ele>
        <time>2017-07-28T06:49:41Z</time>
      </trkpt>
      <trkpt lat="45.0375200" lon="7.0682700">
        <ele>1776.8</ele>
        <time>2017-07-28T06:49:42Z</time>
      </trkpt>
      <trkpt lat="45.0375220" lon="7.0682150">
        <ele>1776.4</ele>
        <time>2017-07-28T06:49:43Z</time>
      </trkpt>
      <trkpt lat="45.0374930" lon="7.0681550">
        <ele>1775.8</ele>
        <time>2017-07-28T06:49:44Z</time>
      </trkpt>
      <trkpt lat="45.0374700" lon="7.0681130">
        <ele>1775.4</ele>
        <time>2017-07-28T06:49:45Z</time>
      </trkpt>
      <trkpt lat="45.0374570" lon="7.0680710">
        <ele>1774.6</ele>
        <time>2017-07-28T06:49:46Z</time>
      </trkpt>
      <trkpt lat="45.0374170" lon="7.0679890">
        <ele>1773.4</ele>
        <time>2017-07-28T06:49:48Z</time>
      </trkpt>
      <trkpt lat="45.0373940" lon="7.0679470">
        <ele>1772.6</ele>
        <time>2017-07-28T06:49:49Z</time>
      </trkpt>
      <trkpt lat="45.0373740" lon="7.0679070">
        <ele>1771.6</ele>
        <time>2017-07-28T06:49:50Z</time>
      </trkpt>
      <trkpt lat="45.0373550" lon="7.0678670">
        <ele>1770.6</ele>
        <time>2017-07-28T06:49:51Z</time>
      </trkpt>
      <trkpt lat="45.0373150" lon="7.0677850">
        <ele>1769.2</ele>
        <time>2017-07-28T06:49:53Z</time>
      </trkpt>
      <trkpt lat="45.0373070" lon="7.0677710">
        <ele>1768.8</ele>
        <time>2017-07-28T06:49:54Z</time>
      </trkpt>
      <trkpt lat="45.0373000" lon="7.0677570">
        <ele>1767.8</ele>
        <time>2017-07-28T06:49:56Z</time>
      </trkpt>
      <trkpt lat="45.0372920" lon="7.0677430">
        <ele>1766.4</ele>
        <time>2017-07-28T06:49:58Z</time>
      </trkpt>
      <trkpt lat="45.0372840" lon="7.0677290">
        <ele>1764.8</ele>
        <time>2017-07-28T06:50:01Z</time>
      </trkpt>
      <trkpt lat="45.0372760" lon="7.0677140">
        <ele>1763.4</ele>
        <time>2017-07-28T06:50:03Z</time>
      </trkpt>
      <trkpt lat="45.0372690" lon="7.0677000">
        <ele>1761.6</ele>
        <time>2017-07-28T06:50:05Z</time>
      </trkpt>
      <trkpt lat="45.0372610" lon="7.0676860">
        <ele>1760.4</ele>
        <time>2017-07-28T06:50:07Z</time>
      </trkpt>
      <trkpt lat="45.0372530" lon="7.0676720">
        <ele>1759.4</ele>
        <time>2017-07-28T06:50:09Z</time>
      </trkpt>
      <trkpt lat="45.0372450" lon="7.0676580">
        <ele>1758.0</ele>
        <time>2017-07-28T06:50:11Z</time>
      </trkpt>
      <trkpt lat="45.0372380" lon="7.0676440">
        <ele>1756.6</ele>
        <time>2017-07-28T06:50:13Z</time>
      </trkpt>
      <trkpt lat="45.0372300" lon="7.0676300">
        <ele>1754.6</ele>
        <time>2017-07-28T06:50:15Z</time>
      </trkpt>
      <trkpt lat="45.0372220" lon="7.0676160">
        <ele>1754.0</ele>
        <time>2017-07-28T06:50:16Z</time>
      </trkpt>
      <trkpt lat="45.0372140" lon="7.0676010">
        <ele>1753.2</ele>
        <time>2017-07-28T06:50:17Z</time>
      </trkpt>
      <trkpt lat="45.0372070" lon="7.0675870">
        <ele>1751.6</ele>
        <time>2017-07-28T06:50:19Z</time>
      </trkpt>
      <trkpt lat="45.0371990" lon="7.0675730">
        <ele>1750.6</ele>
        <time>2017-07-28T06:50:21Z</time>
      </trkpt>
      <trkpt lat="45.0371910" lon="7.0675590">
        <ele>1750.0</ele>
        <time>2017-07-28T06:50:22Z</time>
      </trkpt>
      <trkpt lat="45.0371830" lon="7.0675450">
        <ele>1749.0</ele>
        <time>2017-07-28T06:50:23Z</time>
      </trkpt>
      <trkpt lat="45.0371760" lon="7.0675310">
        <ele>1748.4</ele>
        <time>2017-07-28T06:50:24Z</time>
      </trkpt>
      <trkpt lat="45.0371680" lon="7.0675170">
        <ele>1747.8</ele>
        <time>2017-07-28T06:50:25Z</time>
      </trkpt>
      <trkpt lat="45.0371600" lon="7.0675030">
        <ele>1746.0</ele>
        <time>2017-07-28T06:50:28Z</time>
      </trkpt>
      <trkpt lat="45.0371520" lon="7.0674880">
        <ele>1744.2</ele>
        <time>2017-07-28T06:50:30Z</time>
      </trkpt>
      <trkpt lat="45.0371450" lon="7.0674740">
        <ele>1742.6</ele>
        <time>2017-07-28T06:50:32Z</time>
      </trkpt>
      <trkpt lat="45.0371370" lon="7.0674600">
        <ele>1742.0</ele>
        <time>2017-07-28T06:50:33Z</time>
      </trkpt>
      <trkpt lat="45.0371290" lon="7.0674460">
        <ele>1741.4</ele>
        <time>2017-07-28T06:50:34Z</time>
      </trkpt>
      <trkpt lat="45.0371210" lon="7.0674320">
        <ele>1741.0</ele>
        <time>2017-07-28T06:50:35Z</time>
      </trkpt>
      <trkpt lat="45.0371140" lon="7.0674180">
        <ele>1740.2</ele>
        <time>2017-07-28T06:50:36Z</time>
      </trkpt>
      <trkpt lat="45.0371060" lon="7.0674040">
        <ele>1739.6</ele>
        <time>2017-07-28T06:50:37Z</time>
      </trkpt>
      <trkpt lat="45.0370980" lon="7.0673900">
        <ele>1738.8</ele>
        <time>2017-07-28T06:50:38Z</time>
      </trkpt>
      <trkpt lat="45.0370900" lon="7.0673750">
        <ele>1737.4</ele>
        <time>2017-07-28T06:50:39Z</time>
      </trkpt>
      <trkpt lat="45.0370830" lon="7.0673610">
        <ele>1736.6</ele>
        <time>2017-07-28T06:50:40Z</time>
      </trkpt>
      <trkpt lat="45.0370750" lon="7.0673470">
        <ele>1735.8</ele>
        <time>2017-07-28T06:50:41Z</time>
      </trkpt>
      <trkpt lat="45.0370670" lon="7.0673330">
        <ele>1734.6</ele>
        <time>2017-07-28T06:50:43Z</time>
      </trkpt>
      <trkpt lat="45.0370600" lon="7.0673190">
        <ele>1733.0</ele>
        <time>2017-07-28T06:50:45Z</time>
      </trkpt>
      <trkpt lat="45.0370520" lon="7.0673050">
        <ele>1732.4</ele>
        <time>2017-07-28T06:50:46Z</time>
      </trkpt>
      <trkpt lat="45.0370440" lon="7.0672910">
        <ele>1731.8</ele>
        <time>2017-07-28T06:50:47Z</time>
      </trkpt>
      <trkpt lat="45.0370360" lon="7.0672770">
        <ele>1730.8</ele>
        <time>2017-07-28T06:50:49Z</time>
      </trkpt>
      <trkpt lat="45.0370290" lon="7.0672630">
        <ele>1730.2</ele>
        <time>2017-07-28T06:50:50Z</time>
      </trkpt>
      <trkpt lat="45.0370210" lon="7.0672480">
        <ele>1729.8</ele>
        <time>2017-07-28T06:50:51Z</time>
      </trkpt>
      <trkpt lat="45.0370130" lon="7.0672340">
        <ele>1729.6</ele>
        <time>2017-07-28T06:50:52Z</time>
      </trkpt>
      <trkpt lat="45.0370050" lon="7.0672200">
        <ele>1729.0</ele>
        <time>2017-07-28T06:50:53Z</time>
      </trkpt>
      <trkpt lat="45.0369980" lon="7.0672060">
        <ele>1728.2</ele>
        <time>2017-07-28T06:50:54Z</time>
      </trkpt>
      <trkpt lat="45.0369900" lon="7.0671920">
        <ele>1726.8</ele>
        <time>2017-07-28T06:50:56Z</time>
      </trkpt>
      <trkpt lat="45.0369820" lon="7.0671780">
        <ele>1725.2</ele>
        <time>2017-07-28T06:50:58Z</time>
      </trkpt>
      <trkpt lat="45.0369740" lon="7.0671640">
        <ele>1724.4</ele>
        <time>2017-07-28T06:50:59Z</time>
      </trkpt>
      <trkpt lat="45.0369670" lon="7.0671500">
        <ele>1723.4</ele>
        <time>2017-07-28T06:51:00Z</time>
      </trkpt>
      <trkpt lat="45.0369590" lon="7.0671350">
        <ele>1722.2</ele>
        <time>2017-07-28T06:51:01Z</time>
      </trkpt>
      <trkpt lat="45.0369510" lon="7.0671210">
        <ele>1719.4</ele>
        <time>2017-07-28T06:51:03Z</time>
      </trkpt>
      <trkpt lat="45.0369430" lon="7.0671070">
        <ele>1717.8</ele>
        <time>2017-07-28T06:51:05Z</time>
      </trkpt>
      <trkpt lat="45.0369360" lon="7.0670930">
        <ele>1716.8</ele>
        <time>2017-07-28T06:51:06Z</time>
      </trkpt>
      <trkpt lat="45.0369280" lon="7.0670790">
        <ele>1714.6</ele>
        <time>2017-07-28T06:51:08Z</time>
      </trkpt>
      <trkpt lat="45.0369200" lon="7.0670650">
        <ele>1713.6</ele>
        <time>2017-07-28T06:51:09Z</time>
      </trkpt>
      <trkpt lat="45.0369120" lon="7.0670510">
        <ele>1712.0</ele>
        <time>2017-07-28T06:51:10Z</time>
      </trkpt>
      <trkpt lat="45.0369050" lon="7.0670370">
        <ele>1710.0</ele>
        <time>2017-07-28T06:51:12Z</time>
      </trkpt>
      <trkpt lat="45.0368970" lon="7.0670220">
        <ele>1708.2</ele>
        <time>2017-07-28T06:51:14Z</time>
      </trkpt>
      <trkpt lat="45.0368890" lon="7.0670080">
        <ele>1707.4</ele>
        <time>2017-07-28T06:51:15Z</time>
      </trkpt>
      <trkpt lat="45.0368810" lon="7.0669940">
        <ele>1706.4</ele>
        <time>2017-07-28T06:51:16Z</time>
      </trkpt>
      <trkpt lat="45.0368740" lon="7.0669800">
        <ele>1704.6</ele>
        <time>2017-07-28T06:51:18Z</time>
      </trkpt>
      <trkpt lat="45.0368660" lon="7.0669660">
        <ele>1703.8</ele>
        <time>2017-07-28T06:51:19Z</time>
      </trkpt>
      <trkpt lat="45.0368580" lon="7.0669520">
        <ele>1703.0</ele>
        <time>2017-07-28T06:51:20Z</time>
      </trkpt>
      <trkpt lat="45.0368500" lon="7.0669380">
        <ele>1702.2</ele>
        <time>2017-07-28T06:51:21Z</time>
      </trkpt>
      <trkpt lat="45.0368430" lon="7.0669240">
        <ele>1701.6</ele>
        <time>2017-07-28T06:51:22Z</time>
      </trkpt>
      <trkpt lat="45.0368350" lon="7.0669090">
        <ele>1700.0</ele>
        <time>2017-07-28T06:51:24Z</time>
      </trkpt>
      <trkpt lat="45.0368270" lon="7.0668950">
        <ele>1699.0</ele>
        <time>2017-07-28T06:51:26Z</time>
      </trkpt>
      <trkpt lat="45.0368190" lon="7.0668810">
        <ele>1697.6</ele>
        <time>2017-07-28T06:51:28Z</time>
      </trkpt>
      <trkpt lat="45.0368120" lon="7.0668670">
        <ele>1696.4</ele>
        <time>2017-07-28T06:51:30Z</time>
      </trkpt>
      <trkpt lat="45.0368040" lon="7.0668530">
        <ele>1696.0</ele>
        <time>2017-07-28T06:51:31Z</time>
      </trkpt>
      <trkpt lat="45.0357810" lon="7.0649900">
        <ele>1695.0</ele>
        <time>2017-07-28T06:51:33Z</time>
      </trkpt>
      <trkpt lat="45.0357020" lon="7.0649560">
        <ele>1693.4</ele>
        <time>2017-07-28T06:51:35Z</time>
      </trkpt>
      <trkpt lat="45.0356540" lon="7.0648850">
        <ele>1691.6</ele>
        <time>2017-07-28T06:51:37Z</time>
      </trkpt>
      <trkpt lat="45.0356280" lon="7.0648410">
        <ele>1690.6</ele>
        <time>2017-07-28T06:51:38Z</time>
      </trkpt>
      <trkpt lat="45.0355670" lon="7.0647380">
        <ele>1689.0</ele>
        <time>2017-07-28T06:51:40Z</time>
      </trkpt>
      <trkpt lat="45.0355230" lon="7.0646680">
        <ele>1687.0</ele>
        <time>2017-07-28T06:51:42Z</time>
      </trkpt>
      <trkpt lat="45.0355050" lon="7.0646400">
        <ele>1686.0</ele>
        <time>2017-07-28T06:51:43Z</time>
      </trkpt>
      <trkpt lat="45.0354650" lon="7.0645990">
        <ele>1684.2</ele>
        <time>2017-07-28T06:51:45Z</time>
      </trkpt>
      <trkpt lat="45.0354530" lon="7.0646150">
        <ele>1683.2</ele>
        <time>2017-07-28T06:51:46Z</time>
      </trkpt>
      <trkpt lat="45.0354470" lon="7.0646440">
        <ele>1682.0</ele>
        <time>2017-07-28T06:51:47Z</time>
      </trkpt>
      <trkpt lat="45.0354220" lon="7.0646840">
        <ele>1681.4</ele>
        <time>2017-07-28T06:51:48Z</time>
      </trkpt>
      <trkpt lat="45.0353960" lon="7.0647340">
        <ele>1680.6</ele>
        <time>2017-07-28T06:51:49Z</time>
      </trkpt>
      <trkpt lat="45.0353420" lon="7.0648560">
        <ele>1677.6</ele>
        <time>2017-07-28T06:51:51Z</time>
      </trkpt>
      <trkpt lat="45.0353120" lon="7.0649050">
        <ele>1676.8</ele>
        <time>2017-07-28T06:51:52Z</time>
      </trkpt>
      <trkpt lat="45.0352800" lon="7.0649470">
        <ele>1675.8</ele>
        <time>2017-07-28T06:51:53Z</time>
      </trkpt>
      <trkpt lat="45.0352190" lon="7.0650310">
        <ele>1673.6</ele>
        <time>2017-07-28T06:51:55Z</time>
      </trkpt>
      <trkpt lat="45.0351910" lon="7.0650750">
        <ele>1672.6</ele>
        <time>2017-07-28T06:51:56Z</time>
      </trkpt>
      <trkpt lat="45.0351700" lon="7.0651120">
        <ele>1671.4</ele>
        <time>2017-07-28T06:51:57Z</time>
      </trkpt>
      <trkpt lat="45.0351510" lon="7.0651420">
        <ele>1670.2</ele>
        <time>2017-07-28T06:51:58Z</time>
      </trkpt>
      <trkpt lat="45.0351120" lon="7.0651690">
        <ele>1668.4</ele>
        <time>2017-07-28T06:52:00Z</time>
      </trkpt>
      <trkpt lat="45.0350470" lon="7.0651750">
        <ele>1666.8</ele>
        <time>2017-07-28T06:52:02Z</time>
      </trkpt>
      <trkpt lat="45.0350180" lon="7.0651800">
        <ele>1665.6</ele>
        <time>2017-07-28T06:52:03Z</time>
      </trkpt>
      <trkpt lat="45.0349910" lon="7.0651830">
        <ele>1664.6</ele>
        <time>2017-07-28T06:52:04Z</time>
      </trkpt>
      <trkpt lat="45.0349360" lon="7.0651620">
        <ele>1662.6</ele>
        <time>2017-07-28T06:52:06Z</time>
      </trkpt>
      <trkpt lat="45.0349090" lon="7.0651490">
        <ele>1661.8</ele>
        <time>2017-07-28T06:52:07Z</time>
      </trkpt>
      <trkpt lat="45.0348830" lon="7.0651370">
        <ele>1660.4</ele>
        <time>2017-07-28T06:52:08Z</time>
      </trkpt>
      <trkpt lat="45.0348500" lon="7.0651280">
        <ele>1658.6</ele>
        <time>2017-07-28T06:52:10Z</time>
      </trkpt>
      <trkpt lat="45.0348320" lon="7.0651160">
        <ele>1656.8</ele>
        <time>2017-07-28T06:52:12Z</time>
      </trkpt>
      <trkpt lat="45.0347970" lon="7.0650890">
        <ele>1655.2</ele>
        <time>2017-07-28T06:52:14Z</time>
      </trkpt>
      <trkpt lat="45.0347830" lon="7.0650770">
        <ele>1653.4</ele>
        <time>2017-07-28T06:52:15Z</time>
      </trkpt>
      <trkpt lat="45.0347470" lon="7.0650560">
        <ele>1651.4</ele>
        <time>2017-07-28T06:52:17Z</time>
      </trkpt>
      <trkpt lat="45.0347100" lon="7.0650330">
        <ele>1649.6</ele>
        <time>2017-07-28T06:52:19Z</time>
      </trkpt>
      <trkpt lat="45.0346710" lon="7.0650050">
        <ele>1647.8</ele>
        <time>2017-07-28T06:52:21Z</time>
      </trkpt>
      <trkpt lat="45.0346510" lon="7.0649920">
        <ele>1646.8</ele>
        <time>2017-07-28T06:52:22Z</time>
      </trkpt>
      <trkpt lat="45.0346290" lon="7.0649760">
        <ele>1645.6</ele>
        <time>2017-07-28T06:52:23Z</time>
      </trkpt>
      <trkpt lat="45.0345840" lon="7.0649440">
        <ele>1644.0</ele>
        <time>2017-07-28T06:52:25Z</time>
      </trkpt>
      <trkpt lat="45.0345610" lon="7.0649300">
        <ele>1643.0</ele>
        <time>2017-07-28T06:52:26Z</time>
      </trkpt>
      <trkpt lat="45.0345410" lon="7.0649150">
        <ele>1641.8</ele>
        <time>2017-07-28T06:52:27Z</time>
      </trkpt>
      <trkpt lat="45.0345180" lon="7.0649040">
        <ele>1640.6</ele>
        <time>2017-07-28T06:52:28Z</time>
      </trkpt>
      <trkpt lat="45.0345000" lon="7.0648870">
        <ele>1639.6</ele>
        <time>2017-07-28T06:52:29Z</time>
      </trkpt>
      <trkpt lat="45.0344610" lon="7.0648610">
        <ele>1637.4</ele>
        <time>2017-07-28T06:52:31Z</time>
      </trkpt>
      <trkpt lat="45.0344360" lon="7.0648440">
        <ele>1636.2</ele>
        <time>2017-07-28T06:52:32Z</time>
      </trkpt>
      <trkpt lat="45.0344120" lon="7.0648270">
        <ele>1634.8</ele>
        <time>2017-07-28T06:52:33Z</time>
      </trkpt>
      <trkpt lat="45.0343840" lon="7.0648190">
        <ele>1633.6</ele>
        <time>2017-07-28T06:52:34Z</time>
      </trkpt>
      <trkpt lat="45.0343640" lon="7.0648330">
        <ele>1632.2</ele>
        <time>2017-07-28T06:52:35Z</time>
      </trkpt>
      <trkpt lat="45.0343400" lon="7.0648550">
        <ele>1630.8</ele>
        <time>2017-07-28T06:52:36Z</time>
      </trkpt>
      <trkpt lat="45.0343100" lon="7.0648820">
        <ele>1629.8</ele>
        <time>2017-07-28T06:52:37Z</time>
      </trkpt>
      <trkpt lat="45.0342690" lon="7.0648940">
        <ele>1626.6</ele>
        <time>2017-07-28T06:52:39Z</time>
      </trkpt>
      <trkpt lat="45.0342200" lon="7.0648680">
        <ele>1624.8</ele>
        <time>2017-07-28T06:52:41Z</time>
      </trkpt>
      <trkpt lat="45.0341760" lon="7.0648390">
        <ele>1622.6</ele>
        <time>2017-07-28T06:52:43Z</time>
      </trkpt>
      <trkpt lat="45.0341500" lon="7.0648250">
        <ele>1621.4</ele>
        <time>2017-07-28T06:52:44Z</time>
      </trkpt>
      <trkpt lat="45.0341190" lon="7.0648210">
        <ele>1620.2</ele>
        <time>2017-07-28T06:52:45Z</time>
      </trkpt>
      <trkpt lat="45.0340870" lon="7.0648180">
        <ele>1618.8</ele>
        <time>2017-07-28T06:52:46Z</time>
      </trkpt>
      <trkpt lat="45.0340550" lon="7.0648170">
        <ele>1617.4</ele>
        <time>2017-07-28T06:52:47Z</time>
      </trkpt>
      <trkpt lat="45.0340180" lon="7.0648140">
        <ele>1615.8</ele>
        <time>2017-07-28T06:52:48Z</time>
      </trkpt>
      <trkpt lat="45.0339790" lon="7.0648120">
        <ele>1614.6</ele>
        <time>2017-07-28T06:52:49Z</time>
      </trkpt>
      <trkpt lat="45.0339380" lon="7.0648090">
        <ele>1613.2</ele>
        <time>2017-07-28T06:52:50Z</time>
      </trkpt>
      <trkpt lat="45.0338970" lon="7.0648070">
        <ele>1611.4</ele>
        <time>2017-07-28T06:52:51Z</time>
      </trkpt>
      <trkpt lat="45.0338550" lon="7.0648060">
        <ele>1609.8</ele>
        <time>2017-07-28T06:52:52Z</time>
      </trkpt>
      <trkpt lat="45.0338150" lon="7.0648140">
        <ele>1608.0</ele>
        <time>2017-07-28T06:52:53Z</time>
      </trkpt>
      <trkpt lat="45.0337780" lon="7.0648160">
        <ele>1607.0</ele>
        <time>2017-07-28T06:52:54Z</time>
      </trkpt>
      <trkpt lat="45.0337420" lon="7.0648200">
        <ele>1605.4</ele>
        <time>2017-07-28T06:52:55Z</time>
      </trkpt>
      <trkpt lat="45.0336990" lon="7.0648220">
        <ele>1604.4</ele>
        <time>2017-07-28T06:52:56Z</time>
      </trkpt>
      <trkpt lat="45.0336560" lon="7.0648230">
        <ele>1603.0</ele>
        <time>2017-07-28T06:52:57Z</time>
      </trkpt>
      <trkpt lat="45.0336110" lon="7.0648270">
        <ele>1601.8</ele>
        <time>2017-07-28T06:52:58Z</time>
      </trkpt>
      <trkpt lat="45.0335670" lon="7.0648300">
        <ele>1600.4</ele>
        <time>2017-07-28T06:52:59Z</time>
      </trkpt>
      <trkpt lat="45.0335350" lon="7.0648370">
        <ele>1599.2</ele>
        <time>2017-07-28T06:53:00Z</time>
      </trkpt>
      <trkpt lat="45.0335130" lon="7.0648310">
        <ele>1597.8</ele>
        <time>2017-07-28T06:53:01Z</time>
      </trkpt>
      <trkpt lat="45.0334970" lon="7.0648170">
        <ele>1596.8</ele>
        <time>2017-07-28T06:53:02Z</time>
      </trkpt>
      <trkpt lat="45.0334780" lon="7.0647940">
        <ele>1595.0</ele>
        <time>2017-07-28T06:53:03Z</time>
      </trkpt>
      <trkpt lat="45.0334570" lon="7.0647700">
        <ele>1593.8</ele>
        <time>2017-07-28T06:53:04Z</time>
      </trkpt>
      <trkpt lat="45.0334340" lon="7.0647410">
        <ele>1592.8</ele>
        <time>2017-07-28T06:53:05Z</time>
      </trkpt>
      <trkpt lat="45.0334060" lon="7.0647200">
        <ele>1591.6</ele>
        <time>2017-07-28T06:53:06Z</time>
      </trkpt>
      <trkpt lat="45.0333590" lon="7.0646740">
        <ele>1589.8</ele>
        <time>2017-07-28T06:53:08Z</time>
      </trkpt>
      <trkpt lat="45.0333080" lon="7.0646250">
        <ele>1587.8</ele>
        <time>2017-07-28T06:53:10Z</time>
      </trkpt>
      <trkpt lat="45.0332820" lon="7.0645990">
        <ele>1586.8</ele>
        <time>2017-07-28T06:53:11Z</time>
      </trkpt>
      <trkpt lat="45.0332600" lon="7.0645810">
        <ele>1585.4</ele>
        <time>2017-07-28T06:53:12Z</time>
      </trkpt>
      <trkpt lat="45.0332210" lon="7.0645320">
        <ele>1583.4</ele>
        <time>2017-07-28T06:53:14Z</time>
      </trkpt>
      <trkpt lat="45.0331860" lon="7.0644880">
        <ele>1581.6</ele>
        <time>2017-07-28T06:53:16Z</time>
      </trkpt>
      <trkpt lat="45.0331660" lon="7.0644710">
        <ele>1580.6</ele>
        <time>2017-07-28T06:53:17Z</time>
      </trkpt>
      <trkpt lat="45.0331490" lon="7.0644490">
        <ele>1579.4</ele>
        <time>2017-07-28T06:53:18Z</time>
      </trkpt>
      <trkpt lat="45.0331290" lon="7.0644310">
        <ele>1578.2</ele>
        <time>2017-07-28T06:53:19Z</time>
      </trkpt>
      <trkpt lat="45.0331070" lon="7.0644110">
        <ele>1576.8</ele>
        <time>2017-07-28T06:53:20Z</time>
      </trkpt>
      <trkpt lat="45.0330890" lon="7.0643950">
        <ele>1575.8</ele>
        <time>2017-07-28T06:53:21Z</time>
      </trkpt>
      <trkpt lat="45.0330550" lon="7.0643900">
        <ele>1575.0</ele>
        <time>2017-07-28T06:53:22Z</time>
      </trkpt>
      <trkpt lat="45.0330230" lon="7.0643850">
        <ele>1574.0</ele>
        <time>2017-07-28T06:53:23Z</time>
      </trkpt>
      <trkpt lat="45.0329910" lon="7.0643810">
        <ele>1572.8</ele>
        <time>2017-07-28T06:53:24Z</time>
      </trkpt>
      <trkpt lat="45.0329610" lon="7.0643790">
        <ele>1571.4</ele>
        <time>2017-07-28T06:53:25Z</time>
      </trkpt>
      <trkpt lat="45.0329280" lon="7.0643770">
        <ele>1570.0</ele>
        <time>2017-07-28T06:53:26Z</time>
      </trkpt>
      <trkpt lat="45.0328960" lon="7.0643720">
        <ele>1567.4</ele>
        <time>2017-07-28T06:53:27Z</time>
      </trkpt>
      <trkpt lat="45.0328650" lon="7.0643680">
        <ele>1566.2</ele>
        <time>2017-07-28T06:53:28Z</time>
      </trkpt>
      <trkpt lat="45.0328340" lon="7.0643680">
        <ele>1564.8</ele>
        <time>2017-07-28T06:53:29Z</time>
      </trkpt>
      <trkpt lat="45.0328020" lon="7.0643680">
        <ele>1563.6</ele>
        <time>2017-07-28T06:53:30Z</time>
      </trkpt>
      <trkpt lat="45.0327750" lon="7.0643660">
        <ele>1562.2</ele>
        <time>2017-07-28T06:53:31Z</time>
      </trkpt>
      <trkpt lat="45.0327540" lon="7.0643570">
        <ele>1561.0</ele>
        <time>2017-07-28T06:53:32Z</time>
      </trkpt>
      <trkpt lat="45.0327340" lon="7.0643380">
        <ele>1559.6</ele>
        <time>2017-07-28T06:53:33Z</time>
      </trkpt>
      <trkpt lat="45.0327230" lon="7.0643240">
        <ele>1558.6</ele>
        <time>2017-07-28T06:53:34Z</time>
      </trkpt>
      <trkpt lat="45.0327100" lon="7.0643090">
        <ele>1557.6</ele>
        <time>2017-07-28T06:53:35Z</time>
      </trkpt>
      <trkpt lat="45.0326770" lon="7.0642660">
        <ele>1556.0</ele>
        <time>2017-07-28T06:53:37Z</time>
      </trkpt>
      <trkpt lat="45.0326350" lon="7.0642200">
        <ele>1554.0</ele>
        <time>2017-07-28T06:53:39Z</time>
      </trkpt>
      <trkpt lat="45.0326170" lon="7.0641980">
        <ele>1553.0</ele>
        <time>2017-07-28T06:53:40Z</time>
      </trkpt>
      <trkpt lat="45.0325960" lon="7.0641750">
        <ele>1551.8</ele>
        <time>2017-07-28T06:53:41Z</time>
      </trkpt>
      <trkpt lat="45.0325630" lon="7.0641350">
        <ele>1549.8</ele>
        <time>2017-07-28T06:53:43Z</time>
      </trkpt>
      <trkpt lat="45.0325450" lon="7.0641320">
        <ele>1549.0</ele>
        <time>2017-07-28T06:53:44Z</time>
      </trkpt>
      <trkpt lat="45.0325380" lon="7.0641470">
        <ele>1548.0</ele>
        <time>2017-07-28T06:53:45Z</time>
      </trkpt>
      <trkpt lat="45.0325060" lon="7.0642030">
        <ele>1546.2</ele>
        <time>2017-07-28T06:53:47Z</time>
      </trkpt>
      <trkpt lat="45.0324770" lon="7.0642480">
        <ele>1545.4</ele>
        <time>2017-07-28T06:53:48Z</time>
      </trkpt>
      <trkpt lat="45.0324450" lon="7.0642980">
        <ele>1544.8</ele>
        <time>2017-07-28T06:53:49Z</time>
      </trkpt>
      <trkpt lat="45.0323940" lon="7.0643470">
        <ele>1542.6</ele>
        <time>2017-07-28T06:53:51Z</time>
      </trkpt>
      <trkpt lat="45.0323740" lon="7.0643370">
        <ele>1542.0</ele>
        <time>2017-07-28T06:53:52Z</time>
      </trkpt>
      <trkpt lat="45.0323610" lon="7.0643290">
        <ele>1541.2</ele>
        <time>2017-07-28T06:53:53Z</time>
      </trkpt>
      <trkpt lat="45.0323230" lon="7.0643090">
        <ele>1539.8</ele>
        <time>2017-07-28T06:53:55Z</time>
      </trkpt>
      <trkpt lat="45.0322830" lon="7.0642890">
        <ele>1538.0</ele>
        <time>2017-07-28T06:53:57Z</time>
      </trkpt>
      <trkpt lat="45.0322180" lon="7.0642610">
        <ele>1536.2</ele>
        <time>2017-07-28T06:53:59Z</time>
      </trkpt>
      <trkpt lat="45.0321800" lon="7.0642430">
        <ele>1534.8</ele>
        <time>2017-07-28T06:54:00Z</time>
      </trkpt>
      <trkpt lat="45.0321360" lon="7.0642200">
        <ele>1533.4</ele>
        <time>2017-07-28T06:54:01Z</time>
      </trkpt>
      <trkpt lat="45.0320940" lon="7.0642000">
        <ele>1531.6</ele>
        <time>2017-07-28T06:54:02Z</time>
      </trkpt>
      <trkpt lat="45.0320500" lon="7.0641840">
        <ele>1530.0</ele>
        <time>2017-07-28T06:54:03Z</time>
      </trkpt>
      <trkpt lat="45.0319910" lon="7.0641620">
        <ele>1528.4</ele>
        <time>2017-07-28T06:54:05Z</time>
      </trkpt>
      <trkpt lat="45.0319730" lon="7.0641560">
        <ele>1526.2</ele>
        <time>2017-07-28T06:54:07Z</time>
      </trkpt>
      <trkpt lat="45.0319600" lon="7.0641500">
        <ele>1525.2</ele>
        <time>2017-07-28T06:54:08Z</time>
      </trkpt>
      <trkpt lat="45.0319510" lon="7.0641320">
        <ele>1524.2</ele>
        <time>2017-07-28T06:54:09Z</time>
      </trkpt>
      <trkpt lat="45.0319290" lon="7.0641150">
        <ele>1522.4</ele>
        <time>2017-07-28T06:54:11Z</time>
      </trkpt>
      <trkpt lat="45.0319280" lon="7.0641150">
        <ele>1520.6</ele>
        <time>2017-07-28T06:54:13Z</time>
      </trkpt>
      <trkpt lat="45.0319040" lon="7.0640620">
        <ele>1514.8</ele>
        <time>2017-07-28T06:54:24Z</time>
      </trkpt>
      <trkpt lat="45.0318710" lon="7.0640340">
        <ele>1514.2</ele>
        <time>2017-07-28T06:54:26Z</time>
      </trkpt>
      <trkpt lat="45.0318530" lon="7.0640140">
        <ele>1513.6</ele>
        <time>2017-07-28T06:54:27Z</time>
      </trkpt>
      <trkpt lat="45.0318100" lon="7.0639590">
        <ele>1508.2</ele>
        <time>2017-07-28T06:54:41Z</time>
      </trkpt>
      <trkpt lat="45.0317700" lon="7.0639290">
        <ele>1506.8</ele>
        <time>2017-07-28T06:54:44Z</time>
      </trkpt>
      <trkpt lat="45.0317040" lon="7.0639090">
        <ele>1502.8</ele>
        <time>2017-07-28T06:54:53Z</time>
      </trkpt>
      <trkpt lat="45.0317070" lon="7.0638730">
        <ele>1502.2</ele>
        <time>2017-07-28T06:54:55Z</time>
      </trkpt>
      <trkpt lat="45.0316970" lon="7.0638630">
        <ele>1501.8</ele>
        <time>2017-07-28T06:54:56Z</time>
      </trkpt>
      <trkpt lat="45.0316600" lon="7.0638410">
        <ele>1500.6</ele>
        <time>2017-07-28T06:54:59Z</time>
      </trkpt>
      <trkpt lat="45.0316520" lon="7.0638380">
        <ele>1500.4</ele>
        <time>2017-07-28T06:55:00Z</time>
      </trkpt>
      <trkpt lat="45.0316370" lon="7.0638570">
        <ele>1499.8</ele>
        <time>2017-07-28T06:55:02Z</time>
      </trkpt>
      <trkpt lat="45.0316170" lon="7.0638800">
        <ele>1499.2</ele>
        <time>2017-07-28T06:55:03Z</time>
      </trkpt>
      <trkpt lat="45.0315980" lon="7.0639070">
        <ele>1498.8</ele>
        <time>2017-07-28T06:55:04Z</time>
      </trkpt>
      <trkpt lat="45.0315630" lon="7.0639700">
        <ele>1497.8</ele>
        <time>2017-07-28T06:55:06Z</time>
      </trkpt>
      <trkpt lat="45.0315440" lon="7.0639760">
        <ele>1497.2</ele>
        <time>2017-07-28T06:55:07Z</time>
      </trkpt>
      <trkpt lat="45.0315100" lon="7.0639560">
        <ele>1496.6</ele>
        <time>2017-07-28T06:55:09Z</time>
      </trkpt>
      <trkpt lat="45.0314560" lon="7.0639230">
        <ele>1495.2</ele>
        <time>2017-07-28T06:55:11Z</time>
      </trkpt>
      <trkpt lat="45.0314250" lon="7.0639020">
        <ele>1494.2</ele>
        <time>2017-07-28T06:55:12Z</time>
      </trkpt>
      <trkpt lat="45.0313950" lon="7.0638900">
        <ele>1493.0</ele>
        <time>2017-07-28T06:55:13Z</time>
      </trkpt>
      <trkpt lat="45.0313660" lon="7.0638760">
        <ele>1492.2</ele>
        <time>2017-07-28T06:55:14Z</time>
      </trkpt>
      <trkpt lat="45.0313360" lon="7.0638630">
        <ele>1491.4</ele>
        <time>2017-07-28T06:55:15Z</time>
      </trkpt>
      <trkpt lat="45.0312730" lon="7.0638230">
        <ele>1489.0</ele>
        <time>2017-07-28T06:55:17Z</time>
      </trkpt>
      <trkpt lat="45.0312400" lon="7.0638070">
        <ele>1488.0</ele>
        <time>2017-07-28T06:55:18Z</time>
      </trkpt>
      <trkpt lat="45.0312190" lon="7.0637930">
        <ele>1486.8</ele>
        <time>2017-07-28T06:55:19Z</time>
      </trkpt>
      <trkpt lat="45.0311920" lon="7.0637790">
        <ele>1485.8</ele>
        <time>2017-07-28T06:55:20Z</time>
      </trkpt>
      <trkpt lat="45.0311620" lon="7.0637720">
        <ele>1484.4</ele>
        <time>2017-07-28T06:55:21Z</time>
      </trkpt>
      <trkpt lat="45.0310860" lon="7.0637720">
        <ele>1482.2</ele>
        <time>2017-07-28T06:55:23Z</time>
      </trkpt>
      <trkpt lat="45.0310440" lon="7.0637770">
        <ele>1481.2</ele>
        <time>2017-07-28T06:55:24Z</time>
      </trkpt>
      <trkpt lat="45.0310020" lon="7.0637810">
        <ele>1479.4</ele>
        <time>2017-07-28T06:55:25Z</time>
      </trkpt>
      <trkpt lat="45.0309660" lon="7.0637890">
        <ele>1477.6</ele>
        <time>2017-07-28T06:55:26Z</time>
      </trkpt>
      <trkpt lat="45.0309320" lon="7.0637970">
        <ele>1474.8</ele>
        <time>2017-07-28T06:55:27Z</time>
      </trkpt>
      <trkpt lat="45.0309030" lon="7.0638040">
        <ele>1473.8</ele>
        <time>2017-07-28T06:55:28Z</time>
      </trkpt>
      <trkpt lat="45.0308780" lon="7.0638090">
        <ele>1472.4</ele>
        <time>2017-07-28T06:55:29Z</time>
      </trkpt>
      <trkpt lat="45.0308520" lon="7.0638180">
        <ele>1471.0</ele>
        <time>2017-07-28T06:55:30Z</time>
      </trkpt>
      <trkpt lat="45.0308780" lon="7.0638360">
        <ele>1469.6</ele>
        <time>2017-07-28T06:55:31Z</time>
      </trkpt>
      <trkpt lat="45.0308910" lon="7.0638370">
        <ele>1468.4</ele>
        <time>2017-07-28T06:55:32Z</time>
      </trkpt>
      <trkpt lat="45.0309110" lon="7.0638440">
        <ele>1467.6</ele>
        <time>2017-07-28T06:55:33Z</time>
      </trkpt>
      <trkpt lat="45.0309200" lon="7.0638490">
        <ele>1466.4</ele>
        <time>2017-07-28T06:55:34Z</time>
      </trkpt>
      <trkpt lat="45.0300090" lon="7.0633530">
        <ele>1413.4</ele>
        <time>2017-07-28T06:56:48Z</time>
      </trkpt>
      <trkpt lat="45.0300290" lon="7.0632880">
        <ele>1412.2</ele>
        <time>2017-07-28T06:56:49Z</time>
      </trkpt>
      <trkpt lat="45.0301420" lon="7.0631580">
        <ele>1410.4</ele>
        <time>2017-07-28T06:56:51Z</time>
      </trkpt>
      <trkpt lat="45.0302680" lon="7.0630290">
        <ele>1408.8</ele>
        <time>2017-07-28T06:56:53Z</time>
      </trkpt>
      <trkpt lat="45.0303150" lon="7.0629990">
        <ele>1407.8</ele>
        <time>2017-07-28T06:56:54Z</time>
      </trkpt>
      <trkpt lat="45.0303470" lon="7.0629720">
        <ele>1406.4</ele>
        <time>2017-07-28T06:56:55Z</time>
      </trkpt>
      <trkpt lat="45.0303670" lon="7.0629590">
        <ele>1405.4</ele>
        <time>2017-07-28T06:56:56Z</time>
      </trkpt>
      <trkpt lat="45.0303790" lon="7.0629570">
        <ele>1403.8</ele>
        <time>2017-07-28T06:56:58Z</time>
      </trkpt>
      <trkpt lat="45.0303270" lon="7.0629490">
        <ele>1402.0</ele>
        <time>2017-07-28T06:57:00Z</time>
      </trkpt>
      <trkpt lat="45.0303330" lon="7.0629140">
        <ele>1401.0</ele>
        <time>2017-07-28T06:57:01Z</time>
      </trkpt>
      <trkpt lat="45.0303580" lon="7.0628580">
        <ele>1400.4</ele>
        <time>2017-07-28T06:57:02Z</time>
      </trkpt>
      <trkpt lat="45.0303810" lon="7.0628030">
        <ele>1398.6</ele>
        <time>2017-07-28T06:57:03Z</time>
      </trkpt>
      <trkpt lat="45.0303820" lon="7.0627780">
        <ele>1397.2</ele>
        <time>2017-07-28T06:57:04Z</time>
      </trkpt>
      <trkpt lat="45.0303540" lon="7.0627670">
        <ele>1396.4</ele>
        <time>2017-07-28T06:57:05Z</time>
      </trkpt>
      <trkpt lat="45.0303070" lon="7.0627750">
        <ele>1395.4</ele>
        <time>2017-07-28T06:57:06Z</time>
      </trkpt>
      <trkpt lat="45.0302440" lon="7.0628000">
        <ele>1394.6</ele>
        <time>2017-07-28T06:57:07Z</time>
      </trkpt>
      <trkpt lat="45.0301800" lon="7.0628180">
        <ele>1393.8</ele>
        <time>2017-07-28T06:57:08Z</time>
      </trkpt>
      <trkpt lat="45.0300940" lon="7.0628850">
        <ele>1393.0</ele>
        <time>2017-07-28T06:57:09Z</time>
      </trkpt>
      <trkpt lat="45.0300300" lon="7.0629380">
        <ele>1391.8</ele>
        <time>2017-07-28T06:57:10Z</time>
      </trkpt>
      <trkpt lat="45.0299940" lon="7.0629790">
        <ele>1390.6</ele>
        <time>2017-07-28T06:57:11Z</time>
      </trkpt>
      <trkpt lat="45.0299670" lon="7.0630090">
        <ele>1389.6</ele>
        <time>2017-07-28T06:57:12Z</time>
      </trkpt>
      <trkpt lat="45.0299510" lon="7.0630230">
        <ele>1388.6</ele>
        <time>2017-07-28T06:57:13Z</time>
      </trkpt>
      <trkpt lat="45.0299780" lon="7.0629550">
        <ele>1386.8</ele>
        <time>2017-07-28T06:57:15Z</time>
      </trkpt>
      <trkpt lat="45.0299900" lon="7.0629210">
        <ele>1385.8</ele>
        <time>2017-07-28T06:57:16Z</time>
      </trkpt>
      <trkpt lat="45.0300260" lon="7.0628140">
        <ele>1383.8</ele>
        <time>2017-07-28T06:57:18Z</time>
      </trkpt>
      <trkpt lat="45.0300320" lon="7.0627730">
        <ele>1382.8</ele>
        <time>2017-07-28T06:57:19Z</time>
      </trkpt>
      <trkpt lat="45.0300320" lon="7.0627390">
        <ele>1381.4</ele>
        <time>2017-07-28T06:57:20Z</time>
      </trkpt>
      <trkpt lat="45.0299730" lon="7.0627730">
        <ele>1379.8</ele>
        <time>2017-07-28T06:57:22Z</time>
      </trkpt>
      <trkpt lat="45.0299170" lon="7.0628040">
        <ele>1378.8</ele>
        <time>2017-07-28T06:57:23Z</time>
      </trkpt>
      <trkpt lat="45.0298350" lon="7.0628430">
        <ele>1376.8</ele>
        <time>2017-07-28T06:57:25Z</time>
      </trkpt>
      <trkpt lat="45.0298100" lon="7.0628400">
        <ele>1374.2</ele>
        <time>2017-07-28T06:57:27Z</time>
      </trkpt>
      <trkpt lat="45.0298120" lon="7.0627990">
        <ele>1373.2</ele>
        <time>2017-07-28T06:57:28Z</time>
      </trkpt>
      <trkpt lat="45.0298680" lon="7.0626490">
        <ele>1371.2</ele>
        <time>2017-07-28T06:57:30Z</time>
      </trkpt>
      <trkpt lat="45.0299140" lon="7.0625760">
        <ele>1370.2</ele>
        <time>2017-07-28T06:57:31Z</time>
      </trkpt>
      <trkpt lat="45.0299570" lon="7.0625180">
        <ele>1369.2</ele>
        <time>2017-07-28T06:57:32Z</time>
      </trkpt>
      <trkpt lat="45.0299520" lon="7.0624860">
        <ele>1368.2</ele>
        <time>2017-07-28T06:57:33Z</time>
      </trkpt>
      <trkpt lat="45.0299320" lon="7.0624820">
        <ele>1367.4</ele>
        <time>2017-07-28T06:57:34Z</time>
      </trkpt>
      <trkpt lat="45.0298580" lon="7.0624860">
        <ele>1366.0</ele>
        <time>2017-07-28T06:57:36Z</time>
      </trkpt>
      <trkpt lat="45.0298200" lon="7.0624670">
        <ele>1365.2</ele>
        <time>2017-07-28T06:57:37Z</time>
      </trkpt>
      <trkpt lat="45.0298180" lon="7.0624190">
        <ele>1364.2</ele>
        <time>2017-07-28T06:57:38Z</time>
      </trkpt>
      <trkpt lat="45.0298340" lon="7.0623780">
        <ele>1363.4</ele>
        <time>2017-07-28T06:57:39Z</time>
      </trkpt>
      <trkpt lat="45.0298460" lon="7.0623540">
        <ele>1362.8</ele>
        <time>2017-07-28T06:57:40Z</time>
      </trkpt>
      <trkpt lat="45.0299320" lon="7.0623320">
        <ele>1361.2</ele>
        <time>2017-07-28T06:57:42Z</time>
      </trkpt>
      <trkpt lat="45.0300060" lon="7.0622600">
        <ele>1359.6</ele>
        <time>2017-07-28T06:57:44Z</time>
      </trkpt>
      <trkpt lat="45.0300220" lon="7.0622030">
        <ele>1358.8</ele>
        <time>2017-07-28T06:57:45Z</time>
      </trkpt>
      <trkpt lat="45.0300010" lon="7.0621540">
        <ele>1358.0</ele>
        <time>2017-07-28T06:57:46Z</time>
      </trkpt>
      <trkpt lat="45.0299680" lon="7.0621510">
        <ele>1357.0</ele>
        <time>2017-07-28T06:57:47Z</time>
      </trkpt>
      <trkpt lat="45.0299080" lon="7.0621510">
        <ele>1356.2</ele>
        <time>2017-07-28T06:57:48Z</time>
      </trkpt>
      <trkpt lat="45.0297830" lon="7.0621870">
        <ele>1354.6</ele>
        <time>2017-07-28T06:57:50Z</time>
      </trkpt>
      <trkpt lat="45.0297470" lon="7.0621950">
        <ele>1352.2</ele>
        <time>2017-07-28T06:57:51Z</time>
      </trkpt>
      <trkpt lat="45.0297340" lon="7.0621750">
        <ele>1351.4</ele>
        <time>2017-07-28T06:57:52Z</time>
      </trkpt>
      <trkpt lat="45.0297170" lon="7.0621350">
        <ele>1350.6</ele>
        <time>2017-07-28T06:57:53Z</time>
      </trkpt>
      <trkpt lat="45.0297110" lon="7.0620970">
        <ele>1349.6</ele>
        <time>2017-07-28T06:57:54Z</time>
      </trkpt>
      <trkpt lat="45.0297500" lon="7.0620550">
        <ele>1348.4</ele>
        <time>2017-07-28T06:57:55Z</time>
      </trkpt>
      <trkpt lat="45.0297510" lon="7.0620190">
        <ele>1347.4</ele>
        <time>2017-07-28T06:57:56Z</time>
      </trkpt>
      <trkpt lat="45.0297380" lon="7.0619880">
        <ele>1346.8</ele>
        <time>2017-07-28T06:57:57Z</time>
      </trkpt>
      <trkpt lat="45.0296860" lon="7.0619850">
        <ele>1345.6</ele>
        <time>2017-07-28T06:57:58Z</time>
      </trkpt>
      <trkpt lat="45.0296240" lon="7.0620020">
        <ele>1344.6</ele>
        <time>2017-07-28T06:57:59Z</time>
      </trkpt>
      <trkpt lat="45.0295820" lon="7.0619980">
        <ele>1343.4</ele>
        <time>2017-07-28T06:58:00Z</time>
      </trkpt>
      <trkpt lat="45.0295990" lon="7.0619360">
        <ele>1341.6</ele>
        <time>2017-07-28T06:58:02Z</time>
      </trkpt>
      <trkpt lat="45.0296900" lon="7.0618500">
        <ele>1339.8</ele>
        <time>2017-07-28T06:58:04Z</time>
      </trkpt>
      <trkpt lat="45.0297470" lon="7.0618000">
        <ele>1339.0</ele>
        <time>2017-07-28T06:58:05Z</time>
      </trkpt>
      <trkpt lat="45.0297890" lon="7.0617560">
        <ele>1338.2</ele>
        <time>2017-07-28T06:58:06Z</time>
      </trkpt>
      <trkpt lat="45.0298070" lon="7.0617420">
        <ele>1337.2</ele>
        <time>2017-07-28T06:58:07Z</time>
      </trkpt>
      <trkpt lat="45.0297830" lon="7.0617830">
        <ele>1335.4</ele>
        <time>2017-07-28T06:58:09Z</time>
      </trkpt>
      <trkpt lat="45.0297520" lon="7.0618530">
        <ele>1334.4</ele>
        <time>2017-07-28T06:58:11Z</time>
      </trkpt>
      <trkpt lat="45.0297100" lon="7.0618980">
        <ele>1333.2</ele>
        <time>2017-07-28T06:58:13Z</time>
      </trkpt>
      <trkpt lat="45.0296570" lon="7.0619460">
        <ele>1331.4</ele>
        <time>2017-07-28T06:58:15Z</time>
      </trkpt>
      <trkpt lat="45.0296300" lon="7.0619700">
        <ele>1331.2</ele>
        <time>2017-07-28T06:58:16Z</time>
      </trkpt>
      <trkpt lat="45.0295730" lon="7.0619880">
        <ele>1330.8</ele>
        <time>2017-07-28T06:58:17Z</time>
      </trkpt>
      <trkpt lat="45.0295170" lon="7.0620060">
        <ele>1330.4</ele>
        <time>2017-07-28T06:58:18Z</time>
      </trkpt>
      <trkpt lat="45.0294600" lon="7.0620240">
        <ele>1329.6</ele>
        <time>2017-07-28T06:58:21Z</time>
      </trkpt>
      <trkpt lat="45.0294030" lon="7.0620420">
        <ele>1329.4</ele>
        <time>2017-07-28T06:58:23Z</time>
      </trkpt>
      <trkpt lat="45.0293460" lon="7.0620590">
        <ele>1329.0</ele>
        <time>2017-07-28T06:58:25Z</time>
      </trkpt>
      <trkpt lat="45.0292900" lon="7.0620770">
        <ele>1328.2</ele>
        <time>2017-07-28T06:58:27Z</time>
      </trkpt>
      <trkpt lat="45.0292330" lon="7.0620950">
        <ele>1327.2</ele>
        <time>2017-07-28T06:58:30Z</time>
      </trkpt>
      <trkpt lat="45.0291760" lon="7.0621130">
        <ele>1326.6</ele>
        <time>2017-07-28T06:58:31Z</time>
      </trkpt>
      <trkpt lat="45.0292240" lon="7.0620670">
        <ele>1325.8</ele>
        <time>2017-07-28T06:58:32Z</time>
      </trkpt>
      <trkpt lat="45.0293340" lon="7.0619570">
        <ele>1324.6</ele>
        <time>2017-07-28T06:58:34Z</time>
      </trkpt>
      <trkpt lat="45.0293710" lon="7.0618990">
        <ele>1324.0</ele>
        <time>2017-07-28T06:58:35Z</time>
      </trkpt>
      <trkpt lat="45.0294750" lon="7.0618120">
        <ele>1323.4</ele>
        <time>2017-07-28T06:58:37Z</time>
      </trkpt>
      <trkpt lat="45.0295660" lon="7.0617280">
        <ele>1321.0</ele>
        <time>2017-07-28T06:58:39Z</time>
      </trkpt>
      <trkpt lat="45.0295980" lon="7.0617140">
        <ele>1320.2</ele>
        <time>2017-07-28T06:58:40Z</time>
      </trkpt>
      <trkpt lat="45.0296000" lon="7.0616730">
        <ele>1319.6</ele>
        <time>2017-07-28T06:58:41Z</time>
      </trkpt>
      <trkpt lat="45.0295810" lon="7.0616880">
        <ele>1318.8</ele>
        <time>2017-07-28T06:58:42Z</time>
      </trkpt>
      <trkpt lat="45.0295590" lon="7.0617000">
        <ele>1318.0</ele>
        <time>2017-07-28T06:58:43Z</time>
      </trkpt>
      <trkpt lat="45.0295360" lon="7.0617110">
        <ele>1317.2</ele>
        <time>2017-07-28T06:58:44Z</time>
      </trkpt>
      <trkpt lat="45.0294430" lon="7.0617740">
        <ele>1316.2</ele>
        <time>2017-07-28T06:58:45Z</time>
      </trkpt>
      <trkpt lat="45.0293270" lon="7.0618130">
        <ele>1314.8</ele>
        <time>2017-07-28T06:58:47Z</time>
      </trkpt>
      <trkpt lat="45.0292990" lon="7.0617710">
        <ele>1314.2</ele>
        <time>2017-07-28T06:58:48Z</time>
      </trkpt>
      <trkpt lat="45.0293020" lon="7.0617190">
        <ele>1313.0</ele>
        <time>2017-07-28T06:58:49Z</time>
      </trkpt>
      <trkpt lat="45.0293310" lon="7.0617010">
        <ele>1312.2</ele>
        <time>2017-07-28T06:58:50Z</time>
      </trkpt>
      <trkpt lat="45.0293490" lon="7.0616700">
        <ele>1311.2</ele>
        <time>2017-07-28T06:58:51Z</time>
      </trkpt>
      <trkpt lat="45.0293560" lon="7.0616350">
        <ele>1310.2</ele>
        <time>2017-07-28T06:58:52Z</time>
      </trkpt>
      <trkpt lat="45.0292980" lon="7.0615540">
        <ele>1308.4</ele>
        <time>2017-07-28T06:58:54Z</time>
      </trkpt>
      <trkpt lat="45.0292230" lon="7.0615530">
        <ele>1306.8</ele>
        <time>2017-07-28T06:58:56Z</time>
      </trkpt>
      <trkpt lat="45.0291800" lon="7.0615890">
        <ele>1305.0</ele>
        <time>2017-07-28T06:58:58Z</time>
      </trkpt>
      <trkpt lat="45.0291670" lon="7.0615600">
        <ele>1303.2</ele>
        <time>2017-07-28T06:59:00Z</time>
      </trkpt>
      <trkpt lat="45.0291700" lon="7.0615250">
        <ele>1302.4</ele>
        <time>2017-07-28T06:59:01Z</time>
      </trkpt>
      <trkpt lat="45.0291410" lon="7.0615360">
        <ele>1301.4</ele>
        <time>2017-07-28T06:59:02Z</time>
      </trkpt>
      <trkpt lat="45.0291150" lon="7.0615500">
        <ele>1299.8</ele>
        <time>2017-07-28T06:59:03Z</time>
      </trkpt>
      <trkpt lat="45.0290830" lon="7.0615320">
        <ele>1299.2</ele>
        <time>2017-07-28T06:59:04Z</time>
      </trkpt>
      <trkpt lat="45.0290780" lon="7.0615080">
        <ele>1298.4</ele>
        <time>2017-07-28T06:59:05Z</time>
      </trkpt>
      <trkpt lat="45.0290670" lon="7.0614790">
        <ele>1297.0</ele>
        <time>2017-07-28T06:59:07Z</time>
      </trkpt>
      <trkpt lat="45.0290780" lon="7.0613770">
        <ele>1295.4</ele>
        <time>2017-07-28T06:59:09Z</time>
      </trkpt>
      <trkpt lat="45.0290740" lon="7.0613140">
        <ele>1294.2</ele>
        <time>2017-07-28T06:59:10Z</time>
      </trkpt>
      <trkpt lat="45.0290810" lon="7.0612320">
        <ele>1293.4</ele>
        <time>2017-07-28T06:59:11Z</time>
      </trkpt>
      <trkpt lat="45.0290910" lon="7.0611330">
        <ele>1292.4</ele>
        <time>2017-07-28T06:59:12Z</time>
      </trkpt>
      <trkpt lat="45.0291300" lon="7.0609920">
        <ele>1290.6</ele>
        <time>2017-07-28T06:59:14Z</time>
      </trkpt>
      <trkpt lat="45.0291600" lon="7.0609550">
        <ele>1289.4</ele>
        <time>2017-07-28T06:59:15Z</time>
      </trkpt>
      <trkpt lat="45.0291700" lon="7.0610140">
        <ele>1287.8</ele>
        <time>2017-07-28T06:59:17Z</time>
      </trkpt>
      <trkpt lat="45.0291800" lon="7.0610260">
        <ele>1286.4</ele>
        <time>2017-07-28T06:59:19Z</time>
      </trkpt>
      <trkpt lat="45.0291910" lon="7.0609800">
        <ele>1285.0</ele>
        <time>2017-07-28T06:59:21Z</time>
      </trkpt>
      <trkpt lat="45.0292190" lon="7.0608540">
        <ele>1283.4</ele>
        <time>2017-07-28T06:59:23Z</time>
      </trkpt>
      <trkpt lat="45.0293000" lon="7.0607750">
        <ele>1281.8</ele>
        <time>2017-07-28T06:59:25Z</time>
      </trkpt>
      <trkpt lat="45.0293540" lon="7.0607580">
        <ele>1281.2</ele>
        <time>2017-07-28T06:59:26Z</time>
      </trkpt>
      <trkpt lat="45.0293970" lon="7.0607350">
        <ele>1280.0</ele>
        <time>2017-07-28T06:59:27Z</time>
      </trkpt>
      <trkpt lat="45.0294460" lon="7.0607100">
        <ele>1279.6</ele>
        <time>2017-07-28T06:59:28Z</time>
      </trkpt>
      <trkpt lat="45.0294810" lon="7.0606760">
        <ele>1278.6</ele>
        <time>2017-07-28T06:59:29Z</time>
      </trkpt>
      <trkpt lat="45.0295060" lon="7.0606150">
        <ele>1277.8</ele>
        <time>2017-07-28T06:59:30Z</time>
      </trkpt>
      <trkpt lat="45.0295250" lon="7.0605550">
        <ele>1277.4</ele>
        <time>2017-07-28T06:59:31Z</time>
      </trkpt>
      <trkpt lat="45.0296840" lon="7.0602980">
        <ele>1276.8</ele>
        <time>2017-07-28T06:59:36Z</time>
      </trkpt>
      <trkpt lat="45.0297160" lon="7.0602620">
        <ele>1276.4</ele>
        <time>2017-07-28T06:59:37Z</time>
      </trkpt>
      <trkpt lat="45.0298700" lon="7.0600960">
        <ele>1275.2</ele>
        <time>2017-07-28T06:59:42Z</time>
      </trkpt>
      <trkpt lat="45.0299380" lon="7.0600270">
        <ele>1274.4</ele>
        <time>2017-07-28T06:59:44Z</time>
      </trkpt>
      <trkpt lat="45.0300250" lon="7.0599970">
        <ele>1274.0</ele>
        <time>2017-07-28T06:59:45Z</time>
      </trkpt>
      <trkpt lat="45.0301740" lon="7.0597870">
        <ele>1272.8</ele>
        <time>2017-07-28T06:59:48Z</time>
      </trkpt>
      <trkpt lat="45.0302120" lon="7.0596820">
        <ele>1272.6</ele>
        <time>2017-07-28T06:59:49Z</time>
      </trkpt>
      <trkpt lat="45.0302480" lon="7.0595320">
        <ele>1272.2</ele>
        <time>2017-07-28T06:59:50Z</time>
      </trkpt>
      <trkpt lat="45.0302730" lon="7.0593960">
        <ele>1271.2</ele>
        <time>2017-07-28T06:59:51Z</time>
      </trkpt>
      <trkpt lat="45.0302940" lon="7.0591870">
        <ele>1270.0</ele>
        <time>2017-07-28T06:59:53Z</time>
      </trkpt>
      <trkpt lat="45.0302930" lon="7.0590710">
        <ele>1269.0</ele>
        <time>2017-07-28T06:59:55Z</time>
      </trkpt>
      <trkpt lat="45.0303590" lon="7.0590980">
        <ele>1261.2</ele>
        <time>2017-07-28T07:04:55Z</time>
      </trkpt>
      <trkpt lat="45.0303880" lon="7.0590840">
        <ele>1261.2</ele>
        <time>2017-07-28T07:04:56Z</time>
      </trkpt>
      <trkpt lat="45.0304470" lon="7.0590110">
        <ele>1261.0</ele>
        <time>2017-07-28T07:04:59Z</time>
      </trkpt>
      <trkpt lat="45.0304920" lon="7.0589530">
        <ele>1260.6</ele>
        <time>2017-07-28T07:05:01Z</time>
      </trkpt>
      <trkpt lat="45.0306040" lon="7.0588520">
        <ele>1260.4</ele>
        <time>2017-07-28T07:05:04Z</time>
      </trkpt>
      <trkpt lat="45.0307060" lon="7.0587840">
        <ele>1260.2</ele>
        <time>2017-07-28T07:05:06Z</time>
      </trkpt>
      <trkpt lat="45.0308970" lon="7.0586430">
        <ele>1260.0</ele>
        <time>2017-07-28T07:05:09Z</time>
      </trkpt>
      <trkpt lat="45.0311990" lon="7.0583980">
        <ele>1259.2</ele>
        <time>2017-07-28T07:05:13Z</time>
      </trkpt>
      <trkpt lat="45.0312740" lon="7.0583160">
        <ele>1259.2</ele>
        <time>2017-07-28T07:05:14Z</time>
      </trkpt>
      <trkpt lat="45.0315210" lon="7.0580460">
        <ele>1259.2</ele>
        <time>2017-07-28T07:05:17Z</time>
      </trkpt>
      <trkpt lat="45.0316050" lon="7.0579320">
        <ele>1257.8</ele>
        <time>2017-07-28T07:05:18Z</time>
      </trkpt>
      <trkpt lat="45.0319460" lon="7.0574660">
        <ele>1256.4</ele>
        <time>2017-07-28T07:05:22Z</time>
      </trkpt>
      <trkpt lat="45.0321240" lon="7.0572250">
        <ele>1255.4</ele>
        <time>2017-07-28T07:05:24Z</time>
      </trkpt>
      <trkpt lat="45.0322220" lon="7.0571070">
        <ele>1255.0</ele>
        <time>2017-07-28T07:05:25Z</time>
      </trkpt>
      <trkpt lat="45.0324120" lon="7.0568600">
        <ele>1253.6</ele>
        <time>2017-07-28T07:05:27Z</time>
      </trkpt>
      <trkpt lat="45.0325040" lon="7.0567250">
        <ele>1251.8</ele>
        <time>2017-07-28T07:05:28Z</time>
      </trkpt>
      <trkpt lat="45.0325950" lon="7.0565890">
        <ele>1251.0</ele>
        <time>2017-07-28T07:05:29Z</time>
      </trkpt>
      <trkpt lat="45.0326860" lon="7.0564680">
        <ele>1250.2</ele>
        <time>2017-07-28T07:05:30Z</time>
      </trkpt>
      <trkpt lat="45.0327930" lon="7.0563610">
        <ele>1249.4</ele>
        <time>2017-07-28T07:05:31Z</time>
      </trkpt>
      <trkpt lat="45.0328980" lon="7.0562500">
        <ele>1248.6</ele>
        <time>2017-07-28T07:05:32Z</time>
      </trkpt>
      <trkpt lat="45.0330070" lon="7.0561360">
        <ele>1247.6</ele>
        <time>2017-07-28T07:05:33Z</time>
      </trkpt>
      <trkpt lat="45.0331100" lon="7.0560280">
        <ele>1246.8</ele>
        <time>2017-07-28T07:05:34Z</time>
      </trkpt>
      <trkpt lat="45.0333000" lon="7.0558190">
        <ele>1244.6</ele>
        <time>2017-07-28T07:05:36Z</time>
      </trkpt>
      <trkpt lat="45.0333770" lon="7.0556960">
        <ele>1243.4</ele>
        <time>2017-07-28T07:05:37Z</time>
      </trkpt>
      <trkpt lat="45.0334520" lon="7.0555630">
        <ele>1242.2</ele>
        <time>2017-07-28T07:05:38Z</time>
      </trkpt>
      <trkpt lat="45.0335060" lon="7.0554070">
        <ele>1241.2</ele>
        <time>2017-07-28T07:05:39Z</time>
      </trkpt>
      <trkpt lat="45.0335770" lon="7.0552620">
        <ele>1240.2</ele>
        <time>2017-07-28T07:05:40Z</time>
      </trkpt>
      <trkpt lat="45.0336610" lon="7.0551310">
        <ele>1239.0</ele>
        <time>2017-07-28T07:05:41Z</time>
      </trkpt>
      <trkpt lat="45.0337280" lon="7.0549770">
        <ele>1237.8</ele>
        <time>2017-07-28T07:05:42Z</time>
      </trkpt>
      <trkpt lat="45.0337960" lon="7.0548240">
        <ele>1236.6</ele>
        <time>2017-07-28T07:05:43Z</time>
      </trkpt>
      <trkpt lat="45.0338620" lon="7.0546790">
        <ele>1235.2</ele>
        <time>2017-07-28T07:05:44Z</time>
      </trkpt>
      <trkpt lat="45.0338850" lon="7.0545430">
        <ele>1234.2</ele>
        <time>2017-07-28T07:05:45Z</time>
      </trkpt>
      <trkpt lat="45.0339220" lon="7.0544520">
        <ele>1233.0</ele>
        <time>2017-07-28T07:05:46Z</time>
      </trkpt>
      <trkpt lat="45.0339640" lon="7.0543950">
        <ele>1231.8</ele>
        <time>2017-07-28T07:05:47Z</time>
      </trkpt>
      <trkpt lat="45.0339910" lon="7.0543170">
        <ele>1230.6</ele>
        <time>2017-07-28T07:05:48Z</time>
      </trkpt>
      <trkpt lat="45.0340210" lon="7.0542590">
        <ele>1229.2</ele>
        <time>2017-07-28T07:05:49Z</time>
      </trkpt>
      <trkpt lat="45.0340400" lon="7.0541990">
        <ele>1228.0</ele>
        <time>2017-07-28T07:05:50Z</time>
      </trkpt>
      <trkpt lat="45.0340430" lon="7.0541200">
        <ele>1227.0</ele>
        <time>2017-07-28T07:05:51Z</time>
      </trkpt>
      <trkpt lat="45.0340140" lon="7.0540540">
        <ele>1225.0</ele>
        <time>2017-07-28T07:05:52Z</time>
      </trkpt>
      <trkpt lat="45.0339690" lon="7.0540690">
        <ele>1223.8</ele>
        <time>2017-07-28T07:05:53Z</time>
      </trkpt>
      <trkpt lat="45.0338860" lon="7.0540990">
        <ele>1222.8</ele>
        <time>2017-07-28T07:05:54Z</time>
      </trkpt>
      <trkpt lat="45.0337990" lon="7.0541450">
        <ele>1221.6</ele>
        <time>2017-07-28T07:05:55Z</time>
      </trkpt>
      <trkpt lat="45.0337070" lon="7.0541910">
        <ele>1220.6</ele>
        <time>2017-07-28T07:05:56Z</time>
      </trkpt>
      <trkpt lat="45.0336130" lon="7.0542380">
        <ele>1219.4</ele>
        <time>2017-07-28T07:05:57Z</time>
      </trkpt>
      <trkpt lat="45.0334290" lon="7.0543390">
        <ele>1217.6</ele>
        <time>2017-07-28T07:05:59Z</time>
      </trkpt>
      <trkpt lat="45.0333460" lon="7.0543780">
        <ele>1216.6</ele>
        <time>2017-07-28T07:06:00Z</time>
      </trkpt>
      <trkpt lat="45.0333100" lon="7.0543750">
        <ele>1215.2</ele>
        <time>2017-07-28T07:06:01Z</time>
      </trkpt>
      <trkpt lat="45.0332850" lon="7.0543540">
        <ele>1214.0</ele>
        <time>2017-07-28T07:06:02Z</time>
      </trkpt>
      <trkpt lat="45.0332830" lon="7.0543160">
        <ele>1213.0</ele>
        <time>2017-07-28T07:06:03Z</time>
      </trkpt>
      <trkpt lat="45.0332870" lon="7.0542800">
        <ele>1211.8</ele>
        <time>2017-07-28T07:06:04Z</time>
      </trkpt>
      <trkpt lat="45.0333180" lon="7.0541580">
        <ele>1209.8</ele>
        <time>2017-07-28T07:06:06Z</time>
      </trkpt>
      <trkpt lat="45.0332950" lon="7.0540870">
        <ele>1208.8</ele>
        <time>2017-07-28T07:06:07Z</time>
      </trkpt>
      <trkpt lat="45.0332950" lon="7.0540090">
        <ele>1207.8</ele>
        <time>2017-07-28T07:06:08Z</time>
      </trkpt>
      <trkpt lat="45.0333030" lon="7.0539150">
        <ele>1206.8</ele>
        <time>2017-07-28T07:06:09Z</time>
      </trkpt>
      <trkpt lat="45.0333320" lon="7.0538390">
        <ele>1206.0</ele>
        <time>2017-07-28T07:06:10Z</time>
      </trkpt>
      <trkpt lat="45.0333590" lon="7.0537620">
        <ele>1205.4</ele>
        <time>2017-07-28T07:06:11Z</time>
      </trkpt>
      <trkpt lat="45.0334230" lon="7.0536050">
        <ele>1204.2</ele>
        <time>2017-07-28T07:06:13Z</time>
      </trkpt>
      <trkpt lat="45.0335590" lon="7.0534100">
        <ele>1202.4</ele>
        <time>2017-07-28T07:06:16Z</time>
      </trkpt>
      <trkpt lat="45.0336060" lon="7.0533520">
        <ele>1202.2</ele>
        <time>2017-07-28T07:06:17Z</time>
      </trkpt>
      <trkpt lat="45.0337360" lon="7.0531880">
        <ele>1201.6</ele>
        <time>2017-07-28T07:06:20Z</time>
      </trkpt>
      <trkpt lat="45.0337770" lon="7.0531300">
        <ele>1201.4</ele>
        <time>2017-07-28T07:06:21Z</time>
      </trkpt>
      <trkpt lat="45.0339530" lon="7.0529190">
        <ele>1201.4</ele>
        <time>2017-07-28T07:06:25Z</time>
      </trkpt>
      <trkpt lat="45.0341130" lon="7.0528130">
        <ele>1201.4</ele>
        <time>2017-07-28T07:06:28Z</time>
      </trkpt>
      <trkpt lat="45.0341770" lon="7.0527100">
        <ele>1201.6</ele>
        <time>2017-07-28T07:06:30Z</time>
      </trkpt>
      <trkpt lat="45.0343100" lon="7.0524580">
        <ele>1202.2</ele>
        <time>2017-07-28T07:06:35Z</time>
      </trkpt>
      <trkpt lat="45.0343490" lon="7.0523560">
        <ele>1202.6</ele>
        <time>2017-07-28T07:06:37Z</time>
      </trkpt>
      <trkpt lat="45.0344670" lon="7.0520960">
        <ele>1203.2</ele>
        <time>2017-07-28T07:06:42Z</time>
      </trkpt>
      <trkpt lat="45.0345350" lon="7.0519860">
        <ele>1203.6</ele>
        <time>2017-07-28T07:06:44Z</time>
      </trkpt>
      <trkpt lat="45.0345780" lon="7.0519360">
        <ele>1203.6</ele>
        <time>2017-07-28T07:06:45Z</time>
      </trkpt>
      <trkpt lat="45.0346780" lon="7.0517450">
        <ele>1203.6</ele>
        <time>2017-07-28T07:06:48Z</time>
      </trkpt>
      <trkpt lat="45.0347160" lon="7.0516810">
        <ele>1203.8</ele>
        <time>2017-07-28T07:06:49Z</time>
      </trkpt>
      <trkpt lat="45.0349350" lon="7.0514210">
        <ele>1203.8</ele>
        <time>2017-07-28T07:06:54Z</time>
      </trkpt>
      <trkpt lat="45.0349720" lon="7.0513650">
        <ele>1203.8</ele>
        <time>2017-07-28T07:06:55Z</time>
      </trkpt>
      <trkpt lat="45.0351300" lon="7.0510560">
        <ele>1204.0</ele>
        <time>2017-07-28T07:07:00Z</time>
      </trkpt>
      <trkpt lat="45.0351630" lon="7.0510000">
        <ele>1204.0</ele>
        <time>2017-07-28T07:07:01Z</time>
      </trkpt>
      <trkpt lat="45.0352740" lon="7.0508560">
        <ele>1204.0</ele>
        <time>2017-07-28T07:07:04Z</time>
      </trkpt>
      <trkpt lat="45.0354790" lon="7.0504770">
        <ele>1204.6</ele>
        <time>2017-07-28T07:07:11Z</time>
      </trkpt>
      <trkpt lat="45.0355170" lon="7.0504290">
        <ele>1204.8</ele>
        <time>2017-07-28T07:07:12Z</time>
      </trkpt>
      <trkpt lat="45.0356280" lon="7.0502290">
        <ele>1205.0</ele>
        <time>2017-07-28T07:07:16Z</time>
      </trkpt>
      <trkpt lat="45.0356870" lon="7.0501370">
        <ele>1205.2</ele>
        <time>2017-07-28T07:07:18Z</time>
      </trkpt>
      <trkpt lat="45.0357810" lon="7.0499400">
        <ele>1205.8</ele>
        <time>2017-07-28T07:07:22Z</time>
      </trkpt>
      <trkpt lat="45.0358670" lon="7.0497410">
        <ele>1206.4</ele>
        <time>2017-07-28T07:07:26Z</time>
      </trkpt>
      <trkpt lat="45.0359090" lon="7.0496360">
        <ele>1206.8</ele>
        <time>2017-07-28T07:07:28Z</time>
      </trkpt>
      <trkpt lat="45.0359530" lon="7.0495390">
        <ele>1207.0</ele>
        <time>2017-07-28T07:07:30Z</time>
      </trkpt>
      <trkpt lat="45.0360740" lon="7.0493280">
        <ele>1207.6</ele>
        <time>2017-07-28T07:07:35Z</time>
      </trkpt>
      <trkpt lat="45.0361000" lon="7.0492870">
        <ele>1208.0</ele>
        <time>2017-07-28T07:07:36Z</time>
      </trkpt>
      <trkpt lat="45.0361480" lon="7.0492060">
        <ele>1208.4</ele>
        <time>2017-07-28T07:07:38Z</time>
      </trkpt>
      <trkpt lat="45.0362120" lon="7.0490830">
        <ele>1209.0</ele>
        <time>2017-07-28T07:07:41Z</time>
      </trkpt>
      <trkpt lat="45.0363160" lon="7.0488820">
        <ele>1210.2</ele>
        <time>2017-07-28T07:07:46Z</time>
      </trkpt>
      <trkpt lat="45.0363380" lon="7.0488410">
        <ele>1210.4</ele>
        <time>2017-07-28T07:07:47Z</time>
      </trkpt>
      <trkpt lat="45.0364080" lon="7.0487240">
        <ele>1211.2</ele>
        <time>2017-07-28T07:07:50Z</time>
      </trkpt>
      <trkpt lat="45.0364230" lon="7.0486790">
        <ele>1211.2</ele>
        <time>2017-07-28T07:07:51Z</time>
      </trkpt>
      <trkpt lat="45.0364680" lon="7.0485600">
        <ele>1212.2</ele>
        <time>2017-07-28T07:07:54Z</time>
      </trkpt>
      <trkpt lat="45.0365410" lon="7.0484260">
        <ele>1213.0</ele>
        <time>2017-07-28T07:07:58Z</time>
      </trkpt>
      <trkpt lat="45.0365640" lon="7.0483830">
        <ele>1213.2</ele>
        <time>2017-07-28T07:07:59Z</time>
      </trkpt>
      <trkpt lat="45.0366870" lon="7.0481700">
        <ele>1214.4</ele>
        <time>2017-07-28T07:08:04Z</time>
      </trkpt>
      <trkpt lat="45.0367370" lon="7.0480990">
        <ele>1214.8</ele>
        <time>2017-07-28T07:08:06Z</time>
      </trkpt>
      <trkpt lat="45.0368080" lon="7.0480130">
        <ele>1215.4</ele>
        <time>2017-07-28T07:08:09Z</time>
      </trkpt>
      <trkpt lat="45.0368590" lon="7.0479640">
        <ele>1215.8</ele>
        <time>2017-07-28T07:08:11Z</time>
      </trkpt>
      <trkpt lat="45.0369380" lon="7.0478930">
        <ele>1216.4</ele>
        <time>2017-07-28T07:08:14Z</time>
      </trkpt>
      <trkpt lat="45.0369760" lon="7.0478580">
        <ele>1216.6</ele>
        <time>2017-07-28T07:08:15Z</time>
      </trkpt>
      <trkpt lat="45.0371000" lon="7.0476690">
        <ele>1216.8</ele>
        <time>2017-07-28T07:08:18Z</time>
      </trkpt>
      <trkpt lat="45.0371410" lon="7.0475790">
        <ele>1217.0</ele>
        <time>2017-07-28T07:08:19Z</time>
      </trkpt>
      <trkpt lat="45.0372360" lon="7.0473630">
        <ele>1217.0</ele>
        <time>2017-07-28T07:08:21Z</time>
      </trkpt>
      <trkpt lat="45.0374160" lon="7.0468740">
        <ele>1215.4</ele>
        <time>2017-07-28T07:08:25Z</time>
      </trkpt>
      <trkpt lat="45.0374380" lon="7.0467420">
        <ele>1215.0</ele>
        <time>2017-07-28T07:08:26Z</time>
      </trkpt>
      <trkpt lat="45.0374400" lon="7.0463670">
        <ele>1214.4</ele>
        <time>2017-07-28T07:08:29Z</time>
      </trkpt>
      <trkpt lat="45.0374270" lon="7.0462450">
        <ele>1214.2</ele>
        <time>2017-07-28T07:08:30Z</time>
      </trkpt>
      <trkpt lat="45.0374130" lon="7.0461250">
        <ele>1214.0</ele>
        <time>2017-07-28T07:08:31Z</time>
      </trkpt>
      <trkpt lat="45.0373940" lon="7.0456780">
        <ele>1213.2</ele>
        <time>2017-07-28T07:08:35Z</time>
      </trkpt>
      <trkpt lat="45.0374540" lon="7.0453760">
        <ele>1212.8</ele>
        <time>2017-07-28T07:08:38Z</time>
      </trkpt>
      <trkpt lat="45.0374870" lon="7.0452840">
        <ele>1212.6</ele>
        <time>2017-07-28T07:08:39Z</time>
      </trkpt>
      <trkpt lat="45.0376630" lon="7.0449570">
        <ele>1212.2</ele>
        <time>2017-07-28T07:08:43Z</time>
      </trkpt>
      <trkpt lat="45.0377110" lon="7.0448830">
        <ele>1212.2</ele>
        <time>2017-07-28T07:08:44Z</time>
      </trkpt>
      <trkpt lat="45.0378010" lon="7.0447480">
        <ele>1212.0</ele>
        <time>2017-07-28T07:08:46Z</time>
      </trkpt>
      <trkpt lat="45.0378180" lon="7.0446170">
        <ele>1212.0</ele>
        <time>2017-07-28T07:08:48Z</time>
      </trkpt>
      <trkpt lat="45.0377250" lon="7.0444920">
        <ele>1211.8</ele>
        <time>2017-07-28T07:08:50Z</time>
      </trkpt>
      <trkpt lat="45.0376570" lon="7.0444260">
        <ele>1211.6</ele>
        <time>2017-07-28T07:08:51Z</time>
      </trkpt>
      <trkpt lat="45.0375910" lon="7.0443490">
        <ele>1211.4</ele>
        <time>2017-07-28T07:08:52Z</time>
      </trkpt>
      <trkpt lat="45.0374700" lon="7.0441740">
        <ele>1210.8</ele>
        <time>2017-07-28T07:08:54Z</time>
      </trkpt>
      <trkpt lat="45.0374260" lon="7.0440800">
        <ele>1210.6</ele>
        <time>2017-07-28T07:08:55Z</time>
      </trkpt>
      <trkpt lat="45.0373990" lon="7.0438650">
        <ele>1210.2</ele>
        <time>2017-07-28T07:08:57Z</time>
      </trkpt>
      <trkpt lat="45.0374460" lon="7.0436760">
        <ele>1209.6</ele>
        <time>2017-07-28T07:08:59Z</time>
      </trkpt>
      <trkpt lat="45.0374820" lon="7.0436000">
        <ele>1209.6</ele>
        <time>2017-07-28T07:09:00Z</time>
      </trkpt>
      <trkpt lat="45.0375540" lon="7.0434790">
        <ele>1209.0</ele>
        <time>2017-07-28T07:09:02Z</time>
      </trkpt>
      <trkpt lat="45.0375880" lon="7.0434290">
        <ele>1208.8</ele>
        <time>2017-07-28T07:09:03Z</time>
      </trkpt>
      <trkpt lat="45.0376270" lon="7.0433820">
        <ele>1208.8</ele>
        <time>2017-07-28T07:09:04Z</time>
      </trkpt>
      <trkpt lat="45.0376970" lon="7.0432790">
        <ele>1208.8</ele>
        <time>2017-07-28T07:09:06Z</time>
      </trkpt>
      <trkpt lat="45.0377580" lon="7.0431770">
        <ele>1209.0</ele>
        <time>2017-07-28T07:09:08Z</time>
      </trkpt>
      <trkpt lat="45.0377810" lon="7.0431260">
        <ele>1209.0</ele>
        <time>2017-07-28T07:09:09Z</time>
      </trkpt>
      <trkpt lat="45.0378930" lon="7.0429320">
        <ele>1209.4</ele>
        <time>2017-07-28T07:09:13Z</time>
      </trkpt>
      <trkpt lat="45.0379860" lon="7.0428120">
        <ele>1209.6</ele>
        <time>2017-07-28T07:09:16Z</time>
      </trkpt>
      <trkpt lat="45.0381360" lon="7.0425840">
        <ele>1210.6</ele>
        <time>2017-07-28T07:09:21Z</time>
      </trkpt>
      <trkpt lat="45.0381610" lon="7.0425440">
        <ele>1211.0</ele>
        <time>2017-07-28T07:09:22Z</time>
      </trkpt>
      <trkpt lat="45.0382370" lon="7.0424380">
        <ele>1211.8</ele>
        <time>2017-07-28T07:09:25Z</time>
      </trkpt>
      <trkpt lat="45.0383110" lon="7.0423170">
        <ele>1212.6</ele>
        <time>2017-07-28T07:09:28Z</time>
      </trkpt>
      <trkpt lat="45.0383400" lon="7.0422190">
        <ele>1213.0</ele>
        <time>2017-07-28T07:09:30Z</time>
      </trkpt>
      <trkpt lat="45.0383410" lon="7.0421160">
        <ele>1213.6</ele>
        <time>2017-07-28T07:09:32Z</time>
      </trkpt>
      <trkpt lat="45.0383060" lon="7.0419700">
        <ele>1214.2</ele>
        <time>2017-07-28T07:09:35Z</time>
      </trkpt>
      <trkpt lat="45.0382920" lon="7.0418790">
        <ele>1214.6</ele>
        <time>2017-07-28T07:09:37Z</time>
      </trkpt>
      <trkpt lat="45.0382760" lon="7.0417510">
        <ele>1215.2</ele>
        <time>2017-07-28T07:09:40Z</time>
      </trkpt>
      <trkpt lat="45.0382790" lon="7.0416710">
        <ele>1215.8</ele>
        <time>2017-07-28T07:09:42Z</time>
      </trkpt>
      <trkpt lat="45.0382900" lon="7.0415950">
        <ele>1216.4</ele>
        <time>2017-07-28T07:09:44Z</time>
      </trkpt>
      <trkpt lat="45.0383080" lon="7.0413990">
        <ele>1217.8</ele>
        <time>2017-07-28T07:09:49Z</time>
      </trkpt>
      <trkpt lat="45.0383190" lon="7.0413170">
        <ele>1218.4</ele>
        <time>2017-07-28T07:09:51Z</time>
      </trkpt>
      <trkpt lat="45.0383280" lon="7.0412330">
        <ele>1218.8</ele>
        <time>2017-07-28T07:09:53Z</time>
      </trkpt>
      <trkpt lat="45.0383280" lon="7.0410680">
        <ele>1219.8</ele>
        <time>2017-07-28T07:09:57Z</time>
      </trkpt>
      <trkpt lat="45.0383150" lon="7.0409920">
        <ele>1220.0</ele>
        <time>2017-07-28T07:09:59Z</time>
      </trkpt>
      <trkpt lat="45.0382890" lon="7.0408810">
        <ele>1220.8</ele>
        <time>2017-07-28T07:10:02Z</time>
      </trkpt>
      <trkpt lat="45.0382790" lon="7.0408000">
        <ele>1221.2</ele>
        <time>2017-07-28T07:10:04Z</time>
      </trkpt>
      <trkpt lat="45.0382670" lon="7.0407270">
        <ele>1221.6</ele>
        <time>2017-07-28T07:10:06Z</time>
      </trkpt>
      <trkpt lat="45.0382190" lon="7.0405740">
        <ele>1222.4</ele>
        <time>2017-07-28T07:10:10Z</time>
      </trkpt>
      <trkpt lat="45.0381940" lon="7.0404870">
        <ele>1222.8</ele>
        <time>2017-07-28T07:10:12Z</time>
      </trkpt>
      <trkpt lat="45.0381150" lon="7.0402170">
        <ele>1223.4</ele>
        <time>2017-07-28T07:10:19Z</time>
      </trkpt>
      <trkpt lat="45.0381020" lon="7.0401820">
        <ele>1223.6</ele>
        <time>2017-07-28T07:10:20Z</time>
      </trkpt>
      <trkpt lat="45.0380510" lon="7.0400490">
        <ele>1224.4</ele>
        <time>2017-07-28T07:10:24Z</time>
      </trkpt>
      <trkpt lat="45.0379980" lon="7.0399210">
        <ele>1225.2</ele>
        <time>2017-07-28T07:10:28Z</time>
      </trkpt>
      <trkpt lat="45.0379860" lon="7.0398940">
        <ele>1225.4</ele>
        <time>2017-07-28T07:10:29Z</time>
      </trkpt>
      <trkpt lat="45.0379170" lon="7.0397630">
        <ele>1226.6</ele>
        <time>2017-07-28T07:10:34Z</time>
      </trkpt>
      <trkpt lat="45.0379030" lon="7.0397000">
        <ele>1227.2</ele>
        <time>2017-07-28T07:10:36Z</time>
      </trkpt>
      <trkpt lat="45.0379020" lon="7.0396440">
        <ele>1227.8</ele>
        <time>2017-07-28T07:10:38Z</time>
      </trkpt>
      <trkpt lat="45.0379020" lon="7.0395690">
        <ele>1229.0</ele>
        <time>2017-07-28T07:10:41Z</time>
      </trkpt>
      <trkpt lat="45.0379040" lon="7.0395440">
        <ele>1229.6</ele>
        <time>2017-07-28T07:10:42Z</time>
      </trkpt>
      <trkpt lat="45.0379050" lon="7.0395210">
        <ele>1230.0</ele>
        <time>2017-07-28T07:10:43Z</time>
      </trkpt>
      <trkpt lat="45.0379030" lon="7.0394280">
        <ele>1231.4</ele>
        <time>2017-07-28T07:10:47Z</time>
      </trkpt>
      <trkpt lat="45.0378970" lon="7.0394050">
        <ele>1232.0</ele>
        <time>2017-07-28T07:10:48Z</time>
      </trkpt>
      <trkpt lat="45.0378880" lon="7.0393650">
        <ele>1232.6</ele>
        <time>2017-07-28T07:10:50Z</time>
      </trkpt>
      <trkpt lat="45.0378650" lon="7.0392830">
        <ele>1233.8</ele>
        <time>2017-07-28T07:10:54Z</time>
      </trkpt>
      <trkpt lat="45.0378480" lon="7.0391830">
        <ele>1235.0</ele>
        <time>2017-07-28T07:10:58Z</time>
      </trkpt>
      <trkpt lat="45.0378430" lon="7.0391110">
        <ele>1236.0</ele>
        <time>2017-07-28T07:11:01Z</time>
      </trkpt>
      <trkpt lat="45.0378400" lon="7.0390550">
        <ele>1237.4</ele>
        <time>2017-07-28T07:11:04Z</time>
      </trkpt>
      <trkpt lat="45.0378240" lon="7.0389860">
        <ele>1238.4</ele>
        <time>2017-07-28T07:11:07Z</time>
      </trkpt>
      <trkpt lat="45.0378300" lon="7.0389150">
        <ele>1239.4</ele>
        <time>2017-07-28T07:11:10Z</time>
      </trkpt>
      <trkpt lat="45.0378340" lon="7.0388770">
        <ele>1240.2</ele>
        <time>2017-07-28T07:11:12Z</time>
      </trkpt>
      <trkpt lat="45.0378430" lon="7.0388390">
        <ele>1240.6</ele>
        <time>2017-07-28T07:11:14Z</time>
      </trkpt>
      <trkpt lat="45.0378550" lon="7.0387830">
        <ele>1241.6</ele>
        <time>2017-07-28T07:11:17Z</time>
      </trkpt>
      <trkpt lat="45.0378570" lon="7.0387620">
        <ele>1241.8</ele>
        <time>2017-07-28T07:11:18Z</time>
      </trkpt>
      <trkpt lat="45.0378710" lon="7.0387030">
        <ele>1242.8</ele>
        <time>2017-07-28T07:11:21Z</time>
      </trkpt>
      <trkpt lat="45.0378830" lon="7.0386390">
        <ele>1243.8</ele>
        <time>2017-07-28T07:11:24Z</time>
      </trkpt>
      <trkpt lat="45.0378880" lon="7.0386190">
        <ele>1244.0</ele>
        <time>2017-07-28T07:11:25Z</time>
      </trkpt>
      <trkpt lat="45.0379030" lon="7.0385580">
        <ele>1245.4</ele>
        <time>2017-07-28T07:11:28Z</time>
      </trkpt>
      <trkpt lat="45.0379070" lon="7.0384650">
        <ele>1246.8</ele>
        <time>2017-07-28T07:11:32Z</time>
      </trkpt>
      <trkpt lat="45.0379130" lon="7.0384470">
        <ele>1247.0</ele>
        <time>2017-07-28T07:11:33Z</time>
      </trkpt>
      <trkpt lat="45.0379180" lon="7.0383870">
        <ele>1247.8</ele>
        <time>2017-07-28T07:11:36Z</time>
      </trkpt>
      <trkpt lat="45.0379350" lon="7.0383070">
        <ele>1249.0</ele>
        <time>2017-07-28T07:11:40Z</time>
      </trkpt>
      <trkpt lat="45.0379500" lon="7.0382460">
        <ele>1249.6</ele>
        <time>2017-07-28T07:11:43Z</time>
      </trkpt>
      <trkpt lat="45.0379540" lon="7.0382290">
        <ele>1250.0</ele>
        <time>2017-07-28T07:11:44Z</time>
      </trkpt>
      <trkpt lat="45.0379590" lon="7.0381730">
        <ele>1251.0</ele>
        <time>2017-07-28T07:11:47Z</time>
      </trkpt>
      <trkpt lat="45.0379600" lon="7.0381550">
        <ele>1251.2</ele>
        <time>2017-07-28T07:11:48Z</time>
      </trkpt>
      <trkpt lat="45.0379580" lon="7.0380830">
        <ele>1252.6</ele>
        <time>2017-07-28T07:11:52Z</time>
      </trkpt>
      <trkpt lat="45.0379550" lon="7.0380630">
        <ele>1252.8</ele>
        <time>2017-07-28T07:11:53Z</time>
      </trkpt>
      <trkpt lat="45.0379480" lon="7.0380400">
        <ele>1253.2</ele>
        <time>2017-07-28T07:11:54Z</time>
      </trkpt>
      <trkpt lat="45.0379330" lon="7.0380020">
        <ele>1253.8</ele>
        <time>2017-07-28T07:11:56Z</time>
      </trkpt>
      <trkpt lat="45.0379140" lon="7.0379210">
        <ele>1255.0</ele>
        <time>2017-07-28T07:12:00Z</time>
      </trkpt>
      <trkpt lat="45.0379070" lon="7.0379030">
        <ele>1255.2</ele>
        <time>2017-07-28T07:12:01Z</time>
      </trkpt>
      <trkpt lat="45.0378980" lon="7.0378870">
        <ele>1255.4</ele>
        <time>2017-07-28T07:12:02Z</time>
      </trkpt>
      <trkpt lat="45.0378850" lon="7.0378590">
        <ele>1256.0</ele>
        <time>2017-07-28T07:12:04Z</time>
      </trkpt>
      <trkpt lat="45.0378720" lon="7.0378310">
        <ele>1256.6</ele>
        <time>2017-07-28T07:12:06Z</time>
      </trkpt>
      <trkpt lat="45.0378620" lon="7.0377960">
        <ele>1257.0</ele>
        <time>2017-07-28T07:12:08Z</time>
      </trkpt>
      <trkpt lat="45.0378200" lon="7.0377380">
        <ele>1258.4</ele>
        <time>2017-07-28T07:12:12Z</time>
      </trkpt>
      <trkpt lat="45.0377880" lon="7.0377180">
        <ele>1258.8</ele>
        <time>2017-07-28T07:12:14Z</time>
      </trkpt>
      <trkpt lat="45.0377500" lon="7.0376940">
        <ele>1259.6</ele>
        <time>2017-07-28T07:12:17Z</time>
      </trkpt>
      <trkpt lat="45.0367810" lon="7.0369630">
        <ele>1291.4</ele>
        <time>2017-07-28T07:14:28Z</time>
      </trkpt>
      <trkpt lat="45.0367550" lon="7.0369250">
        <ele>1292.6</ele>
        <time>2017-07-28T07:14:31Z</time>
      </trkpt>
      <trkpt lat="45.0367410" lon="7.0368840">
        <ele>1293.2</ele>
        <time>2017-07-28T07:14:34Z</time>
      </trkpt>
      <trkpt lat="45.0367330" lon="7.0368720">
        <ele>1293.6</ele>
        <time>2017-07-28T07:14:35Z</time>
      </trkpt>
      <trkpt lat="45.0367280" lon="7.0368540">
        <ele>1293.8</ele>
        <time>2017-07-28T07:14:36Z</time>
      </trkpt>
      <trkpt lat="45.0367470" lon="7.0367750">
        <ele>1294.4</ele>
        <time>2017-07-28T07:14:39Z</time>
      </trkpt>
      <trkpt lat="45.0367560" lon="7.0367640">
        <ele>1295.0</ele>
        <time>2017-07-28T07:14:40Z</time>
      </trkpt>
      <trkpt lat="45.0367660" lon="7.0367600">
        <ele>1295.2</ele>
        <time>2017-07-28T07:14:41Z</time>
      </trkpt>
      <trkpt lat="45.0370740" lon="7.0362810">
        <ele>1302.6</ele>
        <time>2017-07-28T07:15:43Z</time>
      </trkpt>
      <trkpt lat="45.0370770" lon="7.0362590">
        <ele>1302.8</ele>
        <time>2017-07-28T07:15:44Z</time>
      </trkpt>
      <trkpt lat="45.0370980" lon="7.0361210">
        <ele>1304.0</ele>
        <time>2017-07-28T07:15:50Z</time>
      </trkpt>
      <trkpt lat="45.0371030" lon="7.0360900">
        <ele>1304.2</ele>
        <time>2017-07-28T07:15:51Z</time>
      </trkpt>
      <trkpt lat="45.0371030" lon="7.0360390">
        <ele>1305.0</ele>
        <time>2017-07-28T07:15:53Z</time>
      </trkpt>
      <trkpt lat="45.0371040" lon="7.0360140">
        <ele>1305.2</ele>
        <time>2017-07-28T07:15:54Z</time>
      </trkpt>
      <trkpt lat="45.0371220" lon="7.0359450">
        <ele>1306.0</ele>
        <time>2017-07-28T07:15:57Z</time>
      </trkpt>
      <trkpt lat="45.0371230" lon="7.0359220">
        <ele>1306.2</ele>
        <time>2017-07-28T07:15:58Z</time>
      </trkpt>
      <trkpt lat="45.0371230" lon="7.0359040">
        <ele>1306.4</ele>
        <time>2017-07-28T07:15:59Z</time>
      </trkpt>
      <trkpt lat="45.0371280" lon="7.0358350">
        <ele>1307.4</ele>
        <time>2017-07-28T07:16:02Z</time>
      </trkpt>
      <trkpt lat="45.0371320" lon="7.0358050">
        <ele>1307.6</ele>
        <time>2017-07-28T07:16:03Z</time>
      </trkpt>
      <trkpt lat="45.0371450" lon="7.0356820">
        <ele>1308.6</ele>
        <time>2017-07-28T07:16:08Z</time>
      </trkpt>
      <trkpt lat="45.0371520" lon="7.0355580">
        <ele>1309.8</ele>
        <time>2017-07-28T07:16:13Z</time>
      </trkpt>
      <trkpt lat="45.0371660" lon="7.0354850">
        <ele>1310.6</ele>
        <time>2017-07-28T07:16:16Z</time>
      </trkpt>
      <trkpt lat="45.0371690" lon="7.0354580">
        <ele>1310.8</ele>
        <time>2017-07-28T07:16:17Z</time>
      </trkpt>
      <trkpt lat="45.0372180" lon="7.0351890">
        <ele>1313.6</ele>
        <time>2017-07-28T07:16:30Z</time>
      </trkpt>
      <trkpt lat="45.0372670" lon="7.0349300">
        <ele>1315.6</ele>
        <time>2017-07-28T07:16:42Z</time>
      </trkpt>
      <trkpt lat="45.0372730" lon="7.0349000">
        <ele>1315.8</ele>
        <time>2017-07-28T07:16:43Z</time>
      </trkpt>
      <trkpt lat="45.0373100" lon="7.0347850">
        <ele>1316.8</ele>
        <time>2017-07-28T07:16:47Z</time>
      </trkpt>
      <trkpt lat="45.0373320" lon="7.0346930">
        <ele>1317.6</ele>
        <time>2017-07-28T07:16:50Z</time>
      </trkpt>
      <trkpt lat="45.0373380" lon="7.0346620">
        <ele>1317.8</ele>
        <time>2017-07-28T07:16:51Z</time>
      </trkpt>
      <trkpt lat="45.0373630" lon="7.0345700">
        <ele>1318.8</ele>
        <time>2017-07-28T07:16:54Z</time>
      </trkpt>
      <trkpt lat="45.0373690" lon="7.0345350">
        <ele>1319.0</ele>
        <time>2017-07-28T07:16:55Z</time>
      </trkpt>
      <trkpt lat="45.0373830" lon="7.0344400">
        <ele>1320.2</ele>
        <time>2017-07-28T07:16:58Z</time>
      </trkpt>
      <trkpt lat="45.0374060" lon="7.0343420">
        <ele>1321.4</ele>
        <time>2017-07-28T07:17:02Z</time>
      </trkpt>
      <trkpt lat="45.0374180" lon="7.0342950">
        <ele>1322.4</ele>
        <time>2017-07-28T07:17:04Z</time>
      </trkpt>
      <trkpt lat="45.0374390" lon="7.0342130">
        <ele>1323.6</ele>
        <time>2017-07-28T07:17:08Z</time>
      </trkpt>
      <trkpt lat="45.0374430" lon="7.0341930">
        <ele>1323.8</ele>
        <time>2017-07-28T07:17:09Z</time>
      </trkpt>
      <trkpt lat="45.0374600" lon="7.0341390">
        <ele>1325.0</ele>
        <time>2017-07-28T07:17:12Z</time>
      </trkpt>
      <trkpt lat="45.0374970" lon="7.0339560">
        <ele>1327.0</ele>
        <time>2017-07-28T07:17:21Z</time>
      </trkpt>
      <trkpt lat="45.0375040" lon="7.0339340">
        <ele>1327.2</ele>
        <time>2017-07-28T07:17:22Z</time>
      </trkpt>
      <trkpt lat="45.0375310" lon="7.0338660">
        <ele>1328.0</ele>
        <time>2017-07-28T07:17:26Z</time>
      </trkpt>
      <trkpt lat="45.0375420" lon="7.0338310">
        <ele>1328.6</ele>
        <time>2017-07-28T07:17:28Z</time>
      </trkpt>
      <trkpt lat="45.0375930" lon="7.0336010">
        <ele>1332.2</ele>
        <time>2017-07-28T07:17:40Z</time>
      </trkpt>
      <trkpt lat="45.0375980" lon="7.0335770">
        <ele>1332.6</ele>
        <time>2017-07-28T07:17:41Z</time>
      </trkpt>
      <trkpt lat="45.0376110" lon="7.0335170">
        <ele>1333.4</ele>
        <time>2017-07-28T07:17:43Z</time>
      </trkpt>
      <trkpt lat="45.0376240" lon="7.0333650">
        <ele>1334.4</ele>
        <time>2017-07-28T07:17:48Z</time>
      </trkpt>
      <trkpt lat="45.0376340" lon="7.0332530">
        <ele>1335.8</ele>
        <time>2017-07-28T07:17:52Z</time>
      </trkpt>
      <trkpt lat="45.0376300" lon="7.0332230">
        <ele>1336.2</ele>
        <time>2017-07-28T07:17:53Z</time>
      </trkpt>
      <trkpt lat="45.0376280" lon="7.0331270">
        <ele>1337.0</ele>
        <time>2017-07-28T07:17:57Z</time>
      </trkpt>
      <trkpt lat="45.0376380" lon="7.0330700">
        <ele>1337.4</ele>
        <time>2017-07-28T07:17:59Z</time>
      </trkpt>
      <trkpt lat="45.0376450" lon="7.0329770">
        <ele>1338.2</ele>
        <time>2017-07-28T07:18:02Z</time>
      </trkpt>
      <trkpt lat="45.0376820" lon="7.0328780">
        <ele>1339.0</ele>
        <time>2017-07-28T07:18:06Z</time>
      </trkpt>
      <trkpt lat="45.0376890" lon="7.0328610">
        <ele>1339.2</ele>
        <time>2017-07-28T07:18:07Z</time>
      </trkpt>
      <trkpt lat="45.0377370" lon="7.0327820">
        <ele>1340.4</ele>
        <time>2017-07-28T07:18:11Z</time>
      </trkpt>
      <trkpt lat="45.0377470" lon="7.0327610">
        <ele>1340.6</ele>
        <time>2017-07-28T07:18:12Z</time>
      </trkpt>
      <trkpt lat="45.0377710" lon="7.0327240">
        <ele>1341.0</ele>
        <time>2017-07-28T07:18:14Z</time>
      </trkpt>
      <trkpt lat="45.0377950" lon="7.0326950">
        <ele>1341.4</ele>
        <time>2017-07-28T07:18:16Z</time>
      </trkpt>
      <trkpt lat="45.0378360" lon="7.0326360">
        <ele>1342.6</ele>
        <time>2017-07-28T07:18:19Z</time>
      </trkpt>
      <trkpt lat="45.0378460" lon="7.0326240">
        <ele>1342.8</ele>
        <time>2017-07-28T07:18:20Z</time>
      </trkpt>
      <trkpt lat="45.0378920" lon="7.0325470">
        <ele>1343.8</ele>
        <time>2017-07-28T07:18:25Z</time>
      </trkpt>
      <trkpt lat="45.0379110" lon="7.0325130">
        <ele>1344.4</ele>
        <time>2017-07-28T07:18:27Z</time>
      </trkpt>
      <trkpt lat="45.0379390" lon="7.0324790">
        <ele>1344.8</ele>
        <time>2017-07-28T07:18:29Z</time>
      </trkpt>
      <trkpt lat="45.0380450" lon="7.0323610">
        <ele>1346.4</ele>
        <time>2017-07-28T07:18:38Z</time>
      </trkpt>
      <trkpt lat="45.0381170" lon="7.0322670">
        <ele>1347.6</ele>
        <time>2017-07-28T07:18:44Z</time>
      </trkpt>
      <trkpt lat="45.0381500" lon="7.0322310">
        <ele>1348.2</ele>
        <time>2017-07-28T07:18:47Z</time>
      </trkpt>
      <trkpt lat="45.0381890" lon="7.0322140">
        <ele>1348.6</ele>
        <time>2017-07-28T07:18:50Z</time>
      </trkpt>
      <trkpt lat="45.0382370" lon="7.0321780">
        <ele>1349.2</ele>
        <time>2017-07-28T07:18:53Z</time>
      </trkpt>
      <trkpt lat="45.0382660" lon="7.0321470">
        <ele>1349.6</ele>
        <time>2017-07-28T07:18:55Z</time>
      </trkpt>
      <trkpt lat="45.0382780" lon="7.0321350">
        <ele>1349.8</ele>
        <time>2017-07-28T07:18:56Z</time>
      </trkpt>
      <trkpt lat="45.0383020" lon="7.0321180">
        <ele>1350.2</ele>
        <time>2017-07-28T07:18:58Z</time>
      </trkpt>
      <trkpt lat="45.0384850" lon="7.0320100">
        <ele>1354.2</ele>
        <time>2017-07-28T07:19:13Z</time>
      </trkpt>
      <trkpt lat="45.0389030" lon="7.0307700">
        <ele>1379.2</ele>
        <time>2017-07-28T07:21:09Z</time>
      </trkpt>
      <trkpt lat="45.0389050" lon="7.0307490">
        <ele>1379.4</ele>
        <time>2017-07-28T07:21:10Z</time>
      </trkpt>
      <trkpt lat="45.0389270" lon="7.0306560">
        <ele>1380.4</ele>
        <time>2017-07-28T07:21:14Z</time>
      </trkpt>
      <trkpt lat="45.0389310" lon="7.0306100">
        <ele>1380.8</ele>
        <time>2017-07-28T07:21:16Z</time>
      </trkpt>
      <trkpt lat="45.0389470" lon="7.0305400">
        <ele>1381.4</ele>
        <time>2017-07-28T07:21:19Z</time>
      </trkpt>
      <trkpt lat="45.0389560" lon="7.0304630">
        <ele>1380.4</ele>
        <time>2017-07-28T07:21:22Z</time>
      </trkpt>
      <trkpt lat="45.0389610" lon="7.0304390">
        <ele>1381.6</ele>
        <time>2017-07-28T07:21:23Z</time>
      </trkpt>
      <trkpt lat="45.0389610" lon="7.0303870">
        <ele>1383.0</ele>
        <time>2017-07-28T07:21:25Z</time>
      </trkpt>
      <trkpt lat="45.0389780" lon="7.0302840">
        <ele>1384.2</ele>
        <time>2017-07-28T07:21:29Z</time>
      </trkpt>
      <trkpt lat="45.0389840" lon="7.0302590">
        <ele>1384.4</ele>
        <time>2017-07-28T07:21:30Z</time>
      </trkpt>
      <trkpt lat="45.0389590" lon="7.0300840">
        <ele>1385.2</ele>
        <time>2017-07-28T07:21:35Z</time>
      </trkpt>
      <trkpt lat="45.0388360" lon="7.0297920">
        <ele>1385.0</ele>
        <time>2017-07-28T07:21:39Z</time>
      </trkpt>
      <trkpt lat="45.0387510" lon="7.0295810">
        <ele>1384.8</ele>
        <time>2017-07-28T07:21:41Z</time>
      </trkpt>
      <trkpt lat="45.0386520" lon="7.0293710">
        <ele>1384.4</ele>
        <time>2017-07-28T07:21:43Z</time>
      </trkpt>
      <trkpt lat="45.0385890" lon="7.0292860">
        <ele>1384.0</ele>
        <time>2017-07-28T07:21:44Z</time>
      </trkpt>
      <trkpt lat="45.0383770" lon="7.0290050">
        <ele>1383.6</ele>
        <time>2017-07-28T07:21:47Z</time>
      </trkpt>
      <trkpt lat="45.0382480" lon="7.0288050">
        <ele>1383.0</ele>
        <time>2017-07-28T07:21:49Z</time>
      </trkpt>
      <trkpt lat="45.0381920" lon="7.0286950">
        <ele>1382.6</ele>
        <time>2017-07-28T07:21:50Z</time>
      </trkpt>
      <trkpt lat="45.0380910" lon="7.0284750">
        <ele>1382.2</ele>
        <time>2017-07-28T07:21:52Z</time>
      </trkpt>
      <trkpt lat="45.0379510" lon="7.0281780">
        <ele>1381.6</ele>
        <time>2017-07-28T07:21:55Z</time>
      </trkpt>
      <trkpt lat="45.0378550" lon="7.0280000">
        <ele>1381.2</ele>
        <time>2017-07-28T07:21:57Z</time>
      </trkpt>
      <trkpt lat="45.0377990" lon="7.0279190">
        <ele>1381.0</ele>
        <time>2017-07-28T07:21:58Z</time>
      </trkpt>
      <trkpt lat="45.0376430" lon="7.0276920">
        <ele>1380.2</ele>
        <time>2017-07-28T07:22:01Z</time>
      </trkpt>
      <trkpt lat="45.0376130" lon="7.0276220">
        <ele>1379.6</ele>
        <time>2017-07-28T07:22:02Z</time>
      </trkpt>
      <trkpt lat="45.0376020" lon="7.0275040">
        <ele>1379.0</ele>
        <time>2017-07-28T07:22:04Z</time>
      </trkpt>
      <trkpt lat="45.0377040" lon="7.0274200">
        <ele>1378.0</ele>
        <time>2017-07-28T07:22:07Z</time>
      </trkpt>
      <trkpt lat="45.0377550" lon="7.0274150">
        <ele>1377.8</ele>
        <time>2017-07-28T07:22:08Z</time>
      </trkpt>
      <trkpt lat="45.0378040" lon="7.0274130">
        <ele>1377.6</ele>
        <time>2017-07-28T07:22:09Z</time>
      </trkpt>
      <trkpt lat="45.0379140" lon="7.0274090">
        <ele>1377.8</ele>
        <time>2017-07-28T07:22:12Z</time>
      </trkpt>
      <trkpt lat="45.0380390" lon="7.0274180">
        <ele>1378.0</ele>
        <time>2017-07-28T07:22:17Z</time>
      </trkpt>
      <trkpt lat="45.0380650" lon="7.0274250">
        <ele>1378.0</ele>
        <time>2017-07-28T07:22:18Z</time>
      </trkpt>
      <trkpt lat="45.0381750" lon="7.0274430">
        <ele>1378.4</ele>
        <time>2017-07-28T07:22:25Z</time>
      </trkpt>
      <trkpt lat="45.0381910" lon="7.0274310">
        <ele>1378.6</ele>
        <time>2017-07-28T07:22:26Z</time>
      </trkpt>
      <trkpt lat="45.0382510" lon="7.0274180">
        <ele>1378.8</ele>
        <time>2017-07-28T07:22:29Z</time>
      </trkpt>
      <trkpt lat="45.0382690" lon="7.0274100">
        <ele>1379.0</ele>
        <time>2017-07-28T07:22:30Z</time>
      </trkpt>
      <trkpt lat="45.0382860" lon="7.0274030">
        <ele>1379.2</ele>
        <time>2017-07-28T07:22:31Z</time>
      </trkpt>
      <trkpt lat="45.0384950" lon="7.0273950">
        <ele>1382.8</ele>
        <time>2017-07-28T07:22:48Z</time>
      </trkpt>
      <trkpt lat="45.0385180" lon="7.0273840">
        <ele>1383.0</ele>
        <time>2017-07-28T07:22:49Z</time>
      </trkpt>
      <trkpt lat="45.0385980" lon="7.0273470">
        <ele>1384.0</ele>
        <time>2017-07-28T07:22:53Z</time>
      </trkpt>
      <trkpt lat="45.0386430" lon="7.0273100">
        <ele>1384.6</ele>
        <time>2017-07-28T07:22:56Z</time>
      </trkpt>
      <trkpt lat="45.0386550" lon="7.0272960">
        <ele>1385.0</ele>
        <time>2017-07-28T07:22:57Z</time>
      </trkpt>
      <trkpt lat="45.0387330" lon="7.0272600">
        <ele>1386.2</ele>
        <time>2017-07-28T07:23:02Z</time>
      </trkpt>
      <trkpt lat="45.0387480" lon="7.0272470">
        <ele>1386.4</ele>
        <time>2017-07-28T07:23:03Z</time>
      </trkpt>
      <trkpt lat="45.0387710" lon="7.0272200">
        <ele>1387.4</ele>
        <time>2017-07-28T07:23:05Z</time>
      </trkpt>
      <trkpt lat="45.0388250" lon="7.0271670">
        <ele>1388.4</ele>
        <time>2017-07-28T07:23:08Z</time>
      </trkpt>
      <trkpt lat="45.0388460" lon="7.0271490">
        <ele>1388.4</ele>
        <time>2017-07-28T07:23:09Z</time>
      </trkpt>
      <trkpt lat="45.0389820" lon="7.0270010">
        <ele>1389.2</ele>
        <time>2017-07-28T07:23:17Z</time>
      </trkpt>
      <trkpt lat="45.0390020" lon="7.0269450">
        <ele>1389.6</ele>
        <time>2017-07-28T07:23:19Z</time>
      </trkpt>
      <trkpt lat="45.0390630" lon="7.0268050">
        <ele>1390.8</ele>
        <time>2017-07-28T07:23:24Z</time>
      </trkpt>
      <trkpt lat="45.0390760" lon="7.0267800">
        <ele>1391.2</ele>
        <time>2017-07-28T07:23:25Z</time>
      </trkpt>
      <trkpt lat="45.0391030" lon="7.0267050">
        <ele>1392.0</ele>
        <time>2017-07-28T07:23:28Z</time>
      </trkpt>
      <trkpt lat="45.0391300" lon="7.0266360">
        <ele>1393.0</ele>
        <time>2017-07-28T07:23:31Z</time>
      </trkpt>
      <trkpt lat="45.0391430" lon="7.0266140">
        <ele>1393.4</ele>
        <time>2017-07-28T07:23:32Z</time>
      </trkpt>
      <trkpt lat="45.0391890" lon="7.0265500">
        <ele>1394.2</ele>
        <time>2017-07-28T07:23:35Z</time>
      </trkpt>
      <trkpt lat="45.0392430" lon="7.0264630">
        <ele>1395.2</ele>
        <time>2017-07-28T07:23:39Z</time>
      </trkpt>
      <trkpt lat="45.0392670" lon="7.0264490">
        <ele>1395.6</ele>
        <time>2017-07-28T07:23:40Z</time>
      </trkpt>
      <trkpt lat="45.0393240" lon="7.0263770">
        <ele>1396.4</ele>
        <time>2017-07-28T07:23:44Z</time>
      </trkpt>
      <trkpt lat="45.0393370" lon="7.0263610">
        <ele>1396.8</ele>
        <time>2017-07-28T07:23:45Z</time>
      </trkpt>
      <trkpt lat="45.0393730" lon="7.0263150">
        <ele>1397.8</ele>
        <time>2017-07-28T07:23:48Z</time>
      </trkpt>
      <trkpt lat="45.0394370" lon="7.0262620">
        <ele>1399.0</ele>
        <time>2017-07-28T07:23:52Z</time>
      </trkpt>
      <trkpt lat="45.0394790" lon="7.0262390">
        <ele>1400.2</ele>
        <time>2017-07-28T07:23:55Z</time>
      </trkpt>
      <trkpt lat="45.0395050" lon="7.0262010">
        <ele>1400.8</ele>
        <time>2017-07-28T07:23:57Z</time>
      </trkpt>
      <trkpt lat="45.0395140" lon="7.0261820">
        <ele>1401.2</ele>
        <time>2017-07-28T07:23:58Z</time>
      </trkpt>
      <trkpt lat="45.0395240" lon="7.0261640">
        <ele>1401.8</ele>
        <time>2017-07-28T07:23:59Z</time>
      </trkpt>
      <trkpt lat="45.0395510" lon="7.0261140">
        <ele>1402.4</ele>
        <time>2017-07-28T07:24:02Z</time>
      </trkpt>
      <trkpt lat="45.0395670" lon="7.0260630">
        <ele>1403.0</ele>
        <time>2017-07-28T07:24:04Z</time>
      </trkpt>
      <trkpt lat="45.0395860" lon="7.0260210">
        <ele>1403.4</ele>
        <time>2017-07-28T07:24:06Z</time>
      </trkpt>
      <trkpt lat="45.0396570" lon="7.0259340">
        <ele>1404.6</ele>
        <time>2017-07-28T07:24:11Z</time>
      </trkpt>
      <trkpt lat="45.0397120" lon="7.0258900">
        <ele>1405.6</ele>
        <time>2017-07-28T07:24:15Z</time>
      </trkpt>
      <trkpt lat="45.0397470" lon="7.0258770">
        <ele>1406.4</ele>
        <time>2017-07-28T07:24:17Z</time>
      </trkpt>
      <trkpt lat="45.0397900" lon="7.0258560">
        <ele>1406.8</ele>
        <time>2017-07-28T07:24:19Z</time>
      </trkpt>
      <trkpt lat="45.0399270" lon="7.0257540">
        <ele>1407.4</ele>
        <time>2017-07-28T07:24:24Z</time>
      </trkpt>
      <trkpt lat="45.0401150" lon="7.0255810">
        <ele>1407.6</ele>
        <time>2017-07-28T07:24:29Z</time>
      </trkpt>
      <trkpt lat="45.0401550" lon="7.0255570">
        <ele>1407.8</ele>
        <time>2017-07-28T07:24:30Z</time>
      </trkpt>
      <trkpt lat="45.0403450" lon="7.0254370">
        <ele>1407.0</ele>
        <time>2017-07-28T07:24:34Z</time>
      </trkpt>
      <trkpt lat="45.0404050" lon="7.0254080">
        <ele>1407.0</ele>
        <time>2017-07-28T07:24:35Z</time>
      </trkpt>
      <trkpt lat="45.0405980" lon="7.0252850">
        <ele>1406.6</ele>
        <time>2017-07-28T07:24:38Z</time>
      </trkpt>
      <trkpt lat="45.0406600" lon="7.0252260">
        <ele>1406.4</ele>
        <time>2017-07-28T07:24:39Z</time>
      </trkpt>
      <trkpt lat="45.0407170" lon="7.0251600">
        <ele>1406.2</ele>
        <time>2017-07-28T07:24:40Z</time>
      </trkpt>
      <trkpt lat="45.0408250" lon="7.0250190">
        <ele>1405.8</ele>
        <time>2017-07-28T07:24:42Z</time>
      </trkpt>
      <trkpt lat="45.0408760" lon="7.0249470">
        <ele>1405.6</ele>
        <time>2017-07-28T07:24:43Z</time>
      </trkpt>
      <trkpt lat="45.0409700" lon="7.0248000">
        <ele>1405.2</ele>
        <time>2017-07-28T07:24:45Z</time>
      </trkpt>
      <trkpt lat="45.0410060" lon="7.0247160">
        <ele>1405.0</ele>
        <time>2017-07-28T07:24:46Z</time>
      </trkpt>
      <trkpt lat="45.0410650" lon="7.0245320">
        <ele>1404.6</ele>
        <time>2017-07-28T07:24:48Z</time>
      </trkpt>
      <trkpt lat="45.0411300" lon="7.0242260">
        <ele>1404.0</ele>
        <time>2017-07-28T07:24:51Z</time>
      </trkpt>
      <trkpt lat="45.0411680" lon="7.0238960">
        <ele>1403.6</ele>
        <time>2017-07-28T07:24:54Z</time>
      </trkpt>
      <trkpt lat="45.0411760" lon="7.0237820">
        <ele>1403.2</ele>
        <time>2017-07-28T07:24:55Z</time>
      </trkpt>
      <trkpt lat="45.0411790" lon="7.0236720">
        <ele>1402.8</ele>
        <time>2017-07-28T07:24:56Z</time>
      </trkpt>
      <trkpt lat="45.0411960" lon="7.0234460">
        <ele>1402.0</ele>
        <time>2017-07-28T07:24:58Z</time>
      </trkpt>
      <trkpt lat="45.0412340" lon="7.0230890">
        <ele>1401.2</ele>
        <time>2017-07-28T07:25:01Z</time>
      </trkpt>
      <trkpt lat="45.0412470" lon="7.0229680">
        <ele>1400.8</ele>
        <time>2017-07-28T07:25:02Z</time>
      </trkpt>
      <trkpt lat="45.0412700" lon="7.0226080">
        <ele>1399.0</ele>
        <time>2017-07-28T07:25:05Z</time>
      </trkpt>
      <trkpt lat="45.0412890" lon="7.0222620">
        <ele>1398.2</ele>
        <time>2017-07-28T07:25:08Z</time>
      </trkpt>
      <trkpt lat="45.0413070" lon="7.0221540">
        <ele>1398.0</ele>
        <time>2017-07-28T07:25:09Z</time>
      </trkpt>
      <trkpt lat="45.0413400" lon="7.0220540">
        <ele>1397.8</ele>
        <time>2017-07-28T07:25:10Z</time>
      </trkpt>
      <trkpt lat="45.0413760" lon="7.0219460">
        <ele>1397.8</ele>
        <time>2017-07-28T07:25:11Z</time>
      </trkpt>
      <trkpt lat="45.0415790" lon="7.0215220">
        <ele>1396.8</ele>
        <time>2017-07-28T07:25:15Z</time>
      </trkpt>
      <trkpt lat="45.0417390" lon="7.0212410">
        <ele>1396.2</ele>
        <time>2017-07-28T07:25:18Z</time>
      </trkpt>
      <trkpt lat="45.0418150" lon="7.0210680">
        <ele>1395.6</ele>
        <time>2017-07-28T07:25:20Z</time>
      </trkpt>
      <trkpt lat="45.0418580" lon="7.0208970">
        <ele>1395.2</ele>
        <time>2017-07-28T07:25:22Z</time>
      </trkpt>
      <trkpt lat="45.0418660" lon="7.0208080">
        <ele>1395.0</ele>
        <time>2017-07-28T07:25:23Z</time>
      </trkpt>
      <trkpt lat="45.0418700" lon="7.0207170">
        <ele>1394.8</ele>
        <time>2017-07-28T07:25:24Z</time>
      </trkpt>
      <trkpt lat="45.0418720" lon="7.0206240">
        <ele>1394.6</ele>
        <time>2017-07-28T07:25:25Z</time>
      </trkpt>
      <trkpt lat="45.0418960" lon="7.0202900">
        <ele>1394.2</ele>
        <time>2017-07-28T07:25:29Z</time>
      </trkpt>
      <trkpt lat="45.0419420" lon="7.0201290">
        <ele>1394.6</ele>
        <time>2017-07-28T07:25:32Z</time>
      </trkpt>
      <trkpt lat="45.0419770" lon="7.0200480">
        <ele>1395.0</ele>
        <time>2017-07-28T07:25:34Z</time>
      </trkpt>
      <trkpt lat="45.0420290" lon="7.0199670">
        <ele>1395.4</ele>
        <time>2017-07-28T07:25:36Z</time>
      </trkpt>
      <trkpt lat="45.0420940" lon="7.0198790">
        <ele>1395.6</ele>
        <time>2017-07-28T07:25:38Z</time>
      </trkpt>
      <trkpt lat="45.0421300" lon="7.0198390">
        <ele>1395.8</ele>
        <time>2017-07-28T07:25:39Z</time>
      </trkpt>
      <trkpt lat="45.0422370" lon="7.0197400">
        <ele>1396.4</ele>
        <time>2017-07-28T07:25:42Z</time>
      </trkpt>
      <trkpt lat="45.0422680" lon="7.0197120">
        <ele>1396.6</ele>
        <time>2017-07-28T07:25:43Z</time>
      </trkpt>
      <trkpt lat="45.0423290" lon="7.0196650">
        <ele>1397.2</ele>
        <time>2017-07-28T07:25:45Z</time>
      </trkpt>
      <trkpt lat="45.0424520" lon="7.0195610">
        <ele>1398.0</ele>
        <time>2017-07-28T07:25:49Z</time>
      </trkpt>
      <trkpt lat="45.0425340" lon="7.0194770">
        <ele>1399.0</ele>
        <time>2017-07-28T07:25:52Z</time>
      </trkpt>
      <trkpt lat="45.0426230" lon="7.0193950">
        <ele>1399.8</ele>
        <time>2017-07-28T07:25:55Z</time>
      </trkpt>
      <trkpt lat="45.0426570" lon="7.0193620">
        <ele>1400.0</ele>
        <time>2017-07-28T07:25:56Z</time>
      </trkpt>
      <trkpt lat="45.0427500" lon="7.0192470">
        <ele>1400.6</ele>
        <time>2017-07-28T07:25:59Z</time>
      </trkpt>
      <trkpt lat="45.0428040" lon="7.0191410">
        <ele>1400.8</ele>
        <time>2017-07-28T07:26:01Z</time>
      </trkpt>
      <trkpt lat="45.0429180" lon="7.0189060">
        <ele>1400.8</ele>
        <time>2017-07-28T07:26:05Z</time>
      </trkpt>
      <trkpt lat="45.0430940" lon="7.0186300">
        <ele>1400.8</ele>
        <time>2017-07-28T07:26:10Z</time>
      </trkpt>
      <trkpt lat="45.0431280" lon="7.0185830">
        <ele>1401.0</ele>
        <time>2017-07-28T07:26:11Z</time>
      </trkpt>
      <trkpt lat="45.0431610" lon="7.0185380">
        <ele>1401.0</ele>
        <time>2017-07-28T07:26:12Z</time>
      </trkpt>
      <trkpt lat="45.0432050" lon="7.0184420">
        <ele>1401.4</ele>
        <time>2017-07-28T07:26:14Z</time>
      </trkpt>
      <trkpt lat="45.0432380" lon="7.0183570">
        <ele>1402.0</ele>
        <time>2017-07-28T07:26:16Z</time>
      </trkpt>
      <trkpt lat="45.0432580" lon="7.0183120">
        <ele>1402.2</ele>
        <time>2017-07-28T07:26:17Z</time>
      </trkpt>
      <trkpt lat="45.0433010" lon="7.0181180">
        <ele>1403.2</ele>
        <time>2017-07-28T07:26:21Z</time>
      </trkpt>
      <trkpt lat="45.0433050" lon="7.0179690">
        <ele>1404.2</ele>
        <time>2017-07-28T07:26:25Z</time>
      </trkpt>
      <trkpt lat="45.0433050" lon="7.0179360">
        <ele>1404.4</ele>
        <time>2017-07-28T07:26:26Z</time>
      </trkpt>
      <trkpt lat="45.0433090" lon="7.0178810">
        <ele>1405.2</ele>
        <time>2017-07-28T07:26:28Z</time>
      </trkpt>
      <trkpt lat="45.0433080" lon="7.0178480">
        <ele>1405.6</ele>
        <time>2017-07-28T07:26:29Z</time>
      </trkpt>
      <trkpt lat="45.0433100" lon="7.0177350">
        <ele>1407.0</ele>
        <time>2017-07-28T07:26:33Z</time>
      </trkpt>
      <trkpt lat="45.0433070" lon="7.0177060">
        <ele>1407.4</ele>
        <time>2017-07-28T07:26:34Z</time>
      </trkpt>
      <trkpt lat="45.0432990" lon="7.0176280">
        <ele>1408.4</ele>
        <time>2017-07-28T07:26:37Z</time>
      </trkpt>
      <trkpt lat="45.0433000" lon="7.0175520">
        <ele>1409.6</ele>
        <time>2017-07-28T07:26:40Z</time>
      </trkpt>
      <trkpt lat="45.0433030" lon="7.0175010">
        <ele>1410.6</ele>
        <time>2017-07-28T07:26:42Z</time>
      </trkpt>
      <trkpt lat="45.0433040" lon="7.0174780">
        <ele>1411.0</ele>
        <time>2017-07-28T07:26:43Z</time>
      </trkpt>
      <trkpt lat="45.0433040" lon="7.0174120">
        <ele>1412.0</ele>
        <time>2017-07-28T07:26:46Z</time>
      </trkpt>
      <trkpt lat="45.0433050" lon="7.0173380">
        <ele>1413.2</ele>
        <time>2017-07-28T07:26:49Z</time>
      </trkpt>
      <trkpt lat="45.0433160" lon="7.0172600">
        <ele>1414.4</ele>
        <time>2017-07-28T07:26:52Z</time>
      </trkpt>
      <trkpt lat="45.0433400" lon="7.0171690">
        <ele>1415.2</ele>
        <time>2017-07-28T07:26:55Z</time>
      </trkpt>
      <trkpt lat="45.0433480" lon="7.0171360">
        <ele>1415.4</ele>
        <time>2017-07-28T07:26:56Z</time>
      </trkpt>
      <trkpt lat="45.0433930" lon="7.0169920">
        <ele>1416.6</ele>
        <time>2017-07-28T07:27:01Z</time>
      </trkpt>
      <trkpt lat="45.0434340" lon="7.0168820">
        <ele>1417.8</ele>
        <time>2017-07-28T07:27:05Z</time>
      </trkpt>
      <trkpt lat="45.0434420" lon="7.0168580">
        <ele>1418.0</ele>
        <time>2017-07-28T07:27:06Z</time>
      </trkpt>
      <trkpt lat="45.0435110" lon="7.0167330">
        <ele>1419.0</ele>
        <time>2017-07-28T07:27:10Z</time>
      </trkpt>
      <trkpt lat="45.0435310" lon="7.0167070">
        <ele>1419.4</ele>
        <time>2017-07-28T07:27:11Z</time>
      </trkpt>
      <trkpt lat="45.0436380" lon="7.0165950">
        <ele>1420.4</ele>
        <time>2017-07-28T07:27:15Z</time>
      </trkpt>
      <trkpt lat="45.0436930" lon="7.0165310">
        <ele>1421.0</ele>
        <time>2017-07-28T07:27:17Z</time>
      </trkpt>
      <trkpt lat="45.0437170" lon="7.0164970">
        <ele>1421.4</ele>
        <time>2017-07-28T07:27:18Z</time>
      </trkpt>
      <trkpt lat="45.0438530" lon="7.0162990">
        <ele>1422.4</ele>
        <time>2017-07-28T07:27:23Z</time>
      </trkpt>
      <trkpt lat="45.0439000" lon="7.0162290">
        <ele>1422.8</ele>
        <time>2017-07-28T07:27:25Z</time>
      </trkpt>
      <trkpt lat="45.0439590" lon="7.0161300">
        <ele>1423.4</ele>
        <time>2017-07-28T07:27:28Z</time>
      </trkpt>
      <trkpt lat="45.0440310" lon="7.0159800">
        <ele>1424.6</ele>
        <time>2017-07-28T07:27:32Z</time>
      </trkpt>
      <trkpt lat="45.0440480" lon="7.0159360">
        <ele>1424.8</ele>
        <time>2017-07-28T07:27:33Z</time>
      </trkpt>
      <trkpt lat="45.0440790" lon="7.0158090">
        <ele>1425.6</ele>
        <time>2017-07-28T07:27:37Z</time>
      </trkpt>
      <trkpt lat="45.0440900" lon="7.0157570">
        <ele>1426.4</ele>
        <time>2017-07-28T07:27:39Z</time>
      </trkpt>
      <trkpt lat="45.0440960" lon="7.0157050">
        <ele>1427.0</ele>
        <time>2017-07-28T07:27:41Z</time>
      </trkpt>
      <trkpt lat="45.0440980" lon="7.0156210">
        <ele>1428.0</ele>
        <time>2017-07-28T07:27:44Z</time>
      </trkpt>
      <trkpt lat="45.0441180" lon="7.0155490">
        <ele>1429.0</ele>
        <time>2017-07-28T07:27:47Z</time>
      </trkpt>
      <trkpt lat="45.0441230" lon="7.0154370">
        <ele>1430.4</ele>
        <time>2017-07-28T07:27:51Z</time>
      </trkpt>
      <trkpt lat="45.0441140" lon="7.0153820">
        <ele>1431.6</ele>
        <time>2017-07-28T07:27:53Z</time>
      </trkpt>
      <trkpt lat="45.0441220" lon="7.0152860">
        <ele>1432.6</ele>
        <time>2017-07-28T07:27:57Z</time>
      </trkpt>
      <trkpt lat="45.0441290" lon="7.0152390">
        <ele>1433.2</ele>
        <time>2017-07-28T07:27:59Z</time>
      </trkpt>
      <trkpt lat="45.0441370" lon="7.0151880">
        <ele>1433.8</ele>
        <time>2017-07-28T07:28:01Z</time>
      </trkpt>
      <trkpt lat="45.0441370" lon="7.0150840">
        <ele>1435.0</ele>
        <time>2017-07-28T07:28:05Z</time>
      </trkpt>
      <trkpt lat="45.0441380" lon="7.0150320">
        <ele>1435.4</ele>
        <time>2017-07-28T07:28:07Z</time>
      </trkpt>
      <trkpt lat="45.0441370" lon="7.0149870">
        <ele>1436.0</ele>
        <time>2017-07-28T07:28:09Z</time>
      </trkpt>
      <trkpt lat="45.0441350" lon="7.0149030">
        <ele>1437.4</ele>
        <time>2017-07-28T07:28:13Z</time>
      </trkpt>
      <trkpt lat="45.0441350" lon="7.0148800">
        <ele>1437.6</ele>
        <time>2017-07-28T07:28:14Z</time>
      </trkpt>
      <trkpt lat="45.0441350" lon="7.0148070">
        <ele>1439.0</ele>
        <time>2017-07-28T07:28:17Z</time>
      </trkpt>
      <trkpt lat="45.0441440" lon="7.0147330">
        <ele>1440.2</ele>
        <time>2017-07-28T07:28:21Z</time>
      </trkpt>
      <trkpt lat="45.0441340" lon="7.0147200">
        <ele>1440.4</ele>
        <time>2017-07-28T07:28:22Z</time>
      </trkpt>
      <trkpt lat="45.0440720" lon="7.0147220">
        <ele>1440.6</ele>
        <time>2017-07-28T07:28:26Z</time>
      </trkpt>
      <trkpt lat="45.0440140" lon="7.0148190">
        <ele>1441.2</ele>
        <time>2017-07-28T07:28:31Z</time>
      </trkpt>
      <trkpt lat="45.0439900" lon="7.0148610">
        <ele>1441.6</ele>
        <time>2017-07-28T07:28:33Z</time>
      </trkpt>
      <trkpt lat="45.0439610" lon="7.0149160">
        <ele>1442.4</ele>
        <time>2017-07-28T07:28:36Z</time>
      </trkpt>
      <trkpt lat="45.0439090" lon="7.0149930">
        <ele>1443.6</ele>
        <time>2017-07-28T07:28:40Z</time>
      </trkpt>
      <trkpt lat="45.0438920" lon="7.0150030">
        <ele>1444.0</ele>
        <time>2017-07-28T07:28:41Z</time>
      </trkpt>
      <trkpt lat="45.0438000" lon="7.0150880">
        <ele>1444.6</ele>
        <time>2017-07-28T07:28:46Z</time>
      </trkpt>
      <trkpt lat="45.0437560" lon="7.0151230">
        <ele>1444.6</ele>
        <time>2017-07-28T07:28:48Z</time>
      </trkpt>
      <trkpt lat="45.0436830" lon="7.0151770">
        <ele>1445.8</ele>
        <time>2017-07-28T07:28:52Z</time>
      </trkpt>
      <trkpt lat="45.0436660" lon="7.0151920">
        <ele>1446.0</ele>
        <time>2017-07-28T07:28:53Z</time>
      </trkpt>
      <trkpt lat="45.0436180" lon="7.0152410">
        <ele>1447.0</ele>
        <time>2017-07-28T07:28:56Z</time>
      </trkpt>
      <trkpt lat="45.0435660" lon="7.0153000">
        <ele>1448.2</ele>
        <time>2017-07-28T07:28:59Z</time>
      </trkpt>
      <trkpt lat="45.0435290" lon="7.0153450">
        <ele>1448.8</ele>
        <time>2017-07-28T07:29:01Z</time>
      </trkpt>
      <trkpt lat="45.0434950" lon="7.0153890">
        <ele>1449.2</ele>
        <time>2017-07-28T07:29:03Z</time>
      </trkpt>
      <trkpt lat="45.0434320" lon="7.0154540">
        <ele>1450.0</ele>
        <time>2017-07-28T07:29:06Z</time>
      </trkpt>
      <trkpt lat="45.0433950" lon="7.0155150">
        <ele>1450.2</ele>
        <time>2017-07-28T07:29:08Z</time>
      </trkpt>
      <trkpt lat="45.0433250" lon="7.0156540">
        <ele>1451.0</ele>
        <time>2017-07-28T07:29:12Z</time>
      </trkpt>
      <trkpt lat="45.0433020" lon="7.0156770">
        <ele>1451.2</ele>
        <time>2017-07-28T07:29:13Z</time>
      </trkpt>
      <trkpt lat="45.0432360" lon="7.0157340">
        <ele>1452.4</ele>
        <time>2017-07-28T07:29:17Z</time>
      </trkpt>
      <trkpt lat="45.0432190" lon="7.0157400">
        <ele>1452.8</ele>
        <time>2017-07-28T07:29:18Z</time>
      </trkpt>
      <trkpt lat="45.0431850" lon="7.0157280">
        <ele>1453.6</ele>
        <time>2017-07-28T07:29:21Z</time>
      </trkpt>
      <trkpt lat="45.0431660" lon="7.0157000">
        <ele>1454.4</ele>
        <time>2017-07-28T07:29:23Z</time>
      </trkpt>
      <trkpt lat="45.0431670" lon="7.0156850">
        <ele>1454.8</ele>
        <time>2017-07-28T07:29:24Z</time>
      </trkpt>
      <trkpt lat="45.0431760" lon="7.0156520">
        <ele>1455.6</ele>
        <time>2017-07-28T07:29:26Z</time>
      </trkpt>
      <trkpt lat="45.0431830" lon="7.0156370">
        <ele>1456.0</ele>
        <time>2017-07-28T07:29:27Z</time>
      </trkpt>
      <trkpt lat="45.0431930" lon="7.0156200">
        <ele>1456.2</ele>
        <time>2017-07-28T07:29:28Z</time>
      </trkpt>
      <trkpt lat="45.0432160" lon="7.0155840">
        <ele>1457.4</ele>
        <time>2017-07-28T07:29:30Z</time>
      </trkpt>
      <trkpt lat="45.0432460" lon="7.0155200">
        <ele>1458.6</ele>
        <time>2017-07-28T07:29:33Z</time>
      </trkpt>
      <trkpt lat="45.0432650" lon="7.0154710">
        <ele>1459.6</ele>
        <time>2017-07-28T07:29:35Z</time>
      </trkpt>
      <trkpt lat="45.0432690" lon="7.0154470">
        <ele>1460.0</ele>
        <time>2017-07-28T07:29:36Z</time>
      </trkpt>
      <trkpt lat="45.0432620" lon="7.0154250">
        <ele>1460.2</ele>
        <time>2017-07-28T07:29:37Z</time>
      </trkpt>
      <trkpt lat="45.0432410" lon="7.0154210">
        <ele>1460.8</ele>
        <time>2017-07-28T07:29:39Z</time>
      </trkpt>
      <trkpt lat="45.0432300" lon="7.0154300">
        <ele>1461.2</ele>
        <time>2017-07-28T07:29:40Z</time>
      </trkpt>
      <trkpt lat="45.0431960" lon="7.0154580">
        <ele>1462.2</ele>
        <time>2017-07-28T07:29:43Z</time>
      </trkpt>
      <trkpt lat="45.0431870" lon="7.0154690">
        <ele>1462.6</ele>
        <time>2017-07-28T07:29:44Z</time>
      </trkpt>
      <trkpt lat="45.0431820" lon="7.0154690">
        <ele>1463.0</ele>
        <time>2017-07-28T07:29:45Z</time>
      </trkpt>
      <trkpt lat="45.0431640" lon="7.0154720">
        <ele>1463.4</ele>
        <time>2017-07-28T07:29:47Z</time>
      </trkpt>
      <trkpt lat="45.0431280" lon="7.0154710">
        <ele>1464.0</ele>
        <time>2017-07-28T07:29:49Z</time>
      </trkpt>
      <trkpt lat="45.0431070" lon="7.0154840">
        <ele>1464.2</ele>
        <time>2017-07-28T07:29:50Z</time>
      </trkpt>
      <trkpt lat="45.0430350" lon="7.0155420">
        <ele>1464.4</ele>
        <time>2017-07-28T07:29:52Z</time>
      </trkpt>
      <trkpt lat="45.0430030" lon="7.0155670">
        <ele>1464.6</ele>
        <time>2017-07-28T07:29:53Z</time>
      </trkpt>
      <trkpt lat="45.0429110" lon="7.0156540">
        <ele>1465.6</ele>
        <time>2017-07-28T07:29:57Z</time>
      </trkpt>
      <trkpt lat="45.0428650" lon="7.0157170">
        <ele>1466.2</ele>
        <time>2017-07-28T07:30:00Z</time>
      </trkpt>
      <trkpt lat="45.0428380" lon="7.0157410">
        <ele>1466.6</ele>
        <time>2017-07-28T07:30:02Z</time>
      </trkpt>
      <trkpt lat="45.0428140" lon="7.0157040">
        <ele>1467.2</ele>
        <time>2017-07-28T07:30:05Z</time>
      </trkpt>
      <trkpt lat="45.0428130" lon="7.0156850">
        <ele>1467.6</ele>
        <time>2017-07-28T07:30:06Z</time>
      </trkpt>
      <trkpt lat="45.0428130" lon="7.0156660">
        <ele>1467.8</ele>
        <time>2017-07-28T07:30:07Z</time>
      </trkpt>
      <trkpt lat="45.0428260" lon="7.0155780">
        <ele>1469.0</ele>
        <time>2017-07-28T07:30:12Z</time>
      </trkpt>
      <trkpt lat="45.0428280" lon="7.0155540">
        <ele>1469.4</ele>
        <time>2017-07-28T07:30:13Z</time>
      </trkpt>
      <trkpt lat="45.0428430" lon="7.0155020">
        <ele>1470.2</ele>
        <time>2017-07-28T07:30:16Z</time>
      </trkpt>
      <trkpt lat="45.0428780" lon="7.0154340">
        <ele>1471.4</ele>
        <time>2017-07-28T07:30:19Z</time>
      </trkpt>
      <trkpt lat="45.0428880" lon="7.0154130">
        <ele>1471.4</ele>
        <time>2017-07-28T07:30:20Z</time>
      </trkpt>
      <trkpt lat="45.0428970" lon="7.0153950">
        <ele>1471.8</ele>
        <time>2017-07-28T07:30:21Z</time>
      </trkpt>
      <trkpt lat="45.0429170" lon="7.0153220">
        <ele>1472.4</ele>
        <time>2017-07-28T07:30:24Z</time>
      </trkpt>
      <trkpt lat="45.0429410" lon="7.0152520">
        <ele>1473.2</ele>
        <time>2017-07-28T07:30:27Z</time>
      </trkpt>
      <trkpt lat="45.0429450" lon="7.0152300">
        <ele>1473.6</ele>
        <time>2017-07-28T07:30:28Z</time>
      </trkpt>
      <trkpt lat="45.0429680" lon="7.0151660">
        <ele>1474.8</ele>
        <time>2017-07-28T07:30:32Z</time>
      </trkpt>
      <trkpt lat="45.0429840" lon="7.0151380">
        <ele>1475.4</ele>
        <time>2017-07-28T07:30:34Z</time>
      </trkpt>
      <trkpt lat="45.0429930" lon="7.0151240">
        <ele>1475.8</ele>
        <time>2017-07-28T07:30:35Z</time>
      </trkpt>
      <trkpt lat="45.0430150" lon="7.0150720">
        <ele>1476.8</ele>
        <time>2017-07-28T07:30:38Z</time>
      </trkpt>
      <trkpt lat="45.0430490" lon="7.0150000">
        <ele>1478.4</ele>
        <time>2017-07-28T07:30:42Z</time>
      </trkpt>
      <trkpt lat="45.0430800" lon="7.0149300">
        <ele>1479.8</ele>
        <time>2017-07-28T07:30:46Z</time>
      </trkpt>
      <trkpt lat="45.0431130" lon="7.0148550">
        <ele>1480.8</ele>
        <time>2017-07-28T07:30:50Z</time>
      </trkpt>
      <trkpt lat="45.0431520" lon="7.0147540">
        <ele>1482.0</ele>
        <time>2017-07-28T07:30:55Z</time>
      </trkpt>
      <trkpt lat="45.0431610" lon="7.0147170">
        <ele>1482.6</ele>
        <time>2017-07-28T07:30:57Z</time>
      </trkpt>
      <trkpt lat="45.0431650" lon="7.0146690">
        <ele>1483.0</ele>
        <time>2017-07-28T07:30:59Z</time>
      </trkpt>
      <trkpt lat="45.0431710" lon="7.0145860">
        <ele>1484.2</ele>
        <time>2017-07-28T07:31:03Z</time>
      </trkpt>
      <trkpt lat="45.0431760" lon="7.0145670">
        <ele>1484.4</ele>
        <time>2017-07-28T07:31:04Z</time>
      </trkpt>
      <trkpt lat="45.0431810" lon="7.0145290">
        <ele>1485.2</ele>
        <time>2017-07-28T07:31:06Z</time>
      </trkpt>
      <trkpt lat="45.0432010" lon="7.0144280">
        <ele>1486.4</ele>
        <time>2017-07-28T07:31:11Z</time>
      </trkpt>
      <trkpt lat="45.0432430" lon="7.0143190">
        <ele>1487.6</ele>
        <time>2017-07-28T07:31:16Z</time>
      </trkpt>
      <trkpt lat="45.0432990" lon="7.0142130">
        <ele>1488.2</ele>
        <time>2017-07-28T07:31:20Z</time>
      </trkpt>
      <trkpt lat="45.0433130" lon="7.0141600">
        <ele>1489.0</ele>
        <time>2017-07-28T07:31:22Z</time>
      </trkpt>
      <trkpt lat="45.0433280" lon="7.0140670">
        <ele>1490.0</ele>
        <time>2017-07-28T07:31:26Z</time>
      </trkpt>
      <trkpt lat="45.0433320" lon="7.0140550">
        <ele>1490.2</ele>
        <time>2017-07-28T07:31:27Z</time>
      </trkpt>
      <trkpt lat="45.0433660" lon="7.0139810">
        <ele>1491.4</ele>
        <time>2017-07-28T07:31:31Z</time>
      </trkpt>
      <trkpt lat="45.0433900" lon="7.0139080">
        <ele>1492.4</ele>
        <time>2017-07-28T07:31:35Z</time>
      </trkpt>
      <trkpt lat="45.0433960" lon="7.0138620">
        <ele>1492.8</ele>
        <time>2017-07-28T07:31:37Z</time>
      </trkpt>
      <trkpt lat="45.0434120" lon="7.0138120">
        <ele>1493.4</ele>
        <time>2017-07-28T07:31:39Z</time>
      </trkpt>
      <trkpt lat="45.0434250" lon="7.0137910">
        <ele>1493.6</ele>
        <time>2017-07-28T07:31:40Z</time>
      </trkpt>
      <trkpt lat="45.0434610" lon="7.0136550">
        <ele>1494.8</ele>
        <time>2017-07-28T07:31:45Z</time>
      </trkpt>
      <trkpt lat="45.0435170" lon="7.0135070">
        <ele>1496.0</ele>
        <time>2017-07-28T07:31:50Z</time>
      </trkpt>
      <trkpt lat="45.0435340" lon="7.0134710">
        <ele>1496.2</ele>
        <time>2017-07-28T07:31:51Z</time>
      </trkpt>
      <trkpt lat="45.0436180" lon="7.0133050">
        <ele>1496.8</ele>
        <time>2017-07-28T07:31:56Z</time>
      </trkpt>
      <trkpt lat="45.0436410" lon="7.0132240">
        <ele>1497.2</ele>
        <time>2017-07-28T07:31:58Z</time>
      </trkpt>
      <trkpt lat="45.0436900" lon="7.0131070">
        <ele>1497.6</ele>
        <time>2017-07-28T07:32:01Z</time>
      </trkpt>
      <trkpt lat="45.0437370" lon="7.0129970">
        <ele>1498.2</ele>
        <time>2017-07-28T07:32:04Z</time>
      </trkpt>
      <trkpt lat="45.0437530" lon="7.0128620">
        <ele>1498.8</ele>
        <time>2017-07-28T07:32:07Z</time>
      </trkpt>
      <trkpt lat="45.0437660" lon="7.0127430">
        <ele>1499.0</ele>
        <time>2017-07-28T07:32:09Z</time>
      </trkpt>
      <trkpt lat="45.0438370" lon="7.0125730">
        <ele>1499.0</ele>
        <time>2017-07-28T07:32:12Z</time>
      </trkpt>
      <trkpt lat="45.0439340" lon="7.0123040">
        <ele>1499.2</ele>
        <time>2017-07-28T07:32:15Z</time>
      </trkpt>
      <trkpt lat="45.0439780" lon="7.0122260">
        <ele>1499.2</ele>
        <time>2017-07-28T07:32:16Z</time>
      </trkpt>
      <trkpt lat="45.0440140" lon="7.0119570">
        <ele>1497.8</ele>
        <time>2017-07-28T07:32:19Z</time>
      </trkpt>
      <trkpt lat="45.0439950" lon="7.0118600">
        <ele>1497.6</ele>
        <time>2017-07-28T07:32:20Z</time>
      </trkpt>
      <trkpt lat="45.0439710" lon="7.0117460">
        <ele>1497.2</ele>
        <time>2017-07-28T07:32:21Z</time>
      </trkpt>
      <trkpt lat="45.0439350" lon="7.0114920">
        <ele>1496.2</ele>
        <time>2017-07-28T07:32:23Z</time>
      </trkpt>
      <trkpt lat="45.0439110" lon="7.0112320">
        <ele>1494.8</ele>
        <time>2017-07-28T07:32:25Z</time>
      </trkpt>
      <trkpt lat="45.0438580" lon="7.0109670">
        <ele>1493.0</ele>
        <time>2017-07-28T07:32:27Z</time>
      </trkpt>
      <trkpt lat="45.0438170" lon="7.0108260">
        <ele>1492.4</ele>
        <time>2017-07-28T07:32:28Z</time>
      </trkpt>
      <trkpt lat="45.0437730" lon="7.0106820">
        <ele>1491.8</ele>
        <time>2017-07-28T07:32:29Z</time>
      </trkpt>
      <trkpt lat="45.0437110" lon="7.0104330">
        <ele>1490.6</ele>
        <time>2017-07-28T07:32:31Z</time>
      </trkpt>
      <trkpt lat="45.0436960" lon="7.0103630">
        <ele>1489.4</ele>
        <time>2017-07-28T07:32:32Z</time>
      </trkpt>
      <trkpt lat="45.0436910" lon="7.0103150">
        <ele>1488.4</ele>
        <time>2017-07-28T07:32:33Z</time>
      </trkpt>
      <trkpt lat="45.0437140" lon="7.0103020">
        <ele>1487.2</ele>
        <time>2017-07-28T07:32:34Z</time>
      </trkpt>
      <trkpt lat="45.0437740" lon="7.0103680">
        <ele>1485.4</ele>
        <time>2017-07-28T07:32:36Z</time>
      </trkpt>
      <trkpt lat="45.0438130" lon="7.0104320">
        <ele>1484.4</ele>
        <time>2017-07-28T07:32:37Z</time>
      </trkpt>
      <trkpt lat="45.0438550" lon="7.0104980">
        <ele>1483.6</ele>
        <time>2017-07-28T07:32:38Z</time>
      </trkpt>
      <trkpt lat="45.0439080" lon="7.0105740">
        <ele>1482.4</ele>
        <time>2017-07-28T07:32:39Z</time>
      </trkpt>
      <trkpt lat="45.0439770" lon="7.0106360">
        <ele>1481.6</ele>
        <time>2017-07-28T07:32:40Z</time>
      </trkpt>
      <trkpt lat="45.0440470" lon="7.0106970">
        <ele>1480.8</ele>
        <time>2017-07-28T07:32:41Z</time>
      </trkpt>
      <trkpt lat="45.0441180" lon="7.0107580">
        <ele>1478.8</ele>
        <time>2017-07-28T07:32:42Z</time>
      </trkpt>
      <trkpt lat="45.0442820" lon="7.0108940">
        <ele>1477.2</ele>
        <time>2017-07-28T07:32:44Z</time>
      </trkpt>
      <trkpt lat="45.0444110" lon="7.0110120">
        <ele>1475.6</ele>
        <time>2017-07-28T07:32:46Z</time>
      </trkpt>
      <trkpt lat="45.0444510" lon="7.0110250">
        <ele>1474.4</ele>
        <time>2017-07-28T07:32:47Z</time>
      </trkpt>
      <trkpt lat="45.0444880" lon="7.0109980">
        <ele>1473.4</ele>
        <time>2017-07-28T07:32:48Z</time>
      </trkpt>
      <trkpt lat="45.0444880" lon="7.0108730">
        <ele>1471.8</ele>
        <time>2017-07-28T07:32:50Z</time>
      </trkpt>
      <trkpt lat="45.0444430" lon="7.0107230">
        <ele>1470.4</ele>
        <time>2017-07-28T07:32:52Z</time>
      </trkpt>
      <trkpt lat="45.0444340" lon="7.0106180">
        <ele>1469.4</ele>
        <time>2017-07-28T07:32:53Z</time>
      </trkpt>
      <trkpt lat="45.0444250" lon="7.0104940">
        <ele>1468.4</ele>
        <time>2017-07-28T07:32:54Z</time>
      </trkpt>
      <trkpt lat="45.0444120" lon="7.0103570">
        <ele>1467.2</ele>
        <time>2017-07-28T07:32:55Z</time>
      </trkpt>
      <trkpt lat="45.0443850" lon="7.0100540">
        <ele>1465.4</ele>
        <time>2017-07-28T07:32:57Z</time>
      </trkpt>
      <trkpt lat="45.0443840" lon="7.0099040">
        <ele>1464.2</ele>
        <time>2017-07-28T07:32:58Z</time>
      </trkpt>
      <trkpt lat="45.0443810" lon="7.0096630">
        <ele>1462.2</ele>
        <time>2017-07-28T07:33:00Z</time>
      </trkpt>
      <trkpt lat="45.0443590" lon="7.0095460">
        <ele>1460.8</ele>
        <time>2017-07-28T07:33:01Z</time>
      </trkpt>
      <trkpt lat="45.0443280" lon="7.0094310">
        <ele>1459.4</ele>
        <time>2017-07-28T07:33:02Z</time>
      </trkpt>
      <trkpt lat="45.0442920" lon="7.0093120">
        <ele>1457.8</ele>
        <time>2017-07-28T07:33:03Z</time>
      </trkpt>
      <trkpt lat="45.0442530" lon="7.0091880">
        <ele>1456.8</ele>
        <time>2017-07-28T07:33:04Z</time>
      </trkpt>
      <trkpt lat="45.0442160" lon="7.0090580">
        <ele>1455.8</ele>
        <time>2017-07-28T07:33:05Z</time>
      </trkpt>
      <trkpt lat="45.0441860" lon="7.0089140">
        <ele>1453.0</ele>
        <time>2017-07-28T07:33:06Z</time>
      </trkpt>
      <trkpt lat="45.0441660" lon="7.0087590">
        <ele>1451.8</ele>
        <time>2017-07-28T07:33:07Z</time>
      </trkpt>
      <trkpt lat="45.0441510" lon="7.0086060">
        <ele>1450.8</ele>
        <time>2017-07-28T07:33:08Z</time>
      </trkpt>
      <trkpt lat="45.0441430" lon="7.0084670">
        <ele>1450.2</ele>
        <time>2017-07-28T07:33:09Z</time>
      </trkpt>
      <trkpt lat="45.0441550" lon="7.0083520">
        <ele>1449.2</ele>
        <time>2017-07-28T07:33:10Z</time>
      </trkpt>
      <trkpt lat="45.0441820" lon="7.0082810">
        <ele>1448.2</ele>
        <time>2017-07-28T07:33:11Z</time>
      </trkpt>
      <trkpt lat="45.0442680" lon="7.0082100">
        <ele>1447.0</ele>
        <time>2017-07-28T07:33:13Z</time>
      </trkpt>
      <trkpt lat="45.0442990" lon="7.0081960">
        <ele>1446.4</ele>
        <time>2017-07-28T07:33:14Z</time>
      </trkpt>
      <trkpt lat="45.0443220" lon="7.0081830">
        <ele>1445.8</ele>
        <time>2017-07-28T07:33:15Z</time>
      </trkpt>
      <trkpt lat="45.0443420" lon="7.0081730">
        <ele>1445.4</ele>
        <time>2017-07-28T07:33:16Z</time>
      </trkpt>
      <trkpt lat="45.0443750" lon="7.0081440">
        <ele>1444.6</ele>
        <time>2017-07-28T07:33:18Z</time>
      </trkpt>
      <trkpt lat="45.0443870" lon="7.0081260">
        <ele>1444.4</ele>
        <time>2017-07-28T07:33:19Z</time>
      </trkpt>
      <trkpt lat="45.0443910" lon="7.0081070">
        <ele>1444.2</ele>
        <time>2017-07-28T07:33:20Z</time>
      </trkpt>
      <trkpt lat="45.0443840" lon="7.0080500">
        <ele>1444.0</ele>
        <time>2017-07-28T07:33:23Z</time>
      </trkpt>
      <trkpt lat="45.0443750" lon="7.0079920">
        <ele>1444.0</ele>
        <time>2017-07-28T07:33:26Z</time>
      </trkpt>
      <trkpt lat="45.0443490" lon="7.0078990">
        <ele>1445.0</ele>
        <time>2017-07-28T07:33:31Z</time>
      </trkpt>
      <trkpt lat="45.0443370" lon="7.0078790">
        <ele>1445.0</ele>
        <time>2017-07-28T07:33:32Z</time>
      </trkpt>
      <trkpt lat="45.0443050" lon="7.0078180">
        <ele>1445.8</ele>
        <time>2017-07-28T07:33:35Z</time>
      </trkpt>
      <trkpt lat="45.0442530" lon="7.0077900">
        <ele>1446.2</ele>
        <time>2017-07-28T07:33:38Z</time>
      </trkpt>
      <trkpt lat="45.0441970" lon="7.0077870">
        <ele>1447.0</ele>
        <time>2017-07-28T07:33:41Z</time>
      </trkpt>
      <trkpt lat="45.0441140" lon="7.0077740">
        <ele>1447.6</ele>
        <time>2017-07-28T07:33:45Z</time>
      </trkpt>
      <trkpt lat="45.0440790" lon="7.0077590">
        <ele>1448.2</ele>
        <time>2017-07-28T07:33:47Z</time>
      </trkpt>
      <trkpt lat="45.0440180" lon="7.0076970">
        <ele>1449.2</ele>
        <time>2017-07-28T07:33:51Z</time>
      </trkpt>
      <trkpt lat="45.0440010" lon="7.0076780">
        <ele>1449.6</ele>
        <time>2017-07-28T07:33:52Z</time>
      </trkpt>
      <trkpt lat="45.0439640" lon="7.0076050">
        <ele>1450.4</ele>
        <time>2017-07-28T07:33:55Z</time>
      </trkpt>
      <trkpt lat="45.0439130" lon="7.0075030">
        <ele>1451.0</ele>
        <time>2017-07-28T07:33:59Z</time>
      </trkpt>
      <trkpt lat="45.0438620" lon="7.0074030">
        <ele>1451.6</ele>
        <time>2017-07-28T07:34:03Z</time>
      </trkpt>
      <trkpt lat="45.0438450" lon="7.0073450">
        <ele>1452.0</ele>
        <time>2017-07-28T07:34:05Z</time>
      </trkpt>
      <trkpt lat="45.0438400" lon="7.0072280">
        <ele>1452.6</ele>
        <time>2017-07-28T07:34:08Z</time>
      </trkpt>
      <trkpt lat="45.0438460" lon="7.0071470">
        <ele>1453.4</ele>
        <time>2017-07-28T07:34:10Z</time>
      </trkpt>
      <trkpt lat="45.0438560" lon="7.0070700">
        <ele>1453.8</ele>
        <time>2017-07-28T07:34:12Z</time>
      </trkpt>
      <trkpt lat="45.0438770" lon="7.0069390">
        <ele>1454.8</ele>
        <time>2017-07-28T07:34:15Z</time>
      </trkpt>
      <trkpt lat="45.0438930" lon="7.0068870">
        <ele>1455.2</ele>
        <time>2017-07-28T07:34:16Z</time>
      </trkpt>
      <trkpt lat="45.0439160" lon="7.0067250">
        <ele>1456.0</ele>
        <time>2017-07-28T07:34:19Z</time>
      </trkpt>
      <trkpt lat="45.0439210" lon="7.0066180">
        <ele>1456.8</ele>
        <time>2017-07-28T07:34:21Z</time>
      </trkpt>
      <trkpt lat="45.0439360" lon="7.0064960">
        <ele>1457.2</ele>
        <time>2017-07-28T07:34:23Z</time>
      </trkpt>
      <trkpt lat="45.0439550" lon="7.0063660">
        <ele>1457.8</ele>
        <time>2017-07-28T07:34:25Z</time>
      </trkpt>
      <trkpt lat="45.0439600" lon="7.0062900">
        <ele>1457.8</ele>
        <time>2017-07-28T07:34:26Z</time>
      </trkpt>
      <trkpt lat="45.0439580" lon="7.0060250">
        <ele>1458.4</ele>
        <time>2017-07-28T07:34:30Z</time>
      </trkpt>
      <trkpt lat="45.0439530" lon="7.0059530">
        <ele>1458.6</ele>
        <time>2017-07-28T07:34:31Z</time>
      </trkpt>
      <trkpt lat="45.0439640" lon="7.0056850">
        <ele>1459.6</ele>
        <time>2017-07-28T07:34:35Z</time>
      </trkpt>
      <trkpt lat="45.0439700" lon="7.0055640">
        <ele>1460.0</ele>
        <time>2017-07-28T07:34:37Z</time>
      </trkpt>
      <trkpt lat="45.0439800" lon="7.0053990">
        <ele>1460.8</ele>
        <time>2017-07-28T07:34:40Z</time>
      </trkpt>
      <trkpt lat="45.0439810" lon="7.0052490">
        <ele>1461.0</ele>
        <time>2017-07-28T07:34:42Z</time>
      </trkpt>
      <trkpt lat="45.0439850" lon="7.0047700">
        <ele>1461.8</ele>
        <time>2017-07-28T07:34:48Z</time>
      </trkpt>
      <trkpt lat="45.0439810" lon="7.0047000">
        <ele>1462.0</ele>
        <time>2017-07-28T07:34:49Z</time>
      </trkpt>
      <trkpt lat="45.0439580" lon="7.0044780">
        <ele>1462.0</ele>
        <time>2017-07-28T07:34:52Z</time>
      </trkpt>
      <trkpt lat="45.0439440" lon="7.0044070">
        <ele>1462.0</ele>
        <time>2017-07-28T07:34:53Z</time>
      </trkpt>
      <trkpt lat="45.0439430" lon="7.0043280">
        <ele>1462.2</ele>
        <time>2017-07-28T07:34:54Z</time>
      </trkpt>
      <trkpt lat="45.0439370" lon="7.0041570">
        <ele>1462.2</ele>
        <time>2017-07-28T07:34:56Z</time>
      </trkpt>
      <trkpt lat="45.0439050" lon="7.0039490">
        <ele>1461.8</ele>
        <time>2017-07-28T07:34:58Z</time>
      </trkpt>
      <trkpt lat="45.0438790" lon="7.0036690">
        <ele>1460.8</ele>
        <time>2017-07-28T07:35:00Z</time>
      </trkpt>
      <trkpt lat="45.0438680" lon="7.0035140">
        <ele>1460.6</ele>
        <time>2017-07-28T07:35:01Z</time>
      </trkpt>
      <trkpt lat="45.0438500" lon="7.0031990">
        <ele>1459.2</ele>
        <time>2017-07-28T07:35:03Z</time>
      </trkpt>
      <trkpt lat="45.0438100" lon="7.0030400">
        <ele>1458.4</ele>
        <time>2017-07-28T07:35:04Z</time>
      </trkpt>
      <trkpt lat="45.0437780" lon="7.0028910">
        <ele>1457.6</ele>
        <time>2017-07-28T07:35:05Z</time>
      </trkpt>
      <trkpt lat="45.0437220" lon="7.0025710">
        <ele>1455.4</ele>
        <time>2017-07-28T07:35:07Z</time>
      </trkpt>
      <trkpt lat="45.0436720" lon="7.0022460">
        <ele>1453.6</ele>
        <time>2017-07-28T07:35:09Z</time>
      </trkpt>
      <trkpt lat="45.0436320" lon="7.0021080">
        <ele>1452.8</ele>
        <time>2017-07-28T07:35:10Z</time>
      </trkpt>
      <trkpt lat="45.0435740" lon="7.0019940">
        <ele>1452.0</ele>
        <time>2017-07-28T07:35:11Z</time>
      </trkpt>
      <trkpt lat="45.0435110" lon="7.0018980">
        <ele>1451.0</ele>
        <time>2017-07-28T07:35:12Z</time>
      </trkpt>
      <trkpt lat="45.0434170" lon="7.0016870">
        <ele>1449.4</ele>
        <time>2017-07-28T07:35:14Z</time>
      </trkpt>
      <trkpt lat="45.0433710" lon="7.0014810">
        <ele>1448.2</ele>
        <time>2017-07-28T07:35:16Z</time>
      </trkpt>
      <trkpt lat="45.0433540" lon="7.0013900">
        <ele>1447.8</ele>
        <time>2017-07-28T07:35:17Z</time>
      </trkpt>
      <trkpt lat="45.0433300" lon="7.0013300">
        <ele>1447.4</ele>
        <time>2017-07-28T07:35:18Z</time>
      </trkpt>
      <trkpt lat="45.0433110" lon="7.0012820">
        <ele>1447.0</ele>
        <time>2017-07-28T07:35:19Z</time>
      </trkpt>
      <trkpt lat="45.0432390" lon="7.0011620">
        <ele>1445.8</ele>
        <time>2017-07-28T07:35:23Z</time>
      </trkpt>
      <trkpt lat="45.0431740" lon="7.0010730">
        <ele>1444.8</ele>
        <time>2017-07-28T07:35:27Z</time>
      </trkpt>
      <trkpt lat="45.0431360" lon="7.0010130">
        <ele>1444.8</ele>
        <time>2017-07-28T07:35:29Z</time>
      </trkpt>
      <trkpt lat="45.0430560" lon="7.0008590">
        <ele>1445.2</ele>
        <time>2017-07-28T07:35:34Z</time>
      </trkpt>
      <trkpt lat="45.0430310" lon="7.0008030">
        <ele>1445.8</ele>
        <time>2017-07-28T07:35:36Z</time>
      </trkpt>
      <trkpt lat="45.0429770" lon="7.0007350">
        <ele>1446.6</ele>
        <time>2017-07-28T07:35:39Z</time>
      </trkpt>
      <trkpt lat="45.0429620" lon="7.0007130">
        <ele>1447.0</ele>
        <time>2017-07-28T07:35:40Z</time>
      </trkpt>
      <trkpt lat="45.0428930" lon="7.0006220">
        <ele>1448.0</ele>
        <time>2017-07-28T07:35:44Z</time>
      </trkpt>
      <trkpt lat="45.0428300" lon="7.0005750">
        <ele>1449.0</ele>
        <time>2017-07-28T07:35:47Z</time>
      </trkpt>
      <trkpt lat="45.0427600" lon="7.0005240">
        <ele>1450.4</ele>
        <time>2017-07-28T07:35:51Z</time>
      </trkpt>
      <trkpt lat="45.0427250" lon="7.0004820">
        <ele>1451.4</ele>
        <time>2017-07-28T07:35:54Z</time>
      </trkpt>
      <trkpt lat="45.0426800" lon="7.0004470">
        <ele>1452.4</ele>
        <time>2017-07-28T07:35:56Z</time>
      </trkpt>
      <trkpt lat="45.0426140" lon="7.0004230">
        <ele>1453.4</ele>
        <time>2017-07-28T07:35:59Z</time>
      </trkpt>
      <trkpt lat="45.0425510" lon="7.0004000">
        <ele>1454.6</ele>
        <time>2017-07-28T07:36:02Z</time>
      </trkpt>
      <trkpt lat="45.0424900" lon="7.0003540">
        <ele>1455.6</ele>
        <time>2017-07-28T07:36:05Z</time>
      </trkpt>
      <trkpt lat="45.0423990" lon="7.0002180">
        <ele>1456.8</ele>
        <time>2017-07-28T07:36:09Z</time>
      </trkpt>
      <trkpt lat="45.0423750" lon="7.0001720">
        <ele>1457.0</ele>
        <time>2017-07-28T07:36:10Z</time>
      </trkpt>
      <trkpt lat="45.0422550" lon="6.9999780">
        <ele>1457.8</ele>
        <time>2017-07-28T07:36:15Z</time>
      </trkpt>
      <trkpt lat="45.0422020" lon="6.9999270">
        <ele>1458.4</ele>
        <time>2017-07-28T07:36:17Z</time>
      </trkpt>
      <trkpt lat="45.0421540" lon="6.9998780">
        <ele>1459.0</ele>
        <time>2017-07-28T07:36:19Z</time>
      </trkpt>
      <trkpt lat="45.0420930" lon="6.9998210">
        <ele>1459.8</ele>
        <time>2017-07-28T07:36:22Z</time>
      </trkpt>
      <trkpt lat="45.0420800" lon="6.9998090">
        <ele>1460.2</ele>
        <time>2017-07-28T07:36:23Z</time>
      </trkpt>
      <trkpt lat="45.0419940" lon="6.9997580">
        <ele>1461.4</ele>
        <time>2017-07-28T07:36:28Z</time>
      </trkpt>
      <trkpt lat="45.0419750" lon="6.9997510">
        <ele>1461.6</ele>
        <time>2017-07-28T07:36:29Z</time>
      </trkpt>
      <trkpt lat="45.0419330" lon="6.9997320">
        <ele>1462.4</ele>
        <time>2017-07-28T07:36:32Z</time>
      </trkpt>
      <trkpt lat="45.0419140" lon="6.9996970">
        <ele>1463.2</ele>
        <time>2017-07-28T07:36:35Z</time>
      </trkpt>
      <trkpt lat="45.0419040" lon="6.9996840">
        <ele>1463.6</ele>
        <time>2017-07-28T07:36:36Z</time>
      </trkpt>
      <trkpt lat="45.0418710" lon="6.9996030">
        <ele>1464.8</ele>
        <time>2017-07-28T07:36:40Z</time>
      </trkpt>
      <trkpt lat="45.0418510" lon="6.9995330">
        <ele>1466.0</ele>
        <time>2017-07-28T07:36:43Z</time>
      </trkpt>
      <trkpt lat="45.0418110" lon="6.9994530">
        <ele>1467.2</ele>
        <time>2017-07-28T07:36:47Z</time>
      </trkpt>
      <trkpt lat="45.0417730" lon="6.9993560">
        <ele>1468.4</ele>
        <time>2017-07-28T07:36:51Z</time>
      </trkpt>
      <trkpt lat="45.0417340" lon="6.9992630">
        <ele>1469.4</ele>
        <time>2017-07-28T07:36:55Z</time>
      </trkpt>
      <trkpt lat="45.0417230" lon="6.9992360">
        <ele>1469.6</ele>
        <time>2017-07-28T07:36:56Z</time>
      </trkpt>
      <trkpt lat="45.0416800" lon="6.9991410">
        <ele>1470.8</ele>
        <time>2017-07-28T07:37:00Z</time>
      </trkpt>
      <trkpt lat="45.0416300" lon="6.9990470">
        <ele>1471.6</ele>
        <time>2017-07-28T07:37:03Z</time>
      </trkpt>
      <trkpt lat="45.0416070" lon="6.9989700">
        <ele>1471.8</ele>
        <time>2017-07-28T07:37:05Z</time>
      </trkpt>
      <trkpt lat="45.0415870" lon="6.9987830">
        <ele>1472.8</ele>
        <time>2017-07-28T07:37:09Z</time>
      </trkpt>
      <trkpt lat="45.0415930" lon="6.9987380">
        <ele>1473.0</ele>
        <time>2017-07-28T07:37:10Z</time>
      </trkpt>
      <trkpt lat="45.0415970" lon="6.9985240">
        <ele>1474.0</ele>
        <time>2017-07-28T07:37:15Z</time>
      </trkpt>
      <trkpt lat="45.0415570" lon="6.9983260">
        <ele>1475.2</ele>
        <time>2017-07-28T07:37:21Z</time>
      </trkpt>
      <trkpt lat="45.0415470" lon="6.9982960">
        <ele>1475.4</ele>
        <time>2017-07-28T07:37:22Z</time>
      </trkpt>
      <trkpt lat="45.0415060" lon="6.9982070">
        <ele>1476.2</ele>
        <time>2017-07-28T07:37:25Z</time>
      </trkpt>
      <trkpt lat="45.0414690" lon="6.9981100">
        <ele>1476.8</ele>
        <time>2017-07-28T07:37:28Z</time>
      </trkpt>
      <trkpt lat="45.0414290" lon="6.9979770">
        <ele>1477.4</ele>
        <time>2017-07-28T07:37:31Z</time>
      </trkpt>
      <trkpt lat="45.0414160" lon="6.9978700">
        <ele>1477.6</ele>
        <time>2017-07-28T07:37:33Z</time>
      </trkpt>
      <trkpt lat="45.0414240" lon="6.9976840">
        <ele>1478.2</ele>
        <time>2017-07-28T07:37:37Z</time>
      </trkpt>
      <trkpt lat="45.0414140" lon="6.9975910">
        <ele>1478.6</ele>
        <time>2017-07-28T07:37:39Z</time>
      </trkpt>
      <trkpt lat="45.0413740" lon="6.9973830">
        <ele>1479.2</ele>
        <time>2017-07-28T07:37:43Z</time>
      </trkpt>
      <trkpt lat="45.0413200" lon="6.9970180">
        <ele>1479.2</ele>
        <time>2017-07-28T07:37:48Z</time>
      </trkpt>
      <trkpt lat="45.0412970" lon="6.9966030">
        <ele>1478.2</ele>
        <time>2017-07-28T07:37:52Z</time>
      </trkpt>
      <trkpt lat="45.0412610" lon="6.9964390">
        <ele>1478.2</ele>
        <time>2017-07-28T07:37:54Z</time>
      </trkpt>
      <trkpt lat="45.0412390" lon="6.9963730">
        <ele>1478.2</ele>
        <time>2017-07-28T07:37:55Z</time>
      </trkpt>
      <trkpt lat="45.0412220" lon="6.9963030">
        <ele>1478.2</ele>
        <time>2017-07-28T07:37:56Z</time>
      </trkpt>
      <trkpt lat="45.0412010" lon="6.9960690">
        <ele>1478.4</ele>
        <time>2017-07-28T07:37:59Z</time>
      </trkpt>
      <trkpt lat="45.0411870" lon="6.9959850">
        <ele>1478.4</ele>
        <time>2017-07-28T07:38:00Z</time>
      </trkpt>
      <trkpt lat="45.0411090" lon="6.9956490">
        <ele>1478.2</ele>
        <time>2017-07-28T07:38:04Z</time>
      </trkpt>
      <trkpt lat="45.0410220" lon="6.9951640">
        <ele>1478.0</ele>
        <time>2017-07-28T07:38:10Z</time>
      </trkpt>
      <trkpt lat="45.0409490" lon="6.9947520">
        <ele>1477.2</ele>
        <time>2017-07-28T07:38:14Z</time>
      </trkpt>
      <trkpt lat="45.0409250" lon="6.9946380">
        <ele>1476.8</ele>
        <time>2017-07-28T07:38:15Z</time>
      </trkpt>
      <trkpt lat="45.0408930" lon="6.9942650">
        <ele>1476.2</ele>
        <time>2017-07-28T07:38:18Z</time>
      </trkpt>
      <trkpt lat="45.0409080" lon="6.9941190">
        <ele>1475.4</ele>
        <time>2017-07-28T07:38:19Z</time>
      </trkpt>
      <trkpt lat="45.0409170" lon="6.9939760">
        <ele>1475.0</ele>
        <time>2017-07-28T07:38:20Z</time>
      </trkpt>
      <trkpt lat="45.0409160" lon="6.9938600">
        <ele>1474.8</ele>
        <time>2017-07-28T07:38:21Z</time>
      </trkpt>
      <trkpt lat="45.0409120" lon="6.9937590">
        <ele>1474.6</ele>
        <time>2017-07-28T07:38:22Z</time>
      </trkpt>
      <trkpt lat="45.0408800" lon="6.9934480">
        <ele>1474.4</ele>
        <time>2017-07-28T07:38:26Z</time>
      </trkpt>
      <trkpt lat="45.0408720" lon="6.9933280">
        <ele>1474.6</ele>
        <time>2017-07-28T07:38:28Z</time>
      </trkpt>
      <trkpt lat="45.0408960" lon="6.9931550">
        <ele>1475.2</ele>
        <time>2017-07-28T07:38:31Z</time>
      </trkpt>
      <trkpt lat="45.0409110" lon="6.9930920">
        <ele>1475.0</ele>
        <time>2017-07-28T07:38:32Z</time>
      </trkpt>
      <trkpt lat="45.0409600" lon="6.9928620">
        <ele>1475.2</ele>
        <time>2017-07-28T07:38:35Z</time>
      </trkpt>
      <trkpt lat="45.0409700" lon="6.9927880">
        <ele>1475.2</ele>
        <time>2017-07-28T07:38:36Z</time>
      </trkpt>
      <trkpt lat="45.0409220" lon="6.9924620">
        <ele>1475.2</ele>
        <time>2017-07-28T07:38:40Z</time>
      </trkpt>
      <trkpt lat="45.0408950" lon="6.9923680">
        <ele>1475.2</ele>
        <time>2017-07-28T07:38:41Z</time>
      </trkpt>
      <trkpt lat="45.0408030" lon="6.9920360">
        <ele>1474.2</ele>
        <time>2017-07-28T07:38:44Z</time>
      </trkpt>
      <trkpt lat="45.0407670" lon="6.9919120">
        <ele>1473.8</ele>
        <time>2017-07-28T07:38:45Z</time>
      </trkpt>
      <trkpt lat="45.0406590" lon="6.9915180">
        <ele>1472.8</ele>
        <time>2017-07-28T07:38:48Z</time>
      </trkpt>
      <trkpt lat="45.0406270" lon="6.9913800">
        <ele>1472.6</ele>
        <time>2017-07-28T07:38:49Z</time>
      </trkpt>
      <trkpt lat="45.0405670" lon="6.9911060">
        <ele>1471.8</ele>
        <time>2017-07-28T07:38:51Z</time>
      </trkpt>
      <trkpt lat="45.0404680" lon="6.9908310">
        <ele>1470.2</ele>
        <time>2017-07-28T07:38:53Z</time>
      </trkpt>
      <trkpt lat="45.0404040" lon="6.9907070">
        <ele>1469.8</ele>
        <time>2017-07-28T07:38:54Z</time>
      </trkpt>
      <trkpt lat="45.0403440" lon="6.9905730">
        <ele>1469.0</ele>
        <time>2017-07-28T07:38:55Z</time>
      </trkpt>
      <trkpt lat="45.0403150" lon="6.9904330">
        <ele>1468.8</ele>
        <time>2017-07-28T07:38:56Z</time>
      </trkpt>
      <trkpt lat="45.0402660" lon="6.9903120">
        <ele>1468.2</ele>
        <time>2017-07-28T07:38:57Z</time>
      </trkpt>
      <trkpt lat="45.0402160" lon="6.9901920">
        <ele>1467.8</ele>
        <time>2017-07-28T07:38:58Z</time>
      </trkpt>
      <trkpt lat="45.0401680" lon="6.9899680">
        <ele>1466.6</ele>
        <time>2017-07-28T07:39:00Z</time>
      </trkpt>
      <trkpt lat="45.0401710" lon="6.9898780">
        <ele>1465.6</ele>
        <time>2017-07-28T07:39:01Z</time>
      </trkpt>
      <trkpt lat="45.0402370" lon="6.9897410">
        <ele>1464.0</ele>
        <time>2017-07-28T07:39:03Z</time>
      </trkpt>
      <trkpt lat="45.0403030" lon="6.9896550">
        <ele>1463.0</ele>
        <time>2017-07-28T07:39:04Z</time>
      </trkpt>
      <trkpt lat="45.0403540" lon="6.9895530">
        <ele>1462.2</ele>
        <time>2017-07-28T07:39:05Z</time>
      </trkpt>
      <trkpt lat="45.0404010" lon="6.9894580">
        <ele>1461.0</ele>
        <time>2017-07-28T07:39:06Z</time>
      </trkpt>
      <trkpt lat="45.0404500" lon="6.9893570">
        <ele>1459.0</ele>
        <time>2017-07-28T07:39:07Z</time>
      </trkpt>
      <trkpt lat="45.0405080" lon="6.9892630">
        <ele>1458.0</ele>
        <time>2017-07-28T07:39:08Z</time>
      </trkpt>
      <trkpt lat="45.0405880" lon="6.9891860">
        <ele>1457.2</ele>
        <time>2017-07-28T07:39:09Z</time>
      </trkpt>
      <trkpt lat="45.0407510" lon="6.9890650">
        <ele>1455.6</ele>
        <time>2017-07-28T07:39:11Z</time>
      </trkpt>
      <trkpt lat="45.0408770" lon="6.9889770">
        <ele>1454.0</ele>
        <time>2017-07-28T07:39:13Z</time>
      </trkpt>
      <trkpt lat="45.0409260" lon="6.9889420">
        <ele>1453.0</ele>
        <time>2017-07-28T07:39:14Z</time>
      </trkpt>
      <trkpt lat="45.0409520" lon="6.9888600">
        <ele>1451.2</ele>
        <time>2017-07-28T07:39:16Z</time>
      </trkpt>
      <trkpt lat="45.0409500" lon="6.9888170">
        <ele>1450.4</ele>
        <time>2017-07-28T07:39:17Z</time>
      </trkpt>
      <trkpt lat="45.0409400" lon="6.9887750">
        <ele>1450.0</ele>
        <time>2017-07-28T07:39:18Z</time>
      </trkpt>
      <trkpt lat="45.0409160" lon="6.9886870">
        <ele>1448.8</ele>
        <time>2017-07-28T07:39:20Z</time>
      </trkpt>
      <trkpt lat="45.0408930" lon="6.9886070">
        <ele>1448.2</ele>
        <time>2017-07-28T07:39:22Z</time>
      </trkpt>
      <trkpt lat="45.0408750" lon="6.9885660">
        <ele>1448.0</ele>
        <time>2017-07-28T07:39:23Z</time>
      </trkpt>
      <trkpt lat="45.0408610" lon="6.9885190">
        <ele>1447.8</ele>
        <time>2017-07-28T07:39:24Z</time>
      </trkpt>
      <trkpt lat="45.0408370" lon="6.9884260">
        <ele>1447.4</ele>
        <time>2017-07-28T07:39:26Z</time>
      </trkpt>
      <trkpt lat="45.0408140" lon="6.9883890">
        <ele>1447.2</ele>
        <time>2017-07-28T07:39:27Z</time>
      </trkpt>
      <trkpt lat="45.0407520" lon="6.9883090">
        <ele>1446.8</ele>
        <time>2017-07-28T07:39:29Z</time>
      </trkpt>
      <trkpt lat="45.0407260" lon="6.9882540">
        <ele>1446.4</ele>
        <time>2017-07-28T07:39:30Z</time>
      </trkpt>
      <trkpt lat="45.0407070" lon="6.9882010">
        <ele>1446.4</ele>
        <time>2017-07-28T07:39:31Z</time>
      </trkpt>
      <trkpt lat="45.0406350" lon="6.9880520">
        <ele>1446.4</ele>
        <time>2017-07-28T07:39:34Z</time>
      </trkpt>
      <trkpt lat="45.0405380" lon="6.9878730">
        <ele>1446.8</ele>
        <time>2017-07-28T07:39:38Z</time>
      </trkpt>
      <trkpt lat="45.0403980" lon="6.9876420">
        <ele>1447.4</ele>
        <time>2017-07-28T07:39:43Z</time>
      </trkpt>
      <trkpt lat="45.0403340" lon="6.9875230">
        <ele>1447.6</ele>
        <time>2017-07-28T07:39:45Z</time>
      </trkpt>
      <trkpt lat="45.0402610" lon="6.9873980">
        <ele>1448.0</ele>
        <time>2017-07-28T07:39:47Z</time>
      </trkpt>
      <trkpt lat="45.0401900" lon="6.9872110">
        <ele>1448.2</ele>
        <time>2017-07-28T07:39:50Z</time>
      </trkpt>
      <trkpt lat="45.0401490" lon="6.9870970">
        <ele>1448.6</ele>
        <time>2017-07-28T07:39:52Z</time>
      </trkpt>
      <trkpt lat="45.0400730" lon="6.9868770">
        <ele>1448.4</ele>
        <time>2017-07-28T07:39:55Z</time>
      </trkpt>
      <trkpt lat="45.0399880" lon="6.9865940">
        <ele>1448.0</ele>
        <time>2017-07-28T07:39:58Z</time>
      </trkpt>
      <trkpt lat="45.0399620" lon="6.9864850">
        <ele>1447.8</ele>
        <time>2017-07-28T07:39:59Z</time>
      </trkpt>
      <trkpt lat="45.0399610" lon="6.9863760">
        <ele>1447.8</ele>
        <time>2017-07-28T07:40:00Z</time>
      </trkpt>
      <trkpt lat="45.0399750" lon="6.9861720">
        <ele>1447.6</ele>
        <time>2017-07-28T07:40:02Z</time>
      </trkpt>
      <trkpt lat="45.0399910" lon="6.9858940">
        <ele>1447.8</ele>
        <time>2017-07-28T07:40:05Z</time>
      </trkpt>
      <trkpt lat="45.0399740" lon="6.9857340">
        <ele>1447.8</ele>
        <time>2017-07-28T07:40:07Z</time>
      </trkpt>
      <trkpt lat="45.0399430" lon="6.9855810">
        <ele>1448.0</ele>
        <time>2017-07-28T07:40:09Z</time>
      </trkpt>
      <trkpt lat="45.0399060" lon="6.9854210">
        <ele>1448.0</ele>
        <time>2017-07-28T07:40:11Z</time>
      </trkpt>
      <trkpt lat="45.0399040" lon="6.9853370">
        <ele>1448.0</ele>
        <time>2017-07-28T07:40:12Z</time>
      </trkpt>
      <trkpt lat="45.0398890" lon="6.9850610">
        <ele>1448.4</ele>
        <time>2017-07-28T07:40:15Z</time>
      </trkpt>
      <trkpt lat="45.0398790" lon="6.9849790">
        <ele>1448.6</ele>
        <time>2017-07-28T07:40:16Z</time>
      </trkpt>
      <trkpt lat="45.0398210" lon="6.9846810">
        <ele>1448.8</ele>
        <time>2017-07-28T07:40:20Z</time>
      </trkpt>
      <trkpt lat="45.0397840" lon="6.9846300">
        <ele>1449.0</ele>
        <time>2017-07-28T07:40:21Z</time>
      </trkpt>
      <trkpt lat="45.0396830" lon="6.9845000">
        <ele>1449.4</ele>
        <time>2017-07-28T07:40:24Z</time>
      </trkpt>
      <trkpt lat="45.0396550" lon="6.9844490">
        <ele>1449.4</ele>
        <time>2017-07-28T07:40:25Z</time>
      </trkpt>
      <trkpt lat="45.0394850" lon="6.9842180">
        <ele>1449.8</ele>
        <time>2017-07-28T07:40:30Z</time>
      </trkpt>
      <trkpt lat="45.0394480" lon="6.9841730">
        <ele>1450.0</ele>
        <time>2017-07-28T07:40:31Z</time>
      </trkpt>
      <trkpt lat="45.0394160" lon="6.9841220">
        <ele>1450.0</ele>
        <time>2017-07-28T07:40:32Z</time>
      </trkpt>
      <trkpt lat="45.0393000" lon="6.9838790">
        <ele>1450.0</ele>
        <time>2017-07-28T07:40:36Z</time>
      </trkpt>
      <trkpt lat="45.0392790" lon="6.9838100">
        <ele>1450.2</ele>
        <time>2017-07-28T07:40:37Z</time>
      </trkpt>
      <trkpt lat="45.0392500" lon="6.9836570">
        <ele>1450.6</ele>
        <time>2017-07-28T07:40:39Z</time>
      </trkpt>
      <trkpt lat="45.0392090" lon="6.9835150">
        <ele>1450.8</ele>
        <time>2017-07-28T07:40:41Z</time>
      </trkpt>
      <trkpt lat="45.0391560" lon="6.9833950">
        <ele>1450.8</ele>
        <time>2017-07-28T07:40:43Z</time>
      </trkpt>
      <trkpt lat="45.0390770" lon="6.9832050">
        <ele>1450.2</ele>
        <time>2017-07-28T07:40:46Z</time>
      </trkpt>
      <trkpt lat="45.0390550" lon="6.9831400">
        <ele>1450.0</ele>
        <time>2017-07-28T07:40:47Z</time>
      </trkpt>
      <trkpt lat="45.0388860" lon="6.9826670">
        <ele>1449.2</ele>
        <time>2017-07-28T07:40:54Z</time>
      </trkpt>
      <trkpt lat="45.0388100" lon="6.9824580">
        <ele>1448.8</ele>
        <time>2017-07-28T07:40:57Z</time>
      </trkpt>
      <trkpt lat="45.0387420" lon="6.9822430">
        <ele>1448.8</ele>
        <time>2017-07-28T07:41:00Z</time>
      </trkpt>
      <trkpt lat="45.0387300" lon="6.9821660">
        <ele>1448.6</ele>
        <time>2017-07-28T07:41:01Z</time>
      </trkpt>
      <trkpt lat="45.0386860" lon="6.9818120">
        <ele>1449.2</ele>
        <time>2017-07-28T07:41:06Z</time>
      </trkpt>
      <trkpt lat="45.0386720" lon="6.9817430">
        <ele>1449.4</ele>
        <time>2017-07-28T07:41:07Z</time>
      </trkpt>
      <trkpt lat="45.0385880" lon="6.9814690">
        <ele>1450.0</ele>
        <time>2017-07-28T07:41:11Z</time>
      </trkpt>
      <trkpt lat="45.0385420" lon="6.9813300">
        <ele>1450.0</ele>
        <time>2017-07-28T07:41:13Z</time>
      </trkpt>
      <trkpt lat="45.0385670" lon="6.9810430">
        <ele>1451.0</ele>
        <time>2017-07-28T07:41:17Z</time>
      </trkpt>
      <trkpt lat="45.0386220" lon="6.9809120">
        <ele>1451.4</ele>
        <time>2017-07-28T07:41:19Z</time>
      </trkpt>
      <trkpt lat="45.0387080" lon="6.9807280">
        <ele>1451.8</ele>
        <time>2017-07-28T07:41:22Z</time>
      </trkpt>
      <trkpt lat="45.0388490" lon="6.9804060">
        <ele>1452.0</ele>
        <time>2017-07-28T07:41:27Z</time>
      </trkpt>
      <trkpt lat="45.0389140" lon="6.9802900">
        <ele>1452.2</ele>
        <time>2017-07-28T07:41:29Z</time>
      </trkpt>
      <trkpt lat="45.0391550" lon="6.9799340">
        <ele>1452.2</ele>
        <time>2017-07-28T07:41:36Z</time>
      </trkpt>
      <trkpt lat="45.0392060" lon="6.9798110">
        <ele>1452.4</ele>
        <time>2017-07-28T07:41:38Z</time>
      </trkpt>
      <trkpt lat="45.0392360" lon="6.9796090">
        <ele>1453.0</ele>
        <time>2017-07-28T07:41:41Z</time>
      </trkpt>
      <trkpt lat="45.0392410" lon="6.9794740">
        <ele>1453.2</ele>
        <time>2017-07-28T07:41:43Z</time>
      </trkpt>
      <trkpt lat="45.0391910" lon="6.9792760">
        <ele>1453.6</ele>
        <time>2017-07-28T07:41:46Z</time>
      </trkpt>
      <trkpt lat="45.0391470" lon="6.9791470">
        <ele>1454.2</ele>
        <time>2017-07-28T07:41:48Z</time>
      </trkpt>
      <trkpt lat="45.0390320" lon="6.9788370">
        <ele>1455.4</ele>
        <time>2017-07-28T07:41:53Z</time>
      </trkpt>
      <trkpt lat="45.0390090" lon="6.9787730">
        <ele>1455.8</ele>
        <time>2017-07-28T07:41:54Z</time>
      </trkpt>
      <trkpt lat="45.0389230" lon="6.9785260">
        <ele>1456.6</ele>
        <time>2017-07-28T07:41:58Z</time>
      </trkpt>
      <trkpt lat="45.0388980" lon="6.9784680">
        <ele>1456.8</ele>
        <time>2017-07-28T07:41:59Z</time>
      </trkpt>
      <trkpt lat="45.0388500" lon="6.9783530">
        <ele>1457.0</ele>
        <time>2017-07-28T07:42:01Z</time>
      </trkpt>
      <trkpt lat="45.0387980" lon="6.9781800">
        <ele>1457.4</ele>
        <time>2017-07-28T07:42:04Z</time>
      </trkpt>
      <trkpt lat="45.0387740" lon="6.9780050">
        <ele>1457.8</ele>
        <time>2017-07-28T07:42:07Z</time>
      </trkpt>
      <trkpt lat="45.0387510" lon="6.9779560">
        <ele>1458.0</ele>
        <time>2017-07-28T07:42:08Z</time>
      </trkpt>
      <trkpt lat="45.0386680" lon="6.9779050">
        <ele>1457.8</ele>
        <time>2017-07-28T07:42:10Z</time>
      </trkpt>
      <trkpt lat="45.0385160" lon="6.9779360">
        <ele>1457.0</ele>
        <time>2017-07-28T07:42:13Z</time>
      </trkpt>
      <trkpt lat="45.0384140" lon="6.9779330">
        <ele>1457.0</ele>
        <time>2017-07-28T07:42:15Z</time>
      </trkpt>
      <trkpt lat="45.0383220" lon="6.9778670">
        <ele>1457.0</ele>
        <time>2017-07-28T07:42:17Z</time>
      </trkpt>
      <trkpt lat="45.0382530" lon="6.9777830">
        <ele>1456.6</ele>
        <time>2017-07-28T07:42:19Z</time>
      </trkpt>
      <trkpt lat="45.0382200" lon="6.9777370">
        <ele>1456.6</ele>
        <time>2017-07-28T07:42:20Z</time>
      </trkpt>
      <trkpt lat="45.0381880" lon="6.9776860">
        <ele>1456.6</ele>
        <time>2017-07-28T07:42:21Z</time>
      </trkpt>
      <trkpt lat="45.0379110" lon="6.9773060">
        <ele>1457.0</ele>
        <time>2017-07-28T07:42:29Z</time>
      </trkpt>
      <trkpt lat="45.0378720" lon="6.9772680">
        <ele>1457.0</ele>
        <time>2017-07-28T07:42:30Z</time>
      </trkpt>
      <trkpt lat="45.0377020" lon="6.9771440">
        <ele>1457.8</ele>
        <time>2017-07-28T07:42:34Z</time>
      </trkpt>
      <trkpt lat="45.0376580" lon="6.9771290">
        <ele>1457.6</ele>
        <time>2017-07-28T07:42:35Z</time>
      </trkpt>
      <trkpt lat="45.0375750" lon="6.9770880">
        <ele>1457.4</ele>
        <time>2017-07-28T07:42:37Z</time>
      </trkpt>
      <trkpt lat="45.0375380" lon="6.9770430">
        <ele>1457.8</ele>
        <time>2017-07-28T07:42:38Z</time>
      </trkpt>
      <trkpt lat="45.0374490" lon="6.9768770">
        <ele>1458.2</ele>
        <time>2017-07-28T07:42:41Z</time>
      </trkpt>
      <trkpt lat="45.0374140" lon="6.9768260">
        <ele>1458.2</ele>
        <time>2017-07-28T07:42:42Z</time>
      </trkpt>
      <trkpt lat="45.0373740" lon="6.9767890">
        <ele>1458.4</ele>
        <time>2017-07-28T07:42:43Z</time>
      </trkpt>
      <trkpt lat="45.0372410" lon="6.9767110">
        <ele>1458.8</ele>
        <time>2017-07-28T07:42:46Z</time>
      </trkpt>
      <trkpt lat="45.0371110" lon="6.9766480">
        <ele>1459.0</ele>
        <time>2017-07-28T07:42:49Z</time>
      </trkpt>
      <trkpt lat="45.0370440" lon="6.9765530">
        <ele>1459.4</ele>
        <time>2017-07-28T07:42:51Z</time>
      </trkpt>
      <trkpt lat="45.0369700" lon="6.9763350">
        <ele>1460.0</ele>
        <time>2017-07-28T07:42:55Z</time>
      </trkpt>
      <trkpt lat="45.0369300" lon="6.9762500">
        <ele>1460.6</ele>
        <time>2017-07-28T07:42:57Z</time>
      </trkpt>
      <trkpt lat="45.0368470" lon="6.9761060">
        <ele>1461.0</ele>
        <time>2017-07-28T07:43:01Z</time>
      </trkpt>
      <trkpt lat="45.0367280" lon="6.9759500">
        <ele>1462.2</ele>
        <time>2017-07-28T07:43:06Z</time>
      </trkpt>
      <trkpt lat="45.0367040" lon="6.9759190">
        <ele>1462.8</ele>
        <time>2017-07-28T07:43:07Z</time>
      </trkpt>
      <trkpt lat="45.0366230" lon="6.9757750">
        <ele>1463.4</ele>
        <time>2017-07-28T07:43:11Z</time>
      </trkpt>
      <trkpt lat="45.0365970" lon="6.9756970">
        <ele>1464.2</ele>
        <time>2017-07-28T07:43:13Z</time>
      </trkpt>
      <trkpt lat="45.0365820" lon="6.9756570">
        <ele>1464.6</ele>
        <time>2017-07-28T07:43:14Z</time>
      </trkpt>
      <trkpt lat="45.0365540" lon="6.9755350">
        <ele>1465.6</ele>
        <time>2017-07-28T07:43:17Z</time>
      </trkpt>
      <trkpt lat="45.0365240" lon="6.9754270">
        <ele>1466.8</ele>
        <time>2017-07-28T07:43:20Z</time>
      </trkpt>
      <trkpt lat="45.0364900" lon="6.9753300">
        <ele>1468.2</ele>
        <time>2017-07-28T07:43:23Z</time>
      </trkpt>
      <trkpt lat="45.0364510" lon="6.9752230">
        <ele>1469.2</ele>
        <time>2017-07-28T07:43:26Z</time>
      </trkpt>
      <trkpt lat="45.0364100" lon="6.9751150">
        <ele>1470.2</ele>
        <time>2017-07-28T07:43:29Z</time>
      </trkpt>
      <trkpt lat="45.0363970" lon="6.9750810">
        <ele>1470.4</ele>
        <time>2017-07-28T07:43:30Z</time>
      </trkpt>
      <trkpt lat="45.0363700" lon="6.9750140">
        <ele>1471.4</ele>
        <time>2017-07-28T07:43:32Z</time>
      </trkpt>
      <trkpt lat="45.0362990" lon="6.9748450">
        <ele>1472.4</ele>
        <time>2017-07-28T07:43:37Z</time>
      </trkpt>
      <trkpt lat="45.0362830" lon="6.9748110">
        <ele>1472.6</ele>
        <time>2017-07-28T07:43:38Z</time>
      </trkpt>
      <trkpt lat="45.0361320" lon="6.9745920">
        <ele>1473.6</ele>
        <time>2017-07-28T07:43:46Z</time>
      </trkpt>
      <trkpt lat="45.0361080" lon="6.9745650">
        <ele>1473.8</ele>
        <time>2017-07-28T07:43:47Z</time>
      </trkpt>
      <trkpt lat="45.0360110" lon="6.9744150">
        <ele>1474.8</ele>
        <time>2017-07-28T07:43:52Z</time>
      </trkpt>
      <trkpt lat="45.0359940" lon="6.9743810">
        <ele>1475.0</ele>
        <time>2017-07-28T07:43:53Z</time>
      </trkpt>
      <trkpt lat="45.0359220" lon="6.9742270">
        <ele>1476.2</ele>
        <time>2017-07-28T07:43:57Z</time>
      </trkpt>
      <trkpt lat="45.0358900" lon="6.9741420">
        <ele>1476.8</ele>
        <time>2017-07-28T07:43:59Z</time>
      </trkpt>
      <trkpt lat="45.0358420" lon="6.9740160">
        <ele>1477.4</ele>
        <time>2017-07-28T07:44:02Z</time>
      </trkpt>
      <trkpt lat="45.0357780" lon="6.9738250">
        <ele>1478.6</ele>
        <time>2017-07-28T07:44:06Z</time>
      </trkpt>
      <trkpt lat="45.0357710" lon="6.9737760">
        <ele>1478.6</ele>
        <time>2017-07-28T07:44:07Z</time>
      </trkpt>
      <trkpt lat="45.0357260" lon="6.9735340">
        <ele>1479.6</ele>
        <time>2017-07-28T07:44:12Z</time>
      </trkpt>
      <trkpt lat="45.0357170" lon="6.9734300">
        <ele>1480.2</ele>
        <time>2017-07-28T07:44:14Z</time>
      </trkpt>
      <trkpt lat="45.0356890" lon="6.9732750">
        <ele>1480.8</ele>
        <time>2017-07-28T07:44:17Z</time>
      </trkpt>
      <trkpt lat="45.0356460" lon="6.9731200">
        <ele>1481.4</ele>
        <time>2017-07-28T07:44:20Z</time>
      </trkpt>
      <trkpt lat="45.0356300" lon="6.9730700">
        <ele>1481.8</ele>
        <time>2017-07-28T07:44:21Z</time>
      </trkpt>
      <trkpt lat="45.0355370" lon="6.9729200">
        <ele>1482.6</ele>
        <time>2017-07-28T07:44:25Z</time>
      </trkpt>
      <trkpt lat="45.0353940" lon="6.9728380">
        <ele>1482.4</ele>
        <time>2017-07-28T07:44:30Z</time>
      </trkpt>
      <trkpt lat="45.0352330" lon="6.9727400">
        <ele>1482.4</ele>
        <time>2017-07-28T07:44:35Z</time>
      </trkpt>
      <trkpt lat="45.0350780" lon="6.9726840">
        <ele>1482.6</ele>
        <time>2017-07-28T07:44:40Z</time>
      </trkpt>
      <trkpt lat="45.0350030" lon="6.9726310">
        <ele>1483.0</ele>
        <time>2017-07-28T07:44:43Z</time>
      </trkpt>
      <trkpt lat="45.0349050" lon="6.9725490">
        <ele>1483.8</ele>
        <time>2017-07-28T07:44:47Z</time>
      </trkpt>
      <trkpt lat="45.0348780" lon="6.9725260">
        <ele>1484.0</ele>
        <time>2017-07-28T07:44:48Z</time>
      </trkpt>
      <trkpt lat="45.0347790" lon="6.9723540">
        <ele>1485.0</ele>
        <time>2017-07-28T07:44:53Z</time>
      </trkpt>
      <trkpt lat="45.0347540" lon="6.9723070">
        <ele>1485.4</ele>
        <time>2017-07-28T07:44:54Z</time>
      </trkpt>
      <trkpt lat="45.0347120" lon="6.9721990">
        <ele>1486.0</ele>
        <time>2017-07-28T07:44:56Z</time>
      </trkpt>
      <trkpt lat="45.0346950" lon="6.9721450">
        <ele>1486.2</ele>
        <time>2017-07-28T07:44:57Z</time>
      </trkpt>
      <trkpt lat="45.0346800" lon="6.9720840">
        <ele>1486.4</ele>
        <time>2017-07-28T07:44:58Z</time>
      </trkpt>
      <trkpt lat="45.0346400" lon="6.9719540">
        <ele>1486.6</ele>
        <time>2017-07-28T07:45:00Z</time>
      </trkpt>
      <trkpt lat="45.0345700" lon="6.9717480">
        <ele>1487.0</ele>
        <time>2017-07-28T07:45:03Z</time>
      </trkpt>
      <trkpt lat="45.0345540" lon="6.9716810">
        <ele>1487.0</ele>
        <time>2017-07-28T07:45:04Z</time>
      </trkpt>
      <trkpt lat="45.0345100" lon="6.9715700">
        <ele>1487.2</ele>
        <time>2017-07-28T07:45:06Z</time>
      </trkpt>
      <trkpt lat="45.0345140" lon="6.9714510">
        <ele>1487.6</ele>
        <time>2017-07-28T07:45:08Z</time>
      </trkpt>
      <trkpt lat="45.0345490" lon="6.9712830">
        <ele>1488.0</ele>
        <time>2017-07-28T07:45:11Z</time>
      </trkpt>
      <trkpt lat="45.0345390" lon="6.9712250">
        <ele>1488.0</ele>
        <time>2017-07-28T07:45:12Z</time>
      </trkpt>
      <trkpt lat="45.0345300" lon="6.9711680">
        <ele>1488.0</ele>
        <time>2017-07-28T07:45:13Z</time>
      </trkpt>
      <trkpt lat="45.0345140" lon="6.9711090">
        <ele>1488.2</ele>
        <time>2017-07-28T07:45:14Z</time>
      </trkpt>
      <trkpt lat="45.0344840" lon="6.9710020">
        <ele>1488.6</ele>
        <time>2017-07-28T07:45:16Z</time>
      </trkpt>
      <trkpt lat="45.0344590" lon="6.9709440">
        <ele>1488.8</ele>
        <time>2017-07-28T07:45:17Z</time>
      </trkpt>
      <trkpt lat="45.0344330" lon="6.9708790">
        <ele>1488.8</ele>
        <time>2017-07-28T07:45:18Z</time>
      </trkpt>
      <trkpt lat="45.0343500" lon="6.9706610">
        <ele>1489.2</ele>
        <time>2017-07-28T07:45:21Z</time>
      </trkpt>
      <trkpt lat="45.0342790" lon="6.9705450">
        <ele>1489.2</ele>
        <time>2017-07-28T07:45:23Z</time>
      </trkpt>
      <trkpt lat="45.0341030" lon="6.9703510">
        <ele>1489.6</ele>
        <time>2017-07-28T07:45:27Z</time>
      </trkpt>
      <trkpt lat="45.0340670" lon="6.9703110">
        <ele>1489.6</ele>
        <time>2017-07-28T07:45:28Z</time>
      </trkpt>
      <trkpt lat="45.0337610" lon="6.9699950">
        <ele>1490.0</ele>
        <time>2017-07-28T07:45:35Z</time>
      </trkpt>
      <trkpt lat="45.0334770" lon="6.9695850">
        <ele>1489.8</ele>
        <time>2017-07-28T07:45:41Z</time>
      </trkpt>
      <trkpt lat="45.0331890" lon="6.9692140">
        <ele>1489.4</ele>
        <time>2017-07-28T07:45:47Z</time>
      </trkpt>
      <trkpt lat="45.0331390" lon="6.9691730">
        <ele>1489.4</ele>
        <time>2017-07-28T07:45:48Z</time>
      </trkpt>
      <trkpt lat="45.0329720" lon="6.9690850">
        <ele>1489.6</ele>
        <time>2017-07-28T07:45:51Z</time>
      </trkpt>
      <trkpt lat="45.0328560" lon="6.9690460">
        <ele>1489.6</ele>
        <time>2017-07-28T07:45:53Z</time>
      </trkpt>
      <trkpt lat="45.0327500" lon="6.9690020">
        <ele>1489.6</ele>
        <time>2017-07-28T07:45:55Z</time>
      </trkpt>
      <trkpt lat="45.0326510" lon="6.9689360">
        <ele>1489.6</ele>
        <time>2017-07-28T07:45:57Z</time>
      </trkpt>
      <trkpt lat="45.0325030" lon="6.9688150">
        <ele>1489.4</ele>
        <time>2017-07-28T07:46:00Z</time>
      </trkpt>
      <trkpt lat="45.0325080" lon="6.9688260">
        <ele>1489.2</ele>
        <time>2017-07-28T07:46:01Z</time>
      </trkpt>
      <trkpt lat="45.0324110" lon="6.9687730">
        <ele>1488.8</ele>
        <time>2017-07-28T07:46:05Z</time>
      </trkpt>
      <trkpt lat="45.0323760" lon="6.9687480">
        <ele>1488.4</ele>
        <time>2017-07-28T07:46:06Z</time>
      </trkpt>
      <trkpt lat="45.0322350" lon="6.9686700">
        <ele>1488.2</ele>
        <time>2017-07-28T07:46:09Z</time>
      </trkpt>
      <trkpt lat="45.0320120" lon="6.9685700">
        <ele>1487.4</ele>
        <time>2017-07-28T07:46:13Z</time>
      </trkpt>
      <trkpt lat="45.0318990" lon="6.9684990">
        <ele>1486.6</ele>
        <time>2017-07-28T07:46:15Z</time>
      </trkpt>
      <trkpt lat="45.0316460" lon="6.9683280">
        <ele>1486.2</ele>
        <time>2017-07-28T07:46:20Z</time>
      </trkpt>
      <trkpt lat="45.0315950" lon="6.9682930">
        <ele>1486.0</ele>
        <time>2017-07-28T07:46:21Z</time>
      </trkpt>
      <trkpt lat="45.0313290" lon="6.9681070">
        <ele>1485.6</ele>
        <time>2017-07-28T07:46:26Z</time>
      </trkpt>
      <trkpt lat="45.0312310" lon="6.9680300">
        <ele>1485.6</ele>
        <time>2017-07-28T07:46:28Z</time>
      </trkpt>
      <trkpt lat="45.0310110" lon="6.9677970">
        <ele>1486.2</ele>
        <time>2017-07-28T07:46:33Z</time>
      </trkpt>
      <trkpt lat="45.0309670" lon="6.9677510">
        <ele>1486.2</ele>
        <time>2017-07-28T07:46:34Z</time>
      </trkpt>
      <trkpt lat="45.0307100" lon="6.9674770">
        <ele>1486.8</ele>
        <time>2017-07-28T07:46:40Z</time>
      </trkpt>
      <trkpt lat="45.0306680" lon="6.9674350">
        <ele>1487.2</ele>
        <time>2017-07-28T07:46:41Z</time>
      </trkpt>
      <trkpt lat="45.0306280" lon="6.9673830">
        <ele>1487.4</ele>
        <time>2017-07-28T07:46:42Z</time>
      </trkpt>
      <trkpt lat="45.0305570" lon="6.9672810">
        <ele>1487.8</ele>
        <time>2017-07-28T07:46:44Z</time>
      </trkpt>
      <trkpt lat="45.0305220" lon="6.9671390">
        <ele>1488.2</ele>
        <time>2017-07-28T07:46:46Z</time>
      </trkpt>
      <trkpt lat="45.0305240" lon="6.9669160">
        <ele>1488.6</ele>
        <time>2017-07-28T07:46:49Z</time>
      </trkpt>
      <trkpt lat="45.0305190" lon="6.9668500">
        <ele>1488.8</ele>
        <time>2017-07-28T07:46:50Z</time>
      </trkpt>
      <trkpt lat="45.0304680" lon="6.9666710">
        <ele>1489.4</ele>
        <time>2017-07-28T07:46:53Z</time>
      </trkpt>
      <trkpt lat="45.0304390" lon="6.9666080">
        <ele>1489.6</ele>
        <time>2017-07-28T07:46:54Z</time>
      </trkpt>
      <trkpt lat="45.0303010" lon="6.9663270">
        <ele>1489.6</ele>
        <time>2017-07-28T07:46:59Z</time>
      </trkpt>
      <trkpt lat="45.0302720" lon="6.9662690">
        <ele>1489.6</ele>
        <time>2017-07-28T07:47:00Z</time>
      </trkpt>
      <trkpt lat="45.0301240" lon="6.9658350">
        <ele>1490.4</ele>
        <time>2017-07-28T07:47:07Z</time>
      </trkpt>
      <trkpt lat="45.0300220" lon="6.9654170">
        <ele>1490.4</ele>
        <time>2017-07-28T07:47:14Z</time>
      </trkpt>
      <trkpt lat="45.0299900" lon="6.9653310">
        <ele>1490.8</ele>
        <time>2017-07-28T07:47:16Z</time>
      </trkpt>
      <trkpt lat="45.0299770" lon="6.9652570">
        <ele>1491.4</ele>
        <time>2017-07-28T07:47:18Z</time>
      </trkpt>
      <trkpt lat="45.0299560" lon="6.9651500">
        <ele>1491.8</ele>
        <time>2017-07-28T07:47:20Z</time>
      </trkpt>
      <trkpt lat="45.0299380" lon="6.9649840">
        <ele>1492.4</ele>
        <time>2017-07-28T07:47:23Z</time>
      </trkpt>
      <trkpt lat="45.0299040" lon="6.9647600">
        <ele>1493.0</ele>
        <time>2017-07-28T07:47:27Z</time>
      </trkpt>
      <trkpt lat="45.0298760" lon="6.9645910">
        <ele>1493.6</ele>
        <time>2017-07-28T07:47:30Z</time>
      </trkpt>
      <trkpt lat="45.0298410" lon="6.9644170">
        <ele>1494.0</ele>
        <time>2017-07-28T07:47:33Z</time>
      </trkpt>
      <trkpt lat="45.0298350" lon="6.9643630">
        <ele>1494.0</ele>
        <time>2017-07-28T07:47:34Z</time>
      </trkpt>
      <trkpt lat="45.0298190" lon="6.9643130">
        <ele>1494.4</ele>
        <time>2017-07-28T07:47:35Z</time>
      </trkpt>
      <trkpt lat="45.0297920" lon="6.9640390">
        <ele>1495.0</ele>
        <time>2017-07-28T07:47:40Z</time>
      </trkpt>
      <trkpt lat="45.0297120" lon="6.9638390">
        <ele>1495.2</ele>
        <time>2017-07-28T07:47:44Z</time>
      </trkpt>
      <trkpt lat="45.0296870" lon="6.9637920">
        <ele>1495.4</ele>
        <time>2017-07-28T07:47:45Z</time>
      </trkpt>
      <trkpt lat="45.0295700" lon="6.9635120">
        <ele>1496.2</ele>
        <time>2017-07-28T07:47:51Z</time>
      </trkpt>
      <trkpt lat="45.0295510" lon="6.9634700">
        <ele>1496.2</ele>
        <time>2017-07-28T07:47:52Z</time>
      </trkpt>
      <trkpt lat="45.0293730" lon="6.9631780">
        <ele>1497.0</ele>
        <time>2017-07-28T07:47:59Z</time>
      </trkpt>
      <trkpt lat="45.0293430" lon="6.9631400">
        <ele>1497.2</ele>
        <time>2017-07-28T07:48:00Z</time>
      </trkpt>
      <trkpt lat="45.0292760" lon="6.9630550">
        <ele>1497.4</ele>
        <time>2017-07-28T07:48:02Z</time>
      </trkpt>
      <trkpt lat="45.0291820" lon="6.9629110">
        <ele>1497.4</ele>
        <time>2017-07-28T07:48:05Z</time>
      </trkpt>
      <trkpt lat="45.0291010" lon="6.9627500">
        <ele>1497.4</ele>
        <time>2017-07-28T07:48:08Z</time>
      </trkpt>
      <trkpt lat="45.0290500" lon="6.9626580">
        <ele>1497.6</ele>
        <time>2017-07-28T07:48:10Z</time>
      </trkpt>
      <trkpt lat="45.0290240" lon="6.9626140">
        <ele>1497.8</ele>
        <time>2017-07-28T07:48:11Z</time>
      </trkpt>
      <trkpt lat="45.0288840" lon="6.9624090">
        <ele>1498.2</ele>
        <time>2017-07-28T07:48:16Z</time>
      </trkpt>
      <trkpt lat="45.0288370" lon="6.9623510">
        <ele>1498.2</ele>
        <time>2017-07-28T07:48:18Z</time>
      </trkpt>
      <trkpt lat="45.0287490" lon="6.9622070">
        <ele>1499.4</ele>
        <time>2017-07-28T07:48:24Z</time>
      </trkpt>
      <trkpt lat="45.0286960" lon="6.9621270">
        <ele>1500.4</ele>
        <time>2017-07-28T07:48:29Z</time>
      </trkpt>
      <trkpt lat="45.0286810" lon="6.9621120">
        <ele>1500.8</ele>
        <time>2017-07-28T07:48:30Z</time>
      </trkpt>
      <trkpt lat="45.0286390" lon="6.9620470">
        <ele>1502.2</ele>
        <time>2017-07-28T07:48:40Z</time>
      </trkpt>
      <trkpt lat="45.0286030" lon="6.9620000">
        <ele>1502.4</ele>
        <time>2017-07-28T07:48:43Z</time>
      </trkpt>
      <trkpt lat="45.0285940" lon="6.9619820">
        <ele>1502.6</ele>
        <time>2017-07-28T07:48:44Z</time>
      </trkpt>
      <trkpt lat="45.0285550" lon="6.9619380">
        <ele>1503.4</ele>
        <time>2017-07-28T07:48:47Z</time>
      </trkpt>
      <trkpt lat="45.0285320" lon="6.9619130">
        <ele>1504.0</ele>
        <time>2017-07-28T07:48:49Z</time>
      </trkpt>
      <trkpt lat="45.0284840" lon="6.9618830">
        <ele>1505.0</ele>
        <time>2017-07-28T07:48:53Z</time>
      </trkpt>
      <trkpt lat="45.0284670" lon="6.9618710">
        <ele>1505.8</ele>
        <time>2017-07-28T07:48:56Z</time>
      </trkpt>
      <trkpt lat="45.0284600" lon="6.9618690">
        <ele>1506.2</ele>
        <time>2017-07-28T07:48:57Z</time>
      </trkpt>
      <trkpt lat="45.0281590" lon="6.9617170">
        <ele>1517.0</ele>
        <time>2017-07-28T07:49:38Z</time>
      </trkpt>
      <trkpt lat="45.0281400" lon="6.9616930">
        <ele>1517.0</ele>
        <time>2017-07-28T07:49:40Z</time>
      </trkpt>
      <trkpt lat="45.0280890" lon="6.9615950">
        <ele>1516.6</ele>
        <time>2017-07-28T07:49:46Z</time>
      </trkpt>
      <trkpt lat="45.0280770" lon="6.9615250">
        <ele>1517.2</ele>
        <time>2017-07-28T07:49:49Z</time>
      </trkpt>
      <trkpt lat="45.0280300" lon="6.9614280">
        <ele>1518.2</ele>
        <time>2017-07-28T07:49:53Z</time>
      </trkpt>
      <trkpt lat="45.0280010" lon="6.9613400">
        <ele>1519.2</ele>
        <time>2017-07-28T07:49:56Z</time>
      </trkpt>
      <trkpt lat="45.0279710" lon="6.9612640">
        <ele>1520.0</ele>
        <time>2017-07-28T07:49:59Z</time>
      </trkpt>
      <trkpt lat="45.0279600" lon="6.9612380">
        <ele>1520.4</ele>
        <time>2017-07-28T07:50:00Z</time>
      </trkpt>
      <trkpt lat="45.0279350" lon="6.9611600">
        <ele>1521.4</ele>
        <time>2017-07-28T07:50:03Z</time>
      </trkpt>
      <trkpt lat="45.0279070" lon="6.9610630">
        <ele>1522.6</ele>
        <time>2017-07-28T07:50:07Z</time>
      </trkpt>
      <trkpt lat="45.0279000" lon="6.9610360">
        <ele>1522.8</ele>
        <time>2017-07-28T07:50:08Z</time>
      </trkpt>
      <trkpt lat="45.0278950" lon="6.9609790">
        <ele>1523.6</ele>
        <time>2017-07-28T07:50:10Z</time>
      </trkpt>
      <trkpt lat="45.0278810" lon="6.9608730">
        <ele>1524.8</ele>
        <time>2017-07-28T07:50:14Z</time>
      </trkpt>
      <trkpt lat="45.0278770" lon="6.9608230">
        <ele>1525.4</ele>
        <time>2017-07-28T07:50:16Z</time>
      </trkpt>
      <trkpt lat="45.0278860" lon="6.9607720">
        <ele>1526.0</ele>
        <time>2017-07-28T07:50:18Z</time>
      </trkpt>
      <trkpt lat="45.0278900" lon="6.9607520">
        <ele>1526.4</ele>
        <time>2017-07-28T07:50:19Z</time>
      </trkpt>
      <trkpt lat="45.0279030" lon="6.9606880">
        <ele>1527.2</ele>
        <time>2017-07-28T07:50:22Z</time>
      </trkpt>
      <trkpt lat="45.0279040" lon="6.9606170">
        <ele>1527.8</ele>
        <time>2017-07-28T07:50:25Z</time>
      </trkpt>
      <trkpt lat="45.0279020" lon="6.9605690">
        <ele>1528.2</ele>
        <time>2017-07-28T07:50:27Z</time>
      </trkpt>
      <trkpt lat="45.0279020" lon="6.9605400">
        <ele>1528.4</ele>
        <time>2017-07-28T07:50:28Z</time>
      </trkpt>
      <trkpt lat="45.0278810" lon="6.9604490">
        <ele>1529.0</ele>
        <time>2017-07-28T07:50:31Z</time>
      </trkpt>
      <trkpt lat="45.0278560" lon="6.9603270">
        <ele>1529.4</ele>
        <time>2017-07-28T07:50:35Z</time>
      </trkpt>
      <trkpt lat="45.0278270" lon="6.9601540">
        <ele>1530.4</ele>
        <time>2017-07-28T07:50:40Z</time>
      </trkpt>
      <trkpt lat="45.0277860" lon="6.9599650">
        <ele>1531.6</ele>
        <time>2017-07-28T07:50:46Z</time>
      </trkpt>
      <trkpt lat="45.0277820" lon="6.9599370">
        <ele>1532.0</ele>
        <time>2017-07-28T07:50:47Z</time>
      </trkpt>
      <trkpt lat="45.0277520" lon="6.9598230">
        <ele>1532.8</ele>
        <time>2017-07-28T07:50:51Z</time>
      </trkpt>
      <trkpt lat="45.0277380" lon="6.9597210">
        <ele>1533.4</ele>
        <time>2017-07-28T07:50:54Z</time>
      </trkpt>
      <trkpt lat="45.0277380" lon="6.9596470">
        <ele>1534.0</ele>
        <time>2017-07-28T07:50:56Z</time>
      </trkpt>
      <trkpt lat="45.0277240" lon="6.9594760">
        <ele>1534.8</ele>
        <time>2017-07-28T07:51:00Z</time>
      </trkpt>
      <trkpt lat="45.0277260" lon="6.9594310">
        <ele>1535.0</ele>
        <time>2017-07-28T07:51:01Z</time>
      </trkpt>
      <trkpt lat="45.0277140" lon="6.9591260">
        <ele>1536.0</ele>
        <time>2017-07-28T07:51:07Z</time>
      </trkpt>
      <trkpt lat="45.0277000" lon="6.9587780">
        <ele>1537.2</ele>
        <time>2017-07-28T07:51:13Z</time>
      </trkpt>
      <trkpt lat="45.0277010" lon="6.9587290">
        <ele>1537.2</ele>
        <time>2017-07-28T07:51:14Z</time>
      </trkpt>
      <trkpt lat="45.0276850" lon="6.9585110">
        <ele>1538.0</ele>
        <time>2017-07-28T07:51:19Z</time>
      </trkpt>
      <trkpt lat="45.0276540" lon="6.9584910">
        <ele>1538.2</ele>
        <time>2017-07-28T07:51:20Z</time>
      </trkpt>
      <trkpt lat="45.0276140" lon="6.9585600">
        <ele>1538.4</ele>
        <time>2017-07-28T07:51:22Z</time>
      </trkpt>
      <trkpt lat="45.0275810" lon="6.9586490">
        <ele>1538.4</ele>
        <time>2017-07-28T07:51:24Z</time>
      </trkpt>
      <trkpt lat="45.0275670" lon="6.9587830">
        <ele>1538.8</ele>
        <time>2017-07-28T07:51:27Z</time>
      </trkpt>
      <trkpt lat="45.0275580" lon="6.9588630">
        <ele>1539.2</ele>
        <time>2017-07-28T07:51:29Z</time>
      </trkpt>
      <trkpt lat="45.0275040" lon="6.9590300">
        <ele>1540.4</ele>
        <time>2017-07-28T07:51:33Z</time>
      </trkpt>
      <trkpt lat="45.0274870" lon="6.9590740">
        <ele>1540.6</ele>
        <time>2017-07-28T07:51:34Z</time>
      </trkpt>
      <trkpt lat="45.0274300" lon="6.9593110">
        <ele>1541.6</ele>
        <time>2017-07-28T07:51:40Z</time>
      </trkpt>
      <trkpt lat="45.0273980" lon="6.9593070">
        <ele>1542.2</ele>
        <time>2017-07-28T07:51:42Z</time>
      </trkpt>
      <trkpt lat="45.0273850" lon="6.9592960">
        <ele>1542.4</ele>
        <time>2017-07-28T07:51:43Z</time>
      </trkpt>
      <trkpt lat="45.0273810" lon="6.9592720">
        <ele>1542.6</ele>
        <time>2017-07-28T07:51:44Z</time>
      </trkpt>
      <trkpt lat="45.0273700" lon="6.9591800">
        <ele>1543.6</ele>
        <time>2017-07-28T07:51:47Z</time>
      </trkpt>
      <trkpt lat="45.0273720" lon="6.9591530">
        <ele>1544.0</ele>
        <time>2017-07-28T07:51:48Z</time>
      </trkpt>
      <trkpt lat="45.0273520" lon="6.9590260">
        <ele>1545.0</ele>
        <time>2017-07-28T07:51:52Z</time>
      </trkpt>
      <trkpt lat="45.0273470" lon="6.9589870">
        <ele>1545.4</ele>
        <time>2017-07-28T07:51:53Z</time>
      </trkpt>
      <trkpt lat="45.0273260" lon="6.9588880">
        <ele>1546.6</ele>
        <time>2017-07-28T07:51:56Z</time>
      </trkpt>
      <trkpt lat="45.0272910" lon="6.9587630">
        <ele>1547.8</ele>
        <time>2017-07-28T07:52:00Z</time>
      </trkpt>
      <trkpt lat="45.0272540" lon="6.9586890">
        <ele>1548.8</ele>
        <time>2017-07-28T07:52:03Z</time>
      </trkpt>
      <trkpt lat="45.0272170" lon="6.9585720">
        <ele>1549.8</ele>
        <time>2017-07-28T07:52:07Z</time>
      </trkpt>
      <trkpt lat="45.0272110" lon="6.9585410">
        <ele>1550.0</ele>
        <time>2017-07-28T07:52:08Z</time>
      </trkpt>
      <trkpt lat="45.0271990" lon="6.9584020">
        <ele>1551.2</ele>
        <time>2017-07-28T07:52:12Z</time>
      </trkpt>
      <trkpt lat="45.0271760" lon="6.9582760">
        <ele>1552.0</ele>
        <time>2017-07-28T07:52:16Z</time>
      </trkpt>
      <trkpt lat="45.0271710" lon="6.9582470">
        <ele>1552.4</ele>
        <time>2017-07-28T07:52:17Z</time>
      </trkpt>
      <trkpt lat="45.0271680" lon="6.9581630">
        <ele>1553.6</ele>
        <time>2017-07-28T07:52:20Z</time>
      </trkpt>
      <trkpt lat="45.0271650" lon="6.9580760">
        <ele>1554.4</ele>
        <time>2017-07-28T07:52:23Z</time>
      </trkpt>
      <trkpt lat="45.0271690" lon="6.9580510">
        <ele>1554.6</ele>
        <time>2017-07-28T07:52:24Z</time>
      </trkpt>
      <trkpt lat="45.0271610" lon="6.9579380">
        <ele>1555.8</ele>
        <time>2017-07-28T07:52:28Z</time>
      </trkpt>
      <trkpt lat="45.0271560" lon="6.9579140">
        <ele>1556.0</ele>
        <time>2017-07-28T07:52:29Z</time>
      </trkpt>
      <trkpt lat="45.0271410" lon="6.9578350">
        <ele>1557.0</ele>
        <time>2017-07-28T07:52:32Z</time>
      </trkpt>
      <trkpt lat="45.0271200" lon="6.9577270">
        <ele>1558.0</ele>
        <time>2017-07-28T07:52:36Z</time>
      </trkpt>
      <trkpt lat="45.0271190" lon="6.9576930">
        <ele>1558.2</ele>
        <time>2017-07-28T07:52:37Z</time>
      </trkpt>
      <trkpt lat="45.0271090" lon="6.9575950">
        <ele>1559.4</ele>
        <time>2017-07-28T07:52:41Z</time>
      </trkpt>
      <trkpt lat="45.0270980" lon="6.9575500">
        <ele>1560.0</ele>
        <time>2017-07-28T07:52:43Z</time>
      </trkpt>
      <trkpt lat="45.0270850" lon="6.9575290">
        <ele>1560.6</ele>
        <time>2017-07-28T07:52:44Z</time>
      </trkpt>
      <trkpt lat="45.0270530" lon="6.9574330">
        <ele>1562.0</ele>
        <time>2017-07-28T07:52:48Z</time>
      </trkpt>
      <trkpt lat="45.0270490" lon="6.9574130">
        <ele>1562.2</ele>
        <time>2017-07-28T07:52:49Z</time>
      </trkpt>
      <trkpt lat="45.0270130" lon="6.9573210">
        <ele>1563.2</ele>
        <time>2017-07-28T07:52:53Z</time>
      </trkpt>
      <trkpt lat="45.0269950" lon="6.9573060">
        <ele>1563.4</ele>
        <time>2017-07-28T07:52:54Z</time>
      </trkpt>
      <trkpt lat="45.0269850" lon="6.9572830">
        <ele>1563.6</ele>
        <time>2017-07-28T07:52:55Z</time>
      </trkpt>
      <trkpt lat="45.0269600" lon="6.9572460">
        <ele>1564.2</ele>
        <time>2017-07-28T07:52:57Z</time>
      </trkpt>
      <trkpt lat="45.0269060" lon="6.9571930">
        <ele>1565.2</ele>
        <time>2017-07-28T07:53:00Z</time>
      </trkpt>
      <trkpt lat="45.0268820" lon="6.9571850">
        <ele>1565.4</ele>
        <time>2017-07-28T07:53:01Z</time>
      </trkpt>
      <trkpt lat="45.0268610" lon="6.9571750">
        <ele>1565.6</ele>
        <time>2017-07-28T07:53:02Z</time>
      </trkpt>
      <trkpt lat="45.0267990" lon="6.9571440">
        <ele>1566.4</ele>
        <time>2017-07-28T07:53:05Z</time>
      </trkpt>
      <trkpt lat="45.0267400" lon="6.9570720">
        <ele>1567.6</ele>
        <time>2017-07-28T07:53:10Z</time>
      </trkpt>
      <trkpt lat="45.0266320" lon="6.9570060">
        <ele>1568.8</ele>
        <time>2017-07-28T07:53:16Z</time>
      </trkpt>
      <trkpt lat="45.0265710" lon="6.9569430">
        <ele>1569.8</ele>
        <time>2017-07-28T07:53:21Z</time>
      </trkpt>
      <trkpt lat="45.0265560" lon="6.9569410">
        <ele>1570.0</ele>
        <time>2017-07-28T07:53:22Z</time>
      </trkpt>
      <trkpt lat="45.0265280" lon="6.9569670">
        <ele>1570.4</ele>
        <time>2017-07-28T07:53:24Z</time>
      </trkpt>
      <trkpt lat="45.0264980" lon="6.9570340">
        <ele>1571.0</ele>
        <time>2017-07-28T07:53:27Z</time>
      </trkpt>
      <trkpt lat="45.0264960" lon="6.9570800">
        <ele>1571.4</ele>
        <time>2017-07-28T07:53:29Z</time>
      </trkpt>
      <trkpt lat="45.0264960" lon="6.9571510">
        <ele>1572.2</ele>
        <time>2017-07-28T07:53:32Z</time>
      </trkpt>
      <trkpt lat="45.0264980" lon="6.9571760">
        <ele>1572.4</ele>
        <time>2017-07-28T07:53:33Z</time>
      </trkpt>
      <trkpt lat="45.0265050" lon="6.9572560">
        <ele>1573.4</ele>
        <time>2017-07-28T07:53:36Z</time>
      </trkpt>
      <trkpt lat="45.0265280" lon="6.9573640">
        <ele>1574.4</ele>
        <time>2017-07-28T07:53:40Z</time>
      </trkpt>
      <trkpt lat="45.0265260" lon="6.9573950">
        <ele>1574.6</ele>
        <time>2017-07-28T07:53:41Z</time>
      </trkpt>
      <trkpt lat="45.0265580" lon="6.9574910">
        <ele>1575.6</ele>
        <time>2017-07-28T07:53:45Z</time>
      </trkpt>
      <trkpt lat="45.0265760" lon="6.9575270">
        <ele>1576.2</ele>
        <time>2017-07-28T07:53:47Z</time>
      </trkpt>
      <trkpt lat="45.0265930" lon="6.9575600">
        <ele>1576.8</ele>
        <time>2017-07-28T07:53:49Z</time>
      </trkpt>
      <trkpt lat="45.0266480" lon="6.9576780">
        <ele>1577.8</ele>
        <time>2017-07-28T07:53:54Z</time>
      </trkpt>
      <trkpt lat="45.0266750" lon="6.9577260">
        <ele>1578.4</ele>
        <time>2017-07-28T07:53:56Z</time>
      </trkpt>
      <trkpt lat="45.0266710" lon="6.9577720">
        <ele>1578.8</ele>
        <time>2017-07-28T07:53:58Z</time>
      </trkpt>
      <trkpt lat="45.0266600" lon="6.9577910">
        <ele>1579.0</ele>
        <time>2017-07-28T07:53:59Z</time>
      </trkpt>
      <trkpt lat="45.0265930" lon="6.9577780">
        <ele>1579.8</ele>
        <time>2017-07-28T07:54:03Z</time>
      </trkpt>
      <trkpt lat="45.0265790" lon="6.9577680">
        <ele>1580.0</ele>
        <time>2017-07-28T07:54:04Z</time>
      </trkpt>
      <trkpt lat="45.0264550" lon="6.9576460">
        <ele>1580.8</ele>
        <time>2017-07-28T07:54:10Z</time>
      </trkpt>
      <trkpt lat="45.0264320" lon="6.9576260">
        <ele>1581.2</ele>
        <time>2017-07-28T07:54:11Z</time>
      </trkpt>
      <trkpt lat="45.0263420" lon="6.9574660">
        <ele>1582.0</ele>
        <time>2017-07-28T07:54:17Z</time>
      </trkpt>
      <trkpt lat="45.0263300" lon="6.9574340">
        <ele>1582.2</ele>
        <time>2017-07-28T07:54:18Z</time>
      </trkpt>
      <trkpt lat="45.0262490" lon="6.9572720">
        <ele>1583.4</ele>
        <time>2017-07-28T07:54:23Z</time>
      </trkpt>
      <trkpt lat="45.0261950" lon="6.9571320">
        <ele>1584.6</ele>
        <time>2017-07-28T07:54:28Z</time>
      </trkpt>
      <trkpt lat="45.0261660" lon="6.9570720">
        <ele>1585.4</ele>
        <time>2017-07-28T07:54:31Z</time>
      </trkpt>
      <trkpt lat="45.0261530" lon="6.9570550">
        <ele>1585.6</ele>
        <time>2017-07-28T07:54:32Z</time>
      </trkpt>
      <trkpt lat="45.0261040" lon="6.9569390">
        <ele>1586.4</ele>
        <time>2017-07-28T07:54:37Z</time>
      </trkpt>
      <trkpt lat="45.0260880" lon="6.9569200">
        <ele>1586.8</ele>
        <time>2017-07-28T07:54:38Z</time>
      </trkpt>
      <trkpt lat="45.0260050" lon="6.9568120">
        <ele>1587.8</ele>
        <time>2017-07-28T07:54:43Z</time>
      </trkpt>
      <trkpt lat="45.0259640" lon="6.9567650">
        <ele>1586.0</ele>
        <time>2017-07-28T07:54:45Z</time>
      </trkpt>
      <trkpt lat="45.0259500" lon="6.9567400">
        <ele>1584.0</ele>
        <time>2017-07-28T07:54:46Z</time>
      </trkpt>
      <trkpt lat="45.0259240" lon="6.9566930">
        <ele>1585.2</ele>
        <time>2017-07-28T07:54:48Z</time>
      </trkpt>
      <trkpt lat="45.0259090" lon="6.9566710">
        <ele>1587.2</ele>
        <time>2017-07-28T07:54:49Z</time>
      </trkpt>
      <trkpt lat="45.0258940" lon="6.9566510">
        <ele>1588.0</ele>
        <time>2017-07-28T07:54:50Z</time>
      </trkpt>
      <trkpt lat="45.0258790" lon="6.9566350">
        <ele>1588.4</ele>
        <time>2017-07-28T07:54:51Z</time>
      </trkpt>
      <trkpt lat="45.0258650" lon="6.9566180">
        <ele>1586.8</ele>
        <time>2017-07-28T07:54:52Z</time>
      </trkpt>
      <trkpt lat="45.0258150" lon="6.9565690">
        <ele>1589.6</ele>
        <time>2017-07-28T07:54:55Z</time>
      </trkpt>
      <trkpt lat="45.0257570" lon="6.9565150">
        <ele>1590.2</ele>
        <time>2017-07-28T07:54:58Z</time>
      </trkpt>
      <trkpt lat="45.0256420" lon="6.9564050">
        <ele>1591.4</ele>
        <time>2017-07-28T07:55:03Z</time>
      </trkpt>
      <trkpt lat="45.0255940" lon="6.9563520">
        <ele>1591.8</ele>
        <time>2017-07-28T07:55:05Z</time>
      </trkpt>
      <trkpt lat="45.0254780" lon="6.9561800">
        <ele>1592.6</ele>
        <time>2017-07-28T07:55:11Z</time>
      </trkpt>
      <trkpt lat="45.0253670" lon="6.9560420">
        <ele>1593.6</ele>
        <time>2017-07-28T07:55:16Z</time>
      </trkpt>
      <trkpt lat="45.0253260" lon="6.9559820">
        <ele>1594.0</ele>
        <time>2017-07-28T07:55:18Z</time>
      </trkpt>
      <trkpt lat="45.0252810" lon="6.9559210">
        <ele>1594.8</ele>
        <time>2017-07-28T07:55:20Z</time>
      </trkpt>
      <trkpt lat="45.0251900" lon="6.9558110">
        <ele>1595.8</ele>
        <time>2017-07-28T07:55:24Z</time>
      </trkpt>
      <trkpt lat="45.0251600" lon="6.9557330">
        <ele>1596.4</ele>
        <time>2017-07-28T07:55:26Z</time>
      </trkpt>
      <trkpt lat="45.0251210" lon="6.9556320">
        <ele>1597.0</ele>
        <time>2017-07-28T07:55:28Z</time>
      </trkpt>
      <trkpt lat="45.0250640" lon="6.9555370">
        <ele>1597.4</ele>
        <time>2017-07-28T07:55:30Z</time>
      </trkpt>
      <trkpt lat="45.0250350" lon="6.9554920">
        <ele>1597.4</ele>
        <time>2017-07-28T07:55:31Z</time>
      </trkpt>
      <trkpt lat="45.0249830" lon="6.9554100">
        <ele>1598.2</ele>
        <time>2017-07-28T07:55:33Z</time>
      </trkpt>
      <trkpt lat="45.0249170" lon="6.9552980">
        <ele>1598.4</ele>
        <time>2017-07-28T07:55:36Z</time>
      </trkpt>
      <trkpt lat="45.0248720" lon="6.9552170">
        <ele>1599.0</ele>
        <time>2017-07-28T07:55:38Z</time>
      </trkpt>
      <trkpt lat="45.0248280" lon="6.9551420">
        <ele>1599.2</ele>
        <time>2017-07-28T07:55:40Z</time>
      </trkpt>
      <trkpt lat="45.0247520" lon="6.9550010">
        <ele>1600.2</ele>
        <time>2017-07-28T07:55:44Z</time>
      </trkpt>
      <trkpt lat="45.0246000" lon="6.9548130">
        <ele>1601.4</ele>
        <time>2017-07-28T07:55:50Z</time>
      </trkpt>
      <trkpt lat="45.0244440" lon="6.9548060">
        <ele>1601.8</ele>
        <time>2017-07-28T07:55:54Z</time>
      </trkpt>
      <trkpt lat="45.0243140" lon="6.9547950">
        <ele>1602.2</ele>
        <time>2017-07-28T07:55:57Z</time>
      </trkpt>
      <trkpt lat="45.0242330" lon="6.9547520">
        <ele>1602.4</ele>
        <time>2017-07-28T07:55:59Z</time>
      </trkpt>
      <trkpt lat="45.0242020" lon="6.9547210">
        <ele>1602.4</ele>
        <time>2017-07-28T07:56:00Z</time>
      </trkpt>
      <trkpt lat="45.0241720" lon="6.9546970">
        <ele>1602.6</ele>
        <time>2017-07-28T07:56:01Z</time>
      </trkpt>
      <trkpt lat="45.0240360" lon="6.9545750">
        <ele>1603.6</ele>
        <time>2017-07-28T07:56:06Z</time>
      </trkpt>
      <trkpt lat="45.0239490" lon="6.9544700">
        <ele>1604.6</ele>
        <time>2017-07-28T07:56:10Z</time>
      </trkpt>
      <trkpt lat="45.0238710" lon="6.9543410">
        <ele>1605.6</ele>
        <time>2017-07-28T07:56:14Z</time>
      </trkpt>
      <trkpt lat="45.0238550" lon="6.9543060">
        <ele>1605.8</ele>
        <time>2017-07-28T07:56:15Z</time>
      </trkpt>
      <trkpt lat="45.0238230" lon="6.9542520">
        <ele>1606.4</ele>
        <time>2017-07-28T07:56:17Z</time>
      </trkpt>
      <trkpt lat="45.0237730" lon="6.9542210">
        <ele>1607.0</ele>
        <time>2017-07-28T07:56:19Z</time>
      </trkpt>
      <trkpt lat="45.0236960" lon="6.9542000">
        <ele>1608.0</ele>
        <time>2017-07-28T07:56:22Z</time>
      </trkpt>
      <trkpt lat="45.0236360" lon="6.9541900">
        <ele>1608.2</ele>
        <time>2017-07-28T07:56:24Z</time>
      </trkpt>
      <trkpt lat="45.0234470" lon="6.9541910">
        <ele>1609.2</ele>
        <time>2017-07-28T07:56:29Z</time>
      </trkpt>
      <trkpt lat="45.0233690" lon="6.9541990">
        <ele>1609.4</ele>
        <time>2017-07-28T07:56:31Z</time>
      </trkpt>
      <trkpt lat="45.0231930" lon="6.9541360">
        <ele>1609.6</ele>
        <time>2017-07-28T07:56:36Z</time>
      </trkpt>
      <trkpt lat="45.0230870" lon="6.9539610">
        <ele>1610.0</ele>
        <time>2017-07-28T07:56:40Z</time>
      </trkpt>
      <trkpt lat="45.0230530" lon="6.9539250">
        <ele>1610.2</ele>
        <time>2017-07-28T07:56:41Z</time>
      </trkpt>
      <trkpt lat="45.0230220" lon="6.9539010">
        <ele>1610.2</ele>
        <time>2017-07-28T07:56:42Z</time>
      </trkpt>
      <trkpt lat="45.0229190" lon="6.9538690">
        <ele>1610.8</ele>
        <time>2017-07-28T07:56:45Z</time>
      </trkpt>
      <trkpt lat="45.0227790" lon="6.9538750">
        <ele>1611.2</ele>
        <time>2017-07-28T07:56:49Z</time>
      </trkpt>
      <trkpt lat="45.0227410" lon="6.9538690">
        <ele>1611.4</ele>
        <time>2017-07-28T07:56:50Z</time>
      </trkpt>
      <trkpt lat="45.0226070" lon="6.9538670">
        <ele>1612.0</ele>
        <time>2017-07-28T07:56:53Z</time>
      </trkpt>
      <trkpt lat="45.0225130" lon="6.9538600">
        <ele>1612.2</ele>
        <time>2017-07-28T07:56:55Z</time>
      </trkpt>
      <trkpt lat="45.0224670" lon="6.9538480">
        <ele>1612.2</ele>
        <time>2017-07-28T07:56:56Z</time>
      </trkpt>
      <trkpt lat="45.0222900" lon="6.9537380">
        <ele>1612.8</ele>
        <time>2017-07-28T07:57:00Z</time>
      </trkpt>
      <trkpt lat="45.0222570" lon="6.9536970">
        <ele>1613.2</ele>
        <time>2017-07-28T07:57:01Z</time>
      </trkpt>
      <trkpt lat="45.0222300" lon="6.9536560">
        <ele>1613.4</ele>
        <time>2017-07-28T07:57:02Z</time>
      </trkpt>
      <trkpt lat="45.0221390" lon="6.9535280">
        <ele>1614.0</ele>
        <time>2017-07-28T07:57:05Z</time>
      </trkpt>
      <trkpt lat="45.0220810" lon="6.9534500">
        <ele>1614.4</ele>
        <time>2017-07-28T07:57:07Z</time>
      </trkpt>
      <trkpt lat="45.0220210" lon="6.9533690">
        <ele>1615.2</ele>
        <time>2017-07-28T07:57:09Z</time>
      </trkpt>
      <trkpt lat="45.0219560" lon="6.9532630">
        <ele>1615.8</ele>
        <time>2017-07-28T07:57:11Z</time>
      </trkpt>
      <trkpt lat="45.0219090" lon="6.9531520">
        <ele>1616.0</ele>
        <time>2017-07-28T07:57:13Z</time>
      </trkpt>
      <trkpt lat="45.0217940" lon="6.9529510">
        <ele>1616.4</ele>
        <time>2017-07-28T07:57:17Z</time>
      </trkpt>
      <trkpt lat="45.0217140" lon="6.9528630">
        <ele>1616.4</ele>
        <time>2017-07-28T07:57:19Z</time>
      </trkpt>
      <trkpt lat="45.0216150" lon="6.9527770">
        <ele>1616.8</ele>
        <time>2017-07-28T07:57:21Z</time>
      </trkpt>
      <trkpt lat="45.0213830" lon="6.9525590">
        <ele>1616.4</ele>
        <time>2017-07-28T07:57:25Z</time>
      </trkpt>
      <trkpt lat="45.0212280" lon="6.9524220">
        <ele>1615.6</ele>
        <time>2017-07-28T07:57:27Z</time>
      </trkpt>
      <trkpt lat="45.0210550" lon="6.9522650">
        <ele>1614.8</ele>
        <time>2017-07-28T07:57:29Z</time>
      </trkpt>
      <trkpt lat="45.0209640" lon="6.9521790">
        <ele>1614.4</ele>
        <time>2017-07-28T07:57:30Z</time>
      </trkpt>
      <trkpt lat="45.0207670" lon="6.9519920">
        <ele>1612.6</ele>
        <time>2017-07-28T07:57:32Z</time>
      </trkpt>
      <trkpt lat="45.0206750" lon="6.9518840">
        <ele>1611.4</ele>
        <time>2017-07-28T07:57:33Z</time>
      </trkpt>
      <trkpt lat="45.0204980" lon="6.9516610">
        <ele>1609.8</ele>
        <time>2017-07-28T07:57:35Z</time>
      </trkpt>
      <trkpt lat="45.0204090" lon="6.9515560">
        <ele>1608.8</ele>
        <time>2017-07-28T07:57:36Z</time>
      </trkpt>
      <trkpt lat="45.0203120" lon="6.9514750">
        <ele>1608.2</ele>
        <time>2017-07-28T07:57:37Z</time>
      </trkpt>
      <trkpt lat="45.0202150" lon="6.9514050">
        <ele>1607.4</ele>
        <time>2017-07-28T07:57:38Z</time>
      </trkpt>
      <trkpt lat="45.0201110" lon="6.9513370">
        <ele>1606.6</ele>
        <time>2017-07-28T07:57:39Z</time>
      </trkpt>
      <trkpt lat="45.0199150" lon="6.9512150">
        <ele>1604.8</ele>
        <time>2017-07-28T07:57:41Z</time>
      </trkpt>
      <trkpt lat="45.0198200" lon="6.9511730">
        <ele>1603.6</ele>
        <time>2017-07-28T07:57:42Z</time>
      </trkpt>
      <trkpt lat="45.0197240" lon="6.9511270">
        <ele>1602.4</ele>
        <time>2017-07-28T07:57:43Z</time>
      </trkpt>
      <trkpt lat="45.0196280" lon="6.9510900">
        <ele>1601.0</ele>
        <time>2017-07-28T07:57:44Z</time>
      </trkpt>
      <trkpt lat="45.0195310" lon="6.9510710">
        <ele>1600.0</ele>
        <time>2017-07-28T07:57:45Z</time>
      </trkpt>
      <trkpt lat="45.0194330" lon="6.9510550">
        <ele>1598.6</ele>
        <time>2017-07-28T07:57:46Z</time>
      </trkpt>
      <trkpt lat="45.0193380" lon="6.9510220">
        <ele>1597.4</ele>
        <time>2017-07-28T07:57:47Z</time>
      </trkpt>
      <trkpt lat="45.0192480" lon="6.9509710">
        <ele>1596.0</ele>
        <time>2017-07-28T07:57:48Z</time>
      </trkpt>
      <trkpt lat="45.0191620" lon="6.9509090">
        <ele>1594.4</ele>
        <time>2017-07-28T07:57:49Z</time>
      </trkpt>
      <trkpt lat="45.0190790" lon="6.9508390">
        <ele>1593.0</ele>
        <time>2017-07-28T07:57:50Z</time>
      </trkpt>
      <trkpt lat="45.0189230" lon="6.9506640">
        <ele>1590.8</ele>
        <time>2017-07-28T07:57:52Z</time>
      </trkpt>
      <trkpt lat="45.0188460" lon="6.9505640">
        <ele>1589.6</ele>
        <time>2017-07-28T07:57:53Z</time>
      </trkpt>
      <trkpt lat="45.0187680" lon="6.9504620">
        <ele>1588.2</ele>
        <time>2017-07-28T07:57:54Z</time>
      </trkpt>
      <trkpt lat="45.0186830" lon="6.9503550">
        <ele>1587.0</ele>
        <time>2017-07-28T07:57:55Z</time>
      </trkpt>
      <trkpt lat="45.0185960" lon="6.9502440">
        <ele>1585.8</ele>
        <time>2017-07-28T07:57:56Z</time>
      </trkpt>
      <trkpt lat="45.0185120" lon="6.9501330">
        <ele>1583.6</ele>
        <time>2017-07-28T07:57:57Z</time>
      </trkpt>
      <trkpt lat="45.0184260" lon="6.9500320">
        <ele>1582.6</ele>
        <time>2017-07-28T07:57:58Z</time>
      </trkpt>
      <trkpt lat="45.0183350" lon="6.9499530">
        <ele>1581.4</ele>
        <time>2017-07-28T07:57:59Z</time>
      </trkpt>
      <trkpt lat="45.0182390" lon="6.9498850">
        <ele>1580.6</ele>
        <time>2017-07-28T07:58:00Z</time>
      </trkpt>
      <trkpt lat="45.0181430" lon="6.9498080">
        <ele>1579.6</ele>
        <time>2017-07-28T07:58:01Z</time>
      </trkpt>
      <trkpt lat="45.0179680" lon="6.9496290">
        <ele>1577.4</ele>
        <time>2017-07-28T07:58:03Z</time>
      </trkpt>
      <trkpt lat="45.0178840" lon="6.9495310">
        <ele>1576.4</ele>
        <time>2017-07-28T07:58:04Z</time>
      </trkpt>
      <trkpt lat="45.0177950" lon="6.9494330">
        <ele>1575.2</ele>
        <time>2017-07-28T07:58:05Z</time>
      </trkpt>
      <trkpt lat="45.0176160" lon="6.9492380">
        <ele>1573.2</ele>
        <time>2017-07-28T07:58:07Z</time>
      </trkpt>
      <trkpt lat="45.0175280" lon="6.9491370">
        <ele>1572.4</ele>
        <time>2017-07-28T07:58:08Z</time>
      </trkpt>
      <trkpt lat="45.0174450" lon="6.9490290">
        <ele>1571.2</ele>
        <time>2017-07-28T07:58:09Z</time>
      </trkpt>
      <trkpt lat="45.0173740" lon="6.9489170">
        <ele>1570.2</ele>
        <time>2017-07-28T07:58:10Z</time>
      </trkpt>
      <trkpt lat="45.0172430" lon="6.9487090">
        <ele>1568.6</ele>
        <time>2017-07-28T07:58:12Z</time>
      </trkpt>
      <trkpt lat="45.0170940" lon="6.9485190">
        <ele>1566.4</ele>
        <time>2017-07-28T07:58:14Z</time>
      </trkpt>
      <trkpt lat="45.0169960" lon="6.9484480">
        <ele>1564.8</ele>
        <time>2017-07-28T07:58:15Z</time>
      </trkpt>
      <trkpt lat="45.0168920" lon="6.9483840">
        <ele>1563.6</ele>
        <time>2017-07-28T07:58:16Z</time>
      </trkpt>
      <trkpt lat="45.0167940" lon="6.9483150">
        <ele>1562.2</ele>
        <time>2017-07-28T07:58:17Z</time>
      </trkpt>
      <trkpt lat="45.0166980" lon="6.9482380">
        <ele>1561.2</ele>
        <time>2017-07-28T07:58:18Z</time>
      </trkpt>
      <trkpt lat="45.0166080" lon="6.9481500">
        <ele>1559.8</ele>
        <time>2017-07-28T07:58:19Z</time>
      </trkpt>
      <trkpt lat="45.0165360" lon="6.9480470">
        <ele>1558.8</ele>
        <time>2017-07-28T07:58:20Z</time>
      </trkpt>
      <trkpt lat="45.0164710" lon="6.9479360">
        <ele>1556.6</ele>
        <time>2017-07-28T07:58:21Z</time>
      </trkpt>
      <trkpt lat="45.0164090" lon="6.9478190">
        <ele>1555.2</ele>
        <time>2017-07-28T07:58:22Z</time>
      </trkpt>
      <trkpt lat="45.0163490" lon="6.9476900">
        <ele>1554.0</ele>
        <time>2017-07-28T07:58:23Z</time>
      </trkpt>
      <trkpt lat="45.0162860" lon="6.9475640">
        <ele>1552.8</ele>
        <time>2017-07-28T07:58:24Z</time>
      </trkpt>
      <trkpt lat="45.0161530" lon="6.9473430">
        <ele>1551.0</ele>
        <time>2017-07-28T07:58:26Z</time>
      </trkpt>
      <trkpt lat="45.0160820" lon="6.9472620">
        <ele>1550.2</ele>
        <time>2017-07-28T07:58:27Z</time>
      </trkpt>
      <trkpt lat="45.0160080" lon="6.9471990">
        <ele>1549.2</ele>
        <time>2017-07-28T07:58:28Z</time>
      </trkpt>
      <trkpt lat="45.0159440" lon="6.9471310">
        <ele>1548.6</ele>
        <time>2017-07-28T07:58:29Z</time>
      </trkpt>
      <trkpt lat="45.0158850" lon="6.9470570">
        <ele>1547.8</ele>
        <time>2017-07-28T07:58:30Z</time>
      </trkpt>
      <trkpt lat="45.0158290" lon="6.9469810">
        <ele>1547.2</ele>
        <time>2017-07-28T07:58:31Z</time>
      </trkpt>
      <trkpt lat="45.0157750" lon="6.9469080">
        <ele>1546.4</ele>
        <time>2017-07-28T07:58:32Z</time>
      </trkpt>
      <trkpt lat="45.0156630" lon="6.9467640">
        <ele>1545.4</ele>
        <time>2017-07-28T07:58:34Z</time>
      </trkpt>
      <trkpt lat="45.0155630" lon="6.9466130">
        <ele>1544.6</ele>
        <time>2017-07-28T07:58:36Z</time>
      </trkpt>
      <trkpt lat="45.0155330" lon="6.9465230">
        <ele>1544.6</ele>
        <time>2017-07-28T07:58:37Z</time>
      </trkpt>
      <trkpt lat="45.0155170" lon="6.9464280">
        <ele>1544.2</ele>
        <time>2017-07-28T07:58:38Z</time>
      </trkpt>
      <trkpt lat="45.0155130" lon="6.9462830">
        <ele>1543.8</ele>
        <time>2017-07-28T07:58:40Z</time>
      </trkpt>
      <trkpt lat="45.0154850" lon="6.9462840">
        <ele>1543.8</ele>
        <time>2017-07-28T07:58:42Z</time>
      </trkpt>
      <trkpt lat="45.0153570" lon="6.9463550">
        <ele>1543.4</ele>
        <time>2017-07-28T07:58:45Z</time>
      </trkpt>
      <trkpt lat="45.0152990" lon="6.9463620">
        <ele>1543.2</ele>
        <time>2017-07-28T07:58:46Z</time>
      </trkpt>
      <trkpt lat="45.0152390" lon="6.9463650">
        <ele>1543.0</ele>
        <time>2017-07-28T07:58:47Z</time>
      </trkpt>
      <trkpt lat="45.0151800" lon="6.9463770">
        <ele>1542.6</ele>
        <time>2017-07-28T07:58:48Z</time>
      </trkpt>
      <trkpt lat="45.0151250" lon="6.9463940">
        <ele>1542.8</ele>
        <time>2017-07-28T07:58:49Z</time>
      </trkpt>
      <trkpt lat="45.0150220" lon="6.9464240">
        <ele>1542.8</ele>
        <time>2017-07-28T07:58:51Z</time>
      </trkpt>
      <trkpt lat="45.0149250" lon="6.9464060">
        <ele>1542.4</ele>
        <time>2017-07-28T07:58:53Z</time>
      </trkpt>
      <trkpt lat="45.0148080" lon="6.9463710">
        <ele>1542.2</ele>
        <time>2017-07-28T07:58:55Z</time>
      </trkpt>
      <trkpt lat="45.0147430" lon="6.9463650">
        <ele>1542.0</ele>
        <time>2017-07-28T07:58:56Z</time>
      </trkpt>
      <trkpt lat="45.0144640" lon="6.9463180">
        <ele>1541.2</ele>
        <time>2017-07-28T07:59:01Z</time>
      </trkpt>
      <trkpt lat="45.0142570" lon="6.9462740">
        <ele>1541.4</ele>
        <time>2017-07-28T07:59:06Z</time>
      </trkpt>
      <trkpt lat="45.0140700" lon="6.9461840">
        <ele>1541.2</ele>
        <time>2017-07-28T07:59:11Z</time>
      </trkpt>
      <trkpt lat="45.0139090" lon="6.9460780">
        <ele>1541.6</ele>
        <time>2017-07-28T07:59:16Z</time>
      </trkpt>
      <trkpt lat="45.0137960" lon="6.9460120">
        <ele>1542.0</ele>
        <time>2017-07-28T07:59:20Z</time>
      </trkpt>
      <trkpt lat="45.0137160" lon="6.9458210">
        <ele>1542.4</ele>
        <time>2017-07-28T07:59:24Z</time>
      </trkpt>
      <trkpt lat="45.0136720" lon="6.9456320">
        <ele>1542.4</ele>
        <time>2017-07-28T07:59:27Z</time>
      </trkpt>
      <trkpt lat="45.0136470" lon="6.9455780">
        <ele>1542.4</ele>
        <time>2017-07-28T07:59:28Z</time>
      </trkpt>
      <trkpt lat="45.0135430" lon="6.9453280">
        <ele>1543.0</ele>
        <time>2017-07-28T07:59:33Z</time>
      </trkpt>
      <trkpt lat="45.0135010" lon="6.9452300">
        <ele>1543.2</ele>
        <time>2017-07-28T07:59:35Z</time>
      </trkpt>
      <trkpt lat="45.0133800" lon="6.9449680">
        <ele>1543.8</ele>
        <time>2017-07-28T07:59:40Z</time>
      </trkpt>
      <trkpt lat="45.0132850" lon="6.9447580">
        <ele>1544.4</ele>
        <time>2017-07-28T07:59:44Z</time>
      </trkpt>
      <trkpt lat="45.0132600" lon="6.9447060">
        <ele>1544.6</ele>
        <time>2017-07-28T07:59:45Z</time>
      </trkpt>
      <trkpt lat="45.0132320" lon="6.9446550">
        <ele>1544.6</ele>
        <time>2017-07-28T07:59:46Z</time>
      </trkpt>
      <trkpt lat="45.0130400" lon="6.9443600">
        <ele>1545.0</ele>
        <time>2017-07-28T07:59:52Z</time>
      </trkpt>
      <trkpt lat="45.0130070" lon="6.9443230">
        <ele>1545.2</ele>
        <time>2017-07-28T07:59:53Z</time>
      </trkpt>
      <trkpt lat="45.0129050" lon="6.9441560">
        <ele>1545.4</ele>
        <time>2017-07-28T07:59:57Z</time>
      </trkpt>
      <trkpt lat="45.0128850" lon="6.9441120">
        <ele>1545.6</ele>
        <time>2017-07-28T07:59:58Z</time>
      </trkpt>
      <trkpt lat="45.0128350" lon="6.9438930">
        <ele>1546.2</ele>
        <time>2017-07-28T08:00:02Z</time>
      </trkpt>
      <trkpt lat="45.0128330" lon="6.9438160">
        <ele>1546.2</ele>
        <time>2017-07-28T08:00:03Z</time>
      </trkpt>
      <trkpt lat="45.0128350" lon="6.9436620">
        <ele>1546.4</ele>
        <time>2017-07-28T08:00:06Z</time>
      </trkpt>
      <trkpt lat="45.0128260" lon="6.9436330">
        <ele>1546.6</ele>
        <time>2017-07-28T08:00:07Z</time>
      </trkpt>
      <trkpt lat="45.0127790" lon="6.9436260">
        <ele>1546.4</ele>
        <time>2017-07-28T08:00:09Z</time>
      </trkpt>
      <trkpt lat="45.0126550" lon="6.9436420">
        <ele>1545.4</ele>
        <time>2017-07-28T08:00:13Z</time>
      </trkpt>
      <trkpt lat="45.0126200" lon="6.9436360">
        <ele>1545.4</ele>
        <time>2017-07-28T08:00:14Z</time>
      </trkpt>
      <trkpt lat="45.0124930" lon="6.9435340">
        <ele>1544.4</ele>
        <time>2017-07-28T08:00:18Z</time>
      </trkpt>
      <trkpt lat="45.0124770" lon="6.9434950">
        <ele>1544.0</ele>
        <time>2017-07-28T08:00:19Z</time>
      </trkpt>
      <trkpt lat="45.0124790" lon="6.9434050">
        <ele>1543.8</ele>
        <time>2017-07-28T08:00:21Z</time>
      </trkpt>
      <trkpt lat="45.0125450" lon="6.9432080">
        <ele>1544.4</ele>
        <time>2017-07-28T08:00:25Z</time>
      </trkpt>
      <trkpt lat="45.0125660" lon="6.9431570">
        <ele>1544.4</ele>
        <time>2017-07-28T08:00:26Z</time>
      </trkpt>
      <trkpt lat="45.0126070" lon="6.9430510">
        <ele>1544.6</ele>
        <time>2017-07-28T08:00:28Z</time>
      </trkpt>
      <trkpt lat="45.0126160" lon="6.9428660">
        <ele>1544.8</ele>
        <time>2017-07-28T08:00:31Z</time>
      </trkpt>
      <trkpt lat="45.0125400" lon="6.9426070">
        <ele>1545.0</ele>
        <time>2017-07-28T08:00:35Z</time>
      </trkpt>
      <trkpt lat="45.0124700" lon="6.9425150">
        <ele>1545.0</ele>
        <time>2017-07-28T08:00:37Z</time>
      </trkpt>
      <trkpt lat="45.0123930" lon="6.9424300">
        <ele>1545.2</ele>
        <time>2017-07-28T08:00:39Z</time>
      </trkpt>
      <trkpt lat="45.0123140" lon="6.9423530">
        <ele>1545.4</ele>
        <time>2017-07-28T08:00:41Z</time>
      </trkpt>
      <trkpt lat="45.0121820" lon="6.9422400">
        <ele>1546.0</ele>
        <time>2017-07-28T08:00:44Z</time>
      </trkpt>
      <trkpt lat="45.0121370" lon="6.9422100">
        <ele>1546.2</ele>
        <time>2017-07-28T08:00:45Z</time>
      </trkpt>
      <trkpt lat="45.0120870" lon="6.9421830">
        <ele>1546.0</ele>
        <time>2017-07-28T08:00:46Z</time>
      </trkpt>
      <trkpt lat="45.0118860" lon="6.9421220">
        <ele>1546.0</ele>
        <time>2017-07-28T08:00:50Z</time>
      </trkpt>
      <trkpt lat="45.0118370" lon="6.9421040">
        <ele>1545.8</ele>
        <time>2017-07-28T08:00:51Z</time>
      </trkpt>
      <trkpt lat="45.0116140" lon="6.9419960">
        <ele>1545.6</ele>
        <time>2017-07-28T08:00:56Z</time>
      </trkpt>
      <trkpt lat="45.0114880" lon="6.9418480">
        <ele>1545.4</ele>
        <time>2017-07-28T08:01:00Z</time>
      </trkpt>
      <trkpt lat="45.0114590" lon="6.9418130">
        <ele>1545.6</ele>
        <time>2017-07-28T08:01:01Z</time>
      </trkpt>
      <trkpt lat="45.0113940" lon="6.9417540">
        <ele>1545.8</ele>
        <time>2017-07-28T08:01:03Z</time>
      </trkpt>
      <trkpt lat="45.0112460" lon="6.9416610">
        <ele>1546.2</ele>
        <time>2017-07-28T08:01:07Z</time>
      </trkpt>
      <trkpt lat="45.0111320" lon="6.9415850">
        <ele>1546.6</ele>
        <time>2017-07-28T08:01:10Z</time>
      </trkpt>
      <trkpt lat="45.0110570" lon="6.9415200">
        <ele>1546.8</ele>
        <time>2017-07-28T08:01:12Z</time>
      </trkpt>
      <trkpt lat="45.0108420" lon="6.9413160">
        <ele>1547.4</ele>
        <time>2017-07-28T08:01:17Z</time>
      </trkpt>
      <trkpt lat="45.0107900" lon="6.9412680">
        <ele>1547.6</ele>
        <time>2017-07-28T08:01:18Z</time>
      </trkpt>
      <trkpt lat="45.0105760" lon="6.9410600">
        <ele>1548.8</ele>
        <time>2017-07-28T08:01:22Z</time>
      </trkpt>
      <trkpt lat="45.0104680" lon="6.9409500">
        <ele>1549.4</ele>
        <time>2017-07-28T08:01:24Z</time>
      </trkpt>
      <trkpt lat="45.0103620" lon="6.9408290">
        <ele>1549.8</ele>
        <time>2017-07-28T08:01:26Z</time>
      </trkpt>
      <trkpt lat="45.0101510" lon="6.9405850">
        <ele>1551.0</ele>
        <time>2017-07-28T08:01:30Z</time>
      </trkpt>
      <trkpt lat="45.0099950" lon="6.9404010">
        <ele>1552.2</ele>
        <time>2017-07-28T08:01:33Z</time>
      </trkpt>
      <trkpt lat="45.0097920" lon="6.9401630">
        <ele>1553.0</ele>
        <time>2017-07-28T08:01:37Z</time>
      </trkpt>
      <trkpt lat="45.0096990" lon="6.9400430">
        <ele>1553.2</ele>
        <time>2017-07-28T08:01:39Z</time>
      </trkpt>
      <trkpt lat="45.0094580" lon="6.9397770">
        <ele>1554.4</ele>
        <time>2017-07-28T08:01:44Z</time>
      </trkpt>
      <trkpt lat="45.0092300" lon="6.9395380">
        <ele>1555.4</ele>
        <time>2017-07-28T08:01:49Z</time>
      </trkpt>
      <trkpt lat="45.0091500" lon="6.9394380">
        <ele>1555.8</ele>
        <time>2017-07-28T08:01:51Z</time>
      </trkpt>
      <trkpt lat="45.0089590" lon="6.9391790">
        <ele>1556.4</ele>
        <time>2017-07-28T08:01:56Z</time>
      </trkpt>
      <trkpt lat="45.0088510" lon="6.9390170">
        <ele>1557.0</ele>
        <time>2017-07-28T08:01:59Z</time>
      </trkpt>
      <trkpt lat="45.0086360" lon="6.9386830">
        <ele>1557.6</ele>
        <time>2017-07-28T08:02:05Z</time>
      </trkpt>
      <trkpt lat="45.0085670" lon="6.9385740">
        <ele>1557.6</ele>
        <time>2017-07-28T08:02:07Z</time>
      </trkpt>
      <trkpt lat="45.0084260" lon="6.9383680">
        <ele>1558.2</ele>
        <time>2017-07-28T08:02:11Z</time>
      </trkpt>
      <trkpt lat="45.0083680" lon="6.9382670">
        <ele>1558.4</ele>
        <time>2017-07-28T08:02:13Z</time>
      </trkpt>
      <trkpt lat="45.0083410" lon="6.9382190">
        <ele>1558.6</ele>
        <time>2017-07-28T08:02:14Z</time>
      </trkpt>
      <trkpt lat="45.0082650" lon="6.9380740">
        <ele>1559.4</ele>
        <time>2017-07-28T08:02:17Z</time>
      </trkpt>
      <trkpt lat="45.0082060" lon="6.9379800">
        <ele>1559.8</ele>
        <time>2017-07-28T08:02:19Z</time>
      </trkpt>
      <trkpt lat="45.0080590" lon="6.9377360">
        <ele>1561.0</ele>
        <time>2017-07-28T08:02:24Z</time>
      </trkpt>
      <trkpt lat="45.0079500" lon="6.9375900">
        <ele>1561.4</ele>
        <time>2017-07-28T08:02:27Z</time>
      </trkpt>
      <trkpt lat="45.0077240" lon="6.9372540">
        <ele>1562.0</ele>
        <time>2017-07-28T08:02:33Z</time>
      </trkpt>
      <trkpt lat="45.0075990" lon="6.9370980">
        <ele>1562.0</ele>
        <time>2017-07-28T08:02:36Z</time>
      </trkpt>
      <trkpt lat="45.0075560" lon="6.9370520">
        <ele>1562.2</ele>
        <time>2017-07-28T08:02:37Z</time>
      </trkpt>
      <trkpt lat="45.0074120" lon="6.9369620">
        <ele>1562.4</ele>
        <time>2017-07-28T08:02:40Z</time>
      </trkpt>
      <trkpt lat="45.0072230" lon="6.9368200">
        <ele>1562.4</ele>
        <time>2017-07-28T08:02:44Z</time>
      </trkpt>
      <trkpt lat="45.0071810" lon="6.9367800">
        <ele>1562.6</ele>
        <time>2017-07-28T08:02:45Z</time>
      </trkpt>
      <trkpt lat="45.0071420" lon="6.9367310">
        <ele>1562.8</ele>
        <time>2017-07-28T08:02:46Z</time>
      </trkpt>
      <trkpt lat="45.0070370" lon="6.9365470">
        <ele>1563.0</ele>
        <time>2017-07-28T08:02:49Z</time>
      </trkpt>
      <trkpt lat="45.0069610" lon="6.9364310">
        <ele>1563.2</ele>
        <time>2017-07-28T08:02:51Z</time>
      </trkpt>
      <trkpt lat="45.0067530" lon="6.9361790">
        <ele>1563.4</ele>
        <time>2017-07-28T08:02:56Z</time>
      </trkpt>
      <trkpt lat="45.0066340" lon="6.9360260">
        <ele>1563.8</ele>
        <time>2017-07-28T08:02:59Z</time>
      </trkpt>
      <trkpt lat="45.0065420" lon="6.9359530">
        <ele>1563.8</ele>
        <time>2017-07-28T08:03:01Z</time>
      </trkpt>
      <trkpt lat="45.0063970" lon="6.9358440">
        <ele>1564.2</ele>
        <time>2017-07-28T08:03:04Z</time>
      </trkpt>
      <trkpt lat="45.0061460" lon="6.9356980">
        <ele>1564.8</ele>
        <time>2017-07-28T08:03:09Z</time>
      </trkpt>
      <trkpt lat="45.0059350" lon="6.9356300">
        <ele>1565.2</ele>
        <time>2017-07-28T08:03:13Z</time>
      </trkpt>
      <trkpt lat="45.0058350" lon="6.9356170">
        <ele>1565.6</ele>
        <time>2017-07-28T08:03:15Z</time>
      </trkpt>
      <trkpt lat="45.0056150" lon="6.9356150">
        <ele>1566.4</ele>
        <time>2017-07-28T08:03:19Z</time>
      </trkpt>
      <trkpt lat="45.0055490" lon="6.9356050">
        <ele>1566.4</ele>
        <time>2017-07-28T08:03:20Z</time>
      </trkpt>
      <trkpt lat="45.0052480" lon="6.9354940">
        <ele>1567.2</ele>
        <time>2017-07-28T08:03:25Z</time>
      </trkpt>
      <trkpt lat="45.0051330" lon="6.9354550">
        <ele>1567.6</ele>
        <time>2017-07-28T08:03:27Z</time>
      </trkpt>
      <trkpt lat="45.0049130" lon="6.9353890">
        <ele>1568.6</ele>
        <time>2017-07-28T08:03:31Z</time>
      </trkpt>
      <trkpt lat="45.0048610" lon="6.9353740">
        <ele>1568.8</ele>
        <time>2017-07-28T08:03:32Z</time>
      </trkpt>
      <trkpt lat="45.0046480" lon="6.9353040">
        <ele>1569.8</ele>
        <time>2017-07-28T08:03:36Z</time>
      </trkpt>
      <trkpt lat="45.0045910" lon="6.9352820">
        <ele>1570.0</ele>
        <time>2017-07-28T08:03:37Z</time>
      </trkpt>
      <trkpt lat="45.0044790" lon="6.9352320">
        <ele>1570.0</ele>
        <time>2017-07-28T08:03:39Z</time>
      </trkpt>
      <trkpt lat="45.0041440" lon="6.9350760">
        <ele>1570.8</ele>
        <time>2017-07-28T08:03:45Z</time>
      </trkpt>
      <trkpt lat="45.0040900" lon="6.9350460">
        <ele>1571.0</ele>
        <time>2017-07-28T08:03:46Z</time>
      </trkpt>
      <trkpt lat="45.0038300" lon="6.9348950">
        <ele>1571.6</ele>
        <time>2017-07-28T08:03:51Z</time>
      </trkpt>
      <trkpt lat="45.0037840" lon="6.9348560">
        <ele>1571.8</ele>
        <time>2017-07-28T08:03:52Z</time>
      </trkpt>
      <trkpt lat="45.0035670" lon="6.9346560">
        <ele>1572.2</ele>
        <time>2017-07-28T08:03:57Z</time>
      </trkpt>
      <trkpt lat="45.0034850" lon="6.9345700">
        <ele>1572.2</ele>
        <time>2017-07-28T08:03:59Z</time>
      </trkpt>
      <trkpt lat="45.0033780" lon="6.9344220">
        <ele>1572.4</ele>
        <time>2017-07-28T08:04:02Z</time>
      </trkpt>
      <trkpt lat="45.0032550" lon="6.9342920">
        <ele>1572.6</ele>
        <time>2017-07-28T08:04:05Z</time>
      </trkpt>
      <trkpt lat="45.0030990" lon="6.9341080">
        <ele>1573.2</ele>
        <time>2017-07-28T08:04:09Z</time>
      </trkpt>
      <trkpt lat="45.0028950" lon="6.9338870">
        <ele>1573.6</ele>
        <time>2017-07-28T08:04:14Z</time>
      </trkpt>
      <trkpt lat="45.0026770" lon="6.9336150">
        <ele>1574.0</ele>
        <time>2017-07-28T08:04:20Z</time>
      </trkpt>
      <trkpt lat="45.0026490" lon="6.9335630">
        <ele>1574.4</ele>
        <time>2017-07-28T08:04:21Z</time>
      </trkpt>
      <trkpt lat="45.0026170" lon="6.9335090">
        <ele>1574.4</ele>
        <time>2017-07-28T08:04:22Z</time>
      </trkpt>
      <trkpt lat="45.0023800" lon="6.9330640">
        <ele>1575.0</ele>
        <time>2017-07-28T08:04:30Z</time>
      </trkpt>
      <trkpt lat="45.0023020" lon="6.9329170">
        <ele>1575.2</ele>
        <time>2017-07-28T08:04:33Z</time>
      </trkpt>
      <trkpt lat="45.0022140" lon="6.9327980">
        <ele>1575.4</ele>
        <time>2017-07-28T08:04:36Z</time>
      </trkpt>
      <trkpt lat="45.0021040" lon="6.9326610">
        <ele>1576.0</ele>
        <time>2017-07-28T08:04:41Z</time>
      </trkpt>
      <trkpt lat="45.0020650" lon="6.9326070">
        <ele>1576.6</ele>
        <time>2017-07-28T08:04:43Z</time>
      </trkpt>
      <trkpt lat="45.0020180" lon="6.9325150">
        <ele>1577.8</ele>
        <time>2017-07-28T08:04:46Z</time>
      </trkpt>
      <trkpt lat="45.0019650" lon="6.9324290">
        <ele>1578.8</ele>
        <time>2017-07-28T08:04:49Z</time>
      </trkpt>
      <trkpt lat="45.0019350" lon="6.9323760">
        <ele>1579.4</ele>
        <time>2017-07-28T08:04:51Z</time>
      </trkpt>
      <trkpt lat="45.0019240" lon="6.9323470">
        <ele>1579.8</ele>
        <time>2017-07-28T08:04:52Z</time>
      </trkpt>
      <trkpt lat="45.0019000" lon="6.9322580">
        <ele>1581.0</ele>
        <time>2017-07-28T08:04:55Z</time>
      </trkpt>
      <trkpt lat="45.0018770" lon="6.9321690">
        <ele>1582.0</ele>
        <time>2017-07-28T08:04:58Z</time>
      </trkpt>
      <trkpt lat="45.0018650" lon="6.9321420">
        <ele>1582.4</ele>
        <time>2017-07-28T08:04:59Z</time>
      </trkpt>
      <trkpt lat="45.0018450" lon="6.9320460">
        <ele>1583.2</ele>
        <time>2017-07-28T08:05:02Z</time>
      </trkpt>
      <trkpt lat="45.0018270" lon="6.9319340">
        <ele>1584.2</ele>
        <time>2017-07-28T08:05:05Z</time>
      </trkpt>
      <trkpt lat="45.0018010" lon="6.9317850">
        <ele>1585.4</ele>
        <time>2017-07-28T08:05:09Z</time>
      </trkpt>
      <trkpt lat="45.0017760" lon="6.9317100">
        <ele>1586.0</ele>
        <time>2017-07-28T08:05:11Z</time>
      </trkpt>
      <trkpt lat="45.0017260" lon="6.9315510">
        <ele>1586.6</ele>
        <time>2017-07-28T08:05:15Z</time>
      </trkpt>
      <trkpt lat="45.0016530" lon="6.9313480">
        <ele>1587.2</ele>
        <time>2017-07-28T08:05:20Z</time>
      </trkpt>
      <trkpt lat="45.0016160" lon="6.9312770">
        <ele>1587.6</ele>
        <time>2017-07-28T08:05:22Z</time>
      </trkpt>
      <trkpt lat="45.0015410" lon="6.9311260">
        <ele>1588.0</ele>
        <time>2017-07-28T08:05:26Z</time>
      </trkpt>
      <trkpt lat="45.0014570" lon="6.9308900">
        <ele>1588.6</ele>
        <time>2017-07-28T08:05:31Z</time>
      </trkpt>
      <trkpt lat="45.0014370" lon="6.9308440">
        <ele>1588.6</ele>
        <time>2017-07-28T08:05:32Z</time>
      </trkpt>
      <trkpt lat="45.0013390" lon="6.9306460">
        <ele>1589.2</ele>
        <time>2017-07-28T08:05:37Z</time>
      </trkpt>
      <trkpt lat="45.0012760" lon="6.9305160">
        <ele>1589.2</ele>
        <time>2017-07-28T08:05:40Z</time>
      </trkpt>
      <trkpt lat="45.0012070" lon="6.9303660">
        <ele>1589.4</ele>
        <time>2017-07-28T08:05:43Z</time>
      </trkpt>
      <trkpt lat="45.0011120" lon="6.9301710">
        <ele>1590.0</ele>
        <time>2017-07-28T08:05:47Z</time>
      </trkpt>
      <trkpt lat="45.0009260" lon="6.9298260">
        <ele>1590.4</ele>
        <time>2017-07-28T08:05:55Z</time>
      </trkpt>
      <trkpt lat="45.0008580" lon="6.9297510">
        <ele>1591.0</ele>
        <time>2017-07-28T08:05:57Z</time>
      </trkpt>
      <trkpt lat="45.0006640" lon="6.9295190">
        <ele>1592.0</ele>
        <time>2017-07-28T08:06:03Z</time>
      </trkpt>
      <trkpt lat="45.0006350" lon="6.9294770">
        <ele>1592.4</ele>
        <time>2017-07-28T08:06:04Z</time>
      </trkpt>
      <trkpt lat="45.0004140" lon="6.9291770">
        <ele>1592.2</ele>
        <time>2017-07-28T08:06:11Z</time>
      </trkpt>
      <trkpt lat="45.0003750" lon="6.9291390">
        <ele>1592.0</ele>
        <time>2017-07-28T08:06:12Z</time>
      </trkpt>
      <trkpt lat="45.0001860" lon="6.9290280">
        <ele>1591.0</ele>
        <time>2017-07-28T08:06:16Z</time>
      </trkpt>
      <trkpt lat="44.9999370" lon="6.9289070">
        <ele>1590.0</ele>
        <time>2017-07-28T08:06:20Z</time>
      </trkpt>
      <trkpt lat="44.9998650" lon="6.9288740">
        <ele>1589.0</ele>
        <time>2017-07-28T08:06:21Z</time>
      </trkpt>
      <trkpt lat="44.9997210" lon="6.9287890">
        <ele>1588.6</ele>
        <time>2017-07-28T08:06:23Z</time>
      </trkpt>
      <trkpt lat="44.9995720" lon="6.9286740">
        <ele>1587.2</ele>
        <time>2017-07-28T08:06:25Z</time>
      </trkpt>
      <trkpt lat="44.9994940" lon="6.9286080">
        <ele>1586.8</ele>
        <time>2017-07-28T08:06:26Z</time>
      </trkpt>
      <trkpt lat="44.9993700" lon="6.9285010">
        <ele>1586.2</ele>
        <time>2017-07-28T08:06:28Z</time>
      </trkpt>
      <trkpt lat="44.9993590" lon="6.9284770">
        <ele>1586.2</ele>
        <time>2017-07-28T08:06:29Z</time>
      </trkpt>
      <trkpt lat="44.9994070" lon="6.9284850">
        <ele>1585.6</ele>
        <time>2017-07-28T08:06:31Z</time>
      </trkpt>
      <trkpt lat="44.9994360" lon="6.9285010">
        <ele>1585.2</ele>
        <time>2017-07-28T08:06:32Z</time>
      </trkpt>
      <trkpt lat="44.9995510" lon="6.9284920">
        <ele>1584.4</ele>
        <time>2017-07-28T08:06:34Z</time>
      </trkpt>
      <trkpt lat="44.9996090" lon="6.9283840">
        <ele>1584.0</ele>
        <time>2017-07-28T08:06:36Z</time>
      </trkpt>
      <trkpt lat="44.9995450" lon="6.9282640">
        <ele>1583.2</ele>
        <time>2017-07-28T08:06:39Z</time>
      </trkpt>
      <trkpt lat="44.9994750" lon="6.9282110">
        <ele>1582.8</ele>
        <time>2017-07-28T08:06:41Z</time>
      </trkpt>
      <trkpt lat="44.9993740" lon="6.9280980">
        <ele>1582.8</ele>
        <time>2017-07-28T08:06:44Z</time>
      </trkpt>
      <trkpt lat="44.9993390" lon="6.9280590">
        <ele>1582.8</ele>
        <time>2017-07-28T08:06:45Z</time>
      </trkpt>
      <trkpt lat="44.9991260" lon="6.9278310">
        <ele>1583.6</ele>
        <time>2017-07-28T08:06:51Z</time>
      </trkpt>
      <trkpt lat="44.9990930" lon="6.9277940">
        <ele>1584.0</ele>
        <time>2017-07-28T08:06:52Z</time>
      </trkpt>
      <trkpt lat="44.9990590" lon="6.9277620">
        <ele>1584.2</ele>
        <time>2017-07-28T08:06:53Z</time>
      </trkpt>
      <trkpt lat="44.9989770" lon="6.9277440">
        <ele>1584.2</ele>
        <time>2017-07-28T08:06:55Z</time>
      </trkpt>
      <trkpt lat="44.9988900" lon="6.9277390">
        <ele>1584.6</ele>
        <time>2017-07-28T08:06:57Z</time>
      </trkpt>
      <trkpt lat="44.9987640" lon="6.9276720">
        <ele>1584.8</ele>
        <time>2017-07-28T08:07:00Z</time>
      </trkpt>
      <trkpt lat="44.9986810" lon="6.9276110">
        <ele>1584.8</ele>
        <time>2017-07-28T08:07:02Z</time>
      </trkpt>
      <trkpt lat="44.9986410" lon="6.9275800">
        <ele>1585.0</ele>
        <time>2017-07-28T08:07:03Z</time>
      </trkpt>
      <trkpt lat="44.9984730" lon="6.9274540">
        <ele>1585.6</ele>
        <time>2017-07-28T08:07:07Z</time>
      </trkpt>
      <trkpt lat="44.9983510" lon="6.9273640">
        <ele>1586.2</ele>
        <time>2017-07-28T08:07:10Z</time>
      </trkpt>
      <trkpt lat="44.9981900" lon="6.9272630">
        <ele>1586.0</ele>
        <time>2017-07-28T08:07:14Z</time>
      </trkpt>
      <trkpt lat="44.9981460" lon="6.9272480">
        <ele>1585.8</ele>
        <time>2017-07-28T08:07:15Z</time>
      </trkpt>
      <trkpt lat="44.9980170" lon="6.9271820">
        <ele>1585.6</ele>
        <time>2017-07-28T08:07:18Z</time>
      </trkpt>
      <trkpt lat="44.9979380" lon="6.9271360">
        <ele>1584.8</ele>
        <time>2017-07-28T08:07:20Z</time>
      </trkpt>
      <trkpt lat="44.9978220" lon="6.9270810">
        <ele>1584.8</ele>
        <time>2017-07-28T08:07:23Z</time>
      </trkpt>
      <trkpt lat="44.9977850" lon="6.9270590">
        <ele>1584.6</ele>
        <time>2017-07-28T08:07:24Z</time>
      </trkpt>
      <trkpt lat="44.9977460" lon="6.9270400">
        <ele>1584.4</ele>
        <time>2017-07-28T08:07:25Z</time>
      </trkpt>
      <trkpt lat="44.9976210" lon="6.9269910">
        <ele>1584.2</ele>
        <time>2017-07-28T08:07:28Z</time>
      </trkpt>
      <trkpt lat="44.9975370" lon="6.9269560">
        <ele>1584.6</ele>
        <time>2017-07-28T08:07:30Z</time>
      </trkpt>
      <trkpt lat="44.9973630" lon="6.9269030">
        <ele>1585.8</ele>
        <time>2017-07-28T08:07:34Z</time>
      </trkpt>
      <trkpt lat="44.9972400" lon="6.9268570">
        <ele>1586.4</ele>
        <time>2017-07-28T08:07:37Z</time>
      </trkpt>
      <trkpt lat="44.9969950" lon="6.9266850">
        <ele>1586.8</ele>
        <time>2017-07-28T08:07:44Z</time>
      </trkpt>
      <trkpt lat="44.9969310" lon="6.9266240">
        <ele>1587.0</ele>
        <time>2017-07-28T08:07:46Z</time>
      </trkpt>
      <trkpt lat="44.9967340" lon="6.9264400">
        <ele>1587.0</ele>
        <time>2017-07-28T08:07:52Z</time>
      </trkpt>
      <trkpt lat="44.9965120" lon="6.9262400">
        <ele>1586.6</ele>
        <time>2017-07-28T08:07:59Z</time>
      </trkpt>
      <trkpt lat="44.9963280" lon="6.9260680">
        <ele>1586.6</ele>
        <time>2017-07-28T08:08:05Z</time>
      </trkpt>
      <trkpt lat="44.9960550" lon="6.9258460">
        <ele>1586.8</ele>
        <time>2017-07-28T08:08:13Z</time>
      </trkpt>
      <trkpt lat="44.9957910" lon="6.9255170">
        <ele>1587.4</ele>
        <time>2017-07-28T08:08:22Z</time>
      </trkpt>
      <trkpt lat="44.9956440" lon="6.9253240">
        <ele>1587.8</ele>
        <time>2017-07-28T08:08:27Z</time>
      </trkpt>
      <trkpt lat="44.9956100" lon="6.9252960">
        <ele>1588.0</ele>
        <time>2017-07-28T08:08:28Z</time>
      </trkpt>
      <trkpt lat="44.9954380" lon="6.9251460">
        <ele>1588.2</ele>
        <time>2017-07-28T08:08:33Z</time>
      </trkpt>
      <trkpt lat="44.9953990" lon="6.9251230">
        <ele>1588.2</ele>
        <time>2017-07-28T08:08:34Z</time>
      </trkpt>
      <trkpt lat="44.9952670" lon="6.9250840">
        <ele>1588.6</ele>
        <time>2017-07-28T08:08:38Z</time>
      </trkpt>
      <trkpt lat="44.9952020" lon="6.9250650">
        <ele>1589.2</ele>
        <time>2017-07-28T08:08:41Z</time>
      </trkpt>
      <trkpt lat="44.9951430" lon="6.9250650">
        <ele>1590.0</ele>
        <time>2017-07-28T08:08:44Z</time>
      </trkpt>
      <trkpt lat="44.9951230" lon="6.9250720">
        <ele>1590.4</ele>
        <time>2017-07-28T08:08:45Z</time>
      </trkpt>
      <trkpt lat="44.9950830" lon="6.9250580">
        <ele>1591.0</ele>
        <time>2017-07-28T08:08:47Z</time>
      </trkpt>
      <trkpt lat="44.9950690" lon="6.9250330">
        <ele>1591.2</ele>
        <time>2017-07-28T08:08:48Z</time>
      </trkpt>
      <trkpt lat="44.9950630" lon="6.9249980">
        <ele>1591.6</ele>
        <time>2017-07-28T08:08:49Z</time>
      </trkpt>
      <trkpt lat="44.9950870" lon="6.9248670">
        <ele>1593.0</ele>
        <time>2017-07-28T08:08:52Z</time>
      </trkpt>
      <trkpt lat="44.9951220" lon="6.9247600">
        <ele>1593.8</ele>
        <time>2017-07-28T08:08:54Z</time>
      </trkpt>
      <trkpt lat="44.9951410" lon="6.9247080">
        <ele>1594.2</ele>
        <time>2017-07-28T08:08:55Z</time>
      </trkpt>
      <trkpt lat="44.9952230" lon="6.9244790">
        <ele>1595.2</ele>
        <time>2017-07-28T08:08:59Z</time>
      </trkpt>
      <trkpt lat="44.9953100" lon="6.9242260">
        <ele>1596.2</ele>
        <time>2017-07-28T08:09:03Z</time>
      </trkpt>
      <trkpt lat="44.9953620" lon="6.9240930">
        <ele>1597.0</ele>
        <time>2017-07-28T08:09:05Z</time>
      </trkpt>
      <trkpt lat="44.9953930" lon="6.9240330">
        <ele>1597.0</ele>
        <time>2017-07-28T08:09:06Z</time>
      </trkpt>
      <trkpt lat="44.9954170" lon="6.9239710">
        <ele>1597.2</ele>
        <time>2017-07-28T08:09:07Z</time>
      </trkpt>
      <trkpt lat="44.9954430" lon="6.9238330">
        <ele>1598.0</ele>
        <time>2017-07-28T08:09:09Z</time>
      </trkpt>
      <trkpt lat="44.9953500" lon="6.9236360">
        <ele>1598.0</ele>
        <time>2017-07-28T08:09:12Z</time>
      </trkpt>
      <trkpt lat="44.9952300" lon="6.9235940">
        <ele>1597.6</ele>
        <time>2017-07-28T08:09:14Z</time>
      </trkpt>
      <trkpt lat="44.9951700" lon="6.9235640">
        <ele>1597.4</ele>
        <time>2017-07-28T08:09:15Z</time>
      </trkpt>
      <trkpt lat="44.9950100" lon="6.9234300">
        <ele>1597.0</ele>
        <time>2017-07-28T08:09:18Z</time>
      </trkpt>
      <trkpt lat="44.9949670" lon="6.9233870">
        <ele>1597.0</ele>
        <time>2017-07-28T08:09:19Z</time>
      </trkpt>
      <trkpt lat="44.9946900" lon="6.9230980">
        <ele>1597.6</ele>
        <time>2017-07-28T08:09:26Z</time>
      </trkpt>
      <trkpt lat="44.9945990" lon="6.9230590">
        <ele>1597.6</ele>
        <time>2017-07-28T08:09:28Z</time>
      </trkpt>
      <trkpt lat="44.9944860" lon="6.9230190">
        <ele>1597.2</ele>
        <time>2017-07-28T08:09:30Z</time>
      </trkpt>
      <trkpt lat="44.9941670" lon="6.9229030">
        <ele>1596.8</ele>
        <time>2017-07-28T08:09:36Z</time>
      </trkpt>
      <trkpt lat="44.9941160" lon="6.9228920">
        <ele>1597.0</ele>
        <time>2017-07-28T08:09:37Z</time>
      </trkpt>
      <trkpt lat="44.9939490" lon="6.9228590">
        <ele>1596.8</ele>
        <time>2017-07-28T08:09:40Z</time>
      </trkpt>
      <trkpt lat="44.9938280" lon="6.9228430">
        <ele>1596.4</ele>
        <time>2017-07-28T08:09:42Z</time>
      </trkpt>
      <trkpt lat="44.9937130" lon="6.9228040">
        <ele>1596.2</ele>
        <time>2017-07-28T08:09:44Z</time>
      </trkpt>
      <trkpt lat="44.9936150" lon="6.9227580">
        <ele>1596.2</ele>
        <time>2017-07-28T08:09:46Z</time>
      </trkpt>
      <trkpt lat="44.9933040" lon="6.9225560">
        <ele>1596.4</ele>
        <time>2017-07-28T08:09:53Z</time>
      </trkpt>
      <trkpt lat="44.9932600" lon="6.9225360">
        <ele>1596.4</ele>
        <time>2017-07-28T08:09:54Z</time>
      </trkpt>
      <trkpt lat="44.9931160" lon="6.9225340">
        <ele>1596.4</ele>
        <time>2017-07-28T08:09:57Z</time>
      </trkpt>
      <trkpt lat="44.9930660" lon="6.9225410">
        <ele>1596.2</ele>
        <time>2017-07-28T08:09:58Z</time>
      </trkpt>
      <trkpt lat="44.9930150" lon="6.9225400">
        <ele>1596.4</ele>
        <time>2017-07-28T08:09:59Z</time>
      </trkpt>
      <trkpt lat="44.9929310" lon="6.9224950">
        <ele>1596.6</ele>
        <time>2017-07-28T08:10:01Z</time>
      </trkpt>
      <trkpt lat="44.9928590" lon="6.9224110">
        <ele>1596.6</ele>
        <time>2017-07-28T08:10:03Z</time>
      </trkpt>
      <trkpt lat="44.9927440" lon="6.9222710">
        <ele>1596.6</ele>
        <time>2017-07-28T08:10:06Z</time>
      </trkpt>
      <trkpt lat="44.9925110" lon="6.9220180">
        <ele>1597.0</ele>
        <time>2017-07-28T08:10:12Z</time>
      </trkpt>
      <trkpt lat="44.9923560" lon="6.9218460">
        <ele>1597.2</ele>
        <time>2017-07-28T08:10:16Z</time>
      </trkpt>
      <trkpt lat="44.9921990" lon="6.9216850">
        <ele>1597.4</ele>
        <time>2017-07-28T08:10:20Z</time>
      </trkpt>
      <trkpt lat="44.9920480" lon="6.9215280">
        <ele>1597.8</ele>
        <time>2017-07-28T08:10:24Z</time>
      </trkpt>
      <trkpt lat="44.9919640" lon="6.9214640">
        <ele>1598.4</ele>
        <time>2017-07-28T08:10:26Z</time>
      </trkpt>
      <trkpt lat="44.9917430" lon="6.9213250">
        <ele>1598.8</ele>
        <time>2017-07-28T08:10:31Z</time>
      </trkpt>
      <trkpt lat="44.9916570" lon="6.9212490">
        <ele>1599.4</ele>
        <time>2017-07-28T08:10:33Z</time>
      </trkpt>
      <trkpt lat="44.9915200" lon="6.9211660">
        <ele>1599.4</ele>
        <time>2017-07-28T08:10:36Z</time>
      </trkpt>
      <trkpt lat="44.9913820" lon="6.9211130">
        <ele>1599.8</ele>
        <time>2017-07-28T08:10:39Z</time>
      </trkpt>
      <trkpt lat="44.9910900" lon="6.9210180">
        <ele>1600.4</ele>
        <time>2017-07-28T08:10:45Z</time>
      </trkpt>
      <trkpt lat="44.9910450" lon="6.9210020">
        <ele>1600.8</ele>
        <time>2017-07-28T08:10:46Z</time>
      </trkpt>
      <trkpt lat="44.9909560" lon="6.9209860">
        <ele>1601.0</ele>
        <time>2017-07-28T08:10:48Z</time>
      </trkpt>
      <trkpt lat="44.9907660" lon="6.9209750">
        <ele>1601.2</ele>
        <time>2017-07-28T08:10:52Z</time>
      </trkpt>
      <trkpt lat="44.9906250" lon="6.9210020">
        <ele>1601.8</ele>
        <time>2017-07-28T08:10:55Z</time>
      </trkpt>
      <trkpt lat="44.9905780" lon="6.9210070">
        <ele>1601.8</ele>
        <time>2017-07-28T08:10:56Z</time>
      </trkpt>
      <trkpt lat="44.9904860" lon="6.9210270">
        <ele>1602.0</ele>
        <time>2017-07-28T08:10:58Z</time>
      </trkpt>
      <trkpt lat="44.9903100" lon="6.9209900">
        <ele>1602.4</ele>
        <time>2017-07-28T08:11:02Z</time>
      </trkpt>
      <trkpt lat="44.9902270" lon="6.9209410">
        <ele>1602.6</ele>
        <time>2017-07-28T08:11:04Z</time>
      </trkpt>
      <trkpt lat="44.9901850" lon="6.9209250">
        <ele>1602.8</ele>
        <time>2017-07-28T08:11:05Z</time>
      </trkpt>
      <trkpt lat="44.9901400" lon="6.9209130">
        <ele>1602.6</ele>
        <time>2017-07-28T08:11:06Z</time>
      </trkpt>
      <trkpt lat="44.9900470" lon="6.9208990">
        <ele>1603.0</ele>
        <time>2017-07-28T08:11:08Z</time>
      </trkpt>
      <trkpt lat="44.9899520" lon="6.9209100">
        <ele>1604.0</ele>
        <time>2017-07-28T08:11:10Z</time>
      </trkpt>
      <trkpt lat="44.9899050" lon="6.9209170">
        <ele>1604.2</ele>
        <time>2017-07-28T08:11:11Z</time>
      </trkpt>
      <trkpt lat="44.9897090" lon="6.9209400">
        <ele>1605.2</ele>
        <time>2017-07-28T08:11:15Z</time>
      </trkpt>
      <trkpt lat="44.9895130" lon="6.9209520">
        <ele>1606.4</ele>
        <time>2017-07-28T08:11:19Z</time>
      </trkpt>
      <trkpt lat="44.9894670" lon="6.9209660">
        <ele>1606.6</ele>
        <time>2017-07-28T08:11:20Z</time>
      </trkpt>
      <trkpt lat="44.9893780" lon="6.9209870">
        <ele>1607.2</ele>
        <time>2017-07-28T08:11:22Z</time>
      </trkpt>
      <trkpt lat="44.9893340" lon="6.9209890">
        <ele>1607.6</ele>
        <time>2017-07-28T08:11:23Z</time>
      </trkpt>
      <trkpt lat="44.9892880" lon="6.9209940">
        <ele>1607.8</ele>
        <time>2017-07-28T08:11:24Z</time>
      </trkpt>
      <trkpt lat="44.9892030" lon="6.9210080">
        <ele>1608.6</ele>
        <time>2017-07-28T08:11:26Z</time>
      </trkpt>
      <trkpt lat="44.9890760" lon="6.9210280">
        <ele>1609.6</ele>
        <time>2017-07-28T08:11:29Z</time>
      </trkpt>
      <trkpt lat="44.9890360" lon="6.9210370">
        <ele>1609.8</ele>
        <time>2017-07-28T08:11:30Z</time>
      </trkpt>
      <trkpt lat="44.9889960" lon="6.9210460">
        <ele>1610.2</ele>
        <time>2017-07-28T08:11:31Z</time>
      </trkpt>
      <trkpt lat="44.9888770" lon="6.9210790">
        <ele>1611.2</ele>
        <time>2017-07-28T08:11:34Z</time>
      </trkpt>
      <trkpt lat="44.9887980" lon="6.9210910">
        <ele>1612.0</ele>
        <time>2017-07-28T08:11:36Z</time>
      </trkpt>
      <trkpt lat="44.9887560" lon="6.9210990">
        <ele>1612.2</ele>
        <time>2017-07-28T08:11:37Z</time>
      </trkpt>
      <trkpt lat="44.9887160" lon="6.9211030">
        <ele>1612.6</ele>
        <time>2017-07-28T08:11:38Z</time>
      </trkpt>
      <trkpt lat="44.9885680" lon="6.9211370">
        <ele>1613.4</ele>
        <time>2017-07-28T08:11:42Z</time>
      </trkpt>
      <trkpt lat="44.9884960" lon="6.9211440">
        <ele>1613.8</ele>
        <time>2017-07-28T08:11:44Z</time>
      </trkpt>
      <trkpt lat="44.9883560" lon="6.9211560">
        <ele>1614.4</ele>
        <time>2017-07-28T08:11:48Z</time>
      </trkpt>
      <trkpt lat="44.9882870" lon="6.9211680">
        <ele>1614.8</ele>
        <time>2017-07-28T08:11:50Z</time>
      </trkpt>
      <trkpt lat="44.9881880" lon="6.9211780">
        <ele>1615.6</ele>
        <time>2017-07-28T08:11:53Z</time>
      </trkpt>
      <trkpt lat="44.9880890" lon="6.9211320">
        <ele>1616.0</ele>
        <time>2017-07-28T08:11:56Z</time>
      </trkpt>
      <trkpt lat="44.9880640" lon="6.9210980">
        <ele>1616.0</ele>
        <time>2017-07-28T08:11:57Z</time>
      </trkpt>
      <trkpt lat="44.9880240" lon="6.9209600">
        <ele>1616.4</ele>
        <time>2017-07-28T08:12:00Z</time>
      </trkpt>
      <trkpt lat="44.9880180" lon="6.9209080">
        <ele>1616.8</ele>
        <time>2017-07-28T08:12:01Z</time>
      </trkpt>
      <trkpt lat="44.9879790" lon="6.9206280">
        <ele>1618.0</ele>
        <time>2017-07-28T08:12:07Z</time>
      </trkpt>
      <trkpt lat="44.9879790" lon="6.9205970">
        <ele>1618.2</ele>
        <time>2017-07-28T08:12:08Z</time>
      </trkpt>
      <trkpt lat="44.9879780" lon="6.9204630">
        <ele>1619.0</ele>
        <time>2017-07-28T08:12:11Z</time>
      </trkpt>
      <trkpt lat="44.9879740" lon="6.9204070">
        <ele>1619.0</ele>
        <time>2017-07-28T08:12:12Z</time>
      </trkpt>
      <trkpt lat="44.9879670" lon="6.9201660">
        <ele>1620.0</ele>
        <time>2017-07-28T08:12:16Z</time>
      </trkpt>
      <trkpt lat="44.9879490" lon="6.9199190">
        <ele>1620.6</ele>
        <time>2017-07-28T08:12:20Z</time>
      </trkpt>
      <trkpt lat="44.9879450" lon="6.9197470">
        <ele>1621.2</ele>
        <time>2017-07-28T08:12:23Z</time>
      </trkpt>
      <trkpt lat="44.9879320" lon="6.9195130">
        <ele>1622.0</ele>
        <time>2017-07-28T08:12:27Z</time>
      </trkpt>
      <trkpt lat="44.9879270" lon="6.9194540">
        <ele>1622.2</ele>
        <time>2017-07-28T08:12:28Z</time>
      </trkpt>
      <trkpt lat="44.9878950" lon="6.9191590">
        <ele>1623.2</ele>
        <time>2017-07-28T08:12:33Z</time>
      </trkpt>
      <trkpt lat="44.9878930" lon="6.9188760">
        <ele>1624.4</ele>
        <time>2017-07-28T08:12:38Z</time>
      </trkpt>
      <trkpt lat="44.9879070" lon="6.9188310">
        <ele>1624.8</ele>
        <time>2017-07-28T08:12:39Z</time>
      </trkpt>
      <trkpt lat="44.9879350" lon="6.9188040">
        <ele>1625.0</ele>
        <time>2017-07-28T08:12:40Z</time>
      </trkpt>
      <trkpt lat="44.9880030" lon="6.9187670">
        <ele>1625.2</ele>
        <time>2017-07-28T08:12:42Z</time>
      </trkpt>
      <trkpt lat="44.9880130" lon="6.9187280">
        <ele>1625.2</ele>
        <time>2017-07-28T08:12:43Z</time>
      </trkpt>
      <trkpt lat="44.9880020" lon="6.9186970">
        <ele>1625.4</ele>
        <time>2017-07-28T08:12:44Z</time>
      </trkpt>
      <trkpt lat="44.9879780" lon="6.9186630">
        <ele>1625.6</ele>
        <time>2017-07-28T08:12:45Z</time>
      </trkpt>
      <trkpt lat="44.9879530" lon="6.9185730">
        <ele>1625.6</ele>
        <time>2017-07-28T08:12:47Z</time>
      </trkpt>
      <trkpt lat="44.9880190" lon="6.9184520">
        <ele>1626.2</ele>
        <time>2017-07-28T08:12:50Z</time>
      </trkpt>
      <trkpt lat="44.9881420" lon="6.9184350">
        <ele>1626.0</ele>
        <time>2017-07-28T08:12:53Z</time>
      </trkpt>
      <trkpt lat="44.9882030" lon="6.9183450">
        <ele>1625.6</ele>
        <time>2017-07-28T08:12:56Z</time>
      </trkpt>
      <trkpt lat="44.9882140" lon="6.9183070">
        <ele>1625.8</ele>
        <time>2017-07-28T08:12:57Z</time>
      </trkpt>
      <trkpt lat="44.9675340" lon="6.9044680">
        <ele>2097.6</ele>
        <time>2017-07-28T08:22:51Z</time>
      </trkpt>
      <trkpt lat="44.9673090" lon="6.9043030">
        <ele>2098.2</ele>
        <time>2017-07-28T08:22:58Z</time>
      </trkpt>
      <trkpt lat="44.9670930" lon="6.9041380">
        <ele>2098.0</ele>
        <time>2017-07-28T08:23:04Z</time>
      </trkpt>
      <trkpt lat="44.9670600" lon="6.9040960">
        <ele>2098.0</ele>
        <time>2017-07-28T08:23:05Z</time>
      </trkpt>
      <trkpt lat="44.9669220" lon="6.9039550">
        <ele>2097.8</ele>
        <time>2017-07-28T08:23:09Z</time>
      </trkpt>
      <trkpt lat="44.9666980" lon="6.9037400">
        <ele>2098.0</ele>
        <time>2017-07-28T08:23:16Z</time>
      </trkpt>
      <trkpt lat="44.9665860" lon="6.9035380">
        <ele>2098.4</ele>
        <time>2017-07-28T08:23:21Z</time>
      </trkpt>
      <trkpt lat="44.9665540" lon="6.9034320">
        <ele>2098.8</ele>
        <time>2017-07-28T08:23:23Z</time>
      </trkpt>
      <trkpt lat="44.9664880" lon="6.9032380">
        <ele>2099.4</ele>
        <time>2017-07-28T08:23:26Z</time>
      </trkpt>
      <trkpt lat="44.9663870" lon="6.9030200">
        <ele>2099.4</ele>
        <time>2017-07-28T08:23:29Z</time>
      </trkpt>
      <trkpt lat="44.9663530" lon="6.9029470">
        <ele>2099.2</ele>
        <time>2017-07-28T08:23:30Z</time>
      </trkpt>
      <trkpt lat="44.9663010" lon="6.9028060">
        <ele>2099.0</ele>
        <time>2017-07-28T08:23:32Z</time>
      </trkpt>
      <trkpt lat="44.9662830" lon="6.9026560">
        <ele>2099.2</ele>
        <time>2017-07-28T08:23:34Z</time>
      </trkpt>
      <trkpt lat="44.9662730" lon="6.9025090">
        <ele>2100.0</ele>
        <time>2017-07-28T08:23:36Z</time>
      </trkpt>
      <trkpt lat="44.9662330" lon="6.9022130">
        <ele>2101.0</ele>
        <time>2017-07-28T08:23:40Z</time>
      </trkpt>
      <trkpt lat="44.9662100" lon="6.9021500">
        <ele>2101.0</ele>
        <time>2017-07-28T08:23:41Z</time>
      </trkpt>
      <trkpt lat="44.9661060" lon="6.9018330">
        <ele>2101.0</ele>
        <time>2017-07-28T08:23:47Z</time>
      </trkpt>
      <trkpt lat="44.9661270" lon="6.9017240">
        <ele>2101.8</ele>
        <time>2017-07-28T08:23:49Z</time>
      </trkpt>
      <trkpt lat="44.9661430" lon="6.9016690">
        <ele>2102.0</ele>
        <time>2017-07-28T08:23:50Z</time>
      </trkpt>
      <trkpt lat="44.9661600" lon="6.9016090">
        <ele>2102.2</ele>
        <time>2017-07-28T08:23:51Z</time>
      </trkpt>
      <trkpt lat="44.9661600" lon="6.9014170">
        <ele>2102.8</ele>
        <time>2017-07-28T08:23:54Z</time>
      </trkpt>
      <trkpt lat="44.9660860" lon="6.9012730">
        <ele>2103.0</ele>
        <time>2017-07-28T08:23:57Z</time>
      </trkpt>
      <trkpt lat="44.9659640" lon="6.9012420">
        <ele>2102.6</ele>
        <time>2017-07-28T08:24:00Z</time>
      </trkpt>
      <trkpt lat="44.9659190" lon="6.9012440">
        <ele>2102.4</ele>
        <time>2017-07-28T08:24:01Z</time>
      </trkpt>
      <trkpt lat="44.9658320" lon="6.9012670">
        <ele>2102.2</ele>
        <time>2017-07-28T08:24:03Z</time>
      </trkpt>
      <trkpt lat="44.9657060" lon="6.9012900">
        <ele>2102.2</ele>
        <time>2017-07-28T08:24:06Z</time>
      </trkpt>
      <trkpt lat="44.9656630" lon="6.9012830">
        <ele>2102.2</ele>
        <time>2017-07-28T08:24:07Z</time>
      </trkpt>
      <trkpt lat="44.9655640" lon="6.9011560">
        <ele>2102.6</ele>
        <time>2017-07-28T08:24:10Z</time>
      </trkpt>
      <trkpt lat="44.9655370" lon="6.9009630">
        <ele>2102.0</ele>
        <time>2017-07-28T08:24:13Z</time>
      </trkpt>
      <trkpt lat="44.9655560" lon="6.9008290">
        <ele>2103.4</ele>
        <time>2017-07-28T08:24:15Z</time>
      </trkpt>
      <trkpt lat="44.9655600" lon="6.9007620">
        <ele>2103.6</ele>
        <time>2017-07-28T08:24:16Z</time>
      </trkpt>
      <trkpt lat="44.9655880" lon="6.9006990">
        <ele>2103.8</ele>
        <time>2017-07-28T08:24:17Z</time>
      </trkpt>
      <trkpt lat="44.9657050" lon="6.9005640">
        <ele>2104.2</ele>
        <time>2017-07-28T08:24:20Z</time>
      </trkpt>
      <trkpt lat="44.9657460" lon="6.9005290">
        <ele>2104.2</ele>
        <time>2017-07-28T08:24:21Z</time>
      </trkpt>
      <trkpt lat="44.9657880" lon="6.9004870">
        <ele>2104.2</ele>
        <time>2017-07-28T08:24:22Z</time>
      </trkpt>
      <trkpt lat="44.9659160" lon="6.9003860">
        <ele>2103.8</ele>
        <time>2017-07-28T08:24:25Z</time>
      </trkpt>
      <trkpt lat="44.9661500" lon="6.9002520">
        <ele>2103.2</ele>
        <time>2017-07-28T08:24:30Z</time>
      </trkpt>
      <trkpt lat="44.9662500" lon="6.9002140">
        <ele>2102.6</ele>
        <time>2017-07-28T08:24:32Z</time>
      </trkpt>
      <trkpt lat="44.9665550" lon="6.9000300">
        <ele>2102.4</ele>
        <time>2017-07-28T08:24:38Z</time>
      </trkpt>
      <trkpt lat="44.9666560" lon="6.8999460">
        <ele>2102.0</ele>
        <time>2017-07-28T08:24:40Z</time>
      </trkpt>
      <trkpt lat="44.9667710" lon="6.8999110">
        <ele>2101.8</ele>
        <time>2017-07-28T08:24:42Z</time>
      </trkpt>
      <trkpt lat="44.9670120" lon="6.8999380">
        <ele>2102.0</ele>
        <time>2017-07-28T08:24:45Z</time>
      </trkpt>
      <trkpt lat="44.9672600" lon="6.9000360">
        <ele>2101.0</ele>
        <time>2017-07-28T08:24:48Z</time>
      </trkpt>
      <trkpt lat="44.9674160" lon="6.9001170">
        <ele>2100.2</ele>
        <time>2017-07-28T08:24:50Z</time>
      </trkpt>
      <trkpt lat="44.9674890" lon="6.9001760">
        <ele>2099.6</ele>
        <time>2017-07-28T08:24:51Z</time>
      </trkpt>
      <trkpt lat="44.9676120" lon="6.9003270">
        <ele>2098.2</ele>
        <time>2017-07-28T08:24:53Z</time>
      </trkpt>
      <trkpt lat="44.9677160" lon="6.9005390">
        <ele>2097.0</ele>
        <time>2017-07-28T08:24:55Z</time>
      </trkpt>
      <trkpt lat="44.9677540" lon="6.9006470">
        <ele>2096.4</ele>
        <time>2017-07-28T08:24:56Z</time>
      </trkpt>
      <trkpt lat="44.9678000" lon="6.9007420">
        <ele>2095.8</ele>
        <time>2017-07-28T08:24:57Z</time>
      </trkpt>
      <trkpt lat="44.9679070" lon="6.9009500">
        <ele>2094.8</ele>
        <time>2017-07-28T08:24:59Z</time>
      </trkpt>
      <trkpt lat="44.9680100" lon="6.9011540">
        <ele>2093.4</ele>
        <time>2017-07-28T08:25:01Z</time>
      </trkpt>
      <trkpt lat="44.9680630" lon="6.9012280">
        <ele>2092.8</ele>
        <time>2017-07-28T08:25:02Z</time>
      </trkpt>
      <trkpt lat="44.9681340" lon="6.9012800">
        <ele>2092.0</ele>
        <time>2017-07-28T08:25:03Z</time>
      </trkpt>
      <trkpt lat="44.9682750" lon="6.9013180">
        <ele>2091.2</ele>
        <time>2017-07-28T08:25:05Z</time>
      </trkpt>
      <trkpt lat="44.9683390" lon="6.9012980">
        <ele>2090.4</ele>
        <time>2017-07-28T08:25:06Z</time>
      </trkpt>
      <trkpt lat="44.9684220" lon="6.9012130">
        <ele>2088.4</ele>
        <time>2017-07-28T08:25:08Z</time>
      </trkpt>
      <trkpt lat="44.9684920" lon="6.9010480">
        <ele>2087.2</ele>
        <time>2017-07-28T08:25:10Z</time>
      </trkpt>
      <trkpt lat="44.9685430" lon="6.9009510">
        <ele>2086.4</ele>
        <time>2017-07-28T08:25:11Z</time>
      </trkpt>
      <trkpt lat="44.9685890" lon="6.9008490">
        <ele>2084.6</ele>
        <time>2017-07-28T08:25:12Z</time>
      </trkpt>
      <trkpt lat="44.9686340" lon="6.9006520">
        <ele>2082.8</ele>
        <time>2017-07-28T08:25:14Z</time>
      </trkpt>
      <trkpt lat="44.9686380" lon="6.9005470">
        <ele>2081.6</ele>
        <time>2017-07-28T08:25:15Z</time>
      </trkpt>
      <trkpt lat="44.9686300" lon="6.9004360">
        <ele>2080.4</ele>
        <time>2017-07-28T08:25:16Z</time>
      </trkpt>
      <trkpt lat="44.9685740" lon="6.9002290">
        <ele>2078.4</ele>
        <time>2017-07-28T08:25:18Z</time>
      </trkpt>
      <trkpt lat="44.9685430" lon="6.9001140">
        <ele>2077.4</ele>
        <time>2017-07-28T08:25:19Z</time>
      </trkpt>
      <trkpt lat="44.9685040" lon="6.8999960">
        <ele>2076.4</ele>
        <time>2017-07-28T08:25:20Z</time>
      </trkpt>
      <trkpt lat="44.9684720" lon="6.8998940">
        <ele>2075.2</ele>
        <time>2017-07-28T08:25:21Z</time>
      </trkpt>
      <trkpt lat="44.9684410" lon="6.8998030">
        <ele>2074.6</ele>
        <time>2017-07-28T08:25:22Z</time>
      </trkpt>
      <trkpt lat="44.9684030" lon="6.8996970">
        <ele>2073.4</ele>
        <time>2017-07-28T08:25:23Z</time>
      </trkpt>
      <trkpt lat="44.9683290" lon="6.8994640">
        <ele>2071.4</ele>
        <time>2017-07-28T08:25:25Z</time>
      </trkpt>
      <trkpt lat="44.9682940" lon="6.8993640">
        <ele>2070.4</ele>
        <time>2017-07-28T08:25:26Z</time>
      </trkpt>
      <trkpt lat="44.9682520" lon="6.8992620">
        <ele>2069.4</ele>
        <time>2017-07-28T08:25:27Z</time>
      </trkpt>
      <trkpt lat="44.9681640" lon="6.8990720">
        <ele>2067.2</ele>
        <time>2017-07-28T08:25:29Z</time>
      </trkpt>
      <trkpt lat="44.9681190" lon="6.8989670">
        <ele>2065.6</ele>
        <time>2017-07-28T08:25:30Z</time>
      </trkpt>
      <trkpt lat="44.9680850" lon="6.8988690">
        <ele>2064.2</ele>
        <time>2017-07-28T08:25:31Z</time>
      </trkpt>
      <trkpt lat="44.9680570" lon="6.8987820">
        <ele>2063.0</ele>
        <time>2017-07-28T08:25:32Z</time>
      </trkpt>
      <trkpt lat="44.9680400" lon="6.8986770">
        <ele>2061.8</ele>
        <time>2017-07-28T08:25:33Z</time>
      </trkpt>
      <trkpt lat="44.9680280" lon="6.8985730">
        <ele>2060.4</ele>
        <time>2017-07-28T08:25:34Z</time>
      </trkpt>
      <trkpt lat="44.9680190" lon="6.8984770">
        <ele>2059.2</ele>
        <time>2017-07-28T08:25:35Z</time>
      </trkpt>
      <trkpt lat="44.9680130" lon="6.8983700">
        <ele>2056.8</ele>
        <time>2017-07-28T08:25:36Z</time>
      </trkpt>
      <trkpt lat="44.9680020" lon="6.8982480">
        <ele>2055.2</ele>
        <time>2017-07-28T08:25:37Z</time>
      </trkpt>
      <trkpt lat="44.9679880" lon="6.8981220">
        <ele>2053.4</ele>
        <time>2017-07-28T08:25:38Z</time>
      </trkpt>
      <trkpt lat="44.9679720" lon="6.8980150">
        <ele>2051.4</ele>
        <time>2017-07-28T08:25:39Z</time>
      </trkpt>
      <trkpt lat="44.9679580" lon="6.8979160">
        <ele>2049.4</ele>
        <time>2017-07-28T08:25:40Z</time>
      </trkpt>
      <trkpt lat="44.9679420" lon="6.8978090">
        <ele>2047.4</ele>
        <time>2017-07-28T08:25:41Z</time>
      </trkpt>
      <trkpt lat="44.9679290" lon="6.8976970">
        <ele>2045.6</ele>
        <time>2017-07-28T08:25:42Z</time>
      </trkpt>
      <trkpt lat="44.9679170" lon="6.8975900">
        <ele>2044.0</ele>
        <time>2017-07-28T08:25:43Z</time>
      </trkpt>
      <trkpt lat="44.9679020" lon="6.8974940">
        <ele>2042.2</ele>
        <time>2017-07-28T08:25:44Z</time>
      </trkpt>
      <trkpt lat="44.9678820" lon="6.8973910">
        <ele>2040.6</ele>
        <time>2017-07-28T08:25:45Z</time>
      </trkpt>
      <trkpt lat="44.9678520" lon="6.8972820">
        <ele>2038.8</ele>
        <time>2017-07-28T08:25:46Z</time>
      </trkpt>
      <trkpt lat="44.9678170" lon="6.8971640">
        <ele>2037.0</ele>
        <time>2017-07-28T08:25:47Z</time>
      </trkpt>
      <trkpt lat="44.9677750" lon="6.8970410">
        <ele>2035.6</ele>
        <time>2017-07-28T08:25:48Z</time>
      </trkpt>
      <trkpt lat="44.9677350" lon="6.8969240">
        <ele>2034.0</ele>
        <time>2017-07-28T08:25:49Z</time>
      </trkpt>
      <trkpt lat="44.9677040" lon="6.8968270">
        <ele>2032.6</ele>
        <time>2017-07-28T08:25:50Z</time>
      </trkpt>
      <trkpt lat="44.9676670" lon="6.8967330">
        <ele>2030.6</ele>
        <time>2017-07-28T08:25:51Z</time>
      </trkpt>
      <trkpt lat="44.9676300" lon="6.8966420">
        <ele>2029.2</ele>
        <time>2017-07-28T08:25:52Z</time>
      </trkpt>
      <trkpt lat="44.9675870" lon="6.8965510">
        <ele>2027.8</ele>
        <time>2017-07-28T08:25:53Z</time>
      </trkpt>
      <trkpt lat="44.9675410" lon="6.8964630">
        <ele>2026.4</ele>
        <time>2017-07-28T08:25:54Z</time>
      </trkpt>
      <trkpt lat="44.9674900" lon="6.8963940">
        <ele>2024.6</ele>
        <time>2017-07-28T08:25:55Z</time>
      </trkpt>
      <trkpt lat="44.9674320" lon="6.8963200">
        <ele>2023.2</ele>
        <time>2017-07-28T08:25:56Z</time>
      </trkpt>
      <trkpt lat="44.9673700" lon="6.8962390">
        <ele>2021.8</ele>
        <time>2017-07-28T08:25:57Z</time>
      </trkpt>
      <trkpt lat="44.9673110" lon="6.8961590">
        <ele>2020.6</ele>
        <time>2017-07-28T08:25:58Z</time>
      </trkpt>
      <trkpt lat="44.9672630" lon="6.8960800">
        <ele>2019.2</ele>
        <time>2017-07-28T08:25:59Z</time>
      </trkpt>
      <trkpt lat="44.9672230" lon="6.8959940">
        <ele>2016.2</ele>
        <time>2017-07-28T08:26:00Z</time>
      </trkpt>
      <trkpt lat="44.9672070" lon="6.8958910">
        <ele>2015.0</ele>
        <time>2017-07-28T08:26:01Z</time>
      </trkpt>
      <trkpt lat="44.9672000" lon="6.8957960">
        <ele>2013.2</ele>
        <time>2017-07-28T08:26:02Z</time>
      </trkpt>
      <trkpt lat="44.9671920" lon="6.8957010">
        <ele>2011.8</ele>
        <time>2017-07-28T08:26:03Z</time>
      </trkpt>
      <trkpt lat="44.9671840" lon="6.8956060">
        <ele>2010.2</ele>
        <time>2017-07-28T08:26:04Z</time>
      </trkpt>
      <trkpt lat="44.9671840" lon="6.8955240">
        <ele>2009.0</ele>
        <time>2017-07-28T08:26:05Z</time>
      </trkpt>
      <trkpt lat="44.9671800" lon="6.8954470">
        <ele>2007.6</ele>
        <time>2017-07-28T08:26:06Z</time>
      </trkpt>
      <trkpt lat="44.9671680" lon="6.8953670">
        <ele>2006.0</ele>
        <time>2017-07-28T08:26:07Z</time>
      </trkpt>
      <trkpt lat="44.9671620" lon="6.8952860">
        <ele>2004.6</ele>
        <time>2017-07-28T08:26:08Z</time>
      </trkpt>
      <trkpt lat="44.9671640" lon="6.8952060">
        <ele>2003.0</ele>
        <time>2017-07-28T08:26:09Z</time>
      </trkpt>
      <trkpt lat="44.9671780" lon="6.8951380">
        <ele>2001.4</ele>
        <time>2017-07-28T08:26:10Z</time>
      </trkpt>
      <trkpt lat="44.9672000" lon="6.8950600">
        <ele>1999.8</ele>
        <time>2017-07-28T08:26:11Z</time>
      </trkpt>
      <trkpt lat="44.9672160" lon="6.8949870">
        <ele>1998.4</ele>
        <time>2017-07-28T08:26:12Z</time>
      </trkpt>
      <trkpt lat="44.9672270" lon="6.8948900">
        <ele>1996.8</ele>
        <time>2017-07-28T08:26:13Z</time>
      </trkpt>
      <trkpt lat="44.9672380" lon="6.8947950">
        <ele>1995.0</ele>
        <time>2017-07-28T08:26:14Z</time>
      </trkpt>
      <trkpt lat="44.9672540" lon="6.8947230">
        <ele>1993.4</ele>
        <time>2017-07-28T08:26:15Z</time>
      </trkpt>
      <trkpt lat="44.9672760" lon="6.8946670">
        <ele>1992.0</ele>
        <time>2017-07-28T08:26:16Z</time>
      </trkpt>
      <trkpt lat="44.9672980" lon="6.8946220">
        <ele>1990.6</ele>
        <time>2017-07-28T08:26:17Z</time>
      </trkpt>
      <trkpt lat="44.9673290" lon="6.8945830">
        <ele>1989.2</ele>
        <time>2017-07-28T08:26:18Z</time>
      </trkpt>
      <trkpt lat="44.9673740" lon="6.8945560">
        <ele>1987.6</ele>
        <time>2017-07-28T08:26:19Z</time>
      </trkpt>
      <trkpt lat="44.9674170" lon="6.8945520">
        <ele>1986.2</ele>
        <time>2017-07-28T08:26:20Z</time>
      </trkpt>
      <trkpt lat="44.9674590" lon="6.8945660">
        <ele>1984.6</ele>
        <time>2017-07-28T08:26:21Z</time>
      </trkpt>
      <trkpt lat="44.9675130" lon="6.8946000">
        <ele>1983.0</ele>
        <time>2017-07-28T08:26:22Z</time>
      </trkpt>
      <trkpt lat="44.9675780" lon="6.8946460">
        <ele>1981.2</ele>
        <time>2017-07-28T08:26:23Z</time>
      </trkpt>
      <trkpt lat="44.9676500" lon="6.8946860">
        <ele>1978.2</ele>
        <time>2017-07-28T08:26:24Z</time>
      </trkpt>
      <trkpt lat="44.9677240" lon="6.8947460">
        <ele>1976.8</ele>
        <time>2017-07-28T08:26:25Z</time>
      </trkpt>
      <trkpt lat="44.9677990" lon="6.8948020">
        <ele>1975.0</ele>
        <time>2017-07-28T08:26:26Z</time>
      </trkpt>
      <trkpt lat="44.9678680" lon="6.8948540">
        <ele>1973.2</ele>
        <time>2017-07-28T08:26:27Z</time>
      </trkpt>
      <trkpt lat="44.9679390" lon="6.8948990">
        <ele>1971.2</ele>
        <time>2017-07-28T08:26:28Z</time>
      </trkpt>
      <trkpt lat="44.9680040" lon="6.8949410">
        <ele>1969.6</ele>
        <time>2017-07-28T08:26:29Z</time>
      </trkpt>
      <trkpt lat="44.9680680" lon="6.8949740">
        <ele>1967.6</ele>
        <time>2017-07-28T08:26:30Z</time>
      </trkpt>
      <trkpt lat="44.9681200" lon="6.8949770">
        <ele>1966.0</ele>
        <time>2017-07-28T08:26:31Z</time>
      </trkpt>
      <trkpt lat="44.9681620" lon="6.8949600">
        <ele>1964.6</ele>
        <time>2017-07-28T08:26:32Z</time>
      </trkpt>
      <trkpt lat="44.9681930" lon="6.8949100">
        <ele>1963.0</ele>
        <time>2017-07-28T08:26:33Z</time>
      </trkpt>
      <trkpt lat="44.9682070" lon="6.8948540">
        <ele>1961.6</ele>
        <time>2017-07-28T08:26:34Z</time>
      </trkpt>
      <trkpt lat="44.9682010" lon="6.8947960">
        <ele>1960.0</ele>
        <time>2017-07-28T08:26:35Z</time>
      </trkpt>
      <trkpt lat="44.9681840" lon="6.8947340">
        <ele>1958.8</ele>
        <time>2017-07-28T08:26:36Z</time>
      </trkpt>
      <trkpt lat="44.9681590" lon="6.8946810">
        <ele>1957.8</ele>
        <time>2017-07-28T08:26:37Z</time>
      </trkpt>
      <trkpt lat="44.9681280" lon="6.8946220">
        <ele>1956.6</ele>
        <time>2017-07-28T08:26:38Z</time>
      </trkpt>
      <trkpt lat="44.9681000" lon="6.8945600">
        <ele>1955.6</ele>
        <time>2017-07-28T08:26:39Z</time>
      </trkpt>
      <trkpt lat="44.9680670" lon="6.8944950">
        <ele>1954.6</ele>
        <time>2017-07-28T08:26:40Z</time>
      </trkpt>
      <trkpt lat="44.9680070" lon="6.8943330">
        <ele>1952.6</ele>
        <time>2017-07-28T08:26:42Z</time>
      </trkpt>
      <trkpt lat="44.9679470" lon="6.8941520">
        <ele>1951.0</ele>
        <time>2017-07-28T08:26:44Z</time>
      </trkpt>
      <trkpt lat="44.9678760" lon="6.8939570">
        <ele>1949.6</ele>
        <time>2017-07-28T08:26:46Z</time>
      </trkpt>
      <trkpt lat="44.9678380" lon="6.8938840">
        <ele>1948.8</ele>
        <time>2017-07-28T08:26:47Z</time>
      </trkpt>
      <trkpt lat="44.9677980" lon="6.8938060">
        <ele>1947.4</ele>
        <time>2017-07-28T08:26:48Z</time>
      </trkpt>
      <trkpt lat="44.9677280" lon="6.8936480">
        <ele>1945.8</ele>
        <time>2017-07-28T08:26:50Z</time>
      </trkpt>
      <trkpt lat="44.9676780" lon="6.8934890">
        <ele>1944.0</ele>
        <time>2017-07-28T08:26:52Z</time>
      </trkpt>
      <trkpt lat="44.9676710" lon="6.8934070">
        <ele>1943.0</ele>
        <time>2017-07-28T08:26:53Z</time>
      </trkpt>
      <trkpt lat="44.9676820" lon="6.8933270">
        <ele>1942.0</ele>
        <time>2017-07-28T08:26:54Z</time>
      </trkpt>
      <trkpt lat="44.9677030" lon="6.8932540">
        <ele>1940.8</ele>
        <time>2017-07-28T08:26:55Z</time>
      </trkpt>
      <trkpt lat="44.9677470" lon="6.8931990">
        <ele>1939.8</ele>
        <time>2017-07-28T08:26:56Z</time>
      </trkpt>
      <trkpt lat="44.9678410" lon="6.8931150">
        <ele>1937.4</ele>
        <time>2017-07-28T08:26:58Z</time>
      </trkpt>
      <trkpt lat="44.9678970" lon="6.8931040">
        <ele>1936.2</ele>
        <time>2017-07-28T08:26:59Z</time>
      </trkpt>
      <trkpt lat="44.9679490" lon="6.8931200">
        <ele>1934.8</ele>
        <time>2017-07-28T08:27:00Z</time>
      </trkpt>
      <trkpt lat="44.9679990" lon="6.8931690">
        <ele>1933.8</ele>
        <time>2017-07-28T08:27:01Z</time>
      </trkpt>
      <trkpt lat="44.9680470" lon="6.8932290">
        <ele>1932.8</ele>
        <time>2017-07-28T08:27:02Z</time>
      </trkpt>
      <trkpt lat="44.9680860" lon="6.8933150">
        <ele>1931.6</ele>
        <time>2017-07-28T08:27:03Z</time>
      </trkpt>
      <trkpt lat="44.9681350" lon="6.8934020">
        <ele>1930.4</ele>
        <time>2017-07-28T08:27:04Z</time>
      </trkpt>
      <trkpt lat="44.9681920" lon="6.8934840">
        <ele>1929.4</ele>
        <time>2017-07-28T08:27:05Z</time>
      </trkpt>
      <trkpt lat="44.9683050" lon="6.8935310">
        <ele>1927.8</ele>
        <time>2017-07-28T08:27:07Z</time>
      </trkpt>
      <trkpt lat="44.9684100" lon="6.8934570">
        <ele>1926.0</ele>
        <time>2017-07-28T08:27:09Z</time>
      </trkpt>
      <trkpt lat="44.9684350" lon="6.8933900">
        <ele>1924.8</ele>
        <time>2017-07-28T08:27:10Z</time>
      </trkpt>
      <trkpt lat="44.9684460" lon="6.8933140">
        <ele>1923.8</ele>
        <time>2017-07-28T08:27:11Z</time>
      </trkpt>
      <trkpt lat="44.9684560" lon="6.8932280">
        <ele>1921.6</ele>
        <time>2017-07-28T08:27:12Z</time>
      </trkpt>
      <trkpt lat="44.9684600" lon="6.8931530">
        <ele>1920.4</ele>
        <time>2017-07-28T08:27:13Z</time>
      </trkpt>
      <trkpt lat="44.9684570" lon="6.8930850">
        <ele>1919.0</ele>
        <time>2017-07-28T08:27:14Z</time>
      </trkpt>
      <trkpt lat="44.9684540" lon="6.8930000">
        <ele>1918.0</ele>
        <time>2017-07-28T08:27:15Z</time>
      </trkpt>
      <trkpt lat="44.9684490" lon="6.8929210">
        <ele>1916.6</ele>
        <time>2017-07-28T08:27:16Z</time>
      </trkpt>
      <trkpt lat="44.9684410" lon="6.8928490">
        <ele>1915.4</ele>
        <time>2017-07-28T08:27:17Z</time>
      </trkpt>
      <trkpt lat="44.9684350" lon="6.8927750">
        <ele>1914.0</ele>
        <time>2017-07-28T08:27:18Z</time>
      </trkpt>
      <trkpt lat="44.9684270" lon="6.8926970">
        <ele>1912.8</ele>
        <time>2017-07-28T08:27:19Z</time>
      </trkpt>
      <trkpt lat="44.9684240" lon="6.8926330">
        <ele>1911.4</ele>
        <time>2017-07-28T08:27:20Z</time>
      </trkpt>
      <trkpt lat="44.9684160" lon="6.8925550">
        <ele>1909.6</ele>
        <time>2017-07-28T08:27:21Z</time>
      </trkpt>
      <trkpt lat="44.9684070" lon="6.8924630">
        <ele>1908.2</ele>
        <time>2017-07-28T08:27:22Z</time>
      </trkpt>
      <trkpt lat="44.9683860" lon="6.8923530">
        <ele>1906.6</ele>
        <time>2017-07-28T08:27:23Z</time>
      </trkpt>
      <trkpt lat="44.9683670" lon="6.8922590">
        <ele>1905.6</ele>
        <time>2017-07-28T08:27:24Z</time>
      </trkpt>
      <trkpt lat="44.9683480" lon="6.8921650">
        <ele>1904.2</ele>
        <time>2017-07-28T08:27:25Z</time>
      </trkpt>
      <trkpt lat="44.9683340" lon="6.8920890">
        <ele>1902.8</ele>
        <time>2017-07-28T08:27:26Z</time>
      </trkpt>
      <trkpt lat="44.9683150" lon="6.8920160">
        <ele>1901.2</ele>
        <time>2017-07-28T08:27:27Z</time>
      </trkpt>
      <trkpt lat="44.9682940" lon="6.8919580">
        <ele>1899.8</ele>
        <time>2017-07-28T08:27:28Z</time>
      </trkpt>
      <trkpt lat="44.9682740" lon="6.8919270">
        <ele>1898.2</ele>
        <time>2017-07-28T08:27:29Z</time>
      </trkpt>
      <trkpt lat="44.9682490" lon="6.8918890">
        <ele>1897.0</ele>
        <time>2017-07-28T08:27:30Z</time>
      </trkpt>
      <trkpt lat="44.9682170" lon="6.8918480">
        <ele>1895.8</ele>
        <time>2017-07-28T08:27:31Z</time>
      </trkpt>
      <trkpt lat="44.9681730" lon="6.8917960">
        <ele>1894.6</ele>
        <time>2017-07-28T08:27:32Z</time>
      </trkpt>
      <trkpt lat="44.9681250" lon="6.8917410">
        <ele>1893.4</ele>
        <time>2017-07-28T08:27:33Z</time>
      </trkpt>
      <trkpt lat="44.9680190" lon="6.8916100">
        <ele>1891.2</ele>
        <time>2017-07-28T08:27:35Z</time>
      </trkpt>
      <trkpt lat="44.9679660" lon="6.8915380">
        <ele>1888.6</ele>
        <time>2017-07-28T08:27:36Z</time>
      </trkpt>
      <trkpt lat="44.9679190" lon="6.8914590">
        <ele>1887.6</ele>
        <time>2017-07-28T08:27:37Z</time>
      </trkpt>
      <trkpt lat="44.9678800" lon="6.8913780">
        <ele>1886.4</ele>
        <time>2017-07-28T08:27:38Z</time>
      </trkpt>
      <trkpt lat="44.9678490" lon="6.8912900">
        <ele>1885.4</ele>
        <time>2017-07-28T08:27:39Z</time>
      </trkpt>
      <trkpt lat="44.9678180" lon="6.8911870">
        <ele>1883.8</ele>
        <time>2017-07-28T08:27:40Z</time>
      </trkpt>
      <trkpt lat="44.9677950" lon="6.8910800">
        <ele>1882.6</ele>
        <time>2017-07-28T08:27:41Z</time>
      </trkpt>
      <trkpt lat="44.9678180" lon="6.8909830">
        <ele>1881.2</ele>
        <time>2017-07-28T08:27:42Z</time>
      </trkpt>
      <trkpt lat="44.9678580" lon="6.8908140">
        <ele>1879.2</ele>
        <time>2017-07-28T08:27:44Z</time>
      </trkpt>
      <trkpt lat="44.9678620" lon="6.8907230">
        <ele>1878.6</ele>
        <time>2017-07-28T08:27:45Z</time>
      </trkpt>
      <trkpt lat="44.9678490" lon="6.8906400">
        <ele>1877.6</ele>
        <time>2017-07-28T08:27:46Z</time>
      </trkpt>
      <trkpt lat="44.9678090" lon="6.8905890">
        <ele>1876.4</ele>
        <time>2017-07-28T08:27:47Z</time>
      </trkpt>
      <trkpt lat="44.9677640" lon="6.8905640">
        <ele>1875.4</ele>
        <time>2017-07-28T08:27:48Z</time>
      </trkpt>
      <trkpt lat="44.9676740" lon="6.8905490">
        <ele>1873.6</ele>
        <time>2017-07-28T08:27:50Z</time>
      </trkpt>
      <trkpt lat="44.9676340" lon="6.8905450">
        <ele>1872.8</ele>
        <time>2017-07-28T08:27:51Z</time>
      </trkpt>
      <trkpt lat="44.9675940" lon="6.8905400">
        <ele>1872.2</ele>
        <time>2017-07-28T08:27:52Z</time>
      </trkpt>
      <trkpt lat="44.9675190" lon="6.8905480">
        <ele>1870.8</ele>
        <time>2017-07-28T08:27:54Z</time>
      </trkpt>
      <trkpt lat="44.9674240" lon="6.8905490">
        <ele>1869.8</ele>
        <time>2017-07-28T08:27:57Z</time>
      </trkpt>
      <trkpt lat="44.9672720" lon="6.8905210">
        <ele>1868.6</ele>
        <time>2017-07-28T08:28:02Z</time>
      </trkpt>
      <trkpt lat="44.9671880" lon="6.8904950">
        <ele>1868.0</ele>
        <time>2017-07-28T08:28:05Z</time>
      </trkpt>
      <trkpt lat="44.9671020" lon="6.8904630">
        <ele>1867.6</ele>
        <time>2017-07-28T08:28:08Z</time>
      </trkpt>
      <trkpt lat="44.9669660" lon="6.8904080">
        <ele>1867.4</ele>
        <time>2017-07-28T08:28:13Z</time>
      </trkpt>
      <trkpt lat="44.9667820" lon="6.8903180">
        <ele>1867.6</ele>
        <time>2017-07-28T08:28:20Z</time>
      </trkpt>
      <trkpt lat="44.9666870" lon="6.8902800">
        <ele>1868.8</ele>
        <time>2017-07-28T08:28:24Z</time>
      </trkpt>
      <trkpt lat="44.9666040" lon="6.8902610">
        <ele>1869.8</ele>
        <time>2017-07-28T08:28:27Z</time>
      </trkpt>
      <trkpt lat="44.9664580" lon="6.8902340">
        <ele>1870.6</ele>
        <time>2017-07-28T08:28:33Z</time>
      </trkpt>
      <trkpt lat="44.9664050" lon="6.8902110">
        <ele>1871.2</ele>
        <time>2017-07-28T08:28:35Z</time>
      </trkpt>
      <trkpt lat="44.9663750" lon="6.8902050">
        <ele>1871.6</ele>
        <time>2017-07-28T08:28:36Z</time>
      </trkpt>
      <trkpt lat="44.9663480" lon="6.8902010">
        <ele>1872.2</ele>
        <time>2017-07-28T08:28:37Z</time>
      </trkpt>
      <trkpt lat="44.9663230" lon="6.8901960">
        <ele>1872.6</ele>
        <time>2017-07-28T08:28:38Z</time>
      </trkpt>
      <trkpt lat="44.9662180" lon="6.8901700">
        <ele>1873.0</ele>
        <time>2017-07-28T08:28:42Z</time>
      </trkpt>
      <trkpt lat="44.9661930" lon="6.8901630">
        <ele>1873.2</ele>
        <time>2017-07-28T08:28:43Z</time>
      </trkpt>
      <trkpt lat="44.9661650" lon="6.8901570">
        <ele>1873.2</ele>
        <time>2017-07-28T08:28:44Z</time>
      </trkpt>
      <trkpt lat="44.9661400" lon="6.8901540">
        <ele>1873.4</ele>
        <time>2017-07-28T08:28:45Z</time>
      </trkpt>
      <trkpt lat="44.9661140" lon="6.8901510">
        <ele>1873.6</ele>
        <time>2017-07-28T08:28:46Z</time>
      </trkpt>
      <trkpt lat="44.9660870" lon="6.8901470">
        <ele>1873.8</ele>
        <time>2017-07-28T08:28:47Z</time>
      </trkpt>
      <trkpt lat="44.9660280" lon="6.8901300">
        <ele>1873.8</ele>
        <time>2017-07-28T08:28:49Z</time>
      </trkpt>
      <trkpt lat="44.9659310" lon="6.8900950">
        <ele>1874.2</ele>
        <time>2017-07-28T08:28:53Z</time>
      </trkpt>
      <trkpt lat="44.9659050" lon="6.8900860">
        <ele>1871.2</ele>
        <time>2017-07-28T08:28:54Z</time>
      </trkpt>
      <trkpt lat="44.9658770" lon="6.8900820">
        <ele>1864.6</ele>
        <time>2017-07-28T08:28:55Z</time>
      </trkpt>
      <trkpt lat="44.9658510" lon="6.8900700">
        <ele>1859.0</ele>
        <time>2017-07-28T08:28:56Z</time>
      </trkpt>
      <trkpt lat="44.9658250" lon="6.8900510">
        <ele>1863.0</ele>
        <time>2017-07-28T08:28:57Z</time>
      </trkpt>
      <trkpt lat="44.9658010" lon="6.8900300">
        <ele>1870.2</ele>
        <time>2017-07-28T08:28:58Z</time>
      </trkpt>
      <trkpt lat="44.9657800" lon="6.8900100">
        <ele>1876.8</ele>
        <time>2017-07-28T08:28:59Z</time>
      </trkpt>
      <trkpt lat="44.9657560" lon="6.8899930">
        <ele>1876.6</ele>
        <time>2017-07-28T08:29:00Z</time>
      </trkpt>
      <trkpt lat="44.9657300" lon="6.8899860">
        <ele>1876.6</ele>
        <time>2017-07-28T08:29:01Z</time>
      </trkpt>
      <trkpt lat="44.9656820" lon="6.8899630">
        <ele>1876.8</ele>
        <time>2017-07-28T08:29:03Z</time>
      </trkpt>
      <trkpt lat="44.9656370" lon="6.8899370">
        <ele>1877.0</ele>
        <time>2017-07-28T08:29:05Z</time>
      </trkpt>
      <trkpt lat="44.9655160" lon="6.8898780">
        <ele>1877.6</ele>
        <time>2017-07-28T08:29:11Z</time>
      </trkpt>
      <trkpt lat="44.9654980" lon="6.8898710">
        <ele>1877.8</ele>
        <time>2017-07-28T08:29:12Z</time>
      </trkpt>
      <trkpt lat="44.9654760" lon="6.8898640">
        <ele>1878.0</ele>
        <time>2017-07-28T08:29:13Z</time>
      </trkpt>
      <trkpt lat="44.9653670" lon="6.8898380">
        <ele>1879.0</ele>
        <time>2017-07-28T08:29:18Z</time>
      </trkpt>
      <trkpt lat="44.9652970" lon="6.8898370">
        <ele>1879.2</ele>
        <time>2017-07-28T08:29:21Z</time>
      </trkpt>
      <trkpt lat="44.9651880" lon="6.8898510">
        <ele>1880.0</ele>
        <time>2017-07-28T08:29:26Z</time>
      </trkpt>
      <trkpt lat="44.9650600" lon="6.8898370">
        <ele>1881.2</ele>
        <time>2017-07-28T08:29:32Z</time>
      </trkpt>
      <trkpt lat="44.9649810" lon="6.8898230">
        <ele>1882.4</ele>
        <time>2017-07-28T08:29:36Z</time>
      </trkpt>
      <trkpt lat="44.9649180" lon="6.8898190">
        <ele>1883.6</ele>
        <time>2017-07-28T08:29:39Z</time>
      </trkpt>
      <trkpt lat="44.9648730" lon="6.8898140">
        <ele>1884.6</ele>
        <time>2017-07-28T08:29:41Z</time>
      </trkpt>
      <trkpt lat="44.9647970" lon="6.8897990">
        <ele>1885.8</ele>
        <time>2017-07-28T08:29:45Z</time>
      </trkpt>
      <trkpt lat="44.9647780" lon="6.8897990">
        <ele>1886.0</ele>
        <time>2017-07-28T08:29:46Z</time>
      </trkpt>
      <trkpt lat="44.9647180" lon="6.8897930">
        <ele>1887.0</ele>
        <time>2017-07-28T08:29:49Z</time>
      </trkpt>
      <trkpt lat="44.9646320" lon="6.8897680">
        <ele>1887.8</ele>
        <time>2017-07-28T08:29:53Z</time>
      </trkpt>
      <trkpt lat="44.9645860" lon="6.8897620">
        <ele>1888.0</ele>
        <time>2017-07-28T08:29:55Z</time>
      </trkpt>
      <trkpt lat="44.9645020" lon="6.8897470">
        <ele>1889.0</ele>
        <time>2017-07-28T08:29:59Z</time>
      </trkpt>
      <trkpt lat="44.9644510" lon="6.8897440">
        <ele>1890.2</ele>
        <time>2017-07-28T08:30:01Z</time>
      </trkpt>
      <trkpt lat="44.9643920" lon="6.8897310">
        <ele>1891.4</ele>
        <time>2017-07-28T08:30:04Z</time>
      </trkpt>
      <trkpt lat="44.9643280" lon="6.8897120">
        <ele>1892.6</ele>
        <time>2017-07-28T08:30:07Z</time>
      </trkpt>
      <trkpt lat="44.9642180" lon="6.8896820">
        <ele>1893.6</ele>
        <time>2017-07-28T08:30:12Z</time>
      </trkpt>
      <trkpt lat="44.9641940" lon="6.8896740">
        <ele>1893.8</ele>
        <time>2017-07-28T08:30:13Z</time>
      </trkpt>
      <trkpt lat="44.9640910" lon="6.8896740">
        <ele>1894.4</ele>
        <time>2017-07-28T08:30:18Z</time>
      </trkpt>
      <trkpt lat="44.9640140" lon="6.8896710">
        <ele>1895.2</ele>
        <time>2017-07-28T08:30:21Z</time>
      </trkpt>
      <trkpt lat="44.9639670" lon="6.8896670">
        <ele>1896.0</ele>
        <time>2017-07-28T08:30:23Z</time>
      </trkpt>
      <trkpt lat="44.9639460" lon="6.8896620">
        <ele>1896.6</ele>
        <time>2017-07-28T08:30:24Z</time>
      </trkpt>
      <trkpt lat="44.9638250" lon="6.8896380">
        <ele>1897.6</ele>
        <time>2017-07-28T08:30:29Z</time>
      </trkpt>
      <trkpt lat="44.9637800" lon="6.8896300">
        <ele>1898.0</ele>
        <time>2017-07-28T08:30:31Z</time>
      </trkpt>
      <trkpt lat="44.9636620" lon="6.8895980">
        <ele>1898.6</ele>
        <time>2017-07-28T08:30:36Z</time>
      </trkpt>
      <trkpt lat="44.9636390" lon="6.8895880">
        <ele>1898.6</ele>
        <time>2017-07-28T08:30:37Z</time>
      </trkpt>
      <trkpt lat="44.9635380" lon="6.8895660">
        <ele>1899.6</ele>
        <time>2017-07-28T08:30:42Z</time>
      </trkpt>
      <trkpt lat="44.9634920" lon="6.8895710">
        <ele>1900.0</ele>
        <time>2017-07-28T08:30:44Z</time>
      </trkpt>
      <trkpt lat="44.9634230" lon="6.8895770">
        <ele>1900.6</ele>
        <time>2017-07-28T08:30:47Z</time>
      </trkpt>
      <trkpt lat="44.9633430" lon="6.8895700">
        <ele>1901.4</ele>
        <time>2017-07-28T08:30:51Z</time>
      </trkpt>
      <trkpt lat="44.9633040" lon="6.8895650">
        <ele>1901.8</ele>
        <time>2017-07-28T08:30:53Z</time>
      </trkpt>
      <trkpt lat="44.9632000" lon="6.8895360">
        <ele>1903.0</ele>
        <time>2017-07-28T08:30:58Z</time>
      </trkpt>
      <trkpt lat="44.9631820" lon="6.8895320">
        <ele>1903.2</ele>
        <time>2017-07-28T08:30:59Z</time>
      </trkpt>
      <trkpt lat="44.9630970" lon="6.8895120">
        <ele>1904.2</ele>
        <time>2017-07-28T08:31:03Z</time>
      </trkpt>
      <trkpt lat="44.9630600" lon="6.8894930">
        <ele>1904.8</ele>
        <time>2017-07-28T08:31:05Z</time>
      </trkpt>
      <trkpt lat="44.9629980" lon="6.8894780">
        <ele>1905.4</ele>
        <time>2017-07-28T08:31:08Z</time>
      </trkpt>
      <trkpt lat="44.9629260" lon="6.8894440">
        <ele>1906.6</ele>
        <time>2017-07-28T08:31:12Z</time>
      </trkpt>
      <trkpt lat="44.9628190" lon="6.8894420">
        <ele>1907.6</ele>
        <time>2017-07-28T08:31:17Z</time>
      </trkpt>
      <trkpt lat="44.9627980" lon="6.8894350">
        <ele>1907.8</ele>
        <time>2017-07-28T08:31:18Z</time>
      </trkpt>
      <trkpt lat="44.9626580" lon="6.8894080">
        <ele>1908.6</ele>
        <time>2017-07-28T08:31:24Z</time>
      </trkpt>
      <trkpt lat="44.9625430" lon="6.8893970">
        <ele>1909.6</ele>
        <time>2017-07-28T08:31:29Z</time>
      </trkpt>
      <trkpt lat="44.9625190" lon="6.8893940">
        <ele>1909.8</ele>
        <time>2017-07-28T08:31:30Z</time>
      </trkpt>
      <trkpt lat="44.9624700" lon="6.8893890">
        <ele>1910.2</ele>
        <time>2017-07-28T08:31:32Z</time>
      </trkpt>
      <trkpt lat="44.9624260" lon="6.8893800">
        <ele>1910.6</ele>
        <time>2017-07-28T08:31:34Z</time>
      </trkpt>
      <trkpt lat="44.9623270" lon="6.8893830">
        <ele>1911.8</ele>
        <time>2017-07-28T08:31:39Z</time>
      </trkpt>
      <trkpt lat="44.9621950" lon="6.8893660">
        <ele>1913.0</ele>
        <time>2017-07-28T08:31:45Z</time>
      </trkpt>
      <trkpt lat="44.9621450" lon="6.8893600">
        <ele>1913.4</ele>
        <time>2017-07-28T08:31:47Z</time>
      </trkpt>
      <trkpt lat="44.9620700" lon="6.8893430">
        <ele>1914.2</ele>
        <time>2017-07-28T08:31:50Z</time>
      </trkpt>
      <trkpt lat="44.9619860" lon="6.8893240">
        <ele>1914.8</ele>
        <time>2017-07-28T08:31:54Z</time>
      </trkpt>
      <trkpt lat="44.9619510" lon="6.8893120">
        <ele>1915.2</ele>
        <time>2017-07-28T08:31:56Z</time>
      </trkpt>
      <trkpt lat="44.9618540" lon="6.8892990">
        <ele>1916.2</ele>
        <time>2017-07-28T08:32:00Z</time>
      </trkpt>
      <trkpt lat="44.9618330" lon="6.8892860">
        <ele>1916.4</ele>
        <time>2017-07-28T08:32:01Z</time>
      </trkpt>
      <trkpt lat="44.9616940" lon="6.8892620">
        <ele>1917.4</ele>
        <time>2017-07-28T08:32:07Z</time>
      </trkpt>
      <trkpt lat="44.9615810" lon="6.8893000">
        <ele>1918.6</ele>
        <time>2017-07-28T08:32:12Z</time>
      </trkpt>
      <trkpt lat="44.9615450" lon="6.8893330">
        <ele>1919.0</ele>
        <time>2017-07-28T08:32:14Z</time>
      </trkpt>
      <trkpt lat="44.9614400" lon="6.8894080">
        <ele>1919.6</ele>
        <time>2017-07-28T08:32:18Z</time>
      </trkpt>
      <trkpt lat="44.9614150" lon="6.8894330">
        <ele>1920.0</ele>
        <time>2017-07-28T08:32:19Z</time>
      </trkpt>
      <trkpt lat="44.9613640" lon="6.8894760">
        <ele>1921.0</ele>
        <time>2017-07-28T08:32:21Z</time>
      </trkpt>
      <trkpt lat="44.9613040" lon="6.8895500">
        <ele>1922.2</ele>
        <time>2017-07-28T08:32:24Z</time>
      </trkpt>
      <trkpt lat="44.9612640" lon="6.8895960">
        <ele>1922.6</ele>
        <time>2017-07-28T08:32:26Z</time>
      </trkpt>
      <trkpt lat="44.9612260" lon="6.8896480">
        <ele>1923.2</ele>
        <time>2017-07-28T08:32:28Z</time>
      </trkpt>
      <trkpt lat="44.9610900" lon="6.8897830">
        <ele>1924.4</ele>
        <time>2017-07-28T08:32:34Z</time>
      </trkpt>
      <trkpt lat="44.9609890" lon="6.8898140">
        <ele>1925.4</ele>
        <time>2017-07-28T08:32:39Z</time>
      </trkpt>
      <trkpt lat="44.9609710" lon="6.8898190">
        <ele>1925.6</ele>
        <time>2017-07-28T08:32:40Z</time>
      </trkpt>
      <trkpt lat="44.9609170" lon="6.8898300">
        <ele>1926.8</ele>
        <time>2017-07-28T08:32:43Z</time>
      </trkpt>
      <trkpt lat="44.9608760" lon="6.8898290">
        <ele>1927.6</ele>
        <time>2017-07-28T08:32:45Z</time>
      </trkpt>
      <trkpt lat="44.9608560" lon="6.8898260">
        <ele>1928.2</ele>
        <time>2017-07-28T08:32:46Z</time>
      </trkpt>
      <trkpt lat="44.9608190" lon="6.8898180">
        <ele>1929.6</ele>
        <time>2017-07-28T08:32:48Z</time>
      </trkpt>
      <trkpt lat="44.9607830" lon="6.8898140">
        <ele>1930.8</ele>
        <time>2017-07-28T08:32:50Z</time>
      </trkpt>
      <trkpt lat="44.9607640" lon="6.8898090">
        <ele>1931.2</ele>
        <time>2017-07-28T08:32:51Z</time>
      </trkpt>
      <trkpt lat="44.9607210" lon="6.8898000">
        <ele>1932.0</ele>
        <time>2017-07-28T08:32:53Z</time>
      </trkpt>
      <trkpt lat="44.9606700" lon="6.8897570">
        <ele>1932.8</ele>
        <time>2017-07-28T08:32:56Z</time>
      </trkpt>
      <trkpt lat="44.9606490" lon="6.8897310">
        <ele>1933.2</ele>
        <time>2017-07-28T08:32:57Z</time>
      </trkpt>
      <trkpt lat="44.9606360" lon="6.8897040">
        <ele>1933.4</ele>
        <time>2017-07-28T08:32:58Z</time>
      </trkpt>
      <trkpt lat="44.9605720" lon="6.8895240">
        <ele>1934.2</ele>
        <time>2017-07-28T08:33:04Z</time>
      </trkpt>
      <trkpt lat="44.9605590" lon="6.8894920">
        <ele>1934.2</ele>
        <time>2017-07-28T08:33:05Z</time>
      </trkpt>
      <trkpt lat="44.9605230" lon="6.8894440">
        <ele>1934.4</ele>
        <time>2017-07-28T08:33:07Z</time>
      </trkpt>
      <trkpt lat="44.9604760" lon="6.8894180">
        <ele>1934.6</ele>
        <time>2017-07-28T08:33:10Z</time>
      </trkpt>
      <trkpt lat="44.9604290" lon="6.8894090">
        <ele>1935.4</ele>
        <time>2017-07-28T08:33:13Z</time>
      </trkpt>
      <trkpt lat="44.9603910" lon="6.8893890">
        <ele>1936.2</ele>
        <time>2017-07-28T08:33:16Z</time>
      </trkpt>
      <trkpt lat="44.9603750" lon="6.8893900">
        <ele>1936.8</ele>
        <time>2017-07-28T08:33:17Z</time>
      </trkpt>
      <trkpt lat="44.9603110" lon="6.8893830">
        <ele>1937.8</ele>
        <time>2017-07-28T08:33:21Z</time>
      </trkpt>
      <trkpt lat="44.9603000" lon="6.8893860">
        <ele>1938.0</ele>
        <time>2017-07-28T08:33:22Z</time>
      </trkpt>
      <trkpt lat="44.9602360" lon="6.8894050">
        <ele>1939.0</ele>
        <time>2017-07-28T08:33:27Z</time>
      </trkpt>
      <trkpt lat="44.9602190" lon="6.8894110">
        <ele>1939.2</ele>
        <time>2017-07-28T08:33:28Z</time>
      </trkpt>
      <trkpt lat="44.9601490" lon="6.8894300">
        <ele>1940.2</ele>
        <time>2017-07-28T08:33:34Z</time>
      </trkpt>
      <trkpt lat="44.9601390" lon="6.8894270">
        <ele>1940.6</ele>
        <time>2017-07-28T08:33:35Z</time>
      </trkpt>
      <trkpt lat="44.9598100" lon="6.8891490">
        <ele>1948.8</ele>
        <time>2017-07-28T08:34:29Z</time>
      </trkpt>
      <trkpt lat="44.9598220" lon="6.8891310">
        <ele>1949.2</ele>
        <time>2017-07-28T08:34:30Z</time>
      </trkpt>
      <trkpt lat="44.9598440" lon="6.8890820">
        <ele>1949.8</ele>
        <time>2017-07-28T08:34:32Z</time>
      </trkpt>
      <trkpt lat="44.9598740" lon="6.8890020">
        <ele>1950.8</ele>
        <time>2017-07-28T08:34:35Z</time>
      </trkpt>
      <trkpt lat="44.9598880" lon="6.8889810">
        <ele>1951.2</ele>
        <time>2017-07-28T08:34:36Z</time>
      </trkpt>
      <trkpt lat="44.9599130" lon="6.8889400">
        <ele>1952.0</ele>
        <time>2017-07-28T08:34:38Z</time>
      </trkpt>
      <trkpt lat="44.9599520" lon="6.8888700">
        <ele>1953.2</ele>
        <time>2017-07-28T08:34:41Z</time>
      </trkpt>
      <trkpt lat="44.9599860" lon="6.8888280">
        <ele>1953.8</ele>
        <time>2017-07-28T08:34:43Z</time>
      </trkpt>
      <trkpt lat="44.9600190" lon="6.8887920">
        <ele>1954.6</ele>
        <time>2017-07-28T08:34:45Z</time>
      </trkpt>
      <trkpt lat="44.9600760" lon="6.8887410">
        <ele>1956.2</ele>
        <time>2017-07-28T08:34:48Z</time>
      </trkpt>
      <trkpt lat="44.9601010" lon="6.8886890">
        <ele>1956.6</ele>
        <time>2017-07-28T08:34:50Z</time>
      </trkpt>
      <trkpt lat="44.9601270" lon="6.8886360">
        <ele>1957.4</ele>
        <time>2017-07-28T08:34:52Z</time>
      </trkpt>
      <trkpt lat="44.9601780" lon="6.8885650">
        <ele>1958.6</ele>
        <time>2017-07-28T08:34:55Z</time>
      </trkpt>
      <trkpt lat="44.9601910" lon="6.8885340">
        <ele>1959.0</ele>
        <time>2017-07-28T08:34:56Z</time>
      </trkpt>
      <trkpt lat="44.9602020" lon="6.8884810">
        <ele>1959.8</ele>
        <time>2017-07-28T08:34:58Z</time>
      </trkpt>
      <trkpt lat="44.9602120" lon="6.8884210">
        <ele>1961.2</ele>
        <time>2017-07-28T08:35:01Z</time>
      </trkpt>
      <trkpt lat="44.9602400" lon="6.8883430">
        <ele>1962.2</ele>
        <time>2017-07-28T08:35:04Z</time>
      </trkpt>
      <trkpt lat="44.9602810" lon="6.8882710">
        <ele>1963.4</ele>
        <time>2017-07-28T08:35:07Z</time>
      </trkpt>
      <trkpt lat="44.9602940" lon="6.8882510">
        <ele>1963.8</ele>
        <time>2017-07-28T08:35:08Z</time>
      </trkpt>
      <trkpt lat="44.9603160" lon="6.8881920">
        <ele>1964.8</ele>
        <time>2017-07-28T08:35:11Z</time>
      </trkpt>
      <trkpt lat="44.9603300" lon="6.8881460">
        <ele>1965.8</ele>
        <time>2017-07-28T08:35:13Z</time>
      </trkpt>
      <trkpt lat="44.9603500" lon="6.8881000">
        <ele>1966.6</ele>
        <time>2017-07-28T08:35:15Z</time>
      </trkpt>
      <trkpt lat="44.9603580" lon="6.8880740">
        <ele>1967.0</ele>
        <time>2017-07-28T08:35:16Z</time>
      </trkpt>
      <trkpt lat="44.9603720" lon="6.8879720">
        <ele>1968.0</ele>
        <time>2017-07-28T08:35:20Z</time>
      </trkpt>
      <trkpt lat="44.9603950" lon="6.8879000">
        <ele>1969.0</ele>
        <time>2017-07-28T08:35:23Z</time>
      </trkpt>
      <trkpt lat="44.9604010" lon="6.8878730">
        <ele>1969.2</ele>
        <time>2017-07-28T08:35:24Z</time>
      </trkpt>
      <trkpt lat="44.9604200" lon="6.8877820">
        <ele>1970.2</ele>
        <time>2017-07-28T08:35:28Z</time>
      </trkpt>
      <trkpt lat="44.9604370" lon="6.8877340">
        <ele>1970.8</ele>
        <time>2017-07-28T08:35:30Z</time>
      </trkpt>
      <trkpt lat="44.9604600" lon="6.8876980">
        <ele>1971.4</ele>
        <time>2017-07-28T08:35:32Z</time>
      </trkpt>
      <trkpt lat="44.9604960" lon="6.8876190">
        <ele>1972.4</ele>
        <time>2017-07-28T08:35:36Z</time>
      </trkpt>
      <trkpt lat="44.9605770" lon="6.8874910">
        <ele>1973.6</ele>
        <time>2017-07-28T08:35:43Z</time>
      </trkpt>
      <trkpt lat="44.9606020" lon="6.8873700">
        <ele>1974.4</ele>
        <time>2017-07-28T08:35:49Z</time>
      </trkpt>
      <trkpt lat="44.9606030" lon="6.8873480">
        <ele>1974.6</ele>
        <time>2017-07-28T08:35:50Z</time>
      </trkpt>
      <trkpt lat="44.9606070" lon="6.8873280">
        <ele>1974.6</ele>
        <time>2017-07-28T08:35:51Z</time>
      </trkpt>
      <trkpt lat="44.9606090" lon="6.8872140">
        <ele>1975.6</ele>
        <time>2017-07-28T08:35:56Z</time>
      </trkpt>
      <trkpt lat="44.9605810" lon="6.8871240">
        <ele>1976.6</ele>
        <time>2017-07-28T08:36:00Z</time>
      </trkpt>
      <trkpt lat="44.9605690" lon="6.8870710">
        <ele>1977.2</ele>
        <time>2017-07-28T08:36:02Z</time>
      </trkpt>
      <trkpt lat="44.9605650" lon="6.8870150">
        <ele>1977.6</ele>
        <time>2017-07-28T08:36:04Z</time>
      </trkpt>
      <trkpt lat="44.9605470" lon="6.8868930">
        <ele>1978.8</ele>
        <time>2017-07-28T08:36:09Z</time>
      </trkpt>
      <trkpt lat="44.9605750" lon="6.8867890">
        <ele>1980.0</ele>
        <time>2017-07-28T08:36:13Z</time>
      </trkpt>
      <trkpt lat="44.9606090" lon="6.8867180">
        <ele>1981.0</ele>
        <time>2017-07-28T08:36:16Z</time>
      </trkpt>
      <trkpt lat="44.9606600" lon="6.8866390">
        <ele>1982.2</ele>
        <time>2017-07-28T08:36:20Z</time>
      </trkpt>
      <trkpt lat="44.9607250" lon="6.8865810">
        <ele>1982.2</ele>
        <time>2017-07-28T08:36:24Z</time>
      </trkpt>
      <trkpt lat="44.9607860" lon="6.8864750">
        <ele>1983.4</ele>
        <time>2017-07-28T08:36:29Z</time>
      </trkpt>
      <trkpt lat="44.9608250" lon="6.8864180">
        <ele>1983.8</ele>
        <time>2017-07-28T08:36:32Z</time>
      </trkpt>
      <trkpt lat="44.9608750" lon="6.8863360">
        <ele>1984.4</ele>
        <time>2017-07-28T08:36:36Z</time>
      </trkpt>
      <trkpt lat="44.9609040" lon="6.8862920">
        <ele>1985.0</ele>
        <time>2017-07-28T08:36:38Z</time>
      </trkpt>
      <trkpt lat="44.9609280" lon="6.8862230">
        <ele>1985.6</ele>
        <time>2017-07-28T08:36:41Z</time>
      </trkpt>
      <trkpt lat="44.9609780" lon="6.8861590">
        <ele>1985.8</ele>
        <time>2017-07-28T08:36:45Z</time>
      </trkpt>
      <trkpt lat="44.9610040" lon="6.8861020">
        <ele>1986.6</ele>
        <time>2017-07-28T08:36:48Z</time>
      </trkpt>
      <trkpt lat="44.9610350" lon="6.8860360">
        <ele>1987.2</ele>
        <time>2017-07-28T08:36:51Z</time>
      </trkpt>
      <trkpt lat="44.9610580" lon="6.8859970">
        <ele>1987.8</ele>
        <time>2017-07-28T08:36:53Z</time>
      </trkpt>
      <trkpt lat="44.9611220" lon="6.8859180">
        <ele>1988.4</ele>
        <time>2017-07-28T08:36:58Z</time>
      </trkpt>
      <trkpt lat="44.9611390" lon="6.8858780">
        <ele>1988.8</ele>
        <time>2017-07-28T08:37:00Z</time>
      </trkpt>
      <trkpt lat="44.9611630" lon="6.8857860">
        <ele>1990.0</ele>
        <time>2017-07-28T08:37:04Z</time>
      </trkpt>
      <trkpt lat="44.9611600" lon="6.8857640">
        <ele>1990.2</ele>
        <time>2017-07-28T08:37:05Z</time>
      </trkpt>
      <trkpt lat="44.9611310" lon="6.8856080">
        <ele>1990.8</ele>
        <time>2017-07-28T08:37:13Z</time>
      </trkpt>
      <trkpt lat="44.9611100" lon="6.8855980">
        <ele>1990.8</ele>
        <time>2017-07-28T08:37:14Z</time>
      </trkpt>
      <trkpt lat="44.9610470" lon="6.8855650">
        <ele>1990.6</ele>
        <time>2017-07-28T08:37:18Z</time>
      </trkpt>
      <trkpt lat="44.9609890" lon="6.8855520">
        <ele>1991.2</ele>
        <time>2017-07-28T08:37:22Z</time>
      </trkpt>
      <trkpt lat="44.9609400" lon="6.8855380">
        <ele>1991.4</ele>
        <time>2017-07-28T08:37:25Z</time>
      </trkpt>
      <trkpt lat="44.9608770" lon="6.8855430">
        <ele>1992.2</ele>
        <time>2017-07-28T08:37:29Z</time>
      </trkpt>
      <trkpt lat="44.9608520" lon="6.8855470">
        <ele>1992.8</ele>
        <time>2017-07-28T08:37:31Z</time>
      </trkpt>
      <trkpt lat="44.9608250" lon="6.8855320">
        <ele>1993.2</ele>
        <time>2017-07-28T08:37:33Z</time>
      </trkpt>
      <trkpt lat="44.9607880" lon="6.8855220">
        <ele>1994.2</ele>
        <time>2017-07-28T08:37:36Z</time>
      </trkpt>
      <trkpt lat="44.9607750" lon="6.8855140">
        <ele>1994.4</ele>
        <time>2017-07-28T08:37:37Z</time>
      </trkpt>
      <trkpt lat="44.9607280" lon="6.8855030">
        <ele>1995.4</ele>
        <time>2017-07-28T08:37:41Z</time>
      </trkpt>
      <trkpt lat="44.9606930" lon="6.8854830">
        <ele>1996.0</ele>
        <time>2017-07-28T08:37:44Z</time>
      </trkpt>
      <trkpt lat="44.9606660" lon="6.8854680">
        <ele>1996.4</ele>
        <time>2017-07-28T08:37:46Z</time>
      </trkpt>
      <trkpt lat="44.9606230" lon="6.8854220">
        <ele>1997.4</ele>
        <time>2017-07-28T08:37:50Z</time>
      </trkpt>
      <trkpt lat="44.9606080" lon="6.8853920">
        <ele>1997.8</ele>
        <time>2017-07-28T08:37:52Z</time>
      </trkpt>
      <trkpt lat="44.9605800" lon="6.8853450">
        <ele>1998.4</ele>
        <time>2017-07-28T08:37:55Z</time>
      </trkpt>
      <trkpt lat="44.9605780" lon="6.8853280">
        <ele>1998.8</ele>
        <time>2017-07-28T08:37:56Z</time>
      </trkpt>
      <trkpt lat="44.9605630" lon="6.8852750">
        <ele>1999.4</ele>
        <time>2017-07-28T08:37:59Z</time>
      </trkpt>
      <trkpt lat="44.9605560" lon="6.8852590">
        <ele>1999.6</ele>
        <time>2017-07-28T08:38:00Z</time>
      </trkpt>
      <trkpt lat="44.9605490" lon="6.8852450">
        <ele>2000.0</ele>
        <time>2017-07-28T08:38:01Z</time>
      </trkpt>
      <trkpt lat="44.9605080" lon="6.8851800">
        <ele>2000.8</ele>
        <time>2017-07-28T08:38:06Z</time>
      </trkpt>
      <trkpt lat="44.9604950" lon="6.8851670">
        <ele>2001.2</ele>
        <time>2017-07-28T08:38:07Z</time>
      </trkpt>
      <trkpt lat="44.9604610" lon="6.8851160">
        <ele>2002.2</ele>
        <time>2017-07-28T08:38:10Z</time>
      </trkpt>
      <trkpt lat="44.9604080" lon="6.8850620">
        <ele>2003.2</ele>
        <time>2017-07-28T08:38:15Z</time>
      </trkpt>
      <trkpt lat="44.9603720" lon="6.8850440">
        <ele>2004.4</ele>
        <time>2017-07-28T08:38:18Z</time>
      </trkpt>
      <trkpt lat="44.9603460" lon="6.8850340">
        <ele>2005.6</ele>
        <time>2017-07-28T08:38:20Z</time>
      </trkpt>
      <trkpt lat="44.9603220" lon="6.8850260">
        <ele>2005.8</ele>
        <time>2017-07-28T08:38:22Z</time>
      </trkpt>
      <trkpt lat="44.9603010" lon="6.8850150">
        <ele>2007.0</ele>
        <time>2017-07-28T08:38:24Z</time>
      </trkpt>
      <trkpt lat="44.9602460" lon="6.8850260">
        <ele>2008.4</ele>
        <time>2017-07-28T08:38:29Z</time>
      </trkpt>
      <trkpt lat="44.9602110" lon="6.8850400">
        <ele>2009.8</ele>
        <time>2017-07-28T08:38:32Z</time>
      </trkpt>
      <trkpt lat="44.9601820" lon="6.8850780">
        <ele>2011.2</ele>
        <time>2017-07-28T08:38:35Z</time>
      </trkpt>
      <trkpt lat="44.9601760" lon="6.8851160">
        <ele>2012.0</ele>
        <time>2017-07-28T08:38:37Z</time>
      </trkpt>
      <trkpt lat="44.9601730" lon="6.8851340">
        <ele>2012.6</ele>
        <time>2017-07-28T08:38:38Z</time>
      </trkpt>
      <trkpt lat="44.9601790" lon="6.8851810">
        <ele>2013.6</ele>
        <time>2017-07-28T08:38:41Z</time>
      </trkpt>
      <trkpt lat="44.9601810" lon="6.8852480">
        <ele>2014.0</ele>
        <time>2017-07-28T08:38:44Z</time>
      </trkpt>
      <trkpt lat="44.9601090" lon="6.8854460">
        <ele>2014.6</ele>
        <time>2017-07-28T08:38:51Z</time>
      </trkpt>
      <trkpt lat="44.9600330" lon="6.8856320">
        <ele>2015.8</ele>
        <time>2017-07-28T08:38:58Z</time>
      </trkpt>
      <trkpt lat="44.9599910" lon="6.8856350">
        <ele>2016.6</ele>
        <time>2017-07-28T08:39:01Z</time>
      </trkpt>
      <trkpt lat="44.9599520" lon="6.8856060">
        <ele>2017.0</ele>
        <time>2017-07-28T08:39:03Z</time>
      </trkpt>
      <trkpt lat="44.9599180" lon="6.8855160">
        <ele>2018.0</ele>
        <time>2017-07-28T08:39:07Z</time>
      </trkpt>
      <trkpt lat="44.9599120" lon="6.8854920">
        <ele>2018.4</ele>
        <time>2017-07-28T08:39:08Z</time>
      </trkpt>
      <trkpt lat="44.9599070" lon="6.8854130">
        <ele>2019.4</ele>
        <time>2017-07-28T08:39:11Z</time>
      </trkpt>
      <trkpt lat="44.9598710" lon="6.8853210">
        <ele>2020.0</ele>
        <time>2017-07-28T08:39:15Z</time>
      </trkpt>
      <trkpt lat="44.9598590" lon="6.8852720">
        <ele>2020.6</ele>
        <time>2017-07-28T08:39:17Z</time>
      </trkpt>
      <trkpt lat="44.9598290" lon="6.8851810">
        <ele>2021.0</ele>
        <time>2017-07-28T08:39:21Z</time>
      </trkpt>
      <trkpt lat="44.9597880" lon="6.8850690">
        <ele>2021.8</ele>
        <time>2017-07-28T08:39:26Z</time>
      </trkpt>
      <trkpt lat="44.9597640" lon="6.8850300">
        <ele>2022.2</ele>
        <time>2017-07-28T08:39:28Z</time>
      </trkpt>
      <trkpt lat="44.9597090" lon="6.8849330">
        <ele>2022.8</ele>
        <time>2017-07-28T08:39:32Z</time>
      </trkpt>
      <trkpt lat="44.9596580" lon="6.8848560">
        <ele>2023.4</ele>
        <time>2017-07-28T08:39:35Z</time>
      </trkpt>
      <trkpt lat="44.9596350" lon="6.8848010">
        <ele>2023.8</ele>
        <time>2017-07-28T08:39:37Z</time>
      </trkpt>
      <trkpt lat="44.9595880" lon="6.8847590">
        <ele>2024.0</ele>
        <time>2017-07-28T08:39:40Z</time>
      </trkpt>
      <trkpt lat="44.9595800" lon="6.8847680">
        <ele>2024.2</ele>
        <time>2017-07-28T08:39:41Z</time>
      </trkpt>
      <trkpt lat="44.9595740" lon="6.8848250">
        <ele>2024.8</ele>
        <time>2017-07-28T08:39:43Z</time>
      </trkpt>
      <trkpt lat="44.9595740" lon="6.8848570">
        <ele>2025.0</ele>
        <time>2017-07-28T08:39:44Z</time>
      </trkpt>
      <trkpt lat="44.9595860" lon="6.8849990">
        <ele>2025.6</ele>
        <time>2017-07-28T08:39:48Z</time>
      </trkpt>
      <trkpt lat="44.9595850" lon="6.8850430">
        <ele>2025.8</ele>
        <time>2017-07-28T08:39:49Z</time>
      </trkpt>
      <trkpt lat="44.9595890" lon="6.8852260">
        <ele>2026.2</ele>
        <time>2017-07-28T08:39:53Z</time>
      </trkpt>
      <trkpt lat="44.9595840" lon="6.8852700">
        <ele>2026.2</ele>
        <time>2017-07-28T08:39:54Z</time>
      </trkpt>
      <trkpt lat="44.9594950" lon="6.8855440">
        <ele>2027.6</ele>
        <time>2017-07-28T08:40:00Z</time>
      </trkpt>
      <trkpt lat="44.9594010" lon="6.8857130">
        <ele>2028.6</ele>
        <time>2017-07-28T08:40:04Z</time>
      </trkpt>
      <trkpt lat="44.9593370" lon="6.8857910">
        <ele>2029.0</ele>
        <time>2017-07-28T08:40:06Z</time>
      </trkpt>
      <trkpt lat="44.9593050" lon="6.8858300">
        <ele>2029.4</ele>
        <time>2017-07-28T08:40:07Z</time>
      </trkpt>
      <trkpt lat="44.9592450" lon="6.8859120">
        <ele>2030.0</ele>
        <time>2017-07-28T08:40:09Z</time>
      </trkpt>
      <trkpt lat="44.9591310" lon="6.8860900">
        <ele>2031.0</ele>
        <time>2017-07-28T08:40:13Z</time>
      </trkpt>
      <trkpt lat="44.9590800" lon="6.8861650">
        <ele>2031.6</ele>
        <time>2017-07-28T08:40:15Z</time>
      </trkpt>
      <trkpt lat="44.9590270" lon="6.8862430">
        <ele>2032.2</ele>
        <time>2017-07-28T08:40:17Z</time>
      </trkpt>
      <trkpt lat="44.9589300" lon="6.8864110">
        <ele>2033.4</ele>
        <time>2017-07-28T08:40:21Z</time>
      </trkpt>
      <trkpt lat="44.9589040" lon="6.8864550">
        <ele>2033.4</ele>
        <time>2017-07-28T08:40:22Z</time>
      </trkpt>
      <trkpt lat="44.9587800" lon="6.8866620">
        <ele>2034.2</ele>
        <time>2017-07-28T08:40:28Z</time>
      </trkpt>
      <trkpt lat="44.9587360" lon="6.8867220">
        <ele>2034.6</ele>
        <time>2017-07-28T08:40:30Z</time>
      </trkpt>
      <trkpt lat="44.9586260" lon="6.8868590">
        <ele>2035.0</ele>
        <time>2017-07-28T08:40:35Z</time>
      </trkpt>
      <trkpt lat="44.9584780" lon="6.8869670">
        <ele>2035.6</ele>
        <time>2017-07-28T08:40:41Z</time>
      </trkpt>
      <trkpt lat="44.9584570" lon="6.8869950">
        <ele>2035.8</ele>
        <time>2017-07-28T08:40:42Z</time>
      </trkpt>
      <trkpt lat="44.9583310" lon="6.8871180">
        <ele>2037.0</ele>
        <time>2017-07-28T08:40:48Z</time>
      </trkpt>
      <trkpt lat="44.9583120" lon="6.8871350">
        <ele>2037.2</ele>
        <time>2017-07-28T08:40:49Z</time>
      </trkpt>
      <trkpt lat="44.9582300" lon="6.8872710">
        <ele>2038.2</ele>
        <time>2017-07-28T08:40:54Z</time>
      </trkpt>
      <trkpt lat="44.9582040" lon="6.8873180">
        <ele>2038.6</ele>
        <time>2017-07-28T08:40:56Z</time>
      </trkpt>
      <trkpt lat="44.9581860" lon="6.8873390">
        <ele>2039.0</ele>
        <time>2017-07-28T08:40:57Z</time>
      </trkpt>
      <trkpt lat="44.9581680" lon="6.8873620">
        <ele>2039.2</ele>
        <time>2017-07-28T08:40:58Z</time>
      </trkpt>
      <trkpt lat="44.9580610" lon="6.8875340">
        <ele>2040.4</ele>
        <time>2017-07-28T08:41:04Z</time>
      </trkpt>
      <trkpt lat="44.9579320" lon="6.8877860">
        <ele>2041.8</ele>
        <time>2017-07-28T08:41:12Z</time>
      </trkpt>
      <trkpt lat="44.9578640" lon="6.8879270">
        <ele>2042.8</ele>
        <time>2017-07-28T08:41:17Z</time>
      </trkpt>
      <trkpt lat="44.9578460" lon="6.8879540">
        <ele>2043.0</ele>
        <time>2017-07-28T08:41:18Z</time>
      </trkpt>
      <trkpt lat="44.9577660" lon="6.8880660">
        <ele>2044.0</ele>
        <time>2017-07-28T08:41:22Z</time>
      </trkpt>
      <trkpt lat="44.9576830" lon="6.8881370">
        <ele>2044.8</ele>
        <time>2017-07-28T08:41:27Z</time>
      </trkpt>
      <trkpt lat="44.9576690" lon="6.8881400">
        <ele>2045.2</ele>
        <time>2017-07-28T08:41:28Z</time>
      </trkpt>
      <trkpt lat="44.9576230" lon="6.8881410">
        <ele>2046.4</ele>
        <time>2017-07-28T08:41:31Z</time>
      </trkpt>
      <trkpt lat="44.9575870" lon="6.8881400">
        <ele>2047.4</ele>
        <time>2017-07-28T08:41:33Z</time>
      </trkpt>
      <trkpt lat="44.9575520" lon="6.8881350">
        <ele>2048.6</ele>
        <time>2017-07-28T08:41:35Z</time>
      </trkpt>
      <trkpt lat="44.9575380" lon="6.8881290">
        <ele>2049.8</ele>
        <time>2017-07-28T08:41:36Z</time>
      </trkpt>
      <trkpt lat="44.9575190" lon="6.8881010">
        <ele>2051.2</ele>
        <time>2017-07-28T08:41:38Z</time>
      </trkpt>
      <trkpt lat="44.9575090" lon="6.8880720">
        <ele>2052.0</ele>
        <time>2017-07-28T08:41:40Z</time>
      </trkpt>
      <trkpt lat="44.9575000" lon="6.8880590">
        <ele>2052.2</ele>
        <time>2017-07-28T08:41:41Z</time>
      </trkpt>
      <trkpt lat="44.9574300" lon="6.8880200">
        <ele>2053.2</ele>
        <time>2017-07-28T08:41:46Z</time>
      </trkpt>
      <trkpt lat="44.9574160" lon="6.8880150">
        <ele>2053.4</ele>
        <time>2017-07-28T08:41:47Z</time>
      </trkpt>
      <trkpt lat="44.9573690" lon="6.8879550">
        <ele>2054.4</ele>
        <time>2017-07-28T08:41:51Z</time>
      </trkpt>
      <trkpt lat="44.9573560" lon="6.8879380">
        <ele>2054.6</ele>
        <time>2017-07-28T08:41:52Z</time>
      </trkpt>
      <trkpt lat="44.9572930" lon="6.8878650">
        <ele>2055.8</ele>
        <time>2017-07-28T08:41:56Z</time>
      </trkpt>
      <trkpt lat="44.9572430" lon="6.8877890">
        <ele>2057.2</ele>
        <time>2017-07-28T08:42:00Z</time>
      </trkpt>
      <trkpt lat="44.9572280" lon="6.8877720">
        <ele>2057.6</ele>
        <time>2017-07-28T08:42:01Z</time>
      </trkpt>
      <trkpt lat="44.9572000" lon="6.8877380">
        <ele>2058.2</ele>
        <time>2017-07-28T08:42:03Z</time>
      </trkpt>
      <trkpt lat="44.9571490" lon="6.8876880">
        <ele>2059.2</ele>
        <time>2017-07-28T08:42:06Z</time>
      </trkpt>
      <trkpt lat="44.9570970" lon="6.8876390">
        <ele>2060.0</ele>
        <time>2017-07-28T08:42:09Z</time>
      </trkpt>
      <trkpt lat="44.9570610" lon="6.8876030">
        <ele>2060.4</ele>
        <time>2017-07-28T08:42:11Z</time>
      </trkpt>
      <trkpt lat="44.9570080" lon="6.8875490">
        <ele>2061.4</ele>
        <time>2017-07-28T08:42:14Z</time>
      </trkpt>
      <trkpt lat="44.9569400" lon="6.8875040">
        <ele>2062.6</ele>
        <time>2017-07-28T08:42:17Z</time>
      </trkpt>
      <trkpt lat="44.9568830" lon="6.8874610">
        <ele>2063.6</ele>
        <time>2017-07-28T08:42:20Z</time>
      </trkpt>
      <trkpt lat="44.9567990" lon="6.8874030">
        <ele>2065.0</ele>
        <time>2017-07-28T08:42:24Z</time>
      </trkpt>
      <trkpt lat="44.9566360" lon="6.8873180">
        <ele>2065.2</ele>
        <time>2017-07-28T08:42:31Z</time>
      </trkpt>
      <trkpt lat="44.9564960" lon="6.8872180">
        <ele>2065.0</ele>
        <time>2017-07-28T08:42:36Z</time>
      </trkpt>
      <trkpt lat="44.9564370" lon="6.8871420">
        <ele>2064.8</ele>
        <time>2017-07-28T08:42:38Z</time>
      </trkpt>
      <trkpt lat="44.9563820" lon="6.8870240">
        <ele>2065.2</ele>
        <time>2017-07-28T08:42:41Z</time>
      </trkpt>
      <trkpt lat="44.9563510" lon="6.8869770">
        <ele>2065.4</ele>
        <time>2017-07-28T08:42:42Z</time>
      </trkpt>
      <trkpt lat="44.9562470" lon="6.8868290">
        <ele>2066.0</ele>
        <time>2017-07-28T08:42:45Z</time>
      </trkpt>
      <trkpt lat="44.9562010" lon="6.8867780">
        <ele>2066.2</ele>
        <time>2017-07-28T08:42:46Z</time>
      </trkpt>
      <trkpt lat="44.9560710" lon="6.8866440">
        <ele>2065.6</ele>
        <time>2017-07-28T08:42:49Z</time>
      </trkpt>
      <trkpt lat="44.9560320" lon="6.8865950">
        <ele>2065.8</ele>
        <time>2017-07-28T08:42:50Z</time>
      </trkpt>
      <trkpt lat="44.9559470" lon="6.8864990">
        <ele>2065.4</ele>
        <time>2017-07-28T08:42:52Z</time>
      </trkpt>
      <trkpt lat="44.9558240" lon="6.8863840">
        <ele>2065.4</ele>
        <time>2017-07-28T08:42:55Z</time>
      </trkpt>
      <trkpt lat="44.9555840" lon="6.8861780">
        <ele>2065.0</ele>
        <time>2017-07-28T08:43:00Z</time>
      </trkpt>
      <trkpt lat="44.9553800" lon="6.8859450">
        <ele>2064.4</ele>
        <time>2017-07-28T08:43:04Z</time>
      </trkpt>
      <trkpt lat="44.9553390" lon="6.8858910">
        <ele>2064.4</ele>
        <time>2017-07-28T08:43:05Z</time>
      </trkpt>
      <trkpt lat="44.9552140" lon="6.8857300">
        <ele>2064.0</ele>
        <time>2017-07-28T08:43:08Z</time>
      </trkpt>
      <trkpt lat="44.9550740" lon="6.8855500">
        <ele>2063.4</ele>
        <time>2017-07-28T08:43:11Z</time>
      </trkpt>
      <trkpt lat="44.9550280" lon="6.8854820">
        <ele>2063.2</ele>
        <time>2017-07-28T08:43:12Z</time>
      </trkpt>
      <trkpt lat="44.9548810" lon="6.8852520">
        <ele>2062.6</ele>
        <time>2017-07-28T08:43:15Z</time>
      </trkpt>
      <trkpt lat="44.9548500" lon="6.8851650">
        <ele>2062.2</ele>
        <time>2017-07-28T08:43:16Z</time>
      </trkpt>
      <trkpt lat="44.9547990" lon="6.8849510">
        <ele>2062.6</ele>
        <time>2017-07-28T08:43:19Z</time>
      </trkpt>
      <trkpt lat="44.9547880" lon="6.8848980">
        <ele>2062.6</ele>
        <time>2017-07-28T08:43:20Z</time>
      </trkpt>
      <trkpt lat="44.9547430" lon="6.8847200">
        <ele>2063.0</ele>
        <time>2017-07-28T08:43:23Z</time>
      </trkpt>
      <trkpt lat="44.9547190" lon="6.8846630">
        <ele>2063.0</ele>
        <time>2017-07-28T08:43:24Z</time>
      </trkpt>
      <trkpt lat="44.9545330" lon="6.8843090">
        <ele>2063.0</ele>
        <time>2017-07-28T08:43:30Z</time>
      </trkpt>
      <trkpt lat="44.9544640" lon="6.8841320">
        <ele>2063.6</ele>
        <time>2017-07-28T08:43:33Z</time>
      </trkpt>
      <trkpt lat="44.9544320" lon="6.8840090">
        <ele>2063.8</ele>
        <time>2017-07-28T08:43:35Z</time>
      </trkpt>
      <trkpt lat="44.9543810" lon="6.8838500">
        <ele>2063.8</ele>
        <time>2017-07-28T08:43:38Z</time>
      </trkpt>
      <trkpt lat="44.9543480" lon="6.8837480">
        <ele>2064.0</ele>
        <time>2017-07-28T08:43:40Z</time>
      </trkpt>
      <trkpt lat="44.9543150" lon="6.8836430">
        <ele>2064.2</ele>
        <time>2017-07-28T08:43:42Z</time>
      </trkpt>
      <trkpt lat="44.9542320" lon="6.8834200">
        <ele>2064.4</ele>
        <time>2017-07-28T08:43:46Z</time>
      </trkpt>
      <trkpt lat="44.9540690" lon="6.8830540">
        <ele>2064.0</ele>
        <time>2017-07-28T08:43:52Z</time>
      </trkpt>
      <trkpt lat="44.9539110" lon="6.8826640">
        <ele>2064.2</ele>
        <time>2017-07-28T08:43:58Z</time>
      </trkpt>
      <trkpt lat="44.9538560" lon="6.8825260">
        <ele>2064.2</ele>
        <time>2017-07-28T08:44:00Z</time>
      </trkpt>
      <trkpt lat="44.9537820" lon="6.8822850">
        <ele>2064.4</ele>
        <time>2017-07-28T08:44:03Z</time>
      </trkpt>
      <trkpt lat="44.9535620" lon="6.8817150">
        <ele>2063.4</ele>
        <time>2017-07-28T08:44:10Z</time>
      </trkpt>
      <trkpt lat="44.9533860" lon="6.8814340">
        <ele>2062.4</ele>
        <time>2017-07-28T08:44:14Z</time>
      </trkpt>
      <trkpt lat="44.9533460" lon="6.8813650">
        <ele>2062.6</ele>
        <time>2017-07-28T08:44:15Z</time>
      </trkpt>
      <trkpt lat="44.9530010" lon="6.8807860">
        <ele>2062.2</ele>
        <time>2017-07-28T08:44:23Z</time>
      </trkpt>
      <trkpt lat="44.9528690" lon="6.8805510">
        <ele>2061.2</ele>
        <time>2017-07-28T08:44:26Z</time>
      </trkpt>
      <trkpt lat="44.9528280" lon="6.8804860">
        <ele>2061.2</ele>
        <time>2017-07-28T08:44:27Z</time>
      </trkpt>
      <trkpt lat="44.9526400" lon="6.8801480">
        <ele>2061.0</ele>
        <time>2017-07-28T08:44:32Z</time>
      </trkpt>
      <trkpt lat="44.9526120" lon="6.8800690">
        <ele>2060.8</ele>
        <time>2017-07-28T08:44:33Z</time>
      </trkpt>
      <trkpt lat="44.9524650" lon="6.8797810">
        <ele>2060.4</ele>
        <time>2017-07-28T08:44:37Z</time>
      </trkpt>
      <trkpt lat="44.9524180" lon="6.8797310">
        <ele>2060.6</ele>
        <time>2017-07-28T08:44:38Z</time>
      </trkpt>
      <trkpt lat="44.9523260" lon="6.8796470">
        <ele>2060.2</ele>
        <time>2017-07-28T08:44:40Z</time>
      </trkpt>
      <trkpt lat="44.9521720" lon="6.8794850">
        <ele>2060.2</ele>
        <time>2017-07-28T08:44:44Z</time>
      </trkpt>
      <trkpt lat="44.9520790" lon="6.8793670">
        <ele>2060.0</ele>
        <time>2017-07-28T08:44:47Z</time>
      </trkpt>
      <trkpt lat="44.9519660" lon="6.8791620">
        <ele>2060.0</ele>
        <time>2017-07-28T08:44:51Z</time>
      </trkpt>
      <trkpt lat="44.9519400" lon="6.8788180">
        <ele>2059.4</ele>
        <time>2017-07-28T08:44:55Z</time>
      </trkpt>
      <trkpt lat="44.9519260" lon="6.8787220">
        <ele>2059.0</ele>
        <time>2017-07-28T08:44:56Z</time>
      </trkpt>
      <trkpt lat="44.9519070" lon="6.8786200">
        <ele>2058.6</ele>
        <time>2017-07-28T08:44:57Z</time>
      </trkpt>
      <trkpt lat="44.9518590" lon="6.8784020">
        <ele>2058.2</ele>
        <time>2017-07-28T08:44:59Z</time>
      </trkpt>
      <trkpt lat="44.9518380" lon="6.8782820">
        <ele>2057.8</ele>
        <time>2017-07-28T08:45:00Z</time>
      </trkpt>
      <trkpt lat="44.9517780" lon="6.8778970">
        <ele>2057.0</ele>
        <time>2017-07-28T08:45:03Z</time>
      </trkpt>
      <trkpt lat="44.9517450" lon="6.8777590">
        <ele>2056.4</ele>
        <time>2017-07-28T08:45:04Z</time>
      </trkpt>
      <trkpt lat="44.9516580" lon="6.8775040">
        <ele>2055.8</ele>
        <time>2017-07-28T08:45:06Z</time>
      </trkpt>
      <trkpt lat="44.9516100" lon="6.8773810">
        <ele>2055.4</ele>
        <time>2017-07-28T08:45:07Z</time>
      </trkpt>
      <trkpt lat="44.9513880" lon="6.8768810">
        <ele>2054.0</ele>
        <time>2017-07-28T08:45:11Z</time>
      </trkpt>
      <trkpt lat="44.9512810" lon="6.8766310">
        <ele>2052.6</ele>
        <time>2017-07-28T08:45:13Z</time>
      </trkpt>
      <trkpt lat="44.9512090" lon="6.8763780">
        <ele>2051.6</ele>
        <time>2017-07-28T08:45:15Z</time>
      </trkpt>
      <trkpt lat="44.9511790" lon="6.8762450">
        <ele>2051.0</ele>
        <time>2017-07-28T08:45:16Z</time>
      </trkpt>
      <trkpt lat="44.9511290" lon="6.8759030">
        <ele>2049.4</ele>
        <time>2017-07-28T08:45:19Z</time>
      </trkpt>
      <trkpt lat="44.9511180" lon="6.8756550">
        <ele>2047.8</ele>
        <time>2017-07-28T08:45:21Z</time>
      </trkpt>
      <trkpt lat="44.9511150" lon="6.8755140">
        <ele>2047.2</ele>
        <time>2017-07-28T08:45:22Z</time>
      </trkpt>
      <trkpt lat="44.9511170" lon="6.8753720">
        <ele>2046.4</ele>
        <time>2017-07-28T08:45:23Z</time>
      </trkpt>
      <trkpt lat="44.9511270" lon="6.8751140">
        <ele>2044.6</ele>
        <time>2017-07-28T08:45:25Z</time>
      </trkpt>
      <trkpt lat="44.9511310" lon="6.8749960">
        <ele>2043.4</ele>
        <time>2017-07-28T08:45:26Z</time>
      </trkpt>
      <trkpt lat="44.9511350" lon="6.8748900">
        <ele>2042.0</ele>
        <time>2017-07-28T08:45:27Z</time>
      </trkpt>
      <trkpt lat="44.9511370" lon="6.8748050">
        <ele>2040.8</ele>
        <time>2017-07-28T08:45:28Z</time>
      </trkpt>
      <trkpt lat="44.9511380" lon="6.8747470">
        <ele>2039.6</ele>
        <time>2017-07-28T08:45:29Z</time>
      </trkpt>
      <trkpt lat="44.9511450" lon="6.8747050">
        <ele>2038.2</ele>
        <time>2017-07-28T08:45:30Z</time>
      </trkpt>
      <trkpt lat="44.9511610" lon="6.8746800">
        <ele>2036.8</ele>
        <time>2017-07-28T08:45:31Z</time>
      </trkpt>
      <trkpt lat="44.9511870" lon="6.8746810">
        <ele>2035.4</ele>
        <time>2017-07-28T08:45:32Z</time>
      </trkpt>
      <trkpt lat="44.9512240" lon="6.8747030">
        <ele>2034.2</ele>
        <time>2017-07-28T08:45:33Z</time>
      </trkpt>
      <trkpt lat="44.9512640" lon="6.8747390">
        <ele>2033.0</ele>
        <time>2017-07-28T08:45:34Z</time>
      </trkpt>
      <trkpt lat="44.9513100" lon="6.8747830">
        <ele>2031.8</ele>
        <time>2017-07-28T08:45:35Z</time>
      </trkpt>
      <trkpt lat="44.9513590" lon="6.8748230">
        <ele>2029.4</ele>
        <time>2017-07-28T08:45:36Z</time>
      </trkpt>
      <trkpt lat="44.9514160" lon="6.8748520">
        <ele>2028.4</ele>
        <time>2017-07-28T08:45:37Z</time>
      </trkpt>
      <trkpt lat="44.9514820" lon="6.8748540">
        <ele>2027.4</ele>
        <time>2017-07-28T08:45:38Z</time>
      </trkpt>
      <trkpt lat="44.9515440" lon="6.8748180">
        <ele>2026.4</ele>
        <time>2017-07-28T08:45:39Z</time>
      </trkpt>
      <trkpt lat="44.9515920" lon="6.8747590">
        <ele>2025.6</ele>
        <time>2017-07-28T08:45:40Z</time>
      </trkpt>
      <trkpt lat="44.9516110" lon="6.8746790">
        <ele>2024.8</ele>
        <time>2017-07-28T08:45:41Z</time>
      </trkpt>
      <trkpt lat="44.9515920" lon="6.8745960">
        <ele>2024.0</ele>
        <time>2017-07-28T08:45:42Z</time>
      </trkpt>
      <trkpt lat="44.9515560" lon="6.8745240">
        <ele>2023.2</ele>
        <time>2017-07-28T08:45:43Z</time>
      </trkpt>
      <trkpt lat="44.9514580" lon="6.8744000">
        <ele>2021.6</ele>
        <time>2017-07-28T08:45:45Z</time>
      </trkpt>
      <trkpt lat="44.9514110" lon="6.8743400">
        <ele>2021.0</ele>
        <time>2017-07-28T08:45:46Z</time>
      </trkpt>
      <trkpt lat="44.9513690" lon="6.8742800">
        <ele>2020.4</ele>
        <time>2017-07-28T08:45:47Z</time>
      </trkpt>
      <trkpt lat="44.9513080" lon="6.8741700">
        <ele>2019.4</ele>
        <time>2017-07-28T08:45:49Z</time>
      </trkpt>
      <trkpt lat="44.9512950" lon="6.8741140">
        <ele>2018.8</ele>
        <time>2017-07-28T08:45:50Z</time>
      </trkpt>
      <trkpt lat="44.9512940" lon="6.8740490">
        <ele>2018.2</ele>
        <time>2017-07-28T08:45:51Z</time>
      </trkpt>
      <trkpt lat="44.9513250" lon="6.8738840">
        <ele>2017.4</ele>
        <time>2017-07-28T08:45:53Z</time>
      </trkpt>
      <trkpt lat="44.9513490" lon="6.8737910">
        <ele>2017.0</ele>
        <time>2017-07-28T08:45:54Z</time>
      </trkpt>
      <trkpt lat="44.9513630" lon="6.8736870">
        <ele>2016.6</ele>
        <time>2017-07-28T08:45:55Z</time>
      </trkpt>
      <trkpt lat="44.9513580" lon="6.8734690">
        <ele>2016.0</ele>
        <time>2017-07-28T08:45:57Z</time>
      </trkpt>
      <trkpt lat="44.9513090" lon="6.8732500">
        <ele>2015.2</ele>
        <time>2017-07-28T08:45:59Z</time>
      </trkpt>
      <trkpt lat="44.9512940" lon="6.8731510">
        <ele>2014.4</ele>
        <time>2017-07-28T08:46:00Z</time>
      </trkpt>
      <trkpt lat="44.9513080" lon="6.8730270">
        <ele>2013.0</ele>
        <time>2017-07-28T08:46:02Z</time>
      </trkpt>
      <trkpt lat="44.9513660" lon="6.8730850">
        <ele>2011.8</ele>
        <time>2017-07-28T08:46:04Z</time>
      </trkpt>
      <trkpt lat="44.9514190" lon="6.8731730">
        <ele>2011.2</ele>
        <time>2017-07-28T08:46:05Z</time>
      </trkpt>
      <trkpt lat="44.9514660" lon="6.8732640">
        <ele>2010.8</ele>
        <time>2017-07-28T08:46:06Z</time>
      </trkpt>
      <trkpt lat="44.9515820" lon="6.8734620">
        <ele>2009.8</ele>
        <time>2017-07-28T08:46:08Z</time>
      </trkpt>
      <trkpt lat="44.9516500" lon="6.8735510">
        <ele>2009.4</ele>
        <time>2017-07-28T08:46:09Z</time>
      </trkpt>
      <trkpt lat="44.9518170" lon="6.8736790">
        <ele>2008.0</ele>
        <time>2017-07-28T08:46:11Z</time>
      </trkpt>
      <trkpt lat="44.9520040" lon="6.8737430">
        <ele>2007.0</ele>
        <time>2017-07-28T08:46:13Z</time>
      </trkpt>
      <trkpt lat="44.9520980" lon="6.8737670">
        <ele>2006.6</ele>
        <time>2017-07-28T08:46:14Z</time>
      </trkpt>
      <trkpt lat="44.9521960" lon="6.8737840">
        <ele>2006.2</ele>
        <time>2017-07-28T08:46:15Z</time>
      </trkpt>
      <trkpt lat="44.9522990" lon="6.8738060">
        <ele>2005.6</ele>
        <time>2017-07-28T08:46:16Z</time>
      </trkpt>
      <trkpt lat="44.9525010" lon="6.8738730">
        <ele>2004.0</ele>
        <time>2017-07-28T08:46:18Z</time>
      </trkpt>
      <trkpt lat="44.9525980" lon="6.8739210">
        <ele>2003.4</ele>
        <time>2017-07-28T08:46:19Z</time>
      </trkpt>
      <trkpt lat="44.9526950" lon="6.8739740">
        <ele>2002.8</ele>
        <time>2017-07-28T08:46:20Z</time>
      </trkpt>
      <trkpt lat="44.9528880" lon="6.8740640">
        <ele>2001.6</ele>
        <time>2017-07-28T08:46:22Z</time>
      </trkpt>
      <trkpt lat="44.9530800" lon="6.8741620">
        <ele>2000.4</ele>
        <time>2017-07-28T08:46:24Z</time>
      </trkpt>
      <trkpt lat="44.9532650" lon="6.8742400">
        <ele>1999.2</ele>
        <time>2017-07-28T08:46:26Z</time>
      </trkpt>
      <trkpt lat="44.9534300" lon="6.8743130">
        <ele>1998.0</ele>
        <time>2017-07-28T08:46:28Z</time>
      </trkpt>
      <trkpt lat="44.9535000" lon="6.8743410">
        <ele>1997.4</ele>
        <time>2017-07-28T08:46:29Z</time>
      </trkpt>
      <trkpt lat="44.9535570" lon="6.8743600">
        <ele>1996.8</ele>
        <time>2017-07-28T08:46:30Z</time>
      </trkpt>
      <trkpt lat="44.9536010" lon="6.8743720">
        <ele>1996.2</ele>
        <time>2017-07-28T08:46:31Z</time>
      </trkpt>
      <trkpt lat="44.9536260" lon="6.8743790">
        <ele>1995.6</ele>
        <time>2017-07-28T08:46:32Z</time>
      </trkpt>
      <trkpt lat="44.9536510" lon="6.8743790">
        <ele>1994.6</ele>
        <time>2017-07-28T08:46:34Z</time>
      </trkpt>
      <trkpt lat="44.9536470" lon="6.8743600">
        <ele>1994.2</ele>
        <time>2017-07-28T08:46:35Z</time>
      </trkpt>
      <trkpt lat="44.9535880" lon="6.8743470">
        <ele>1983.0</ele>
        <time>2017-07-28T08:50:15Z</time>
      </trkpt>
      <trkpt lat="44.9535980" lon="6.8743600">
        <ele>1983.0</ele>
        <time>2017-07-28T08:50:16Z</time>
      </trkpt>
      <trkpt lat="44.9536120" lon="6.8743750">
        <ele>1983.2</ele>
        <time>2017-07-28T08:50:17Z</time>
      </trkpt>
      <trkpt lat="44.9537250" lon="6.8744260">
        <ele>1983.4</ele>
        <time>2017-07-28T08:50:22Z</time>
      </trkpt>
      <trkpt lat="44.9537850" lon="6.8743780">
        <ele>1984.2</ele>
        <time>2017-07-28T08:50:25Z</time>
      </trkpt>
      <trkpt lat="44.9538190" lon="6.8743160">
        <ele>1984.6</ele>
        <time>2017-07-28T08:50:27Z</time>
      </trkpt>
      <trkpt lat="44.9765880" lon="6.8598430">
        <ele>2666.8</ele>
        <time>2017-07-28T09:04:46Z</time>
      </trkpt>
      <trkpt lat="44.9766230" lon="6.8598150">
        <ele>2666.8</ele>
        <time>2017-07-28T09:04:47Z</time>
      </trkpt>
      <trkpt lat="44.9766430" lon="6.8596530">
        <ele>2667.2</ele>
        <time>2017-07-28T09:04:50Z</time>
      </trkpt>
      <trkpt lat="44.9765380" lon="6.8593660">
        <ele>2666.8</ele>
        <time>2017-07-28T09:04:53Z</time>
      </trkpt>
      <trkpt lat="44.9763470" lon="6.8588840">
        <ele>2665.6</ele>
        <time>2017-07-28T09:04:57Z</time>
      </trkpt>
      <trkpt lat="44.9763020" lon="6.8587660">
        <ele>2665.0</ele>
        <time>2017-07-28T09:04:58Z</time>
      </trkpt>
      <trkpt lat="44.9762650" lon="6.8586510">
        <ele>2664.0</ele>
        <time>2017-07-28T09:04:59Z</time>
      </trkpt>
      <trkpt lat="44.9762390" lon="6.8585270">
        <ele>2663.0</ele>
        <time>2017-07-28T09:05:00Z</time>
      </trkpt>
      <trkpt lat="44.9762220" lon="6.8584040">
        <ele>2662.2</ele>
        <time>2017-07-28T09:05:01Z</time>
      </trkpt>
      <trkpt lat="44.9762110" lon="6.8582770">
        <ele>2661.6</ele>
        <time>2017-07-28T09:05:02Z</time>
      </trkpt>
      <trkpt lat="44.9762150" lon="6.8581480">
        <ele>2661.2</ele>
        <time>2017-07-28T09:05:03Z</time>
      </trkpt>
      <trkpt lat="44.9762410" lon="6.8578820">
        <ele>2660.8</ele>
        <time>2017-07-28T09:05:05Z</time>
      </trkpt>
      <trkpt lat="44.9762570" lon="6.8577400">
        <ele>2660.0</ele>
        <time>2017-07-28T09:05:06Z</time>
      </trkpt>
      <trkpt lat="44.9763000" lon="6.8574410">
        <ele>2658.4</ele>
        <time>2017-07-28T09:05:08Z</time>
      </trkpt>
      <trkpt lat="44.9763380" lon="6.8571340">
        <ele>2657.4</ele>
        <time>2017-07-28T09:05:10Z</time>
      </trkpt>
      <trkpt lat="44.9763960" lon="6.8568550">
        <ele>2656.4</ele>
        <time>2017-07-28T09:05:12Z</time>
      </trkpt>
      <trkpt lat="44.9764500" lon="6.8565810">
        <ele>2654.6</ele>
        <time>2017-07-28T09:05:14Z</time>
      </trkpt>
      <trkpt lat="44.9764720" lon="6.8564450">
        <ele>2654.2</ele>
        <time>2017-07-28T09:05:15Z</time>
      </trkpt>
      <trkpt lat="44.9765340" lon="6.8561970">
        <ele>2653.4</ele>
        <time>2017-07-28T09:05:17Z</time>
      </trkpt>
      <trkpt lat="44.9766250" lon="6.8559560">
        <ele>2652.4</ele>
        <time>2017-07-28T09:05:19Z</time>
      </trkpt>
      <trkpt lat="44.9766790" lon="6.8558410">
        <ele>2651.6</ele>
        <time>2017-07-28T09:05:20Z</time>
      </trkpt>
      <trkpt lat="44.9767940" lon="6.8556260">
        <ele>2650.2</ele>
        <time>2017-07-28T09:05:22Z</time>
      </trkpt>
      <trkpt lat="44.9769260" lon="6.8554330">
        <ele>2649.2</ele>
        <time>2017-07-28T09:05:24Z</time>
      </trkpt>
      <trkpt lat="44.9770030" lon="6.8553520">
        <ele>2648.4</ele>
        <time>2017-07-28T09:05:25Z</time>
      </trkpt>
      <trkpt lat="44.9770770" lon="6.8552780">
        <ele>2647.6</ele>
        <time>2017-07-28T09:05:26Z</time>
      </trkpt>
      <trkpt lat="44.9771530" lon="6.8552240">
        <ele>2647.0</ele>
        <time>2017-07-28T09:05:27Z</time>
      </trkpt>
      <trkpt lat="44.9772310" lon="6.8551700">
        <ele>2646.6</ele>
        <time>2017-07-28T09:05:28Z</time>
      </trkpt>
      <trkpt lat="44.9773120" lon="6.8551410">
        <ele>2645.8</ele>
        <time>2017-07-28T09:05:29Z</time>
      </trkpt>
      <trkpt lat="44.9773980" lon="6.8551280">
        <ele>2645.0</ele>
        <time>2017-07-28T09:05:30Z</time>
      </trkpt>
      <trkpt lat="44.9774880" lon="6.8551200">
        <ele>2644.4</ele>
        <time>2017-07-28T09:05:31Z</time>
      </trkpt>
      <trkpt lat="44.9775830" lon="6.8551070">
        <ele>2643.6</ele>
        <time>2017-07-28T09:05:32Z</time>
      </trkpt>
      <trkpt lat="44.9777790" lon="6.8550710">
        <ele>2641.6</ele>
        <time>2017-07-28T09:05:34Z</time>
      </trkpt>
      <trkpt lat="44.9778790" lon="6.8550120">
        <ele>2640.4</ele>
        <time>2017-07-28T09:05:35Z</time>
      </trkpt>
      <trkpt lat="44.9780670" lon="6.8548350">
        <ele>2638.2</ele>
        <time>2017-07-28T09:05:37Z</time>
      </trkpt>
      <trkpt lat="44.9781430" lon="6.8547240">
        <ele>2635.6</ele>
        <time>2017-07-28T09:05:38Z</time>
      </trkpt>
      <trkpt lat="44.9782020" lon="6.8546000">
        <ele>2634.6</ele>
        <time>2017-07-28T09:05:39Z</time>
      </trkpt>
      <trkpt lat="44.9782780" lon="6.8543560">
        <ele>2632.8</ele>
        <time>2017-07-28T09:05:41Z</time>
      </trkpt>
      <trkpt lat="44.9783280" lon="6.8542630">
        <ele>2631.8</ele>
        <time>2017-07-28T09:05:42Z</time>
      </trkpt>
      <trkpt lat="44.9784590" lon="6.8541200">
        <ele>2630.0</ele>
        <time>2017-07-28T09:05:44Z</time>
      </trkpt>
      <trkpt lat="44.9786170" lon="6.8540360">
        <ele>2628.0</ele>
        <time>2017-07-28T09:05:46Z</time>
      </trkpt>
      <trkpt lat="44.9787040" lon="6.8540030">
        <ele>2626.8</ele>
        <time>2017-07-28T09:05:47Z</time>
      </trkpt>
      <trkpt lat="44.9788030" lon="6.8539580">
        <ele>2625.6</ele>
        <time>2017-07-28T09:05:48Z</time>
      </trkpt>
      <trkpt lat="44.9789040" lon="6.8538990">
        <ele>2624.6</ele>
        <time>2017-07-28T09:05:49Z</time>
      </trkpt>
      <trkpt lat="44.9790000" lon="6.8538360">
        <ele>2623.2</ele>
        <time>2017-07-28T09:05:50Z</time>
      </trkpt>
      <trkpt lat="44.9790900" lon="6.8537900">
        <ele>2622.0</ele>
        <time>2017-07-28T09:05:51Z</time>
      </trkpt>
      <trkpt lat="44.9792590" lon="6.8537430">
        <ele>2620.0</ele>
        <time>2017-07-28T09:05:53Z</time>
      </trkpt>
      <trkpt lat="44.9793240" lon="6.8537430">
        <ele>2618.6</ele>
        <time>2017-07-28T09:05:54Z</time>
      </trkpt>
      <trkpt lat="44.9793680" lon="6.8537630">
        <ele>2616.8</ele>
        <time>2017-07-28T09:05:55Z</time>
      </trkpt>
      <trkpt lat="44.9793880" lon="6.8537980">
        <ele>2615.2</ele>
        <time>2017-07-28T09:05:56Z</time>
      </trkpt>
      <trkpt lat="44.9793850" lon="6.8538380">
        <ele>2613.6</ele>
        <time>2017-07-28T09:05:57Z</time>
      </trkpt>
      <trkpt lat="44.9793760" lon="6.8538770">
        <ele>2612.2</ele>
        <time>2017-07-28T09:05:58Z</time>
      </trkpt>
      <trkpt lat="44.9793650" lon="6.8539080">
        <ele>2610.8</ele>
        <time>2017-07-28T09:05:59Z</time>
      </trkpt>
      <trkpt lat="44.9793600" lon="6.8539370">
        <ele>2609.6</ele>
        <time>2017-07-28T09:06:00Z</time>
      </trkpt>
      <trkpt lat="44.9793540" lon="6.8539750">
        <ele>2608.0</ele>
        <time>2017-07-28T09:06:01Z</time>
      </trkpt>
      <trkpt lat="44.9793590" lon="6.8540080">
        <ele>2605.4</ele>
        <time>2017-07-28T09:06:02Z</time>
      </trkpt>
      <trkpt lat="44.9793690" lon="6.8540520">
        <ele>2604.4</ele>
        <time>2017-07-28T09:06:03Z</time>
      </trkpt>
      <trkpt lat="44.9793830" lon="6.8541030">
        <ele>2603.0</ele>
        <time>2017-07-28T09:06:04Z</time>
      </trkpt>
      <trkpt lat="44.9793970" lon="6.8541560">
        <ele>2601.6</ele>
        <time>2017-07-28T09:06:05Z</time>
      </trkpt>
      <trkpt lat="44.9794080" lon="6.8542050">
        <ele>2600.2</ele>
        <time>2017-07-28T09:06:06Z</time>
      </trkpt>
      <trkpt lat="44.9794220" lon="6.8542590">
        <ele>2598.8</ele>
        <time>2017-07-28T09:06:07Z</time>
      </trkpt>
      <trkpt lat="44.9794350" lon="6.8543150">
        <ele>2597.4</ele>
        <time>2017-07-28T09:06:08Z</time>
      </trkpt>
      <trkpt lat="44.9794460" lon="6.8543760">
        <ele>2595.8</ele>
        <time>2017-07-28T09:06:09Z</time>
      </trkpt>
      <trkpt lat="44.9794630" lon="6.8544360">
        <ele>2594.2</ele>
        <time>2017-07-28T09:06:10Z</time>
      </trkpt>
      <trkpt lat="44.9794770" lon="6.8544910">
        <ele>2592.6</ele>
        <time>2017-07-28T09:06:11Z</time>
      </trkpt>
      <trkpt lat="44.9794860" lon="6.8545500">
        <ele>2591.0</ele>
        <time>2017-07-28T09:06:12Z</time>
      </trkpt>
      <trkpt lat="44.9794960" lon="6.8546050">
        <ele>2589.4</ele>
        <time>2017-07-28T09:06:13Z</time>
      </trkpt>
      <trkpt lat="44.9795050" lon="6.8546430">
        <ele>2587.6</ele>
        <time>2017-07-28T09:06:14Z</time>
      </trkpt>
      <trkpt lat="44.9795110" lon="6.8546820">
        <ele>2586.0</ele>
        <time>2017-07-28T09:06:15Z</time>
      </trkpt>
      <trkpt lat="44.9795150" lon="6.8547190">
        <ele>2584.4</ele>
        <time>2017-07-28T09:06:16Z</time>
      </trkpt>
      <trkpt lat="44.9795180" lon="6.8547630">
        <ele>2583.0</ele>
        <time>2017-07-28T09:06:17Z</time>
      </trkpt>
      <trkpt lat="44.9795220" lon="6.8548040">
        <ele>2581.4</ele>
        <time>2017-07-28T09:06:18Z</time>
      </trkpt>
      <trkpt lat="44.9795210" lon="6.8548420">
        <ele>2579.6</ele>
        <time>2017-07-28T09:06:19Z</time>
      </trkpt>
      <trkpt lat="44.9795150" lon="6.8548760">
        <ele>2578.0</ele>
        <time>2017-07-28T09:06:20Z</time>
      </trkpt>
      <trkpt lat="44.9795080" lon="6.8549050">
        <ele>2576.4</ele>
        <time>2017-07-28T09:06:21Z</time>
      </trkpt>
      <trkpt lat="44.9795050" lon="6.8549350">
        <ele>2575.0</ele>
        <time>2017-07-28T09:06:22Z</time>
      </trkpt>
      <trkpt lat="44.9795030" lon="6.8549560">
        <ele>2573.6</ele>
        <time>2017-07-28T09:06:23Z</time>
      </trkpt>
      <trkpt lat="44.9794750" lon="6.8549990">
        <ele>2567.6</ele>
        <time>2017-07-28T09:06:27Z</time>
      </trkpt>
      <trkpt lat="44.9794650" lon="6.8550450">
        <ele>2564.6</ele>
        <time>2017-07-28T09:06:30Z</time>
      </trkpt>
      <trkpt lat="44.9794650" lon="6.8550810">
        <ele>2563.6</ele>
        <time>2017-07-28T09:06:31Z</time>
      </trkpt>
      <trkpt lat="44.9794700" lon="6.8551470">
        <ele>2561.4</ele>
        <time>2017-07-28T09:06:33Z</time>
      </trkpt>
      <trkpt lat="44.9794790" lon="6.8551830">
        <ele>2560.4</ele>
        <time>2017-07-28T09:06:34Z</time>
      </trkpt>
      <trkpt lat="44.9794840" lon="6.8552240">
        <ele>2559.2</ele>
        <time>2017-07-28T09:06:35Z</time>
      </trkpt>
      <trkpt lat="44.9794860" lon="6.8552620">
        <ele>2558.2</ele>
        <time>2017-07-28T09:06:36Z</time>
      </trkpt>
      <trkpt lat="44.9794850" lon="6.8553010">
        <ele>2557.0</ele>
        <time>2017-07-28T09:06:37Z</time>
      </trkpt>
      <trkpt lat="44.9794830" lon="6.8553370">
        <ele>2555.8</ele>
        <time>2017-07-28T09:06:38Z</time>
      </trkpt>
      <trkpt lat="44.9794810" lon="6.8553750">
        <ele>2554.8</ele>
        <time>2017-07-28T09:06:39Z</time>
      </trkpt>
      <trkpt lat="44.9794850" lon="6.8554760">
        <ele>2553.4</ele>
        <time>2017-07-28T09:06:41Z</time>
      </trkpt>
      <trkpt lat="44.9795020" lon="6.8555900">
        <ele>2551.6</ele>
        <time>2017-07-28T09:06:43Z</time>
      </trkpt>
      <trkpt lat="44.9795080" lon="6.8556430">
        <ele>2550.4</ele>
        <time>2017-07-28T09:06:44Z</time>
      </trkpt>
      <trkpt lat="44.9795180" lon="6.8557030">
        <ele>2549.4</ele>
        <time>2017-07-28T09:06:45Z</time>
      </trkpt>
      <trkpt lat="44.9795290" lon="6.8557710">
        <ele>2548.4</ele>
        <time>2017-07-28T09:06:46Z</time>
      </trkpt>
      <trkpt lat="44.9795420" lon="6.8558410">
        <ele>2547.4</ele>
        <time>2017-07-28T09:06:47Z</time>
      </trkpt>
      <trkpt lat="44.9795590" lon="6.8559100">
        <ele>2546.2</ele>
        <time>2017-07-28T09:06:48Z</time>
      </trkpt>
      <trkpt lat="44.9795800" lon="6.8559700">
        <ele>2545.4</ele>
        <time>2017-07-28T09:06:49Z</time>
      </trkpt>
      <trkpt lat="44.9796030" lon="6.8560240">
        <ele>2543.8</ele>
        <time>2017-07-28T09:06:50Z</time>
      </trkpt>
      <trkpt lat="44.9796230" lon="6.8560750">
        <ele>2542.8</ele>
        <time>2017-07-28T09:06:51Z</time>
      </trkpt>
      <trkpt lat="44.9796780" lon="6.8562050">
        <ele>2541.0</ele>
        <time>2017-07-28T09:06:53Z</time>
      </trkpt>
      <trkpt lat="44.9797020" lon="6.8562770">
        <ele>2540.0</ele>
        <time>2017-07-28T09:06:54Z</time>
      </trkpt>
      <trkpt lat="44.9797290" lon="6.8563440">
        <ele>2539.0</ele>
        <time>2017-07-28T09:06:55Z</time>
      </trkpt>
      <trkpt lat="44.9797870" lon="6.8564630">
        <ele>2536.8</ele>
        <time>2017-07-28T09:06:57Z</time>
      </trkpt>
      <trkpt lat="44.9798130" lon="6.8565150">
        <ele>2535.8</ele>
        <time>2017-07-28T09:06:58Z</time>
      </trkpt>
      <trkpt lat="44.9798760" lon="6.8566170">
        <ele>2533.8</ele>
        <time>2017-07-28T09:07:00Z</time>
      </trkpt>
      <trkpt lat="44.9799080" lon="6.8566640">
        <ele>2532.8</ele>
        <time>2017-07-28T09:07:01Z</time>
      </trkpt>
      <trkpt lat="44.9799210" lon="6.8567060">
        <ele>2531.6</ele>
        <time>2017-07-28T09:07:02Z</time>
      </trkpt>
      <trkpt lat="44.9799280" lon="6.8567550">
        <ele>2530.6</ele>
        <time>2017-07-28T09:07:03Z</time>
      </trkpt>
      <trkpt lat="44.9799370" lon="6.8568090">
        <ele>2529.4</ele>
        <time>2017-07-28T09:07:04Z</time>
      </trkpt>
      <trkpt lat="44.9799410" lon="6.8568640">
        <ele>2528.4</ele>
        <time>2017-07-28T09:07:05Z</time>
      </trkpt>
      <trkpt lat="44.9799410" lon="6.8569210">
        <ele>2527.2</ele>
        <time>2017-07-28T09:07:06Z</time>
      </trkpt>
      <trkpt lat="44.9799310" lon="6.8569760">
        <ele>2526.2</ele>
        <time>2017-07-28T09:07:07Z</time>
      </trkpt>
      <trkpt lat="44.9799240" lon="6.8570680">
        <ele>2524.2</ele>
        <time>2017-07-28T09:07:09Z</time>
      </trkpt>
      <trkpt lat="44.9799080" lon="6.8571570">
        <ele>2522.6</ele>
        <time>2017-07-28T09:07:11Z</time>
      </trkpt>
      <trkpt lat="44.9798950" lon="6.8572310">
        <ele>2521.0</ele>
        <time>2017-07-28T09:07:13Z</time>
      </trkpt>
      <trkpt lat="44.9798930" lon="6.8572610">
        <ele>2519.4</ele>
        <time>2017-07-28T09:07:14Z</time>
      </trkpt>
      <trkpt lat="44.9798870" lon="6.8572820">
        <ele>2518.8</ele>
        <time>2017-07-28T09:07:15Z</time>
      </trkpt>
      <trkpt lat="44.9798760" lon="6.8573040">
        <ele>2518.2</ele>
        <time>2017-07-28T09:07:16Z</time>
      </trkpt>
      <trkpt lat="44.9798590" lon="6.8573670">
        <ele>2517.0</ele>
        <time>2017-07-28T09:07:18Z</time>
      </trkpt>
      <trkpt lat="44.9798410" lon="6.8574350">
        <ele>2516.0</ele>
        <time>2017-07-28T09:07:20Z</time>
      </trkpt>
      <trkpt lat="44.9798240" lon="6.8575190">
        <ele>2515.0</ele>
        <time>2017-07-28T09:07:22Z</time>
      </trkpt>
      <trkpt lat="44.9798060" lon="6.8576870">
        <ele>2513.6</ele>
        <time>2017-07-28T09:07:25Z</time>
      </trkpt>
      <trkpt lat="44.9798040" lon="6.8578790">
        <ele>2512.4</ele>
        <time>2017-07-28T09:07:28Z</time>
      </trkpt>
      <trkpt lat="44.9798020" lon="6.8579410">
        <ele>2512.2</ele>
        <time>2017-07-28T09:07:29Z</time>
      </trkpt>
      <trkpt lat="44.9798140" lon="6.8579870">
        <ele>2511.6</ele>
        <time>2017-07-28T09:07:30Z</time>
      </trkpt>
      <trkpt lat="44.9798340" lon="6.8580050">
        <ele>2511.2</ele>
        <time>2017-07-28T09:07:31Z</time>
      </trkpt>
      <trkpt lat="44.9798480" lon="6.8579970">
        <ele>2510.4</ele>
        <time>2017-07-28T09:07:33Z</time>
      </trkpt>
      <trkpt lat="44.9798640" lon="6.8579920">
        <ele>2507.8</ele>
        <time>2017-07-28T09:07:40Z</time>
      </trkpt>
      <trkpt lat="44.9798910" lon="6.8579700">
        <ele>2507.2</ele>
        <time>2017-07-28T09:07:41Z</time>
      </trkpt>
      <trkpt lat="44.9799430" lon="6.8578780">
        <ele>2506.4</ele>
        <time>2017-07-28T09:07:43Z</time>
      </trkpt>
      <trkpt lat="44.9800010" lon="6.8577690">
        <ele>2505.6</ele>
        <time>2017-07-28T09:07:45Z</time>
      </trkpt>
      <trkpt lat="44.9800310" lon="6.8577220">
        <ele>2505.0</ele>
        <time>2017-07-28T09:07:46Z</time>
      </trkpt>
      <trkpt lat="44.9800630" lon="6.8576800">
        <ele>2504.6</ele>
        <time>2017-07-28T09:07:47Z</time>
      </trkpt>
      <trkpt lat="44.9801400" lon="6.8575840">
        <ele>2503.6</ele>
        <time>2017-07-28T09:07:49Z</time>
      </trkpt>
      <trkpt lat="44.9801750" lon="6.8575440">
        <ele>2502.8</ele>
        <time>2017-07-28T09:07:50Z</time>
      </trkpt>
      <trkpt lat="44.9802160" lon="6.8575040">
        <ele>2501.8</ele>
        <time>2017-07-28T09:07:51Z</time>
      </trkpt>
      <trkpt lat="44.9803070" lon="6.8574310">
        <ele>2500.2</ele>
        <time>2017-07-28T09:07:54Z</time>
      </trkpt>
      <trkpt lat="44.9803310" lon="6.8574130">
        <ele>2499.4</ele>
        <time>2017-07-28T09:07:55Z</time>
      </trkpt>
      <trkpt lat="44.9803620" lon="6.8573880">
        <ele>2498.2</ele>
        <time>2017-07-28T09:07:56Z</time>
      </trkpt>
      <trkpt lat="44.9804410" lon="6.8573160">
        <ele>2496.8</ele>
        <time>2017-07-28T09:07:58Z</time>
      </trkpt>
      <trkpt lat="44.9804820" lon="6.8572840">
        <ele>2496.0</ele>
        <time>2017-07-28T09:07:59Z</time>
      </trkpt>
      <trkpt lat="44.9805210" lon="6.8572500">
        <ele>2495.2</ele>
        <time>2017-07-28T09:08:00Z</time>
      </trkpt>
      <trkpt lat="44.9805620" lon="6.8572070">
        <ele>2493.8</ele>
        <time>2017-07-28T09:08:01Z</time>
      </trkpt>
      <trkpt lat="44.9806030" lon="6.8571720">
        <ele>2492.0</ele>
        <time>2017-07-28T09:08:02Z</time>
      </trkpt>
      <trkpt lat="44.9806850" lon="6.8571130">
        <ele>2490.8</ele>
        <time>2017-07-28T09:08:04Z</time>
      </trkpt>
      <trkpt lat="44.9807680" lon="6.8570600">
        <ele>2488.6</ele>
        <time>2017-07-28T09:08:06Z</time>
      </trkpt>
      <trkpt lat="44.9808010" lon="6.8570610">
        <ele>2487.4</ele>
        <time>2017-07-28T09:08:07Z</time>
      </trkpt>
      <trkpt lat="44.9808370" lon="6.8570750">
        <ele>2486.2</ele>
        <time>2017-07-28T09:08:08Z</time>
      </trkpt>
      <trkpt lat="44.9808610" lon="6.8570900">
        <ele>2485.2</ele>
        <time>2017-07-28T09:08:09Z</time>
      </trkpt>
      <trkpt lat="44.9808750" lon="6.8571170">
        <ele>2483.8</ele>
        <time>2017-07-28T09:08:10Z</time>
      </trkpt>
      <trkpt lat="44.9808890" lon="6.8571480">
        <ele>2482.8</ele>
        <time>2017-07-28T09:08:11Z</time>
      </trkpt>
      <trkpt lat="44.9808970" lon="6.8571920">
        <ele>2481.6</ele>
        <time>2017-07-28T09:08:12Z</time>
      </trkpt>
      <trkpt lat="44.9809000" lon="6.8572420">
        <ele>2480.4</ele>
        <time>2017-07-28T09:08:13Z</time>
      </trkpt>
      <trkpt lat="44.9808970" lon="6.8572970">
        <ele>2479.0</ele>
        <time>2017-07-28T09:08:14Z</time>
      </trkpt>
      <trkpt lat="44.9808900" lon="6.8573570">
        <ele>2477.8</ele>
        <time>2017-07-28T09:08:15Z</time>
      </trkpt>
      <trkpt lat="44.9808850" lon="6.8574140">
        <ele>2476.6</ele>
        <time>2017-07-28T09:08:16Z</time>
      </trkpt>
      <trkpt lat="44.9808820" lon="6.8574680">
        <ele>2475.2</ele>
        <time>2017-07-28T09:08:17Z</time>
      </trkpt>
      <trkpt lat="44.9808770" lon="6.8575190">
        <ele>2474.0</ele>
        <time>2017-07-28T09:08:18Z</time>
      </trkpt>
      <trkpt lat="44.9808720" lon="6.8575620">
        <ele>2472.6</ele>
        <time>2017-07-28T09:08:19Z</time>
      </trkpt>
      <trkpt lat="44.9808610" lon="6.8575910">
        <ele>2471.2</ele>
        <time>2017-07-28T09:08:20Z</time>
      </trkpt>
      <trkpt lat="44.9808600" lon="6.8576170">
        <ele>2470.0</ele>
        <time>2017-07-28T09:08:21Z</time>
      </trkpt>
      <trkpt lat="44.9808580" lon="6.8576510">
        <ele>2469.0</ele>
        <time>2017-07-28T09:08:22Z</time>
      </trkpt>
      <trkpt lat="44.9808420" lon="6.8577380">
        <ele>2466.8</ele>
        <time>2017-07-28T09:08:24Z</time>
      </trkpt>
      <trkpt lat="44.9808330" lon="6.8577780">
        <ele>2465.6</ele>
        <time>2017-07-28T09:08:25Z</time>
      </trkpt>
      <trkpt lat="44.9808200" lon="6.8578220">
        <ele>2464.6</ele>
        <time>2017-07-28T09:08:26Z</time>
      </trkpt>
      <trkpt lat="44.9808100" lon="6.8578720">
        <ele>2462.4</ele>
        <time>2017-07-28T09:08:27Z</time>
      </trkpt>
      <trkpt lat="44.9808110" lon="6.8579270">
        <ele>2461.2</ele>
        <time>2017-07-28T09:08:28Z</time>
      </trkpt>
      <trkpt lat="44.9808030" lon="6.8579750">
        <ele>2460.2</ele>
        <time>2017-07-28T09:08:29Z</time>
      </trkpt>
      <trkpt lat="44.9807970" lon="6.8580290">
        <ele>2459.0</ele>
        <time>2017-07-28T09:08:30Z</time>
      </trkpt>
      <trkpt lat="44.9807920" lon="6.8580830">
        <ele>2458.2</ele>
        <time>2017-07-28T09:08:31Z</time>
      </trkpt>
      <trkpt lat="44.9807870" lon="6.8581390">
        <ele>2457.2</ele>
        <time>2017-07-28T09:08:32Z</time>
      </trkpt>
      <trkpt lat="44.9807930" lon="6.8582460">
        <ele>2455.2</ele>
        <time>2017-07-28T09:08:34Z</time>
      </trkpt>
      <trkpt lat="44.9808060" lon="6.8582770">
        <ele>2454.0</ele>
        <time>2017-07-28T09:08:35Z</time>
      </trkpt>
      <trkpt lat="44.9808270" lon="6.8583020">
        <ele>2452.8</ele>
        <time>2017-07-28T09:08:36Z</time>
      </trkpt>
      <trkpt lat="44.9808510" lon="6.8583250">
        <ele>2451.6</ele>
        <time>2017-07-28T09:08:37Z</time>
      </trkpt>
      <trkpt lat="44.9809150" lon="6.8583790">
        <ele>2449.6</ele>
        <time>2017-07-28T09:08:39Z</time>
      </trkpt>
      <trkpt lat="44.9809500" lon="6.8584030">
        <ele>2448.4</ele>
        <time>2017-07-28T09:08:40Z</time>
      </trkpt>
      <trkpt lat="44.9809890" lon="6.8584300">
        <ele>2447.4</ele>
        <time>2017-07-28T09:08:41Z</time>
      </trkpt>
      <trkpt lat="44.9810640" lon="6.8584870">
        <ele>2445.8</ele>
        <time>2017-07-28T09:08:43Z</time>
      </trkpt>
      <trkpt lat="44.9811030" lon="6.8585090">
        <ele>2444.4</ele>
        <time>2017-07-28T09:08:44Z</time>
      </trkpt>
      <trkpt lat="44.9811390" lon="6.8585370">
        <ele>2443.2</ele>
        <time>2017-07-28T09:08:45Z</time>
      </trkpt>
      <trkpt lat="44.9811780" lon="6.8585590">
        <ele>2441.6</ele>
        <time>2017-07-28T09:08:46Z</time>
      </trkpt>
      <trkpt lat="44.9812160" lon="6.8585880">
        <ele>2440.4</ele>
        <time>2017-07-28T09:08:47Z</time>
      </trkpt>
      <trkpt lat="44.9812540" lon="6.8586250">
        <ele>2439.2</ele>
        <time>2017-07-28T09:08:48Z</time>
      </trkpt>
      <trkpt lat="44.9812930" lon="6.8586640">
        <ele>2438.2</ele>
        <time>2017-07-28T09:08:49Z</time>
      </trkpt>
      <trkpt lat="44.9813290" lon="6.8586970">
        <ele>2437.0</ele>
        <time>2017-07-28T09:08:50Z</time>
      </trkpt>
      <trkpt lat="44.9813650" lon="6.8587330">
        <ele>2434.8</ele>
        <time>2017-07-28T09:08:51Z</time>
      </trkpt>
      <trkpt lat="44.9813960" lon="6.8587650">
        <ele>2433.6</ele>
        <time>2017-07-28T09:08:52Z</time>
      </trkpt>
      <trkpt lat="44.9814310" lon="6.8587940">
        <ele>2432.6</ele>
        <time>2017-07-28T09:08:53Z</time>
      </trkpt>
      <trkpt lat="44.9814580" lon="6.8588230">
        <ele>2431.2</ele>
        <time>2017-07-28T09:08:54Z</time>
      </trkpt>
      <trkpt lat="44.9814790" lon="6.8588560">
        <ele>2430.0</ele>
        <time>2017-07-28T09:08:55Z</time>
      </trkpt>
      <trkpt lat="44.9814970" lon="6.8588860">
        <ele>2428.6</ele>
        <time>2017-07-28T09:08:56Z</time>
      </trkpt>
      <trkpt lat="44.9815210" lon="6.8589200">
        <ele>2427.6</ele>
        <time>2017-07-28T09:08:57Z</time>
      </trkpt>
      <trkpt lat="44.9815390" lon="6.8589500">
        <ele>2426.4</ele>
        <time>2017-07-28T09:08:58Z</time>
      </trkpt>
      <trkpt lat="44.9815650" lon="6.8590190">
        <ele>2424.6</ele>
        <time>2017-07-28T09:09:00Z</time>
      </trkpt>
      <trkpt lat="44.9815990" lon="6.8591000">
        <ele>2422.6</ele>
        <time>2017-07-28T09:09:02Z</time>
      </trkpt>
      <trkpt lat="44.9816410" lon="6.8591530">
        <ele>2421.8</ele>
        <time>2017-07-28T09:09:03Z</time>
      </trkpt>
      <trkpt lat="44.9816920" lon="6.8591930">
        <ele>2421.0</ele>
        <time>2017-07-28T09:09:04Z</time>
      </trkpt>
      <trkpt lat="44.9817560" lon="6.8592310">
        <ele>2420.2</ele>
        <time>2017-07-28T09:09:05Z</time>
      </trkpt>
      <trkpt lat="44.9818250" lon="6.8592680">
        <ele>2419.4</ele>
        <time>2017-07-28T09:09:06Z</time>
      </trkpt>
      <trkpt lat="44.9819590" lon="6.8593410">
        <ele>2417.8</ele>
        <time>2017-07-28T09:09:08Z</time>
      </trkpt>
      <trkpt lat="44.9820820" lon="6.8594000">
        <ele>2415.8</ele>
        <time>2017-07-28T09:09:10Z</time>
      </trkpt>
      <trkpt lat="44.9821510" lon="6.8594290">
        <ele>2414.8</ele>
        <time>2017-07-28T09:09:11Z</time>
      </trkpt>
      <trkpt lat="44.9822210" lon="6.8594730">
        <ele>2413.6</ele>
        <time>2017-07-28T09:09:12Z</time>
      </trkpt>
      <trkpt lat="44.9822920" lon="6.8595280">
        <ele>2412.2</ele>
        <time>2017-07-28T09:09:13Z</time>
      </trkpt>
      <trkpt lat="44.9823670" lon="6.8596000">
        <ele>2410.8</ele>
        <time>2017-07-28T09:09:14Z</time>
      </trkpt>
      <trkpt lat="44.9824470" lon="6.8596670">
        <ele>2408.2</ele>
        <time>2017-07-28T09:09:15Z</time>
      </trkpt>
      <trkpt lat="44.9825280" lon="6.8597360">
        <ele>2406.8</ele>
        <time>2017-07-28T09:09:16Z</time>
      </trkpt>
      <trkpt lat="44.9825970" lon="6.8598080">
        <ele>2405.4</ele>
        <time>2017-07-28T09:09:17Z</time>
      </trkpt>
      <trkpt lat="44.9826640" lon="6.8598960">
        <ele>2403.6</ele>
        <time>2017-07-28T09:09:18Z</time>
      </trkpt>
      <trkpt lat="44.9827330" lon="6.8599760">
        <ele>2402.4</ele>
        <time>2017-07-28T09:09:19Z</time>
      </trkpt>
      <trkpt lat="44.9828050" lon="6.8600540">
        <ele>2400.8</ele>
        <time>2017-07-28T09:09:20Z</time>
      </trkpt>
      <trkpt lat="44.9828730" lon="6.8601480">
        <ele>2400.0</ele>
        <time>2017-07-28T09:09:21Z</time>
      </trkpt>
      <trkpt lat="44.9829410" lon="6.8602440">
        <ele>2398.6</ele>
        <time>2017-07-28T09:09:22Z</time>
      </trkpt>
      <trkpt lat="44.9830140" lon="6.8603240">
        <ele>2397.6</ele>
        <time>2017-07-28T09:09:23Z</time>
      </trkpt>
      <trkpt lat="44.9830980" lon="6.8603730">
        <ele>2396.8</ele>
        <time>2017-07-28T09:09:24Z</time>
      </trkpt>
      <trkpt lat="44.9832730" lon="6.8604700">
        <ele>2395.4</ele>
        <time>2017-07-28T09:09:26Z</time>
      </trkpt>
      <trkpt lat="44.9833770" lon="6.8605330">
        <ele>2394.0</ele>
        <time>2017-07-28T09:09:27Z</time>
      </trkpt>
      <trkpt lat="44.9834860" lon="6.8606020">
        <ele>2392.8</ele>
        <time>2017-07-28T09:09:28Z</time>
      </trkpt>
      <trkpt lat="44.9836020" lon="6.8606620">
        <ele>2391.4</ele>
        <time>2017-07-28T09:09:29Z</time>
      </trkpt>
      <trkpt lat="44.9838230" lon="6.8607920">
        <ele>2389.4</ele>
        <time>2017-07-28T09:09:31Z</time>
      </trkpt>
      <trkpt lat="44.9839100" lon="6.8608680">
        <ele>2388.2</ele>
        <time>2017-07-28T09:09:32Z</time>
      </trkpt>
      <trkpt lat="44.9839920" lon="6.8609530">
        <ele>2387.0</ele>
        <time>2017-07-28T09:09:33Z</time>
      </trkpt>
      <trkpt lat="44.9841530" lon="6.8611000">
        <ele>2385.4</ele>
        <time>2017-07-28T09:09:35Z</time>
      </trkpt>
      <trkpt lat="44.9842370" lon="6.8611510">
        <ele>2384.8</ele>
        <time>2017-07-28T09:09:36Z</time>
      </trkpt>
      <trkpt lat="44.9843150" lon="6.8611860">
        <ele>2384.2</ele>
        <time>2017-07-28T09:09:37Z</time>
      </trkpt>
      <trkpt lat="44.9844210" lon="6.8612560">
        <ele>2382.6</ele>
        <time>2017-07-28T09:09:39Z</time>
      </trkpt>
      <trkpt lat="44.9844670" lon="6.8612890">
        <ele>2382.0</ele>
        <time>2017-07-28T09:09:40Z</time>
      </trkpt>
      <trkpt lat="44.9845430" lon="6.8613650">
        <ele>2381.6</ele>
        <time>2017-07-28T09:09:42Z</time>
      </trkpt>
      <trkpt lat="44.9845790" lon="6.8614280">
        <ele>2381.4</ele>
        <time>2017-07-28T09:09:44Z</time>
      </trkpt>
      <trkpt lat="44.9845580" lon="6.8614450">
        <ele>2381.2</ele>
        <time>2017-07-28T09:09:45Z</time>
      </trkpt>
      <trkpt lat="44.9845400" lon="6.8614890">
        <ele>2381.0</ele>
        <time>2017-07-28T09:09:47Z</time>
      </trkpt>
      <trkpt lat="44.9845140" lon="6.8615430">
        <ele>2380.8</ele>
        <time>2017-07-28T09:09:49Z</time>
      </trkpt>
      <trkpt lat="44.9844810" lon="6.8616040">
        <ele>2380.8</ele>
        <time>2017-07-28T09:09:51Z</time>
      </trkpt>
      <trkpt lat="44.9844560" lon="6.8616310">
        <ele>2380.6</ele>
        <time>2017-07-28T09:09:52Z</time>
      </trkpt>
      <trkpt lat="44.9844300" lon="6.8616580">
        <ele>2380.4</ele>
        <time>2017-07-28T09:09:53Z</time>
      </trkpt>
      <trkpt lat="44.9843630" lon="6.8617410">
        <ele>2380.4</ele>
        <time>2017-07-28T09:09:56Z</time>
      </trkpt>
      <trkpt lat="44.9843000" lon="6.8617740">
        <ele>2380.2</ele>
        <time>2017-07-28T09:09:58Z</time>
      </trkpt>
      <trkpt lat="44.9842400" lon="6.8618130">
        <ele>2380.2</ele>
        <time>2017-07-28T09:10:00Z</time>
      </trkpt>
      <trkpt lat="44.9841870" lon="6.8619160">
        <ele>2380.4</ele>
        <time>2017-07-28T09:10:05Z</time>
      </trkpt>
      <trkpt lat="44.9841480" lon="6.8619740">
        <ele>2380.6</ele>
        <time>2017-07-28T09:10:08Z</time>
      </trkpt>
      <trkpt lat="44.9841360" lon="6.8620930">
        <ele>2380.8</ele>
        <time>2017-07-28T09:10:13Z</time>
      </trkpt>
      <trkpt lat="44.9842340" lon="6.8622570">
        <ele>2381.4</ele>
        <time>2017-07-28T09:10:20Z</time>
      </trkpt>
      <trkpt lat="44.9842650" lon="6.8622980">
        <ele>2381.6</ele>
        <time>2017-07-28T09:10:22Z</time>
      </trkpt>
      <trkpt lat="44.9843530" lon="6.8623810">
        <ele>2382.4</ele>
        <time>2017-07-28T09:10:26Z</time>
      </trkpt>
      <trkpt lat="44.9843880" lon="6.8623960">
        <ele>2383.0</ele>
        <time>2017-07-28T09:10:27Z</time>
      </trkpt>
      <trkpt lat="44.9845850" lon="6.8624830">
        <ele>2383.2</ele>
        <time>2017-07-28T09:10:31Z</time>
      </trkpt>
      <trkpt lat="44.9846900" lon="6.8625870">
        <ele>2383.6</ele>
        <time>2017-07-28T09:10:34Z</time>
      </trkpt>
      <trkpt lat="44.9847220" lon="6.8626510">
        <ele>2384.2</ele>
        <time>2017-07-28T09:10:36Z</time>
      </trkpt>
      <trkpt lat="44.9847660" lon="6.8627390">
        <ele>2384.8</ele>
        <time>2017-07-28T09:10:39Z</time>
      </trkpt>
      <trkpt lat="44.9847980" lon="6.8628060">
        <ele>2385.4</ele>
        <time>2017-07-28T09:10:41Z</time>
      </trkpt>
      <trkpt lat="44.9847960" lon="6.8629020">
        <ele>2386.4</ele>
        <time>2017-07-28T09:10:44Z</time>
      </trkpt>
      <trkpt lat="44.9847900" lon="6.8629340">
        <ele>2386.6</ele>
        <time>2017-07-28T09:10:45Z</time>
      </trkpt>
      <trkpt lat="44.9847760" lon="6.8630210">
        <ele>2387.6</ele>
        <time>2017-07-28T09:10:48Z</time>
      </trkpt>
      <trkpt lat="44.9847500" lon="6.8630650">
        <ele>2388.0</ele>
        <time>2017-07-28T09:10:50Z</time>
      </trkpt>
      <trkpt lat="44.9847130" lon="6.8631500">
        <ele>2388.8</ele>
        <time>2017-07-28T09:10:53Z</time>
      </trkpt>
      <trkpt lat="44.9846860" lon="6.8633280">
        <ele>2389.4</ele>
        <time>2017-07-28T09:10:57Z</time>
      </trkpt>
      <trkpt lat="44.9846980" lon="6.8633840">
        <ele>2389.4</ele>
        <time>2017-07-28T09:10:58Z</time>
      </trkpt>
      <trkpt lat="44.9847590" lon="6.8635210">
        <ele>2389.0</ele>
        <time>2017-07-28T09:11:00Z</time>
      </trkpt>
      <trkpt lat="44.9848510" lon="6.8637250">
        <ele>2389.0</ele>
        <time>2017-07-28T09:11:03Z</time>
      </trkpt>
      <trkpt lat="44.9848580" lon="6.8637820">
        <ele>2389.0</ele>
        <time>2017-07-28T09:11:04Z</time>
      </trkpt>
      <trkpt lat="44.9848870" lon="6.8640200">
        <ele>2389.6</ele>
        <time>2017-07-28T09:11:08Z</time>
      </trkpt>
      <trkpt lat="44.9850050" lon="6.8642060">
        <ele>2389.4</ele>
        <time>2017-07-28T09:11:11Z</time>
      </trkpt>
      <trkpt lat="44.9850430" lon="6.8642580">
        <ele>2389.6</ele>
        <time>2017-07-28T09:11:12Z</time>
      </trkpt>
      <trkpt lat="44.9850790" lon="6.8642990">
        <ele>2389.6</ele>
        <time>2017-07-28T09:11:13Z</time>
      </trkpt>
      <trkpt lat="44.9851450" lon="6.8643720">
        <ele>2390.0</ele>
        <time>2017-07-28T09:11:15Z</time>
      </trkpt>
      <trkpt lat="44.9851750" lon="6.8644030">
        <ele>2390.4</ele>
        <time>2017-07-28T09:11:16Z</time>
      </trkpt>
      <trkpt lat="44.9852380" lon="6.8645230">
        <ele>2391.0</ele>
        <time>2017-07-28T09:11:19Z</time>
      </trkpt>
      <trkpt lat="44.9852510" lon="6.8645540">
        <ele>2391.4</ele>
        <time>2017-07-28T09:11:20Z</time>
      </trkpt>
      <trkpt lat="44.9853460" lon="6.8647440">
        <ele>2392.2</ele>
        <time>2017-07-28T09:11:25Z</time>
      </trkpt>
      <trkpt lat="44.9853620" lon="6.8647810">
        <ele>2392.6</ele>
        <time>2017-07-28T09:11:26Z</time>
      </trkpt>
      <trkpt lat="44.9854070" lon="6.8649400">
        <ele>2393.2</ele>
        <time>2017-07-28T09:11:30Z</time>
      </trkpt>
      <trkpt lat="44.9854360" lon="6.8650130">
        <ele>2393.8</ele>
        <time>2017-07-28T09:11:32Z</time>
      </trkpt>
      <trkpt lat="44.9854590" lon="6.8650910">
        <ele>2394.4</ele>
        <time>2017-07-28T09:11:34Z</time>
      </trkpt>
      <trkpt lat="44.9854960" lon="6.8652370">
        <ele>2395.4</ele>
        <time>2017-07-28T09:11:38Z</time>
      </trkpt>
      <trkpt lat="44.9855250" lon="6.8653160">
        <ele>2395.8</ele>
        <time>2017-07-28T09:11:40Z</time>
      </trkpt>
      <trkpt lat="44.9856060" lon="6.8654600">
        <ele>2396.4</ele>
        <time>2017-07-28T09:11:44Z</time>
      </trkpt>
      <trkpt lat="44.9856890" lon="6.8655520">
        <ele>2396.8</ele>
        <time>2017-07-28T09:11:47Z</time>
      </trkpt>
      <trkpt lat="44.9857970" lon="6.8656070">
        <ele>2397.2</ele>
        <time>2017-07-28T09:11:49Z</time>
      </trkpt>
      <trkpt lat="44.9858720" lon="6.8656140">
        <ele>2397.0</ele>
        <time>2017-07-28T09:11:50Z</time>
      </trkpt>
      <trkpt lat="44.9861960" lon="6.8656190">
        <ele>2395.4</ele>
        <time>2017-07-28T09:11:54Z</time>
      </trkpt>
      <trkpt lat="44.9862730" lon="6.8656710">
        <ele>2395.0</ele>
        <time>2017-07-28T09:11:55Z</time>
      </trkpt>
      <trkpt lat="44.9863540" lon="6.8657520">
        <ele>2394.2</ele>
        <time>2017-07-28T09:11:56Z</time>
      </trkpt>
      <trkpt lat="44.9864240" lon="6.8658500">
        <ele>2393.4</ele>
        <time>2017-07-28T09:11:57Z</time>
      </trkpt>
      <trkpt lat="44.9865690" lon="6.8659930">
        <ele>2392.6</ele>
        <time>2017-07-28T09:11:59Z</time>
      </trkpt>
      <trkpt lat="44.9866530" lon="6.8660140">
        <ele>2392.2</ele>
        <time>2017-07-28T09:12:00Z</time>
      </trkpt>
      <trkpt lat="44.9867440" lon="6.8660230">
        <ele>2392.0</ele>
        <time>2017-07-28T09:12:01Z</time>
      </trkpt>
      <trkpt lat="44.9869110" lon="6.8660570">
        <ele>2390.2</ele>
        <time>2017-07-28T09:12:03Z</time>
      </trkpt>
      <trkpt lat="44.9869780" lon="6.8661120">
        <ele>2389.6</ele>
        <time>2017-07-28T09:12:04Z</time>
      </trkpt>
      <trkpt lat="44.9870880" lon="6.8662470">
        <ele>2389.0</ele>
        <time>2017-07-28T09:12:06Z</time>
      </trkpt>
      <trkpt lat="44.9871270" lon="6.8663060">
        <ele>2389.0</ele>
        <time>2017-07-28T09:12:07Z</time>
      </trkpt>
      <trkpt lat="44.9871870" lon="6.8664470">
        <ele>2388.6</ele>
        <time>2017-07-28T09:12:10Z</time>
      </trkpt>
      <trkpt lat="44.9872940" lon="6.8666580">
        <ele>2388.8</ele>
        <time>2017-07-28T09:12:15Z</time>
      </trkpt>
      <trkpt lat="44.9873320" lon="6.8667520">
        <ele>2388.8</ele>
        <time>2017-07-28T09:12:17Z</time>
      </trkpt>
      <trkpt lat="44.9873450" lon="6.8668070">
        <ele>2389.0</ele>
        <time>2017-07-28T09:12:18Z</time>
      </trkpt>
      <trkpt lat="44.9873540" lon="6.8669170">
        <ele>2389.2</ele>
        <time>2017-07-28T09:12:21Z</time>
      </trkpt>
      <trkpt lat="44.9873630" lon="6.8670010">
        <ele>2389.4</ele>
        <time>2017-07-28T09:12:24Z</time>
      </trkpt>
      <trkpt lat="44.9873910" lon="6.8670830">
        <ele>2390.4</ele>
        <time>2017-07-28T09:12:27Z</time>
      </trkpt>
      <trkpt lat="44.9874630" lon="6.8671980">
        <ele>2391.0</ele>
        <time>2017-07-28T09:12:31Z</time>
      </trkpt>
      <trkpt lat="44.9875040" lon="6.8672520">
        <ele>2391.4</ele>
        <time>2017-07-28T09:12:33Z</time>
      </trkpt>
      <trkpt lat="44.9875230" lon="6.8672760">
        <ele>2391.6</ele>
        <time>2017-07-28T09:12:34Z</time>
      </trkpt>
      <trkpt lat="44.9875990" lon="6.8673740">
        <ele>2392.6</ele>
        <time>2017-07-28T09:12:38Z</time>
      </trkpt>
      <trkpt lat="44.9876550" lon="6.8674450">
        <ele>2393.4</ele>
        <time>2017-07-28T09:12:41Z</time>
      </trkpt>
      <trkpt lat="44.9876740" lon="6.8674630">
        <ele>2393.6</ele>
        <time>2017-07-28T09:12:42Z</time>
      </trkpt>
      <trkpt lat="44.9877220" lon="6.8675160">
        <ele>2394.8</ele>
        <time>2017-07-28T09:12:45Z</time>
      </trkpt>
      <trkpt lat="44.9877600" lon="6.8675480">
        <ele>2395.0</ele>
        <time>2017-07-28T09:12:47Z</time>
      </trkpt>
      <trkpt lat="44.9878190" lon="6.8675930">
        <ele>2396.0</ele>
        <time>2017-07-28T09:12:50Z</time>
      </trkpt>
      <trkpt lat="44.9878570" lon="6.8676130">
        <ele>2397.0</ele>
        <time>2017-07-28T09:12:52Z</time>
      </trkpt>
      <trkpt lat="44.9878930" lon="6.8676400">
        <ele>2397.6</ele>
        <time>2017-07-28T09:12:54Z</time>
      </trkpt>
      <trkpt lat="44.9879390" lon="6.8676930">
        <ele>2398.4</ele>
        <time>2017-07-28T09:12:57Z</time>
      </trkpt>
      <trkpt lat="44.9879930" lon="6.8677610">
        <ele>2399.6</ele>
        <time>2017-07-28T09:13:00Z</time>
      </trkpt>
      <trkpt lat="44.9881060" lon="6.8678770">
        <ele>2400.8</ele>
        <time>2017-07-28T09:13:05Z</time>
      </trkpt>
      <trkpt lat="44.9881480" lon="6.8679680">
        <ele>2401.2</ele>
        <time>2017-07-28T09:13:07Z</time>
      </trkpt>
      <trkpt lat="44.9881660" lon="6.8680190">
        <ele>2401.2</ele>
        <time>2017-07-28T09:13:08Z</time>
      </trkpt>
      <trkpt lat="44.9881990" lon="6.8681570">
        <ele>2401.8</ele>
        <time>2017-07-28T09:13:11Z</time>
      </trkpt>
      <trkpt lat="44.9882080" lon="6.8681980">
        <ele>2402.0</ele>
        <time>2017-07-28T09:13:12Z</time>
      </trkpt>
      <trkpt lat="44.9882190" lon="6.8682980">
        <ele>2403.0</ele>
        <time>2017-07-28T09:13:15Z</time>
      </trkpt>
      <trkpt lat="44.9882280" lon="6.8683490">
        <ele>2404.0</ele>
        <time>2017-07-28T09:13:17Z</time>
      </trkpt>
      <trkpt lat="44.9882430" lon="6.8683950">
        <ele>2405.4</ele>
        <time>2017-07-28T09:13:19Z</time>
      </trkpt>
      <trkpt lat="44.9882630" lon="6.8684450">
        <ele>2407.2</ele>
        <time>2017-07-28T09:13:21Z</time>
      </trkpt>
      <trkpt lat="44.9882900" lon="6.8684590">
        <ele>2408.0</ele>
        <time>2017-07-28T09:13:22Z</time>
      </trkpt>
      <trkpt lat="44.9883270" lon="6.8684610">
        <ele>2409.0</ele>
        <time>2017-07-28T09:13:23Z</time>
      </trkpt>
      <trkpt lat="44.9884270" lon="6.8684340">
        <ele>2410.4</ele>
        <time>2017-07-28T09:13:25Z</time>
      </trkpt>
      <trkpt lat="44.9884820" lon="6.8684120">
        <ele>2410.8</ele>
        <time>2017-07-28T09:13:26Z</time>
      </trkpt>
      <trkpt lat="44.9886100" lon="6.8683670">
        <ele>2411.6</ele>
        <time>2017-07-28T09:13:28Z</time>
      </trkpt>
      <trkpt lat="44.9888310" lon="6.8682840">
        <ele>2411.4</ele>
        <time>2017-07-28T09:13:31Z</time>
      </trkpt>
      <trkpt lat="44.9889170" lon="6.8682750">
        <ele>2411.6</ele>
        <time>2017-07-28T09:13:32Z</time>
      </trkpt>
      <trkpt lat="44.9890970" lon="6.8683110">
        <ele>2411.2</ele>
        <time>2017-07-28T09:13:34Z</time>
      </trkpt>
      <trkpt lat="44.9892910" lon="6.8683350">
        <ele>2410.2</ele>
        <time>2017-07-28T09:13:36Z</time>
      </trkpt>
      <trkpt lat="44.9893990" lon="6.8683230">
        <ele>2409.6</ele>
        <time>2017-07-28T09:13:37Z</time>
      </trkpt>
      <trkpt lat="44.9895060" lon="6.8682990">
        <ele>2409.2</ele>
        <time>2017-07-28T09:13:38Z</time>
      </trkpt>
      <trkpt lat="44.9896140" lon="6.8682780">
        <ele>2408.6</ele>
        <time>2017-07-28T09:13:39Z</time>
      </trkpt>
      <trkpt lat="44.9898160" lon="6.8682430">
        <ele>2407.0</ele>
        <time>2017-07-28T09:13:41Z</time>
      </trkpt>
      <trkpt lat="44.9898900" lon="6.8682220">
        <ele>2406.0</ele>
        <time>2017-07-28T09:13:42Z</time>
      </trkpt>
      <trkpt lat="44.9899390" lon="6.8681730">
        <ele>2405.0</ele>
        <time>2017-07-28T09:13:43Z</time>
      </trkpt>
      <trkpt lat="44.9899850" lon="6.8681190">
        <ele>2404.8</ele>
        <time>2017-07-28T09:13:44Z</time>
      </trkpt>
      <trkpt lat="44.9901060" lon="6.8680590">
        <ele>2403.6</ele>
        <time>2017-07-28T09:13:46Z</time>
      </trkpt>
      <trkpt lat="44.9902550" lon="6.8680260">
        <ele>2401.6</ele>
        <time>2017-07-28T09:13:48Z</time>
      </trkpt>
      <trkpt lat="44.9903370" lon="6.8680080">
        <ele>2401.0</ele>
        <time>2017-07-28T09:13:49Z</time>
      </trkpt>
      <trkpt lat="44.9904240" lon="6.8680030">
        <ele>2400.4</ele>
        <time>2017-07-28T09:13:50Z</time>
      </trkpt>
      <trkpt lat="44.9906090" lon="6.8680010">
        <ele>2398.8</ele>
        <time>2017-07-28T09:13:52Z</time>
      </trkpt>
      <trkpt lat="44.9907960" lon="6.8680400">
        <ele>2397.0</ele>
        <time>2017-07-28T09:13:54Z</time>
      </trkpt>
      <trkpt lat="44.9908980" lon="6.8680630">
        <ele>2396.0</ele>
        <time>2017-07-28T09:13:55Z</time>
      </trkpt>
      <trkpt lat="44.9910010" lon="6.8680550">
        <ele>2395.2</ele>
        <time>2017-07-28T09:13:56Z</time>
      </trkpt>
      <trkpt lat="44.9911870" lon="6.8680070">
        <ele>2393.4</ele>
        <time>2017-07-28T09:13:58Z</time>
      </trkpt>
      <trkpt lat="44.9913310" lon="6.8679640">
        <ele>2391.8</ele>
        <time>2017-07-28T09:14:00Z</time>
      </trkpt>
      <trkpt lat="44.9913950" lon="6.8679290">
        <ele>2390.8</ele>
        <time>2017-07-28T09:14:01Z</time>
      </trkpt>
      <trkpt lat="44.9914590" lon="6.8678720">
        <ele>2389.6</ele>
        <time>2017-07-28T09:14:02Z</time>
      </trkpt>
      <trkpt lat="44.9915110" lon="6.8677990">
        <ele>2388.2</ele>
        <time>2017-07-28T09:14:03Z</time>
      </trkpt>
      <trkpt lat="44.9915600" lon="6.8677120">
        <ele>2386.4</ele>
        <time>2017-07-28T09:14:05Z</time>
      </trkpt>
      <trkpt lat="44.9915400" lon="6.8676810">
        <ele>2384.8</ele>
        <time>2017-07-28T09:14:06Z</time>
      </trkpt>
      <trkpt lat="44.9915160" lon="6.8676410">
        <ele>2383.6</ele>
        <time>2017-07-28T09:14:07Z</time>
      </trkpt>
      <trkpt lat="44.9914710" lon="6.8676150">
        <ele>2382.2</ele>
        <time>2017-07-28T09:14:08Z</time>
      </trkpt>
      <trkpt lat="44.9914120" lon="6.8675780">
        <ele>2381.2</ele>
        <time>2017-07-28T09:14:09Z</time>
      </trkpt>
      <trkpt lat="44.9913260" lon="6.8675440">
        <ele>2380.0</ele>
        <time>2017-07-28T09:14:10Z</time>
      </trkpt>
      <trkpt lat="44.9911920" lon="6.8675180">
        <ele>2378.8</ele>
        <time>2017-07-28T09:14:11Z</time>
      </trkpt>
      <trkpt lat="44.9910240" lon="6.8674700">
        <ele>2377.4</ele>
        <time>2017-07-28T09:14:12Z</time>
      </trkpt>
      <trkpt lat="44.9908770" lon="6.8673960">
        <ele>2376.6</ele>
        <time>2017-07-28T09:14:13Z</time>
      </trkpt>
      <trkpt lat="44.9907490" lon="6.8673190">
        <ele>2375.6</ele>
        <time>2017-07-28T09:14:14Z</time>
      </trkpt>
      <trkpt lat="44.9906310" lon="6.8672120">
        <ele>2374.8</ele>
        <time>2017-07-28T09:14:15Z</time>
      </trkpt>
      <trkpt lat="44.9905290" lon="6.8671110">
        <ele>2373.6</ele>
        <time>2017-07-28T09:14:16Z</time>
      </trkpt>
      <trkpt lat="44.9904340" lon="6.8670030">
        <ele>2373.0</ele>
        <time>2017-07-28T09:14:17Z</time>
      </trkpt>
      <trkpt lat="44.9903330" lon="6.8668960">
        <ele>2372.0</ele>
        <time>2017-07-28T09:14:18Z</time>
      </trkpt>
      <trkpt lat="44.9901300" lon="6.8666490">
        <ele>2370.4</ele>
        <time>2017-07-28T09:14:20Z</time>
      </trkpt>
      <trkpt lat="44.9900310" lon="6.8665430">
        <ele>2369.4</ele>
        <time>2017-07-28T09:14:21Z</time>
      </trkpt>
      <trkpt lat="44.9899310" lon="6.8664690">
        <ele>2368.4</ele>
        <time>2017-07-28T09:14:22Z</time>
      </trkpt>
      <trkpt lat="44.9898740" lon="6.8663790">
        <ele>2367.2</ele>
        <time>2017-07-28T09:14:23Z</time>
      </trkpt>
      <trkpt lat="44.9898420" lon="6.8662720">
        <ele>2366.0</ele>
        <time>2017-07-28T09:14:24Z</time>
      </trkpt>
      <trkpt lat="44.9898320" lon="6.8661620">
        <ele>2364.6</ele>
        <time>2017-07-28T09:14:25Z</time>
      </trkpt>
      <trkpt lat="44.9898130" lon="6.8660510">
        <ele>2363.6</ele>
        <time>2017-07-28T09:14:26Z</time>
      </trkpt>
      <trkpt lat="44.9897820" lon="6.8659310">
        <ele>2362.2</ele>
        <time>2017-07-28T09:14:27Z</time>
      </trkpt>
      <trkpt lat="44.9897070" lon="6.8656810">
        <ele>2361.0</ele>
        <time>2017-07-28T09:14:29Z</time>
      </trkpt>
      <trkpt lat="44.9896330" lon="6.8653960">
        <ele>2360.0</ele>
        <time>2017-07-28T09:14:31Z</time>
      </trkpt>
      <trkpt lat="44.9896150" lon="6.8652450">
        <ele>2358.6</ele>
        <time>2017-07-28T09:14:32Z</time>
      </trkpt>
      <trkpt lat="44.9895980" lon="6.8650960">
        <ele>2357.2</ele>
        <time>2017-07-28T09:14:33Z</time>
      </trkpt>
      <trkpt lat="44.9895720" lon="6.8649780">
        <ele>2355.8</ele>
        <time>2017-07-28T09:14:34Z</time>
      </trkpt>
      <trkpt lat="44.9895160" lon="6.8648690">
        <ele>2354.8</ele>
        <time>2017-07-28T09:14:35Z</time>
      </trkpt>
      <trkpt lat="44.9894320" lon="6.8648040">
        <ele>2353.2</ele>
        <time>2017-07-28T09:14:36Z</time>
      </trkpt>
      <trkpt lat="44.9893550" lon="6.8647470">
        <ele>2351.8</ele>
        <time>2017-07-28T09:14:37Z</time>
      </trkpt>
      <trkpt lat="44.9892610" lon="6.8646900">
        <ele>2350.4</ele>
        <time>2017-07-28T09:14:38Z</time>
      </trkpt>
      <trkpt lat="44.9891720" lon="6.8646330">
        <ele>2349.0</ele>
        <time>2017-07-28T09:14:39Z</time>
      </trkpt>
      <trkpt lat="44.9891010" lon="6.8645430">
        <ele>2347.4</ele>
        <time>2017-07-28T09:14:40Z</time>
      </trkpt>
      <trkpt lat="44.9890370" lon="6.8644370">
        <ele>2346.0</ele>
        <time>2017-07-28T09:14:41Z</time>
      </trkpt>
      <trkpt lat="44.9889840" lon="6.8643250">
        <ele>2344.6</ele>
        <time>2017-07-28T09:14:42Z</time>
      </trkpt>
      <trkpt lat="44.9889480" lon="6.8642060">
        <ele>2343.0</ele>
        <time>2017-07-28T09:14:43Z</time>
      </trkpt>
      <trkpt lat="44.9889310" lon="6.8640910">
        <ele>2341.8</ele>
        <time>2017-07-28T09:14:44Z</time>
      </trkpt>
      <trkpt lat="44.9889350" lon="6.8639810">
        <ele>2340.4</ele>
        <time>2017-07-28T09:14:45Z</time>
      </trkpt>
      <trkpt lat="44.9889540" lon="6.8638780">
        <ele>2339.2</ele>
        <time>2017-07-28T09:14:46Z</time>
      </trkpt>
      <trkpt lat="44.9889880" lon="6.8637750">
        <ele>2338.2</ele>
        <time>2017-07-28T09:14:47Z</time>
      </trkpt>
      <trkpt lat="44.9890310" lon="6.8636670">
        <ele>2337.0</ele>
        <time>2017-07-28T09:14:48Z</time>
      </trkpt>
      <trkpt lat="44.9890710" lon="6.8635550">
        <ele>2335.8</ele>
        <time>2017-07-28T09:14:49Z</time>
      </trkpt>
      <trkpt lat="44.9891150" lon="6.8634520">
        <ele>2334.2</ele>
        <time>2017-07-28T09:14:50Z</time>
      </trkpt>
      <trkpt lat="44.9891670" lon="6.8633670">
        <ele>2331.0</ele>
        <time>2017-07-28T09:14:51Z</time>
      </trkpt>
      <trkpt lat="44.9892450" lon="6.8633090">
        <ele>2329.4</ele>
        <time>2017-07-28T09:14:52Z</time>
      </trkpt>
      <trkpt lat="44.9893310" lon="6.8632770">
        <ele>2328.4</ele>
        <time>2017-07-28T09:14:53Z</time>
      </trkpt>
      <trkpt lat="44.9894170" lon="6.8632380">
        <ele>2326.8</ele>
        <time>2017-07-28T09:14:54Z</time>
      </trkpt>
      <trkpt lat="44.9894950" lon="6.8632140">
        <ele>2325.4</ele>
        <time>2017-07-28T09:14:55Z</time>
      </trkpt>
      <trkpt lat="44.9895630" lon="6.8632320">
        <ele>2323.6</ele>
        <time>2017-07-28T09:14:56Z</time>
      </trkpt>
      <trkpt lat="44.9896190" lon="6.8632930">
        <ele>2321.8</ele>
        <time>2017-07-28T09:14:57Z</time>
      </trkpt>
      <trkpt lat="44.9896540" lon="6.8633630">
        <ele>2320.0</ele>
        <time>2017-07-28T09:14:58Z</time>
      </trkpt>
      <trkpt lat="44.9896900" lon="6.8634210">
        <ele>2318.2</ele>
        <time>2017-07-28T09:14:59Z</time>
      </trkpt>
      <trkpt lat="44.9897310" lon="6.8634170">
        <ele>2316.8</ele>
        <time>2017-07-28T09:15:00Z</time>
      </trkpt>
      <trkpt lat="44.9897560" lon="6.8633630">
        <ele>2315.6</ele>
        <time>2017-07-28T09:15:01Z</time>
      </trkpt>
      <trkpt lat="44.9897790" lon="6.8632830">
        <ele>2314.4</ele>
        <time>2017-07-28T09:15:02Z</time>
      </trkpt>
      <trkpt lat="44.9897870" lon="6.8631900">
        <ele>2313.2</ele>
        <time>2017-07-28T09:15:03Z</time>
      </trkpt>
      <trkpt lat="44.9897790" lon="6.8630790">
        <ele>2311.8</ele>
        <time>2017-07-28T09:15:04Z</time>
      </trkpt>
      <trkpt lat="44.9897630" lon="6.8629600">
        <ele>2310.6</ele>
        <time>2017-07-28T09:15:05Z</time>
      </trkpt>
      <trkpt lat="44.9897570" lon="6.8628350">
        <ele>2309.6</ele>
        <time>2017-07-28T09:15:06Z</time>
      </trkpt>
      <trkpt lat="44.9897530" lon="6.8627200">
        <ele>2308.4</ele>
        <time>2017-07-28T09:15:07Z</time>
      </trkpt>
      <trkpt lat="44.9897540" lon="6.8626150">
        <ele>2307.4</ele>
        <time>2017-07-28T09:15:08Z</time>
      </trkpt>
      <trkpt lat="44.9897650" lon="6.8625280">
        <ele>2306.6</ele>
        <time>2017-07-28T09:15:09Z</time>
      </trkpt>
      <trkpt lat="44.9897990" lon="6.8624770">
        <ele>2305.4</ele>
        <time>2017-07-28T09:15:10Z</time>
      </trkpt>
      <trkpt lat="44.9898330" lon="6.8624290">
        <ele>2304.2</ele>
        <time>2017-07-28T09:15:11Z</time>
      </trkpt>
      <trkpt lat="44.9898810" lon="6.8624040">
        <ele>2302.8</ele>
        <time>2017-07-28T09:15:12Z</time>
      </trkpt>
      <trkpt lat="44.9899380" lon="6.8624280">
        <ele>2301.6</ele>
        <time>2017-07-28T09:15:13Z</time>
      </trkpt>
      <trkpt lat="44.9899960" lon="6.8624950">
        <ele>2300.4</ele>
        <time>2017-07-28T09:15:14Z</time>
      </trkpt>
      <trkpt lat="44.9900490" lon="6.8625820">
        <ele>2297.0</ele>
        <time>2017-07-28T09:15:15Z</time>
      </trkpt>
      <trkpt lat="44.9900900" lon="6.8626770">
        <ele>2295.6</ele>
        <time>2017-07-28T09:15:16Z</time>
      </trkpt>
      <trkpt lat="44.9901410" lon="6.8627690">
        <ele>2294.2</ele>
        <time>2017-07-28T09:15:17Z</time>
      </trkpt>
      <trkpt lat="44.9901970" lon="6.8628340">
        <ele>2293.0</ele>
        <time>2017-07-28T09:15:18Z</time>
      </trkpt>
      <trkpt lat="44.9902660" lon="6.8628700">
        <ele>2291.8</ele>
        <time>2017-07-28T09:15:19Z</time>
      </trkpt>
      <trkpt lat="44.9904170" lon="6.8628920">
        <ele>2290.2</ele>
        <time>2017-07-28T09:15:21Z</time>
      </trkpt>
      <trkpt lat="44.9905050" lon="6.8629080">
        <ele>2289.2</ele>
        <time>2017-07-28T09:15:22Z</time>
      </trkpt>
      <trkpt lat="44.9905930" lon="6.8629340">
        <ele>2288.0</ele>
        <time>2017-07-28T09:15:23Z</time>
      </trkpt>
      <trkpt lat="44.9906710" lon="6.8629750">
        <ele>2286.8</ele>
        <time>2017-07-28T09:15:24Z</time>
      </trkpt>
      <trkpt lat="44.9907330" lon="6.8630220">
        <ele>2286.0</ele>
        <time>2017-07-28T09:15:25Z</time>
      </trkpt>
      <trkpt lat="44.9907870" lon="6.8630770">
        <ele>2285.2</ele>
        <time>2017-07-28T09:15:26Z</time>
      </trkpt>
      <trkpt lat="44.9909080" lon="6.8630890">
        <ele>2284.0</ele>
        <time>2017-07-28T09:15:28Z</time>
      </trkpt>
      <trkpt lat="44.9909880" lon="6.8629380">
        <ele>2283.2</ele>
        <time>2017-07-28T09:15:30Z</time>
      </trkpt>
      <trkpt lat="44.9909940" lon="6.8628310">
        <ele>2282.8</ele>
        <time>2017-07-28T09:15:31Z</time>
      </trkpt>
      <trkpt lat="44.9910050" lon="6.8627080">
        <ele>2282.6</ele>
        <time>2017-07-28T09:15:32Z</time>
      </trkpt>
      <trkpt lat="44.9910120" lon="6.8624610">
        <ele>2282.0</ele>
        <time>2017-07-28T09:15:34Z</time>
      </trkpt>
      <trkpt lat="44.9909870" lon="6.8623280">
        <ele>2281.6</ele>
        <time>2017-07-28T09:15:35Z</time>
      </trkpt>
      <trkpt lat="44.9908730" lon="6.8618330">
        <ele>2279.0</ele>
        <time>2017-07-28T09:15:39Z</time>
      </trkpt>
      <trkpt lat="44.9908320" lon="6.8617040">
        <ele>2278.4</ele>
        <time>2017-07-28T09:15:40Z</time>
      </trkpt>
      <trkpt lat="44.9907990" lon="6.8615690">
        <ele>2277.0</ele>
        <time>2017-07-28T09:15:41Z</time>
      </trkpt>
      <trkpt lat="44.9907760" lon="6.8614420">
        <ele>2276.0</ele>
        <time>2017-07-28T09:15:42Z</time>
      </trkpt>
      <trkpt lat="44.9907740" lon="6.8613230">
        <ele>2274.2</ele>
        <time>2017-07-28T09:15:43Z</time>
      </trkpt>
      <trkpt lat="44.9907890" lon="6.8612060">
        <ele>2273.0</ele>
        <time>2017-07-28T09:15:44Z</time>
      </trkpt>
      <trkpt lat="44.9908160" lon="6.8611010">
        <ele>2271.6</ele>
        <time>2017-07-28T09:15:45Z</time>
      </trkpt>
      <trkpt lat="44.9908470" lon="6.8610060">
        <ele>2270.2</ele>
        <time>2017-07-28T09:15:46Z</time>
      </trkpt>
      <trkpt lat="44.9909020" lon="6.8609210">
        <ele>2268.8</ele>
        <time>2017-07-28T09:15:47Z</time>
      </trkpt>
      <trkpt lat="44.9909550" lon="6.8608310">
        <ele>2267.4</ele>
        <time>2017-07-28T09:15:48Z</time>
      </trkpt>
      <trkpt lat="44.9910320" lon="6.8607380">
        <ele>2265.6</ele>
        <time>2017-07-28T09:15:49Z</time>
      </trkpt>
      <trkpt lat="44.9911210" lon="6.8606360">
        <ele>2264.0</ele>
        <time>2017-07-28T09:15:50Z</time>
      </trkpt>
      <trkpt lat="44.9912170" lon="6.8605360">
        <ele>2262.4</ele>
        <time>2017-07-28T09:15:51Z</time>
      </trkpt>
      <trkpt lat="44.9912990" lon="6.8604680">
        <ele>2260.8</ele>
        <time>2017-07-28T09:15:52Z</time>
      </trkpt>
      <trkpt lat="44.9914000" lon="6.8604230">
        <ele>2259.0</ele>
        <time>2017-07-28T09:15:53Z</time>
      </trkpt>
      <trkpt lat="44.9915090" lon="6.8603670">
        <ele>2257.0</ele>
        <time>2017-07-28T09:15:54Z</time>
      </trkpt>
      <trkpt lat="44.9916290" lon="6.8603040">
        <ele>2255.0</ele>
        <time>2017-07-28T09:15:55Z</time>
      </trkpt>
      <trkpt lat="44.9917460" lon="6.8602100">
        <ele>2253.0</ele>
        <time>2017-07-28T09:15:56Z</time>
      </trkpt>
      <trkpt lat="44.9918550" lon="6.8601030">
        <ele>2251.0</ele>
        <time>2017-07-28T09:15:57Z</time>
      </trkpt>
      <trkpt lat="44.9919510" lon="6.8599920">
        <ele>2249.2</ele>
        <time>2017-07-28T09:15:58Z</time>
      </trkpt>
      <trkpt lat="44.9920400" lon="6.8598740">
        <ele>2247.4</ele>
        <time>2017-07-28T09:15:59Z</time>
      </trkpt>
      <trkpt lat="44.9921270" lon="6.8597370">
        <ele>2245.6</ele>
        <time>2017-07-28T09:16:00Z</time>
      </trkpt>
      <trkpt lat="44.9922160" lon="6.8595750">
        <ele>2243.6</ele>
        <time>2017-07-28T09:16:01Z</time>
      </trkpt>
      <trkpt lat="44.9923010" lon="6.8594160">
        <ele>2241.8</ele>
        <time>2017-07-28T09:16:02Z</time>
      </trkpt>
      <trkpt lat="44.9923880" lon="6.8592510">
        <ele>2238.4</ele>
        <time>2017-07-28T09:16:03Z</time>
      </trkpt>
      <trkpt lat="44.9924650" lon="6.8591120">
        <ele>2236.4</ele>
        <time>2017-07-28T09:16:04Z</time>
      </trkpt>
      <trkpt lat="44.9925420" lon="6.8589840">
        <ele>2234.6</ele>
        <time>2017-07-28T09:16:05Z</time>
      </trkpt>
      <trkpt lat="44.9925960" lon="6.8588590">
        <ele>2232.8</ele>
        <time>2017-07-28T09:16:06Z</time>
      </trkpt>
      <trkpt lat="44.9926450" lon="6.8587460">
        <ele>2230.8</ele>
        <time>2017-07-28T09:16:07Z</time>
      </trkpt>
      <trkpt lat="44.9926910" lon="6.8586250">
        <ele>2228.8</ele>
        <time>2017-07-28T09:16:08Z</time>
      </trkpt>
      <trkpt lat="44.9927390" lon="6.8585030">
        <ele>2227.2</ele>
        <time>2017-07-28T09:16:09Z</time>
      </trkpt>
      <trkpt lat="44.9927840" lon="6.8583620">
        <ele>2225.6</ele>
        <time>2017-07-28T09:16:10Z</time>
      </trkpt>
      <trkpt lat="44.9928180" lon="6.8582390">
        <ele>2223.8</ele>
        <time>2017-07-28T09:16:11Z</time>
      </trkpt>
      <trkpt lat="44.9928490" lon="6.8581230">
        <ele>2221.8</ele>
        <time>2017-07-28T09:16:12Z</time>
      </trkpt>
      <trkpt lat="44.9928700" lon="6.8580140">
        <ele>2219.8</ele>
        <time>2017-07-28T09:16:13Z</time>
      </trkpt>
      <trkpt lat="44.9928760" lon="6.8578930">
        <ele>2217.6</ele>
        <time>2017-07-28T09:16:14Z</time>
      </trkpt>
      <trkpt lat="44.9928580" lon="6.8577550">
        <ele>2215.6</ele>
        <time>2017-07-28T09:16:15Z</time>
      </trkpt>
      <trkpt lat="44.9928340" lon="6.8576060">
        <ele>2213.4</ele>
        <time>2017-07-28T09:16:16Z</time>
      </trkpt>
      <trkpt lat="44.9928120" lon="6.8574780">
        <ele>2211.4</ele>
        <time>2017-07-28T09:16:17Z</time>
      </trkpt>
      <trkpt lat="44.9927910" lon="6.8573630">
        <ele>2209.4</ele>
        <time>2017-07-28T09:16:18Z</time>
      </trkpt>
      <trkpt lat="44.9927760" lon="6.8572660">
        <ele>2207.4</ele>
        <time>2017-07-28T09:16:19Z</time>
      </trkpt>
      <trkpt lat="44.9927830" lon="6.8571750">
        <ele>2205.0</ele>
        <time>2017-07-28T09:16:20Z</time>
      </trkpt>
      <trkpt lat="44.9928120" lon="6.8570880">
        <ele>2202.8</ele>
        <time>2017-07-28T09:16:21Z</time>
      </trkpt>
      <trkpt lat="44.9928430" lon="6.8570130">
        <ele>2201.0</ele>
        <time>2017-07-28T09:16:22Z</time>
      </trkpt>
      <trkpt lat="44.9928780" lon="6.8569310">
        <ele>2199.4</ele>
        <time>2017-07-28T09:16:23Z</time>
      </trkpt>
      <trkpt lat="44.9929040" lon="6.8568470">
        <ele>2197.4</ele>
        <time>2017-07-28T09:16:24Z</time>
      </trkpt>
      <trkpt lat="44.9929240" lon="6.8567700">
        <ele>2195.4</ele>
        <time>2017-07-28T09:16:25Z</time>
      </trkpt>
      <trkpt lat="44.9929400" lon="6.8566930">
        <ele>2193.2</ele>
        <time>2017-07-28T09:16:26Z</time>
      </trkpt>
      <trkpt lat="44.9929560" lon="6.8566110">
        <ele>2189.8</ele>
        <time>2017-07-28T09:16:27Z</time>
      </trkpt>
      <trkpt lat="44.9929720" lon="6.8565300">
        <ele>2187.8</ele>
        <time>2017-07-28T09:16:28Z</time>
      </trkpt>
      <trkpt lat="44.9929950" lon="6.8564650">
        <ele>2185.8</ele>
        <time>2017-07-28T09:16:29Z</time>
      </trkpt>
      <trkpt lat="44.9930230" lon="6.8563960">
        <ele>2183.4</ele>
        <time>2017-07-28T09:16:30Z</time>
      </trkpt>
      <trkpt lat="44.9930420" lon="6.8563250">
        <ele>2181.8</ele>
        <time>2017-07-28T09:16:31Z</time>
      </trkpt>
      <trkpt lat="44.9930570" lon="6.8562450">
        <ele>2180.0</ele>
        <time>2017-07-28T09:16:32Z</time>
      </trkpt>
      <trkpt lat="44.9930700" lon="6.8561620">
        <ele>2178.4</ele>
        <time>2017-07-28T09:16:33Z</time>
      </trkpt>
      <trkpt lat="44.9930790" lon="6.8560890">
        <ele>2176.2</ele>
        <time>2017-07-28T09:16:34Z</time>
      </trkpt>
      <trkpt lat="44.9930810" lon="6.8560110">
        <ele>2174.0</ele>
        <time>2017-07-28T09:16:35Z</time>
      </trkpt>
      <trkpt lat="44.9930610" lon="6.8559330">
        <ele>2171.6</ele>
        <time>2017-07-28T09:16:36Z</time>
      </trkpt>
      <trkpt lat="44.9930360" lon="6.8558630">
        <ele>2169.6</ele>
        <time>2017-07-28T09:16:37Z</time>
      </trkpt>
      <trkpt lat="44.9929550" lon="6.8557720">
        <ele>2167.0</ele>
        <time>2017-07-28T09:16:38Z</time>
      </trkpt>
      <trkpt lat="44.9928880" lon="6.8556740">
        <ele>2164.8</ele>
        <time>2017-07-28T09:16:39Z</time>
      </trkpt>
      <trkpt lat="44.9928270" lon="6.8555460">
        <ele>2162.4</ele>
        <time>2017-07-28T09:16:40Z</time>
      </trkpt>
      <trkpt lat="44.9927790" lon="6.8554250">
        <ele>2161.0</ele>
        <time>2017-07-28T09:16:41Z</time>
      </trkpt>
      <trkpt lat="44.9927270" lon="6.8553110">
        <ele>2159.0</ele>
        <time>2017-07-28T09:16:42Z</time>
      </trkpt>
      <trkpt lat="44.9926670" lon="6.8552030">
        <ele>2157.0</ele>
        <time>2017-07-28T09:16:43Z</time>
      </trkpt>
      <trkpt lat="44.9926050" lon="6.8551100">
        <ele>2154.6</ele>
        <time>2017-07-28T09:16:44Z</time>
      </trkpt>
      <trkpt lat="44.9925400" lon="6.8550190">
        <ele>2152.2</ele>
        <time>2017-07-28T09:16:45Z</time>
      </trkpt>
      <trkpt lat="44.9924610" lon="6.8549280">
        <ele>2150.0</ele>
        <time>2017-07-28T09:16:46Z</time>
      </trkpt>
      <trkpt lat="44.9923870" lon="6.8548300">
        <ele>2147.8</ele>
        <time>2017-07-28T09:16:47Z</time>
      </trkpt>
      <trkpt lat="44.9923290" lon="6.8547500">
        <ele>2145.6</ele>
        <time>2017-07-28T09:16:48Z</time>
      </trkpt>
      <trkpt lat="44.9922860" lon="6.8546880">
        <ele>2143.4</ele>
        <time>2017-07-28T09:16:49Z</time>
      </trkpt>
      <trkpt lat="44.9922300" lon="6.8546220">
        <ele>2141.4</ele>
        <time>2017-07-28T09:16:50Z</time>
      </trkpt>
      <trkpt lat="44.9921740" lon="6.8545550">
        <ele>2138.0</ele>
        <time>2017-07-28T09:16:51Z</time>
      </trkpt>
      <trkpt lat="44.9921140" lon="6.8544770">
        <ele>2136.2</ele>
        <time>2017-07-28T09:16:52Z</time>
      </trkpt>
      <trkpt lat="44.9920710" lon="6.8543870">
        <ele>2134.0</ele>
        <time>2017-07-28T09:16:53Z</time>
      </trkpt>
      <trkpt lat="44.9920500" lon="6.8542810">
        <ele>2132.2</ele>
        <time>2017-07-28T09:16:54Z</time>
      </trkpt>
      <trkpt lat="44.9920540" lon="6.8541740">
        <ele>2130.6</ele>
        <time>2017-07-28T09:16:55Z</time>
      </trkpt>
      <trkpt lat="44.9920800" lon="6.8540630">
        <ele>2129.4</ele>
        <time>2017-07-28T09:16:56Z</time>
      </trkpt>
      <trkpt lat="44.9921050" lon="6.8539600">
        <ele>2128.0</ele>
        <time>2017-07-28T09:16:57Z</time>
      </trkpt>
      <trkpt lat="44.9921460" lon="6.8538760">
        <ele>2126.4</ele>
        <time>2017-07-28T09:16:58Z</time>
      </trkpt>
      <trkpt lat="44.9921990" lon="6.8538160">
        <ele>2124.8</ele>
        <time>2017-07-28T09:16:59Z</time>
      </trkpt>
      <trkpt lat="44.9922550" lon="6.8537750">
        <ele>2123.2</ele>
        <time>2017-07-28T09:17:00Z</time>
      </trkpt>
      <trkpt lat="44.9923130" lon="6.8537460">
        <ele>2121.6</ele>
        <time>2017-07-28T09:17:01Z</time>
      </trkpt>
      <trkpt lat="44.9923710" lon="6.8537340">
        <ele>2120.0</ele>
        <time>2017-07-28T09:17:02Z</time>
      </trkpt>
      <trkpt lat="44.9924310" lon="6.8537250">
        <ele>2118.4</ele>
        <time>2017-07-28T09:17:03Z</time>
      </trkpt>
      <trkpt lat="44.9924910" lon="6.8537170">
        <ele>2116.6</ele>
        <time>2017-07-28T09:17:04Z</time>
      </trkpt>
      <trkpt lat="44.9925470" lon="6.8536950">
        <ele>2114.8</ele>
        <time>2017-07-28T09:17:05Z</time>
      </trkpt>
      <trkpt lat="44.9925940" lon="6.8536620">
        <ele>2113.2</ele>
        <time>2017-07-28T09:17:06Z</time>
      </trkpt>
      <trkpt lat="44.9926280" lon="6.8536130">
        <ele>2111.8</ele>
        <time>2017-07-28T09:17:07Z</time>
      </trkpt>
      <trkpt lat="44.9926420" lon="6.8535450">
        <ele>2110.2</ele>
        <time>2017-07-28T09:17:08Z</time>
      </trkpt>
      <trkpt lat="44.9926210" lon="6.8534910">
        <ele>2109.0</ele>
        <time>2017-07-28T09:17:09Z</time>
      </trkpt>
      <trkpt lat="44.9925750" lon="6.8534540">
        <ele>2107.4</ele>
        <time>2017-07-28T09:17:10Z</time>
      </trkpt>
      <trkpt lat="44.9925240" lon="6.8534010">
        <ele>2106.0</ele>
        <time>2017-07-28T09:17:11Z</time>
      </trkpt>
      <trkpt lat="44.9924820" lon="6.8533380">
        <ele>2104.4</ele>
        <time>2017-07-28T09:17:12Z</time>
      </trkpt>
      <trkpt lat="44.9924580" lon="6.8532760">
        <ele>2103.0</ele>
        <time>2017-07-28T09:17:13Z</time>
      </trkpt>
      <trkpt lat="44.9924540" lon="6.8532350">
        <ele>2101.6</ele>
        <time>2017-07-28T09:17:14Z</time>
      </trkpt>
      <trkpt lat="44.9924620" lon="6.8532180">
        <ele>2099.0</ele>
        <time>2017-07-28T09:17:15Z</time>
      </trkpt>
      <trkpt lat="44.9924700" lon="6.8532010">
        <ele>2097.8</ele>
        <time>2017-07-28T09:17:16Z</time>
      </trkpt>
      <trkpt lat="44.9924850" lon="6.8531700">
        <ele>2096.6</ele>
        <time>2017-07-28T09:17:17Z</time>
      </trkpt>
      <trkpt lat="44.9925200" lon="6.8531280">
        <ele>2095.2</ele>
        <time>2017-07-28T09:17:18Z</time>
      </trkpt>
      <trkpt lat="44.9925700" lon="6.8530810">
        <ele>2093.8</ele>
        <time>2017-07-28T09:17:19Z</time>
      </trkpt>
      <trkpt lat="44.9926300" lon="6.8530300">
        <ele>2092.6</ele>
        <time>2017-07-28T09:17:20Z</time>
      </trkpt>
      <trkpt lat="44.9926950" lon="6.8529790">
        <ele>2091.4</ele>
        <time>2017-07-28T09:17:21Z</time>
      </trkpt>
      <trkpt lat="44.9927680" lon="6.8529550">
        <ele>2090.4</ele>
        <time>2017-07-28T09:17:22Z</time>
      </trkpt>
      <trkpt lat="44.9928370" lon="6.8529630">
        <ele>2089.4</ele>
        <time>2017-07-28T09:17:23Z</time>
      </trkpt>
      <trkpt lat="44.9929000" lon="6.8529950">
        <ele>2088.4</ele>
        <time>2017-07-28T09:17:24Z</time>
      </trkpt>
      <trkpt lat="44.9930310" lon="6.8531140">
        <ele>2086.2</ele>
        <time>2017-07-28T09:17:26Z</time>
      </trkpt>
      <trkpt lat="44.9931020" lon="6.8531940">
        <ele>2085.0</ele>
        <time>2017-07-28T09:17:27Z</time>
      </trkpt>
      <trkpt lat="44.9931880" lon="6.8532800">
        <ele>2083.6</ele>
        <time>2017-07-28T09:17:28Z</time>
      </trkpt>
      <trkpt lat="44.9932680" lon="6.8533640">
        <ele>2082.6</ele>
        <time>2017-07-28T09:17:29Z</time>
      </trkpt>
      <trkpt lat="44.9933410" lon="6.8534520">
        <ele>2081.4</ele>
        <time>2017-07-28T09:17:30Z</time>
      </trkpt>
      <trkpt lat="44.9934800" lon="6.8536050">
        <ele>2079.6</ele>
        <time>2017-07-28T09:17:32Z</time>
      </trkpt>
      <trkpt lat="44.9935420" lon="6.8536640">
        <ele>2079.0</ele>
        <time>2017-07-28T09:17:33Z</time>
      </trkpt>
      <trkpt lat="44.9935990" lon="6.8537360">
        <ele>2078.0</ele>
        <time>2017-07-28T09:17:34Z</time>
      </trkpt>
      <trkpt lat="44.9937150" lon="6.8538310">
        <ele>2076.2</ele>
        <time>2017-07-28T09:17:36Z</time>
      </trkpt>
      <trkpt lat="44.9937760" lon="6.8538580">
        <ele>2075.2</ele>
        <time>2017-07-28T09:17:37Z</time>
      </trkpt>
      <trkpt lat="44.9938370" lon="6.8538790">
        <ele>2074.2</ele>
        <time>2017-07-28T09:17:38Z</time>
      </trkpt>
      <trkpt lat="44.9939000" lon="6.8539050">
        <ele>2072.4</ele>
        <time>2017-07-28T09:17:39Z</time>
      </trkpt>
      <trkpt lat="44.9940240" lon="6.8539470">
        <ele>2070.2</ele>
        <time>2017-07-28T09:17:41Z</time>
      </trkpt>
      <trkpt lat="44.9940860" lon="6.8539520">
        <ele>2068.8</ele>
        <time>2017-07-28T09:17:42Z</time>
      </trkpt>
      <trkpt lat="44.9941500" lon="6.8539410">
        <ele>2067.0</ele>
        <time>2017-07-28T09:17:43Z</time>
      </trkpt>
      <trkpt lat="44.9942160" lon="6.8539190">
        <ele>2065.2</ele>
        <time>2017-07-28T09:17:44Z</time>
      </trkpt>
      <trkpt lat="44.9942820" lon="6.8539130">
        <ele>2063.8</ele>
        <time>2017-07-28T09:17:45Z</time>
      </trkpt>
      <trkpt lat="44.9943470" lon="6.8539080">
        <ele>2062.4</ele>
        <time>2017-07-28T09:17:46Z</time>
      </trkpt>
      <trkpt lat="44.9944180" lon="6.8539040">
        <ele>2060.8</ele>
        <time>2017-07-28T09:17:47Z</time>
      </trkpt>
      <trkpt lat="44.9944810" lon="6.8539000">
        <ele>2059.0</ele>
        <time>2017-07-28T09:17:48Z</time>
      </trkpt>
      <trkpt lat="44.9945630" lon="6.8539100">
        <ele>2057.0</ele>
        <time>2017-07-28T09:17:49Z</time>
      </trkpt>
      <trkpt lat="44.9946490" lon="6.8539120">
        <ele>2055.2</ele>
        <time>2017-07-28T09:17:50Z</time>
      </trkpt>
      <trkpt lat="44.9947260" lon="6.8539340">
        <ele>2053.4</ele>
        <time>2017-07-28T09:17:51Z</time>
      </trkpt>
      <trkpt lat="44.9948020" lon="6.8539450">
        <ele>2052.2</ele>
        <time>2017-07-28T09:17:52Z</time>
      </trkpt>
      <trkpt lat="44.9948720" lon="6.8539620">
        <ele>2050.6</ele>
        <time>2017-07-28T09:17:53Z</time>
      </trkpt>
      <trkpt lat="44.9949390" lon="6.8539830">
        <ele>2049.6</ele>
        <time>2017-07-28T09:17:54Z</time>
      </trkpt>
      <trkpt lat="44.9949980" lon="6.8540010">
        <ele>2048.4</ele>
        <time>2017-07-28T09:17:55Z</time>
      </trkpt>
      <trkpt lat="44.9950510" lon="6.8540040">
        <ele>2047.4</ele>
        <time>2017-07-28T09:17:56Z</time>
      </trkpt>
      <trkpt lat="44.9951140" lon="6.8539880">
        <ele>2046.6</ele>
        <time>2017-07-28T09:17:57Z</time>
      </trkpt>
      <trkpt lat="44.9951720" lon="6.8539300">
        <ele>2045.8</ele>
        <time>2017-07-28T09:17:58Z</time>
      </trkpt>
      <trkpt lat="44.9952310" lon="6.8538490">
        <ele>2045.0</ele>
        <time>2017-07-28T09:17:59Z</time>
      </trkpt>
      <trkpt lat="44.9953430" lon="6.8536780">
        <ele>2043.0</ele>
        <time>2017-07-28T09:18:01Z</time>
      </trkpt>
      <trkpt lat="44.9953870" lon="6.8536000">
        <ele>2041.8</ele>
        <time>2017-07-28T09:18:02Z</time>
      </trkpt>
      <trkpt lat="44.9954250" lon="6.8535250">
        <ele>2039.6</ele>
        <time>2017-07-28T09:18:03Z</time>
      </trkpt>
      <trkpt lat="44.9954610" lon="6.8534640">
        <ele>2038.6</ele>
        <time>2017-07-28T09:18:04Z</time>
      </trkpt>
      <trkpt lat="44.9955020" lon="6.8534250">
        <ele>2037.4</ele>
        <time>2017-07-28T09:18:05Z</time>
      </trkpt>
      <trkpt lat="44.9955430" lon="6.8533870">
        <ele>2036.2</ele>
        <time>2017-07-28T09:18:06Z</time>
      </trkpt>
      <trkpt lat="44.9955820" lon="6.8533470">
        <ele>2035.2</ele>
        <time>2017-07-28T09:18:07Z</time>
      </trkpt>
      <trkpt lat="44.9956290" lon="6.8533120">
        <ele>2034.0</ele>
        <time>2017-07-28T09:18:08Z</time>
      </trkpt>
      <trkpt lat="44.9956760" lon="6.8532870">
        <ele>2032.6</ele>
        <time>2017-07-28T09:18:09Z</time>
      </trkpt>
      <trkpt lat="44.9957340" lon="6.8532740">
        <ele>2031.0</ele>
        <time>2017-07-28T09:18:10Z</time>
      </trkpt>
      <trkpt lat="44.9957910" lon="6.8532620">
        <ele>2029.4</ele>
        <time>2017-07-28T09:18:11Z</time>
      </trkpt>
      <trkpt lat="44.9958630" lon="6.8532400">
        <ele>2028.2</ele>
        <time>2017-07-28T09:18:12Z</time>
      </trkpt>
      <trkpt lat="44.9959460" lon="6.8532310">
        <ele>2026.6</ele>
        <time>2017-07-28T09:18:13Z</time>
      </trkpt>
      <trkpt lat="44.9960310" lon="6.8532180">
        <ele>2025.6</ele>
        <time>2017-07-28T09:18:14Z</time>
      </trkpt>
      <trkpt lat="44.9961200" lon="6.8532410">
        <ele>2024.0</ele>
        <time>2017-07-28T09:18:15Z</time>
      </trkpt>
      <trkpt lat="44.9962110" lon="6.8532550">
        <ele>2023.0</ele>
        <time>2017-07-28T09:18:16Z</time>
      </trkpt>
      <trkpt lat="44.9962970" lon="6.8532810">
        <ele>2021.6</ele>
        <time>2017-07-28T09:18:17Z</time>
      </trkpt>
      <trkpt lat="44.9963710" lon="6.8532780">
        <ele>2020.6</ele>
        <time>2017-07-28T09:18:18Z</time>
      </trkpt>
      <trkpt lat="44.9964590" lon="6.8532500">
        <ele>2019.4</ele>
        <time>2017-07-28T09:18:19Z</time>
      </trkpt>
      <trkpt lat="44.9965540" lon="6.8532320">
        <ele>2018.2</ele>
        <time>2017-07-28T09:18:20Z</time>
      </trkpt>
      <trkpt lat="44.9966460" lon="6.8532090">
        <ele>2016.8</ele>
        <time>2017-07-28T09:18:21Z</time>
      </trkpt>
      <trkpt lat="44.9967290" lon="6.8531730">
        <ele>2015.6</ele>
        <time>2017-07-28T09:18:22Z</time>
      </trkpt>
      <trkpt lat="44.9968160" lon="6.8531250">
        <ele>2014.4</ele>
        <time>2017-07-28T09:18:23Z</time>
      </trkpt>
      <trkpt lat="44.9968950" lon="6.8530640">
        <ele>2013.4</ele>
        <time>2017-07-28T09:18:24Z</time>
      </trkpt>
      <trkpt lat="44.9969700" lon="6.8529900">
        <ele>2012.0</ele>
        <time>2017-07-28T09:18:25Z</time>
      </trkpt>
      <trkpt lat="44.9970430" lon="6.8529060">
        <ele>2010.6</ele>
        <time>2017-07-28T09:18:26Z</time>
      </trkpt>
      <trkpt lat="44.9971190" lon="6.8528300">
        <ele>2008.0</ele>
        <time>2017-07-28T09:18:27Z</time>
      </trkpt>
      <trkpt lat="44.9971880" lon="6.8527630">
        <ele>2006.6</ele>
        <time>2017-07-28T09:18:28Z</time>
      </trkpt>
      <trkpt lat="44.9972580" lon="6.8527070">
        <ele>2005.0</ele>
        <time>2017-07-28T09:18:29Z</time>
      </trkpt>
      <trkpt lat="44.9973320" lon="6.8526670">
        <ele>2003.0</ele>
        <time>2017-07-28T09:18:30Z</time>
      </trkpt>
      <trkpt lat="44.9974050" lon="6.8526320">
        <ele>2001.2</ele>
        <time>2017-07-28T09:18:31Z</time>
      </trkpt>
      <trkpt lat="44.9974710" lon="6.8525950">
        <ele>1999.8</ele>
        <time>2017-07-28T09:18:32Z</time>
      </trkpt>
      <trkpt lat="44.9975450" lon="6.8525430">
        <ele>1998.6</ele>
        <time>2017-07-28T09:18:33Z</time>
      </trkpt>
      <trkpt lat="44.9976040" lon="6.8524870">
        <ele>1997.2</ele>
        <time>2017-07-28T09:18:34Z</time>
      </trkpt>
      <trkpt lat="44.9976580" lon="6.8524340">
        <ele>1995.8</ele>
        <time>2017-07-28T09:18:35Z</time>
      </trkpt>
      <trkpt lat="44.9976960" lon="6.8523810">
        <ele>1994.2</ele>
        <time>2017-07-28T09:18:36Z</time>
      </trkpt>
      <trkpt lat="44.9977400" lon="6.8523300">
        <ele>1993.0</ele>
        <time>2017-07-28T09:18:37Z</time>
      </trkpt>
      <trkpt lat="44.9977880" lon="6.8522750">
        <ele>1992.0</ele>
        <time>2017-07-28T09:18:38Z</time>
      </trkpt>
      <trkpt lat="44.9978280" lon="6.8522400">
        <ele>1990.4</ele>
        <time>2017-07-28T09:18:39Z</time>
      </trkpt>
      <trkpt lat="44.9978600" lon="6.8521960">
        <ele>1989.0</ele>
        <time>2017-07-28T09:18:40Z</time>
      </trkpt>
      <trkpt lat="44.9978990" lon="6.8521440">
        <ele>1987.4</ele>
        <time>2017-07-28T09:18:41Z</time>
      </trkpt>
      <trkpt lat="44.9979420" lon="6.8520940">
        <ele>1986.0</ele>
        <time>2017-07-28T09:18:42Z</time>
      </trkpt>
      <trkpt lat="44.9979970" lon="6.8520630">
        <ele>1984.4</ele>
        <time>2017-07-28T09:18:43Z</time>
      </trkpt>
      <trkpt lat="44.9980540" lon="6.8520230">
        <ele>1982.6</ele>
        <time>2017-07-28T09:18:44Z</time>
      </trkpt>
      <trkpt lat="44.9981070" lon="6.8519790">
        <ele>1981.0</ele>
        <time>2017-07-28T09:18:45Z</time>
      </trkpt>
      <trkpt lat="44.9981600" lon="6.8519470">
        <ele>1979.4</ele>
        <time>2017-07-28T09:18:46Z</time>
      </trkpt>
      <trkpt lat="44.9982140" lon="6.8519040">
        <ele>1977.8</ele>
        <time>2017-07-28T09:18:47Z</time>
      </trkpt>
      <trkpt lat="44.9982720" lon="6.8518400">
        <ele>1976.0</ele>
        <time>2017-07-28T09:18:48Z</time>
      </trkpt>
      <trkpt lat="44.9983340" lon="6.8518090">
        <ele>1974.2</ele>
        <time>2017-07-28T09:18:49Z</time>
      </trkpt>
      <trkpt lat="44.9983900" lon="6.8517910">
        <ele>1972.6</ele>
        <time>2017-07-28T09:18:50Z</time>
      </trkpt>
      <trkpt lat="44.9984480" lon="6.8517940">
        <ele>1969.0</ele>
        <time>2017-07-28T09:18:51Z</time>
      </trkpt>
      <trkpt lat="44.9985070" lon="6.8518030">
        <ele>1967.2</ele>
        <time>2017-07-28T09:18:52Z</time>
      </trkpt>
      <trkpt lat="44.9985760" lon="6.8518160">
        <ele>1965.6</ele>
        <time>2017-07-28T09:18:53Z</time>
      </trkpt>
      <trkpt lat="44.9986400" lon="6.8518240">
        <ele>1964.0</ele>
        <time>2017-07-28T09:18:54Z</time>
      </trkpt>
      <trkpt lat="44.9987040" lon="6.8518190">
        <ele>1962.6</ele>
        <time>2017-07-28T09:18:55Z</time>
      </trkpt>
      <trkpt lat="44.9987730" lon="6.8518110">
        <ele>1961.2</ele>
        <time>2017-07-28T09:18:56Z</time>
      </trkpt>
      <trkpt lat="44.9988460" lon="6.8517840">
        <ele>1960.0</ele>
        <time>2017-07-28T09:18:57Z</time>
      </trkpt>
      <trkpt lat="44.9989250" lon="6.8517320">
        <ele>1958.8</ele>
        <time>2017-07-28T09:18:58Z</time>
      </trkpt>
      <trkpt lat="44.9990030" lon="6.8516540">
        <ele>1957.8</ele>
        <time>2017-07-28T09:18:59Z</time>
      </trkpt>
      <trkpt lat="44.9990770" lon="6.8515840">
        <ele>1956.6</ele>
        <time>2017-07-28T09:19:00Z</time>
      </trkpt>
      <trkpt lat="44.9991550" lon="6.8515020">
        <ele>1955.6</ele>
        <time>2017-07-28T09:19:01Z</time>
      </trkpt>
      <trkpt lat="44.9992360" lon="6.8514290">
        <ele>1954.2</ele>
        <time>2017-07-28T09:19:02Z</time>
      </trkpt>
      <trkpt lat="44.9993190" lon="6.8513470">
        <ele>1953.0</ele>
        <time>2017-07-28T09:19:03Z</time>
      </trkpt>
      <trkpt lat="44.9994000" lon="6.8512640">
        <ele>1951.8</ele>
        <time>2017-07-28T09:19:04Z</time>
      </trkpt>
      <trkpt lat="44.9994920" lon="6.8511710">
        <ele>1950.6</ele>
        <time>2017-07-28T09:19:05Z</time>
      </trkpt>
      <trkpt lat="44.9995890" lon="6.8510720">
        <ele>1949.4</ele>
        <time>2017-07-28T09:19:06Z</time>
      </trkpt>
      <trkpt lat="44.9996770" lon="6.8509800">
        <ele>1948.4</ele>
        <time>2017-07-28T09:19:07Z</time>
      </trkpt>
      <trkpt lat="44.9997640" lon="6.8508920">
        <ele>1947.2</ele>
        <time>2017-07-28T09:19:08Z</time>
      </trkpt>
      <trkpt lat="44.9999540" lon="6.8507300">
        <ele>1945.4</ele>
        <time>2017-07-28T09:19:10Z</time>
      </trkpt>
      <trkpt lat="45.0001570" lon="6.8505870">
        <ele>1943.6</ele>
        <time>2017-07-28T09:19:12Z</time>
      </trkpt>
      <trkpt lat="45.0002630" lon="6.8505060">
        <ele>1942.2</ele>
        <time>2017-07-28T09:19:13Z</time>
      </trkpt>
      <trkpt lat="45.0003590" lon="6.8504300">
        <ele>1941.0</ele>
        <time>2017-07-28T09:19:14Z</time>
      </trkpt>
      <trkpt lat="45.0004430" lon="6.8503440">
        <ele>1939.0</ele>
        <time>2017-07-28T09:19:15Z</time>
      </trkpt>
      <trkpt lat="45.0005880" lon="6.8501930">
        <ele>1936.8</ele>
        <time>2017-07-28T09:19:17Z</time>
      </trkpt>
      <trkpt lat="45.0007440" lon="6.8500630">
        <ele>1934.6</ele>
        <time>2017-07-28T09:19:19Z</time>
      </trkpt>
      <trkpt lat="45.0008250" lon="6.8499970">
        <ele>1933.6</ele>
        <time>2017-07-28T09:19:20Z</time>
      </trkpt>
      <trkpt lat="45.0009090" lon="6.8499450">
        <ele>1932.6</ele>
        <time>2017-07-28T09:19:21Z</time>
      </trkpt>
      <trkpt lat="45.0010720" lon="6.8498110">
        <ele>1930.4</ele>
        <time>2017-07-28T09:19:23Z</time>
      </trkpt>
      <trkpt lat="45.0011510" lon="6.8497450">
        <ele>1929.2</ele>
        <time>2017-07-28T09:19:24Z</time>
      </trkpt>
      <trkpt lat="45.0012190" lon="6.8496720">
        <ele>1927.8</ele>
        <time>2017-07-28T09:19:25Z</time>
      </trkpt>
      <trkpt lat="45.0012760" lon="6.8496210">
        <ele>1926.8</ele>
        <time>2017-07-28T09:19:26Z</time>
      </trkpt>
      <trkpt lat="45.0013290" lon="6.8495760">
        <ele>1925.8</ele>
        <time>2017-07-28T09:19:27Z</time>
      </trkpt>
      <trkpt lat="45.0013810" lon="6.8495450">
        <ele>1924.8</ele>
        <time>2017-07-28T09:19:28Z</time>
      </trkpt>
      <trkpt lat="45.0014300" lon="6.8494910">
        <ele>1923.6</ele>
        <time>2017-07-28T09:19:29Z</time>
      </trkpt>
      <trkpt lat="45.0014560" lon="6.8494040">
        <ele>1922.6</ele>
        <time>2017-07-28T09:19:30Z</time>
      </trkpt>
      <trkpt lat="45.0014650" lon="6.8493120">
        <ele>1921.8</ele>
        <time>2017-07-28T09:19:31Z</time>
      </trkpt>
      <trkpt lat="45.0014830" lon="6.8492250">
        <ele>1921.0</ele>
        <time>2017-07-28T09:19:32Z</time>
      </trkpt>
      <trkpt lat="45.0015220" lon="6.8491440">
        <ele>1920.0</ele>
        <time>2017-07-28T09:19:33Z</time>
      </trkpt>
      <trkpt lat="45.0015710" lon="6.8490600">
        <ele>1918.8</ele>
        <time>2017-07-28T09:19:34Z</time>
      </trkpt>
      <trkpt lat="45.0016210" lon="6.8489860">
        <ele>1917.6</ele>
        <time>2017-07-28T09:19:35Z</time>
      </trkpt>
      <trkpt lat="45.0016800" lon="6.8489070">
        <ele>1916.6</ele>
        <time>2017-07-28T09:19:36Z</time>
      </trkpt>
      <trkpt lat="45.0017350" lon="6.8488300">
        <ele>1915.4</ele>
        <time>2017-07-28T09:19:37Z</time>
      </trkpt>
      <trkpt lat="45.0017850" lon="6.8487520">
        <ele>1914.4</ele>
        <time>2017-07-28T09:19:38Z</time>
      </trkpt>
      <trkpt lat="45.0018190" lon="6.8486760">
        <ele>1911.8</ele>
        <time>2017-07-28T09:19:39Z</time>
      </trkpt>
      <trkpt lat="45.0018650" lon="6.8485850">
        <ele>1910.4</ele>
        <time>2017-07-28T09:19:40Z</time>
      </trkpt>
      <trkpt lat="45.0019180" lon="6.8484990">
        <ele>1908.8</ele>
        <time>2017-07-28T09:19:41Z</time>
      </trkpt>
      <trkpt lat="45.0019680" lon="6.8483990">
        <ele>1907.2</ele>
        <time>2017-07-28T09:19:42Z</time>
      </trkpt>
      <trkpt lat="45.0020010" lon="6.8482700">
        <ele>1905.8</ele>
        <time>2017-07-28T09:19:43Z</time>
      </trkpt>
      <trkpt lat="45.0020250" lon="6.8481580">
        <ele>1904.2</ele>
        <time>2017-07-28T09:19:44Z</time>
      </trkpt>
      <trkpt lat="45.0020480" lon="6.8480490">
        <ele>1902.8</ele>
        <time>2017-07-28T09:19:45Z</time>
      </trkpt>
      <trkpt lat="45.0020710" lon="6.8479480">
        <ele>1901.0</ele>
        <time>2017-07-28T09:19:46Z</time>
      </trkpt>
      <trkpt lat="45.0020990" lon="6.8478550">
        <ele>1899.4</ele>
        <time>2017-07-28T09:19:47Z</time>
      </trkpt>
      <trkpt lat="45.0021440" lon="6.8477930">
        <ele>1897.6</ele>
        <time>2017-07-28T09:19:48Z</time>
      </trkpt>
      <trkpt lat="45.0022030" lon="6.8477160">
        <ele>1896.2</ele>
        <time>2017-07-28T09:19:49Z</time>
      </trkpt>
      <trkpt lat="45.0022520" lon="6.8476320">
        <ele>1894.8</ele>
        <time>2017-07-28T09:19:50Z</time>
      </trkpt>
      <trkpt lat="45.0023020" lon="6.8475270">
        <ele>1893.2</ele>
        <time>2017-07-28T09:19:51Z</time>
      </trkpt>
      <trkpt lat="45.0023440" lon="6.8474270">
        <ele>1891.8</ele>
        <time>2017-07-28T09:19:52Z</time>
      </trkpt>
      <trkpt lat="45.0023840" lon="6.8473380">
        <ele>1890.2</ele>
        <time>2017-07-28T09:19:53Z</time>
      </trkpt>
      <trkpt lat="45.0024240" lon="6.8472490">
        <ele>1888.8</ele>
        <time>2017-07-28T09:19:54Z</time>
      </trkpt>
      <trkpt lat="45.0024620" lon="6.8471630">
        <ele>1887.0</ele>
        <time>2017-07-28T09:19:55Z</time>
      </trkpt>
      <trkpt lat="45.0025100" lon="6.8470940">
        <ele>1885.2</ele>
        <time>2017-07-28T09:19:56Z</time>
      </trkpt>
      <trkpt lat="45.0025620" lon="6.8470220">
        <ele>1883.6</ele>
        <time>2017-07-28T09:19:57Z</time>
      </trkpt>
      <trkpt lat="45.0026300" lon="6.8469500">
        <ele>1882.2</ele>
        <time>2017-07-28T09:19:58Z</time>
      </trkpt>
      <trkpt lat="45.0026960" lon="6.8468640">
        <ele>1880.8</ele>
        <time>2017-07-28T09:19:59Z</time>
      </trkpt>
      <trkpt lat="45.0027530" lon="6.8467900">
        <ele>1878.8</ele>
        <time>2017-07-28T09:20:00Z</time>
      </trkpt>
      <trkpt lat="45.0027920" lon="6.8467100">
        <ele>1877.2</ele>
        <time>2017-07-28T09:20:01Z</time>
      </trkpt>
      <trkpt lat="45.0028180" lon="6.8466260">
        <ele>1875.6</ele>
        <time>2017-07-28T09:20:02Z</time>
      </trkpt>
      <trkpt lat="45.0028520" lon="6.8465630">
        <ele>1872.4</ele>
        <time>2017-07-28T09:20:03Z</time>
      </trkpt>
      <trkpt lat="45.0028840" lon="6.8464990">
        <ele>1870.6</ele>
        <time>2017-07-28T09:20:04Z</time>
      </trkpt>
      <trkpt lat="45.0029180" lon="6.8464630">
        <ele>1869.2</ele>
        <time>2017-07-28T09:20:05Z</time>
      </trkpt>
      <trkpt lat="45.0029550" lon="6.8464210">
        <ele>1867.6</ele>
        <time>2017-07-28T09:20:06Z</time>
      </trkpt>
      <trkpt lat="45.0029950" lon="6.8463590">
        <ele>1866.2</ele>
        <time>2017-07-28T09:20:07Z</time>
      </trkpt>
      <trkpt lat="45.0030310" lon="6.8463050">
        <ele>1864.2</ele>
        <time>2017-07-28T09:20:08Z</time>
      </trkpt>
      <trkpt lat="45.0030650" lon="6.8462380">
        <ele>1862.6</ele>
        <time>2017-07-28T09:20:09Z</time>
      </trkpt>
      <trkpt lat="45.0030910" lon="6.8461630">
        <ele>1861.0</ele>
        <time>2017-07-28T09:20:10Z</time>
      </trkpt>
      <trkpt lat="45.0031160" lon="6.8460890">
        <ele>1859.2</ele>
        <time>2017-07-28T09:20:11Z</time>
      </trkpt>
      <trkpt lat="45.0031340" lon="6.8460210">
        <ele>1857.4</ele>
        <time>2017-07-28T09:20:12Z</time>
      </trkpt>
      <trkpt lat="45.0031490" lon="6.8459430">
        <ele>1855.6</ele>
        <time>2017-07-28T09:20:13Z</time>
      </trkpt>
      <trkpt lat="45.0031700" lon="6.8458650">
        <ele>1854.0</ele>
        <time>2017-07-28T09:20:14Z</time>
      </trkpt>
      <trkpt lat="45.0031930" lon="6.8457900">
        <ele>1852.4</ele>
        <time>2017-07-28T09:20:15Z</time>
      </trkpt>
      <trkpt lat="45.0032180" lon="6.8457230">
        <ele>1851.2</ele>
        <time>2017-07-28T09:20:16Z</time>
      </trkpt>
      <trkpt lat="45.0032430" lon="6.8456740">
        <ele>1849.4</ele>
        <time>2017-07-28T09:20:17Z</time>
      </trkpt>
      <trkpt lat="45.0032560" lon="6.8456080">
        <ele>1847.6</ele>
        <time>2017-07-28T09:20:18Z</time>
      </trkpt>
      <trkpt lat="45.0032610" lon="6.8455410">
        <ele>1845.6</ele>
        <time>2017-07-28T09:20:19Z</time>
      </trkpt>
      <trkpt lat="45.0032490" lon="6.8455040">
        <ele>1843.8</ele>
        <time>2017-07-28T09:20:20Z</time>
      </trkpt>
      <trkpt lat="45.0032390" lon="6.8454480">
        <ele>1842.2</ele>
        <time>2017-07-28T09:20:21Z</time>
      </trkpt>
      <trkpt lat="45.0032480" lon="6.8454020">
        <ele>1840.6</ele>
        <time>2017-07-28T09:20:22Z</time>
      </trkpt>
      <trkpt lat="45.0032780" lon="6.8453520">
        <ele>1838.8</ele>
        <time>2017-07-28T09:20:23Z</time>
      </trkpt>
      <trkpt lat="45.0033210" lon="6.8453130">
        <ele>1837.6</ele>
        <time>2017-07-28T09:20:24Z</time>
      </trkpt>
      <trkpt lat="45.0033630" lon="6.8452700">
        <ele>1836.2</ele>
        <time>2017-07-28T09:20:25Z</time>
      </trkpt>
      <trkpt lat="45.0034160" lon="6.8451650">
        <ele>1833.0</ele>
        <time>2017-07-28T09:20:27Z</time>
      </trkpt>
      <trkpt lat="45.0034310" lon="6.8451050">
        <ele>1831.8</ele>
        <time>2017-07-28T09:20:28Z</time>
      </trkpt>
      <trkpt lat="45.0034510" lon="6.8449890">
        <ele>1830.0</ele>
        <time>2017-07-28T09:20:30Z</time>
      </trkpt>
      <trkpt lat="45.0034660" lon="6.8449340">
        <ele>1829.2</ele>
        <time>2017-07-28T09:20:31Z</time>
      </trkpt>
      <trkpt lat="45.0034810" lon="6.8448810">
        <ele>1828.6</ele>
        <time>2017-07-28T09:20:32Z</time>
      </trkpt>
      <trkpt lat="45.0034960" lon="6.8448220">
        <ele>1827.6</ele>
        <time>2017-07-28T09:20:34Z</time>
      </trkpt>
      <trkpt lat="45.0034900" lon="6.8448200">
        <ele>1826.8</ele>
        <time>2017-07-28T09:20:35Z</time>
      </trkpt>
      <trkpt lat="45.0034750" lon="6.8448410">
        <ele>1826.2</ele>
        <time>2017-07-28T09:20:36Z</time>
      </trkpt>
      <trkpt lat="45.0034330" lon="6.8449010">
        <ele>1824.6</ele>
        <time>2017-07-28T09:20:38Z</time>
      </trkpt>
      <trkpt lat="45.0033660" lon="6.8449350">
        <ele>1823.4</ele>
        <time>2017-07-28T09:20:40Z</time>
      </trkpt>
      <trkpt lat="45.0033290" lon="6.8449570">
        <ele>1822.4</ele>
        <time>2017-07-28T09:20:41Z</time>
      </trkpt>
      <trkpt lat="45.0032910" lon="6.8449500">
        <ele>1821.2</ele>
        <time>2017-07-28T09:20:42Z</time>
      </trkpt>
      <trkpt lat="45.0032540" lon="6.8449230">
        <ele>1820.0</ele>
        <time>2017-07-28T09:20:43Z</time>
      </trkpt>
      <trkpt lat="45.0032240" lon="6.8448890">
        <ele>1819.0</ele>
        <time>2017-07-28T09:20:44Z</time>
      </trkpt>
      <trkpt lat="45.0031920" lon="6.8448440">
        <ele>1818.0</ele>
        <time>2017-07-28T09:20:45Z</time>
      </trkpt>
      <trkpt lat="45.0031610" lon="6.8447920">
        <ele>1816.8</ele>
        <time>2017-07-28T09:20:46Z</time>
      </trkpt>
      <trkpt lat="45.0031370" lon="6.8447350">
        <ele>1815.8</ele>
        <time>2017-07-28T09:20:47Z</time>
      </trkpt>
      <trkpt lat="45.0031080" lon="6.8446850">
        <ele>1814.6</ele>
        <time>2017-07-28T09:20:48Z</time>
      </trkpt>
      <trkpt lat="45.0030830" lon="6.8446840">
        <ele>1813.6</ele>
        <time>2017-07-28T09:20:49Z</time>
      </trkpt>
      <trkpt lat="45.0030570" lon="6.8446680">
        <ele>1812.4</ele>
        <time>2017-07-28T09:20:50Z</time>
      </trkpt>
      <trkpt lat="45.0030420" lon="6.8446420">
        <ele>1810.2</ele>
        <time>2017-07-28T09:20:51Z</time>
      </trkpt>
      <trkpt lat="45.0030140" lon="6.8446190">
        <ele>1809.2</ele>
        <time>2017-07-28T09:20:52Z</time>
      </trkpt>
      <trkpt lat="45.0029810" lon="6.8445980">
        <ele>1808.0</ele>
        <time>2017-07-28T09:20:53Z</time>
      </trkpt>
      <trkpt lat="45.0029530" lon="6.8445960">
        <ele>1806.6</ele>
        <time>2017-07-28T09:20:54Z</time>
      </trkpt>
      <trkpt lat="45.0029290" lon="6.8446050">
        <ele>1805.4</ele>
        <time>2017-07-28T09:20:55Z</time>
      </trkpt>
      <trkpt lat="45.0029120" lon="6.8446300">
        <ele>1804.4</ele>
        <time>2017-07-28T09:20:56Z</time>
      </trkpt>
      <trkpt lat="45.0028920" lon="6.8447280">
        <ele>1802.6</ele>
        <time>2017-07-28T09:20:58Z</time>
      </trkpt>
      <trkpt lat="45.0028460" lon="6.8448350">
        <ele>1800.8</ele>
        <time>2017-07-28T09:21:00Z</time>
      </trkpt>
      <trkpt lat="45.0027840" lon="6.8449850">
        <ele>1798.6</ele>
        <time>2017-07-28T09:21:02Z</time>
      </trkpt>
      <trkpt lat="45.0027500" lon="6.8450460">
        <ele>1797.6</ele>
        <time>2017-07-28T09:21:03Z</time>
      </trkpt>
      <trkpt lat="45.0027130" lon="6.8451000">
        <ele>1796.8</ele>
        <time>2017-07-28T09:21:04Z</time>
      </trkpt>
      <trkpt lat="45.0026610" lon="6.8451540">
        <ele>1796.4</ele>
        <time>2017-07-28T09:21:05Z</time>
      </trkpt>
      <trkpt lat="45.0025510" lon="6.8452000">
        <ele>1794.6</ele>
        <time>2017-07-28T09:21:07Z</time>
      </trkpt>
      <trkpt lat="45.0024260" lon="6.8451880">
        <ele>1793.4</ele>
        <time>2017-07-28T09:21:09Z</time>
      </trkpt>
      <trkpt lat="45.0023060" lon="6.8451420">
        <ele>1791.6</ele>
        <time>2017-07-28T09:21:11Z</time>
      </trkpt>
      <trkpt lat="45.0021750" lon="6.8451250">
        <ele>1790.6</ele>
        <time>2017-07-28T09:21:13Z</time>
      </trkpt>
      <trkpt lat="45.0021110" lon="6.8451300">
        <ele>1789.6</ele>
        <time>2017-07-28T09:21:14Z</time>
      </trkpt>
      <trkpt lat="45.0020340" lon="6.8451350">
        <ele>1787.2</ele>
        <time>2017-07-28T09:21:15Z</time>
      </trkpt>
      <trkpt lat="45.0018900" lon="6.8451610">
        <ele>1785.8</ele>
        <time>2017-07-28T09:21:17Z</time>
      </trkpt>
      <trkpt lat="45.0017520" lon="6.8452530">
        <ele>1784.2</ele>
        <time>2017-07-28T09:21:19Z</time>
      </trkpt>
      <trkpt lat="45.0015890" lon="6.8453940">
        <ele>1782.6</ele>
        <time>2017-07-28T09:21:21Z</time>
      </trkpt>
      <trkpt lat="45.0015010" lon="6.8454150">
        <ele>1781.6</ele>
        <time>2017-07-28T09:21:22Z</time>
      </trkpt>
      <trkpt lat="45.0014170" lon="6.8454080">
        <ele>1780.8</ele>
        <time>2017-07-28T09:21:23Z</time>
      </trkpt>
      <trkpt lat="45.0012660" lon="6.8454350">
        <ele>1779.6</ele>
        <time>2017-07-28T09:21:25Z</time>
      </trkpt>
      <trkpt lat="45.0011200" lon="6.8454870">
        <ele>1778.2</ele>
        <time>2017-07-28T09:21:27Z</time>
      </trkpt>
      <trkpt lat="45.0009810" lon="6.8455270">
        <ele>1776.8</ele>
        <time>2017-07-28T09:21:29Z</time>
      </trkpt>
      <trkpt lat="45.0008560" lon="6.8454910">
        <ele>1775.4</ele>
        <time>2017-07-28T09:21:31Z</time>
      </trkpt>
      <trkpt lat="45.0007880" lon="6.8454720">
        <ele>1774.4</ele>
        <time>2017-07-28T09:21:32Z</time>
      </trkpt>
      <trkpt lat="45.0007270" lon="6.8454410">
        <ele>1773.2</ele>
        <time>2017-07-28T09:21:33Z</time>
      </trkpt>
      <trkpt lat="45.0006250" lon="6.8453340">
        <ele>1771.4</ele>
        <time>2017-07-28T09:21:35Z</time>
      </trkpt>
      <trkpt lat="45.0005790" lon="6.8452680">
        <ele>1770.2</ele>
        <time>2017-07-28T09:21:36Z</time>
      </trkpt>
      <trkpt lat="45.0005320" lon="6.8452030">
        <ele>1768.8</ele>
        <time>2017-07-28T09:21:37Z</time>
      </trkpt>
      <trkpt lat="45.0004810" lon="6.8451300">
        <ele>1767.6</ele>
        <time>2017-07-28T09:21:38Z</time>
      </trkpt>
      <trkpt lat="45.0004540" lon="6.8450790">
        <ele>1765.4</ele>
        <time>2017-07-28T09:21:39Z</time>
      </trkpt>
      <trkpt lat="45.0004210" lon="6.8450490">
        <ele>1764.0</ele>
        <time>2017-07-28T09:21:40Z</time>
      </trkpt>
      <trkpt lat="45.0003850" lon="6.8450480">
        <ele>1762.6</ele>
        <time>2017-07-28T09:21:41Z</time>
      </trkpt>
      <trkpt lat="45.0003210" lon="6.8449940">
        <ele>1761.0</ele>
        <time>2017-07-28T09:21:43Z</time>
      </trkpt>
      <trkpt lat="45.0002660" lon="6.8448980">
        <ele>1758.8</ele>
        <time>2017-07-28T09:21:45Z</time>
      </trkpt>
      <trkpt lat="45.0002370" lon="6.8448480">
        <ele>1757.8</ele>
        <time>2017-07-28T09:21:46Z</time>
      </trkpt>
      <trkpt lat="45.0002600" lon="6.8447750">
        <ele>1757.0</ele>
        <time>2017-07-28T09:21:47Z</time>
      </trkpt>
      <trkpt lat="45.0002590" lon="6.8447210">
        <ele>1756.0</ele>
        <time>2017-07-28T09:21:48Z</time>
      </trkpt>
      <trkpt lat="45.0002600" lon="6.8446610">
        <ele>1754.8</ele>
        <time>2017-07-28T09:21:49Z</time>
      </trkpt>
      <trkpt lat="45.0002720" lon="6.8445800">
        <ele>1753.6</ele>
        <time>2017-07-28T09:21:50Z</time>
      </trkpt>
      <trkpt lat="45.0002560" lon="6.8444010">
        <ele>1752.0</ele>
        <time>2017-07-28T09:21:52Z</time>
      </trkpt>
      <trkpt lat="45.0002160" lon="6.8442720">
        <ele>1750.8</ele>
        <time>2017-07-28T09:21:53Z</time>
      </trkpt>
      <trkpt lat="45.0001740" lon="6.8441590">
        <ele>1749.8</ele>
        <time>2017-07-28T09:21:54Z</time>
      </trkpt>
      <trkpt lat="45.0001170" lon="6.8440300">
        <ele>1748.8</ele>
        <time>2017-07-28T09:21:55Z</time>
      </trkpt>
      <trkpt lat="45.0000510" lon="6.8438280">
        <ele>1746.8</ele>
        <time>2017-07-28T09:21:57Z</time>
      </trkpt>
      <trkpt lat="45.0000160" lon="6.8437410">
        <ele>1745.8</ele>
        <time>2017-07-28T09:21:58Z</time>
      </trkpt>
      <trkpt lat="45.0000200" lon="6.8436690">
        <ele>1744.8</ele>
        <time>2017-07-28T09:21:59Z</time>
      </trkpt>
      <trkpt lat="45.0000090" lon="6.8435880">
        <ele>1743.4</ele>
        <time>2017-07-28T09:22:00Z</time>
      </trkpt>
      <trkpt lat="45.0000050" lon="6.8435100">
        <ele>1742.2</ele>
        <time>2017-07-28T09:22:01Z</time>
      </trkpt>
      <trkpt lat="44.9999990" lon="6.8434940">
        <ele>1741.0</ele>
        <time>2017-07-28T09:22:02Z</time>
      </trkpt>
      <trkpt lat="44.9999950" lon="6.8434890">
        <ele>1739.2</ele>
        <time>2017-07-28T09:22:03Z</time>
      </trkpt>
      <trkpt lat="45.0000010" lon="6.8434800">
        <ele>1738.2</ele>
        <time>2017-07-28T09:22:04Z</time>
      </trkpt>
      <trkpt lat="45.0000170" lon="6.8434550">
        <ele>1737.0</ele>
        <time>2017-07-28T09:22:05Z</time>
      </trkpt>
      <trkpt lat="45.0000330" lon="6.8434260">
        <ele>1735.6</ele>
        <time>2017-07-28T09:22:06Z</time>
      </trkpt>
      <trkpt lat="45.0000610" lon="6.8433990">
        <ele>1734.2</ele>
        <time>2017-07-28T09:22:07Z</time>
      </trkpt>
      <trkpt lat="45.0000940" lon="6.8433760">
        <ele>1732.8</ele>
        <time>2017-07-28T09:22:08Z</time>
      </trkpt>
      <trkpt lat="45.0001270" lon="6.8433440">
        <ele>1731.6</ele>
        <time>2017-07-28T09:22:09Z</time>
      </trkpt>
      <trkpt lat="45.0001650" lon="6.8433170">
        <ele>1730.4</ele>
        <time>2017-07-28T09:22:10Z</time>
      </trkpt>
      <trkpt lat="45.0002050" lon="6.8432970">
        <ele>1729.2</ele>
        <time>2017-07-28T09:22:11Z</time>
      </trkpt>
      <trkpt lat="45.0002370" lon="6.8432820">
        <ele>1727.8</ele>
        <time>2017-07-28T09:22:12Z</time>
      </trkpt>
      <trkpt lat="45.0003000" lon="6.8432390">
        <ele>1726.6</ele>
        <time>2017-07-28T09:22:13Z</time>
      </trkpt>
      <trkpt lat="45.0003540" lon="6.8431960">
        <ele>1725.2</ele>
        <time>2017-07-28T09:22:14Z</time>
      </trkpt>
      <trkpt lat="45.0003850" lon="6.8431640">
        <ele>1723.8</ele>
        <time>2017-07-28T09:22:15Z</time>
      </trkpt>
      <trkpt lat="45.0004100" lon="6.8431050">
        <ele>1722.4</ele>
        <time>2017-07-28T09:22:16Z</time>
      </trkpt>
      <trkpt lat="45.0004320" lon="6.8430270">
        <ele>1721.0</ele>
        <time>2017-07-28T09:22:17Z</time>
      </trkpt>
      <trkpt lat="45.0004370" lon="6.8429580">
        <ele>1719.8</ele>
        <time>2017-07-28T09:22:18Z</time>
      </trkpt>
      <trkpt lat="45.0004540" lon="6.8428920">
        <ele>1718.8</ele>
        <time>2017-07-28T09:22:19Z</time>
      </trkpt>
      <trkpt lat="45.0004710" lon="6.8428490">
        <ele>1717.6</ele>
        <time>2017-07-28T09:22:20Z</time>
      </trkpt>
      <trkpt lat="45.0004960" lon="6.8428180">
        <ele>1716.4</ele>
        <time>2017-07-28T09:22:21Z</time>
      </trkpt>
      <trkpt lat="45.0005240" lon="6.8427720">
        <ele>1714.8</ele>
        <time>2017-07-28T09:22:22Z</time>
      </trkpt>
      <trkpt lat="45.0005580" lon="6.8427080">
        <ele>1713.6</ele>
        <time>2017-07-28T09:22:23Z</time>
      </trkpt>
      <trkpt lat="45.0006270" lon="6.8426160">
        <ele>1712.4</ele>
        <time>2017-07-28T09:22:24Z</time>
      </trkpt>
      <trkpt lat="45.0006990" lon="6.8425250">
        <ele>1711.2</ele>
        <time>2017-07-28T09:22:25Z</time>
      </trkpt>
      <trkpt lat="45.0007660" lon="6.8424300">
        <ele>1709.6</ele>
        <time>2017-07-28T09:22:26Z</time>
      </trkpt>
      <trkpt lat="45.0008320" lon="6.8423360">
        <ele>1707.4</ele>
        <time>2017-07-28T09:22:27Z</time>
      </trkpt>
      <trkpt lat="45.0009290" lon="6.8421700">
        <ele>1705.4</ele>
        <time>2017-07-28T09:22:29Z</time>
      </trkpt>
      <trkpt lat="45.0009470" lon="6.8420830">
        <ele>1704.2</ele>
        <time>2017-07-28T09:22:30Z</time>
      </trkpt>
      <trkpt lat="45.0009860" lon="6.8420030">
        <ele>1702.8</ele>
        <time>2017-07-28T09:22:31Z</time>
      </trkpt>
      <trkpt lat="45.0010300" lon="6.8419380">
        <ele>1701.2</ele>
        <time>2017-07-28T09:22:32Z</time>
      </trkpt>
      <trkpt lat="45.0010730" lon="6.8418670">
        <ele>1700.2</ele>
        <time>2017-07-28T09:22:33Z</time>
      </trkpt>
      <trkpt lat="45.0011120" lon="6.8417940">
        <ele>1698.6</ele>
        <time>2017-07-28T09:22:34Z</time>
      </trkpt>
      <trkpt lat="45.0011290" lon="6.8417210">
        <ele>1697.2</ele>
        <time>2017-07-28T09:22:35Z</time>
      </trkpt>
      <trkpt lat="45.0011450" lon="6.8416510">
        <ele>1695.8</ele>
        <time>2017-07-28T09:22:36Z</time>
      </trkpt>
      <trkpt lat="45.0011630" lon="6.8415860">
        <ele>1694.8</ele>
        <time>2017-07-28T09:22:37Z</time>
      </trkpt>
      <trkpt lat="45.0011900" lon="6.8415140">
        <ele>1693.4</ele>
        <time>2017-07-28T09:22:38Z</time>
      </trkpt>
      <trkpt lat="45.0012190" lon="6.8414540">
        <ele>1692.2</ele>
        <time>2017-07-28T09:22:39Z</time>
      </trkpt>
      <trkpt lat="45.0012470" lon="6.8413920">
        <ele>1690.6</ele>
        <time>2017-07-28T09:22:40Z</time>
      </trkpt>
      <trkpt lat="45.0012840" lon="6.8413200">
        <ele>1689.4</ele>
        <time>2017-07-28T09:22:41Z</time>
      </trkpt>
      <trkpt lat="45.0013200" lon="6.8412620">
        <ele>1688.0</ele>
        <time>2017-07-28T09:22:42Z</time>
      </trkpt>
      <trkpt lat="45.0013570" lon="6.8411960">
        <ele>1687.0</ele>
        <time>2017-07-28T09:22:43Z</time>
      </trkpt>
      <trkpt lat="45.0013920" lon="6.8411340">
        <ele>1686.0</ele>
        <time>2017-07-28T09:22:44Z</time>
      </trkpt>
      <trkpt lat="45.0014130" lon="6.8410700">
        <ele>1684.6</ele>
        <time>2017-07-28T09:22:45Z</time>
      </trkpt>
      <trkpt lat="45.0014310" lon="6.8409950">
        <ele>1683.2</ele>
        <time>2017-07-28T09:22:46Z</time>
      </trkpt>
      <trkpt lat="45.0014550" lon="6.8409290">
        <ele>1681.6</ele>
        <time>2017-07-28T09:22:47Z</time>
      </trkpt>
      <trkpt lat="45.0014750" lon="6.8408870">
        <ele>1680.8</ele>
        <time>2017-07-28T09:22:48Z</time>
      </trkpt>
      <trkpt lat="45.0015110" lon="6.8408560">
        <ele>1679.6</ele>
        <time>2017-07-28T09:22:49Z</time>
      </trkpt>
      <trkpt lat="45.0015360" lon="6.8408230">
        <ele>1678.4</ele>
        <time>2017-07-28T09:22:50Z</time>
      </trkpt>
      <trkpt lat="45.0015380" lon="6.8407840">
        <ele>1675.8</ele>
        <time>2017-07-28T09:22:51Z</time>
      </trkpt>
      <trkpt lat="45.0014970" lon="6.8407850">
        <ele>1674.4</ele>
        <time>2017-07-28T09:22:52Z</time>
      </trkpt>
      <trkpt lat="45.0014340" lon="6.8407800">
        <ele>1673.2</ele>
        <time>2017-07-28T09:22:53Z</time>
      </trkpt>
      <trkpt lat="45.0013830" lon="6.8407620">
        <ele>1672.0</ele>
        <time>2017-07-28T09:22:54Z</time>
      </trkpt>
      <trkpt lat="45.0013360" lon="6.8407690">
        <ele>1671.0</ele>
        <time>2017-07-28T09:22:55Z</time>
      </trkpt>
      <trkpt lat="45.0012860" lon="6.8407680">
        <ele>1669.6</ele>
        <time>2017-07-28T09:22:56Z</time>
      </trkpt>
      <trkpt lat="45.0012370" lon="6.8407490">
        <ele>1668.4</ele>
        <time>2017-07-28T09:22:57Z</time>
      </trkpt>
      <trkpt lat="45.0011900" lon="6.8407240">
        <ele>1666.8</ele>
        <time>2017-07-28T09:22:58Z</time>
      </trkpt>
      <trkpt lat="45.0011410" lon="6.8407130">
        <ele>1665.8</ele>
        <time>2017-07-28T09:22:59Z</time>
      </trkpt>
      <trkpt lat="45.0010910" lon="6.8406980">
        <ele>1664.6</ele>
        <time>2017-07-28T09:23:00Z</time>
      </trkpt>
      <trkpt lat="45.0010570" lon="6.8406840">
        <ele>1663.6</ele>
        <time>2017-07-28T09:23:01Z</time>
      </trkpt>
      <trkpt lat="45.0010200" lon="6.8406750">
        <ele>1662.2</ele>
        <time>2017-07-28T09:23:02Z</time>
      </trkpt>
      <trkpt lat="45.0009920" lon="6.8406600">
        <ele>1661.2</ele>
        <time>2017-07-28T09:23:03Z</time>
      </trkpt>
      <trkpt lat="45.0009700" lon="6.8406530">
        <ele>1660.0</ele>
        <time>2017-07-28T09:23:04Z</time>
      </trkpt>
      <trkpt lat="45.0009560" lon="6.8406150">
        <ele>1658.0</ele>
        <time>2017-07-28T09:23:06Z</time>
      </trkpt>
      <trkpt lat="45.0009670" lon="6.8405650">
        <ele>1656.8</ele>
        <time>2017-07-28T09:23:07Z</time>
      </trkpt>
      <trkpt lat="45.0009960" lon="6.8404300">
        <ele>1655.0</ele>
        <time>2017-07-28T09:23:09Z</time>
      </trkpt>
      <trkpt lat="45.0010190" lon="6.8403680">
        <ele>1654.4</ele>
        <time>2017-07-28T09:23:10Z</time>
      </trkpt>
      <trkpt lat="45.0010440" lon="6.8403060">
        <ele>1653.2</ele>
        <time>2017-07-28T09:23:11Z</time>
      </trkpt>
      <trkpt lat="45.0010940" lon="6.8401580">
        <ele>1651.4</ele>
        <time>2017-07-28T09:23:13Z</time>
      </trkpt>
      <trkpt lat="45.0011200" lon="6.8401000">
        <ele>1650.4</ele>
        <time>2017-07-28T09:23:14Z</time>
      </trkpt>
      <trkpt lat="45.0011470" lon="6.8400590">
        <ele>1648.4</ele>
        <time>2017-07-28T09:23:15Z</time>
      </trkpt>
      <trkpt lat="45.0011810" lon="6.8400140">
        <ele>1647.2</ele>
        <time>2017-07-28T09:23:16Z</time>
      </trkpt>
      <trkpt lat="45.0012040" lon="6.8399760">
        <ele>1645.8</ele>
        <time>2017-07-28T09:23:17Z</time>
      </trkpt>
      <trkpt lat="45.0012360" lon="6.8398980">
        <ele>1644.0</ele>
        <time>2017-07-28T09:23:19Z</time>
      </trkpt>
      <trkpt lat="45.0012640" lon="6.8398460">
        <ele>1642.8</ele>
        <time>2017-07-28T09:23:20Z</time>
      </trkpt>
      <trkpt lat="45.0012920" lon="6.8398120">
        <ele>1641.4</ele>
        <time>2017-07-28T09:23:21Z</time>
      </trkpt>
      <trkpt lat="45.0013230" lon="6.8397900">
        <ele>1639.8</ele>
        <time>2017-07-28T09:23:22Z</time>
      </trkpt>
      <trkpt lat="45.0013560" lon="6.8397700">
        <ele>1638.6</ele>
        <time>2017-07-28T09:23:23Z</time>
      </trkpt>
      <trkpt lat="45.0013890" lon="6.8397350">
        <ele>1637.2</ele>
        <time>2017-07-28T09:23:24Z</time>
      </trkpt>
      <trkpt lat="45.0014150" lon="6.8397050">
        <ele>1635.6</ele>
        <time>2017-07-28T09:23:25Z</time>
      </trkpt>
      <trkpt lat="45.0014470" lon="6.8396770">
        <ele>1634.2</ele>
        <time>2017-07-28T09:23:26Z</time>
      </trkpt>
      <trkpt lat="45.0014740" lon="6.8396430">
        <ele>1633.0</ele>
        <time>2017-07-28T09:23:27Z</time>
      </trkpt>
      <trkpt lat="45.0015860" lon="6.8395660">
        <ele>1631.8</ele>
        <time>2017-07-28T09:23:28Z</time>
      </trkpt>
      <trkpt lat="45.0016970" lon="6.8394880">
        <ele>1630.4</ele>
        <time>2017-07-28T09:23:29Z</time>
      </trkpt>
      <trkpt lat="45.0017670" lon="6.8394270">
        <ele>1629.2</ele>
        <time>2017-07-28T09:23:30Z</time>
      </trkpt>
      <trkpt lat="45.0018850" lon="6.8393730">
        <ele>1627.4</ele>
        <time>2017-07-28T09:23:31Z</time>
      </trkpt>
      <trkpt lat="45.0019220" lon="6.8393280">
        <ele>1626.0</ele>
        <time>2017-07-28T09:23:32Z</time>
      </trkpt>
      <trkpt lat="45.0019380" lon="6.8392760">
        <ele>1624.4</ele>
        <time>2017-07-28T09:23:33Z</time>
      </trkpt>
      <trkpt lat="45.0019650" lon="6.8392540">
        <ele>1623.0</ele>
        <time>2017-07-28T09:23:34Z</time>
      </trkpt>
      <trkpt lat="45.0019420" lon="6.8392430">
        <ele>1621.4</ele>
        <time>2017-07-28T09:23:35Z</time>
      </trkpt>
      <trkpt lat="45.0019000" lon="6.8392200">
        <ele>1619.8</ele>
        <time>2017-07-28T09:23:36Z</time>
      </trkpt>
      <trkpt lat="45.0019540" lon="6.8391370">
        <ele>1618.4</ele>
        <time>2017-07-28T09:23:37Z</time>
      </trkpt>
      <trkpt lat="45.0019310" lon="6.8390770">
        <ele>1617.2</ele>
        <time>2017-07-28T09:23:38Z</time>
      </trkpt>
      <trkpt lat="45.0019870" lon="6.8389820">
        <ele>1614.8</ele>
        <time>2017-07-28T09:23:39Z</time>
      </trkpt>
      <trkpt lat="45.0020330" lon="6.8388920">
        <ele>1613.4</ele>
        <time>2017-07-28T09:23:40Z</time>
      </trkpt>
      <trkpt lat="45.0020700" lon="6.8388120">
        <ele>1612.0</ele>
        <time>2017-07-28T09:23:41Z</time>
      </trkpt>
      <trkpt lat="45.0021130" lon="6.8387310">
        <ele>1610.8</ele>
        <time>2017-07-28T09:23:42Z</time>
      </trkpt>
      <trkpt lat="45.0021560" lon="6.8386570">
        <ele>1609.6</ele>
        <time>2017-07-28T09:23:43Z</time>
      </trkpt>
      <trkpt lat="45.0021650" lon="6.8385980">
        <ele>1608.2</ele>
        <time>2017-07-28T09:23:44Z</time>
      </trkpt>
      <trkpt lat="45.0021970" lon="6.8385310">
        <ele>1606.8</ele>
        <time>2017-07-28T09:23:45Z</time>
      </trkpt>
      <trkpt lat="45.0022510" lon="6.8384580">
        <ele>1605.8</ele>
        <time>2017-07-28T09:23:46Z</time>
      </trkpt>
      <trkpt lat="45.0023010" lon="6.8383810">
        <ele>1604.6</ele>
        <time>2017-07-28T09:23:47Z</time>
      </trkpt>
      <trkpt lat="45.0023370" lon="6.8383070">
        <ele>1603.4</ele>
        <time>2017-07-28T09:23:48Z</time>
      </trkpt>
      <trkpt lat="45.0023920" lon="6.8382070">
        <ele>1602.2</ele>
        <time>2017-07-28T09:23:49Z</time>
      </trkpt>
      <trkpt lat="45.0024540" lon="6.8381210">
        <ele>1601.0</ele>
        <time>2017-07-28T09:23:50Z</time>
      </trkpt>
      <trkpt lat="45.0025080" lon="6.8380330">
        <ele>1599.8</ele>
        <time>2017-07-28T09:23:51Z</time>
      </trkpt>
      <trkpt lat="45.0025340" lon="6.8379830">
        <ele>1598.6</ele>
        <time>2017-07-28T09:23:52Z</time>
      </trkpt>
      <trkpt lat="45.0025760" lon="6.8379150">
        <ele>1597.6</ele>
        <time>2017-07-28T09:23:53Z</time>
      </trkpt>
      <trkpt lat="45.0026150" lon="6.8378560">
        <ele>1596.4</ele>
        <time>2017-07-28T09:23:54Z</time>
      </trkpt>
      <trkpt lat="45.0026590" lon="6.8377930">
        <ele>1595.2</ele>
        <time>2017-07-28T09:23:55Z</time>
      </trkpt>
      <trkpt lat="45.0026990" lon="6.8377140">
        <ele>1593.6</ele>
        <time>2017-07-28T09:23:56Z</time>
      </trkpt>
      <trkpt lat="45.0027070" lon="6.8376580">
        <ele>1592.2</ele>
        <time>2017-07-28T09:23:57Z</time>
      </trkpt>
      <trkpt lat="45.0027660" lon="6.8375900">
        <ele>1591.0</ele>
        <time>2017-07-28T09:23:58Z</time>
      </trkpt>
      <trkpt lat="45.0028370" lon="6.8375310">
        <ele>1589.8</ele>
        <time>2017-07-28T09:23:59Z</time>
      </trkpt>
      <trkpt lat="45.0028980" lon="6.8374780">
        <ele>1588.6</ele>
        <time>2017-07-28T09:24:00Z</time>
      </trkpt>
      <trkpt lat="45.0029600" lon="6.8374160">
        <ele>1587.2</ele>
        <time>2017-07-28T09:24:01Z</time>
      </trkpt>
      <trkpt lat="45.0030140" lon="6.8373780">
        <ele>1585.8</ele>
        <time>2017-07-28T09:24:02Z</time>
      </trkpt>
      <trkpt lat="45.0030540" lon="6.8373530">
        <ele>1583.2</ele>
        <time>2017-07-28T09:24:03Z</time>
      </trkpt>
      <trkpt lat="45.0030970" lon="6.8373050">
        <ele>1581.6</ele>
        <time>2017-07-28T09:24:04Z</time>
      </trkpt>
      <trkpt lat="45.0031290" lon="6.8372750">
        <ele>1580.2</ele>
        <time>2017-07-28T09:24:05Z</time>
      </trkpt>
      <trkpt lat="45.0031400" lon="6.8372480">
        <ele>1578.8</ele>
        <time>2017-07-28T09:24:06Z</time>
      </trkpt>
      <trkpt lat="45.0031330" lon="6.8372310">
        <ele>1577.6</ele>
        <time>2017-07-28T09:24:07Z</time>
      </trkpt>
      <trkpt lat="45.0031230" lon="6.8372230">
        <ele>1576.4</ele>
        <time>2017-07-28T09:24:08Z</time>
      </trkpt>
      <trkpt lat="45.0031020" lon="6.8372840">
        <ele>1567.8</ele>
        <time>2017-07-28T09:24:22Z</time>
      </trkpt>
      <trkpt lat="45.0030990" lon="6.8372780">
        <ele>1567.4</ele>
        <time>2017-07-28T09:24:23Z</time>
      </trkpt>
      <trkpt lat="45.0030870" lon="6.8373000">
        <ele>1566.8</ele>
        <time>2017-07-28T09:24:25Z</time>
      </trkpt>
      <trkpt lat="45.0030640" lon="6.8373470">
        <ele>1565.4</ele>
        <time>2017-07-28T09:24:27Z</time>
      </trkpt>
      <trkpt lat="45.0030530" lon="6.8373660">
        <ele>1565.0</ele>
        <time>2017-07-28T09:24:28Z</time>
      </trkpt>
      <trkpt lat="45.0030450" lon="6.8373790">
        <ele>1564.6</ele>
        <time>2017-07-28T09:24:29Z</time>
      </trkpt>
      <trkpt lat="45.0030400" lon="6.8373960">
        <ele>1564.4</ele>
        <time>2017-07-28T09:24:30Z</time>
      </trkpt>
      <trkpt lat="45.0029910" lon="6.8374900">
        <ele>1563.2</ele>
        <time>2017-07-28T09:24:34Z</time>
      </trkpt>
      <trkpt lat="45.0029100" lon="6.8376100">
        <ele>1562.8</ele>
        <time>2017-07-28T09:24:40Z</time>
      </trkpt>
      <trkpt lat="45.0028370" lon="6.8377980">
        <ele>1562.8</ele>
        <time>2017-07-28T09:24:45Z</time>
      </trkpt>
      <trkpt lat="45.0028150" lon="6.8378470">
        <ele>1563.2</ele>
        <time>2017-07-28T09:24:47Z</time>
      </trkpt>
      <trkpt lat="45.0027650" lon="6.8379450">
        <ele>1563.8</ele>
        <time>2017-07-28T09:24:52Z</time>
      </trkpt>
      <trkpt lat="45.0027220" lon="6.8380510">
        <ele>1564.4</ele>
        <time>2017-07-28T09:24:56Z</time>
      </trkpt>
      <trkpt lat="45.0027050" lon="6.8381260">
        <ele>1564.8</ele>
        <time>2017-07-28T09:24:58Z</time>
      </trkpt>
      <trkpt lat="45.0026840" lon="6.8381850">
        <ele>1565.6</ele>
        <time>2017-07-28T09:25:00Z</time>
      </trkpt>
      <trkpt lat="45.0027020" lon="6.8383450">
        <ele>1566.4</ele>
        <time>2017-07-28T09:25:05Z</time>
      </trkpt>
      <trkpt lat="45.0027060" lon="6.8384170">
        <ele>1566.6</ele>
        <time>2017-07-28T09:25:08Z</time>
      </trkpt>
      <trkpt lat="45.0027080" lon="6.8384620">
        <ele>1567.8</ele>
        <time>2017-07-28T09:25:11Z</time>
      </trkpt>
      <trkpt lat="45.0027210" lon="6.8384750">
        <ele>1568.2</ele>
        <time>2017-07-28T09:25:12Z</time>
      </trkpt>
      <trkpt lat="45.0027210" lon="6.8384830">
        <ele>1569.0</ele>
        <time>2017-07-28T09:25:14Z</time>
      </trkpt>
      <trkpt lat="45.0027090" lon="6.8384830">
        <ele>1570.4</ele>
        <time>2017-07-28T09:25:16Z</time>
      </trkpt>
      <trkpt lat="45.0027060" lon="6.8385110">
        <ele>1571.4</ele>
        <time>2017-07-28T09:25:18Z</time>
      </trkpt>
      <trkpt lat="45.0026920" lon="6.8385280">
        <ele>1571.8</ele>
        <time>2017-07-28T09:25:19Z</time>
      </trkpt>
      <trkpt lat="45.0026740" lon="6.8385650">
        <ele>1573.0</ele>
        <time>2017-07-28T09:25:22Z</time>
      </trkpt>
      <trkpt lat="45.0026450" lon="6.8385920">
        <ele>1573.4</ele>
        <time>2017-07-28T09:25:24Z</time>
      </trkpt>
      <trkpt lat="45.0026120" lon="6.8386120">
        <ele>1574.2</ele>
        <time>2017-07-28T09:25:26Z</time>
      </trkpt>
      <trkpt lat="45.0025480" lon="6.8386600">
        <ele>1575.4</ele>
        <time>2017-07-28T09:25:30Z</time>
      </trkpt>
      <trkpt lat="45.0025020" lon="6.8387200">
        <ele>1576.0</ele>
        <time>2017-07-28T09:25:33Z</time>
      </trkpt>
      <trkpt lat="45.0024530" lon="6.8387950">
        <ele>1576.4</ele>
        <time>2017-07-28T09:25:36Z</time>
      </trkpt>
      <trkpt lat="45.0023940" lon="6.8388270">
        <ele>1577.0</ele>
        <time>2017-07-28T09:25:39Z</time>
      </trkpt>
      <trkpt lat="45.0023770" lon="6.8388500">
        <ele>1577.4</ele>
        <time>2017-07-28T09:25:40Z</time>
      </trkpt>
      <trkpt lat="45.0023600" lon="6.8388760">
        <ele>1577.8</ele>
        <time>2017-07-28T09:25:41Z</time>
      </trkpt>
      <trkpt lat="45.0023060" lon="6.8389830">
        <ele>1579.0</ele>
        <time>2017-07-28T09:25:45Z</time>
      </trkpt>
      <trkpt lat="45.0022470" lon="6.8390900">
        <ele>1580.2</ele>
        <time>2017-07-28T09:25:49Z</time>
      </trkpt>
      <trkpt lat="45.0022040" lon="6.8392250">
        <ele>1581.6</ele>
        <time>2017-07-28T09:25:53Z</time>
      </trkpt>
      <trkpt lat="45.0021560" lon="6.8393130">
        <ele>1582.2</ele>
        <time>2017-07-28T09:25:56Z</time>
      </trkpt>
      <trkpt lat="45.0020190" lon="6.8393480">
        <ele>1582.0</ele>
        <time>2017-07-28T09:26:01Z</time>
      </trkpt>
      <trkpt lat="45.0019110" lon="6.8392350">
        <ele>1582.4</ele>
        <time>2017-07-28T09:26:05Z</time>
      </trkpt>
      <trkpt lat="45.0018960" lon="6.8392030">
        <ele>1582.6</ele>
        <time>2017-07-28T09:26:06Z</time>
      </trkpt>
      <trkpt lat="45.0018530" lon="6.8391260">
        <ele>1583.6</ele>
        <time>2017-07-28T09:26:09Z</time>
      </trkpt>
      <trkpt lat="45.0018440" lon="6.8391030">
        <ele>1583.8</ele>
        <time>2017-07-28T09:26:10Z</time>
      </trkpt>
      <trkpt lat="45.0018250" lon="6.8390140">
        <ele>1585.2</ele>
        <time>2017-07-28T09:26:13Z</time>
      </trkpt>
      <trkpt lat="45.0018150" lon="6.8389570">
        <ele>1586.0</ele>
        <time>2017-07-28T09:26:15Z</time>
      </trkpt>
      <trkpt lat="45.0018060" lon="6.8389270">
        <ele>1586.6</ele>
        <time>2017-07-28T09:26:16Z</time>
      </trkpt>
      <trkpt lat="45.0017790" lon="6.8388510">
        <ele>1587.8</ele>
        <time>2017-07-28T09:26:19Z</time>
      </trkpt>
      <trkpt lat="45.0017860" lon="6.8388290">
        <ele>1588.4</ele>
        <time>2017-07-28T09:26:20Z</time>
      </trkpt>
      <trkpt lat="45.0017790" lon="6.8387590">
        <ele>1589.0</ele>
        <time>2017-07-28T09:26:22Z</time>
      </trkpt>
      <trkpt lat="45.0017490" lon="6.8386300">
        <ele>1588.8</ele>
        <time>2017-07-28T09:26:26Z</time>
      </trkpt>
      <trkpt lat="45.0017480" lon="6.8385200">
        <ele>1590.2</ele>
        <time>2017-07-28T09:26:30Z</time>
      </trkpt>
      <trkpt lat="45.0017520" lon="6.8384900">
        <ele>1590.4</ele>
        <time>2017-07-28T09:26:31Z</time>
      </trkpt>
      <trkpt lat="45.0017720" lon="6.8384780">
        <ele>1590.8</ele>
        <time>2017-07-28T09:26:32Z</time>
      </trkpt>
      <trkpt lat="45.0017840" lon="6.8384390">
        <ele>1591.4</ele>
        <time>2017-07-28T09:26:34Z</time>
      </trkpt>
      <trkpt lat="45.0017930" lon="6.8384100">
        <ele>1592.0</ele>
        <time>2017-07-28T09:26:36Z</time>
      </trkpt>
      <trkpt lat="45.0017920" lon="6.8383560">
        <ele>1592.8</ele>
        <time>2017-07-28T09:26:38Z</time>
      </trkpt>
      <trkpt lat="45.0017970" lon="6.8383350">
        <ele>1593.2</ele>
        <time>2017-07-28T09:26:39Z</time>
      </trkpt>
      <trkpt lat="45.0017950" lon="6.8382700">
        <ele>1594.0</ele>
        <time>2017-07-28T09:26:41Z</time>
      </trkpt>
      <trkpt lat="45.0017860" lon="6.8381810">
        <ele>1595.0</ele>
        <time>2017-07-28T09:26:44Z</time>
      </trkpt>
      <trkpt lat="45.0017740" lon="6.8380850">
        <ele>1596.0</ele>
        <time>2017-07-28T09:26:47Z</time>
      </trkpt>
      <trkpt lat="45.0017980" lon="6.8380430">
        <ele>1596.2</ele>
        <time>2017-07-28T09:26:48Z</time>
      </trkpt>
      <trkpt lat="45.0018080" lon="6.8380000">
        <ele>1596.6</ele>
        <time>2017-07-28T09:26:49Z</time>
      </trkpt>
      <trkpt lat="45.0018350" lon="6.8379430">
        <ele>1597.4</ele>
        <time>2017-07-28T09:26:51Z</time>
      </trkpt>
      <trkpt lat="45.0018590" lon="6.8378600">
        <ele>1597.8</ele>
        <time>2017-07-28T09:26:53Z</time>
      </trkpt>
      <trkpt lat="45.0018670" lon="6.8377490">
        <ele>1598.8</ele>
        <time>2017-07-28T09:26:56Z</time>
      </trkpt>
      <trkpt lat="45.0018360" lon="6.8376530">
        <ele>1599.0</ele>
        <time>2017-07-28T09:26:58Z</time>
      </trkpt>
      <trkpt lat="45.0018150" lon="6.8375710">
        <ele>1599.4</ele>
        <time>2017-07-28T09:27:00Z</time>
      </trkpt>
      <trkpt lat="45.0017800" lon="6.8375140">
        <ele>1599.8</ele>
        <time>2017-07-28T09:27:02Z</time>
      </trkpt>
      <trkpt lat="45.0017590" lon="6.8374900">
        <ele>1599.8</ele>
        <time>2017-07-28T09:27:03Z</time>
      </trkpt>
      <trkpt lat="45.0017030" lon="6.8374310">
        <ele>1600.2</ele>
        <time>2017-07-28T09:27:06Z</time>
      </trkpt>
      <trkpt lat="45.0016430" lon="6.8374140">
        <ele>1600.6</ele>
        <time>2017-07-28T09:27:09Z</time>
      </trkpt>
      <trkpt lat="45.0016060" lon="6.8374090">
        <ele>1601.0</ele>
        <time>2017-07-28T09:27:11Z</time>
      </trkpt>
      <trkpt lat="45.0015470" lon="6.8373710">
        <ele>1602.0</ele>
        <time>2017-07-28T09:27:14Z</time>
      </trkpt>
      <trkpt lat="45.0015230" lon="6.8373400">
        <ele>1602.4</ele>
        <time>2017-07-28T09:27:15Z</time>
      </trkpt>
      <trkpt lat="45.0014640" lon="6.8372460">
        <ele>1603.2</ele>
        <time>2017-07-28T09:27:18Z</time>
      </trkpt>
      <trkpt lat="45.0014190" lon="6.8371610">
        <ele>1604.2</ele>
        <time>2017-07-28T09:27:21Z</time>
      </trkpt>
      <trkpt lat="45.0013960" lon="6.8371370">
        <ele>1604.4</ele>
        <time>2017-07-28T09:27:22Z</time>
      </trkpt>
      <trkpt lat="45.0013680" lon="6.8371260">
        <ele>1604.8</ele>
        <time>2017-07-28T09:27:23Z</time>
      </trkpt>
      <trkpt lat="45.0013100" lon="6.8371080">
        <ele>1605.0</ele>
        <time>2017-07-28T09:27:26Z</time>
      </trkpt>
      <trkpt lat="45.0012690" lon="6.8371210">
        <ele>1605.6</ele>
        <time>2017-07-28T09:27:28Z</time>
      </trkpt>
      <trkpt lat="45.0011890" lon="6.8371360">
        <ele>1606.6</ele>
        <time>2017-07-28T09:27:32Z</time>
      </trkpt>
      <trkpt lat="45.0010230" lon="6.8370580">
        <ele>1607.0</ele>
        <time>2017-07-28T09:27:37Z</time>
      </trkpt>
      <trkpt lat="45.0009530" lon="6.8369810">
        <ele>1606.4</ele>
        <time>2017-07-28T09:27:39Z</time>
      </trkpt>
      <trkpt lat="45.0008510" lon="6.8368460">
        <ele>1606.0</ele>
        <time>2017-07-28T09:27:42Z</time>
      </trkpt>
      <trkpt lat="45.0006780" lon="6.8366760">
        <ele>1606.2</ele>
        <time>2017-07-28T09:27:47Z</time>
      </trkpt>
      <trkpt lat="45.0006120" lon="6.8366270">
        <ele>1606.6</ele>
        <time>2017-07-28T09:27:49Z</time>
      </trkpt>
      <trkpt lat="45.0004450" lon="6.8364950">
        <ele>1606.8</ele>
        <time>2017-07-28T09:27:55Z</time>
      </trkpt>
      <trkpt lat="45.0003180" lon="6.8363000">
        <ele>1607.4</ele>
        <time>2017-07-28T09:28:00Z</time>
      </trkpt>
      <trkpt lat="45.0001820" lon="6.8360070">
        <ele>1607.6</ele>
        <time>2017-07-28T09:28:04Z</time>
      </trkpt>
      <trkpt lat="45.0001000" lon="6.8358540">
        <ele>1607.8</ele>
        <time>2017-07-28T09:28:06Z</time>
      </trkpt>
      <trkpt lat="45.0000190" lon="6.8357350">
        <ele>1608.0</ele>
        <time>2017-07-28T09:28:08Z</time>
      </trkpt>
      <trkpt lat="44.9999780" lon="6.8356880">
        <ele>1608.2</ele>
        <time>2017-07-28T09:28:09Z</time>
      </trkpt>
      <trkpt lat="44.9998670" lon="6.8355570">
        <ele>1609.0</ele>
        <time>2017-07-28T09:28:12Z</time>
      </trkpt>
      <trkpt lat="44.9997970" lon="6.8354530">
        <ele>1609.6</ele>
        <time>2017-07-28T09:28:15Z</time>
      </trkpt>
      <trkpt lat="44.9997740" lon="6.8354150">
        <ele>1610.0</ele>
        <time>2017-07-28T09:28:16Z</time>
      </trkpt>
      <trkpt lat="44.9996760" lon="6.8353080">
        <ele>1611.0</ele>
        <time>2017-07-28T09:28:20Z</time>
      </trkpt>
      <trkpt lat="44.9996530" lon="6.8352900">
        <ele>1611.2</ele>
        <time>2017-07-28T09:28:21Z</time>
      </trkpt>
      <trkpt lat="44.9995890" lon="6.8351850">
        <ele>1612.2</ele>
        <time>2017-07-28T09:28:25Z</time>
      </trkpt>
      <trkpt lat="44.9995710" lon="6.8351090">
        <ele>1612.4</ele>
        <time>2017-07-28T09:28:27Z</time>
      </trkpt>
      <trkpt lat="44.9995370" lon="6.8350180">
        <ele>1613.2</ele>
        <time>2017-07-28T09:28:30Z</time>
      </trkpt>
      <trkpt lat="44.9994720" lon="6.8349080">
        <ele>1613.8</ele>
        <time>2017-07-28T09:28:34Z</time>
      </trkpt>
      <trkpt lat="44.9994180" lon="6.8348560">
        <ele>1614.2</ele>
        <time>2017-07-28T09:28:37Z</time>
      </trkpt>
      <trkpt lat="44.9993010" lon="6.8346200">
        <ele>1616.6</ele>
        <time>2017-07-28T09:29:04Z</time>
      </trkpt>
      <trkpt lat="44.9992980" lon="6.8345990">
        <ele>1616.2</ele>
        <time>2017-07-28T09:29:05Z</time>
      </trkpt>
      <trkpt lat="44.9993030" lon="6.8345170">
        <ele>1615.6</ele>
        <time>2017-07-28T09:29:07Z</time>
      </trkpt>
      <trkpt lat="44.9992960" lon="6.8343970">
        <ele>1615.0</ele>
        <time>2017-07-28T09:29:10Z</time>
      </trkpt>
      <trkpt lat="44.9993020" lon="6.8341100">
        <ele>1615.8</ele>
        <time>2017-07-28T09:29:16Z</time>
      </trkpt>
      <trkpt lat="44.9992900" lon="6.8339770">
        <ele>1616.8</ele>
        <time>2017-07-28T09:29:19Z</time>
      </trkpt>
      <trkpt lat="44.9992610" lon="6.8338700">
        <ele>1617.4</ele>
        <time>2017-07-28T09:29:21Z</time>
      </trkpt>
      <trkpt lat="44.9992420" lon="6.8338180">
        <ele>1617.8</ele>
        <time>2017-07-28T09:29:22Z</time>
      </trkpt>
      <trkpt lat="44.9991570" lon="6.8336380">
        <ele>1618.6</ele>
        <time>2017-07-28T09:29:26Z</time>
      </trkpt>
      <trkpt lat="44.9991430" lon="6.8335960">
        <ele>1619.0</ele>
        <time>2017-07-28T09:29:27Z</time>
      </trkpt>
      <trkpt lat="44.9991100" lon="6.8335000">
        <ele>1620.0</ele>
        <time>2017-07-28T09:29:30Z</time>
      </trkpt>
      <trkpt lat="44.9990970" lon="6.8334700">
        <ele>1620.4</ele>
        <time>2017-07-28T09:29:31Z</time>
      </trkpt>
      <trkpt lat="44.9990620" lon="6.8334080">
        <ele>1621.2</ele>
        <time>2017-07-28T09:29:33Z</time>
      </trkpt>
      <trkpt lat="44.9989810" lon="6.8333310">
        <ele>1622.0</ele>
        <time>2017-07-28T09:29:36Z</time>
      </trkpt>
      <trkpt lat="44.9989550" lon="6.8333130">
        <ele>1622.2</ele>
        <time>2017-07-28T09:29:37Z</time>
      </trkpt>
      <trkpt lat="44.9988750" lon="6.8332770">
        <ele>1623.0</ele>
        <time>2017-07-28T09:29:40Z</time>
      </trkpt>
      <trkpt lat="44.9988530" lon="6.8332810">
        <ele>1623.0</ele>
        <time>2017-07-28T09:29:41Z</time>
      </trkpt>
      <trkpt lat="44.9988000" lon="6.8333100">
        <ele>1623.0</ele>
        <time>2017-07-28T09:29:43Z</time>
      </trkpt>
      <trkpt lat="44.9987870" lon="6.8333390">
        <ele>1623.2</ele>
        <time>2017-07-28T09:29:45Z</time>
      </trkpt>
      <trkpt lat="44.9987980" lon="6.8333880">
        <ele>1623.2</ele>
        <time>2017-07-28T09:29:48Z</time>
      </trkpt>
      <trkpt lat="44.9987970" lon="6.8334040">
        <ele>1623.2</ele>
        <time>2017-07-28T09:29:49Z</time>
      </trkpt>
      <trkpt lat="44.9987800" lon="6.8334490">
        <ele>1623.4</ele>
        <time>2017-07-28T09:29:52Z</time>
      </trkpt>
      <trkpt lat="44.9987300" lon="6.8335240">
        <ele>1623.6</ele>
        <time>2017-07-28T09:29:57Z</time>
      </trkpt>
      <trkpt lat="44.9987030" lon="6.8335650">
        <ele>1624.0</ele>
        <time>2017-07-28T09:30:00Z</time>
      </trkpt>
      <trkpt lat="44.9987040" lon="6.8336390">
        <ele>1624.4</ele>
        <time>2017-07-28T09:30:05Z</time>
      </trkpt>
      <trkpt lat="44.9985770" lon="6.8338180">
        <ele>1630.4</ele>
        <time>2017-07-28T09:30:22Z</time>
      </trkpt>
      <trkpt lat="44.9985630" lon="6.8338300">
        <ele>1630.6</ele>
        <time>2017-07-28T09:30:23Z</time>
      </trkpt>
      <trkpt lat="44.9985240" lon="6.8338680">
        <ele>1631.2</ele>
        <time>2017-07-28T09:30:26Z</time>
      </trkpt>
      <trkpt lat="44.9984910" lon="6.8339180">
        <ele>1631.6</ele>
        <time>2017-07-28T09:30:29Z</time>
      </trkpt>
      <trkpt lat="44.9984430" lon="6.8340560">
        <ele>1632.6</ele>
        <time>2017-07-28T09:30:35Z</time>
      </trkpt>
      <trkpt lat="44.9984410" lon="6.8340750">
        <ele>1632.6</ele>
        <time>2017-07-28T09:30:36Z</time>
      </trkpt>
      <trkpt lat="44.9984420" lon="6.8340950">
        <ele>1632.6</ele>
        <time>2017-07-28T09:30:37Z</time>
      </trkpt>
      <trkpt lat="44.9984460" lon="6.8341860">
        <ele>1633.8</ele>
        <time>2017-07-28T09:30:41Z</time>
      </trkpt>
      <trkpt lat="44.9984460" lon="6.8342070">
        <ele>1634.0</ele>
        <time>2017-07-28T09:30:42Z</time>
      </trkpt>
      <trkpt lat="44.9984460" lon="6.8342880">
        <ele>1635.0</ele>
        <time>2017-07-28T09:30:46Z</time>
      </trkpt>
      <trkpt lat="44.9984310" lon="6.8343180">
        <ele>1635.6</ele>
        <time>2017-07-28T09:30:48Z</time>
      </trkpt>
      <trkpt lat="44.9984200" lon="6.8343280">
        <ele>1636.0</ele>
        <time>2017-07-28T09:30:49Z</time>
      </trkpt>
      <trkpt lat="44.9984110" lon="6.8343400">
        <ele>1636.2</ele>
        <time>2017-07-28T09:30:50Z</time>
      </trkpt>
      <trkpt lat="44.9983120" lon="6.8344410">
        <ele>1638.6</ele>
        <time>2017-07-28T09:31:01Z</time>
      </trkpt>
      <trkpt lat="44.9982990" lon="6.8344530">
        <ele>1638.8</ele>
        <time>2017-07-28T09:31:02Z</time>
      </trkpt>
      <trkpt lat="44.9982410" lon="6.8345370">
        <ele>1639.6</ele>
        <time>2017-07-28T09:31:08Z</time>
      </trkpt>
      <trkpt lat="44.9982300" lon="6.8345500">
        <ele>1639.6</ele>
        <time>2017-07-28T09:31:09Z</time>
      </trkpt>
      <trkpt lat="44.9981900" lon="6.8345810">
        <ele>1640.8</ele>
        <time>2017-07-28T09:31:13Z</time>
      </trkpt>
      <trkpt lat="44.9981660" lon="6.8345970">
        <ele>1641.6</ele>
        <time>2017-07-28T09:31:15Z</time>
      </trkpt>
      <trkpt lat="44.9981520" lon="6.8346060">
        <ele>1642.0</ele>
        <time>2017-07-28T09:31:16Z</time>
      </trkpt>
      <trkpt lat="44.9981040" lon="6.8346250">
        <ele>1643.4</ele>
        <time>2017-07-28T09:31:19Z</time>
      </trkpt>
      <trkpt lat="44.9980310" lon="6.8346540">
        <ele>1644.2</ele>
        <time>2017-07-28T09:31:23Z</time>
      </trkpt>
      <trkpt lat="44.9980130" lon="6.8346600">
        <ele>1644.4</ele>
        <time>2017-07-28T09:31:24Z</time>
      </trkpt>
      <trkpt lat="44.9979360" lon="6.8346780">
        <ele>1645.8</ele>
        <time>2017-07-28T09:31:28Z</time>
      </trkpt>
      <trkpt lat="44.9979080" lon="6.8346800">
        <ele>1646.8</ele>
        <time>2017-07-28T09:31:30Z</time>
      </trkpt>
      <trkpt lat="44.9978930" lon="6.8346800">
        <ele>1647.4</ele>
        <time>2017-07-28T09:31:31Z</time>
      </trkpt>
      <trkpt lat="44.9978770" lon="6.8346770">
        <ele>1647.8</ele>
        <time>2017-07-28T09:31:32Z</time>
      </trkpt>
      <trkpt lat="44.9978360" lon="6.8346680">
        <ele>1649.0</ele>
        <time>2017-07-28T09:31:35Z</time>
      </trkpt>
      <trkpt lat="44.9978110" lon="6.8346650">
        <ele>1649.8</ele>
        <time>2017-07-28T09:31:37Z</time>
      </trkpt>
      <trkpt lat="44.9977990" lon="6.8346620">
        <ele>1649.8</ele>
        <time>2017-07-28T09:31:38Z</time>
      </trkpt>
      <trkpt lat="44.9977870" lon="6.8346600">
        <ele>1650.0</ele>
        <time>2017-07-28T09:31:39Z</time>
      </trkpt>
      <trkpt lat="44.9977060" lon="6.8346660">
        <ele>1651.2</ele>
        <time>2017-07-28T09:31:44Z</time>
      </trkpt>
      <trkpt lat="44.9976630" lon="6.8346610">
        <ele>1651.4</ele>
        <time>2017-07-28T09:31:47Z</time>
      </trkpt>
      <trkpt lat="44.9976320" lon="6.8346700">
        <ele>1652.2</ele>
        <time>2017-07-28T09:31:49Z</time>
      </trkpt>
      <trkpt lat="44.9975810" lon="6.8346950">
        <ele>1653.2</ele>
        <time>2017-07-28T09:31:52Z</time>
      </trkpt>
      <trkpt lat="44.9975670" lon="6.8347040">
        <ele>1653.8</ele>
        <time>2017-07-28T09:31:53Z</time>
      </trkpt>
      <trkpt lat="44.9975320" lon="6.8347210">
        <ele>1654.4</ele>
        <time>2017-07-28T09:31:56Z</time>
      </trkpt>
      <trkpt lat="44.9975010" lon="6.8347220">
        <ele>1655.2</ele>
        <time>2017-07-28T09:31:58Z</time>
      </trkpt>
      <trkpt lat="44.9974370" lon="6.8347190">
        <ele>1655.6</ele>
        <time>2017-07-28T09:32:02Z</time>
      </trkpt>
      <trkpt lat="44.9974090" lon="6.8347190">
        <ele>1656.4</ele>
        <time>2017-07-28T09:32:04Z</time>
      </trkpt>
      <trkpt lat="44.9970350" lon="6.8331300">
        <ele>1709.4</ele>
        <time>2017-07-28T09:36:07Z</time>
      </trkpt>
      <trkpt lat="44.9970210" lon="6.8331100">
        <ele>1709.6</ele>
        <time>2017-07-28T09:36:08Z</time>
      </trkpt>
      <trkpt lat="44.9969630" lon="6.8330550">
        <ele>1710.2</ele>
        <time>2017-07-28T09:36:12Z</time>
      </trkpt>
      <trkpt lat="44.9969330" lon="6.8330210">
        <ele>1710.4</ele>
        <time>2017-07-28T09:36:14Z</time>
      </trkpt>
      <trkpt lat="44.9969170" lon="6.8330000">
        <ele>1710.6</ele>
        <time>2017-07-28T09:36:15Z</time>
      </trkpt>
      <trkpt lat="44.9968230" lon="6.8328990">
        <ele>1710.8</ele>
        <time>2017-07-28T09:36:19Z</time>
      </trkpt>
      <trkpt lat="44.9967960" lon="6.8328730">
        <ele>1710.6</ele>
        <time>2017-07-28T09:36:20Z</time>
      </trkpt>
      <trkpt lat="44.9966910" lon="6.8327620">
        <ele>1710.6</ele>
        <time>2017-07-28T09:36:23Z</time>
      </trkpt>
      <trkpt lat="44.9965940" lon="6.8326530">
        <ele>1710.4</ele>
        <time>2017-07-28T09:36:25Z</time>
      </trkpt>
      <trkpt lat="44.9964780" lon="6.8324910">
        <ele>1709.6</ele>
        <time>2017-07-28T09:36:28Z</time>
      </trkpt>
      <trkpt lat="44.9964520" lon="6.8324320">
        <ele>1709.6</ele>
        <time>2017-07-28T09:36:29Z</time>
      </trkpt>
      <trkpt lat="44.9964310" lon="6.8323670">
        <ele>1709.4</ele>
        <time>2017-07-28T09:36:30Z</time>
      </trkpt>
      <trkpt lat="44.9963980" lon="6.8322220">
        <ele>1709.4</ele>
        <time>2017-07-28T09:36:32Z</time>
      </trkpt>
      <trkpt lat="44.9963420" lon="6.8319420">
        <ele>1709.0</ele>
        <time>2017-07-28T09:36:36Z</time>
      </trkpt>
      <trkpt lat="44.9962920" lon="6.8317860">
        <ele>1709.2</ele>
        <time>2017-07-28T09:36:40Z</time>
      </trkpt>
      <trkpt lat="44.9962800" lon="6.8317510">
        <ele>1709.4</ele>
        <time>2017-07-28T09:36:41Z</time>
      </trkpt>
      <trkpt lat="44.9962180" lon="6.8315880">
        <ele>1709.6</ele>
        <time>2017-07-28T09:36:45Z</time>
      </trkpt>
      <trkpt lat="44.9961920" lon="6.8314660">
        <ele>1709.6</ele>
        <time>2017-07-28T09:36:47Z</time>
      </trkpt>
      <trkpt lat="44.9961070" lon="6.8311540">
        <ele>1710.0</ele>
        <time>2017-07-28T09:36:52Z</time>
      </trkpt>
      <trkpt lat="44.9960910" lon="6.8311000">
        <ele>1710.0</ele>
        <time>2017-07-28T09:36:53Z</time>
      </trkpt>
      <trkpt lat="44.9960830" lon="6.8310440">
        <ele>1709.8</ele>
        <time>2017-07-28T09:36:54Z</time>
      </trkpt>
      <trkpt lat="44.9960710" lon="6.8309220">
        <ele>1709.6</ele>
        <time>2017-07-28T09:36:56Z</time>
      </trkpt>
      <trkpt lat="44.9960680" lon="6.8307800">
        <ele>1709.6</ele>
        <time>2017-07-28T09:36:58Z</time>
      </trkpt>
      <trkpt lat="44.9961560" lon="6.8304930">
        <ele>1709.8</ele>
        <time>2017-07-28T09:37:02Z</time>
      </trkpt>
      <trkpt lat="44.9961650" lon="6.8302440">
        <ele>1709.2</ele>
        <time>2017-07-28T09:37:06Z</time>
      </trkpt>
      <trkpt lat="44.9961210" lon="6.8299990">
        <ele>1708.4</ele>
        <time>2017-07-28T09:37:10Z</time>
      </trkpt>
      <trkpt lat="44.9960690" lon="6.8298020">
        <ele>1708.4</ele>
        <time>2017-07-28T09:37:13Z</time>
      </trkpt>
      <trkpt lat="44.9959770" lon="6.8294750">
        <ele>1709.0</ele>
        <time>2017-07-28T09:37:19Z</time>
      </trkpt>
      <trkpt lat="44.9959250" lon="6.8292270">
        <ele>1709.0</ele>
        <time>2017-07-28T09:37:23Z</time>
      </trkpt>
      <trkpt lat="44.9958560" lon="6.8290630">
        <ele>1708.8</ele>
        <time>2017-07-28T09:37:26Z</time>
      </trkpt>
      <trkpt lat="44.9958300" lon="6.8290210">
        <ele>1708.8</ele>
        <time>2017-07-28T09:37:27Z</time>
      </trkpt>
      <trkpt lat="44.9956850" lon="6.8287370">
        <ele>1708.4</ele>
        <time>2017-07-28T09:37:32Z</time>
      </trkpt>
      <trkpt lat="44.9956520" lon="6.8286250">
        <ele>1708.2</ele>
        <time>2017-07-28T09:37:33Z</time>
      </trkpt>
      <trkpt lat="44.9955730" lon="6.8282790">
        <ele>1707.8</ele>
        <time>2017-07-28T09:37:36Z</time>
      </trkpt>
      <trkpt lat="44.9955400" lon="6.8280650">
        <ele>1707.2</ele>
        <time>2017-07-28T09:37:38Z</time>
      </trkpt>
      <trkpt lat="44.9955050" lon="6.8278580">
        <ele>1706.6</ele>
        <time>2017-07-28T09:37:40Z</time>
      </trkpt>
      <trkpt lat="44.9954850" lon="6.8276420">
        <ele>1706.0</ele>
        <time>2017-07-28T09:37:42Z</time>
      </trkpt>
      <trkpt lat="44.9954830" lon="6.8275300">
        <ele>1705.8</ele>
        <time>2017-07-28T09:37:43Z</time>
      </trkpt>
      <trkpt lat="44.9954810" lon="6.8273180">
        <ele>1705.4</ele>
        <time>2017-07-28T09:37:45Z</time>
      </trkpt>
      <trkpt lat="44.9954890" lon="6.8272010">
        <ele>1705.2</ele>
        <time>2017-07-28T09:37:46Z</time>
      </trkpt>
      <trkpt lat="44.9955060" lon="6.8270750">
        <ele>1704.8</ele>
        <time>2017-07-28T09:37:47Z</time>
      </trkpt>
      <trkpt lat="44.9955200" lon="6.8269540">
        <ele>1704.4</ele>
        <time>2017-07-28T09:37:48Z</time>
      </trkpt>
      <trkpt lat="44.9955270" lon="6.8266980">
        <ele>1703.4</ele>
        <time>2017-07-28T09:37:50Z</time>
      </trkpt>
      <trkpt lat="44.9955090" lon="6.8264270">
        <ele>1702.4</ele>
        <time>2017-07-28T09:37:52Z</time>
      </trkpt>
      <trkpt lat="44.9954990" lon="6.8262860">
        <ele>1702.2</ele>
        <time>2017-07-28T09:37:53Z</time>
      </trkpt>
      <trkpt lat="44.9954930" lon="6.8261530">
        <ele>1702.0</ele>
        <time>2017-07-28T09:37:54Z</time>
      </trkpt>
      <trkpt lat="44.9954890" lon="6.8259210">
        <ele>1701.4</ele>
        <time>2017-07-28T09:37:56Z</time>
      </trkpt>
      <trkpt lat="44.9954890" lon="6.8258140">
        <ele>1701.2</ele>
        <time>2017-07-28T09:37:57Z</time>
      </trkpt>
      <trkpt lat="44.9954880" lon="6.8257140">
        <ele>1700.8</ele>
        <time>2017-07-28T09:37:58Z</time>
      </trkpt>
      <trkpt lat="44.9955030" lon="6.8252980">
        <ele>1700.0</ele>
        <time>2017-07-28T09:38:02Z</time>
      </trkpt>
      <trkpt lat="44.9955030" lon="6.8250810">
        <ele>1699.0</ele>
        <time>2017-07-28T09:38:04Z</time>
      </trkpt>
      <trkpt lat="44.9955050" lon="6.8248700">
        <ele>1698.6</ele>
        <time>2017-07-28T09:38:06Z</time>
      </trkpt>
      <trkpt lat="44.9955100" lon="6.8246750">
        <ele>1698.0</ele>
        <time>2017-07-28T09:38:08Z</time>
      </trkpt>
      <trkpt lat="44.9955150" lon="6.8245920">
        <ele>1698.0</ele>
        <time>2017-07-28T09:38:09Z</time>
      </trkpt>
      <trkpt lat="44.9955210" lon="6.8245210">
        <ele>1697.8</ele>
        <time>2017-07-28T09:38:10Z</time>
      </trkpt>
      <trkpt lat="44.9955300" lon="6.8244630">
        <ele>1697.8</ele>
        <time>2017-07-28T09:38:11Z</time>
      </trkpt>
      <trkpt lat="44.9955410" lon="6.8244090">
        <ele>1697.8</ele>
        <time>2017-07-28T09:38:12Z</time>
      </trkpt>
      <trkpt lat="44.9955510" lon="6.8243570">
        <ele>1697.8</ele>
        <time>2017-07-28T09:38:13Z</time>
      </trkpt>
      <trkpt lat="44.9955630" lon="6.8243070">
        <ele>1697.8</ele>
        <time>2017-07-28T09:38:14Z</time>
      </trkpt>
      <trkpt lat="44.9955750" lon="6.8242560">
        <ele>1698.0</ele>
        <time>2017-07-28T09:38:15Z</time>
      </trkpt>
      <trkpt lat="44.9956110" lon="6.8241220">
        <ele>1698.4</ele>
        <time>2017-07-28T09:38:18Z</time>
      </trkpt>
      <trkpt lat="44.9956230" lon="6.8239650">
        <ele>1698.8</ele>
        <time>2017-07-28T09:38:21Z</time>
      </trkpt>
      <trkpt lat="44.9956320" lon="6.8236130">
        <ele>1698.8</ele>
        <time>2017-07-28T09:38:26Z</time>
      </trkpt>
      <trkpt lat="44.9956240" lon="6.8235400">
        <ele>1699.0</ele>
        <time>2017-07-28T09:38:27Z</time>
      </trkpt>
      <trkpt lat="44.9955570" lon="6.8232500">
        <ele>1698.6</ele>
        <time>2017-07-28T09:38:31Z</time>
      </trkpt>
      <trkpt lat="44.9955240" lon="6.8231180">
        <ele>1698.6</ele>
        <time>2017-07-28T09:38:33Z</time>
      </trkpt>
      <trkpt lat="44.9954070" lon="6.8226970">
        <ele>1698.0</ele>
        <time>2017-07-28T09:38:38Z</time>
      </trkpt>
      <trkpt lat="44.9953860" lon="6.8225650">
        <ele>1697.4</ele>
        <time>2017-07-28T09:38:39Z</time>
      </trkpt>
      <trkpt lat="44.9953490" lon="6.8222930">
        <ele>1696.6</ele>
        <time>2017-07-28T09:38:41Z</time>
      </trkpt>
      <trkpt lat="44.9953050" lon="6.8220050">
        <ele>1695.6</ele>
        <time>2017-07-28T09:38:43Z</time>
      </trkpt>
      <trkpt lat="44.9952700" lon="6.8215650">
        <ele>1694.2</ele>
        <time>2017-07-28T09:38:46Z</time>
      </trkpt>
      <trkpt lat="44.9952390" lon="6.8212090">
        <ele>1693.6</ele>
        <time>2017-07-28T09:38:49Z</time>
      </trkpt>
      <trkpt lat="44.9951940" lon="6.8210290">
        <ele>1693.4</ele>
        <time>2017-07-28T09:38:51Z</time>
      </trkpt>
      <trkpt lat="44.9951530" lon="6.8209630">
        <ele>1693.0</ele>
        <time>2017-07-28T09:38:52Z</time>
      </trkpt>
      <trkpt lat="44.9950160" lon="6.8207410">
        <ele>1691.8</ele>
        <time>2017-07-28T09:38:55Z</time>
      </trkpt>
      <trkpt lat="44.9949630" lon="6.8206680">
        <ele>1691.2</ele>
        <time>2017-07-28T09:38:56Z</time>
      </trkpt>
      <trkpt lat="44.9948350" lon="6.8205550">
        <ele>1690.6</ele>
        <time>2017-07-28T09:38:58Z</time>
      </trkpt>
      <trkpt lat="44.9946830" lon="6.8204790">
        <ele>1689.8</ele>
        <time>2017-07-28T09:39:00Z</time>
      </trkpt>
      <trkpt lat="44.9944960" lon="6.8204460">
        <ele>1689.0</ele>
        <time>2017-07-28T09:39:02Z</time>
      </trkpt>
      <trkpt lat="44.9943960" lon="6.8204430">
        <ele>1688.0</ele>
        <time>2017-07-28T09:39:03Z</time>
      </trkpt>
      <trkpt lat="44.9942940" lon="6.8204370">
        <ele>1687.4</ele>
        <time>2017-07-28T09:39:04Z</time>
      </trkpt>
      <trkpt lat="44.9940910" lon="6.8204120">
        <ele>1686.4</ele>
        <time>2017-07-28T09:39:06Z</time>
      </trkpt>
      <trkpt lat="44.9939800" lon="6.8203950">
        <ele>1686.0</ele>
        <time>2017-07-28T09:39:07Z</time>
      </trkpt>
      <trkpt lat="44.9938680" lon="6.8203810">
        <ele>1685.4</ele>
        <time>2017-07-28T09:39:08Z</time>
      </trkpt>
      <trkpt lat="44.9936440" lon="6.8203620">
        <ele>1684.6</ele>
        <time>2017-07-28T09:39:10Z</time>
      </trkpt>
      <trkpt lat="44.9935490" lon="6.8203660">
        <ele>1684.2</ele>
        <time>2017-07-28T09:39:11Z</time>
      </trkpt>
      <trkpt lat="44.9934680" lon="6.8203670">
        <ele>1684.0</ele>
        <time>2017-07-28T09:39:12Z</time>
      </trkpt>
      <trkpt lat="44.9933340" lon="6.8203510">
        <ele>1683.6</ele>
        <time>2017-07-28T09:39:14Z</time>
      </trkpt>
      <trkpt lat="44.9932800" lon="6.8203340">
        <ele>1683.4</ele>
        <time>2017-07-28T09:39:15Z</time>
      </trkpt>
      <trkpt lat="44.9931950" lon="6.8203010">
        <ele>1683.8</ele>
        <time>2017-07-28T09:39:17Z</time>
      </trkpt>
      <trkpt lat="44.9931280" lon="6.8202760">
        <ele>1684.0</ele>
        <time>2017-07-28T09:39:19Z</time>
      </trkpt>
      <trkpt lat="44.9930760" lon="6.8202750">
        <ele>1684.2</ele>
        <time>2017-07-28T09:39:21Z</time>
      </trkpt>
      <trkpt lat="44.9930000" lon="6.8202790">
        <ele>1684.6</ele>
        <time>2017-07-28T09:39:24Z</time>
      </trkpt>
      <trkpt lat="44.9929740" lon="6.8202760">
        <ele>1684.8</ele>
        <time>2017-07-28T09:39:25Z</time>
      </trkpt>
      <trkpt lat="44.9928910" lon="6.8202580">
        <ele>1685.4</ele>
        <time>2017-07-28T09:39:29Z</time>
      </trkpt>
      <trkpt lat="44.9928700" lon="6.8202540">
        <ele>1685.6</ele>
        <time>2017-07-28T09:39:30Z</time>
      </trkpt>
      <trkpt lat="44.9928300" lon="6.8202470">
        <ele>1686.0</ele>
        <time>2017-07-28T09:39:32Z</time>
      </trkpt>
      <trkpt lat="44.9927560" lon="6.8202390">
        <ele>1686.6</ele>
        <time>2017-07-28T09:39:35Z</time>
      </trkpt>
      <trkpt lat="44.9927260" lon="6.8202310">
        <ele>1686.8</ele>
        <time>2017-07-28T09:39:36Z</time>
      </trkpt>
      <trkpt lat="44.9926730" lon="6.8202170">
        <ele>1687.0</ele>
        <time>2017-07-28T09:39:38Z</time>
      </trkpt>
      <trkpt lat="44.9925740" lon="6.8201900">
        <ele>1687.8</ele>
        <time>2017-07-28T09:39:42Z</time>
      </trkpt>
      <trkpt lat="44.9925000" lon="6.8201780">
        <ele>1688.6</ele>
        <time>2017-07-28T09:39:45Z</time>
      </trkpt>
      <trkpt lat="44.9923780" lon="6.8201830">
        <ele>1688.8</ele>
        <time>2017-07-28T09:39:51Z</time>
      </trkpt>
      <trkpt lat="44.9923400" lon="6.8201780">
        <ele>1689.2</ele>
        <time>2017-07-28T09:39:53Z</time>
      </trkpt>
      <trkpt lat="44.9922500" lon="6.8201950">
        <ele>1690.0</ele>
        <time>2017-07-28T09:39:57Z</time>
      </trkpt>
      <trkpt lat="44.9921470" lon="6.8202130">
        <ele>1691.0</ele>
        <time>2017-07-28T09:40:01Z</time>
      </trkpt>
      <trkpt lat="44.9921210" lon="6.8202150">
        <ele>1691.2</ele>
        <time>2017-07-28T09:40:02Z</time>
      </trkpt>
      <trkpt lat="44.9920450" lon="6.8202430">
        <ele>1692.4</ele>
        <time>2017-07-28T09:40:06Z</time>
      </trkpt>
      <trkpt lat="44.9920100" lon="6.8202590">
        <ele>1693.0</ele>
        <time>2017-07-28T09:40:08Z</time>
      </trkpt>
      <trkpt lat="44.9919730" lon="6.8202820">
        <ele>1693.6</ele>
        <time>2017-07-28T09:40:10Z</time>
      </trkpt>
      <trkpt lat="44.9918790" lon="6.8203040">
        <ele>1694.6</ele>
        <time>2017-07-28T09:40:14Z</time>
      </trkpt>
      <trkpt lat="44.9918510" lon="6.8202930">
        <ele>1695.0</ele>
        <time>2017-07-28T09:40:15Z</time>
      </trkpt>
      <trkpt lat="44.9917730" lon="6.8202350">
        <ele>1695.8</ele>
        <time>2017-07-28T09:40:18Z</time>
      </trkpt>
      <trkpt lat="44.9917240" lon="6.8201840">
        <ele>1696.0</ele>
        <time>2017-07-28T09:40:20Z</time>
      </trkpt>
      <trkpt lat="44.9916590" lon="6.8201230">
        <ele>1696.8</ele>
        <time>2017-07-28T09:40:23Z</time>
      </trkpt>
      <trkpt lat="44.9916050" lon="6.8200820">
        <ele>1697.8</ele>
        <time>2017-07-28T09:40:26Z</time>
      </trkpt>
      <trkpt lat="44.9915730" lon="6.8200570">
        <ele>1698.2</ele>
        <time>2017-07-28T09:40:28Z</time>
      </trkpt>
      <trkpt lat="44.9915120" lon="6.8200260">
        <ele>1699.4</ele>
        <time>2017-07-28T09:40:32Z</time>
      </trkpt>
      <trkpt lat="44.9914970" lon="6.8200190">
        <ele>1699.8</ele>
        <time>2017-07-28T09:40:33Z</time>
      </trkpt>
      <trkpt lat="44.9914520" lon="6.8199910">
        <ele>1700.6</ele>
        <time>2017-07-28T09:40:36Z</time>
      </trkpt>
      <trkpt lat="44.9913980" lon="6.8199310">
        <ele>1701.6</ele>
        <time>2017-07-28T09:40:40Z</time>
      </trkpt>
      <trkpt lat="44.9913700" lon="6.8199050">
        <ele>1702.2</ele>
        <time>2017-07-28T09:40:42Z</time>
      </trkpt>
      <trkpt lat="44.9913350" lon="6.8198600">
        <ele>1702.8</ele>
        <time>2017-07-28T09:40:45Z</time>
      </trkpt>
      <trkpt lat="44.9912660" lon="6.8198140">
        <ele>1703.2</ele>
        <time>2017-07-28T09:40:49Z</time>
      </trkpt>
      <trkpt lat="44.9912080" lon="6.8198120">
        <ele>1704.2</ele>
        <time>2017-07-28T09:40:52Z</time>
      </trkpt>
      <trkpt lat="44.9911470" lon="6.8198250">
        <ele>1704.8</ele>
        <time>2017-07-28T09:40:56Z</time>
      </trkpt>
      <trkpt lat="44.9911300" lon="6.8198230">
        <ele>1705.2</ele>
        <time>2017-07-28T09:40:57Z</time>
      </trkpt>
      <trkpt lat="44.9910320" lon="6.8197580">
        <ele>1706.2</ele>
        <time>2017-07-28T09:41:02Z</time>
      </trkpt>
      <trkpt lat="44.9909210" lon="6.8196200">
        <ele>1706.8</ele>
        <time>2017-07-28T09:41:06Z</time>
      </trkpt>
      <trkpt lat="44.9908710" lon="6.8195250">
        <ele>1706.6</ele>
        <time>2017-07-28T09:41:08Z</time>
      </trkpt>
      <trkpt lat="44.9907570" lon="6.8194740">
        <ele>1706.8</ele>
        <time>2017-07-28T09:41:10Z</time>
      </trkpt>
      <trkpt lat="44.9905800" lon="6.8195200">
        <ele>1705.6</ele>
        <time>2017-07-28T09:41:13Z</time>
      </trkpt>
      <trkpt lat="44.9905230" lon="6.8195470">
        <ele>1705.0</ele>
        <time>2017-07-28T09:41:14Z</time>
      </trkpt>
      <trkpt lat="44.9903560" lon="6.8196100">
        <ele>1703.8</ele>
        <time>2017-07-28T09:41:17Z</time>
      </trkpt>
      <trkpt lat="44.9902320" lon="6.8196470">
        <ele>1702.8</ele>
        <time>2017-07-28T09:41:19Z</time>
      </trkpt>
      <trkpt lat="44.9901610" lon="6.8196680">
        <ele>1702.6</ele>
        <time>2017-07-28T09:41:20Z</time>
      </trkpt>
      <trkpt lat="44.9899900" lon="6.8196820">
        <ele>1701.4</ele>
        <time>2017-07-28T09:41:22Z</time>
      </trkpt>
      <trkpt lat="44.9899160" lon="6.8196750">
        <ele>1701.0</ele>
        <time>2017-07-28T09:41:23Z</time>
      </trkpt>
      <trkpt lat="44.9898160" lon="6.8196430">
        <ele>1700.0</ele>
        <time>2017-07-28T09:41:25Z</time>
      </trkpt>
      <trkpt lat="44.9897800" lon="6.8196240">
        <ele>1699.2</ele>
        <time>2017-07-28T09:41:26Z</time>
      </trkpt>
      <trkpt lat="44.9897400" lon="6.8196220">
        <ele>1698.4</ele>
        <time>2017-07-28T09:41:27Z</time>
      </trkpt>
      <trkpt lat="44.9896930" lon="6.8196390">
        <ele>1697.4</ele>
        <time>2017-07-28T09:41:28Z</time>
      </trkpt>
      <trkpt lat="44.9896420" lon="6.8196710">
        <ele>1696.4</ele>
        <time>2017-07-28T09:41:29Z</time>
      </trkpt>
      <trkpt lat="44.9895800" lon="6.8196960">
        <ele>1695.2</ele>
        <time>2017-07-28T09:41:30Z</time>
      </trkpt>
      <trkpt lat="44.9894200" lon="6.8197180">
        <ele>1693.2</ele>
        <time>2017-07-28T09:41:32Z</time>
      </trkpt>
      <trkpt lat="44.9893400" lon="6.8197250">
        <ele>1692.2</ele>
        <time>2017-07-28T09:41:33Z</time>
      </trkpt>
      <trkpt lat="44.9891890" lon="6.8197470">
        <ele>1690.6</ele>
        <time>2017-07-28T09:41:35Z</time>
      </trkpt>
      <trkpt lat="44.9890530" lon="6.8198300">
        <ele>1689.0</ele>
        <time>2017-07-28T09:41:37Z</time>
      </trkpt>
      <trkpt lat="44.9889150" lon="6.8199280">
        <ele>1687.4</ele>
        <time>2017-07-28T09:41:39Z</time>
      </trkpt>
      <trkpt lat="44.9888330" lon="6.8199780">
        <ele>1685.6</ele>
        <time>2017-07-28T09:41:40Z</time>
      </trkpt>
      <trkpt lat="44.9886600" lon="6.8200550">
        <ele>1684.0</ele>
        <time>2017-07-28T09:41:42Z</time>
      </trkpt>
      <trkpt lat="44.9884890" lon="6.8200590">
        <ele>1682.8</ele>
        <time>2017-07-28T09:41:44Z</time>
      </trkpt>
      <trkpt lat="44.9884120" lon="6.8200500">
        <ele>1682.0</ele>
        <time>2017-07-28T09:41:45Z</time>
      </trkpt>
      <trkpt lat="44.9883390" lon="6.8200390">
        <ele>1681.2</ele>
        <time>2017-07-28T09:41:46Z</time>
      </trkpt>
      <trkpt lat="44.9881850" lon="6.8199750">
        <ele>1680.0</ele>
        <time>2017-07-28T09:41:48Z</time>
      </trkpt>
      <trkpt lat="44.9881090" lon="6.8199200">
        <ele>1679.6</ele>
        <time>2017-07-28T09:41:49Z</time>
      </trkpt>
      <trkpt lat="44.9879780" lon="6.8198300">
        <ele>1678.4</ele>
        <time>2017-07-28T09:41:51Z</time>
      </trkpt>
      <trkpt lat="44.9879160" lon="6.8198290">
        <ele>1677.6</ele>
        <time>2017-07-28T09:41:52Z</time>
      </trkpt>
      <trkpt lat="44.9878530" lon="6.8198310">
        <ele>1676.8</ele>
        <time>2017-07-28T09:41:53Z</time>
      </trkpt>
      <trkpt lat="44.9877910" lon="6.8198280">
        <ele>1676.0</ele>
        <time>2017-07-28T09:41:54Z</time>
      </trkpt>
      <trkpt lat="44.9877350" lon="6.8198230">
        <ele>1675.2</ele>
        <time>2017-07-28T09:41:55Z</time>
      </trkpt>
      <trkpt lat="44.9876830" lon="6.8198330">
        <ele>1674.8</ele>
        <time>2017-07-28T09:41:56Z</time>
      </trkpt>
      <trkpt lat="44.9876320" lon="6.8198530">
        <ele>1674.4</ele>
        <time>2017-07-28T09:41:57Z</time>
      </trkpt>
      <trkpt lat="44.9875790" lon="6.8198700">
        <ele>1674.2</ele>
        <time>2017-07-28T09:41:58Z</time>
      </trkpt>
      <trkpt lat="44.9874570" lon="6.8198440">
        <ele>1674.0</ele>
        <time>2017-07-28T09:42:00Z</time>
      </trkpt>
      <trkpt lat="44.9873410" lon="6.8198130">
        <ele>1673.6</ele>
        <time>2017-07-28T09:42:02Z</time>
      </trkpt>
      <trkpt lat="44.9872240" lon="6.8197890">
        <ele>1673.2</ele>
        <time>2017-07-28T09:42:04Z</time>
      </trkpt>
      <trkpt lat="44.9871530" lon="6.8197830">
        <ele>1672.8</ele>
        <time>2017-07-28T09:42:05Z</time>
      </trkpt>
      <trkpt lat="44.9869780" lon="6.8197950">
        <ele>1672.0</ele>
        <time>2017-07-28T09:42:07Z</time>
      </trkpt>
      <trkpt lat="44.9868830" lon="6.8198100">
        <ele>1671.4</ele>
        <time>2017-07-28T09:42:08Z</time>
      </trkpt>
      <trkpt lat="44.9867910" lon="6.8198230">
        <ele>1670.8</ele>
        <time>2017-07-28T09:42:09Z</time>
      </trkpt>
      <trkpt lat="44.9865900" lon="6.8198340">
        <ele>1669.6</ele>
        <time>2017-07-28T09:42:11Z</time>
      </trkpt>
      <trkpt lat="44.9864900" lon="6.8198350">
        <ele>1669.2</ele>
        <time>2017-07-28T09:42:12Z</time>
      </trkpt>
      <trkpt lat="44.9863880" lon="6.8198280">
        <ele>1668.6</ele>
        <time>2017-07-28T09:42:13Z</time>
      </trkpt>
      <trkpt lat="44.9861980" lon="6.8198230">
        <ele>1667.6</ele>
        <time>2017-07-28T09:42:15Z</time>
      </trkpt>
      <trkpt lat="44.9861160" lon="6.8198150">
        <ele>1667.0</ele>
        <time>2017-07-28T09:42:16Z</time>
      </trkpt>
      <trkpt lat="44.9859390" lon="6.8197650">
        <ele>1665.4</ele>
        <time>2017-07-28T09:42:18Z</time>
      </trkpt>
      <trkpt lat="44.9857640" lon="6.8196940">
        <ele>1663.8</ele>
        <time>2017-07-28T09:42:20Z</time>
      </trkpt>
      <trkpt lat="44.9856130" lon="6.8195520">
        <ele>1662.6</ele>
        <time>2017-07-28T09:42:22Z</time>
      </trkpt>
      <trkpt lat="44.9855350" lon="6.8194580">
        <ele>1661.8</ele>
        <time>2017-07-28T09:42:23Z</time>
      </trkpt>
      <trkpt lat="44.9854620" lon="6.8193670">
        <ele>1661.0</ele>
        <time>2017-07-28T09:42:24Z</time>
      </trkpt>
      <trkpt lat="44.9853910" lon="6.8193060">
        <ele>1660.2</ele>
        <time>2017-07-28T09:42:25Z</time>
      </trkpt>
      <trkpt lat="44.9853290" lon="6.8192880">
        <ele>1659.2</ele>
        <time>2017-07-28T09:42:26Z</time>
      </trkpt>
      <trkpt lat="44.9852070" lon="6.8192880">
        <ele>1656.8</ele>
        <time>2017-07-28T09:42:28Z</time>
      </trkpt>
      <trkpt lat="44.9851420" lon="6.8192870">
        <ele>1655.8</ele>
        <time>2017-07-28T09:42:29Z</time>
      </trkpt>
      <trkpt lat="44.9850950" lon="6.8192980">
        <ele>1655.2</ele>
        <time>2017-07-28T09:42:30Z</time>
      </trkpt>
      <trkpt lat="44.9850500" lon="6.8193090">
        <ele>1654.4</ele>
        <time>2017-07-28T09:42:31Z</time>
      </trkpt>
      <trkpt lat="44.9850040" lon="6.8193190">
        <ele>1654.0</ele>
        <time>2017-07-28T09:42:32Z</time>
      </trkpt>
      <trkpt lat="44.9849090" lon="6.8193310">
        <ele>1652.8</ele>
        <time>2017-07-28T09:42:34Z</time>
      </trkpt>
      <trkpt lat="44.9848290" lon="6.8193370">
        <ele>1651.8</ele>
        <time>2017-07-28T09:42:36Z</time>
      </trkpt>
      <trkpt lat="44.9847870" lon="6.8193300">
        <ele>1651.4</ele>
        <time>2017-07-28T09:42:37Z</time>
      </trkpt>
      <trkpt lat="44.9846560" lon="6.8193420">
        <ele>1649.8</ele>
        <time>2017-07-28T09:42:39Z</time>
      </trkpt>
      <trkpt lat="44.9845460" lon="6.8193890">
        <ele>1649.0</ele>
        <time>2017-07-28T09:42:41Z</time>
      </trkpt>
      <trkpt lat="44.9845040" lon="6.8194390">
        <ele>1648.8</ele>
        <time>2017-07-28T09:42:42Z</time>
      </trkpt>
      <trkpt lat="44.9843870" lon="6.8196260">
        <ele>1647.4</ele>
        <time>2017-07-28T09:42:45Z</time>
      </trkpt>
      <trkpt lat="44.9843140" lon="6.8197460">
        <ele>1647.2</ele>
        <time>2017-07-28T09:42:47Z</time>
      </trkpt>
      <trkpt lat="44.9842270" lon="6.8199490">
        <ele>1646.4</ele>
        <time>2017-07-28T09:42:50Z</time>
      </trkpt>
      <trkpt lat="44.9841900" lon="6.8200020">
        <ele>1646.2</ele>
        <time>2017-07-28T09:42:51Z</time>
      </trkpt>
      <trkpt lat="44.9841480" lon="6.8200430">
        <ele>1646.0</ele>
        <time>2017-07-28T09:42:52Z</time>
      </trkpt>
      <trkpt lat="44.9840510" lon="6.8201500">
        <ele>1646.0</ele>
        <time>2017-07-28T09:42:55Z</time>
      </trkpt>
      <trkpt lat="44.9840290" lon="6.8201690">
        <ele>1646.2</ele>
        <time>2017-07-28T09:42:56Z</time>
      </trkpt>
      <trkpt lat="44.9838980" lon="6.8202100">
        <ele>1646.8</ele>
        <time>2017-07-28T09:43:01Z</time>
      </trkpt>
      <trkpt lat="44.9837920" lon="6.8202600">
        <ele>1647.6</ele>
        <time>2017-07-28T09:43:05Z</time>
      </trkpt>
      <trkpt lat="44.9837300" lon="6.8202820">
        <ele>1647.8</ele>
        <time>2017-07-28T09:43:07Z</time>
      </trkpt>
      <trkpt lat="44.9836040" lon="6.8203680">
        <ele>1648.0</ele>
        <time>2017-07-28T09:43:11Z</time>
      </trkpt>
      <trkpt lat="44.9835460" lon="6.8204230">
        <ele>1648.2</ele>
        <time>2017-07-28T09:43:13Z</time>
      </trkpt>
      <trkpt lat="44.9834540" lon="6.8205010">
        <ele>1648.6</ele>
        <time>2017-07-28T09:43:16Z</time>
      </trkpt>
      <trkpt lat="44.9833760" lon="6.8205430">
        <ele>1648.6</ele>
        <time>2017-07-28T09:43:18Z</time>
      </trkpt>
      <trkpt lat="44.9832220" lon="6.8206290">
        <ele>1649.8</ele>
        <time>2017-07-28T09:43:23Z</time>
      </trkpt>
      <trkpt lat="44.9831470" lon="6.8206570">
        <ele>1651.0</ele>
        <time>2017-07-28T09:43:26Z</time>
      </trkpt>
      <trkpt lat="44.9830570" lon="6.8206810">
        <ele>1651.8</ele>
        <time>2017-07-28T09:43:29Z</time>
      </trkpt>
      <trkpt lat="44.9830230" lon="6.8206820">
        <ele>1652.0</ele>
        <time>2017-07-28T09:43:30Z</time>
      </trkpt>
      <trkpt lat="44.9828520" lon="6.8205950">
        <ele>1652.2</ele>
        <time>2017-07-28T09:43:35Z</time>
      </trkpt>
      <trkpt lat="44.9828320" lon="6.8205620">
        <ele>1652.4</ele>
        <time>2017-07-28T09:43:36Z</time>
      </trkpt>
      <trkpt lat="44.9828300" lon="6.8205070">
        <ele>1652.8</ele>
        <time>2017-07-28T09:43:38Z</time>
      </trkpt>
      <trkpt lat="44.9828980" lon="6.8203790">
        <ele>1652.6</ele>
        <time>2017-07-28T09:43:41Z</time>
      </trkpt>
      <trkpt lat="44.9829330" lon="6.8203240">
        <ele>1652.6</ele>
        <time>2017-07-28T09:43:42Z</time>
      </trkpt>
      <trkpt lat="44.9830650" lon="6.8201070">
        <ele>1651.8</ele>
        <time>2017-07-28T09:43:45Z</time>
      </trkpt>
      <trkpt lat="44.9831030" lon="6.8200090">
        <ele>1651.2</ele>
        <time>2017-07-28T09:43:46Z</time>
      </trkpt>
      <trkpt lat="44.9831310" lon="6.8199090">
        <ele>1650.8</ele>
        <time>2017-07-28T09:43:47Z</time>
      </trkpt>
      <trkpt lat="44.9832010" lon="6.8197080">
        <ele>1649.2</ele>
        <time>2017-07-28T09:43:49Z</time>
      </trkpt>
      <trkpt lat="44.9832870" lon="6.8195060">
        <ele>1648.2</ele>
        <time>2017-07-28T09:43:51Z</time>
      </trkpt>
      <trkpt lat="44.9833390" lon="6.8194220">
        <ele>1647.2</ele>
        <time>2017-07-28T09:43:52Z</time>
      </trkpt>
      <trkpt lat="44.9833890" lon="6.8193370">
        <ele>1646.4</ele>
        <time>2017-07-28T09:43:53Z</time>
      </trkpt>
      <trkpt lat="44.9834510" lon="6.8192500">
        <ele>1645.6</ele>
        <time>2017-07-28T09:43:54Z</time>
      </trkpt>
      <trkpt lat="44.9835160" lon="6.8191690">
        <ele>1644.8</ele>
        <time>2017-07-28T09:43:55Z</time>
      </trkpt>
      <trkpt lat="44.9835860" lon="6.8190980">
        <ele>1643.4</ele>
        <time>2017-07-28T09:43:56Z</time>
      </trkpt>
      <trkpt lat="44.9836570" lon="6.8190280">
        <ele>1642.4</ele>
        <time>2017-07-28T09:43:57Z</time>
      </trkpt>
      <trkpt lat="44.9837210" lon="6.8189430">
        <ele>1641.4</ele>
        <time>2017-07-28T09:43:58Z</time>
      </trkpt>
      <trkpt lat="44.9837820" lon="6.8188560">
        <ele>1640.4</ele>
        <time>2017-07-28T09:43:59Z</time>
      </trkpt>
      <trkpt lat="44.9839020" lon="6.8186830">
        <ele>1638.4</ele>
        <time>2017-07-28T09:44:01Z</time>
      </trkpt>
      <trkpt lat="44.9840220" lon="6.8185240">
        <ele>1636.6</ele>
        <time>2017-07-28T09:44:03Z</time>
      </trkpt>
      <trkpt lat="44.9840870" lon="6.8184300">
        <ele>1634.4</ele>
        <time>2017-07-28T09:44:04Z</time>
      </trkpt>
      <trkpt lat="44.9841610" lon="6.8183230">
        <ele>1633.4</ele>
        <time>2017-07-28T09:44:05Z</time>
      </trkpt>
      <trkpt lat="44.9842300" lon="6.8182340">
        <ele>1632.4</ele>
        <time>2017-07-28T09:44:06Z</time>
      </trkpt>
      <trkpt lat="44.9842940" lon="6.8181620">
        <ele>1631.2</ele>
        <time>2017-07-28T09:44:07Z</time>
      </trkpt>
      <trkpt lat="44.9843420" lon="6.8181100">
        <ele>1630.2</ele>
        <time>2017-07-28T09:44:08Z</time>
      </trkpt>
      <trkpt lat="44.9843710" lon="6.8180740">
        <ele>1628.8</ele>
        <time>2017-07-28T09:44:09Z</time>
      </trkpt>
      <trkpt lat="44.9843840" lon="6.8180640">
        <ele>1627.4</ele>
        <time>2017-07-28T09:44:10Z</time>
      </trkpt>
      <trkpt lat="44.9843910" lon="6.8180880">
        <ele>1623.8</ele>
        <time>2017-07-28T09:44:13Z</time>
      </trkpt>
      <trkpt lat="44.9843630" lon="6.8180940">
        <ele>1622.4</ele>
        <time>2017-07-28T09:44:14Z</time>
      </trkpt>
      <trkpt lat="44.9842650" lon="6.8180770">
        <ele>1621.2</ele>
        <time>2017-07-28T09:44:15Z</time>
      </trkpt>
      <trkpt lat="44.9841690" lon="6.8180620">
        <ele>1620.0</ele>
        <time>2017-07-28T09:44:16Z</time>
      </trkpt>
      <trkpt lat="44.9840890" lon="6.8180570">
        <ele>1618.8</ele>
        <time>2017-07-28T09:44:17Z</time>
      </trkpt>
      <trkpt lat="44.9840150" lon="6.8180530">
        <ele>1617.8</ele>
        <time>2017-07-28T09:44:18Z</time>
      </trkpt>
      <trkpt lat="44.9839490" lon="6.8180460">
        <ele>1616.4</ele>
        <time>2017-07-28T09:44:19Z</time>
      </trkpt>
      <trkpt lat="44.9839130" lon="6.8180180">
        <ele>1615.2</ele>
        <time>2017-07-28T09:44:20Z</time>
      </trkpt>
      <trkpt lat="44.9838990" lon="6.8179900">
        <ele>1614.0</ele>
        <time>2017-07-28T09:44:21Z</time>
      </trkpt>
      <trkpt lat="44.9838980" lon="6.8179430">
        <ele>1612.8</ele>
        <time>2017-07-28T09:44:22Z</time>
      </trkpt>
      <trkpt lat="44.9839170" lon="6.8178590">
        <ele>1612.2</ele>
        <time>2017-07-28T09:44:23Z</time>
      </trkpt>
      <trkpt lat="44.9839340" lon="6.8177830">
        <ele>1611.8</ele>
        <time>2017-07-28T09:44:24Z</time>
      </trkpt>
      <trkpt lat="44.9839710" lon="6.8177020">
        <ele>1611.0</ele>
        <time>2017-07-28T09:44:25Z</time>
      </trkpt>
      <trkpt lat="44.9840230" lon="6.8176300">
        <ele>1610.2</ele>
        <time>2017-07-28T09:44:26Z</time>
      </trkpt>
      <trkpt lat="44.9840890" lon="6.8175750">
        <ele>1609.4</ele>
        <time>2017-07-28T09:44:27Z</time>
      </trkpt>
      <trkpt lat="44.9841620" lon="6.8175350">
        <ele>1607.6</ele>
        <time>2017-07-28T09:44:28Z</time>
      </trkpt>
      <trkpt lat="44.9843210" lon="6.8174690">
        <ele>1606.2</ele>
        <time>2017-07-28T09:44:30Z</time>
      </trkpt>
      <trkpt lat="44.9844100" lon="6.8174290">
        <ele>1605.4</ele>
        <time>2017-07-28T09:44:31Z</time>
      </trkpt>
      <trkpt lat="44.9844950" lon="6.8173920">
        <ele>1604.6</ele>
        <time>2017-07-28T09:44:32Z</time>
      </trkpt>
      <trkpt lat="44.9846600" lon="6.8173400">
        <ele>1603.0</ele>
        <time>2017-07-28T09:44:34Z</time>
      </trkpt>
      <trkpt lat="44.9847280" lon="6.8173060">
        <ele>1602.0</ele>
        <time>2017-07-28T09:44:35Z</time>
      </trkpt>
      <trkpt lat="44.9848610" lon="6.8172400">
        <ele>1600.6</ele>
        <time>2017-07-28T09:44:37Z</time>
      </trkpt>
      <trkpt lat="44.9849960" lon="6.8171700">
        <ele>1598.6</ele>
        <time>2017-07-28T09:44:39Z</time>
      </trkpt>
      <trkpt lat="44.9850600" lon="6.8171450">
        <ele>1597.2</ele>
        <time>2017-07-28T09:44:40Z</time>
      </trkpt>
      <trkpt lat="44.9851220" lon="6.8171280">
        <ele>1596.6</ele>
        <time>2017-07-28T09:44:41Z</time>
      </trkpt>
      <trkpt lat="44.9851890" lon="6.8171190">
        <ele>1595.4</ele>
        <time>2017-07-28T09:44:42Z</time>
      </trkpt>
      <trkpt lat="44.9853180" lon="6.8171020">
        <ele>1593.6</ele>
        <time>2017-07-28T09:44:44Z</time>
      </trkpt>
      <trkpt lat="44.9853900" lon="6.8170870">
        <ele>1592.6</ele>
        <time>2017-07-28T09:44:45Z</time>
      </trkpt>
      <trkpt lat="44.9854670" lon="6.8170500">
        <ele>1591.8</ele>
        <time>2017-07-28T09:44:46Z</time>
      </trkpt>
      <trkpt lat="44.9855450" lon="6.8170060">
        <ele>1590.6</ele>
        <time>2017-07-28T09:44:47Z</time>
      </trkpt>
      <trkpt lat="44.9856390" lon="6.8169450">
        <ele>1589.6</ele>
        <time>2017-07-28T09:44:48Z</time>
      </trkpt>
      <trkpt lat="44.9857310" lon="6.8168750">
        <ele>1588.4</ele>
        <time>2017-07-28T09:44:49Z</time>
      </trkpt>
      <trkpt lat="44.9858230" lon="6.8168030">
        <ele>1587.4</ele>
        <time>2017-07-28T09:44:50Z</time>
      </trkpt>
      <trkpt lat="44.9859180" lon="6.8167440">
        <ele>1586.2</ele>
        <time>2017-07-28T09:44:51Z</time>
      </trkpt>
      <trkpt lat="44.9860190" lon="6.8166800">
        <ele>1583.6</ele>
        <time>2017-07-28T09:44:52Z</time>
      </trkpt>
      <trkpt lat="44.9861150" lon="6.8166220">
        <ele>1582.2</ele>
        <time>2017-07-28T09:44:53Z</time>
      </trkpt>
      <trkpt lat="44.9862060" lon="6.8165830">
        <ele>1580.8</ele>
        <time>2017-07-28T09:44:54Z</time>
      </trkpt>
      <trkpt lat="44.9862870" lon="6.8165590">
        <ele>1579.8</ele>
        <time>2017-07-28T09:44:55Z</time>
      </trkpt>
      <trkpt lat="44.9863580" lon="6.8165400">
        <ele>1578.4</ele>
        <time>2017-07-28T09:44:56Z</time>
      </trkpt>
      <trkpt lat="44.9864170" lon="6.8165190">
        <ele>1577.2</ele>
        <time>2017-07-28T09:44:57Z</time>
      </trkpt>
      <trkpt lat="44.9864610" lon="6.8164930">
        <ele>1575.8</ele>
        <time>2017-07-28T09:44:58Z</time>
      </trkpt>
      <trkpt lat="44.9864860" lon="6.8164710">
        <ele>1574.4</ele>
        <time>2017-07-28T09:44:59Z</time>
      </trkpt>
      <trkpt lat="44.9864840" lon="6.8164760">
        <ele>1572.8</ele>
        <time>2017-07-28T09:45:00Z</time>
      </trkpt>
      <trkpt lat="44.9864550" lon="6.8164910">
        <ele>1571.6</ele>
        <time>2017-07-28T09:45:01Z</time>
      </trkpt>
      <trkpt lat="44.9864170" lon="6.8164790">
        <ele>1570.2</ele>
        <time>2017-07-28T09:45:02Z</time>
      </trkpt>
      <trkpt lat="44.9863770" lon="6.8164440">
        <ele>1569.0</ele>
        <time>2017-07-28T09:45:03Z</time>
      </trkpt>
      <trkpt lat="44.9863300" lon="6.8164110">
        <ele>1567.8</ele>
        <time>2017-07-28T09:45:04Z</time>
      </trkpt>
      <trkpt lat="44.9862660" lon="6.8163650">
        <ele>1566.8</ele>
        <time>2017-07-28T09:45:05Z</time>
      </trkpt>
      <trkpt lat="44.9862080" lon="6.8162940">
        <ele>1565.6</ele>
        <time>2017-07-28T09:45:06Z</time>
      </trkpt>
      <trkpt lat="44.9861660" lon="6.8162140">
        <ele>1564.4</ele>
        <time>2017-07-28T09:45:07Z</time>
      </trkpt>
      <trkpt lat="44.9861400" lon="6.8161380">
        <ele>1563.2</ele>
        <time>2017-07-28T09:45:08Z</time>
      </trkpt>
      <trkpt lat="44.9861330" lon="6.8160710">
        <ele>1562.0</ele>
        <time>2017-07-28T09:45:09Z</time>
      </trkpt>
      <trkpt lat="44.9861420" lon="6.8160080">
        <ele>1560.8</ele>
        <time>2017-07-28T09:45:10Z</time>
      </trkpt>
      <trkpt lat="44.9861670" lon="6.8159410">
        <ele>1559.6</ele>
        <time>2017-07-28T09:45:11Z</time>
      </trkpt>
      <trkpt lat="44.9862180" lon="6.8158880">
        <ele>1558.6</ele>
        <time>2017-07-28T09:45:12Z</time>
      </trkpt>
      <trkpt lat="44.9862840" lon="6.8158510">
        <ele>1557.8</ele>
        <time>2017-07-28T09:45:13Z</time>
      </trkpt>
      <trkpt lat="44.9863600" lon="6.8158130">
        <ele>1556.8</ele>
        <time>2017-07-28T09:45:14Z</time>
      </trkpt>
      <trkpt lat="44.9864260" lon="6.8157830">
        <ele>1555.6</ele>
        <time>2017-07-28T09:45:15Z</time>
      </trkpt>
      <trkpt lat="44.9864860" lon="6.8157410">
        <ele>1552.6</ele>
        <time>2017-07-28T09:45:16Z</time>
      </trkpt>
      <trkpt lat="44.9865470" lon="6.8156950">
        <ele>1551.2</ele>
        <time>2017-07-28T09:45:17Z</time>
      </trkpt>
      <trkpt lat="44.9865980" lon="6.8156390">
        <ele>1550.0</ele>
        <time>2017-07-28T09:45:18Z</time>
      </trkpt>
      <trkpt lat="44.9866400" lon="6.8155750">
        <ele>1549.0</ele>
        <time>2017-07-28T09:45:19Z</time>
      </trkpt>
      <trkpt lat="44.9866520" lon="6.8155230">
        <ele>1547.8</ele>
        <time>2017-07-28T09:45:20Z</time>
      </trkpt>
      <trkpt lat="44.9866560" lon="6.8154370">
        <ele>1545.6</ele>
        <time>2017-07-28T09:45:22Z</time>
      </trkpt>
      <trkpt lat="44.9866270" lon="6.8153840">
        <ele>1543.2</ele>
        <time>2017-07-28T09:45:24Z</time>
      </trkpt>
      <trkpt lat="44.9865980" lon="6.8153680">
        <ele>1542.2</ele>
        <time>2017-07-28T09:45:25Z</time>
      </trkpt>
      <trkpt lat="44.9865540" lon="6.8153520">
        <ele>1541.0</ele>
        <time>2017-07-28T09:45:26Z</time>
      </trkpt>
      <trkpt lat="44.9865050" lon="6.8153430">
        <ele>1540.0</ele>
        <time>2017-07-28T09:45:27Z</time>
      </trkpt>
      <trkpt lat="44.9863850" lon="6.8153240">
        <ele>1538.4</ele>
        <time>2017-07-28T09:45:28Z</time>
      </trkpt>
      <trkpt lat="44.9862780" lon="6.8153220">
        <ele>1537.0</ele>
        <time>2017-07-28T09:45:29Z</time>
      </trkpt>
      <trkpt lat="44.9861940" lon="6.8153070">
        <ele>1535.4</ele>
        <time>2017-07-28T09:45:30Z</time>
      </trkpt>
      <trkpt lat="44.9861310" lon="6.8152700">
        <ele>1533.8</ele>
        <time>2017-07-28T09:45:31Z</time>
      </trkpt>
      <trkpt lat="44.9860800" lon="6.8152190">
        <ele>1532.2</ele>
        <time>2017-07-28T09:45:32Z</time>
      </trkpt>
      <trkpt lat="44.9860750" lon="6.8151570">
        <ele>1531.0</ele>
        <time>2017-07-28T09:45:33Z</time>
      </trkpt>
      <trkpt lat="44.9861040" lon="6.8150990">
        <ele>1529.8</ele>
        <time>2017-07-28T09:45:34Z</time>
      </trkpt>
      <trkpt lat="44.9861960" lon="6.8149940">
        <ele>1527.8</ele>
        <time>2017-07-28T09:45:36Z</time>
      </trkpt>
      <trkpt lat="44.9862500" lon="6.8149500">
        <ele>1526.8</ele>
        <time>2017-07-28T09:45:37Z</time>
      </trkpt>
      <trkpt lat="44.9863410" lon="6.8148950">
        <ele>1525.8</ele>
        <time>2017-07-28T09:45:38Z</time>
      </trkpt>
      <trkpt lat="44.9864150" lon="6.8148500">
        <ele>1524.8</ele>
        <time>2017-07-28T09:45:39Z</time>
      </trkpt>
      <trkpt lat="44.9865060" lon="6.8147970">
        <ele>1523.0</ele>
        <time>2017-07-28T09:45:40Z</time>
      </trkpt>
      <trkpt lat="44.9866800" lon="6.8147080">
        <ele>1521.4</ele>
        <time>2017-07-28T09:45:42Z</time>
      </trkpt>
      <trkpt lat="44.9867490" lon="6.8146680">
        <ele>1520.4</ele>
        <time>2017-07-28T09:45:43Z</time>
      </trkpt>
      <trkpt lat="44.9868070" lon="6.8146280">
        <ele>1519.0</ele>
        <time>2017-07-28T09:45:44Z</time>
      </trkpt>
      <trkpt lat="44.9868470" lon="6.8145860">
        <ele>1517.8</ele>
        <time>2017-07-28T09:45:45Z</time>
      </trkpt>
      <trkpt lat="44.9868730" lon="6.8145500">
        <ele>1516.8</ele>
        <time>2017-07-28T09:45:46Z</time>
      </trkpt>
      <trkpt lat="44.9868810" lon="6.8145140">
        <ele>1515.8</ele>
        <time>2017-07-28T09:45:47Z</time>
      </trkpt>
      <trkpt lat="44.9868710" lon="6.8144810">
        <ele>1514.6</ele>
        <time>2017-07-28T09:45:48Z</time>
      </trkpt>
      <trkpt lat="44.9868500" lon="6.8144620">
        <ele>1513.6</ele>
        <time>2017-07-28T09:45:49Z</time>
      </trkpt>
      <trkpt lat="44.9868220" lon="6.8144510">
        <ele>1512.4</ele>
        <time>2017-07-28T09:45:50Z</time>
      </trkpt>
      <trkpt lat="44.9867870" lon="6.8144350">
        <ele>1511.0</ele>
        <time>2017-07-28T09:45:51Z</time>
      </trkpt>
      <trkpt lat="44.9867460" lon="6.8144050">
        <ele>1510.0</ele>
        <time>2017-07-28T09:45:52Z</time>
      </trkpt>
      <trkpt lat="44.9866970" lon="6.8143720">
        <ele>1508.6</ele>
        <time>2017-07-28T09:45:53Z</time>
      </trkpt>
      <trkpt lat="44.9865140" lon="6.8142740">
        <ele>1506.2</ele>
        <time>2017-07-28T09:45:55Z</time>
      </trkpt>
      <trkpt lat="44.9863930" lon="6.8142160">
        <ele>1504.8</ele>
        <time>2017-07-28T09:45:56Z</time>
      </trkpt>
      <trkpt lat="44.9862750" lon="6.8141570">
        <ele>1503.4</ele>
        <time>2017-07-28T09:45:57Z</time>
      </trkpt>
      <trkpt lat="44.9861600" lon="6.8141000">
        <ele>1502.2</ele>
        <time>2017-07-28T09:45:58Z</time>
      </trkpt>
      <trkpt lat="44.9860480" lon="6.8140340">
        <ele>1500.8</ele>
        <time>2017-07-28T09:45:59Z</time>
      </trkpt>
      <trkpt lat="44.9859600" lon="6.8139790">
        <ele>1499.4</ele>
        <time>2017-07-28T09:46:00Z</time>
      </trkpt>
      <trkpt lat="44.9858240" lon="6.8139480">
        <ele>1497.8</ele>
        <time>2017-07-28T09:46:01Z</time>
      </trkpt>
      <trkpt lat="44.9856950" lon="6.8139200">
        <ele>1496.6</ele>
        <time>2017-07-28T09:46:02Z</time>
      </trkpt>
      <trkpt lat="44.9855730" lon="6.8138980">
        <ele>1495.0</ele>
        <time>2017-07-28T09:46:03Z</time>
      </trkpt>
      <trkpt lat="44.9854840" lon="6.8138880">
        <ele>1491.2</ele>
        <time>2017-07-28T09:46:04Z</time>
      </trkpt>
      <trkpt lat="44.9853830" lon="6.8138750">
        <ele>1490.0</ele>
        <time>2017-07-28T09:46:05Z</time>
      </trkpt>
      <trkpt lat="44.9852830" lon="6.8138620">
        <ele>1488.8</ele>
        <time>2017-07-28T09:46:06Z</time>
      </trkpt>
      <trkpt lat="44.9850790" lon="6.8138170">
        <ele>1486.2</ele>
        <time>2017-07-28T09:46:08Z</time>
      </trkpt>
      <trkpt lat="44.9849760" lon="6.8137690">
        <ele>1484.4</ele>
        <time>2017-07-28T09:46:09Z</time>
      </trkpt>
      <trkpt lat="44.9848770" lon="6.8137120">
        <ele>1483.2</ele>
        <time>2017-07-28T09:46:10Z</time>
      </trkpt>
      <trkpt lat="44.9847900" lon="6.8136620">
        <ele>1481.8</ele>
        <time>2017-07-28T09:46:11Z</time>
      </trkpt>
      <trkpt lat="44.9847000" lon="6.8136160">
        <ele>1480.6</ele>
        <time>2017-07-28T09:46:12Z</time>
      </trkpt>
      <trkpt lat="44.9846120" lon="6.8135760">
        <ele>1479.0</ele>
        <time>2017-07-28T09:46:13Z</time>
      </trkpt>
      <trkpt lat="44.9845260" lon="6.8135440">
        <ele>1477.4</ele>
        <time>2017-07-28T09:46:14Z</time>
      </trkpt>
      <trkpt lat="44.9844390" lon="6.8135060">
        <ele>1476.0</ele>
        <time>2017-07-28T09:46:15Z</time>
      </trkpt>
      <trkpt lat="44.9843600" lon="6.8134750">
        <ele>1474.8</ele>
        <time>2017-07-28T09:46:16Z</time>
      </trkpt>
      <trkpt lat="44.9841810" lon="6.8134170">
        <ele>1473.0</ele>
        <time>2017-07-28T09:46:18Z</time>
      </trkpt>
      <trkpt lat="44.9840840" lon="6.8133850">
        <ele>1471.8</ele>
        <time>2017-07-28T09:46:19Z</time>
      </trkpt>
      <trkpt lat="44.9839810" lon="6.8133550">
        <ele>1470.6</ele>
        <time>2017-07-28T09:46:20Z</time>
      </trkpt>
      <trkpt lat="44.9838910" lon="6.8133260">
        <ele>1469.2</ele>
        <time>2017-07-28T09:46:21Z</time>
      </trkpt>
      <trkpt lat="44.9838040" lon="6.8132820">
        <ele>1467.6</ele>
        <time>2017-07-28T09:46:22Z</time>
      </trkpt>
      <trkpt lat="44.9837210" lon="6.8132140">
        <ele>1466.6</ele>
        <time>2017-07-28T09:46:23Z</time>
      </trkpt>
      <trkpt lat="44.9836360" lon="6.8131350">
        <ele>1465.4</ele>
        <time>2017-07-28T09:46:24Z</time>
      </trkpt>
      <trkpt lat="44.9835550" lon="6.8130690">
        <ele>1464.2</ele>
        <time>2017-07-28T09:46:25Z</time>
      </trkpt>
      <trkpt lat="44.9834760" lon="6.8130050">
        <ele>1463.0</ele>
        <time>2017-07-28T09:46:26Z</time>
      </trkpt>
      <trkpt lat="44.9833850" lon="6.8129610">
        <ele>1461.6</ele>
        <time>2017-07-28T09:46:27Z</time>
      </trkpt>
      <trkpt lat="44.9833060" lon="6.8129300">
        <ele>1459.2</ele>
        <time>2017-07-28T09:46:28Z</time>
      </trkpt>
      <trkpt lat="44.9832410" lon="6.8128890">
        <ele>1457.8</ele>
        <time>2017-07-28T09:46:29Z</time>
      </trkpt>
      <trkpt lat="44.9831950" lon="6.8128470">
        <ele>1456.2</ele>
        <time>2017-07-28T09:46:30Z</time>
      </trkpt>
      <trkpt lat="44.9831820" lon="6.8127930">
        <ele>1455.0</ele>
        <time>2017-07-28T09:46:31Z</time>
      </trkpt>
      <trkpt lat="44.9832210" lon="6.8127000">
        <ele>1453.4</ele>
        <time>2017-07-28T09:46:33Z</time>
      </trkpt>
      <trkpt lat="44.9833240" lon="6.8126570">
        <ele>1451.6</ele>
        <time>2017-07-28T09:46:35Z</time>
      </trkpt>
      <trkpt lat="44.9833890" lon="6.8126600">
        <ele>1450.2</ele>
        <time>2017-07-28T09:46:36Z</time>
      </trkpt>
      <trkpt lat="44.9834640" lon="6.8126360">
        <ele>1449.2</ele>
        <time>2017-07-28T09:46:37Z</time>
      </trkpt>
      <trkpt lat="44.9835360" lon="6.8126250">
        <ele>1448.4</ele>
        <time>2017-07-28T09:46:38Z</time>
      </trkpt>
      <trkpt lat="44.9836110" lon="6.8126260">
        <ele>1447.6</ele>
        <time>2017-07-28T09:46:39Z</time>
      </trkpt>
      <trkpt lat="44.9836740" lon="6.8126160">
        <ele>1446.6</ele>
        <time>2017-07-28T09:46:40Z</time>
      </trkpt>
      <trkpt lat="44.9837160" lon="6.8125880">
        <ele>1445.8</ele>
        <time>2017-07-28T09:46:41Z</time>
      </trkpt>
      <trkpt lat="44.9837510" lon="6.8125580">
        <ele>1445.0</ele>
        <time>2017-07-28T09:46:42Z</time>
      </trkpt>
      <trkpt lat="44.9837850" lon="6.8125400">
        <ele>1444.2</ele>
        <time>2017-07-28T09:46:43Z</time>
      </trkpt>
      <trkpt lat="44.9838080" lon="6.8125240">
        <ele>1443.2</ele>
        <time>2017-07-28T09:46:44Z</time>
      </trkpt>
      <trkpt lat="44.9838300" lon="6.8124600">
        <ele>1441.4</ele>
        <time>2017-07-28T09:46:46Z</time>
      </trkpt>
      <trkpt lat="44.9838140" lon="6.8124180">
        <ele>1440.6</ele>
        <time>2017-07-28T09:46:47Z</time>
      </trkpt>
      <trkpt lat="44.9837840" lon="6.8123670">
        <ele>1439.8</ele>
        <time>2017-07-28T09:46:48Z</time>
      </trkpt>
      <trkpt lat="44.9836380" lon="6.8122820">
        <ele>1438.2</ele>
        <time>2017-07-28T09:46:50Z</time>
      </trkpt>
      <trkpt lat="44.9835340" lon="6.8122780">
        <ele>1437.0</ele>
        <time>2017-07-28T09:46:51Z</time>
      </trkpt>
      <trkpt lat="44.9834330" lon="6.8122620">
        <ele>1434.8</ele>
        <time>2017-07-28T09:46:52Z</time>
      </trkpt>
      <trkpt lat="44.9833650" lon="6.8122260">
        <ele>1433.8</ele>
        <time>2017-07-28T09:46:53Z</time>
      </trkpt>
      <trkpt lat="44.9833230" lon="6.8121780">
        <ele>1432.8</ele>
        <time>2017-07-28T09:46:54Z</time>
      </trkpt>
      <trkpt lat="44.9833440" lon="6.8121000">
        <ele>1431.2</ele>
        <time>2017-07-28T09:46:56Z</time>
      </trkpt>
      <trkpt lat="44.9834130" lon="6.8120470">
        <ele>1429.6</ele>
        <time>2017-07-28T09:46:58Z</time>
      </trkpt>
      <trkpt lat="44.9835030" lon="6.8119930">
        <ele>1428.2</ele>
        <time>2017-07-28T09:47:00Z</time>
      </trkpt>
      <trkpt lat="44.9836280" lon="6.8119440">
        <ele>1426.6</ele>
        <time>2017-07-28T09:47:02Z</time>
      </trkpt>
      <trkpt lat="44.9836850" lon="6.8119160">
        <ele>1425.8</ele>
        <time>2017-07-28T09:47:03Z</time>
      </trkpt>
      <trkpt lat="44.9837590" lon="6.8118770">
        <ele>1425.0</ele>
        <time>2017-07-28T09:47:04Z</time>
      </trkpt>
      <trkpt lat="44.9840260" lon="6.8118290">
        <ele>1423.2</ele>
        <time>2017-07-28T09:47:07Z</time>
      </trkpt>
      <trkpt lat="44.9841470" lon="6.8118020">
        <ele>1421.6</ele>
        <time>2017-07-28T09:47:09Z</time>
      </trkpt>
      <trkpt lat="44.9841660" lon="6.8117710">
        <ele>1420.8</ele>
        <time>2017-07-28T09:47:10Z</time>
      </trkpt>
      <trkpt lat="44.9841700" lon="6.8117240">
        <ele>1420.2</ele>
        <time>2017-07-28T09:47:11Z</time>
      </trkpt>
      <trkpt lat="44.9841570" lon="6.8116240">
        <ele>1419.0</ele>
        <time>2017-07-28T09:47:13Z</time>
      </trkpt>
      <trkpt lat="44.9840630" lon="6.8115680">
        <ele>1417.6</ele>
        <time>2017-07-28T09:47:15Z</time>
      </trkpt>
      <trkpt lat="44.9840270" lon="6.8115220">
        <ele>1415.6</ele>
        <time>2017-07-28T09:47:16Z</time>
      </trkpt>
      <trkpt lat="44.9838940" lon="6.8113870">
        <ele>1414.0</ele>
        <time>2017-07-28T09:47:18Z</time>
      </trkpt>
      <trkpt lat="44.9837200" lon="6.8112410">
        <ele>1412.2</ele>
        <time>2017-07-28T09:47:20Z</time>
      </trkpt>
      <trkpt lat="44.9836240" lon="6.8112090">
        <ele>1411.6</ele>
        <time>2017-07-28T09:47:21Z</time>
      </trkpt>
      <trkpt lat="44.9835260" lon="6.8111700">
        <ele>1411.0</ele>
        <time>2017-07-28T09:47:22Z</time>
      </trkpt>
      <trkpt lat="44.9834350" lon="6.8111420">
        <ele>1410.0</ele>
        <time>2017-07-28T09:47:23Z</time>
      </trkpt>
      <trkpt lat="44.9832410" lon="6.8110470">
        <ele>1408.0</ele>
        <time>2017-07-28T09:47:25Z</time>
      </trkpt>
      <trkpt lat="44.9831410" lon="6.8109850">
        <ele>1407.4</ele>
        <time>2017-07-28T09:47:26Z</time>
      </trkpt>
      <trkpt lat="44.9830460" lon="6.8109170">
        <ele>1406.4</ele>
        <time>2017-07-28T09:47:27Z</time>
      </trkpt>
      <trkpt lat="44.9829600" lon="6.8108490">
        <ele>1405.4</ele>
        <time>2017-07-28T09:47:28Z</time>
      </trkpt>
      <trkpt lat="44.9828750" lon="6.8107840">
        <ele>1404.4</ele>
        <time>2017-07-28T09:47:29Z</time>
      </trkpt>
      <trkpt lat="44.9827940" lon="6.8107260">
        <ele>1403.0</ele>
        <time>2017-07-28T09:47:30Z</time>
      </trkpt>
      <trkpt lat="44.9827290" lon="6.8106960">
        <ele>1402.0</ele>
        <time>2017-07-28T09:47:31Z</time>
      </trkpt>
      <trkpt lat="44.9826790" lon="6.8106590">
        <ele>1400.8</ele>
        <time>2017-07-28T09:47:32Z</time>
      </trkpt>
      <trkpt lat="44.9826250" lon="6.8105740">
        <ele>1398.4</ele>
        <time>2017-07-28T09:47:34Z</time>
      </trkpt>
      <trkpt lat="44.9826450" lon="6.8105370">
        <ele>1397.4</ele>
        <time>2017-07-28T09:47:35Z</time>
      </trkpt>
      <trkpt lat="44.9827200" lon="6.8105070">
        <ele>1396.2</ele>
        <time>2017-07-28T09:47:36Z</time>
      </trkpt>
      <trkpt lat="44.9827830" lon="6.8104120">
        <ele>1394.4</ele>
        <time>2017-07-28T09:47:38Z</time>
      </trkpt>
      <trkpt lat="44.9829100" lon="6.8103200">
        <ele>1391.8</ele>
        <time>2017-07-28T09:47:40Z</time>
      </trkpt>
      <trkpt lat="44.9829790" lon="6.8102820">
        <ele>1391.0</ele>
        <time>2017-07-28T09:47:41Z</time>
      </trkpt>
      <trkpt lat="44.9830520" lon="6.8102510">
        <ele>1389.8</ele>
        <time>2017-07-28T09:47:42Z</time>
      </trkpt>
      <trkpt lat="44.9831270" lon="6.8102110">
        <ele>1388.8</ele>
        <time>2017-07-28T09:47:43Z</time>
      </trkpt>
      <trkpt lat="44.9831980" lon="6.8101720">
        <ele>1387.6</ele>
        <time>2017-07-28T09:47:44Z</time>
      </trkpt>
      <trkpt lat="44.9833060" lon="6.8100300">
        <ele>1386.0</ele>
        <time>2017-07-28T09:47:46Z</time>
      </trkpt>
      <trkpt lat="44.9833470" lon="6.8099270">
        <ele>1384.8</ele>
        <time>2017-07-28T09:47:47Z</time>
      </trkpt>
      <trkpt lat="44.9833520" lon="6.8098230">
        <ele>1383.8</ele>
        <time>2017-07-28T09:47:48Z</time>
      </trkpt>
      <trkpt lat="44.9833710" lon="6.8096800">
        <ele>1382.0</ele>
        <time>2017-07-28T09:47:50Z</time>
      </trkpt>
      <trkpt lat="44.9834100" lon="6.8096390">
        <ele>1381.0</ele>
        <time>2017-07-28T09:47:51Z</time>
      </trkpt>
      <trkpt lat="44.9834560" lon="6.8096280">
        <ele>1379.8</ele>
        <time>2017-07-28T09:47:52Z</time>
      </trkpt>
      <trkpt lat="44.9835070" lon="6.8096190">
        <ele>1378.6</ele>
        <time>2017-07-28T09:47:53Z</time>
      </trkpt>
      <trkpt lat="44.9836330" lon="6.8096170">
        <ele>1376.4</ele>
        <time>2017-07-28T09:47:55Z</time>
      </trkpt>
      <trkpt lat="44.9837140" lon="6.8096220">
        <ele>1375.4</ele>
        <time>2017-07-28T09:47:56Z</time>
      </trkpt>
      <trkpt lat="44.9837950" lon="6.8096280">
        <ele>1374.4</ele>
        <time>2017-07-28T09:47:57Z</time>
      </trkpt>
      <trkpt lat="44.9838740" lon="6.8096230">
        <ele>1373.4</ele>
        <time>2017-07-28T09:47:58Z</time>
      </trkpt>
      <trkpt lat="44.9840290" lon="6.8096330">
        <ele>1371.6</ele>
        <time>2017-07-28T09:48:00Z</time>
      </trkpt>
      <trkpt lat="44.9841860" lon="6.8096220">
        <ele>1369.6</ele>
        <time>2017-07-28T09:48:02Z</time>
      </trkpt>
      <trkpt lat="44.9843540" lon="6.8096050">
        <ele>1366.6</ele>
        <time>2017-07-28T09:48:04Z</time>
      </trkpt>
      <trkpt lat="44.9844270" lon="6.8095970">
        <ele>1365.4</ele>
        <time>2017-07-28T09:48:05Z</time>
      </trkpt>
      <trkpt lat="44.9844870" lon="6.8095610">
        <ele>1364.4</ele>
        <time>2017-07-28T09:48:06Z</time>
      </trkpt>
      <trkpt lat="44.9845480" lon="6.8095100">
        <ele>1363.2</ele>
        <time>2017-07-28T09:48:07Z</time>
      </trkpt>
      <trkpt lat="44.9846070" lon="6.8093530">
        <ele>1361.2</ele>
        <time>2017-07-28T09:48:09Z</time>
      </trkpt>
      <trkpt lat="44.9846120" lon="6.8092710">
        <ele>1360.2</ele>
        <time>2017-07-28T09:48:10Z</time>
      </trkpt>
      <trkpt lat="44.9846000" lon="6.8092040">
        <ele>1359.2</ele>
        <time>2017-07-28T09:48:11Z</time>
      </trkpt>
      <trkpt lat="44.9845770" lon="6.8091440">
        <ele>1358.0</ele>
        <time>2017-07-28T09:48:12Z</time>
      </trkpt>
      <trkpt lat="44.9845460" lon="6.8090830">
        <ele>1356.6</ele>
        <time>2017-07-28T09:48:13Z</time>
      </trkpt>
      <trkpt lat="44.9844560" lon="6.8089960">
        <ele>1355.4</ele>
        <time>2017-07-28T09:48:14Z</time>
      </trkpt>
      <trkpt lat="44.9843780" lon="6.8089120">
        <ele>1354.0</ele>
        <time>2017-07-28T09:48:15Z</time>
      </trkpt>
      <trkpt lat="44.9843050" lon="6.8088280">
        <ele>1352.8</ele>
        <time>2017-07-28T09:48:16Z</time>
      </trkpt>
      <trkpt lat="44.9842260" lon="6.8087260">
        <ele>1351.6</ele>
        <time>2017-07-28T09:48:17Z</time>
      </trkpt>
      <trkpt lat="44.9841480" lon="6.8086240">
        <ele>1350.2</ele>
        <time>2017-07-28T09:48:18Z</time>
      </trkpt>
      <trkpt lat="44.9840640" lon="6.8085310">
        <ele>1349.2</ele>
        <time>2017-07-28T09:48:19Z</time>
      </trkpt>
      <trkpt lat="44.9839990" lon="6.8084180">
        <ele>1347.8</ele>
        <time>2017-07-28T09:48:20Z</time>
      </trkpt>
      <trkpt lat="44.9839260" lon="6.8083150">
        <ele>1346.4</ele>
        <time>2017-07-28T09:48:21Z</time>
      </trkpt>
      <trkpt lat="44.9838840" lon="6.8082100">
        <ele>1344.6</ele>
        <time>2017-07-28T09:48:22Z</time>
      </trkpt>
      <trkpt lat="44.9838300" lon="6.8081040">
        <ele>1343.4</ele>
        <time>2017-07-28T09:48:23Z</time>
      </trkpt>
      <trkpt lat="44.9837800" lon="6.8079990">
        <ele>1342.0</ele>
        <time>2017-07-28T09:48:24Z</time>
      </trkpt>
      <trkpt lat="44.9837410" lon="6.8078780">
        <ele>1340.8</ele>
        <time>2017-07-28T09:48:25Z</time>
      </trkpt>
      <trkpt lat="44.9837030" lon="6.8077640">
        <ele>1339.2</ele>
        <time>2017-07-28T09:48:26Z</time>
      </trkpt>
      <trkpt lat="44.9836480" lon="6.8076760">
        <ele>1337.6</ele>
        <time>2017-07-28T09:48:27Z</time>
      </trkpt>
      <trkpt lat="44.9835790" lon="6.8076130">
        <ele>1334.8</ele>
        <time>2017-07-28T09:48:28Z</time>
      </trkpt>
      <trkpt lat="44.9835080" lon="6.8075890">
        <ele>1333.2</ele>
        <time>2017-07-28T09:48:29Z</time>
      </trkpt>
      <trkpt lat="44.9834320" lon="6.8075670">
        <ele>1331.8</ele>
        <time>2017-07-28T09:48:30Z</time>
      </trkpt>
      <trkpt lat="44.9833400" lon="6.8075640">
        <ele>1330.6</ele>
        <time>2017-07-28T09:48:31Z</time>
      </trkpt>
      <trkpt lat="44.9832540" lon="6.8075700">
        <ele>1329.6</ele>
        <time>2017-07-28T09:48:32Z</time>
      </trkpt>
      <trkpt lat="44.9831630" lon="6.8075730">
        <ele>1328.2</ele>
        <time>2017-07-28T09:48:33Z</time>
      </trkpt>
      <trkpt lat="44.9830710" lon="6.8075670">
        <ele>1326.8</ele>
        <time>2017-07-28T09:48:34Z</time>
      </trkpt>
      <trkpt lat="44.9829820" lon="6.8075510">
        <ele>1325.4</ele>
        <time>2017-07-28T09:48:35Z</time>
      </trkpt>
      <trkpt lat="44.9829010" lon="6.8075230">
        <ele>1324.0</ele>
        <time>2017-07-28T09:48:36Z</time>
      </trkpt>
      <trkpt lat="44.9828240" lon="6.8075060">
        <ele>1322.6</ele>
        <time>2017-07-28T09:48:37Z</time>
      </trkpt>
      <trkpt lat="44.9827520" lon="6.8074940">
        <ele>1321.6</ele>
        <time>2017-07-28T09:48:38Z</time>
      </trkpt>
      <trkpt lat="44.9826790" lon="6.8074770">
        <ele>1320.4</ele>
        <time>2017-07-28T09:48:39Z</time>
      </trkpt>
      <trkpt lat="44.9826150" lon="6.8074350">
        <ele>1318.8</ele>
        <time>2017-07-28T09:48:40Z</time>
      </trkpt>
      <trkpt lat="44.9825430" lon="6.8073930">
        <ele>1317.4</ele>
        <time>2017-07-28T09:48:41Z</time>
      </trkpt>
      <trkpt lat="44.9824850" lon="6.8073390">
        <ele>1316.0</ele>
        <time>2017-07-28T09:48:42Z</time>
      </trkpt>
      <trkpt lat="44.9824380" lon="6.8072920">
        <ele>1314.6</ele>
        <time>2017-07-28T09:48:43Z</time>
      </trkpt>
      <trkpt lat="44.9824150" lon="6.8072310">
        <ele>1313.2</ele>
        <time>2017-07-28T09:48:44Z</time>
      </trkpt>
      <trkpt lat="44.9824680" lon="6.8071570">
        <ele>1312.2</ele>
        <time>2017-07-28T09:48:45Z</time>
      </trkpt>
      <trkpt lat="44.9825310" lon="6.8071140">
        <ele>1311.2</ele>
        <time>2017-07-28T09:48:46Z</time>
      </trkpt>
      <trkpt lat="44.9825980" lon="6.8070970">
        <ele>1310.2</ele>
        <time>2017-07-28T09:48:47Z</time>
      </trkpt>
      <trkpt lat="44.9826660" lon="6.8070880">
        <ele>1309.2</ele>
        <time>2017-07-28T09:48:48Z</time>
      </trkpt>
      <trkpt lat="44.9827340" lon="6.8070840">
        <ele>1308.0</ele>
        <time>2017-07-28T09:48:49Z</time>
      </trkpt>
      <trkpt lat="44.9827770" lon="6.8070850">
        <ele>1307.0</ele>
        <time>2017-07-28T09:48:50Z</time>
      </trkpt>
      <trkpt lat="44.9828260" lon="6.8070710">
        <ele>1305.6</ele>
        <time>2017-07-28T09:48:51Z</time>
      </trkpt>
      <trkpt lat="44.9828640" lon="6.8070510">
        <ele>1303.4</ele>
        <time>2017-07-28T09:48:52Z</time>
      </trkpt>
      <trkpt lat="44.9829030" lon="6.8070110">
        <ele>1302.6</ele>
        <time>2017-07-28T09:48:53Z</time>
      </trkpt>
      <trkpt lat="44.9829440" lon="6.8069570">
        <ele>1301.8</ele>
        <time>2017-07-28T09:48:54Z</time>
      </trkpt>
      <trkpt lat="44.9829010" lon="6.8068810">
        <ele>1300.2</ele>
        <time>2017-07-28T09:48:56Z</time>
      </trkpt>
      <trkpt lat="44.9828160" lon="6.8068400">
        <ele>1298.6</ele>
        <time>2017-07-28T09:48:58Z</time>
      </trkpt>
      <trkpt lat="44.9827250" lon="6.8067770">
        <ele>1297.0</ele>
        <time>2017-07-28T09:49:00Z</time>
      </trkpt>
      <trkpt lat="44.9826730" lon="6.8067520">
        <ele>1296.4</ele>
        <time>2017-07-28T09:49:01Z</time>
      </trkpt>
      <trkpt lat="44.9826160" lon="6.8067380">
        <ele>1295.6</ele>
        <time>2017-07-28T09:49:02Z</time>
      </trkpt>
      <trkpt lat="44.9824860" lon="6.8067170">
        <ele>1294.4</ele>
        <time>2017-07-28T09:49:04Z</time>
      </trkpt>
      <trkpt lat="44.9823480" lon="6.8066960">
        <ele>1293.0</ele>
        <time>2017-07-28T09:49:06Z</time>
      </trkpt>
      <trkpt lat="44.9821910" lon="6.8066640">
        <ele>1291.6</ele>
        <time>2017-07-28T09:49:08Z</time>
      </trkpt>
      <trkpt lat="44.9820770" lon="6.8066250">
        <ele>1290.6</ele>
        <time>2017-07-28T09:49:09Z</time>
      </trkpt>
      <trkpt lat="44.9819650" lon="6.8065840">
        <ele>1289.8</ele>
        <time>2017-07-28T09:49:10Z</time>
      </trkpt>
      <trkpt lat="44.9816550" lon="6.8064490">
        <ele>1288.4</ele>
        <time>2017-07-28T09:49:13Z</time>
      </trkpt>
      <trkpt lat="44.9814760" lon="6.8063370">
        <ele>1287.6</ele>
        <time>2017-07-28T09:49:15Z</time>
      </trkpt>
      <trkpt lat="44.9814000" lon="6.8062540">
        <ele>1287.0</ele>
        <time>2017-07-28T09:49:16Z</time>
      </trkpt>
      <trkpt lat="44.9813220" lon="6.8060430">
        <ele>1286.0</ele>
        <time>2017-07-28T09:49:18Z</time>
      </trkpt>
      <trkpt lat="44.9813240" lon="6.8059270">
        <ele>1285.6</ele>
        <time>2017-07-28T09:49:19Z</time>
      </trkpt>
      <trkpt lat="44.9813350" lon="6.8056970">
        <ele>1284.8</ele>
        <time>2017-07-28T09:49:21Z</time>
      </trkpt>
      <trkpt lat="44.9813240" lon="6.8054830">
        <ele>1284.2</ele>
        <time>2017-07-28T09:49:23Z</time>
      </trkpt>
      <trkpt lat="44.9812610" lon="6.8053190">
        <ele>1283.8</ele>
        <time>2017-07-28T09:49:25Z</time>
      </trkpt>
      <trkpt lat="44.9811700" lon="6.8051720">
        <ele>1283.2</ele>
        <time>2017-07-28T09:49:28Z</time>
      </trkpt>
      <trkpt lat="44.9811450" lon="6.8051300">
        <ele>1282.8</ele>
        <time>2017-07-28T09:49:29Z</time>
      </trkpt>
      <trkpt lat="44.9810990" lon="6.8050480">
        <ele>1282.8</ele>
        <time>2017-07-28T09:49:31Z</time>
      </trkpt>
      <trkpt lat="44.9810600" lon="6.8049730">
        <ele>1282.6</ele>
        <time>2017-07-28T09:49:33Z</time>
      </trkpt>
      <trkpt lat="44.9810260" lon="6.8049030">
        <ele>1282.4</ele>
        <time>2017-07-28T09:49:35Z</time>
      </trkpt>
      <trkpt lat="44.9810040" lon="6.8048690">
        <ele>1282.4</ele>
        <time>2017-07-28T09:49:36Z</time>
      </trkpt>
      <trkpt lat="44.9809710" lon="6.8047500">
        <ele>1282.6</ele>
        <time>2017-07-28T09:49:39Z</time>
      </trkpt>
      <trkpt lat="44.9809620" lon="6.8047100">
        <ele>1279.8</ele>
        <time>2017-07-28T09:49:40Z</time>
      </trkpt>
      <trkpt lat="44.9809470" lon="6.8046240">
        <ele>1283.2</ele>
        <time>2017-07-28T09:49:42Z</time>
      </trkpt>
      <trkpt lat="44.9809140" lon="6.8045070">
        <ele>1283.6</ele>
        <time>2017-07-28T09:49:45Z</time>
      </trkpt>
      <trkpt lat="44.9808810" lon="6.8044090">
        <ele>1284.4</ele>
        <time>2017-07-28T09:49:48Z</time>
      </trkpt>
      <trkpt lat="44.9808740" lon="6.8043720">
        <ele>1284.8</ele>
        <time>2017-07-28T09:49:49Z</time>
      </trkpt>
      <trkpt lat="44.9808500" lon="6.8042740">
        <ele>1285.4</ele>
        <time>2017-07-28T09:49:52Z</time>
      </trkpt>
      <trkpt lat="44.9808380" lon="6.8042460">
        <ele>1285.6</ele>
        <time>2017-07-28T09:49:53Z</time>
      </trkpt>
      <trkpt lat="44.9808000" lon="6.8041590">
        <ele>1286.2</ele>
        <time>2017-07-28T09:49:56Z</time>
      </trkpt>
      <trkpt lat="44.9807710" lon="6.8041070">
        <ele>1286.6</ele>
        <time>2017-07-28T09:49:58Z</time>
      </trkpt>
      <trkpt lat="44.9807180" lon="6.8039900">
        <ele>1287.8</ele>
        <time>2017-07-28T09:50:02Z</time>
      </trkpt>
      <trkpt lat="44.9807070" lon="6.8039610">
        <ele>1288.0</ele>
        <time>2017-07-28T09:50:03Z</time>
      </trkpt>
      <trkpt lat="44.9806450" lon="6.8038560">
        <ele>1288.8</ele>
        <time>2017-07-28T09:50:07Z</time>
      </trkpt>
      <trkpt lat="44.9806820" lon="6.8037200">
        <ele>1289.6</ele>
        <time>2017-07-28T09:50:11Z</time>
      </trkpt>
      <trkpt lat="44.9806890" lon="6.8036850">
        <ele>1289.8</ele>
        <time>2017-07-28T09:50:12Z</time>
      </trkpt>
      <trkpt lat="44.9807360" lon="6.8034130">
        <ele>1291.0</ele>
        <time>2017-07-28T09:50:20Z</time>
      </trkpt>
      <trkpt lat="44.9807480" lon="6.8033250">
        <ele>1292.2</ele>
        <time>2017-07-28T09:50:23Z</time>
      </trkpt>
      <trkpt lat="44.9807630" lon="6.8031940">
        <ele>1293.4</ele>
        <time>2017-07-28T09:50:27Z</time>
      </trkpt>
      <trkpt lat="44.9807700" lon="6.8031570">
        <ele>1293.6</ele>
        <time>2017-07-28T09:50:28Z</time>
      </trkpt>
      <trkpt lat="44.9808090" lon="6.8030170">
        <ele>1294.0</ele>
        <time>2017-07-28T09:50:32Z</time>
      </trkpt>
      <trkpt lat="44.9808260" lon="6.8029410">
        <ele>1294.6</ele>
        <time>2017-07-28T09:50:34Z</time>
      </trkpt>
      <trkpt lat="44.9808330" lon="6.8028610">
        <ele>1295.0</ele>
        <time>2017-07-28T09:50:36Z</time>
      </trkpt>
      <trkpt lat="44.9808440" lon="6.8027460">
        <ele>1295.6</ele>
        <time>2017-07-28T09:50:39Z</time>
      </trkpt>
      <trkpt lat="44.9808830" lon="6.8025730">
        <ele>1296.6</ele>
        <time>2017-07-28T09:50:43Z</time>
      </trkpt>
      <trkpt lat="44.9809080" lon="6.8024020">
        <ele>1297.6</ele>
        <time>2017-07-28T09:50:47Z</time>
      </trkpt>
      <trkpt lat="44.9809130" lon="6.8022640">
        <ele>1298.8</ele>
        <time>2017-07-28T09:50:51Z</time>
      </trkpt>
      <trkpt lat="44.9809160" lon="6.8021530">
        <ele>1299.6</ele>
        <time>2017-07-28T09:50:54Z</time>
      </trkpt>
      <trkpt lat="44.9809180" lon="6.8021180">
        <ele>1299.8</ele>
        <time>2017-07-28T09:50:55Z</time>
      </trkpt>
      <trkpt lat="44.9809270" lon="6.8019250">
        <ele>1301.2</ele>
        <time>2017-07-28T09:51:01Z</time>
      </trkpt>
      <trkpt lat="44.9809240" lon="6.8018490">
        <ele>1301.8</ele>
        <time>2017-07-28T09:51:03Z</time>
      </trkpt>
      <trkpt lat="44.9809470" lon="6.8018010">
        <ele>1302.4</ele>
        <time>2017-07-28T09:51:05Z</time>
      </trkpt>
      <trkpt lat="44.9809700" lon="6.8017210">
        <ele>1303.4</ele>
        <time>2017-07-28T09:51:08Z</time>
      </trkpt>
      <trkpt lat="44.9809740" lon="6.8016570">
        <ele>1304.2</ele>
        <time>2017-07-28T09:51:10Z</time>
      </trkpt>
      <trkpt lat="44.9809740" lon="6.8016210">
        <ele>1304.4</ele>
        <time>2017-07-28T09:51:11Z</time>
      </trkpt>
      <trkpt lat="44.9809870" lon="6.8014440">
        <ele>1305.8</ele>
        <time>2017-07-28T09:51:17Z</time>
      </trkpt>
      <trkpt lat="44.9809890" lon="6.8014160">
        <ele>1306.0</ele>
        <time>2017-07-28T09:51:18Z</time>
      </trkpt>
      <trkpt lat="44.9809860" lon="6.8013880">
        <ele>1306.2</ele>
        <time>2017-07-28T09:51:19Z</time>
      </trkpt>
      <trkpt lat="44.9809480" lon="6.8013260">
        <ele>1306.6</ele>
        <time>2017-07-28T09:51:23Z</time>
      </trkpt>
      <trkpt lat="44.9809380" lon="6.8013190">
        <ele>1306.8</ele>
        <time>2017-07-28T09:51:24Z</time>
      </trkpt>
      <trkpt lat="44.9809750" lon="6.8012210">
        <ele>1309.6</ele>
        <time>2017-07-28T09:57:46Z</time>
      </trkpt>
      <trkpt lat="44.9809760" lon="6.8012000">
        <ele>1309.8</ele>
        <time>2017-07-28T09:57:47Z</time>
      </trkpt>
      <trkpt lat="44.9809860" lon="6.8011420">
        <ele>1310.0</ele>
        <time>2017-07-28T09:57:49Z</time>
      </trkpt>
      <trkpt lat="44.9809980" lon="6.8010880">
        <ele>1310.2</ele>
        <time>2017-07-28T09:57:51Z</time>
      </trkpt>
      <trkpt lat="44.9809940" lon="6.8010680">
        <ele>1310.2</ele>
        <time>2017-07-28T09:57:52Z</time>
      </trkpt>
      <trkpt lat="44.9809960" lon="6.8010030">
        <ele>1310.8</ele>
        <time>2017-07-28T09:57:55Z</time>
      </trkpt>
      <trkpt lat="44.9809980" lon="6.8009710">
        <ele>1311.0</ele>
        <time>2017-07-28T09:57:56Z</time>
      </trkpt>
      <trkpt lat="44.9809980" lon="6.8009040">
        <ele>1311.2</ele>
        <time>2017-07-28T09:57:58Z</time>
      </trkpt>
      <trkpt lat="44.9809870" lon="6.8007940">
        <ele>1310.8</ele>
        <time>2017-07-28T09:58:01Z</time>
      </trkpt>
      <trkpt lat="44.9809870" lon="6.8007230">
        <ele>1311.8</ele>
        <time>2017-07-28T09:58:03Z</time>
      </trkpt>
      <trkpt lat="44.9809870" lon="6.8006880">
        <ele>1313.2</ele>
        <time>2017-07-28T09:58:04Z</time>
      </trkpt>
      <trkpt lat="44.9809950" lon="6.8005740">
        <ele>1313.8</ele>
        <time>2017-07-28T09:58:07Z</time>
      </trkpt>
      <trkpt lat="44.9810000" lon="6.8004990">
        <ele>1314.4</ele>
        <time>2017-07-28T09:58:09Z</time>
      </trkpt>
      <trkpt lat="44.9810130" lon="6.8004310">
        <ele>1314.6</ele>
        <time>2017-07-28T09:58:11Z</time>
      </trkpt>
      <trkpt lat="44.9810330" lon="6.8003390">
        <ele>1315.6</ele>
        <time>2017-07-28T09:58:14Z</time>
      </trkpt>
      <trkpt lat="44.9810530" lon="6.8002760">
        <ele>1317.4</ele>
        <time>2017-07-28T09:58:16Z</time>
      </trkpt>
      <trkpt lat="44.9810920" lon="6.8001810">
        <ele>1318.6</ele>
        <time>2017-07-28T09:58:19Z</time>
      </trkpt>
      <trkpt lat="44.9811200" lon="6.8001170">
        <ele>1319.8</ele>
        <time>2017-07-28T09:58:21Z</time>
      </trkpt>
      <trkpt lat="44.9811450" lon="6.8000540">
        <ele>1320.8</ele>
        <time>2017-07-28T09:58:23Z</time>
      </trkpt>
      <trkpt lat="44.9811830" lon="6.7999570">
        <ele>1322.0</ele>
        <time>2017-07-28T09:58:26Z</time>
      </trkpt>
      <trkpt lat="44.9811990" lon="6.7999240">
        <ele>1322.4</ele>
        <time>2017-07-28T09:58:27Z</time>
      </trkpt>
      <trkpt lat="44.9812230" lon="6.7998580">
        <ele>1323.6</ele>
        <time>2017-07-28T09:58:29Z</time>
      </trkpt>
      <trkpt lat="44.9812670" lon="6.7997220">
        <ele>1324.8</ele>
        <time>2017-07-28T09:58:33Z</time>
      </trkpt>
      <trkpt lat="44.9812910" lon="6.7996610">
        <ele>1322.2</ele>
        <time>2017-07-28T09:58:35Z</time>
      </trkpt>
      <trkpt lat="44.9813270" lon="6.7995690">
        <ele>1326.8</ele>
        <time>2017-07-28T09:58:38Z</time>
      </trkpt>
      <trkpt lat="44.9813420" lon="6.7995390">
        <ele>1328.4</ele>
        <time>2017-07-28T09:58:39Z</time>
      </trkpt>
      <trkpt lat="44.9813870" lon="6.7994050">
        <ele>1329.4</ele>
        <time>2017-07-28T09:58:43Z</time>
      </trkpt>
      <trkpt lat="44.9814160" lon="6.7993130">
        <ele>1330.4</ele>
        <time>2017-07-28T09:58:46Z</time>
      </trkpt>
      <trkpt lat="44.9814480" lon="6.7992110">
        <ele>1331.6</ele>
        <time>2017-07-28T09:58:49Z</time>
      </trkpt>
      <trkpt lat="44.9814570" lon="6.7991770">
        <ele>1332.0</ele>
        <time>2017-07-28T09:58:50Z</time>
      </trkpt>
      <trkpt lat="44.9814660" lon="6.7991040">
        <ele>1332.8</ele>
        <time>2017-07-28T09:58:52Z</time>
      </trkpt>
      <trkpt lat="44.9814610" lon="6.7990300">
        <ele>1333.8</ele>
        <time>2017-07-28T09:58:54Z</time>
      </trkpt>
      <trkpt lat="44.9814600" lon="6.7989900">
        <ele>1334.2</ele>
        <time>2017-07-28T09:58:55Z</time>
      </trkpt>
      <trkpt lat="44.9814580" lon="6.7988200">
        <ele>1334.8</ele>
        <time>2017-07-28T09:59:00Z</time>
      </trkpt>
      <trkpt lat="44.9814530" lon="6.7987890">
        <ele>1334.8</ele>
        <time>2017-07-28T09:59:01Z</time>
      </trkpt>
      <trkpt lat="44.9814220" lon="6.7986740">
        <ele>1336.2</ele>
        <time>2017-07-28T09:59:05Z</time>
      </trkpt>
      <trkpt lat="44.9813980" lon="6.7986040">
        <ele>1336.4</ele>
        <time>2017-07-28T09:59:07Z</time>
      </trkpt>
      <trkpt lat="44.9812780" lon="6.7983270">
        <ele>1337.0</ele>
        <time>2017-07-28T09:59:15Z</time>
      </trkpt>
      <trkpt lat="44.9812360" lon="6.7980570">
        <ele>1337.2</ele>
        <time>2017-07-28T09:59:22Z</time>
      </trkpt>
      <trkpt lat="44.9812360" lon="6.7978530">
        <ele>1338.2</ele>
        <time>2017-07-28T09:59:28Z</time>
      </trkpt>
      <trkpt lat="44.9812290" lon="6.7977860">
        <ele>1338.4</ele>
        <time>2017-07-28T09:59:30Z</time>
      </trkpt>
      <trkpt lat="44.9812220" lon="6.7976880">
        <ele>1339.6</ele>
        <time>2017-07-28T09:59:33Z</time>
      </trkpt>
      <trkpt lat="44.9812120" lon="6.7975750">
        <ele>1339.8</ele>
        <time>2017-07-28T09:59:36Z</time>
      </trkpt>
      <trkpt lat="44.9811990" lon="6.7974720">
        <ele>1340.6</ele>
        <time>2017-07-28T09:59:39Z</time>
      </trkpt>
      <trkpt lat="44.9811880" lon="6.7973740">
        <ele>1341.6</ele>
        <time>2017-07-28T09:59:42Z</time>
      </trkpt>
      <trkpt lat="44.9811870" lon="6.7973450">
        <ele>1342.0</ele>
        <time>2017-07-28T09:59:43Z</time>
      </trkpt>
      <trkpt lat="44.9811830" lon="6.7972490">
        <ele>1342.8</ele>
        <time>2017-07-28T09:59:46Z</time>
      </trkpt>
      <trkpt lat="44.9811780" lon="6.7971440">
        <ele>1344.0</ele>
        <time>2017-07-28T09:59:49Z</time>
      </trkpt>
      <trkpt lat="44.9811870" lon="6.7969710">
        <ele>1345.2</ele>
        <time>2017-07-28T09:59:54Z</time>
      </trkpt>
      <trkpt lat="44.9811970" lon="6.7968980">
        <ele>1345.8</ele>
        <time>2017-07-28T09:59:56Z</time>
      </trkpt>
      <trkpt lat="44.9812290" lon="6.7966780">
        <ele>1346.4</ele>
        <time>2017-07-28T10:00:02Z</time>
      </trkpt>
      <trkpt lat="44.9812550" lon="6.7965770">
        <ele>1346.8</ele>
        <time>2017-07-28T10:00:05Z</time>
      </trkpt>
      <trkpt lat="44.9812600" lon="6.7964340">
        <ele>1344.6</ele>
        <time>2017-07-28T10:00:09Z</time>
      </trkpt>
      <trkpt lat="44.9812570" lon="6.7964000">
        <ele>1340.2</ele>
        <time>2017-07-28T10:00:10Z</time>
      </trkpt>
      <trkpt lat="44.9812520" lon="6.7963630">
        <ele>1339.0</ele>
        <time>2017-07-28T10:00:11Z</time>
      </trkpt>
      <trkpt lat="44.9812510" lon="6.7963300">
        <ele>1342.0</ele>
        <time>2017-07-28T10:00:12Z</time>
      </trkpt>
      <trkpt lat="44.9812490" lon="6.7962980">
        <ele>1347.2</ele>
        <time>2017-07-28T10:00:13Z</time>
      </trkpt>
      <trkpt lat="44.9812450" lon="6.7962620">
        <ele>1349.0</ele>
        <time>2017-07-28T10:00:14Z</time>
      </trkpt>
      <trkpt lat="44.9812450" lon="6.7961880">
        <ele>1347.8</ele>
        <time>2017-07-28T10:00:16Z</time>
      </trkpt>
      <trkpt lat="44.9812450" lon="6.7961520">
        <ele>1346.2</ele>
        <time>2017-07-28T10:00:17Z</time>
      </trkpt>
      <trkpt lat="44.9812470" lon="6.7960830">
        <ele>1348.8</ele>
        <time>2017-07-28T10:00:19Z</time>
      </trkpt>
      <trkpt lat="44.9812460" lon="6.7960500">
        <ele>1351.0</ele>
        <time>2017-07-28T10:00:20Z</time>
      </trkpt>
      <trkpt lat="44.9812870" lon="6.7958300">
        <ele>1351.4</ele>
        <time>2017-07-28T10:00:27Z</time>
      </trkpt>
      <trkpt lat="44.9813190" lon="6.7957710">
        <ele>1352.2</ele>
        <time>2017-07-28T10:00:29Z</time>
      </trkpt>
      <trkpt lat="44.9813490" lon="6.7956910">
        <ele>1353.2</ele>
        <time>2017-07-28T10:00:32Z</time>
      </trkpt>
      <trkpt lat="44.9813790" lon="6.7956080">
        <ele>1354.2</ele>
        <time>2017-07-28T10:00:35Z</time>
      </trkpt>
      <trkpt lat="44.9814180" lon="6.7955350">
        <ele>1355.6</ele>
        <time>2017-07-28T10:00:38Z</time>
      </trkpt>
      <trkpt lat="44.9814480" lon="6.7954990">
        <ele>1356.6</ele>
        <time>2017-07-28T10:00:40Z</time>
      </trkpt>
      <trkpt lat="44.9814710" lon="6.7954600">
        <ele>1357.8</ele>
        <time>2017-07-28T10:00:42Z</time>
      </trkpt>
      <trkpt lat="44.9814940" lon="6.7953900">
        <ele>1358.8</ele>
        <time>2017-07-28T10:00:45Z</time>
      </trkpt>
      <trkpt lat="44.9815190" lon="6.7953480">
        <ele>1359.6</ele>
        <time>2017-07-28T10:00:47Z</time>
      </trkpt>
      <trkpt lat="44.9815350" lon="6.7953280">
        <ele>1360.0</ele>
        <time>2017-07-28T10:00:48Z</time>
      </trkpt>
      <trkpt lat="44.9815720" lon="6.7952650">
        <ele>1361.4</ele>
        <time>2017-07-28T10:00:51Z</time>
      </trkpt>
      <trkpt lat="44.9815920" lon="6.7952230">
        <ele>1362.6</ele>
        <time>2017-07-28T10:00:53Z</time>
      </trkpt>
      <trkpt lat="44.9816080" lon="6.7951820">
        <ele>1364.0</ele>
        <time>2017-07-28T10:00:55Z</time>
      </trkpt>
      <trkpt lat="44.9816140" lon="6.7951620">
        <ele>1364.4</ele>
        <time>2017-07-28T10:00:56Z</time>
      </trkpt>
      <trkpt lat="44.9816420" lon="6.7951050">
        <ele>1365.0</ele>
        <time>2017-07-28T10:00:59Z</time>
      </trkpt>
      <trkpt lat="44.9816760" lon="6.7950470">
        <ele>1366.4</ele>
        <time>2017-07-28T10:01:02Z</time>
      </trkpt>
      <trkpt lat="44.9817070" lon="6.7949950">
        <ele>1367.6</ele>
        <time>2017-07-28T10:01:05Z</time>
      </trkpt>
      <trkpt lat="44.9817350" lon="6.7949450">
        <ele>1368.6</ele>
        <time>2017-07-28T10:01:08Z</time>
      </trkpt>
      <trkpt lat="44.9817780" lon="6.7948770">
        <ele>1370.0</ele>
        <time>2017-07-28T10:01:12Z</time>
      </trkpt>
      <trkpt lat="44.9818170" lon="6.7948070">
        <ele>1371.0</ele>
        <time>2017-07-28T10:01:16Z</time>
      </trkpt>
      <trkpt lat="44.9818360" lon="6.7947750">
        <ele>1372.0</ele>
        <time>2017-07-28T10:01:18Z</time>
      </trkpt>
      <trkpt lat="44.9818540" lon="6.7947400">
        <ele>1372.8</ele>
        <time>2017-07-28T10:01:20Z</time>
      </trkpt>
      <trkpt lat="44.9818720" lon="6.7947050">
        <ele>1373.4</ele>
        <time>2017-07-28T10:01:22Z</time>
      </trkpt>
      <trkpt lat="44.9819030" lon="6.7946460">
        <ele>1374.4</ele>
        <time>2017-07-28T10:01:25Z</time>
      </trkpt>
      <trkpt lat="44.9819300" lon="6.7945630">
        <ele>1375.0</ele>
        <time>2017-07-28T10:01:29Z</time>
      </trkpt>
      <trkpt lat="44.9819700" lon="6.7944960">
        <ele>1375.6</ele>
        <time>2017-07-28T10:01:33Z</time>
      </trkpt>
      <trkpt lat="44.9819990" lon="6.7944290">
        <ele>1377.0</ele>
        <time>2017-07-28T10:01:37Z</time>
      </trkpt>
      <trkpt lat="44.9820300" lon="6.7943650">
        <ele>1378.0</ele>
        <time>2017-07-28T10:01:41Z</time>
      </trkpt>
      <trkpt lat="44.9820630" lon="6.7943300">
        <ele>1379.0</ele>
        <time>2017-07-28T10:01:44Z</time>
      </trkpt>
      <trkpt lat="44.9820990" lon="6.7942860">
        <ele>1380.0</ele>
        <time>2017-07-28T10:01:47Z</time>
      </trkpt>
      <trkpt lat="44.9821330" lon="6.7942580">
        <ele>1380.6</ele>
        <time>2017-07-28T10:01:49Z</time>
      </trkpt>
      <trkpt lat="44.9821590" lon="6.7942270">
        <ele>1381.2</ele>
        <time>2017-07-28T10:01:51Z</time>
      </trkpt>
      <trkpt lat="44.9822010" lon="6.7941390">
        <ele>1382.4</ele>
        <time>2017-07-28T10:01:56Z</time>
      </trkpt>
      <trkpt lat="44.9822120" lon="6.7941260">
        <ele>1382.6</ele>
        <time>2017-07-28T10:01:57Z</time>
      </trkpt>
      <trkpt lat="44.9822790" lon="6.7939970">
        <ele>1383.6</ele>
        <time>2017-07-28T10:02:04Z</time>
      </trkpt>
      <trkpt lat="44.9823000" lon="6.7939430">
        <ele>1384.8</ele>
        <time>2017-07-28T10:02:07Z</time>
      </trkpt>
      <trkpt lat="44.9823420" lon="6.7938670">
        <ele>1385.8</ele>
        <time>2017-07-28T10:02:11Z</time>
      </trkpt>
      <trkpt lat="44.9823520" lon="6.7938480">
        <ele>1385.8</ele>
        <time>2017-07-28T10:02:12Z</time>
      </trkpt>
      <trkpt lat="44.9823810" lon="6.7937940">
        <ele>1387.0</ele>
        <time>2017-07-28T10:02:15Z</time>
      </trkpt>
      <trkpt lat="44.9824020" lon="6.7937030">
        <ele>1387.0</ele>
        <time>2017-07-28T10:02:19Z</time>
      </trkpt>
      <trkpt lat="44.9824380" lon="6.7936020">
        <ele>1388.0</ele>
        <time>2017-07-28T10:02:23Z</time>
      </trkpt>
      <trkpt lat="44.9824710" lon="6.7934930">
        <ele>1388.8</ele>
        <time>2017-07-28T10:02:27Z</time>
      </trkpt>
      <trkpt lat="44.9824970" lon="6.7934170">
        <ele>1389.4</ele>
        <time>2017-07-28T10:02:30Z</time>
      </trkpt>
      <trkpt lat="44.9825500" lon="6.7932710">
        <ele>1390.4</ele>
        <time>2017-07-28T10:02:35Z</time>
      </trkpt>
      <trkpt lat="44.9826240" lon="6.7930880">
        <ele>1391.2</ele>
        <time>2017-07-28T10:02:42Z</time>
      </trkpt>
      <trkpt lat="44.9826370" lon="6.7930670">
        <ele>1391.6</ele>
        <time>2017-07-28T10:02:43Z</time>
      </trkpt>
      <trkpt lat="44.9827120" lon="6.7929450">
        <ele>1392.6</ele>
        <time>2017-07-28T10:02:48Z</time>
      </trkpt>
      <trkpt lat="44.9827290" lon="6.7929200">
        <ele>1393.0</ele>
        <time>2017-07-28T10:02:49Z</time>
      </trkpt>
      <trkpt lat="44.9827790" lon="6.7928470">
        <ele>1393.8</ele>
        <time>2017-07-28T10:02:52Z</time>
      </trkpt>
      <trkpt lat="44.9828310" lon="6.7927550">
        <ele>1394.8</ele>
        <time>2017-07-28T10:02:55Z</time>
      </trkpt>
      <trkpt lat="44.9829220" lon="6.7926150">
        <ele>1396.0</ele>
        <time>2017-07-28T10:03:00Z</time>
      </trkpt>
      <trkpt lat="44.9829330" lon="6.7925800">
        <ele>1396.4</ele>
        <time>2017-07-28T10:03:01Z</time>
      </trkpt>
      <trkpt lat="44.9829600" lon="6.7925090">
        <ele>1397.2</ele>
        <time>2017-07-28T10:03:03Z</time>
      </trkpt>
      <trkpt lat="44.9830240" lon="6.7923750">
        <ele>1398.4</ele>
        <time>2017-07-28T10:03:07Z</time>
      </trkpt>
      <trkpt lat="44.9830400" lon="6.7923450">
        <ele>1398.6</ele>
        <time>2017-07-28T10:03:08Z</time>
      </trkpt>
      <trkpt lat="44.9830840" lon="6.7921330">
        <ele>1399.6</ele>
        <time>2017-07-28T10:03:14Z</time>
      </trkpt>
      <trkpt lat="44.9830910" lon="6.7920000">
        <ele>1400.8</ele>
        <time>2017-07-28T10:03:18Z</time>
      </trkpt>
      <trkpt lat="44.9830870" lon="6.7919110">
        <ele>1401.2</ele>
        <time>2017-07-28T10:03:21Z</time>
      </trkpt>
      <trkpt lat="44.9830950" lon="6.7917470">
        <ele>1401.8</ele>
        <time>2017-07-28T10:03:26Z</time>
      </trkpt>
      <trkpt lat="44.9831110" lon="6.7915300">
        <ele>1402.4</ele>
        <time>2017-07-28T10:03:33Z</time>
      </trkpt>
      <trkpt lat="44.9831060" lon="6.7915020">
        <ele>1402.4</ele>
        <time>2017-07-28T10:03:34Z</time>
      </trkpt>
      <trkpt lat="44.9831130" lon="6.7914040">
        <ele>1403.0</ele>
        <time>2017-07-28T10:03:37Z</time>
      </trkpt>
      <trkpt lat="44.9831110" lon="6.7913730">
        <ele>1403.0</ele>
        <time>2017-07-28T10:03:38Z</time>
      </trkpt>
      <trkpt lat="44.9831380" lon="6.7911850">
        <ele>1403.4</ele>
        <time>2017-07-28T10:03:44Z</time>
      </trkpt>
      <trkpt lat="44.9831300" lon="6.7909540">
        <ele>1403.4</ele>
        <time>2017-07-28T10:03:51Z</time>
      </trkpt>
      <trkpt lat="44.9830920" lon="6.7907170">
        <ele>1403.8</ele>
        <time>2017-07-28T10:03:58Z</time>
      </trkpt>
      <trkpt lat="44.9830700" lon="6.7906650">
        <ele>1404.0</ele>
        <time>2017-07-28T10:04:00Z</time>
      </trkpt>
      <trkpt lat="44.9830400" lon="6.7905440">
        <ele>1405.2</ele>
        <time>2017-07-28T10:04:04Z</time>
      </trkpt>
      <trkpt lat="44.9830960" lon="6.7904410">
        <ele>1405.8</ele>
        <time>2017-07-28T10:04:08Z</time>
      </trkpt>
      <trkpt lat="44.9831210" lon="6.7904470">
        <ele>1406.0</ele>
        <time>2017-07-28T10:04:09Z</time>
      </trkpt>
      <trkpt lat="44.9831430" lon="6.7904550">
        <ele>1406.2</ele>
        <time>2017-07-28T10:04:10Z</time>
      </trkpt>
      <trkpt lat="44.9831990" lon="6.7905010">
        <ele>1407.6</ele>
        <time>2017-07-28T10:04:13Z</time>
      </trkpt>
      <trkpt lat="44.9832090" lon="6.7905350">
        <ele>1408.0</ele>
        <time>2017-07-28T10:04:14Z</time>
      </trkpt>
      <trkpt lat="44.9832560" lon="6.7906850">
        <ele>1408.6</ele>
        <time>2017-07-28T10:04:19Z</time>
      </trkpt>
      <trkpt lat="44.9832650" lon="6.7907120">
        <ele>1409.0</ele>
        <time>2017-07-28T10:04:20Z</time>
      </trkpt>
      <trkpt lat="44.9833090" lon="6.7907950">
        <ele>1410.0</ele>
        <time>2017-07-28T10:04:23Z</time>
      </trkpt>
      <trkpt lat="44.9833350" lon="6.7908570">
        <ele>1410.4</ele>
        <time>2017-07-28T10:04:25Z</time>
      </trkpt>
      <trkpt lat="44.9833990" lon="6.7910030">
        <ele>1411.8</ele>
        <time>2017-07-28T10:04:30Z</time>
      </trkpt>
      <trkpt lat="44.9834190" lon="6.7910650">
        <ele>1412.2</ele>
        <time>2017-07-28T10:04:32Z</time>
      </trkpt>
      <trkpt lat="44.9834390" lon="6.7911860">
        <ele>1412.8</ele>
        <time>2017-07-28T10:04:36Z</time>
      </trkpt>
      <trkpt lat="44.9834490" lon="6.7913370">
        <ele>1413.4</ele>
        <time>2017-07-28T10:04:41Z</time>
      </trkpt>
      <trkpt lat="44.9834640" lon="6.7914700">
        <ele>1414.0</ele>
        <time>2017-07-28T10:04:45Z</time>
      </trkpt>
      <trkpt lat="44.9834970" lon="6.7915950">
        <ele>1414.8</ele>
        <time>2017-07-28T10:04:49Z</time>
      </trkpt>
      <trkpt lat="44.9834990" lon="6.7916260">
        <ele>1415.2</ele>
        <time>2017-07-28T10:04:50Z</time>
      </trkpt>
      <trkpt lat="44.9834920" lon="6.7917510">
        <ele>1416.4</ele>
        <time>2017-07-28T10:04:54Z</time>
      </trkpt>
      <trkpt lat="44.9834890" lon="6.7917810">
        <ele>1416.8</ele>
        <time>2017-07-28T10:04:55Z</time>
      </trkpt>
      <trkpt lat="44.9834880" lon="6.7918080">
        <ele>1417.4</ele>
        <time>2017-07-28T10:04:56Z</time>
      </trkpt>
      <trkpt lat="44.9834860" lon="6.7918980">
        <ele>1418.6</ele>
        <time>2017-07-28T10:04:59Z</time>
      </trkpt>
      <trkpt lat="44.9834870" lon="6.7920280">
        <ele>1420.0</ele>
        <time>2017-07-28T10:05:03Z</time>
      </trkpt>
      <trkpt lat="44.9834820" lon="6.7921400">
        <ele>1421.0</ele>
        <time>2017-07-28T10:05:07Z</time>
      </trkpt>
      <trkpt lat="44.9834750" lon="6.7922630">
        <ele>1422.0</ele>
        <time>2017-07-28T10:05:11Z</time>
      </trkpt>
      <trkpt lat="44.9834750" lon="6.7922970">
        <ele>1422.2</ele>
        <time>2017-07-28T10:05:12Z</time>
      </trkpt>
      <trkpt lat="44.9834830" lon="6.7924210">
        <ele>1423.2</ele>
        <time>2017-07-28T10:05:16Z</time>
      </trkpt>
      <trkpt lat="44.9834810" lon="6.7925370">
        <ele>1424.0</ele>
        <time>2017-07-28T10:05:20Z</time>
      </trkpt>
      <trkpt lat="44.9834830" lon="6.7925710">
        <ele>1424.2</ele>
        <time>2017-07-28T10:05:21Z</time>
      </trkpt>
      <trkpt lat="44.9834940" lon="6.7927310">
        <ele>1425.4</ele>
        <time>2017-07-28T10:05:26Z</time>
      </trkpt>
      <trkpt lat="44.9835030" lon="6.7928160">
        <ele>1426.6</ele>
        <time>2017-07-28T10:05:29Z</time>
      </trkpt>
      <trkpt lat="44.9835090" lon="6.7929680">
        <ele>1427.6</ele>
        <time>2017-07-28T10:05:34Z</time>
      </trkpt>
      <trkpt lat="44.9835010" lon="6.7931120">
        <ele>1428.8</ele>
        <time>2017-07-28T10:05:39Z</time>
      </trkpt>
      <trkpt lat="44.9834970" lon="6.7931920">
        <ele>1430.2</ele>
        <time>2017-07-28T10:05:42Z</time>
      </trkpt>
      <trkpt lat="44.9834920" lon="6.7933770">
        <ele>1431.4</ele>
        <time>2017-07-28T10:05:48Z</time>
      </trkpt>
      <trkpt lat="44.9834780" lon="6.7934360">
        <ele>1431.6</ele>
        <time>2017-07-28T10:05:50Z</time>
      </trkpt>
      <trkpt lat="44.9834410" lon="6.7936680">
        <ele>1432.2</ele>
        <time>2017-07-28T10:05:58Z</time>
      </trkpt>
      <trkpt lat="44.9834260" lon="6.7937230">
        <ele>1432.4</ele>
        <time>2017-07-28T10:06:00Z</time>
      </trkpt>
      <trkpt lat="44.9834030" lon="6.7938990">
        <ele>1433.6</ele>
        <time>2017-07-28T10:06:06Z</time>
      </trkpt>
      <trkpt lat="44.9834040" lon="6.7940020">
        <ele>1434.8</ele>
        <time>2017-07-28T10:06:10Z</time>
      </trkpt>
      <trkpt lat="44.9834160" lon="6.7940750">
        <ele>1435.4</ele>
        <time>2017-07-28T10:06:13Z</time>
      </trkpt>
      <trkpt lat="44.9834480" lon="6.7941530">
        <ele>1435.8</ele>
        <time>2017-07-28T10:06:16Z</time>
      </trkpt>
      <trkpt lat="44.9834840" lon="6.7942250">
        <ele>1437.0</ele>
        <time>2017-07-28T10:06:19Z</time>
      </trkpt>
      <trkpt lat="44.9835210" lon="6.7942890">
        <ele>1437.4</ele>
        <time>2017-07-28T10:06:22Z</time>
      </trkpt>
      <trkpt lat="44.9835600" lon="6.7943560">
        <ele>1438.0</ele>
        <time>2017-07-28T10:06:25Z</time>
      </trkpt>
      <trkpt lat="44.9836110" lon="6.7944390">
        <ele>1439.0</ele>
        <time>2017-07-28T10:06:29Z</time>
      </trkpt>
      <trkpt lat="44.9836370" lon="6.7944720">
        <ele>1439.2</ele>
        <time>2017-07-28T10:06:31Z</time>
      </trkpt>
      <trkpt lat="44.9836800" lon="6.7945110">
        <ele>1439.8</ele>
        <time>2017-07-28T10:06:34Z</time>
      </trkpt>
      <trkpt lat="44.9837410" lon="6.7945120">
        <ele>1440.0</ele>
        <time>2017-07-28T10:06:37Z</time>
      </trkpt>
      <trkpt lat="44.9837570" lon="6.7945020">
        <ele>1440.2</ele>
        <time>2017-07-28T10:06:38Z</time>
      </trkpt>
      <trkpt lat="44.9837990" lon="6.7944370">
        <ele>1441.2</ele>
        <time>2017-07-28T10:06:41Z</time>
      </trkpt>
      <trkpt lat="44.9837990" lon="6.7944080">
        <ele>1441.4</ele>
        <time>2017-07-28T10:06:42Z</time>
      </trkpt>
      <trkpt lat="44.9838000" lon="6.7943260">
        <ele>1441.8</ele>
        <time>2017-07-28T10:06:45Z</time>
      </trkpt>
      <trkpt lat="44.9837950" lon="6.7942700">
        <ele>1442.2</ele>
        <time>2017-07-28T10:06:47Z</time>
      </trkpt>
      <trkpt lat="44.9837980" lon="6.7942160">
        <ele>1442.6</ele>
        <time>2017-07-28T10:06:49Z</time>
      </trkpt>
      <trkpt lat="44.9838070" lon="6.7941070">
        <ele>1443.4</ele>
        <time>2017-07-28T10:06:53Z</time>
      </trkpt>
      <trkpt lat="44.9838150" lon="6.7940540">
        <ele>1444.4</ele>
        <time>2017-07-28T10:06:55Z</time>
      </trkpt>
      <trkpt lat="44.9838200" lon="6.7940290">
        <ele>1444.8</ele>
        <time>2017-07-28T10:06:56Z</time>
      </trkpt>
      <trkpt lat="44.9838260" lon="6.7939820">
        <ele>1445.6</ele>
        <time>2017-07-28T10:06:58Z</time>
      </trkpt>
      <trkpt lat="44.9838660" lon="6.7938650">
        <ele>1446.6</ele>
        <time>2017-07-28T10:07:03Z</time>
      </trkpt>
      <trkpt lat="44.9838840" lon="6.7938170">
        <ele>1447.6</ele>
        <time>2017-07-28T10:07:05Z</time>
      </trkpt>
      <trkpt lat="44.9838950" lon="6.7937950">
        <ele>1447.8</ele>
        <time>2017-07-28T10:07:06Z</time>
      </trkpt>
      <trkpt lat="44.9839210" lon="6.7937330">
        <ele>1449.0</ele>
        <time>2017-07-28T10:07:09Z</time>
      </trkpt>
      <trkpt lat="44.9839550" lon="6.7936820">
        <ele>1450.0</ele>
        <time>2017-07-28T10:07:12Z</time>
      </trkpt>
      <trkpt lat="44.9839810" lon="6.7936450">
        <ele>1450.8</ele>
        <time>2017-07-28T10:07:14Z</time>
      </trkpt>
      <trkpt lat="44.9839910" lon="6.7936250">
        <ele>1451.2</ele>
        <time>2017-07-28T10:07:15Z</time>
      </trkpt>
      <trkpt lat="44.9840210" lon="6.7935610">
        <ele>1452.8</ele>
        <time>2017-07-28T10:07:18Z</time>
      </trkpt>
      <trkpt lat="44.9840650" lon="6.7935070">
        <ele>1454.0</ele>
        <time>2017-07-28T10:07:21Z</time>
      </trkpt>
      <trkpt lat="44.9840790" lon="6.7934870">
        <ele>1454.4</ele>
        <time>2017-07-28T10:07:22Z</time>
      </trkpt>
      <trkpt lat="44.9841120" lon="6.7934440">
        <ele>1455.2</ele>
        <time>2017-07-28T10:07:24Z</time>
      </trkpt>
      <trkpt lat="44.9841660" lon="6.7933970">
        <ele>1456.4</ele>
        <time>2017-07-28T10:07:27Z</time>
      </trkpt>
      <trkpt lat="44.9841860" lon="6.7933940">
        <ele>1456.6</ele>
        <time>2017-07-28T10:07:28Z</time>
      </trkpt>
      <trkpt lat="44.9842580" lon="6.7933180">
        <ele>1457.8</ele>
        <time>2017-07-28T10:07:33Z</time>
      </trkpt>
      <trkpt lat="44.9842880" lon="6.7932880">
        <ele>1453.2</ele>
        <time>2017-07-28T10:07:35Z</time>
      </trkpt>
      <trkpt lat="44.9843270" lon="6.7932240">
        <ele>1459.2</ele>
        <time>2017-07-28T10:07:38Z</time>
      </trkpt>
      <trkpt lat="44.9843800" lon="6.7931620">
        <ele>1460.4</ele>
        <time>2017-07-28T10:07:42Z</time>
      </trkpt>
      <trkpt lat="44.9844200" lon="6.7930910">
        <ele>1461.4</ele>
        <time>2017-07-28T10:07:46Z</time>
      </trkpt>
      <trkpt lat="44.9844370" lon="6.7930250">
        <ele>1461.4</ele>
        <time>2017-07-28T10:07:49Z</time>
      </trkpt>
      <trkpt lat="44.9845030" lon="6.7929250">
        <ele>1462.6</ele>
        <time>2017-07-28T10:07:55Z</time>
      </trkpt>
      <trkpt lat="44.9845130" lon="6.7929100">
        <ele>1462.8</ele>
        <time>2017-07-28T10:07:56Z</time>
      </trkpt>
      <trkpt lat="44.9845600" lon="6.7928680">
        <ele>1463.6</ele>
        <time>2017-07-28T10:07:59Z</time>
      </trkpt>
      <trkpt lat="44.9845920" lon="6.7928120">
        <ele>1463.8</ele>
        <time>2017-07-28T10:08:02Z</time>
      </trkpt>
      <trkpt lat="44.9846330" lon="6.7927380">
        <ele>1464.8</ele>
        <time>2017-07-28T10:08:06Z</time>
      </trkpt>
      <trkpt lat="44.9846660" lon="6.7926620">
        <ele>1465.6</ele>
        <time>2017-07-28T10:08:10Z</time>
      </trkpt>
      <trkpt lat="44.9846880" lon="6.7925830">
        <ele>1466.2</ele>
        <time>2017-07-28T10:08:14Z</time>
      </trkpt>
      <trkpt lat="44.9847230" lon="6.7925120">
        <ele>1467.4</ele>
        <time>2017-07-28T10:08:18Z</time>
      </trkpt>
      <trkpt lat="44.9847740" lon="6.7924360">
        <ele>1468.6</ele>
        <time>2017-07-28T10:08:23Z</time>
      </trkpt>
      <trkpt lat="44.9848150" lon="6.7923720">
        <ele>1469.8</ele>
        <time>2017-07-28T10:08:27Z</time>
      </trkpt>
      <trkpt lat="44.9848280" lon="6.7923510">
        <ele>1470.0</ele>
        <time>2017-07-28T10:08:28Z</time>
      </trkpt>
      <trkpt lat="44.9848450" lon="6.7923250">
        <ele>1470.8</ele>
        <time>2017-07-28T10:08:30Z</time>
      </trkpt>
      <trkpt lat="44.9848830" lon="6.7922560">
        <ele>1472.0</ele>
        <time>2017-07-28T10:08:34Z</time>
      </trkpt>
      <trkpt lat="44.9849250" lon="6.7921850">
        <ele>1473.2</ele>
        <time>2017-07-28T10:08:38Z</time>
      </trkpt>
      <trkpt lat="44.9849590" lon="6.7921070">
        <ele>1474.2</ele>
        <time>2017-07-28T10:08:42Z</time>
      </trkpt>
      <trkpt lat="44.9849900" lon="6.7920470">
        <ele>1475.6</ele>
        <time>2017-07-28T10:08:46Z</time>
      </trkpt>
      <trkpt lat="44.9849980" lon="6.7920360">
        <ele>1475.8</ele>
        <time>2017-07-28T10:08:47Z</time>
      </trkpt>
      <trkpt lat="44.9850070" lon="6.7920220">
        <ele>1476.2</ele>
        <time>2017-07-28T10:08:48Z</time>
      </trkpt>
      <trkpt lat="44.9850140" lon="6.7920010">
        <ele>1476.6</ele>
        <time>2017-07-28T10:08:49Z</time>
      </trkpt>
      <trkpt lat="44.9850710" lon="6.7919080">
        <ele>1478.0</ele>
        <time>2017-07-28T10:08:54Z</time>
      </trkpt>
      <trkpt lat="44.9850790" lon="6.7918940">
        <ele>1478.2</ele>
        <time>2017-07-28T10:08:55Z</time>
      </trkpt>
      <trkpt lat="44.9851100" lon="6.7918480">
        <ele>1479.0</ele>
        <time>2017-07-28T10:08:58Z</time>
      </trkpt>
      <trkpt lat="44.9851470" lon="6.7917980">
        <ele>1480.0</ele>
        <time>2017-07-28T10:09:02Z</time>
      </trkpt>
      <trkpt lat="44.9851550" lon="6.7917840">
        <ele>1480.4</ele>
        <time>2017-07-28T10:09:03Z</time>
      </trkpt>
      <trkpt lat="44.9851980" lon="6.7917380">
        <ele>1481.4</ele>
        <time>2017-07-28T10:09:07Z</time>
      </trkpt>
      <trkpt lat="44.9852200" lon="6.7917130">
        <ele>1482.0</ele>
        <time>2017-07-28T10:09:09Z</time>
      </trkpt>
      <trkpt lat="44.9852320" lon="6.7917010">
        <ele>1482.2</ele>
        <time>2017-07-28T10:09:10Z</time>
      </trkpt>
      <trkpt lat="44.9852360" lon="6.7916870">
        <ele>1482.6</ele>
        <time>2017-07-28T10:09:11Z</time>
      </trkpt>
      <trkpt lat="44.9852340" lon="6.7916670">
        <ele>1482.8</ele>
        <time>2017-07-28T10:09:12Z</time>
      </trkpt>
      <trkpt lat="44.9852360" lon="6.7916210">
        <ele>1483.2</ele>
        <time>2017-07-28T10:09:14Z</time>
      </trkpt>
      <trkpt lat="44.9852430" lon="6.7915850">
        <ele>1483.8</ele>
        <time>2017-07-28T10:09:16Z</time>
      </trkpt>
      <trkpt lat="44.9852260" lon="6.7914940">
        <ele>1484.0</ele>
        <time>2017-07-28T10:09:21Z</time>
      </trkpt>
      <trkpt lat="44.9851870" lon="6.7913490">
        <ele>1483.8</ele>
        <time>2017-07-28T10:09:29Z</time>
      </trkpt>
      <trkpt lat="44.9851580" lon="6.7912140">
        <ele>1484.4</ele>
        <time>2017-07-28T10:09:36Z</time>
      </trkpt>
      <trkpt lat="44.9851250" lon="6.7910600">
        <ele>1484.4</ele>
        <time>2017-07-28T10:09:44Z</time>
      </trkpt>
      <trkpt lat="44.9851170" lon="6.7910240">
        <ele>1485.0</ele>
        <time>2017-07-28T10:09:46Z</time>
      </trkpt>
      <trkpt lat="44.9850880" lon="6.7908610">
        <ele>1486.0</ele>
        <time>2017-07-28T10:09:54Z</time>
      </trkpt>
      <trkpt lat="44.9850830" lon="6.7908430">
        <ele>1486.2</ele>
        <time>2017-07-28T10:09:55Z</time>
      </trkpt>
      <trkpt lat="44.9850630" lon="6.7907060">
        <ele>1486.4</ele>
        <time>2017-07-28T10:10:02Z</time>
      </trkpt>
      <trkpt lat="44.9850590" lon="6.7906690">
        <ele>1486.6</ele>
        <time>2017-07-28T10:10:04Z</time>
      </trkpt>
      <trkpt lat="44.9850420" lon="6.7905920">
        <ele>1487.2</ele>
        <time>2017-07-28T10:10:08Z</time>
      </trkpt>
      <trkpt lat="44.9850170" lon="6.7904910">
        <ele>1488.4</ele>
        <time>2017-07-28T10:10:14Z</time>
      </trkpt>
      <trkpt lat="44.9850100" lon="6.7904720">
        <ele>1489.0</ele>
        <time>2017-07-28T10:10:15Z</time>
      </trkpt>
      <trkpt lat="44.9850010" lon="6.7904380">
        <ele>1489.8</ele>
        <time>2017-07-28T10:10:17Z</time>
      </trkpt>
      <trkpt lat="44.9849840" lon="6.7903870">
        <ele>1491.0</ele>
        <time>2017-07-28T10:10:20Z</time>
      </trkpt>
      <trkpt lat="44.9849800" lon="6.7903540">
        <ele>1491.8</ele>
        <time>2017-07-28T10:10:22Z</time>
      </trkpt>
      <trkpt lat="44.9849800" lon="6.7903150">
        <ele>1492.2</ele>
        <time>2017-07-28T10:10:24Z</time>
      </trkpt>
      <trkpt lat="44.9849590" lon="6.7902370">
        <ele>1492.8</ele>
        <time>2017-07-28T10:10:28Z</time>
      </trkpt>
      <trkpt lat="44.9849430" lon="6.7902050">
        <ele>1493.4</ele>
        <time>2017-07-28T10:10:30Z</time>
      </trkpt>
      <trkpt lat="44.9849240" lon="6.7901130">
        <ele>1494.8</ele>
        <time>2017-07-28T10:10:35Z</time>
      </trkpt>
      <trkpt lat="44.9849110" lon="6.7900710">
        <ele>1496.0</ele>
        <time>2017-07-28T10:10:38Z</time>
      </trkpt>
      <trkpt lat="44.9848950" lon="6.7900310">
        <ele>1497.2</ele>
        <time>2017-07-28T10:10:41Z</time>
      </trkpt>
      <trkpt lat="44.9848890" lon="6.7899980">
        <ele>1498.0</ele>
        <time>2017-07-28T10:10:43Z</time>
      </trkpt>
      <trkpt lat="44.9848900" lon="6.7899800">
        <ele>1498.4</ele>
        <time>2017-07-28T10:10:44Z</time>
      </trkpt>
      <trkpt lat="44.9848830" lon="6.7899300">
        <ele>1499.6</ele>
        <time>2017-07-28T10:10:47Z</time>
      </trkpt>
      <trkpt lat="44.9848750" lon="6.7898770">
        <ele>1500.8</ele>
        <time>2017-07-28T10:10:50Z</time>
      </trkpt>
      <trkpt lat="44.9848610" lon="6.7898240">
        <ele>1502.0</ele>
        <time>2017-07-28T10:10:53Z</time>
      </trkpt>
      <trkpt lat="44.9848540" lon="6.7897910">
        <ele>1503.2</ele>
        <time>2017-07-28T10:10:55Z</time>
      </trkpt>
      <trkpt lat="44.9848340" lon="6.7897340">
        <ele>1504.4</ele>
        <time>2017-07-28T10:10:58Z</time>
      </trkpt>
      <trkpt lat="44.9848310" lon="6.7897040">
        <ele>1505.0</ele>
        <time>2017-07-28T10:10:59Z</time>
      </trkpt>
      <trkpt lat="44.9848170" lon="6.7896570">
        <ele>1505.8</ele>
        <time>2017-07-28T10:11:01Z</time>
      </trkpt>
      <trkpt lat="44.9848100" lon="6.7896070">
        <ele>1506.6</ele>
        <time>2017-07-28T10:11:03Z</time>
      </trkpt>
      <trkpt lat="44.9848140" lon="6.7895740">
        <ele>1507.0</ele>
        <time>2017-07-28T10:11:04Z</time>
      </trkpt>
      <trkpt lat="44.9848210" lon="6.7895430">
        <ele>1507.2</ele>
        <time>2017-07-28T10:11:05Z</time>
      </trkpt>
      <trkpt lat="44.9848300" lon="6.7894750">
        <ele>1508.2</ele>
        <time>2017-07-28T10:11:07Z</time>
      </trkpt>
      <trkpt lat="44.9848400" lon="6.7893710">
        <ele>1509.4</ele>
        <time>2017-07-28T10:11:10Z</time>
      </trkpt>
      <trkpt lat="44.9848670" lon="6.7891900">
        <ele>1510.8</ele>
        <time>2017-07-28T10:11:16Z</time>
      </trkpt>
      <trkpt lat="44.9848860" lon="6.7891430">
        <ele>1512.2</ele>
        <time>2017-07-28T10:11:18Z</time>
      </trkpt>
      <trkpt lat="44.9849400" lon="6.7890600">
        <ele>1513.2</ele>
        <time>2017-07-28T10:11:22Z</time>
      </trkpt>
      <trkpt lat="44.9849530" lon="6.7890360">
        <ele>1513.6</ele>
        <time>2017-07-28T10:11:23Z</time>
      </trkpt>
      <trkpt lat="44.9849790" lon="6.7889880">
        <ele>1514.4</ele>
        <time>2017-07-28T10:11:25Z</time>
      </trkpt>
      <trkpt lat="44.9850470" lon="6.7889270">
        <ele>1515.6</ele>
        <time>2017-07-28T10:11:29Z</time>
      </trkpt>
      <trkpt lat="44.9850630" lon="6.7889130">
        <ele>1515.8</ele>
        <time>2017-07-28T10:11:30Z</time>
      </trkpt>
      <trkpt lat="44.9851140" lon="6.7888360">
        <ele>1516.8</ele>
        <time>2017-07-28T10:11:34Z</time>
      </trkpt>
      <trkpt lat="44.9851420" lon="6.7888010">
        <ele>1517.4</ele>
        <time>2017-07-28T10:11:36Z</time>
      </trkpt>
      <trkpt lat="44.9851800" lon="6.7887530">
        <ele>1518.2</ele>
        <time>2017-07-28T10:11:39Z</time>
      </trkpt>
      <trkpt lat="44.9852240" lon="6.7887110">
        <ele>1519.4</ele>
        <time>2017-07-28T10:11:42Z</time>
      </trkpt>
      <trkpt lat="44.9852350" lon="6.7886930">
        <ele>1519.6</ele>
        <time>2017-07-28T10:11:43Z</time>
      </trkpt>
      <trkpt lat="44.9852460" lon="6.7886470">
        <ele>1520.6</ele>
        <time>2017-07-28T10:11:45Z</time>
      </trkpt>
      <trkpt lat="44.9852880" lon="6.7885780">
        <ele>1521.8</ele>
        <time>2017-07-28T10:11:49Z</time>
      </trkpt>
      <trkpt lat="44.9853430" lon="6.7885130">
        <ele>1523.2</ele>
        <time>2017-07-28T10:11:53Z</time>
      </trkpt>
      <trkpt lat="44.9853900" lon="6.7884660">
        <ele>1524.2</ele>
        <time>2017-07-28T10:11:56Z</time>
      </trkpt>
      <trkpt lat="44.9854030" lon="6.7884480">
        <ele>1524.4</ele>
        <time>2017-07-28T10:11:57Z</time>
      </trkpt>
      <trkpt lat="44.9854640" lon="6.7883910">
        <ele>1525.6</ele>
        <time>2017-07-28T10:12:01Z</time>
      </trkpt>
      <trkpt lat="44.9855070" lon="6.7883440">
        <ele>1526.2</ele>
        <time>2017-07-28T10:12:04Z</time>
      </trkpt>
      <trkpt lat="44.9855350" lon="6.7883120">
        <ele>1527.0</ele>
        <time>2017-07-28T10:12:06Z</time>
      </trkpt>
      <trkpt lat="44.9856170" lon="6.7882110">
        <ele>1528.2</ele>
        <time>2017-07-28T10:12:12Z</time>
      </trkpt>
      <trkpt lat="44.9856350" lon="6.7881960">
        <ele>1528.4</ele>
        <time>2017-07-28T10:12:13Z</time>
      </trkpt>
      <trkpt lat="44.9857250" lon="6.7881020">
        <ele>1529.2</ele>
        <time>2017-07-28T10:12:19Z</time>
      </trkpt>
      <trkpt lat="44.9857710" lon="6.7880510">
        <ele>1530.0</ele>
        <time>2017-07-28T10:12:22Z</time>
      </trkpt>
      <trkpt lat="44.9857950" lon="6.7880160">
        <ele>1530.2</ele>
        <time>2017-07-28T10:12:24Z</time>
      </trkpt>
      <trkpt lat="44.9858580" lon="6.7879110">
        <ele>1531.0</ele>
        <time>2017-07-28T10:12:29Z</time>
      </trkpt>
      <trkpt lat="44.9858610" lon="6.7878820">
        <ele>1531.4</ele>
        <time>2017-07-28T10:12:30Z</time>
      </trkpt>
      <trkpt lat="44.9858700" lon="6.7877330">
        <ele>1530.8</ele>
        <time>2017-07-28T10:12:35Z</time>
      </trkpt>
      <trkpt lat="44.9858690" lon="6.7875490">
        <ele>1530.8</ele>
        <time>2017-07-28T10:12:42Z</time>
      </trkpt>
      <trkpt lat="44.9859140" lon="6.7873730">
        <ele>1530.8</ele>
        <time>2017-07-28T10:12:49Z</time>
      </trkpt>
      <trkpt lat="44.9859580" lon="6.7872370">
        <ele>1532.4</ele>
        <time>2017-07-28T10:12:55Z</time>
      </trkpt>
      <trkpt lat="44.9859580" lon="6.7872120">
        <ele>1532.4</ele>
        <time>2017-07-28T10:12:56Z</time>
      </trkpt>
      <trkpt lat="44.9859650" lon="6.7870960">
        <ele>1533.4</ele>
        <time>2017-07-28T10:13:01Z</time>
      </trkpt>
      <trkpt lat="44.9859630" lon="6.7870460">
        <ele>1534.0</ele>
        <time>2017-07-28T10:13:03Z</time>
      </trkpt>
      <trkpt lat="44.9859620" lon="6.7870230">
        <ele>1534.4</ele>
        <time>2017-07-28T10:13:04Z</time>
      </trkpt>
      <trkpt lat="44.9859210" lon="6.7869040">
        <ele>1535.6</ele>
        <time>2017-07-28T10:13:09Z</time>
      </trkpt>
      <trkpt lat="44.9859110" lon="6.7868590">
        <ele>1536.0</ele>
        <time>2017-07-28T10:13:11Z</time>
      </trkpt>
      <trkpt lat="44.9858360" lon="6.7867020">
        <ele>1536.4</ele>
        <time>2017-07-28T10:13:18Z</time>
      </trkpt>
      <trkpt lat="44.9857460" lon="6.7865720">
        <ele>1536.2</ele>
        <time>2017-07-28T10:13:25Z</time>
      </trkpt>
      <trkpt lat="44.9857100" lon="6.7865250">
        <ele>1536.6</ele>
        <time>2017-07-28T10:13:28Z</time>
      </trkpt>
      <trkpt lat="44.9856490" lon="6.7864810">
        <ele>1536.6</ele>
        <time>2017-07-28T10:13:32Z</time>
      </trkpt>
      <trkpt lat="44.9856160" lon="6.7864470">
        <ele>1537.6</ele>
        <time>2017-07-28T10:13:35Z</time>
      </trkpt>
      <trkpt lat="44.9855730" lon="6.7863840">
        <ele>1538.2</ele>
        <time>2017-07-28T10:13:39Z</time>
      </trkpt>
      <trkpt lat="44.9855480" lon="6.7863110">
        <ele>1538.8</ele>
        <time>2017-07-28T10:13:42Z</time>
      </trkpt>
      <trkpt lat="44.9855350" lon="6.7862070">
        <ele>1539.2</ele>
        <time>2017-07-28T10:13:46Z</time>
      </trkpt>
      <trkpt lat="44.9855390" lon="6.7861130">
        <ele>1539.8</ele>
        <time>2017-07-28T10:13:50Z</time>
      </trkpt>
      <trkpt lat="44.9855440" lon="6.7860400">
        <ele>1540.2</ele>
        <time>2017-07-28T10:13:53Z</time>
      </trkpt>
      <trkpt lat="44.9855440" lon="6.7859150">
        <ele>1540.8</ele>
        <time>2017-07-28T10:13:58Z</time>
      </trkpt>
      <trkpt lat="44.9855590" lon="6.7858540">
        <ele>1541.4</ele>
        <time>2017-07-28T10:14:01Z</time>
      </trkpt>
      <trkpt lat="44.9855630" lon="6.7858350">
        <ele>1542.0</ele>
        <time>2017-07-28T10:14:02Z</time>
      </trkpt>
      <trkpt lat="44.9855720" lon="6.7857640">
        <ele>1543.2</ele>
        <time>2017-07-28T10:14:05Z</time>
      </trkpt>
      <trkpt lat="44.9855820" lon="6.7856990">
        <ele>1544.2</ele>
        <time>2017-07-28T10:14:08Z</time>
      </trkpt>
      <trkpt lat="44.9855850" lon="6.7856790">
        <ele>1544.8</ele>
        <time>2017-07-28T10:14:09Z</time>
      </trkpt>
      <trkpt lat="44.9855920" lon="6.7856610">
        <ele>1545.4</ele>
        <time>2017-07-28T10:14:10Z</time>
      </trkpt>
      <trkpt lat="44.9856180" lon="6.7855920">
        <ele>1546.8</ele>
        <time>2017-07-28T10:14:13Z</time>
      </trkpt>
      <trkpt lat="44.9856350" lon="6.7855040">
        <ele>1547.6</ele>
        <time>2017-07-28T10:14:16Z</time>
      </trkpt>
      <trkpt lat="44.9856390" lon="6.7854710">
        <ele>1548.0</ele>
        <time>2017-07-28T10:14:17Z</time>
      </trkpt>
      <trkpt lat="44.9856470" lon="6.7853500">
        <ele>1549.4</ele>
        <time>2017-07-28T10:14:20Z</time>
      </trkpt>
      <trkpt lat="44.9856550" lon="6.7852590">
        <ele>1550.0</ele>
        <time>2017-07-28T10:14:22Z</time>
      </trkpt>
      <trkpt lat="44.9856540" lon="6.7851680">
        <ele>1550.8</ele>
        <time>2017-07-28T10:14:24Z</time>
      </trkpt>
      <trkpt lat="44.9856550" lon="6.7850340">
        <ele>1552.0</ele>
        <time>2017-07-28T10:14:27Z</time>
      </trkpt>
      <trkpt lat="44.9856500" lon="6.7849530">
        <ele>1553.2</ele>
        <time>2017-07-28T10:14:29Z</time>
      </trkpt>
      <trkpt lat="44.9856450" lon="6.7849110">
        <ele>1553.8</ele>
        <time>2017-07-28T10:14:30Z</time>
      </trkpt>
      <trkpt lat="44.9856270" lon="6.7848230">
        <ele>1554.4</ele>
        <time>2017-07-28T10:14:32Z</time>
      </trkpt>
      <trkpt lat="44.9855880" lon="6.7847070">
        <ele>1555.8</ele>
        <time>2017-07-28T10:14:35Z</time>
      </trkpt>
      <trkpt lat="44.9855790" lon="6.7846700">
        <ele>1556.0</ele>
        <time>2017-07-28T10:14:36Z</time>
      </trkpt>
      <trkpt lat="44.9854960" lon="6.7845640">
        <ele>1556.8</ele>
        <time>2017-07-28T10:14:41Z</time>
      </trkpt>
      <trkpt lat="44.9854460" lon="6.7843920">
        <ele>1557.6</ele>
        <time>2017-07-28T10:14:47Z</time>
      </trkpt>
      <trkpt lat="44.9854220" lon="6.7842460">
        <ele>1558.0</ele>
        <time>2017-07-28T10:14:52Z</time>
      </trkpt>
      <trkpt lat="44.9854170" lon="6.7842150">
        <ele>1558.2</ele>
        <time>2017-07-28T10:14:53Z</time>
      </trkpt>
      <trkpt lat="44.9854040" lon="6.7841480">
        <ele>1559.2</ele>
        <time>2017-07-28T10:14:55Z</time>
      </trkpt>
      <trkpt lat="44.9853190" lon="6.7839460">
        <ele>1559.6</ele>
        <time>2017-07-28T10:15:01Z</time>
      </trkpt>
      <trkpt lat="44.9852680" lon="6.7837770">
        <ele>1560.0</ele>
        <time>2017-07-28T10:15:05Z</time>
      </trkpt>
      <trkpt lat="44.9852270" lon="6.7836390">
        <ele>1560.2</ele>
        <time>2017-07-28T10:15:08Z</time>
      </trkpt>
      <trkpt lat="44.9852110" lon="6.7835990">
        <ele>1560.4</ele>
        <time>2017-07-28T10:15:09Z</time>
      </trkpt>
      <trkpt lat="44.9851350" lon="6.7834510">
        <ele>1561.6</ele>
        <time>2017-07-28T10:15:13Z</time>
      </trkpt>
      <trkpt lat="44.9850640" lon="6.7833580">
        <ele>1562.6</ele>
        <time>2017-07-28T10:15:16Z</time>
      </trkpt>
      <trkpt lat="44.9850230" lon="6.7832940">
        <ele>1563.8</ele>
        <time>2017-07-28T10:15:18Z</time>
      </trkpt>
      <trkpt lat="44.9849760" lon="6.7832140">
        <ele>1565.2</ele>
        <time>2017-07-28T10:15:21Z</time>
      </trkpt>
      <trkpt lat="44.9849700" lon="6.7831950">
        <ele>1565.6</ele>
        <time>2017-07-28T10:15:22Z</time>
      </trkpt>
      <trkpt lat="44.9849450" lon="6.7831450">
        <ele>1566.4</ele>
        <time>2017-07-28T10:15:24Z</time>
      </trkpt>
      <trkpt lat="44.9849190" lon="6.7830690">
        <ele>1567.4</ele>
        <time>2017-07-28T10:15:27Z</time>
      </trkpt>
      <trkpt lat="44.9848990" lon="6.7829840">
        <ele>1568.6</ele>
        <time>2017-07-28T10:15:30Z</time>
      </trkpt>
      <trkpt lat="44.9848690" lon="6.7828870">
        <ele>1569.6</ele>
        <time>2017-07-28T10:15:34Z</time>
      </trkpt>
      <trkpt lat="44.9848620" lon="6.7828260">
        <ele>1570.4</ele>
        <time>2017-07-28T10:15:36Z</time>
      </trkpt>
      <trkpt lat="44.9848550" lon="6.7827980">
        <ele>1570.6</ele>
        <time>2017-07-28T10:15:37Z</time>
      </trkpt>
      <trkpt lat="44.9848170" lon="6.7826660">
        <ele>1571.8</ele>
        <time>2017-07-28T10:15:41Z</time>
      </trkpt>
      <trkpt lat="44.9848070" lon="6.7826000">
        <ele>1572.6</ele>
        <time>2017-07-28T10:15:43Z</time>
      </trkpt>
      <trkpt lat="44.9848070" lon="6.7825060">
        <ele>1573.0</ele>
        <time>2017-07-28T10:15:46Z</time>
      </trkpt>
      <trkpt lat="44.9848050" lon="6.7823650">
        <ele>1573.8</ele>
        <time>2017-07-28T10:15:50Z</time>
      </trkpt>
      <trkpt lat="44.9848060" lon="6.7823320">
        <ele>1574.2</ele>
        <time>2017-07-28T10:15:51Z</time>
      </trkpt>
      <trkpt lat="44.9848040" lon="6.7822200">
        <ele>1574.0</ele>
        <time>2017-07-28T10:15:55Z</time>
      </trkpt>
      <trkpt lat="44.9848640" lon="6.7820390">
        <ele>1575.0</ele>
        <time>2017-07-28T10:16:03Z</time>
      </trkpt>
      <trkpt lat="44.9849050" lon="6.7820300">
        <ele>1575.4</ele>
        <time>2017-07-28T10:16:05Z</time>
      </trkpt>
      <trkpt lat="44.9849380" lon="6.7820480">
        <ele>1575.6</ele>
        <time>2017-07-28T10:16:07Z</time>
      </trkpt>
      <trkpt lat="44.9849690" lon="6.7821680">
        <ele>1576.0</ele>
        <time>2017-07-28T10:16:12Z</time>
      </trkpt>
      <trkpt lat="44.9849510" lon="6.7823300">
        <ele>1576.4</ele>
        <time>2017-07-28T10:16:17Z</time>
      </trkpt>
      <trkpt lat="44.9849640" lon="6.7824010">
        <ele>1576.4</ele>
        <time>2017-07-28T10:16:19Z</time>
      </trkpt>
      <trkpt lat="44.9849960" lon="6.7825080">
        <ele>1577.0</ele>
        <time>2017-07-28T10:16:22Z</time>
      </trkpt>
      <trkpt lat="44.9850350" lon="6.7825930">
        <ele>1577.6</ele>
        <time>2017-07-28T10:16:25Z</time>
      </trkpt>
      <trkpt lat="44.9850940" lon="6.7827200">
        <ele>1578.6</ele>
        <time>2017-07-28T10:16:30Z</time>
      </trkpt>
      <trkpt lat="44.9851590" lon="6.7828300">
        <ele>1579.6</ele>
        <time>2017-07-28T10:16:35Z</time>
      </trkpt>
      <trkpt lat="44.9851880" lon="6.7828720">
        <ele>1580.4</ele>
        <time>2017-07-28T10:16:37Z</time>
      </trkpt>
      <trkpt lat="44.9852220" lon="6.7829130">
        <ele>1581.0</ele>
        <time>2017-07-28T10:16:39Z</time>
      </trkpt>
      <trkpt lat="44.9852650" lon="6.7829750">
        <ele>1582.2</ele>
        <time>2017-07-28T10:16:42Z</time>
      </trkpt>
      <trkpt lat="44.9852960" lon="6.7830140">
        <ele>1583.0</ele>
        <time>2017-07-28T10:16:44Z</time>
      </trkpt>
      <trkpt lat="44.9853100" lon="6.7830300">
        <ele>1583.4</ele>
        <time>2017-07-28T10:16:45Z</time>
      </trkpt>
      <trkpt lat="44.9853780" lon="6.7831020">
        <ele>1584.8</ele>
        <time>2017-07-28T10:16:49Z</time>
      </trkpt>
      <trkpt lat="44.9854300" lon="6.7831430">
        <ele>1585.8</ele>
        <time>2017-07-28T10:16:52Z</time>
      </trkpt>
      <trkpt lat="44.9854450" lon="6.7831560">
        <ele>1586.0</ele>
        <time>2017-07-28T10:16:53Z</time>
      </trkpt>
      <trkpt lat="44.9855100" lon="6.7832000">
        <ele>1587.4</ele>
        <time>2017-07-28T10:16:58Z</time>
      </trkpt>
      <trkpt lat="44.9855300" lon="6.7832030">
        <ele>1588.0</ele>
        <time>2017-07-28T10:16:59Z</time>
      </trkpt>
      <trkpt lat="44.9855650" lon="6.7832110">
        <ele>1588.4</ele>
        <time>2017-07-28T10:17:01Z</time>
      </trkpt>
      <trkpt lat="44.9856360" lon="6.7832480">
        <ele>1589.6</ele>
        <time>2017-07-28T10:17:05Z</time>
      </trkpt>
      <trkpt lat="44.9856850" lon="6.7832730">
        <ele>1590.4</ele>
        <time>2017-07-28T10:17:08Z</time>
      </trkpt>
      <trkpt lat="44.9857010" lon="6.7832780">
        <ele>1590.8</ele>
        <time>2017-07-28T10:17:09Z</time>
      </trkpt>
      <trkpt lat="44.9858300" lon="6.7833210">
        <ele>1591.0</ele>
        <time>2017-07-28T10:17:17Z</time>
      </trkpt>
      <trkpt lat="44.9859430" lon="6.7832870">
        <ele>1591.6</ele>
        <time>2017-07-28T10:17:24Z</time>
      </trkpt>
      <trkpt lat="44.9859610" lon="6.7832820">
        <ele>1591.8</ele>
        <time>2017-07-28T10:17:25Z</time>
      </trkpt>
      <trkpt lat="44.9860140" lon="6.7832560">
        <ele>1593.0</ele>
        <time>2017-07-28T10:17:29Z</time>
      </trkpt>
      <trkpt lat="44.9860580" lon="6.7832380">
        <ele>1593.8</ele>
        <time>2017-07-28T10:17:32Z</time>
      </trkpt>
      <trkpt lat="44.9860720" lon="6.7832330">
        <ele>1594.2</ele>
        <time>2017-07-28T10:17:33Z</time>
      </trkpt>
      <trkpt lat="44.9861290" lon="6.7832020">
        <ele>1595.4</ele>
        <time>2017-07-28T10:17:37Z</time>
      </trkpt>
      <trkpt lat="44.9861700" lon="6.7831730">
        <ele>1596.6</ele>
        <time>2017-07-28T10:17:40Z</time>
      </trkpt>
      <trkpt lat="44.9861980" lon="6.7831520">
        <ele>1597.6</ele>
        <time>2017-07-28T10:17:42Z</time>
      </trkpt>
      <trkpt lat="44.9862420" lon="6.7831190">
        <ele>1598.8</ele>
        <time>2017-07-28T10:17:45Z</time>
      </trkpt>
      <trkpt lat="44.9862860" lon="6.7830900">
        <ele>1599.6</ele>
        <time>2017-07-28T10:17:48Z</time>
      </trkpt>
      <trkpt lat="44.9863050" lon="6.7830790">
        <ele>1600.0</ele>
        <time>2017-07-28T10:17:49Z</time>
      </trkpt>
      <trkpt lat="44.9863860" lon="6.7830460">
        <ele>1601.2</ele>
        <time>2017-07-28T10:17:53Z</time>
      </trkpt>
      <trkpt lat="44.9864210" lon="6.7830380">
        <ele>1601.6</ele>
        <time>2017-07-28T10:17:55Z</time>
      </trkpt>
      <trkpt lat="44.9864830" lon="6.7830460">
        <ele>1602.4</ele>
        <time>2017-07-28T10:17:58Z</time>
      </trkpt>
      <trkpt lat="44.9865440" lon="6.7830880">
        <ele>1603.2</ele>
        <time>2017-07-28T10:18:01Z</time>
      </trkpt>
      <trkpt lat="44.9865590" lon="6.7831060">
        <ele>1603.6</ele>
        <time>2017-07-28T10:18:02Z</time>
      </trkpt>
      <trkpt lat="44.9866110" lon="6.7831780">
        <ele>1604.6</ele>
        <time>2017-07-28T10:18:06Z</time>
      </trkpt>
      <trkpt lat="44.9866630" lon="6.7832090">
        <ele>1605.4</ele>
        <time>2017-07-28T10:18:09Z</time>
      </trkpt>
      <trkpt lat="44.9866810" lon="6.7832010">
        <ele>1605.4</ele>
        <time>2017-07-28T10:18:10Z</time>
      </trkpt>
      <trkpt lat="44.9867300" lon="6.7831210">
        <ele>1605.8</ele>
        <time>2017-07-28T10:18:14Z</time>
      </trkpt>
      <trkpt lat="44.9866890" lon="6.7829980">
        <ele>1606.4</ele>
        <time>2017-07-28T10:18:19Z</time>
      </trkpt>
      <trkpt lat="44.9866750" lon="6.7829820">
        <ele>1606.0</ele>
        <time>2017-07-28T10:18:20Z</time>
      </trkpt>
      <trkpt lat="44.9865690" lon="6.7828630">
        <ele>1605.2</ele>
        <time>2017-07-28T10:18:27Z</time>
      </trkpt>
      <trkpt lat="44.9864640" lon="6.7827300">
        <ele>1604.8</ele>
        <time>2017-07-28T10:18:34Z</time>
      </trkpt>
      <trkpt lat="44.9864510" lon="6.7827160">
        <ele>1604.6</ele>
        <time>2017-07-28T10:18:35Z</time>
      </trkpt>
      <trkpt lat="44.9863830" lon="6.7826100">
        <ele>1605.4</ele>
        <time>2017-07-28T10:18:40Z</time>
      </trkpt>
      <trkpt lat="44.9863490" lon="6.7825700">
        <ele>1605.6</ele>
        <time>2017-07-28T10:18:42Z</time>
      </trkpt>
      <trkpt lat="44.9863320" lon="6.7825510">
        <ele>1605.8</ele>
        <time>2017-07-28T10:18:43Z</time>
      </trkpt>
      <trkpt lat="44.9862880" lon="6.7824310">
        <ele>1606.6</ele>
        <time>2017-07-28T10:18:48Z</time>
      </trkpt>
      <trkpt lat="44.9862840" lon="6.7824050">
        <ele>1606.8</ele>
        <time>2017-07-28T10:18:49Z</time>
      </trkpt>
      <trkpt lat="44.9862610" lon="6.7822490">
        <ele>1607.2</ele>
        <time>2017-07-28T10:18:55Z</time>
      </trkpt>
      <trkpt lat="44.9862610" lon="6.7820500">
        <ele>1607.6</ele>
        <time>2017-07-28T10:19:02Z</time>
      </trkpt>
      <trkpt lat="44.9862610" lon="6.7819900">
        <ele>1607.8</ele>
        <time>2017-07-28T10:19:04Z</time>
      </trkpt>
      <trkpt lat="44.9862550" lon="6.7818080">
        <ele>1609.0</ele>
        <time>2017-07-28T10:19:11Z</time>
      </trkpt>
      <trkpt lat="44.9862570" lon="6.7816320">
        <ele>1610.2</ele>
        <time>2017-07-28T10:19:18Z</time>
      </trkpt>
      <trkpt lat="44.9862590" lon="6.7816060">
        <ele>1610.4</ele>
        <time>2017-07-28T10:19:19Z</time>
      </trkpt>
      <trkpt lat="44.9862510" lon="6.7814610">
        <ele>1611.2</ele>
        <time>2017-07-28T10:19:25Z</time>
      </trkpt>
      <trkpt lat="44.9862430" lon="6.7813250">
        <ele>1612.2</ele>
        <time>2017-07-28T10:19:30Z</time>
      </trkpt>
      <trkpt lat="44.9862320" lon="6.7812490">
        <ele>1612.8</ele>
        <time>2017-07-28T10:19:33Z</time>
      </trkpt>
      <trkpt lat="44.9862100" lon="6.7811500">
        <ele>1613.2</ele>
        <time>2017-07-28T10:19:37Z</time>
      </trkpt>
      <trkpt lat="44.9861920" lon="6.7810860">
        <ele>1613.4</ele>
        <time>2017-07-28T10:19:40Z</time>
      </trkpt>
      <trkpt lat="44.9861590" lon="6.7809850">
        <ele>1614.4</ele>
        <time>2017-07-28T10:19:45Z</time>
      </trkpt>
      <trkpt lat="44.9861510" lon="6.7809380">
        <ele>1615.6</ele>
        <time>2017-07-28T10:19:47Z</time>
      </trkpt>
      <trkpt lat="44.9861380" lon="6.7808870">
        <ele>1616.6</ele>
        <time>2017-07-28T10:19:49Z</time>
      </trkpt>
      <trkpt lat="44.9861160" lon="6.7808160">
        <ele>1617.4</ele>
        <time>2017-07-28T10:19:52Z</time>
      </trkpt>
      <trkpt lat="44.9861110" lon="6.7807970">
        <ele>1617.6</ele>
        <time>2017-07-28T10:19:53Z</time>
      </trkpt>
      <trkpt lat="44.9860930" lon="6.7807080">
        <ele>1619.0</ele>
        <time>2017-07-28T10:19:57Z</time>
      </trkpt>
      <trkpt lat="44.9860880" lon="6.7806620">
        <ele>1620.2</ele>
        <time>2017-07-28T10:19:59Z</time>
      </trkpt>
      <trkpt lat="44.9860830" lon="6.7806430">
        <ele>1620.6</ele>
        <time>2017-07-28T10:20:00Z</time>
      </trkpt>
      <trkpt lat="44.9860680" lon="6.7806080">
        <ele>1621.4</ele>
        <time>2017-07-28T10:20:02Z</time>
      </trkpt>
      <trkpt lat="44.9860570" lon="6.7805910">
        <ele>1621.8</ele>
        <time>2017-07-28T10:20:03Z</time>
      </trkpt>
      <trkpt lat="44.9860460" lon="6.7805740">
        <ele>1622.4</ele>
        <time>2017-07-28T10:20:04Z</time>
      </trkpt>
      <trkpt lat="44.9860260" lon="6.7805370">
        <ele>1624.0</ele>
        <time>2017-07-28T10:20:06Z</time>
      </trkpt>
      <trkpt lat="44.9860150" lon="6.7805180">
        <ele>1624.4</ele>
        <time>2017-07-28T10:20:07Z</time>
      </trkpt>
      <trkpt lat="44.9860070" lon="6.7805000">
        <ele>1625.0</ele>
        <time>2017-07-28T10:20:08Z</time>
      </trkpt>
      <trkpt lat="44.9860000" lon="6.7804800">
        <ele>1625.6</ele>
        <time>2017-07-28T10:20:09Z</time>
      </trkpt>
      <trkpt lat="44.9859910" lon="6.7804420">
        <ele>1626.6</ele>
        <time>2017-07-28T10:20:11Z</time>
      </trkpt>
      <trkpt lat="44.9859830" lon="6.7804070">
        <ele>1627.6</ele>
        <time>2017-07-28T10:20:13Z</time>
      </trkpt>
      <trkpt lat="44.9859670" lon="6.7803530">
        <ele>1628.6</ele>
        <time>2017-07-28T10:20:16Z</time>
      </trkpt>
      <trkpt lat="44.9859350" lon="6.7802700">
        <ele>1629.0</ele>
        <time>2017-07-28T10:20:20Z</time>
      </trkpt>
      <trkpt lat="44.9859260" lon="6.7802310">
        <ele>1629.8</ele>
        <time>2017-07-28T10:20:22Z</time>
      </trkpt>
      <trkpt lat="44.9859130" lon="6.7801820">
        <ele>1631.0</ele>
        <time>2017-07-28T10:20:25Z</time>
      </trkpt>
      <trkpt lat="44.9859020" lon="6.7801480">
        <ele>1631.6</ele>
        <time>2017-07-28T10:20:27Z</time>
      </trkpt>
      <trkpt lat="44.9858960" lon="6.7801110">
        <ele>1632.2</ele>
        <time>2017-07-28T10:20:29Z</time>
      </trkpt>
      <trkpt lat="44.9858740" lon="6.7800500">
        <ele>1633.4</ele>
        <time>2017-07-28T10:20:32Z</time>
      </trkpt>
      <trkpt lat="44.9858620" lon="6.7800070">
        <ele>1633.6</ele>
        <time>2017-07-28T10:20:34Z</time>
      </trkpt>
      <trkpt lat="44.9858120" lon="6.7798590">
        <ele>1634.0</ele>
        <time>2017-07-28T10:20:41Z</time>
      </trkpt>
      <trkpt lat="44.9857920" lon="6.7798240">
        <ele>1634.4</ele>
        <time>2017-07-28T10:20:43Z</time>
      </trkpt>
      <trkpt lat="44.9857760" lon="6.7797770">
        <ele>1635.4</ele>
        <time>2017-07-28T10:20:46Z</time>
      </trkpt>
      <trkpt lat="44.9857670" lon="6.7797630">
        <ele>1635.8</ele>
        <time>2017-07-28T10:20:47Z</time>
      </trkpt>
      <trkpt lat="44.9857570" lon="6.7797090">
        <ele>1636.8</ele>
        <time>2017-07-28T10:20:50Z</time>
      </trkpt>
      <trkpt lat="44.9857350" lon="6.7796380">
        <ele>1638.2</ele>
        <time>2017-07-28T10:20:54Z</time>
      </trkpt>
      <trkpt lat="44.9857330" lon="6.7796200">
        <ele>1638.6</ele>
        <time>2017-07-28T10:20:55Z</time>
      </trkpt>
      <trkpt lat="44.9857270" lon="6.7796050">
        <ele>1639.0</ele>
        <time>2017-07-28T10:20:56Z</time>
      </trkpt>
      <trkpt lat="44.9857190" lon="6.7795880">
        <ele>1639.4</ele>
        <time>2017-07-28T10:20:57Z</time>
      </trkpt>
      <trkpt lat="44.9857060" lon="6.7795410">
        <ele>1640.6</ele>
        <time>2017-07-28T10:21:00Z</time>
      </trkpt>
      <trkpt lat="44.9856960" lon="6.7794630">
        <ele>1641.8</ele>
        <time>2017-07-28T10:21:04Z</time>
      </trkpt>
      <trkpt lat="44.9856840" lon="6.7794240">
        <ele>1642.4</ele>
        <time>2017-07-28T10:21:06Z</time>
      </trkpt>
      <trkpt lat="44.9856760" lon="6.7793810">
        <ele>1643.0</ele>
        <time>2017-07-28T10:21:08Z</time>
      </trkpt>
      <trkpt lat="44.9856560" lon="6.7792830">
        <ele>1644.0</ele>
        <time>2017-07-28T10:21:13Z</time>
      </trkpt>
      <trkpt lat="44.9856050" lon="6.7791530">
        <ele>1645.6</ele>
        <time>2017-07-28T10:21:20Z</time>
      </trkpt>
      <trkpt lat="44.9855700" lon="6.7790270">
        <ele>1645.8</ele>
        <time>2017-07-28T10:21:26Z</time>
      </trkpt>
      <trkpt lat="44.9855580" lon="6.7788550">
        <ele>1645.8</ele>
        <time>2017-07-28T10:21:34Z</time>
      </trkpt>
      <trkpt lat="44.9855660" lon="6.7788330">
        <ele>1645.6</ele>
        <time>2017-07-28T10:21:35Z</time>
      </trkpt>
      <trkpt lat="44.9856070" lon="6.7787750">
        <ele>1646.2</ele>
        <time>2017-07-28T10:21:39Z</time>
      </trkpt>
      <trkpt lat="44.9856360" lon="6.7787630">
        <ele>1646.8</ele>
        <time>2017-07-28T10:21:41Z</time>
      </trkpt>
      <trkpt lat="44.9857090" lon="6.7787530">
        <ele>1647.4</ele>
        <time>2017-07-28T10:21:46Z</time>
      </trkpt>
      <trkpt lat="44.9857250" lon="6.7787570">
        <ele>1647.8</ele>
        <time>2017-07-28T10:21:47Z</time>
      </trkpt>
      <trkpt lat="44.9857810" lon="6.7787970">
        <ele>1648.8</ele>
        <time>2017-07-28T10:21:50Z</time>
      </trkpt>
      <trkpt lat="44.9858180" lon="6.7788240">
        <ele>1649.6</ele>
        <time>2017-07-28T10:21:52Z</time>
      </trkpt>
      <trkpt lat="44.9858380" lon="6.7788370">
        <ele>1650.0</ele>
        <time>2017-07-28T10:21:53Z</time>
      </trkpt>
      <trkpt lat="44.9859000" lon="6.7788670">
        <ele>1651.2</ele>
        <time>2017-07-28T10:21:56Z</time>
      </trkpt>
      <trkpt lat="44.9859540" lon="6.7789050">
        <ele>1652.2</ele>
        <time>2017-07-28T10:21:59Z</time>
      </trkpt>
      <trkpt lat="44.9859700" lon="6.7789140">
        <ele>1652.2</ele>
        <time>2017-07-28T10:22:00Z</time>
      </trkpt>
      <trkpt lat="44.9860830" lon="6.7789770">
        <ele>1653.4</ele>
        <time>2017-07-28T10:22:07Z</time>
      </trkpt>
      <trkpt lat="44.9861100" lon="6.7789950">
        <ele>1653.6</ele>
        <time>2017-07-28T10:22:09Z</time>
      </trkpt>
      <trkpt lat="44.9862020" lon="6.7790600">
        <ele>1654.8</ele>
        <time>2017-07-28T10:22:16Z</time>
      </trkpt>
      <trkpt lat="44.9862290" lon="6.7790710">
        <ele>1655.6</ele>
        <time>2017-07-28T10:22:18Z</time>
      </trkpt>
      <trkpt lat="44.9862410" lon="6.7790750">
        <ele>1656.2</ele>
        <time>2017-07-28T10:22:19Z</time>
      </trkpt>
      <trkpt lat="44.9862820" lon="6.7791020">
        <ele>1657.4</ele>
        <time>2017-07-28T10:22:22Z</time>
      </trkpt>
      <trkpt lat="44.9863220" lon="6.7791420">
        <ele>1658.8</ele>
        <time>2017-07-28T10:22:25Z</time>
      </trkpt>
      <trkpt lat="44.9863560" lon="6.7791800">
        <ele>1659.8</ele>
        <time>2017-07-28T10:22:28Z</time>
      </trkpt>
      <trkpt lat="44.9863870" lon="6.7792120">
        <ele>1661.4</ele>
        <time>2017-07-28T10:22:31Z</time>
      </trkpt>
      <trkpt lat="44.9863970" lon="6.7792270">
        <ele>1661.8</ele>
        <time>2017-07-28T10:22:32Z</time>
      </trkpt>
      <trkpt lat="44.9864150" lon="6.7792550">
        <ele>1662.6</ele>
        <time>2017-07-28T10:22:34Z</time>
      </trkpt>
      <trkpt lat="44.9864690" lon="6.7793350">
        <ele>1663.8</ele>
        <time>2017-07-28T10:22:38Z</time>
      </trkpt>
      <trkpt lat="44.9864790" lon="6.7793530">
        <ele>1664.0</ele>
        <time>2017-07-28T10:22:39Z</time>
      </trkpt>
      <trkpt lat="44.9865760" lon="6.7794910">
        <ele>1664.6</ele>
        <time>2017-07-28T10:22:47Z</time>
      </trkpt>
      <trkpt lat="44.9865900" lon="6.7795050">
        <ele>1664.8</ele>
        <time>2017-07-28T10:22:48Z</time>
      </trkpt>
      <trkpt lat="44.9866650" lon="6.7795360">
        <ele>1664.8</ele>
        <time>2017-07-28T10:22:53Z</time>
      </trkpt>
      <trkpt lat="44.9867450" lon="6.7795370">
        <ele>1666.0</ele>
        <time>2017-07-28T10:22:58Z</time>
      </trkpt>
      <trkpt lat="44.9867990" lon="6.7795330">
        <ele>1667.4</ele>
        <time>2017-07-28T10:23:02Z</time>
      </trkpt>
      <trkpt lat="44.9868710" lon="6.7795380">
        <ele>1668.8</ele>
        <time>2017-07-28T10:23:06Z</time>
      </trkpt>
      <trkpt lat="44.9869160" lon="6.7795370">
        <ele>1669.6</ele>
        <time>2017-07-28T10:23:09Z</time>
      </trkpt>
      <trkpt lat="44.9869620" lon="6.7795250">
        <ele>1670.0</ele>
        <time>2017-07-28T10:23:13Z</time>
      </trkpt>
      <trkpt lat="44.9869820" lon="6.7794870">
        <ele>1670.8</ele>
        <time>2017-07-28T10:23:15Z</time>
      </trkpt>
      <trkpt lat="44.9869880" lon="6.7794670">
        <ele>1671.0</ele>
        <time>2017-07-28T10:23:16Z</time>
      </trkpt>
      <trkpt lat="44.9869910" lon="6.7794470">
        <ele>1671.4</ele>
        <time>2017-07-28T10:23:17Z</time>
      </trkpt>
      <trkpt lat="44.9869930" lon="6.7794100">
        <ele>1672.4</ele>
        <time>2017-07-28T10:23:19Z</time>
      </trkpt>
      <trkpt lat="44.9869940" lon="6.7793940">
        <ele>1672.6</ele>
        <time>2017-07-28T10:23:20Z</time>
      </trkpt>
      <trkpt lat="44.9869870" lon="6.7793810">
        <ele>1672.6</ele>
        <time>2017-07-28T10:23:21Z</time>
      </trkpt>
      <trkpt lat="44.9869470" lon="6.7793450">
        <ele>1673.4</ele>
        <time>2017-07-28T10:23:25Z</time>
      </trkpt>
      <trkpt lat="44.9869140" lon="6.7793060">
        <ele>1674.4</ele>
        <time>2017-07-28T10:23:28Z</time>
      </trkpt>
      <trkpt lat="44.9869030" lon="6.7792900">
        <ele>1674.6</ele>
        <time>2017-07-28T10:23:29Z</time>
      </trkpt>
      <trkpt lat="44.9868510" lon="6.7792350">
        <ele>1676.0</ele>
        <time>2017-07-28T10:23:33Z</time>
      </trkpt>
      <trkpt lat="44.9868120" lon="6.7791690">
        <ele>1676.8</ele>
        <time>2017-07-28T10:23:37Z</time>
      </trkpt>
      <trkpt lat="44.9868000" lon="6.7791560">
        <ele>1677.0</ele>
        <time>2017-07-28T10:23:38Z</time>
      </trkpt>
      <trkpt lat="44.9867650" lon="6.7790870">
        <ele>1678.2</ele>
        <time>2017-07-28T10:23:42Z</time>
      </trkpt>
      <trkpt lat="44.9867460" lon="6.7790460">
        <ele>1679.0</ele>
        <time>2017-07-28T10:23:44Z</time>
      </trkpt>
      <trkpt lat="44.9867380" lon="6.7790270">
        <ele>1679.2</ele>
        <time>2017-07-28T10:23:45Z</time>
      </trkpt>
      <trkpt lat="44.9866990" lon="6.7789280">
        <ele>1680.4</ele>
        <time>2017-07-28T10:23:50Z</time>
      </trkpt>
      <trkpt lat="44.9866670" lon="6.7788280">
        <ele>1681.4</ele>
        <time>2017-07-28T10:23:54Z</time>
      </trkpt>
      <trkpt lat="44.9866580" lon="6.7788010">
        <ele>1681.6</ele>
        <time>2017-07-28T10:23:55Z</time>
      </trkpt>
      <trkpt lat="44.9866210" lon="6.7786900">
        <ele>1682.8</ele>
        <time>2017-07-28T10:24:00Z</time>
      </trkpt>
      <trkpt lat="44.9866160" lon="6.7786680">
        <ele>1682.8</ele>
        <time>2017-07-28T10:24:01Z</time>
      </trkpt>
      <trkpt lat="44.9865880" lon="6.7785620">
        <ele>1683.8</ele>
        <time>2017-07-28T10:24:06Z</time>
      </trkpt>
      <trkpt lat="44.9865610" lon="6.7785130">
        <ele>1684.4</ele>
        <time>2017-07-28T10:24:09Z</time>
      </trkpt>
      <trkpt lat="44.9865510" lon="6.7784630">
        <ele>1685.0</ele>
        <time>2017-07-28T10:24:12Z</time>
      </trkpt>
      <trkpt lat="44.9865490" lon="6.7784050">
        <ele>1685.6</ele>
        <time>2017-07-28T10:24:15Z</time>
      </trkpt>
      <trkpt lat="44.9865130" lon="6.7782890">
        <ele>1684.6</ele>
        <time>2017-07-28T10:24:21Z</time>
      </trkpt>
      <trkpt lat="44.9864870" lon="6.7782140">
        <ele>1686.6</ele>
        <time>2017-07-28T10:24:24Z</time>
      </trkpt>
      <trkpt lat="44.9864780" lon="6.7781860">
        <ele>1686.8</ele>
        <time>2017-07-28T10:24:25Z</time>
      </trkpt>
      <trkpt lat="44.9864700" lon="6.7781600">
        <ele>1685.6</ele>
        <time>2017-07-28T10:24:26Z</time>
      </trkpt>
      <trkpt lat="44.9864560" lon="6.7780940">
        <ele>1687.4</ele>
        <time>2017-07-28T10:24:29Z</time>
      </trkpt>
      <trkpt lat="44.9864490" lon="6.7780550">
        <ele>1687.8</ele>
        <time>2017-07-28T10:24:31Z</time>
      </trkpt>
      <trkpt lat="44.9864370" lon="6.7780200">
        <ele>1688.4</ele>
        <time>2017-07-28T10:24:33Z</time>
      </trkpt>
      <trkpt lat="44.9864180" lon="6.7779360">
        <ele>1689.6</ele>
        <time>2017-07-28T10:24:38Z</time>
      </trkpt>
      <trkpt lat="44.9864100" lon="6.7778130">
        <ele>1691.2</ele>
        <time>2017-07-28T10:24:44Z</time>
      </trkpt>
      <trkpt lat="44.9864130" lon="6.7777910">
        <ele>1691.4</ele>
        <time>2017-07-28T10:24:45Z</time>
      </trkpt>
      <trkpt lat="44.9864120" lon="6.7776350">
        <ele>1692.8</ele>
        <time>2017-07-28T10:24:52Z</time>
      </trkpt>
      <trkpt lat="44.9864300" lon="6.7775640">
        <ele>1693.4</ele>
        <time>2017-07-28T10:24:55Z</time>
      </trkpt>
      <trkpt lat="44.9864280" lon="6.7775200">
        <ele>1693.4</ele>
        <time>2017-07-28T10:24:57Z</time>
      </trkpt>
      <trkpt lat="44.9864210" lon="6.7774900">
        <ele>1693.4</ele>
        <time>2017-07-28T10:24:58Z</time>
      </trkpt>
      <trkpt lat="44.9864150" lon="6.7774370">
        <ele>1693.8</ele>
        <time>2017-07-28T10:25:00Z</time>
      </trkpt>
      <trkpt lat="44.9864160" lon="6.7774190">
        <ele>1694.0</ele>
        <time>2017-07-28T10:25:01Z</time>
      </trkpt>
      <trkpt lat="44.9864130" lon="6.7773780">
        <ele>1694.2</ele>
        <time>2017-07-28T10:25:03Z</time>
      </trkpt>
      <trkpt lat="44.9863930" lon="6.7773220">
        <ele>1693.8</ele>
        <time>2017-07-28T10:25:07Z</time>
      </trkpt>
      <trkpt lat="44.9863820" lon="6.7773030">
        <ele>1693.8</ele>
        <time>2017-07-28T10:25:08Z</time>
      </trkpt>
      <trkpt lat="44.9862990" lon="6.7771970">
        <ele>1692.8</ele>
        <time>2017-07-28T10:25:12Z</time>
      </trkpt>
      <trkpt lat="44.9862560" lon="6.7771500">
        <ele>1693.2</ele>
        <time>2017-07-28T10:25:14Z</time>
      </trkpt>
      <trkpt lat="44.9861700" lon="6.7770720">
        <ele>1694.0</ele>
        <time>2017-07-28T10:25:18Z</time>
      </trkpt>
      <trkpt lat="44.9861000" lon="6.7769880">
        <ele>1695.0</ele>
        <time>2017-07-28T10:25:22Z</time>
      </trkpt>
      <trkpt lat="44.9860870" lon="6.7769680">
        <ele>1695.0</ele>
        <time>2017-07-28T10:25:23Z</time>
      </trkpt>
      <trkpt lat="44.9859510" lon="6.7768030">
        <ele>1696.0</ele>
        <time>2017-07-28T10:25:32Z</time>
      </trkpt>
      <trkpt lat="44.9858400" lon="6.7766630">
        <ele>1696.2</ele>
        <time>2017-07-28T10:25:40Z</time>
      </trkpt>
      <trkpt lat="44.9858300" lon="6.7766440">
        <ele>1696.2</ele>
        <time>2017-07-28T10:25:41Z</time>
      </trkpt>
      <trkpt lat="44.9857480" lon="6.7764950">
        <ele>1696.6</ele>
        <time>2017-07-28T10:25:49Z</time>
      </trkpt>
      <trkpt lat="44.9856800" lon="6.7763760">
        <ele>1697.0</ele>
        <time>2017-07-28T10:25:56Z</time>
      </trkpt>
      <trkpt lat="44.9856570" lon="6.7763510">
        <ele>1697.4</ele>
        <time>2017-07-28T10:25:58Z</time>
      </trkpt>
      <trkpt lat="44.9856350" lon="6.7763130">
        <ele>1698.6</ele>
        <time>2017-07-28T10:26:01Z</time>
      </trkpt>
      <trkpt lat="44.9856030" lon="6.7762820">
        <ele>1699.8</ele>
        <time>2017-07-28T10:26:04Z</time>
      </trkpt>
      <trkpt lat="44.9855420" lon="6.7761940">
        <ele>1701.0</ele>
        <time>2017-07-28T10:26:10Z</time>
      </trkpt>
      <trkpt lat="44.9855130" lon="6.7761310">
        <ele>1701.6</ele>
        <time>2017-07-28T10:26:13Z</time>
      </trkpt>
      <trkpt lat="44.9855020" lon="6.7761100">
        <ele>1702.0</ele>
        <time>2017-07-28T10:26:14Z</time>
      </trkpt>
      <trkpt lat="44.9854730" lon="6.7760470">
        <ele>1703.2</ele>
        <time>2017-07-28T10:26:17Z</time>
      </trkpt>
      <trkpt lat="44.9854410" lon="6.7759870">
        <ele>1704.4</ele>
        <time>2017-07-28T10:26:20Z</time>
      </trkpt>
      <trkpt lat="44.9854290" lon="6.7759660">
        <ele>1704.6</ele>
        <time>2017-07-28T10:26:21Z</time>
      </trkpt>
      <trkpt lat="44.9854130" lon="6.7759160">
        <ele>1705.6</ele>
        <time>2017-07-28T10:26:23Z</time>
      </trkpt>
      <trkpt lat="44.9853930" lon="6.7758130">
        <ele>1706.6</ele>
        <time>2017-07-28T10:26:27Z</time>
      </trkpt>
      <trkpt lat="44.9854020" lon="6.7756400">
        <ele>1707.2</ele>
        <time>2017-07-28T10:26:34Z</time>
      </trkpt>
      <trkpt lat="44.9854120" lon="6.7755630">
        <ele>1707.6</ele>
        <time>2017-07-28T10:26:37Z</time>
      </trkpt>
      <trkpt lat="44.9854320" lon="6.7754580">
        <ele>1708.6</ele>
        <time>2017-07-28T10:26:41Z</time>
      </trkpt>
      <trkpt lat="44.9854440" lon="6.7754390">
        <ele>1708.8</ele>
        <time>2017-07-28T10:26:42Z</time>
      </trkpt>
      <trkpt lat="44.9854950" lon="6.7754170">
        <ele>1709.8</ele>
        <time>2017-07-28T10:26:45Z</time>
      </trkpt>
      <trkpt lat="44.9855120" lon="6.7754260">
        <ele>1710.0</ele>
        <time>2017-07-28T10:26:46Z</time>
      </trkpt>
      <trkpt lat="44.9855910" lon="6.7755490">
        <ele>1710.2</ele>
        <time>2017-07-28T10:26:53Z</time>
      </trkpt>
      <trkpt lat="44.9856640" lon="6.7756660">
        <ele>1710.6</ele>
        <time>2017-07-28T10:26:59Z</time>
      </trkpt>
      <trkpt lat="44.9856810" lon="6.7756790">
        <ele>1710.6</ele>
        <time>2017-07-28T10:27:00Z</time>
      </trkpt>
      <trkpt lat="44.9857100" lon="6.7757030">
        <ele>1711.0</ele>
        <time>2017-07-28T10:27:02Z</time>
      </trkpt>
      <trkpt lat="44.9857920" lon="6.7757270">
        <ele>1711.8</ele>
        <time>2017-07-28T10:27:07Z</time>
      </trkpt>
      <trkpt lat="44.9858090" lon="6.7757320">
        <ele>1711.8</ele>
        <time>2017-07-28T10:27:08Z</time>
      </trkpt>
      <trkpt lat="44.9858250" lon="6.7757410">
        <ele>1712.0</ele>
        <time>2017-07-28T10:27:09Z</time>
      </trkpt>
      <trkpt lat="44.9858720" lon="6.7757710">
        <ele>1712.6</ele>
        <time>2017-07-28T10:27:12Z</time>
      </trkpt>
      <trkpt lat="44.9859190" lon="6.7757990">
        <ele>1712.8</ele>
        <time>2017-07-28T10:27:15Z</time>
      </trkpt>
      <trkpt lat="44.9859340" lon="6.7758060">
        <ele>1713.0</ele>
        <time>2017-07-28T10:27:16Z</time>
      </trkpt>
      <trkpt lat="44.9860100" lon="6.7758380">
        <ele>1714.4</ele>
        <time>2017-07-28T10:27:21Z</time>
      </trkpt>
      <trkpt lat="44.9860400" lon="6.7758430">
        <ele>1715.0</ele>
        <time>2017-07-28T10:27:23Z</time>
      </trkpt>
      <trkpt lat="44.9860670" lon="6.7758280">
        <ele>1715.4</ele>
        <time>2017-07-28T10:27:25Z</time>
      </trkpt>
      <trkpt lat="44.9860780" lon="6.7758120">
        <ele>1715.6</ele>
        <time>2017-07-28T10:27:26Z</time>
      </trkpt>
      <trkpt lat="44.9860910" lon="6.7757780">
        <ele>1716.6</ele>
        <time>2017-07-28T10:27:28Z</time>
      </trkpt>
      <trkpt lat="44.9860950" lon="6.7757590">
        <ele>1716.6</ele>
        <time>2017-07-28T10:27:29Z</time>
      </trkpt>
      <trkpt lat="44.9860740" lon="6.7756550">
        <ele>1717.2</ele>
        <time>2017-07-28T10:27:35Z</time>
      </trkpt>
      <trkpt lat="44.9860480" lon="6.7756030">
        <ele>1718.0</ele>
        <time>2017-07-28T10:27:38Z</time>
      </trkpt>
      <trkpt lat="44.9860170" lon="6.7755450">
        <ele>1719.4</ele>
        <time>2017-07-28T10:27:41Z</time>
      </trkpt>
      <trkpt lat="44.9859920" lon="6.7754950">
        <ele>1720.6</ele>
        <time>2017-07-28T10:27:43Z</time>
      </trkpt>
      <trkpt lat="44.9859480" lon="6.7754130">
        <ele>1722.2</ele>
        <time>2017-07-28T10:27:46Z</time>
      </trkpt>
      <trkpt lat="44.9859210" lon="6.7753590">
        <ele>1723.2</ele>
        <time>2017-07-28T10:27:48Z</time>
      </trkpt>
      <trkpt lat="44.9858900" lon="6.7753120">
        <ele>1724.2</ele>
        <time>2017-07-28T10:27:50Z</time>
      </trkpt>
      <trkpt lat="44.9858760" lon="6.7752870">
        <ele>1724.6</ele>
        <time>2017-07-28T10:27:51Z</time>
      </trkpt>
      <trkpt lat="44.9858460" lon="6.7752340">
        <ele>1725.8</ele>
        <time>2017-07-28T10:27:53Z</time>
      </trkpt>
      <trkpt lat="44.9857770" lon="6.7751360">
        <ele>1726.8</ele>
        <time>2017-07-28T10:27:58Z</time>
      </trkpt>
      <trkpt lat="44.9857420" lon="6.7750850">
        <ele>1727.0</ele>
        <time>2017-07-28T10:28:01Z</time>
      </trkpt>
      <trkpt lat="44.9856680" lon="6.7749610">
        <ele>1727.6</ele>
        <time>2017-07-28T10:28:07Z</time>
      </trkpt>
      <trkpt lat="44.9856220" lon="6.7748000">
        <ele>1728.0</ele>
        <time>2017-07-28T10:28:14Z</time>
      </trkpt>
      <trkpt lat="44.9856240" lon="6.7747820">
        <ele>1728.4</ele>
        <time>2017-07-28T10:28:15Z</time>
      </trkpt>
      <trkpt lat="44.9856250" lon="6.7747170">
        <ele>1729.4</ele>
        <time>2017-07-28T10:28:18Z</time>
      </trkpt>
      <trkpt lat="44.9856270" lon="6.7746300">
        <ele>1730.4</ele>
        <time>2017-07-28T10:28:22Z</time>
      </trkpt>
      <trkpt lat="44.9856180" lon="6.7745810">
        <ele>1731.8</ele>
        <time>2017-07-28T10:28:24Z</time>
      </trkpt>
      <trkpt lat="44.9856110" lon="6.7745300">
        <ele>1733.0</ele>
        <time>2017-07-28T10:28:26Z</time>
      </trkpt>
      <trkpt lat="44.9855990" lon="6.7744970">
        <ele>1733.6</ele>
        <time>2017-07-28T10:28:28Z</time>
      </trkpt>
      <trkpt lat="44.9855880" lon="6.7744540">
        <ele>1734.0</ele>
        <time>2017-07-28T10:28:30Z</time>
      </trkpt>
      <trkpt lat="44.9855830" lon="6.7744330">
        <ele>1734.8</ele>
        <time>2017-07-28T10:28:31Z</time>
      </trkpt>
      <trkpt lat="44.9855780" lon="6.7744160">
        <ele>1735.6</ele>
        <time>2017-07-28T10:28:32Z</time>
      </trkpt>
      <trkpt lat="44.9855710" lon="6.7743990">
        <ele>1736.2</ele>
        <time>2017-07-28T10:28:33Z</time>
      </trkpt>
      <trkpt lat="44.9855490" lon="6.7743680">
        <ele>1736.6</ele>
        <time>2017-07-28T10:28:35Z</time>
      </trkpt>
      <trkpt lat="44.9855370" lon="6.7743560">
        <ele>1736.8</ele>
        <time>2017-07-28T10:28:36Z</time>
      </trkpt>
      <trkpt lat="44.9855090" lon="6.7743240">
        <ele>1737.4</ele>
        <time>2017-07-28T10:28:38Z</time>
      </trkpt>
      <trkpt lat="44.9854360" lon="6.7742390">
        <ele>1738.6</ele>
        <time>2017-07-28T10:28:44Z</time>
      </trkpt>
      <trkpt lat="44.9854240" lon="6.7742310">
        <ele>1738.8</ele>
        <time>2017-07-28T10:28:45Z</time>
      </trkpt>
      <trkpt lat="44.9853610" lon="6.7742080">
        <ele>1739.6</ele>
        <time>2017-07-28T10:28:49Z</time>
      </trkpt>
      <trkpt lat="44.9853450" lon="6.7742010">
        <ele>1739.6</ele>
        <time>2017-07-28T10:28:50Z</time>
      </trkpt>
      <trkpt lat="44.9852280" lon="6.7741430">
        <ele>1739.8</ele>
        <time>2017-07-28T10:28:57Z</time>
      </trkpt>
      <trkpt lat="44.9851370" lon="6.7740870">
        <ele>1740.8</ele>
        <time>2017-07-28T10:29:03Z</time>
      </trkpt>
      <trkpt lat="44.9851250" lon="6.7740760">
        <ele>1741.2</ele>
        <time>2017-07-28T10:29:04Z</time>
      </trkpt>
      <trkpt lat="44.9850180" lon="6.7739910">
        <ele>1741.8</ele>
        <time>2017-07-28T10:29:11Z</time>
      </trkpt>
      <trkpt lat="44.9849930" lon="6.7739680">
        <ele>1742.0</ele>
        <time>2017-07-28T10:29:13Z</time>
      </trkpt>
      <trkpt lat="44.9849100" lon="6.7738770">
        <ele>1742.4</ele>
        <time>2017-07-28T10:29:19Z</time>
      </trkpt>
      <trkpt lat="44.9848490" lon="6.7737870">
        <ele>1743.0</ele>
        <time>2017-07-28T10:29:24Z</time>
      </trkpt>
      <trkpt lat="44.9848160" lon="6.7737320">
        <ele>1744.4</ele>
        <time>2017-07-28T10:29:27Z</time>
      </trkpt>
      <trkpt lat="44.9847850" lon="6.7736720">
        <ele>1745.4</ele>
        <time>2017-07-28T10:29:30Z</time>
      </trkpt>
      <trkpt lat="44.9847450" lon="6.7736180">
        <ele>1746.6</ele>
        <time>2017-07-28T10:29:33Z</time>
      </trkpt>
      <trkpt lat="44.9847030" lon="6.7735630">
        <ele>1746.8</ele>
        <time>2017-07-28T10:29:36Z</time>
      </trkpt>
      <trkpt lat="44.9846750" lon="6.7735080">
        <ele>1747.2</ele>
        <time>2017-07-28T10:29:39Z</time>
      </trkpt>
      <trkpt lat="44.9846910" lon="6.7734420">
        <ele>1747.4</ele>
        <time>2017-07-28T10:29:42Z</time>
      </trkpt>
      <trkpt lat="44.9846990" lon="6.7734240">
        <ele>1747.6</ele>
        <time>2017-07-28T10:29:43Z</time>
      </trkpt>
      <trkpt lat="44.9847340" lon="6.7734110">
        <ele>1748.8</ele>
        <time>2017-07-28T10:29:46Z</time>
      </trkpt>
      <trkpt lat="44.9847500" lon="6.7734150">
        <ele>1749.0</ele>
        <time>2017-07-28T10:29:47Z</time>
      </trkpt>
      <trkpt lat="44.9847810" lon="6.7734280">
        <ele>1749.8</ele>
        <time>2017-07-28T10:29:49Z</time>
      </trkpt>
      <trkpt lat="44.9848060" lon="6.7734470">
        <ele>1750.4</ele>
        <time>2017-07-28T10:29:51Z</time>
      </trkpt>
      <trkpt lat="44.9848260" lon="6.7734730">
        <ele>1751.0</ele>
        <time>2017-07-28T10:29:53Z</time>
      </trkpt>
      <trkpt lat="44.9848800" lon="6.7735650">
        <ele>1751.4</ele>
        <time>2017-07-28T10:29:58Z</time>
      </trkpt>
      <trkpt lat="44.9848930" lon="6.7735810">
        <ele>1751.6</ele>
        <time>2017-07-28T10:29:59Z</time>
      </trkpt>
      <trkpt lat="44.9849830" lon="6.7736530">
        <ele>1752.2</ele>
        <time>2017-07-28T10:30:05Z</time>
      </trkpt>
      <trkpt lat="44.9849910" lon="6.7736670">
        <ele>1752.4</ele>
        <time>2017-07-28T10:30:06Z</time>
      </trkpt>
      <trkpt lat="44.9850000" lon="6.7736760">
        <ele>1752.8</ele>
        <time>2017-07-28T10:30:07Z</time>
      </trkpt>
      <trkpt lat="44.9850640" lon="6.7736990">
        <ele>1752.8</ele>
        <time>2017-07-28T10:30:12Z</time>
      </trkpt>
      <trkpt lat="44.9850770" lon="6.7736990">
        <ele>1753.0</ele>
        <time>2017-07-28T10:30:13Z</time>
      </trkpt>
      <trkpt lat="44.9851060" lon="6.7737060">
        <ele>1753.4</ele>
        <time>2017-07-28T10:30:15Z</time>
      </trkpt>
      <trkpt lat="44.9851470" lon="6.7737190">
        <ele>1754.6</ele>
        <time>2017-07-28T10:30:18Z</time>
      </trkpt>
      <trkpt lat="44.9851640" lon="6.7737200">
        <ele>1754.8</ele>
        <time>2017-07-28T10:30:19Z</time>
      </trkpt>
      <trkpt lat="44.9852100" lon="6.7737310">
        <ele>1755.8</ele>
        <time>2017-07-28T10:30:22Z</time>
      </trkpt>
      <trkpt lat="44.9852750" lon="6.7737130">
        <ele>1757.0</ele>
        <time>2017-07-28T10:30:26Z</time>
      </trkpt>
      <trkpt lat="44.9853290" lon="6.7736890">
        <ele>1758.2</ele>
        <time>2017-07-28T10:30:30Z</time>
      </trkpt>
      <trkpt lat="44.9853560" lon="6.7736770">
        <ele>1758.6</ele>
        <time>2017-07-28T10:30:32Z</time>
      </trkpt>
      <trkpt lat="44.9853980" lon="6.7736630">
        <ele>1759.2</ele>
        <time>2017-07-28T10:30:35Z</time>
      </trkpt>
      <trkpt lat="44.9854750" lon="6.7736470">
        <ele>1760.2</ele>
        <time>2017-07-28T10:30:40Z</time>
      </trkpt>
      <trkpt lat="44.9854880" lon="6.7736480">
        <ele>1760.4</ele>
        <time>2017-07-28T10:30:41Z</time>
      </trkpt>
      <trkpt lat="44.9856000" lon="6.7736930">
        <ele>1761.0</ele>
        <time>2017-07-28T10:30:48Z</time>
      </trkpt>
      <trkpt lat="44.9856870" lon="6.7737300">
        <ele>1761.4</ele>
        <time>2017-07-28T10:30:54Z</time>
      </trkpt>
      <trkpt lat="44.9857050" lon="6.7737330">
        <ele>1762.0</ele>
        <time>2017-07-28T10:30:55Z</time>
      </trkpt>
      <trkpt lat="44.9857360" lon="6.7737460">
        <ele>1762.8</ele>
        <time>2017-07-28T10:30:57Z</time>
      </trkpt>
      <trkpt lat="44.9858090" lon="6.7738070">
        <ele>1764.0</ele>
        <time>2017-07-28T10:31:01Z</time>
      </trkpt>
      <trkpt lat="44.9859480" lon="6.7739130">
        <ele>1765.4</ele>
        <time>2017-07-28T10:31:08Z</time>
      </trkpt>
      <trkpt lat="44.9859980" lon="6.7739410">
        <ele>1766.4</ele>
        <time>2017-07-28T10:31:11Z</time>
      </trkpt>
      <trkpt lat="44.9860340" lon="6.7739570">
        <ele>1766.8</ele>
        <time>2017-07-28T10:31:13Z</time>
      </trkpt>
      <trkpt lat="44.9860960" lon="6.7739860">
        <ele>1767.2</ele>
        <time>2017-07-28T10:31:17Z</time>
      </trkpt>
      <trkpt lat="44.9861400" lon="6.7740200">
        <ele>1767.4</ele>
        <time>2017-07-28T10:31:20Z</time>
      </trkpt>
      <trkpt lat="44.9862030" lon="6.7740670">
        <ele>1768.4</ele>
        <time>2017-07-28T10:31:24Z</time>
      </trkpt>
      <trkpt lat="44.9862130" lon="6.7740850">
        <ele>1768.8</ele>
        <time>2017-07-28T10:31:25Z</time>
      </trkpt>
      <trkpt lat="44.9862420" lon="6.7741170">
        <ele>1769.6</ele>
        <time>2017-07-28T10:31:27Z</time>
      </trkpt>
      <trkpt lat="44.9863050" lon="6.7741550">
        <ele>1770.8</ele>
        <time>2017-07-28T10:31:31Z</time>
      </trkpt>
      <trkpt lat="44.9863310" lon="6.7741520">
        <ele>1771.6</ele>
        <time>2017-07-28T10:31:33Z</time>
      </trkpt>
      <trkpt lat="44.9863590" lon="6.7741270">
        <ele>1771.8</ele>
        <time>2017-07-28T10:31:35Z</time>
      </trkpt>
      <trkpt lat="44.9863710" lon="6.7741040">
        <ele>1772.2</ele>
        <time>2017-07-28T10:31:36Z</time>
      </trkpt>
      <trkpt lat="44.9863750" lon="6.7740160">
        <ele>1772.2</ele>
        <time>2017-07-28T10:31:41Z</time>
      </trkpt>
      <trkpt lat="44.9863520" lon="6.7739840">
        <ele>1773.2</ele>
        <time>2017-07-28T10:31:44Z</time>
      </trkpt>
      <trkpt lat="44.9863420" lon="6.7739650">
        <ele>1773.2</ele>
        <time>2017-07-28T10:31:45Z</time>
      </trkpt>
      <trkpt lat="44.9863290" lon="6.7739520">
        <ele>1773.2</ele>
        <time>2017-07-28T10:31:46Z</time>
      </trkpt>
      <trkpt lat="44.9863150" lon="6.7739390">
        <ele>1773.0</ele>
        <time>2017-07-28T10:31:47Z</time>
      </trkpt>
      <trkpt lat="44.9862370" lon="6.7738450">
        <ele>1772.8</ele>
        <time>2017-07-28T10:31:54Z</time>
      </trkpt>
      <trkpt lat="44.9861820" lon="6.7737210">
        <ele>1773.8</ele>
        <time>2017-07-28T10:32:02Z</time>
      </trkpt>
      <trkpt lat="44.9861790" lon="6.7737040">
        <ele>1774.2</ele>
        <time>2017-07-28T10:32:03Z</time>
      </trkpt>
      <trkpt lat="44.9861650" lon="6.7736370">
        <ele>1776.2</ele>
        <time>2017-07-28T10:32:07Z</time>
      </trkpt>
      <trkpt lat="44.9861640" lon="6.7736120">
        <ele>1776.4</ele>
        <time>2017-07-28T10:32:08Z</time>
      </trkpt>
      <trkpt lat="44.9861600" lon="6.7734870">
        <ele>1777.4</ele>
        <time>2017-07-28T10:32:14Z</time>
      </trkpt>
      <trkpt lat="44.9861580" lon="6.7734690">
        <ele>1778.0</ele>
        <time>2017-07-28T10:32:15Z</time>
      </trkpt>
      <trkpt lat="44.9861540" lon="6.7734510">
        <ele>1778.6</ele>
        <time>2017-07-28T10:32:16Z</time>
      </trkpt>
      <trkpt lat="44.9861370" lon="6.7734030">
        <ele>1779.8</ele>
        <time>2017-07-28T10:32:19Z</time>
      </trkpt>
      <trkpt lat="44.9861130" lon="6.7733800">
        <ele>1781.0</ele>
        <time>2017-07-28T10:32:21Z</time>
      </trkpt>
      <trkpt lat="44.9861000" lon="6.7733750">
        <ele>1781.4</ele>
        <time>2017-07-28T10:32:22Z</time>
      </trkpt>
      <trkpt lat="44.9860530" lon="6.7733650">
        <ele>1782.4</ele>
        <time>2017-07-28T10:32:25Z</time>
      </trkpt>
      <trkpt lat="44.9859740" lon="6.7733540">
        <ele>1783.0</ele>
        <time>2017-07-28T10:32:29Z</time>
      </trkpt>
      <trkpt lat="44.9858850" lon="6.7732820">
        <ele>1783.4</ele>
        <time>2017-07-28T10:32:33Z</time>
      </trkpt>
      <trkpt lat="44.9858610" lon="6.7732180">
        <ele>1783.8</ele>
        <time>2017-07-28T10:32:35Z</time>
      </trkpt>
      <trkpt lat="44.9858210" lon="6.7731180">
        <ele>1784.6</ele>
        <time>2017-07-28T10:32:39Z</time>
      </trkpt>
      <trkpt lat="44.9858010" lon="6.7730660">
        <ele>1785.4</ele>
        <time>2017-07-28T10:32:41Z</time>
      </trkpt>
      <trkpt lat="44.9857920" lon="6.7730420">
        <ele>1786.0</ele>
        <time>2017-07-28T10:32:42Z</time>
      </trkpt>
      <trkpt lat="44.9857510" lon="6.7729770">
        <ele>1787.2</ele>
        <time>2017-07-28T10:32:46Z</time>
      </trkpt>
      <trkpt lat="44.9857300" lon="6.7729510">
        <ele>1788.2</ele>
        <time>2017-07-28T10:32:48Z</time>
      </trkpt>
      <trkpt lat="44.9856780" lon="6.7729280">
        <ele>1789.6</ele>
        <time>2017-07-28T10:32:51Z</time>
      </trkpt>
      <trkpt lat="44.9856260" lon="6.7729110">
        <ele>1790.8</ele>
        <time>2017-07-28T10:32:54Z</time>
      </trkpt>
      <trkpt lat="44.9855940" lon="6.7728970">
        <ele>1791.6</ele>
        <time>2017-07-28T10:32:56Z</time>
      </trkpt>
      <trkpt lat="44.9855640" lon="6.7728690">
        <ele>1791.8</ele>
        <time>2017-07-28T10:32:58Z</time>
      </trkpt>
      <trkpt lat="44.9854840" lon="6.7727940">
        <ele>1792.4</ele>
        <time>2017-07-28T10:33:03Z</time>
      </trkpt>
      <trkpt lat="44.9854200" lon="6.7727100">
        <ele>1793.0</ele>
        <time>2017-07-28T10:33:08Z</time>
      </trkpt>
      <trkpt lat="44.9854000" lon="6.7726670">
        <ele>1793.4</ele>
        <time>2017-07-28T10:33:10Z</time>
      </trkpt>
      <trkpt lat="44.9853700" lon="6.7725740">
        <ele>1794.0</ele>
        <time>2017-07-28T10:33:14Z</time>
      </trkpt>
      <trkpt lat="44.9853720" lon="6.7725030">
        <ele>1794.4</ele>
        <time>2017-07-28T10:33:17Z</time>
      </trkpt>
      <trkpt lat="44.9853790" lon="6.7724860">
        <ele>1794.6</ele>
        <time>2017-07-28T10:33:18Z</time>
      </trkpt>
      <trkpt lat="44.9853910" lon="6.7724700">
        <ele>1795.2</ele>
        <time>2017-07-28T10:33:19Z</time>
      </trkpt>
      <trkpt lat="44.9854330" lon="6.7724480">
        <ele>1796.2</ele>
        <time>2017-07-28T10:33:22Z</time>
      </trkpt>
      <trkpt lat="44.9854820" lon="6.7724880">
        <ele>1797.6</ele>
        <time>2017-07-28T10:33:26Z</time>
      </trkpt>
      <trkpt lat="44.9855240" lon="6.7725190">
        <ele>1798.4</ele>
        <time>2017-07-28T10:33:29Z</time>
      </trkpt>
      <trkpt lat="44.9855410" lon="6.7725290">
        <ele>1798.8</ele>
        <time>2017-07-28T10:33:30Z</time>
      </trkpt>
      <trkpt lat="44.9856180" lon="6.7725560">
        <ele>1800.0</ele>
        <time>2017-07-28T10:33:34Z</time>
      </trkpt>
      <trkpt lat="44.9856670" lon="6.7725740">
        <ele>1800.6</ele>
        <time>2017-07-28T10:33:37Z</time>
      </trkpt>
      <trkpt lat="44.9857030" lon="6.7725780">
        <ele>1801.0</ele>
        <time>2017-07-28T10:33:39Z</time>
      </trkpt>
      <trkpt lat="44.9857880" lon="6.7725540">
        <ele>1802.2</ele>
        <time>2017-07-28T10:33:44Z</time>
      </trkpt>
      <trkpt lat="44.9858620" lon="6.7725580">
        <ele>1803.2</ele>
        <time>2017-07-28T10:33:49Z</time>
      </trkpt>
      <trkpt lat="44.9858970" lon="6.7725470">
        <ele>1803.6</ele>
        <time>2017-07-28T10:33:51Z</time>
      </trkpt>
      <trkpt lat="44.9859830" lon="6.7725610">
        <ele>1803.6</ele>
        <time>2017-07-28T10:33:56Z</time>
      </trkpt>
      <trkpt lat="44.9860960" lon="6.7726030">
        <ele>1804.2</ele>
        <time>2017-07-28T10:34:03Z</time>
      </trkpt>
      <trkpt lat="44.9861780" lon="6.7726370">
        <ele>1804.2</ele>
        <time>2017-07-28T10:34:08Z</time>
      </trkpt>
      <trkpt lat="44.9862070" lon="6.7726480">
        <ele>1804.2</ele>
        <time>2017-07-28T10:34:10Z</time>
      </trkpt>
      <trkpt lat="44.9863140" lon="6.7727090">
        <ele>1804.4</ele>
        <time>2017-07-28T10:34:17Z</time>
      </trkpt>
      <trkpt lat="44.9864050" lon="6.7727230">
        <ele>1804.6</ele>
        <time>2017-07-28T10:34:22Z</time>
      </trkpt>
      <trkpt lat="44.9865060" lon="6.7727390">
        <ele>1805.4</ele>
        <time>2017-07-28T10:34:28Z</time>
      </trkpt>
      <trkpt lat="44.9865210" lon="6.7727420">
        <ele>1805.4</ele>
        <time>2017-07-28T10:34:29Z</time>
      </trkpt>
      <trkpt lat="44.9865710" lon="6.7727470">
        <ele>1806.6</ele>
        <time>2017-07-28T10:34:32Z</time>
      </trkpt>
      <trkpt lat="44.9866100" lon="6.7727520">
        <ele>1807.6</ele>
        <time>2017-07-28T10:34:35Z</time>
      </trkpt>
      <trkpt lat="44.9866530" lon="6.7727590">
        <ele>1808.4</ele>
        <time>2017-07-28T10:34:38Z</time>
      </trkpt>
      <trkpt lat="44.9866710" lon="6.7727680">
        <ele>1808.6</ele>
        <time>2017-07-28T10:34:39Z</time>
      </trkpt>
      <trkpt lat="44.9867540" lon="6.7728400">
        <ele>1809.8</ele>
        <time>2017-07-28T10:34:43Z</time>
      </trkpt>
      <trkpt lat="44.9867720" lon="6.7728560">
        <ele>1810.0</ele>
        <time>2017-07-28T10:34:44Z</time>
      </trkpt>
      <trkpt lat="44.9868370" lon="6.7728890">
        <ele>1810.4</ele>
        <time>2017-07-28T10:34:47Z</time>
      </trkpt>
      <trkpt lat="44.9868760" lon="6.7728820">
        <ele>1811.0</ele>
        <time>2017-07-28T10:34:49Z</time>
      </trkpt>
      <trkpt lat="44.9868990" lon="6.7728480">
        <ele>1812.0</ele>
        <time>2017-07-28T10:34:51Z</time>
      </trkpt>
      <trkpt lat="44.9869070" lon="6.7728270">
        <ele>1812.4</ele>
        <time>2017-07-28T10:34:52Z</time>
      </trkpt>
      <trkpt lat="44.9869100" lon="6.7728050">
        <ele>1812.8</ele>
        <time>2017-07-28T10:34:53Z</time>
      </trkpt>
      <trkpt lat="44.9869090" lon="6.7727860">
        <ele>1813.2</ele>
        <time>2017-07-28T10:34:54Z</time>
      </trkpt>
      <trkpt lat="44.9868920" lon="6.7727660">
        <ele>1814.2</ele>
        <time>2017-07-28T10:34:56Z</time>
      </trkpt>
      <trkpt lat="44.9868610" lon="6.7727460">
        <ele>1815.2</ele>
        <time>2017-07-28T10:34:59Z</time>
      </trkpt>
      <trkpt lat="44.9868260" lon="6.7726670">
        <ele>1816.4</ele>
        <time>2017-07-28T10:35:04Z</time>
      </trkpt>
      <trkpt lat="44.9868180" lon="6.7726510">
        <ele>1816.8</ele>
        <time>2017-07-28T10:35:05Z</time>
      </trkpt>
      <trkpt lat="44.9867450" lon="6.7725500">
        <ele>1817.4</ele>
        <time>2017-07-28T10:35:11Z</time>
      </trkpt>
      <trkpt lat="44.9867340" lon="6.7725320">
        <ele>1817.4</ele>
        <time>2017-07-28T10:35:12Z</time>
      </trkpt>
      <trkpt lat="44.9866520" lon="6.7724200">
        <ele>1817.4</ele>
        <time>2017-07-28T10:35:19Z</time>
      </trkpt>
      <trkpt lat="44.9865930" lon="6.7723690">
        <ele>1818.6</ele>
        <time>2017-07-28T10:35:23Z</time>
      </trkpt>
      <trkpt lat="44.9865550" lon="6.7723260">
        <ele>1819.0</ele>
        <time>2017-07-28T10:35:26Z</time>
      </trkpt>
      <trkpt lat="44.9864910" lon="6.7722540">
        <ele>1819.8</ele>
        <time>2017-07-28T10:35:31Z</time>
      </trkpt>
      <trkpt lat="44.9864680" lon="6.7722220">
        <ele>1820.6</ele>
        <time>2017-07-28T10:35:33Z</time>
      </trkpt>
      <trkpt lat="44.9864010" lon="6.7721160">
        <ele>1821.0</ele>
        <time>2017-07-28T10:35:39Z</time>
      </trkpt>
      <trkpt lat="44.9863230" lon="6.7719420">
        <ele>1821.4</ele>
        <time>2017-07-28T10:35:47Z</time>
      </trkpt>
      <trkpt lat="44.9862910" lon="6.7718490">
        <ele>1822.2</ele>
        <time>2017-07-28T10:35:51Z</time>
      </trkpt>
      <trkpt lat="44.9862670" lon="6.7718100">
        <ele>1822.6</ele>
        <time>2017-07-28T10:35:53Z</time>
      </trkpt>
      <trkpt lat="44.9861980" lon="6.7717140">
        <ele>1823.4</ele>
        <time>2017-07-28T10:35:58Z</time>
      </trkpt>
      <trkpt lat="44.9861360" lon="6.7716290">
        <ele>1824.2</ele>
        <time>2017-07-28T10:36:02Z</time>
      </trkpt>
      <trkpt lat="44.9861050" lon="6.7716070">
        <ele>1824.6</ele>
        <time>2017-07-28T10:36:04Z</time>
      </trkpt>
      <trkpt lat="44.9860550" lon="6.7715320">
        <ele>1825.8</ele>
        <time>2017-07-28T10:36:08Z</time>
      </trkpt>
      <trkpt lat="44.9860070" lon="6.7714430">
        <ele>1827.0</ele>
        <time>2017-07-28T10:36:13Z</time>
      </trkpt>
      <trkpt lat="44.9860020" lon="6.7714260">
        <ele>1827.2</ele>
        <time>2017-07-28T10:36:14Z</time>
      </trkpt>
      <trkpt lat="44.9859920" lon="6.7713140">
        <ele>1828.0</ele>
        <time>2017-07-28T10:36:19Z</time>
      </trkpt>
      <trkpt lat="44.9859910" lon="6.7712920">
        <ele>1828.0</ele>
        <time>2017-07-28T10:36:20Z</time>
      </trkpt>
      <trkpt lat="44.9860030" lon="6.7711280">
        <ele>1828.8</ele>
        <time>2017-07-28T10:36:27Z</time>
      </trkpt>
      <trkpt lat="44.9860090" lon="6.7711050">
        <ele>1829.2</ele>
        <time>2017-07-28T10:36:28Z</time>
      </trkpt>
      <trkpt lat="44.9860330" lon="6.7709560">
        <ele>1830.4</ele>
        <time>2017-07-28T10:36:35Z</time>
      </trkpt>
      <trkpt lat="44.9860440" lon="6.7709370">
        <ele>1830.6</ele>
        <time>2017-07-28T10:36:36Z</time>
      </trkpt>
      <trkpt lat="44.9860860" lon="6.7708990">
        <ele>1831.8</ele>
        <time>2017-07-28T10:36:39Z</time>
      </trkpt>
      <trkpt lat="44.9861030" lon="6.7709040">
        <ele>1832.2</ele>
        <time>2017-07-28T10:36:40Z</time>
      </trkpt>
      <trkpt lat="44.9861180" lon="6.7709100">
        <ele>1832.4</ele>
        <time>2017-07-28T10:36:41Z</time>
      </trkpt>
      <trkpt lat="44.9861440" lon="6.7709290">
        <ele>1833.0</ele>
        <time>2017-07-28T10:36:43Z</time>
      </trkpt>
      <trkpt lat="44.9861590" lon="6.7709590">
        <ele>1833.4</ele>
        <time>2017-07-28T10:36:45Z</time>
      </trkpt>
      <trkpt lat="44.9861670" lon="6.7710000">
        <ele>1834.2</ele>
        <time>2017-07-28T10:36:47Z</time>
      </trkpt>
      <trkpt lat="44.9861700" lon="6.7710420">
        <ele>1835.4</ele>
        <time>2017-07-28T10:36:49Z</time>
      </trkpt>
      <trkpt lat="44.9861720" lon="6.7710690">
        <ele>1836.0</ele>
        <time>2017-07-28T10:36:50Z</time>
      </trkpt>
      <trkpt lat="44.9861770" lon="6.7710930">
        <ele>1836.4</ele>
        <time>2017-07-28T10:36:51Z</time>
      </trkpt>
      <trkpt lat="44.9861800" lon="6.7711470">
        <ele>1837.6</ele>
        <time>2017-07-28T10:36:53Z</time>
      </trkpt>
      <trkpt lat="44.9861850" lon="6.7711680">
        <ele>1838.2</ele>
        <time>2017-07-28T10:36:54Z</time>
      </trkpt>
      <trkpt lat="44.9861950" lon="6.7711850">
        <ele>1839.2</ele>
        <time>2017-07-28T10:36:55Z</time>
      </trkpt>
      <trkpt lat="44.9862350" lon="6.7712290">
        <ele>1840.6</ele>
        <time>2017-07-28T10:36:58Z</time>
      </trkpt>
      <trkpt lat="44.9862690" lon="6.7712490">
        <ele>1841.4</ele>
        <time>2017-07-28T10:37:00Z</time>
      </trkpt>
      <trkpt lat="44.9862830" lon="6.7712470">
        <ele>1842.0</ele>
        <time>2017-07-28T10:37:01Z</time>
      </trkpt>
      <trkpt lat="44.9863030" lon="6.7712310">
        <ele>1843.0</ele>
        <time>2017-07-28T10:37:03Z</time>
      </trkpt>
      <trkpt lat="44.9863170" lon="6.7712050">
        <ele>1843.8</ele>
        <time>2017-07-28T10:37:05Z</time>
      </trkpt>
      <trkpt lat="44.9863200" lon="6.7711910">
        <ele>1844.2</ele>
        <time>2017-07-28T10:37:06Z</time>
      </trkpt>
      <trkpt lat="44.9863150" lon="6.7711550">
        <ele>1844.8</ele>
        <time>2017-07-28T10:37:08Z</time>
      </trkpt>
      <trkpt lat="44.9863150" lon="6.7711250">
        <ele>1845.0</ele>
        <time>2017-07-28T10:37:10Z</time>
      </trkpt>
      <trkpt lat="44.9863180" lon="6.7711030">
        <ele>1845.4</ele>
        <time>2017-07-28T10:37:11Z</time>
      </trkpt>
      <trkpt lat="44.9863250" lon="6.7710430">
        <ele>1846.6</ele>
        <time>2017-07-28T10:37:14Z</time>
      </trkpt>
      <trkpt lat="44.9863300" lon="6.7708460">
        <ele>1848.0</ele>
        <time>2017-07-28T10:37:25Z</time>
      </trkpt>
      <trkpt lat="44.9863220" lon="6.7707550">
        <ele>1848.4</ele>
        <time>2017-07-28T10:37:31Z</time>
      </trkpt>
      <trkpt lat="44.9863180" lon="6.7706870">
        <ele>1849.2</ele>
        <time>2017-07-28T10:37:34Z</time>
      </trkpt>
      <trkpt lat="44.9863140" lon="6.7706080">
        <ele>1850.6</ele>
        <time>2017-07-28T10:37:38Z</time>
      </trkpt>
      <trkpt lat="44.9863120" lon="6.7705370">
        <ele>1851.8</ele>
        <time>2017-07-28T10:37:41Z</time>
      </trkpt>
      <trkpt lat="44.9863080" lon="6.7704930">
        <ele>1853.0</ele>
        <time>2017-07-28T10:37:43Z</time>
      </trkpt>
      <trkpt lat="44.9863110" lon="6.7704510">
        <ele>1853.4</ele>
        <time>2017-07-28T10:37:45Z</time>
      </trkpt>
      <trkpt lat="44.9863380" lon="6.7703960">
        <ele>1854.2</ele>
        <time>2017-07-28T10:37:50Z</time>
      </trkpt>
      <trkpt lat="44.9863480" lon="6.7703950">
        <ele>1854.6</ele>
        <time>2017-07-28T10:37:51Z</time>
      </trkpt>
      <trkpt lat="44.9863940" lon="6.7704500">
        <ele>1855.0</ele>
        <time>2017-07-28T10:37:56Z</time>
      </trkpt>
      <trkpt lat="44.9864010" lon="6.7704650">
        <ele>1855.2</ele>
        <time>2017-07-28T10:37:57Z</time>
      </trkpt>
      <trkpt lat="44.9864300" lon="6.7705060">
        <ele>1856.2</ele>
        <time>2017-07-28T10:38:00Z</time>
      </trkpt>
      <trkpt lat="44.9864360" lon="6.7705240">
        <ele>1856.2</ele>
        <time>2017-07-28T10:38:01Z</time>
      </trkpt>
      <trkpt lat="44.9864480" lon="6.7705610">
        <ele>1856.2</ele>
        <time>2017-07-28T10:38:04Z</time>
      </trkpt>
      <trkpt lat="44.9864780" lon="6.7706240">
        <ele>1857.6</ele>
        <time>2017-07-28T10:38:08Z</time>
      </trkpt>
      <trkpt lat="44.9864960" lon="6.7706510">
        <ele>1858.4</ele>
        <time>2017-07-28T10:38:10Z</time>
      </trkpt>
      <trkpt lat="44.9865060" lon="6.7706650">
        <ele>1858.8</ele>
        <time>2017-07-28T10:38:11Z</time>
      </trkpt>
      <trkpt lat="44.9865310" lon="6.7707070">
        <ele>1859.8</ele>
        <time>2017-07-28T10:38:14Z</time>
      </trkpt>
      <trkpt lat="44.9865660" lon="6.7707580">
        <ele>1861.0</ele>
        <time>2017-07-28T10:38:17Z</time>
      </trkpt>
      <trkpt lat="44.9865780" lon="6.7707730">
        <ele>1861.4</ele>
        <time>2017-07-28T10:38:18Z</time>
      </trkpt>
      <trkpt lat="44.9866000" lon="6.7708120">
        <ele>1859.8</ele>
        <time>2017-07-28T10:38:21Z</time>
      </trkpt>
      <trkpt lat="44.9866340" lon="6.7708560">
        <ele>1861.8</ele>
        <time>2017-07-28T10:38:24Z</time>
      </trkpt>
      <trkpt lat="44.9866740" lon="6.7709180">
        <ele>1862.8</ele>
        <time>2017-07-28T10:38:28Z</time>
      </trkpt>
      <trkpt lat="44.9867200" lon="6.7709530">
        <ele>1863.8</ele>
        <time>2017-07-28T10:38:32Z</time>
      </trkpt>
      <trkpt lat="44.9867560" lon="6.7709650">
        <ele>1863.6</ele>
        <time>2017-07-28T10:38:35Z</time>
      </trkpt>
      <trkpt lat="44.9867820" lon="6.7709640">
        <ele>1863.8</ele>
        <time>2017-07-28T10:38:37Z</time>
      </trkpt>
      <trkpt lat="44.9867950" lon="6.7709730">
        <ele>1864.0</ele>
        <time>2017-07-28T10:38:38Z</time>
      </trkpt>
      <trkpt lat="44.9868460" lon="6.7710260">
        <ele>1865.0</ele>
        <time>2017-07-28T10:38:42Z</time>
      </trkpt>
      <trkpt lat="44.9868560" lon="6.7710340">
        <ele>1865.0</ele>
        <time>2017-07-28T10:38:43Z</time>
      </trkpt>
      <trkpt lat="44.9869170" lon="6.7711000">
        <ele>1865.0</ele>
        <time>2017-07-28T10:38:49Z</time>
      </trkpt>
      <trkpt lat="44.9869960" lon="6.7711300">
        <ele>1865.2</ele>
        <time>2017-07-28T10:38:55Z</time>
      </trkpt>
      <trkpt lat="44.9870800" lon="6.7711790">
        <ele>1866.0</ele>
        <time>2017-07-28T10:39:02Z</time>
      </trkpt>
      <trkpt lat="44.9871070" lon="6.7711940">
        <ele>1866.0</ele>
        <time>2017-07-28T10:39:04Z</time>
      </trkpt>
      <trkpt lat="44.9871760" lon="6.7712340">
        <ele>1866.4</ele>
        <time>2017-07-28T10:39:09Z</time>
      </trkpt>
      <trkpt lat="44.9872290" lon="6.7712660">
        <ele>1867.2</ele>
        <time>2017-07-28T10:39:14Z</time>
      </trkpt>
      <trkpt lat="44.9872640" lon="6.7712780">
        <ele>1867.6</ele>
        <time>2017-07-28T10:39:17Z</time>
      </trkpt>
      <trkpt lat="44.9872920" lon="6.7713140">
        <ele>1868.8</ele>
        <time>2017-07-28T10:39:20Z</time>
      </trkpt>
      <trkpt lat="44.9873120" lon="6.7713290">
        <ele>1869.8</ele>
        <time>2017-07-28T10:39:22Z</time>
      </trkpt>
      <trkpt lat="44.9873230" lon="6.7713300">
        <ele>1870.4</ele>
        <time>2017-07-28T10:39:23Z</time>
      </trkpt>
      <trkpt lat="44.9873440" lon="6.7713040">
        <ele>1871.4</ele>
        <time>2017-07-28T10:39:25Z</time>
      </trkpt>
      <trkpt lat="44.9873520" lon="6.7712720">
        <ele>1872.2</ele>
        <time>2017-07-28T10:39:27Z</time>
      </trkpt>
      <trkpt lat="44.9873460" lon="6.7712530">
        <ele>1872.6</ele>
        <time>2017-07-28T10:39:28Z</time>
      </trkpt>
      <trkpt lat="44.9873330" lon="6.7712210">
        <ele>1873.0</ele>
        <time>2017-07-28T10:39:30Z</time>
      </trkpt>
      <trkpt lat="44.9873170" lon="6.7711990">
        <ele>1873.6</ele>
        <time>2017-07-28T10:39:32Z</time>
      </trkpt>
      <trkpt lat="44.9873060" lon="6.7711860">
        <ele>1874.0</ele>
        <time>2017-07-28T10:39:33Z</time>
      </trkpt>
      <trkpt lat="44.9872710" lon="6.7711540">
        <ele>1875.0</ele>
        <time>2017-07-28T10:39:36Z</time>
      </trkpt>
      <trkpt lat="44.9872550" lon="6.7711340">
        <ele>1875.8</ele>
        <time>2017-07-28T10:39:38Z</time>
      </trkpt>
      <trkpt lat="44.9872480" lon="6.7711190">
        <ele>1875.8</ele>
        <time>2017-07-28T10:39:39Z</time>
      </trkpt>
      <trkpt lat="44.9872410" lon="6.7711020">
        <ele>1876.0</ele>
        <time>2017-07-28T10:39:40Z</time>
      </trkpt>
      <trkpt lat="44.9872250" lon="6.7710140">
        <ele>1878.0</ele>
        <time>2017-07-28T10:39:44Z</time>
      </trkpt>
      <trkpt lat="44.9872190" lon="6.7709940">
        <ele>1878.4</ele>
        <time>2017-07-28T10:39:45Z</time>
      </trkpt>
      <trkpt lat="44.9872050" lon="6.7709550">
        <ele>1879.2</ele>
        <time>2017-07-28T10:39:47Z</time>
      </trkpt>
      <trkpt lat="44.9871800" lon="6.7708940">
        <ele>1880.4</ele>
        <time>2017-07-28T10:39:50Z</time>
      </trkpt>
      <trkpt lat="44.9871710" lon="6.7708440">
        <ele>1881.2</ele>
        <time>2017-07-28T10:39:52Z</time>
      </trkpt>
      <trkpt lat="44.9871590" lon="6.7707130">
        <ele>1881.6</ele>
        <time>2017-07-28T10:39:57Z</time>
      </trkpt>
      <trkpt lat="44.9871600" lon="6.7706380">
        <ele>1882.0</ele>
        <time>2017-07-28T10:40:00Z</time>
      </trkpt>
      <trkpt lat="44.9871680" lon="6.7704690">
        <ele>1882.2</ele>
        <time>2017-07-28T10:40:07Z</time>
      </trkpt>
      <trkpt lat="44.9871660" lon="6.7703040">
        <ele>1882.8</ele>
        <time>2017-07-28T10:40:15Z</time>
      </trkpt>
      <trkpt lat="44.9871620" lon="6.7702610">
        <ele>1882.8</ele>
        <time>2017-07-28T10:40:17Z</time>
      </trkpt>
      <trkpt lat="44.9871440" lon="6.7701930">
        <ele>1882.8</ele>
        <time>2017-07-28T10:40:21Z</time>
      </trkpt>
      <trkpt lat="44.9871120" lon="6.7701460">
        <ele>1883.0</ele>
        <time>2017-07-28T10:40:24Z</time>
      </trkpt>
      <trkpt lat="44.9870390" lon="6.7700400">
        <ele>1883.8</ele>
        <time>2017-07-28T10:40:31Z</time>
      </trkpt>
      <trkpt lat="44.9870260" lon="6.7700290">
        <ele>1884.0</ele>
        <time>2017-07-28T10:40:32Z</time>
      </trkpt>
      <trkpt lat="44.9869550" lon="6.7699240">
        <ele>1885.2</ele>
        <time>2017-07-28T10:40:39Z</time>
      </trkpt>
      <trkpt lat="44.9869510" lon="6.7699060">
        <ele>1885.2</ele>
        <time>2017-07-28T10:40:40Z</time>
      </trkpt>
      <trkpt lat="44.9869270" lon="6.7697780">
        <ele>1886.0</ele>
        <time>2017-07-28T10:40:47Z</time>
      </trkpt>
      <trkpt lat="44.9869230" lon="6.7697540">
        <ele>1886.4</ele>
        <time>2017-07-28T10:40:48Z</time>
      </trkpt>
      <trkpt lat="44.9869100" lon="6.7696570">
        <ele>1887.4</ele>
        <time>2017-07-28T10:40:53Z</time>
      </trkpt>
      <trkpt lat="44.9869050" lon="6.7696380">
        <ele>1887.6</ele>
        <time>2017-07-28T10:40:54Z</time>
      </trkpt>
      <trkpt lat="44.9868920" lon="6.7695870">
        <ele>1888.4</ele>
        <time>2017-07-28T10:40:57Z</time>
      </trkpt>
      <trkpt lat="44.9868880" lon="6.7695450">
        <ele>1888.6</ele>
        <time>2017-07-28T10:40:59Z</time>
      </trkpt>
      <trkpt lat="44.9868920" lon="6.7695030">
        <ele>1888.8</ele>
        <time>2017-07-28T10:41:01Z</time>
      </trkpt>
      <trkpt lat="44.9869020" lon="6.7694580">
        <ele>1889.4</ele>
        <time>2017-07-28T10:41:03Z</time>
      </trkpt>
      <trkpt lat="44.9869340" lon="6.7693820">
        <ele>1890.8</ele>
        <time>2017-07-28T10:41:07Z</time>
      </trkpt>
      <trkpt lat="44.9869390" lon="6.7693590">
        <ele>1891.2</ele>
        <time>2017-07-28T10:41:08Z</time>
      </trkpt>
      <trkpt lat="44.9869590" lon="6.7693100">
        <ele>1891.8</ele>
        <time>2017-07-28T10:41:11Z</time>
      </trkpt>
      <trkpt lat="44.9869770" lon="6.7692600">
        <ele>1892.8</ele>
        <time>2017-07-28T10:41:14Z</time>
      </trkpt>
      <trkpt lat="44.9869810" lon="6.7692430">
        <ele>1893.2</ele>
        <time>2017-07-28T10:41:15Z</time>
      </trkpt>
      <trkpt lat="44.9870000" lon="6.7691710">
        <ele>1894.0</ele>
        <time>2017-07-28T10:41:19Z</time>
      </trkpt>
      <trkpt lat="44.9870010" lon="6.7691510">
        <ele>1894.2</ele>
        <time>2017-07-28T10:41:20Z</time>
      </trkpt>
      <trkpt lat="44.9870010" lon="6.7691310">
        <ele>1894.4</ele>
        <time>2017-07-28T10:41:21Z</time>
      </trkpt>
      <trkpt lat="44.9869930" lon="6.7690930">
        <ele>1894.6</ele>
        <time>2017-07-28T10:41:23Z</time>
      </trkpt>
      <trkpt lat="44.9869770" lon="6.7690610">
        <ele>1895.2</ele>
        <time>2017-07-28T10:41:25Z</time>
      </trkpt>
      <trkpt lat="44.9869620" lon="6.7690510">
        <ele>1895.4</ele>
        <time>2017-07-28T10:41:26Z</time>
      </trkpt>
      <trkpt lat="44.9869450" lon="6.7690450">
        <ele>1896.0</ele>
        <time>2017-07-28T10:41:27Z</time>
      </trkpt>
      <trkpt lat="44.9869090" lon="6.7690440">
        <ele>1896.6</ele>
        <time>2017-07-28T10:41:29Z</time>
      </trkpt>
      <trkpt lat="44.9868530" lon="6.7690440">
        <ele>1898.0</ele>
        <time>2017-07-28T10:41:32Z</time>
      </trkpt>
      <trkpt lat="44.9868370" lon="6.7690490">
        <ele>1898.4</ele>
        <time>2017-07-28T10:41:33Z</time>
      </trkpt>
      <trkpt lat="44.9867990" lon="6.7690600">
        <ele>1899.2</ele>
        <time>2017-07-28T10:41:35Z</time>
      </trkpt>
      <trkpt lat="44.9867320" lon="6.7690760">
        <ele>1900.2</ele>
        <time>2017-07-28T10:41:39Z</time>
      </trkpt>
      <trkpt lat="44.9866980" lon="6.7690710">
        <ele>1901.0</ele>
        <time>2017-07-28T10:41:41Z</time>
      </trkpt>
      <trkpt lat="44.9866650" lon="6.7690800">
        <ele>1901.6</ele>
        <time>2017-07-28T10:41:43Z</time>
      </trkpt>
      <trkpt lat="44.9866020" lon="6.7690880">
        <ele>1902.8</ele>
        <time>2017-07-28T10:41:47Z</time>
      </trkpt>
      <trkpt lat="44.9865860" lon="6.7690880">
        <ele>1903.2</ele>
        <time>2017-07-28T10:41:48Z</time>
      </trkpt>
      <trkpt lat="44.9865180" lon="6.7690480">
        <ele>1904.2</ele>
        <time>2017-07-28T10:41:52Z</time>
      </trkpt>
      <trkpt lat="44.9864880" lon="6.7690220">
        <ele>1904.8</ele>
        <time>2017-07-28T10:41:54Z</time>
      </trkpt>
      <trkpt lat="44.9864580" lon="6.7689850">
        <ele>1905.4</ele>
        <time>2017-07-28T10:41:56Z</time>
      </trkpt>
      <trkpt lat="44.9864120" lon="6.7689310">
        <ele>1906.6</ele>
        <time>2017-07-28T10:41:59Z</time>
      </trkpt>
      <trkpt lat="44.9863730" lon="6.7689070">
        <ele>1907.2</ele>
        <time>2017-07-28T10:42:01Z</time>
      </trkpt>
      <trkpt lat="44.9863530" lon="6.7688920">
        <ele>1907.6</ele>
        <time>2017-07-28T10:42:02Z</time>
      </trkpt>
      <trkpt lat="44.9863110" lon="6.7688500">
        <ele>1908.8</ele>
        <time>2017-07-28T10:42:05Z</time>
      </trkpt>
      <trkpt lat="44.9862880" lon="6.7688040">
        <ele>1909.6</ele>
        <time>2017-07-28T10:42:07Z</time>
      </trkpt>
      <trkpt lat="44.9862790" lon="6.7687820">
        <ele>1909.8</ele>
        <time>2017-07-28T10:42:08Z</time>
      </trkpt>
      <trkpt lat="44.9862460" lon="6.7687140">
        <ele>1911.0</ele>
        <time>2017-07-28T10:42:11Z</time>
      </trkpt>
      <trkpt lat="44.9862250" lon="6.7686640">
        <ele>1912.0</ele>
        <time>2017-07-28T10:42:13Z</time>
      </trkpt>
      <trkpt lat="44.9862120" lon="6.7686430">
        <ele>1912.4</ele>
        <time>2017-07-28T10:42:14Z</time>
      </trkpt>
      <trkpt lat="44.9861570" lon="6.7685810">
        <ele>1913.8</ele>
        <time>2017-07-28T10:42:18Z</time>
      </trkpt>
      <trkpt lat="44.9861210" lon="6.7685380">
        <ele>1914.8</ele>
        <time>2017-07-28T10:42:21Z</time>
      </trkpt>
      <trkpt lat="44.9860780" lon="6.7684990">
        <ele>1916.0</ele>
        <time>2017-07-28T10:42:24Z</time>
      </trkpt>
      <trkpt lat="44.9860230" lon="6.7684460">
        <ele>1917.2</ele>
        <time>2017-07-28T10:42:28Z</time>
      </trkpt>
      <trkpt lat="44.9859690" lon="6.7684060">
        <ele>1918.2</ele>
        <time>2017-07-28T10:42:32Z</time>
      </trkpt>
      <trkpt lat="44.9859230" lon="6.7683700">
        <ele>1919.4</ele>
        <time>2017-07-28T10:42:35Z</time>
      </trkpt>
      <trkpt lat="44.9859090" lon="6.7683560">
        <ele>1919.6</ele>
        <time>2017-07-28T10:42:36Z</time>
      </trkpt>
      <trkpt lat="44.9858490" lon="6.7682910">
        <ele>1920.4</ele>
        <time>2017-07-28T10:42:40Z</time>
      </trkpt>
      <trkpt lat="44.9858120" lon="6.7682250">
        <ele>1921.2</ele>
        <time>2017-07-28T10:42:44Z</time>
      </trkpt>
      <trkpt lat="44.9856990" lon="6.7680970">
        <ele>1921.2</ele>
        <time>2017-07-28T10:42:51Z</time>
      </trkpt>
      <trkpt lat="44.9856090" lon="6.7679290">
        <ele>1920.4</ele>
        <time>2017-07-28T10:42:58Z</time>
      </trkpt>
      <trkpt lat="44.9855050" lon="6.7678000">
        <ele>1920.0</ele>
        <time>2017-07-28T10:43:05Z</time>
      </trkpt>
      <trkpt lat="44.9853970" lon="6.7676920">
        <ele>1920.0</ele>
        <time>2017-07-28T10:43:12Z</time>
      </trkpt>
      <trkpt lat="44.9852180" lon="6.7675810">
        <ele>1921.2</ele>
        <time>2017-07-28T10:43:22Z</time>
      </trkpt>
      <trkpt lat="44.9852030" lon="6.7675660">
        <ele>1921.6</ele>
        <time>2017-07-28T10:43:23Z</time>
      </trkpt>
      <trkpt lat="44.9851560" lon="6.7675300">
        <ele>1923.0</ele>
        <time>2017-07-28T10:43:26Z</time>
      </trkpt>
      <trkpt lat="44.9851230" lon="6.7675080">
        <ele>1924.0</ele>
        <time>2017-07-28T10:43:28Z</time>
      </trkpt>
      <trkpt lat="44.9851050" lon="6.7675010">
        <ele>1924.4</ele>
        <time>2017-07-28T10:43:29Z</time>
      </trkpt>
      <trkpt lat="44.9850540" lon="6.7674850">
        <ele>1925.8</ele>
        <time>2017-07-28T10:43:32Z</time>
      </trkpt>
      <trkpt lat="44.9850020" lon="6.7674500">
        <ele>1926.4</ele>
        <time>2017-07-28T10:43:35Z</time>
      </trkpt>
      <trkpt lat="44.9849810" lon="6.7674400">
        <ele>1926.8</ele>
        <time>2017-07-28T10:43:36Z</time>
      </trkpt>
      <trkpt lat="44.9849430" lon="6.7674200">
        <ele>1927.8</ele>
        <time>2017-07-28T10:43:38Z</time>
      </trkpt>
      <trkpt lat="44.9849030" lon="6.7673890">
        <ele>1929.2</ele>
        <time>2017-07-28T10:43:41Z</time>
      </trkpt>
      <trkpt lat="44.9848880" lon="6.7673760">
        <ele>1929.6</ele>
        <time>2017-07-28T10:43:42Z</time>
      </trkpt>
      <trkpt lat="44.9848480" lon="6.7673220">
        <ele>1930.2</ele>
        <time>2017-07-28T10:43:45Z</time>
      </trkpt>
      <trkpt lat="44.9848450" lon="6.7672940">
        <ele>1930.6</ele>
        <time>2017-07-28T10:43:46Z</time>
      </trkpt>
      <trkpt lat="44.9848300" lon="6.7672280">
        <ele>1931.2</ele>
        <time>2017-07-28T10:43:48Z</time>
      </trkpt>
      <trkpt lat="44.9848230" lon="6.7671960">
        <ele>1931.4</ele>
        <time>2017-07-28T10:43:49Z</time>
      </trkpt>
      <trkpt lat="44.9848150" lon="6.7670410">
        <ele>1932.6</ele>
        <time>2017-07-28T10:43:53Z</time>
      </trkpt>
      <trkpt lat="44.9848240" lon="6.7669910">
        <ele>1932.8</ele>
        <time>2017-07-28T10:43:54Z</time>
      </trkpt>
      <trkpt lat="44.9848350" lon="6.7668390">
        <ele>1933.6</ele>
        <time>2017-07-28T10:43:57Z</time>
      </trkpt>
      <trkpt lat="44.9848370" lon="6.7666860">
        <ele>1934.0</ele>
        <time>2017-07-28T10:44:00Z</time>
      </trkpt>
      <trkpt lat="44.9848600" lon="6.7663830">
        <ele>1934.0</ele>
        <time>2017-07-28T10:44:06Z</time>
      </trkpt>
      <trkpt lat="44.9848660" lon="6.7662880">
        <ele>1934.6</ele>
        <time>2017-07-28T10:44:08Z</time>
      </trkpt>
      <trkpt lat="44.9848800" lon="6.7662060">
        <ele>1935.8</ele>
        <time>2017-07-28T10:44:10Z</time>
      </trkpt>
      <trkpt lat="44.9848820" lon="6.7661220">
        <ele>1936.4</ele>
        <time>2017-07-28T10:44:12Z</time>
      </trkpt>
      <trkpt lat="44.9848790" lon="6.7660420">
        <ele>1937.0</ele>
        <time>2017-07-28T10:44:14Z</time>
      </trkpt>
      <trkpt lat="44.9848770" lon="6.7658990">
        <ele>1938.0</ele>
        <time>2017-07-28T10:44:18Z</time>
      </trkpt>
      <trkpt lat="44.9848730" lon="6.7658650">
        <ele>1938.0</ele>
        <time>2017-07-28T10:44:19Z</time>
      </trkpt>
      <trkpt lat="44.9848560" lon="6.7656690">
        <ele>1937.6</ele>
        <time>2017-07-28T10:44:26Z</time>
      </trkpt>
      <trkpt lat="44.9847880" lon="6.7655140">
        <ele>1938.2</ele>
        <time>2017-07-28T10:44:33Z</time>
      </trkpt>
      <trkpt lat="44.9847470" lon="6.7654070">
        <ele>1939.0</ele>
        <time>2017-07-28T10:44:39Z</time>
      </trkpt>
      <trkpt lat="44.9847400" lon="6.7653810">
        <ele>1939.2</ele>
        <time>2017-07-28T10:44:40Z</time>
      </trkpt>
      <trkpt lat="44.9847140" lon="6.7652990">
        <ele>1940.4</ele>
        <time>2017-07-28T10:44:44Z</time>
      </trkpt>
      <trkpt lat="44.9846930" lon="6.7652350">
        <ele>1940.6</ele>
        <time>2017-07-28T10:44:48Z</time>
      </trkpt>
      <trkpt lat="44.9846480" lon="6.7651420">
        <ele>1941.2</ele>
        <time>2017-07-28T10:44:54Z</time>
      </trkpt>
      <trkpt lat="44.9846440" lon="6.7651240">
        <ele>1941.6</ele>
        <time>2017-07-28T10:44:55Z</time>
      </trkpt>
      <trkpt lat="44.9846250" lon="6.7650950">
        <ele>1942.6</ele>
        <time>2017-07-28T10:44:57Z</time>
      </trkpt>
      <trkpt lat="44.9846140" lon="6.7650800">
        <ele>1942.8</ele>
        <time>2017-07-28T10:44:58Z</time>
      </trkpt>
      <trkpt lat="44.9845820" lon="6.7650410">
        <ele>1944.0</ele>
        <time>2017-07-28T10:45:01Z</time>
      </trkpt>
      <trkpt lat="44.9845630" lon="6.7650100">
        <ele>1945.0</ele>
        <time>2017-07-28T10:45:03Z</time>
      </trkpt>
      <trkpt lat="44.9845420" lon="6.7649790">
        <ele>1946.0</ele>
        <time>2017-07-28T10:45:05Z</time>
      </trkpt>
      <trkpt lat="44.9845140" lon="6.7649430">
        <ele>1947.4</ele>
        <time>2017-07-28T10:45:08Z</time>
      </trkpt>
      <trkpt lat="44.9844990" lon="6.7649170">
        <ele>1948.2</ele>
        <time>2017-07-28T10:45:10Z</time>
      </trkpt>
      <trkpt lat="44.9844870" lon="6.7649060">
        <ele>1948.8</ele>
        <time>2017-07-28T10:45:11Z</time>
      </trkpt>
      <trkpt lat="44.9844600" lon="6.7648820">
        <ele>1949.8</ele>
        <time>2017-07-28T10:45:13Z</time>
      </trkpt>
      <trkpt lat="44.9844330" lon="6.7648550">
        <ele>1950.8</ele>
        <time>2017-07-28T10:45:15Z</time>
      </trkpt>
      <trkpt lat="44.9844010" lon="6.7648020">
        <ele>1952.2</ele>
        <time>2017-07-28T10:45:18Z</time>
      </trkpt>
      <trkpt lat="44.9843600" lon="6.7647610">
        <ele>1953.4</ele>
        <time>2017-07-28T10:45:21Z</time>
      </trkpt>
      <trkpt lat="44.9843050" lon="6.7647140">
        <ele>1954.6</ele>
        <time>2017-07-28T10:45:25Z</time>
      </trkpt>
      <trkpt lat="44.9842570" lon="6.7646760">
        <ele>1955.6</ele>
        <time>2017-07-28T10:45:29Z</time>
      </trkpt>
      <trkpt lat="44.9842200" lon="6.7646310">
        <ele>1956.8</ele>
        <time>2017-07-28T10:45:33Z</time>
      </trkpt>
      <trkpt lat="44.9841580" lon="6.7645180">
        <ele>1956.8</ele>
        <time>2017-07-28T10:45:41Z</time>
      </trkpt>
      <trkpt lat="44.9841400" lon="6.7644500">
        <ele>1955.8</ele>
        <time>2017-07-28T10:45:45Z</time>
      </trkpt>
      <trkpt lat="44.9841410" lon="6.7644140">
        <ele>1955.4</ele>
        <time>2017-07-28T10:45:47Z</time>
      </trkpt>
      <trkpt lat="44.9841550" lon="6.7643490">
        <ele>1955.0</ele>
        <time>2017-07-28T10:45:51Z</time>
      </trkpt>
      <trkpt lat="44.9841720" lon="6.7642970">
        <ele>1955.0</ele>
        <time>2017-07-28T10:45:54Z</time>
      </trkpt>
      <trkpt lat="44.9841640" lon="6.7641340">
        <ele>1956.4</ele>
        <time>2017-07-28T10:46:03Z</time>
      </trkpt>
      <trkpt lat="44.9841500" lon="6.7640950">
        <ele>1956.8</ele>
        <time>2017-07-28T10:46:05Z</time>
      </trkpt>
      <trkpt lat="44.9841480" lon="6.7640120">
        <ele>1958.4</ele>
        <time>2017-07-28T10:46:09Z</time>
      </trkpt>
      <trkpt lat="44.9841350" lon="6.7639780">
        <ele>1959.4</ele>
        <time>2017-07-28T10:46:11Z</time>
      </trkpt>
      <trkpt lat="44.9841280" lon="6.7639590">
        <ele>1959.8</ele>
        <time>2017-07-28T10:46:12Z</time>
      </trkpt>
      <trkpt lat="44.9841220" lon="6.7638990">
        <ele>1961.2</ele>
        <time>2017-07-28T10:46:15Z</time>
      </trkpt>
      <trkpt lat="44.9841150" lon="6.7638630">
        <ele>1962.2</ele>
        <time>2017-07-28T10:46:17Z</time>
      </trkpt>
      <trkpt lat="44.9841080" lon="6.7638440">
        <ele>1962.6</ele>
        <time>2017-07-28T10:46:18Z</time>
      </trkpt>
      <trkpt lat="44.9841030" lon="6.7637870">
        <ele>1964.0</ele>
        <time>2017-07-28T10:46:21Z</time>
      </trkpt>
      <trkpt lat="44.9840900" lon="6.7637250">
        <ele>1965.2</ele>
        <time>2017-07-28T10:46:24Z</time>
      </trkpt>
      <trkpt lat="44.9840670" lon="6.7636610">
        <ele>1966.4</ele>
        <time>2017-07-28T10:46:27Z</time>
      </trkpt>
      <trkpt lat="44.9840440" lon="6.7635990">
        <ele>1967.4</ele>
        <time>2017-07-28T10:46:30Z</time>
      </trkpt>
      <trkpt lat="44.9840360" lon="6.7635810">
        <ele>1967.8</ele>
        <time>2017-07-28T10:46:31Z</time>
      </trkpt>
      <trkpt lat="44.9840180" lon="6.7635470">
        <ele>1968.8</ele>
        <time>2017-07-28T10:46:33Z</time>
      </trkpt>
      <trkpt lat="44.9839660" lon="6.7634590">
        <ele>1970.0</ele>
        <time>2017-07-28T10:46:37Z</time>
      </trkpt>
      <trkpt lat="44.9839510" lon="6.7634350">
        <ele>1970.2</ele>
        <time>2017-07-28T10:46:38Z</time>
      </trkpt>
      <trkpt lat="44.9838760" lon="6.7633470">
        <ele>1971.0</ele>
        <time>2017-07-28T10:46:42Z</time>
      </trkpt>
      <trkpt lat="44.9838200" lon="6.7633240">
        <ele>1971.2</ele>
        <time>2017-07-28T10:46:44Z</time>
      </trkpt>
      <trkpt lat="44.9837050" lon="6.7632530">
        <ele>1972.0</ele>
        <time>2017-07-28T10:46:48Z</time>
      </trkpt>
      <trkpt lat="44.9836310" lon="6.7631520">
        <ele>1972.6</ele>
        <time>2017-07-28T10:46:51Z</time>
      </trkpt>
      <trkpt lat="44.9836070" lon="6.7630690">
        <ele>1972.8</ele>
        <time>2017-07-28T10:46:53Z</time>
      </trkpt>
      <trkpt lat="44.9836300" lon="6.7629690">
        <ele>1972.8</ele>
        <time>2017-07-28T10:46:55Z</time>
      </trkpt>
      <trkpt lat="44.9836800" lon="6.7627810">
        <ele>1971.8</ele>
        <time>2017-07-28T10:46:58Z</time>
      </trkpt>
      <trkpt lat="44.9837220" lon="6.7626520">
        <ele>1971.4</ele>
        <time>2017-07-28T10:47:00Z</time>
      </trkpt>
      <trkpt lat="44.9837410" lon="6.7625890">
        <ele>1971.4</ele>
        <time>2017-07-28T10:47:01Z</time>
      </trkpt>
      <trkpt lat="44.9837600" lon="6.7625160">
        <ele>1971.0</ele>
        <time>2017-07-28T10:47:02Z</time>
      </trkpt>
      <trkpt lat="44.9838350" lon="6.7622380">
        <ele>1970.4</ele>
        <time>2017-07-28T10:47:06Z</time>
      </trkpt>
      <trkpt lat="44.9838800" lon="6.7621340">
        <ele>1971.0</ele>
        <time>2017-07-28T10:47:08Z</time>
      </trkpt>
      <trkpt lat="44.9839540" lon="6.7619910">
        <ele>1971.8</ele>
        <time>2017-07-28T10:47:11Z</time>
      </trkpt>
      <trkpt lat="44.9839690" lon="6.7619680">
        <ele>1972.0</ele>
        <time>2017-07-28T10:47:12Z</time>
      </trkpt>
      <trkpt lat="44.9839960" lon="6.7619260">
        <ele>1972.2</ele>
        <time>2017-07-28T10:47:14Z</time>
      </trkpt>
      <trkpt lat="44.9839960" lon="6.7619080">
        <ele>1972.2</ele>
        <time>2017-07-28T10:47:15Z</time>
      </trkpt>
      <trkpt lat="44.9839680" lon="6.7618610">
        <ele>1971.8</ele>
        <time>2017-07-28T10:47:18Z</time>
      </trkpt>
      <trkpt lat="44.9837890" lon="6.7617820">
        <ele>1968.8</ele>
        <time>2017-07-28T10:47:44Z</time>
      </trkpt>
      <trkpt lat="44.9837810" lon="6.7617830">
        <ele>1968.4</ele>
        <time>2017-07-28T10:47:45Z</time>
      </trkpt>
      <trkpt lat="44.9837500" lon="6.7617820">
        <ele>1967.2</ele>
        <time>2017-07-28T10:47:50Z</time>
      </trkpt>
      <trkpt lat="44.9837270" lon="6.7617660">
        <ele>1967.0</ele>
        <time>2017-07-28T10:47:51Z</time>
      </trkpt>
      <trkpt lat="44.9837050" lon="6.7617650">
        <ele>1966.8</ele>
        <time>2017-07-28T10:47:52Z</time>
      </trkpt>
      <trkpt lat="44.9836290" lon="6.7617650">
        <ele>1966.0</ele>
        <time>2017-07-28T10:47:55Z</time>
      </trkpt>
      <trkpt lat="44.9835990" lon="6.7617660">
        <ele>1965.8</ele>
        <time>2017-07-28T10:47:56Z</time>
      </trkpt>
      <trkpt lat="44.9834800" lon="6.7617750">
        <ele>1965.6</ele>
        <time>2017-07-28T10:48:00Z</time>
      </trkpt>
      <trkpt lat="44.9833880" lon="6.7617940">
        <ele>1965.8</ele>
        <time>2017-07-28T10:48:03Z</time>
      </trkpt>
      <trkpt lat="44.9832080" lon="6.7618640">
        <ele>1966.4</ele>
        <time>2017-07-28T10:48:09Z</time>
      </trkpt>
      <trkpt lat="44.9830870" lon="6.7619030">
        <ele>1967.0</ele>
        <time>2017-07-28T10:48:14Z</time>
      </trkpt>
      <trkpt lat="44.9830630" lon="6.7619090">
        <ele>1967.2</ele>
        <time>2017-07-28T10:48:15Z</time>
      </trkpt>
      <trkpt lat="44.9829210" lon="6.7619720">
        <ele>1967.8</ele>
        <time>2017-07-28T10:48:22Z</time>
      </trkpt>
      <trkpt lat="44.9829060" lon="6.7619890">
        <ele>1968.0</ele>
        <time>2017-07-28T10:48:23Z</time>
      </trkpt>
      <trkpt lat="44.9828890" lon="6.7619980">
        <ele>1968.0</ele>
        <time>2017-07-28T10:48:24Z</time>
      </trkpt>
      <trkpt lat="44.9828330" lon="6.7620170">
        <ele>1968.4</ele>
        <time>2017-07-28T10:48:27Z</time>
      </trkpt>
      <trkpt lat="44.9827420" lon="6.7620340">
        <ele>1969.2</ele>
        <time>2017-07-28T10:48:32Z</time>
      </trkpt>
      <trkpt lat="44.9827150" lon="6.7620460">
        <ele>1969.6</ele>
        <time>2017-07-28T10:48:34Z</time>
      </trkpt>
      <trkpt lat="44.9826230" lon="6.7620830">
        <ele>1971.6</ele>
        <time>2017-07-28T10:48:47Z</time>
      </trkpt>
      <trkpt lat="44.9825640" lon="6.7621700">
        <ele>1971.6</ele>
        <time>2017-07-28T10:48:57Z</time>
      </trkpt>
      <trkpt lat="44.9824810" lon="6.7623020">
        <ele>1971.6</ele>
        <time>2017-07-28T10:49:04Z</time>
      </trkpt>
      <trkpt lat="44.9824100" lon="6.7624110">
        <ele>1972.8</ele>
        <time>2017-07-28T10:49:10Z</time>
      </trkpt>
      <trkpt lat="44.9824010" lon="6.7624310">
        <ele>1973.2</ele>
        <time>2017-07-28T10:49:11Z</time>
      </trkpt>
      <trkpt lat="44.9823600" lon="6.7625140">
        <ele>1973.8</ele>
        <time>2017-07-28T10:49:15Z</time>
      </trkpt>
      <trkpt lat="44.9823360" lon="6.7625550">
        <ele>1974.2</ele>
        <time>2017-07-28T10:49:17Z</time>
      </trkpt>
      <trkpt lat="44.9822930" lon="6.7625980">
        <ele>1975.0</ele>
        <time>2017-07-28T10:49:20Z</time>
      </trkpt>
      <trkpt lat="44.9822500" lon="6.7626680">
        <ele>1976.2</ele>
        <time>2017-07-28T10:49:24Z</time>
      </trkpt>
      <trkpt lat="44.9822090" lon="6.7627680">
        <ele>1977.4</ele>
        <time>2017-07-28T10:49:29Z</time>
      </trkpt>
      <trkpt lat="44.9822020" lon="6.7627920">
        <ele>1977.4</ele>
        <time>2017-07-28T10:49:30Z</time>
      </trkpt>
      <trkpt lat="44.9821940" lon="6.7629170">
        <ele>1978.4</ele>
        <time>2017-07-28T10:49:35Z</time>
      </trkpt>
      <trkpt lat="44.9821880" lon="6.7629570">
        <ele>1978.8</ele>
        <time>2017-07-28T10:49:37Z</time>
      </trkpt>
      <trkpt lat="44.9821650" lon="6.7630140">
        <ele>1979.6</ele>
        <time>2017-07-28T10:49:40Z</time>
      </trkpt>
      <trkpt lat="44.9821120" lon="6.7630510">
        <ele>1980.4</ele>
        <time>2017-07-28T10:49:44Z</time>
      </trkpt>
      <trkpt lat="44.9820970" lon="6.7630560">
        <ele>1981.0</ele>
        <time>2017-07-28T10:49:45Z</time>
      </trkpt>
      <trkpt lat="44.9819930" lon="6.7630710">
        <ele>1982.0</ele>
        <time>2017-07-28T10:49:52Z</time>
      </trkpt>
      <trkpt lat="44.9819050" lon="6.7630880">
        <ele>1983.2</ele>
        <time>2017-07-28T10:49:59Z</time>
      </trkpt>
      <trkpt lat="44.9818730" lon="6.7631010">
        <ele>1983.6</ele>
        <time>2017-07-28T10:50:02Z</time>
      </trkpt>
      <trkpt lat="44.9818550" lon="6.7631230">
        <ele>1984.2</ele>
        <time>2017-07-28T10:50:04Z</time>
      </trkpt>
      <trkpt lat="44.9818440" lon="6.7631260">
        <ele>1984.4</ele>
        <time>2017-07-28T10:50:05Z</time>
      </trkpt>
      <trkpt lat="44.9818330" lon="6.7631330">
        <ele>1984.6</ele>
        <time>2017-07-28T10:50:06Z</time>
      </trkpt>
      <trkpt lat="44.9817890" lon="6.7631400">
        <ele>1985.4</ele>
        <time>2017-07-28T10:50:09Z</time>
      </trkpt>
      <trkpt lat="44.9817420" lon="6.7631340">
        <ele>1986.0</ele>
        <time>2017-07-28T10:50:12Z</time>
      </trkpt>
      <trkpt lat="44.9816950" lon="6.7631180">
        <ele>1986.6</ele>
        <time>2017-07-28T10:50:15Z</time>
      </trkpt>
      <trkpt lat="44.9816360" lon="6.7630660">
        <ele>1987.4</ele>
        <time>2017-07-28T10:50:19Z</time>
      </trkpt>
      <trkpt lat="44.9815970" lon="6.7630220">
        <ele>1987.6</ele>
        <time>2017-07-28T10:50:22Z</time>
      </trkpt>
      <trkpt lat="44.9815230" lon="6.7629680">
        <ele>1988.2</ele>
        <time>2017-07-28T10:50:27Z</time>
      </trkpt>
      <trkpt lat="44.9814740" lon="6.7629320">
        <ele>1988.6</ele>
        <time>2017-07-28T10:50:30Z</time>
      </trkpt>
      <trkpt lat="44.9814330" lon="6.7628990">
        <ele>1989.6</ele>
        <time>2017-07-28T10:50:34Z</time>
      </trkpt>
      <trkpt lat="44.9814160" lon="6.7628540">
        <ele>1990.2</ele>
        <time>2017-07-28T10:50:38Z</time>
      </trkpt>
      <trkpt lat="44.9813970" lon="6.7627870">
        <ele>1990.6</ele>
        <time>2017-07-28T10:50:42Z</time>
      </trkpt>
      <trkpt lat="44.9813690" lon="6.7627020">
        <ele>1990.8</ele>
        <time>2017-07-28T10:50:47Z</time>
      </trkpt>
      <trkpt lat="44.9813390" lon="6.7626530">
        <ele>1991.2</ele>
        <time>2017-07-28T10:50:50Z</time>
      </trkpt>
      <trkpt lat="44.9813190" lon="6.7626150">
        <ele>1992.0</ele>
        <time>2017-07-28T10:50:53Z</time>
      </trkpt>
      <trkpt lat="44.9812640" lon="6.7625760">
        <ele>1993.2</ele>
        <time>2017-07-28T10:50:58Z</time>
      </trkpt>
      <trkpt lat="44.9812500" lon="6.7625710">
        <ele>1993.4</ele>
        <time>2017-07-28T10:50:59Z</time>
      </trkpt>
      <trkpt lat="44.9812170" lon="6.7625840">
        <ele>1993.8</ele>
        <time>2017-07-28T10:51:01Z</time>
      </trkpt>
      <trkpt lat="44.9811860" lon="6.7625930">
        <ele>1994.4</ele>
        <time>2017-07-28T10:51:03Z</time>
      </trkpt>
      <trkpt lat="44.9811740" lon="6.7625950">
        <ele>1994.6</ele>
        <time>2017-07-28T10:51:04Z</time>
      </trkpt>
      <trkpt lat="44.9811360" lon="6.7626190">
        <ele>1995.4</ele>
        <time>2017-07-28T10:51:07Z</time>
      </trkpt>
      <trkpt lat="44.9811260" lon="6.7626260">
        <ele>1995.6</ele>
        <time>2017-07-28T10:51:08Z</time>
      </trkpt>
      <trkpt lat="44.9810970" lon="6.7626380">
        <ele>1996.0</ele>
        <time>2017-07-28T10:51:10Z</time>
      </trkpt>
      <trkpt lat="44.9810570" lon="6.7626370">
        <ele>1996.6</ele>
        <time>2017-07-28T10:51:13Z</time>
      </trkpt>
      <trkpt lat="44.9810020" lon="6.7626390">
        <ele>1997.4</ele>
        <time>2017-07-28T10:51:17Z</time>
      </trkpt>
      <trkpt lat="44.9809570" lon="6.7626420">
        <ele>1997.8</ele>
        <time>2017-07-28T10:51:20Z</time>
      </trkpt>
      <trkpt lat="44.9809070" lon="6.7626400">
        <ele>1999.0</ele>
        <time>2017-07-28T10:51:24Z</time>
      </trkpt>
      <trkpt lat="44.9808930" lon="6.7626410">
        <ele>1999.0</ele>
        <time>2017-07-28T10:51:25Z</time>
      </trkpt>
      <trkpt lat="44.9808280" lon="6.7626320">
        <ele>2000.0</ele>
        <time>2017-07-28T10:51:30Z</time>
      </trkpt>
      <trkpt lat="44.9808020" lon="6.7626270">
        <ele>2000.2</ele>
        <time>2017-07-28T10:51:32Z</time>
      </trkpt>
      <trkpt lat="44.9807440" lon="6.7626340">
        <ele>2001.0</ele>
        <time>2017-07-28T10:51:36Z</time>
      </trkpt>
      <trkpt lat="44.9806790" lon="6.7626390">
        <ele>2002.0</ele>
        <time>2017-07-28T10:51:41Z</time>
      </trkpt>
      <trkpt lat="44.9806680" lon="6.7626400">
        <ele>2002.2</ele>
        <time>2017-07-28T10:51:42Z</time>
      </trkpt>
      <trkpt lat="44.9806120" lon="6.7626470">
        <ele>2003.2</ele>
        <time>2017-07-28T10:51:46Z</time>
      </trkpt>
      <trkpt lat="44.9805990" lon="6.7626500">
        <ele>2003.6</ele>
        <time>2017-07-28T10:51:47Z</time>
      </trkpt>
      <trkpt lat="44.9805560" lon="6.7626690">
        <ele>2004.4</ele>
        <time>2017-07-28T10:51:51Z</time>
      </trkpt>
      <trkpt lat="44.9805330" lon="6.7626820">
        <ele>2005.0</ele>
        <time>2017-07-28T10:51:53Z</time>
      </trkpt>
      <trkpt lat="44.9804750" lon="6.7626570">
        <ele>2005.6</ele>
        <time>2017-07-28T10:51:57Z</time>
      </trkpt>
      <trkpt lat="44.9804600" lon="6.7626540">
        <ele>2005.8</ele>
        <time>2017-07-28T10:51:58Z</time>
      </trkpt>
      <trkpt lat="44.9803760" lon="6.7626040">
        <ele>2006.6</ele>
        <time>2017-07-28T10:52:04Z</time>
      </trkpt>
      <trkpt lat="44.9803450" lon="6.7625950">
        <ele>2007.0</ele>
        <time>2017-07-28T10:52:06Z</time>
      </trkpt>
      <trkpt lat="44.9803020" lon="6.7625880">
        <ele>2007.6</ele>
        <time>2017-07-28T10:52:09Z</time>
      </trkpt>
      <trkpt lat="44.9802730" lon="6.7625580">
        <ele>2008.2</ele>
        <time>2017-07-28T10:52:12Z</time>
      </trkpt>
      <trkpt lat="44.9802340" lon="6.7625300">
        <ele>2009.0</ele>
        <time>2017-07-28T10:52:15Z</time>
      </trkpt>
      <trkpt lat="44.9801930" lon="6.7625190">
        <ele>2009.4</ele>
        <time>2017-07-28T10:52:18Z</time>
      </trkpt>
      <trkpt lat="44.9801670" lon="6.7625120">
        <ele>2010.4</ele>
        <time>2017-07-28T10:52:20Z</time>
      </trkpt>
      <trkpt lat="44.9801150" lon="6.7624810">
        <ele>2011.6</ele>
        <time>2017-07-28T10:52:24Z</time>
      </trkpt>
      <trkpt lat="44.9800980" lon="6.7624750">
        <ele>2012.0</ele>
        <time>2017-07-28T10:52:25Z</time>
      </trkpt>
      <trkpt lat="44.9800380" lon="6.7624630">
        <ele>2012.8</ele>
        <time>2017-07-28T10:52:29Z</time>
      </trkpt>
      <trkpt lat="44.9799950" lon="6.7624520">
        <ele>2013.0</ele>
        <time>2017-07-28T10:52:32Z</time>
      </trkpt>
      <trkpt lat="44.9799390" lon="6.7624400">
        <ele>2014.0</ele>
        <time>2017-07-28T10:52:36Z</time>
      </trkpt>
      <trkpt lat="44.9798890" lon="6.7624340">
        <ele>2014.6</ele>
        <time>2017-07-28T10:52:39Z</time>
      </trkpt>
      <trkpt lat="44.9798750" lon="6.7624340">
        <ele>2014.8</ele>
        <time>2017-07-28T10:52:40Z</time>
      </trkpt>
      <trkpt lat="44.9798600" lon="6.7624380">
        <ele>2015.0</ele>
        <time>2017-07-28T10:52:41Z</time>
      </trkpt>
      <trkpt lat="44.9798150" lon="6.7624320">
        <ele>2015.8</ele>
        <time>2017-07-28T10:52:44Z</time>
      </trkpt>
      <trkpt lat="44.9797880" lon="6.7624180">
        <ele>2016.0</ele>
        <time>2017-07-28T10:52:46Z</time>
      </trkpt>
      <trkpt lat="44.9797060" lon="6.7624040">
        <ele>2017.4</ele>
        <time>2017-07-28T10:52:52Z</time>
      </trkpt>
      <trkpt lat="44.9796830" lon="6.7623930">
        <ele>2017.8</ele>
        <time>2017-07-28T10:52:54Z</time>
      </trkpt>
      <trkpt lat="44.9796290" lon="6.7623810">
        <ele>2018.4</ele>
        <time>2017-07-28T10:52:58Z</time>
      </trkpt>
      <trkpt lat="44.9796000" lon="6.7623650">
        <ele>2018.4</ele>
        <time>2017-07-28T10:53:00Z</time>
      </trkpt>
      <trkpt lat="44.9795250" lon="6.7623080">
        <ele>2019.8</ele>
        <time>2017-07-28T10:53:05Z</time>
      </trkpt>
      <trkpt lat="44.9794860" lon="6.7622760">
        <ele>2021.0</ele>
        <time>2017-07-28T10:53:08Z</time>
      </trkpt>
      <trkpt lat="44.9794180" lon="6.7622410">
        <ele>2022.2</ele>
        <time>2017-07-28T10:53:13Z</time>
      </trkpt>
      <trkpt lat="44.9793860" lon="6.7622010">
        <ele>2023.4</ele>
        <time>2017-07-28T10:53:16Z</time>
      </trkpt>
      <trkpt lat="44.9793780" lon="6.7621870">
        <ele>2023.8</ele>
        <time>2017-07-28T10:53:17Z</time>
      </trkpt>
      <trkpt lat="44.9793570" lon="6.7621690">
        <ele>2024.6</ele>
        <time>2017-07-28T10:53:19Z</time>
      </trkpt>
      <trkpt lat="44.9793210" lon="6.7621370">
        <ele>2025.8</ele>
        <time>2017-07-28T10:53:22Z</time>
      </trkpt>
      <trkpt lat="44.9793100" lon="6.7621300">
        <ele>2026.0</ele>
        <time>2017-07-28T10:53:23Z</time>
      </trkpt>
      <trkpt lat="44.9792670" lon="6.7621080">
        <ele>2027.0</ele>
        <time>2017-07-28T10:53:27Z</time>
      </trkpt>
      <trkpt lat="44.9792260" lon="6.7621040">
        <ele>2027.6</ele>
        <time>2017-07-28T10:53:30Z</time>
      </trkpt>
      <trkpt lat="44.9791570" lon="6.7620500">
        <ele>2028.0</ele>
        <time>2017-07-28T10:53:35Z</time>
      </trkpt>
      <trkpt lat="44.9791430" lon="6.7620370">
        <ele>2028.2</ele>
        <time>2017-07-28T10:53:36Z</time>
      </trkpt>
      <trkpt lat="44.9790690" lon="6.7619860">
        <ele>2029.2</ele>
        <time>2017-07-28T10:53:42Z</time>
      </trkpt>
      <trkpt lat="44.9790350" lon="6.7619650">
        <ele>2029.4</ele>
        <time>2017-07-28T10:53:45Z</time>
      </trkpt>
      <trkpt lat="44.9789850" lon="6.7618980">
        <ele>2030.4</ele>
        <time>2017-07-28T10:53:50Z</time>
      </trkpt>
      <trkpt lat="44.9789740" lon="6.7618870">
        <ele>2030.4</ele>
        <time>2017-07-28T10:53:51Z</time>
      </trkpt>
      <trkpt lat="44.9788940" lon="6.7618270">
        <ele>2031.2</ele>
        <time>2017-07-28T10:53:58Z</time>
      </trkpt>
      <trkpt lat="44.9788830" lon="6.7618190">
        <ele>2031.4</ele>
        <time>2017-07-28T10:53:59Z</time>
      </trkpt>
      <trkpt lat="44.9787730" lon="6.7617420">
        <ele>2032.4</ele>
        <time>2017-07-28T10:54:09Z</time>
      </trkpt>
      <trkpt lat="44.9786920" lon="6.7616890">
        <ele>2033.6</ele>
        <time>2017-07-28T10:54:16Z</time>
      </trkpt>
      <trkpt lat="44.9786220" lon="6.7616400">
        <ele>2034.8</ele>
        <time>2017-07-28T10:54:22Z</time>
      </trkpt>
      <trkpt lat="44.9786120" lon="6.7616320">
        <ele>2035.0</ele>
        <time>2017-07-28T10:54:23Z</time>
      </trkpt>
      <trkpt lat="44.9785400" lon="6.7615900">
        <ele>2035.8</ele>
        <time>2017-07-28T10:54:29Z</time>
      </trkpt>
      <trkpt lat="44.9785200" lon="6.7615630">
        <ele>2036.2</ele>
        <time>2017-07-28T10:54:31Z</time>
      </trkpt>
      <trkpt lat="44.9784860" lon="6.7615260">
        <ele>2036.8</ele>
        <time>2017-07-28T10:54:34Z</time>
      </trkpt>
      <trkpt lat="44.9784350" lon="6.7614950">
        <ele>2037.4</ele>
        <time>2017-07-28T10:54:38Z</time>
      </trkpt>
      <trkpt lat="44.9783860" lon="6.7614780">
        <ele>2038.0</ele>
        <time>2017-07-28T10:54:42Z</time>
      </trkpt>
      <trkpt lat="44.9783440" lon="6.7614350">
        <ele>2039.0</ele>
        <time>2017-07-28T10:54:46Z</time>
      </trkpt>
      <trkpt lat="44.9782870" lon="6.7613880">
        <ele>2040.2</ele>
        <time>2017-07-28T10:54:51Z</time>
      </trkpt>
      <trkpt lat="44.9782760" lon="6.7613740">
        <ele>2040.6</ele>
        <time>2017-07-28T10:54:52Z</time>
      </trkpt>
      <trkpt lat="44.9782540" lon="6.7613450">
        <ele>2041.4</ele>
        <time>2017-07-28T10:54:54Z</time>
      </trkpt>
      <trkpt lat="44.9782180" lon="6.7613120">
        <ele>2042.6</ele>
        <time>2017-07-28T10:54:57Z</time>
      </trkpt>
      <trkpt lat="44.9781990" lon="6.7612860">
        <ele>2043.8</ele>
        <time>2017-07-28T10:54:59Z</time>
      </trkpt>
      <trkpt lat="44.9781630" lon="6.7612640">
        <ele>2045.0</ele>
        <time>2017-07-28T10:55:02Z</time>
      </trkpt>
      <trkpt lat="44.9781310" lon="6.7612290">
        <ele>2046.2</ele>
        <time>2017-07-28T10:55:05Z</time>
      </trkpt>
      <trkpt lat="44.9780940" lon="6.7612100">
        <ele>2047.2</ele>
        <time>2017-07-28T10:55:08Z</time>
      </trkpt>
      <trkpt lat="44.9780790" lon="6.7611990">
        <ele>2047.4</ele>
        <time>2017-07-28T10:55:09Z</time>
      </trkpt>
      <trkpt lat="44.9780390" lon="6.7611200">
        <ele>2048.6</ele>
        <time>2017-07-28T10:55:14Z</time>
      </trkpt>
      <trkpt lat="44.9780160" lon="6.7609680">
        <ele>2049.6</ele>
        <time>2017-07-28T10:55:21Z</time>
      </trkpt>
      <trkpt lat="44.9780300" lon="6.7609180">
        <ele>2051.2</ele>
        <time>2017-07-28T10:55:23Z</time>
      </trkpt>
      <trkpt lat="44.9780820" lon="6.7608580">
        <ele>2052.6</ele>
        <time>2017-07-28T10:55:26Z</time>
      </trkpt>
      <trkpt lat="44.9781380" lon="6.7608280">
        <ele>2053.8</ele>
        <time>2017-07-28T10:55:29Z</time>
      </trkpt>
      <trkpt lat="44.9782040" lon="6.7608460">
        <ele>2054.4</ele>
        <time>2017-07-28T10:55:32Z</time>
      </trkpt>
      <trkpt lat="44.9782350" lon="6.7608770">
        <ele>2054.8</ele>
        <time>2017-07-28T10:55:34Z</time>
      </trkpt>
      <trkpt lat="44.9783050" lon="6.7609580">
        <ele>2055.2</ele>
        <time>2017-07-28T10:55:38Z</time>
      </trkpt>
      <trkpt lat="44.9784420" lon="6.7611150">
        <ele>2056.0</ele>
        <time>2017-07-28T10:55:46Z</time>
      </trkpt>
      <trkpt lat="44.9784600" lon="6.7611310">
        <ele>2055.8</ele>
        <time>2017-07-28T10:55:47Z</time>
      </trkpt>
      <trkpt lat="44.9785630" lon="6.7611820">
        <ele>2056.8</ele>
        <time>2017-07-28T10:55:54Z</time>
      </trkpt>
      <trkpt lat="44.9785700" lon="6.7611610">
        <ele>2057.2</ele>
        <time>2017-07-28T10:55:55Z</time>
      </trkpt>
      <trkpt lat="44.9785960" lon="6.7610560">
        <ele>2058.2</ele>
        <time>2017-07-28T10:56:01Z</time>
      </trkpt>
      <trkpt lat="44.9785500" lon="6.7609620">
        <ele>2058.2</ele>
        <time>2017-07-28T10:56:07Z</time>
      </trkpt>
      <trkpt lat="44.9785020" lon="6.7608980">
        <ele>2058.2</ele>
        <time>2017-07-28T10:56:13Z</time>
      </trkpt>
      <trkpt lat="44.9784830" lon="6.7608640">
        <ele>2058.2</ele>
        <time>2017-07-28T10:56:15Z</time>
      </trkpt>
      <trkpt lat="44.9784610" lon="6.7607950">
        <ele>2058.4</ele>
        <time>2017-07-28T10:56:20Z</time>
      </trkpt>
      <trkpt lat="44.9784560" lon="6.7607830">
        <ele>2058.6</ele>
        <time>2017-07-28T10:56:21Z</time>
      </trkpt>
      <trkpt lat="44.9782800" lon="6.7605560">
        <ele>2064.2</ele>
        <time>2017-07-28T10:57:00Z</time>
      </trkpt>
      <trkpt lat="44.9782490" lon="6.7605170">
        <ele>2065.0</ele>
        <time>2017-07-28T10:57:03Z</time>
      </trkpt>
      <trkpt lat="44.9782000" lon="6.7604610">
        <ele>2065.4</ele>
        <time>2017-07-28T10:57:07Z</time>
      </trkpt>
      <trkpt lat="44.9781590" lon="6.7604300">
        <ele>2066.0</ele>
        <time>2017-07-28T10:57:10Z</time>
      </trkpt>
      <trkpt lat="44.9781340" lon="6.7604190">
        <ele>2066.4</ele>
        <time>2017-07-28T10:57:12Z</time>
      </trkpt>
      <trkpt lat="44.9780870" lon="6.7603880">
        <ele>2067.4</ele>
        <time>2017-07-28T10:57:16Z</time>
      </trkpt>
      <trkpt lat="44.9780790" lon="6.7603730">
        <ele>2067.6</ele>
        <time>2017-07-28T10:57:17Z</time>
      </trkpt>
      <trkpt lat="44.9780480" lon="6.7603110">
        <ele>2068.6</ele>
        <time>2017-07-28T10:57:21Z</time>
      </trkpt>
      <trkpt lat="44.9780410" lon="6.7603020">
        <ele>2069.4</ele>
        <time>2017-07-28T10:57:22Z</time>
      </trkpt>
      <trkpt lat="44.9780300" lon="6.7602930">
        <ele>2069.8</ele>
        <time>2017-07-28T10:57:23Z</time>
      </trkpt>
      <trkpt lat="44.9780110" lon="6.7602500">
        <ele>2070.8</ele>
        <time>2017-07-28T10:57:26Z</time>
      </trkpt>
      <trkpt lat="44.9780010" lon="6.7602290">
        <ele>2071.0</ele>
        <time>2017-07-28T10:57:28Z</time>
      </trkpt>
      <trkpt lat="44.9779810" lon="6.7601800">
        <ele>2071.8</ele>
        <time>2017-07-28T10:57:32Z</time>
      </trkpt>
      <trkpt lat="44.9779800" lon="6.7601240">
        <ele>2072.0</ele>
        <time>2017-07-28T10:57:35Z</time>
      </trkpt>
      <trkpt lat="44.9779920" lon="6.7601010">
        <ele>2072.4</ele>
        <time>2017-07-28T10:57:37Z</time>
      </trkpt>
      <trkpt lat="44.9780080" lon="6.7600570">
        <ele>2072.8</ele>
        <time>2017-07-28T10:57:40Z</time>
      </trkpt>
      <trkpt lat="44.9780140" lon="6.7600430">
        <ele>2073.0</ele>
        <time>2017-07-28T10:57:41Z</time>
      </trkpt>
      <trkpt lat="44.9780580" lon="6.7599670">
        <ele>2074.0</ele>
        <time>2017-07-28T10:57:46Z</time>
      </trkpt>
      <trkpt lat="44.9780660" lon="6.7599530">
        <ele>2074.4</ele>
        <time>2017-07-28T10:57:48Z</time>
      </trkpt>
      <trkpt lat="44.9780690" lon="6.7599350">
        <ele>2074.6</ele>
        <time>2017-07-28T10:57:49Z</time>
      </trkpt>
      <trkpt lat="44.9780930" lon="6.7598630">
        <ele>2075.0</ele>
        <time>2017-07-28T10:57:54Z</time>
      </trkpt>
      <trkpt lat="44.9781100" lon="6.7598330">
        <ele>2075.2</ele>
        <time>2017-07-28T10:57:56Z</time>
      </trkpt>
      <trkpt lat="44.9781190" lon="6.7597690">
        <ele>2075.4</ele>
        <time>2017-07-28T10:58:00Z</time>
      </trkpt>
      <trkpt lat="44.9781240" lon="6.7596730">
        <ele>2075.8</ele>
        <time>2017-07-28T10:58:06Z</time>
      </trkpt>
      <trkpt lat="44.9781130" lon="6.7596400">
        <ele>2076.0</ele>
        <time>2017-07-28T10:58:08Z</time>
      </trkpt>
      <trkpt lat="44.9781000" lon="6.7596060">
        <ele>2076.4</ele>
        <time>2017-07-28T10:58:10Z</time>
      </trkpt>
      <trkpt lat="44.9780840" lon="6.7595520">
        <ele>2076.4</ele>
        <time>2017-07-28T10:58:13Z</time>
      </trkpt>
      <trkpt lat="44.9780450" lon="6.7594660">
        <ele>2077.4</ele>
        <time>2017-07-28T10:58:19Z</time>
      </trkpt>
      <trkpt lat="44.9780370" lon="6.7594480">
        <ele>2077.4</ele>
        <time>2017-07-28T10:58:20Z</time>
      </trkpt>
      <trkpt lat="44.9780130" lon="6.7594090">
        <ele>2078.0</ele>
        <time>2017-07-28T10:58:23Z</time>
      </trkpt>
      <trkpt lat="44.9779060" lon="6.7592180">
        <ele>2083.2</ele>
        <time>2017-07-28T10:58:49Z</time>
      </trkpt>
      <trkpt lat="44.9778990" lon="6.7592040">
        <ele>2083.4</ele>
        <time>2017-07-28T10:58:50Z</time>
      </trkpt>
      <trkpt lat="44.9778710" lon="6.7591100">
        <ele>2084.4</ele>
        <time>2017-07-28T10:58:55Z</time>
      </trkpt>
      <trkpt lat="44.9778560" lon="6.7590530">
        <ele>2085.6</ele>
        <time>2017-07-28T10:58:58Z</time>
      </trkpt>
      <trkpt lat="44.9778470" lon="6.7590390">
        <ele>2085.8</ele>
        <time>2017-07-28T10:58:59Z</time>
      </trkpt>
      <trkpt lat="44.9778200" lon="6.7589950">
        <ele>2086.6</ele>
        <time>2017-07-28T10:59:02Z</time>
      </trkpt>
      <trkpt lat="44.9777860" lon="6.7589170">
        <ele>2087.8</ele>
        <time>2017-07-28T10:59:07Z</time>
      </trkpt>
      <trkpt lat="44.9777790" lon="6.7589010">
        <ele>2088.0</ele>
        <time>2017-07-28T10:59:08Z</time>
      </trkpt>
      <trkpt lat="44.9777680" lon="6.7588680">
        <ele>2088.8</ele>
        <time>2017-07-28T10:59:10Z</time>
      </trkpt>
      <trkpt lat="44.9777310" lon="6.7587700">
        <ele>2089.8</ele>
        <time>2017-07-28T10:59:16Z</time>
      </trkpt>
      <trkpt lat="44.9777220" lon="6.7587430">
        <ele>2090.0</ele>
        <time>2017-07-28T10:59:18Z</time>
      </trkpt>
      <trkpt lat="44.9776890" lon="6.7586550">
        <ele>2090.8</ele>
        <time>2017-07-28T10:59:23Z</time>
      </trkpt>
      <trkpt lat="44.9776820" lon="6.7586420">
        <ele>2091.0</ele>
        <time>2017-07-28T10:59:24Z</time>
      </trkpt>
      <trkpt lat="44.9776510" lon="6.7585520">
        <ele>2092.0</ele>
        <time>2017-07-28T10:59:30Z</time>
      </trkpt>
      <trkpt lat="44.9776840" lon="6.7585190">
        <ele>2092.8</ele>
        <time>2017-07-28T10:59:35Z</time>
      </trkpt>
      <trkpt lat="44.9776930" lon="6.7585190">
        <ele>2093.2</ele>
        <time>2017-07-28T10:59:36Z</time>
      </trkpt>
      <trkpt lat="44.9777000" lon="6.7585340">
        <ele>2093.4</ele>
        <time>2017-07-28T10:59:37Z</time>
      </trkpt>
      <trkpt lat="44.9777260" lon="6.7585880">
        <ele>2094.0</ele>
        <time>2017-07-28T10:59:40Z</time>
      </trkpt>
      <trkpt lat="44.9777440" lon="6.7586170">
        <ele>2094.2</ele>
        <time>2017-07-28T10:59:42Z</time>
      </trkpt>
      <trkpt lat="44.9777730" lon="6.7586650">
        <ele>2094.8</ele>
        <time>2017-07-28T10:59:45Z</time>
      </trkpt>
      <trkpt lat="44.9777930" lon="6.7586940">
        <ele>2095.6</ele>
        <time>2017-07-28T10:59:47Z</time>
      </trkpt>
      <trkpt lat="44.9778100" lon="6.7587010">
        <ele>2095.8</ele>
        <time>2017-07-28T10:59:48Z</time>
      </trkpt>
      <trkpt lat="44.9778440" lon="6.7587360">
        <ele>2096.6</ele>
        <time>2017-07-28T10:59:51Z</time>
      </trkpt>
      <trkpt lat="44.9778840" lon="6.7587660">
        <ele>2097.2</ele>
        <time>2017-07-28T10:59:55Z</time>
      </trkpt>
      <trkpt lat="44.9778860" lon="6.7587790">
        <ele>2097.4</ele>
        <time>2017-07-28T10:59:56Z</time>
      </trkpt>
      <trkpt lat="44.9779120" lon="6.7587990">
        <ele>2097.8</ele>
        <time>2017-07-28T10:59:58Z</time>
      </trkpt>
      <trkpt lat="44.9779340" lon="6.7588170">
        <ele>2098.2</ele>
        <time>2017-07-28T11:00:00Z</time>
      </trkpt>
      <trkpt lat="44.9779560" lon="6.7588460">
        <ele>2098.6</ele>
        <time>2017-07-28T11:00:03Z</time>
      </trkpt>
      <trkpt lat="44.9779730" lon="6.7588660">
        <ele>2099.0</ele>
        <time>2017-07-28T11:00:05Z</time>
      </trkpt>
      <trkpt lat="44.9779900" lon="6.7588830">
        <ele>2099.4</ele>
        <time>2017-07-28T11:00:07Z</time>
      </trkpt>
      <trkpt lat="44.9780000" lon="6.7588950">
        <ele>2099.4</ele>
        <time>2017-07-28T11:00:08Z</time>
      </trkpt>
      <trkpt lat="44.9780360" lon="6.7589220">
        <ele>2100.0</ele>
        <time>2017-07-28T11:00:12Z</time>
      </trkpt>
      <trkpt lat="44.9780460" lon="6.7589220">
        <ele>2100.0</ele>
        <time>2017-07-28T11:00:13Z</time>
      </trkpt>
      <trkpt lat="44.9780430" lon="6.7589100">
        <ele>2100.4</ele>
        <time>2017-07-28T11:00:14Z</time>
      </trkpt>
      <trkpt lat="44.9782190" lon="6.7590810">
        <ele>2103.6</ele>
        <time>2017-07-28T11:00:45Z</time>
      </trkpt>
      <trkpt lat="44.9782460" lon="6.7590780">
        <ele>2104.4</ele>
        <time>2017-07-28T11:00:47Z</time>
      </trkpt>
      <trkpt lat="44.9782580" lon="6.7590880">
        <ele>2104.8</ele>
        <time>2017-07-28T11:00:48Z</time>
      </trkpt>
      <trkpt lat="44.9783100" lon="6.7590970">
        <ele>2106.4</ele>
        <time>2017-07-28T11:00:55Z</time>
      </trkpt>
      <trkpt lat="44.9783490" lon="6.7591060">
        <ele>2106.8</ele>
        <time>2017-07-28T11:00:59Z</time>
      </trkpt>
      <trkpt lat="44.9783890" lon="6.7591080">
        <ele>2107.2</ele>
        <time>2017-07-28T11:01:03Z</time>
      </trkpt>
      <trkpt lat="44.9784460" lon="6.7591110">
        <ele>2109.2</ele>
        <time>2017-07-28T11:01:12Z</time>
      </trkpt>
      <trkpt lat="44.9784600" lon="6.7591060">
        <ele>2109.4</ele>
        <time>2017-07-28T11:01:13Z</time>
      </trkpt>
      <trkpt lat="44.9785220" lon="6.7591110">
        <ele>2110.2</ele>
        <time>2017-07-28T11:01:18Z</time>
      </trkpt>
      <trkpt lat="44.9785330" lon="6.7591060">
        <ele>2110.6</ele>
        <time>2017-07-28T11:01:19Z</time>
      </trkpt>
      <trkpt lat="44.9785620" lon="6.7591020">
        <ele>2111.6</ele>
        <time>2017-07-28T11:01:21Z</time>
      </trkpt>
      <trkpt lat="44.9785860" lon="6.7591110">
        <ele>2112.6</ele>
        <time>2017-07-28T11:01:23Z</time>
      </trkpt>
      <trkpt lat="44.9786130" lon="6.7591330">
        <ele>2112.6</ele>
        <time>2017-07-28T11:01:26Z</time>
      </trkpt>
      <trkpt lat="44.9786220" lon="6.7591300">
        <ele>2112.8</ele>
        <time>2017-07-28T11:01:27Z</time>
      </trkpt>
      <trkpt lat="44.9786420" lon="6.7590810">
        <ele>2113.8</ele>
        <time>2017-07-28T11:01:30Z</time>
      </trkpt>
      <trkpt lat="44.9786410" lon="6.7590640">
        <ele>2113.8</ele>
        <time>2017-07-28T11:01:31Z</time>
      </trkpt>
      <trkpt lat="44.9786280" lon="6.7590310">
        <ele>2113.8</ele>
        <time>2017-07-28T11:01:34Z</time>
      </trkpt>
      <trkpt lat="44.9785950" lon="6.7589950">
        <ele>2114.0</ele>
        <time>2017-07-28T11:01:37Z</time>
      </trkpt>
      <trkpt lat="44.9785190" lon="6.7589590">
        <ele>2114.0</ele>
        <time>2017-07-28T11:01:43Z</time>
      </trkpt>
      <trkpt lat="44.9784380" lon="6.7589030">
        <ele>2115.0</ele>
        <time>2017-07-28T11:01:50Z</time>
      </trkpt>
      <trkpt lat="44.9784300" lon="6.7588860">
        <ele>2115.0</ele>
        <time>2017-07-28T11:01:51Z</time>
      </trkpt>
      <trkpt lat="44.9784010" lon="6.7588290">
        <ele>2115.6</ele>
        <time>2017-07-28T11:01:55Z</time>
      </trkpt>
      <trkpt lat="44.9783910" lon="6.7588250">
        <ele>2115.8</ele>
        <time>2017-07-28T11:01:56Z</time>
      </trkpt>
      <trkpt lat="44.9783700" lon="6.7588140">
        <ele>2116.0</ele>
        <time>2017-07-28T11:01:58Z</time>
      </trkpt>
      <trkpt lat="44.9783340" lon="6.7587890">
        <ele>2117.0</ele>
        <time>2017-07-28T11:02:02Z</time>
      </trkpt>
      <trkpt lat="44.9783270" lon="6.7587760">
        <ele>2117.2</ele>
        <time>2017-07-28T11:02:03Z</time>
      </trkpt>
      <trkpt lat="44.9783150" lon="6.7587200">
        <ele>2118.0</ele>
        <time>2017-07-28T11:02:07Z</time>
      </trkpt>
      <trkpt lat="44.9783110" lon="6.7587030">
        <ele>2118.2</ele>
        <time>2017-07-28T11:02:08Z</time>
      </trkpt>
      <trkpt lat="44.9783120" lon="6.7586850">
        <ele>2118.4</ele>
        <time>2017-07-28T11:02:09Z</time>
      </trkpt>
      <trkpt lat="44.9783560" lon="6.7586410">
        <ele>2119.8</ele>
        <time>2017-07-28T11:02:20Z</time>
      </trkpt>
      <trkpt lat="44.9783990" lon="6.7586860">
        <ele>2120.2</ele>
        <time>2017-07-28T11:02:25Z</time>
      </trkpt>
      <trkpt lat="44.9784100" lon="6.7586930">
        <ele>2120.2</ele>
        <time>2017-07-28T11:02:26Z</time>
      </trkpt>
      <trkpt lat="44.9784780" lon="6.7587090">
        <ele>2120.8</ele>
        <time>2017-07-28T11:02:31Z</time>
      </trkpt>
      <trkpt lat="44.9784990" lon="6.7587040">
        <ele>2121.2</ele>
        <time>2017-07-28T11:02:33Z</time>
      </trkpt>
      <trkpt lat="44.9785100" lon="6.7586970">
        <ele>2122.0</ele>
        <time>2017-07-28T11:02:34Z</time>
      </trkpt>
      <trkpt lat="44.9785520" lon="6.7587110">
        <ele>2123.2</ele>
        <time>2017-07-28T11:02:37Z</time>
      </trkpt>
      <trkpt lat="44.9785850" lon="6.7587460">
        <ele>2123.6</ele>
        <time>2017-07-28T11:02:40Z</time>
      </trkpt>
      <trkpt lat="44.9786180" lon="6.7587610">
        <ele>2124.4</ele>
        <time>2017-07-28T11:02:43Z</time>
      </trkpt>
      <trkpt lat="44.9786570" lon="6.7587630">
        <ele>2125.6</ele>
        <time>2017-07-28T11:02:46Z</time>
      </trkpt>
      <trkpt lat="44.9786800" lon="6.7587610">
        <ele>2126.4</ele>
        <time>2017-07-28T11:02:48Z</time>
      </trkpt>
      <trkpt lat="44.9786940" lon="6.7587510">
        <ele>2126.8</ele>
        <time>2017-07-28T11:02:49Z</time>
      </trkpt>
      <trkpt lat="44.9787240" lon="6.7587420">
        <ele>2127.8</ele>
        <time>2017-07-28T11:02:52Z</time>
      </trkpt>
      <trkpt lat="44.9787350" lon="6.7587330">
        <ele>2128.2</ele>
        <time>2017-07-28T11:02:53Z</time>
      </trkpt>
      <trkpt lat="44.9787450" lon="6.7587040">
        <ele>2129.0</ele>
        <time>2017-07-28T11:02:55Z</time>
      </trkpt>
      <trkpt lat="44.9787360" lon="6.7586580">
        <ele>2129.2</ele>
        <time>2017-07-28T11:02:58Z</time>
      </trkpt>
      <trkpt lat="44.9786910" lon="6.7586100">
        <ele>2129.4</ele>
        <time>2017-07-28T11:03:02Z</time>
      </trkpt>
      <trkpt lat="44.9786880" lon="6.7585950">
        <ele>2129.6</ele>
        <time>2017-07-28T11:03:03Z</time>
      </trkpt>
      <trkpt lat="44.9786810" lon="6.7585870">
        <ele>2129.6</ele>
        <time>2017-07-28T11:03:04Z</time>
      </trkpt>
      <trkpt lat="44.9786480" lon="6.7585250">
        <ele>2129.8</ele>
        <time>2017-07-28T11:03:09Z</time>
      </trkpt>
      <trkpt lat="44.9786450" lon="6.7585120">
        <ele>2130.0</ele>
        <time>2017-07-28T11:03:10Z</time>
      </trkpt>
      <trkpt lat="44.9786040" lon="6.7584650">
        <ele>2130.8</ele>
        <time>2017-07-28T11:03:16Z</time>
      </trkpt>
      <trkpt lat="44.9785480" lon="6.7580420">
        <ele>2137.2</ele>
        <time>2017-07-28T11:04:08Z</time>
      </trkpt>
      <trkpt lat="44.9785610" lon="6.7580500">
        <ele>2137.2</ele>
        <time>2017-07-28T11:04:09Z</time>
      </trkpt>
      <trkpt lat="44.9785710" lon="6.7580670">
        <ele>2137.4</ele>
        <time>2017-07-28T11:04:10Z</time>
      </trkpt>
      <trkpt lat="44.9786220" lon="6.7581350">
        <ele>2138.4</ele>
        <time>2017-07-28T11:04:15Z</time>
      </trkpt>
      <trkpt lat="44.9786510" lon="6.7581760">
        <ele>2139.4</ele>
        <time>2017-07-28T11:04:18Z</time>
      </trkpt>
      <trkpt lat="44.9786610" lon="6.7581900">
        <ele>2139.6</ele>
        <time>2017-07-28T11:04:19Z</time>
      </trkpt>
      <trkpt lat="44.9786820" lon="6.7582120">
        <ele>2140.4</ele>
        <time>2017-07-28T11:04:21Z</time>
      </trkpt>
      <trkpt lat="44.9787260" lon="6.7582450">
        <ele>2141.6</ele>
        <time>2017-07-28T11:04:25Z</time>
      </trkpt>
      <trkpt lat="44.9787630" lon="6.7582900">
        <ele>2142.6</ele>
        <time>2017-07-28T11:04:29Z</time>
      </trkpt>
      <trkpt lat="44.9788210" lon="6.7583400">
        <ele>2144.0</ele>
        <time>2017-07-28T11:04:34Z</time>
      </trkpt>
      <trkpt lat="44.9788560" lon="6.7583670">
        <ele>2144.8</ele>
        <time>2017-07-28T11:04:37Z</time>
      </trkpt>
      <trkpt lat="44.9788800" lon="6.7583880">
        <ele>2145.2</ele>
        <time>2017-07-28T11:04:39Z</time>
      </trkpt>
      <trkpt lat="44.9789120" lon="6.7584120">
        <ele>2146.4</ele>
        <time>2017-07-28T11:04:42Z</time>
      </trkpt>
      <trkpt lat="44.9789320" lon="6.7583950">
        <ele>2147.0</ele>
        <time>2017-07-28T11:04:44Z</time>
      </trkpt>
      <trkpt lat="44.9789370" lon="6.7583810">
        <ele>2147.4</ele>
        <time>2017-07-28T11:04:45Z</time>
      </trkpt>
      <trkpt lat="44.9789240" lon="6.7583110">
        <ele>2148.0</ele>
        <time>2017-07-28T11:04:49Z</time>
      </trkpt>
      <trkpt lat="44.9789170" lon="6.7582960">
        <ele>2148.0</ele>
        <time>2017-07-28T11:04:50Z</time>
      </trkpt>
      <trkpt lat="44.9788700" lon="6.7582400">
        <ele>2147.8</ele>
        <time>2017-07-28T11:04:55Z</time>
      </trkpt>
      <trkpt lat="44.9788560" lon="6.7582060">
        <ele>2147.8</ele>
        <time>2017-07-28T11:04:57Z</time>
      </trkpt>
      <trkpt lat="44.9788290" lon="6.7581170">
        <ele>2148.0</ele>
        <time>2017-07-28T11:05:04Z</time>
      </trkpt>
      <trkpt lat="44.9786830" lon="6.7576580">
        <ele>2154.0</ele>
        <time>2017-07-28T11:05:43Z</time>
      </trkpt>
      <trkpt lat="44.9786770" lon="6.7576440">
        <ele>2154.2</ele>
        <time>2017-07-28T11:05:44Z</time>
      </trkpt>
      <trkpt lat="44.9786560" lon="6.7575600">
        <ele>2155.2</ele>
        <time>2017-07-28T11:05:50Z</time>
      </trkpt>
      <trkpt lat="44.9786410" lon="6.7574990">
        <ele>2156.2</ele>
        <time>2017-07-28T11:05:54Z</time>
      </trkpt>
      <trkpt lat="44.9786150" lon="6.7574130">
        <ele>2157.4</ele>
        <time>2017-07-28T11:06:01Z</time>
      </trkpt>
      <trkpt lat="44.9786110" lon="6.7574000">
        <ele>2157.4</ele>
        <time>2017-07-28T11:06:02Z</time>
      </trkpt>
      <trkpt lat="44.9785790" lon="6.7573070">
        <ele>2158.0</ele>
        <time>2017-07-28T11:06:10Z</time>
      </trkpt>
      <trkpt lat="44.9785630" lon="6.7572700">
        <ele>2157.6</ele>
        <time>2017-07-28T11:06:14Z</time>
      </trkpt>
      <trkpt lat="44.9785530" lon="6.7572380">
        <ele>2157.6</ele>
        <time>2017-07-28T11:06:17Z</time>
      </trkpt>
      <trkpt lat="44.9785320" lon="6.7571750">
        <ele>2157.8</ele>
        <time>2017-07-28T11:06:23Z</time>
      </trkpt>
      <trkpt lat="44.9785110" lon="6.7571220">
        <ele>2158.4</ele>
        <time>2017-07-28T11:06:29Z</time>
      </trkpt>
      <trkpt lat="44.9785060" lon="6.7571120">
        <ele>2158.4</ele>
        <time>2017-07-28T11:06:30Z</time>
      </trkpt>
      <trkpt lat="44.9785030" lon="6.7570560">
        <ele>2159.6</ele>
        <time>2017-07-28T11:06:36Z</time>
      </trkpt>
      <trkpt lat="44.9785120" lon="6.7570320">
        <ele>2159.8</ele>
        <time>2017-07-28T11:06:38Z</time>
      </trkpt>
      <trkpt lat="44.9785550" lon="6.7570300">
        <ele>2160.6</ele>
        <time>2017-07-28T11:06:44Z</time>
      </trkpt>
      <trkpt lat="44.9785660" lon="6.7570570">
        <ele>2160.6</ele>
        <time>2017-07-28T11:06:46Z</time>
      </trkpt>
      <trkpt lat="44.9785850" lon="6.7571090">
        <ele>2161.6</ele>
        <time>2017-07-28T11:06:50Z</time>
      </trkpt>
      <trkpt lat="44.9786020" lon="6.7571370">
        <ele>2161.8</ele>
        <time>2017-07-28T11:06:53Z</time>
      </trkpt>
      <trkpt lat="44.9786380" lon="6.7571900">
        <ele>2162.6</ele>
        <time>2017-07-28T11:06:58Z</time>
      </trkpt>
      <trkpt lat="44.9786490" lon="6.7571960">
        <ele>2163.0</ele>
        <time>2017-07-28T11:06:59Z</time>
      </trkpt>
      <trkpt lat="44.9786860" lon="6.7572170">
        <ele>2163.8</ele>
        <time>2017-07-28T11:07:03Z</time>
      </trkpt>
      <trkpt lat="44.9786960" lon="6.7572230">
        <ele>2164.0</ele>
        <time>2017-07-28T11:07:04Z</time>
      </trkpt>
      <trkpt lat="44.9787380" lon="6.7572720">
        <ele>2165.0</ele>
        <time>2017-07-28T11:07:10Z</time>
      </trkpt>
      <trkpt lat="44.9787590" lon="6.7573130">
        <ele>2165.2</ele>
        <time>2017-07-28T11:07:14Z</time>
      </trkpt>
      <trkpt lat="44.9788110" lon="6.7573600">
        <ele>2166.0</ele>
        <time>2017-07-28T11:07:21Z</time>
      </trkpt>
      <trkpt lat="44.9788150" lon="6.7573650">
        <ele>2166.4</ele>
        <time>2017-07-28T11:07:22Z</time>
      </trkpt>
      <trkpt lat="44.9788220" lon="6.7573680">
        <ele>2166.8</ele>
        <time>2017-07-28T11:07:23Z</time>
      </trkpt>
      <trkpt lat="44.9788440" lon="6.7573430">
        <ele>2167.2</ele>
        <time>2017-07-28T11:07:26Z</time>
      </trkpt>
      <trkpt lat="44.9788470" lon="6.7573300">
        <ele>2167.4</ele>
        <time>2017-07-28T11:07:27Z</time>
      </trkpt>
      <trkpt lat="44.9788370" lon="6.7572980">
        <ele>2168.0</ele>
        <time>2017-07-28T11:07:30Z</time>
      </trkpt>
      <trkpt lat="44.9788120" lon="6.7572400">
        <ele>2168.8</ele>
        <time>2017-07-28T11:07:40Z</time>
      </trkpt>
      <trkpt lat="44.9787920" lon="6.7571900">
        <ele>2169.2</ele>
        <time>2017-07-28T11:07:43Z</time>
      </trkpt>
      <trkpt lat="44.9787860" lon="6.7571730">
        <ele>2169.4</ele>
        <time>2017-07-28T11:07:44Z</time>
      </trkpt>
      <trkpt lat="44.9787710" lon="6.7571220">
        <ele>2170.0</ele>
        <time>2017-07-28T11:07:47Z</time>
      </trkpt>
      <trkpt lat="44.9787650" lon="6.7570860">
        <ele>2170.4</ele>
        <time>2017-07-28T11:07:49Z</time>
      </trkpt>
      <trkpt lat="44.9787560" lon="6.7570390">
        <ele>2171.6</ele>
        <time>2017-07-28T11:07:52Z</time>
      </trkpt>
      <trkpt lat="44.9787580" lon="6.7570090">
        <ele>2172.8</ele>
        <time>2017-07-28T11:07:54Z</time>
      </trkpt>
      <trkpt lat="44.9787480" lon="6.7569680">
        <ele>2173.8</ele>
        <time>2017-07-28T11:07:56Z</time>
      </trkpt>
      <trkpt lat="44.9787420" lon="6.7569300">
        <ele>2174.4</ele>
        <time>2017-07-28T11:07:58Z</time>
      </trkpt>
      <trkpt lat="44.9786240" lon="6.7561600">
        <ele>2188.6</ele>
        <time>2017-07-28T11:09:21Z</time>
      </trkpt>
      <trkpt lat="44.9786300" lon="6.7561760">
        <ele>2188.8</ele>
        <time>2017-07-28T11:09:22Z</time>
      </trkpt>
      <trkpt lat="44.9786350" lon="6.7561960">
        <ele>2189.0</ele>
        <time>2017-07-28T11:09:23Z</time>
      </trkpt>
      <trkpt lat="44.9786460" lon="6.7562260">
        <ele>2189.0</ele>
        <time>2017-07-28T11:09:25Z</time>
      </trkpt>
      <trkpt lat="44.9786770" lon="6.7562690">
        <ele>2189.6</ele>
        <time>2017-07-28T11:09:28Z</time>
      </trkpt>
      <trkpt lat="44.9787050" lon="6.7563070">
        <ele>2189.8</ele>
        <time>2017-07-28T11:09:31Z</time>
      </trkpt>
      <trkpt lat="44.9787430" lon="6.7563570">
        <ele>2191.0</ele>
        <time>2017-07-28T11:09:35Z</time>
      </trkpt>
      <trkpt lat="44.9787540" lon="6.7563670">
        <ele>2191.2</ele>
        <time>2017-07-28T11:09:36Z</time>
      </trkpt>
      <trkpt lat="44.9787820" lon="6.7563970">
        <ele>2192.2</ele>
        <time>2017-07-28T11:09:39Z</time>
      </trkpt>
      <trkpt lat="44.9788180" lon="6.7564340">
        <ele>2193.6</ele>
        <time>2017-07-28T11:09:43Z</time>
      </trkpt>
      <trkpt lat="44.9788310" lon="6.7564420">
        <ele>2194.0</ele>
        <time>2017-07-28T11:09:44Z</time>
      </trkpt>
      <trkpt lat="44.9788660" lon="6.7564780">
        <ele>2194.8</ele>
        <time>2017-07-28T11:09:47Z</time>
      </trkpt>
      <trkpt lat="44.9788900" lon="6.7565150">
        <ele>2195.6</ele>
        <time>2017-07-28T11:09:50Z</time>
      </trkpt>
      <trkpt lat="44.9788960" lon="6.7565230">
        <ele>2195.6</ele>
        <time>2017-07-28T11:09:51Z</time>
      </trkpt>
      <trkpt lat="44.9789020" lon="6.7565340">
        <ele>2195.8</ele>
        <time>2017-07-28T11:09:52Z</time>
      </trkpt>
      <trkpt lat="44.9789190" lon="6.7565540">
        <ele>2196.2</ele>
        <time>2017-07-28T11:09:54Z</time>
      </trkpt>
      <trkpt lat="44.9789650" lon="6.7566150">
        <ele>2197.0</ele>
        <time>2017-07-28T11:09:59Z</time>
      </trkpt>
      <trkpt lat="44.9794820" lon="6.7564570">
        <ele>2224.0</ele>
        <time>2017-07-28T11:13:03Z</time>
      </trkpt>
      <trkpt lat="44.9794890" lon="6.7564710">
        <ele>2224.2</ele>
        <time>2017-07-28T11:13:04Z</time>
      </trkpt>
      <trkpt lat="44.9795000" lon="6.7564810">
        <ele>2224.4</ele>
        <time>2017-07-28T11:13:05Z</time>
      </trkpt>
      <trkpt lat="44.9795140" lon="6.7564900">
        <ele>2224.6</ele>
        <time>2017-07-28T11:13:06Z</time>
      </trkpt>
      <trkpt lat="44.9795480" lon="6.7565000">
        <ele>2225.0</ele>
        <time>2017-07-28T11:13:09Z</time>
      </trkpt>
      <trkpt lat="44.9795860" lon="6.7565190">
        <ele>2225.6</ele>
        <time>2017-07-28T11:13:12Z</time>
      </trkpt>
      <trkpt lat="44.9796110" lon="6.7565340">
        <ele>2226.2</ele>
        <time>2017-07-28T11:13:14Z</time>
      </trkpt>
      <trkpt lat="44.9796470" lon="6.7565530">
        <ele>2227.2</ele>
        <time>2017-07-28T11:13:17Z</time>
      </trkpt>
      <trkpt lat="44.9796880" lon="6.7565790">
        <ele>2228.0</ele>
        <time>2017-07-28T11:13:20Z</time>
      </trkpt>
      <trkpt lat="44.9797020" lon="6.7565880">
        <ele>2228.4</ele>
        <time>2017-07-28T11:13:21Z</time>
      </trkpt>
      <trkpt lat="44.9797410" lon="6.7566190">
        <ele>2229.6</ele>
        <time>2017-07-28T11:13:24Z</time>
      </trkpt>
      <trkpt lat="44.9797680" lon="6.7566570">
        <ele>2230.4</ele>
        <time>2017-07-28T11:13:27Z</time>
      </trkpt>
      <trkpt lat="44.9797780" lon="6.7566670">
        <ele>2230.8</ele>
        <time>2017-07-28T11:13:28Z</time>
      </trkpt>
      <trkpt lat="44.9798230" lon="6.7567110">
        <ele>2232.0</ele>
        <time>2017-07-28T11:13:32Z</time>
      </trkpt>
      <trkpt lat="44.9798470" lon="6.7567330">
        <ele>2232.4</ele>
        <time>2017-07-28T11:13:34Z</time>
      </trkpt>
      <trkpt lat="44.9798580" lon="6.7567430">
        <ele>2232.6</ele>
        <time>2017-07-28T11:13:35Z</time>
      </trkpt>
      <trkpt lat="44.9798670" lon="6.7567530">
        <ele>2233.0</ele>
        <time>2017-07-28T11:13:36Z</time>
      </trkpt>
      <trkpt lat="44.9799120" lon="6.7567950">
        <ele>2234.0</ele>
        <time>2017-07-28T11:13:40Z</time>
      </trkpt>
      <trkpt lat="44.9799230" lon="6.7568030">
        <ele>2234.4</ele>
        <time>2017-07-28T11:13:41Z</time>
      </trkpt>
      <trkpt lat="44.9799490" lon="6.7568150">
        <ele>2235.0</ele>
        <time>2017-07-28T11:13:43Z</time>
      </trkpt>
      <trkpt lat="44.9799620" lon="6.7568220">
        <ele>2235.2</ele>
        <time>2017-07-28T11:13:44Z</time>
      </trkpt>
      <trkpt lat="44.9799990" lon="6.7568260">
        <ele>2236.6</ele>
        <time>2017-07-28T11:13:47Z</time>
      </trkpt>
      <trkpt lat="44.9800240" lon="6.7568370">
        <ele>2237.4</ele>
        <time>2017-07-28T11:13:49Z</time>
      </trkpt>
      <trkpt lat="44.9800340" lon="6.7568440">
        <ele>2237.6</ele>
        <time>2017-07-28T11:13:50Z</time>
      </trkpt>
      <trkpt lat="44.9800760" lon="6.7568470">
        <ele>2238.8</ele>
        <time>2017-07-28T11:13:54Z</time>
      </trkpt>
      <trkpt lat="44.9800870" lon="6.7568500">
        <ele>2239.2</ele>
        <time>2017-07-28T11:13:55Z</time>
      </trkpt>
      <trkpt lat="44.9801120" lon="6.7568540">
        <ele>2240.2</ele>
        <time>2017-07-28T11:13:57Z</time>
      </trkpt>
      <trkpt lat="44.9801510" lon="6.7568700">
        <ele>2241.2</ele>
        <time>2017-07-28T11:14:00Z</time>
      </trkpt>
      <trkpt lat="44.9801730" lon="6.7568720">
        <ele>2242.0</ele>
        <time>2017-07-28T11:14:02Z</time>
      </trkpt>
      <trkpt lat="44.9801840" lon="6.7568720">
        <ele>2242.6</ele>
        <time>2017-07-28T11:14:03Z</time>
      </trkpt>
      <trkpt lat="44.9802060" lon="6.7568770">
        <ele>2243.6</ele>
        <time>2017-07-28T11:14:05Z</time>
      </trkpt>
      <trkpt lat="44.9802440" lon="6.7568870">
        <ele>2244.6</ele>
        <time>2017-07-28T11:14:08Z</time>
      </trkpt>
      <trkpt lat="44.9802980" lon="6.7568870">
        <ele>2246.0</ele>
        <time>2017-07-28T11:14:13Z</time>
      </trkpt>
      <trkpt lat="44.9803190" lon="6.7568920">
        <ele>2246.4</ele>
        <time>2017-07-28T11:14:15Z</time>
      </trkpt>
      <trkpt lat="44.9803600" lon="6.7569030">
        <ele>2247.2</ele>
        <time>2017-07-28T11:14:19Z</time>
      </trkpt>
      <trkpt lat="44.9814380" lon="6.7571790">
        <ele>2259.0</ele>
        <time>2017-07-28T11:16:25Z</time>
      </trkpt>
      <trkpt lat="44.9814470" lon="6.7571840">
        <ele>2259.0</ele>
        <time>2017-07-28T11:16:26Z</time>
      </trkpt>
      <trkpt lat="44.9814950" lon="6.7572200">
        <ele>2259.2</ele>
        <time>2017-07-28T11:16:33Z</time>
      </trkpt>
      <trkpt lat="44.9815300" lon="6.7572500">
        <ele>2259.8</ele>
        <time>2017-07-28T11:16:39Z</time>
      </trkpt>
      <trkpt lat="44.9815380" lon="6.7572460">
        <ele>2260.0</ele>
        <time>2017-07-28T11:16:40Z</time>
      </trkpt>
      <trkpt lat="44.9815450" lon="6.7572390">
        <ele>2260.0</ele>
        <time>2017-07-28T11:16:41Z</time>
      </trkpt>
      <trkpt lat="44.9815360" lon="6.7571900">
        <ele>2260.4</ele>
        <time>2017-07-28T11:16:45Z</time>
      </trkpt>
      <trkpt lat="44.9815010" lon="6.7571500">
        <ele>2261.2</ele>
        <time>2017-07-28T11:16:51Z</time>
      </trkpt>
      <trkpt lat="44.9814870" lon="6.7571150">
        <ele>2261.8</ele>
        <time>2017-07-28T11:16:55Z</time>
      </trkpt>
      <trkpt lat="44.9814850" lon="6.7571020">
        <ele>2261.8</ele>
        <time>2017-07-28T11:16:56Z</time>
      </trkpt>
      <trkpt lat="44.9814690" lon="6.7570670">
        <ele>2262.2</ele>
        <time>2017-07-28T11:16:59Z</time>
      </trkpt>
      <trkpt lat="44.9814360" lon="6.7570250">
        <ele>2263.2</ele>
        <time>2017-07-28T11:17:04Z</time>
      </trkpt>
      <trkpt lat="44.9814150" lon="6.7569810">
        <ele>2264.4</ele>
        <time>2017-07-28T11:17:08Z</time>
      </trkpt>
      <trkpt lat="44.9814030" lon="6.7569600">
        <ele>2265.0</ele>
        <time>2017-07-28T11:17:10Z</time>
      </trkpt>
      <trkpt lat="44.9813890" lon="6.7569470">
        <ele>2265.4</ele>
        <time>2017-07-28T11:17:12Z</time>
      </trkpt>
      <trkpt lat="44.9813720" lon="6.7569120">
        <ele>2266.4</ele>
        <time>2017-07-28T11:17:16Z</time>
      </trkpt>
      <trkpt lat="44.9813670" lon="6.7569030">
        <ele>2266.6</ele>
        <time>2017-07-28T11:17:17Z</time>
      </trkpt>
      <trkpt lat="44.9813400" lon="6.7568610">
        <ele>2267.6</ele>
        <time>2017-07-28T11:17:22Z</time>
      </trkpt>
      <trkpt lat="44.9813340" lon="6.7568500">
        <ele>2267.8</ele>
        <time>2017-07-28T11:17:23Z</time>
      </trkpt>
      <trkpt lat="44.9812970" lon="6.7567770">
        <ele>2269.0</ele>
        <time>2017-07-28T11:17:30Z</time>
      </trkpt>
      <trkpt lat="44.9812520" lon="6.7567180">
        <ele>2269.8</ele>
        <time>2017-07-28T11:17:37Z</time>
      </trkpt>
      <trkpt lat="44.9812450" lon="6.7567110">
        <ele>2270.0</ele>
        <time>2017-07-28T11:17:38Z</time>
      </trkpt>
      <trkpt lat="44.9812270" lon="6.7566830">
        <ele>2270.6</ele>
        <time>2017-07-28T11:17:41Z</time>
      </trkpt>
      <trkpt lat="44.9812050" lon="6.7566540">
        <ele>2271.0</ele>
        <time>2017-07-28T11:17:44Z</time>
      </trkpt>
      <trkpt lat="44.9811980" lon="6.7566490">
        <ele>2271.4</ele>
        <time>2017-07-28T11:17:45Z</time>
      </trkpt>
      <trkpt lat="44.9811670" lon="6.7566230">
        <ele>2272.2</ele>
        <time>2017-07-28T11:17:49Z</time>
      </trkpt>
      <trkpt lat="44.9811400" lon="6.7565920">
        <ele>2272.6</ele>
        <time>2017-07-28T11:17:53Z</time>
      </trkpt>
      <trkpt lat="44.9810950" lon="6.7565230">
        <ele>2273.2</ele>
        <time>2017-07-28T11:18:01Z</time>
      </trkpt>
      <trkpt lat="44.9810900" lon="6.7565130">
        <ele>2273.4</ele>
        <time>2017-07-28T11:18:02Z</time>
      </trkpt>
      <trkpt lat="44.9810520" lon="6.7564530">
        <ele>2274.0</ele>
        <time>2017-07-28T11:18:09Z</time>
      </trkpt>
      <trkpt lat="44.9810330" lon="6.7564170">
        <ele>2274.2</ele>
        <time>2017-07-28T11:18:12Z</time>
      </trkpt>
      <trkpt lat="44.9810010" lon="6.7563410">
        <ele>2274.8</ele>
        <time>2017-07-28T11:18:18Z</time>
      </trkpt>
      <trkpt lat="44.9800040" lon="6.7542400">
        <ele>2304.6</ele>
        <time>2017-07-28T11:21:47Z</time>
      </trkpt>
      <trkpt lat="44.9800000" lon="6.7542250">
        <ele>2304.8</ele>
        <time>2017-07-28T11:21:48Z</time>
      </trkpt>
      <trkpt lat="44.9799810" lon="6.7541330">
        <ele>2305.6</ele>
        <time>2017-07-28T11:21:55Z</time>
      </trkpt>
      <trkpt lat="44.9799710" lon="6.7540730">
        <ele>2305.8</ele>
        <time>2017-07-28T11:21:59Z</time>
      </trkpt>
      <trkpt lat="44.9799540" lon="6.7539770">
        <ele>2307.0</ele>
        <time>2017-07-28T11:22:05Z</time>
      </trkpt>
      <trkpt lat="44.9799500" lon="6.7539170">
        <ele>2308.0</ele>
        <time>2017-07-28T11:22:09Z</time>
      </trkpt>
      <trkpt lat="44.9799380" lon="6.7538690">
        <ele>2309.0</ele>
        <time>2017-07-28T11:22:13Z</time>
      </trkpt>
      <trkpt lat="44.9799340" lon="6.7538600">
        <ele>2309.2</ele>
        <time>2017-07-28T11:22:14Z</time>
      </trkpt>
      <trkpt lat="44.9799170" lon="6.7537650">
        <ele>2309.8</ele>
        <time>2017-07-28T11:22:21Z</time>
      </trkpt>
      <trkpt lat="44.9798910" lon="6.7536560">
        <ele>2310.0</ele>
        <time>2017-07-28T11:22:29Z</time>
      </trkpt>
      <trkpt lat="44.9798900" lon="6.7536280">
        <ele>2310.2</ele>
        <time>2017-07-28T11:22:31Z</time>
      </trkpt>
      <trkpt lat="44.9798720" lon="6.7535370">
        <ele>2311.2</ele>
        <time>2017-07-28T11:22:38Z</time>
      </trkpt>
      <trkpt lat="44.9798620" lon="6.7535270">
        <ele>2311.2</ele>
        <time>2017-07-28T11:22:39Z</time>
      </trkpt>
      <trkpt lat="44.9798380" lon="6.7534570">
        <ele>2311.2</ele>
        <time>2017-07-28T11:22:45Z</time>
      </trkpt>
      <trkpt lat="44.9798400" lon="6.7534450">
        <ele>2311.2</ele>
        <time>2017-07-28T11:22:46Z</time>
      </trkpt>
      <trkpt lat="44.9798270" lon="6.7533580">
        <ele>2311.8</ele>
        <time>2017-07-28T11:22:53Z</time>
      </trkpt>
      <trkpt lat="44.9795650" lon="6.7526190">
        <ele>2319.0</ele>
        <time>2017-07-28T11:24:00Z</time>
      </trkpt>
      <trkpt lat="44.9794900" lon="6.7523370">
        <ele>2326.8</ele>
        <time>2017-07-28T11:24:26Z</time>
      </trkpt>
      <trkpt lat="44.9794570" lon="6.7523020">
        <ele>2326.8</ele>
        <time>2017-07-28T11:24:29Z</time>
      </trkpt>
      <trkpt lat="44.9794500" lon="6.7522920">
        <ele>2326.8</ele>
        <time>2017-07-28T11:24:30Z</time>
      </trkpt>
      <trkpt lat="44.9794270" lon="6.7522270">
        <ele>2326.4</ele>
        <time>2017-07-28T11:24:35Z</time>
      </trkpt>
      <trkpt lat="44.9792700" lon="6.7518960">
        <ele>2328.0</ele>
        <time>2017-07-28T11:25:06Z</time>
      </trkpt>
      <trkpt lat="44.9792230" lon="6.7517520">
        <ele>2329.6</ele>
        <time>2017-07-28T11:25:19Z</time>
      </trkpt>
      <trkpt lat="44.9792180" lon="6.7517380">
        <ele>2329.8</ele>
        <time>2017-07-28T11:25:20Z</time>
      </trkpt>
      <trkpt lat="44.9791790" lon="6.7516720">
        <ele>2330.4</ele>
        <time>2017-07-28T11:25:26Z</time>
      </trkpt>
      <trkpt lat="44.9791660" lon="6.7516470">
        <ele>2330.6</ele>
        <time>2017-07-28T11:25:28Z</time>
      </trkpt>
      <trkpt lat="44.9791620" lon="6.7516360">
        <ele>2330.6</ele>
        <time>2017-07-28T11:25:29Z</time>
      </trkpt>
      <trkpt lat="44.9791130" lon="6.7515550">
        <ele>2331.8</ele>
        <time>2017-07-28T11:25:37Z</time>
      </trkpt>
      <trkpt lat="44.9790920" lon="6.7515090">
        <ele>2332.2</ele>
        <time>2017-07-28T11:25:41Z</time>
      </trkpt>
      <trkpt lat="44.9790740" lon="6.7514810">
        <ele>2332.4</ele>
        <time>2017-07-28T11:25:44Z</time>
      </trkpt>
      <trkpt lat="44.9790640" lon="6.7514590">
        <ele>2332.8</ele>
        <time>2017-07-28T11:25:46Z</time>
      </trkpt>
      <trkpt lat="44.9786610" lon="6.7508370">
        <ele>2338.4</ele>
        <time>2017-07-28T11:26:47Z</time>
      </trkpt>
      <trkpt lat="44.9786530" lon="6.7508240">
        <ele>2338.4</ele>
        <time>2017-07-28T11:26:48Z</time>
      </trkpt>
      <trkpt lat="44.9785880" lon="6.7507350">
        <ele>2338.8</ele>
        <time>2017-07-28T11:26:56Z</time>
      </trkpt>
      <trkpt lat="44.9780130" lon="6.7499370">
        <ele>2355.4</ele>
        <time>2017-07-28T11:28:26Z</time>
      </trkpt>
      <trkpt lat="44.9780070" lon="6.7498860">
        <ele>2356.6</ele>
        <time>2017-07-28T11:28:30Z</time>
      </trkpt>
      <trkpt lat="44.9779860" lon="6.7498340">
        <ele>2357.6</ele>
        <time>2017-07-28T11:28:35Z</time>
      </trkpt>
      <trkpt lat="44.9779800" lon="6.7498150">
        <ele>2358.8</ele>
        <time>2017-07-28T11:28:37Z</time>
      </trkpt>
      <trkpt lat="44.9779770" lon="6.7498040">
        <ele>2359.2</ele>
        <time>2017-07-28T11:28:38Z</time>
      </trkpt>
      <trkpt lat="44.9779630" lon="6.7497670">
        <ele>2360.0</ele>
        <time>2017-07-28T11:28:42Z</time>
      </trkpt>
      <trkpt lat="44.9779560" lon="6.7497570">
        <ele>2360.0</ele>
        <time>2017-07-28T11:28:43Z</time>
      </trkpt>
      <trkpt lat="44.9778890" lon="6.7487470">
        <ele>2375.4</ele>
        <time>2017-07-28T11:30:25Z</time>
      </trkpt>
      <trkpt lat="44.9778930" lon="6.7485790">
        <ele>2375.4</ele>
        <time>2017-07-28T11:30:33Z</time>
      </trkpt>
      <trkpt lat="44.9779070" lon="6.7484630">
        <ele>2376.6</ele>
        <time>2017-07-28T11:30:39Z</time>
      </trkpt>
      <trkpt lat="44.9779000" lon="6.7484220">
        <ele>2377.0</ele>
        <time>2017-07-28T11:30:41Z</time>
      </trkpt>
      <trkpt lat="44.9778790" lon="6.7483300">
        <ele>2377.8</ele>
        <time>2017-07-28T11:30:45Z</time>
      </trkpt>
      <trkpt lat="44.9778530" lon="6.7482540">
        <ele>2378.8</ele>
        <time>2017-07-28T11:30:50Z</time>
      </trkpt>
      <trkpt lat="44.9778470" lon="6.7482380">
        <ele>2379.0</ele>
        <time>2017-07-28T11:30:51Z</time>
      </trkpt>
      <trkpt lat="44.9778160" lon="6.7481600">
        <ele>2380.2</ele>
        <time>2017-07-28T11:30:56Z</time>
      </trkpt>
      <trkpt lat="44.9778090" lon="6.7481440">
        <ele>2380.4</ele>
        <time>2017-07-28T11:30:57Z</time>
      </trkpt>
      <trkpt lat="44.9777740" lon="6.7480910">
        <ele>2381.4</ele>
        <time>2017-07-28T11:31:01Z</time>
      </trkpt>
      <trkpt lat="44.9777410" lon="6.7480160">
        <ele>2382.4</ele>
        <time>2017-07-28T11:31:06Z</time>
      </trkpt>
      <trkpt lat="44.9777350" lon="6.7480010">
        <ele>2382.6</ele>
        <time>2017-07-28T11:31:07Z</time>
      </trkpt>
      <trkpt lat="44.9777010" lon="6.7479310">
        <ele>2383.6</ele>
        <time>2017-07-28T11:31:12Z</time>
      </trkpt>
      <trkpt lat="44.9776920" lon="6.7478780">
        <ele>2384.6</ele>
        <time>2017-07-28T11:31:15Z</time>
      </trkpt>
      <trkpt lat="44.9769690" lon="6.7466690">
        <ele>2407.0</ele>
        <time>2017-07-28T11:34:07Z</time>
      </trkpt>
      <trkpt lat="44.9769670" lon="6.7466780">
        <ele>2407.0</ele>
        <time>2017-07-28T11:34:08Z</time>
      </trkpt>
      <trkpt lat="44.9768660" lon="6.7468570">
        <ele>2411.0</ele>
        <time>2017-07-28T11:34:31Z</time>
      </trkpt>
      <trkpt lat="44.9768540" lon="6.7468650">
        <ele>2411.2</ele>
        <time>2017-07-28T11:34:32Z</time>
      </trkpt>
      <trkpt lat="44.9768260" lon="6.7468710">
        <ele>2411.2</ele>
        <time>2017-07-28T11:34:34Z</time>
      </trkpt>
      <trkpt lat="44.9767790" lon="6.7469030">
        <ele>2411.2</ele>
        <time>2017-07-28T11:34:38Z</time>
      </trkpt>
      <trkpt lat="44.9736100" lon="6.7425290">
        <ele>2600.4</ele>
        <time>2017-07-28T11:55:20Z</time>
      </trkpt>
      <trkpt lat="44.9735690" lon="6.7425690">
        <ele>2600.8</ele>
        <time>2017-07-28T11:55:24Z</time>
      </trkpt>
      <trkpt lat="44.9735470" lon="6.7425780">
        <ele>2600.4</ele>
        <time>2017-07-28T11:55:27Z</time>
      </trkpt>
      <trkpt lat="44.9735110" lon="6.7425940">
        <ele>2600.4</ele>
        <time>2017-07-28T11:55:31Z</time>
      </trkpt>
      <trkpt lat="44.9734910" lon="6.7426060">
        <ele>2600.6</ele>
        <time>2017-07-28T11:55:34Z</time>
      </trkpt>
      <trkpt lat="44.9734780" lon="6.7426150">
        <ele>2600.8</ele>
        <time>2017-07-28T11:55:36Z</time>
      </trkpt>
      <trkpt lat="44.9734710" lon="6.7426170">
        <ele>2600.8</ele>
        <time>2017-07-28T11:55:37Z</time>
      </trkpt>
      <trkpt lat="44.9734450" lon="6.7426380">
        <ele>2601.6</ele>
        <time>2017-07-28T11:55:42Z</time>
      </trkpt>
      <trkpt lat="44.9734400" lon="6.7426420">
        <ele>2601.6</ele>
        <time>2017-07-28T11:55:43Z</time>
      </trkpt>
      <trkpt lat="44.9734250" lon="6.7426590">
        <ele>2602.0</ele>
        <time>2017-07-28T11:55:46Z</time>
      </trkpt>
      <trkpt lat="44.9734130" lon="6.7426860">
        <ele>2602.4</ele>
        <time>2017-07-28T11:55:49Z</time>
      </trkpt>
      <trkpt lat="44.9734070" lon="6.7426940">
        <ele>2602.8</ele>
        <time>2017-07-28T11:55:50Z</time>
      </trkpt>
      <trkpt lat="44.9733710" lon="6.7427460">
        <ele>2603.6</ele>
        <time>2017-07-28T11:55:56Z</time>
      </trkpt>
      <trkpt lat="44.9733640" lon="6.7427510">
        <ele>2603.8</ele>
        <time>2017-07-28T11:55:57Z</time>
      </trkpt>
      <trkpt lat="44.9733290" lon="6.7428010">
        <ele>2604.8</ele>
        <time>2017-07-28T11:56:03Z</time>
      </trkpt>
      <trkpt lat="44.9733220" lon="6.7428090">
        <ele>2605.0</ele>
        <time>2017-07-28T11:56:04Z</time>
      </trkpt>
      <trkpt lat="44.9732870" lon="6.7428170">
        <ele>2606.0</ele>
        <time>2017-07-28T11:56:09Z</time>
      </trkpt>
      <trkpt lat="44.9732840" lon="6.7428120">
        <ele>2606.2</ele>
        <time>2017-07-28T11:56:10Z</time>
      </trkpt>
      <trkpt lat="44.9732770" lon="6.7427890">
        <ele>2606.0</ele>
        <time>2017-07-28T11:56:13Z</time>
      </trkpt>
      <trkpt lat="44.9732800" lon="6.7427630">
        <ele>2605.8</ele>
        <time>2017-07-28T11:56:16Z</time>
      </trkpt>
      <trkpt lat="44.9732810" lon="6.7426990">
        <ele>2607.4</ele>
        <time>2017-07-28T11:56:22Z</time>
      </trkpt>
      <trkpt lat="44.9732840" lon="6.7426770">
        <ele>2608.0</ele>
        <time>2017-07-28T11:56:24Z</time>
      </trkpt>
      <trkpt lat="44.9732950" lon="6.7426570">
        <ele>2608.6</ele>
        <time>2017-07-28T11:56:26Z</time>
      </trkpt>
      <trkpt lat="44.9733030" lon="6.7426070">
        <ele>2609.8</ele>
        <time>2017-07-28T11:56:30Z</time>
      </trkpt>
      <trkpt lat="44.9733090" lon="6.7425480">
        <ele>2610.8</ele>
        <time>2017-07-28T11:56:35Z</time>
      </trkpt>
      <trkpt lat="44.9733040" lon="6.7425180">
        <ele>2611.2</ele>
        <time>2017-07-28T11:56:38Z</time>
      </trkpt>
      <trkpt lat="44.9733040" lon="6.7425080">
        <ele>2611.2</ele>
        <time>2017-07-28T11:56:39Z</time>
      </trkpt>
      <trkpt lat="44.9733040" lon="6.7424570">
        <ele>2611.8</ele>
        <time>2017-07-28T11:56:43Z</time>
      </trkpt>
      <trkpt lat="44.9733050" lon="6.7424380">
        <ele>2612.0</ele>
        <time>2017-07-28T11:56:45Z</time>
      </trkpt>
      <trkpt lat="44.9733080" lon="6.7423930">
        <ele>2612.6</ele>
        <time>2017-07-28T11:56:49Z</time>
      </trkpt>
      <trkpt lat="44.9733110" lon="6.7423560">
        <ele>2612.8</ele>
        <time>2017-07-28T11:56:52Z</time>
      </trkpt>
      <trkpt lat="44.9733190" lon="6.7423390">
        <ele>2613.4</ele>
        <time>2017-07-28T11:56:54Z</time>
      </trkpt>
      <trkpt lat="44.9733320" lon="6.7423080">
        <ele>2613.8</ele>
        <time>2017-07-28T11:56:57Z</time>
      </trkpt>
      <trkpt lat="44.9733560" lon="6.7422750">
        <ele>2614.8</ele>
        <time>2017-07-28T11:57:00Z</time>
      </trkpt>
      <trkpt lat="44.9733730" lon="6.7422610">
        <ele>2615.4</ele>
        <time>2017-07-28T11:57:02Z</time>
      </trkpt>
      <trkpt lat="44.9733880" lon="6.7422430">
        <ele>2616.0</ele>
        <time>2017-07-28T11:57:04Z</time>
      </trkpt>
      <trkpt lat="44.9734130" lon="6.7422130">
        <ele>2617.2</ele>
        <time>2017-07-28T11:57:08Z</time>
      </trkpt>
      <trkpt lat="44.9734270" lon="6.7421970">
        <ele>2617.6</ele>
        <time>2017-07-28T11:57:10Z</time>
      </trkpt>
      <trkpt lat="44.9734480" lon="6.7421890">
        <ele>2618.2</ele>
        <time>2017-07-28T11:57:13Z</time>
      </trkpt>
      <trkpt lat="44.9735030" lon="6.7421810">
        <ele>2619.4</ele>
        <time>2017-07-28T11:57:18Z</time>
      </trkpt>
      <trkpt lat="44.9735610" lon="6.7421560">
        <ele>2620.4</ele>
        <time>2017-07-28T11:57:24Z</time>
      </trkpt>
      <trkpt lat="44.9735670" lon="6.7421490">
        <ele>2620.6</ele>
        <time>2017-07-28T11:57:25Z</time>
      </trkpt>
      <trkpt lat="44.9735760" lon="6.7421240">
        <ele>2621.0</ele>
        <time>2017-07-28T11:57:28Z</time>
      </trkpt>
      <trkpt lat="44.9735710" lon="6.7420830">
        <ele>2620.8</ele>
        <time>2017-07-28T11:57:32Z</time>
      </trkpt>
      <trkpt lat="44.9735410" lon="6.7420390">
        <ele>2619.6</ele>
        <time>2017-07-28T11:57:39Z</time>
      </trkpt>
      <trkpt lat="44.9735340" lon="6.7420360">
        <ele>2619.4</ele>
        <time>2017-07-28T11:57:40Z</time>
      </trkpt>
      <trkpt lat="44.9735130" lon="6.7420240">
        <ele>2619.2</ele>
        <time>2017-07-28T11:57:42Z</time>
      </trkpt>
      <trkpt lat="44.9735060" lon="6.7420220">
        <ele>2619.0</ele>
        <time>2017-07-28T11:57:43Z</time>
      </trkpt>
      <trkpt lat="44.9734730" lon="6.7420210">
        <ele>2618.8</ele>
        <time>2017-07-28T11:57:47Z</time>
      </trkpt>
      <trkpt lat="44.9734170" lon="6.7420320">
        <ele>2618.8</ele>
        <time>2017-07-28T11:57:54Z</time>
      </trkpt>
      <trkpt lat="44.9734090" lon="6.7420340">
        <ele>2618.6</ele>
        <time>2017-07-28T11:57:55Z</time>
      </trkpt>
      <trkpt lat="44.9733690" lon="6.7420440">
        <ele>2618.6</ele>
        <time>2017-07-28T11:58:01Z</time>
      </trkpt>
      <trkpt lat="44.9733070" lon="6.7420640">
        <ele>2619.8</ele>
        <time>2017-07-28T11:58:07Z</time>
      </trkpt>
      <trkpt lat="44.9732890" lon="6.7420740">
        <ele>2620.6</ele>
        <time>2017-07-28T11:58:10Z</time>
      </trkpt>
      <trkpt lat="44.9732840" lon="6.7420790">
        <ele>2620.8</ele>
        <time>2017-07-28T11:58:11Z</time>
      </trkpt>
      <trkpt lat="44.9732640" lon="6.7420890">
        <ele>2621.4</ele>
        <time>2017-07-28T11:58:14Z</time>
      </trkpt>
      <trkpt lat="44.9732570" lon="6.7420940">
        <ele>2621.8</ele>
        <time>2017-07-28T11:58:15Z</time>
      </trkpt>
      <trkpt lat="44.9732180" lon="6.7421070">
        <ele>2623.0</ele>
        <time>2017-07-28T11:58:20Z</time>
      </trkpt>
      <trkpt lat="44.9732040" lon="6.7421240">
        <ele>2623.4</ele>
        <time>2017-07-28T11:58:22Z</time>
      </trkpt>
      <trkpt lat="44.9731970" lon="6.7421310">
        <ele>2623.6</ele>
        <time>2017-07-28T11:58:23Z</time>
      </trkpt>
      <trkpt lat="44.9731830" lon="6.7421420">
        <ele>2624.2</ele>
        <time>2017-07-28T11:58:25Z</time>
      </trkpt>
      <trkpt lat="44.9731430" lon="6.7421830">
        <ele>2625.0</ele>
        <time>2017-07-28T11:58:30Z</time>
      </trkpt>
      <trkpt lat="44.9731380" lon="6.7421910">
        <ele>2625.2</ele>
        <time>2017-07-28T11:58:31Z</time>
      </trkpt>
      <trkpt lat="44.9731090" lon="6.7422380">
        <ele>2625.6</ele>
        <time>2017-07-28T11:58:36Z</time>
      </trkpt>
      <trkpt lat="44.9731050" lon="6.7422470">
        <ele>2625.8</ele>
        <time>2017-07-28T11:58:37Z</time>
      </trkpt>
      <trkpt lat="44.9730890" lon="6.7422630">
        <ele>2626.4</ele>
        <time>2017-07-28T11:58:39Z</time>
      </trkpt>
      <trkpt lat="44.9730500" lon="6.7422930">
        <ele>2627.6</ele>
        <time>2017-07-28T11:58:44Z</time>
      </trkpt>
      <trkpt lat="44.9730210" lon="6.7423180">
        <ele>2628.8</ele>
        <time>2017-07-28T11:58:48Z</time>
      </trkpt>
      <trkpt lat="44.9729970" lon="6.7423430">
        <ele>2629.8</ele>
        <time>2017-07-28T11:58:51Z</time>
      </trkpt>
      <trkpt lat="44.9729920" lon="6.7423500">
        <ele>2630.2</ele>
        <time>2017-07-28T11:58:52Z</time>
      </trkpt>
      <trkpt lat="44.9729820" lon="6.7423690">
        <ele>2630.8</ele>
        <time>2017-07-28T11:58:54Z</time>
      </trkpt>
      <trkpt lat="44.9729630" lon="6.7423850">
        <ele>2632.0</ele>
        <time>2017-07-28T11:58:57Z</time>
      </trkpt>
      <trkpt lat="44.9729550" lon="6.7423930">
        <ele>2632.4</ele>
        <time>2017-07-28T11:58:58Z</time>
      </trkpt>
      <trkpt lat="44.9729420" lon="6.7424130">
        <ele>2633.2</ele>
        <time>2017-07-28T11:59:00Z</time>
      </trkpt>
      <trkpt lat="44.9729240" lon="6.7424440">
        <ele>2634.4</ele>
        <time>2017-07-28T11:59:03Z</time>
      </trkpt>
      <trkpt lat="44.9729190" lon="6.7424580">
        <ele>2634.6</ele>
        <time>2017-07-28T11:59:04Z</time>
      </trkpt>
      <trkpt lat="44.9729030" lon="6.7424850">
        <ele>2635.6</ele>
        <time>2017-07-28T11:59:07Z</time>
      </trkpt>
      <trkpt lat="44.9728740" lon="6.7425430">
        <ele>2636.6</ele>
        <time>2017-07-28T11:59:12Z</time>
      </trkpt>
      <trkpt lat="44.9728700" lon="6.7425550">
        <ele>2636.8</ele>
        <time>2017-07-28T11:59:13Z</time>
      </trkpt>
      <trkpt lat="44.9728440" lon="6.7426140">
        <ele>2637.8</ele>
        <time>2017-07-28T11:59:19Z</time>
      </trkpt>
      <trkpt lat="44.9728190" lon="6.7426750">
        <ele>2638.4</ele>
        <time>2017-07-28T11:59:25Z</time>
      </trkpt>
      <trkpt lat="44.9727830" lon="6.7427380">
        <ele>2638.8</ele>
        <time>2017-07-28T11:59:33Z</time>
      </trkpt>
      <trkpt lat="44.9727300" lon="6.7428060">
        <ele>2638.8</ele>
        <time>2017-07-28T11:59:42Z</time>
      </trkpt>
      <trkpt lat="44.9726970" lon="6.7428600">
        <ele>2639.0</ele>
        <time>2017-07-28T11:59:48Z</time>
      </trkpt>
      <trkpt lat="44.9726910" lon="6.7428630">
        <ele>2639.0</ele>
        <time>2017-07-28T11:59:49Z</time>
      </trkpt>
      <trkpt lat="44.9726570" lon="6.7428920">
        <ele>2639.4</ele>
        <time>2017-07-28T11:59:55Z</time>
      </trkpt>
      <trkpt lat="44.9726530" lon="6.7429060">
        <ele>2639.8</ele>
        <time>2017-07-28T11:59:56Z</time>
      </trkpt>
      <trkpt lat="44.9726480" lon="6.7429160">
        <ele>2640.0</ele>
        <time>2017-07-28T11:59:57Z</time>
      </trkpt>
      <trkpt lat="44.9726220" lon="6.7429270">
        <ele>2641.0</ele>
        <time>2017-07-28T12:00:01Z</time>
      </trkpt>
      <trkpt lat="44.9726100" lon="6.7429300">
        <ele>2641.2</ele>
        <time>2017-07-28T12:00:02Z</time>
      </trkpt>
      <trkpt lat="44.9725650" lon="6.7429410">
        <ele>2642.0</ele>
        <time>2017-07-28T12:00:08Z</time>
      </trkpt>
      <trkpt lat="44.9725570" lon="6.7429470">
        <ele>2642.2</ele>
        <time>2017-07-28T12:00:09Z</time>
      </trkpt>
      <trkpt lat="44.9725250" lon="6.7429790">
        <ele>2643.2</ele>
        <time>2017-07-28T12:00:14Z</time>
      </trkpt>
      <trkpt lat="44.9725150" lon="6.7429860">
        <ele>2643.4</ele>
        <time>2017-07-28T12:00:15Z</time>
      </trkpt>
      <trkpt lat="44.9724670" lon="6.7430200">
        <ele>2644.0</ele>
        <time>2017-07-28T12:00:21Z</time>
      </trkpt>
      <trkpt lat="44.9724430" lon="6.7430380">
        <ele>2644.4</ele>
        <time>2017-07-28T12:00:25Z</time>
      </trkpt>
      <trkpt lat="44.9724250" lon="6.7430590">
        <ele>2644.6</ele>
        <time>2017-07-28T12:00:28Z</time>
      </trkpt>
      <trkpt lat="44.9723890" lon="6.7430940">
        <ele>2645.2</ele>
        <time>2017-07-28T12:00:34Z</time>
      </trkpt>
      <trkpt lat="44.9723800" lon="6.7430860">
        <ele>2645.6</ele>
        <time>2017-07-28T12:00:36Z</time>
      </trkpt>
      <trkpt lat="44.9723760" lon="6.7430490">
        <ele>2646.4</ele>
        <time>2017-07-28T12:00:40Z</time>
      </trkpt>
      <trkpt lat="44.9723740" lon="6.7430350">
        <ele>2646.6</ele>
        <time>2017-07-28T12:00:41Z</time>
      </trkpt>
      <trkpt lat="44.9723920" lon="6.7429510">
        <ele>2645.0</ele>
        <time>2017-07-28T12:00:51Z</time>
      </trkpt>
      <trkpt lat="44.9724350" lon="6.7429140">
        <ele>2644.4</ele>
        <time>2017-07-28T12:00:54Z</time>
      </trkpt>
      <trkpt lat="44.9724500" lon="6.7428970">
        <ele>2644.0</ele>
        <time>2017-07-28T12:00:55Z</time>
      </trkpt>
      <trkpt lat="44.9724610" lon="6.7428800">
        <ele>2643.6</ele>
        <time>2017-07-28T12:00:56Z</time>
      </trkpt>
      <trkpt lat="44.9725250" lon="6.7427590">
        <ele>2642.6</ele>
        <time>2017-07-28T12:01:01Z</time>
      </trkpt>
      <trkpt lat="44.9725550" lon="6.7426140">
        <ele>2642.0</ele>
        <time>2017-07-28T12:01:07Z</time>
      </trkpt>
      <trkpt lat="44.9725450" lon="6.7425830">
        <ele>2642.0</ele>
        <time>2017-07-28T12:01:09Z</time>
      </trkpt>
      <trkpt lat="44.9725320" lon="6.7425430">
        <ele>2642.0</ele>
        <time>2017-07-28T12:01:12Z</time>
      </trkpt>
      <trkpt lat="44.9725110" lon="6.7425240">
        <ele>2642.4</ele>
        <time>2017-07-28T12:01:50Z</time>
      </trkpt>
      <trkpt lat="44.9725000" lon="6.7425200">
        <ele>2642.6</ele>
        <time>2017-07-28T12:01:51Z</time>
      </trkpt>
      <trkpt lat="44.9724880" lon="6.7425300">
        <ele>2642.8</ele>
        <time>2017-07-28T12:01:52Z</time>
      </trkpt>
      <trkpt lat="44.9724650" lon="6.7426370">
        <ele>2643.2</ele>
        <time>2017-07-28T12:01:56Z</time>
      </trkpt>
      <trkpt lat="44.9724600" lon="6.7426690">
        <ele>2643.6</ele>
        <time>2017-07-28T12:01:57Z</time>
      </trkpt>
      <trkpt lat="44.9724580" lon="6.7426960">
        <ele>2643.6</ele>
        <time>2017-07-28T12:01:58Z</time>
      </trkpt>
      <trkpt lat="44.9724440" lon="6.7427650">
        <ele>2644.2</ele>
        <time>2017-07-28T12:02:01Z</time>
      </trkpt>
      <trkpt lat="44.9724190" lon="6.7427880">
        <ele>2644.4</ele>
        <time>2017-07-28T12:02:03Z</time>
      </trkpt>
      <trkpt lat="44.9724010" lon="6.7427920">
        <ele>2644.8</ele>
        <time>2017-07-28T12:02:04Z</time>
      </trkpt>
      <trkpt lat="44.9723360" lon="6.7428060">
        <ele>2645.8</ele>
        <time>2017-07-28T12:02:08Z</time>
      </trkpt>
      <trkpt lat="44.9723000" lon="6.7427980">
        <ele>2646.2</ele>
        <time>2017-07-28T12:02:10Z</time>
      </trkpt>
      <trkpt lat="44.9722860" lon="6.7427900">
        <ele>2646.6</ele>
        <time>2017-07-28T12:02:11Z</time>
      </trkpt>
      <trkpt lat="44.9722590" lon="6.7427820">
        <ele>2647.2</ele>
        <time>2017-07-28T12:02:13Z</time>
      </trkpt>
      <trkpt lat="44.9722320" lon="6.7427960">
        <ele>2647.8</ele>
        <time>2017-07-28T12:02:15Z</time>
      </trkpt>
      <trkpt lat="44.9721910" lon="6.7428380">
        <ele>2648.4</ele>
        <time>2017-07-28T12:02:18Z</time>
      </trkpt>
      <trkpt lat="44.9721670" lon="6.7428900">
        <ele>2649.2</ele>
        <time>2017-07-28T12:02:21Z</time>
      </trkpt>
      <trkpt lat="44.9721660" lon="6.7429090">
        <ele>2649.4</ele>
        <time>2017-07-28T12:02:22Z</time>
      </trkpt>
      <trkpt lat="44.9721340" lon="6.7429630">
        <ele>2650.4</ele>
        <time>2017-07-28T12:02:26Z</time>
      </trkpt>
      <trkpt lat="44.9721220" lon="6.7429760">
        <ele>2650.6</ele>
        <time>2017-07-28T12:02:27Z</time>
      </trkpt>
      <trkpt lat="44.9720950" lon="6.7430250">
        <ele>2651.2</ele>
        <time>2017-07-28T12:02:30Z</time>
      </trkpt>
      <trkpt lat="44.9720840" lon="6.7430670">
        <ele>2651.6</ele>
        <time>2017-07-28T12:02:32Z</time>
      </trkpt>
      <trkpt lat="44.9720760" lon="6.7430820">
        <ele>2651.6</ele>
        <time>2017-07-28T12:02:33Z</time>
      </trkpt>
      <trkpt lat="44.9720630" lon="6.7431090">
        <ele>2652.0</ele>
        <time>2017-07-28T12:02:35Z</time>
      </trkpt>
      <trkpt lat="44.9720590" lon="6.7431230">
        <ele>2652.2</ele>
        <time>2017-07-28T12:02:36Z</time>
      </trkpt>
      <trkpt lat="44.9720470" lon="6.7431720">
        <ele>2653.0</ele>
        <time>2017-07-28T12:02:39Z</time>
      </trkpt>
      <trkpt lat="44.9720410" lon="6.7431900">
        <ele>2653.2</ele>
        <time>2017-07-28T12:02:40Z</time>
      </trkpt>
      <trkpt lat="44.9720240" lon="6.7432200">
        <ele>2653.6</ele>
        <time>2017-07-28T12:02:42Z</time>
      </trkpt>
      <trkpt lat="44.9719980" lon="6.7432260">
        <ele>2654.0</ele>
        <time>2017-07-28T12:02:44Z</time>
      </trkpt>
      <trkpt lat="44.9719840" lon="6.7432130">
        <ele>2654.2</ele>
        <time>2017-07-28T12:02:45Z</time>
      </trkpt>
      <trkpt lat="44.9719710" lon="6.7431420">
        <ele>2655.0</ele>
        <time>2017-07-28T12:02:48Z</time>
      </trkpt>
      <trkpt lat="44.9719640" lon="6.7430840">
        <ele>2656.2</ele>
        <time>2017-07-28T12:02:51Z</time>
      </trkpt>
      <trkpt lat="44.9719660" lon="6.7430430">
        <ele>2657.2</ele>
        <time>2017-07-28T12:02:55Z</time>
      </trkpt>
      <trkpt lat="44.9718560" lon="6.7431240">
        <ele>2668.6</ele>
        <time>2017-07-28T12:03:48Z</time>
      </trkpt>
      <trkpt lat="44.9718370" lon="6.7431920">
        <ele>2668.6</ele>
        <time>2017-07-28T12:03:51Z</time>
      </trkpt>
      <trkpt lat="44.9718350" lon="6.7432160">
        <ele>2668.6</ele>
        <time>2017-07-28T12:03:52Z</time>
      </trkpt>
      <trkpt lat="44.9718290" lon="6.7432670">
        <ele>2668.4</ele>
        <time>2017-07-28T12:03:54Z</time>
      </trkpt>
      <trkpt lat="44.9718170" lon="6.7433740">
        <ele>2668.6</ele>
        <time>2017-07-28T12:03:59Z</time>
      </trkpt>
      <trkpt lat="44.9718020" lon="6.7434070">
        <ele>2669.2</ele>
        <time>2017-07-28T12:04:01Z</time>
      </trkpt>
      <trkpt lat="44.9717910" lon="6.7434170">
        <ele>2669.4</ele>
        <time>2017-07-28T12:04:02Z</time>
      </trkpt>
      <trkpt lat="44.9717650" lon="6.7434190">
        <ele>2669.8</ele>
        <time>2017-07-28T12:04:04Z</time>
      </trkpt>
      <trkpt lat="44.9717420" lon="6.7433840">
        <ele>2670.2</ele>
        <time>2017-07-28T12:04:06Z</time>
      </trkpt>
      <trkpt lat="44.9717170" lon="6.7433210">
        <ele>2671.0</ele>
        <time>2017-07-28T12:04:09Z</time>
      </trkpt>
      <trkpt lat="44.9717070" lon="6.7433020">
        <ele>2671.4</ele>
        <time>2017-07-28T12:04:10Z</time>
      </trkpt>
      <trkpt lat="44.9716900" lon="6.7432760">
        <ele>2671.8</ele>
        <time>2017-07-28T12:04:12Z</time>
      </trkpt>
      <trkpt lat="44.9716710" lon="6.7432540">
        <ele>2672.2</ele>
        <time>2017-07-28T12:04:14Z</time>
      </trkpt>
      <trkpt lat="44.9716410" lon="6.7432160">
        <ele>2673.2</ele>
        <time>2017-07-28T12:04:17Z</time>
      </trkpt>
      <trkpt lat="44.9716040" lon="6.7431560">
        <ele>2674.2</ele>
        <time>2017-07-28T12:04:21Z</time>
      </trkpt>
      <trkpt lat="44.9715620" lon="6.7431100">
        <ele>2675.4</ele>
        <time>2017-07-28T12:04:25Z</time>
      </trkpt>
      <trkpt lat="44.9715530" lon="6.7431060">
        <ele>2675.6</ele>
        <time>2017-07-28T12:04:26Z</time>
      </trkpt>
      <trkpt lat="44.9715420" lon="6.7431150">
        <ele>2676.2</ele>
        <time>2017-07-28T12:04:27Z</time>
      </trkpt>
      <trkpt lat="44.9715340" lon="6.7431260">
        <ele>2676.6</ele>
        <time>2017-07-28T12:04:28Z</time>
      </trkpt>
      <trkpt lat="44.9715150" lon="6.7431530">
        <ele>2677.4</ele>
        <time>2017-07-28T12:04:30Z</time>
      </trkpt>
      <trkpt lat="44.9715080" lon="6.7431780">
        <ele>2677.6</ele>
        <time>2017-07-28T12:04:32Z</time>
      </trkpt>
      <trkpt lat="44.9715070" lon="6.7432140">
        <ele>2678.0</ele>
        <time>2017-07-28T12:04:34Z</time>
      </trkpt>
      <trkpt lat="44.9715210" lon="6.7432460">
        <ele>2678.0</ele>
        <time>2017-07-28T12:04:36Z</time>
      </trkpt>
      <trkpt lat="44.9715380" lon="6.7432920">
        <ele>2678.2</ele>
        <time>2017-07-28T12:04:39Z</time>
      </trkpt>
      <trkpt lat="44.9715430" lon="6.7434170">
        <ele>2678.6</ele>
        <time>2017-07-28T12:04:46Z</time>
      </trkpt>
      <trkpt lat="44.9715390" lon="6.7434720">
        <ele>2678.8</ele>
        <time>2017-07-28T12:04:49Z</time>
      </trkpt>
      <trkpt lat="44.9715350" lon="6.7435190">
        <ele>2678.4</ele>
        <time>2017-07-28T12:04:52Z</time>
      </trkpt>
      <trkpt lat="44.9715250" lon="6.7435340">
        <ele>2679.2</ele>
        <time>2017-07-28T12:04:53Z</time>
      </trkpt>
      <trkpt lat="44.9715120" lon="6.7435830">
        <ele>2680.2</ele>
        <time>2017-07-28T12:04:56Z</time>
      </trkpt>
      <trkpt lat="44.9715100" lon="6.7436370">
        <ele>2680.8</ele>
        <time>2017-07-28T12:04:59Z</time>
      </trkpt>
      <trkpt lat="44.9715090" lon="6.7436710">
        <ele>2681.2</ele>
        <time>2017-07-28T12:05:01Z</time>
      </trkpt>
      <trkpt lat="44.9715120" lon="6.7436870">
        <ele>2681.4</ele>
        <time>2017-07-28T12:05:02Z</time>
      </trkpt>
      <trkpt lat="44.9715150" lon="6.7437190">
        <ele>2682.4</ele>
        <time>2017-07-28T12:05:04Z</time>
      </trkpt>
      <trkpt lat="44.9715070" lon="6.7438070">
        <ele>2683.6</ele>
        <time>2017-07-28T12:05:09Z</time>
      </trkpt>
      <trkpt lat="44.9714940" lon="6.7438660">
        <ele>2684.2</ele>
        <time>2017-07-28T12:05:12Z</time>
      </trkpt>
      <trkpt lat="44.9714820" lon="6.7439010">
        <ele>2684.8</ele>
        <time>2017-07-28T12:05:14Z</time>
      </trkpt>
      <trkpt lat="44.9714620" lon="6.7439890">
        <ele>2685.8</ele>
        <time>2017-07-28T12:05:19Z</time>
      </trkpt>
      <trkpt lat="44.9714490" lon="6.7440170">
        <ele>2686.4</ele>
        <time>2017-07-28T12:05:21Z</time>
      </trkpt>
      <trkpt lat="44.9714320" lon="6.7440700">
        <ele>2687.0</ele>
        <time>2017-07-28T12:05:24Z</time>
      </trkpt>
      <trkpt lat="44.9714320" lon="6.7440920">
        <ele>2687.2</ele>
        <time>2017-07-28T12:05:25Z</time>
      </trkpt>
      <trkpt lat="44.9714390" lon="6.7441280">
        <ele>2687.4</ele>
        <time>2017-07-28T12:05:27Z</time>
      </trkpt>
      <trkpt lat="44.9714460" lon="6.7441770">
        <ele>2688.0</ele>
        <time>2017-07-28T12:05:30Z</time>
      </trkpt>
      <trkpt lat="44.9714450" lon="6.7442140">
        <ele>2688.4</ele>
        <time>2017-07-28T12:05:32Z</time>
      </trkpt>
      <trkpt lat="44.9714430" lon="6.7442320">
        <ele>2688.6</ele>
        <time>2017-07-28T12:05:33Z</time>
      </trkpt>
      <trkpt lat="44.9714320" lon="6.7442870">
        <ele>2689.2</ele>
        <time>2017-07-28T12:05:36Z</time>
      </trkpt>
      <trkpt lat="44.9714180" lon="6.7443400">
        <ele>2689.8</ele>
        <time>2017-07-28T12:05:39Z</time>
      </trkpt>
      <trkpt lat="44.9714130" lon="6.7443770">
        <ele>2690.2</ele>
        <time>2017-07-28T12:05:41Z</time>
      </trkpt>
      <trkpt lat="44.9713830" lon="6.7444420">
        <ele>2691.4</ele>
        <time>2017-07-28T12:05:46Z</time>
      </trkpt>
      <trkpt lat="44.9713790" lon="6.7444590">
        <ele>2691.6</ele>
        <time>2017-07-28T12:05:47Z</time>
      </trkpt>
      <trkpt lat="44.9713770" lon="6.7444980">
        <ele>2692.4</ele>
        <time>2017-07-28T12:05:49Z</time>
      </trkpt>
      <trkpt lat="44.9713810" lon="6.7445940">
        <ele>2693.2</ele>
        <time>2017-07-28T12:05:55Z</time>
      </trkpt>
      <trkpt lat="44.9713720" lon="6.7446000">
        <ele>2693.4</ele>
        <time>2017-07-28T12:05:56Z</time>
      </trkpt>
      <trkpt lat="44.9713160" lon="6.7445750">
        <ele>2694.4</ele>
        <time>2017-07-28T12:06:00Z</time>
      </trkpt>
      <trkpt lat="44.9713030" lon="6.7445350">
        <ele>2694.6</ele>
        <time>2017-07-28T12:06:02Z</time>
      </trkpt>
      <trkpt lat="44.9712940" lon="6.7444720">
        <ele>2695.4</ele>
        <time>2017-07-28T12:06:05Z</time>
      </trkpt>
      <trkpt lat="44.9712760" lon="6.7444050">
        <ele>2697.0</ele>
        <time>2017-07-28T12:06:10Z</time>
      </trkpt>
      <trkpt lat="44.9712690" lon="6.7443860">
        <ele>2697.4</ele>
        <time>2017-07-28T12:06:11Z</time>
      </trkpt>
      <trkpt lat="44.9712550" lon="6.7443600">
        <ele>2698.2</ele>
        <time>2017-07-28T12:06:13Z</time>
      </trkpt>
      <trkpt lat="44.9712420" lon="6.7443110">
        <ele>2699.6</ele>
        <time>2017-07-28T12:06:16Z</time>
      </trkpt>
      <trkpt lat="44.9712280" lon="6.7442780">
        <ele>2700.0</ele>
        <time>2017-07-28T12:06:18Z</time>
      </trkpt>
      <trkpt lat="44.9712090" lon="6.7442560">
        <ele>2700.6</ele>
        <time>2017-07-28T12:06:20Z</time>
      </trkpt>
      <trkpt lat="44.9711780" lon="6.7442150">
        <ele>2701.6</ele>
        <time>2017-07-28T12:06:23Z</time>
      </trkpt>
      <trkpt lat="44.9711560" lon="6.7441870">
        <ele>2702.0</ele>
        <time>2017-07-28T12:06:25Z</time>
      </trkpt>
      <trkpt lat="44.9711310" lon="6.7441400">
        <ele>2702.6</ele>
        <time>2017-07-28T12:06:28Z</time>
      </trkpt>
      <trkpt lat="44.9711130" lon="6.7440920">
        <ele>2703.0</ele>
        <time>2017-07-28T12:06:31Z</time>
      </trkpt>
      <trkpt lat="44.9711010" lon="6.7440850">
        <ele>2703.2</ele>
        <time>2017-07-28T12:06:32Z</time>
      </trkpt>
      <trkpt lat="44.9710750" lon="6.7440810">
        <ele>2703.6</ele>
        <time>2017-07-28T12:06:34Z</time>
      </trkpt>
      <trkpt lat="44.9710320" lon="6.7441290">
        <ele>2704.4</ele>
        <time>2017-07-28T12:06:38Z</time>
      </trkpt>
      <trkpt lat="44.9710300" lon="6.7441700">
        <ele>2705.0</ele>
        <time>2017-07-28T12:06:40Z</time>
      </trkpt>
      <trkpt lat="44.9710320" lon="6.7442130">
        <ele>2705.2</ele>
        <time>2017-07-28T12:06:42Z</time>
      </trkpt>
      <trkpt lat="44.9710370" lon="6.7442330">
        <ele>2705.2</ele>
        <time>2017-07-28T12:06:43Z</time>
      </trkpt>
      <trkpt lat="44.9710830" lon="6.7443650">
        <ele>2705.8</ele>
        <time>2017-07-28T12:06:50Z</time>
      </trkpt>
      <trkpt lat="44.9710850" lon="6.7445090">
        <ele>2706.2</ele>
        <time>2017-07-28T12:06:57Z</time>
      </trkpt>
      <trkpt lat="44.9710840" lon="6.7445460">
        <ele>2706.4</ele>
        <time>2017-07-28T12:06:59Z</time>
      </trkpt>
      <trkpt lat="44.9710880" lon="6.7446350">
        <ele>2707.8</ele>
        <time>2017-07-28T12:07:04Z</time>
      </trkpt>
      <trkpt lat="44.9710860" lon="6.7447110">
        <ele>2708.8</ele>
        <time>2017-07-28T12:07:08Z</time>
      </trkpt>
      <trkpt lat="44.9710790" lon="6.7447910">
        <ele>2710.2</ele>
        <time>2017-07-28T12:07:12Z</time>
      </trkpt>
      <trkpt lat="44.9710570" lon="6.7448560">
        <ele>2711.4</ele>
        <time>2017-07-28T12:07:16Z</time>
      </trkpt>
      <trkpt lat="44.9710370" lon="6.7448590">
        <ele>2712.0</ele>
        <time>2017-07-28T12:07:18Z</time>
      </trkpt>
      <trkpt lat="44.9710230" lon="6.7448220">
        <ele>2712.4</ele>
        <time>2017-07-28T12:07:20Z</time>
      </trkpt>
      <trkpt lat="44.9710110" lon="6.7447820">
        <ele>2713.2</ele>
        <time>2017-07-28T12:07:22Z</time>
      </trkpt>
      <trkpt lat="44.9709940" lon="6.7447450">
        <ele>2714.0</ele>
        <time>2017-07-28T12:07:24Z</time>
      </trkpt>
      <trkpt lat="44.9709720" lon="6.7447120">
        <ele>2714.8</ele>
        <time>2017-07-28T12:07:26Z</time>
      </trkpt>
      <trkpt lat="44.9709570" lon="6.7446960">
        <ele>2715.2</ele>
        <time>2017-07-28T12:07:27Z</time>
      </trkpt>
      <trkpt lat="44.9709300" lon="6.7446740">
        <ele>2716.6</ele>
        <time>2017-07-28T12:07:29Z</time>
      </trkpt>
      <trkpt lat="44.9708870" lon="6.7446550">
        <ele>2717.6</ele>
        <time>2017-07-28T12:07:32Z</time>
      </trkpt>
      <trkpt lat="44.9708700" lon="6.7446570">
        <ele>2717.8</ele>
        <time>2017-07-28T12:07:33Z</time>
      </trkpt>
      <trkpt lat="44.9708550" lon="6.7446620">
        <ele>2718.2</ele>
        <time>2017-07-28T12:07:34Z</time>
      </trkpt>
      <trkpt lat="44.9708170" lon="6.7446870">
        <ele>2719.0</ele>
        <time>2017-07-28T12:07:37Z</time>
      </trkpt>
      <trkpt lat="44.9707980" lon="6.7447070">
        <ele>2719.6</ele>
        <time>2017-07-28T12:07:39Z</time>
      </trkpt>
      <trkpt lat="44.9707800" lon="6.7447270">
        <ele>2720.2</ele>
        <time>2017-07-28T12:07:41Z</time>
      </trkpt>
      <trkpt lat="44.9707700" lon="6.7447360">
        <ele>2720.6</ele>
        <time>2017-07-28T12:07:42Z</time>
      </trkpt>
      <trkpt lat="44.9707350" lon="6.7447560">
        <ele>2721.6</ele>
        <time>2017-07-28T12:07:45Z</time>
      </trkpt>
      <trkpt lat="44.9707210" lon="6.7447620">
        <ele>2721.8</ele>
        <time>2017-07-28T12:07:46Z</time>
      </trkpt>
      <trkpt lat="44.9706750" lon="6.7447750">
        <ele>2722.6</ele>
        <time>2017-07-28T12:07:50Z</time>
      </trkpt>
      <trkpt lat="44.9706090" lon="6.7447990">
        <ele>2723.6</ele>
        <time>2017-07-28T12:07:56Z</time>
      </trkpt>
      <trkpt lat="44.9705850" lon="6.7448110">
        <ele>2723.8</ele>
        <time>2017-07-28T12:07:58Z</time>
      </trkpt>
      <trkpt lat="44.9705740" lon="6.7448190">
        <ele>2724.2</ele>
        <time>2017-07-28T12:07:59Z</time>
      </trkpt>
      <trkpt lat="44.9705480" lon="6.7448510">
        <ele>2724.8</ele>
        <time>2017-07-28T12:08:02Z</time>
      </trkpt>
      <trkpt lat="44.9705100" lon="6.7448870">
        <ele>2725.8</ele>
        <time>2017-07-28T12:08:06Z</time>
      </trkpt>
      <trkpt lat="44.9704760" lon="6.7449140">
        <ele>2726.4</ele>
        <time>2017-07-28T12:08:09Z</time>
      </trkpt>
      <trkpt lat="44.9704470" lon="6.7449420">
        <ele>2727.0</ele>
        <time>2017-07-28T12:08:12Z</time>
      </trkpt>
      <trkpt lat="44.9704180" lon="6.7449680">
        <ele>2727.8</ele>
        <time>2017-07-28T12:08:15Z</time>
      </trkpt>
      <trkpt lat="44.9704070" lon="6.7449770">
        <ele>2728.4</ele>
        <time>2017-07-28T12:08:16Z</time>
      </trkpt>
      <trkpt lat="44.9703680" lon="6.7450210">
        <ele>2729.4</ele>
        <time>2017-07-28T12:08:20Z</time>
      </trkpt>
      <trkpt lat="44.9703400" lon="6.7450500">
        <ele>2730.0</ele>
        <time>2017-07-28T12:08:23Z</time>
      </trkpt>
      <trkpt lat="44.9703350" lon="6.7450680">
        <ele>2730.4</ele>
        <time>2017-07-28T12:08:24Z</time>
      </trkpt>
      <trkpt lat="44.9703280" lon="6.7450840">
        <ele>2730.6</ele>
        <time>2017-07-28T12:08:25Z</time>
      </trkpt>
      <trkpt lat="44.9702900" lon="6.7451170">
        <ele>2731.4</ele>
        <time>2017-07-28T12:08:29Z</time>
      </trkpt>
      <trkpt lat="44.9702780" lon="6.7451220">
        <ele>2731.6</ele>
        <time>2017-07-28T12:08:30Z</time>
      </trkpt>
      <trkpt lat="44.9702290" lon="6.7451640">
        <ele>2732.8</ele>
        <time>2017-07-28T12:08:35Z</time>
      </trkpt>
      <trkpt lat="44.9701850" lon="6.7451970">
        <ele>2733.2</ele>
        <time>2017-07-28T12:08:39Z</time>
      </trkpt>
      <trkpt lat="44.9701340" lon="6.7452290">
        <ele>2734.0</ele>
        <time>2017-07-28T12:08:43Z</time>
      </trkpt>
      <trkpt lat="44.9700840" lon="6.7452430">
        <ele>2734.6</ele>
        <time>2017-07-28T12:08:47Z</time>
      </trkpt>
      <trkpt lat="44.9700430" lon="6.7452440">
        <ele>2735.0</ele>
        <time>2017-07-28T12:08:50Z</time>
      </trkpt>
      <trkpt lat="44.9700130" lon="6.7452570">
        <ele>2735.2</ele>
        <time>2017-07-28T12:08:53Z</time>
      </trkpt>
      <trkpt lat="44.9699840" lon="6.7452780">
        <ele>2735.6</ele>
        <time>2017-07-28T12:08:56Z</time>
      </trkpt>
      <trkpt lat="44.9699610" lon="6.7452810">
        <ele>2736.0</ele>
        <time>2017-07-28T12:08:58Z</time>
      </trkpt>
      <trkpt lat="44.9699250" lon="6.7452910">
        <ele>2736.8</ele>
        <time>2017-07-28T12:09:01Z</time>
      </trkpt>
      <trkpt lat="44.9699010" lon="6.7452990">
        <ele>2737.2</ele>
        <time>2017-07-28T12:09:03Z</time>
      </trkpt>
      <trkpt lat="44.9698610" lon="6.7453090">
        <ele>2738.4</ele>
        <time>2017-07-28T12:09:07Z</time>
      </trkpt>
      <trkpt lat="44.9698360" lon="6.7453240">
        <ele>2739.0</ele>
        <time>2017-07-28T12:09:09Z</time>
      </trkpt>
      <trkpt lat="44.9698230" lon="6.7453290">
        <ele>2739.4</ele>
        <time>2017-07-28T12:09:10Z</time>
      </trkpt>
      <trkpt lat="44.9697760" lon="6.7453510">
        <ele>2740.6</ele>
        <time>2017-07-28T12:09:14Z</time>
      </trkpt>
      <trkpt lat="44.9697360" lon="6.7453720">
        <ele>2741.6</ele>
        <time>2017-07-28T12:09:18Z</time>
      </trkpt>
      <trkpt lat="44.9697280" lon="6.7453770">
        <ele>2741.8</ele>
        <time>2017-07-28T12:09:19Z</time>
      </trkpt>
      <trkpt lat="44.9696520" lon="6.7453980">
        <ele>2743.0</ele>
        <time>2017-07-28T12:09:25Z</time>
      </trkpt>
      <trkpt lat="44.9696210" lon="6.7454140">
        <ele>2743.6</ele>
        <time>2017-07-28T12:09:28Z</time>
      </trkpt>
      <trkpt lat="44.9696090" lon="6.7454200">
        <ele>2744.0</ele>
        <time>2017-07-28T12:09:29Z</time>
      </trkpt>
      <trkpt lat="44.9695970" lon="6.7454160">
        <ele>2744.0</ele>
        <time>2017-07-28T12:09:30Z</time>
      </trkpt>
      <trkpt lat="44.9695120" lon="6.7454360">
        <ele>2744.6</ele>
        <time>2017-07-28T12:09:37Z</time>
      </trkpt>
      <trkpt lat="44.9694580" lon="6.7454410">
        <ele>2745.0</ele>
        <time>2017-07-28T12:09:41Z</time>
      </trkpt>
      <trkpt lat="44.9694210" lon="6.7454410">
        <ele>2745.4</ele>
        <time>2017-07-28T12:09:44Z</time>
      </trkpt>
      <trkpt lat="44.9693860" lon="6.7454310">
        <ele>2746.0</ele>
        <time>2017-07-28T12:09:47Z</time>
      </trkpt>
      <trkpt lat="44.9693740" lon="6.7454330">
        <ele>2746.0</ele>
        <time>2017-07-28T12:09:48Z</time>
      </trkpt>
      <trkpt lat="44.9693340" lon="6.7454400">
        <ele>2746.4</ele>
        <time>2017-07-28T12:09:51Z</time>
      </trkpt>
      <trkpt lat="44.9692500" lon="6.7454380">
        <ele>2747.0</ele>
        <time>2017-07-28T12:09:58Z</time>
      </trkpt>
      <trkpt lat="44.9692400" lon="6.7454370">
        <ele>2747.2</ele>
        <time>2017-07-28T12:09:59Z</time>
      </trkpt>
      <trkpt lat="44.9692070" lon="6.7454370">
        <ele>2747.8</ele>
        <time>2017-07-28T12:10:02Z</time>
      </trkpt>
      <trkpt lat="44.9691710" lon="6.7454320">
        <ele>2748.2</ele>
        <time>2017-07-28T12:10:05Z</time>
      </trkpt>
      <trkpt lat="44.9691590" lon="6.7454400">
        <ele>2748.4</ele>
        <time>2017-07-28T12:10:06Z</time>
      </trkpt>
      <trkpt lat="44.9691200" lon="6.7454790">
        <ele>2749.2</ele>
        <time>2017-07-28T12:10:10Z</time>
      </trkpt>
      <trkpt lat="44.9691530" lon="6.7455530">
        <ele>2751.8</ele>
        <time>2017-07-28T12:10:18Z</time>
      </trkpt>
      <trkpt lat="44.9691870" lon="6.7455740">
        <ele>2752.6</ele>
        <time>2017-07-28T12:10:21Z</time>
      </trkpt>
      <trkpt lat="44.9692110" lon="6.7455910">
        <ele>2753.0</ele>
        <time>2017-07-28T12:10:23Z</time>
      </trkpt>
      <trkpt lat="44.9692540" lon="6.7456550">
        <ele>2753.8</ele>
        <time>2017-07-28T12:10:28Z</time>
      </trkpt>
      <trkpt lat="44.9692620" lon="6.7456710">
        <ele>2754.0</ele>
        <time>2017-07-28T12:10:29Z</time>
      </trkpt>
      <trkpt lat="44.9693030" lon="6.7457140">
        <ele>2755.2</ele>
        <time>2017-07-28T12:10:33Z</time>
      </trkpt>
      <trkpt lat="44.9693260" lon="6.7457320">
        <ele>2755.8</ele>
        <time>2017-07-28T12:10:35Z</time>
      </trkpt>
      <trkpt lat="44.9693300" lon="6.7457500">
        <ele>2756.2</ele>
        <time>2017-07-28T12:10:36Z</time>
      </trkpt>
      <trkpt lat="44.9693360" lon="6.7457680">
        <ele>2756.6</ele>
        <time>2017-07-28T12:10:37Z</time>
      </trkpt>
      <trkpt lat="44.9693590" lon="6.7458260">
        <ele>2757.2</ele>
        <time>2017-07-28T12:10:41Z</time>
      </trkpt>
      <trkpt lat="44.9693790" lon="6.7458450">
        <ele>2757.8</ele>
        <time>2017-07-28T12:10:43Z</time>
      </trkpt>
      <trkpt lat="44.9694050" lon="6.7458720">
        <ele>2759.0</ele>
        <time>2017-07-28T12:10:46Z</time>
      </trkpt>
      <trkpt lat="44.9694110" lon="6.7458840">
        <ele>2759.4</ele>
        <time>2017-07-28T12:10:47Z</time>
      </trkpt>
      <trkpt lat="44.9694540" lon="6.7459190">
        <ele>2760.2</ele>
        <time>2017-07-28T12:10:51Z</time>
      </trkpt>
      <trkpt lat="44.9694820" lon="6.7459510">
        <ele>2761.6</ele>
        <time>2017-07-28T12:10:54Z</time>
      </trkpt>
      <trkpt lat="44.9695200" lon="6.7459860">
        <ele>2762.8</ele>
        <time>2017-07-28T12:10:58Z</time>
      </trkpt>
      <trkpt lat="44.9695380" lon="6.7460280">
        <ele>2763.6</ele>
        <time>2017-07-28T12:11:01Z</time>
      </trkpt>
      <trkpt lat="44.9695430" lon="6.7460420">
        <ele>2764.0</ele>
        <time>2017-07-28T12:11:02Z</time>
      </trkpt>
      <trkpt lat="44.9695700" lon="6.7460930">
        <ele>2765.0</ele>
        <time>2017-07-28T12:11:06Z</time>
      </trkpt>
      <trkpt lat="44.9695950" lon="6.7461320">
        <ele>2765.6</ele>
        <time>2017-07-28T12:11:09Z</time>
      </trkpt>
      <trkpt lat="44.9696080" lon="6.7461750">
        <ele>2766.0</ele>
        <time>2017-07-28T12:11:12Z</time>
      </trkpt>
      <trkpt lat="44.9696030" lon="6.7462410">
        <ele>2766.4</ele>
        <time>2017-07-28T12:11:16Z</time>
      </trkpt>
      <trkpt lat="44.9695400" lon="6.7462410">
        <ele>2766.2</ele>
        <time>2017-07-28T12:11:21Z</time>
      </trkpt>
      <trkpt lat="44.9695280" lon="6.7462310">
        <ele>2766.4</ele>
        <time>2017-07-28T12:11:22Z</time>
      </trkpt>
      <trkpt lat="44.9694800" lon="6.7462180">
        <ele>2766.8</ele>
        <time>2017-07-28T12:11:26Z</time>
      </trkpt>
      <trkpt lat="44.9694560" lon="6.7462200">
        <ele>2767.4</ele>
        <time>2017-07-28T12:11:28Z</time>
      </trkpt>
      <trkpt lat="44.9694260" lon="6.7462170">
        <ele>2767.8</ele>
        <time>2017-07-28T12:11:31Z</time>
      </trkpt>
      <trkpt lat="44.9693740" lon="6.7462190">
        <ele>2768.4</ele>
        <time>2017-07-28T12:11:35Z</time>
      </trkpt>
      <trkpt lat="44.9693610" lon="6.7462220">
        <ele>2768.8</ele>
        <time>2017-07-28T12:11:36Z</time>
      </trkpt>
      <trkpt lat="44.9693030" lon="6.7462140">
        <ele>2769.6</ele>
        <time>2017-07-28T12:11:41Z</time>
      </trkpt>
      <trkpt lat="44.9692690" lon="6.7461940">
        <ele>2770.0</ele>
        <time>2017-07-28T12:11:44Z</time>
      </trkpt>
      <trkpt lat="44.9692200" lon="6.7462050">
        <ele>2770.8</ele>
        <time>2017-07-28T12:11:48Z</time>
      </trkpt>
      <trkpt lat="44.9691850" lon="6.7462020">
        <ele>2772.0</ele>
        <time>2017-07-28T12:11:51Z</time>
      </trkpt>
      <trkpt lat="44.9691610" lon="6.7462080">
        <ele>2773.0</ele>
        <time>2017-07-28T12:11:53Z</time>
      </trkpt>
      <trkpt lat="44.9691130" lon="6.7462230">
        <ele>2774.2</ele>
        <time>2017-07-28T12:11:57Z</time>
      </trkpt>
      <trkpt lat="44.9690870" lon="6.7462290">
        <ele>2774.8</ele>
        <time>2017-07-28T12:11:59Z</time>
      </trkpt>
      <trkpt lat="44.9690470" lon="6.7462420">
        <ele>2775.4</ele>
        <time>2017-07-28T12:12:02Z</time>
      </trkpt>
      <trkpt lat="44.9690190" lon="6.7462440">
        <ele>2775.6</ele>
        <time>2017-07-28T12:12:04Z</time>
      </trkpt>
      <trkpt lat="44.9689900" lon="6.7462410">
        <ele>2775.8</ele>
        <time>2017-07-28T12:12:06Z</time>
      </trkpt>
      <trkpt lat="44.9689410" lon="6.7462590">
        <ele>2776.4</ele>
        <time>2017-07-28T12:12:10Z</time>
      </trkpt>
      <trkpt lat="44.9688950" lon="6.7462870">
        <ele>2777.6</ele>
        <time>2017-07-28T12:12:14Z</time>
      </trkpt>
      <trkpt lat="44.9688590" lon="6.7463020">
        <ele>2778.8</ele>
        <time>2017-07-28T12:12:17Z</time>
      </trkpt>
      <trkpt lat="44.9687900" lon="6.7463060">
        <ele>2779.6</ele>
        <time>2017-07-28T12:12:22Z</time>
      </trkpt>
      <trkpt lat="44.9687510" lon="6.7463070">
        <ele>2779.8</ele>
        <time>2017-07-28T12:12:25Z</time>
      </trkpt>
      <trkpt lat="44.9687110" lon="6.7463020">
        <ele>2781.0</ele>
        <time>2017-07-28T12:12:28Z</time>
      </trkpt>
      <trkpt lat="44.9686970" lon="6.7462970">
        <ele>2781.2</ele>
        <time>2017-07-28T12:12:29Z</time>
      </trkpt>
      <trkpt lat="44.9686580" lon="6.7462860">
        <ele>2782.0</ele>
        <time>2017-07-28T12:12:32Z</time>
      </trkpt>
      <trkpt lat="44.9686180" lon="6.7462930">
        <ele>2783.4</ele>
        <time>2017-07-28T12:12:35Z</time>
      </trkpt>
      <trkpt lat="44.9685930" lon="6.7462990">
        <ele>2784.0</ele>
        <time>2017-07-28T12:12:37Z</time>
      </trkpt>
      <trkpt lat="44.9685710" lon="6.7463060">
        <ele>2784.4</ele>
        <time>2017-07-28T12:12:39Z</time>
      </trkpt>
      <trkpt lat="44.9685270" lon="6.7463090">
        <ele>2785.2</ele>
        <time>2017-07-28T12:12:43Z</time>
      </trkpt>
      <trkpt lat="44.9685220" lon="6.7463090">
        <ele>2785.4</ele>
        <time>2017-07-28T12:12:44Z</time>
      </trkpt>
      <trkpt lat="44.9685190" lon="6.7463170">
        <ele>2785.6</ele>
        <time>2017-07-28T12:12:45Z</time>
      </trkpt>
      <trkpt lat="44.9684010" lon="6.7463130">
        <ele>2786.2</ele>
        <time>2017-07-28T12:13:17Z</time>
      </trkpt>
      <trkpt lat="44.9683870" lon="6.7463130">
        <ele>2786.2</ele>
        <time>2017-07-28T12:13:18Z</time>
      </trkpt>
      <trkpt lat="44.9683040" lon="6.7463270">
        <ele>2786.6</ele>
        <time>2017-07-28T12:13:23Z</time>
      </trkpt>
      <trkpt lat="44.9682860" lon="6.7463350">
        <ele>2787.0</ele>
        <time>2017-07-28T12:13:24Z</time>
      </trkpt>
      <trkpt lat="44.9682430" lon="6.7463460">
        <ele>2787.6</ele>
        <time>2017-07-28T12:13:27Z</time>
      </trkpt>
      <trkpt lat="44.9682280" lon="6.7463470">
        <ele>2788.0</ele>
        <time>2017-07-28T12:13:28Z</time>
      </trkpt>
      <trkpt lat="44.9682050" lon="6.7463560">
        <ele>2788.6</ele>
        <time>2017-07-28T12:13:30Z</time>
      </trkpt>
      <trkpt lat="44.9681920" lon="6.7463570">
        <ele>2789.0</ele>
        <time>2017-07-28T12:13:31Z</time>
      </trkpt>
      <trkpt lat="44.9681250" lon="6.7463340">
        <ele>2789.8</ele>
        <time>2017-07-28T12:13:36Z</time>
      </trkpt>
      <trkpt lat="44.9681140" lon="6.7463410">
        <ele>2790.0</ele>
        <time>2017-07-28T12:13:37Z</time>
      </trkpt>
      <trkpt lat="44.9680890" lon="6.7463960">
        <ele>2790.8</ele>
        <time>2017-07-28T12:13:41Z</time>
      </trkpt>
      <trkpt lat="44.9680920" lon="6.7464060">
        <ele>2791.0</ele>
        <time>2017-07-28T12:13:42Z</time>
      </trkpt>
      <trkpt lat="44.9681010" lon="6.7464140">
        <ele>2791.2</ele>
        <time>2017-07-28T12:13:43Z</time>
      </trkpt>
      <trkpt lat="44.9682370" lon="6.7465260">
        <ele>2794.6</ele>
        <time>2017-07-28T12:14:08Z</time>
      </trkpt>
      <trkpt lat="44.9682650" lon="6.7465660">
        <ele>2795.6</ele>
        <time>2017-07-28T12:14:11Z</time>
      </trkpt>
      <trkpt lat="44.9682960" lon="6.7466050">
        <ele>2796.6</ele>
        <time>2017-07-28T12:14:15Z</time>
      </trkpt>
      <trkpt lat="44.9683040" lon="6.7466190">
        <ele>2796.6</ele>
        <time>2017-07-28T12:14:16Z</time>
      </trkpt>
      <trkpt lat="44.9683530" lon="6.7466740">
        <ele>2797.8</ele>
        <time>2017-07-28T12:14:21Z</time>
      </trkpt>
      <trkpt lat="44.9683710" lon="6.7466930">
        <ele>2798.4</ele>
        <time>2017-07-28T12:14:23Z</time>
      </trkpt>
      <trkpt lat="44.9683860" lon="6.7467200">
        <ele>2798.8</ele>
        <time>2017-07-28T12:14:25Z</time>
      </trkpt>
      <trkpt lat="44.9684210" lon="6.7468180">
        <ele>2799.2</ele>
        <time>2017-07-28T12:14:31Z</time>
      </trkpt>
      <trkpt lat="44.9684540" lon="6.7468860">
        <ele>2799.8</ele>
        <time>2017-07-28T12:14:36Z</time>
      </trkpt>
      <trkpt lat="44.9684700" lon="6.7469120">
        <ele>2800.0</ele>
        <time>2017-07-28T12:14:38Z</time>
      </trkpt>
      <trkpt lat="44.9684850" lon="6.7469320">
        <ele>2800.2</ele>
        <time>2017-07-28T12:14:40Z</time>
      </trkpt>
      <trkpt lat="44.9685010" lon="6.7469760">
        <ele>2800.6</ele>
        <time>2017-07-28T12:14:43Z</time>
      </trkpt>
      <trkpt lat="44.9685040" lon="6.7469930">
        <ele>2801.0</ele>
        <time>2017-07-28T12:14:44Z</time>
      </trkpt>
      <trkpt lat="44.9685110" lon="6.7470420">
        <ele>2801.2</ele>
        <time>2017-07-28T12:14:47Z</time>
      </trkpt>
      <trkpt lat="44.9685220" lon="6.7470680">
        <ele>2801.2</ele>
        <time>2017-07-28T12:14:49Z</time>
      </trkpt>
      <trkpt lat="44.9685500" lon="6.7471440">
        <ele>2802.0</ele>
        <time>2017-07-28T12:14:54Z</time>
      </trkpt>
      <trkpt lat="44.9685500" lon="6.7471610">
        <ele>2802.0</ele>
        <time>2017-07-28T12:14:55Z</time>
      </trkpt>
      <trkpt lat="44.9685620" lon="6.7471800">
        <ele>2802.2</ele>
        <time>2017-07-28T12:14:57Z</time>
      </trkpt>
      <trkpt lat="44.9685890" lon="6.7472270">
        <ele>2802.8</ele>
        <time>2017-07-28T12:15:00Z</time>
      </trkpt>
      <trkpt lat="44.9686070" lon="6.7472570">
        <ele>2803.2</ele>
        <time>2017-07-28T12:15:02Z</time>
      </trkpt>
      <trkpt lat="44.9686240" lon="6.7472900">
        <ele>2803.6</ele>
        <time>2017-07-28T12:15:04Z</time>
      </trkpt>
      <trkpt lat="44.9686260" lon="6.7473360">
        <ele>2803.8</ele>
        <time>2017-07-28T12:15:06Z</time>
      </trkpt>
      <trkpt lat="44.9686260" lon="6.7474010">
        <ele>2804.2</ele>
        <time>2017-07-28T12:15:09Z</time>
      </trkpt>
      <trkpt lat="44.9686120" lon="6.7474660">
        <ele>2804.8</ele>
        <time>2017-07-28T12:15:12Z</time>
      </trkpt>
      <trkpt lat="44.9686150" lon="6.7475720">
        <ele>2805.4</ele>
        <time>2017-07-28T12:15:16Z</time>
      </trkpt>
      <trkpt lat="44.9686260" lon="6.7476110">
        <ele>2805.6</ele>
        <time>2017-07-28T12:15:18Z</time>
      </trkpt>
      <trkpt lat="44.9686280" lon="6.7477020">
        <ele>2806.2</ele>
        <time>2017-07-28T12:15:23Z</time>
      </trkpt>
      <trkpt lat="44.9686170" lon="6.7477360">
        <ele>2806.4</ele>
        <time>2017-07-28T12:15:25Z</time>
      </trkpt>
      <trkpt lat="44.9685870" lon="6.7477740">
        <ele>2807.4</ele>
        <time>2017-07-28T12:15:29Z</time>
      </trkpt>
      <trkpt lat="44.9685740" lon="6.7477720">
        <ele>2808.0</ele>
        <time>2017-07-28T12:15:30Z</time>
      </trkpt>
      <trkpt lat="44.9685620" lon="6.7477680">
        <ele>2808.2</ele>
        <time>2017-07-28T12:15:31Z</time>
      </trkpt>
      <trkpt lat="44.9685380" lon="6.7477330">
        <ele>2809.0</ele>
        <time>2017-07-28T12:15:34Z</time>
      </trkpt>
      <trkpt lat="44.9685100" lon="6.7476980">
        <ele>2810.2</ele>
        <time>2017-07-28T12:15:37Z</time>
      </trkpt>
      <trkpt lat="44.9685010" lon="6.7476840">
        <ele>2810.2</ele>
        <time>2017-07-28T12:15:38Z</time>
      </trkpt>
      <trkpt lat="44.9684720" lon="6.7476450">
        <ele>2811.2</ele>
        <time>2017-07-28T12:15:41Z</time>
      </trkpt>
      <trkpt lat="44.9684430" lon="6.7476270">
        <ele>2812.2</ele>
        <time>2017-07-28T12:15:44Z</time>
      </trkpt>
      <trkpt lat="44.9684160" lon="6.7476080">
        <ele>2813.4</ele>
        <time>2017-07-28T12:15:47Z</time>
      </trkpt>
      <trkpt lat="44.9683730" lon="6.7475820">
        <ele>2814.6</ele>
        <time>2017-07-28T12:15:51Z</time>
      </trkpt>
      <trkpt lat="44.9683320" lon="6.7475550">
        <ele>2815.6</ele>
        <time>2017-07-28T12:15:55Z</time>
      </trkpt>
      <trkpt lat="44.9683070" lon="6.7475330">
        <ele>2816.6</ele>
        <time>2017-07-28T12:15:58Z</time>
      </trkpt>
      <trkpt lat="44.9682960" lon="6.7475230">
        <ele>2816.8</ele>
        <time>2017-07-28T12:15:59Z</time>
      </trkpt>
      <trkpt lat="44.9682440" lon="6.7474660">
        <ele>2817.8</ele>
        <time>2017-07-28T12:16:04Z</time>
      </trkpt>
      <trkpt lat="44.9682340" lon="6.7474640">
        <ele>2818.2</ele>
        <time>2017-07-28T12:16:05Z</time>
      </trkpt>
      <trkpt lat="44.9681960" lon="6.7474330">
        <ele>2819.0</ele>
        <time>2017-07-28T12:16:09Z</time>
      </trkpt>
      <trkpt lat="44.9681860" lon="6.7474280">
        <ele>2819.4</ele>
        <time>2017-07-28T12:16:10Z</time>
      </trkpt>
      <trkpt lat="44.9679320" lon="6.7472920">
        <ele>2825.8</ele>
        <time>2017-07-28T12:16:56Z</time>
      </trkpt>
      <trkpt lat="44.9678790" lon="6.7472820">
        <ele>2826.6</ele>
        <time>2017-07-28T12:17:00Z</time>
      </trkpt>
      <trkpt lat="44.9678510" lon="6.7472810">
        <ele>2827.0</ele>
        <time>2017-07-28T12:17:02Z</time>
      </trkpt>
      <trkpt lat="44.9677950" lon="6.7472850">
        <ele>2827.8</ele>
        <time>2017-07-28T12:17:06Z</time>
      </trkpt>
      <trkpt lat="44.9677810" lon="6.7472840">
        <ele>2828.2</ele>
        <time>2017-07-28T12:17:07Z</time>
      </trkpt>
      <trkpt lat="44.9677210" lon="6.7472720">
        <ele>2828.8</ele>
        <time>2017-07-28T12:17:12Z</time>
      </trkpt>
      <trkpt lat="44.9677000" lon="6.7472650">
        <ele>2829.2</ele>
        <time>2017-07-28T12:17:14Z</time>
      </trkpt>
      <trkpt lat="44.9676780" lon="6.7472670">
        <ele>2829.8</ele>
        <time>2017-07-28T12:17:16Z</time>
      </trkpt>
      <trkpt lat="44.9676590" lon="6.7472610">
        <ele>2830.4</ele>
        <time>2017-07-28T12:17:18Z</time>
      </trkpt>
      <trkpt lat="44.9676480" lon="6.7472550">
        <ele>2830.6</ele>
        <time>2017-07-28T12:17:19Z</time>
      </trkpt>
      <trkpt lat="44.9676140" lon="6.7472480">
        <ele>2831.6</ele>
        <time>2017-07-28T12:17:22Z</time>
      </trkpt>
      <trkpt lat="44.9675960" lon="6.7472530">
        <ele>2832.0</ele>
        <time>2017-07-28T12:17:24Z</time>
      </trkpt>
      <trkpt lat="44.9675840" lon="6.7472780">
        <ele>2832.8</ele>
        <time>2017-07-28T12:17:26Z</time>
      </trkpt>
      <trkpt lat="44.9676170" lon="6.7473370">
        <ele>2833.8</ele>
        <time>2017-07-28T12:17:30Z</time>
      </trkpt>
      <trkpt lat="44.9676610" lon="6.7473640">
        <ele>2835.2</ele>
        <time>2017-07-28T12:17:33Z</time>
      </trkpt>
      <trkpt lat="44.9677040" lon="6.7473950">
        <ele>2836.6</ele>
        <time>2017-07-28T12:17:37Z</time>
      </trkpt>
      <trkpt lat="44.9677290" lon="6.7474410">
        <ele>2837.8</ele>
        <time>2017-07-28T12:17:41Z</time>
      </trkpt>
      <trkpt lat="44.9677570" lon="6.7474730">
        <ele>2838.6</ele>
        <time>2017-07-28T12:17:44Z</time>
      </trkpt>
      <trkpt lat="44.9677660" lon="6.7474830">
        <ele>2838.8</ele>
        <time>2017-07-28T12:17:45Z</time>
      </trkpt>
      <trkpt lat="44.9678050" lon="6.7475230">
        <ele>2839.4</ele>
        <time>2017-07-28T12:17:49Z</time>
      </trkpt>
      <trkpt lat="44.9678250" lon="6.7475370">
        <ele>2840.0</ele>
        <time>2017-07-28T12:17:51Z</time>
      </trkpt>
      <trkpt lat="44.9678330" lon="6.7475520">
        <ele>2840.2</ele>
        <time>2017-07-28T12:17:52Z</time>
      </trkpt>
      <trkpt lat="44.9678700" lon="6.7475970">
        <ele>2841.0</ele>
        <time>2017-07-28T12:17:56Z</time>
      </trkpt>
      <trkpt lat="44.9678820" lon="6.7476230">
        <ele>2841.2</ele>
        <time>2017-07-28T12:17:58Z</time>
      </trkpt>
      <trkpt lat="44.9678920" lon="6.7476370">
        <ele>2841.2</ele>
        <time>2017-07-28T12:17:59Z</time>
      </trkpt>
      <trkpt lat="44.9679180" lon="6.7476820">
        <ele>2841.8</ele>
        <time>2017-07-28T12:18:02Z</time>
      </trkpt>
      <trkpt lat="44.9679380" lon="6.7477220">
        <ele>2842.2</ele>
        <time>2017-07-28T12:18:05Z</time>
      </trkpt>
      <trkpt lat="44.9679400" lon="6.7477380">
        <ele>2842.2</ele>
        <time>2017-07-28T12:18:06Z</time>
      </trkpt>
      <trkpt lat="44.9679650" lon="6.7478050">
        <ele>2842.2</ele>
        <time>2017-07-28T12:18:11Z</time>
      </trkpt>
      <trkpt lat="44.9679760" lon="6.7478380">
        <ele>2842.4</ele>
        <time>2017-07-28T12:18:13Z</time>
      </trkpt>
      <trkpt lat="44.9679880" lon="6.7479260">
        <ele>2843.2</ele>
        <time>2017-07-28T12:18:19Z</time>
      </trkpt>
      <trkpt lat="44.9679900" lon="6.7479400">
        <ele>2843.4</ele>
        <time>2017-07-28T12:18:20Z</time>
      </trkpt>
      <trkpt lat="44.9679980" lon="6.7479930">
        <ele>2843.8</ele>
        <time>2017-07-28T12:18:24Z</time>
      </trkpt>
      <trkpt lat="44.9680010" lon="6.7480200">
        <ele>2844.4</ele>
        <time>2017-07-28T12:18:27Z</time>
      </trkpt>
      <trkpt lat="44.9680420" lon="6.7481450">
        <ele>2845.4</ele>
        <time>2017-07-28T12:18:35Z</time>
      </trkpt>
      <trkpt lat="44.9680480" lon="6.7481630">
        <ele>2845.4</ele>
        <time>2017-07-28T12:18:36Z</time>
      </trkpt>
      <trkpt lat="44.9680610" lon="6.7482100">
        <ele>2845.2</ele>
        <time>2017-07-28T12:18:39Z</time>
      </trkpt>
      <trkpt lat="44.9680810" lon="6.7482530">
        <ele>2845.6</ele>
        <time>2017-07-28T12:18:42Z</time>
      </trkpt>
      <trkpt lat="44.9680810" lon="6.7482900">
        <ele>2846.6</ele>
        <time>2017-07-28T12:18:46Z</time>
      </trkpt>
      <trkpt lat="44.9681020" lon="6.7483530">
        <ele>2847.8</ele>
        <time>2017-07-28T12:18:59Z</time>
      </trkpt>
      <trkpt lat="44.9681130" lon="6.7484130">
        <ele>2848.0</ele>
        <time>2017-07-28T12:19:02Z</time>
      </trkpt>
      <trkpt lat="44.9681120" lon="6.7485230">
        <ele>2849.0</ele>
        <time>2017-07-28T12:19:08Z</time>
      </trkpt>
      <trkpt lat="44.9681100" lon="6.7485370">
        <ele>2849.2</ele>
        <time>2017-07-28T12:19:09Z</time>
      </trkpt>
      <trkpt lat="44.9681280" lon="6.7486250">
        <ele>2850.2</ele>
        <time>2017-07-28T12:19:14Z</time>
      </trkpt>
      <trkpt lat="44.9681330" lon="6.7486420">
        <ele>2850.4</ele>
        <time>2017-07-28T12:19:15Z</time>
      </trkpt>
      <trkpt lat="44.9681460" lon="6.7487320">
        <ele>2851.2</ele>
        <time>2017-07-28T12:19:20Z</time>
      </trkpt>
      <trkpt lat="44.9681520" lon="6.7487650">
        <ele>2851.2</ele>
        <time>2017-07-28T12:19:22Z</time>
      </trkpt>
      <trkpt lat="44.9681740" lon="6.7488990">
        <ele>2852.6</ele>
        <time>2017-07-28T12:19:30Z</time>
      </trkpt>
      <trkpt lat="44.9681770" lon="6.7489150">
        <ele>2852.6</ele>
        <time>2017-07-28T12:19:31Z</time>
      </trkpt>
      <trkpt lat="44.9682080" lon="6.7490260">
        <ele>2853.2</ele>
        <time>2017-07-28T12:19:37Z</time>
      </trkpt>
      <trkpt lat="44.9682140" lon="6.7490630">
        <ele>2853.6</ele>
        <time>2017-07-28T12:19:39Z</time>
      </trkpt>
      <trkpt lat="44.9682260" lon="6.7491480">
        <ele>2854.2</ele>
        <time>2017-07-28T12:19:44Z</time>
      </trkpt>
      <trkpt lat="44.9682330" lon="6.7491830">
        <ele>2854.6</ele>
        <time>2017-07-28T12:19:46Z</time>
      </trkpt>
      <trkpt lat="44.9682370" lon="6.7492310">
        <ele>2855.2</ele>
        <time>2017-07-28T12:19:49Z</time>
      </trkpt>
      <trkpt lat="44.9682470" lon="6.7492620">
        <ele>2855.8</ele>
        <time>2017-07-28T12:19:51Z</time>
      </trkpt>
      <trkpt lat="44.9682650" lon="6.7493130">
        <ele>2856.8</ele>
        <time>2017-07-28T12:19:54Z</time>
      </trkpt>
      <trkpt lat="44.9682830" lon="6.7493550">
        <ele>2857.4</ele>
        <time>2017-07-28T12:19:57Z</time>
      </trkpt>
      <trkpt lat="44.9682860" lon="6.7493620">
        <ele>2858.0</ele>
        <time>2017-07-28T12:19:58Z</time>
      </trkpt>
      <trkpt lat="44.9682920" lon="6.7493720">
        <ele>2858.2</ele>
        <time>2017-07-28T12:19:59Z</time>
      </trkpt>
      <trkpt lat="44.9683070" lon="6.7494160">
        <ele>2859.2</ele>
        <time>2017-07-28T12:20:02Z</time>
      </trkpt>
      <trkpt lat="44.9683130" lon="6.7494290">
        <ele>2859.6</ele>
        <time>2017-07-28T12:20:03Z</time>
      </trkpt>
      <trkpt lat="44.9683150" lon="6.7494610">
        <ele>2860.8</ele>
        <time>2017-07-28T12:20:05Z</time>
      </trkpt>
      <trkpt lat="44.9683240" lon="6.7495060">
        <ele>2862.0</ele>
        <time>2017-07-28T12:20:08Z</time>
      </trkpt>
      <trkpt lat="44.9683320" lon="6.7495380">
        <ele>2863.4</ele>
        <time>2017-07-28T12:20:10Z</time>
      </trkpt>
      <trkpt lat="44.9683570" lon="6.7495940">
        <ele>2864.8</ele>
        <time>2017-07-28T12:20:14Z</time>
      </trkpt>
      <trkpt lat="44.9683650" lon="6.7496070">
        <ele>2865.2</ele>
        <time>2017-07-28T12:20:15Z</time>
      </trkpt>
      <trkpt lat="44.9683760" lon="6.7496360">
        <ele>2866.2</ele>
        <time>2017-07-28T12:20:17Z</time>
      </trkpt>
      <trkpt lat="44.9683940" lon="6.7496580">
        <ele>2867.2</ele>
        <time>2017-07-28T12:20:19Z</time>
      </trkpt>
      <trkpt lat="44.9684150" lon="6.7497040">
        <ele>2867.8</ele>
        <time>2017-07-28T12:20:22Z</time>
      </trkpt>
      <trkpt lat="44.9684210" lon="6.7497190">
        <ele>2868.2</ele>
        <time>2017-07-28T12:20:23Z</time>
      </trkpt>
      <trkpt lat="44.9684440" lon="6.7497930">
        <ele>2869.4</ele>
        <time>2017-07-28T12:20:28Z</time>
      </trkpt>
      <trkpt lat="44.9684510" lon="6.7498030">
        <ele>2869.8</ele>
        <time>2017-07-28T12:20:29Z</time>
      </trkpt>
      <trkpt lat="44.9684650" lon="6.7498260">
        <ele>2870.6</ele>
        <time>2017-07-28T12:20:31Z</time>
      </trkpt>
      <trkpt lat="44.9684990" lon="6.7498980">
        <ele>2871.6</ele>
        <time>2017-07-28T12:20:36Z</time>
      </trkpt>
      <trkpt lat="44.9685070" lon="6.7499080">
        <ele>2871.6</ele>
        <time>2017-07-28T12:20:37Z</time>
      </trkpt>
      <trkpt lat="44.9685480" lon="6.7499550">
        <ele>2872.8</ele>
        <time>2017-07-28T12:20:42Z</time>
      </trkpt>
      <trkpt lat="44.9685580" lon="6.7499870">
        <ele>2873.4</ele>
        <time>2017-07-28T12:20:44Z</time>
      </trkpt>
      <trkpt lat="44.9685580" lon="6.7500010">
        <ele>2873.6</ele>
        <time>2017-07-28T12:20:45Z</time>
      </trkpt>
      <trkpt lat="44.9685640" lon="6.7500060">
        <ele>2874.0</ele>
        <time>2017-07-28T12:20:47Z</time>
      </trkpt>
      <trkpt lat="44.9683380" lon="6.7498840">
        <ele>2884.8</ele>
        <time>2017-07-28T12:21:32Z</time>
      </trkpt>
      <trkpt lat="44.9683270" lon="6.7498720">
        <ele>2885.0</ele>
        <time>2017-07-28T12:21:33Z</time>
      </trkpt>
      <trkpt lat="44.9683050" lon="6.7498460">
        <ele>2885.0</ele>
        <time>2017-07-28T12:21:35Z</time>
      </trkpt>
      <trkpt lat="44.9682790" lon="6.7498330">
        <ele>2885.2</ele>
        <time>2017-07-28T12:21:37Z</time>
      </trkpt>
      <trkpt lat="44.9682310" lon="6.7497870">
        <ele>2885.6</ele>
        <time>2017-07-28T12:21:41Z</time>
      </trkpt>
      <trkpt lat="44.9682170" lon="6.7497760">
        <ele>2885.8</ele>
        <time>2017-07-28T12:21:42Z</time>
      </trkpt>
      <trkpt lat="44.9681440" lon="6.7497120">
        <ele>2886.8</ele>
        <time>2017-07-28T12:21:48Z</time>
      </trkpt>
      <trkpt lat="44.9680890" lon="6.7496740">
        <ele>2888.0</ele>
        <time>2017-07-28T12:21:52Z</time>
      </trkpt>
      <trkpt lat="44.9680560" lon="6.7496390">
        <ele>2889.4</ele>
        <time>2017-07-28T12:21:55Z</time>
      </trkpt>
      <trkpt lat="44.9677870" lon="6.7493080">
        <ele>2886.6</ele>
        <time>2017-07-28T12:22:55Z</time>
      </trkpt>
      <trkpt lat="44.9677750" lon="6.7492950">
        <ele>2886.6</ele>
        <time>2017-07-28T12:22:56Z</time>
      </trkpt>
      <trkpt lat="44.9677500" lon="6.7492660">
        <ele>2886.6</ele>
        <time>2017-07-28T12:22:58Z</time>
      </trkpt>
      <trkpt lat="44.9677150" lon="6.7492160">
        <ele>2886.8</ele>
        <time>2017-07-28T12:23:01Z</time>
      </trkpt>
      <trkpt lat="44.9677030" lon="6.7491990">
        <ele>2886.8</ele>
        <time>2017-07-28T12:23:02Z</time>
      </trkpt>
      <trkpt lat="44.9676580" lon="6.7491390">
        <ele>2888.0</ele>
        <time>2017-07-28T12:23:06Z</time>
      </trkpt>
      <trkpt lat="44.9676410" lon="6.7491100">
        <ele>2888.6</ele>
        <time>2017-07-28T12:23:08Z</time>
      </trkpt>
      <trkpt lat="44.9676210" lon="6.7490820">
        <ele>2889.0</ele>
        <time>2017-07-28T12:23:10Z</time>
      </trkpt>
      <trkpt lat="44.9675920" lon="6.7490520">
        <ele>2890.2</ele>
        <time>2017-07-28T12:23:13Z</time>
      </trkpt>
      <trkpt lat="44.9675720" lon="6.7490280">
        <ele>2890.8</ele>
        <time>2017-07-28T12:23:15Z</time>
      </trkpt>
      <trkpt lat="44.9675480" lon="6.7489890">
        <ele>2891.2</ele>
        <time>2017-07-28T12:23:18Z</time>
      </trkpt>
      <trkpt lat="44.9675120" lon="6.7489350">
        <ele>2892.0</ele>
        <time>2017-07-28T12:23:22Z</time>
      </trkpt>
      <trkpt lat="44.9674950" lon="6.7489110">
        <ele>2892.4</ele>
        <time>2017-07-28T12:23:24Z</time>
      </trkpt>
      <trkpt lat="44.9674360" lon="6.7488450">
        <ele>2893.6</ele>
        <time>2017-07-28T12:23:30Z</time>
      </trkpt>
      <trkpt lat="44.9674040" lon="6.7488220">
        <ele>2894.8</ele>
        <time>2017-07-28T12:23:33Z</time>
      </trkpt>
      <trkpt lat="44.9673670" lon="6.7488000">
        <ele>2895.6</ele>
        <time>2017-07-28T12:23:36Z</time>
      </trkpt>
      <trkpt lat="44.9673520" lon="6.7487930">
        <ele>2896.0</ele>
        <time>2017-07-28T12:23:37Z</time>
      </trkpt>
      <trkpt lat="44.9672990" lon="6.7487720">
        <ele>2897.2</ele>
        <time>2017-07-28T12:23:41Z</time>
      </trkpt>
      <trkpt lat="44.9672870" lon="6.7487660">
        <ele>2897.4</ele>
        <time>2017-07-28T12:23:42Z</time>
      </trkpt>
      <trkpt lat="44.9672430" lon="6.7487360">
        <ele>2898.4</ele>
        <time>2017-07-28T12:23:46Z</time>
      </trkpt>
      <trkpt lat="44.9672210" lon="6.7487230">
        <ele>2899.0</ele>
        <time>2017-07-28T12:23:48Z</time>
      </trkpt>
      <trkpt lat="44.9671790" lon="6.7487110">
        <ele>2899.6</ele>
        <time>2017-07-28T12:23:52Z</time>
      </trkpt>
      <trkpt lat="44.9671460" lon="6.7487150">
        <ele>2900.8</ele>
        <time>2017-07-28T12:23:55Z</time>
      </trkpt>
      <trkpt lat="44.9672650" lon="6.7492770">
        <ele>2926.2</ele>
        <time>2017-07-28T12:25:57Z</time>
      </trkpt>
      <trkpt lat="44.9672760" lon="6.7492960">
        <ele>2926.6</ele>
        <time>2017-07-28T12:25:58Z</time>
      </trkpt>
      <trkpt lat="44.9673030" lon="6.7493580">
        <ele>2927.4</ele>
        <time>2017-07-28T12:26:01Z</time>
      </trkpt>
      <trkpt lat="44.9673260" lon="6.7494490">
        <ele>2928.4</ele>
        <time>2017-07-28T12:26:05Z</time>
      </trkpt>
      <trkpt lat="44.9673390" lon="6.7495380">
        <ele>2929.8</ele>
        <time>2017-07-28T12:26:09Z</time>
      </trkpt>
      <trkpt lat="44.9673480" lon="6.7495960">
        <ele>2930.4</ele>
        <time>2017-07-28T12:26:12Z</time>
      </trkpt>
      <trkpt lat="44.9673490" lon="6.7496180">
        <ele>2931.0</ele>
        <time>2017-07-28T12:26:13Z</time>
      </trkpt>
      <trkpt lat="44.9673650" lon="6.7496840">
        <ele>2932.2</ele>
        <time>2017-07-28T12:26:17Z</time>
      </trkpt>
      <trkpt lat="44.9673690" lon="6.7497020">
        <ele>2932.4</ele>
        <time>2017-07-28T12:26:18Z</time>
      </trkpt>
      <trkpt lat="44.9673780" lon="6.7497370">
        <ele>2933.4</ele>
        <time>2017-07-28T12:26:20Z</time>
      </trkpt>
      <trkpt lat="44.9673890" lon="6.7497910">
        <ele>2934.0</ele>
        <time>2017-07-28T12:26:23Z</time>
      </trkpt>
      <trkpt lat="44.9673930" lon="6.7498070">
        <ele>2934.4</ele>
        <time>2017-07-28T12:26:24Z</time>
      </trkpt>
      <trkpt lat="44.9673970" lon="6.7498370">
        <ele>2934.8</ele>
        <time>2017-07-28T12:26:26Z</time>
      </trkpt>
      <trkpt lat="44.9674030" lon="6.7499080">
        <ele>2935.6</ele>
        <time>2017-07-28T12:26:30Z</time>
      </trkpt>
      <trkpt lat="44.9674090" lon="6.7499770">
        <ele>2936.4</ele>
        <time>2017-07-28T12:26:34Z</time>
      </trkpt>
      <trkpt lat="44.9674120" lon="6.7499930">
        <ele>2936.6</ele>
        <time>2017-07-28T12:26:35Z</time>
      </trkpt>
      <trkpt lat="44.9674360" lon="6.7501080">
        <ele>2938.0</ele>
        <time>2017-07-28T12:26:42Z</time>
      </trkpt>
      <trkpt lat="44.9674380" lon="6.7501240">
        <ele>2938.4</ele>
        <time>2017-07-28T12:26:43Z</time>
      </trkpt>
      <trkpt lat="44.9674500" lon="6.7501740">
        <ele>2939.0</ele>
        <time>2017-07-28T12:26:46Z</time>
      </trkpt>
      <trkpt lat="44.9674550" lon="6.7502180">
        <ele>2939.4</ele>
        <time>2017-07-28T12:26:49Z</time>
      </trkpt>
      <trkpt lat="44.9674670" lon="6.7502450">
        <ele>2939.8</ele>
        <time>2017-07-28T12:26:51Z</time>
      </trkpt>
      <trkpt lat="44.9674760" lon="6.7502760">
        <ele>2940.0</ele>
        <time>2017-07-28T12:26:53Z</time>
      </trkpt>
      <trkpt lat="44.9674960" lon="6.7503660">
        <ele>2941.0</ele>
        <time>2017-07-28T12:26:58Z</time>
      </trkpt>
      <trkpt lat="44.9675070" lon="6.7504000">
        <ele>2941.4</ele>
        <time>2017-07-28T12:27:00Z</time>
      </trkpt>
      <trkpt lat="44.9675160" lon="6.7504430">
        <ele>2942.2</ele>
        <time>2017-07-28T12:27:03Z</time>
      </trkpt>
      <trkpt lat="44.9675590" lon="6.7505200">
        <ele>2945.8</ele>
        <time>2017-07-28T12:27:25Z</time>
      </trkpt>
      <trkpt lat="44.9675750" lon="6.7505760">
        <ele>2946.4</ele>
        <time>2017-07-28T12:27:28Z</time>
      </trkpt>
      <trkpt lat="44.9675900" lon="6.7506100">
        <ele>2946.6</ele>
        <time>2017-07-28T12:27:30Z</time>
      </trkpt>
      <trkpt lat="44.9675960" lon="6.7506300">
        <ele>2946.8</ele>
        <time>2017-07-28T12:27:31Z</time>
      </trkpt>
      <trkpt lat="44.9676450" lon="6.7507840">
        <ele>2947.4</ele>
        <time>2017-07-28T12:27:39Z</time>
      </trkpt>
      <trkpt lat="44.9677070" lon="6.7509130">
        <ele>2947.8</ele>
        <time>2017-07-28T12:27:47Z</time>
      </trkpt>
      <trkpt lat="44.9677130" lon="6.7509300">
        <ele>2948.0</ele>
        <time>2017-07-28T12:27:48Z</time>
      </trkpt>
      <trkpt lat="44.9677270" lon="6.7509570">
        <ele>2947.8</ele>
        <time>2017-07-28T12:27:50Z</time>
      </trkpt>
      <trkpt lat="44.9677450" lon="6.7510050">
        <ele>2948.0</ele>
        <time>2017-07-28T12:27:53Z</time>
      </trkpt>
      <trkpt lat="44.9678070" lon="6.7511270">
        <ele>2948.6</ele>
        <time>2017-07-28T12:28:01Z</time>
      </trkpt>
      <trkpt lat="44.9678170" lon="6.7511620">
        <ele>2949.0</ele>
        <time>2017-07-28T12:28:03Z</time>
      </trkpt>
      <trkpt lat="44.9678040" lon="6.7512370">
        <ele>2949.2</ele>
        <time>2017-07-28T12:28:07Z</time>
      </trkpt>
      <trkpt lat="44.9677540" lon="6.7512210">
        <ele>2949.2</ele>
        <time>2017-07-28T12:28:11Z</time>
      </trkpt>
      <trkpt lat="44.9677350" lon="6.7511700">
        <ele>2949.2</ele>
        <time>2017-07-28T12:28:14Z</time>
      </trkpt>
      <trkpt lat="44.9677110" lon="6.7511290">
        <ele>2949.4</ele>
        <time>2017-07-28T12:28:17Z</time>
      </trkpt>
      <trkpt lat="44.9676720" lon="6.7510960">
        <ele>2950.0</ele>
        <time>2017-07-28T12:28:21Z</time>
      </trkpt>
      <trkpt lat="44.9676510" lon="6.7510760">
        <ele>2950.6</ele>
        <time>2017-07-28T12:28:23Z</time>
      </trkpt>
      <trkpt lat="44.9676270" lon="6.7510400">
        <ele>2950.8</ele>
        <time>2017-07-28T12:28:26Z</time>
      </trkpt>
      <trkpt lat="44.9676240" lon="6.7510270">
        <ele>2951.0</ele>
        <time>2017-07-28T12:28:27Z</time>
      </trkpt>
      <trkpt lat="44.9675920" lon="6.7510030">
        <ele>2951.6</ele>
        <time>2017-07-28T12:28:30Z</time>
      </trkpt>
      <trkpt lat="44.9675350" lon="6.7509790">
        <ele>2949.4</ele>
        <time>2017-07-28T12:28:35Z</time>
      </trkpt>
      <trkpt lat="44.9675260" lon="6.7509780">
        <ele>2951.4</ele>
        <time>2017-07-28T12:28:36Z</time>
      </trkpt>
      <trkpt lat="44.9675070" lon="6.7509600">
        <ele>2953.2</ele>
        <time>2017-07-28T12:28:38Z</time>
      </trkpt>
      <trkpt lat="44.9674910" lon="6.7509420">
        <ele>2950.4</ele>
        <time>2017-07-28T12:28:40Z</time>
      </trkpt>
      <trkpt lat="44.9674560" lon="6.7509290">
        <ele>2954.4</ele>
        <time>2017-07-28T12:28:43Z</time>
      </trkpt>
      <trkpt lat="44.9674450" lon="6.7509220">
        <ele>2954.6</ele>
        <time>2017-07-28T12:28:44Z</time>
      </trkpt>
      <trkpt lat="44.9674330" lon="6.7509190">
        <ele>2954.8</ele>
        <time>2017-07-28T12:28:45Z</time>
      </trkpt>
      <trkpt lat="44.9673660" lon="6.7508810">
        <ele>2955.6</ele>
        <time>2017-07-28T12:28:51Z</time>
      </trkpt>
      <trkpt lat="44.9673540" lon="6.7508670">
        <ele>2955.6</ele>
        <time>2017-07-28T12:28:52Z</time>
      </trkpt>
      <trkpt lat="44.9673460" lon="6.7508540">
        <ele>2955.6</ele>
        <time>2017-07-28T12:28:53Z</time>
      </trkpt>
      <trkpt lat="44.9672910" lon="6.7508010">
        <ele>2956.6</ele>
        <time>2017-07-28T12:28:59Z</time>
      </trkpt>
      <trkpt lat="44.9672880" lon="6.7507880">
        <ele>2956.8</ele>
        <time>2017-07-28T12:29:00Z</time>
      </trkpt>
      <trkpt lat="44.9672600" lon="6.7507620">
        <ele>2957.8</ele>
        <time>2017-07-28T12:29:03Z</time>
      </trkpt>
      <trkpt lat="44.9672330" lon="6.7507380">
        <ele>2958.6</ele>
        <time>2017-07-28T12:29:06Z</time>
      </trkpt>
      <trkpt lat="44.9672080" lon="6.7506850">
        <ele>2959.4</ele>
        <time>2017-07-28T12:29:10Z</time>
      </trkpt>
      <trkpt lat="44.9671890" lon="6.7506470">
        <ele>2959.8</ele>
        <time>2017-07-28T12:29:13Z</time>
      </trkpt>
      <trkpt lat="44.9671800" lon="6.7506350">
        <ele>2960.0</ele>
        <time>2017-07-28T12:29:14Z</time>
      </trkpt>
      <trkpt lat="44.9671630" lon="6.7506140">
        <ele>2960.4</ele>
        <time>2017-07-28T12:29:16Z</time>
      </trkpt>
      <trkpt lat="44.9670990" lon="6.7505370">
        <ele>2961.4</ele>
        <time>2017-07-28T12:29:23Z</time>
      </trkpt>
      <trkpt lat="44.9670410" lon="6.7504630">
        <ele>2962.4</ele>
        <time>2017-07-28T12:29:29Z</time>
      </trkpt>
      <trkpt lat="44.9670220" lon="6.7504230">
        <ele>2963.0</ele>
        <time>2017-07-28T12:29:32Z</time>
      </trkpt>
      <trkpt lat="44.9669960" lon="6.7503790">
        <ele>2963.8</ele>
        <time>2017-07-28T12:29:35Z</time>
      </trkpt>
      <trkpt lat="44.9669350" lon="6.7502900">
        <ele>2964.8</ele>
        <time>2017-07-28T12:29:42Z</time>
      </trkpt>
      <trkpt lat="44.9669260" lon="6.7502820">
        <ele>2965.0</ele>
        <time>2017-07-28T12:29:43Z</time>
      </trkpt>
      <trkpt lat="44.9668780" lon="6.7502170">
        <ele>2965.8</ele>
        <time>2017-07-28T12:29:49Z</time>
      </trkpt>
      <trkpt lat="44.9668760" lon="6.7502110">
        <ele>2966.0</ele>
        <time>2017-07-28T12:29:50Z</time>
      </trkpt>
      <trkpt lat="44.9668730" lon="6.7501950">
        <ele>2966.2</ele>
        <time>2017-07-28T12:29:51Z</time>
      </trkpt>
      <trkpt lat="44.9668280" lon="6.7501470">
        <ele>2966.4</ele>
        <time>2017-07-28T12:29:56Z</time>
      </trkpt>
      <trkpt lat="44.9667590" lon="6.7501060">
        <ele>2966.8</ele>
        <time>2017-07-28T12:30:02Z</time>
      </trkpt>
      <trkpt lat="44.9667390" lon="6.7500960">
        <ele>2967.0</ele>
        <time>2017-07-28T12:30:04Z</time>
      </trkpt>
      <trkpt lat="44.9666950" lon="6.7500790">
        <ele>2967.8</ele>
        <time>2017-07-28T12:30:08Z</time>
      </trkpt>
      <trkpt lat="44.9666840" lon="6.7500800">
        <ele>2968.0</ele>
        <time>2017-07-28T12:30:09Z</time>
      </trkpt>
      <trkpt lat="44.9666600" lon="6.7500710">
        <ele>2968.6</ele>
        <time>2017-07-28T12:30:11Z</time>
      </trkpt>
      <trkpt lat="44.9666270" lon="6.7500530">
        <ele>2969.0</ele>
        <time>2017-07-28T12:30:14Z</time>
      </trkpt>
      <trkpt lat="44.9665930" lon="6.7500410">
        <ele>2969.4</ele>
        <time>2017-07-28T12:30:17Z</time>
      </trkpt>
      <trkpt lat="44.9665790" lon="6.7500350">
        <ele>2969.6</ele>
        <time>2017-07-28T12:30:18Z</time>
      </trkpt>
      <trkpt lat="44.9665670" lon="6.7500290">
        <ele>2970.0</ele>
        <time>2017-07-28T12:30:19Z</time>
      </trkpt>
      <trkpt lat="44.9665230" lon="6.7500010">
        <ele>2971.0</ele>
        <time>2017-07-28T12:30:23Z</time>
      </trkpt>
      <trkpt lat="44.9664840" lon="6.7499760">
        <ele>2971.8</ele>
        <time>2017-07-28T12:30:26Z</time>
      </trkpt>
      <trkpt lat="44.9664290" lon="6.7499390">
        <ele>2972.2</ele>
        <time>2017-07-28T12:30:30Z</time>
      </trkpt>
      <trkpt lat="44.9663870" lon="6.7499110">
        <ele>2972.8</ele>
        <time>2017-07-28T12:30:33Z</time>
      </trkpt>
      <trkpt lat="44.9663590" lon="6.7498960">
        <ele>2973.2</ele>
        <time>2017-07-28T12:30:35Z</time>
      </trkpt>
      <trkpt lat="44.9663120" lon="6.7498850">
        <ele>2974.6</ele>
        <time>2017-07-28T12:30:39Z</time>
      </trkpt>
      <trkpt lat="44.9662730" lon="6.7498670">
        <ele>2976.0</ele>
        <time>2017-07-28T12:30:42Z</time>
      </trkpt>
      <trkpt lat="44.9662460" lon="6.7498610">
        <ele>2977.4</ele>
        <time>2017-07-28T12:30:44Z</time>
      </trkpt>
      <trkpt lat="44.9662230" lon="6.7498680">
        <ele>2978.4</ele>
        <time>2017-07-28T12:30:46Z</time>
      </trkpt>
      <trkpt lat="44.9662110" lon="6.7498610">
        <ele>2979.0</ele>
        <time>2017-07-28T12:30:47Z</time>
      </trkpt>
      <trkpt lat="44.9662010" lon="6.7498500">
        <ele>2979.6</ele>
        <time>2017-07-28T12:30:48Z</time>
      </trkpt>
      <trkpt lat="44.9661630" lon="6.7498240">
        <ele>2981.2</ele>
        <time>2017-07-28T12:30:51Z</time>
      </trkpt>
      <trkpt lat="44.9661380" lon="6.7498160">
        <ele>2982.2</ele>
        <time>2017-07-28T12:30:53Z</time>
      </trkpt>
      <trkpt lat="44.9661000" lon="6.7498090">
        <ele>2983.6</ele>
        <time>2017-07-28T12:30:56Z</time>
      </trkpt>
      <trkpt lat="44.9660880" lon="6.7497990">
        <ele>2984.4</ele>
        <time>2017-07-28T12:30:57Z</time>
      </trkpt>
      <trkpt lat="44.9660760" lon="6.7497920">
        <ele>2985.0</ele>
        <time>2017-07-28T12:30:58Z</time>
      </trkpt>
      <trkpt lat="44.9660630" lon="6.7497820">
        <ele>2985.4</ele>
        <time>2017-07-28T12:30:59Z</time>
      </trkpt>
      <trkpt lat="44.9660390" lon="6.7497670">
        <ele>2986.0</ele>
        <time>2017-07-28T12:31:01Z</time>
      </trkpt>
      <trkpt lat="44.9660050" lon="6.7497430">
        <ele>2987.4</ele>
        <time>2017-07-28T12:31:04Z</time>
      </trkpt>
      <trkpt lat="44.9659670" lon="6.7497320">
        <ele>2989.0</ele>
        <time>2017-07-28T12:31:07Z</time>
      </trkpt>
      <trkpt lat="44.9659320" lon="6.7497170">
        <ele>2990.2</ele>
        <time>2017-07-28T12:31:10Z</time>
      </trkpt>
      <trkpt lat="44.9658970" lon="6.7496900">
        <ele>2991.2</ele>
        <time>2017-07-28T12:31:13Z</time>
      </trkpt>
      <trkpt lat="44.9658770" lon="6.7496720">
        <ele>2991.8</ele>
        <time>2017-07-28T12:31:15Z</time>
      </trkpt>
      <trkpt lat="44.9658520" lon="6.7496650">
        <ele>2992.6</ele>
        <time>2017-07-28T12:31:17Z</time>
      </trkpt>
      <trkpt lat="44.9658280" lon="6.7496530">
        <ele>2993.6</ele>
        <time>2017-07-28T12:31:19Z</time>
      </trkpt>
      <trkpt lat="44.9657960" lon="6.7496330">
        <ele>2994.8</ele>
        <time>2017-07-28T12:31:22Z</time>
      </trkpt>
      <trkpt lat="44.9657490" lon="6.7496030">
        <ele>2995.8</ele>
        <time>2017-07-28T12:31:26Z</time>
      </trkpt>
      <trkpt lat="44.9657010" lon="6.7495700">
        <ele>2997.0</ele>
        <time>2017-07-28T12:31:30Z</time>
      </trkpt>
      <trkpt lat="44.9656650" lon="6.7495490">
        <ele>2998.0</ele>
        <time>2017-07-28T12:31:33Z</time>
      </trkpt>
      <trkpt lat="44.9656190" lon="6.7495000">
        <ele>2999.0</ele>
        <time>2017-07-28T12:31:37Z</time>
      </trkpt>
      <trkpt lat="44.9656070" lon="6.7494890">
        <ele>2999.0</ele>
        <time>2017-07-28T12:31:38Z</time>
      </trkpt>
      <trkpt lat="44.9655390" lon="6.7494470">
        <ele>3000.2</ele>
        <time>2017-07-28T12:31:44Z</time>
      </trkpt>
      <trkpt lat="44.9654860" lon="6.7494120">
        <ele>3001.4</ele>
        <time>2017-07-28T12:31:49Z</time>
      </trkpt>
      <trkpt lat="44.9654540" lon="6.7493830">
        <ele>3001.8</ele>
        <time>2017-07-28T12:31:52Z</time>
      </trkpt>
      <trkpt lat="44.9653880" lon="6.7493280">
        <ele>3002.4</ele>
        <time>2017-07-28T12:31:58Z</time>
      </trkpt>
      <trkpt lat="44.9653780" lon="6.7493150">
        <ele>3002.4</ele>
        <time>2017-07-28T12:31:59Z</time>
      </trkpt>
      <trkpt lat="44.9653260" lon="6.7492480">
        <ele>3002.8</ele>
        <time>2017-07-28T12:32:04Z</time>
      </trkpt>
      <trkpt lat="44.9652480" lon="6.7491900">
        <ele>3003.4</ele>
        <time>2017-07-28T12:32:11Z</time>
      </trkpt>
      <trkpt lat="44.9652370" lon="6.7491820">
        <ele>3003.6</ele>
        <time>2017-07-28T12:32:12Z</time>
      </trkpt>
      <trkpt lat="44.9651740" lon="6.7491340">
        <ele>3004.2</ele>
        <time>2017-07-28T12:32:18Z</time>
      </trkpt>
      <trkpt lat="44.9651560" lon="6.7491100">
        <ele>3004.2</ele>
        <time>2017-07-28T12:32:20Z</time>
      </trkpt>
      <trkpt lat="44.9650910" lon="6.7490760">
        <ele>3004.6</ele>
        <time>2017-07-28T12:32:26Z</time>
      </trkpt>
      <trkpt lat="44.9650780" lon="6.7490700">
        <ele>3004.8</ele>
        <time>2017-07-28T12:32:27Z</time>
      </trkpt>
      <trkpt lat="44.9650410" lon="6.7490640">
        <ele>3005.4</ele>
        <time>2017-07-28T12:32:30Z</time>
      </trkpt>
      <trkpt lat="44.9649940" lon="6.7490660">
        <ele>3005.4</ele>
        <time>2017-07-28T12:32:34Z</time>
      </trkpt>
      <trkpt lat="44.9649570" lon="6.7490510">
        <ele>3005.8</ele>
        <time>2017-07-28T12:32:37Z</time>
      </trkpt>
      <trkpt lat="44.9649440" lon="6.7490440">
        <ele>3005.8</ele>
        <time>2017-07-28T12:32:38Z</time>
      </trkpt>
      <trkpt lat="44.9649180" lon="6.7490430">
        <ele>3005.8</ele>
        <time>2017-07-28T12:32:40Z</time>
      </trkpt>
      <trkpt lat="44.9648940" lon="6.7490510">
        <ele>3006.0</ele>
        <time>2017-07-28T12:32:42Z</time>
      </trkpt>
      <trkpt lat="44.9648760" lon="6.7490730">
        <ele>3006.8</ele>
        <time>2017-07-28T12:32:44Z</time>
      </trkpt>
      <trkpt lat="44.9648610" lon="6.7490920">
        <ele>3007.0</ele>
        <time>2017-07-28T12:32:46Z</time>
      </trkpt>
      <trkpt lat="44.9648280" lon="6.7491150">
        <ele>3008.0</ele>
        <time>2017-07-28T12:32:49Z</time>
      </trkpt>
      <trkpt lat="44.9648180" lon="6.7491210">
        <ele>3008.2</ele>
        <time>2017-07-28T12:32:50Z</time>
      </trkpt>
      <trkpt lat="44.9648040" lon="6.7491430">
        <ele>3008.8</ele>
        <time>2017-07-28T12:32:52Z</time>
      </trkpt>
      <trkpt lat="44.9647950" lon="6.7491470">
        <ele>3009.0</ele>
        <time>2017-07-28T12:32:53Z</time>
      </trkpt>
      <trkpt lat="44.9647610" lon="6.7491840">
        <ele>3009.8</ele>
        <time>2017-07-28T12:32:57Z</time>
      </trkpt>
      <trkpt lat="44.9647520" lon="6.7492050">
        <ele>3010.2</ele>
        <time>2017-07-28T12:32:59Z</time>
      </trkpt>
      <trkpt lat="44.9647440" lon="6.7492150">
        <ele>3010.2</ele>
        <time>2017-07-28T12:33:00Z</time>
      </trkpt>
      <trkpt lat="44.9647480" lon="6.7492390">
        <ele>3010.4</ele>
        <time>2017-07-28T12:33:02Z</time>
      </trkpt>
      <trkpt lat="44.9647700" lon="6.7492770">
        <ele>3010.2</ele>
        <time>2017-07-28T12:33:05Z</time>
      </trkpt>
      <trkpt lat="44.9648330" lon="6.7492980">
        <ele>3011.2</ele>
        <time>2017-07-28T12:33:11Z</time>
      </trkpt>
      <trkpt lat="44.9648430" lon="6.7493030">
        <ele>3011.2</ele>
        <time>2017-07-28T12:33:12Z</time>
      </trkpt>
      <trkpt lat="44.9649600" lon="6.7503630">
        <ele>3054.8</ele>
        <time>2017-07-28T12:38:07Z</time>
      </trkpt>
      <trkpt lat="44.9649700" lon="6.7503780">
        <ele>3055.0</ele>
        <time>2017-07-28T12:38:08Z</time>
      </trkpt>
      <trkpt lat="44.9649950" lon="6.7504300">
        <ele>3056.0</ele>
        <time>2017-07-28T12:38:11Z</time>
      </trkpt>
      <trkpt lat="44.9650240" lon="6.7504700">
        <ele>3056.2</ele>
        <time>2017-07-28T12:38:13Z</time>
      </trkpt>
      <trkpt lat="44.9650750" lon="6.7505590">
        <ele>3057.2</ele>
        <time>2017-07-28T12:38:16Z</time>
      </trkpt>
      <trkpt lat="44.9650910" lon="6.7506490">
        <ele>3057.4</ele>
        <time>2017-07-28T12:38:18Z</time>
      </trkpt>
      <trkpt lat="44.9651070" lon="6.7508350">
        <ele>3057.2</ele>
        <time>2017-07-28T12:38:22Z</time>
      </trkpt>
      <trkpt lat="44.9651270" lon="6.7508750">
        <ele>3057.2</ele>
        <time>2017-07-28T12:38:23Z</time>
      </trkpt>
      <trkpt lat="44.9652040" lon="6.7509500">
        <ele>3057.4</ele>
        <time>2017-07-28T12:38:25Z</time>
      </trkpt>
      <trkpt lat="44.9652610" lon="6.7510120">
        <ele>3057.6</ele>
        <time>2017-07-28T12:38:28Z</time>
      </trkpt>
      <trkpt lat="44.9652600" lon="6.7510370">
        <ele>3057.6</ele>
        <time>2017-07-28T12:38:30Z</time>
      </trkpt>
      <trkpt lat="44.9652260" lon="6.7510890">
        <ele>3057.0</ele>
        <time>2017-07-28T12:38:33Z</time>
      </trkpt>
      <trkpt lat="44.9651100" lon="6.7508230">
        <ele>3056.0</ele>
        <time>2017-07-28T12:48:11Z</time>
      </trkpt>
      <trkpt lat="44.9651030" lon="6.7507990">
        <ele>3056.0</ele>
        <time>2017-07-28T12:48:12Z</time>
      </trkpt>
      <trkpt lat="44.9650890" lon="6.7507210">
        <ele>3056.4</ele>
        <time>2017-07-28T12:48:15Z</time>
      </trkpt>
      <trkpt lat="44.9650920" lon="6.7506440">
        <ele>3056.6</ele>
        <time>2017-07-28T12:48:18Z</time>
      </trkpt>
      <trkpt lat="44.9650880" lon="6.7506310">
        <ele>3056.6</ele>
        <time>2017-07-28T12:48:19Z</time>
      </trkpt>
      <trkpt lat="44.9650760" lon="6.7505860">
        <ele>3057.0</ele>
        <time>2017-07-28T12:48:22Z</time>
      </trkpt>
      <trkpt lat="44.9650640" lon="6.7505540">
        <ele>3057.0</ele>
        <time>2017-07-28T12:48:23Z</time>
      </trkpt>
      <trkpt lat="44.9649850" lon="6.7504060">
        <ele>3057.6</ele>
        <time>2017-07-28T12:48:28Z</time>
      </trkpt>
      <trkpt lat="44.9649750" lon="6.7503840">
        <ele>3057.6</ele>
        <time>2017-07-28T12:48:29Z</time>
      </trkpt>
      <trkpt lat="44.9649630" lon="6.7503670">
        <ele>3057.8</ele>
        <time>2017-07-28T12:48:30Z</time>
      </trkpt>
      <trkpt lat="44.9649350" lon="6.7503390">
        <ele>3058.0</ele>
        <time>2017-07-28T12:48:32Z</time>
      </trkpt>
      <trkpt lat="44.9649090" lon="6.7503340">
        <ele>3058.2</ele>
        <time>2017-07-28T12:48:34Z</time>
      </trkpt>
      <trkpt lat="44.9648590" lon="6.7503010">
        <ele>3058.6</ele>
        <time>2017-07-28T12:48:38Z</time>
      </trkpt>
      <trkpt lat="44.9648080" lon="6.7502670">
        <ele>3058.6</ele>
        <time>2017-07-28T12:48:41Z</time>
      </trkpt>
      <trkpt lat="44.9648390" lon="6.7502060">
        <ele>3058.2</ele>
        <time>2017-07-28T12:48:44Z</time>
      </trkpt>
      <trkpt lat="44.9649220" lon="6.7502000">
        <ele>3057.8</ele>
        <time>2017-07-28T12:48:48Z</time>
      </trkpt>
      <trkpt lat="44.9650140" lon="6.7502400">
        <ele>3056.8</ele>
        <time>2017-07-28T12:48:51Z</time>
      </trkpt>
      <trkpt lat="44.9650490" lon="6.7502750">
        <ele>3056.6</ele>
        <time>2017-07-28T12:48:52Z</time>
      </trkpt>
      <trkpt lat="44.9650820" lon="6.7503140">
        <ele>3056.4</ele>
        <time>2017-07-28T12:48:53Z</time>
      </trkpt>
      <trkpt lat="44.9651490" lon="6.7503930">
        <ele>3056.0</ele>
        <time>2017-07-28T12:48:56Z</time>
      </trkpt>
      <trkpt lat="44.9651540" lon="6.7503720">
        <ele>3055.8</ele>
        <time>2017-07-28T12:48:57Z</time>
      </trkpt>
      <trkpt lat="44.9651090" lon="6.7502400">
        <ele>3055.0</ele>
        <time>2017-07-28T12:49:00Z</time>
      </trkpt>
      <trkpt lat="44.9650570" lon="6.7501370">
        <ele>3054.6</ele>
        <time>2017-07-28T12:49:02Z</time>
      </trkpt>
      <trkpt lat="44.9649870" lon="6.7499980">
        <ele>3053.2</ele>
        <time>2017-07-28T12:49:05Z</time>
      </trkpt>
      <trkpt lat="44.9649590" lon="6.7499380">
        <ele>3052.2</ele>
        <time>2017-07-28T12:49:07Z</time>
      </trkpt>
      <trkpt lat="44.9649440" lon="6.7499120">
        <ele>3051.2</ele>
        <time>2017-07-28T12:49:08Z</time>
      </trkpt>
      <trkpt lat="44.9649800" lon="6.7498910">
        <ele>3048.8</ele>
        <time>2017-07-28T12:49:14Z</time>
      </trkpt>
      <trkpt lat="44.9650260" lon="6.7499240">
        <ele>3048.0</ele>
        <time>2017-07-28T12:49:16Z</time>
      </trkpt>
      <trkpt lat="44.9650570" lon="6.7499470">
        <ele>3047.4</ele>
        <time>2017-07-28T12:49:17Z</time>
      </trkpt>
      <trkpt lat="44.9651290" lon="6.7499990">
        <ele>3046.4</ele>
        <time>2017-07-28T12:49:19Z</time>
      </trkpt>
      <trkpt lat="44.9651680" lon="6.7500310">
        <ele>3045.8</ele>
        <time>2017-07-28T12:49:20Z</time>
      </trkpt>
      <trkpt lat="44.9652040" lon="6.7500570">
        <ele>3045.6</ele>
        <time>2017-07-28T12:49:21Z</time>
      </trkpt>
      <trkpt lat="44.9652380" lon="6.7500790">
        <ele>3045.2</ele>
        <time>2017-07-28T12:49:22Z</time>
      </trkpt>
      <trkpt lat="44.9652940" lon="6.7501280">
        <ele>3043.6</ele>
        <time>2017-07-28T12:49:24Z</time>
      </trkpt>
      <trkpt lat="44.9653110" lon="6.7501280">
        <ele>3043.0</ele>
        <time>2017-07-28T12:49:25Z</time>
      </trkpt>
      <trkpt lat="44.9653160" lon="6.7501130">
        <ele>3042.6</ele>
        <time>2017-07-28T12:49:26Z</time>
      </trkpt>
      <trkpt lat="44.9652930" lon="6.7500520">
        <ele>3041.2</ele>
        <time>2017-07-28T12:49:28Z</time>
      </trkpt>
      <trkpt lat="44.9652760" lon="6.7500110">
        <ele>3040.6</ele>
        <time>2017-07-28T12:49:29Z</time>
      </trkpt>
      <trkpt lat="44.9652610" lon="6.7499700">
        <ele>3040.0</ele>
        <time>2017-07-28T12:49:30Z</time>
      </trkpt>
      <trkpt lat="44.9652500" lon="6.7499370">
        <ele>3039.2</ele>
        <time>2017-07-28T12:49:31Z</time>
      </trkpt>
      <trkpt lat="44.9652430" lon="6.7499100">
        <ele>3037.8</ele>
        <time>2017-07-28T12:49:32Z</time>
      </trkpt>
      <trkpt lat="44.9652280" lon="6.7498700">
        <ele>3036.8</ele>
        <time>2017-07-28T12:49:34Z</time>
      </trkpt>
      <trkpt lat="44.9652090" lon="6.7498370">
        <ele>3035.8</ele>
        <time>2017-07-28T12:49:36Z</time>
      </trkpt>
      <trkpt lat="44.9651890" lon="6.7497980">
        <ele>3034.6</ele>
        <time>2017-07-28T12:49:38Z</time>
      </trkpt>
      <trkpt lat="44.9651780" lon="6.7497820">
        <ele>3034.0</ele>
        <time>2017-07-28T12:49:39Z</time>
      </trkpt>
      <trkpt lat="44.9651650" lon="6.7497590">
        <ele>3033.4</ele>
        <time>2017-07-28T12:49:40Z</time>
      </trkpt>
      <trkpt lat="44.9651400" lon="6.7497010">
        <ele>3032.2</ele>
        <time>2017-07-28T12:49:42Z</time>
      </trkpt>
      <trkpt lat="44.9651100" lon="6.7496220">
        <ele>3030.8</ele>
        <time>2017-07-28T12:49:44Z</time>
      </trkpt>
      <trkpt lat="44.9650690" lon="6.7495470">
        <ele>3029.8</ele>
        <time>2017-07-28T12:49:46Z</time>
      </trkpt>
      <trkpt lat="44.9650180" lon="6.7494790">
        <ele>3028.6</ele>
        <time>2017-07-28T12:49:48Z</time>
      </trkpt>
      <trkpt lat="44.9649870" lon="6.7494520">
        <ele>3028.0</ele>
        <time>2017-07-28T12:49:49Z</time>
      </trkpt>
      <trkpt lat="44.9649580" lon="6.7494210">
        <ele>3027.4</ele>
        <time>2017-07-28T12:49:50Z</time>
      </trkpt>
      <trkpt lat="44.9649440" lon="6.7493820">
        <ele>3026.6</ele>
        <time>2017-07-28T12:49:51Z</time>
      </trkpt>
      <trkpt lat="44.9649320" lon="6.7493460">
        <ele>3026.0</ele>
        <time>2017-07-28T12:49:52Z</time>
      </trkpt>
      <trkpt lat="44.9648990" lon="6.7492870">
        <ele>3025.0</ele>
        <time>2017-07-28T12:49:54Z</time>
      </trkpt>
      <trkpt lat="44.9648500" lon="6.7492460">
        <ele>3022.6</ele>
        <time>2017-07-28T12:49:56Z</time>
      </trkpt>
      <trkpt lat="44.9648230" lon="6.7492360">
        <ele>3022.2</ele>
        <time>2017-07-28T12:49:57Z</time>
      </trkpt>
      <trkpt lat="44.9647980" lon="6.7492390">
        <ele>3021.6</ele>
        <time>2017-07-28T12:49:58Z</time>
      </trkpt>
      <trkpt lat="44.9647550" lon="6.7492510">
        <ele>3020.2</ele>
        <time>2017-07-28T12:50:00Z</time>
      </trkpt>
      <trkpt lat="44.9647430" lon="6.7492370">
        <ele>3019.6</ele>
        <time>2017-07-28T12:50:01Z</time>
      </trkpt>
      <trkpt lat="44.9647350" lon="6.7492150">
        <ele>3019.0</ele>
        <time>2017-07-28T12:50:02Z</time>
      </trkpt>
      <trkpt lat="44.9647540" lon="6.7491660">
        <ele>3018.0</ele>
        <time>2017-07-28T12:50:04Z</time>
      </trkpt>
      <trkpt lat="44.9647750" lon="6.7491410">
        <ele>3017.2</ele>
        <time>2017-07-28T12:50:05Z</time>
      </trkpt>
      <trkpt lat="44.9648010" lon="6.7491100">
        <ele>3016.8</ele>
        <time>2017-07-28T12:50:06Z</time>
      </trkpt>
      <trkpt lat="44.9648650" lon="6.7490430">
        <ele>3015.4</ele>
        <time>2017-07-28T12:50:08Z</time>
      </trkpt>
      <trkpt lat="44.9649340" lon="6.7490140">
        <ele>3014.4</ele>
        <time>2017-07-28T12:50:10Z</time>
      </trkpt>
      <trkpt lat="44.9650530" lon="6.7490430">
        <ele>3013.0</ele>
        <time>2017-07-28T12:50:13Z</time>
      </trkpt>
      <trkpt lat="44.9650880" lon="6.7490540">
        <ele>3012.8</ele>
        <time>2017-07-28T12:50:14Z</time>
      </trkpt>
      <trkpt lat="44.9651550" lon="6.7490960">
        <ele>3011.8</ele>
        <time>2017-07-28T12:50:16Z</time>
      </trkpt>
      <trkpt lat="44.9652540" lon="6.7491840">
        <ele>3010.4</ele>
        <time>2017-07-28T12:50:19Z</time>
      </trkpt>
      <trkpt lat="44.9652920" lon="6.7492140">
        <ele>3009.2</ele>
        <time>2017-07-28T12:50:20Z</time>
      </trkpt>
      <trkpt lat="44.9653300" lon="6.7492530">
        <ele>3009.0</ele>
        <time>2017-07-28T12:50:21Z</time>
      </trkpt>
      <trkpt lat="44.9654100" lon="6.7493330">
        <ele>3007.8</ele>
        <time>2017-07-28T12:50:23Z</time>
      </trkpt>
      <trkpt lat="44.9654470" lon="6.7493700">
        <ele>3007.6</ele>
        <time>2017-07-28T12:50:24Z</time>
      </trkpt>
      <trkpt lat="44.9654880" lon="6.7494050">
        <ele>3007.2</ele>
        <time>2017-07-28T12:50:25Z</time>
      </trkpt>
      <trkpt lat="44.9655270" lon="6.7494340">
        <ele>3006.6</ele>
        <time>2017-07-28T12:50:26Z</time>
      </trkpt>
      <trkpt lat="44.9655990" lon="6.7494980">
        <ele>3005.4</ele>
        <time>2017-07-28T12:50:28Z</time>
      </trkpt>
      <trkpt lat="44.9657390" lon="6.7496010">
        <ele>3004.0</ele>
        <time>2017-07-28T12:50:31Z</time>
      </trkpt>
      <trkpt lat="44.9658390" lon="6.7496640">
        <ele>3002.8</ele>
        <time>2017-07-28T12:50:33Z</time>
      </trkpt>
      <trkpt lat="44.9659310" lon="6.7497170">
        <ele>3001.4</ele>
        <time>2017-07-28T12:50:35Z</time>
      </trkpt>
      <trkpt lat="44.9660150" lon="6.7497600">
        <ele>3000.2</ele>
        <time>2017-07-28T12:50:37Z</time>
      </trkpt>
      <trkpt lat="44.9660570" lon="6.7497850">
        <ele>2999.4</ele>
        <time>2017-07-28T12:50:38Z</time>
      </trkpt>
      <trkpt lat="44.9661050" lon="6.7498070">
        <ele>2998.6</ele>
        <time>2017-07-28T12:50:39Z</time>
      </trkpt>
      <trkpt lat="44.9661890" lon="6.7498530">
        <ele>2997.4</ele>
        <time>2017-07-28T12:50:41Z</time>
      </trkpt>
      <trkpt lat="44.9662330" lon="6.7498700">
        <ele>2996.8</ele>
        <time>2017-07-28T12:50:42Z</time>
      </trkpt>
      <trkpt lat="44.9662830" lon="6.7498860">
        <ele>2996.2</ele>
        <time>2017-07-28T12:50:43Z</time>
      </trkpt>
      <trkpt lat="44.9663350" lon="6.7499040">
        <ele>2994.8</ele>
        <time>2017-07-28T12:50:44Z</time>
      </trkpt>
      <trkpt lat="44.9664340" lon="6.7499530">
        <ele>2993.4</ele>
        <time>2017-07-28T12:50:46Z</time>
      </trkpt>
      <trkpt lat="44.9664790" lon="6.7499790">
        <ele>2992.6</ele>
        <time>2017-07-28T12:50:47Z</time>
      </trkpt>
      <trkpt lat="44.9665200" lon="6.7500050">
        <ele>2991.8</ele>
        <time>2017-07-28T12:50:48Z</time>
      </trkpt>
      <trkpt lat="44.9666060" lon="6.7500540">
        <ele>2990.6</ele>
        <time>2017-07-28T12:50:50Z</time>
      </trkpt>
      <trkpt lat="44.9666460" lon="6.7500690">
        <ele>2990.0</ele>
        <time>2017-07-28T12:50:51Z</time>
      </trkpt>
      <trkpt lat="44.9666840" lon="6.7500880">
        <ele>2989.4</ele>
        <time>2017-07-28T12:50:52Z</time>
      </trkpt>
      <trkpt lat="44.9667190" lon="6.7501070">
        <ele>2988.6</ele>
        <time>2017-07-28T12:50:53Z</time>
      </trkpt>
      <trkpt lat="44.9667500" lon="6.7501210">
        <ele>2988.0</ele>
        <time>2017-07-28T12:50:54Z</time>
      </trkpt>
      <trkpt lat="44.9668050" lon="6.7501330">
        <ele>2986.4</ele>
        <time>2017-07-28T12:50:56Z</time>
      </trkpt>
      <trkpt lat="44.9668530" lon="6.7501570">
        <ele>2985.0</ele>
        <time>2017-07-28T12:50:58Z</time>
      </trkpt>
      <trkpt lat="44.9668920" lon="6.7502000">
        <ele>2983.8</ele>
        <time>2017-07-28T12:51:00Z</time>
      </trkpt>
      <trkpt lat="44.9669260" lon="6.7502470">
        <ele>2982.8</ele>
        <time>2017-07-28T12:51:02Z</time>
      </trkpt>
      <trkpt lat="44.9669680" lon="6.7503020">
        <ele>2981.4</ele>
        <time>2017-07-28T12:51:04Z</time>
      </trkpt>
      <trkpt lat="44.9670020" lon="6.7503850">
        <ele>2980.4</ele>
        <time>2017-07-28T12:51:06Z</time>
      </trkpt>
      <trkpt lat="44.9670470" lon="6.7504930">
        <ele>2978.6</ele>
        <time>2017-07-28T12:51:08Z</time>
      </trkpt>
      <trkpt lat="44.9671210" lon="6.7505880">
        <ele>2977.4</ele>
        <time>2017-07-28T12:51:10Z</time>
      </trkpt>
      <trkpt lat="44.9672050" lon="6.7506890">
        <ele>2976.0</ele>
        <time>2017-07-28T12:51:12Z</time>
      </trkpt>
      <trkpt lat="44.9672450" lon="6.7507450">
        <ele>2975.0</ele>
        <time>2017-07-28T12:51:13Z</time>
      </trkpt>
      <trkpt lat="44.9672820" lon="6.7507980">
        <ele>2974.4</ele>
        <time>2017-07-28T12:51:14Z</time>
      </trkpt>
      <trkpt lat="44.9673180" lon="6.7508410">
        <ele>2973.8</ele>
        <time>2017-07-28T12:51:15Z</time>
      </trkpt>
      <trkpt lat="44.9673530" lon="6.7508850">
        <ele>2973.2</ele>
        <time>2017-07-28T12:51:16Z</time>
      </trkpt>
      <trkpt lat="44.9673940" lon="6.7509240">
        <ele>2972.4</ele>
        <time>2017-07-28T12:51:17Z</time>
      </trkpt>
      <trkpt lat="44.9674450" lon="6.7509530">
        <ele>2971.8</ele>
        <time>2017-07-28T12:51:18Z</time>
      </trkpt>
      <trkpt lat="44.9674980" lon="6.7509790">
        <ele>2971.2</ele>
        <time>2017-07-28T12:51:19Z</time>
      </trkpt>
      <trkpt lat="44.9675490" lon="6.7510030">
        <ele>2970.6</ele>
        <time>2017-07-28T12:51:20Z</time>
      </trkpt>
      <trkpt lat="44.9675940" lon="6.7510280">
        <ele>2970.0</ele>
        <time>2017-07-28T12:51:21Z</time>
      </trkpt>
      <trkpt lat="44.9676330" lon="6.7510620">
        <ele>2969.2</ele>
        <time>2017-07-28T12:51:22Z</time>
      </trkpt>
      <trkpt lat="44.9677060" lon="6.7511340">
        <ele>2967.8</ele>
        <time>2017-07-28T12:51:24Z</time>
      </trkpt>
      <trkpt lat="44.9677400" lon="6.7511780">
        <ele>2966.8</ele>
        <time>2017-07-28T12:51:25Z</time>
      </trkpt>
      <trkpt lat="44.9677650" lon="6.7512300">
        <ele>2966.0</ele>
        <time>2017-07-28T12:51:26Z</time>
      </trkpt>
      <trkpt lat="44.9678100" lon="6.7512530">
        <ele>2964.6</ele>
        <time>2017-07-28T12:51:28Z</time>
      </trkpt>
      <trkpt lat="44.9678230" lon="6.7511920">
        <ele>2963.2</ele>
        <time>2017-07-28T12:51:30Z</time>
      </trkpt>
      <trkpt lat="44.9678120" lon="6.7511460">
        <ele>2962.4</ele>
        <time>2017-07-28T12:51:31Z</time>
      </trkpt>
      <trkpt lat="44.9677880" lon="6.7510940">
        <ele>2960.4</ele>
        <time>2017-07-28T12:51:32Z</time>
      </trkpt>
      <trkpt lat="44.9677340" lon="6.7509870">
        <ele>2959.0</ele>
        <time>2017-07-28T12:51:34Z</time>
      </trkpt>
      <trkpt lat="44.9677150" lon="6.7509370">
        <ele>2958.0</ele>
        <time>2017-07-28T12:51:35Z</time>
      </trkpt>
      <trkpt lat="44.9677020" lon="6.7509010">
        <ele>2956.8</ele>
        <time>2017-07-28T12:51:36Z</time>
      </trkpt>
      <trkpt lat="44.9676840" lon="6.7508600">
        <ele>2955.0</ele>
        <time>2017-07-28T12:51:38Z</time>
      </trkpt>
      <trkpt lat="44.9676800" lon="6.7508390">
        <ele>2953.2</ele>
        <time>2017-07-28T12:51:40Z</time>
      </trkpt>
      <trkpt lat="44.9676710" lon="6.7508210">
        <ele>2952.4</ele>
        <time>2017-07-28T12:51:41Z</time>
      </trkpt>
      <trkpt lat="44.9676620" lon="6.7508140">
        <ele>2951.4</ele>
        <time>2017-07-28T12:51:42Z</time>
      </trkpt>
      <trkpt lat="44.9676550" lon="6.7508040">
        <ele>2950.8</ele>
        <time>2017-07-28T12:51:43Z</time>
      </trkpt>
      <trkpt lat="44.9676450" lon="6.7507940">
        <ele>2949.8</ele>
        <time>2017-07-28T12:51:44Z</time>
      </trkpt>
      <trkpt lat="44.9676230" lon="6.7507340">
        <ele>2948.2</ele>
        <time>2017-07-28T12:51:46Z</time>
      </trkpt>
      <trkpt lat="44.9676110" lon="6.7506960">
        <ele>2947.4</ele>
        <time>2017-07-28T12:51:47Z</time>
      </trkpt>
      <trkpt lat="44.9676000" lon="6.7506460">
        <ele>2946.6</ele>
        <time>2017-07-28T12:51:48Z</time>
      </trkpt>
      <trkpt lat="44.9675620" lon="6.7505110">
        <ele>2944.8</ele>
        <time>2017-07-28T12:51:50Z</time>
      </trkpt>
      <trkpt lat="44.9675270" lon="6.7504010">
        <ele>2943.4</ele>
        <time>2017-07-28T12:51:52Z</time>
      </trkpt>
      <trkpt lat="44.9675050" lon="6.7503200">
        <ele>2941.8</ele>
        <time>2017-07-28T12:51:54Z</time>
      </trkpt>
      <trkpt lat="44.9674870" lon="6.7502480">
        <ele>2939.4</ele>
        <time>2017-07-28T12:51:56Z</time>
      </trkpt>
      <trkpt lat="44.9674790" lon="6.7502040">
        <ele>2938.2</ele>
        <time>2017-07-28T12:51:58Z</time>
      </trkpt>
      <trkpt lat="44.9674700" lon="6.7501640">
        <ele>2932.0</ele>
        <time>2017-07-28T12:52:15Z</time>
      </trkpt>
      <trkpt lat="44.9674570" lon="6.7500670">
        <ele>2931.4</ele>
        <time>2017-07-28T12:52:17Z</time>
      </trkpt>
      <trkpt lat="44.9674380" lon="6.7499470">
        <ele>2930.8</ele>
        <time>2017-07-28T12:52:19Z</time>
      </trkpt>
      <trkpt lat="44.9673990" lon="6.7497850">
        <ele>2929.6</ele>
        <time>2017-07-28T12:52:22Z</time>
      </trkpt>
      <trkpt lat="44.9673770" lon="6.7497120">
        <ele>2921.2</ele>
        <time>2017-07-28T12:52:52Z</time>
      </trkpt>
      <trkpt lat="44.9673570" lon="6.7496210">
        <ele>2921.0</ele>
        <time>2017-07-28T12:52:54Z</time>
      </trkpt>
      <trkpt lat="44.9673070" lon="6.7493820">
        <ele>2920.2</ele>
        <time>2017-07-28T12:52:57Z</time>
      </trkpt>
      <trkpt lat="44.9672770" lon="6.7493040">
        <ele>2920.2</ele>
        <time>2017-07-28T12:52:58Z</time>
      </trkpt>
      <trkpt lat="44.9672110" lon="6.7491780">
        <ele>2919.6</ele>
        <time>2017-07-28T12:53:00Z</time>
      </trkpt>
      <trkpt lat="44.9671420" lon="6.7490490">
        <ele>2919.0</ele>
        <time>2017-07-28T12:53:03Z</time>
      </trkpt>
      <trkpt lat="44.9670530" lon="6.7488840">
        <ele>2917.8</ele>
        <time>2017-07-28T12:53:07Z</time>
      </trkpt>
      <trkpt lat="44.9669920" lon="6.7487780">
        <ele>2916.4</ele>
        <time>2017-07-28T12:53:10Z</time>
      </trkpt>
      <trkpt lat="44.9669760" lon="6.7487530">
        <ele>2916.0</ele>
        <time>2017-07-28T12:53:11Z</time>
      </trkpt>
      <trkpt lat="44.9669450" lon="6.7487210">
        <ele>2910.4</ele>
        <time>2017-07-28T12:53:47Z</time>
      </trkpt>
      <trkpt lat="44.9669200" lon="6.7486390">
        <ele>2909.6</ele>
        <time>2017-07-28T12:53:51Z</time>
      </trkpt>
      <trkpt lat="44.9669300" lon="6.7486240">
        <ele>2909.2</ele>
        <time>2017-07-28T12:53:52Z</time>
      </trkpt>
      <trkpt lat="44.9669930" lon="6.7486310">
        <ele>2909.0</ele>
        <time>2017-07-28T12:53:56Z</time>
      </trkpt>
      <trkpt lat="44.9670150" lon="6.7486360">
        <ele>2909.0</ele>
        <time>2017-07-28T12:53:57Z</time>
      </trkpt>
      <trkpt lat="44.9671230" lon="6.7486740">
        <ele>2909.4</ele>
        <time>2017-07-28T12:54:02Z</time>
      </trkpt>
      <trkpt lat="44.9671910" lon="6.7487090">
        <ele>2908.8</ele>
        <time>2017-07-28T12:54:44Z</time>
      </trkpt>
      <trkpt lat="44.9672400" lon="6.7487400">
        <ele>2909.0</ele>
        <time>2017-07-28T12:54:46Z</time>
      </trkpt>
      <trkpt lat="44.9674070" lon="6.7488370">
        <ele>2908.6</ele>
        <time>2017-07-28T12:54:50Z</time>
      </trkpt>
      <trkpt lat="44.9674730" lon="6.7488750">
        <ele>2908.2</ele>
        <time>2017-07-28T12:54:52Z</time>
      </trkpt>
      <trkpt lat="44.9675040" lon="6.7488800">
        <ele>2907.8</ele>
        <time>2017-07-28T12:54:54Z</time>
      </trkpt>
      <trkpt lat="44.9675160" lon="6.7489080">
        <ele>2905.2</ele>
        <time>2017-07-28T12:55:16Z</time>
      </trkpt>
      <trkpt lat="44.9675480" lon="6.7489550">
        <ele>2905.0</ele>
        <time>2017-07-28T12:55:18Z</time>
      </trkpt>
      <trkpt lat="44.9675970" lon="6.7490350">
        <ele>2904.6</ele>
        <time>2017-07-28T12:55:20Z</time>
      </trkpt>
      <trkpt lat="44.9676660" lon="6.7491140">
        <ele>2903.8</ele>
        <time>2017-07-28T12:55:22Z</time>
      </trkpt>
      <trkpt lat="44.9677030" lon="6.7491690">
        <ele>2903.4</ele>
        <time>2017-07-28T12:55:23Z</time>
      </trkpt>
      <trkpt lat="44.9677860" lon="6.7492960">
        <ele>2902.8</ele>
        <time>2017-07-28T12:55:25Z</time>
      </trkpt>
      <trkpt lat="44.9678240" lon="6.7493490">
        <ele>2902.2</ele>
        <time>2017-07-28T12:55:26Z</time>
      </trkpt>
      <trkpt lat="44.9678900" lon="6.7494430">
        <ele>2901.4</ele>
        <time>2017-07-28T12:55:28Z</time>
      </trkpt>
      <trkpt lat="44.9679230" lon="6.7494790">
        <ele>2901.0</ele>
        <time>2017-07-28T12:55:29Z</time>
      </trkpt>
      <trkpt lat="44.9679800" lon="6.7495450">
        <ele>2900.0</ele>
        <time>2017-07-28T12:55:31Z</time>
      </trkpt>
      <trkpt lat="44.9679980" lon="6.7495780">
        <ele>2898.8</ele>
        <time>2017-07-28T12:55:32Z</time>
      </trkpt>
      <trkpt lat="44.9680490" lon="6.7496420">
        <ele>2898.0</ele>
        <time>2017-07-28T12:55:34Z</time>
      </trkpt>
      <trkpt lat="44.9680800" lon="6.7496770">
        <ele>2897.6</ele>
        <time>2017-07-28T12:55:35Z</time>
      </trkpt>
      <trkpt lat="44.9681540" lon="6.7497440">
        <ele>2896.4</ele>
        <time>2017-07-28T12:55:37Z</time>
      </trkpt>
      <trkpt lat="44.9682250" lon="6.7497940">
        <ele>2895.0</ele>
        <time>2017-07-28T12:55:39Z</time>
      </trkpt>
      <trkpt lat="44.9682470" lon="6.7498090">
        <ele>2894.4</ele>
        <time>2017-07-28T12:55:40Z</time>
      </trkpt>
      <trkpt lat="44.9682580" lon="6.7498180">
        <ele>2893.6</ele>
        <time>2017-07-28T12:55:41Z</time>
      </trkpt>
      <trkpt lat="44.9682680" lon="6.7498420">
        <ele>2888.8</ele>
        <time>2017-07-28T12:55:53Z</time>
      </trkpt>
      <trkpt lat="44.9682940" lon="6.7498600">
        <ele>2888.6</ele>
        <time>2017-07-28T12:55:54Z</time>
      </trkpt>
      <trkpt lat="44.9683610" lon="6.7499120">
        <ele>2888.2</ele>
        <time>2017-07-28T12:55:56Z</time>
      </trkpt>
      <trkpt lat="44.9683980" lon="6.7499390">
        <ele>2887.6</ele>
        <time>2017-07-28T12:55:57Z</time>
      </trkpt>
      <trkpt lat="44.9684860" lon="6.7499920">
        <ele>2886.2</ele>
        <time>2017-07-28T12:56:00Z</time>
      </trkpt>
      <trkpt lat="44.9685030" lon="6.7500110">
        <ele>2885.8</ele>
        <time>2017-07-28T12:56:01Z</time>
      </trkpt>
      <trkpt lat="44.9685570" lon="6.7500510">
        <ele>2885.0</ele>
        <time>2017-07-28T12:56:04Z</time>
      </trkpt>
      <trkpt lat="44.9685710" lon="6.7500350">
        <ele>2884.4</ele>
        <time>2017-07-28T12:56:05Z</time>
      </trkpt>
      <trkpt lat="44.9685740" lon="6.7500220">
        <ele>2883.8</ele>
        <time>2017-07-28T12:56:06Z</time>
      </trkpt>
      <trkpt lat="44.9685730" lon="6.7499830">
        <ele>2882.8</ele>
        <time>2017-07-28T12:56:09Z</time>
      </trkpt>
      <trkpt lat="44.9685490" lon="6.7499330">
        <ele>2881.6</ele>
        <time>2017-07-28T12:56:12Z</time>
      </trkpt>
      <trkpt lat="44.9685110" lon="6.7498980">
        <ele>2879.2</ele>
        <time>2017-07-28T12:56:21Z</time>
      </trkpt>
      <trkpt lat="44.9684940" lon="6.7498610">
        <ele>2878.8</ele>
        <time>2017-07-28T12:56:23Z</time>
      </trkpt>
      <trkpt lat="44.9684860" lon="6.7498310">
        <ele>2878.2</ele>
        <time>2017-07-28T12:56:25Z</time>
      </trkpt>
      <trkpt lat="44.9684510" lon="6.7497950">
        <ele>2876.6</ele>
        <time>2017-07-28T12:56:33Z</time>
      </trkpt>
      <trkpt lat="44.9684370" lon="6.7497700">
        <ele>2876.2</ele>
        <time>2017-07-28T12:56:35Z</time>
      </trkpt>
      <trkpt lat="44.9683780" lon="6.7496400">
        <ele>2875.6</ele>
        <time>2017-07-28T12:56:38Z</time>
      </trkpt>
      <trkpt lat="44.9683570" lon="6.7495710">
        <ele>2875.6</ele>
        <time>2017-07-28T12:56:39Z</time>
      </trkpt>
      <trkpt lat="44.9683410" lon="6.7495050">
        <ele>2875.4</ele>
        <time>2017-07-28T12:56:40Z</time>
      </trkpt>
      <trkpt lat="44.9683320" lon="6.7494380">
        <ele>2875.0</ele>
        <time>2017-07-28T12:56:41Z</time>
      </trkpt>
      <trkpt lat="44.9682700" lon="6.7492430">
        <ele>2874.4</ele>
        <time>2017-07-28T12:56:44Z</time>
      </trkpt>
      <trkpt lat="44.9682610" lon="6.7491720">
        <ele>2873.6</ele>
        <time>2017-07-28T12:56:45Z</time>
      </trkpt>
      <trkpt lat="44.9682500" lon="6.7490950">
        <ele>2873.0</ele>
        <time>2017-07-28T12:56:46Z</time>
      </trkpt>
      <trkpt lat="44.9682330" lon="6.7490170">
        <ele>2872.6</ele>
        <time>2017-07-28T12:56:47Z</time>
      </trkpt>
      <trkpt lat="44.9681950" lon="6.7488640">
        <ele>2871.6</ele>
        <time>2017-07-28T12:56:49Z</time>
      </trkpt>
      <trkpt lat="44.9681720" lon="6.7486810">
        <ele>2870.4</ele>
        <time>2017-07-28T12:56:51Z</time>
      </trkpt>
      <trkpt lat="44.9681550" lon="6.7485840">
        <ele>2870.0</ele>
        <time>2017-07-28T12:56:52Z</time>
      </trkpt>
      <trkpt lat="44.9681380" lon="6.7484940">
        <ele>2869.4</ele>
        <time>2017-07-28T12:56:53Z</time>
      </trkpt>
      <trkpt lat="44.9681310" lon="6.7484070">
        <ele>2868.8</ele>
        <time>2017-07-28T12:56:54Z</time>
      </trkpt>
      <trkpt lat="44.9681160" lon="6.7483210">
        <ele>2867.8</ele>
        <time>2017-07-28T12:56:55Z</time>
      </trkpt>
      <trkpt lat="44.9680800" lon="6.7481680">
        <ele>2866.2</ele>
        <time>2017-07-28T12:56:57Z</time>
      </trkpt>
      <trkpt lat="44.9680570" lon="6.7481110">
        <ele>2865.6</ele>
        <time>2017-07-28T12:56:58Z</time>
      </trkpt>
      <trkpt lat="44.9680420" lon="6.7480650">
        <ele>2864.6</ele>
        <time>2017-07-28T12:56:59Z</time>
      </trkpt>
      <trkpt lat="44.9680310" lon="6.7480330">
        <ele>2863.6</ele>
        <time>2017-07-28T12:57:00Z</time>
      </trkpt>
      <trkpt lat="44.9680280" lon="6.7480140">
        <ele>2862.8</ele>
        <time>2017-07-28T12:57:01Z</time>
      </trkpt>
      <trkpt lat="44.9680090" lon="6.7479850">
        <ele>2854.4</ele>
        <time>2017-07-28T12:57:14Z</time>
      </trkpt>
      <trkpt lat="44.9680020" lon="6.7479190">
        <ele>2853.4</ele>
        <time>2017-07-28T12:57:16Z</time>
      </trkpt>
      <trkpt lat="44.9679850" lon="6.7478320">
        <ele>2852.4</ele>
        <time>2017-07-28T12:57:18Z</time>
      </trkpt>
      <trkpt lat="44.9679670" lon="6.7477770">
        <ele>2852.0</ele>
        <time>2017-07-28T12:57:19Z</time>
      </trkpt>
      <trkpt lat="44.9679480" lon="6.7477150">
        <ele>2851.6</ele>
        <time>2017-07-28T12:57:20Z</time>
      </trkpt>
      <trkpt lat="44.9679260" lon="6.7476630">
        <ele>2851.0</ele>
        <time>2017-07-28T12:57:21Z</time>
      </trkpt>
      <trkpt lat="44.9679030" lon="6.7476260">
        <ele>2850.6</ele>
        <time>2017-07-28T12:57:22Z</time>
      </trkpt>
      <trkpt lat="44.9678470" lon="6.7475410">
        <ele>2849.2</ele>
        <time>2017-07-28T12:57:24Z</time>
      </trkpt>
      <trkpt lat="44.9677620" lon="6.7474570">
        <ele>2847.4</ele>
        <time>2017-07-28T12:57:26Z</time>
      </trkpt>
      <trkpt lat="44.9676890" lon="6.7473630">
        <ele>2845.8</ele>
        <time>2017-07-28T12:57:28Z</time>
      </trkpt>
      <trkpt lat="44.9676080" lon="6.7473040">
        <ele>2844.2</ele>
        <time>2017-07-28T12:57:30Z</time>
      </trkpt>
      <trkpt lat="44.9675950" lon="6.7472680">
        <ele>2843.4</ele>
        <time>2017-07-28T12:57:31Z</time>
      </trkpt>
      <trkpt lat="44.9676090" lon="6.7472420">
        <ele>2842.4</ele>
        <time>2017-07-28T12:57:32Z</time>
      </trkpt>
      <trkpt lat="44.9676330" lon="6.7472350">
        <ele>2840.4</ele>
        <time>2017-07-28T12:57:33Z</time>
      </trkpt>
      <trkpt lat="44.9677020" lon="6.7472580">
        <ele>2839.2</ele>
        <time>2017-07-28T12:57:35Z</time>
      </trkpt>
      <trkpt lat="44.9677440" lon="6.7472650">
        <ele>2838.4</ele>
        <time>2017-07-28T12:57:36Z</time>
      </trkpt>
      <trkpt lat="44.9677840" lon="6.7472710">
        <ele>2837.8</ele>
        <time>2017-07-28T12:57:37Z</time>
      </trkpt>
      <trkpt lat="44.9678720" lon="6.7472740">
        <ele>2836.6</ele>
        <time>2017-07-28T12:57:39Z</time>
      </trkpt>
      <trkpt lat="44.9679530" lon="6.7472820">
        <ele>2835.4</ele>
        <time>2017-07-28T12:57:41Z</time>
      </trkpt>
      <trkpt lat="44.9680160" lon="6.7473090">
        <ele>2834.0</ele>
        <time>2017-07-28T12:57:43Z</time>
      </trkpt>
      <trkpt lat="44.9680710" lon="6.7473570">
        <ele>2833.2</ele>
        <time>2017-07-28T12:57:45Z</time>
      </trkpt>
      <trkpt lat="44.9681010" lon="6.7473810">
        <ele>2833.0</ele>
        <time>2017-07-28T12:57:46Z</time>
      </trkpt>
      <trkpt lat="44.9681530" lon="6.7474040">
        <ele>2831.8</ele>
        <time>2017-07-28T12:57:48Z</time>
      </trkpt>
      <trkpt lat="44.9681810" lon="6.7474230">
        <ele>2831.4</ele>
        <time>2017-07-28T12:57:49Z</time>
      </trkpt>
      <trkpt lat="44.9682410" lon="6.7474580">
        <ele>2830.4</ele>
        <time>2017-07-28T12:57:51Z</time>
      </trkpt>
      <trkpt lat="44.9683380" lon="6.7475480">
        <ele>2829.0</ele>
        <time>2017-07-28T12:57:54Z</time>
      </trkpt>
      <trkpt lat="44.9683800" lon="6.7475830">
        <ele>2828.4</ele>
        <time>2017-07-28T12:57:55Z</time>
      </trkpt>
      <trkpt lat="44.9684240" lon="6.7476080">
        <ele>2827.8</ele>
        <time>2017-07-28T12:57:56Z</time>
      </trkpt>
      <trkpt lat="44.9684640" lon="6.7476310">
        <ele>2826.6</ele>
        <time>2017-07-28T12:57:57Z</time>
      </trkpt>
      <trkpt lat="44.9685000" lon="6.7476680">
        <ele>2826.2</ele>
        <time>2017-07-28T12:57:58Z</time>
      </trkpt>
      <trkpt lat="44.9685300" lon="6.7477140">
        <ele>2825.4</ele>
        <time>2017-07-28T12:57:59Z</time>
      </trkpt>
      <trkpt lat="44.9685870" lon="6.7477810">
        <ele>2824.2</ele>
        <time>2017-07-28T12:58:01Z</time>
      </trkpt>
      <trkpt lat="44.9686080" lon="6.7477700">
        <ele>2823.6</ele>
        <time>2017-07-28T12:58:02Z</time>
      </trkpt>
      <trkpt lat="44.9686210" lon="6.7477430">
        <ele>2822.6</ele>
        <time>2017-07-28T12:58:03Z</time>
      </trkpt>
      <trkpt lat="44.9686260" lon="6.7476460">
        <ele>2820.8</ele>
        <time>2017-07-28T12:58:05Z</time>
      </trkpt>
      <trkpt lat="44.9686190" lon="6.7475790">
        <ele>2819.6</ele>
        <time>2017-07-28T12:58:06Z</time>
      </trkpt>
      <trkpt lat="44.9686090" lon="6.7474980">
        <ele>2818.4</ele>
        <time>2017-07-28T12:58:07Z</time>
      </trkpt>
      <trkpt lat="44.9686170" lon="6.7474270">
        <ele>2817.4</ele>
        <time>2017-07-28T12:58:08Z</time>
      </trkpt>
      <trkpt lat="44.9686210" lon="6.7473560">
        <ele>2816.6</ele>
        <time>2017-07-28T12:58:09Z</time>
      </trkpt>
      <trkpt lat="44.9686170" lon="6.7472910">
        <ele>2815.4</ele>
        <time>2017-07-28T12:58:10Z</time>
      </trkpt>
      <trkpt lat="44.9685910" lon="6.7472030">
        <ele>2813.4</ele>
        <time>2017-07-28T12:58:12Z</time>
      </trkpt>
      <trkpt lat="44.9685690" lon="6.7471690">
        <ele>2811.6</ele>
        <time>2017-07-28T12:58:14Z</time>
      </trkpt>
      <trkpt lat="44.9685440" lon="6.7471200">
        <ele>2801.8</ele>
        <time>2017-07-28T12:58:31Z</time>
      </trkpt>
      <trkpt lat="44.9685330" lon="6.7470810">
        <ele>2801.4</ele>
        <time>2017-07-28T12:58:32Z</time>
      </trkpt>
      <trkpt lat="44.9685210" lon="6.7470330">
        <ele>2801.2</ele>
        <time>2017-07-28T12:58:33Z</time>
      </trkpt>
      <trkpt lat="44.9685090" lon="6.7469800">
        <ele>2800.8</ele>
        <time>2017-07-28T12:58:34Z</time>
      </trkpt>
      <trkpt lat="44.9684700" lon="6.7468620">
        <ele>2800.0</ele>
        <time>2017-07-28T12:58:36Z</time>
      </trkpt>
      <trkpt lat="44.9684450" lon="6.7468040">
        <ele>2799.8</ele>
        <time>2017-07-28T12:58:37Z</time>
      </trkpt>
      <trkpt lat="44.9684220" lon="6.7467500">
        <ele>2799.4</ele>
        <time>2017-07-28T12:58:38Z</time>
      </trkpt>
      <trkpt lat="44.9683680" lon="6.7466610">
        <ele>2798.6</ele>
        <time>2017-07-28T12:58:40Z</time>
      </trkpt>
      <trkpt lat="44.9683340" lon="6.7466220">
        <ele>2798.2</ele>
        <time>2017-07-28T12:58:41Z</time>
      </trkpt>
      <trkpt lat="44.9683050" lon="6.7465810">
        <ele>2797.8</ele>
        <time>2017-07-28T12:58:42Z</time>
      </trkpt>
      <trkpt lat="44.9682780" lon="6.7465470">
        <ele>2797.2</ele>
        <time>2017-07-28T12:58:43Z</time>
      </trkpt>
      <trkpt lat="44.9682330" lon="6.7464950">
        <ele>2795.4</ele>
        <time>2017-07-28T12:58:45Z</time>
      </trkpt>
      <trkpt lat="44.9681950" lon="6.7464560">
        <ele>2794.4</ele>
        <time>2017-07-28T12:58:47Z</time>
      </trkpt>
      <trkpt lat="44.9681450" lon="6.7464180">
        <ele>2793.0</ele>
        <time>2017-07-28T12:58:50Z</time>
      </trkpt>
      <trkpt lat="44.9681190" lon="6.7463710">
        <ele>2792.0</ele>
        <time>2017-07-28T12:58:52Z</time>
      </trkpt>
      <trkpt lat="44.9681190" lon="6.7463560">
        <ele>2791.6</ele>
        <time>2017-07-28T12:58:53Z</time>
      </trkpt>
      <trkpt lat="44.9681330" lon="6.7463260">
        <ele>2790.6</ele>
        <time>2017-07-28T12:58:55Z</time>
      </trkpt>
      <trkpt lat="44.9681520" lon="6.7463260">
        <ele>2790.2</ele>
        <time>2017-07-28T12:58:56Z</time>
      </trkpt>
      <trkpt lat="44.9682570" lon="6.7463310">
        <ele>2789.8</ele>
        <time>2017-07-28T12:58:59Z</time>
      </trkpt>
      <trkpt lat="44.9683010" lon="6.7463200">
        <ele>2789.6</ele>
        <time>2017-07-28T12:59:00Z</time>
      </trkpt>
      <trkpt lat="44.9683540" lon="6.7463100">
        <ele>2789.4</ele>
        <time>2017-07-28T12:59:01Z</time>
      </trkpt>
      <trkpt lat="44.9684110" lon="6.7463060">
        <ele>2789.2</ele>
        <time>2017-07-28T12:59:02Z</time>
      </trkpt>
      <trkpt lat="44.9685130" lon="6.7463120">
        <ele>2789.0</ele>
        <time>2017-07-28T12:59:04Z</time>
      </trkpt>
      <trkpt lat="44.9685680" lon="6.7463220">
        <ele>2788.8</ele>
        <time>2017-07-28T12:59:05Z</time>
      </trkpt>
      <trkpt lat="44.9686230" lon="6.7463190">
        <ele>2788.4</ele>
        <time>2017-07-28T12:59:06Z</time>
      </trkpt>
      <trkpt lat="44.9687060" lon="6.7463130">
        <ele>2787.8</ele>
        <time>2017-07-28T12:59:08Z</time>
      </trkpt>
      <trkpt lat="44.9687530" lon="6.7463180">
        <ele>2787.0</ele>
        <time>2017-07-28T12:59:09Z</time>
      </trkpt>
      <trkpt lat="44.9689120" lon="6.7463150">
        <ele>2785.8</ele>
        <time>2017-07-28T12:59:12Z</time>
      </trkpt>
      <trkpt lat="44.9689700" lon="6.7462950">
        <ele>2785.0</ele>
        <time>2017-07-28T12:59:13Z</time>
      </trkpt>
      <trkpt lat="44.9690900" lon="6.7462570">
        <ele>2784.2</ele>
        <time>2017-07-28T12:59:15Z</time>
      </trkpt>
      <trkpt lat="44.9691520" lon="6.7462390">
        <ele>2783.8</ele>
        <time>2017-07-28T12:59:16Z</time>
      </trkpt>
      <trkpt lat="44.9692130" lon="6.7462210">
        <ele>2783.0</ele>
        <time>2017-07-28T12:59:17Z</time>
      </trkpt>
      <trkpt lat="44.9692720" lon="6.7462130">
        <ele>2782.2</ele>
        <time>2017-07-28T12:59:18Z</time>
      </trkpt>
      <trkpt lat="44.9693250" lon="6.7462210">
        <ele>2781.4</ele>
        <time>2017-07-28T12:59:19Z</time>
      </trkpt>
      <trkpt lat="44.9694380" lon="6.7462280">
        <ele>2780.2</ele>
        <time>2017-07-28T12:59:21Z</time>
      </trkpt>
      <trkpt lat="44.9695410" lon="6.7462270">
        <ele>2779.2</ele>
        <time>2017-07-28T12:59:23Z</time>
      </trkpt>
      <trkpt lat="44.9695850" lon="6.7462420">
        <ele>2778.4</ele>
        <time>2017-07-28T12:59:24Z</time>
      </trkpt>
      <trkpt lat="44.9696220" lon="6.7462580">
        <ele>2777.8</ele>
        <time>2017-07-28T12:59:25Z</time>
      </trkpt>
      <trkpt lat="44.9696490" lon="6.7462420">
        <ele>2777.0</ele>
        <time>2017-07-28T12:59:26Z</time>
      </trkpt>
      <trkpt lat="44.9696540" lon="6.7462070">
        <ele>2776.4</ele>
        <time>2017-07-28T12:59:27Z</time>
      </trkpt>
      <trkpt lat="44.9696330" lon="6.7461520">
        <ele>2775.6</ele>
        <time>2017-07-28T12:59:28Z</time>
      </trkpt>
      <trkpt lat="44.9696010" lon="6.7460940">
        <ele>2774.6</ele>
        <time>2017-07-28T12:59:29Z</time>
      </trkpt>
      <trkpt lat="44.9695630" lon="6.7460350">
        <ele>2773.4</ele>
        <time>2017-07-28T12:59:30Z</time>
      </trkpt>
      <trkpt lat="44.9695260" lon="6.7459800">
        <ele>2772.4</ele>
        <time>2017-07-28T12:59:31Z</time>
      </trkpt>
      <trkpt lat="44.9694880" lon="6.7459390">
        <ele>2771.4</ele>
        <time>2017-07-28T12:59:32Z</time>
      </trkpt>
      <trkpt lat="44.9694530" lon="6.7459130">
        <ele>2769.4</ele>
        <time>2017-07-28T12:59:33Z</time>
      </trkpt>
      <trkpt lat="44.9694270" lon="6.7458770">
        <ele>2768.4</ele>
        <time>2017-07-28T12:59:34Z</time>
      </trkpt>
      <trkpt lat="44.9694040" lon="6.7458560">
        <ele>2767.6</ele>
        <time>2017-07-28T12:59:35Z</time>
      </trkpt>
      <trkpt lat="44.9693800" lon="6.7458320">
        <ele>2766.8</ele>
        <time>2017-07-28T12:59:36Z</time>
      </trkpt>
      <trkpt lat="44.9693230" lon="6.7457730">
        <ele>2764.8</ele>
        <time>2017-07-28T12:59:38Z</time>
      </trkpt>
      <trkpt lat="44.9692700" lon="6.7456990">
        <ele>2763.2</ele>
        <time>2017-07-28T12:59:40Z</time>
      </trkpt>
      <trkpt lat="44.9692480" lon="6.7456500">
        <ele>2762.2</ele>
        <time>2017-07-28T12:59:41Z</time>
      </trkpt>
      <trkpt lat="44.9692190" lon="6.7456030">
        <ele>2761.2</ele>
        <time>2017-07-28T12:59:42Z</time>
      </trkpt>
      <trkpt lat="44.9691760" lon="6.7455730">
        <ele>2760.2</ele>
        <time>2017-07-28T12:59:43Z</time>
      </trkpt>
      <trkpt lat="44.9691340" lon="6.7455570">
        <ele>2759.4</ele>
        <time>2017-07-28T12:59:44Z</time>
      </trkpt>
      <trkpt lat="44.9691260" lon="6.7454750">
        <ele>2757.8</ele>
        <time>2017-07-28T12:59:46Z</time>
      </trkpt>
      <trkpt lat="44.9691880" lon="6.7454360">
        <ele>2756.2</ele>
        <time>2017-07-28T12:59:48Z</time>
      </trkpt>
      <trkpt lat="44.9692220" lon="6.7454290">
        <ele>2755.4</ele>
        <time>2017-07-28T12:59:49Z</time>
      </trkpt>
      <trkpt lat="44.9692590" lon="6.7454270">
        <ele>2754.8</ele>
        <time>2017-07-28T12:59:50Z</time>
      </trkpt>
      <trkpt lat="44.9693420" lon="6.7454210">
        <ele>2753.4</ele>
        <time>2017-07-28T12:59:53Z</time>
      </trkpt>
      <trkpt lat="44.9693640" lon="6.7454220">
        <ele>2753.0</ele>
        <time>2017-07-28T12:59:54Z</time>
      </trkpt>
      <trkpt lat="44.9693910" lon="6.7454240">
        <ele>2752.4</ele>
        <time>2017-07-28T12:59:55Z</time>
      </trkpt>
      <trkpt lat="44.9694270" lon="6.7454200">
        <ele>2752.0</ele>
        <time>2017-07-28T12:59:56Z</time>
      </trkpt>
      <trkpt lat="44.9695270" lon="6.7454150">
        <ele>2751.2</ele>
        <time>2017-07-28T12:59:58Z</time>
      </trkpt>
      <trkpt lat="44.9695910" lon="6.7454140">
        <ele>2751.0</ele>
        <time>2017-07-28T12:59:59Z</time>
      </trkpt>
      <trkpt lat="44.9697990" lon="6.7453760">
        <ele>2749.6</ele>
        <time>2017-07-28T13:00:02Z</time>
      </trkpt>
      <trkpt lat="44.9699210" lon="6.7453230">
        <ele>2748.0</ele>
        <time>2017-07-28T13:00:04Z</time>
      </trkpt>
      <trkpt lat="44.9700470" lon="6.7452730">
        <ele>2746.6</ele>
        <time>2017-07-28T13:00:06Z</time>
      </trkpt>
      <trkpt lat="44.9701130" lon="6.7452360">
        <ele>2745.4</ele>
        <time>2017-07-28T13:00:07Z</time>
      </trkpt>
      <trkpt lat="44.9701790" lon="6.7451940">
        <ele>2744.2</ele>
        <time>2017-07-28T13:00:08Z</time>
      </trkpt>
      <trkpt lat="44.9703160" lon="6.7451010">
        <ele>2742.6</ele>
        <time>2017-07-28T13:00:10Z</time>
      </trkpt>
      <trkpt lat="44.9703780" lon="6.7450530">
        <ele>2741.4</ele>
        <time>2017-07-28T13:00:11Z</time>
      </trkpt>
      <trkpt lat="44.9704380" lon="6.7450050">
        <ele>2740.4</ele>
        <time>2017-07-28T13:00:12Z</time>
      </trkpt>
      <trkpt lat="44.9704930" lon="6.7449550">
        <ele>2739.4</ele>
        <time>2017-07-28T13:00:13Z</time>
      </trkpt>
      <trkpt lat="44.9705460" lon="6.7448980">
        <ele>2738.6</ele>
        <time>2017-07-28T13:00:14Z</time>
      </trkpt>
      <trkpt lat="44.9706030" lon="6.7448470">
        <ele>2737.8</ele>
        <time>2017-07-28T13:00:16Z</time>
      </trkpt>
      <trkpt lat="44.9706650" lon="6.7448000">
        <ele>2736.6</ele>
        <time>2017-07-28T13:00:17Z</time>
      </trkpt>
      <trkpt lat="44.9707250" lon="6.7447690">
        <ele>2735.6</ele>
        <time>2017-07-28T13:00:18Z</time>
      </trkpt>
      <trkpt lat="44.9707780" lon="6.7447430">
        <ele>2734.4</ele>
        <time>2017-07-28T13:00:19Z</time>
      </trkpt>
      <trkpt lat="44.9708660" lon="6.7446920">
        <ele>2732.6</ele>
        <time>2017-07-28T13:00:21Z</time>
      </trkpt>
      <trkpt lat="44.9708930" lon="6.7446710">
        <ele>2730.8</ele>
        <time>2017-07-28T13:00:22Z</time>
      </trkpt>
      <trkpt lat="44.9709150" lon="6.7446730">
        <ele>2729.6</ele>
        <time>2017-07-28T13:00:23Z</time>
      </trkpt>
      <trkpt lat="44.9709430" lon="6.7446750">
        <ele>2729.0</ele>
        <time>2017-07-28T13:00:24Z</time>
      </trkpt>
      <trkpt lat="44.9709680" lon="6.7446820">
        <ele>2728.2</ele>
        <time>2017-07-28T13:00:25Z</time>
      </trkpt>
      <trkpt lat="44.9710270" lon="6.7447170">
        <ele>2727.0</ele>
        <time>2017-07-28T13:00:27Z</time>
      </trkpt>
      <trkpt lat="44.9710490" lon="6.7447580">
        <ele>2726.6</ele>
        <time>2017-07-28T13:00:28Z</time>
      </trkpt>
      <trkpt lat="44.9710820" lon="6.7448450">
        <ele>2725.8</ele>
        <time>2017-07-28T13:00:30Z</time>
      </trkpt>
      <trkpt lat="44.9710950" lon="6.7448370">
        <ele>2724.4</ele>
        <time>2017-07-28T13:00:32Z</time>
      </trkpt>
      <trkpt lat="44.9710980" lon="6.7447680">
        <ele>2723.2</ele>
        <time>2017-07-28T13:00:34Z</time>
      </trkpt>
      <trkpt lat="44.9710890" lon="6.7446610">
        <ele>2722.0</ele>
        <time>2017-07-28T13:00:36Z</time>
      </trkpt>
      <trkpt lat="44.9710840" lon="6.7445300">
        <ele>2720.4</ele>
        <time>2017-07-28T13:00:38Z</time>
      </trkpt>
      <trkpt lat="44.9710840" lon="6.7443720">
        <ele>2719.0</ele>
        <time>2017-07-28T13:00:40Z</time>
      </trkpt>
      <trkpt lat="44.9710820" lon="6.7442990">
        <ele>2718.4</ele>
        <time>2017-07-28T13:00:41Z</time>
      </trkpt>
      <trkpt lat="44.9710680" lon="6.7442380">
        <ele>2717.8</ele>
        <time>2017-07-28T13:00:42Z</time>
      </trkpt>
      <trkpt lat="44.9710530" lon="6.7441310">
        <ele>2716.6</ele>
        <time>2017-07-28T13:00:44Z</time>
      </trkpt>
      <trkpt lat="44.9710720" lon="6.7440890">
        <ele>2716.2</ele>
        <time>2017-07-28T13:00:45Z</time>
      </trkpt>
      <trkpt lat="44.9711010" lon="6.7440690">
        <ele>2715.0</ele>
        <time>2017-07-28T13:00:46Z</time>
      </trkpt>
      <trkpt lat="44.9711340" lon="6.7440810">
        <ele>2714.6</ele>
        <time>2017-07-28T13:00:47Z</time>
      </trkpt>
      <trkpt lat="44.9712150" lon="6.7442110">
        <ele>2713.4</ele>
        <time>2017-07-28T13:00:50Z</time>
      </trkpt>
      <trkpt lat="44.9712610" lon="6.7443000">
        <ele>2712.4</ele>
        <time>2017-07-28T13:00:52Z</time>
      </trkpt>
      <trkpt lat="44.9712970" lon="6.7443810">
        <ele>2711.6</ele>
        <time>2017-07-28T13:00:54Z</time>
      </trkpt>
      <trkpt lat="44.9713140" lon="6.7444240">
        <ele>2711.0</ele>
        <time>2017-07-28T13:00:55Z</time>
      </trkpt>
      <trkpt lat="44.9713260" lon="6.7445150">
        <ele>2710.0</ele>
        <time>2017-07-28T13:00:57Z</time>
      </trkpt>
      <trkpt lat="44.9713510" lon="6.7446060">
        <ele>2708.8</ele>
        <time>2017-07-28T13:00:59Z</time>
      </trkpt>
      <trkpt lat="44.9713710" lon="6.7446170">
        <ele>2708.4</ele>
        <time>2017-07-28T13:01:00Z</time>
      </trkpt>
      <trkpt lat="44.9713990" lon="6.7446050">
        <ele>2707.4</ele>
        <time>2017-07-28T13:01:02Z</time>
      </trkpt>
      <trkpt lat="44.9714020" lon="6.7445790">
        <ele>2705.0</ele>
        <time>2017-07-28T13:01:06Z</time>
      </trkpt>
      <trkpt lat="44.9714030" lon="6.7445540">
        <ele>2704.4</ele>
        <time>2017-07-28T13:01:07Z</time>
      </trkpt>
      <trkpt lat="44.9714070" lon="6.7444840">
        <ele>2703.6</ele>
        <time>2017-07-28T13:01:09Z</time>
      </trkpt>
      <trkpt lat="44.9714120" lon="6.7444400">
        <ele>2702.2</ele>
        <time>2017-07-28T13:01:10Z</time>
      </trkpt>
      <trkpt lat="44.9714210" lon="6.7443950">
        <ele>2701.6</ele>
        <time>2017-07-28T13:01:11Z</time>
      </trkpt>
      <trkpt lat="44.9714280" lon="6.7443490">
        <ele>2701.0</ele>
        <time>2017-07-28T13:01:12Z</time>
      </trkpt>
      <trkpt lat="44.9714430" lon="6.7442600">
        <ele>2699.8</ele>
        <time>2017-07-28T13:01:14Z</time>
      </trkpt>
      <trkpt lat="44.9714550" lon="6.7441910">
        <ele>2698.8</ele>
        <time>2017-07-28T13:01:16Z</time>
      </trkpt>
      <trkpt lat="44.9714480" lon="6.7441340">
        <ele>2692.6</ele>
        <time>2017-07-28T13:01:30Z</time>
      </trkpt>
      <trkpt lat="44.9714570" lon="6.7439960">
        <ele>2691.6</ele>
        <time>2017-07-28T13:01:33Z</time>
      </trkpt>
      <trkpt lat="44.9714960" lon="6.7438670">
        <ele>2690.2</ele>
        <time>2017-07-28T13:01:35Z</time>
      </trkpt>
      <trkpt lat="44.9715150" lon="6.7437800">
        <ele>2689.6</ele>
        <time>2017-07-28T13:01:36Z</time>
      </trkpt>
      <trkpt lat="44.9715170" lon="6.7436890">
        <ele>2689.0</ele>
        <time>2017-07-28T13:01:37Z</time>
      </trkpt>
      <trkpt lat="44.9715190" lon="6.7436050">
        <ele>2688.6</ele>
        <time>2017-07-28T13:01:38Z</time>
      </trkpt>
      <trkpt lat="44.9715230" lon="6.7435280">
        <ele>2687.8</ele>
        <time>2017-07-28T13:01:39Z</time>
      </trkpt>
      <trkpt lat="44.9715310" lon="6.7434120">
        <ele>2686.4</ele>
        <time>2017-07-28T13:01:41Z</time>
      </trkpt>
      <trkpt lat="44.9715300" lon="6.7433620">
        <ele>2685.8</ele>
        <time>2017-07-28T13:01:43Z</time>
      </trkpt>
      <trkpt lat="44.9715200" lon="6.7433170">
        <ele>2679.8</ele>
        <time>2017-07-28T13:01:56Z</time>
      </trkpt>
      <trkpt lat="44.9715150" lon="6.7432640">
        <ele>2679.4</ele>
        <time>2017-07-28T13:01:57Z</time>
      </trkpt>
      <trkpt lat="44.9715130" lon="6.7432070">
        <ele>2678.4</ele>
        <time>2017-07-28T13:01:58Z</time>
      </trkpt>
      <trkpt lat="44.9715620" lon="6.7431050">
        <ele>2677.2</ele>
        <time>2017-07-28T13:02:01Z</time>
      </trkpt>
      <trkpt lat="44.9716440" lon="6.7431970">
        <ele>2677.0</ele>
        <time>2017-07-28T13:02:04Z</time>
      </trkpt>
      <trkpt lat="44.9716780" lon="6.7432520">
        <ele>2676.8</ele>
        <time>2017-07-28T13:02:05Z</time>
      </trkpt>
      <trkpt lat="44.9717190" lon="6.7433000">
        <ele>2676.6</ele>
        <time>2017-07-28T13:02:06Z</time>
      </trkpt>
      <trkpt lat="44.9717640" lon="6.7434100">
        <ele>2676.2</ele>
        <time>2017-07-28T13:02:08Z</time>
      </trkpt>
      <trkpt lat="44.9717910" lon="6.7434160">
        <ele>2676.0</ele>
        <time>2017-07-28T13:02:09Z</time>
      </trkpt>
      <trkpt lat="44.9718180" lon="6.7433800">
        <ele>2675.8</ele>
        <time>2017-07-28T13:02:10Z</time>
      </trkpt>
      <trkpt lat="44.9718460" lon="6.7432390">
        <ele>2674.6</ele>
        <time>2017-07-28T13:02:12Z</time>
      </trkpt>
      <trkpt lat="44.9718570" lon="6.7431530">
        <ele>2674.2</ele>
        <time>2017-07-28T13:02:13Z</time>
      </trkpt>
      <trkpt lat="44.9718650" lon="6.7429970">
        <ele>2673.2</ele>
        <time>2017-07-28T13:02:15Z</time>
      </trkpt>
      <trkpt lat="44.9719180" lon="6.7429390">
        <ele>2671.8</ele>
        <time>2017-07-28T13:02:17Z</time>
      </trkpt>
      <trkpt lat="44.9719700" lon="6.7430130">
        <ele>2670.8</ele>
        <time>2017-07-28T13:02:19Z</time>
      </trkpt>
      <trkpt lat="44.9719770" lon="6.7431480">
        <ele>2670.0</ele>
        <time>2017-07-28T13:02:21Z</time>
      </trkpt>
      <trkpt lat="44.9719850" lon="6.7432050">
        <ele>2669.0</ele>
        <time>2017-07-28T13:02:22Z</time>
      </trkpt>
      <trkpt lat="44.9720350" lon="6.7431760">
        <ele>2667.8</ele>
        <time>2017-07-28T13:02:24Z</time>
      </trkpt>
      <trkpt lat="44.9720840" lon="6.7430680">
        <ele>2666.0</ele>
        <time>2017-07-28T13:02:26Z</time>
      </trkpt>
      <trkpt lat="44.9721220" lon="6.7430000">
        <ele>2665.2</ele>
        <time>2017-07-28T13:02:27Z</time>
      </trkpt>
      <trkpt lat="44.9721600" lon="6.7429180">
        <ele>2664.2</ele>
        <time>2017-07-28T13:02:28Z</time>
      </trkpt>
      <trkpt lat="44.9722250" lon="6.7427760">
        <ele>2662.6</ele>
        <time>2017-07-28T13:02:30Z</time>
      </trkpt>
      <trkpt lat="44.9722690" lon="6.7427570">
        <ele>2661.8</ele>
        <time>2017-07-28T13:02:31Z</time>
      </trkpt>
      <trkpt lat="44.9723120" lon="6.7427710">
        <ele>2661.0</ele>
        <time>2017-07-28T13:02:32Z</time>
      </trkpt>
      <trkpt lat="44.9723990" lon="6.7427750">
        <ele>2659.8</ele>
        <time>2017-07-28T13:02:34Z</time>
      </trkpt>
      <trkpt lat="44.9724670" lon="6.7427240">
        <ele>2658.4</ele>
        <time>2017-07-28T13:02:36Z</time>
      </trkpt>
      <trkpt lat="44.9724750" lon="6.7426780">
        <ele>2657.6</ele>
        <time>2017-07-28T13:02:37Z</time>
      </trkpt>
      <trkpt lat="44.9724830" lon="6.7426330">
        <ele>2656.8</ele>
        <time>2017-07-28T13:02:38Z</time>
      </trkpt>
      <trkpt lat="44.9724830" lon="6.7425310">
        <ele>2655.0</ele>
        <time>2017-07-28T13:02:40Z</time>
      </trkpt>
      <trkpt lat="44.9724950" lon="6.7425000">
        <ele>2654.4</ele>
        <time>2017-07-28T13:02:41Z</time>
      </trkpt>
      <trkpt lat="44.9725160" lon="6.7424810">
        <ele>2653.6</ele>
        <time>2017-07-28T13:02:42Z</time>
      </trkpt>
      <trkpt lat="44.9725630" lon="6.7424500">
        <ele>2652.4</ele>
        <time>2017-07-28T13:02:44Z</time>
      </trkpt>
      <trkpt lat="44.9726190" lon="6.7423800">
        <ele>2650.4</ele>
        <time>2017-07-28T13:02:46Z</time>
      </trkpt>
      <trkpt lat="44.9726550" lon="6.7423430">
        <ele>2649.8</ele>
        <time>2017-07-28T13:02:47Z</time>
      </trkpt>
      <trkpt lat="44.9727040" lon="6.7423060">
        <ele>2649.2</ele>
        <time>2017-07-28T13:02:48Z</time>
      </trkpt>
      <trkpt lat="44.9727640" lon="6.7422630">
        <ele>2648.4</ele>
        <time>2017-07-28T13:02:49Z</time>
      </trkpt>
      <trkpt lat="44.9728180" lon="6.7422070">
        <ele>2647.6</ele>
        <time>2017-07-28T13:02:50Z</time>
      </trkpt>
      <trkpt lat="44.9729340" lon="6.7421040">
        <ele>2645.8</ele>
        <time>2017-07-28T13:02:52Z</time>
      </trkpt>
      <trkpt lat="44.9729920" lon="6.7420520">
        <ele>2645.0</ele>
        <time>2017-07-28T13:02:53Z</time>
      </trkpt>
      <trkpt lat="44.9730450" lon="6.7419990">
        <ele>2644.0</ele>
        <time>2017-07-28T13:02:54Z</time>
      </trkpt>
      <trkpt lat="44.9731200" lon="6.7419240">
        <ele>2642.4</ele>
        <time>2017-07-28T13:02:56Z</time>
      </trkpt>
      <trkpt lat="44.9731360" lon="6.7418920">
        <ele>2641.4</ele>
        <time>2017-07-28T13:02:57Z</time>
      </trkpt>
      <trkpt lat="44.9731280" lon="6.7418740">
        <ele>2640.8</ele>
        <time>2017-07-28T13:02:58Z</time>
      </trkpt>
      <trkpt lat="44.9731060" lon="6.7418290">
        <ele>2639.4</ele>
        <time>2017-07-28T13:03:00Z</time>
      </trkpt>
      <trkpt lat="44.9731070" lon="6.7417900">
        <ele>2638.8</ele>
        <time>2017-07-28T13:03:01Z</time>
      </trkpt>
      <trkpt lat="44.9730940" lon="6.7417460">
        <ele>2638.0</ele>
        <time>2017-07-28T13:03:02Z</time>
      </trkpt>
      <trkpt lat="44.9730870" lon="6.7417080">
        <ele>2637.4</ele>
        <time>2017-07-28T13:03:03Z</time>
      </trkpt>
      <trkpt lat="44.9730640" lon="6.7416860">
        <ele>2636.8</ele>
        <time>2017-07-28T13:03:04Z</time>
      </trkpt>
      <trkpt lat="44.9730120" lon="6.7416780">
        <ele>2635.4</ele>
        <time>2017-07-28T13:03:06Z</time>
      </trkpt>
      <trkpt lat="44.9729630" lon="6.7416570">
        <ele>2633.8</ele>
        <time>2017-07-28T13:03:08Z</time>
      </trkpt>
      <trkpt lat="44.9729090" lon="6.7416720">
        <ele>2631.6</ele>
        <time>2017-07-28T13:03:10Z</time>
      </trkpt>
      <trkpt lat="44.9728250" lon="6.7416980">
        <ele>2630.0</ele>
        <time>2017-07-28T13:03:12Z</time>
      </trkpt>
      <trkpt lat="44.9727920" lon="6.7416820">
        <ele>2629.4</ele>
        <time>2017-07-28T13:03:13Z</time>
      </trkpt>
      <trkpt lat="44.9727690" lon="6.7416530">
        <ele>2628.8</ele>
        <time>2017-07-28T13:03:14Z</time>
      </trkpt>
      <trkpt lat="44.9727810" lon="6.7415870">
        <ele>2627.4</ele>
        <time>2017-07-28T13:03:16Z</time>
      </trkpt>
      <trkpt lat="44.9727860" lon="6.7415500">
        <ele>2626.8</ele>
        <time>2017-07-28T13:03:17Z</time>
      </trkpt>
      <trkpt lat="44.9727980" lon="6.7415200">
        <ele>2625.8</ele>
        <time>2017-07-28T13:03:18Z</time>
      </trkpt>
      <trkpt lat="44.9728310" lon="6.7414630">
        <ele>2624.4</ele>
        <time>2017-07-28T13:03:20Z</time>
      </trkpt>
      <trkpt lat="44.9728350" lon="6.7414310">
        <ele>2623.4</ele>
        <time>2017-07-28T13:03:21Z</time>
      </trkpt>
      <trkpt lat="44.9728530" lon="6.7413940">
        <ele>2622.8</ele>
        <time>2017-07-28T13:03:22Z</time>
      </trkpt>
      <trkpt lat="44.9728890" lon="6.7413110">
        <ele>2621.4</ele>
        <time>2017-07-28T13:03:24Z</time>
      </trkpt>
      <trkpt lat="44.9729050" lon="6.7412720">
        <ele>2620.6</ele>
        <time>2017-07-28T13:03:25Z</time>
      </trkpt>
      <trkpt lat="44.9729220" lon="6.7412310">
        <ele>2620.0</ele>
        <time>2017-07-28T13:03:26Z</time>
      </trkpt>
      <trkpt lat="44.9729490" lon="6.7411640">
        <ele>2618.4</ele>
        <time>2017-07-28T13:03:28Z</time>
      </trkpt>
      <trkpt lat="44.9729670" lon="6.7410980">
        <ele>2616.6</ele>
        <time>2017-07-28T13:03:30Z</time>
      </trkpt>
      <trkpt lat="44.9729890" lon="6.7410260">
        <ele>2615.0</ele>
        <time>2017-07-28T13:03:32Z</time>
      </trkpt>
      <trkpt lat="44.9730160" lon="6.7409590">
        <ele>2612.2</ele>
        <time>2017-07-28T13:03:34Z</time>
      </trkpt>
      <trkpt lat="44.9730310" lon="6.7409210">
        <ele>2611.2</ele>
        <time>2017-07-28T13:03:35Z</time>
      </trkpt>
      <trkpt lat="44.9730590" lon="6.7408370">
        <ele>2609.4</ele>
        <time>2017-07-28T13:03:37Z</time>
      </trkpt>
      <trkpt lat="44.9730900" lon="6.7407540">
        <ele>2607.8</ele>
        <time>2017-07-28T13:03:39Z</time>
      </trkpt>
      <trkpt lat="44.9731030" lon="6.7407180">
        <ele>2607.0</ele>
        <time>2017-07-28T13:03:40Z</time>
      </trkpt>
      <trkpt lat="44.9731180" lon="6.7406860">
        <ele>2606.0</ele>
        <time>2017-07-28T13:03:41Z</time>
      </trkpt>
      <trkpt lat="44.9731360" lon="6.7406330">
        <ele>2604.0</ele>
        <time>2017-07-28T13:03:43Z</time>
      </trkpt>
      <trkpt lat="44.9731640" lon="6.7405790">
        <ele>2602.2</ele>
        <time>2017-07-28T13:03:45Z</time>
      </trkpt>
      <trkpt lat="44.9732010" lon="6.7405160">
        <ele>2600.6</ele>
        <time>2017-07-28T13:03:47Z</time>
      </trkpt>
      <trkpt lat="44.9732520" lon="6.7404540">
        <ele>2599.0</ele>
        <time>2017-07-28T13:03:49Z</time>
      </trkpt>
      <trkpt lat="44.9732840" lon="6.7404270">
        <ele>2598.2</ele>
        <time>2017-07-28T13:03:50Z</time>
      </trkpt>
      <trkpt lat="44.9733070" lon="6.7404050">
        <ele>2597.4</ele>
        <time>2017-07-28T13:03:51Z</time>
      </trkpt>
      <trkpt lat="44.9733380" lon="6.7403730">
        <ele>2595.8</ele>
        <time>2017-07-28T13:03:53Z</time>
      </trkpt>
      <trkpt lat="44.9733440" lon="6.7403630">
        <ele>2595.4</ele>
        <time>2017-07-28T13:03:54Z</time>
      </trkpt>
      <trkpt lat="44.9733660" lon="6.7402790">
        <ele>2589.6</ele>
        <time>2017-07-28T13:04:22Z</time>
      </trkpt>
      <trkpt lat="44.9733670" lon="6.7402510">
        <ele>2589.2</ele>
        <time>2017-07-28T13:04:24Z</time>
      </trkpt>
      <trkpt lat="44.9733790" lon="6.7401710">
        <ele>2588.8</ele>
        <time>2017-07-28T13:04:30Z</time>
      </trkpt>
      <trkpt lat="44.9733910" lon="6.7401180">
        <ele>2589.0</ele>
        <time>2017-07-28T13:04:34Z</time>
      </trkpt>
      <trkpt lat="44.9733940" lon="6.7400810">
        <ele>2588.8</ele>
        <time>2017-07-28T13:04:37Z</time>
      </trkpt>
      <trkpt lat="44.9733830" lon="6.7400510">
        <ele>2588.6</ele>
        <time>2017-07-28T13:04:39Z</time>
      </trkpt>
      <trkpt lat="44.9733580" lon="6.7400380">
        <ele>2588.4</ele>
        <time>2017-07-28T13:04:42Z</time>
      </trkpt>
      <trkpt lat="44.9733300" lon="6.7400600">
        <ele>2587.6</ele>
        <time>2017-07-28T13:04:46Z</time>
      </trkpt>
      <trkpt lat="44.9733220" lon="6.7400540">
        <ele>2587.0</ele>
        <time>2017-07-28T13:04:48Z</time>
      </trkpt>
      <trkpt lat="44.9733120" lon="6.7400000">
        <ele>2585.4</ele>
        <time>2017-07-28T13:04:58Z</time>
      </trkpt>
      <trkpt lat="44.9733160" lon="6.7399640">
        <ele>2585.0</ele>
        <time>2017-07-28T13:04:59Z</time>
      </trkpt>
      <trkpt lat="44.9733060" lon="6.7399320">
        <ele>2584.4</ele>
        <time>2017-07-28T13:05:01Z</time>
      </trkpt>
      <trkpt lat="44.9732880" lon="6.7399110">
        <ele>2583.6</ele>
        <time>2017-07-28T13:05:03Z</time>
      </trkpt>
      <trkpt lat="44.9732840" lon="6.7399260">
        <ele>2583.4</ele>
        <time>2017-07-28T13:05:04Z</time>
      </trkpt>
      <trkpt lat="44.9732770" lon="6.7399530">
        <ele>2582.6</ele>
        <time>2017-07-28T13:05:07Z</time>
      </trkpt>
      <trkpt lat="44.9732480" lon="6.7399820">
        <ele>2582.2</ele>
        <time>2017-07-28T13:05:09Z</time>
      </trkpt>
      <trkpt lat="44.9732210" lon="6.7400220">
        <ele>2581.4</ele>
        <time>2017-07-28T13:05:11Z</time>
      </trkpt>
      <trkpt lat="44.9731950" lon="6.7400300">
        <ele>2581.0</ele>
        <time>2017-07-28T13:05:12Z</time>
      </trkpt>
      <trkpt lat="44.9731470" lon="6.7400690">
        <ele>2579.8</ele>
        <time>2017-07-28T13:05:15Z</time>
      </trkpt>
      <trkpt lat="44.9727840" lon="6.7399890">
        <ele>2554.6</ele>
        <time>2017-07-28T13:06:40Z</time>
      </trkpt>
      <trkpt lat="44.9727720" lon="6.7399970">
        <ele>2554.4</ele>
        <time>2017-07-28T13:06:41Z</time>
      </trkpt>
      <trkpt lat="44.9724470" lon="6.7399100">
        <ele>2548.6</ele>
        <time>2017-07-28T13:08:03Z</time>
      </trkpt>
      <trkpt lat="44.9719170" lon="6.7391980">
        <ele>2505.8</ele>
        <time>2017-07-28T13:11:10Z</time>
      </trkpt>
      <trkpt lat="44.9719130" lon="6.7391850">
        <ele>2505.4</ele>
        <time>2017-07-28T13:11:11Z</time>
      </trkpt>
      <trkpt lat="44.9719000" lon="6.7391600">
        <ele>2505.0</ele>
        <time>2017-07-28T13:11:13Z</time>
      </trkpt>
      <trkpt lat="44.9718840" lon="6.7391550">
        <ele>2504.6</ele>
        <time>2017-07-28T13:11:15Z</time>
      </trkpt>
      <trkpt lat="44.9718790" lon="6.7391570">
        <ele>2504.4</ele>
        <time>2017-07-28T13:11:16Z</time>
      </trkpt>
      <trkpt lat="44.9718450" lon="6.7391410">
        <ele>2503.8</ele>
        <time>2017-07-28T13:11:21Z</time>
      </trkpt>
      <trkpt lat="44.9718260" lon="6.7391500">
        <ele>2503.6</ele>
        <time>2017-07-28T13:11:25Z</time>
      </trkpt>
      <trkpt lat="44.9718210" lon="6.7391430">
        <ele>2503.4</ele>
        <time>2017-07-28T13:11:26Z</time>
      </trkpt>
      <trkpt lat="44.9718230" lon="6.7390970">
        <ele>2502.8</ele>
        <time>2017-07-28T13:11:31Z</time>
      </trkpt>
      <trkpt lat="44.9718180" lon="6.7390890">
        <ele>2502.8</ele>
        <time>2017-07-28T13:11:32Z</time>
      </trkpt>
      <trkpt lat="44.9718140" lon="6.7390850">
        <ele>2502.4</ele>
        <time>2017-07-28T13:11:33Z</time>
      </trkpt>
      <trkpt lat="44.9717980" lon="6.7390570">
        <ele>2501.2</ele>
        <time>2017-07-28T13:11:37Z</time>
      </trkpt>
      <trkpt lat="44.9717810" lon="6.7390670">
        <ele>2500.4</ele>
        <time>2017-07-28T13:11:41Z</time>
      </trkpt>
      <trkpt lat="44.9717770" lon="6.7390680">
        <ele>2500.0</ele>
        <time>2017-07-28T13:11:42Z</time>
      </trkpt>
      <trkpt lat="44.9717680" lon="6.7390650">
        <ele>2499.8</ele>
        <time>2017-07-28T13:11:43Z</time>
      </trkpt>
      <trkpt lat="44.9715770" lon="6.7389710">
        <ele>2491.4</ele>
        <time>2017-07-28T13:12:21Z</time>
      </trkpt>
      <trkpt lat="44.9715580" lon="6.7389600">
        <ele>2490.2</ele>
        <time>2017-07-28T13:12:24Z</time>
      </trkpt>
      <trkpt lat="44.9715360" lon="6.7389430">
        <ele>2489.4</ele>
        <time>2017-07-28T13:12:27Z</time>
      </trkpt>
      <trkpt lat="44.9715130" lon="6.7389340">
        <ele>2488.0</ele>
        <time>2017-07-28T13:12:34Z</time>
      </trkpt>
      <trkpt lat="44.9714850" lon="6.7389280">
        <ele>2487.8</ele>
        <time>2017-07-28T13:12:35Z</time>
      </trkpt>
      <trkpt lat="44.9713070" lon="6.7389170">
        <ele>2486.8</ele>
        <time>2017-07-28T13:12:39Z</time>
      </trkpt>
      <trkpt lat="44.9712650" lon="6.7389040">
        <ele>2486.6</ele>
        <time>2017-07-28T13:12:40Z</time>
      </trkpt>
      <trkpt lat="44.9711560" lon="6.7388840">
        <ele>2485.8</ele>
        <time>2017-07-28T13:12:43Z</time>
      </trkpt>
      <trkpt lat="44.9710920" lon="6.7388820">
        <ele>2484.8</ele>
        <time>2017-07-28T13:12:45Z</time>
      </trkpt>
      <trkpt lat="44.9710600" lon="6.7388800">
        <ele>2484.4</ele>
        <time>2017-07-28T13:12:46Z</time>
      </trkpt>
      <trkpt lat="44.9710300" lon="6.7388560">
        <ele>2483.2</ele>
        <time>2017-07-28T13:12:47Z</time>
      </trkpt>
      <trkpt lat="44.9710050" lon="6.7388310">
        <ele>2482.6</ele>
        <time>2017-07-28T13:12:48Z</time>
      </trkpt>
      <trkpt lat="44.9709890" lon="6.7388060">
        <ele>2481.8</ele>
        <time>2017-07-28T13:12:49Z</time>
      </trkpt>
      <trkpt lat="44.9709650" lon="6.7387290">
        <ele>2480.6</ele>
        <time>2017-07-28T13:12:51Z</time>
      </trkpt>
      <trkpt lat="44.9709600" lon="6.7386860">
        <ele>2480.0</ele>
        <time>2017-07-28T13:12:52Z</time>
      </trkpt>
      <trkpt lat="44.9709600" lon="6.7386430">
        <ele>2479.4</ele>
        <time>2017-07-28T13:12:53Z</time>
      </trkpt>
      <trkpt lat="44.9709610" lon="6.7385370">
        <ele>2478.2</ele>
        <time>2017-07-28T13:12:55Z</time>
      </trkpt>
      <trkpt lat="44.9709270" lon="6.7385170">
        <ele>2477.4</ele>
        <time>2017-07-28T13:12:56Z</time>
      </trkpt>
      <trkpt lat="44.9709100" lon="6.7385090">
        <ele>2477.0</ele>
        <time>2017-07-28T13:12:57Z</time>
      </trkpt>
      <trkpt lat="44.9708660" lon="6.7384880">
        <ele>2476.0</ele>
        <time>2017-07-28T13:12:59Z</time>
      </trkpt>
      <trkpt lat="44.9708460" lon="6.7384690">
        <ele>2475.2</ele>
        <time>2017-07-28T13:13:00Z</time>
      </trkpt>
      <trkpt lat="44.9708200" lon="6.7384330">
        <ele>2474.8</ele>
        <time>2017-07-28T13:13:01Z</time>
      </trkpt>
      <trkpt lat="44.9707960" lon="6.7384010">
        <ele>2474.2</ele>
        <time>2017-07-28T13:13:02Z</time>
      </trkpt>
      <trkpt lat="44.9707780" lon="6.7383660">
        <ele>2473.6</ele>
        <time>2017-07-28T13:13:03Z</time>
      </trkpt>
      <trkpt lat="44.9707580" lon="6.7383240">
        <ele>2472.8</ele>
        <time>2017-07-28T13:13:04Z</time>
      </trkpt>
      <trkpt lat="44.9707300" lon="6.7382770">
        <ele>2472.2</ele>
        <time>2017-07-28T13:13:05Z</time>
      </trkpt>
      <trkpt lat="44.9706710" lon="6.7382240">
        <ele>2470.8</ele>
        <time>2017-07-28T13:13:07Z</time>
      </trkpt>
      <trkpt lat="44.9706630" lon="6.7381830">
        <ele>2470.0</ele>
        <time>2017-07-28T13:13:08Z</time>
      </trkpt>
      <trkpt lat="44.9706410" lon="6.7381460">
        <ele>2469.0</ele>
        <time>2017-07-28T13:13:09Z</time>
      </trkpt>
      <trkpt lat="44.9705830" lon="6.7380830">
        <ele>2466.6</ele>
        <time>2017-07-28T13:13:11Z</time>
      </trkpt>
      <trkpt lat="44.9705540" lon="6.7380390">
        <ele>2465.8</ele>
        <time>2017-07-28T13:13:12Z</time>
      </trkpt>
      <trkpt lat="44.9705230" lon="6.7380050">
        <ele>2465.0</ele>
        <time>2017-07-28T13:13:13Z</time>
      </trkpt>
      <trkpt lat="44.9704670" lon="6.7379860">
        <ele>2463.4</ele>
        <time>2017-07-28T13:13:15Z</time>
      </trkpt>
      <trkpt lat="44.9704440" lon="6.7379610">
        <ele>2462.6</ele>
        <time>2017-07-28T13:13:16Z</time>
      </trkpt>
      <trkpt lat="44.9704250" lon="6.7379300">
        <ele>2461.8</ele>
        <time>2017-07-28T13:13:17Z</time>
      </trkpt>
      <trkpt lat="44.9703800" lon="6.7378650">
        <ele>2460.4</ele>
        <time>2017-07-28T13:13:19Z</time>
      </trkpt>
      <trkpt lat="44.9703420" lon="6.7378300">
        <ele>2459.4</ele>
        <time>2017-07-28T13:13:20Z</time>
      </trkpt>
      <trkpt lat="44.9703060" lon="6.7378080">
        <ele>2458.4</ele>
        <time>2017-07-28T13:13:21Z</time>
      </trkpt>
      <trkpt lat="44.9702460" lon="6.7377680">
        <ele>2456.6</ele>
        <time>2017-07-28T13:13:23Z</time>
      </trkpt>
      <trkpt lat="44.9702150" lon="6.7377230">
        <ele>2455.8</ele>
        <time>2017-07-28T13:13:24Z</time>
      </trkpt>
      <trkpt lat="44.9701780" lon="6.7377010">
        <ele>2454.8</ele>
        <time>2017-07-28T13:13:25Z</time>
      </trkpt>
      <trkpt lat="44.9701160" lon="6.7376630">
        <ele>2453.2</ele>
        <time>2017-07-28T13:13:27Z</time>
      </trkpt>
      <trkpt lat="44.9700890" lon="6.7376350">
        <ele>2452.0</ele>
        <time>2017-07-28T13:13:28Z</time>
      </trkpt>
      <trkpt lat="44.9700580" lon="6.7376260">
        <ele>2451.0</ele>
        <time>2017-07-28T13:13:29Z</time>
      </trkpt>
      <trkpt lat="44.9700080" lon="6.7375980">
        <ele>2449.2</ele>
        <time>2017-07-28T13:13:31Z</time>
      </trkpt>
      <trkpt lat="44.9699850" lon="6.7375820">
        <ele>2448.6</ele>
        <time>2017-07-28T13:13:32Z</time>
      </trkpt>
      <trkpt lat="44.9699580" lon="6.7375600">
        <ele>2447.6</ele>
        <time>2017-07-28T13:13:33Z</time>
      </trkpt>
      <trkpt lat="44.9699130" lon="6.7375160">
        <ele>2444.6</ele>
        <time>2017-07-28T13:13:35Z</time>
      </trkpt>
      <trkpt lat="44.9698650" lon="6.7374580">
        <ele>2443.0</ele>
        <time>2017-07-28T13:13:37Z</time>
      </trkpt>
      <trkpt lat="44.9698040" lon="6.7374040">
        <ele>2441.2</ele>
        <time>2017-07-28T13:13:39Z</time>
      </trkpt>
      <trkpt lat="44.9697330" lon="6.7373350">
        <ele>2439.4</ele>
        <time>2017-07-28T13:13:41Z</time>
      </trkpt>
      <trkpt lat="44.9696960" lon="6.7372950">
        <ele>2438.2</ele>
        <time>2017-07-28T13:13:42Z</time>
      </trkpt>
      <trkpt lat="44.9696260" lon="6.7372410">
        <ele>2436.4</ele>
        <time>2017-07-28T13:13:44Z</time>
      </trkpt>
      <trkpt lat="44.9695670" lon="6.7371930">
        <ele>2434.8</ele>
        <time>2017-07-28T13:13:46Z</time>
      </trkpt>
      <trkpt lat="44.9695400" lon="6.7371820">
        <ele>2434.2</ele>
        <time>2017-07-28T13:13:47Z</time>
      </trkpt>
      <trkpt lat="44.9695160" lon="6.7371670">
        <ele>2433.4</ele>
        <time>2017-07-28T13:13:48Z</time>
      </trkpt>
      <trkpt lat="44.9694700" lon="6.7371300">
        <ele>2431.6</ele>
        <time>2017-07-28T13:13:50Z</time>
      </trkpt>
      <trkpt lat="44.9694270" lon="6.7370960">
        <ele>2430.2</ele>
        <time>2017-07-28T13:13:52Z</time>
      </trkpt>
      <trkpt lat="44.9694080" lon="6.7370990">
        <ele>2429.4</ele>
        <time>2017-07-28T13:13:53Z</time>
      </trkpt>
      <trkpt lat="44.9693890" lon="6.7370960">
        <ele>2428.2</ele>
        <time>2017-07-28T13:13:54Z</time>
      </trkpt>
      <trkpt lat="44.9693410" lon="6.7370860">
        <ele>2426.6</ele>
        <time>2017-07-28T13:13:56Z</time>
      </trkpt>
      <trkpt lat="44.9692720" lon="6.7370950">
        <ele>2424.8</ele>
        <time>2017-07-28T13:13:58Z</time>
      </trkpt>
      <trkpt lat="44.9692410" lon="6.7370880">
        <ele>2423.2</ele>
        <time>2017-07-28T13:13:59Z</time>
      </trkpt>
      <trkpt lat="44.9691760" lon="6.7370580">
        <ele>2421.4</ele>
        <time>2017-07-28T13:14:01Z</time>
      </trkpt>
      <trkpt lat="44.9691400" lon="6.7370460">
        <ele>2420.4</ele>
        <time>2017-07-28T13:14:02Z</time>
      </trkpt>
      <trkpt lat="44.9691080" lon="6.7370360">
        <ele>2419.4</ele>
        <time>2017-07-28T13:14:03Z</time>
      </trkpt>
      <trkpt lat="44.9690830" lon="6.7370210">
        <ele>2418.2</ele>
        <time>2017-07-28T13:14:04Z</time>
      </trkpt>
      <trkpt lat="44.9690650" lon="6.7370360">
        <ele>2417.4</ele>
        <time>2017-07-28T13:14:05Z</time>
      </trkpt>
      <trkpt lat="44.9690480" lon="6.7370530">
        <ele>2416.6</ele>
        <time>2017-07-28T13:14:06Z</time>
      </trkpt>
      <trkpt lat="44.9689950" lon="6.7370290">
        <ele>2414.8</ele>
        <time>2017-07-28T13:14:08Z</time>
      </trkpt>
      <trkpt lat="44.9689670" lon="6.7370180">
        <ele>2413.8</ele>
        <time>2017-07-28T13:14:09Z</time>
      </trkpt>
      <trkpt lat="44.9689410" lon="6.7370090">
        <ele>2413.0</ele>
        <time>2017-07-28T13:14:10Z</time>
      </trkpt>
      <trkpt lat="44.9689280" lon="6.7369760">
        <ele>2412.2</ele>
        <time>2017-07-28T13:14:11Z</time>
      </trkpt>
      <trkpt lat="44.9689160" lon="6.7369550">
        <ele>2411.2</ele>
        <time>2017-07-28T13:14:12Z</time>
      </trkpt>
      <trkpt lat="44.9689090" lon="6.7369440">
        <ele>2410.2</ele>
        <time>2017-07-28T13:14:13Z</time>
      </trkpt>
      <trkpt lat="44.9689020" lon="6.7369440">
        <ele>2409.6</ele>
        <time>2017-07-28T13:14:14Z</time>
      </trkpt>
      <trkpt lat="44.9688240" lon="6.7368960">
        <ele>2398.6</ele>
        <time>2017-07-28T13:14:40Z</time>
      </trkpt>
      <trkpt lat="44.9688150" lon="6.7368960">
        <ele>2398.4</ele>
        <time>2017-07-28T13:14:41Z</time>
      </trkpt>
      <trkpt lat="44.9687740" lon="6.7368890">
        <ele>2397.4</ele>
        <time>2017-07-28T13:14:45Z</time>
      </trkpt>
      <trkpt lat="44.9687560" lon="6.7368370">
        <ele>2394.8</ele>
        <time>2017-07-28T13:14:57Z</time>
      </trkpt>
      <trkpt lat="44.9687310" lon="6.7367830">
        <ele>2394.0</ele>
        <time>2017-07-28T13:14:59Z</time>
      </trkpt>
      <trkpt lat="44.9687130" lon="6.7367760">
        <ele>2393.8</ele>
        <time>2017-07-28T13:15:00Z</time>
      </trkpt>
      <trkpt lat="44.9686960" lon="6.7367860">
        <ele>2393.6</ele>
        <time>2017-07-28T13:15:01Z</time>
      </trkpt>
      <trkpt lat="44.9686780" lon="6.7367780">
        <ele>2393.4</ele>
        <time>2017-07-28T13:15:02Z</time>
      </trkpt>
      <trkpt lat="44.9686550" lon="6.7368010">
        <ele>2392.2</ele>
        <time>2017-07-28T13:15:04Z</time>
      </trkpt>
      <trkpt lat="44.9686050" lon="6.7368190">
        <ele>2391.4</ele>
        <time>2017-07-28T13:15:06Z</time>
      </trkpt>
      <trkpt lat="44.9685840" lon="6.7368310">
        <ele>2391.0</ele>
        <time>2017-07-28T13:15:07Z</time>
      </trkpt>
      <trkpt lat="44.9685290" lon="6.7368250">
        <ele>2389.6</ele>
        <time>2017-07-28T13:15:10Z</time>
      </trkpt>
      <trkpt lat="44.9685020" lon="6.7368150">
        <ele>2388.6</ele>
        <time>2017-07-28T13:15:11Z</time>
      </trkpt>
      <trkpt lat="44.9684550" lon="6.7367810">
        <ele>2387.2</ele>
        <time>2017-07-28T13:15:13Z</time>
      </trkpt>
      <trkpt lat="44.9684270" lon="6.7367660">
        <ele>2386.4</ele>
        <time>2017-07-28T13:15:14Z</time>
      </trkpt>
      <trkpt lat="44.9684010" lon="6.7367430">
        <ele>2385.6</ele>
        <time>2017-07-28T13:15:15Z</time>
      </trkpt>
      <trkpt lat="44.9683400" lon="6.7367070">
        <ele>2384.4</ele>
        <time>2017-07-28T13:15:17Z</time>
      </trkpt>
      <trkpt lat="44.9682810" lon="6.7366530">
        <ele>2383.2</ele>
        <time>2017-07-28T13:15:19Z</time>
      </trkpt>
      <trkpt lat="44.9682480" lon="6.7366400">
        <ele>2382.4</ele>
        <time>2017-07-28T13:15:20Z</time>
      </trkpt>
      <trkpt lat="44.9682260" lon="6.7366270">
        <ele>2381.6</ele>
        <time>2017-07-28T13:15:21Z</time>
      </trkpt>
      <trkpt lat="44.9681760" lon="6.7365640">
        <ele>2380.4</ele>
        <time>2017-07-28T13:15:23Z</time>
      </trkpt>
      <trkpt lat="44.9681400" lon="6.7365310">
        <ele>2379.6</ele>
        <time>2017-07-28T13:15:24Z</time>
      </trkpt>
      <trkpt lat="44.9681060" lon="6.7365060">
        <ele>2378.6</ele>
        <time>2017-07-28T13:15:25Z</time>
      </trkpt>
      <trkpt lat="44.9680770" lon="6.7364660">
        <ele>2376.8</ele>
        <time>2017-07-28T13:15:27Z</time>
      </trkpt>
      <trkpt lat="44.9680590" lon="6.7364430">
        <ele>2376.2</ele>
        <time>2017-07-28T13:15:28Z</time>
      </trkpt>
      <trkpt lat="44.9680360" lon="6.7364230">
        <ele>2375.4</ele>
        <time>2017-07-28T13:15:29Z</time>
      </trkpt>
      <trkpt lat="44.9680040" lon="6.7364140">
        <ele>2374.2</ele>
        <time>2017-07-28T13:15:31Z</time>
      </trkpt>
      <trkpt lat="44.9679800" lon="6.7364090">
        <ele>2373.6</ele>
        <time>2017-07-28T13:15:32Z</time>
      </trkpt>
      <trkpt lat="44.9679560" lon="6.7363850">
        <ele>2373.0</ele>
        <time>2017-07-28T13:15:33Z</time>
      </trkpt>
      <trkpt lat="44.9679180" lon="6.7363160">
        <ele>2370.8</ele>
        <time>2017-07-28T13:15:35Z</time>
      </trkpt>
      <trkpt lat="44.9678900" lon="6.7362750">
        <ele>2370.2</ele>
        <time>2017-07-28T13:15:36Z</time>
      </trkpt>
      <trkpt lat="44.9678660" lon="6.7362330">
        <ele>2369.6</ele>
        <time>2017-07-28T13:15:37Z</time>
      </trkpt>
      <trkpt lat="44.9678220" lon="6.7361540">
        <ele>2368.6</ele>
        <time>2017-07-28T13:15:39Z</time>
      </trkpt>
      <trkpt lat="44.9677720" lon="6.7361080">
        <ele>2367.2</ele>
        <time>2017-07-28T13:15:41Z</time>
      </trkpt>
      <trkpt lat="44.9677500" lon="6.7360820">
        <ele>2366.6</ele>
        <time>2017-07-28T13:15:42Z</time>
      </trkpt>
      <trkpt lat="44.9677280" lon="6.7360430">
        <ele>2366.0</ele>
        <time>2017-07-28T13:15:43Z</time>
      </trkpt>
      <trkpt lat="44.9677070" lon="6.7360080">
        <ele>2365.4</ele>
        <time>2017-07-28T13:15:44Z</time>
      </trkpt>
      <trkpt lat="44.9676810" lon="6.7359790">
        <ele>2364.8</ele>
        <time>2017-07-28T13:15:45Z</time>
      </trkpt>
      <trkpt lat="44.9676150" lon="6.7359270">
        <ele>2363.4</ele>
        <time>2017-07-28T13:15:47Z</time>
      </trkpt>
      <trkpt lat="44.9675650" lon="6.7358690">
        <ele>2362.4</ele>
        <time>2017-07-28T13:15:49Z</time>
      </trkpt>
      <trkpt lat="44.9675090" lon="6.7358420">
        <ele>2361.2</ele>
        <time>2017-07-28T13:15:51Z</time>
      </trkpt>
      <trkpt lat="44.9674680" lon="6.7358440">
        <ele>2360.0</ele>
        <time>2017-07-28T13:15:53Z</time>
      </trkpt>
      <trkpt lat="44.9674180" lon="6.7358480">
        <ele>2358.6</ele>
        <time>2017-07-28T13:15:55Z</time>
      </trkpt>
      <trkpt lat="44.9673910" lon="6.7358690">
        <ele>2358.2</ele>
        <time>2017-07-28T13:15:56Z</time>
      </trkpt>
      <trkpt lat="44.9673680" lon="6.7359100">
        <ele>2357.6</ele>
        <time>2017-07-28T13:15:57Z</time>
      </trkpt>
      <trkpt lat="44.9673520" lon="6.7359790">
        <ele>2355.6</ele>
        <time>2017-07-28T13:15:59Z</time>
      </trkpt>
      <trkpt lat="44.9673410" lon="6.7360620">
        <ele>2354.4</ele>
        <time>2017-07-28T13:16:01Z</time>
      </trkpt>
      <trkpt lat="44.9673380" lon="6.7360920">
        <ele>2354.0</ele>
        <time>2017-07-28T13:16:02Z</time>
      </trkpt>
      <trkpt lat="44.9673290" lon="6.7361160">
        <ele>2353.4</ele>
        <time>2017-07-28T13:16:03Z</time>
      </trkpt>
      <trkpt lat="44.9673170" lon="6.7361210">
        <ele>2353.0</ele>
        <time>2017-07-28T13:16:04Z</time>
      </trkpt>
      <trkpt lat="44.9672980" lon="6.7360980">
        <ele>2352.2</ele>
        <time>2017-07-28T13:16:05Z</time>
      </trkpt>
      <trkpt lat="44.9672580" lon="6.7360830">
        <ele>2350.8</ele>
        <time>2017-07-28T13:16:07Z</time>
      </trkpt>
      <trkpt lat="44.9672350" lon="6.7360550">
        <ele>2349.8</ele>
        <time>2017-07-28T13:16:08Z</time>
      </trkpt>
      <trkpt lat="44.9672130" lon="6.7360280">
        <ele>2349.0</ele>
        <time>2017-07-28T13:16:09Z</time>
      </trkpt>
      <trkpt lat="44.9671740" lon="6.7359940">
        <ele>2347.6</ele>
        <time>2017-07-28T13:16:11Z</time>
      </trkpt>
      <trkpt lat="44.9671530" lon="6.7359910">
        <ele>2346.8</ele>
        <time>2017-07-28T13:16:12Z</time>
      </trkpt>
      <trkpt lat="44.9671410" lon="6.7360140">
        <ele>2346.2</ele>
        <time>2017-07-28T13:16:13Z</time>
      </trkpt>
      <trkpt lat="44.9671490" lon="6.7360570">
        <ele>2345.4</ele>
        <time>2017-07-28T13:16:15Z</time>
      </trkpt>
      <trkpt lat="44.9671700" lon="6.7363070">
        <ele>2336.8</ele>
        <time>2017-07-28T13:17:10Z</time>
      </trkpt>
      <trkpt lat="44.9671740" lon="6.7362990">
        <ele>2336.0</ele>
        <time>2017-07-28T13:17:11Z</time>
      </trkpt>
      <trkpt lat="44.9671770" lon="6.7362980">
        <ele>2335.8</ele>
        <time>2017-07-28T13:17:12Z</time>
      </trkpt>
      <trkpt lat="44.9670020" lon="6.7363760">
        <ele>2329.2</ele>
        <time>2017-07-28T13:18:49Z</time>
      </trkpt>
      <trkpt lat="44.9669570" lon="6.7363840">
        <ele>2328.8</ele>
        <time>2017-07-28T13:18:51Z</time>
      </trkpt>
      <trkpt lat="44.9668970" lon="6.7363950">
        <ele>2328.2</ele>
        <time>2017-07-28T13:18:54Z</time>
      </trkpt>
      <trkpt lat="44.9668730" lon="6.7364120">
        <ele>2327.8</ele>
        <time>2017-07-28T13:18:55Z</time>
      </trkpt>
      <trkpt lat="44.9667770" lon="6.7364630">
        <ele>2327.8</ele>
        <time>2017-07-28T13:18:58Z</time>
      </trkpt>
      <trkpt lat="44.9667390" lon="6.7364790">
        <ele>2327.6</ele>
        <time>2017-07-28T13:18:59Z</time>
      </trkpt>
      <trkpt lat="44.9666420" lon="6.7364400">
        <ele>2327.0</ele>
        <time>2017-07-28T13:19:02Z</time>
      </trkpt>
      <trkpt lat="44.9665730" lon="6.7363800">
        <ele>2326.4</ele>
        <time>2017-07-28T13:19:05Z</time>
      </trkpt>
      <trkpt lat="44.9665550" lon="6.7363780">
        <ele>2326.4</ele>
        <time>2017-07-28T13:19:06Z</time>
      </trkpt>
      <trkpt lat="44.9664900" lon="6.7363730">
        <ele>2325.8</ele>
        <time>2017-07-28T13:19:08Z</time>
      </trkpt>
      <trkpt lat="44.9664220" lon="6.7363610">
        <ele>2325.0</ele>
        <time>2017-07-28T13:19:10Z</time>
      </trkpt>
      <trkpt lat="44.9663780" lon="6.7363480">
        <ele>2324.0</ele>
        <time>2017-07-28T13:19:11Z</time>
      </trkpt>
      <trkpt lat="44.9663070" lon="6.7363170">
        <ele>2322.8</ele>
        <time>2017-07-28T13:19:13Z</time>
      </trkpt>
      <trkpt lat="44.9662410" lon="6.7362940">
        <ele>2321.2</ele>
        <time>2017-07-28T13:19:15Z</time>
      </trkpt>
      <trkpt lat="44.9661780" lon="6.7362200">
        <ele>2319.8</ele>
        <time>2017-07-28T13:19:17Z</time>
      </trkpt>
      <trkpt lat="44.9661050" lon="6.7361320">
        <ele>2318.2</ele>
        <time>2017-07-28T13:19:19Z</time>
      </trkpt>
      <trkpt lat="44.9660390" lon="6.7360670">
        <ele>2316.4</ele>
        <time>2017-07-28T13:19:21Z</time>
      </trkpt>
      <trkpt lat="44.9659930" lon="6.7360210">
        <ele>2314.8</ele>
        <time>2017-07-28T13:19:23Z</time>
      </trkpt>
      <trkpt lat="44.9659720" lon="6.7359980">
        <ele>2314.2</ele>
        <time>2017-07-28T13:19:24Z</time>
      </trkpt>
      <trkpt lat="44.9659520" lon="6.7359750">
        <ele>2313.6</ele>
        <time>2017-07-28T13:19:25Z</time>
      </trkpt>
      <trkpt lat="44.9659400" lon="6.7359220">
        <ele>2311.8</ele>
        <time>2017-07-28T13:19:27Z</time>
      </trkpt>
      <trkpt lat="44.9659220" lon="6.7358770">
        <ele>2310.0</ele>
        <time>2017-07-28T13:19:29Z</time>
      </trkpt>
      <trkpt lat="44.9658870" lon="6.7358170">
        <ele>2308.8</ele>
        <time>2017-07-28T13:19:31Z</time>
      </trkpt>
      <trkpt lat="44.9658660" lon="6.7358090">
        <ele>2308.0</ele>
        <time>2017-07-28T13:19:32Z</time>
      </trkpt>
      <trkpt lat="44.9658480" lon="6.7357960">
        <ele>2307.2</ele>
        <time>2017-07-28T13:19:33Z</time>
      </trkpt>
      <trkpt lat="44.9658040" lon="6.7356660">
        <ele>2299.6</ele>
        <time>2017-07-28T13:19:50Z</time>
      </trkpt>
      <trkpt lat="44.9658050" lon="6.7356460">
        <ele>2299.0</ele>
        <time>2017-07-28T13:19:51Z</time>
      </trkpt>
      <trkpt lat="44.9657950" lon="6.7356260">
        <ele>2298.0</ele>
        <time>2017-07-28T13:19:53Z</time>
      </trkpt>
      <trkpt lat="44.9657890" lon="6.7356140">
        <ele>2297.4</ele>
        <time>2017-07-28T13:19:54Z</time>
      </trkpt>
      <trkpt lat="44.9657840" lon="6.7356010">
        <ele>2296.6</ele>
        <time>2017-07-28T13:19:55Z</time>
      </trkpt>
      <trkpt lat="44.9657780" lon="6.7355960">
        <ele>2296.0</ele>
        <time>2017-07-28T13:19:56Z</time>
      </trkpt>
      <trkpt lat="44.9657700" lon="6.7355860">
        <ele>2295.4</ele>
        <time>2017-07-28T13:19:57Z</time>
      </trkpt>
      <trkpt lat="44.9657680" lon="6.7355740">
        <ele>2294.8</ele>
        <time>2017-07-28T13:19:58Z</time>
      </trkpt>
      <trkpt lat="44.9657620" lon="6.7355610">
        <ele>2294.0</ele>
        <time>2017-07-28T13:19:59Z</time>
      </trkpt>
      <trkpt lat="44.9657530" lon="6.7355410">
        <ele>2293.2</ele>
        <time>2017-07-28T13:20:01Z</time>
      </trkpt>
      <trkpt lat="44.9657400" lon="6.7355360">
        <ele>2292.8</ele>
        <time>2017-07-28T13:20:02Z</time>
      </trkpt>
      <trkpt lat="44.9657280" lon="6.7355350">
        <ele>2292.6</ele>
        <time>2017-07-28T13:20:03Z</time>
      </trkpt>
      <trkpt lat="44.9657060" lon="6.7354980">
        <ele>2291.4</ele>
        <time>2017-07-28T13:20:06Z</time>
      </trkpt>
      <trkpt lat="44.9657010" lon="6.7354870">
        <ele>2291.0</ele>
        <time>2017-07-28T13:20:07Z</time>
      </trkpt>
      <trkpt lat="44.9656880" lon="6.7354760">
        <ele>2290.8</ele>
        <time>2017-07-28T13:20:08Z</time>
      </trkpt>
      <trkpt lat="44.9656700" lon="6.7354780">
        <ele>2290.2</ele>
        <time>2017-07-28T13:20:11Z</time>
      </trkpt>
      <trkpt lat="44.9656580" lon="6.7354750">
        <ele>2290.0</ele>
        <time>2017-07-28T13:20:12Z</time>
      </trkpt>
      <trkpt lat="44.9656560" lon="6.7354740">
        <ele>2289.8</ele>
        <time>2017-07-28T13:20:13Z</time>
      </trkpt>
      <trkpt lat="44.9656220" lon="6.7354630">
        <ele>2289.2</ele>
        <time>2017-07-28T13:20:17Z</time>
      </trkpt>
      <trkpt lat="44.9656130" lon="6.7354580">
        <ele>2289.0</ele>
        <time>2017-07-28T13:20:18Z</time>
      </trkpt>
      <trkpt lat="44.9656070" lon="6.7354450">
        <ele>2288.8</ele>
        <time>2017-07-28T13:20:19Z</time>
      </trkpt>
      <trkpt lat="44.9655970" lon="6.7354340">
        <ele>2288.8</ele>
        <time>2017-07-28T13:20:20Z</time>
      </trkpt>
      <trkpt lat="44.9655770" lon="6.7354210">
        <ele>2288.0</ele>
        <time>2017-07-28T13:20:22Z</time>
      </trkpt>
      <trkpt lat="44.9655610" lon="6.7354030">
        <ele>2286.8</ele>
        <time>2017-07-28T13:20:24Z</time>
      </trkpt>
      <trkpt lat="44.9655480" lon="6.7353720">
        <ele>2285.4</ele>
        <time>2017-07-28T13:20:27Z</time>
      </trkpt>
      <trkpt lat="44.9655290" lon="6.7353390">
        <ele>2284.6</ele>
        <time>2017-07-28T13:20:30Z</time>
      </trkpt>
      <trkpt lat="44.9655200" lon="6.7353270">
        <ele>2284.2</ele>
        <time>2017-07-28T13:20:31Z</time>
      </trkpt>
      <trkpt lat="44.9655050" lon="6.7353210">
        <ele>2284.2</ele>
        <time>2017-07-28T13:20:32Z</time>
      </trkpt>
      <trkpt lat="44.9654810" lon="6.7353160">
        <ele>2283.4</ele>
        <time>2017-07-28T13:20:35Z</time>
      </trkpt>
      <trkpt lat="44.9654710" lon="6.7353090">
        <ele>2283.2</ele>
        <time>2017-07-28T13:20:36Z</time>
      </trkpt>
      <trkpt lat="44.9654540" lon="6.7353150">
        <ele>2282.8</ele>
        <time>2017-07-28T13:20:38Z</time>
      </trkpt>
      <trkpt lat="44.9654220" lon="6.7353030">
        <ele>2282.0</ele>
        <time>2017-07-28T13:20:41Z</time>
      </trkpt>
      <trkpt lat="44.9654170" lon="6.7352920">
        <ele>2281.6</ele>
        <time>2017-07-28T13:20:42Z</time>
      </trkpt>
      <trkpt lat="44.9654020" lon="6.7352830">
        <ele>2281.4</ele>
        <time>2017-07-28T13:20:43Z</time>
      </trkpt>
      <trkpt lat="44.9653900" lon="6.7352780">
        <ele>2281.0</ele>
        <time>2017-07-28T13:20:44Z</time>
      </trkpt>
      <trkpt lat="44.9653630" lon="6.7352890">
        <ele>2279.8</ele>
        <time>2017-07-28T13:20:47Z</time>
      </trkpt>
      <trkpt lat="44.9653510" lon="6.7352890">
        <ele>2279.6</ele>
        <time>2017-07-28T13:20:48Z</time>
      </trkpt>
      <trkpt lat="44.9653150" lon="6.7353100">
        <ele>2278.6</ele>
        <time>2017-07-28T13:20:51Z</time>
      </trkpt>
      <trkpt lat="44.9652920" lon="6.7352990">
        <ele>2278.2</ele>
        <time>2017-07-28T13:20:53Z</time>
      </trkpt>
      <trkpt lat="44.9652820" lon="6.7352890">
        <ele>2277.8</ele>
        <time>2017-07-28T13:20:54Z</time>
      </trkpt>
      <trkpt lat="44.9652700" lon="6.7352800">
        <ele>2277.4</ele>
        <time>2017-07-28T13:20:55Z</time>
      </trkpt>
      <trkpt lat="44.9652680" lon="6.7352520">
        <ele>2276.2</ele>
        <time>2017-07-28T13:20:58Z</time>
      </trkpt>
      <trkpt lat="44.9652750" lon="6.7352120">
        <ele>2274.6</ele>
        <time>2017-07-28T13:21:03Z</time>
      </trkpt>
      <trkpt lat="44.9653040" lon="6.7351090">
        <ele>2274.4</ele>
        <time>2017-07-28T13:21:05Z</time>
      </trkpt>
      <trkpt lat="44.9653430" lon="6.7350130">
        <ele>2274.0</ele>
        <time>2017-07-28T13:21:07Z</time>
      </trkpt>
      <trkpt lat="44.9653480" lon="6.7349620">
        <ele>2273.6</ele>
        <time>2017-07-28T13:21:08Z</time>
      </trkpt>
      <trkpt lat="44.9653650" lon="6.7348690">
        <ele>2272.8</ele>
        <time>2017-07-28T13:21:10Z</time>
      </trkpt>
      <trkpt lat="44.9653800" lon="6.7348330">
        <ele>2271.8</ele>
        <time>2017-07-28T13:21:11Z</time>
      </trkpt>
      <trkpt lat="44.9653620" lon="6.7348130">
        <ele>2271.2</ele>
        <time>2017-07-28T13:21:12Z</time>
      </trkpt>
      <trkpt lat="44.9653360" lon="6.7348110">
        <ele>2270.8</ele>
        <time>2017-07-28T13:21:13Z</time>
      </trkpt>
      <trkpt lat="44.9652750" lon="6.7348620">
        <ele>2269.6</ele>
        <time>2017-07-28T13:21:16Z</time>
      </trkpt>
      <trkpt lat="44.9652610" lon="6.7348920">
        <ele>2269.2</ele>
        <time>2017-07-28T13:21:17Z</time>
      </trkpt>
      <trkpt lat="44.9652200" lon="6.7349290">
        <ele>2268.4</ele>
        <time>2017-07-28T13:21:19Z</time>
      </trkpt>
      <trkpt lat="44.9652150" lon="6.7348850">
        <ele>2266.0</ele>
        <time>2017-07-28T13:21:24Z</time>
      </trkpt>
      <trkpt lat="44.9651990" lon="6.7348670">
        <ele>2264.8</ele>
        <time>2017-07-28T13:21:26Z</time>
      </trkpt>
      <trkpt lat="44.9651970" lon="6.7348560">
        <ele>2264.2</ele>
        <time>2017-07-28T13:21:27Z</time>
      </trkpt>
      <trkpt lat="44.9651810" lon="6.7348500">
        <ele>2263.4</ele>
        <time>2017-07-28T13:21:29Z</time>
      </trkpt>
      <trkpt lat="44.9651680" lon="6.7348460">
        <ele>2262.2</ele>
        <time>2017-07-28T13:21:31Z</time>
      </trkpt>
      <trkpt lat="44.9651580" lon="6.7348320">
        <ele>2261.0</ele>
        <time>2017-07-28T13:21:33Z</time>
      </trkpt>
      <trkpt lat="44.9651460" lon="6.7348150">
        <ele>2259.2</ele>
        <time>2017-07-28T13:21:35Z</time>
      </trkpt>
      <trkpt lat="44.9651370" lon="6.7347940">
        <ele>2258.0</ele>
        <time>2017-07-28T13:21:37Z</time>
      </trkpt>
      <trkpt lat="44.9651230" lon="6.7347720">
        <ele>2256.6</ele>
        <time>2017-07-28T13:21:39Z</time>
      </trkpt>
      <trkpt lat="44.9651090" lon="6.7347540">
        <ele>2255.2</ele>
        <time>2017-07-28T13:21:41Z</time>
      </trkpt>
      <trkpt lat="44.9650720" lon="6.7347540">
        <ele>2254.0</ele>
        <time>2017-07-28T13:21:44Z</time>
      </trkpt>
      <trkpt lat="44.9650650" lon="6.7347490">
        <ele>2253.6</ele>
        <time>2017-07-28T13:21:45Z</time>
      </trkpt>
      <trkpt lat="44.9650630" lon="6.7347420">
        <ele>2253.0</ele>
        <time>2017-07-28T13:21:46Z</time>
      </trkpt>
      <trkpt lat="44.9650440" lon="6.7347360">
        <ele>2251.8</ele>
        <time>2017-07-28T13:21:48Z</time>
      </trkpt>
      <trkpt lat="44.9650120" lon="6.7347290">
        <ele>2250.6</ele>
        <time>2017-07-28T13:21:51Z</time>
      </trkpt>
      <trkpt lat="44.9649840" lon="6.7347350">
        <ele>2249.6</ele>
        <time>2017-07-28T13:21:54Z</time>
      </trkpt>
      <trkpt lat="44.9649730" lon="6.7347380">
        <ele>2249.0</ele>
        <time>2017-07-28T13:21:56Z</time>
      </trkpt>
      <trkpt lat="44.9649650" lon="6.7347570">
        <ele>2248.0</ele>
        <time>2017-07-28T13:21:59Z</time>
      </trkpt>
      <trkpt lat="44.9648380" lon="6.7346700">
        <ele>2241.8</ele>
        <time>2017-07-28T13:22:41Z</time>
      </trkpt>
      <trkpt lat="44.9648090" lon="6.7346680">
        <ele>2241.6</ele>
        <time>2017-07-28T13:22:42Z</time>
      </trkpt>
      <trkpt lat="44.9647370" lon="6.7346560">
        <ele>2241.0</ele>
        <time>2017-07-28T13:22:44Z</time>
      </trkpt>
      <trkpt lat="44.9647010" lon="6.7346350">
        <ele>2240.6</ele>
        <time>2017-07-28T13:22:45Z</time>
      </trkpt>
      <trkpt lat="44.9646100" lon="6.7345470">
        <ele>2239.6</ele>
        <time>2017-07-28T13:22:47Z</time>
      </trkpt>
      <trkpt lat="44.9645730" lon="6.7344970">
        <ele>2238.8</ele>
        <time>2017-07-28T13:22:48Z</time>
      </trkpt>
      <trkpt lat="44.9645430" lon="6.7344480">
        <ele>2238.6</ele>
        <time>2017-07-28T13:22:49Z</time>
      </trkpt>
      <trkpt lat="44.9645030" lon="6.7343360">
        <ele>2237.4</ele>
        <time>2017-07-28T13:22:52Z</time>
      </trkpt>
      <trkpt lat="44.9645260" lon="6.7342080">
        <ele>2236.6</ele>
        <time>2017-07-28T13:22:55Z</time>
      </trkpt>
      <trkpt lat="44.9645330" lon="6.7341590">
        <ele>2236.2</ele>
        <time>2017-07-28T13:22:56Z</time>
      </trkpt>
      <trkpt lat="44.9644960" lon="6.7340660">
        <ele>2235.2</ele>
        <time>2017-07-28T13:22:58Z</time>
      </trkpt>
      <trkpt lat="44.9644720" lon="6.7340520">
        <ele>2234.8</ele>
        <time>2017-07-28T13:22:59Z</time>
      </trkpt>
      <trkpt lat="44.9644180" lon="6.7341070">
        <ele>2234.2</ele>
        <time>2017-07-28T13:23:02Z</time>
      </trkpt>
      <trkpt lat="44.9643670" lon="6.7341920">
        <ele>2233.6</ele>
        <time>2017-07-28T13:23:04Z</time>
      </trkpt>
      <trkpt lat="44.9643120" lon="6.7342770">
        <ele>2233.0</ele>
        <time>2017-07-28T13:23:06Z</time>
      </trkpt>
      <trkpt lat="44.9642470" lon="6.7343730">
        <ele>2232.4</ele>
        <time>2017-07-28T13:23:08Z</time>
      </trkpt>
      <trkpt lat="44.9641560" lon="6.7344450">
        <ele>2231.4</ele>
        <time>2017-07-28T13:23:10Z</time>
      </trkpt>
      <trkpt lat="44.9640280" lon="6.7345090">
        <ele>2230.4</ele>
        <time>2017-07-28T13:23:13Z</time>
      </trkpt>
      <trkpt lat="44.9640040" lon="6.7345390">
        <ele>2230.0</ele>
        <time>2017-07-28T13:23:14Z</time>
      </trkpt>
      <trkpt lat="44.9638510" lon="6.7346440">
        <ele>2228.8</ele>
        <time>2017-07-28T13:23:18Z</time>
      </trkpt>
      <trkpt lat="44.9638070" lon="6.7346610">
        <ele>2228.0</ele>
        <time>2017-07-28T13:23:19Z</time>
      </trkpt>
      <trkpt lat="44.9637630" lon="6.7346500">
        <ele>2227.2</ele>
        <time>2017-07-28T13:23:20Z</time>
      </trkpt>
      <trkpt lat="44.9637250" lon="6.7346460">
        <ele>2226.4</ele>
        <time>2017-07-28T13:23:21Z</time>
      </trkpt>
      <trkpt lat="44.9636900" lon="6.7346450">
        <ele>2225.6</ele>
        <time>2017-07-28T13:23:22Z</time>
      </trkpt>
      <trkpt lat="44.9636280" lon="6.7346530">
        <ele>2223.8</ele>
        <time>2017-07-28T13:23:24Z</time>
      </trkpt>
      <trkpt lat="44.9635670" lon="6.7346290">
        <ele>2221.8</ele>
        <time>2017-07-28T13:23:26Z</time>
      </trkpt>
      <trkpt lat="44.9635300" lon="6.7346340">
        <ele>2220.8</ele>
        <time>2017-07-28T13:23:27Z</time>
      </trkpt>
      <trkpt lat="44.9634990" lon="6.7346310">
        <ele>2219.6</ele>
        <time>2017-07-28T13:23:28Z</time>
      </trkpt>
      <trkpt lat="44.9634790" lon="6.7346310">
        <ele>2218.4</ele>
        <time>2017-07-28T13:23:29Z</time>
      </trkpt>
      <trkpt lat="44.9634590" lon="6.7346290">
        <ele>2217.2</ele>
        <time>2017-07-28T13:23:30Z</time>
      </trkpt>
      <trkpt lat="44.9634500" lon="6.7346050">
        <ele>2216.0</ele>
        <time>2017-07-28T13:23:31Z</time>
      </trkpt>
      <trkpt lat="44.9634390" lon="6.7345990">
        <ele>2214.8</ele>
        <time>2017-07-28T13:23:32Z</time>
      </trkpt>
      <trkpt lat="44.9634150" lon="6.7345740">
        <ele>2205.2</ele>
        <time>2017-07-28T13:23:42Z</time>
      </trkpt>
      <trkpt lat="44.9634050" lon="6.7345730">
        <ele>2204.6</ele>
        <time>2017-07-28T13:23:43Z</time>
      </trkpt>
      <trkpt lat="44.9633950" lon="6.7345760">
        <ele>2204.0</ele>
        <time>2017-07-28T13:23:44Z</time>
      </trkpt>
      <trkpt lat="44.9633800" lon="6.7345650">
        <ele>2202.8</ele>
        <time>2017-07-28T13:23:46Z</time>
      </trkpt>
      <trkpt lat="44.9633610" lon="6.7345380">
        <ele>2201.2</ele>
        <time>2017-07-28T13:23:48Z</time>
      </trkpt>
      <trkpt lat="44.9633500" lon="6.7345340">
        <ele>2200.4</ele>
        <time>2017-07-28T13:23:49Z</time>
      </trkpt>
      <trkpt lat="44.9633370" lon="6.7345340">
        <ele>2199.8</ele>
        <time>2017-07-28T13:23:50Z</time>
      </trkpt>
      <trkpt lat="44.9633210" lon="6.7345350">
        <ele>2198.6</ele>
        <time>2017-07-28T13:23:52Z</time>
      </trkpt>
      <trkpt lat="44.9633010" lon="6.7345310">
        <ele>2197.4</ele>
        <time>2017-07-28T13:23:54Z</time>
      </trkpt>
      <trkpt lat="44.9632880" lon="6.7345300">
        <ele>2197.0</ele>
        <time>2017-07-28T13:23:55Z</time>
      </trkpt>
      <trkpt lat="44.9632740" lon="6.7345210">
        <ele>2196.2</ele>
        <time>2017-07-28T13:23:57Z</time>
      </trkpt>
      <trkpt lat="44.9632580" lon="6.7345170">
        <ele>2194.8</ele>
        <time>2017-07-28T13:23:59Z</time>
      </trkpt>
      <trkpt lat="44.9630990" lon="6.7344270">
        <ele>2182.2</ele>
        <time>2017-07-28T13:24:36Z</time>
      </trkpt>
      <trkpt lat="44.9630900" lon="6.7344390">
        <ele>2182.0</ele>
        <time>2017-07-28T13:24:37Z</time>
      </trkpt>
      <trkpt lat="44.9630810" lon="6.7344390">
        <ele>2181.6</ele>
        <time>2017-07-28T13:24:39Z</time>
      </trkpt>
      <trkpt lat="44.9630650" lon="6.7344280">
        <ele>2180.8</ele>
        <time>2017-07-28T13:24:42Z</time>
      </trkpt>
      <trkpt lat="44.9630420" lon="6.7344110">
        <ele>2180.4</ele>
        <time>2017-07-28T13:24:45Z</time>
      </trkpt>
      <trkpt lat="44.9630260" lon="6.7344000">
        <ele>2179.8</ele>
        <time>2017-07-28T13:24:48Z</time>
      </trkpt>
      <trkpt lat="44.9630130" lon="6.7343740">
        <ele>2179.6</ele>
        <time>2017-07-28T13:24:50Z</time>
      </trkpt>
      <trkpt lat="44.9630100" lon="6.7343660">
        <ele>2179.6</ele>
        <time>2017-07-28T13:24:51Z</time>
      </trkpt>
      <trkpt lat="44.9629990" lon="6.7343600">
        <ele>2179.4</ele>
        <time>2017-07-28T13:24:53Z</time>
      </trkpt>
      <trkpt lat="44.9629870" lon="6.7343420">
        <ele>2179.4</ele>
        <time>2017-07-28T13:24:54Z</time>
      </trkpt>
      <trkpt lat="44.9629780" lon="6.7343210">
        <ele>2179.0</ele>
        <time>2017-07-28T13:24:55Z</time>
      </trkpt>
      <trkpt lat="44.9629740" lon="6.7343120">
        <ele>2178.8</ele>
        <time>2017-07-28T13:24:56Z</time>
      </trkpt>
      <trkpt lat="44.9629390" lon="6.7342470">
        <ele>2177.8</ele>
        <time>2017-07-28T13:25:00Z</time>
      </trkpt>
      <trkpt lat="44.9629250" lon="6.7342260">
        <ele>2177.4</ele>
        <time>2017-07-28T13:25:02Z</time>
      </trkpt>
      <trkpt lat="44.9629370" lon="6.7341600">
        <ele>2177.0</ele>
        <time>2017-07-28T13:25:05Z</time>
      </trkpt>
      <trkpt lat="44.9629200" lon="6.7341460">
        <ele>2176.8</ele>
        <time>2017-07-28T13:25:06Z</time>
      </trkpt>
      <trkpt lat="44.9629060" lon="6.7341360">
        <ele>2176.8</ele>
        <time>2017-07-28T13:25:08Z</time>
      </trkpt>
      <trkpt lat="44.9628860" lon="6.7341120">
        <ele>2176.8</ele>
        <time>2017-07-28T13:25:10Z</time>
      </trkpt>
      <trkpt lat="44.9628400" lon="6.7340240">
        <ele>2176.0</ele>
        <time>2017-07-28T13:25:13Z</time>
      </trkpt>
      <trkpt lat="44.9627820" lon="6.7339470">
        <ele>2175.4</ele>
        <time>2017-07-28T13:25:16Z</time>
      </trkpt>
      <trkpt lat="44.9627350" lon="6.7338640">
        <ele>2174.8</ele>
        <time>2017-07-28T13:25:18Z</time>
      </trkpt>
      <trkpt lat="44.9626680" lon="6.7338660">
        <ele>2174.6</ele>
        <time>2017-07-28T13:25:20Z</time>
      </trkpt>
      <trkpt lat="44.9626390" lon="6.7338680">
        <ele>2174.6</ele>
        <time>2017-07-28T13:25:21Z</time>
      </trkpt>
      <trkpt lat="44.9626230" lon="6.7338560">
        <ele>2174.2</ele>
        <time>2017-07-28T13:25:22Z</time>
      </trkpt>
      <trkpt lat="44.9626120" lon="6.7337960">
        <ele>2173.6</ele>
        <time>2017-07-28T13:25:24Z</time>
      </trkpt>
      <trkpt lat="44.9626030" lon="6.7337670">
        <ele>2173.0</ele>
        <time>2017-07-28T13:25:25Z</time>
      </trkpt>
      <trkpt lat="44.9625860" lon="6.7337590">
        <ele>2173.0</ele>
        <time>2017-07-28T13:25:26Z</time>
      </trkpt>
      <trkpt lat="44.9625670" lon="6.7337420">
        <ele>2172.6</ele>
        <time>2017-07-28T13:25:28Z</time>
      </trkpt>
      <trkpt lat="44.9625400" lon="6.7337350">
        <ele>2172.0</ele>
        <time>2017-07-28T13:25:31Z</time>
      </trkpt>
      <trkpt lat="44.9625270" lon="6.7337090">
        <ele>2170.8</ele>
        <time>2017-07-28T13:25:35Z</time>
      </trkpt>
      <trkpt lat="44.9624970" lon="6.7336920">
        <ele>2169.8</ele>
        <time>2017-07-28T13:25:37Z</time>
      </trkpt>
      <trkpt lat="44.9624540" lon="6.7336430">
        <ele>2168.8</ele>
        <time>2017-07-28T13:25:40Z</time>
      </trkpt>
      <trkpt lat="44.9624280" lon="6.7336110">
        <ele>2168.4</ele>
        <time>2017-07-28T13:25:41Z</time>
      </trkpt>
      <trkpt lat="44.9624020" lon="6.7335760">
        <ele>2167.8</ele>
        <time>2017-07-28T13:25:42Z</time>
      </trkpt>
      <trkpt lat="44.9623440" lon="6.7335060">
        <ele>2167.0</ele>
        <time>2017-07-28T13:25:44Z</time>
      </trkpt>
      <trkpt lat="44.9622870" lon="6.7334390">
        <ele>2165.6</ele>
        <time>2017-07-28T13:25:46Z</time>
      </trkpt>
      <trkpt lat="44.9622700" lon="6.7334020">
        <ele>2165.2</ele>
        <time>2017-07-28T13:25:47Z</time>
      </trkpt>
      <trkpt lat="44.9622270" lon="6.7333240">
        <ele>2164.4</ele>
        <time>2017-07-28T13:25:49Z</time>
      </trkpt>
      <trkpt lat="44.9621830" lon="6.7333000">
        <ele>2164.0</ele>
        <time>2017-07-28T13:25:50Z</time>
      </trkpt>
      <trkpt lat="44.9621470" lon="6.7332720">
        <ele>2163.8</ele>
        <time>2017-07-28T13:25:51Z</time>
      </trkpt>
      <trkpt lat="44.9621120" lon="6.7332510">
        <ele>2163.6</ele>
        <time>2017-07-28T13:25:52Z</time>
      </trkpt>
      <trkpt lat="44.9620780" lon="6.7332380">
        <ele>2163.4</ele>
        <time>2017-07-28T13:25:53Z</time>
      </trkpt>
      <trkpt lat="44.9619960" lon="6.7332100">
        <ele>2162.4</ele>
        <time>2017-07-28T13:25:55Z</time>
      </trkpt>
      <trkpt lat="44.9619550" lon="6.7331960">
        <ele>2161.8</ele>
        <time>2017-07-28T13:25:56Z</time>
      </trkpt>
      <trkpt lat="44.9619100" lon="6.7331850">
        <ele>2161.4</ele>
        <time>2017-07-28T13:25:57Z</time>
      </trkpt>
      <trkpt lat="44.9618620" lon="6.7331720">
        <ele>2160.8</ele>
        <time>2017-07-28T13:25:58Z</time>
      </trkpt>
      <trkpt lat="44.9618090" lon="6.7331740">
        <ele>2160.2</ele>
        <time>2017-07-28T13:25:59Z</time>
      </trkpt>
      <trkpt lat="44.9617110" lon="6.7331880">
        <ele>2159.4</ele>
        <time>2017-07-28T13:26:01Z</time>
      </trkpt>
      <trkpt lat="44.9616740" lon="6.7332010">
        <ele>2159.2</ele>
        <time>2017-07-28T13:26:02Z</time>
      </trkpt>
      <trkpt lat="44.9615730" lon="6.7332010">
        <ele>2158.2</ele>
        <time>2017-07-28T13:26:04Z</time>
      </trkpt>
      <trkpt lat="44.9615240" lon="6.7332090">
        <ele>2157.8</ele>
        <time>2017-07-28T13:26:05Z</time>
      </trkpt>
      <trkpt lat="44.9614340" lon="6.7332240">
        <ele>2157.2</ele>
        <time>2017-07-28T13:26:07Z</time>
      </trkpt>
      <trkpt lat="44.9613880" lon="6.7332350">
        <ele>2156.8</ele>
        <time>2017-07-28T13:26:08Z</time>
      </trkpt>
      <trkpt lat="44.9612800" lon="6.7332480">
        <ele>2155.6</ele>
        <time>2017-07-28T13:26:10Z</time>
      </trkpt>
      <trkpt lat="44.9610640" lon="6.7331720">
        <ele>2154.4</ele>
        <time>2017-07-28T13:26:13Z</time>
      </trkpt>
      <trkpt lat="44.9609840" lon="6.7331650">
        <ele>2153.8</ele>
        <time>2017-07-28T13:26:14Z</time>
      </trkpt>
      <trkpt lat="44.9608010" lon="6.7331220">
        <ele>2152.8</ele>
        <time>2017-07-28T13:26:16Z</time>
      </trkpt>
      <trkpt lat="44.9604900" lon="6.7330820">
        <ele>2151.4</ele>
        <time>2017-07-28T13:26:19Z</time>
      </trkpt>
      <trkpt lat="44.9603920" lon="6.7330740">
        <ele>2151.0</ele>
        <time>2017-07-28T13:26:20Z</time>
      </trkpt>
      <trkpt lat="44.9603070" lon="6.7330790">
        <ele>2150.2</ele>
        <time>2017-07-28T13:26:21Z</time>
      </trkpt>
      <trkpt lat="44.9601410" lon="6.7330560">
        <ele>2147.8</ele>
        <time>2017-07-28T13:26:23Z</time>
      </trkpt>
      <trkpt lat="44.9599700" lon="6.7329900">
        <ele>2146.2</ele>
        <time>2017-07-28T13:26:25Z</time>
      </trkpt>
      <trkpt lat="44.9598850" lon="6.7329620">
        <ele>2145.8</ele>
        <time>2017-07-28T13:26:26Z</time>
      </trkpt>
      <trkpt lat="44.9598040" lon="6.7329280">
        <ele>2145.2</ele>
        <time>2017-07-28T13:26:27Z</time>
      </trkpt>
      <trkpt lat="44.9596550" lon="6.7328780">
        <ele>2144.0</ele>
        <time>2017-07-28T13:26:29Z</time>
      </trkpt>
      <trkpt lat="44.9595820" lon="6.7328900">
        <ele>2143.0</ele>
        <time>2017-07-28T13:26:30Z</time>
      </trkpt>
      <trkpt lat="44.9594360" lon="6.7329160">
        <ele>2141.4</ele>
        <time>2017-07-28T13:26:32Z</time>
      </trkpt>
      <trkpt lat="44.9592800" lon="6.7329210">
        <ele>2140.2</ele>
        <time>2017-07-28T13:26:34Z</time>
      </trkpt>
      <trkpt lat="44.9592080" lon="6.7329220">
        <ele>2139.4</ele>
        <time>2017-07-28T13:26:35Z</time>
      </trkpt>
      <trkpt lat="44.9591400" lon="6.7329180">
        <ele>2138.8</ele>
        <time>2017-07-28T13:26:36Z</time>
      </trkpt>
      <trkpt lat="44.9590200" lon="6.7328960">
        <ele>2137.2</ele>
        <time>2017-07-28T13:26:38Z</time>
      </trkpt>
      <trkpt lat="44.9589710" lon="6.7328770">
        <ele>2136.4</ele>
        <time>2017-07-28T13:26:39Z</time>
      </trkpt>
      <trkpt lat="44.9589280" lon="6.7328540">
        <ele>2135.2</ele>
        <time>2017-07-28T13:26:40Z</time>
      </trkpt>
      <trkpt lat="44.9588690" lon="6.7327890">
        <ele>2133.8</ele>
        <time>2017-07-28T13:26:42Z</time>
      </trkpt>
      <trkpt lat="44.9588420" lon="6.7327530">
        <ele>2133.6</ele>
        <time>2017-07-28T13:26:43Z</time>
      </trkpt>
      <trkpt lat="44.9587860" lon="6.7327170">
        <ele>2132.6</ele>
        <time>2017-07-28T13:26:45Z</time>
      </trkpt>
      <trkpt lat="44.9587310" lon="6.7327240">
        <ele>2131.4</ele>
        <time>2017-07-28T13:26:47Z</time>
      </trkpt>
      <trkpt lat="44.9587040" lon="6.7327390">
        <ele>2129.8</ele>
        <time>2017-07-28T13:26:48Z</time>
      </trkpt>
      <trkpt lat="44.9586630" lon="6.7327710">
        <ele>2128.6</ele>
        <time>2017-07-28T13:26:50Z</time>
      </trkpt>
      <trkpt lat="44.9586480" lon="6.7327770">
        <ele>2128.2</ele>
        <time>2017-07-28T13:26:51Z</time>
      </trkpt>
      <trkpt lat="44.9586300" lon="6.7327860">
        <ele>2127.6</ele>
        <time>2017-07-28T13:26:52Z</time>
      </trkpt>
      <trkpt lat="44.9585800" lon="6.7328090">
        <ele>2127.0</ele>
        <time>2017-07-28T13:26:54Z</time>
      </trkpt>
      <trkpt lat="44.9585530" lon="6.7328230">
        <ele>2126.8</ele>
        <time>2017-07-28T13:26:55Z</time>
      </trkpt>
      <trkpt lat="44.9585270" lon="6.7328370">
        <ele>2126.4</ele>
        <time>2017-07-28T13:26:56Z</time>
      </trkpt>
      <trkpt lat="44.9585020" lon="6.7328440">
        <ele>2126.4</ele>
        <time>2017-07-28T13:26:57Z</time>
      </trkpt>
      <trkpt lat="44.9584490" lon="6.7328780">
        <ele>2126.0</ele>
        <time>2017-07-28T13:26:59Z</time>
      </trkpt>
      <trkpt lat="44.9584250" lon="6.7329050">
        <ele>2125.8</ele>
        <time>2017-07-28T13:27:00Z</time>
      </trkpt>
      <trkpt lat="44.9583770" lon="6.7329530">
        <ele>2125.6</ele>
        <time>2017-07-28T13:27:02Z</time>
      </trkpt>
      <trkpt lat="44.9582940" lon="6.7330060">
        <ele>2125.6</ele>
        <time>2017-07-28T13:27:05Z</time>
      </trkpt>
      <trkpt lat="44.9582590" lon="6.7330270">
        <ele>2125.6</ele>
        <time>2017-07-28T13:27:06Z</time>
      </trkpt>
      <trkpt lat="44.9581290" lon="6.7330970">
        <ele>2125.4</ele>
        <time>2017-07-28T13:27:09Z</time>
      </trkpt>
      <trkpt lat="44.9580500" lon="6.7331540">
        <ele>2125.6</ele>
        <time>2017-07-28T13:27:11Z</time>
      </trkpt>
      <trkpt lat="44.9580130" lon="6.7331870">
        <ele>2125.4</ele>
        <time>2017-07-28T13:27:12Z</time>
      </trkpt>
      <trkpt lat="44.9578780" lon="6.7333150">
        <ele>2125.4</ele>
        <time>2017-07-28T13:27:16Z</time>
      </trkpt>
      <trkpt lat="44.9578100" lon="6.7333970">
        <ele>2125.2</ele>
        <time>2017-07-28T13:27:18Z</time>
      </trkpt>
      <trkpt lat="44.9577740" lon="6.7334400">
        <ele>2125.4</ele>
        <time>2017-07-28T13:27:19Z</time>
      </trkpt>
      <trkpt lat="44.9576730" lon="6.7334850">
        <ele>2125.4</ele>
        <time>2017-07-28T13:27:21Z</time>
      </trkpt>
      <trkpt lat="44.9574590" lon="6.7335170">
        <ele>2124.6</ele>
        <time>2017-07-28T13:27:24Z</time>
      </trkpt>
      <trkpt lat="44.9573740" lon="6.7335460">
        <ele>2124.0</ele>
        <time>2017-07-28T13:27:25Z</time>
      </trkpt>
      <trkpt lat="44.9571290" lon="6.7337210">
        <ele>2123.4</ele>
        <time>2017-07-28T13:27:28Z</time>
      </trkpt>
      <trkpt lat="44.9569610" lon="6.7338360">
        <ele>2123.0</ele>
        <time>2017-07-28T13:27:30Z</time>
      </trkpt>
      <trkpt lat="44.9568090" lon="6.7339260">
        <ele>2121.8</ele>
        <time>2017-07-28T13:27:32Z</time>
      </trkpt>
      <trkpt lat="44.9566090" lon="6.7340020">
        <ele>2122.0</ele>
        <time>2017-07-28T13:27:35Z</time>
      </trkpt>
      <trkpt lat="44.9564990" lon="6.7340510">
        <ele>2122.0</ele>
        <time>2017-07-28T13:27:37Z</time>
      </trkpt>
      <trkpt lat="44.9564260" lon="6.7341430">
        <ele>2122.4</ele>
        <time>2017-07-28T13:27:39Z</time>
      </trkpt>
      <trkpt lat="44.9563940" lon="6.7342000">
        <ele>2122.6</ele>
        <time>2017-07-28T13:27:40Z</time>
      </trkpt>
      <trkpt lat="44.9563330" lon="6.7343150">
        <ele>2122.8</ele>
        <time>2017-07-28T13:27:42Z</time>
      </trkpt>
      <trkpt lat="44.9562000" lon="6.7344920">
        <ele>2122.6</ele>
        <time>2017-07-28T13:27:45Z</time>
      </trkpt>
      <trkpt lat="44.9560300" lon="6.7346420">
        <ele>2121.8</ele>
        <time>2017-07-28T13:27:48Z</time>
      </trkpt>
      <trkpt lat="44.9559940" lon="6.7346800">
        <ele>2121.6</ele>
        <time>2017-07-28T13:27:49Z</time>
      </trkpt>
      <trkpt lat="44.9559720" lon="6.7347110">
        <ele>2121.4</ele>
        <time>2017-07-28T13:27:50Z</time>
      </trkpt>
      <trkpt lat="44.9559560" lon="6.7347410">
        <ele>2121.2</ele>
        <time>2017-07-28T13:27:51Z</time>
      </trkpt>
      <trkpt lat="44.9559400" lon="6.7347660">
        <ele>2120.8</ele>
        <time>2017-07-28T13:27:52Z</time>
      </trkpt>
      <trkpt lat="44.9559280" lon="6.7347950">
        <ele>2120.4</ele>
        <time>2017-07-28T13:27:53Z</time>
      </trkpt>
      <trkpt lat="44.9559020" lon="6.7349310">
        <ele>2119.8</ele>
        <time>2017-07-28T13:27:56Z</time>
      </trkpt>
      <trkpt lat="44.9558970" lon="6.7350180">
        <ele>2118.8</ele>
        <time>2017-07-28T13:27:58Z</time>
      </trkpt>
      <trkpt lat="44.9558910" lon="6.7350550">
        <ele>2118.4</ele>
        <time>2017-07-28T13:27:59Z</time>
      </trkpt>
      <trkpt lat="44.9558770" lon="6.7350850">
        <ele>2118.0</ele>
        <time>2017-07-28T13:28:00Z</time>
      </trkpt>
      <trkpt lat="44.9558540" lon="6.7351050">
        <ele>2117.6</ele>
        <time>2017-07-28T13:28:01Z</time>
      </trkpt>
      <trkpt lat="44.9558220" lon="6.7351130">
        <ele>2116.8</ele>
        <time>2017-07-28T13:28:02Z</time>
      </trkpt>
      <trkpt lat="44.9557600" lon="6.7350840">
        <ele>2115.8</ele>
        <time>2017-07-28T13:28:04Z</time>
      </trkpt>
      <trkpt lat="44.9557070" lon="6.7350350">
        <ele>2114.2</ele>
        <time>2017-07-28T13:28:07Z</time>
      </trkpt>
      <trkpt lat="44.9556710" lon="6.7350190">
        <ele>2111.2</ele>
        <time>2017-07-28T13:28:13Z</time>
      </trkpt>
      <trkpt lat="44.9556110" lon="6.7350190">
        <ele>2110.2</ele>
        <time>2017-07-28T13:28:15Z</time>
      </trkpt>
      <trkpt lat="44.9555360" lon="6.7350290">
        <ele>2108.8</ele>
        <time>2017-07-28T13:28:17Z</time>
      </trkpt>
      <trkpt lat="44.9554920" lon="6.7350310">
        <ele>2108.0</ele>
        <time>2017-07-28T13:28:18Z</time>
      </trkpt>
      <trkpt lat="44.9554480" lon="6.7350250">
        <ele>2107.2</ele>
        <time>2017-07-28T13:28:19Z</time>
      </trkpt>
      <trkpt lat="44.9554010" lon="6.7350180">
        <ele>2106.4</ele>
        <time>2017-07-28T13:28:20Z</time>
      </trkpt>
      <trkpt lat="44.9553530" lon="6.7350190">
        <ele>2105.6</ele>
        <time>2017-07-28T13:28:21Z</time>
      </trkpt>
      <trkpt lat="44.9552880" lon="6.7350610">
        <ele>2104.2</ele>
        <time>2017-07-28T13:28:23Z</time>
      </trkpt>
      <trkpt lat="44.9552640" lon="6.7350900">
        <ele>2102.6</ele>
        <time>2017-07-28T13:28:24Z</time>
      </trkpt>
      <trkpt lat="44.9552180" lon="6.7351370">
        <ele>2101.0</ele>
        <time>2017-07-28T13:28:26Z</time>
      </trkpt>
      <trkpt lat="44.9551580" lon="6.7351630">
        <ele>2099.8</ele>
        <time>2017-07-28T13:28:28Z</time>
      </trkpt>
      <trkpt lat="44.9551000" lon="6.7351760">
        <ele>2098.2</ele>
        <time>2017-07-28T13:28:30Z</time>
      </trkpt>
      <trkpt lat="44.9550690" lon="6.7351850">
        <ele>2097.6</ele>
        <time>2017-07-28T13:28:31Z</time>
      </trkpt>
      <trkpt lat="44.9550360" lon="6.7351950">
        <ele>2096.8</ele>
        <time>2017-07-28T13:28:32Z</time>
      </trkpt>
      <trkpt lat="44.9549610" lon="6.7352310">
        <ele>2094.8</ele>
        <time>2017-07-28T13:28:34Z</time>
      </trkpt>
      <trkpt lat="44.9548750" lon="6.7352820">
        <ele>2093.4</ele>
        <time>2017-07-28T13:28:36Z</time>
      </trkpt>
      <trkpt lat="44.9548130" lon="6.7352910">
        <ele>2091.6</ele>
        <time>2017-07-28T13:28:38Z</time>
      </trkpt>
      <trkpt lat="44.9547900" lon="6.7352670">
        <ele>2090.6</ele>
        <time>2017-07-28T13:28:39Z</time>
      </trkpt>
      <trkpt lat="44.9547630" lon="6.7352350">
        <ele>2090.0</ele>
        <time>2017-07-28T13:28:40Z</time>
      </trkpt>
      <trkpt lat="44.9546970" lon="6.7351880">
        <ele>2088.4</ele>
        <time>2017-07-28T13:28:42Z</time>
      </trkpt>
      <trkpt lat="44.9546660" lon="6.7351760">
        <ele>2087.4</ele>
        <time>2017-07-28T13:28:43Z</time>
      </trkpt>
      <trkpt lat="44.9546400" lon="6.7351630">
        <ele>2086.4</ele>
        <time>2017-07-28T13:28:44Z</time>
      </trkpt>
      <trkpt lat="44.9545780" lon="6.7351510">
        <ele>2084.4</ele>
        <time>2017-07-28T13:28:46Z</time>
      </trkpt>
      <trkpt lat="44.9545380" lon="6.7351460">
        <ele>2083.4</ele>
        <time>2017-07-28T13:28:47Z</time>
      </trkpt>
      <trkpt lat="44.9544990" lon="6.7351340">
        <ele>2081.4</ele>
        <time>2017-07-28T13:28:48Z</time>
      </trkpt>
      <trkpt lat="44.9544610" lon="6.7351200">
        <ele>2080.0</ele>
        <time>2017-07-28T13:28:49Z</time>
      </trkpt>
      <trkpt lat="44.9544260" lon="6.7351120">
        <ele>2079.0</ele>
        <time>2017-07-28T13:28:50Z</time>
      </trkpt>
      <trkpt lat="44.9543540" lon="6.7350820">
        <ele>2077.0</ele>
        <time>2017-07-28T13:28:52Z</time>
      </trkpt>
      <trkpt lat="44.9543140" lon="6.7350740">
        <ele>2075.8</ele>
        <time>2017-07-28T13:28:53Z</time>
      </trkpt>
      <trkpt lat="44.9542750" lon="6.7350630">
        <ele>2074.6</ele>
        <time>2017-07-28T13:28:54Z</time>
      </trkpt>
      <trkpt lat="44.9542370" lon="6.7350320">
        <ele>2073.4</ele>
        <time>2017-07-28T13:28:55Z</time>
      </trkpt>
      <trkpt lat="44.9542000" lon="6.7349860">
        <ele>2072.4</ele>
        <time>2017-07-28T13:28:56Z</time>
      </trkpt>
      <trkpt lat="44.9541610" lon="6.7349420">
        <ele>2071.0</ele>
        <time>2017-07-28T13:28:57Z</time>
      </trkpt>
      <trkpt lat="44.9540800" lon="6.7349260">
        <ele>2069.0</ele>
        <time>2017-07-28T13:28:59Z</time>
      </trkpt>
      <trkpt lat="44.9540000" lon="6.7349790">
        <ele>2067.2</ele>
        <time>2017-07-28T13:29:01Z</time>
      </trkpt>
      <trkpt lat="44.9539100" lon="6.7350490">
        <ele>2065.4</ele>
        <time>2017-07-28T13:29:03Z</time>
      </trkpt>
      <trkpt lat="44.9538660" lon="6.7350750">
        <ele>2064.6</ele>
        <time>2017-07-28T13:29:04Z</time>
      </trkpt>
      <trkpt lat="44.9538250" lon="6.7351000">
        <ele>2064.0</ele>
        <time>2017-07-28T13:29:05Z</time>
      </trkpt>
      <trkpt lat="44.9537050" lon="6.7351480">
        <ele>2062.6</ele>
        <time>2017-07-28T13:29:08Z</time>
      </trkpt>
      <trkpt lat="44.9536710" lon="6.7351650">
        <ele>2062.4</ele>
        <time>2017-07-28T13:29:09Z</time>
      </trkpt>
      <trkpt lat="44.9535390" lon="6.7352470">
        <ele>2061.6</ele>
        <time>2017-07-28T13:29:12Z</time>
      </trkpt>
      <trkpt lat="44.9534850" lon="6.7352810">
        <ele>2061.0</ele>
        <time>2017-07-28T13:29:13Z</time>
      </trkpt>
      <trkpt lat="44.9534230" lon="6.7353120">
        <ele>2060.8</ele>
        <time>2017-07-28T13:29:14Z</time>
      </trkpt>
      <trkpt lat="44.9531980" lon="6.7354260">
        <ele>2060.2</ele>
        <time>2017-07-28T13:29:17Z</time>
      </trkpt>
      <trkpt lat="44.9531260" lon="6.7354690">
        <ele>2059.4</ele>
        <time>2017-07-28T13:29:18Z</time>
      </trkpt>
      <trkpt lat="44.9530060" lon="6.7355160">
        <ele>2058.2</ele>
        <time>2017-07-28T13:29:20Z</time>
      </trkpt>
      <trkpt lat="44.9527520" lon="6.7355550">
        <ele>2057.0</ele>
        <time>2017-07-28T13:29:24Z</time>
      </trkpt>
      <trkpt lat="44.9526850" lon="6.7355800">
        <ele>2056.6</ele>
        <time>2017-07-28T13:29:25Z</time>
      </trkpt>
      <trkpt lat="44.9526170" lon="6.7356180">
        <ele>2056.0</ele>
        <time>2017-07-28T13:29:26Z</time>
      </trkpt>
      <trkpt lat="44.9525520" lon="6.7356620">
        <ele>2055.6</ele>
        <time>2017-07-28T13:29:27Z</time>
      </trkpt>
      <trkpt lat="44.9522750" lon="6.7358140">
        <ele>2054.6</ele>
        <time>2017-07-28T13:29:31Z</time>
      </trkpt>
      <trkpt lat="44.9522020" lon="6.7358360">
        <ele>2054.0</ele>
        <time>2017-07-28T13:29:32Z</time>
      </trkpt>
      <trkpt lat="44.9520040" lon="6.7358250">
        <ele>2053.2</ele>
        <time>2017-07-28T13:29:35Z</time>
      </trkpt>
      <trkpt lat="44.9519380" lon="6.7357910">
        <ele>2052.4</ele>
        <time>2017-07-28T13:29:36Z</time>
      </trkpt>
      <trkpt lat="44.9517910" lon="6.7357480">
        <ele>2051.4</ele>
        <time>2017-07-28T13:29:38Z</time>
      </trkpt>
      <trkpt lat="44.9516600" lon="6.7357490">
        <ele>2050.2</ele>
        <time>2017-07-28T13:29:40Z</time>
      </trkpt>
      <trkpt lat="44.9515320" lon="6.7357360">
        <ele>2049.4</ele>
        <time>2017-07-28T13:29:42Z</time>
      </trkpt>
      <trkpt lat="44.9514640" lon="6.7357330">
        <ele>2048.8</ele>
        <time>2017-07-28T13:29:43Z</time>
      </trkpt>
      <trkpt lat="44.9513210" lon="6.7357640">
        <ele>2047.6</ele>
        <time>2017-07-28T13:29:45Z</time>
      </trkpt>
      <trkpt lat="44.9512560" lon="6.7357990">
        <ele>2047.2</ele>
        <time>2017-07-28T13:29:46Z</time>
      </trkpt>
      <trkpt lat="44.9511300" lon="6.7358940">
        <ele>2046.2</ele>
        <time>2017-07-28T13:29:48Z</time>
      </trkpt>
      <trkpt lat="44.9510630" lon="6.7359380">
        <ele>2045.6</ele>
        <time>2017-07-28T13:29:49Z</time>
      </trkpt>
      <trkpt lat="44.9509890" lon="6.7359820">
        <ele>2045.2</ele>
        <time>2017-07-28T13:29:50Z</time>
      </trkpt>
      <trkpt lat="44.9509140" lon="6.7360280">
        <ele>2044.2</ele>
        <time>2017-07-28T13:29:51Z</time>
      </trkpt>
      <trkpt lat="44.9508410" lon="6.7360710">
        <ele>2043.2</ele>
        <time>2017-07-28T13:29:52Z</time>
      </trkpt>
      <trkpt lat="44.9507750" lon="6.7361250">
        <ele>2042.2</ele>
        <time>2017-07-28T13:29:53Z</time>
      </trkpt>
      <trkpt lat="44.9506540" lon="6.7362770">
        <ele>2040.2</ele>
        <time>2017-07-28T13:29:55Z</time>
      </trkpt>
      <trkpt lat="44.9505240" lon="6.7364490">
        <ele>2038.4</ele>
        <time>2017-07-28T13:29:57Z</time>
      </trkpt>
      <trkpt lat="44.9504660" lon="6.7365290">
        <ele>2037.4</ele>
        <time>2017-07-28T13:29:58Z</time>
      </trkpt>
      <trkpt lat="44.9504040" lon="6.7366010">
        <ele>2036.2</ele>
        <time>2017-07-28T13:29:59Z</time>
      </trkpt>
      <trkpt lat="44.9503380" lon="6.7366680">
        <ele>2034.2</ele>
        <time>2017-07-28T13:30:00Z</time>
      </trkpt>
      <trkpt lat="44.9502740" lon="6.7367390">
        <ele>2033.0</ele>
        <time>2017-07-28T13:30:01Z</time>
      </trkpt>
      <trkpt lat="44.9501490" lon="6.7368850">
        <ele>2031.4</ele>
        <time>2017-07-28T13:30:03Z</time>
      </trkpt>
      <trkpt lat="44.9500130" lon="6.7370120">
        <ele>2029.4</ele>
        <time>2017-07-28T13:30:05Z</time>
      </trkpt>
      <trkpt lat="44.9499410" lon="6.7370630">
        <ele>2028.2</ele>
        <time>2017-07-28T13:30:06Z</time>
      </trkpt>
      <trkpt lat="44.9498620" lon="6.7371020">
        <ele>2026.8</ele>
        <time>2017-07-28T13:30:07Z</time>
      </trkpt>
      <trkpt lat="44.9497780" lon="6.7371310">
        <ele>2025.6</ele>
        <time>2017-07-28T13:30:08Z</time>
      </trkpt>
      <trkpt lat="44.9496950" lon="6.7371640">
        <ele>2024.2</ele>
        <time>2017-07-28T13:30:09Z</time>
      </trkpt>
      <trkpt lat="44.9495350" lon="6.7372610">
        <ele>2022.0</ele>
        <time>2017-07-28T13:30:11Z</time>
      </trkpt>
      <trkpt lat="44.9494540" lon="6.7373120">
        <ele>2021.0</ele>
        <time>2017-07-28T13:30:12Z</time>
      </trkpt>
      <trkpt lat="44.9493720" lon="6.7373590">
        <ele>2019.4</ele>
        <time>2017-07-28T13:30:13Z</time>
      </trkpt>
      <trkpt lat="44.9492940" lon="6.7374040">
        <ele>2018.2</ele>
        <time>2017-07-28T13:30:14Z</time>
      </trkpt>
      <trkpt lat="44.9492190" lon="6.7374480">
        <ele>2016.8</ele>
        <time>2017-07-28T13:30:15Z</time>
      </trkpt>
      <trkpt lat="44.9490710" lon="6.7375250">
        <ele>2014.4</ele>
        <time>2017-07-28T13:30:17Z</time>
      </trkpt>
      <trkpt lat="44.9489990" lon="6.7375510">
        <ele>2013.2</ele>
        <time>2017-07-28T13:30:18Z</time>
      </trkpt>
      <trkpt lat="44.9489290" lon="6.7375590">
        <ele>2011.4</ele>
        <time>2017-07-28T13:30:19Z</time>
      </trkpt>
      <trkpt lat="44.9488600" lon="6.7375480">
        <ele>2010.0</ele>
        <time>2017-07-28T13:30:20Z</time>
      </trkpt>
      <trkpt lat="44.9487950" lon="6.7375410">
        <ele>2008.6</ele>
        <time>2017-07-28T13:30:21Z</time>
      </trkpt>
      <trkpt lat="44.9487320" lon="6.7375490">
        <ele>2007.4</ele>
        <time>2017-07-28T13:30:22Z</time>
      </trkpt>
      <trkpt lat="44.9486660" lon="6.7375640">
        <ele>2006.2</ele>
        <time>2017-07-28T13:30:23Z</time>
      </trkpt>
      <trkpt lat="44.9485940" lon="6.7375810">
        <ele>2004.0</ele>
        <time>2017-07-28T13:30:24Z</time>
      </trkpt>
      <trkpt lat="44.9484310" lon="6.7375980">
        <ele>2002.2</ele>
        <time>2017-07-28T13:30:26Z</time>
      </trkpt>
      <trkpt lat="44.9482500" lon="6.7376380">
        <ele>2000.0</ele>
        <time>2017-07-28T13:30:28Z</time>
      </trkpt>
      <trkpt lat="44.9481550" lon="6.7376690">
        <ele>1999.0</ele>
        <time>2017-07-28T13:30:29Z</time>
      </trkpt>
      <trkpt lat="44.9480530" lon="6.7376780">
        <ele>1997.8</ele>
        <time>2017-07-28T13:30:30Z</time>
      </trkpt>
      <trkpt lat="44.9479470" lon="6.7376720">
        <ele>1997.0</ele>
        <time>2017-07-28T13:30:31Z</time>
      </trkpt>
      <trkpt lat="44.9478390" lon="6.7376630">
        <ele>1995.8</ele>
        <time>2017-07-28T13:30:32Z</time>
      </trkpt>
      <trkpt lat="44.9476280" lon="6.7376340">
        <ele>1994.2</ele>
        <time>2017-07-28T13:30:34Z</time>
      </trkpt>
      <trkpt lat="44.9475310" lon="6.7376390">
        <ele>1993.2</ele>
        <time>2017-07-28T13:30:35Z</time>
      </trkpt>
      <trkpt lat="44.9474380" lon="6.7376450">
        <ele>1992.0</ele>
        <time>2017-07-28T13:30:36Z</time>
      </trkpt>
      <trkpt lat="44.9473430" lon="6.7376490">
        <ele>1991.0</ele>
        <time>2017-07-28T13:30:37Z</time>
      </trkpt>
      <trkpt lat="44.9471580" lon="6.7376680">
        <ele>1989.0</ele>
        <time>2017-07-28T13:30:39Z</time>
      </trkpt>
      <trkpt lat="44.9470650" lon="6.7376790">
        <ele>1988.0</ele>
        <time>2017-07-28T13:30:40Z</time>
      </trkpt>
      <trkpt lat="44.9469700" lon="6.7377060">
        <ele>1987.2</ele>
        <time>2017-07-28T13:30:41Z</time>
      </trkpt>
      <trkpt lat="44.9468780" lon="6.7377390">
        <ele>1986.6</ele>
        <time>2017-07-28T13:30:42Z</time>
      </trkpt>
      <trkpt lat="44.9467140" lon="6.7377930">
        <ele>1985.2</ele>
        <time>2017-07-28T13:30:44Z</time>
      </trkpt>
      <trkpt lat="44.9466340" lon="6.7378140">
        <ele>1984.2</ele>
        <time>2017-07-28T13:30:45Z</time>
      </trkpt>
      <trkpt lat="44.9465540" lon="6.7378470">
        <ele>1983.2</ele>
        <time>2017-07-28T13:30:46Z</time>
      </trkpt>
      <trkpt lat="44.9463910" lon="6.7378990">
        <ele>1981.2</ele>
        <time>2017-07-28T13:30:48Z</time>
      </trkpt>
      <trkpt lat="44.9463130" lon="6.7379160">
        <ele>1980.2</ele>
        <time>2017-07-28T13:30:49Z</time>
      </trkpt>
      <trkpt lat="44.9462390" lon="6.7379380">
        <ele>1979.4</ele>
        <time>2017-07-28T13:30:50Z</time>
      </trkpt>
      <trkpt lat="44.9461630" lon="6.7379700">
        <ele>1978.8</ele>
        <time>2017-07-28T13:30:51Z</time>
      </trkpt>
      <trkpt lat="44.9460840" lon="6.7380010">
        <ele>1978.2</ele>
        <time>2017-07-28T13:30:52Z</time>
      </trkpt>
      <trkpt lat="44.9460050" lon="6.7380420">
        <ele>1977.8</ele>
        <time>2017-07-28T13:30:53Z</time>
      </trkpt>
      <trkpt lat="44.9459260" lon="6.7380880">
        <ele>1977.0</ele>
        <time>2017-07-28T13:30:54Z</time>
      </trkpt>
      <trkpt lat="44.9457860" lon="6.7381670">
        <ele>1975.8</ele>
        <time>2017-07-28T13:30:56Z</time>
      </trkpt>
      <trkpt lat="44.9456650" lon="6.7382400">
        <ele>1975.0</ele>
        <time>2017-07-28T13:30:58Z</time>
      </trkpt>
      <trkpt lat="44.9456030" lon="6.7382770">
        <ele>1974.2</ele>
        <time>2017-07-28T13:30:59Z</time>
      </trkpt>
      <trkpt lat="44.9454680" lon="6.7383440">
        <ele>1972.8</ele>
        <time>2017-07-28T13:31:01Z</time>
      </trkpt>
      <trkpt lat="44.9453950" lon="6.7383790">
        <ele>1972.0</ele>
        <time>2017-07-28T13:31:02Z</time>
      </trkpt>
      <trkpt lat="44.9453260" lon="6.7384280">
        <ele>1971.8</ele>
        <time>2017-07-28T13:31:03Z</time>
      </trkpt>
      <trkpt lat="44.9452580" lon="6.7384840">
        <ele>1971.0</ele>
        <time>2017-07-28T13:31:04Z</time>
      </trkpt>
      <trkpt lat="44.9451160" lon="6.7385860">
        <ele>1970.0</ele>
        <time>2017-07-28T13:31:06Z</time>
      </trkpt>
      <trkpt lat="44.9450440" lon="6.7386160">
        <ele>1969.6</ele>
        <time>2017-07-28T13:31:07Z</time>
      </trkpt>
      <trkpt lat="44.9449720" lon="6.7386340">
        <ele>1969.2</ele>
        <time>2017-07-28T13:31:08Z</time>
      </trkpt>
      <trkpt lat="44.9448990" lon="6.7386470">
        <ele>1968.8</ele>
        <time>2017-07-28T13:31:09Z</time>
      </trkpt>
      <trkpt lat="44.9448210" lon="6.7386610">
        <ele>1968.4</ele>
        <time>2017-07-28T13:31:10Z</time>
      </trkpt>
      <trkpt lat="44.9446500" lon="6.7386920">
        <ele>1966.6</ele>
        <time>2017-07-28T13:31:12Z</time>
      </trkpt>
      <trkpt lat="44.9445590" lon="6.7387100">
        <ele>1966.0</ele>
        <time>2017-07-28T13:31:13Z</time>
      </trkpt>
      <trkpt lat="44.9444670" lon="6.7387300">
        <ele>1965.4</ele>
        <time>2017-07-28T13:31:14Z</time>
      </trkpt>
      <trkpt lat="44.9442860" lon="6.7387760">
        <ele>1963.8</ele>
        <time>2017-07-28T13:31:16Z</time>
      </trkpt>
      <trkpt lat="44.9440360" lon="6.7388670">
        <ele>1962.6</ele>
        <time>2017-07-28T13:31:19Z</time>
      </trkpt>
      <trkpt lat="44.9439490" lon="6.7388840">
        <ele>1962.0</ele>
        <time>2017-07-28T13:31:20Z</time>
      </trkpt>
      <trkpt lat="44.9438590" lon="6.7389060">
        <ele>1961.0</ele>
        <time>2017-07-28T13:31:21Z</time>
      </trkpt>
      <trkpt lat="44.9437690" lon="6.7389420">
        <ele>1960.4</ele>
        <time>2017-07-28T13:31:22Z</time>
      </trkpt>
      <trkpt lat="44.9436830" lon="6.7389890">
        <ele>1959.6</ele>
        <time>2017-07-28T13:31:23Z</time>
      </trkpt>
      <trkpt lat="44.9436030" lon="6.7390410">
        <ele>1959.2</ele>
        <time>2017-07-28T13:31:24Z</time>
      </trkpt>
      <trkpt lat="44.9434470" lon="6.7391350">
        <ele>1958.2</ele>
        <time>2017-07-28T13:31:26Z</time>
      </trkpt>
      <trkpt lat="44.9433650" lon="6.7391740">
        <ele>1957.6</ele>
        <time>2017-07-28T13:31:27Z</time>
      </trkpt>
      <trkpt lat="44.9432780" lon="6.7392010">
        <ele>1957.0</ele>
        <time>2017-07-28T13:31:28Z</time>
      </trkpt>
      <trkpt lat="44.9431900" lon="6.7392100">
        <ele>1956.4</ele>
        <time>2017-07-28T13:31:29Z</time>
      </trkpt>
      <trkpt lat="44.9431070" lon="6.7391980">
        <ele>1955.6</ele>
        <time>2017-07-28T13:31:30Z</time>
      </trkpt>
      <trkpt lat="44.9429590" lon="6.7391560">
        <ele>1953.8</ele>
        <time>2017-07-28T13:31:32Z</time>
      </trkpt>
      <trkpt lat="44.9428660" lon="6.7391600">
        <ele>1952.4</ele>
        <time>2017-07-28T13:31:34Z</time>
      </trkpt>
      <trkpt lat="44.9428370" lon="6.7391870">
        <ele>1950.8</ele>
        <time>2017-07-28T13:31:36Z</time>
      </trkpt>
      <trkpt lat="44.9428070" lon="6.7392090">
        <ele>1949.4</ele>
        <time>2017-07-28T13:31:38Z</time>
      </trkpt>
      <trkpt lat="44.9427540" lon="6.7392550">
        <ele>1948.2</ele>
        <time>2017-07-28T13:31:40Z</time>
      </trkpt>
      <trkpt lat="44.9426930" lon="6.7393550">
        <ele>1947.0</ele>
        <time>2017-07-28T13:31:42Z</time>
      </trkpt>
      <trkpt lat="44.9426610" lon="6.7394120">
        <ele>1946.0</ele>
        <time>2017-07-28T13:31:43Z</time>
      </trkpt>
      <trkpt lat="44.9425920" lon="6.7395300">
        <ele>1944.8</ele>
        <time>2017-07-28T13:31:45Z</time>
      </trkpt>
      <trkpt lat="44.9425510" lon="6.7395830">
        <ele>1944.4</ele>
        <time>2017-07-28T13:31:46Z</time>
      </trkpt>
      <trkpt lat="44.9424570" lon="6.7396930">
        <ele>1943.4</ele>
        <time>2017-07-28T13:31:48Z</time>
      </trkpt>
      <trkpt lat="44.9423570" lon="6.7397990">
        <ele>1942.2</ele>
        <time>2017-07-28T13:31:50Z</time>
      </trkpt>
      <trkpt lat="44.9423080" lon="6.7398370">
        <ele>1941.4</ele>
        <time>2017-07-28T13:31:51Z</time>
      </trkpt>
      <trkpt lat="44.9422580" lon="6.7398640">
        <ele>1940.6</ele>
        <time>2017-07-28T13:31:52Z</time>
      </trkpt>
      <trkpt lat="44.9422110" lon="6.7399000">
        <ele>1940.0</ele>
        <time>2017-07-28T13:31:53Z</time>
      </trkpt>
      <trkpt lat="44.9421000" lon="6.7399870">
        <ele>1939.2</ele>
        <time>2017-07-28T13:31:55Z</time>
      </trkpt>
      <trkpt lat="44.9419730" lon="6.7400780">
        <ele>1937.4</ele>
        <time>2017-07-28T13:31:57Z</time>
      </trkpt>
      <trkpt lat="44.9419150" lon="6.7401230">
        <ele>1936.4</ele>
        <time>2017-07-28T13:31:58Z</time>
      </trkpt>
      <trkpt lat="44.9418080" lon="6.7402010">
        <ele>1934.0</ele>
        <time>2017-07-28T13:32:00Z</time>
      </trkpt>
      <trkpt lat="44.9417570" lon="6.7402350">
        <ele>1933.0</ele>
        <time>2017-07-28T13:32:01Z</time>
      </trkpt>
      <trkpt lat="44.9417050" lon="6.7402690">
        <ele>1932.2</ele>
        <time>2017-07-28T13:32:02Z</time>
      </trkpt>
      <trkpt lat="44.9416550" lon="6.7403110">
        <ele>1931.4</ele>
        <time>2017-07-28T13:32:03Z</time>
      </trkpt>
      <trkpt lat="44.9415750" lon="6.7404260">
        <ele>1930.0</ele>
        <time>2017-07-28T13:32:05Z</time>
      </trkpt>
      <trkpt lat="44.9415370" lon="6.7404860">
        <ele>1929.4</ele>
        <time>2017-07-28T13:32:06Z</time>
      </trkpt>
      <trkpt lat="44.9414980" lon="6.7405450">
        <ele>1928.4</ele>
        <time>2017-07-28T13:32:07Z</time>
      </trkpt>
      <trkpt lat="44.9414600" lon="6.7406010">
        <ele>1927.4</ele>
        <time>2017-07-28T13:32:08Z</time>
      </trkpt>
      <trkpt lat="44.9414250" lon="6.7406500">
        <ele>1926.0</ele>
        <time>2017-07-28T13:32:09Z</time>
      </trkpt>
      <trkpt lat="44.9413560" lon="6.7407230">
        <ele>1924.0</ele>
        <time>2017-07-28T13:32:11Z</time>
      </trkpt>
      <trkpt lat="44.9413170" lon="6.7407460">
        <ele>1923.2</ele>
        <time>2017-07-28T13:32:12Z</time>
      </trkpt>
      <trkpt lat="44.9412790" lon="6.7407560">
        <ele>1922.4</ele>
        <time>2017-07-28T13:32:13Z</time>
      </trkpt>
      <trkpt lat="44.9412130" lon="6.7407340">
        <ele>1920.8</ele>
        <time>2017-07-28T13:32:15Z</time>
      </trkpt>
      <trkpt lat="44.9411560" lon="6.7407070">
        <ele>1919.4</ele>
        <time>2017-07-28T13:32:17Z</time>
      </trkpt>
      <trkpt lat="44.9410870" lon="6.7407100">
        <ele>1918.2</ele>
        <time>2017-07-28T13:32:19Z</time>
      </trkpt>
      <trkpt lat="44.9409980" lon="6.7407260">
        <ele>1916.6</ele>
        <time>2017-07-28T13:32:21Z</time>
      </trkpt>
      <trkpt lat="44.9409120" lon="6.7407660">
        <ele>1915.0</ele>
        <time>2017-07-28T13:32:23Z</time>
      </trkpt>
      <trkpt lat="44.9408700" lon="6.7407870">
        <ele>1913.2</ele>
        <time>2017-07-28T13:32:24Z</time>
      </trkpt>
      <trkpt lat="44.9408260" lon="6.7408070">
        <ele>1912.2</ele>
        <time>2017-07-28T13:32:25Z</time>
      </trkpt>
      <trkpt lat="44.9407720" lon="6.7408320">
        <ele>1911.2</ele>
        <time>2017-07-28T13:32:26Z</time>
      </trkpt>
      <trkpt lat="44.9407110" lon="6.7408500">
        <ele>1910.0</ele>
        <time>2017-07-28T13:32:27Z</time>
      </trkpt>
      <trkpt lat="44.9406480" lon="6.7408630">
        <ele>1909.0</ele>
        <time>2017-07-28T13:32:28Z</time>
      </trkpt>
      <trkpt lat="44.9405840" lon="6.7408690">
        <ele>1907.8</ele>
        <time>2017-07-28T13:32:29Z</time>
      </trkpt>
      <trkpt lat="44.9405190" lon="6.7408620">
        <ele>1906.8</ele>
        <time>2017-07-28T13:32:30Z</time>
      </trkpt>
      <trkpt lat="44.9404460" lon="6.7408400">
        <ele>1905.6</ele>
        <time>2017-07-28T13:32:31Z</time>
      </trkpt>
      <trkpt lat="44.9403740" lon="6.7408100">
        <ele>1904.6</ele>
        <time>2017-07-28T13:32:32Z</time>
      </trkpt>
      <trkpt lat="44.9403090" lon="6.7407820">
        <ele>1903.4</ele>
        <time>2017-07-28T13:32:33Z</time>
      </trkpt>
      <trkpt lat="44.9401700" lon="6.7407340">
        <ele>1901.4</ele>
        <time>2017-07-28T13:32:35Z</time>
      </trkpt>
      <trkpt lat="44.9400900" lon="6.7407230">
        <ele>1900.2</ele>
        <time>2017-07-28T13:32:36Z</time>
      </trkpt>
      <trkpt lat="44.9400120" lon="6.7407230">
        <ele>1898.6</ele>
        <time>2017-07-28T13:32:37Z</time>
      </trkpt>
      <trkpt lat="44.9399440" lon="6.7407280">
        <ele>1896.6</ele>
        <time>2017-07-28T13:32:38Z</time>
      </trkpt>
      <trkpt lat="44.9398830" lon="6.7407390">
        <ele>1895.2</ele>
        <time>2017-07-28T13:32:39Z</time>
      </trkpt>
      <trkpt lat="44.9398310" lon="6.7407510">
        <ele>1894.0</ele>
        <time>2017-07-28T13:32:40Z</time>
      </trkpt>
      <trkpt lat="44.9397320" lon="6.7407810">
        <ele>1892.2</ele>
        <time>2017-07-28T13:32:42Z</time>
      </trkpt>
      <trkpt lat="44.9396890" lon="6.7408270">
        <ele>1891.2</ele>
        <time>2017-07-28T13:32:43Z</time>
      </trkpt>
      <trkpt lat="44.9396520" lon="6.7408800">
        <ele>1890.2</ele>
        <time>2017-07-28T13:32:44Z</time>
      </trkpt>
      <trkpt lat="44.9395720" lon="6.7409770">
        <ele>1888.2</ele>
        <time>2017-07-28T13:32:46Z</time>
      </trkpt>
      <trkpt lat="44.9394740" lon="6.7410630">
        <ele>1885.4</ele>
        <time>2017-07-28T13:32:48Z</time>
      </trkpt>
      <trkpt lat="44.9393860" lon="6.7411490">
        <ele>1883.8</ele>
        <time>2017-07-28T13:32:50Z</time>
      </trkpt>
      <trkpt lat="44.9393530" lon="6.7411940">
        <ele>1883.0</ele>
        <time>2017-07-28T13:32:51Z</time>
      </trkpt>
      <trkpt lat="44.9393260" lon="6.7412370">
        <ele>1882.0</ele>
        <time>2017-07-28T13:32:52Z</time>
      </trkpt>
      <trkpt lat="44.9392970" lon="6.7412790">
        <ele>1881.0</ele>
        <time>2017-07-28T13:32:53Z</time>
      </trkpt>
      <trkpt lat="44.9392320" lon="6.7413460">
        <ele>1879.0</ele>
        <time>2017-07-28T13:32:55Z</time>
      </trkpt>
      <trkpt lat="44.9391710" lon="6.7413950">
        <ele>1877.4</ele>
        <time>2017-07-28T13:32:57Z</time>
      </trkpt>
      <trkpt lat="44.9391300" lon="6.7414260">
        <ele>1875.8</ele>
        <time>2017-07-28T13:32:59Z</time>
      </trkpt>
      <trkpt lat="44.9390880" lon="6.7414550">
        <ele>1874.6</ele>
        <time>2017-07-28T13:33:01Z</time>
      </trkpt>
      <trkpt lat="44.9390470" lon="6.7414740">
        <ele>1873.8</ele>
        <time>2017-07-28T13:33:03Z</time>
      </trkpt>
      <trkpt lat="44.9390230" lon="6.7414850">
        <ele>1873.4</ele>
        <time>2017-07-28T13:33:04Z</time>
      </trkpt>
      <trkpt lat="44.9389810" lon="6.7414950">
        <ele>1872.8</ele>
        <time>2017-07-28T13:33:06Z</time>
      </trkpt>
      <trkpt lat="44.9389550" lon="6.7415010">
        <ele>1872.4</ele>
        <time>2017-07-28T13:33:08Z</time>
      </trkpt>
      <trkpt lat="44.9388240" lon="6.7415650">
        <ele>1871.0</ele>
        <time>2017-07-28T13:33:34Z</time>
      </trkpt>
      <trkpt lat="44.9388010" lon="6.7415720">
        <ele>1871.0</ele>
        <time>2017-07-28T13:33:35Z</time>
      </trkpt>
      <trkpt lat="44.9387430" lon="6.7415920">
        <ele>1870.2</ele>
        <time>2017-07-28T13:33:37Z</time>
      </trkpt>
      <trkpt lat="44.9387090" lon="6.7416040">
        <ele>1869.8</ele>
        <time>2017-07-28T13:33:38Z</time>
      </trkpt>
      <trkpt lat="44.9386690" lon="6.7416180">
        <ele>1869.4</ele>
        <time>2017-07-28T13:33:39Z</time>
      </trkpt>
      <trkpt lat="44.9385720" lon="6.7416880">
        <ele>1868.8</ele>
        <time>2017-07-28T13:33:41Z</time>
      </trkpt>
      <trkpt lat="44.9384920" lon="6.7418080">
        <ele>1867.6</ele>
        <time>2017-07-28T13:33:43Z</time>
      </trkpt>
      <trkpt lat="44.9384630" lon="6.7418730">
        <ele>1867.2</ele>
        <time>2017-07-28T13:33:44Z</time>
      </trkpt>
      <trkpt lat="44.9384360" lon="6.7419360">
        <ele>1866.4</ele>
        <time>2017-07-28T13:33:45Z</time>
      </trkpt>
      <trkpt lat="44.9383540" lon="6.7420600">
        <ele>1864.8</ele>
        <time>2017-07-28T13:33:47Z</time>
      </trkpt>
      <trkpt lat="44.9383040" lon="6.7421190">
        <ele>1863.8</ele>
        <time>2017-07-28T13:33:48Z</time>
      </trkpt>
      <trkpt lat="44.9382550" lon="6.7421500">
        <ele>1863.0</ele>
        <time>2017-07-28T13:33:49Z</time>
      </trkpt>
      <trkpt lat="44.9381640" lon="6.7421410">
        <ele>1862.2</ele>
        <time>2017-07-28T13:33:51Z</time>
      </trkpt>
      <trkpt lat="44.9381210" lon="6.7421160">
        <ele>1861.8</ele>
        <time>2017-07-28T13:33:52Z</time>
      </trkpt>
      <trkpt lat="44.9380290" lon="6.7420740">
        <ele>1860.8</ele>
        <time>2017-07-28T13:33:54Z</time>
      </trkpt>
      <trkpt lat="44.9379970" lon="6.7420400">
        <ele>1860.2</ele>
        <time>2017-07-28T13:33:55Z</time>
      </trkpt>
      <trkpt lat="44.9379710" lon="6.7420020">
        <ele>1859.6</ele>
        <time>2017-07-28T13:33:56Z</time>
      </trkpt>
      <trkpt lat="44.9378790" lon="6.7419130">
        <ele>1858.6</ele>
        <time>2017-07-28T13:33:59Z</time>
      </trkpt>
      <trkpt lat="44.9378440" lon="6.7418910">
        <ele>1858.0</ele>
        <time>2017-07-28T13:34:00Z</time>
      </trkpt>
      <trkpt lat="44.9377700" lon="6.7418580">
        <ele>1857.6</ele>
        <time>2017-07-28T13:34:02Z</time>
      </trkpt>
      <trkpt lat="44.9376190" lon="6.7418380">
        <ele>1857.2</ele>
        <time>2017-07-28T13:34:06Z</time>
      </trkpt>
      <trkpt lat="44.9374990" lon="6.7419250">
        <ele>1856.6</ele>
        <time>2017-07-28T13:34:10Z</time>
      </trkpt>
      <trkpt lat="44.9373980" lon="6.7419940">
        <ele>1856.6</ele>
        <time>2017-07-28T13:34:12Z</time>
      </trkpt>
      <trkpt lat="44.9373390" lon="6.7420120">
        <ele>1856.6</ele>
        <time>2017-07-28T13:34:13Z</time>
      </trkpt>
      <trkpt lat="44.9371500" lon="6.7420470">
        <ele>1856.2</ele>
        <time>2017-07-28T13:34:16Z</time>
      </trkpt>
      <trkpt lat="44.9370310" lon="6.7420590">
        <ele>1856.4</ele>
        <time>2017-07-28T13:34:18Z</time>
      </trkpt>
      <trkpt lat="44.9369140" lon="6.7420640">
        <ele>1856.4</ele>
        <time>2017-07-28T13:34:20Z</time>
      </trkpt>
      <trkpt lat="44.9368450" lon="6.7421370">
        <ele>1856.4</ele>
        <time>2017-07-28T13:34:22Z</time>
      </trkpt>
      <trkpt lat="44.9368750" lon="6.7422400">
        <ele>1856.8</ele>
        <time>2017-07-28T13:34:24Z</time>
      </trkpt>
      <trkpt lat="44.9369630" lon="6.7423110">
        <ele>1856.6</ele>
        <time>2017-07-28T13:34:26Z</time>
      </trkpt>
      <trkpt lat="44.9370020" lon="6.7423600">
        <ele>1856.4</ele>
        <time>2017-07-28T13:34:27Z</time>
      </trkpt>
      <trkpt lat="44.9370230" lon="6.7424310">
        <ele>1856.2</ele>
        <time>2017-07-28T13:34:28Z</time>
      </trkpt>
      <trkpt lat="44.9370110" lon="6.7426110">
        <ele>1855.6</ele>
        <time>2017-07-28T13:34:30Z</time>
      </trkpt>
      <trkpt lat="44.9369920" lon="6.7427120">
        <ele>1855.6</ele>
        <time>2017-07-28T13:34:31Z</time>
      </trkpt>
      <trkpt lat="44.9369620" lon="6.7428940">
        <ele>1855.0</ele>
        <time>2017-07-28T13:34:33Z</time>
      </trkpt>
      <trkpt lat="44.9369470" lon="6.7430600">
        <ele>1854.0</ele>
        <time>2017-07-28T13:34:35Z</time>
      </trkpt>
      <trkpt lat="44.9368990" lon="6.7433620">
        <ele>1852.8</ele>
        <time>2017-07-28T13:34:38Z</time>
      </trkpt>
      <trkpt lat="44.9368720" lon="6.7434780">
        <ele>1852.2</ele>
        <time>2017-07-28T13:34:39Z</time>
      </trkpt>
      <trkpt lat="44.9368400" lon="6.7435940">
        <ele>1851.6</ele>
        <time>2017-07-28T13:34:40Z</time>
      </trkpt>
      <trkpt lat="44.9367820" lon="6.7438050">
        <ele>1850.8</ele>
        <time>2017-07-28T13:34:42Z</time>
      </trkpt>
      <trkpt lat="44.9367730" lon="6.7439070">
        <ele>1850.0</ele>
        <time>2017-07-28T13:34:43Z</time>
      </trkpt>
      <trkpt lat="44.9367790" lon="6.7441210">
        <ele>1848.4</ele>
        <time>2017-07-28T13:34:45Z</time>
      </trkpt>
      <trkpt lat="44.9367750" lon="6.7442340">
        <ele>1847.8</ele>
        <time>2017-07-28T13:34:46Z</time>
      </trkpt>
      <trkpt lat="44.9367670" lon="6.7443560">
        <ele>1847.0</ele>
        <time>2017-07-28T13:34:47Z</time>
      </trkpt>
      <trkpt lat="44.9367600" lon="6.7444830">
        <ele>1845.8</ele>
        <time>2017-07-28T13:34:48Z</time>
      </trkpt>
      <trkpt lat="44.9367670" lon="6.7446000">
        <ele>1845.0</ele>
        <time>2017-07-28T13:34:49Z</time>
      </trkpt>
      <trkpt lat="44.9367920" lon="6.7446950">
        <ele>1844.4</ele>
        <time>2017-07-28T13:34:50Z</time>
      </trkpt>
      <trkpt lat="44.9369010" lon="6.7448120">
        <ele>1843.0</ele>
        <time>2017-07-28T13:34:52Z</time>
      </trkpt>
      <trkpt lat="44.9369650" lon="6.7448640">
        <ele>1842.4</ele>
        <time>2017-07-28T13:34:53Z</time>
      </trkpt>
      <trkpt lat="44.9370320" lon="6.7449190">
        <ele>1841.6</ele>
        <time>2017-07-28T13:34:54Z</time>
      </trkpt>
      <trkpt lat="44.9371690" lon="6.7450140">
        <ele>1840.2</ele>
        <time>2017-07-28T13:34:56Z</time>
      </trkpt>
      <trkpt lat="44.9372360" lon="6.7450400">
        <ele>1839.4</ele>
        <time>2017-07-28T13:34:57Z</time>
      </trkpt>
      <trkpt lat="44.9373010" lon="6.7450360">
        <ele>1838.4</ele>
        <time>2017-07-28T13:34:58Z</time>
      </trkpt>
      <trkpt lat="44.9373490" lon="6.7450020">
        <ele>1837.2</ele>
        <time>2017-07-28T13:34:59Z</time>
      </trkpt>
      <trkpt lat="44.9373820" lon="6.7449530">
        <ele>1836.0</ele>
        <time>2017-07-28T13:35:00Z</time>
      </trkpt>
      <trkpt lat="44.9374370" lon="6.7448150">
        <ele>1834.0</ele>
        <time>2017-07-28T13:35:02Z</time>
      </trkpt>
      <trkpt lat="44.9375170" lon="6.7446590">
        <ele>1832.4</ele>
        <time>2017-07-28T13:35:04Z</time>
      </trkpt>
      <trkpt lat="44.9375690" lon="6.7445830">
        <ele>1831.8</ele>
        <time>2017-07-28T13:35:05Z</time>
      </trkpt>
      <trkpt lat="44.9376220" lon="6.7445100">
        <ele>1831.0</ele>
        <time>2017-07-28T13:35:06Z</time>
      </trkpt>
      <trkpt lat="44.9376690" lon="6.7444470">
        <ele>1829.8</ele>
        <time>2017-07-28T13:35:07Z</time>
      </trkpt>
      <trkpt lat="44.9377080" lon="6.7443960">
        <ele>1828.6</ele>
        <time>2017-07-28T13:35:08Z</time>
      </trkpt>
      <trkpt lat="44.9377370" lon="6.7443480">
        <ele>1827.8</ele>
        <time>2017-07-28T13:35:09Z</time>
      </trkpt>
      <trkpt lat="44.9377650" lon="6.7443040">
        <ele>1827.0</ele>
        <time>2017-07-28T13:35:10Z</time>
      </trkpt>
      <trkpt lat="44.9377960" lon="6.7442620">
        <ele>1826.2</ele>
        <time>2017-07-28T13:35:11Z</time>
      </trkpt>
      <trkpt lat="44.9378360" lon="6.7442360">
        <ele>1824.4</ele>
        <time>2017-07-28T13:35:12Z</time>
      </trkpt>
      <trkpt lat="44.9378820" lon="6.7442350">
        <ele>1823.8</ele>
        <time>2017-07-28T13:35:13Z</time>
      </trkpt>
      <trkpt lat="44.9379190" lon="6.7442590">
        <ele>1823.0</ele>
        <time>2017-07-28T13:35:14Z</time>
      </trkpt>
      <trkpt lat="44.9379470" lon="6.7443150">
        <ele>1822.2</ele>
        <time>2017-07-28T13:35:15Z</time>
      </trkpt>
      <trkpt lat="44.9379570" lon="6.7443900">
        <ele>1821.8</ele>
        <time>2017-07-28T13:35:16Z</time>
      </trkpt>
      <trkpt lat="44.9379370" lon="6.7445410">
        <ele>1820.4</ele>
        <time>2017-07-28T13:35:18Z</time>
      </trkpt>
      <trkpt lat="44.9378710" lon="6.7447040">
        <ele>1819.0</ele>
        <time>2017-07-28T13:35:20Z</time>
      </trkpt>
      <trkpt lat="44.9378270" lon="6.7447890">
        <ele>1818.0</ele>
        <time>2017-07-28T13:35:21Z</time>
      </trkpt>
      <trkpt lat="44.9377850" lon="6.7448770">
        <ele>1817.2</ele>
        <time>2017-07-28T13:35:22Z</time>
      </trkpt>
      <trkpt lat="44.9377450" lon="6.7449700">
        <ele>1816.4</ele>
        <time>2017-07-28T13:35:23Z</time>
      </trkpt>
      <trkpt lat="44.9377060" lon="6.7450660">
        <ele>1816.0</ele>
        <time>2017-07-28T13:35:24Z</time>
      </trkpt>
      <trkpt lat="44.9376110" lon="6.7452480">
        <ele>1814.8</ele>
        <time>2017-07-28T13:35:26Z</time>
      </trkpt>
      <trkpt lat="44.9375590" lon="6.7453260">
        <ele>1814.2</ele>
        <time>2017-07-28T13:35:27Z</time>
      </trkpt>
      <trkpt lat="44.9375100" lon="6.7454060">
        <ele>1813.6</ele>
        <time>2017-07-28T13:35:28Z</time>
      </trkpt>
      <trkpt lat="44.9374680" lon="6.7454910">
        <ele>1813.0</ele>
        <time>2017-07-28T13:35:29Z</time>
      </trkpt>
      <trkpt lat="44.9374340" lon="6.7455800">
        <ele>1812.4</ele>
        <time>2017-07-28T13:35:30Z</time>
      </trkpt>
      <trkpt lat="44.9374100" lon="6.7456730">
        <ele>1811.8</ele>
        <time>2017-07-28T13:35:31Z</time>
      </trkpt>
      <trkpt lat="44.9373960" lon="6.7457700">
        <ele>1811.2</ele>
        <time>2017-07-28T13:35:32Z</time>
      </trkpt>
      <trkpt lat="44.9374020" lon="6.7459900">
        <ele>1810.0</ele>
        <time>2017-07-28T13:35:34Z</time>
      </trkpt>
      <trkpt lat="44.9374460" lon="6.7462390">
        <ele>1808.0</ele>
        <time>2017-07-28T13:35:36Z</time>
      </trkpt>
      <trkpt lat="44.9374940" lon="6.7464920">
        <ele>1806.6</ele>
        <time>2017-07-28T13:35:38Z</time>
      </trkpt>
      <trkpt lat="44.9375040" lon="6.7466100">
        <ele>1806.0</ele>
        <time>2017-07-28T13:35:39Z</time>
      </trkpt>
      <trkpt lat="44.9375080" lon="6.7467220">
        <ele>1805.4</ele>
        <time>2017-07-28T13:35:40Z</time>
      </trkpt>
      <trkpt lat="44.9374890" lon="6.7469580">
        <ele>1803.8</ele>
        <time>2017-07-28T13:35:42Z</time>
      </trkpt>
      <trkpt lat="44.9374700" lon="6.7470830">
        <ele>1803.2</ele>
        <time>2017-07-28T13:35:43Z</time>
      </trkpt>
      <trkpt lat="44.9374550" lon="6.7472150">
        <ele>1802.6</ele>
        <time>2017-07-28T13:35:44Z</time>
      </trkpt>
      <trkpt lat="44.9374470" lon="6.7473560">
        <ele>1801.8</ele>
        <time>2017-07-28T13:35:45Z</time>
      </trkpt>
      <trkpt lat="44.9374420" lon="6.7474950">
        <ele>1800.8</ele>
        <time>2017-07-28T13:35:46Z</time>
      </trkpt>
      <trkpt lat="44.9374310" lon="6.7477590">
        <ele>1799.4</ele>
        <time>2017-07-28T13:35:48Z</time>
      </trkpt>
      <trkpt lat="44.9374150" lon="6.7479600">
        <ele>1798.0</ele>
        <time>2017-07-28T13:35:50Z</time>
      </trkpt>
      <trkpt lat="44.9374200" lon="6.7481270">
        <ele>1796.4</ele>
        <time>2017-07-28T13:35:52Z</time>
      </trkpt>
      <trkpt lat="44.9374620" lon="6.7482730">
        <ele>1795.6</ele>
        <time>2017-07-28T13:35:54Z</time>
      </trkpt>
      <trkpt lat="44.9374920" lon="6.7483440">
        <ele>1795.0</ele>
        <time>2017-07-28T13:35:55Z</time>
      </trkpt>
      <trkpt lat="44.9375870" lon="6.7484660">
        <ele>1794.0</ele>
        <time>2017-07-28T13:35:57Z</time>
      </trkpt>
      <trkpt lat="44.9377010" lon="6.7486020">
        <ele>1793.4</ele>
        <time>2017-07-28T13:35:59Z</time>
      </trkpt>
      <trkpt lat="44.9377610" lon="6.7486780">
        <ele>1792.6</ele>
        <time>2017-07-28T13:36:00Z</time>
      </trkpt>
      <trkpt lat="44.9378190" lon="6.7487580">
        <ele>1792.2</ele>
        <time>2017-07-28T13:36:01Z</time>
      </trkpt>
      <trkpt lat="44.9379420" lon="6.7489250">
        <ele>1791.6</ele>
        <time>2017-07-28T13:36:03Z</time>
      </trkpt>
      <trkpt lat="44.9381330" lon="6.7491980">
        <ele>1790.4</ele>
        <time>2017-07-28T13:36:06Z</time>
      </trkpt>
      <trkpt lat="44.9382620" lon="6.7493820">
        <ele>1789.8</ele>
        <time>2017-07-28T13:36:08Z</time>
      </trkpt>
      <trkpt lat="44.9383940" lon="6.7495670">
        <ele>1789.2</ele>
        <time>2017-07-28T13:36:10Z</time>
      </trkpt>
      <trkpt lat="44.9385310" lon="6.7497560">
        <ele>1788.2</ele>
        <time>2017-07-28T13:36:12Z</time>
      </trkpt>
      <trkpt lat="44.9386010" lon="6.7498500">
        <ele>1787.8</ele>
        <time>2017-07-28T13:36:13Z</time>
      </trkpt>
      <trkpt lat="44.9388050" lon="6.7501370">
        <ele>1786.4</ele>
        <time>2017-07-28T13:36:16Z</time>
      </trkpt>
      <trkpt lat="44.9388570" lon="6.7502190">
        <ele>1786.4</ele>
        <time>2017-07-28T13:36:17Z</time>
      </trkpt>
      <trkpt lat="44.9388960" lon="6.7503600">
        <ele>1786.0</ele>
        <time>2017-07-28T13:36:19Z</time>
      </trkpt>
      <trkpt lat="44.9388440" lon="6.7504910">
        <ele>1785.0</ele>
        <time>2017-07-28T13:36:21Z</time>
      </trkpt>
      <trkpt lat="44.9388000" lon="6.7505450">
        <ele>1784.4</ele>
        <time>2017-07-28T13:36:22Z</time>
      </trkpt>
      <trkpt lat="44.9387450" lon="6.7505950">
        <ele>1783.8</ele>
        <time>2017-07-28T13:36:23Z</time>
      </trkpt>
      <trkpt lat="44.9386930" lon="6.7506500">
        <ele>1782.6</ele>
        <time>2017-07-28T13:36:24Z</time>
      </trkpt>
      <trkpt lat="44.9386560" lon="6.7507200">
        <ele>1782.2</ele>
        <time>2017-07-28T13:36:25Z</time>
      </trkpt>
      <trkpt lat="44.9386450" lon="6.7508090">
        <ele>1781.6</ele>
        <time>2017-07-28T13:36:26Z</time>
      </trkpt>
      <trkpt lat="44.9386570" lon="6.7509140">
        <ele>1781.0</ele>
        <time>2017-07-28T13:36:27Z</time>
      </trkpt>
      <trkpt lat="44.9386850" lon="6.7510300">
        <ele>1780.6</ele>
        <time>2017-07-28T13:36:28Z</time>
      </trkpt>
      <trkpt lat="44.9387800" lon="6.7512650">
        <ele>1779.4</ele>
        <time>2017-07-28T13:36:30Z</time>
      </trkpt>
      <trkpt lat="44.9389430" lon="6.7516190">
        <ele>1777.8</ele>
        <time>2017-07-28T13:36:33Z</time>
      </trkpt>
      <trkpt lat="44.9390020" lon="6.7518500">
        <ele>1776.4</ele>
        <time>2017-07-28T13:36:35Z</time>
      </trkpt>
      <trkpt lat="44.9390090" lon="6.7519580">
        <ele>1775.8</ele>
        <time>2017-07-28T13:36:36Z</time>
      </trkpt>
      <trkpt lat="44.9390010" lon="6.7520680">
        <ele>1775.0</ele>
        <time>2017-07-28T13:36:37Z</time>
      </trkpt>
      <trkpt lat="44.9389100" lon="6.7522420">
        <ele>1773.2</ele>
        <time>2017-07-28T13:36:39Z</time>
      </trkpt>
      <trkpt lat="44.9388520" lon="6.7523180">
        <ele>1772.2</ele>
        <time>2017-07-28T13:36:40Z</time>
      </trkpt>
      <trkpt lat="44.9387430" lon="6.7524750">
        <ele>1770.4</ele>
        <time>2017-07-28T13:36:42Z</time>
      </trkpt>
      <trkpt lat="44.9386680" lon="6.7526540">
        <ele>1769.0</ele>
        <time>2017-07-28T13:36:44Z</time>
      </trkpt>
      <trkpt lat="44.9386870" lon="6.7528540">
        <ele>1767.8</ele>
        <time>2017-07-28T13:36:46Z</time>
      </trkpt>
      <trkpt lat="44.9387270" lon="6.7529450">
        <ele>1767.4</ele>
        <time>2017-07-28T13:36:47Z</time>
      </trkpt>
      <trkpt lat="44.9387820" lon="6.7530300">
        <ele>1766.4</ele>
        <time>2017-07-28T13:36:48Z</time>
      </trkpt>
      <trkpt lat="44.9389160" lon="6.7531850">
        <ele>1765.2</ele>
        <time>2017-07-28T13:36:50Z</time>
      </trkpt>
      <trkpt lat="44.9390030" lon="6.7532560">
        <ele>1764.8</ele>
        <time>2017-07-28T13:36:51Z</time>
      </trkpt>
      <trkpt lat="44.9391870" lon="6.7534030">
        <ele>1763.8</ele>
        <time>2017-07-28T13:36:53Z</time>
      </trkpt>
      <trkpt lat="44.9393410" lon="6.7535810">
        <ele>1762.6</ele>
        <time>2017-07-28T13:36:55Z</time>
      </trkpt>
      <trkpt lat="44.9393980" lon="6.7536850">
        <ele>1762.2</ele>
        <time>2017-07-28T13:36:56Z</time>
      </trkpt>
      <trkpt lat="44.9394410" lon="6.7538910">
        <ele>1761.4</ele>
        <time>2017-07-28T13:36:58Z</time>
      </trkpt>
      <trkpt lat="44.9394220" lon="6.7540610">
        <ele>1760.2</ele>
        <time>2017-07-28T13:37:00Z</time>
      </trkpt>
      <trkpt lat="44.9394080" lon="6.7541350">
        <ele>1759.8</ele>
        <time>2017-07-28T13:37:01Z</time>
      </trkpt>
      <trkpt lat="44.9393820" lon="6.7542540">
        <ele>1760.0</ele>
        <time>2017-07-28T13:37:03Z</time>
      </trkpt>
      <trkpt lat="44.9393650" lon="6.7543300">
        <ele>1759.4</ele>
        <time>2017-07-28T13:37:05Z</time>
      </trkpt>
      <trkpt lat="44.9393620" lon="6.7543610">
        <ele>1759.2</ele>
        <time>2017-07-28T13:37:06Z</time>
      </trkpt>
      <trkpt lat="44.9393560" lon="6.7544240">
        <ele>1758.8</ele>
        <time>2017-07-28T13:37:08Z</time>
      </trkpt>
      <trkpt lat="44.9393430" lon="6.7545170">
        <ele>1758.4</ele>
        <time>2017-07-28T13:37:11Z</time>
      </trkpt>
      <trkpt lat="44.9393380" lon="6.7545460">
        <ele>1758.0</ele>
        <time>2017-07-28T13:37:12Z</time>
      </trkpt>
      <trkpt lat="44.9393280" lon="6.7546050">
        <ele>1757.4</ele>
        <time>2017-07-28T13:37:14Z</time>
      </trkpt>
      <trkpt lat="44.9393100" lon="6.7546760">
        <ele>1757.2</ele>
        <time>2017-07-28T13:37:17Z</time>
      </trkpt>
      <trkpt lat="44.9392880" lon="6.7547400">
        <ele>1757.4</ele>
        <time>2017-07-28T13:37:20Z</time>
      </trkpt>
      <trkpt lat="44.9392510" lon="6.7548380">
        <ele>1757.6</ele>
        <time>2017-07-28T13:37:25Z</time>
      </trkpt>
      <trkpt lat="44.9392370" lon="6.7548760">
        <ele>1757.8</ele>
        <time>2017-07-28T13:37:27Z</time>
      </trkpt>
      <trkpt lat="44.9392190" lon="6.7549140">
        <ele>1758.2</ele>
        <time>2017-07-28T13:37:29Z</time>
      </trkpt>
      <trkpt lat="44.9391900" lon="6.7549740">
        <ele>1758.4</ele>
        <time>2017-07-28T13:37:32Z</time>
      </trkpt>
      <trkpt lat="44.9391610" lon="6.7550390">
        <ele>1759.0</ele>
        <time>2017-07-28T13:37:35Z</time>
      </trkpt>
      <trkpt lat="44.9391510" lon="6.7550580">
        <ele>1759.2</ele>
        <time>2017-07-28T13:37:36Z</time>
      </trkpt>
      <trkpt lat="44.9390710" lon="6.7552030">
        <ele>1760.0</ele>
        <time>2017-07-28T13:37:44Z</time>
      </trkpt>
      <trkpt lat="44.9390610" lon="6.7552200">
        <ele>1760.2</ele>
        <time>2017-07-28T13:37:45Z</time>
      </trkpt>
      <trkpt lat="44.9389970" lon="6.7553330">
        <ele>1761.0</ele>
        <time>2017-07-28T13:37:51Z</time>
      </trkpt>
      <trkpt lat="44.9389710" lon="6.7553630">
        <ele>1761.4</ele>
        <time>2017-07-28T13:37:53Z</time>
      </trkpt>
      <trkpt lat="44.9389120" lon="6.7554240">
        <ele>1762.2</ele>
        <time>2017-07-28T13:37:57Z</time>
      </trkpt>
      <trkpt lat="44.9388970" lon="6.7554400">
        <ele>1762.4</ele>
        <time>2017-07-28T13:37:58Z</time>
      </trkpt>
      <trkpt lat="44.9388340" lon="6.7555610">
        <ele>1763.6</ele>
        <time>2017-07-28T13:38:03Z</time>
      </trkpt>
      <trkpt lat="44.9388200" lon="6.7555870">
        <ele>1763.6</ele>
        <time>2017-07-28T13:38:04Z</time>
      </trkpt>
      <trkpt lat="44.9387090" lon="6.7557590">
        <ele>1764.8</ele>
        <time>2017-07-28T13:38:10Z</time>
      </trkpt>
      <trkpt lat="44.9386140" lon="6.7559570">
        <ele>1765.6</ele>
        <time>2017-07-28T13:38:15Z</time>
      </trkpt>
      <trkpt lat="44.9385950" lon="6.7560120">
        <ele>1765.8</ele>
        <time>2017-07-28T13:38:16Z</time>
      </trkpt>
      <trkpt lat="44.9385770" lon="6.7560650">
        <ele>1765.8</ele>
        <time>2017-07-28T13:38:17Z</time>
      </trkpt>
      <trkpt lat="44.9385550" lon="6.7562420">
        <ele>1766.2</ele>
        <time>2017-07-28T13:38:20Z</time>
      </trkpt>
      <trkpt lat="44.9385840" lon="6.7563540">
        <ele>1766.4</ele>
        <time>2017-07-28T13:38:22Z</time>
      </trkpt>
      <trkpt lat="44.9386120" lon="6.7564020">
        <ele>1766.6</ele>
        <time>2017-07-28T13:38:23Z</time>
      </trkpt>
      <trkpt lat="44.9386430" lon="6.7564440">
        <ele>1767.2</ele>
        <time>2017-07-28T13:38:24Z</time>
      </trkpt>
      <trkpt lat="44.9387270" lon="6.7565770">
        <ele>1768.2</ele>
        <time>2017-07-28T13:38:27Z</time>
      </trkpt>
      <trkpt lat="44.9388160" lon="6.7567320">
        <ele>1769.2</ele>
        <time>2017-07-28T13:38:30Z</time>
      </trkpt>
      <trkpt lat="44.9388510" lon="6.7567940">
        <ele>1769.4</ele>
        <time>2017-07-28T13:38:31Z</time>
      </trkpt>
      <trkpt lat="44.9388950" lon="6.7568550">
        <ele>1769.6</ele>
        <time>2017-07-28T13:38:32Z</time>
      </trkpt>
      <trkpt lat="44.9390070" lon="6.7569470">
        <ele>1770.2</ele>
        <time>2017-07-28T13:38:34Z</time>
      </trkpt>
      <trkpt lat="44.9391380" lon="6.7570380">
        <ele>1770.2</ele>
        <time>2017-07-28T13:38:36Z</time>
      </trkpt>
      <trkpt lat="44.9392010" lon="6.7570960">
        <ele>1770.4</ele>
        <time>2017-07-28T13:38:37Z</time>
      </trkpt>
      <trkpt lat="44.9393220" lon="6.7572120">
        <ele>1770.2</ele>
        <time>2017-07-28T13:38:39Z</time>
      </trkpt>
      <trkpt lat="44.9394290" lon="6.7573190">
        <ele>1770.2</ele>
        <time>2017-07-28T13:38:41Z</time>
      </trkpt>
      <trkpt lat="44.9395250" lon="6.7573750">
        <ele>1770.4</ele>
        <time>2017-07-28T13:38:43Z</time>
      </trkpt>
      <trkpt lat="44.9396230" lon="6.7574410">
        <ele>1770.2</ele>
        <time>2017-07-28T13:38:45Z</time>
      </trkpt>
      <trkpt lat="44.9397340" lon="6.7575920">
        <ele>1769.8</ele>
        <time>2017-07-28T13:38:47Z</time>
      </trkpt>
      <trkpt lat="44.9398660" lon="6.7577370">
        <ele>1768.4</ele>
        <time>2017-07-28T13:38:49Z</time>
      </trkpt>
      <trkpt lat="44.9399240" lon="6.7577680">
        <ele>1767.8</ele>
        <time>2017-07-28T13:38:50Z</time>
      </trkpt>
      <trkpt lat="44.9400000" lon="6.7578110">
        <ele>1767.0</ele>
        <time>2017-07-28T13:38:52Z</time>
      </trkpt>
      <trkpt lat="44.9400250" lon="6.7578240">
        <ele>1766.4</ele>
        <time>2017-07-28T13:38:53Z</time>
      </trkpt>
      <trkpt lat="44.9400360" lon="6.7578260">
        <ele>1765.8</ele>
        <time>2017-07-28T13:38:54Z</time>
      </trkpt>
      <trkpt lat="44.9399720" lon="6.7578090">
        <ele>1760.4</ele>
        <time>2017-07-28T13:39:03Z</time>
      </trkpt>
      <trkpt lat="44.9399550" lon="6.7578100">
        <ele>1759.6</ele>
        <time>2017-07-28T13:39:04Z</time>
      </trkpt>
      <trkpt lat="44.9399370" lon="6.7578150">
        <ele>1758.8</ele>
        <time>2017-07-28T13:39:05Z</time>
      </trkpt>
      <trkpt lat="44.9399060" lon="6.7578250">
        <ele>1757.6</ele>
        <time>2017-07-28T13:39:07Z</time>
      </trkpt>
      <trkpt lat="44.9398940" lon="6.7578230">
        <ele>1757.2</ele>
        <time>2017-07-28T13:39:08Z</time>
      </trkpt>
      <trkpt lat="44.9398720" lon="6.7578260">
        <ele>1756.2</ele>
        <time>2017-07-28T13:39:10Z</time>
      </trkpt>
      <trkpt lat="44.9398800" lon="6.7578570">
        <ele>1753.6</ele>
        <time>2017-07-28T13:39:17Z</time>
      </trkpt>
      <trkpt lat="44.9399530" lon="6.7579550">
        <ele>1752.2</ele>
        <time>2017-07-28T13:39:20Z</time>
      </trkpt>
      <trkpt lat="44.9399610" lon="6.7579660">
        <ele>1751.8</ele>
        <time>2017-07-28T13:39:21Z</time>
      </trkpt>
      <trkpt lat="44.9399030" lon="6.7579480">
        <ele>1747.8</ele>
        <time>2017-07-28T13:39:30Z</time>
      </trkpt>
      <trkpt lat="44.9398700" lon="6.7579430">
        <ele>1747.2</ele>
        <time>2017-07-28T13:39:32Z</time>
      </trkpt>
      <trkpt lat="44.9398590" lon="6.7579420">
        <ele>1746.6</ele>
        <time>2017-07-28T13:39:33Z</time>
      </trkpt>
      <trkpt lat="44.9398560" lon="6.7579580">
        <ele>1745.2</ele>
        <time>2017-07-28T13:39:36Z</time>
      </trkpt>
      <trkpt lat="44.9398780" lon="6.7580060">
        <ele>1742.6</ele>
        <time>2017-07-28T13:39:44Z</time>
      </trkpt>
      <trkpt lat="44.9398030" lon="6.7579870">
        <ele>1741.4</ele>
        <time>2017-07-28T13:39:49Z</time>
      </trkpt>
      <trkpt lat="44.9397910" lon="6.7579770">
        <ele>1741.0</ele>
        <time>2017-07-28T13:39:50Z</time>
      </trkpt>
      <trkpt lat="44.9397820" lon="6.7579780">
        <ele>1740.8</ele>
        <time>2017-07-28T13:39:51Z</time>
      </trkpt>
      <trkpt lat="44.9397920" lon="6.7580020">
        <ele>1740.2</ele>
        <time>2017-07-28T13:39:54Z</time>
      </trkpt>
      <trkpt lat="44.9398030" lon="6.7580110">
        <ele>1740.0</ele>
        <time>2017-07-28T13:39:55Z</time>
      </trkpt>
      <trkpt lat="44.9398370" lon="6.7580510">
        <ele>1739.0</ele>
        <time>2017-07-28T13:39:58Z</time>
      </trkpt>
      <trkpt lat="44.9398480" lon="6.7580630">
        <ele>1738.8</ele>
        <time>2017-07-28T13:39:59Z</time>
      </trkpt>
      <trkpt lat="44.9398280" lon="6.7580940">
        <ele>1735.6</ele>
        <time>2017-07-28T13:40:06Z</time>
      </trkpt>
      <trkpt lat="44.9397840" lon="6.7580800">
        <ele>1734.8</ele>
        <time>2017-07-28T13:40:08Z</time>
      </trkpt>
      <trkpt lat="44.9397620" lon="6.7580660">
        <ele>1734.2</ele>
        <time>2017-07-28T13:40:09Z</time>
      </trkpt>
      <trkpt lat="44.9397190" lon="6.7580460">
        <ele>1732.8</ele>
        <time>2017-07-28T13:40:11Z</time>
      </trkpt>
      <trkpt lat="44.9396970" lon="6.7580350">
        <ele>1732.0</ele>
        <time>2017-07-28T13:40:13Z</time>
      </trkpt>
      <trkpt lat="44.9396920" lon="6.7580650">
        <ele>1730.4</ele>
        <time>2017-07-28T13:40:19Z</time>
      </trkpt>
      <trkpt lat="44.9397140" lon="6.7580920">
        <ele>1729.8</ele>
        <time>2017-07-28T13:40:21Z</time>
      </trkpt>
      <trkpt lat="44.9397280" lon="6.7581170">
        <ele>1729.0</ele>
        <time>2017-07-28T13:40:23Z</time>
      </trkpt>
      <trkpt lat="44.9396680" lon="6.7580860">
        <ele>1725.4</ele>
        <time>2017-07-28T13:40:30Z</time>
      </trkpt>
      <trkpt lat="44.9396470" lon="6.7580800">
        <ele>1724.8</ele>
        <time>2017-07-28T13:40:32Z</time>
      </trkpt>
      <trkpt lat="44.9396660" lon="6.7581450">
        <ele>1723.6</ele>
        <time>2017-07-28T13:40:38Z</time>
      </trkpt>
      <trkpt lat="44.9396920" lon="6.7581830">
        <ele>1723.2</ele>
        <time>2017-07-28T13:40:41Z</time>
      </trkpt>
      <trkpt lat="44.9396930" lon="6.7582070">
        <ele>1721.0</ele>
        <time>2017-07-28T13:40:47Z</time>
      </trkpt>
      <trkpt lat="44.9397200" lon="6.7582270">
        <ele>1718.0</ele>
        <time>2017-07-28T13:40:57Z</time>
      </trkpt>
      <trkpt lat="44.9397290" lon="6.7582390">
        <ele>1717.6</ele>
        <time>2017-07-28T13:40:58Z</time>
      </trkpt>
      <trkpt lat="44.9397500" lon="6.7582660">
        <ele>1716.8</ele>
        <time>2017-07-28T13:41:01Z</time>
      </trkpt>
      <trkpt lat="44.9398130" lon="6.7584210">
        <ele>1697.0</ele>
        <time>2017-07-28T13:42:32Z</time>
      </trkpt>
      <trkpt lat="44.9399860" lon="6.7584380">
        <ele>1689.4</ele>
        <time>2017-07-28T13:42:56Z</time>
      </trkpt>
      <trkpt lat="44.9399980" lon="6.7584620">
        <ele>1689.4</ele>
        <time>2017-07-28T13:42:57Z</time>
      </trkpt>
      <trkpt lat="44.9400170" lon="6.7585790">
        <ele>1689.0</ele>
        <time>2017-07-28T13:43:00Z</time>
      </trkpt>
      <trkpt lat="44.9401850" lon="6.7586920">
        <ele>1686.6</ele>
        <time>2017-07-28T13:43:25Z</time>
      </trkpt>
      <trkpt lat="44.9402830" lon="6.7588800">
        <ele>1686.2</ele>
        <time>2017-07-28T13:43:30Z</time>
      </trkpt>
      <trkpt lat="44.9403340" lon="6.7590090">
        <ele>1685.6</ele>
        <time>2017-07-28T13:43:33Z</time>
      </trkpt>
      <trkpt lat="44.9403430" lon="6.7590380">
        <ele>1685.6</ele>
        <time>2017-07-28T13:43:34Z</time>
      </trkpt>
      <trkpt lat="44.9403620" lon="6.7590770">
        <ele>1685.4</ele>
        <time>2017-07-28T13:43:35Z</time>
      </trkpt>
      <trkpt lat="44.9404300" lon="6.7592250">
        <ele>1685.0</ele>
        <time>2017-07-28T13:43:38Z</time>
      </trkpt>
      <trkpt lat="44.9404950" lon="6.7592680">
        <ele>1685.0</ele>
        <time>2017-07-28T13:43:40Z</time>
      </trkpt>
      <trkpt lat="44.9406620" lon="6.7593800">
        <ele>1682.8</ele>
        <time>2017-07-28T13:44:04Z</time>
      </trkpt>
      <trkpt lat="44.9406640" lon="6.7593960">
        <ele>1682.8</ele>
        <time>2017-07-28T13:44:05Z</time>
      </trkpt>
      <trkpt lat="44.9406760" lon="6.7594720">
        <ele>1681.8</ele>
        <time>2017-07-28T13:44:08Z</time>
      </trkpt>
      <trkpt lat="44.9406940" lon="6.7595180">
        <ele>1681.6</ele>
        <time>2017-07-28T13:44:10Z</time>
      </trkpt>
      <trkpt lat="44.9407070" lon="6.7595430">
        <ele>1681.6</ele>
        <time>2017-07-28T13:44:11Z</time>
      </trkpt>
      <trkpt lat="44.9407750" lon="6.7596580">
        <ele>1681.4</ele>
        <time>2017-07-28T13:44:15Z</time>
      </trkpt>
      <trkpt lat="44.9407920" lon="6.7596770">
        <ele>1681.2</ele>
        <time>2017-07-28T13:44:16Z</time>
      </trkpt>
      <trkpt lat="44.9408170" lon="6.7597160">
        <ele>1680.8</ele>
        <time>2017-07-28T13:44:18Z</time>
      </trkpt>
      <trkpt lat="44.9408700" lon="6.7597730">
        <ele>1679.8</ele>
        <time>2017-07-28T13:44:22Z</time>
      </trkpt>
      <trkpt lat="44.9408780" lon="6.7597760">
        <ele>1679.4</ele>
        <time>2017-07-28T13:44:23Z</time>
      </trkpt>
      <trkpt lat="44.9409310" lon="6.7599070">
        <ele>1677.6</ele>
        <time>2017-07-28T13:44:42Z</time>
      </trkpt>
      <trkpt lat="44.9409460" lon="6.7599180">
        <ele>1677.4</ele>
        <time>2017-07-28T13:44:43Z</time>
      </trkpt>
      <trkpt lat="44.9409910" lon="6.7599890">
        <ele>1677.2</ele>
        <time>2017-07-28T13:44:46Z</time>
      </trkpt>
      <trkpt lat="44.9410210" lon="6.7600920">
        <ele>1676.8</ele>
        <time>2017-07-28T13:44:49Z</time>
      </trkpt>
      <trkpt lat="44.9410360" lon="6.7602180">
        <ele>1676.2</ele>
        <time>2017-07-28T13:44:54Z</time>
      </trkpt>
      <trkpt lat="44.9409950" lon="6.7603070">
        <ele>1674.6</ele>
        <time>2017-07-28T13:45:04Z</time>
      </trkpt>
      <trkpt lat="44.9410010" lon="6.7603200">
        <ele>1674.4</ele>
        <time>2017-07-28T13:45:05Z</time>
      </trkpt>
      <trkpt lat="44.9410280" lon="6.7603770">
        <ele>1673.4</ele>
        <time>2017-07-28T13:45:09Z</time>
      </trkpt>
      <trkpt lat="44.9410400" lon="6.7604210">
        <ele>1672.6</ele>
        <time>2017-07-28T13:45:12Z</time>
      </trkpt>
      <trkpt lat="44.9410970" lon="6.7604970">
        <ele>1670.0</ele>
        <time>2017-07-28T13:45:26Z</time>
      </trkpt>
      <trkpt lat="44.9411120" lon="6.7605480">
        <ele>1669.0</ele>
        <time>2017-07-28T13:45:29Z</time>
      </trkpt>
      <trkpt lat="44.9411150" lon="6.7605630">
        <ele>1668.6</ele>
        <time>2017-07-28T13:45:30Z</time>
      </trkpt>
      <trkpt lat="44.9411340" lon="6.7606330">
        <ele>1667.4</ele>
        <time>2017-07-28T13:45:34Z</time>
      </trkpt>
      <trkpt lat="44.9413530" lon="6.7608960">
        <ele>1664.6</ele>
        <time>2017-07-28T13:46:07Z</time>
      </trkpt>
      <trkpt lat="44.9413680" lon="6.7609090">
        <ele>1664.6</ele>
        <time>2017-07-28T13:46:08Z</time>
      </trkpt>
      <trkpt lat="44.9414050" lon="6.7609320">
        <ele>1664.4</ele>
        <time>2017-07-28T13:46:10Z</time>
      </trkpt>
      <trkpt lat="44.9414490" lon="6.7609580">
        <ele>1664.2</ele>
        <time>2017-07-28T13:46:13Z</time>
      </trkpt>
      <trkpt lat="44.9414920" lon="6.7610240">
        <ele>1665.8</ele>
        <time>2017-07-28T13:46:21Z</time>
      </trkpt>
      <trkpt lat="44.9415110" lon="6.7610660">
        <ele>1666.0</ele>
        <time>2017-07-28T13:46:23Z</time>
      </trkpt>
      <trkpt lat="44.9416290" lon="6.7611770">
        <ele>1666.4</ele>
        <time>2017-07-28T13:46:28Z</time>
      </trkpt>
      <trkpt lat="44.9416800" lon="6.7612130">
        <ele>1666.4</ele>
        <time>2017-07-28T13:46:30Z</time>
      </trkpt>
      <trkpt lat="44.9417350" lon="6.7612680">
        <ele>1666.2</ele>
        <time>2017-07-28T13:46:33Z</time>
      </trkpt>
      <trkpt lat="44.9417510" lon="6.7612980">
        <ele>1665.8</ele>
        <time>2017-07-28T13:46:34Z</time>
      </trkpt>
      <trkpt lat="44.9417530" lon="6.7613470">
        <ele>1665.0</ele>
        <time>2017-07-28T13:46:36Z</time>
      </trkpt>
      <trkpt lat="44.9417620" lon="6.7613620">
        <ele>1664.6</ele>
        <time>2017-07-28T13:46:37Z</time>
      </trkpt>
      <trkpt lat="44.9418060" lon="6.7613970">
        <ele>1664.2</ele>
        <time>2017-07-28T13:46:39Z</time>
      </trkpt>
      <trkpt lat="44.9418580" lon="6.7614410">
        <ele>1663.6</ele>
        <time>2017-07-28T13:46:42Z</time>
      </trkpt>
      <trkpt lat="44.9419150" lon="6.7615020">
        <ele>1663.0</ele>
        <time>2017-07-28T13:46:44Z</time>
      </trkpt>
      <trkpt lat="44.9419770" lon="6.7615820">
        <ele>1662.4</ele>
        <time>2017-07-28T13:46:46Z</time>
      </trkpt>
      <trkpt lat="44.9420480" lon="6.7616750">
        <ele>1661.6</ele>
        <time>2017-07-28T13:46:49Z</time>
      </trkpt>
      <trkpt lat="44.9420770" lon="6.7616870">
        <ele>1661.4</ele>
        <time>2017-07-28T13:46:50Z</time>
      </trkpt>
      <trkpt lat="44.9421860" lon="6.7616370">
        <ele>1658.6</ele>
        <time>2017-07-28T13:47:00Z</time>
      </trkpt>
      <trkpt lat="44.9422300" lon="6.7616060">
        <ele>1658.2</ele>
        <time>2017-07-28T13:47:03Z</time>
      </trkpt>
      <trkpt lat="44.9423420" lon="6.7615900">
        <ele>1657.6</ele>
        <time>2017-07-28T13:47:09Z</time>
      </trkpt>
      <trkpt lat="44.9424910" lon="6.7616120">
        <ele>1657.6</ele>
        <time>2017-07-28T13:47:14Z</time>
      </trkpt>
      <trkpt lat="44.9425890" lon="6.7616870">
        <ele>1657.0</ele>
        <time>2017-07-28T13:47:19Z</time>
      </trkpt>
      <trkpt lat="44.9426880" lon="6.7616630">
        <ele>1656.8</ele>
        <time>2017-07-28T13:47:22Z</time>
      </trkpt>
      <trkpt lat="44.9427220" lon="6.7616660">
        <ele>1657.0</ele>
        <time>2017-07-28T13:47:23Z</time>
      </trkpt>
      <trkpt lat="44.9427490" lon="6.7616760">
        <ele>1656.8</ele>
        <time>2017-07-28T13:47:24Z</time>
      </trkpt>
      <trkpt lat="44.9428210" lon="6.7617420">
        <ele>1656.6</ele>
        <time>2017-07-28T13:47:28Z</time>
      </trkpt>
      <trkpt lat="44.9428380" lon="6.7617890">
        <ele>1656.6</ele>
        <time>2017-07-28T13:47:29Z</time>
      </trkpt>
      <trkpt lat="44.9429120" lon="6.7619790">
        <ele>1655.8</ele>
        <time>2017-07-28T13:47:33Z</time>
      </trkpt>
      <trkpt lat="44.9429340" lon="6.7620690">
        <ele>1655.4</ele>
        <time>2017-07-28T13:47:35Z</time>
      </trkpt>
      <trkpt lat="44.9429530" lon="6.7621140">
        <ele>1654.8</ele>
        <time>2017-07-28T13:47:36Z</time>
      </trkpt>
      <trkpt lat="44.9429680" lon="6.7621600">
        <ele>1653.8</ele>
        <time>2017-07-28T13:47:37Z</time>
      </trkpt>
      <trkpt lat="44.9429830" lon="6.7623570">
        <ele>1652.6</ele>
        <time>2017-07-28T13:47:41Z</time>
      </trkpt>
      <trkpt lat="44.9429830" lon="6.7624000">
        <ele>1652.4</ele>
        <time>2017-07-28T13:47:42Z</time>
      </trkpt>
      <trkpt lat="44.9430100" lon="6.7624390">
        <ele>1652.2</ele>
        <time>2017-07-28T13:47:44Z</time>
      </trkpt>
      <trkpt lat="44.9430630" lon="6.7625000">
        <ele>1651.2</ele>
        <time>2017-07-28T13:47:46Z</time>
      </trkpt>
      <trkpt lat="44.9431570" lon="6.7626350">
        <ele>1650.0</ele>
        <time>2017-07-28T13:47:50Z</time>
      </trkpt>
      <trkpt lat="44.9431640" lon="6.7626600">
        <ele>1649.6</ele>
        <time>2017-07-28T13:47:51Z</time>
      </trkpt>
      <trkpt lat="44.9431340" lon="6.7626820">
        <ele>1649.0</ele>
        <time>2017-07-28T13:47:53Z</time>
      </trkpt>
      <trkpt lat="44.9431140" lon="6.7626890">
        <ele>1648.4</ele>
        <time>2017-07-28T13:47:54Z</time>
      </trkpt>
      <trkpt lat="44.9430660" lon="6.7626910">
        <ele>1647.6</ele>
        <time>2017-07-28T13:47:56Z</time>
      </trkpt>
      <trkpt lat="44.9430300" lon="6.7627220">
        <ele>1646.4</ele>
        <time>2017-07-28T13:47:58Z</time>
      </trkpt>
      <trkpt lat="44.9430200" lon="6.7628110">
        <ele>1645.2</ele>
        <time>2017-07-28T13:48:02Z</time>
      </trkpt>
      <trkpt lat="44.9431220" lon="6.7630440">
        <ele>1639.4</ele>
        <time>2017-07-28T13:48:37Z</time>
      </trkpt>
      <trkpt lat="44.9431490" lon="6.7630550">
        <ele>1639.6</ele>
        <time>2017-07-28T13:48:38Z</time>
      </trkpt>
      <trkpt lat="44.9432350" lon="6.7631740">
        <ele>1638.8</ele>
        <time>2017-07-28T13:48:42Z</time>
      </trkpt>
      <trkpt lat="44.9433220" lon="6.7632330">
        <ele>1638.8</ele>
        <time>2017-07-28T13:48:45Z</time>
      </trkpt>
      <trkpt lat="44.9434230" lon="6.7633830">
        <ele>1638.4</ele>
        <time>2017-07-28T13:48:49Z</time>
      </trkpt>
      <trkpt lat="44.9434380" lon="6.7634100">
        <ele>1638.6</ele>
        <time>2017-07-28T13:48:50Z</time>
      </trkpt>
      <trkpt lat="44.9434560" lon="6.7634210">
        <ele>1638.6</ele>
        <time>2017-07-28T13:48:51Z</time>
      </trkpt>
      <trkpt lat="44.9434920" lon="6.7634530">
        <ele>1638.4</ele>
        <time>2017-07-28T13:48:53Z</time>
      </trkpt>
      <trkpt lat="44.9435440" lon="6.7635480">
        <ele>1638.6</ele>
        <time>2017-07-28T13:48:56Z</time>
      </trkpt>
      <trkpt lat="44.9435550" lon="6.7635840">
        <ele>1638.8</ele>
        <time>2017-07-28T13:48:57Z</time>
      </trkpt>
      <trkpt lat="44.9436090" lon="6.7636670">
        <ele>1638.8</ele>
        <time>2017-07-28T13:49:01Z</time>
      </trkpt>
      <trkpt lat="44.9436310" lon="6.7637040">
        <ele>1638.8</ele>
        <time>2017-07-28T13:49:03Z</time>
      </trkpt>
      <trkpt lat="44.9436840" lon="6.7638390">
        <ele>1638.4</ele>
        <time>2017-07-28T13:49:06Z</time>
      </trkpt>
      <trkpt lat="44.9437610" lon="6.7640500">
        <ele>1637.4</ele>
        <time>2017-07-28T13:49:11Z</time>
      </trkpt>
      <trkpt lat="44.9437970" lon="6.7640970">
        <ele>1637.2</ele>
        <time>2017-07-28T13:49:12Z</time>
      </trkpt>
      <trkpt lat="44.9438560" lon="6.7641900">
        <ele>1636.0</ele>
        <time>2017-07-28T13:49:14Z</time>
      </trkpt>
      <trkpt lat="44.9438850" lon="6.7642450">
        <ele>1635.8</ele>
        <time>2017-07-28T13:49:15Z</time>
      </trkpt>
      <trkpt lat="44.9439270" lon="6.7642980">
        <ele>1635.4</ele>
        <time>2017-07-28T13:49:16Z</time>
      </trkpt>
      <trkpt lat="44.9439620" lon="6.7643480">
        <ele>1634.8</ele>
        <time>2017-07-28T13:49:17Z</time>
      </trkpt>
      <trkpt lat="44.9440210" lon="6.7644350">
        <ele>1634.0</ele>
        <time>2017-07-28T13:49:19Z</time>
      </trkpt>
      <trkpt lat="44.9440460" lon="6.7644710">
        <ele>1633.6</ele>
        <time>2017-07-28T13:49:20Z</time>
      </trkpt>
      <trkpt lat="44.9441790" lon="6.7646230">
        <ele>1632.8</ele>
        <time>2017-07-28T13:49:24Z</time>
      </trkpt>
      <trkpt lat="44.9441960" lon="6.7646900">
        <ele>1632.2</ele>
        <time>2017-07-28T13:49:25Z</time>
      </trkpt>
      <trkpt lat="44.9442430" lon="6.7648300">
        <ele>1631.2</ele>
        <time>2017-07-28T13:49:27Z</time>
      </trkpt>
      <trkpt lat="44.9443190" lon="6.7649700">
        <ele>1630.0</ele>
        <time>2017-07-28T13:49:30Z</time>
      </trkpt>
      <trkpt lat="44.9443340" lon="6.7650100">
        <ele>1629.6</ele>
        <time>2017-07-28T13:49:31Z</time>
      </trkpt>
      <trkpt lat="44.9443600" lon="6.7650670">
        <ele>1629.0</ele>
        <time>2017-07-28T13:49:33Z</time>
      </trkpt>
      <trkpt lat="44.9443830" lon="6.7651220">
        <ele>1628.0</ele>
        <time>2017-07-28T13:49:35Z</time>
      </trkpt>
      <trkpt lat="44.9444030" lon="6.7651450">
        <ele>1627.8</ele>
        <time>2017-07-28T13:49:36Z</time>
      </trkpt>
      <trkpt lat="44.9444440" lon="6.7651780">
        <ele>1626.8</ele>
        <time>2017-07-28T13:49:39Z</time>
      </trkpt>
      <trkpt lat="44.9444550" lon="6.7651830">
        <ele>1626.6</ele>
        <time>2017-07-28T13:49:40Z</time>
      </trkpt>
      <trkpt lat="44.9444980" lon="6.7651990">
        <ele>1625.2</ele>
        <time>2017-07-28T13:49:44Z</time>
      </trkpt>
      <trkpt lat="44.9445390" lon="6.7652460">
        <ele>1624.8</ele>
        <time>2017-07-28T13:49:46Z</time>
      </trkpt>
      <trkpt lat="44.9445720" lon="6.7652990">
        <ele>1624.2</ele>
        <time>2017-07-28T13:49:47Z</time>
      </trkpt>
      <trkpt lat="44.9445940" lon="6.7653630">
        <ele>1624.0</ele>
        <time>2017-07-28T13:49:48Z</time>
      </trkpt>
      <trkpt lat="44.9446170" lon="6.7654300">
        <ele>1623.6</ele>
        <time>2017-07-28T13:49:49Z</time>
      </trkpt>
      <trkpt lat="44.9446370" lon="6.7655120">
        <ele>1623.4</ele>
        <time>2017-07-28T13:49:50Z</time>
      </trkpt>
      <trkpt lat="44.9446500" lon="6.7657180">
        <ele>1622.8</ele>
        <time>2017-07-28T13:49:52Z</time>
      </trkpt>
      <trkpt lat="44.9447260" lon="6.7659190">
        <ele>1621.6</ele>
        <time>2017-07-28T13:49:55Z</time>
      </trkpt>
      <trkpt lat="44.9448120" lon="6.7660540">
        <ele>1620.8</ele>
        <time>2017-07-28T13:49:59Z</time>
      </trkpt>
      <trkpt lat="44.9448390" lon="6.7661060">
        <ele>1620.6</ele>
        <time>2017-07-28T13:50:00Z</time>
      </trkpt>
      <trkpt lat="44.9449230" lon="6.7662400">
        <ele>1619.8</ele>
        <time>2017-07-28T13:50:02Z</time>
      </trkpt>
      <trkpt lat="44.9449740" lon="6.7663070">
        <ele>1619.6</ele>
        <time>2017-07-28T13:50:03Z</time>
      </trkpt>
      <trkpt lat="44.9450470" lon="6.7664270">
        <ele>1618.4</ele>
        <time>2017-07-28T13:50:05Z</time>
      </trkpt>
      <trkpt lat="44.9450930" lon="6.7665760">
        <ele>1617.4</ele>
        <time>2017-07-28T13:50:07Z</time>
      </trkpt>
      <trkpt lat="44.9451090" lon="6.7666510">
        <ele>1616.8</ele>
        <time>2017-07-28T13:50:08Z</time>
      </trkpt>
      <trkpt lat="44.9451370" lon="6.7666960">
        <ele>1616.0</ele>
        <time>2017-07-28T13:50:09Z</time>
      </trkpt>
      <trkpt lat="44.9451640" lon="6.7667540">
        <ele>1615.4</ele>
        <time>2017-07-28T13:50:10Z</time>
      </trkpt>
      <trkpt lat="44.9452020" lon="6.7668520">
        <ele>1614.2</ele>
        <time>2017-07-28T13:50:13Z</time>
      </trkpt>
      <trkpt lat="44.9451810" lon="6.7668920">
        <ele>1605.8</ele>
        <time>2017-07-28T13:50:28Z</time>
      </trkpt>
      <trkpt lat="44.9451860" lon="6.7668960">
        <ele>1605.4</ele>
        <time>2017-07-28T13:50:29Z</time>
      </trkpt>
      <trkpt lat="44.9451870" lon="6.7668920">
        <ele>1604.8</ele>
        <time>2017-07-28T13:50:30Z</time>
      </trkpt>
      <trkpt lat="44.9452060" lon="6.7668870">
        <ele>1603.0</ele>
        <time>2017-07-28T13:50:35Z</time>
      </trkpt>
      <trkpt lat="44.9452290" lon="6.7668990">
        <ele>1602.6</ele>
        <time>2017-07-28T13:50:36Z</time>
      </trkpt>
      <trkpt lat="44.9453000" lon="6.7669550">
        <ele>1601.6</ele>
        <time>2017-07-28T13:50:38Z</time>
      </trkpt>
      <trkpt lat="44.9453400" lon="6.7669830">
        <ele>1601.0</ele>
        <time>2017-07-28T13:50:39Z</time>
      </trkpt>
      <trkpt lat="44.9453800" lon="6.7670120">
        <ele>1600.4</ele>
        <time>2017-07-28T13:50:40Z</time>
      </trkpt>
      <trkpt lat="44.9454530" lon="6.7670580">
        <ele>1599.4</ele>
        <time>2017-07-28T13:50:42Z</time>
      </trkpt>
      <trkpt lat="44.9455480" lon="6.7670980">
        <ele>1598.0</ele>
        <time>2017-07-28T13:50:45Z</time>
      </trkpt>
      <trkpt lat="44.9456000" lon="6.7671160">
        <ele>1596.8</ele>
        <time>2017-07-28T13:50:48Z</time>
      </trkpt>
      <trkpt lat="44.9456280" lon="6.7671540">
        <ele>1595.6</ele>
        <time>2017-07-28T13:50:51Z</time>
      </trkpt>
      <trkpt lat="44.9456430" lon="6.7671670">
        <ele>1595.0</ele>
        <time>2017-07-28T13:50:53Z</time>
      </trkpt>
      <trkpt lat="44.9456570" lon="6.7671620">
        <ele>1594.8</ele>
        <time>2017-07-28T13:50:54Z</time>
      </trkpt>
      <trkpt lat="44.9456730" lon="6.7671540">
        <ele>1594.4</ele>
        <time>2017-07-28T13:50:55Z</time>
      </trkpt>
      <trkpt lat="44.9457090" lon="6.7671460">
        <ele>1593.6</ele>
        <time>2017-07-28T13:50:57Z</time>
      </trkpt>
      <trkpt lat="44.9457240" lon="6.7671350">
        <ele>1593.0</ele>
        <time>2017-07-28T13:50:58Z</time>
      </trkpt>
      <trkpt lat="44.9457650" lon="6.7671020">
        <ele>1592.0</ele>
        <time>2017-07-28T13:51:00Z</time>
      </trkpt>
      <trkpt lat="44.9457860" lon="6.7670970">
        <ele>1591.8</ele>
        <time>2017-07-28T13:51:01Z</time>
      </trkpt>
      <trkpt lat="44.9458470" lon="6.7671280">
        <ele>1590.2</ele>
        <time>2017-07-28T13:51:04Z</time>
      </trkpt>
      <trkpt lat="44.9458810" lon="6.7671400">
        <ele>1589.0</ele>
        <time>2017-07-28T13:51:06Z</time>
      </trkpt>
      <trkpt lat="44.9459200" lon="6.7671560">
        <ele>1587.4</ele>
        <time>2017-07-28T13:51:09Z</time>
      </trkpt>
      <trkpt lat="44.9459390" lon="6.7671650">
        <ele>1584.8</ele>
        <time>2017-07-28T13:51:18Z</time>
      </trkpt>
      <trkpt lat="44.9459550" lon="6.7671580">
        <ele>1584.8</ele>
        <time>2017-07-28T13:51:19Z</time>
      </trkpt>
      <trkpt lat="44.9460080" lon="6.7671490">
        <ele>1584.4</ele>
        <time>2017-07-28T13:51:22Z</time>
      </trkpt>
      <trkpt lat="44.9460990" lon="6.7673350">
        <ele>1584.2</ele>
        <time>2017-07-28T13:51:25Z</time>
      </trkpt>
      <trkpt lat="44.9461700" lon="6.7675130">
        <ele>1584.0</ele>
        <time>2017-07-28T13:51:28Z</time>
      </trkpt>
      <trkpt lat="44.9462160" lon="6.7676580">
        <ele>1584.0</ele>
        <time>2017-07-28T13:51:30Z</time>
      </trkpt>
      <trkpt lat="44.9462530" lon="6.7677700">
        <ele>1583.6</ele>
        <time>2017-07-28T13:51:32Z</time>
      </trkpt>
      <trkpt lat="44.9463010" lon="6.7678920">
        <ele>1583.0</ele>
        <time>2017-07-28T13:51:35Z</time>
      </trkpt>
      <trkpt lat="44.9463530" lon="6.7679510">
        <ele>1582.6</ele>
        <time>2017-07-28T13:51:37Z</time>
      </trkpt>
      <trkpt lat="44.9463940" lon="6.7680140">
        <ele>1581.2</ele>
        <time>2017-07-28T13:51:39Z</time>
      </trkpt>
      <trkpt lat="44.9464310" lon="6.7681340">
        <ele>1580.2</ele>
        <time>2017-07-28T13:51:41Z</time>
      </trkpt>
      <trkpt lat="44.9464610" lon="6.7682060">
        <ele>1579.8</ele>
        <time>2017-07-28T13:51:42Z</time>
      </trkpt>
      <trkpt lat="44.9465080" lon="6.7683710">
        <ele>1578.6</ele>
        <time>2017-07-28T13:51:44Z</time>
      </trkpt>
      <trkpt lat="44.9465430" lon="6.7685650">
        <ele>1577.6</ele>
        <time>2017-07-28T13:51:46Z</time>
      </trkpt>
      <trkpt lat="44.9465510" lon="6.7686630">
        <ele>1577.6</ele>
        <time>2017-07-28T13:51:47Z</time>
      </trkpt>
      <trkpt lat="44.9465530" lon="6.7688670">
        <ele>1576.2</ele>
        <time>2017-07-28T13:51:49Z</time>
      </trkpt>
      <trkpt lat="44.9465590" lon="6.7689910">
        <ele>1575.4</ele>
        <time>2017-07-28T13:51:50Z</time>
      </trkpt>
      <trkpt lat="44.9465560" lon="6.7691110">
        <ele>1574.4</ele>
        <time>2017-07-28T13:51:51Z</time>
      </trkpt>
      <trkpt lat="44.9465710" lon="6.7693160">
        <ele>1573.0</ele>
        <time>2017-07-28T13:51:53Z</time>
      </trkpt>
      <trkpt lat="44.9465950" lon="6.7694010">
        <ele>1572.4</ele>
        <time>2017-07-28T13:51:54Z</time>
      </trkpt>
      <trkpt lat="44.9466250" lon="6.7694730">
        <ele>1572.0</ele>
        <time>2017-07-28T13:51:55Z</time>
      </trkpt>
      <trkpt lat="44.9466930" lon="6.7696150">
        <ele>1570.6</ele>
        <time>2017-07-28T13:51:57Z</time>
      </trkpt>
      <trkpt lat="44.9467200" lon="6.7696880">
        <ele>1569.8</ele>
        <time>2017-07-28T13:51:58Z</time>
      </trkpt>
      <trkpt lat="44.9467460" lon="6.7697690">
        <ele>1569.6</ele>
        <time>2017-07-28T13:51:59Z</time>
      </trkpt>
      <trkpt lat="44.9467800" lon="6.7698500">
        <ele>1569.0</ele>
        <time>2017-07-28T13:52:00Z</time>
      </trkpt>
      <trkpt lat="44.9468550" lon="6.7700210">
        <ele>1566.8</ele>
        <time>2017-07-28T13:52:02Z</time>
      </trkpt>
      <trkpt lat="44.9468820" lon="6.7701150">
        <ele>1565.8</ele>
        <time>2017-07-28T13:52:03Z</time>
      </trkpt>
      <trkpt lat="44.9469220" lon="6.7703500">
        <ele>1564.4</ele>
        <time>2017-07-28T13:52:05Z</time>
      </trkpt>
      <trkpt lat="44.9469410" lon="6.7704750">
        <ele>1563.8</ele>
        <time>2017-07-28T13:52:06Z</time>
      </trkpt>
      <trkpt lat="44.9469610" lon="6.7706000">
        <ele>1562.8</ele>
        <time>2017-07-28T13:52:07Z</time>
      </trkpt>
      <trkpt lat="44.9470090" lon="6.7708600">
        <ele>1561.4</ele>
        <time>2017-07-28T13:52:09Z</time>
      </trkpt>
      <trkpt lat="44.9470550" lon="6.7711230">
        <ele>1560.0</ele>
        <time>2017-07-28T13:52:11Z</time>
      </trkpt>
      <trkpt lat="44.9470780" lon="6.7712460">
        <ele>1559.4</ele>
        <time>2017-07-28T13:52:12Z</time>
      </trkpt>
      <trkpt lat="44.9470960" lon="6.7713650">
        <ele>1558.8</ele>
        <time>2017-07-28T13:52:13Z</time>
      </trkpt>
      <trkpt lat="44.9471440" lon="6.7716160">
        <ele>1557.2</ele>
        <time>2017-07-28T13:52:15Z</time>
      </trkpt>
      <trkpt lat="44.9471940" lon="6.7718410">
        <ele>1555.8</ele>
        <time>2017-07-28T13:52:17Z</time>
      </trkpt>
      <trkpt lat="44.9472340" lon="6.7720470">
        <ele>1554.4</ele>
        <time>2017-07-28T13:52:19Z</time>
      </trkpt>
      <trkpt lat="44.9472480" lon="6.7722700">
        <ele>1553.2</ele>
        <time>2017-07-28T13:52:21Z</time>
      </trkpt>
      <trkpt lat="44.9472340" lon="6.7723860">
        <ele>1552.6</ele>
        <time>2017-07-28T13:52:22Z</time>
      </trkpt>
      <trkpt lat="44.9472170" lon="6.7725090">
        <ele>1551.8</ele>
        <time>2017-07-28T13:52:23Z</time>
      </trkpt>
      <trkpt lat="44.9471880" lon="6.7727680">
        <ele>1550.2</ele>
        <time>2017-07-28T13:52:25Z</time>
      </trkpt>
      <trkpt lat="44.9471740" lon="6.7729090">
        <ele>1548.4</ele>
        <time>2017-07-28T13:52:26Z</time>
      </trkpt>
      <trkpt lat="44.9471660" lon="6.7730540">
        <ele>1547.6</ele>
        <time>2017-07-28T13:52:27Z</time>
      </trkpt>
      <trkpt lat="44.9471590" lon="6.7732080">
        <ele>1546.8</ele>
        <time>2017-07-28T13:52:28Z</time>
      </trkpt>
      <trkpt lat="44.9471500" lon="6.7735320">
        <ele>1545.0</ele>
        <time>2017-07-28T13:52:30Z</time>
      </trkpt>
      <trkpt lat="44.9471400" lon="6.7738790">
        <ele>1543.0</ele>
        <time>2017-07-28T13:52:32Z</time>
      </trkpt>
      <trkpt lat="44.9471200" lon="6.7742390">
        <ele>1541.4</ele>
        <time>2017-07-28T13:52:34Z</time>
      </trkpt>
      <trkpt lat="44.9470990" lon="6.7746150">
        <ele>1539.2</ele>
        <time>2017-07-28T13:52:36Z</time>
      </trkpt>
      <trkpt lat="44.9470880" lon="6.7748120">
        <ele>1537.8</ele>
        <time>2017-07-28T13:52:37Z</time>
      </trkpt>
      <trkpt lat="44.9470750" lon="6.7750170">
        <ele>1536.4</ele>
        <time>2017-07-28T13:52:38Z</time>
      </trkpt>
      <trkpt lat="44.9470620" lon="6.7754280">
        <ele>1535.2</ele>
        <time>2017-07-28T13:52:40Z</time>
      </trkpt>
      <trkpt lat="44.9470490" lon="6.7758460">
        <ele>1533.4</ele>
        <time>2017-07-28T13:52:42Z</time>
      </trkpt>
      <trkpt lat="44.9470370" lon="6.7762610">
        <ele>1531.8</ele>
        <time>2017-07-28T13:52:44Z</time>
      </trkpt>
      <trkpt lat="44.9470300" lon="6.7766610">
        <ele>1530.4</ele>
        <time>2017-07-28T13:52:46Z</time>
      </trkpt>
      <trkpt lat="44.9470370" lon="6.7770330">
        <ele>1528.8</ele>
        <time>2017-07-28T13:52:48Z</time>
      </trkpt>
      <trkpt lat="44.9470570" lon="6.7772040">
        <ele>1528.2</ele>
        <time>2017-07-28T13:52:49Z</time>
      </trkpt>
      <trkpt lat="44.9470850" lon="6.7773640">
        <ele>1527.0</ele>
        <time>2017-07-28T13:52:50Z</time>
      </trkpt>
      <trkpt lat="44.9471520" lon="6.7775080">
        <ele>1526.4</ele>
        <time>2017-07-28T13:52:51Z</time>
      </trkpt>
      <trkpt lat="44.9473550" lon="6.7776730">
        <ele>1525.6</ele>
        <time>2017-07-28T13:52:53Z</time>
      </trkpt>
      <trkpt lat="44.9475660" lon="6.7778350">
        <ele>1524.2</ele>
        <time>2017-07-28T13:52:55Z</time>
      </trkpt>
      <trkpt lat="44.9477690" lon="6.7780150">
        <ele>1522.8</ele>
        <time>2017-07-28T13:52:57Z</time>
      </trkpt>
      <trkpt lat="44.9479720" lon="6.7782050">
        <ele>1521.2</ele>
        <time>2017-07-28T13:52:59Z</time>
      </trkpt>
      <trkpt lat="44.9481620" lon="6.7783830">
        <ele>1520.0</ele>
        <time>2017-07-28T13:53:01Z</time>
      </trkpt>
      <trkpt lat="44.9482250" lon="6.7784770">
        <ele>1519.6</ele>
        <time>2017-07-28T13:53:02Z</time>
      </trkpt>
      <trkpt lat="44.9482950" lon="6.7787190">
        <ele>1518.6</ele>
        <time>2017-07-28T13:53:04Z</time>
      </trkpt>
      <trkpt lat="44.9483190" lon="6.7788410">
        <ele>1517.8</ele>
        <time>2017-07-28T13:53:05Z</time>
      </trkpt>
      <trkpt lat="44.9483490" lon="6.7789560">
        <ele>1517.2</ele>
        <time>2017-07-28T13:53:06Z</time>
      </trkpt>
      <trkpt lat="44.9484400" lon="6.7792680">
        <ele>1516.0</ele>
        <time>2017-07-28T13:53:09Z</time>
      </trkpt>
      <trkpt lat="44.9485460" lon="6.7796400">
        <ele>1515.2</ele>
        <time>2017-07-28T13:53:13Z</time>
      </trkpt>
      <trkpt lat="44.9485670" lon="6.7797230">
        <ele>1515.0</ele>
        <time>2017-07-28T13:53:14Z</time>
      </trkpt>
      <trkpt lat="44.9485860" lon="6.7798010">
        <ele>1515.2</ele>
        <time>2017-07-28T13:53:15Z</time>
      </trkpt>
      <trkpt lat="44.9486070" lon="6.7799520">
        <ele>1515.2</ele>
        <time>2017-07-28T13:53:17Z</time>
      </trkpt>
      <trkpt lat="44.9485870" lon="6.7800920">
        <ele>1515.0</ele>
        <time>2017-07-28T13:53:19Z</time>
      </trkpt>
      <trkpt lat="44.9485530" lon="6.7802170">
        <ele>1515.2</ele>
        <time>2017-07-28T13:53:21Z</time>
      </trkpt>
      <trkpt lat="44.9484940" lon="6.7803660">
        <ele>1515.4</ele>
        <time>2017-07-28T13:53:24Z</time>
      </trkpt>
      <trkpt lat="44.9484420" lon="6.7804820">
        <ele>1515.6</ele>
        <time>2017-07-28T13:53:27Z</time>
      </trkpt>
      <trkpt lat="44.9484160" lon="6.7805440">
        <ele>1516.0</ele>
        <time>2017-07-28T13:53:29Z</time>
      </trkpt>
      <trkpt lat="44.9484070" lon="6.7805760">
        <ele>1516.2</ele>
        <time>2017-07-28T13:53:30Z</time>
      </trkpt>
      <trkpt lat="44.9484090" lon="6.7806950">
        <ele>1516.8</ele>
        <time>2017-07-28T13:53:33Z</time>
      </trkpt>
      <trkpt lat="44.9484260" lon="6.7807840">
        <ele>1517.0</ele>
        <time>2017-07-28T13:53:35Z</time>
      </trkpt>
      <trkpt lat="44.9484450" lon="6.7808620">
        <ele>1517.2</ele>
        <time>2017-07-28T13:53:37Z</time>
      </trkpt>
      <trkpt lat="44.9484710" lon="6.7810550">
        <ele>1518.0</ele>
        <time>2017-07-28T13:53:42Z</time>
      </trkpt>
      <trkpt lat="44.9484400" lon="6.7811640">
        <ele>1518.2</ele>
        <time>2017-07-28T13:53:45Z</time>
      </trkpt>
      <trkpt lat="44.9483960" lon="6.7812600">
        <ele>1518.4</ele>
        <time>2017-07-28T13:53:48Z</time>
      </trkpt>
      <trkpt lat="44.9483170" lon="6.7813570">
        <ele>1519.2</ele>
        <time>2017-07-28T13:53:52Z</time>
      </trkpt>
      <trkpt lat="44.9482570" lon="6.7814030">
        <ele>1519.4</ele>
        <time>2017-07-28T13:53:55Z</time>
      </trkpt>
      <trkpt lat="44.9481810" lon="6.7814720">
        <ele>1519.8</ele>
        <time>2017-07-28T13:53:59Z</time>
      </trkpt>
      <trkpt lat="44.9481210" lon="6.7815150">
        <ele>1520.4</ele>
        <time>2017-07-28T13:54:02Z</time>
      </trkpt>
      <trkpt lat="44.9479820" lon="6.7816200">
        <ele>1521.0</ele>
        <time>2017-07-28T13:54:08Z</time>
      </trkpt>
      <trkpt lat="44.9479420" lon="6.7816560">
        <ele>1521.4</ele>
        <time>2017-07-28T13:54:10Z</time>
      </trkpt>
      <trkpt lat="44.9478360" lon="6.7817520">
        <ele>1522.6</ele>
        <time>2017-07-28T13:54:15Z</time>
      </trkpt>
      <trkpt lat="44.9477540" lon="6.7818340">
        <ele>1523.6</ele>
        <time>2017-07-28T13:54:19Z</time>
      </trkpt>
      <trkpt lat="44.9477000" lon="6.7819010">
        <ele>1524.6</ele>
        <time>2017-07-28T13:54:23Z</time>
      </trkpt>
      <trkpt lat="44.9476840" lon="6.7819270">
        <ele>1524.8</ele>
        <time>2017-07-28T13:54:24Z</time>
      </trkpt>
      <trkpt lat="44.9476360" lon="6.7820050">
        <ele>1526.0</ele>
        <time>2017-07-28T13:54:27Z</time>
      </trkpt>
      <trkpt lat="44.9475890" lon="6.7820570">
        <ele>1526.8</ele>
        <time>2017-07-28T13:54:30Z</time>
      </trkpt>
      <trkpt lat="44.9475610" lon="6.7821000">
        <ele>1527.2</ele>
        <time>2017-07-28T13:54:32Z</time>
      </trkpt>
      <trkpt lat="44.9475070" lon="6.7822140">
        <ele>1528.4</ele>
        <time>2017-07-28T13:54:36Z</time>
      </trkpt>
      <trkpt lat="44.9474560" lon="6.7822990">
        <ele>1529.4</ele>
        <time>2017-07-28T13:54:40Z</time>
      </trkpt>
      <trkpt lat="44.9474100" lon="6.7824080">
        <ele>1530.4</ele>
        <time>2017-07-28T13:54:44Z</time>
      </trkpt>
      <trkpt lat="44.9474020" lon="6.7824390">
        <ele>1530.6</ele>
        <time>2017-07-28T13:54:45Z</time>
      </trkpt>
      <trkpt lat="44.9473400" lon="6.7825810">
        <ele>1531.6</ele>
        <time>2017-07-28T13:54:50Z</time>
      </trkpt>
      <trkpt lat="44.9473250" lon="6.7826070">
        <ele>1531.8</ele>
        <time>2017-07-28T13:54:51Z</time>
      </trkpt>
      <trkpt lat="44.9472410" lon="6.7826920">
        <ele>1532.6</ele>
        <time>2017-07-28T13:54:56Z</time>
      </trkpt>
      <trkpt lat="44.9472210" lon="6.7827090">
        <ele>1532.6</ele>
        <time>2017-07-28T13:54:57Z</time>
      </trkpt>
      <trkpt lat="44.9471500" lon="6.7827270">
        <ele>1532.6</ele>
        <time>2017-07-28T13:55:00Z</time>
      </trkpt>
      <trkpt lat="44.9471100" lon="6.7827250">
        <ele>1533.0</ele>
        <time>2017-07-28T13:55:02Z</time>
      </trkpt>
      <trkpt lat="44.9470810" lon="6.7827300">
        <ele>1533.4</ele>
        <time>2017-07-28T13:55:04Z</time>
      </trkpt>
      <trkpt lat="44.9470460" lon="6.7827410">
        <ele>1533.6</ele>
        <time>2017-07-28T13:55:06Z</time>
      </trkpt>
      <trkpt lat="44.9469510" lon="6.7827880">
        <ele>1533.8</ele>
        <time>2017-07-28T13:55:11Z</time>
      </trkpt>
      <trkpt lat="44.9468340" lon="6.7827530">
        <ele>1534.8</ele>
        <time>2017-07-28T13:55:17Z</time>
      </trkpt>
      <trkpt lat="44.9467860" lon="6.7827020">
        <ele>1535.2</ele>
        <time>2017-07-28T13:55:20Z</time>
      </trkpt>
      <trkpt lat="44.9467400" lon="6.7826350">
        <ele>1534.2</ele>
        <time>2017-07-28T13:55:23Z</time>
      </trkpt>
      <trkpt lat="44.9467210" lon="6.7826160">
        <ele>1531.0</ele>
        <time>2017-07-28T13:55:24Z</time>
      </trkpt>
      <trkpt lat="44.9467030" lon="6.7825950">
        <ele>1529.8</ele>
        <time>2017-07-28T13:55:25Z</time>
      </trkpt>
      <trkpt lat="44.9466660" lon="6.7825640">
        <ele>1534.2</ele>
        <time>2017-07-28T13:55:27Z</time>
      </trkpt>
      <trkpt lat="44.9466470" lon="6.7825530">
        <ele>1535.4</ele>
        <time>2017-07-28T13:55:28Z</time>
      </trkpt>
      <trkpt lat="44.9466250" lon="6.7825400">
        <ele>1535.4</ele>
        <time>2017-07-28T13:55:29Z</time>
      </trkpt>
      <trkpt lat="44.9464790" lon="6.7825050">
        <ele>1535.2</ele>
        <time>2017-07-28T13:55:35Z</time>
      </trkpt>
      <trkpt lat="44.9463680" lon="6.7825980">
        <ele>1536.2</ele>
        <time>2017-07-28T13:55:40Z</time>
      </trkpt>
      <trkpt lat="44.9463480" lon="6.7826220">
        <ele>1536.4</ele>
        <time>2017-07-28T13:55:41Z</time>
      </trkpt>
      <trkpt lat="44.9462830" lon="6.7826910">
        <ele>1537.6</ele>
        <time>2017-07-28T13:55:44Z</time>
      </trkpt>
      <trkpt lat="44.9462330" lon="6.7827790">
        <ele>1538.6</ele>
        <time>2017-07-28T13:55:47Z</time>
      </trkpt>
      <trkpt lat="44.9461940" lon="6.7828760">
        <ele>1540.0</ele>
        <time>2017-07-28T13:55:50Z</time>
      </trkpt>
      <trkpt lat="44.9461580" lon="6.7829510">
        <ele>1541.0</ele>
        <time>2017-07-28T13:55:53Z</time>
      </trkpt>
      <trkpt lat="44.9461350" lon="6.7829780">
        <ele>1541.4</ele>
        <time>2017-07-28T13:55:54Z</time>
      </trkpt>
      <trkpt lat="44.9460630" lon="6.7830320">
        <ele>1542.4</ele>
        <time>2017-07-28T13:55:57Z</time>
      </trkpt>
      <trkpt lat="44.9460020" lon="6.7830600">
        <ele>1543.2</ele>
        <time>2017-07-28T13:56:00Z</time>
      </trkpt>
      <trkpt lat="44.9459830" lon="6.7830680">
        <ele>1543.6</ele>
        <time>2017-07-28T13:56:01Z</time>
      </trkpt>
      <trkpt lat="44.9459200" lon="6.7831170">
        <ele>1544.8</ele>
        <time>2017-07-28T13:56:04Z</time>
      </trkpt>
      <trkpt lat="44.9458590" lon="6.7831870">
        <ele>1545.4</ele>
        <time>2017-07-28T13:56:07Z</time>
      </trkpt>
      <trkpt lat="44.9458290" lon="6.7832360">
        <ele>1546.0</ele>
        <time>2017-07-28T13:56:09Z</time>
      </trkpt>
      <trkpt lat="44.9457260" lon="6.7833450">
        <ele>1547.0</ele>
        <time>2017-07-28T13:56:14Z</time>
      </trkpt>
      <trkpt lat="44.9456980" lon="6.7833690">
        <ele>1547.2</ele>
        <time>2017-07-28T13:56:15Z</time>
      </trkpt>
      <trkpt lat="44.9456170" lon="6.7834400">
        <ele>1548.0</ele>
        <time>2017-07-28T13:56:18Z</time>
      </trkpt>
      <trkpt lat="44.9455290" lon="6.7835270">
        <ele>1549.0</ele>
        <time>2017-07-28T13:56:22Z</time>
      </trkpt>
      <trkpt lat="44.9455200" lon="6.7835550">
        <ele>1549.2</ele>
        <time>2017-07-28T13:56:23Z</time>
      </trkpt>
      <trkpt lat="44.9454610" lon="6.7836970">
        <ele>1550.4</ele>
        <time>2017-07-28T13:56:28Z</time>
      </trkpt>
      <trkpt lat="44.9453990" lon="6.7838290">
        <ele>1551.6</ele>
        <time>2017-07-28T13:56:33Z</time>
      </trkpt>
      <trkpt lat="44.9453860" lon="6.7838900">
        <ele>1552.0</ele>
        <time>2017-07-28T13:56:35Z</time>
      </trkpt>
      <trkpt lat="44.9453670" lon="6.7840190">
        <ele>1552.6</ele>
        <time>2017-07-28T13:56:39Z</time>
      </trkpt>
      <trkpt lat="44.9453520" lon="6.7841020">
        <ele>1553.4</ele>
        <time>2017-07-28T13:56:42Z</time>
      </trkpt>
      <trkpt lat="44.9453470" lon="6.7841830">
        <ele>1553.8</ele>
        <time>2017-07-28T13:56:44Z</time>
      </trkpt>
      <trkpt lat="44.9453210" lon="6.7842830">
        <ele>1554.4</ele>
        <time>2017-07-28T13:56:47Z</time>
      </trkpt>
      <trkpt lat="44.9452980" lon="6.7843350">
        <ele>1555.0</ele>
        <time>2017-07-28T13:56:49Z</time>
      </trkpt>
      <trkpt lat="44.9452540" lon="6.7844500">
        <ele>1556.0</ele>
        <time>2017-07-28T13:56:53Z</time>
      </trkpt>
      <trkpt lat="44.9452320" lon="6.7845170">
        <ele>1556.4</ele>
        <time>2017-07-28T13:56:55Z</time>
      </trkpt>
      <trkpt lat="44.9451710" lon="6.7846440">
        <ele>1557.0</ele>
        <time>2017-07-28T13:57:00Z</time>
      </trkpt>
      <trkpt lat="44.9451620" lon="6.7846940">
        <ele>1557.6</ele>
        <time>2017-07-28T13:57:02Z</time>
      </trkpt>
      <trkpt lat="44.9451540" lon="6.7847790">
        <ele>1558.2</ele>
        <time>2017-07-28T13:57:05Z</time>
      </trkpt>
      <trkpt lat="44.9451320" lon="6.7849590">
        <ele>1558.4</ele>
        <time>2017-07-28T13:57:10Z</time>
      </trkpt>
      <trkpt lat="44.9451150" lon="6.7850270">
        <ele>1559.4</ele>
        <time>2017-07-28T13:57:12Z</time>
      </trkpt>
      <trkpt lat="44.9450610" lon="6.7851780">
        <ele>1560.4</ele>
        <time>2017-07-28T13:57:16Z</time>
      </trkpt>
      <trkpt lat="44.9450330" lon="6.7852450">
        <ele>1560.6</ele>
        <time>2017-07-28T13:57:18Z</time>
      </trkpt>
      <trkpt lat="44.9449690" lon="6.7854390">
        <ele>1562.0</ele>
        <time>2017-07-28T13:57:23Z</time>
      </trkpt>
      <trkpt lat="44.9449190" lon="6.7856280">
        <ele>1563.0</ele>
        <time>2017-07-28T13:57:27Z</time>
      </trkpt>
      <trkpt lat="44.9449150" lon="6.7857810">
        <ele>1563.6</ele>
        <time>2017-07-28T13:57:30Z</time>
      </trkpt>
      <trkpt lat="44.9449310" lon="6.7858850">
        <ele>1563.8</ele>
        <time>2017-07-28T13:57:32Z</time>
      </trkpt>
      <trkpt lat="44.9449630" lon="6.7859880">
        <ele>1564.2</ele>
        <time>2017-07-28T13:57:34Z</time>
      </trkpt>
      <trkpt lat="44.9449830" lon="6.7860910">
        <ele>1564.4</ele>
        <time>2017-07-28T13:57:36Z</time>
      </trkpt>
      <trkpt lat="44.9450070" lon="6.7863330">
        <ele>1565.0</ele>
        <time>2017-07-28T13:57:41Z</time>
      </trkpt>
      <trkpt lat="44.9450260" lon="6.7864280">
        <ele>1565.2</ele>
        <time>2017-07-28T13:57:43Z</time>
      </trkpt>
      <trkpt lat="44.9450210" lon="6.7866280">
        <ele>1565.4</ele>
        <time>2017-07-28T13:57:47Z</time>
      </trkpt>
      <trkpt lat="44.9449780" lon="6.7870850">
        <ele>1566.4</ele>
        <time>2017-07-28T13:57:55Z</time>
      </trkpt>
      <trkpt lat="44.9449480" lon="6.7875100">
        <ele>1567.0</ele>
        <time>2017-07-28T13:58:02Z</time>
      </trkpt>
      <trkpt lat="44.9449360" lon="6.7877180">
        <ele>1567.2</ele>
        <time>2017-07-28T13:58:05Z</time>
      </trkpt>
      <trkpt lat="44.9449140" lon="6.7878420">
        <ele>1567.4</ele>
        <time>2017-07-28T13:58:07Z</time>
      </trkpt>
      <trkpt lat="44.9448970" lon="6.7879030">
        <ele>1567.6</ele>
        <time>2017-07-28T13:58:08Z</time>
      </trkpt>
      <trkpt lat="44.9447850" lon="6.7881920">
        <ele>1568.6</ele>
        <time>2017-07-28T13:58:13Z</time>
      </trkpt>
      <trkpt lat="44.9447240" lon="6.7882850">
        <ele>1568.8</ele>
        <time>2017-07-28T13:58:15Z</time>
      </trkpt>
      <trkpt lat="44.9445930" lon="6.7884500">
        <ele>1569.6</ele>
        <time>2017-07-28T13:58:20Z</time>
      </trkpt>
      <trkpt lat="44.9445310" lon="6.7884970">
        <ele>1570.0</ele>
        <time>2017-07-28T13:58:22Z</time>
      </trkpt>
      <trkpt lat="44.9443450" lon="6.7886560">
        <ele>1570.6</ele>
        <time>2017-07-28T13:58:29Z</time>
      </trkpt>
      <trkpt lat="44.9443140" lon="6.7887130">
        <ele>1570.4</ele>
        <time>2017-07-28T13:58:31Z</time>
      </trkpt>
      <trkpt lat="44.9443090" lon="6.7887790">
        <ele>1570.4</ele>
        <time>2017-07-28T13:58:33Z</time>
      </trkpt>
      <trkpt lat="44.9443780" lon="6.7889490">
        <ele>1570.6</ele>
        <time>2017-07-28T13:58:36Z</time>
      </trkpt>
      <trkpt lat="44.9444030" lon="6.7890070">
        <ele>1570.6</ele>
        <time>2017-07-28T13:58:37Z</time>
      </trkpt>
      <trkpt lat="44.9444660" lon="6.7891490">
        <ele>1570.8</ele>
        <time>2017-07-28T13:58:39Z</time>
      </trkpt>
      <trkpt lat="44.9445440" lon="6.7892550">
        <ele>1570.6</ele>
        <time>2017-07-28T13:58:41Z</time>
      </trkpt>
      <trkpt lat="44.9447050" lon="6.7893630">
        <ele>1570.2</ele>
        <time>2017-07-28T13:58:44Z</time>
      </trkpt>
      <trkpt lat="44.9448100" lon="6.7894940">
        <ele>1569.6</ele>
        <time>2017-07-28T13:58:46Z</time>
      </trkpt>
      <trkpt lat="44.9448610" lon="6.7895680">
        <ele>1569.4</ele>
        <time>2017-07-28T13:58:47Z</time>
      </trkpt>
      <trkpt lat="44.9449280" lon="6.7896310">
        <ele>1569.2</ele>
        <time>2017-07-28T13:58:48Z</time>
      </trkpt>
      <trkpt lat="44.9451540" lon="6.7897490">
        <ele>1568.0</ele>
        <time>2017-07-28T13:58:51Z</time>
      </trkpt>
      <trkpt lat="44.9452630" lon="6.7899650">
        <ele>1567.2</ele>
        <time>2017-07-28T13:58:54Z</time>
      </trkpt>
      <trkpt lat="44.9452390" lon="6.7900390">
        <ele>1566.8</ele>
        <time>2017-07-28T13:58:55Z</time>
      </trkpt>
      <trkpt lat="44.9451940" lon="6.7900990">
        <ele>1566.2</ele>
        <time>2017-07-28T13:58:56Z</time>
      </trkpt>
      <trkpt lat="44.9451410" lon="6.7901480">
        <ele>1565.4</ele>
        <time>2017-07-28T13:58:57Z</time>
      </trkpt>
      <trkpt lat="44.9450230" lon="6.7902390">
        <ele>1564.2</ele>
        <time>2017-07-28T13:58:59Z</time>
      </trkpt>
      <trkpt lat="44.9449530" lon="6.7902850">
        <ele>1563.6</ele>
        <time>2017-07-28T13:59:00Z</time>
      </trkpt>
      <trkpt lat="44.9448800" lon="6.7903220">
        <ele>1563.2</ele>
        <time>2017-07-28T13:59:01Z</time>
      </trkpt>
      <trkpt lat="44.9447280" lon="6.7903940">
        <ele>1562.2</ele>
        <time>2017-07-28T13:59:03Z</time>
      </trkpt>
      <trkpt lat="44.9446460" lon="6.7904110">
        <ele>1561.6</ele>
        <time>2017-07-28T13:59:04Z</time>
      </trkpt>
      <trkpt lat="44.9445650" lon="6.7904320">
        <ele>1561.0</ele>
        <time>2017-07-28T13:59:05Z</time>
      </trkpt>
      <trkpt lat="44.9444000" lon="6.7904840">
        <ele>1560.0</ele>
        <time>2017-07-28T13:59:07Z</time>
      </trkpt>
      <trkpt lat="44.9442310" lon="6.7905660">
        <ele>1559.0</ele>
        <time>2017-07-28T13:59:09Z</time>
      </trkpt>
      <trkpt lat="44.9441470" lon="6.7906260">
        <ele>1558.4</ele>
        <time>2017-07-28T13:59:10Z</time>
      </trkpt>
      <trkpt lat="44.9439970" lon="6.7907980">
        <ele>1557.8</ele>
        <time>2017-07-28T13:59:12Z</time>
      </trkpt>
      <trkpt lat="44.9439290" lon="6.7908970">
        <ele>1557.2</ele>
        <time>2017-07-28T13:59:13Z</time>
      </trkpt>
      <trkpt lat="44.9438640" lon="6.7909910">
        <ele>1556.8</ele>
        <time>2017-07-28T13:59:14Z</time>
      </trkpt>
      <trkpt lat="44.9437750" lon="6.7911800">
        <ele>1556.6</ele>
        <time>2017-07-28T13:59:16Z</time>
      </trkpt>
      <trkpt lat="44.9437410" lon="6.7912960">
        <ele>1556.2</ele>
        <time>2017-07-28T13:59:17Z</time>
      </trkpt>
      <trkpt lat="44.9435590" lon="6.7917420">
        <ele>1555.2</ele>
        <time>2017-07-28T13:59:21Z</time>
      </trkpt>
      <trkpt lat="44.9435040" lon="6.7918420">
        <ele>1554.8</ele>
        <time>2017-07-28T13:59:22Z</time>
      </trkpt>
      <trkpt lat="44.9434380" lon="6.7919310">
        <ele>1554.4</ele>
        <time>2017-07-28T13:59:23Z</time>
      </trkpt>
      <trkpt lat="44.9433560" lon="6.7919910">
        <ele>1554.0</ele>
        <time>2017-07-28T13:59:24Z</time>
      </trkpt>
      <trkpt lat="44.9432730" lon="6.7920420">
        <ele>1553.6</ele>
        <time>2017-07-28T13:59:25Z</time>
      </trkpt>
      <trkpt lat="44.9430980" lon="6.7921580">
        <ele>1553.0</ele>
        <time>2017-07-28T13:59:27Z</time>
      </trkpt>
      <trkpt lat="44.9429280" lon="6.7922930">
        <ele>1553.2</ele>
        <time>2017-07-28T13:59:29Z</time>
      </trkpt>
      <trkpt lat="44.9428490" lon="6.7923730">
        <ele>1552.4</ele>
        <time>2017-07-28T13:59:30Z</time>
      </trkpt>
      <trkpt lat="44.9427690" lon="6.7924430">
        <ele>1551.8</ele>
        <time>2017-07-28T13:59:31Z</time>
      </trkpt>
      <trkpt lat="44.9426250" lon="6.7925690">
        <ele>1550.4</ele>
        <time>2017-07-28T13:59:33Z</time>
      </trkpt>
      <trkpt lat="44.9424990" lon="6.7927250">
        <ele>1549.4</ele>
        <time>2017-07-28T13:59:35Z</time>
      </trkpt>
      <trkpt lat="44.9424470" lon="6.7928270">
        <ele>1549.0</ele>
        <time>2017-07-28T13:59:36Z</time>
      </trkpt>
      <trkpt lat="44.9423620" lon="6.7930580">
        <ele>1548.0</ele>
        <time>2017-07-28T13:59:38Z</time>
      </trkpt>
      <trkpt lat="44.9423180" lon="6.7931690">
        <ele>1546.2</ele>
        <time>2017-07-28T13:59:39Z</time>
      </trkpt>
      <trkpt lat="44.9422200" lon="6.7933780">
        <ele>1545.0</ele>
        <time>2017-07-28T13:59:41Z</time>
      </trkpt>
      <trkpt lat="44.9421000" lon="6.7935860">
        <ele>1543.8</ele>
        <time>2017-07-28T13:59:43Z</time>
      </trkpt>
      <trkpt lat="44.9419680" lon="6.7937690">
        <ele>1542.4</ele>
        <time>2017-07-28T13:59:45Z</time>
      </trkpt>
      <trkpt lat="44.9418940" lon="6.7938320">
        <ele>1541.4</ele>
        <time>2017-07-28T13:59:46Z</time>
      </trkpt>
      <trkpt lat="44.9418290" lon="6.7938910">
        <ele>1540.2</ele>
        <time>2017-07-28T13:59:47Z</time>
      </trkpt>
      <trkpt lat="44.9417810" lon="6.7939530">
        <ele>1539.4</ele>
        <time>2017-07-28T13:59:48Z</time>
      </trkpt>
      <trkpt lat="44.9417510" lon="6.7940340">
        <ele>1538.4</ele>
        <time>2017-07-28T13:59:49Z</time>
      </trkpt>
      <trkpt lat="44.9417210" lon="6.7941100">
        <ele>1538.2</ele>
        <time>2017-07-28T13:59:50Z</time>
      </trkpt>
      <trkpt lat="44.9416940" lon="6.7941670">
        <ele>1537.4</ele>
        <time>2017-07-28T13:59:51Z</time>
      </trkpt>
      <trkpt lat="44.9416530" lon="6.7942150">
        <ele>1535.6</ele>
        <time>2017-07-28T13:59:53Z</time>
      </trkpt>
      <trkpt lat="44.9416510" lon="6.7942020">
        <ele>1534.2</ele>
        <time>2017-07-28T13:59:55Z</time>
      </trkpt>
      <trkpt lat="44.9416590" lon="6.7941770">
        <ele>1533.8</ele>
        <time>2017-07-28T13:59:56Z</time>
      </trkpt>
      <trkpt lat="44.9417300" lon="6.7941120">
        <ele>1532.8</ele>
        <time>2017-07-28T13:59:58Z</time>
      </trkpt>
      <trkpt lat="44.9418280" lon="6.7940380">
        <ele>1532.2</ele>
        <time>2017-07-28T13:59:59Z</time>
      </trkpt>
      <trkpt lat="44.9419040" lon="6.7939730">
        <ele>1531.8</ele>
        <time>2017-07-28T14:00:00Z</time>
      </trkpt>
      <trkpt lat="44.9419840" lon="6.7939350">
        <ele>1531.2</ele>
        <time>2017-07-28T14:00:01Z</time>
      </trkpt>
      <trkpt lat="44.9421800" lon="6.7937930">
        <ele>1529.0</ele>
        <time>2017-07-28T14:00:03Z</time>
      </trkpt>
      <trkpt lat="44.9422890" lon="6.7937160">
        <ele>1528.4</ele>
        <time>2017-07-28T14:00:04Z</time>
      </trkpt>
      <trkpt lat="44.9423800" lon="6.7936400">
        <ele>1527.6</ele>
        <time>2017-07-28T14:00:05Z</time>
      </trkpt>
      <trkpt lat="44.9426960" lon="6.7935110">
        <ele>1526.4</ele>
        <time>2017-07-28T14:00:07Z</time>
      </trkpt>
      <trkpt lat="44.9428040" lon="6.7934730">
        <ele>1526.0</ele>
        <time>2017-07-28T14:00:08Z</time>
      </trkpt>
      <trkpt lat="44.9429040" lon="6.7934420">
        <ele>1525.2</ele>
        <time>2017-07-28T14:00:09Z</time>
      </trkpt>
      <trkpt lat="44.9431010" lon="6.7934020">
        <ele>1523.4</ele>
        <time>2017-07-28T14:00:11Z</time>
      </trkpt>
      <trkpt lat="44.9432830" lon="6.7933460">
        <ele>1522.0</ele>
        <time>2017-07-28T14:00:13Z</time>
      </trkpt>
      <trkpt lat="44.9434850" lon="6.7932450">
        <ele>1520.4</ele>
        <time>2017-07-28T14:00:15Z</time>
      </trkpt>
      <trkpt lat="44.9436950" lon="6.7931600">
        <ele>1518.4</ele>
        <time>2017-07-28T14:00:17Z</time>
      </trkpt>
      <trkpt lat="44.9439000" lon="6.7930990">
        <ele>1516.6</ele>
        <time>2017-07-28T14:00:19Z</time>
      </trkpt>
      <trkpt lat="44.9440980" lon="6.7930190">
        <ele>1515.2</ele>
        <time>2017-07-28T14:00:21Z</time>
      </trkpt>
      <trkpt lat="44.9443020" lon="6.7929290">
        <ele>1513.2</ele>
        <time>2017-07-28T14:00:23Z</time>
      </trkpt>
      <trkpt lat="44.9444070" lon="6.7928860">
        <ele>1512.0</ele>
        <time>2017-07-28T14:00:24Z</time>
      </trkpt>
      <trkpt lat="44.9445130" lon="6.7928540">
        <ele>1511.0</ele>
        <time>2017-07-28T14:00:25Z</time>
      </trkpt>
      <trkpt lat="44.9447260" lon="6.7927630">
        <ele>1508.4</ele>
        <time>2017-07-28T14:00:27Z</time>
      </trkpt>
      <trkpt lat="44.9449240" lon="6.7926530">
        <ele>1506.6</ele>
        <time>2017-07-28T14:00:29Z</time>
      </trkpt>
      <trkpt lat="44.9450220" lon="6.7926060">
        <ele>1505.4</ele>
        <time>2017-07-28T14:00:30Z</time>
      </trkpt>
      <trkpt lat="44.9451190" lon="6.7925540">
        <ele>1504.2</ele>
        <time>2017-07-28T14:00:31Z</time>
      </trkpt>
      <trkpt lat="44.9453080" lon="6.7924340">
        <ele>1502.6</ele>
        <time>2017-07-28T14:00:33Z</time>
      </trkpt>
      <trkpt lat="44.9454920" lon="6.7923300">
        <ele>1501.0</ele>
        <time>2017-07-28T14:00:35Z</time>
      </trkpt>
      <trkpt lat="44.9456730" lon="6.7922100">
        <ele>1499.0</ele>
        <time>2017-07-28T14:00:37Z</time>
      </trkpt>
      <trkpt lat="44.9458230" lon="6.7920870">
        <ele>1497.0</ele>
        <time>2017-07-28T14:00:39Z</time>
      </trkpt>
      <trkpt lat="44.9458800" lon="6.7920510">
        <ele>1496.6</ele>
        <time>2017-07-28T14:00:40Z</time>
      </trkpt>
      <trkpt lat="44.9459320" lon="6.7920700">
        <ele>1495.8</ele>
        <time>2017-07-28T14:00:41Z</time>
      </trkpt>
      <trkpt lat="44.9459690" lon="6.7921220">
        <ele>1495.4</ele>
        <time>2017-07-28T14:00:42Z</time>
      </trkpt>
      <trkpt lat="44.9459770" lon="6.7921950">
        <ele>1494.8</ele>
        <time>2017-07-28T14:00:43Z</time>
      </trkpt>
      <trkpt lat="44.9459690" lon="6.7922660">
        <ele>1494.2</ele>
        <time>2017-07-28T14:00:44Z</time>
      </trkpt>
      <trkpt lat="44.9459540" lon="6.7923260">
        <ele>1493.6</ele>
        <time>2017-07-28T14:00:45Z</time>
      </trkpt>
      <trkpt lat="44.9458760" lon="6.7924300">
        <ele>1492.4</ele>
        <time>2017-07-28T14:00:47Z</time>
      </trkpt>
      <trkpt lat="44.9458050" lon="6.7925790">
        <ele>1491.0</ele>
        <time>2017-07-28T14:00:49Z</time>
      </trkpt>
      <trkpt lat="44.9457730" lon="6.7926630">
        <ele>1490.6</ele>
        <time>2017-07-28T14:00:50Z</time>
      </trkpt>
      <trkpt lat="44.9457450" lon="6.7927480">
        <ele>1489.8</ele>
        <time>2017-07-28T14:00:51Z</time>
      </trkpt>
      <trkpt lat="44.9457030" lon="6.7929440">
        <ele>1488.8</ele>
        <time>2017-07-28T14:00:53Z</time>
      </trkpt>
      <trkpt lat="44.9456890" lon="6.7930470">
        <ele>1488.6</ele>
        <time>2017-07-28T14:00:54Z</time>
      </trkpt>
      <trkpt lat="44.9456760" lon="6.7931520">
        <ele>1488.2</ele>
        <time>2017-07-28T14:00:55Z</time>
      </trkpt>
      <trkpt lat="44.9456440" lon="6.7933690">
        <ele>1487.2</ele>
        <time>2017-07-28T14:00:57Z</time>
      </trkpt>
      <trkpt lat="44.9456170" lon="6.7934680">
        <ele>1486.6</ele>
        <time>2017-07-28T14:00:58Z</time>
      </trkpt>
      <trkpt lat="44.9455770" lon="6.7936430">
        <ele>1486.0</ele>
        <time>2017-07-28T14:01:00Z</time>
      </trkpt>
      <trkpt lat="44.9455570" lon="6.7936990">
        <ele>1485.4</ele>
        <time>2017-07-28T14:01:01Z</time>
      </trkpt>
      <trkpt lat="44.9455150" lon="6.7937250">
        <ele>1484.6</ele>
        <time>2017-07-28T14:01:02Z</time>
      </trkpt>
      <trkpt lat="44.9454660" lon="6.7937160">
        <ele>1484.0</ele>
        <time>2017-07-28T14:01:03Z</time>
      </trkpt>
      <trkpt lat="44.9454080" lon="6.7937220">
        <ele>1483.4</ele>
        <time>2017-07-28T14:01:04Z</time>
      </trkpt>
      <trkpt lat="44.9452890" lon="6.7937810">
        <ele>1482.0</ele>
        <time>2017-07-28T14:01:06Z</time>
      </trkpt>
      <trkpt lat="44.9452400" lon="6.7938470">
        <ele>1481.8</ele>
        <time>2017-07-28T14:01:07Z</time>
      </trkpt>
      <trkpt lat="44.9451790" lon="6.7941290">
        <ele>1481.4</ele>
        <time>2017-07-28T14:01:10Z</time>
      </trkpt>
      <trkpt lat="44.9451600" lon="6.7942280">
        <ele>1481.0</ele>
        <time>2017-07-28T14:01:11Z</time>
      </trkpt>
      <trkpt lat="44.9451030" lon="6.7944150">
        <ele>1480.4</ele>
        <time>2017-07-28T14:01:13Z</time>
      </trkpt>
      <trkpt lat="44.9449960" lon="6.7945780">
        <ele>1479.6</ele>
        <time>2017-07-28T14:01:15Z</time>
      </trkpt>
      <trkpt lat="44.9448630" lon="6.7947220">
        <ele>1479.2</ele>
        <time>2017-07-28T14:01:17Z</time>
      </trkpt>
      <trkpt lat="44.9447380" lon="6.7948710">
        <ele>1478.6</ele>
        <time>2017-07-28T14:01:19Z</time>
      </trkpt>
      <trkpt lat="44.9446850" lon="6.7949480">
        <ele>1478.4</ele>
        <time>2017-07-28T14:01:20Z</time>
      </trkpt>
      <trkpt lat="44.9446390" lon="6.7950300">
        <ele>1478.0</ele>
        <time>2017-07-28T14:01:21Z</time>
      </trkpt>
      <trkpt lat="44.9445670" lon="6.7951790">
        <ele>1477.2</ele>
        <time>2017-07-28T14:01:23Z</time>
      </trkpt>
      <trkpt lat="44.9445200" lon="6.7952140">
        <ele>1476.8</ele>
        <time>2017-07-28T14:01:24Z</time>
      </trkpt>
      <trkpt lat="44.9444120" lon="6.7951560">
        <ele>1476.2</ele>
        <time>2017-07-28T14:01:26Z</time>
      </trkpt>
      <trkpt lat="44.9442270" lon="6.7951950">
        <ele>1475.2</ele>
        <time>2017-07-28T14:01:29Z</time>
      </trkpt>
      <trkpt lat="44.9440070" lon="6.7952370">
        <ele>1473.8</ele>
        <time>2017-07-28T14:01:32Z</time>
      </trkpt>
      <trkpt lat="44.9439340" lon="6.7951960">
        <ele>1473.2</ele>
        <time>2017-07-28T14:01:33Z</time>
      </trkpt>
      <trkpt lat="44.9437710" lon="6.7951320">
        <ele>1472.0</ele>
        <time>2017-07-28T14:01:35Z</time>
      </trkpt>
      <trkpt lat="44.9436870" lon="6.7951230">
        <ele>1471.4</ele>
        <time>2017-07-28T14:01:36Z</time>
      </trkpt>
      <trkpt lat="44.9436030" lon="6.7951370">
        <ele>1470.8</ele>
        <time>2017-07-28T14:01:37Z</time>
      </trkpt>
      <trkpt lat="44.9434410" lon="6.7952070">
        <ele>1469.2</ele>
        <time>2017-07-28T14:01:39Z</time>
      </trkpt>
      <trkpt lat="44.9433610" lon="6.7952590">
        <ele>1468.6</ele>
        <time>2017-07-28T14:01:40Z</time>
      </trkpt>
      <trkpt lat="44.9432810" lon="6.7953250">
        <ele>1467.6</ele>
        <time>2017-07-28T14:01:41Z</time>
      </trkpt>
      <trkpt lat="44.9431680" lon="6.7955200">
        <ele>1466.6</ele>
        <time>2017-07-28T14:01:43Z</time>
      </trkpt>
      <trkpt lat="44.9431230" lon="6.7955810">
        <ele>1466.2</ele>
        <time>2017-07-28T14:01:44Z</time>
      </trkpt>
      <trkpt lat="44.9430760" lon="6.7956310">
        <ele>1465.6</ele>
        <time>2017-07-28T14:01:45Z</time>
      </trkpt>
      <trkpt lat="44.9430100" lon="6.7956510">
        <ele>1465.0</ele>
        <time>2017-07-28T14:01:46Z</time>
      </trkpt>
      <trkpt lat="44.9428720" lon="6.7956570">
        <ele>1464.4</ele>
        <time>2017-07-28T14:01:48Z</time>
      </trkpt>
      <trkpt lat="44.9427950" lon="6.7956510">
        <ele>1464.0</ele>
        <time>2017-07-28T14:01:49Z</time>
      </trkpt>
      <trkpt lat="44.9427210" lon="6.7956710">
        <ele>1463.4</ele>
        <time>2017-07-28T14:01:50Z</time>
      </trkpt>
      <trkpt lat="44.9426450" lon="6.7957080">
        <ele>1463.2</ele>
        <time>2017-07-28T14:01:51Z</time>
      </trkpt>
      <trkpt lat="44.9425720" lon="6.7957660">
        <ele>1462.6</ele>
        <time>2017-07-28T14:01:52Z</time>
      </trkpt>
      <trkpt lat="44.9424530" lon="6.7958990">
        <ele>1461.8</ele>
        <time>2017-07-28T14:01:54Z</time>
      </trkpt>
      <trkpt lat="44.9423870" lon="6.7959420">
        <ele>1461.4</ele>
        <time>2017-07-28T14:01:55Z</time>
      </trkpt>
      <trkpt lat="44.9423180" lon="6.7959830">
        <ele>1461.0</ele>
        <time>2017-07-28T14:01:56Z</time>
      </trkpt>
      <trkpt lat="44.9422670" lon="6.7959330">
        <ele>1460.6</ele>
        <time>2017-07-28T14:01:57Z</time>
      </trkpt>
      <trkpt lat="44.9422070" lon="6.7958930">
        <ele>1460.0</ele>
        <time>2017-07-28T14:01:58Z</time>
      </trkpt>
      <trkpt lat="44.9421430" lon="6.7958580">
        <ele>1459.4</ele>
        <time>2017-07-28T14:01:59Z</time>
      </trkpt>
      <trkpt lat="44.9420780" lon="6.7958500">
        <ele>1459.0</ele>
        <time>2017-07-28T14:02:00Z</time>
      </trkpt>
      <trkpt lat="44.9419510" lon="6.7959040">
        <ele>1458.4</ele>
        <time>2017-07-28T14:02:02Z</time>
      </trkpt>
      <trkpt lat="44.9418890" lon="6.7959520">
        <ele>1457.8</ele>
        <time>2017-07-28T14:02:03Z</time>
      </trkpt>
      <trkpt lat="44.9417780" lon="6.7961190">
        <ele>1457.2</ele>
        <time>2017-07-28T14:02:06Z</time>
      </trkpt>
      <trkpt lat="44.9417570" lon="6.7961970">
        <ele>1457.0</ele>
        <time>2017-07-28T14:02:07Z</time>
      </trkpt>
      <trkpt lat="44.9417220" lon="6.7963500">
        <ele>1456.8</ele>
        <time>2017-07-28T14:02:09Z</time>
      </trkpt>
      <trkpt lat="44.9416930" lon="6.7964210">
        <ele>1456.6</ele>
        <time>2017-07-28T14:02:10Z</time>
      </trkpt>
      <trkpt lat="44.9415790" lon="6.7966040">
        <ele>1456.0</ele>
        <time>2017-07-28T14:02:13Z</time>
      </trkpt>
      <trkpt lat="44.9414790" lon="6.7967020">
        <ele>1455.4</ele>
        <time>2017-07-28T14:02:15Z</time>
      </trkpt>
      <trkpt lat="44.9413570" lon="6.7967510">
        <ele>1454.8</ele>
        <time>2017-07-28T14:02:17Z</time>
      </trkpt>
      <trkpt lat="44.9412180" lon="6.7967660">
        <ele>1454.0</ele>
        <time>2017-07-28T14:02:19Z</time>
      </trkpt>
      <trkpt lat="44.9411490" lon="6.7967580">
        <ele>1453.8</ele>
        <time>2017-07-28T14:02:20Z</time>
      </trkpt>
      <trkpt lat="44.9410760" lon="6.7967490">
        <ele>1453.8</ele>
        <time>2017-07-28T14:02:21Z</time>
      </trkpt>
      <trkpt lat="44.9409370" lon="6.7967800">
        <ele>1453.0</ele>
        <time>2017-07-28T14:02:23Z</time>
      </trkpt>
      <trkpt lat="44.9408210" lon="6.7968490">
        <ele>1452.4</ele>
        <time>2017-07-28T14:02:25Z</time>
      </trkpt>
      <trkpt lat="44.9407810" lon="6.7968840">
        <ele>1452.4</ele>
        <time>2017-07-28T14:02:26Z</time>
      </trkpt>
      <trkpt lat="44.9407160" lon="6.7969770">
        <ele>1451.6</ele>
        <time>2017-07-28T14:02:28Z</time>
      </trkpt>
      <trkpt lat="44.9407040" lon="6.7970560">
        <ele>1451.6</ele>
        <time>2017-07-28T14:02:29Z</time>
      </trkpt>
      <trkpt lat="44.9405970" lon="6.7974070">
        <ele>1450.8</ele>
        <time>2017-07-28T14:02:33Z</time>
      </trkpt>
      <trkpt lat="44.9405470" lon="6.7974630">
        <ele>1450.6</ele>
        <time>2017-07-28T14:02:34Z</time>
      </trkpt>
      <trkpt lat="44.9404240" lon="6.7975510">
        <ele>1450.2</ele>
        <time>2017-07-28T14:02:36Z</time>
      </trkpt>
      <trkpt lat="44.9403610" lon="6.7975970">
        <ele>1449.8</ele>
        <time>2017-07-28T14:02:37Z</time>
      </trkpt>
      <trkpt lat="44.9402970" lon="6.7976450">
        <ele>1449.2</ele>
        <time>2017-07-28T14:02:38Z</time>
      </trkpt>
      <trkpt lat="44.9400400" lon="6.7978570">
        <ele>1447.8</ele>
        <time>2017-07-28T14:02:42Z</time>
      </trkpt>
      <trkpt lat="44.9399680" lon="6.7979170">
        <ele>1447.4</ele>
        <time>2017-07-28T14:02:43Z</time>
      </trkpt>
      <trkpt lat="44.9398330" lon="6.7980500">
        <ele>1446.8</ele>
        <time>2017-07-28T14:02:45Z</time>
      </trkpt>
      <trkpt lat="44.9396380" lon="6.7982810">
        <ele>1445.6</ele>
        <time>2017-07-28T14:02:48Z</time>
      </trkpt>
      <trkpt lat="44.9395740" lon="6.7983670">
        <ele>1445.4</ele>
        <time>2017-07-28T14:02:49Z</time>
      </trkpt>
      <trkpt lat="44.9394420" lon="6.7985480">
        <ele>1444.2</ele>
        <time>2017-07-28T14:02:51Z</time>
      </trkpt>
      <trkpt lat="44.9393820" lon="6.7986570">
        <ele>1443.8</ele>
        <time>2017-07-28T14:02:52Z</time>
      </trkpt>
      <trkpt lat="44.9392710" lon="6.7988850">
        <ele>1443.2</ele>
        <time>2017-07-28T14:02:54Z</time>
      </trkpt>
      <trkpt lat="44.9392300" lon="6.7990060">
        <ele>1443.0</ele>
        <time>2017-07-28T14:02:55Z</time>
      </trkpt>
      <trkpt lat="44.9391770" lon="6.7991990">
        <ele>1442.0</ele>
        <time>2017-07-28T14:02:57Z</time>
      </trkpt>
      <trkpt lat="44.9391300" lon="6.7993410">
        <ele>1441.4</ele>
        <time>2017-07-28T14:02:59Z</time>
      </trkpt>
      <trkpt lat="44.9390740" lon="6.7994720">
        <ele>1440.8</ele>
        <time>2017-07-28T14:03:01Z</time>
      </trkpt>
      <trkpt lat="44.9389590" lon="6.7997150">
        <ele>1439.8</ele>
        <time>2017-07-28T14:03:04Z</time>
      </trkpt>
      <trkpt lat="44.9389100" lon="6.7997980">
        <ele>1439.0</ele>
        <time>2017-07-28T14:03:05Z</time>
      </trkpt>
      <trkpt lat="44.9388610" lon="6.7998910">
        <ele>1438.6</ele>
        <time>2017-07-28T14:03:06Z</time>
      </trkpt>
      <trkpt lat="44.9387660" lon="6.8000810">
        <ele>1437.4</ele>
        <time>2017-07-28T14:03:08Z</time>
      </trkpt>
      <trkpt lat="44.9386820" lon="6.8002590">
        <ele>1436.8</ele>
        <time>2017-07-28T14:03:10Z</time>
      </trkpt>
      <trkpt lat="44.9386410" lon="6.8003450">
        <ele>1436.2</ele>
        <time>2017-07-28T14:03:11Z</time>
      </trkpt>
      <trkpt lat="44.9385610" lon="6.8005220">
        <ele>1435.0</ele>
        <time>2017-07-28T14:03:13Z</time>
      </trkpt>
      <trkpt lat="44.9385090" lon="6.8006080">
        <ele>1434.6</ele>
        <time>2017-07-28T14:03:14Z</time>
      </trkpt>
      <trkpt lat="44.9384510" lon="6.8006810">
        <ele>1433.8</ele>
        <time>2017-07-28T14:03:15Z</time>
      </trkpt>
      <trkpt lat="44.9383300" lon="6.8008290">
        <ele>1432.4</ele>
        <time>2017-07-28T14:03:17Z</time>
      </trkpt>
      <trkpt lat="44.9382560" lon="6.8009500">
        <ele>1431.6</ele>
        <time>2017-07-28T14:03:19Z</time>
      </trkpt>
      <trkpt lat="44.9382750" lon="6.8009950">
        <ele>1431.0</ele>
        <time>2017-07-28T14:03:20Z</time>
      </trkpt>
      <trkpt lat="44.9383540" lon="6.8010370">
        <ele>1429.8</ele>
        <time>2017-07-28T14:03:23Z</time>
      </trkpt>
      <trkpt lat="44.9384640" lon="6.8009270">
        <ele>1428.8</ele>
        <time>2017-07-28T14:03:25Z</time>
      </trkpt>
      <trkpt lat="44.9385200" lon="6.8008690">
        <ele>1428.4</ele>
        <time>2017-07-28T14:03:26Z</time>
      </trkpt>
      <trkpt lat="44.9386270" lon="6.8007720">
        <ele>1427.2</ele>
        <time>2017-07-28T14:03:28Z</time>
      </trkpt>
      <trkpt lat="44.9387560" lon="6.8006940">
        <ele>1425.8</ele>
        <time>2017-07-28T14:03:30Z</time>
      </trkpt>
      <trkpt lat="44.9388350" lon="6.8006650">
        <ele>1425.2</ele>
        <time>2017-07-28T14:03:31Z</time>
      </trkpt>
      <trkpt lat="44.9389050" lon="6.8006210">
        <ele>1424.6</ele>
        <time>2017-07-28T14:03:32Z</time>
      </trkpt>
      <trkpt lat="44.9390390" lon="6.8005180">
        <ele>1423.4</ele>
        <time>2017-07-28T14:03:34Z</time>
      </trkpt>
      <trkpt lat="44.9390810" lon="6.8004460">
        <ele>1422.8</ele>
        <time>2017-07-28T14:03:35Z</time>
      </trkpt>
      <trkpt lat="44.9391230" lon="6.8003730">
        <ele>1422.2</ele>
        <time>2017-07-28T14:03:36Z</time>
      </trkpt>
      <trkpt lat="44.9391650" lon="6.8003030">
        <ele>1421.6</ele>
        <time>2017-07-28T14:03:37Z</time>
      </trkpt>
      <trkpt lat="44.9392360" lon="6.8001650">
        <ele>1420.4</ele>
        <time>2017-07-28T14:03:39Z</time>
      </trkpt>
      <trkpt lat="44.9392720" lon="6.8001030">
        <ele>1420.0</ele>
        <time>2017-07-28T14:03:40Z</time>
      </trkpt>
      <trkpt lat="44.9393720" lon="6.7999110">
        <ele>1419.4</ele>
        <time>2017-07-28T14:03:43Z</time>
      </trkpt>
      <trkpt lat="44.9394680" lon="6.7997500">
        <ele>1419.6</ele>
        <time>2017-07-28T14:03:46Z</time>
      </trkpt>
      <trkpt lat="44.9395350" lon="6.7996500">
        <ele>1420.0</ele>
        <time>2017-07-28T14:03:48Z</time>
      </trkpt>
      <trkpt lat="44.9396300" lon="6.7995030">
        <ele>1419.8</ele>
        <time>2017-07-28T14:03:51Z</time>
      </trkpt>
      <trkpt lat="44.9397590" lon="6.7992560">
        <ele>1419.4</ele>
        <time>2017-07-28T14:03:55Z</time>
      </trkpt>
      <trkpt lat="44.9397890" lon="6.7991700">
        <ele>1419.2</ele>
        <time>2017-07-28T14:03:56Z</time>
      </trkpt>
      <trkpt lat="44.9398270" lon="6.7990970">
        <ele>1419.2</ele>
        <time>2017-07-28T14:03:57Z</time>
      </trkpt>
      <trkpt lat="44.9399440" lon="6.7988680">
        <ele>1418.6</ele>
        <time>2017-07-28T14:04:00Z</time>
      </trkpt>
      <trkpt lat="44.9399900" lon="6.7988210">
        <ele>1418.4</ele>
        <time>2017-07-28T14:04:01Z</time>
      </trkpt>
      <trkpt lat="44.9400410" lon="6.7987790">
        <ele>1418.2</ele>
        <time>2017-07-28T14:04:02Z</time>
      </trkpt>
      <trkpt lat="44.9401300" lon="6.7986730">
        <ele>1417.8</ele>
        <time>2017-07-28T14:04:04Z</time>
      </trkpt>
      <trkpt lat="44.9401770" lon="6.7986290">
        <ele>1417.6</ele>
        <time>2017-07-28T14:04:05Z</time>
      </trkpt>
      <trkpt lat="44.9404200" lon="6.7984300">
        <ele>1417.2</ele>
        <time>2017-07-28T14:04:10Z</time>
      </trkpt>
      <trkpt lat="44.9406450" lon="6.7982370">
        <ele>1416.8</ele>
        <time>2017-07-28T14:04:14Z</time>
      </trkpt>
      <trkpt lat="44.9407580" lon="6.7981700">
        <ele>1416.4</ele>
        <time>2017-07-28T14:04:16Z</time>
      </trkpt>
      <trkpt lat="44.9408200" lon="6.7981400">
        <ele>1416.2</ele>
        <time>2017-07-28T14:04:17Z</time>
      </trkpt>
      <trkpt lat="44.9411410" lon="6.7980270">
        <ele>1415.4</ele>
        <time>2017-07-28T14:04:22Z</time>
      </trkpt>
      <trkpt lat="44.9412090" lon="6.7980090">
        <ele>1415.2</ele>
        <time>2017-07-28T14:04:23Z</time>
      </trkpt>
      <trkpt lat="44.9412800" lon="6.7979940">
        <ele>1414.8</ele>
        <time>2017-07-28T14:04:24Z</time>
      </trkpt>
      <trkpt lat="44.9414920" lon="6.7979200">
        <ele>1413.8</ele>
        <time>2017-07-28T14:04:27Z</time>
      </trkpt>
      <trkpt lat="44.9417090" lon="6.7978780">
        <ele>1413.6</ele>
        <time>2017-07-28T14:04:30Z</time>
      </trkpt>
      <trkpt lat="44.9421580" lon="6.7977820">
        <ele>1413.2</ele>
        <time>2017-07-28T14:04:36Z</time>
      </trkpt>
      <trkpt lat="44.9423150" lon="6.7977660">
        <ele>1412.6</ele>
        <time>2017-07-28T14:04:38Z</time>
      </trkpt>
      <trkpt lat="44.9425510" lon="6.7977090">
        <ele>1411.8</ele>
        <time>2017-07-28T14:04:41Z</time>
      </trkpt>
      <trkpt lat="44.9426290" lon="6.7976870">
        <ele>1411.6</ele>
        <time>2017-07-28T14:04:42Z</time>
      </trkpt>
      <trkpt lat="44.9427050" lon="6.7976790">
        <ele>1411.2</ele>
        <time>2017-07-28T14:04:43Z</time>
      </trkpt>
      <trkpt lat="44.9429370" lon="6.7976480">
        <ele>1410.4</ele>
        <time>2017-07-28T14:04:46Z</time>
      </trkpt>
      <trkpt lat="44.9430170" lon="6.7976340">
        <ele>1410.0</ele>
        <time>2017-07-28T14:04:47Z</time>
      </trkpt>
      <trkpt lat="44.9432550" lon="6.7975800">
        <ele>1409.0</ele>
        <time>2017-07-28T14:04:50Z</time>
      </trkpt>
      <trkpt lat="44.9434920" lon="6.7974980">
        <ele>1408.0</ele>
        <time>2017-07-28T14:04:53Z</time>
      </trkpt>
      <trkpt lat="44.9435720" lon="6.7974670">
        <ele>1407.8</ele>
        <time>2017-07-28T14:04:54Z</time>
      </trkpt>
      <trkpt lat="44.9439700" lon="6.7972920">
        <ele>1406.6</ele>
        <time>2017-07-28T14:04:59Z</time>
      </trkpt>
      <trkpt lat="44.9443930" lon="6.7971090">
        <ele>1405.4</ele>
        <time>2017-07-28T14:05:04Z</time>
      </trkpt>
      <trkpt lat="44.9444800" lon="6.7970690">
        <ele>1405.2</ele>
        <time>2017-07-28T14:05:05Z</time>
      </trkpt>
      <trkpt lat="44.9447460" lon="6.7968990">
        <ele>1404.8</ele>
        <time>2017-07-28T14:05:09Z</time>
      </trkpt>
      <trkpt lat="44.9448680" lon="6.7968420">
        <ele>1404.8</ele>
        <time>2017-07-28T14:05:11Z</time>
      </trkpt>
      <trkpt lat="44.9449910" lon="6.7968210">
        <ele>1405.4</ele>
        <time>2017-07-28T14:05:13Z</time>
      </trkpt>
      <trkpt lat="44.9451280" lon="6.7967770">
        <ele>1406.0</ele>
        <time>2017-07-28T14:05:15Z</time>
      </trkpt>
      <trkpt lat="44.9452790" lon="6.7967030">
        <ele>1406.2</ele>
        <time>2017-07-28T14:05:17Z</time>
      </trkpt>
      <trkpt lat="44.9453560" lon="6.7966550">
        <ele>1406.4</ele>
        <time>2017-07-28T14:05:18Z</time>
      </trkpt>
      <trkpt lat="44.9454340" lon="6.7965870">
        <ele>1406.6</ele>
        <time>2017-07-28T14:05:19Z</time>
      </trkpt>
      <trkpt lat="44.9455910" lon="6.7964550">
        <ele>1406.4</ele>
        <time>2017-07-28T14:05:21Z</time>
      </trkpt>
      <trkpt lat="44.9460920" lon="6.7960600">
        <ele>1405.4</ele>
        <time>2017-07-28T14:05:27Z</time>
      </trkpt>
      <trkpt lat="44.9461730" lon="6.7959930">
        <ele>1405.0</ele>
        <time>2017-07-28T14:05:28Z</time>
      </trkpt>
      <trkpt lat="44.9462440" lon="6.7959200">
        <ele>1404.6</ele>
        <time>2017-07-28T14:05:29Z</time>
      </trkpt>
      <trkpt lat="44.9463010" lon="6.7958260">
        <ele>1404.2</ele>
        <time>2017-07-28T14:05:30Z</time>
      </trkpt>
      <trkpt lat="44.9463660" lon="6.7957530">
        <ele>1404.0</ele>
        <time>2017-07-28T14:05:31Z</time>
      </trkpt>
      <trkpt lat="44.9465010" lon="6.7957450">
        <ele>1403.6</ele>
        <time>2017-07-28T14:05:33Z</time>
      </trkpt>
      <trkpt lat="44.9466340" lon="6.7959370">
        <ele>1403.4</ele>
        <time>2017-07-28T14:05:36Z</time>
      </trkpt>
      <trkpt lat="44.9466600" lon="6.7960310">
        <ele>1403.4</ele>
        <time>2017-07-28T14:05:37Z</time>
      </trkpt>
      <trkpt lat="44.9467070" lon="6.7963070">
        <ele>1403.8</ele>
        <time>2017-07-28T14:05:40Z</time>
      </trkpt>
      <trkpt lat="44.9467010" lon="6.7963740">
        <ele>1404.0</ele>
        <time>2017-07-28T14:05:41Z</time>
      </trkpt>
      <trkpt lat="44.9465880" lon="6.7965150">
        <ele>1404.0</ele>
        <time>2017-07-28T14:05:44Z</time>
      </trkpt>
      <trkpt lat="44.9464640" lon="6.7965260">
        <ele>1403.6</ele>
        <time>2017-07-28T14:05:46Z</time>
      </trkpt>
      <trkpt lat="44.9464020" lon="6.7965360">
        <ele>1403.6</ele>
        <time>2017-07-28T14:05:47Z</time>
      </trkpt>
      <trkpt lat="44.9462860" lon="6.7965810">
        <ele>1403.4</ele>
        <time>2017-07-28T14:05:49Z</time>
      </trkpt>
      <trkpt lat="44.9461190" lon="6.7966800">
        <ele>1403.0</ele>
        <time>2017-07-28T14:05:52Z</time>
      </trkpt>
      <trkpt lat="44.9459140" lon="6.7968090">
        <ele>1403.2</ele>
        <time>2017-07-28T14:05:56Z</time>
      </trkpt>
      <trkpt lat="44.9457270" lon="6.7969320">
        <ele>1402.6</ele>
        <time>2017-07-28T14:06:00Z</time>
      </trkpt>
      <trkpt lat="44.9456430" lon="6.7970100">
        <ele>1402.4</ele>
        <time>2017-07-28T14:06:02Z</time>
      </trkpt>
      <trkpt lat="44.9455620" lon="6.7970830">
        <ele>1402.2</ele>
        <time>2017-07-28T14:06:04Z</time>
      </trkpt>
      <trkpt lat="44.9455000" lon="6.7971700">
        <ele>1402.2</ele>
        <time>2017-07-28T14:06:06Z</time>
      </trkpt>
      <trkpt lat="44.9454730" lon="6.7972690">
        <ele>1402.2</ele>
        <time>2017-07-28T14:06:08Z</time>
      </trkpt>
      <trkpt lat="44.9454970" lon="6.7973040">
        <ele>1402.6</ele>
        <time>2017-07-28T14:06:09Z</time>
      </trkpt>
      <trkpt lat="44.9455600" lon="6.7973610">
        <ele>1402.6</ele>
        <time>2017-07-28T14:06:12Z</time>
      </trkpt>
      <trkpt lat="44.9457220" lon="6.7974110">
        <ele>1404.2</ele>
        <time>2017-07-28T14:09:54Z</time>
      </trkpt>
      <trkpt lat="44.9457340" lon="6.7974320">
        <ele>1404.4</ele>
        <time>2017-07-28T14:09:55Z</time>
      </trkpt>
      <trkpt lat="44.9458290" lon="6.7975640">
        <ele>1404.6</ele>
        <time>2017-07-28T14:09:58Z</time>
      </trkpt>
      <trkpt lat="44.9460550" lon="6.7977460">
        <ele>1406.0</ele>
        <time>2017-07-28T14:10:03Z</time>
      </trkpt>
      <trkpt lat="44.9460880" lon="6.7977840">
        <ele>1406.6</ele>
        <time>2017-07-28T14:10:04Z</time>
      </trkpt>
      <trkpt lat="44.9461170" lon="6.7978160">
        <ele>1407.4</ele>
        <time>2017-07-28T14:10:05Z</time>
      </trkpt>
      <trkpt lat="44.9461690" lon="6.7978810">
        <ele>1409.0</ele>
        <time>2017-07-28T14:10:07Z</time>
      </trkpt>
      <trkpt lat="44.9461940" lon="6.7979120">
        <ele>1410.0</ele>
        <time>2017-07-28T14:10:08Z</time>
      </trkpt>
      <trkpt lat="44.9462220" lon="6.7979390">
        <ele>1411.0</ele>
        <time>2017-07-28T14:10:09Z</time>
      </trkpt>
      <trkpt lat="44.9462460" lon="6.7979710">
        <ele>1412.2</ele>
        <time>2017-07-28T14:10:10Z</time>
      </trkpt>
      <trkpt lat="44.9462680" lon="6.7980030">
        <ele>1413.4</ele>
        <time>2017-07-28T14:10:11Z</time>
      </trkpt>
      <trkpt lat="44.9462920" lon="6.7980340">
        <ele>1414.6</ele>
        <time>2017-07-28T14:10:12Z</time>
      </trkpt>
      <trkpt lat="44.9463180" lon="6.7980630">
        <ele>1416.0</ele>
        <time>2017-07-28T14:10:13Z</time>
      </trkpt>
      <trkpt lat="44.9463430" lon="6.7980920">
        <ele>1417.4</ele>
        <time>2017-07-28T14:10:14Z</time>
      </trkpt>
      <trkpt lat="44.9463670" lon="6.7981230">
        <ele>1418.8</ele>
        <time>2017-07-28T14:10:15Z</time>
      </trkpt>
      <trkpt lat="44.9463920" lon="6.7981550">
        <ele>1420.2</ele>
        <time>2017-07-28T14:10:16Z</time>
      </trkpt>
      <trkpt lat="44.9464170" lon="6.7981850">
        <ele>1421.8</ele>
        <time>2017-07-28T14:10:17Z</time>
      </trkpt>
      <trkpt lat="44.9464420" lon="6.7982110">
        <ele>1423.4</ele>
        <time>2017-07-28T14:10:18Z</time>
      </trkpt>
      <trkpt lat="44.9464680" lon="6.7982420">
        <ele>1425.2</ele>
        <time>2017-07-28T14:10:19Z</time>
      </trkpt>
      <trkpt lat="44.9464920" lon="6.7982730">
        <ele>1426.8</ele>
        <time>2017-07-28T14:10:20Z</time>
      </trkpt>
      <trkpt lat="44.9465140" lon="6.7982990">
        <ele>1428.6</ele>
        <time>2017-07-28T14:10:21Z</time>
      </trkpt>
      <trkpt lat="44.9465390" lon="6.7983270">
        <ele>1430.2</ele>
        <time>2017-07-28T14:10:22Z</time>
      </trkpt>
      <trkpt lat="44.9465590" lon="6.7983580">
        <ele>1432.0</ele>
        <time>2017-07-28T14:10:23Z</time>
      </trkpt>
      <trkpt lat="44.9465790" lon="6.7983920">
        <ele>1433.8</ele>
        <time>2017-07-28T14:10:24Z</time>
      </trkpt>
      <trkpt lat="44.9466090" lon="6.7984310">
        <ele>1435.6</ele>
        <time>2017-07-28T14:10:25Z</time>
      </trkpt>
      <trkpt lat="44.9466400" lon="6.7984670">
        <ele>1437.4</ele>
        <time>2017-07-28T14:10:26Z</time>
      </trkpt>
      <trkpt lat="44.9466720" lon="6.7985010">
        <ele>1440.8</ele>
        <time>2017-07-28T14:10:27Z</time>
      </trkpt>
      <trkpt lat="44.9466990" lon="6.7985300">
        <ele>1442.4</ele>
        <time>2017-07-28T14:10:28Z</time>
      </trkpt>
      <trkpt lat="44.9467290" lon="6.7985640">
        <ele>1444.2</ele>
        <time>2017-07-28T14:10:29Z</time>
      </trkpt>
      <trkpt lat="44.9467580" lon="6.7985970">
        <ele>1445.8</ele>
        <time>2017-07-28T14:10:30Z</time>
      </trkpt>
      <trkpt lat="44.9467850" lon="6.7986310">
        <ele>1447.4</ele>
        <time>2017-07-28T14:10:31Z</time>
      </trkpt>
      <trkpt lat="44.9468140" lon="6.7986660">
        <ele>1449.0</ele>
        <time>2017-07-28T14:10:32Z</time>
      </trkpt>
      <trkpt lat="44.9468420" lon="6.7986940">
        <ele>1450.4</ele>
        <time>2017-07-28T14:10:33Z</time>
      </trkpt>
      <trkpt lat="44.9468690" lon="6.7987220">
        <ele>1452.0</ele>
        <time>2017-07-28T14:10:34Z</time>
      </trkpt>
      <trkpt lat="44.9468930" lon="6.7987610">
        <ele>1453.6</ele>
        <time>2017-07-28T14:10:35Z</time>
      </trkpt>
      <trkpt lat="44.9469200" lon="6.7988020">
        <ele>1454.8</ele>
        <time>2017-07-28T14:10:36Z</time>
      </trkpt>
      <trkpt lat="44.9469490" lon="6.7988400">
        <ele>1456.2</ele>
        <time>2017-07-28T14:10:37Z</time>
      </trkpt>
      <trkpt lat="44.9469770" lon="6.7988750">
        <ele>1457.6</ele>
        <time>2017-07-28T14:10:38Z</time>
      </trkpt>
      <trkpt lat="44.9470090" lon="6.7989130">
        <ele>1458.8</ele>
        <time>2017-07-28T14:10:39Z</time>
      </trkpt>
      <trkpt lat="44.9470430" lon="6.7989490">
        <ele>1460.0</ele>
        <time>2017-07-28T14:10:40Z</time>
      </trkpt>
      <trkpt lat="44.9470790" lon="6.7989840">
        <ele>1461.2</ele>
        <time>2017-07-28T14:10:41Z</time>
      </trkpt>
      <trkpt lat="44.9471100" lon="6.7990220">
        <ele>1462.2</ele>
        <time>2017-07-28T14:10:42Z</time>
      </trkpt>
      <trkpt lat="44.9471710" lon="6.7990960">
        <ele>1464.2</ele>
        <time>2017-07-28T14:10:44Z</time>
      </trkpt>
      <trkpt lat="44.9472300" lon="6.7991650">
        <ele>1466.0</ele>
        <time>2017-07-28T14:10:46Z</time>
      </trkpt>
      <trkpt lat="44.9472880" lon="6.7992410">
        <ele>1467.8</ele>
        <time>2017-07-28T14:10:48Z</time>
      </trkpt>
      <trkpt lat="44.9473490" lon="6.7993120">
        <ele>1469.6</ele>
        <time>2017-07-28T14:10:50Z</time>
      </trkpt>
      <trkpt lat="44.9473790" lon="6.7993490">
        <ele>1471.4</ele>
        <time>2017-07-28T14:10:51Z</time>
      </trkpt>
      <trkpt lat="44.9474360" lon="6.7994210">
        <ele>1473.0</ele>
        <time>2017-07-28T14:10:53Z</time>
      </trkpt>
      <trkpt lat="44.9474900" lon="6.7994900">
        <ele>1474.6</ele>
        <time>2017-07-28T14:10:55Z</time>
      </trkpt>
      <trkpt lat="44.9475450" lon="6.7995600">
        <ele>1476.2</ele>
        <time>2017-07-28T14:10:57Z</time>
      </trkpt>
      <trkpt lat="44.9475710" lon="6.7995930">
        <ele>1477.0</ele>
        <time>2017-07-28T14:10:58Z</time>
      </trkpt>
      <trkpt lat="44.9475990" lon="6.7996280">
        <ele>1477.8</ele>
        <time>2017-07-28T14:10:59Z</time>
      </trkpt>
      <trkpt lat="44.9476530" lon="6.7997010">
        <ele>1479.4</ele>
        <time>2017-07-28T14:11:01Z</time>
      </trkpt>
      <trkpt lat="44.9477120" lon="6.7997670">
        <ele>1481.2</ele>
        <time>2017-07-28T14:11:03Z</time>
      </trkpt>
      <trkpt lat="44.9477650" lon="6.7998310">
        <ele>1483.0</ele>
        <time>2017-07-28T14:11:05Z</time>
      </trkpt>
      <trkpt lat="44.9477870" lon="6.7998660">
        <ele>1483.8</ele>
        <time>2017-07-28T14:11:06Z</time>
      </trkpt>
      <trkpt lat="44.9478130" lon="6.7999040">
        <ele>1484.6</ele>
        <time>2017-07-28T14:11:07Z</time>
      </trkpt>
      <trkpt lat="44.9478610" lon="6.7999710">
        <ele>1486.0</ele>
        <time>2017-07-28T14:11:09Z</time>
      </trkpt>
      <trkpt lat="44.9479170" lon="6.8000410">
        <ele>1487.4</ele>
        <time>2017-07-28T14:11:11Z</time>
      </trkpt>
      <trkpt lat="44.9479740" lon="6.8001120">
        <ele>1488.8</ele>
        <time>2017-07-28T14:11:13Z</time>
      </trkpt>
      <trkpt lat="44.9480010" lon="6.8001450">
        <ele>1489.4</ele>
        <time>2017-07-28T14:11:14Z</time>
      </trkpt>
      <trkpt lat="44.9480270" lon="6.8001810">
        <ele>1490.8</ele>
        <time>2017-07-28T14:11:15Z</time>
      </trkpt>
      <trkpt lat="44.9480790" lon="6.8002510">
        <ele>1492.0</ele>
        <time>2017-07-28T14:11:17Z</time>
      </trkpt>
      <trkpt lat="44.9481350" lon="6.8003200">
        <ele>1493.0</ele>
        <time>2017-07-28T14:11:19Z</time>
      </trkpt>
      <trkpt lat="44.9481890" lon="6.8003920">
        <ele>1494.2</ele>
        <time>2017-07-28T14:11:21Z</time>
      </trkpt>
      <trkpt lat="44.9482440" lon="6.8004640">
        <ele>1495.4</ele>
        <time>2017-07-28T14:11:23Z</time>
      </trkpt>
      <trkpt lat="44.9482980" lon="6.8005340">
        <ele>1496.6</ele>
        <time>2017-07-28T14:11:25Z</time>
      </trkpt>
      <trkpt lat="44.9483510" lon="6.8006020">
        <ele>1498.0</ele>
        <time>2017-07-28T14:11:27Z</time>
      </trkpt>
      <trkpt lat="44.9484050" lon="6.8006720">
        <ele>1499.2</ele>
        <time>2017-07-28T14:11:29Z</time>
      </trkpt>
      <trkpt lat="44.9484590" lon="6.8007390">
        <ele>1500.6</ele>
        <time>2017-07-28T14:11:31Z</time>
      </trkpt>
      <trkpt lat="44.9485100" lon="6.8008080">
        <ele>1502.0</ele>
        <time>2017-07-28T14:11:33Z</time>
      </trkpt>
      <trkpt lat="44.9485630" lon="6.8008800">
        <ele>1503.2</ele>
        <time>2017-07-28T14:11:35Z</time>
      </trkpt>
      <trkpt lat="44.9486140" lon="6.8009450">
        <ele>1504.6</ele>
        <time>2017-07-28T14:11:37Z</time>
      </trkpt>
      <trkpt lat="44.9486680" lon="6.8010120">
        <ele>1506.6</ele>
        <time>2017-07-28T14:11:39Z</time>
      </trkpt>
      <trkpt lat="44.9487240" lon="6.8010790">
        <ele>1508.0</ele>
        <time>2017-07-28T14:11:41Z</time>
      </trkpt>
      <trkpt lat="44.9487770" lon="6.8011480">
        <ele>1509.4</ele>
        <time>2017-07-28T14:11:43Z</time>
      </trkpt>
      <trkpt lat="44.9488330" lon="6.8012210">
        <ele>1510.8</ele>
        <time>2017-07-28T14:11:45Z</time>
      </trkpt>
      <trkpt lat="44.9488880" lon="6.8012910">
        <ele>1512.4</ele>
        <time>2017-07-28T14:11:47Z</time>
      </trkpt>
      <trkpt lat="44.9489160" lon="6.8013250">
        <ele>1513.0</ele>
        <time>2017-07-28T14:11:48Z</time>
      </trkpt>
      <trkpt lat="44.9489410" lon="6.8013590">
        <ele>1513.8</ele>
        <time>2017-07-28T14:11:49Z</time>
      </trkpt>
      <trkpt lat="44.9489940" lon="6.8014260">
        <ele>1515.4</ele>
        <time>2017-07-28T14:11:51Z</time>
      </trkpt>
      <trkpt lat="44.9490460" lon="6.8014920">
        <ele>1516.8</ele>
        <time>2017-07-28T14:11:53Z</time>
      </trkpt>
      <trkpt lat="44.9490990" lon="6.8015580">
        <ele>1518.6</ele>
        <time>2017-07-28T14:11:55Z</time>
      </trkpt>
      <trkpt lat="44.9491490" lon="6.8016310">
        <ele>1520.2</ele>
        <time>2017-07-28T14:11:57Z</time>
      </trkpt>
      <trkpt lat="44.9491740" lon="6.8016670">
        <ele>1521.0</ele>
        <time>2017-07-28T14:11:58Z</time>
      </trkpt>
      <trkpt lat="44.9492000" lon="6.8017010">
        <ele>1521.8</ele>
        <time>2017-07-28T14:11:59Z</time>
      </trkpt>
      <trkpt lat="44.9492500" lon="6.8017700">
        <ele>1523.0</ele>
        <time>2017-07-28T14:12:01Z</time>
      </trkpt>
      <trkpt lat="44.9492970" lon="6.8018390">
        <ele>1525.4</ele>
        <time>2017-07-28T14:12:03Z</time>
      </trkpt>
      <trkpt lat="44.9493500" lon="6.8019060">
        <ele>1526.8</ele>
        <time>2017-07-28T14:12:05Z</time>
      </trkpt>
      <trkpt lat="44.9493970" lon="6.8019800">
        <ele>1528.0</ele>
        <time>2017-07-28T14:12:07Z</time>
      </trkpt>
      <trkpt lat="44.9494510" lon="6.8020490">
        <ele>1529.4</ele>
        <time>2017-07-28T14:12:09Z</time>
      </trkpt>
      <trkpt lat="44.9495090" lon="6.8021160">
        <ele>1530.8</ele>
        <time>2017-07-28T14:12:11Z</time>
      </trkpt>
      <trkpt lat="44.9495670" lon="6.8021860">
        <ele>1532.2</ele>
        <time>2017-07-28T14:12:13Z</time>
      </trkpt>
      <trkpt lat="44.9496220" lon="6.8022530">
        <ele>1533.6</ele>
        <time>2017-07-28T14:12:15Z</time>
      </trkpt>
      <trkpt lat="44.9496740" lon="6.8023180">
        <ele>1535.0</ele>
        <time>2017-07-28T14:12:17Z</time>
      </trkpt>
      <trkpt lat="44.9497230" lon="6.8023830">
        <ele>1536.4</ele>
        <time>2017-07-28T14:12:19Z</time>
      </trkpt>
      <trkpt lat="44.9497470" lon="6.8024210">
        <ele>1537.2</ele>
        <time>2017-07-28T14:12:20Z</time>
      </trkpt>
      <trkpt lat="44.9497770" lon="6.8024570">
        <ele>1537.8</ele>
        <time>2017-07-28T14:12:21Z</time>
      </trkpt>
      <trkpt lat="44.9498300" lon="6.8025240">
        <ele>1539.0</ele>
        <time>2017-07-28T14:12:23Z</time>
      </trkpt>
      <trkpt lat="44.9498880" lon="6.8025940">
        <ele>1540.2</ele>
        <time>2017-07-28T14:12:25Z</time>
      </trkpt>
      <trkpt lat="44.9499430" lon="6.8026660">
        <ele>1542.0</ele>
        <time>2017-07-28T14:12:27Z</time>
      </trkpt>
      <trkpt lat="44.9499710" lon="6.8027010">
        <ele>1542.4</ele>
        <time>2017-07-28T14:12:28Z</time>
      </trkpt>
      <trkpt lat="44.9499990" lon="6.8027340">
        <ele>1543.0</ele>
        <time>2017-07-28T14:12:29Z</time>
      </trkpt>
      <trkpt lat="44.9500490" lon="6.8028000">
        <ele>1544.2</ele>
        <time>2017-07-28T14:12:31Z</time>
      </trkpt>
      <trkpt lat="44.9501300" lon="6.8029060">
        <ele>1545.8</ele>
        <time>2017-07-28T14:12:34Z</time>
      </trkpt>
      <trkpt lat="44.9501850" lon="6.8029770">
        <ele>1547.0</ele>
        <time>2017-07-28T14:12:36Z</time>
      </trkpt>
      <trkpt lat="44.9502410" lon="6.8030470">
        <ele>1548.0</ele>
        <time>2017-07-28T14:12:38Z</time>
      </trkpt>
      <trkpt lat="44.9503210" lon="6.8031540">
        <ele>1549.4</ele>
        <time>2017-07-28T14:12:41Z</time>
      </trkpt>
      <trkpt lat="44.9503710" lon="6.8032240">
        <ele>1550.6</ele>
        <time>2017-07-28T14:12:43Z</time>
      </trkpt>
      <trkpt lat="44.9504510" lon="6.8033270">
        <ele>1552.2</ele>
        <time>2017-07-28T14:12:46Z</time>
      </trkpt>
      <trkpt lat="44.9505080" lon="6.8033960">
        <ele>1553.2</ele>
        <time>2017-07-28T14:12:48Z</time>
      </trkpt>
      <trkpt lat="44.9505620" lon="6.8034650">
        <ele>1554.2</ele>
        <time>2017-07-28T14:12:50Z</time>
      </trkpt>
      <trkpt lat="44.9505890" lon="6.8035000">
        <ele>1555.4</ele>
        <time>2017-07-28T14:12:51Z</time>
      </trkpt>
      <trkpt lat="44.9506450" lon="6.8035690">
        <ele>1556.4</ele>
        <time>2017-07-28T14:12:53Z</time>
      </trkpt>
      <trkpt lat="44.9506970" lon="6.8036380">
        <ele>1557.8</ele>
        <time>2017-07-28T14:12:55Z</time>
      </trkpt>
      <trkpt lat="44.9507500" lon="6.8037030">
        <ele>1559.0</ele>
        <time>2017-07-28T14:12:57Z</time>
      </trkpt>
      <trkpt lat="44.9508050" lon="6.8037720">
        <ele>1560.4</ele>
        <time>2017-07-28T14:12:59Z</time>
      </trkpt>
      <trkpt lat="44.9508620" lon="6.8038380">
        <ele>1561.6</ele>
        <time>2017-07-28T14:13:01Z</time>
      </trkpt>
      <trkpt lat="44.9509170" lon="6.8039060">
        <ele>1562.6</ele>
        <time>2017-07-28T14:13:03Z</time>
      </trkpt>
      <trkpt lat="44.9509960" lon="6.8040170">
        <ele>1564.2</ele>
        <time>2017-07-28T14:13:06Z</time>
      </trkpt>
      <trkpt lat="44.9510790" lon="6.8041250">
        <ele>1565.2</ele>
        <time>2017-07-28T14:13:09Z</time>
      </trkpt>
      <trkpt lat="44.9511650" lon="6.8042270">
        <ele>1566.4</ele>
        <time>2017-07-28T14:13:12Z</time>
      </trkpt>
      <trkpt lat="44.9512470" lon="6.8043250">
        <ele>1568.0</ele>
        <time>2017-07-28T14:13:15Z</time>
      </trkpt>
      <trkpt lat="44.9513020" lon="6.8043950">
        <ele>1568.6</ele>
        <time>2017-07-28T14:13:17Z</time>
      </trkpt>
      <trkpt lat="44.9513290" lon="6.8044310">
        <ele>1569.0</ele>
        <time>2017-07-28T14:13:18Z</time>
      </trkpt>
      <trkpt lat="44.9514130" lon="6.8045410">
        <ele>1570.0</ele>
        <time>2017-07-28T14:13:21Z</time>
      </trkpt>
      <trkpt lat="44.9514970" lon="6.8046470">
        <ele>1571.0</ele>
        <time>2017-07-28T14:13:24Z</time>
      </trkpt>
      <trkpt lat="44.9515830" lon="6.8047530">
        <ele>1572.2</ele>
        <time>2017-07-28T14:13:27Z</time>
      </trkpt>
      <trkpt lat="44.9516100" lon="6.8047900">
        <ele>1572.6</ele>
        <time>2017-07-28T14:13:28Z</time>
      </trkpt>
      <trkpt lat="44.9516640" lon="6.8048630">
        <ele>1573.4</ele>
        <time>2017-07-28T14:13:30Z</time>
      </trkpt>
      <trkpt lat="44.9517440" lon="6.8049580">
        <ele>1574.8</ele>
        <time>2017-07-28T14:13:33Z</time>
      </trkpt>
      <trkpt lat="44.9518280" lon="6.8050510">
        <ele>1576.2</ele>
        <time>2017-07-28T14:13:36Z</time>
      </trkpt>
      <trkpt lat="44.9519070" lon="6.8051510">
        <ele>1577.8</ele>
        <time>2017-07-28T14:13:39Z</time>
      </trkpt>
      <trkpt lat="44.9520160" lon="6.8052800">
        <ele>1579.0</ele>
        <time>2017-07-28T14:13:43Z</time>
      </trkpt>
      <trkpt lat="44.9520700" lon="6.8053390">
        <ele>1579.8</ele>
        <time>2017-07-28T14:13:46Z</time>
      </trkpt>
      <trkpt lat="44.9521910" lon="6.8054520">
        <ele>1582.6</ele>
        <time>2017-07-28T14:14:45Z</time>
      </trkpt>
      <trkpt lat="44.9522060" lon="6.8054730">
        <ele>1582.6</ele>
        <time>2017-07-28T14:14:46Z</time>
      </trkpt>
      <trkpt lat="44.9524180" lon="6.8057480">
        <ele>1582.6</ele>
        <time>2017-07-28T14:14:52Z</time>
      </trkpt>
      <trkpt lat="44.9525030" lon="6.8058230">
        <ele>1583.0</ele>
        <time>2017-07-28T14:14:54Z</time>
      </trkpt>
      <trkpt lat="44.9525880" lon="6.8058930">
        <ele>1584.0</ele>
        <time>2017-07-28T14:14:56Z</time>
      </trkpt>
      <trkpt lat="44.9526220" lon="6.8059310">
        <ele>1584.6</ele>
        <time>2017-07-28T14:14:57Z</time>
      </trkpt>
      <trkpt lat="44.9526550" lon="6.8059670">
        <ele>1585.2</ele>
        <time>2017-07-28T14:14:58Z</time>
      </trkpt>
      <trkpt lat="44.9527070" lon="6.8060360">
        <ele>1586.6</ele>
        <time>2017-07-28T14:15:00Z</time>
      </trkpt>
      <trkpt lat="44.9527590" lon="6.8061130">
        <ele>1588.4</ele>
        <time>2017-07-28T14:15:02Z</time>
      </trkpt>
      <trkpt lat="44.9528140" lon="6.8061840">
        <ele>1589.8</ele>
        <time>2017-07-28T14:15:04Z</time>
      </trkpt>
      <trkpt lat="44.9528670" lon="6.8062580">
        <ele>1591.2</ele>
        <time>2017-07-28T14:15:06Z</time>
      </trkpt>
      <trkpt lat="44.9529200" lon="6.8063340">
        <ele>1592.8</ele>
        <time>2017-07-28T14:15:08Z</time>
      </trkpt>
      <trkpt lat="44.9529760" lon="6.8064060">
        <ele>1594.2</ele>
        <time>2017-07-28T14:15:10Z</time>
      </trkpt>
      <trkpt lat="44.9530030" lon="6.8064420">
        <ele>1594.8</ele>
        <time>2017-07-28T14:15:11Z</time>
      </trkpt>
      <trkpt lat="44.9530290" lon="6.8064780">
        <ele>1595.6</ele>
        <time>2017-07-28T14:15:12Z</time>
      </trkpt>
      <trkpt lat="44.9530800" lon="6.8065500">
        <ele>1596.6</ele>
        <time>2017-07-28T14:15:14Z</time>
      </trkpt>
      <trkpt lat="44.9531320" lon="6.8066210">
        <ele>1598.8</ele>
        <time>2017-07-28T14:15:16Z</time>
      </trkpt>
      <trkpt lat="44.9531860" lon="6.8066990">
        <ele>1600.0</ele>
        <time>2017-07-28T14:15:18Z</time>
      </trkpt>
      <trkpt lat="44.9532440" lon="6.8067700">
        <ele>1601.4</ele>
        <time>2017-07-28T14:15:20Z</time>
      </trkpt>
      <trkpt lat="44.9532730" lon="6.8068030">
        <ele>1602.0</ele>
        <time>2017-07-28T14:15:21Z</time>
      </trkpt>
      <trkpt lat="44.9533010" lon="6.8068380">
        <ele>1602.6</ele>
        <time>2017-07-28T14:15:22Z</time>
      </trkpt>
      <trkpt lat="44.9533520" lon="6.8069070">
        <ele>1604.2</ele>
        <time>2017-07-28T14:15:24Z</time>
      </trkpt>
      <trkpt lat="44.9534070" lon="6.8069730">
        <ele>1605.4</ele>
        <time>2017-07-28T14:15:26Z</time>
      </trkpt>
      <trkpt lat="44.9534590" lon="6.8070410">
        <ele>1606.8</ele>
        <time>2017-07-28T14:15:28Z</time>
      </trkpt>
      <trkpt lat="44.9535110" lon="6.8071120">
        <ele>1608.2</ele>
        <time>2017-07-28T14:15:30Z</time>
      </trkpt>
      <trkpt lat="44.9535370" lon="6.8071480">
        <ele>1609.0</ele>
        <time>2017-07-28T14:15:31Z</time>
      </trkpt>
      <trkpt lat="44.9535640" lon="6.8071820">
        <ele>1609.8</ele>
        <time>2017-07-28T14:15:32Z</time>
      </trkpt>
      <trkpt lat="44.9536180" lon="6.8072480">
        <ele>1611.2</ele>
        <time>2017-07-28T14:15:34Z</time>
      </trkpt>
      <trkpt lat="44.9536720" lon="6.8073150">
        <ele>1612.6</ele>
        <time>2017-07-28T14:15:36Z</time>
      </trkpt>
      <trkpt lat="44.9537290" lon="6.8073860">
        <ele>1614.0</ele>
        <time>2017-07-28T14:15:38Z</time>
      </trkpt>
      <trkpt lat="44.9537840" lon="6.8074590">
        <ele>1616.2</ele>
        <time>2017-07-28T14:15:40Z</time>
      </trkpt>
      <trkpt lat="44.9538370" lon="6.8075290">
        <ele>1617.4</ele>
        <time>2017-07-28T14:15:42Z</time>
      </trkpt>
      <trkpt lat="44.9538870" lon="6.8075970">
        <ele>1618.6</ele>
        <time>2017-07-28T14:15:44Z</time>
      </trkpt>
      <trkpt lat="44.9539430" lon="6.8076680">
        <ele>1619.8</ele>
        <time>2017-07-28T14:15:46Z</time>
      </trkpt>
      <trkpt lat="44.9539980" lon="6.8077410">
        <ele>1621.0</ele>
        <time>2017-07-28T14:15:48Z</time>
      </trkpt>
      <trkpt lat="44.9540520" lon="6.8078150">
        <ele>1622.2</ele>
        <time>2017-07-28T14:15:50Z</time>
      </trkpt>
      <trkpt lat="44.9540790" lon="6.8078510">
        <ele>1622.8</ele>
        <time>2017-07-28T14:15:51Z</time>
      </trkpt>
      <trkpt lat="44.9541060" lon="6.8078880">
        <ele>1623.4</ele>
        <time>2017-07-28T14:15:52Z</time>
      </trkpt>
      <trkpt lat="44.9541580" lon="6.8079580">
        <ele>1624.6</ele>
        <time>2017-07-28T14:15:54Z</time>
      </trkpt>
      <trkpt lat="44.9542140" lon="6.8080270">
        <ele>1625.8</ele>
        <time>2017-07-28T14:15:56Z</time>
      </trkpt>
      <trkpt lat="44.9542680" lon="6.8080950">
        <ele>1627.0</ele>
        <time>2017-07-28T14:15:58Z</time>
      </trkpt>
      <trkpt lat="44.9543230" lon="6.8081650">
        <ele>1628.2</ele>
        <time>2017-07-28T14:16:00Z</time>
      </trkpt>
      <trkpt lat="44.9543780" lon="6.8082370">
        <ele>1629.4</ele>
        <time>2017-07-28T14:16:02Z</time>
      </trkpt>
      <trkpt lat="44.9544050" lon="6.8082720">
        <ele>1630.0</ele>
        <time>2017-07-28T14:16:03Z</time>
      </trkpt>
      <trkpt lat="44.9544310" lon="6.8083080">
        <ele>1631.2</ele>
        <time>2017-07-28T14:16:04Z</time>
      </trkpt>
      <trkpt lat="44.9544860" lon="6.8083770">
        <ele>1632.4</ele>
        <time>2017-07-28T14:16:06Z</time>
      </trkpt>
      <trkpt lat="44.9545420" lon="6.8084420">
        <ele>1633.8</ele>
        <time>2017-07-28T14:16:08Z</time>
      </trkpt>
      <trkpt lat="44.9545980" lon="6.8085100">
        <ele>1635.2</ele>
        <time>2017-07-28T14:16:10Z</time>
      </trkpt>
      <trkpt lat="44.9546540" lon="6.8085810">
        <ele>1636.6</ele>
        <time>2017-07-28T14:16:12Z</time>
      </trkpt>
      <trkpt lat="44.9547050" lon="6.8086470">
        <ele>1637.8</ele>
        <time>2017-07-28T14:16:14Z</time>
      </trkpt>
      <trkpt lat="44.9547570" lon="6.8087130">
        <ele>1639.2</ele>
        <time>2017-07-28T14:16:16Z</time>
      </trkpt>
      <trkpt lat="44.9548100" lon="6.8087810">
        <ele>1640.6</ele>
        <time>2017-07-28T14:16:18Z</time>
      </trkpt>
      <trkpt lat="44.9548930" lon="6.8088870">
        <ele>1642.2</ele>
        <time>2017-07-28T14:16:21Z</time>
      </trkpt>
      <trkpt lat="44.9549740" lon="6.8089910">
        <ele>1643.4</ele>
        <time>2017-07-28T14:16:24Z</time>
      </trkpt>
      <trkpt lat="44.9550760" lon="6.8091340">
        <ele>1644.6</ele>
        <time>2017-07-28T14:16:28Z</time>
      </trkpt>
      <trkpt lat="44.9552120" lon="6.8093210">
        <ele>1645.8</ele>
        <time>2017-07-28T14:16:33Z</time>
      </trkpt>
      <trkpt lat="44.9552900" lon="6.8094320">
        <ele>1646.6</ele>
        <time>2017-07-28T14:16:36Z</time>
      </trkpt>
      <trkpt lat="44.9553170" lon="6.8094690">
        <ele>1646.8</ele>
        <time>2017-07-28T14:16:37Z</time>
      </trkpt>
      <trkpt lat="44.9554560" lon="6.8096470">
        <ele>1648.0</ele>
        <time>2017-07-28T14:16:42Z</time>
      </trkpt>
      <trkpt lat="44.9556220" lon="6.8098610">
        <ele>1649.2</ele>
        <time>2017-07-28T14:16:48Z</time>
      </trkpt>
      <trkpt lat="44.9556500" lon="6.8098970">
        <ele>1649.4</ele>
        <time>2017-07-28T14:16:49Z</time>
      </trkpt>
      <trkpt lat="44.9557040" lon="6.8099680">
        <ele>1649.8</ele>
        <time>2017-07-28T14:16:51Z</time>
      </trkpt>
      <trkpt lat="44.9557320" lon="6.8100040">
        <ele>1650.2</ele>
        <time>2017-07-28T14:16:52Z</time>
      </trkpt>
      <trkpt lat="44.9558720" lon="6.8101820">
        <ele>1651.6</ele>
        <time>2017-07-28T14:16:57Z</time>
      </trkpt>
      <trkpt lat="44.9559540" lon="6.8102900">
        <ele>1652.8</ele>
        <time>2017-07-28T14:17:00Z</time>
      </trkpt>
      <trkpt lat="44.9560680" lon="6.8104290">
        <ele>1653.8</ele>
        <time>2017-07-28T14:17:04Z</time>
      </trkpt>
      <trkpt lat="44.9561770" lon="6.8105730">
        <ele>1655.2</ele>
        <time>2017-07-28T14:17:08Z</time>
      </trkpt>
      <trkpt lat="44.9562610" lon="6.8106810">
        <ele>1656.4</ele>
        <time>2017-07-28T14:17:11Z</time>
      </trkpt>
      <trkpt lat="44.9562910" lon="6.8107160">
        <ele>1656.8</ele>
        <time>2017-07-28T14:17:12Z</time>
      </trkpt>
      <trkpt lat="44.9563490" lon="6.8107870">
        <ele>1657.4</ele>
        <time>2017-07-28T14:17:14Z</time>
      </trkpt>
      <trkpt lat="44.9564050" lon="6.8108580">
        <ele>1658.6</ele>
        <time>2017-07-28T14:17:16Z</time>
      </trkpt>
      <trkpt lat="44.9564880" lon="6.8109640">
        <ele>1659.8</ele>
        <time>2017-07-28T14:17:19Z</time>
      </trkpt>
      <trkpt lat="44.9565740" lon="6.8110650">
        <ele>1661.2</ele>
        <time>2017-07-28T14:17:22Z</time>
      </trkpt>
      <trkpt lat="44.9566620" lon="6.8111690">
        <ele>1662.6</ele>
        <time>2017-07-28T14:17:25Z</time>
      </trkpt>
      <trkpt lat="44.9567490" lon="6.8112690">
        <ele>1664.0</ele>
        <time>2017-07-28T14:17:28Z</time>
      </trkpt>
      <trkpt lat="44.9568350" lon="6.8113700">
        <ele>1665.4</ele>
        <time>2017-07-28T14:17:31Z</time>
      </trkpt>
      <trkpt lat="44.9568630" lon="6.8114030">
        <ele>1665.8</ele>
        <time>2017-07-28T14:17:32Z</time>
      </trkpt>
      <trkpt lat="44.9569180" lon="6.8114770">
        <ele>1666.4</ele>
        <time>2017-07-28T14:17:34Z</time>
      </trkpt>
      <trkpt lat="44.9570300" lon="6.8116280">
        <ele>1667.6</ele>
        <time>2017-07-28T14:17:38Z</time>
      </trkpt>
      <trkpt lat="44.9571120" lon="6.8117330">
        <ele>1668.4</ele>
        <time>2017-07-28T14:17:41Z</time>
      </trkpt>
      <trkpt lat="44.9571420" lon="6.8117670">
        <ele>1668.6</ele>
        <time>2017-07-28T14:17:42Z</time>
      </trkpt>
      <trkpt lat="44.9572850" lon="6.8119440">
        <ele>1669.6</ele>
        <time>2017-07-28T14:17:47Z</time>
      </trkpt>
      <trkpt lat="44.9573380" lon="6.8120140">
        <ele>1670.0</ele>
        <time>2017-07-28T14:17:49Z</time>
      </trkpt>
      <trkpt lat="44.9574230" lon="6.8121150">
        <ele>1671.0</ele>
        <time>2017-07-28T14:17:52Z</time>
      </trkpt>
      <trkpt lat="44.9575640" lon="6.8122900">
        <ele>1672.2</ele>
        <time>2017-07-28T14:17:57Z</time>
      </trkpt>
      <trkpt lat="44.9576780" lon="6.8124300">
        <ele>1673.4</ele>
        <time>2017-07-28T14:18:01Z</time>
      </trkpt>
      <trkpt lat="44.9577330" lon="6.8124980">
        <ele>1674.0</ele>
        <time>2017-07-28T14:18:03Z</time>
      </trkpt>
      <trkpt lat="44.9577610" lon="6.8125330">
        <ele>1674.8</ele>
        <time>2017-07-28T14:18:04Z</time>
      </trkpt>
      <trkpt lat="44.9578710" lon="6.8126740">
        <ele>1676.0</ele>
        <time>2017-07-28T14:18:08Z</time>
      </trkpt>
      <trkpt lat="44.9579820" lon="6.8128120">
        <ele>1677.4</ele>
        <time>2017-07-28T14:18:12Z</time>
      </trkpt>
      <trkpt lat="44.9580110" lon="6.8128470">
        <ele>1677.8</ele>
        <time>2017-07-28T14:18:13Z</time>
      </trkpt>
      <trkpt lat="44.9580690" lon="6.8129150">
        <ele>1678.6</ele>
        <time>2017-07-28T14:18:15Z</time>
      </trkpt>
      <trkpt lat="44.9581810" lon="6.8130560">
        <ele>1679.6</ele>
        <time>2017-07-28T14:18:19Z</time>
      </trkpt>
      <trkpt lat="44.9582910" lon="6.8131970">
        <ele>1680.6</ele>
        <time>2017-07-28T14:18:23Z</time>
      </trkpt>
      <trkpt lat="44.9583210" lon="6.8132320">
        <ele>1680.8</ele>
        <time>2017-07-28T14:18:24Z</time>
      </trkpt>
      <trkpt lat="44.9584050" lon="6.8133360">
        <ele>1681.6</ele>
        <time>2017-07-28T14:18:27Z</time>
      </trkpt>
      <trkpt lat="44.9584610" lon="6.8134080">
        <ele>1682.6</ele>
        <time>2017-07-28T14:18:29Z</time>
      </trkpt>
      <trkpt lat="44.9584890" lon="6.8134440">
        <ele>1682.8</ele>
        <time>2017-07-28T14:18:30Z</time>
      </trkpt>
      <trkpt lat="44.9586020" lon="6.8135840">
        <ele>1684.0</ele>
        <time>2017-07-28T14:18:34Z</time>
      </trkpt>
      <trkpt lat="44.9586300" lon="6.8136200">
        <ele>1684.4</ele>
        <time>2017-07-28T14:18:35Z</time>
      </trkpt>
      <trkpt lat="44.9587130" lon="6.8137260">
        <ele>1685.2</ele>
        <time>2017-07-28T14:18:38Z</time>
      </trkpt>
      <trkpt lat="44.9588260" lon="6.8138670">
        <ele>1686.6</ele>
        <time>2017-07-28T14:18:42Z</time>
      </trkpt>
      <trkpt lat="44.9589380" lon="6.8140120">
        <ele>1687.8</ele>
        <time>2017-07-28T14:18:46Z</time>
      </trkpt>
      <trkpt lat="44.9589940" lon="6.8140860">
        <ele>1688.6</ele>
        <time>2017-07-28T14:18:48Z</time>
      </trkpt>
      <trkpt lat="44.9590220" lon="6.8141210">
        <ele>1689.0</ele>
        <time>2017-07-28T14:18:49Z</time>
      </trkpt>
      <trkpt lat="44.9591040" lon="6.8142280">
        <ele>1690.8</ele>
        <time>2017-07-28T14:18:52Z</time>
      </trkpt>
      <trkpt lat="44.9591840" lon="6.8143290">
        <ele>1692.2</ele>
        <time>2017-07-28T14:18:55Z</time>
      </trkpt>
      <trkpt lat="44.9592660" lon="6.8144360">
        <ele>1693.2</ele>
        <time>2017-07-28T14:18:58Z</time>
      </trkpt>
      <trkpt lat="44.9593520" lon="6.8145440">
        <ele>1694.2</ele>
        <time>2017-07-28T14:19:01Z</time>
      </trkpt>
      <trkpt lat="44.9594660" lon="6.8146840">
        <ele>1695.4</ele>
        <time>2017-07-28T14:19:05Z</time>
      </trkpt>
      <trkpt lat="44.9595800" lon="6.8148250">
        <ele>1696.4</ele>
        <time>2017-07-28T14:19:09Z</time>
      </trkpt>
      <trkpt lat="44.9596080" lon="6.8148610">
        <ele>1696.6</ele>
        <time>2017-07-28T14:19:10Z</time>
      </trkpt>
      <trkpt lat="44.9597210" lon="6.8150030">
        <ele>1697.4</ele>
        <time>2017-07-28T14:19:14Z</time>
      </trkpt>
      <trkpt lat="44.9598100" lon="6.8151080">
        <ele>1698.4</ele>
        <time>2017-07-28T14:19:17Z</time>
      </trkpt>
      <trkpt lat="44.9598380" lon="6.8151430">
        <ele>1698.6</ele>
        <time>2017-07-28T14:19:18Z</time>
      </trkpt>
      <trkpt lat="44.9598930" lon="6.8152110">
        <ele>1699.0</ele>
        <time>2017-07-28T14:19:20Z</time>
      </trkpt>
      <trkpt lat="44.9599510" lon="6.8152820">
        <ele>1699.6</ele>
        <time>2017-07-28T14:19:22Z</time>
      </trkpt>
      <trkpt lat="44.9600650" lon="6.8154220">
        <ele>1700.8</ele>
        <time>2017-07-28T14:19:26Z</time>
      </trkpt>
      <trkpt lat="44.9601770" lon="6.8155660">
        <ele>1702.0</ele>
        <time>2017-07-28T14:19:30Z</time>
      </trkpt>
      <trkpt lat="44.9602860" lon="6.8157100">
        <ele>1703.2</ele>
        <time>2017-07-28T14:19:34Z</time>
      </trkpt>
      <trkpt lat="44.9603700" lon="6.8158140">
        <ele>1704.2</ele>
        <time>2017-07-28T14:19:37Z</time>
      </trkpt>
      <trkpt lat="44.9604530" lon="6.8159180">
        <ele>1705.4</ele>
        <time>2017-07-28T14:19:40Z</time>
      </trkpt>
      <trkpt lat="44.9605370" lon="6.8160230">
        <ele>1706.6</ele>
        <time>2017-07-28T14:19:43Z</time>
      </trkpt>
      <trkpt lat="44.9606230" lon="6.8161270">
        <ele>1707.8</ele>
        <time>2017-07-28T14:19:46Z</time>
      </trkpt>
      <trkpt lat="44.9607070" lon="6.8162310">
        <ele>1709.0</ele>
        <time>2017-07-28T14:19:49Z</time>
      </trkpt>
      <trkpt lat="44.9607920" lon="6.8163360">
        <ele>1710.6</ele>
        <time>2017-07-28T14:19:52Z</time>
      </trkpt>
      <trkpt lat="44.9608200" lon="6.8163710">
        <ele>1711.0</ele>
        <time>2017-07-28T14:19:53Z</time>
      </trkpt>
      <trkpt lat="44.9608770" lon="6.8164390">
        <ele>1711.8</ele>
        <time>2017-07-28T14:19:55Z</time>
      </trkpt>
      <trkpt lat="44.9609320" lon="6.8165080">
        <ele>1712.8</ele>
        <time>2017-07-28T14:19:57Z</time>
      </trkpt>
      <trkpt lat="44.9609870" lon="6.8165790">
        <ele>1714.0</ele>
        <time>2017-07-28T14:19:59Z</time>
      </trkpt>
      <trkpt lat="44.9610430" lon="6.8166520">
        <ele>1714.8</ele>
        <time>2017-07-28T14:20:01Z</time>
      </trkpt>
      <trkpt lat="44.9610710" lon="6.8166870">
        <ele>1715.2</ele>
        <time>2017-07-28T14:20:02Z</time>
      </trkpt>
      <trkpt lat="44.9611260" lon="6.8167580">
        <ele>1716.4</ele>
        <time>2017-07-28T14:20:04Z</time>
      </trkpt>
      <trkpt lat="44.9612100" lon="6.8168650">
        <ele>1717.4</ele>
        <time>2017-07-28T14:20:07Z</time>
      </trkpt>
      <trkpt lat="44.9612900" lon="6.8169700">
        <ele>1718.4</ele>
        <time>2017-07-28T14:20:10Z</time>
      </trkpt>
      <trkpt lat="44.9613170" lon="6.8170050">
        <ele>1718.8</ele>
        <time>2017-07-28T14:20:11Z</time>
      </trkpt>
      <trkpt lat="44.9613970" lon="6.8171100">
        <ele>1719.8</ele>
        <time>2017-07-28T14:20:14Z</time>
      </trkpt>
      <trkpt lat="44.9614790" lon="6.8172160">
        <ele>1720.8</ele>
        <time>2017-07-28T14:20:17Z</time>
      </trkpt>
      <trkpt lat="44.9615060" lon="6.8172520">
        <ele>1721.0</ele>
        <time>2017-07-28T14:20:18Z</time>
      </trkpt>
      <trkpt lat="44.9615860" lon="6.8173550">
        <ele>1722.2</ele>
        <time>2017-07-28T14:20:21Z</time>
      </trkpt>
      <trkpt lat="44.9616940" lon="6.8175040">
        <ele>1723.4</ele>
        <time>2017-07-28T14:20:25Z</time>
      </trkpt>
      <trkpt lat="44.9617760" lon="6.8176080">
        <ele>1725.0</ele>
        <time>2017-07-28T14:20:28Z</time>
      </trkpt>
      <trkpt lat="44.9618580" lon="6.8177120">
        <ele>1726.0</ele>
        <time>2017-07-28T14:20:31Z</time>
      </trkpt>
      <trkpt lat="44.9619440" lon="6.8178180">
        <ele>1727.4</ele>
        <time>2017-07-28T14:20:34Z</time>
      </trkpt>
      <trkpt lat="44.9620320" lon="6.8179250">
        <ele>1728.6</ele>
        <time>2017-07-28T14:20:37Z</time>
      </trkpt>
      <trkpt lat="44.9621150" lon="6.8180310">
        <ele>1730.2</ele>
        <time>2017-07-28T14:20:40Z</time>
      </trkpt>
      <trkpt lat="44.9621420" lon="6.8180640">
        <ele>1730.6</ele>
        <time>2017-07-28T14:20:41Z</time>
      </trkpt>
      <trkpt lat="44.9621970" lon="6.8181330">
        <ele>1731.6</ele>
        <time>2017-07-28T14:20:43Z</time>
      </trkpt>
      <trkpt lat="44.9622520" lon="6.8182060">
        <ele>1732.4</ele>
        <time>2017-07-28T14:20:45Z</time>
      </trkpt>
      <trkpt lat="44.9622790" lon="6.8182420">
        <ele>1732.8</ele>
        <time>2017-07-28T14:20:46Z</time>
      </trkpt>
      <trkpt lat="44.9623340" lon="6.8183110">
        <ele>1733.4</ele>
        <time>2017-07-28T14:20:48Z</time>
      </trkpt>
      <trkpt lat="44.9623570" lon="6.8183490">
        <ele>1733.6</ele>
        <time>2017-07-28T14:20:49Z</time>
      </trkpt>
      <trkpt lat="44.9623750" lon="6.8183760">
        <ele>1733.8</ele>
        <time>2017-07-28T14:20:50Z</time>
      </trkpt>
      <trkpt lat="44.9623970" lon="6.8184210">
        <ele>1735.0</ele>
        <time>2017-07-28T14:20:53Z</time>
      </trkpt>
      <trkpt lat="44.9624420" lon="6.8185400">
        <ele>1738.0</ele>
        <time>2017-07-28T14:21:17Z</time>
      </trkpt>
      <trkpt lat="44.9624360" lon="6.8185670">
        <ele>1738.2</ele>
        <time>2017-07-28T14:21:18Z</time>
      </trkpt>
      <trkpt lat="44.9624290" lon="6.8186020">
        <ele>1738.4</ele>
        <time>2017-07-28T14:21:19Z</time>
      </trkpt>
      <trkpt lat="44.9623540" lon="6.8186720">
        <ele>1737.8</ele>
        <time>2017-07-28T14:21:23Z</time>
      </trkpt>
      <trkpt lat="44.9622320" lon="6.8186260">
        <ele>1736.8</ele>
        <time>2017-07-28T14:21:27Z</time>
      </trkpt>
      <trkpt lat="44.9621970" lon="6.8186010">
        <ele>1736.8</ele>
        <time>2017-07-28T14:21:28Z</time>
      </trkpt>
      <trkpt lat="44.9621130" lon="6.8185430">
        <ele>1735.8</ele>
        <time>2017-07-28T14:21:30Z</time>
      </trkpt>
      <trkpt lat="44.9620070" lon="6.8185320">
        <ele>1734.0</ele>
        <time>2017-07-28T14:21:32Z</time>
      </trkpt>
      <trkpt lat="44.9618970" lon="6.8185660">
        <ele>1732.6</ele>
        <time>2017-07-28T14:21:34Z</time>
      </trkpt>
      <trkpt lat="44.9618130" lon="6.8185850">
        <ele>1730.8</ele>
        <time>2017-07-28T14:21:36Z</time>
      </trkpt>
      <trkpt lat="44.9617860" lon="6.8185830">
        <ele>1730.0</ele>
        <time>2017-07-28T14:21:37Z</time>
      </trkpt>
      <trkpt lat="44.9617640" lon="6.8185810">
        <ele>1729.4</ele>
        <time>2017-07-28T14:21:38Z</time>
      </trkpt>
      <trkpt lat="44.9617410" lon="6.8185700">
        <ele>1728.0</ele>
        <time>2017-07-28T14:21:40Z</time>
      </trkpt>
      <trkpt lat="44.9617190" lon="6.8185670">
        <ele>1727.4</ele>
        <time>2017-07-28T14:21:42Z</time>
      </trkpt>
      <trkpt lat="44.9617040" lon="6.8185650">
        <ele>1727.0</ele>
        <time>2017-07-28T14:21:43Z</time>
      </trkpt>
      <trkpt lat="44.9616000" lon="6.8185630">
        <ele>1726.0</ele>
        <time>2017-07-28T14:21:46Z</time>
      </trkpt>
      <trkpt lat="44.9614970" lon="6.8185390">
        <ele>1724.8</ele>
        <time>2017-07-28T14:21:48Z</time>
      </trkpt>
      <trkpt lat="44.9614390" lon="6.8185110">
        <ele>1724.2</ele>
        <time>2017-07-28T14:21:49Z</time>
      </trkpt>
      <trkpt lat="44.9613770" lon="6.8184700">
        <ele>1723.8</ele>
        <time>2017-07-28T14:21:50Z</time>
      </trkpt>
      <trkpt lat="44.9612150" lon="6.8182480">
        <ele>1722.2</ele>
        <time>2017-07-28T14:21:53Z</time>
      </trkpt>
      <trkpt lat="44.9611700" lon="6.8181620">
        <ele>1721.4</ele>
        <time>2017-07-28T14:21:54Z</time>
      </trkpt>
      <trkpt lat="44.9611250" lon="6.8180830">
        <ele>1721.0</ele>
        <time>2017-07-28T14:21:55Z</time>
      </trkpt>
      <trkpt lat="44.9609980" lon="6.8178860">
        <ele>1720.4</ele>
        <time>2017-07-28T14:21:58Z</time>
      </trkpt>
      <trkpt lat="44.9609550" lon="6.8178380">
        <ele>1720.4</ele>
        <time>2017-07-28T14:21:59Z</time>
      </trkpt>
      <trkpt lat="44.9608650" lon="6.8177640">
        <ele>1720.6</ele>
        <time>2017-07-28T14:22:01Z</time>
      </trkpt>
      <trkpt lat="44.9608240" lon="6.8177400">
        <ele>1720.6</ele>
        <time>2017-07-28T14:22:02Z</time>
      </trkpt>
      <trkpt lat="44.9606130" lon="6.8176940">
        <ele>1721.8</ele>
        <time>2017-07-28T14:22:07Z</time>
      </trkpt>
      <trkpt lat="44.9605690" lon="6.8176920">
        <ele>1722.0</ele>
        <time>2017-07-28T14:22:08Z</time>
      </trkpt>
      <trkpt lat="44.9604380" lon="6.8176780">
        <ele>1722.2</ele>
        <time>2017-07-28T14:22:11Z</time>
      </trkpt>
      <trkpt lat="44.9603570" lon="6.8177020">
        <ele>1722.2</ele>
        <time>2017-07-28T14:22:13Z</time>
      </trkpt>
      <trkpt lat="44.9602830" lon="6.8177560">
        <ele>1722.6</ele>
        <time>2017-07-28T14:22:15Z</time>
      </trkpt>
      <trkpt lat="44.9602500" lon="6.8177940">
        <ele>1722.8</ele>
        <time>2017-07-28T14:22:16Z</time>
      </trkpt>
      <trkpt lat="44.9601920" lon="6.8178760">
        <ele>1722.8</ele>
        <time>2017-07-28T14:22:18Z</time>
      </trkpt>
      <trkpt lat="44.9601350" lon="6.8179540">
        <ele>1722.4</ele>
        <time>2017-07-28T14:22:20Z</time>
      </trkpt>
      <trkpt lat="44.9600780" lon="6.8180880">
        <ele>1721.8</ele>
        <time>2017-07-28T14:22:23Z</time>
      </trkpt>
      <trkpt lat="44.9600230" lon="6.8183110">
        <ele>1721.0</ele>
        <time>2017-07-28T14:22:28Z</time>
      </trkpt>
      <trkpt lat="44.9600110" lon="6.8183580">
        <ele>1721.0</ele>
        <time>2017-07-28T14:22:29Z</time>
      </trkpt>
      <trkpt lat="44.9599560" lon="6.8185670">
        <ele>1721.0</ele>
        <time>2017-07-28T14:22:34Z</time>
      </trkpt>
      <trkpt lat="44.9599330" lon="6.8186390">
        <ele>1721.2</ele>
        <time>2017-07-28T14:22:36Z</time>
      </trkpt>
      <trkpt lat="44.9598700" lon="6.8188150">
        <ele>1722.0</ele>
        <time>2017-07-28T14:22:41Z</time>
      </trkpt>
      <trkpt lat="44.9598010" lon="6.8189030">
        <ele>1722.8</ele>
        <time>2017-07-28T14:22:44Z</time>
      </trkpt>
      <trkpt lat="44.9596630" lon="6.8189660">
        <ele>1723.2</ele>
        <time>2017-07-28T14:22:48Z</time>
      </trkpt>
      <trkpt lat="44.9596240" lon="6.8189740">
        <ele>1723.4</ele>
        <time>2017-07-28T14:22:49Z</time>
      </trkpt>
      <trkpt lat="44.9595070" lon="6.8189790">
        <ele>1724.6</ele>
        <time>2017-07-28T14:22:52Z</time>
      </trkpt>
      <trkpt lat="44.9593440" lon="6.8190040">
        <ele>1725.6</ele>
        <time>2017-07-28T14:22:56Z</time>
      </trkpt>
      <trkpt lat="44.9593060" lon="6.8190140">
        <ele>1725.8</ele>
        <time>2017-07-28T14:22:57Z</time>
      </trkpt>
      <trkpt lat="44.9591050" lon="6.8190510">
        <ele>1727.0</ele>
        <time>2017-07-28T14:23:02Z</time>
      </trkpt>
      <trkpt lat="44.9590610" lon="6.8190530">
        <ele>1727.2</ele>
        <time>2017-07-28T14:23:03Z</time>
      </trkpt>
      <trkpt lat="44.9589390" lon="6.8190320">
        <ele>1728.0</ele>
        <time>2017-07-28T14:23:06Z</time>
      </trkpt>
      <trkpt lat="44.9587900" lon="6.8190350">
        <ele>1729.2</ele>
        <time>2017-07-28T14:23:10Z</time>
      </trkpt>
      <trkpt lat="44.9586210" lon="6.8191050">
        <ele>1730.4</ele>
        <time>2017-07-28T14:23:15Z</time>
      </trkpt>
      <trkpt lat="44.9585900" lon="6.8191300">
        <ele>1730.8</ele>
        <time>2017-07-28T14:23:16Z</time>
      </trkpt>
      <trkpt lat="44.9584940" lon="6.8192020">
        <ele>1731.4</ele>
        <time>2017-07-28T14:23:19Z</time>
      </trkpt>
      <trkpt lat="44.9583650" lon="6.8192930">
        <ele>1732.6</ele>
        <time>2017-07-28T14:23:23Z</time>
      </trkpt>
      <trkpt lat="44.9583290" lon="6.8193180">
        <ele>1732.8</ele>
        <time>2017-07-28T14:23:24Z</time>
      </trkpt>
      <trkpt lat="44.9581390" lon="6.8193890">
        <ele>1733.6</ele>
        <time>2017-07-28T14:23:30Z</time>
      </trkpt>
      <trkpt lat="44.9579320" lon="6.8193740">
        <ele>1734.6</ele>
        <time>2017-07-28T14:23:36Z</time>
      </trkpt>
      <trkpt lat="44.9578930" lon="6.8193750">
        <ele>1734.6</ele>
        <time>2017-07-28T14:23:37Z</time>
      </trkpt>
      <trkpt lat="44.9577860" lon="6.8193900">
        <ele>1735.6</ele>
        <time>2017-07-28T14:23:40Z</time>
      </trkpt>
      <trkpt lat="44.9576750" lon="6.8194200">
        <ele>1736.0</ele>
        <time>2017-07-28T14:23:43Z</time>
      </trkpt>
      <trkpt lat="44.9575690" lon="6.8194660">
        <ele>1736.8</ele>
        <time>2017-07-28T14:23:46Z</time>
      </trkpt>
      <trkpt lat="44.9574730" lon="6.8195550">
        <ele>1737.2</ele>
        <time>2017-07-28T14:23:49Z</time>
      </trkpt>
      <trkpt lat="44.9574020" lon="6.8196650">
        <ele>1737.8</ele>
        <time>2017-07-28T14:23:52Z</time>
      </trkpt>
      <trkpt lat="44.9573320" lon="6.8197960">
        <ele>1738.0</ele>
        <time>2017-07-28T14:23:55Z</time>
      </trkpt>
      <trkpt lat="44.9572650" lon="6.8198700">
        <ele>1738.2</ele>
        <time>2017-07-28T14:23:57Z</time>
      </trkpt>
      <trkpt lat="44.9571810" lon="6.8198550">
        <ele>1738.2</ele>
        <time>2017-07-28T14:23:59Z</time>
      </trkpt>
      <trkpt lat="44.9570900" lon="6.8197350">
        <ele>1738.8</ele>
        <time>2017-07-28T14:24:02Z</time>
      </trkpt>
      <trkpt lat="44.9570690" lon="6.8196870">
        <ele>1738.8</ele>
        <time>2017-07-28T14:24:03Z</time>
      </trkpt>
      <trkpt lat="44.9570100" lon="6.8194950">
        <ele>1739.0</ele>
        <time>2017-07-28T14:24:07Z</time>
      </trkpt>
      <trkpt lat="44.9569750" lon="6.8194200">
        <ele>1739.2</ele>
        <time>2017-07-28T14:24:09Z</time>
      </trkpt>
      <trkpt lat="44.9569440" lon="6.8193870">
        <ele>1739.2</ele>
        <time>2017-07-28T14:24:10Z</time>
      </trkpt>
      <trkpt lat="44.9568190" lon="6.8193280">
        <ele>1739.6</ele>
        <time>2017-07-28T14:24:13Z</time>
      </trkpt>
      <trkpt lat="44.9566670" lon="6.8193000">
        <ele>1740.2</ele>
        <time>2017-07-28T14:24:17Z</time>
      </trkpt>
      <trkpt lat="44.9565860" lon="6.8192790">
        <ele>1740.2</ele>
        <time>2017-07-28T14:24:19Z</time>
      </trkpt>
      <trkpt lat="44.9563620" lon="6.8192290">
        <ele>1741.2</ele>
        <time>2017-07-28T14:24:25Z</time>
      </trkpt>
      <trkpt lat="44.9562930" lon="6.8192030">
        <ele>1741.4</ele>
        <time>2017-07-28T14:24:27Z</time>
      </trkpt>
      <trkpt lat="44.9561870" lon="6.8191700">
        <ele>1742.2</ele>
        <time>2017-07-28T14:24:30Z</time>
      </trkpt>
      <trkpt lat="44.9560130" lon="6.8191600">
        <ele>1743.0</ele>
        <time>2017-07-28T14:24:35Z</time>
      </trkpt>
      <trkpt lat="44.9559820" lon="6.8191550">
        <ele>1743.2</ele>
        <time>2017-07-28T14:24:36Z</time>
      </trkpt>
      <trkpt lat="44.9558020" lon="6.8191220">
        <ele>1744.0</ele>
        <time>2017-07-28T14:24:41Z</time>
      </trkpt>
      <trkpt lat="44.9557330" lon="6.8191030">
        <ele>1744.4</ele>
        <time>2017-07-28T14:24:43Z</time>
      </trkpt>
      <trkpt lat="44.9555430" lon="6.8190730">
        <ele>1745.2</ele>
        <time>2017-07-28T14:24:49Z</time>
      </trkpt>
      <trkpt lat="44.9555070" lon="6.8190710">
        <ele>1745.4</ele>
        <time>2017-07-28T14:24:50Z</time>
      </trkpt>
      <trkpt lat="44.9552950" lon="6.8190610">
        <ele>1746.2</ele>
        <time>2017-07-28T14:24:56Z</time>
      </trkpt>
      <trkpt lat="44.9552080" lon="6.8190650">
        <ele>1746.6</ele>
        <time>2017-07-28T14:24:59Z</time>
      </trkpt>
      <trkpt lat="44.9551010" lon="6.8190650">
        <ele>1746.8</ele>
        <time>2017-07-28T14:25:02Z</time>
      </trkpt>
      <trkpt lat="44.9548810" lon="6.8190940">
        <ele>1747.6</ele>
        <time>2017-07-28T14:25:08Z</time>
      </trkpt>
      <trkpt lat="44.9548390" lon="6.8190900">
        <ele>1748.0</ele>
        <time>2017-07-28T14:25:09Z</time>
      </trkpt>
      <trkpt lat="44.9546030" lon="6.8190550">
        <ele>1749.0</ele>
        <time>2017-07-28T14:25:14Z</time>
      </trkpt>
      <trkpt lat="44.9545500" lon="6.8190580">
        <ele>1749.2</ele>
        <time>2017-07-28T14:25:15Z</time>
      </trkpt>
      <trkpt lat="44.9544490" lon="6.8190640">
        <ele>1749.6</ele>
        <time>2017-07-28T14:25:17Z</time>
      </trkpt>
      <trkpt lat="44.9543650" lon="6.8190730">
        <ele>1750.0</ele>
        <time>2017-07-28T14:25:19Z</time>
      </trkpt>
      <trkpt lat="44.9542060" lon="6.8191120">
        <ele>1750.2</ele>
        <time>2017-07-28T14:25:23Z</time>
      </trkpt>
      <trkpt lat="44.9540190" lon="6.8191890">
        <ele>1750.8</ele>
        <time>2017-07-28T14:25:28Z</time>
      </trkpt>
      <trkpt lat="44.9539260" lon="6.8192480">
        <ele>1751.2</ele>
        <time>2017-07-28T14:25:31Z</time>
      </trkpt>
      <trkpt lat="44.9537740" lon="6.8193230">
        <ele>1751.6</ele>
        <time>2017-07-28T14:25:35Z</time>
      </trkpt>
      <trkpt lat="44.9536160" lon="6.8194240">
        <ele>1752.4</ele>
        <time>2017-07-28T14:25:40Z</time>
      </trkpt>
      <trkpt lat="44.9535520" lon="6.8194580">
        <ele>1752.2</ele>
        <time>2017-07-28T14:25:42Z</time>
      </trkpt>
      <trkpt lat="44.9534570" lon="6.8194970">
        <ele>1752.4</ele>
        <time>2017-07-28T14:25:45Z</time>
      </trkpt>
      <trkpt lat="44.9533930" lon="6.8195140">
        <ele>1752.6</ele>
        <time>2017-07-28T14:25:47Z</time>
      </trkpt>
      <trkpt lat="44.9533620" lon="6.8195090">
        <ele>1752.4</ele>
        <time>2017-07-28T14:25:48Z</time>
      </trkpt>
      <trkpt lat="44.9532740" lon="6.8193820">
        <ele>1752.6</ele>
        <time>2017-07-28T14:25:52Z</time>
      </trkpt>
      <trkpt lat="44.9532580" lon="6.8193470">
        <ele>1752.8</ele>
        <time>2017-07-28T14:25:53Z</time>
      </trkpt>
      <trkpt lat="44.9531490" lon="6.8192290">
        <ele>1753.6</ele>
        <time>2017-07-28T14:25:57Z</time>
      </trkpt>
      <trkpt lat="44.9531200" lon="6.8192040">
        <ele>1753.8</ele>
        <time>2017-07-28T14:25:58Z</time>
      </trkpt>
      <trkpt lat="44.9530010" lon="6.8190940">
        <ele>1754.6</ele>
        <time>2017-07-28T14:26:02Z</time>
      </trkpt>
      <trkpt lat="44.9529030" lon="6.8190260">
        <ele>1755.6</ele>
        <time>2017-07-28T14:26:05Z</time>
      </trkpt>
      <trkpt lat="44.9527090" lon="6.8188830">
        <ele>1756.6</ele>
        <time>2017-07-28T14:26:11Z</time>
      </trkpt>
      <trkpt lat="44.9526730" lon="6.8188660">
        <ele>1756.8</ele>
        <time>2017-07-28T14:26:12Z</time>
      </trkpt>
      <trkpt lat="44.9523880" lon="6.8187670">
        <ele>1757.0</ele>
        <time>2017-07-28T14:26:20Z</time>
      </trkpt>
      <trkpt lat="44.9521770" lon="6.8187660">
        <ele>1756.0</ele>
        <time>2017-07-28T14:26:26Z</time>
      </trkpt>
      <trkpt lat="44.9519400" lon="6.8188180">
        <ele>1757.0</ele>
        <time>2017-07-28T14:26:33Z</time>
      </trkpt>
      <trkpt lat="44.9517850" lon="6.8187980">
        <ele>1757.8</ele>
        <time>2017-07-28T14:26:37Z</time>
      </trkpt>
      <trkpt lat="44.9517510" lon="6.8187820">
        <ele>1758.0</ele>
        <time>2017-07-28T14:26:38Z</time>
      </trkpt>
      <trkpt lat="44.9516270" lon="6.8186940">
        <ele>1759.2</ele>
        <time>2017-07-28T14:26:42Z</time>
      </trkpt>
      <trkpt lat="44.9515330" lon="6.8186640">
        <ele>1759.8</ele>
        <time>2017-07-28T14:26:44Z</time>
      </trkpt>
      <trkpt lat="44.9514830" lon="6.8186560">
        <ele>1760.0</ele>
        <time>2017-07-28T14:26:45Z</time>
      </trkpt>
      <trkpt lat="44.9514350" lon="6.8186550">
        <ele>1760.2</ele>
        <time>2017-07-28T14:26:46Z</time>
      </trkpt>
      <trkpt lat="44.9512500" lon="6.8186730">
        <ele>1761.2</ele>
        <time>2017-07-28T14:26:50Z</time>
      </trkpt>
      <trkpt lat="44.9511950" lon="6.8186730">
        <ele>1761.2</ele>
        <time>2017-07-28T14:26:51Z</time>
      </trkpt>
      <trkpt lat="44.9509710" lon="6.8186250">
        <ele>1762.4</ele>
        <time>2017-07-28T14:26:56Z</time>
      </trkpt>
      <trkpt lat="44.9507580" lon="6.8185200">
        <ele>1763.4</ele>
        <time>2017-07-28T14:27:02Z</time>
      </trkpt>
      <trkpt lat="44.9507240" lon="6.8184960">
        <ele>1763.6</ele>
        <time>2017-07-28T14:27:03Z</time>
      </trkpt>
      <trkpt lat="44.9505680" lon="6.8183930">
        <ele>1764.4</ele>
        <time>2017-07-28T14:27:07Z</time>
      </trkpt>
      <trkpt lat="44.9504200" lon="6.8182970">
        <ele>1765.2</ele>
        <time>2017-07-28T14:27:11Z</time>
      </trkpt>
      <trkpt lat="44.9503840" lon="6.8182780">
        <ele>1765.6</ele>
        <time>2017-07-28T14:27:12Z</time>
      </trkpt>
      <trkpt lat="44.9501540" lon="6.8182060">
        <ele>1766.8</ele>
        <time>2017-07-28T14:27:18Z</time>
      </trkpt>
      <trkpt lat="44.9498570" lon="6.8181830">
        <ele>1767.6</ele>
        <time>2017-07-28T14:27:26Z</time>
      </trkpt>
      <trkpt lat="44.9497740" lon="6.8182050">
        <ele>1767.8</ele>
        <time>2017-07-28T14:27:28Z</time>
      </trkpt>
      <trkpt lat="44.9496940" lon="6.8182290">
        <ele>1767.8</ele>
        <time>2017-07-28T14:27:30Z</time>
      </trkpt>
      <trkpt lat="44.9496200" lon="6.8182610">
        <ele>1767.6</ele>
        <time>2017-07-28T14:27:32Z</time>
      </trkpt>
      <trkpt lat="44.9494290" lon="6.8183150">
        <ele>1768.4</ele>
        <time>2017-07-28T14:27:38Z</time>
      </trkpt>
      <trkpt lat="44.9493490" lon="6.8181900">
        <ele>1768.6</ele>
        <time>2017-07-28T14:27:42Z</time>
      </trkpt>
      <trkpt lat="44.9493250" lon="6.8180200">
        <ele>1768.6</ele>
        <time>2017-07-28T14:27:45Z</time>
      </trkpt>
      <trkpt lat="44.9493040" lon="6.8179160">
        <ele>1768.8</ele>
        <time>2017-07-28T14:27:47Z</time>
      </trkpt>
      <trkpt lat="44.9492920" lon="6.8178740">
        <ele>1769.2</ele>
        <time>2017-07-28T14:27:48Z</time>
      </trkpt>
      <trkpt lat="44.9492410" lon="6.8177600">
        <ele>1770.0</ele>
        <time>2017-07-28T14:27:51Z</time>
      </trkpt>
      <trkpt lat="44.9491710" lon="6.8177000">
        <ele>1770.4</ele>
        <time>2017-07-28T14:27:53Z</time>
      </trkpt>
      <trkpt lat="44.9490470" lon="6.8176390">
        <ele>1771.0</ele>
        <time>2017-07-28T14:27:56Z</time>
      </trkpt>
      <trkpt lat="44.9489000" lon="6.8175960">
        <ele>1771.6</ele>
        <time>2017-07-28T14:27:59Z</time>
      </trkpt>
      <trkpt lat="44.9487400" lon="6.8175490">
        <ele>1772.4</ele>
        <time>2017-07-28T14:28:02Z</time>
      </trkpt>
      <trkpt lat="44.9485890" lon="6.8174950">
        <ele>1773.0</ele>
        <time>2017-07-28T14:28:05Z</time>
      </trkpt>
      <trkpt lat="44.9483480" lon="6.8173590">
        <ele>1773.2</ele>
        <time>2017-07-28T14:28:10Z</time>
      </trkpt>
      <trkpt lat="44.9482970" lon="6.8173400">
        <ele>1773.0</ele>
        <time>2017-07-28T14:28:11Z</time>
      </trkpt>
      <trkpt lat="44.9481860" lon="6.8173040">
        <ele>1772.8</ele>
        <time>2017-07-28T14:28:13Z</time>
      </trkpt>
      <trkpt lat="44.9480100" lon="6.8172620">
        <ele>1773.2</ele>
        <time>2017-07-28T14:28:16Z</time>
      </trkpt>
      <trkpt lat="44.9478310" lon="6.8172350">
        <ele>1772.8</ele>
        <time>2017-07-28T14:28:19Z</time>
      </trkpt>
      <trkpt lat="44.9477120" lon="6.8172470">
        <ele>1772.4</ele>
        <time>2017-07-28T14:28:21Z</time>
      </trkpt>
      <trkpt lat="44.9475950" lon="6.8172460">
        <ele>1772.2</ele>
        <time>2017-07-28T14:28:23Z</time>
      </trkpt>
      <trkpt lat="44.9473160" lon="6.8172100">
        <ele>1772.2</ele>
        <time>2017-07-28T14:28:28Z</time>
      </trkpt>
      <trkpt lat="44.9472110" lon="6.8172100">
        <ele>1772.4</ele>
        <time>2017-07-28T14:28:30Z</time>
      </trkpt>
      <trkpt lat="44.9470570" lon="6.8172600">
        <ele>1772.4</ele>
        <time>2017-07-28T14:28:33Z</time>
      </trkpt>
      <trkpt lat="44.9468430" lon="6.8171970">
        <ele>1772.8</ele>
        <time>2017-07-28T14:28:37Z</time>
      </trkpt>
      <trkpt lat="44.9467010" lon="6.8170720">
        <ele>1772.4</ele>
        <time>2017-07-28T14:28:40Z</time>
      </trkpt>
      <trkpt lat="44.9466500" lon="6.8170390">
        <ele>1772.6</ele>
        <time>2017-07-28T14:28:41Z</time>
      </trkpt>
      <trkpt lat="44.9465970" lon="6.8170090">
        <ele>1772.6</ele>
        <time>2017-07-28T14:28:42Z</time>
      </trkpt>
      <trkpt lat="44.9462870" lon="6.8168680">
        <ele>1771.8</ele>
        <time>2017-07-28T14:28:48Z</time>
      </trkpt>
      <trkpt lat="44.9461310" lon="6.8169270">
        <ele>1771.8</ele>
        <time>2017-07-28T14:28:51Z</time>
      </trkpt>
      <trkpt lat="44.9460560" lon="6.8171390">
        <ele>1772.2</ele>
        <time>2017-07-28T14:28:54Z</time>
      </trkpt>
      <trkpt lat="44.9459100" lon="6.8176850">
        <ele>1772.2</ele>
        <time>2017-07-28T14:29:01Z</time>
      </trkpt>
      <trkpt lat="44.9458950" lon="6.8177650">
        <ele>1772.2</ele>
        <time>2017-07-28T14:29:02Z</time>
      </trkpt>
      <trkpt lat="44.9458710" lon="6.8179820">
        <ele>1772.4</ele>
        <time>2017-07-28T14:29:05Z</time>
      </trkpt>
      <trkpt lat="44.9459030" lon="6.8182290">
        <ele>1773.4</ele>
        <time>2017-07-28T14:29:09Z</time>
      </trkpt>
      <trkpt lat="44.9459170" lon="6.8182880">
        <ele>1773.8</ele>
        <time>2017-07-28T14:29:10Z</time>
      </trkpt>
      <trkpt lat="44.9459530" lon="6.8184180">
        <ele>1774.6</ele>
        <time>2017-07-28T14:29:12Z</time>
      </trkpt>
      <trkpt lat="44.9460120" lon="6.8186470">
        <ele>1775.0</ele>
        <time>2017-07-28T14:29:15Z</time>
      </trkpt>
      <trkpt lat="44.9460250" lon="6.8187340">
        <ele>1775.2</ele>
        <time>2017-07-28T14:29:16Z</time>
      </trkpt>
      <trkpt lat="44.9460300" lon="6.8189150">
        <ele>1775.6</ele>
        <time>2017-07-28T14:29:18Z</time>
      </trkpt>
      <trkpt lat="44.9460230" lon="6.8190010">
        <ele>1775.6</ele>
        <time>2017-07-28T14:29:19Z</time>
      </trkpt>
      <trkpt lat="44.9459700" lon="6.8192340">
        <ele>1775.6</ele>
        <time>2017-07-28T14:29:22Z</time>
      </trkpt>
      <trkpt lat="44.9459500" lon="6.8193090">
        <ele>1775.8</ele>
        <time>2017-07-28T14:29:23Z</time>
      </trkpt>
      <trkpt lat="44.9458250" lon="6.8196400">
        <ele>1776.4</ele>
        <time>2017-07-28T14:29:28Z</time>
      </trkpt>
      <trkpt lat="44.9457960" lon="6.8196930">
        <ele>1776.6</ele>
        <time>2017-07-28T14:29:29Z</time>
      </trkpt>
      <trkpt lat="44.9456470" lon="6.8199230">
        <ele>1777.2</ele>
        <time>2017-07-28T14:29:34Z</time>
      </trkpt>
      <trkpt lat="44.9455110" lon="6.8200920">
        <ele>1777.2</ele>
        <time>2017-07-28T14:29:39Z</time>
      </trkpt>
      <trkpt lat="44.9454840" lon="6.8201280">
        <ele>1777.6</ele>
        <time>2017-07-28T14:29:40Z</time>
      </trkpt>
      <trkpt lat="44.9454620" lon="6.8201700">
        <ele>1777.8</ele>
        <time>2017-07-28T14:29:41Z</time>
      </trkpt>
      <trkpt lat="44.9453780" lon="6.8203270">
        <ele>1778.6</ele>
        <time>2017-07-28T14:29:45Z</time>
      </trkpt>
      <trkpt lat="44.9453350" lon="6.8204370">
        <ele>1779.0</ele>
        <time>2017-07-28T14:29:48Z</time>
      </trkpt>
      <trkpt lat="44.9452980" lon="6.8205530">
        <ele>1779.6</ele>
        <time>2017-07-28T14:29:51Z</time>
      </trkpt>
      <trkpt lat="44.9452680" lon="6.8206720">
        <ele>1780.0</ele>
        <time>2017-07-28T14:29:54Z</time>
      </trkpt>
      <trkpt lat="44.9452390" lon="6.8207890">
        <ele>1780.4</ele>
        <time>2017-07-28T14:29:57Z</time>
      </trkpt>
      <trkpt lat="44.9452230" lon="6.8208740">
        <ele>1780.8</ele>
        <time>2017-07-28T14:29:59Z</time>
      </trkpt>
      <trkpt lat="44.9451880" lon="6.8210970">
        <ele>1781.6</ele>
        <time>2017-07-28T14:30:04Z</time>
      </trkpt>
      <trkpt lat="44.9451820" lon="6.8211430">
        <ele>1781.8</ele>
        <time>2017-07-28T14:30:05Z</time>
      </trkpt>
      <trkpt lat="44.9451250" lon="6.8213450">
        <ele>1782.8</ele>
        <time>2017-07-28T14:30:11Z</time>
      </trkpt>
      <trkpt lat="44.9450970" lon="6.8214070">
        <ele>1783.0</ele>
        <time>2017-07-28T14:30:13Z</time>
      </trkpt>
      <trkpt lat="44.9450570" lon="6.8215240">
        <ele>1783.4</ele>
        <time>2017-07-28T14:30:17Z</time>
      </trkpt>
      <trkpt lat="44.9449710" lon="6.8216300">
        <ele>1784.2</ele>
        <time>2017-07-28T14:30:22Z</time>
      </trkpt>
      <trkpt lat="44.9449150" lon="6.8218100">
        <ele>1785.4</ele>
        <time>2017-07-28T14:30:28Z</time>
      </trkpt>
      <trkpt lat="44.9449020" lon="6.8218090">
        <ele>1786.0</ele>
        <time>2017-07-28T14:30:30Z</time>
      </trkpt>
      <trkpt lat="44.9448960" lon="6.8217900">
        <ele>1786.4</ele>
        <time>2017-07-28T14:30:31Z</time>
      </trkpt>
      <trkpt lat="44.9448910" lon="6.8217860">
        <ele>1786.8</ele>
        <time>2017-07-28T14:30:32Z</time>
      </trkpt>
      <trkpt lat="44.9449240" lon="6.8217690">
        <ele>1792.0</ele>
        <time>2017-07-28T14:30:54Z</time>
      </trkpt>
      <trkpt lat="44.9449330" lon="6.8217940">
        <ele>1792.2</ele>
        <time>2017-07-28T14:30:55Z</time>
      </trkpt>
      <trkpt lat="44.9449330" lon="6.8218900">
        <ele>1792.6</ele>
        <time>2017-07-28T14:30:58Z</time>
      </trkpt>
      <trkpt lat="44.9449260" lon="6.8219210">
        <ele>1792.6</ele>
        <time>2017-07-28T14:30:59Z</time>
      </trkpt>
      <trkpt lat="44.9448720" lon="6.8221220">
        <ele>1792.4</ele>
        <time>2017-07-28T14:31:05Z</time>
      </trkpt>
      <trkpt lat="44.9447860" lon="6.8223270">
        <ele>1792.8</ele>
        <time>2017-07-28T14:31:12Z</time>
      </trkpt>
      <trkpt lat="44.9447430" lon="6.8224350">
        <ele>1793.0</ele>
        <time>2017-07-28T14:31:16Z</time>
      </trkpt>
      <trkpt lat="44.9447330" lon="6.8224590">
        <ele>1789.8</ele>
        <time>2017-07-28T14:31:17Z</time>
      </trkpt>
      <trkpt lat="44.9447110" lon="6.8225070">
        <ele>1792.6</ele>
        <time>2017-07-28T14:31:19Z</time>
      </trkpt>
      <trkpt lat="44.9447020" lon="6.8225310">
        <ele>1794.8</ele>
        <time>2017-07-28T14:31:20Z</time>
      </trkpt>
      <trkpt lat="44.9446840" lon="6.8225820">
        <ele>1795.8</ele>
        <time>2017-07-28T14:31:22Z</time>
      </trkpt>
      <trkpt lat="44.9446600" lon="6.8226290">
        <ele>1797.0</ele>
        <time>2017-07-28T14:31:24Z</time>
      </trkpt>
      <trkpt lat="44.9446220" lon="6.8227020">
        <ele>1798.4</ele>
        <time>2017-07-28T14:31:27Z</time>
      </trkpt>
      <trkpt lat="44.9445560" lon="6.8228270">
        <ele>1799.4</ele>
        <time>2017-07-28T14:31:32Z</time>
      </trkpt>
      <trkpt lat="44.9445410" lon="6.8228870">
        <ele>1799.4</ele>
        <time>2017-07-28T14:31:34Z</time>
      </trkpt>
      <trkpt lat="44.9445400" lon="6.8230230">
        <ele>1799.8</ele>
        <time>2017-07-28T14:31:39Z</time>
      </trkpt>
      <trkpt lat="44.9445590" lon="6.8230320">
        <ele>1799.8</ele>
        <time>2017-07-28T14:31:40Z</time>
      </trkpt>
      <trkpt lat="44.9445950" lon="6.8230550">
        <ele>1799.8</ele>
        <time>2017-07-28T14:31:42Z</time>
      </trkpt>
      <trkpt lat="44.9446040" lon="6.8231150">
        <ele>1800.4</ele>
        <time>2017-07-28T14:31:44Z</time>
      </trkpt>
      <trkpt lat="44.9445960" lon="6.8231410">
        <ele>1800.6</ele>
        <time>2017-07-28T14:31:45Z</time>
      </trkpt>
      <trkpt lat="44.9445280" lon="6.8232360">
        <ele>1801.2</ele>
        <time>2017-07-28T14:31:50Z</time>
      </trkpt>
      <trkpt lat="44.9445010" lon="6.8232890">
        <ele>1801.6</ele>
        <time>2017-07-28T14:31:53Z</time>
      </trkpt>
      <trkpt lat="44.9444950" lon="6.8233100">
        <ele>1801.8</ele>
        <time>2017-07-28T14:31:54Z</time>
      </trkpt>
      <trkpt lat="44.9444680" lon="6.8233590">
        <ele>1802.2</ele>
        <time>2017-07-28T14:31:57Z</time>
      </trkpt>
      <trkpt lat="44.9444450" lon="6.8233940">
        <ele>1802.8</ele>
        <time>2017-07-28T14:31:59Z</time>
      </trkpt>
      <trkpt lat="44.9443870" lon="6.8234880">
        <ele>1803.8</ele>
        <time>2017-07-28T14:32:05Z</time>
      </trkpt>
      <trkpt lat="44.9443510" lon="6.8235460">
        <ele>1804.8</ele>
        <time>2017-07-28T14:32:09Z</time>
      </trkpt>
      <trkpt lat="44.9443440" lon="6.8235630">
        <ele>1805.0</ele>
        <time>2017-07-28T14:32:10Z</time>
      </trkpt>
      <trkpt lat="44.9443310" lon="6.8235950">
        <ele>1805.0</ele>
        <time>2017-07-28T14:32:12Z</time>
      </trkpt>
      <trkpt lat="44.9443190" lon="6.8236060">
        <ele>1805.0</ele>
        <time>2017-07-28T14:32:13Z</time>
      </trkpt>
      <trkpt lat="44.9442750" lon="6.8236950">
        <ele>1806.0</ele>
        <time>2017-07-28T14:32:18Z</time>
      </trkpt>
      <trkpt lat="44.9442400" lon="6.8237850">
        <ele>1807.2</ele>
        <time>2017-07-28T14:32:22Z</time>
      </trkpt>
      <trkpt lat="44.9442160" lon="6.8238650">
        <ele>1808.0</ele>
        <time>2017-07-28T14:32:25Z</time>
      </trkpt>
      <trkpt lat="44.9442110" lon="6.8238910">
        <ele>1808.2</ele>
        <time>2017-07-28T14:32:26Z</time>
      </trkpt>
      <trkpt lat="44.9442160" lon="6.8239660">
        <ele>1809.4</ele>
        <time>2017-07-28T14:32:29Z</time>
      </trkpt>
      <trkpt lat="44.9442290" lon="6.8240080">
        <ele>1810.2</ele>
        <time>2017-07-28T14:32:31Z</time>
      </trkpt>
      <trkpt lat="44.9442380" lon="6.8240270">
        <ele>1810.6</ele>
        <time>2017-07-28T14:32:32Z</time>
      </trkpt>
      <trkpt lat="44.9442580" lon="6.8240910">
        <ele>1811.8</ele>
        <time>2017-07-28T14:32:35Z</time>
      </trkpt>
      <trkpt lat="44.9442770" lon="6.8241710">
        <ele>1813.2</ele>
        <time>2017-07-28T14:32:38Z</time>
      </trkpt>
      <trkpt lat="44.9442790" lon="6.8242010">
        <ele>1813.6</ele>
        <time>2017-07-28T14:32:39Z</time>
      </trkpt>
      <trkpt lat="44.9442820" lon="6.8242640">
        <ele>1814.4</ele>
        <time>2017-07-28T14:32:41Z</time>
      </trkpt>
      <trkpt lat="44.9442930" lon="6.8243540">
        <ele>1815.6</ele>
        <time>2017-07-28T14:32:44Z</time>
      </trkpt>
      <trkpt lat="44.9443040" lon="6.8244420">
        <ele>1816.6</ele>
        <time>2017-07-28T14:32:47Z</time>
      </trkpt>
      <trkpt lat="44.9443100" lon="6.8245910">
        <ele>1817.8</ele>
        <time>2017-07-28T14:32:52Z</time>
      </trkpt>
      <trkpt lat="44.9443180" lon="6.8246830">
        <ele>1818.8</ele>
        <time>2017-07-28T14:32:55Z</time>
      </trkpt>
      <trkpt lat="44.9443280" lon="6.8248120">
        <ele>1820.0</ele>
        <time>2017-07-28T14:32:59Z</time>
      </trkpt>
      <trkpt lat="44.9443250" lon="6.8249170">
        <ele>1821.2</ele>
        <time>2017-07-28T14:33:02Z</time>
      </trkpt>
      <trkpt lat="44.9443240" lon="6.8250680">
        <ele>1822.2</ele>
        <time>2017-07-28T14:33:06Z</time>
      </trkpt>
      <trkpt lat="44.9443460" lon="6.8252490">
        <ele>1823.4</ele>
        <time>2017-07-28T14:33:11Z</time>
      </trkpt>
      <trkpt lat="44.9444170" lon="6.8254180">
        <ele>1824.6</ele>
        <time>2017-07-28T14:33:16Z</time>
      </trkpt>
      <trkpt lat="44.9444510" lon="6.8254860">
        <ele>1825.4</ele>
        <time>2017-07-28T14:33:18Z</time>
      </trkpt>
      <trkpt lat="44.9444940" lon="6.8255510">
        <ele>1825.8</ele>
        <time>2017-07-28T14:33:20Z</time>
      </trkpt>
      <trkpt lat="44.9446380" lon="6.8257070">
        <ele>1826.2</ele>
        <time>2017-07-28T14:33:25Z</time>
      </trkpt>
      <trkpt lat="44.9448640" lon="6.8258610">
        <ele>1826.0</ele>
        <time>2017-07-28T14:33:31Z</time>
      </trkpt>
      <trkpt lat="44.9450620" lon="6.8260140">
        <ele>1825.8</ele>
        <time>2017-07-28T14:33:36Z</time>
      </trkpt>
      <trkpt lat="44.9450970" lon="6.8260590">
        <ele>1826.0</ele>
        <time>2017-07-28T14:33:37Z</time>
      </trkpt>
      <trkpt lat="44.9451290" lon="6.8261050">
        <ele>1826.0</ele>
        <time>2017-07-28T14:33:38Z</time>
      </trkpt>
      <trkpt lat="44.9452240" lon="6.8262510">
        <ele>1827.0</ele>
        <time>2017-07-28T14:33:41Z</time>
      </trkpt>
      <trkpt lat="44.9453230" lon="6.8263820">
        <ele>1828.2</ele>
        <time>2017-07-28T14:33:44Z</time>
      </trkpt>
      <trkpt lat="44.9453930" lon="6.8264450">
        <ele>1828.6</ele>
        <time>2017-07-28T14:33:46Z</time>
      </trkpt>
      <trkpt lat="44.9455020" lon="6.8264690">
        <ele>1828.6</ele>
        <time>2017-07-28T14:33:49Z</time>
      </trkpt>
      <trkpt lat="44.9456530" lon="6.8264520">
        <ele>1829.0</ele>
        <time>2017-07-28T14:33:54Z</time>
      </trkpt>
      <trkpt lat="44.9458330" lon="6.8264190">
        <ele>1828.8</ele>
        <time>2017-07-28T14:34:02Z</time>
      </trkpt>
      <trkpt lat="44.9459770" lon="6.8264330">
        <ele>1828.8</ele>
        <time>2017-07-28T14:34:08Z</time>
      </trkpt>
      <trkpt lat="44.9460980" lon="6.8265050">
        <ele>1829.0</ele>
        <time>2017-07-28T14:34:14Z</time>
      </trkpt>
      <trkpt lat="44.9461190" lon="6.8265180">
        <ele>1829.2</ele>
        <time>2017-07-28T14:34:15Z</time>
      </trkpt>
      <trkpt lat="44.9462430" lon="6.8266140">
        <ele>1829.8</ele>
        <time>2017-07-28T14:34:22Z</time>
      </trkpt>
      <trkpt lat="44.9462700" lon="6.8266530">
        <ele>1830.2</ele>
        <time>2017-07-28T14:34:24Z</time>
      </trkpt>
      <trkpt lat="44.9463240" lon="6.8267270">
        <ele>1831.0</ele>
        <time>2017-07-28T14:34:28Z</time>
      </trkpt>
      <trkpt lat="44.9463400" lon="6.8267470">
        <ele>1831.6</ele>
        <time>2017-07-28T14:34:29Z</time>
      </trkpt>
      <trkpt lat="44.9463890" lon="6.8268240">
        <ele>1833.0</ele>
        <time>2017-07-28T14:34:33Z</time>
      </trkpt>
      <trkpt lat="44.9464210" lon="6.8268930">
        <ele>1834.4</ele>
        <time>2017-07-28T14:34:36Z</time>
      </trkpt>
      <trkpt lat="44.9464250" lon="6.8269240">
        <ele>1834.8</ele>
        <time>2017-07-28T14:34:37Z</time>
      </trkpt>
      <trkpt lat="44.9464420" lon="6.8269720">
        <ele>1835.8</ele>
        <time>2017-07-28T14:34:39Z</time>
      </trkpt>
      <trkpt lat="44.9464740" lon="6.8270260">
        <ele>1837.2</ele>
        <time>2017-07-28T14:34:42Z</time>
      </trkpt>
      <trkpt lat="44.9464930" lon="6.8270330">
        <ele>1837.4</ele>
        <time>2017-07-28T14:34:43Z</time>
      </trkpt>
      <trkpt lat="44.9465550" lon="6.8269670">
        <ele>1838.0</ele>
        <time>2017-07-28T14:34:48Z</time>
      </trkpt>
      <trkpt lat="44.9465490" lon="6.8269090">
        <ele>1838.4</ele>
        <time>2017-07-28T14:34:50Z</time>
      </trkpt>
      <trkpt lat="44.9465370" lon="6.8267960">
        <ele>1839.4</ele>
        <time>2017-07-28T14:34:54Z</time>
      </trkpt>
      <trkpt lat="44.9465360" lon="6.8267380">
        <ele>1839.6</ele>
        <time>2017-07-28T14:34:56Z</time>
      </trkpt>
      <trkpt lat="44.9465240" lon="6.8265680">
        <ele>1840.4</ele>
        <time>2017-07-28T14:35:03Z</time>
      </trkpt>
      <trkpt lat="44.9465150" lon="6.8265110">
        <ele>1840.6</ele>
        <time>2017-07-28T14:35:05Z</time>
      </trkpt>
      <trkpt lat="44.9464490" lon="6.8263550">
        <ele>1841.2</ele>
        <time>2017-07-28T14:35:12Z</time>
      </trkpt>
      <trkpt lat="44.9464180" lon="6.8263150">
        <ele>1841.6</ele>
        <time>2017-07-28T14:35:14Z</time>
      </trkpt>
      <trkpt lat="44.9463310" lon="6.8262100">
        <ele>1842.6</ele>
        <time>2017-07-28T14:35:19Z</time>
      </trkpt>
      <trkpt lat="44.9462010" lon="6.8260850">
        <ele>1843.6</ele>
        <time>2017-07-28T14:35:26Z</time>
      </trkpt>
      <trkpt lat="44.9461830" lon="6.8260700">
        <ele>1843.8</ele>
        <time>2017-07-28T14:35:27Z</time>
      </trkpt>
      <trkpt lat="44.9461170" lon="6.8260110">
        <ele>1845.0</ele>
        <time>2017-07-28T14:35:31Z</time>
      </trkpt>
      <trkpt lat="44.9460680" lon="6.8259640">
        <ele>1846.4</ele>
        <time>2017-07-28T14:35:34Z</time>
      </trkpt>
      <trkpt lat="44.9460350" lon="6.8259430">
        <ele>1846.8</ele>
        <time>2017-07-28T14:35:36Z</time>
      </trkpt>
      <trkpt lat="44.9460230" lon="6.8259230">
        <ele>1847.2</ele>
        <time>2017-07-28T14:35:37Z</time>
      </trkpt>
      <trkpt lat="44.9460160" lon="6.8259010">
        <ele>1847.4</ele>
        <time>2017-07-28T14:35:38Z</time>
      </trkpt>
      <trkpt lat="44.9460230" lon="6.8258570">
        <ele>1847.8</ele>
        <time>2017-07-28T14:35:40Z</time>
      </trkpt>
      <trkpt lat="44.9460400" lon="6.8258350">
        <ele>1848.4</ele>
        <time>2017-07-28T14:35:42Z</time>
      </trkpt>
      <trkpt lat="44.9460760" lon="6.8258520">
        <ele>1848.8</ele>
        <time>2017-07-28T14:35:44Z</time>
      </trkpt>
      <trkpt lat="44.9460920" lon="6.8258680">
        <ele>1848.8</ele>
        <time>2017-07-28T14:35:45Z</time>
      </trkpt>
      <trkpt lat="44.9461880" lon="6.8259730">
        <ele>1849.4</ele>
        <time>2017-07-28T14:35:51Z</time>
      </trkpt>
      <trkpt lat="44.9462080" lon="6.8259850">
        <ele>1849.6</ele>
        <time>2017-07-28T14:35:52Z</time>
      </trkpt>
      <trkpt lat="44.9463410" lon="6.8260260">
        <ele>1849.6</ele>
        <time>2017-07-28T14:35:59Z</time>
      </trkpt>
      <trkpt lat="44.9463580" lon="6.8260370">
        <ele>1848.4</ele>
        <time>2017-07-28T14:36:00Z</time>
      </trkpt>
      <trkpt lat="44.9463930" lon="6.8260510">
        <ele>1849.4</ele>
        <time>2017-07-28T14:36:02Z</time>
      </trkpt>
      <trkpt lat="44.9464110" lon="6.8260580">
        <ele>1851.4</ele>
        <time>2017-07-28T14:36:03Z</time>
      </trkpt>
      <trkpt lat="44.9464300" lon="6.8260640">
        <ele>1852.8</ele>
        <time>2017-07-28T14:36:04Z</time>
      </trkpt>
      <trkpt lat="44.9464620" lon="6.8260830">
        <ele>1854.0</ele>
        <time>2017-07-28T14:36:06Z</time>
      </trkpt>
      <trkpt lat="44.9464780" lon="6.8260930">
        <ele>1854.2</ele>
        <time>2017-07-28T14:36:07Z</time>
      </trkpt>
      <trkpt lat="44.9465290" lon="6.8261350">
        <ele>1855.2</ele>
        <time>2017-07-28T14:36:10Z</time>
      </trkpt>
      <trkpt lat="44.9465870" lon="6.8261900">
        <ele>1855.6</ele>
        <time>2017-07-28T14:36:14Z</time>
      </trkpt>
      <trkpt lat="44.9466510" lon="6.8262580">
        <ele>1856.0</ele>
        <time>2017-07-28T14:36:19Z</time>
      </trkpt>
      <trkpt lat="44.9466690" lon="6.8262540">
        <ele>1856.0</ele>
        <time>2017-07-28T14:36:20Z</time>
      </trkpt>
      <trkpt lat="44.9466830" lon="6.8262410">
        <ele>1856.2</ele>
        <time>2017-07-28T14:36:21Z</time>
      </trkpt>
      <trkpt lat="44.9466800" lon="6.8261810">
        <ele>1856.2</ele>
        <time>2017-07-28T14:36:24Z</time>
      </trkpt>
      <trkpt lat="44.9466550" lon="6.8261500">
        <ele>1856.6</ele>
        <time>2017-07-28T14:36:26Z</time>
      </trkpt>
      <trkpt lat="44.9465800" lon="6.8260680">
        <ele>1857.2</ele>
        <time>2017-07-28T14:36:31Z</time>
      </trkpt>
      <trkpt lat="44.9465580" lon="6.8259720">
        <ele>1858.2</ele>
        <time>2017-07-28T14:36:36Z</time>
      </trkpt>
      <trkpt lat="44.9465740" lon="6.8259640">
        <ele>1858.6</ele>
        <time>2017-07-28T14:36:37Z</time>
      </trkpt>
      <trkpt lat="44.9466410" lon="6.8260190">
        <ele>1860.0</ele>
        <time>2017-07-28T14:36:41Z</time>
      </trkpt>
      <trkpt lat="44.9466610" lon="6.8260350">
        <ele>1860.4</ele>
        <time>2017-07-28T14:36:42Z</time>
      </trkpt>
      <trkpt lat="44.9467030" lon="6.8260710">
        <ele>1861.0</ele>
        <time>2017-07-28T14:36:44Z</time>
      </trkpt>
      <trkpt lat="44.9467730" lon="6.8261410">
        <ele>1862.4</ele>
        <time>2017-07-28T14:36:48Z</time>
      </trkpt>
      <trkpt lat="44.9467870" lon="6.8261610">
        <ele>1862.6</ele>
        <time>2017-07-28T14:36:49Z</time>
      </trkpt>
      <trkpt lat="44.9468380" lon="6.8262240">
        <ele>1863.8</ele>
        <time>2017-07-28T14:36:52Z</time>
      </trkpt>
      <trkpt lat="44.9468950" lon="6.8262310">
        <ele>1864.6</ele>
        <time>2017-07-28T14:36:55Z</time>
      </trkpt>
      <trkpt lat="44.9468990" lon="6.8261830">
        <ele>1864.8</ele>
        <time>2017-07-28T14:36:57Z</time>
      </trkpt>
      <trkpt lat="44.9468920" lon="6.8261540">
        <ele>1865.0</ele>
        <time>2017-07-28T14:36:58Z</time>
      </trkpt>
      <trkpt lat="44.9468560" lon="6.8260820">
        <ele>1865.4</ele>
        <time>2017-07-28T14:37:01Z</time>
      </trkpt>
      <trkpt lat="44.9468210" lon="6.8260100">
        <ele>1865.4</ele>
        <time>2017-07-28T14:37:04Z</time>
      </trkpt>
      <trkpt lat="44.9467720" lon="6.8258900">
        <ele>1865.8</ele>
        <time>2017-07-28T14:37:09Z</time>
      </trkpt>
      <trkpt lat="44.9467660" lon="6.8258340">
        <ele>1866.8</ele>
        <time>2017-07-28T14:37:11Z</time>
      </trkpt>
      <trkpt lat="44.9468120" lon="6.8257430">
        <ele>1867.8</ele>
        <time>2017-07-28T14:37:15Z</time>
      </trkpt>
      <trkpt lat="44.9468300" lon="6.8257270">
        <ele>1868.0</ele>
        <time>2017-07-28T14:37:16Z</time>
      </trkpt>
      <trkpt lat="44.9468660" lon="6.8257000">
        <ele>1869.2</ele>
        <time>2017-07-28T14:37:18Z</time>
      </trkpt>
      <trkpt lat="44.9469470" lon="6.8256240">
        <ele>1870.0</ele>
        <time>2017-07-28T14:37:23Z</time>
      </trkpt>
      <trkpt lat="44.9469750" lon="6.8255830">
        <ele>1870.2</ele>
        <time>2017-07-28T14:37:25Z</time>
      </trkpt>
      <trkpt lat="44.9470190" lon="6.8254710">
        <ele>1870.8</ele>
        <time>2017-07-28T14:37:30Z</time>
      </trkpt>
      <trkpt lat="44.9470390" lon="6.8253930">
        <ele>1871.2</ele>
        <time>2017-07-28T14:37:33Z</time>
      </trkpt>
      <trkpt lat="44.9470640" lon="6.8253050">
        <ele>1871.4</ele>
        <time>2017-07-28T14:37:37Z</time>
      </trkpt>
      <trkpt lat="44.9471170" lon="6.8251840">
        <ele>1872.4</ele>
        <time>2017-07-28T14:37:43Z</time>
      </trkpt>
      <trkpt lat="44.9471290" lon="6.8251660">
        <ele>1872.4</ele>
        <time>2017-07-28T14:37:44Z</time>
      </trkpt>
      <trkpt lat="44.9472220" lon="6.8251120">
        <ele>1872.8</ele>
        <time>2017-07-28T14:37:50Z</time>
      </trkpt>
      <trkpt lat="44.9473510" lon="6.8251530">
        <ele>1873.4</ele>
        <time>2017-07-28T14:37:56Z</time>
      </trkpt>
      <trkpt lat="44.9473710" lon="6.8251650">
        <ele>1873.4</ele>
        <time>2017-07-28T14:37:57Z</time>
      </trkpt>
      <trkpt lat="44.9474360" lon="6.8252020">
        <ele>1874.6</ele>
        <time>2017-07-28T14:38:00Z</time>
      </trkpt>
      <trkpt lat="44.9475080" lon="6.8252150">
        <ele>1875.6</ele>
        <time>2017-07-28T14:38:03Z</time>
      </trkpt>
      <trkpt lat="44.9475330" lon="6.8252220">
        <ele>1876.0</ele>
        <time>2017-07-28T14:38:04Z</time>
      </trkpt>
      <trkpt lat="44.9476260" lon="6.8252380">
        <ele>1877.0</ele>
        <time>2017-07-28T14:38:08Z</time>
      </trkpt>
      <trkpt lat="44.9476860" lon="6.8252320">
        <ele>1878.0</ele>
        <time>2017-07-28T14:38:11Z</time>
      </trkpt>
      <trkpt lat="44.9477240" lon="6.8252240">
        <ele>1878.0</ele>
        <time>2017-07-28T14:38:13Z</time>
      </trkpt>
      <trkpt lat="44.9478580" lon="6.8251830">
        <ele>1879.0</ele>
        <time>2017-07-28T14:38:20Z</time>
      </trkpt>
      <trkpt lat="44.9480310" lon="6.8251640">
        <ele>1879.8</ele>
        <time>2017-07-28T14:38:29Z</time>
      </trkpt>
      <trkpt lat="44.9480660" lon="6.8251580">
        <ele>1880.0</ele>
        <time>2017-07-28T14:38:31Z</time>
      </trkpt>
      <trkpt lat="44.9482010" lon="6.8251420">
        <ele>1881.0</ele>
        <time>2017-07-28T14:38:38Z</time>
      </trkpt>
      <trkpt lat="44.9482450" lon="6.8251470">
        <ele>1881.2</ele>
        <time>2017-07-28T14:38:40Z</time>
      </trkpt>
      <trkpt lat="44.9483120" lon="6.8251590">
        <ele>1882.2</ele>
        <time>2017-07-28T14:38:43Z</time>
      </trkpt>
      <trkpt lat="44.9483560" lon="6.8251570">
        <ele>1883.2</ele>
        <time>2017-07-28T14:38:45Z</time>
      </trkpt>
      <trkpt lat="44.9483790" lon="6.8251600">
        <ele>1883.8</ele>
        <time>2017-07-28T14:38:46Z</time>
      </trkpt>
      <trkpt lat="44.9484510" lon="6.8251620">
        <ele>1885.2</ele>
        <time>2017-07-28T14:38:49Z</time>
      </trkpt>
      <trkpt lat="44.9485030" lon="6.8251620">
        <ele>1886.2</ele>
        <time>2017-07-28T14:38:51Z</time>
      </trkpt>
      <trkpt lat="44.9485580" lon="6.8251590">
        <ele>1887.2</ele>
        <time>2017-07-28T14:38:53Z</time>
      </trkpt>
      <trkpt lat="44.9486320" lon="6.8251540">
        <ele>1885.2</ele>
        <time>2017-07-28T14:38:56Z</time>
      </trkpt>
      <trkpt lat="44.9486570" lon="6.8251530">
        <ele>1886.6</ele>
        <time>2017-07-28T14:38:57Z</time>
      </trkpt>
      <trkpt lat="44.9487080" lon="6.8251450">
        <ele>1889.4</ele>
        <time>2017-07-28T14:38:59Z</time>
      </trkpt>
      <trkpt lat="44.9487590" lon="6.8251350">
        <ele>1890.2</ele>
        <time>2017-07-28T14:39:01Z</time>
      </trkpt>
      <trkpt lat="44.9487880" lon="6.8251310">
        <ele>1890.4</ele>
        <time>2017-07-28T14:39:02Z</time>
      </trkpt>
      <trkpt lat="44.9489460" lon="6.8251330">
        <ele>1891.4</ele>
        <time>2017-07-28T14:39:07Z</time>
      </trkpt>
      <trkpt lat="44.9491110" lon="6.8251510">
        <ele>1892.8</ele>
        <time>2017-07-28T14:39:12Z</time>
      </trkpt>
      <trkpt lat="44.9491830" lon="6.8251630">
        <ele>1893.4</ele>
        <time>2017-07-28T14:39:14Z</time>
      </trkpt>
      <trkpt lat="44.9492210" lon="6.8251700">
        <ele>1893.8</ele>
        <time>2017-07-28T14:39:15Z</time>
      </trkpt>
      <trkpt lat="44.9493570" lon="6.8252140">
        <ele>1894.8</ele>
        <time>2017-07-28T14:39:19Z</time>
      </trkpt>
      <trkpt lat="44.9494680" lon="6.8252470">
        <ele>1895.8</ele>
        <time>2017-07-28T14:39:22Z</time>
      </trkpt>
      <trkpt lat="44.9495020" lon="6.8252570">
        <ele>1896.0</ele>
        <time>2017-07-28T14:39:23Z</time>
      </trkpt>
      <trkpt lat="44.9496600" lon="6.8253220">
        <ele>1897.4</ele>
        <time>2017-07-28T14:39:28Z</time>
      </trkpt>
      <trkpt lat="44.9497820" lon="6.8253910">
        <ele>1898.4</ele>
        <time>2017-07-28T14:39:32Z</time>
      </trkpt>
      <trkpt lat="44.9498830" lon="6.8254370">
        <ele>1899.4</ele>
        <time>2017-07-28T14:39:36Z</time>
      </trkpt>
      <trkpt lat="44.9499090" lon="6.8254440">
        <ele>1899.8</ele>
        <time>2017-07-28T14:39:37Z</time>
      </trkpt>
      <trkpt lat="44.9499860" lon="6.8254850">
        <ele>1901.0</ele>
        <time>2017-07-28T14:39:41Z</time>
      </trkpt>
      <trkpt lat="44.9500010" lon="6.8254990">
        <ele>1901.4</ele>
        <time>2017-07-28T14:39:42Z</time>
      </trkpt>
      <trkpt lat="44.9500530" lon="6.8255430">
        <ele>1902.2</ele>
        <time>2017-07-28T14:39:45Z</time>
      </trkpt>
      <trkpt lat="44.9501390" lon="6.8255920">
        <ele>1902.2</ele>
        <time>2017-07-28T14:39:49Z</time>
      </trkpt>
      <trkpt lat="44.9503140" lon="6.8256410">
        <ele>1901.6</ele>
        <time>2017-07-28T14:39:57Z</time>
      </trkpt>
      <trkpt lat="44.9504440" lon="6.8256770">
        <ele>1901.8</ele>
        <time>2017-07-28T14:40:03Z</time>
      </trkpt>
      <trkpt lat="44.9506170" lon="6.8257450">
        <ele>1903.0</ele>
        <time>2017-07-28T14:40:11Z</time>
      </trkpt>
      <trkpt lat="44.9506540" lon="6.8257620">
        <ele>1903.2</ele>
        <time>2017-07-28T14:40:13Z</time>
      </trkpt>
      <trkpt lat="44.9507300" lon="6.8258360">
        <ele>1903.8</ele>
        <time>2017-07-28T14:40:17Z</time>
      </trkpt>
      <trkpt lat="44.9507840" lon="6.8259160">
        <ele>1904.2</ele>
        <time>2017-07-28T14:40:21Z</time>
      </trkpt>
      <trkpt lat="44.9508140" lon="6.8259780">
        <ele>1905.0</ele>
        <time>2017-07-28T14:40:24Z</time>
      </trkpt>
      <trkpt lat="44.9508260" lon="6.8260050">
        <ele>1905.4</ele>
        <time>2017-07-28T14:40:25Z</time>
      </trkpt>
      <trkpt lat="44.9508510" lon="6.8260830">
        <ele>1906.6</ele>
        <time>2017-07-28T14:40:28Z</time>
      </trkpt>
      <trkpt lat="44.9508560" lon="6.8261330">
        <ele>1907.8</ele>
        <time>2017-07-28T14:40:30Z</time>
      </trkpt>
      <trkpt lat="44.9508570" lon="6.8261560">
        <ele>1908.2</ele>
        <time>2017-07-28T14:40:31Z</time>
      </trkpt>
      <trkpt lat="44.9508620" lon="6.8262060">
        <ele>1908.8</ele>
        <time>2017-07-28T14:40:33Z</time>
      </trkpt>
      <trkpt lat="44.9508490" lon="6.8263350">
        <ele>1910.0</ele>
        <time>2017-07-28T14:40:38Z</time>
      </trkpt>
      <trkpt lat="44.9508540" lon="6.8264850">
        <ele>1911.0</ele>
        <time>2017-07-28T14:40:44Z</time>
      </trkpt>
      <trkpt lat="44.9508590" lon="6.8265100">
        <ele>1911.4</ele>
        <time>2017-07-28T14:40:45Z</time>
      </trkpt>
      <trkpt lat="44.9508710" lon="6.8265630">
        <ele>1912.0</ele>
        <time>2017-07-28T14:40:47Z</time>
      </trkpt>
      <trkpt lat="44.9508710" lon="6.8266610">
        <ele>1913.0</ele>
        <time>2017-07-28T14:40:51Z</time>
      </trkpt>
      <trkpt lat="44.9508690" lon="6.8267130">
        <ele>1913.6</ele>
        <time>2017-07-28T14:40:53Z</time>
      </trkpt>
      <trkpt lat="44.9508660" lon="6.8267400">
        <ele>1914.0</ele>
        <time>2017-07-28T14:40:54Z</time>
      </trkpt>
      <trkpt lat="44.9508320" lon="6.8269090">
        <ele>1914.8</ele>
        <time>2017-07-28T14:41:01Z</time>
      </trkpt>
      <trkpt lat="44.9507700" lon="6.8270250">
        <ele>1915.2</ele>
        <time>2017-07-28T14:41:06Z</time>
      </trkpt>
      <trkpt lat="44.9507370" lon="6.8270750">
        <ele>1916.0</ele>
        <time>2017-07-28T14:41:08Z</time>
      </trkpt>
      <trkpt lat="44.9507230" lon="6.8270990">
        <ele>1916.4</ele>
        <time>2017-07-28T14:41:09Z</time>
      </trkpt>
      <trkpt lat="44.9506750" lon="6.8271590">
        <ele>1917.8</ele>
        <time>2017-07-28T14:41:12Z</time>
      </trkpt>
      <trkpt lat="44.9506440" lon="6.8271960">
        <ele>1918.6</ele>
        <time>2017-07-28T14:41:14Z</time>
      </trkpt>
      <trkpt lat="44.9506320" lon="6.8272180">
        <ele>1919.0</ele>
        <time>2017-07-28T14:41:15Z</time>
      </trkpt>
      <trkpt lat="44.9506050" lon="6.8272660">
        <ele>1920.2</ele>
        <time>2017-07-28T14:41:17Z</time>
      </trkpt>
      <trkpt lat="44.9505710" lon="6.8273120">
        <ele>1921.2</ele>
        <time>2017-07-28T14:41:19Z</time>
      </trkpt>
      <trkpt lat="44.9505540" lon="6.8273330">
        <ele>1921.6</ele>
        <time>2017-07-28T14:41:20Z</time>
      </trkpt>
      <trkpt lat="44.9505100" lon="6.8274360">
        <ele>1922.2</ele>
        <time>2017-07-28T14:41:24Z</time>
      </trkpt>
      <trkpt lat="44.9504930" lon="6.8274590">
        <ele>1922.6</ele>
        <time>2017-07-28T14:41:25Z</time>
      </trkpt>
      <trkpt lat="44.9504360" lon="6.8275310">
        <ele>1923.4</ele>
        <time>2017-07-28T14:41:28Z</time>
      </trkpt>
      <trkpt lat="44.9503860" lon="6.8276360">
        <ele>1924.2</ele>
        <time>2017-07-28T14:41:32Z</time>
      </trkpt>
      <trkpt lat="44.9503710" lon="6.8276610">
        <ele>1924.6</ele>
        <time>2017-07-28T14:41:33Z</time>
      </trkpt>
      <trkpt lat="44.9503180" lon="6.8277640">
        <ele>1925.8</ele>
        <time>2017-07-28T14:41:37Z</time>
      </trkpt>
      <trkpt lat="44.9502900" lon="6.8278470">
        <ele>1926.4</ele>
        <time>2017-07-28T14:41:40Z</time>
      </trkpt>
      <trkpt lat="44.9502830" lon="6.8279170">
        <ele>1926.8</ele>
        <time>2017-07-28T14:41:42Z</time>
      </trkpt>
      <trkpt lat="44.9502570" lon="6.8280380">
        <ele>1927.4</ele>
        <time>2017-07-28T14:41:46Z</time>
      </trkpt>
      <trkpt lat="44.9502400" lon="6.8281340">
        <ele>1928.0</ele>
        <time>2017-07-28T14:41:49Z</time>
      </trkpt>
      <trkpt lat="44.9502200" lon="6.8282560">
        <ele>1928.6</ele>
        <time>2017-07-28T14:41:53Z</time>
      </trkpt>
      <trkpt lat="44.9502150" lon="6.8283470">
        <ele>1929.0</ele>
        <time>2017-07-28T14:41:56Z</time>
      </trkpt>
      <trkpt lat="44.9502170" lon="6.8284540">
        <ele>1930.2</ele>
        <time>2017-07-28T14:42:00Z</time>
      </trkpt>
      <trkpt lat="44.9502370" lon="6.8285660">
        <ele>1931.4</ele>
        <time>2017-07-28T14:42:04Z</time>
      </trkpt>
      <trkpt lat="44.9502580" lon="6.8286400">
        <ele>1932.2</ele>
        <time>2017-07-28T14:42:07Z</time>
      </trkpt>
      <trkpt lat="44.9502650" lon="6.8286670">
        <ele>1932.6</ele>
        <time>2017-07-28T14:42:08Z</time>
      </trkpt>
      <trkpt lat="44.9503080" lon="6.8287700">
        <ele>1933.6</ele>
        <time>2017-07-28T14:42:12Z</time>
      </trkpt>
      <trkpt lat="44.9503310" lon="6.8288210">
        <ele>1934.0</ele>
        <time>2017-07-28T14:42:14Z</time>
      </trkpt>
      <trkpt lat="44.9503600" lon="6.8289320">
        <ele>1934.8</ele>
        <time>2017-07-28T14:42:18Z</time>
      </trkpt>
      <trkpt lat="44.9503990" lon="6.8290470">
        <ele>1935.6</ele>
        <time>2017-07-28T14:42:22Z</time>
      </trkpt>
      <trkpt lat="44.9504210" lon="6.8291010">
        <ele>1936.0</ele>
        <time>2017-07-28T14:42:24Z</time>
      </trkpt>
      <trkpt lat="44.9504650" lon="6.8292410">
        <ele>1937.2</ele>
        <time>2017-07-28T14:42:29Z</time>
      </trkpt>
      <trkpt lat="44.9504880" lon="6.8293200">
        <ele>1938.2</ele>
        <time>2017-07-28T14:42:32Z</time>
      </trkpt>
      <trkpt lat="44.9505210" lon="6.8294500">
        <ele>1939.4</ele>
        <time>2017-07-28T14:42:37Z</time>
      </trkpt>
      <trkpt lat="44.9505260" lon="6.8294770">
        <ele>1939.4</ele>
        <time>2017-07-28T14:42:38Z</time>
      </trkpt>
      <trkpt lat="44.9505310" lon="6.8295740">
        <ele>1940.4</ele>
        <time>2017-07-28T14:42:42Z</time>
      </trkpt>
      <trkpt lat="44.9505510" lon="6.8296430">
        <ele>1940.8</ele>
        <time>2017-07-28T14:42:45Z</time>
      </trkpt>
      <trkpt lat="44.9505590" lon="6.8297470">
        <ele>1941.4</ele>
        <time>2017-07-28T14:42:49Z</time>
      </trkpt>
      <trkpt lat="44.9505780" lon="6.8298240">
        <ele>1942.0</ele>
        <time>2017-07-28T14:42:52Z</time>
      </trkpt>
      <trkpt lat="44.9505830" lon="6.8298980">
        <ele>1943.0</ele>
        <time>2017-07-28T14:42:55Z</time>
      </trkpt>
      <trkpt lat="44.9505810" lon="6.8299960">
        <ele>1943.6</ele>
        <time>2017-07-28T14:42:59Z</time>
      </trkpt>
      <trkpt lat="44.9506010" lon="6.8301240">
        <ele>1944.0</ele>
        <time>2017-07-28T14:43:05Z</time>
      </trkpt>
      <trkpt lat="44.9506250" lon="6.8302130">
        <ele>1945.0</ele>
        <time>2017-07-28T14:43:10Z</time>
      </trkpt>
      <trkpt lat="44.9506290" lon="6.8302320">
        <ele>1945.0</ele>
        <time>2017-07-28T14:43:11Z</time>
      </trkpt>
      <trkpt lat="44.9506270" lon="6.8302940">
        <ele>1945.2</ele>
        <time>2017-07-28T14:43:14Z</time>
      </trkpt>
      <trkpt lat="44.9506530" lon="6.8303490">
        <ele>1945.8</ele>
        <time>2017-07-28T14:43:17Z</time>
      </trkpt>
      <trkpt lat="44.9506730" lon="6.8303830">
        <ele>1946.0</ele>
        <time>2017-07-28T14:43:19Z</time>
      </trkpt>
      <trkpt lat="44.9507310" lon="6.8304720">
        <ele>1946.4</ele>
        <time>2017-07-28T14:43:24Z</time>
      </trkpt>
      <trkpt lat="44.9507460" lon="6.8305160">
        <ele>1947.2</ele>
        <time>2017-07-28T14:43:26Z</time>
      </trkpt>
      <trkpt lat="44.9508000" lon="6.8305770">
        <ele>1947.6</ele>
        <time>2017-07-28T14:43:30Z</time>
      </trkpt>
      <trkpt lat="44.9508510" lon="6.8306370">
        <ele>1948.2</ele>
        <time>2017-07-28T14:43:33Z</time>
      </trkpt>
      <trkpt lat="44.9509200" lon="6.8307550">
        <ele>1949.2</ele>
        <time>2017-07-28T14:43:37Z</time>
      </trkpt>
      <trkpt lat="44.9509800" lon="6.8308820">
        <ele>1949.2</ele>
        <time>2017-07-28T14:43:41Z</time>
      </trkpt>
      <trkpt lat="44.9509950" lon="6.8309130">
        <ele>1950.6</ele>
        <time>2017-07-28T14:43:42Z</time>
      </trkpt>
      <trkpt lat="44.9510360" lon="6.8310150">
        <ele>1951.8</ele>
        <time>2017-07-28T14:43:45Z</time>
      </trkpt>
      <trkpt lat="44.9510910" lon="6.8311390">
        <ele>1953.0</ele>
        <time>2017-07-28T14:43:49Z</time>
      </trkpt>
      <trkpt lat="44.9511290" lon="6.8312550">
        <ele>1954.4</ele>
        <time>2017-07-28T14:43:53Z</time>
      </trkpt>
      <trkpt lat="44.9511570" lon="6.8313810">
        <ele>1955.8</ele>
        <time>2017-07-28T14:43:57Z</time>
      </trkpt>
      <trkpt lat="44.9511800" lon="6.8314730">
        <ele>1956.6</ele>
        <time>2017-07-28T14:44:00Z</time>
      </trkpt>
      <trkpt lat="44.9511830" lon="6.8315070">
        <ele>1957.0</ele>
        <time>2017-07-28T14:44:01Z</time>
      </trkpt>
      <trkpt lat="44.9511970" lon="6.8315900">
        <ele>1958.0</ele>
        <time>2017-07-28T14:44:04Z</time>
      </trkpt>
      <trkpt lat="44.9512010" lon="6.8316140">
        <ele>1958.2</ele>
        <time>2017-07-28T14:44:05Z</time>
      </trkpt>
      <trkpt lat="44.9512110" lon="6.8316630">
        <ele>1959.2</ele>
        <time>2017-07-28T14:44:07Z</time>
      </trkpt>
      <trkpt lat="44.9512250" lon="6.8317380">
        <ele>1960.4</ele>
        <time>2017-07-28T14:44:10Z</time>
      </trkpt>
      <trkpt lat="44.9512280" lon="6.8318100">
        <ele>1960.8</ele>
        <time>2017-07-28T14:44:13Z</time>
      </trkpt>
      <trkpt lat="44.9512470" lon="6.8318480">
        <ele>1961.4</ele>
        <time>2017-07-28T14:44:15Z</time>
      </trkpt>
      <trkpt lat="44.9512880" lon="6.8319260">
        <ele>1961.8</ele>
        <time>2017-07-28T14:44:19Z</time>
      </trkpt>
      <trkpt lat="44.9513040" lon="6.8320070">
        <ele>1962.4</ele>
        <time>2017-07-28T14:44:23Z</time>
      </trkpt>
      <trkpt lat="44.9513190" lon="6.8320480">
        <ele>1963.0</ele>
        <time>2017-07-28T14:44:25Z</time>
      </trkpt>
      <trkpt lat="44.9513380" lon="6.8321170">
        <ele>1963.4</ele>
        <time>2017-07-28T14:44:28Z</time>
      </trkpt>
      <trkpt lat="44.9513570" lon="6.8321880">
        <ele>1964.4</ele>
        <time>2017-07-28T14:44:32Z</time>
      </trkpt>
      <trkpt lat="44.9513650" lon="6.8322070">
        <ele>1964.6</ele>
        <time>2017-07-28T14:44:33Z</time>
      </trkpt>
      <trkpt lat="44.9513930" lon="6.8323130">
        <ele>1965.8</ele>
        <time>2017-07-28T14:44:38Z</time>
      </trkpt>
      <trkpt lat="44.9514140" lon="6.8323750">
        <ele>1966.4</ele>
        <time>2017-07-28T14:44:41Z</time>
      </trkpt>
      <trkpt lat="44.9514270" lon="6.8324140">
        <ele>1967.0</ele>
        <time>2017-07-28T14:44:43Z</time>
      </trkpt>
      <trkpt lat="44.9514650" lon="6.8325140">
        <ele>1968.0</ele>
        <time>2017-07-28T14:44:48Z</time>
      </trkpt>
      <trkpt lat="44.9514710" lon="6.8325340">
        <ele>1968.2</ele>
        <time>2017-07-28T14:44:49Z</time>
      </trkpt>
      <trkpt lat="44.9514980" lon="6.8325940">
        <ele>1969.0</ele>
        <time>2017-07-28T14:44:52Z</time>
      </trkpt>
      <trkpt lat="44.9515260" lon="6.8326770">
        <ele>1970.2</ele>
        <time>2017-07-28T14:44:56Z</time>
      </trkpt>
      <trkpt lat="44.9515510" lon="6.8327840">
        <ele>1971.2</ele>
        <time>2017-07-28T14:45:01Z</time>
      </trkpt>
      <trkpt lat="44.9515580" lon="6.8328050">
        <ele>1971.6</ele>
        <time>2017-07-28T14:45:02Z</time>
      </trkpt>
      <trkpt lat="44.9515760" lon="6.8329000">
        <ele>1972.6</ele>
        <time>2017-07-28T14:45:06Z</time>
      </trkpt>
      <trkpt lat="44.9516010" lon="6.8329930">
        <ele>1973.6</ele>
        <time>2017-07-28T14:45:10Z</time>
      </trkpt>
      <trkpt lat="44.9516390" lon="6.8330880">
        <ele>1974.8</ele>
        <time>2017-07-28T14:45:15Z</time>
      </trkpt>
      <trkpt lat="44.9516460" lon="6.8331300">
        <ele>1975.0</ele>
        <time>2017-07-28T14:45:17Z</time>
      </trkpt>
      <trkpt lat="44.9516760" lon="6.8332540">
        <ele>1975.8</ele>
        <time>2017-07-28T14:45:22Z</time>
      </trkpt>
      <trkpt lat="44.9517040" lon="6.8333240">
        <ele>1976.2</ele>
        <time>2017-07-28T14:45:25Z</time>
      </trkpt>
      <trkpt lat="44.9517500" lon="6.8334460">
        <ele>1977.0</ele>
        <time>2017-07-28T14:45:30Z</time>
      </trkpt>
      <trkpt lat="44.9517830" lon="6.8335390">
        <ele>1977.8</ele>
        <time>2017-07-28T14:45:34Z</time>
      </trkpt>
      <trkpt lat="44.9517910" lon="6.8335600">
        <ele>1978.0</ele>
        <time>2017-07-28T14:45:35Z</time>
      </trkpt>
      <trkpt lat="44.9518380" lon="6.8336710">
        <ele>1978.6</ele>
        <time>2017-07-28T14:45:39Z</time>
      </trkpt>
      <trkpt lat="44.9518600" lon="6.8337280">
        <ele>1978.8</ele>
        <time>2017-07-28T14:45:41Z</time>
      </trkpt>
      <trkpt lat="44.9518710" lon="6.8337570">
        <ele>1979.0</ele>
        <time>2017-07-28T14:45:42Z</time>
      </trkpt>
      <trkpt lat="44.9519090" lon="6.8338650">
        <ele>1980.0</ele>
        <time>2017-07-28T14:45:46Z</time>
      </trkpt>
      <trkpt lat="44.9519220" lon="6.8339210">
        <ele>1980.4</ele>
        <time>2017-07-28T14:45:48Z</time>
      </trkpt>
      <trkpt lat="44.9519550" lon="6.8339970">
        <ele>1981.2</ele>
        <time>2017-07-28T14:45:51Z</time>
      </trkpt>
      <trkpt lat="44.9520020" lon="6.8340900">
        <ele>1982.2</ele>
        <time>2017-07-28T14:45:55Z</time>
      </trkpt>
      <trkpt lat="44.9520100" lon="6.8341120">
        <ele>1982.6</ele>
        <time>2017-07-28T14:45:56Z</time>
      </trkpt>
      <trkpt lat="44.9520280" lon="6.8341810">
        <ele>1983.4</ele>
        <time>2017-07-28T14:45:59Z</time>
      </trkpt>
      <trkpt lat="44.9520490" lon="6.8342460">
        <ele>1984.2</ele>
        <time>2017-07-28T14:46:02Z</time>
      </trkpt>
      <trkpt lat="44.9520570" lon="6.8342810">
        <ele>1984.6</ele>
        <time>2017-07-28T14:46:04Z</time>
      </trkpt>
      <trkpt lat="44.9520870" lon="6.8343740">
        <ele>1985.6</ele>
        <time>2017-07-28T14:46:10Z</time>
      </trkpt>
      <trkpt lat="44.9521230" lon="6.8344740">
        <ele>1986.6</ele>
        <time>2017-07-28T14:46:16Z</time>
      </trkpt>
      <trkpt lat="44.9521260" lon="6.8344930">
        <ele>1986.8</ele>
        <time>2017-07-28T14:46:17Z</time>
      </trkpt>
      <trkpt lat="44.9521600" lon="6.8345540">
        <ele>1987.8</ele>
        <time>2017-07-28T14:46:21Z</time>
      </trkpt>
      <trkpt lat="44.9521640" lon="6.8345660">
        <ele>1988.0</ele>
        <time>2017-07-28T14:46:22Z</time>
      </trkpt>
      <trkpt lat="44.9528090" lon="6.8348060">
        <ele>2000.8</ele>
        <time>2017-07-28T14:48:01Z</time>
      </trkpt>
      <trkpt lat="44.9528250" lon="6.8348150">
        <ele>2001.0</ele>
        <time>2017-07-28T14:48:02Z</time>
      </trkpt>
      <trkpt lat="44.9528510" lon="6.8348320">
        <ele>2001.0</ele>
        <time>2017-07-28T14:48:04Z</time>
      </trkpt>
      <trkpt lat="44.9529150" lon="6.8349220">
        <ele>2000.4</ele>
        <time>2017-07-28T14:48:11Z</time>
      </trkpt>
      <trkpt lat="44.9529170" lon="6.8349450">
        <ele>2000.8</ele>
        <time>2017-07-28T14:48:12Z</time>
      </trkpt>
      <trkpt lat="44.9529370" lon="6.8350180">
        <ele>2001.8</ele>
        <time>2017-07-28T14:48:16Z</time>
      </trkpt>
      <trkpt lat="44.9529410" lon="6.8350340">
        <ele>2002.2</ele>
        <time>2017-07-28T14:48:17Z</time>
      </trkpt>
      <trkpt lat="44.9529560" lon="6.8350690">
        <ele>2002.8</ele>
        <time>2017-07-28T14:48:19Z</time>
      </trkpt>
      <trkpt lat="44.9529650" lon="6.8350840">
        <ele>2003.2</ele>
        <time>2017-07-28T14:48:20Z</time>
      </trkpt>
      <trkpt lat="44.9530310" lon="6.8351990">
        <ele>2004.4</ele>
        <time>2017-07-28T14:48:28Z</time>
      </trkpt>
      <trkpt lat="44.9530640" lon="6.8352460">
        <ele>2005.6</ele>
        <time>2017-07-28T14:48:32Z</time>
      </trkpt>
      <trkpt lat="44.9530850" lon="6.8352790">
        <ele>2006.6</ele>
        <time>2017-07-28T14:48:35Z</time>
      </trkpt>
      <trkpt lat="44.9530940" lon="6.8352930">
        <ele>2006.8</ele>
        <time>2017-07-28T14:48:36Z</time>
      </trkpt>
      <trkpt lat="44.9531050" lon="6.8353390">
        <ele>2007.4</ele>
        <time>2017-07-28T14:48:39Z</time>
      </trkpt>
      <trkpt lat="44.9531070" lon="6.8353550">
        <ele>2007.8</ele>
        <time>2017-07-28T14:48:40Z</time>
      </trkpt>
      <trkpt lat="44.9531270" lon="6.8353900">
        <ele>2009.0</ele>
        <time>2017-07-28T14:48:43Z</time>
      </trkpt>
      <trkpt lat="44.9531370" lon="6.8353980">
        <ele>2009.2</ele>
        <time>2017-07-28T14:48:44Z</time>
      </trkpt>
      <trkpt lat="44.9532000" lon="6.8354300">
        <ele>2009.8</ele>
        <time>2017-07-28T14:48:49Z</time>
      </trkpt>
      <trkpt lat="44.9532110" lon="6.8354420">
        <ele>2009.8</ele>
        <time>2017-07-28T14:48:50Z</time>
      </trkpt>
      <trkpt lat="44.9532500" lon="6.8354970">
        <ele>2009.6</ele>
        <time>2017-07-28T14:48:55Z</time>
      </trkpt>
      <trkpt lat="44.9532640" lon="6.8355250">
        <ele>2010.0</ele>
        <time>2017-07-28T14:48:57Z</time>
      </trkpt>
      <trkpt lat="44.9532950" lon="6.8355770">
        <ele>2010.6</ele>
        <time>2017-07-28T14:49:01Z</time>
      </trkpt>
      <trkpt lat="44.9533270" lon="6.8356280">
        <ele>2011.2</ele>
        <time>2017-07-28T14:49:05Z</time>
      </trkpt>
      <trkpt lat="44.9533520" lon="6.8356940">
        <ele>2011.8</ele>
        <time>2017-07-28T14:49:10Z</time>
      </trkpt>
      <trkpt lat="44.9533350" lon="6.8357170">
        <ele>2012.2</ele>
        <time>2017-07-28T14:49:12Z</time>
      </trkpt>
      <trkpt lat="44.9533200" lon="6.8357200">
        <ele>2012.4</ele>
        <time>2017-07-28T14:49:13Z</time>
      </trkpt>
      <trkpt lat="44.9532610" lon="6.8357230">
        <ele>2013.0</ele>
        <time>2017-07-28T14:49:17Z</time>
      </trkpt>
      <trkpt lat="44.9532450" lon="6.8357210">
        <ele>2013.4</ele>
        <time>2017-07-28T14:49:18Z</time>
      </trkpt>
      <trkpt lat="44.9531490" lon="6.8357110">
        <ele>2014.4</ele>
        <time>2017-07-28T14:49:23Z</time>
      </trkpt>
      <trkpt lat="44.9531280" lon="6.8357050">
        <ele>2014.8</ele>
        <time>2017-07-28T14:49:24Z</time>
      </trkpt>
      <trkpt lat="44.9530570" lon="6.8357020">
        <ele>2015.4</ele>
        <time>2017-07-28T14:49:27Z</time>
      </trkpt>
      <trkpt lat="44.9529870" lon="6.8357270">
        <ele>2017.0</ele>
        <time>2017-07-28T14:49:30Z</time>
      </trkpt>
      <trkpt lat="44.9529600" lon="6.8357390">
        <ele>2017.4</ele>
        <time>2017-07-28T14:49:31Z</time>
      </trkpt>
      <trkpt lat="44.9528830" lon="6.8358110">
        <ele>2018.0</ele>
        <time>2017-07-28T14:49:34Z</time>
      </trkpt>
      <trkpt lat="44.9528450" lon="6.8358700">
        <ele>2018.4</ele>
        <time>2017-07-28T14:49:36Z</time>
      </trkpt>
      <trkpt lat="44.9527230" lon="6.8361030">
        <ele>2018.8</ele>
        <time>2017-07-28T14:49:42Z</time>
      </trkpt>
      <trkpt lat="44.9526720" lon="6.8361990">
        <ele>2019.2</ele>
        <time>2017-07-28T14:49:44Z</time>
      </trkpt>
      <trkpt lat="44.9526270" lon="6.8363090">
        <ele>2019.2</ele>
        <time>2017-07-28T14:49:46Z</time>
      </trkpt>
      <trkpt lat="44.9525940" lon="6.8364450">
        <ele>2019.4</ele>
        <time>2017-07-28T14:49:48Z</time>
      </trkpt>
      <trkpt lat="44.9525220" lon="6.8368710">
        <ele>2019.8</ele>
        <time>2017-07-28T14:49:54Z</time>
      </trkpt>
      <trkpt lat="44.9525040" lon="6.8370020">
        <ele>2020.2</ele>
        <time>2017-07-28T14:49:56Z</time>
      </trkpt>
      <trkpt lat="44.9525020" lon="6.8370670">
        <ele>2020.4</ele>
        <time>2017-07-28T14:49:57Z</time>
      </trkpt>
      <trkpt lat="44.9524930" lon="6.8372440">
        <ele>2021.0</ele>
        <time>2017-07-28T14:50:00Z</time>
      </trkpt>
      <trkpt lat="44.9524750" lon="6.8373510">
        <ele>2021.4</ele>
        <time>2017-07-28T14:50:02Z</time>
      </trkpt>
      <trkpt lat="44.9524380" lon="6.8375600">
        <ele>2021.8</ele>
        <time>2017-07-28T14:50:06Z</time>
      </trkpt>
      <trkpt lat="44.9523790" lon="6.8377710">
        <ele>2022.4</ele>
        <time>2017-07-28T14:50:11Z</time>
      </trkpt>
      <trkpt lat="44.9523510" lon="6.8378520">
        <ele>2022.6</ele>
        <time>2017-07-28T14:50:13Z</time>
      </trkpt>
      <trkpt lat="44.9522760" lon="6.8379670">
        <ele>2023.6</ele>
        <time>2017-07-28T14:50:18Z</time>
      </trkpt>
      <trkpt lat="44.9522390" lon="6.8380370">
        <ele>2025.0</ele>
        <time>2017-07-28T14:50:22Z</time>
      </trkpt>
      <trkpt lat="44.9522090" lon="6.8381020">
        <ele>2026.0</ele>
        <time>2017-07-28T14:50:26Z</time>
      </trkpt>
      <trkpt lat="44.9521910" lon="6.8381730">
        <ele>2027.0</ele>
        <time>2017-07-28T14:50:30Z</time>
      </trkpt>
      <trkpt lat="44.9521850" lon="6.8381880">
        <ele>2027.8</ele>
        <time>2017-07-28T14:50:31Z</time>
      </trkpt>
      <trkpt lat="44.9521650" lon="6.8382390">
        <ele>2028.8</ele>
        <time>2017-07-28T14:50:34Z</time>
      </trkpt>
      <trkpt lat="44.9520970" lon="6.8384030">
        <ele>2029.8</ele>
        <time>2017-07-28T14:50:43Z</time>
      </trkpt>
      <trkpt lat="44.9520640" lon="6.8385470">
        <ele>2029.8</ele>
        <time>2017-07-28T14:50:50Z</time>
      </trkpt>
      <trkpt lat="44.9520550" lon="6.8386620">
        <ele>2031.2</ele>
        <time>2017-07-28T14:50:56Z</time>
      </trkpt>
      <trkpt lat="44.9520470" lon="6.8387060">
        <ele>2031.8</ele>
        <time>2017-07-28T14:50:58Z</time>
      </trkpt>
      <trkpt lat="44.9520400" lon="6.8387500">
        <ele>2032.4</ele>
        <time>2017-07-28T14:51:00Z</time>
      </trkpt>
      <trkpt lat="44.9520270" lon="6.8388210">
        <ele>2033.8</ele>
        <time>2017-07-28T14:51:03Z</time>
      </trkpt>
      <trkpt lat="44.9520190" lon="6.8388620">
        <ele>2034.2</ele>
        <time>2017-07-28T14:51:05Z</time>
      </trkpt>
      <trkpt lat="44.9520130" lon="6.8389100">
        <ele>2034.8</ele>
        <time>2017-07-28T14:51:07Z</time>
      </trkpt>
      <trkpt lat="44.9519980" lon="6.8389620">
        <ele>2035.6</ele>
        <time>2017-07-28T14:51:09Z</time>
      </trkpt>
      <trkpt lat="44.9519820" lon="6.8390140">
        <ele>2036.2</ele>
        <time>2017-07-28T14:51:11Z</time>
      </trkpt>
      <trkpt lat="44.9519760" lon="6.8390370">
        <ele>2036.2</ele>
        <time>2017-07-28T14:51:12Z</time>
      </trkpt>
      <trkpt lat="44.9519630" lon="6.8391510">
        <ele>2037.0</ele>
        <time>2017-07-28T14:51:17Z</time>
      </trkpt>
      <trkpt lat="44.9519690" lon="6.8391770">
        <ele>2037.2</ele>
        <time>2017-07-28T14:51:18Z</time>
      </trkpt>
      <trkpt lat="44.9519740" lon="6.8392040">
        <ele>2038.0</ele>
        <time>2017-07-28T14:51:19Z</time>
      </trkpt>
      <trkpt lat="44.9519810" lon="6.8392510">
        <ele>2038.4</ele>
        <time>2017-07-28T14:51:21Z</time>
      </trkpt>
      <trkpt lat="44.9520060" lon="6.8393150">
        <ele>2039.8</ele>
        <time>2017-07-28T14:51:25Z</time>
      </trkpt>
      <trkpt lat="44.9520170" lon="6.8393260">
        <ele>2040.2</ele>
        <time>2017-07-28T14:51:26Z</time>
      </trkpt>
      <trkpt lat="44.9520290" lon="6.8393320">
        <ele>2040.6</ele>
        <time>2017-07-28T14:51:27Z</time>
      </trkpt>
      <trkpt lat="44.9520430" lon="6.8393420">
        <ele>2041.0</ele>
        <time>2017-07-28T14:51:28Z</time>
      </trkpt>
      <trkpt lat="44.9520950" lon="6.8393670">
        <ele>2042.0</ele>
        <time>2017-07-28T14:51:31Z</time>
      </trkpt>
      <trkpt lat="44.9521280" lon="6.8393980">
        <ele>2042.6</ele>
        <time>2017-07-28T14:51:34Z</time>
      </trkpt>
      <trkpt lat="44.9521580" lon="6.8394430">
        <ele>2043.0</ele>
        <time>2017-07-28T14:51:37Z</time>
      </trkpt>
      <trkpt lat="44.9521790" lon="6.8394950">
        <ele>2044.0</ele>
        <time>2017-07-28T14:51:40Z</time>
      </trkpt>
      <trkpt lat="44.9521860" lon="6.8395130">
        <ele>2044.2</ele>
        <time>2017-07-28T14:51:41Z</time>
      </trkpt>
      <trkpt lat="44.9521860" lon="6.8395480">
        <ele>2045.4</ele>
        <time>2017-07-28T14:51:43Z</time>
      </trkpt>
      <trkpt lat="44.9521780" lon="6.8395670">
        <ele>2045.6</ele>
        <time>2017-07-28T14:51:44Z</time>
      </trkpt>
      <trkpt lat="44.9521730" lon="6.8396190">
        <ele>2046.4</ele>
        <time>2017-07-28T14:51:47Z</time>
      </trkpt>
      <trkpt lat="44.9521760" lon="6.8396740">
        <ele>2047.6</ele>
        <time>2017-07-28T14:51:50Z</time>
      </trkpt>
      <trkpt lat="44.9521800" lon="6.8397400">
        <ele>2048.6</ele>
        <time>2017-07-28T14:51:54Z</time>
      </trkpt>
      <trkpt lat="44.9521820" lon="6.8397540">
        <ele>2049.0</ele>
        <time>2017-07-28T14:51:55Z</time>
      </trkpt>
      <trkpt lat="44.9522030" lon="6.8398170">
        <ele>2049.8</ele>
        <time>2017-07-28T14:51:58Z</time>
      </trkpt>
      <trkpt lat="44.9522300" lon="6.8398790">
        <ele>2050.6</ele>
        <time>2017-07-28T14:52:01Z</time>
      </trkpt>
      <trkpt lat="44.9522360" lon="6.8399000">
        <ele>2050.8</ele>
        <time>2017-07-28T14:52:02Z</time>
      </trkpt>
      <trkpt lat="44.9522490" lon="6.8399760">
        <ele>2052.0</ele>
        <time>2017-07-28T14:52:06Z</time>
      </trkpt>
      <trkpt lat="44.9522660" lon="6.8400450">
        <ele>2052.6</ele>
        <time>2017-07-28T14:52:09Z</time>
      </trkpt>
      <trkpt lat="44.9522820" lon="6.8400840">
        <ele>2053.0</ele>
        <time>2017-07-28T14:52:11Z</time>
      </trkpt>
      <trkpt lat="44.9523260" lon="6.8401860">
        <ele>2054.0</ele>
        <time>2017-07-28T14:52:17Z</time>
      </trkpt>
      <trkpt lat="44.9523400" lon="6.8402190">
        <ele>2054.0</ele>
        <time>2017-07-28T14:52:19Z</time>
      </trkpt>
      <trkpt lat="44.9523710" lon="6.8402870">
        <ele>2054.6</ele>
        <time>2017-07-28T14:52:23Z</time>
      </trkpt>
      <trkpt lat="44.9523840" lon="6.8403200">
        <ele>2055.2</ele>
        <time>2017-07-28T14:52:25Z</time>
      </trkpt>
      <trkpt lat="44.9524240" lon="6.8404020">
        <ele>2056.4</ele>
        <time>2017-07-28T14:52:30Z</time>
      </trkpt>
      <trkpt lat="44.9524300" lon="6.8404270">
        <ele>2057.2</ele>
        <time>2017-07-28T14:52:31Z</time>
      </trkpt>
      <trkpt lat="44.9524400" lon="6.8404760">
        <ele>2057.6</ele>
        <time>2017-07-28T14:52:33Z</time>
      </trkpt>
      <trkpt lat="44.9524720" lon="6.8406000">
        <ele>2058.6</ele>
        <time>2017-07-28T14:52:37Z</time>
      </trkpt>
      <trkpt lat="44.9524820" lon="6.8406380">
        <ele>2058.8</ele>
        <time>2017-07-28T14:52:38Z</time>
      </trkpt>
      <trkpt lat="44.9525310" lon="6.8407910">
        <ele>2060.0</ele>
        <time>2017-07-28T14:52:42Z</time>
      </trkpt>
      <trkpt lat="44.9525530" lon="6.8408550">
        <ele>2060.6</ele>
        <time>2017-07-28T14:52:44Z</time>
      </trkpt>
      <trkpt lat="44.9525670" lon="6.8409040">
        <ele>2061.2</ele>
        <time>2017-07-28T14:52:46Z</time>
      </trkpt>
      <trkpt lat="44.9526080" lon="6.8409970">
        <ele>2062.4</ele>
        <time>2017-07-28T14:52:50Z</time>
      </trkpt>
      <trkpt lat="44.9526280" lon="6.8410490">
        <ele>2062.8</ele>
        <time>2017-07-28T14:52:52Z</time>
      </trkpt>
      <trkpt lat="44.9526380" lon="6.8410980">
        <ele>2063.4</ele>
        <time>2017-07-28T14:52:54Z</time>
      </trkpt>
      <trkpt lat="44.9526440" lon="6.8411300">
        <ele>2063.8</ele>
        <time>2017-07-28T14:52:55Z</time>
      </trkpt>
      <trkpt lat="44.9526470" lon="6.8411670">
        <ele>2064.0</ele>
        <time>2017-07-28T14:52:56Z</time>
      </trkpt>
      <trkpt lat="44.9526620" lon="6.8412430">
        <ele>2064.4</ele>
        <time>2017-07-28T14:52:58Z</time>
      </trkpt>
      <trkpt lat="44.9526760" lon="6.8412850">
        <ele>2064.4</ele>
        <time>2017-07-28T14:52:59Z</time>
      </trkpt>
      <trkpt lat="44.9527490" lon="6.8414690">
        <ele>2065.0</ele>
        <time>2017-07-28T14:53:03Z</time>
      </trkpt>
      <trkpt lat="44.9528390" lon="6.8417690">
        <ele>2065.6</ele>
        <time>2017-07-28T14:53:08Z</time>
      </trkpt>
      <trkpt lat="44.9528950" lon="6.8419000">
        <ele>2065.8</ele>
        <time>2017-07-28T14:53:10Z</time>
      </trkpt>
      <trkpt lat="44.9529410" lon="6.8420500">
        <ele>2066.0</ele>
        <time>2017-07-28T14:53:12Z</time>
      </trkpt>
      <trkpt lat="44.9530600" lon="6.8424730">
        <ele>2066.4</ele>
        <time>2017-07-28T14:53:17Z</time>
      </trkpt>
      <trkpt lat="44.9531680" lon="6.8427530">
        <ele>2066.6</ele>
        <time>2017-07-28T14:53:20Z</time>
      </trkpt>
      <trkpt lat="44.9532070" lon="6.8428390">
        <ele>2066.6</ele>
        <time>2017-07-28T14:53:21Z</time>
      </trkpt>
      <trkpt lat="44.9534110" lon="6.8431670">
        <ele>2067.0</ele>
        <time>2017-07-28T14:53:26Z</time>
      </trkpt>
      <trkpt lat="44.9534440" lon="6.8432370">
        <ele>2067.2</ele>
        <time>2017-07-28T14:53:27Z</time>
      </trkpt>
      <trkpt lat="44.9535230" lon="6.8433580">
        <ele>2067.2</ele>
        <time>2017-07-28T14:53:29Z</time>
      </trkpt>
      <trkpt lat="44.9536370" lon="6.8434210">
        <ele>2067.0</ele>
        <time>2017-07-28T14:53:31Z</time>
      </trkpt>
      <trkpt lat="44.9537480" lon="6.8434610">
        <ele>2067.2</ele>
        <time>2017-07-28T14:53:33Z</time>
      </trkpt>
      <trkpt lat="44.9538400" lon="6.8435050">
        <ele>2067.4</ele>
        <time>2017-07-28T14:53:35Z</time>
      </trkpt>
      <trkpt lat="44.9538820" lon="6.8435350">
        <ele>2067.6</ele>
        <time>2017-07-28T14:53:36Z</time>
      </trkpt>
      <trkpt lat="44.9539930" lon="6.8436650">
        <ele>2067.6</ele>
        <time>2017-07-28T14:53:39Z</time>
      </trkpt>
      <trkpt lat="44.9540270" lon="6.8437210">
        <ele>2067.6</ele>
        <time>2017-07-28T14:53:40Z</time>
      </trkpt>
      <trkpt lat="44.9540540" lon="6.8437830">
        <ele>2067.6</ele>
        <time>2017-07-28T14:53:41Z</time>
      </trkpt>
      <trkpt lat="44.9542020" lon="6.8441460">
        <ele>2067.8</ele>
        <time>2017-07-28T14:53:47Z</time>
      </trkpt>
      <trkpt lat="44.9542670" lon="6.8443200">
        <ele>2067.6</ele>
        <time>2017-07-28T14:53:49Z</time>
      </trkpt>
      <trkpt lat="44.9543080" lon="6.8444170">
        <ele>2067.4</ele>
        <time>2017-07-28T14:53:50Z</time>
      </trkpt>
      <trkpt lat="44.9545310" lon="6.8447970">
        <ele>2066.4</ele>
        <time>2017-07-28T14:53:55Z</time>
      </trkpt>
      <trkpt lat="44.9545890" lon="6.8450200">
        <ele>2066.2</ele>
        <time>2017-07-28T14:53:58Z</time>
      </trkpt>
      <trkpt lat="44.9546080" lon="6.8450890">
        <ele>2066.2</ele>
        <time>2017-07-28T14:53:59Z</time>
      </trkpt>
      <trkpt lat="44.9547540" lon="6.8454990">
        <ele>2066.0</ele>
        <time>2017-07-28T14:54:05Z</time>
      </trkpt>
      <trkpt lat="44.9547870" lon="6.8455530">
        <ele>2066.0</ele>
        <time>2017-07-28T14:54:06Z</time>
      </trkpt>
      <trkpt lat="44.9548870" lon="6.8456240">
        <ele>2065.8</ele>
        <time>2017-07-28T14:54:08Z</time>
      </trkpt>
      <trkpt lat="44.9549880" lon="6.8456650">
        <ele>2065.6</ele>
        <time>2017-07-28T14:54:10Z</time>
      </trkpt>
      <trkpt lat="44.9550360" lon="6.8456980">
        <ele>2065.6</ele>
        <time>2017-07-28T14:54:11Z</time>
      </trkpt>
      <trkpt lat="44.9550830" lon="6.8457240">
        <ele>2065.4</ele>
        <time>2017-07-28T14:54:12Z</time>
      </trkpt>
      <trkpt lat="44.9553110" lon="6.8458660">
        <ele>2064.6</ele>
        <time>2017-07-28T14:54:17Z</time>
      </trkpt>
      <trkpt lat="44.9553650" lon="6.8459090">
        <ele>2064.4</ele>
        <time>2017-07-28T14:54:19Z</time>
      </trkpt>
      <trkpt lat="44.9553990" lon="6.8459400">
        <ele>2064.2</ele>
        <time>2017-07-28T14:54:21Z</time>
      </trkpt>
      <trkpt lat="44.9554850" lon="6.8460520">
        <ele>2064.0</ele>
        <time>2017-07-28T14:54:28Z</time>
      </trkpt>
      <trkpt lat="44.9555340" lon="6.8461440">
        <ele>2064.8</ele>
        <time>2017-07-28T14:54:34Z</time>
      </trkpt>
      <trkpt lat="44.9555380" lon="6.8461650">
        <ele>2065.0</ele>
        <time>2017-07-28T14:54:35Z</time>
      </trkpt>
      <trkpt lat="44.9555430" lon="6.8461860">
        <ele>2065.4</ele>
        <time>2017-07-28T14:54:36Z</time>
      </trkpt>
      <trkpt lat="44.9555550" lon="6.8462240">
        <ele>2066.6</ele>
        <time>2017-07-28T14:54:38Z</time>
      </trkpt>
      <trkpt lat="44.9555720" lon="6.8462540">
        <ele>2067.4</ele>
        <time>2017-07-28T14:54:40Z</time>
      </trkpt>
      <trkpt lat="44.9555770" lon="6.8462730">
        <ele>2067.6</ele>
        <time>2017-07-28T14:54:41Z</time>
      </trkpt>
      <trkpt lat="44.9555890" lon="6.8463340">
        <ele>2068.8</ele>
        <time>2017-07-28T14:54:44Z</time>
      </trkpt>
      <trkpt lat="44.9555880" lon="6.8464440">
        <ele>2070.2</ele>
        <time>2017-07-28T14:54:48Z</time>
      </trkpt>
      <trkpt lat="44.9555850" lon="6.8464710">
        <ele>2070.6</ele>
        <time>2017-07-28T14:54:49Z</time>
      </trkpt>
      <trkpt lat="44.9555740" lon="6.8465250">
        <ele>2071.4</ele>
        <time>2017-07-28T14:54:51Z</time>
      </trkpt>
      <trkpt lat="44.9555420" lon="6.8466570">
        <ele>2072.2</ele>
        <time>2017-07-28T14:54:55Z</time>
      </trkpt>
      <trkpt lat="44.9555300" lon="6.8467040">
        <ele>2072.6</ele>
        <time>2017-07-28T14:54:56Z</time>
      </trkpt>
      <trkpt lat="44.9554750" lon="6.8468820">
        <ele>2073.2</ele>
        <time>2017-07-28T14:54:59Z</time>
      </trkpt>
      <trkpt lat="44.9554660" lon="6.8469570">
        <ele>2073.2</ele>
        <time>2017-07-28T14:55:00Z</time>
      </trkpt>
      <trkpt lat="44.9555150" lon="6.8473420">
        <ele>2073.6</ele>
        <time>2017-07-28T14:55:04Z</time>
      </trkpt>
      <trkpt lat="44.9555640" lon="6.8474420">
        <ele>2073.6</ele>
        <time>2017-07-28T14:55:05Z</time>
      </trkpt>
      <trkpt lat="44.9556560" lon="6.8475980">
        <ele>2073.6</ele>
        <time>2017-07-28T14:55:07Z</time>
      </trkpt>
      <trkpt lat="44.9557450" lon="6.8477290">
        <ele>2073.4</ele>
        <time>2017-07-28T14:55:09Z</time>
      </trkpt>
      <trkpt lat="44.9557920" lon="6.8478040">
        <ele>2073.2</ele>
        <time>2017-07-28T14:55:10Z</time>
      </trkpt>
      <trkpt lat="44.9559010" lon="6.8479730">
        <ele>2073.0</ele>
        <time>2017-07-28T14:55:12Z</time>
      </trkpt>
      <trkpt lat="44.9559440" lon="6.8480860">
        <ele>2072.6</ele>
        <time>2017-07-28T14:55:13Z</time>
      </trkpt>
      <trkpt lat="44.9559310" lon="6.8482640">
        <ele>2072.4</ele>
        <time>2017-07-28T14:55:15Z</time>
      </trkpt>
      <trkpt lat="44.9558950" lon="6.8485640">
        <ele>2072.2</ele>
        <time>2017-07-28T14:55:19Z</time>
      </trkpt>
      <trkpt lat="44.9558970" lon="6.8487200">
        <ele>2072.2</ele>
        <time>2017-07-28T14:55:21Z</time>
      </trkpt>
      <trkpt lat="44.9559080" lon="6.8488980">
        <ele>2072.4</ele>
        <time>2017-07-28T14:55:23Z</time>
      </trkpt>
      <trkpt lat="44.9559180" lon="6.8489840">
        <ele>2072.4</ele>
        <time>2017-07-28T14:55:24Z</time>
      </trkpt>
      <trkpt lat="44.9560340" lon="6.8495540">
        <ele>2072.6</ele>
        <time>2017-07-28T14:55:31Z</time>
      </trkpt>
      <trkpt lat="44.9560750" lon="6.8496780">
        <ele>2072.8</ele>
        <time>2017-07-28T14:55:33Z</time>
      </trkpt>
      <trkpt lat="44.9561210" lon="6.8497800">
        <ele>2073.2</ele>
        <time>2017-07-28T14:55:35Z</time>
      </trkpt>
      <trkpt lat="44.9561500" lon="6.8498320">
        <ele>2073.2</ele>
        <time>2017-07-28T14:55:36Z</time>
      </trkpt>
      <trkpt lat="44.9563520" lon="6.8501840">
        <ele>2073.0</ele>
        <time>2017-07-28T14:55:42Z</time>
      </trkpt>
      <trkpt lat="44.9563670" lon="6.8502470">
        <ele>2073.0</ele>
        <time>2017-07-28T14:55:43Z</time>
      </trkpt>
      <trkpt lat="44.9564130" lon="6.8504410">
        <ele>2073.2</ele>
        <time>2017-07-28T14:55:46Z</time>
      </trkpt>
      <trkpt lat="44.9564550" lon="6.8506720">
        <ele>2073.2</ele>
        <time>2017-07-28T14:55:49Z</time>
      </trkpt>
      <trkpt lat="44.9564510" lon="6.8507670">
        <ele>2073.0</ele>
        <time>2017-07-28T14:55:50Z</time>
      </trkpt>
      <trkpt lat="44.9563700" lon="6.8509430">
        <ele>2072.6</ele>
        <time>2017-07-28T14:55:52Z</time>
      </trkpt>
      <trkpt lat="44.9562290" lon="6.8510080">
        <ele>2071.6</ele>
        <time>2017-07-28T14:55:55Z</time>
      </trkpt>
      <trkpt lat="44.9561460" lon="6.8511080">
        <ele>2071.2</ele>
        <time>2017-07-28T14:55:59Z</time>
      </trkpt>
      <trkpt lat="44.9561610" lon="6.8512180">
        <ele>2071.2</ele>
        <time>2017-07-28T14:56:02Z</time>
      </trkpt>
      <trkpt lat="44.9561660" lon="6.8512600">
        <ele>2071.2</ele>
        <time>2017-07-28T14:56:03Z</time>
      </trkpt>
      <trkpt lat="44.9561710" lon="6.8514900">
        <ele>2072.2</ele>
        <time>2017-07-28T14:56:08Z</time>
      </trkpt>
      <trkpt lat="44.9561890" lon="6.8515940">
        <ele>2072.8</ele>
        <time>2017-07-28T14:56:10Z</time>
      </trkpt>
      <trkpt lat="44.9562310" lon="6.8518600">
        <ele>2073.8</ele>
        <time>2017-07-28T14:56:15Z</time>
      </trkpt>
      <trkpt lat="44.9562160" lon="6.8519820">
        <ele>2074.4</ele>
        <time>2017-07-28T14:56:17Z</time>
      </trkpt>
      <trkpt lat="44.9561880" lon="6.8520950">
        <ele>2074.8</ele>
        <time>2017-07-28T14:56:19Z</time>
      </trkpt>
      <trkpt lat="44.9561770" lon="6.8521540">
        <ele>2075.0</ele>
        <time>2017-07-28T14:56:20Z</time>
      </trkpt>
      <trkpt lat="44.9561460" lon="6.8523320">
        <ele>2075.6</ele>
        <time>2017-07-28T14:56:23Z</time>
      </trkpt>
      <trkpt lat="44.9561390" lon="6.8523910">
        <ele>2075.8</ele>
        <time>2017-07-28T14:56:24Z</time>
      </trkpt>
      <trkpt lat="44.9561400" lon="6.8524490">
        <ele>2075.8</ele>
        <time>2017-07-28T14:56:25Z</time>
      </trkpt>
      <trkpt lat="44.9561630" lon="6.8525530">
        <ele>2076.0</ele>
        <time>2017-07-28T14:56:27Z</time>
      </trkpt>
      <trkpt lat="44.9561830" lon="6.8525940">
        <ele>2076.2</ele>
        <time>2017-07-28T14:56:28Z</time>
      </trkpt>
      <trkpt lat="44.9562850" lon="6.8526980">
        <ele>2075.8</ele>
        <time>2017-07-28T14:56:33Z</time>
      </trkpt>
      <trkpt lat="44.9563060" lon="6.8527090">
        <ele>2075.8</ele>
        <time>2017-07-28T14:56:34Z</time>
      </trkpt>
      <trkpt lat="44.9563700" lon="6.8527600">
        <ele>2075.0</ele>
        <time>2017-07-28T14:56:38Z</time>
      </trkpt>
      <trkpt lat="44.9564130" lon="6.8528130">
        <ele>2074.8</ele>
        <time>2017-07-28T14:56:41Z</time>
      </trkpt>
      <trkpt lat="44.9565130" lon="6.8529380">
        <ele>2074.8</ele>
        <time>2017-07-28T14:56:49Z</time>
      </trkpt>
      <trkpt lat="44.9565700" lon="6.8530000">
        <ele>2075.2</ele>
        <time>2017-07-28T14:56:54Z</time>
      </trkpt>
      <trkpt lat="44.9566280" lon="6.8530510">
        <ele>2076.2</ele>
        <time>2017-07-28T14:56:59Z</time>
      </trkpt>
      <trkpt lat="44.9566940" lon="6.8531180">
        <ele>2077.0</ele>
        <time>2017-07-28T14:57:05Z</time>
      </trkpt>
      <trkpt lat="44.9567060" lon="6.8531250">
        <ele>2077.2</ele>
        <time>2017-07-28T14:57:06Z</time>
      </trkpt>
      <trkpt lat="44.9567520" lon="6.8531530">
        <ele>2078.2</ele>
        <time>2017-07-28T14:57:10Z</time>
      </trkpt>
      <trkpt lat="44.9567610" lon="6.8531670">
        <ele>2078.6</ele>
        <time>2017-07-28T14:57:11Z</time>
      </trkpt>
      <trkpt lat="44.9567700" lon="6.8531890">
        <ele>2078.8</ele>
        <time>2017-07-28T14:57:12Z</time>
      </trkpt>
      <trkpt lat="44.9567700" lon="6.8532100">
        <ele>2079.2</ele>
        <time>2017-07-28T14:57:13Z</time>
      </trkpt>
      <trkpt lat="44.9567670" lon="6.8532560">
        <ele>2080.0</ele>
        <time>2017-07-28T14:57:15Z</time>
      </trkpt>
      <trkpt lat="44.9567560" lon="6.8533010">
        <ele>2080.6</ele>
        <time>2017-07-28T14:57:17Z</time>
      </trkpt>
      <trkpt lat="44.9567320" lon="6.8533510">
        <ele>2081.6</ele>
        <time>2017-07-28T14:57:20Z</time>
      </trkpt>
      <trkpt lat="44.9566970" lon="6.8534430">
        <ele>2083.0</ele>
        <time>2017-07-28T14:57:24Z</time>
      </trkpt>
      <trkpt lat="44.9566680" lon="6.8535500">
        <ele>2084.0</ele>
        <time>2017-07-28T14:57:27Z</time>
      </trkpt>
      <trkpt lat="44.9566510" lon="6.8536440">
        <ele>2084.6</ele>
        <time>2017-07-28T14:57:29Z</time>
      </trkpt>
      <trkpt lat="44.9566370" lon="6.8536930">
        <ele>2085.0</ele>
        <time>2017-07-28T14:57:30Z</time>
      </trkpt>
      <trkpt lat="44.9566100" lon="6.8538410">
        <ele>2086.2</ele>
        <time>2017-07-28T14:57:33Z</time>
      </trkpt>
      <trkpt lat="44.9565700" lon="6.8539780">
        <ele>2086.8</ele>
        <time>2017-07-28T14:57:36Z</time>
      </trkpt>
      <trkpt lat="44.9565480" lon="6.8540120">
        <ele>2087.2</ele>
        <time>2017-07-28T14:57:37Z</time>
      </trkpt>
      <trkpt lat="44.9564780" lon="6.8540780">
        <ele>2088.0</ele>
        <time>2017-07-28T14:57:40Z</time>
      </trkpt>
      <trkpt lat="44.9564530" lon="6.8541060">
        <ele>2088.6</ele>
        <time>2017-07-28T14:57:41Z</time>
      </trkpt>
      <trkpt lat="44.9563850" lon="6.8542040">
        <ele>2089.8</ele>
        <time>2017-07-28T14:57:44Z</time>
      </trkpt>
      <trkpt lat="44.9563330" lon="6.8542680">
        <ele>2090.6</ele>
        <time>2017-07-28T14:57:46Z</time>
      </trkpt>
      <trkpt lat="44.9563130" lon="6.8542990">
        <ele>2090.8</ele>
        <time>2017-07-28T14:57:47Z</time>
      </trkpt>
      <trkpt lat="44.9562470" lon="6.8544610">
        <ele>2091.8</ele>
        <time>2017-07-28T14:57:52Z</time>
      </trkpt>
      <trkpt lat="44.9562380" lon="6.8544950">
        <ele>2092.0</ele>
        <time>2017-07-28T14:57:53Z</time>
      </trkpt>
      <trkpt lat="44.9562010" lon="6.8546110">
        <ele>2093.2</ele>
        <time>2017-07-28T14:57:57Z</time>
      </trkpt>
      <trkpt lat="44.9561920" lon="6.8546650">
        <ele>2093.6</ele>
        <time>2017-07-28T14:57:59Z</time>
      </trkpt>
      <trkpt lat="44.9561920" lon="6.8547400">
        <ele>2094.6</ele>
        <time>2017-07-28T14:58:02Z</time>
      </trkpt>
      <trkpt lat="44.9561580" lon="6.8548280">
        <ele>2095.8</ele>
        <time>2017-07-28T14:58:06Z</time>
      </trkpt>
      <trkpt lat="44.9561300" lon="6.8549040">
        <ele>2096.8</ele>
        <time>2017-07-28T14:58:09Z</time>
      </trkpt>
      <trkpt lat="44.9560870" lon="6.8550910">
        <ele>2097.4</ele>
        <time>2017-07-28T14:58:13Z</time>
      </trkpt>
      <trkpt lat="44.9560620" lon="6.8551980">
        <ele>2097.8</ele>
        <time>2017-07-28T14:58:15Z</time>
      </trkpt>
      <trkpt lat="44.9559990" lon="6.8554350">
        <ele>2098.2</ele>
        <time>2017-07-28T14:58:20Z</time>
      </trkpt>
      <trkpt lat="44.9559850" lon="6.8555450">
        <ele>2098.8</ele>
        <time>2017-07-28T14:58:23Z</time>
      </trkpt>
      <trkpt lat="44.9559700" lon="6.8556460">
        <ele>2099.0</ele>
        <time>2017-07-28T14:58:25Z</time>
      </trkpt>
      <trkpt lat="44.9559660" lon="6.8558520">
        <ele>2099.8</ele>
        <time>2017-07-28T14:58:28Z</time>
      </trkpt>
      <trkpt lat="44.9559740" lon="6.8559270">
        <ele>2100.0</ele>
        <time>2017-07-28T14:58:29Z</time>
      </trkpt>
      <trkpt lat="44.9559780" lon="6.8560040">
        <ele>2100.0</ele>
        <time>2017-07-28T14:58:30Z</time>
      </trkpt>
      <trkpt lat="44.9560420" lon="6.8564250">
        <ele>2100.2</ele>
        <time>2017-07-28T14:58:35Z</time>
      </trkpt>
      <trkpt lat="44.9560750" lon="6.8565190">
        <ele>2100.2</ele>
        <time>2017-07-28T14:58:36Z</time>
      </trkpt>
      <trkpt lat="44.9561670" lon="6.8568250">
        <ele>2100.2</ele>
        <time>2017-07-28T14:58:39Z</time>
      </trkpt>
      <trkpt lat="44.9562230" lon="6.8570650">
        <ele>2099.8</ele>
        <time>2017-07-28T14:58:41Z</time>
      </trkpt>
      <trkpt lat="44.9562600" lon="6.8576220">
        <ele>2099.0</ele>
        <time>2017-07-28T14:58:45Z</time>
      </trkpt>
      <trkpt lat="44.9562550" lon="6.8577700">
        <ele>2098.6</ele>
        <time>2017-07-28T14:58:46Z</time>
      </trkpt>
      <trkpt lat="44.9562460" lon="6.8582100">
        <ele>2097.4</ele>
        <time>2017-07-28T14:58:49Z</time>
      </trkpt>
      <trkpt lat="44.9562630" lon="6.8584970">
        <ele>2096.4</ele>
        <time>2017-07-28T14:58:51Z</time>
      </trkpt>
      <trkpt lat="44.9563050" lon="6.8586230">
        <ele>2096.2</ele>
        <time>2017-07-28T14:58:52Z</time>
      </trkpt>
      <trkpt lat="44.9563720" lon="6.8587420">
        <ele>2095.6</ele>
        <time>2017-07-28T14:58:53Z</time>
      </trkpt>
      <trkpt lat="44.9564390" lon="6.8588370">
        <ele>2095.2</ele>
        <time>2017-07-28T14:58:54Z</time>
      </trkpt>
      <trkpt lat="44.9566120" lon="6.8589860">
        <ele>2093.4</ele>
        <time>2017-07-28T14:58:56Z</time>
      </trkpt>
      <trkpt lat="44.9566990" lon="6.8590610">
        <ele>2092.8</ele>
        <time>2017-07-28T14:58:57Z</time>
      </trkpt>
      <trkpt lat="44.9567810" lon="6.8591600">
        <ele>2092.0</ele>
        <time>2017-07-28T14:58:58Z</time>
      </trkpt>
      <trkpt lat="44.9569220" lon="6.8594210">
        <ele>2090.8</ele>
        <time>2017-07-28T14:59:00Z</time>
      </trkpt>
      <trkpt lat="44.9569820" lon="6.8597150">
        <ele>2089.8</ele>
        <time>2017-07-28T14:59:02Z</time>
      </trkpt>
      <trkpt lat="44.9569440" lon="6.8598700">
        <ele>2089.2</ele>
        <time>2017-07-28T14:59:03Z</time>
      </trkpt>
      <trkpt lat="44.9569020" lon="6.8600210">
        <ele>2088.6</ele>
        <time>2017-07-28T14:59:04Z</time>
      </trkpt>
      <trkpt lat="44.9568200" lon="6.8602600">
        <ele>2087.6</ele>
        <time>2017-07-28T14:59:06Z</time>
      </trkpt>
      <trkpt lat="44.9567870" lon="6.8603640">
        <ele>2086.8</ele>
        <time>2017-07-28T14:59:07Z</time>
      </trkpt>
      <trkpt lat="44.9567550" lon="6.8604790">
        <ele>2086.0</ele>
        <time>2017-07-28T14:59:08Z</time>
      </trkpt>
      <trkpt lat="44.9566870" lon="6.8607240">
        <ele>2084.8</ele>
        <time>2017-07-28T14:59:10Z</time>
      </trkpt>
      <trkpt lat="44.9566490" lon="6.8608540">
        <ele>2084.4</ele>
        <time>2017-07-28T14:59:11Z</time>
      </trkpt>
      <trkpt lat="44.9565760" lon="6.8611320">
        <ele>2083.0</ele>
        <time>2017-07-28T14:59:13Z</time>
      </trkpt>
      <trkpt lat="44.9565050" lon="6.8614180">
        <ele>2081.2</ele>
        <time>2017-07-28T14:59:15Z</time>
      </trkpt>
      <trkpt lat="44.9564630" lon="6.8617280">
        <ele>2080.0</ele>
        <time>2017-07-28T14:59:17Z</time>
      </trkpt>
      <trkpt lat="44.9564710" lon="6.8620620">
        <ele>2078.4</ele>
        <time>2017-07-28T14:59:19Z</time>
      </trkpt>
      <trkpt lat="44.9564450" lon="6.8622350">
        <ele>2076.8</ele>
        <time>2017-07-28T14:59:20Z</time>
      </trkpt>
      <trkpt lat="44.9563350" lon="6.8625020">
        <ele>2075.2</ele>
        <time>2017-07-28T14:59:22Z</time>
      </trkpt>
      <trkpt lat="44.9563300" lon="6.8627880">
        <ele>2073.6</ele>
        <time>2017-07-28T14:59:24Z</time>
      </trkpt>
      <trkpt lat="44.9563460" lon="6.8629320">
        <ele>2072.6</ele>
        <time>2017-07-28T14:59:25Z</time>
      </trkpt>
      <trkpt lat="44.9563850" lon="6.8630760">
        <ele>2071.6</ele>
        <time>2017-07-28T14:59:26Z</time>
      </trkpt>
      <trkpt lat="44.9564210" lon="6.8632190">
        <ele>2070.6</ele>
        <time>2017-07-28T14:59:27Z</time>
      </trkpt>
      <trkpt lat="44.9564760" lon="6.8633540">
        <ele>2070.0</ele>
        <time>2017-07-28T14:59:28Z</time>
      </trkpt>
      <trkpt lat="44.9565520" lon="6.8634800">
        <ele>2069.0</ele>
        <time>2017-07-28T14:59:29Z</time>
      </trkpt>
      <trkpt lat="44.9566310" lon="6.8635950">
        <ele>2068.4</ele>
        <time>2017-07-28T14:59:30Z</time>
      </trkpt>
      <trkpt lat="44.9567320" lon="6.8636930">
        <ele>2067.4</ele>
        <time>2017-07-28T14:59:31Z</time>
      </trkpt>
      <trkpt lat="44.9569700" lon="6.8638200">
        <ele>2065.8</ele>
        <time>2017-07-28T14:59:33Z</time>
      </trkpt>
      <trkpt lat="44.9571000" lon="6.8638570">
        <ele>2064.8</ele>
        <time>2017-07-28T14:59:34Z</time>
      </trkpt>
      <trkpt lat="44.9572140" lon="6.8639290">
        <ele>2064.0</ele>
        <time>2017-07-28T14:59:35Z</time>
      </trkpt>
      <trkpt lat="44.9574090" lon="6.8641620">
        <ele>2062.6</ele>
        <time>2017-07-28T14:59:37Z</time>
      </trkpt>
      <trkpt lat="44.9576410" lon="6.8642900">
        <ele>2060.6</ele>
        <time>2017-07-28T14:59:39Z</time>
      </trkpt>
      <trkpt lat="44.9577590" lon="6.8643610">
        <ele>2059.8</ele>
        <time>2017-07-28T14:59:40Z</time>
      </trkpt>
      <trkpt lat="44.9578730" lon="6.8644350">
        <ele>2059.2</ele>
        <time>2017-07-28T14:59:41Z</time>
      </trkpt>
      <trkpt lat="44.9581050" lon="6.8645760">
        <ele>2057.6</ele>
        <time>2017-07-28T14:59:43Z</time>
      </trkpt>
      <trkpt lat="44.9582130" lon="6.8646340">
        <ele>2056.2</ele>
        <time>2017-07-28T14:59:44Z</time>
      </trkpt>
      <trkpt lat="44.9583840" lon="6.8647580">
        <ele>2054.8</ele>
        <time>2017-07-28T14:59:46Z</time>
      </trkpt>
      <trkpt lat="44.9584950" lon="6.8648520">
        <ele>2053.4</ele>
        <time>2017-07-28T14:59:48Z</time>
      </trkpt>
      <trkpt lat="44.9585350" lon="6.8649130">
        <ele>2052.6</ele>
        <time>2017-07-28T14:59:49Z</time>
      </trkpt>
      <trkpt lat="44.9585390" lon="6.8649760">
        <ele>2052.0</ele>
        <time>2017-07-28T14:59:50Z</time>
      </trkpt>
      <trkpt lat="44.9584960" lon="6.8650280">
        <ele>2051.4</ele>
        <time>2017-07-28T14:59:51Z</time>
      </trkpt>
      <trkpt lat="44.9584350" lon="6.8650520">
        <ele>2050.8</ele>
        <time>2017-07-28T14:59:52Z</time>
      </trkpt>
      <trkpt lat="44.9583820" lon="6.8650690">
        <ele>2050.2</ele>
        <time>2017-07-28T14:59:53Z</time>
      </trkpt>
      <trkpt lat="44.9583180" lon="6.8650920">
        <ele>2049.4</ele>
        <time>2017-07-28T14:59:54Z</time>
      </trkpt>
      <trkpt lat="44.9581960" lon="6.8651600">
        <ele>2048.0</ele>
        <time>2017-07-28T14:59:56Z</time>
      </trkpt>
      <trkpt lat="44.9581370" lon="6.8651920">
        <ele>2047.6</ele>
        <time>2017-07-28T14:59:57Z</time>
      </trkpt>
      <trkpt lat="44.9580700" lon="6.8652250">
        <ele>2046.8</ele>
        <time>2017-07-28T14:59:58Z</time>
      </trkpt>
      <trkpt lat="44.9579320" lon="6.8652640">
        <ele>2045.8</ele>
        <time>2017-07-28T15:00:00Z</time>
      </trkpt>
      <trkpt lat="44.9577390" lon="6.8653020">
        <ele>2044.6</ele>
        <time>2017-07-28T15:00:03Z</time>
      </trkpt>
      <trkpt lat="44.9576740" lon="6.8653030">
        <ele>2044.4</ele>
        <time>2017-07-28T15:00:04Z</time>
      </trkpt>
      <trkpt lat="44.9574860" lon="6.8653390">
        <ele>2043.6</ele>
        <time>2017-07-28T15:00:07Z</time>
      </trkpt>
      <trkpt lat="44.9573700" lon="6.8653720">
        <ele>2043.6</ele>
        <time>2017-07-28T15:00:09Z</time>
      </trkpt>
      <trkpt lat="44.9572030" lon="6.8655160">
        <ele>2043.4</ele>
        <time>2017-07-28T15:00:13Z</time>
      </trkpt>
      <trkpt lat="44.9571370" lon="6.8657850">
        <ele>2043.6</ele>
        <time>2017-07-28T15:00:17Z</time>
      </trkpt>
      <trkpt lat="44.9571310" lon="6.8658570">
        <ele>2043.8</ele>
        <time>2017-07-28T15:00:18Z</time>
      </trkpt>
      <trkpt lat="44.9571250" lon="6.8659260">
        <ele>2044.0</ele>
        <time>2017-07-28T15:00:19Z</time>
      </trkpt>
      <trkpt lat="44.9570730" lon="6.8662050">
        <ele>2044.6</ele>
        <time>2017-07-28T15:00:23Z</time>
      </trkpt>
      <trkpt lat="44.9569840" lon="6.8665480">
        <ele>2044.8</ele>
        <time>2017-07-28T15:00:28Z</time>
      </trkpt>
      <trkpt lat="44.9569400" lon="6.8666790">
        <ele>2045.0</ele>
        <time>2017-07-28T15:00:30Z</time>
      </trkpt>
      <trkpt lat="44.9568960" lon="6.8667960">
        <ele>2044.6</ele>
        <time>2017-07-28T15:00:32Z</time>
      </trkpt>
      <trkpt lat="44.9568220" lon="6.8669560">
        <ele>2044.6</ele>
        <time>2017-07-28T15:00:35Z</time>
      </trkpt>
      <trkpt lat="44.9566660" lon="6.8672210">
        <ele>2044.6</ele>
        <time>2017-07-28T15:00:40Z</time>
      </trkpt>
      <trkpt lat="44.9565900" lon="6.8673130">
        <ele>2044.6</ele>
        <time>2017-07-28T15:00:42Z</time>
      </trkpt>
      <trkpt lat="44.9564600" lon="6.8675150">
        <ele>2044.2</ele>
        <time>2017-07-28T15:00:46Z</time>
      </trkpt>
      <trkpt lat="44.9564140" lon="6.8676350">
        <ele>2044.2</ele>
        <time>2017-07-28T15:00:48Z</time>
      </trkpt>
      <trkpt lat="44.9563640" lon="6.8678390">
        <ele>2044.4</ele>
        <time>2017-07-28T15:00:51Z</time>
      </trkpt>
      <trkpt lat="44.9563630" lon="6.8679100">
        <ele>2044.6</ele>
        <time>2017-07-28T15:00:52Z</time>
      </trkpt>
      <trkpt lat="44.9563660" lon="6.8679730">
        <ele>2044.8</ele>
        <time>2017-07-28T15:00:53Z</time>
      </trkpt>
      <trkpt lat="44.9564060" lon="6.8681590">
        <ele>2045.8</ele>
        <time>2017-07-28T15:00:56Z</time>
      </trkpt>
      <trkpt lat="44.9564210" lon="6.8682160">
        <ele>2046.2</ele>
        <time>2017-07-28T15:00:57Z</time>
      </trkpt>
      <trkpt lat="44.9564520" lon="6.8683300">
        <ele>2046.8</ele>
        <time>2017-07-28T15:00:59Z</time>
      </trkpt>
      <trkpt lat="44.9564930" lon="6.8685070">
        <ele>2047.8</ele>
        <time>2017-07-28T15:01:02Z</time>
      </trkpt>
      <trkpt lat="44.9565410" lon="6.8687030">
        <ele>2049.0</ele>
        <time>2017-07-28T15:01:05Z</time>
      </trkpt>
      <trkpt lat="44.9565920" lon="6.8689050">
        <ele>2050.0</ele>
        <time>2017-07-28T15:01:08Z</time>
      </trkpt>
      <trkpt lat="44.9566630" lon="6.8691640">
        <ele>2051.0</ele>
        <time>2017-07-28T15:01:12Z</time>
      </trkpt>
      <trkpt lat="44.9567220" lon="6.8693620">
        <ele>2052.0</ele>
        <time>2017-07-28T15:01:15Z</time>
      </trkpt>
      <trkpt lat="44.9567480" lon="6.8694270">
        <ele>2052.2</ele>
        <time>2017-07-28T15:01:16Z</time>
      </trkpt>
      <trkpt lat="44.9568590" lon="6.8696900">
        <ele>2053.6</ele>
        <time>2017-07-28T15:01:20Z</time>
      </trkpt>
      <trkpt lat="44.9568930" lon="6.8697560">
        <ele>2054.0</ele>
        <time>2017-07-28T15:01:21Z</time>
      </trkpt>
      <trkpt lat="44.9570350" lon="6.8700350">
        <ele>2054.8</ele>
        <time>2017-07-28T15:01:25Z</time>
      </trkpt>
      <trkpt lat="44.9571520" lon="6.8702450">
        <ele>2055.6</ele>
        <time>2017-07-28T15:01:28Z</time>
      </trkpt>
      <trkpt lat="44.9572780" lon="6.8704490">
        <ele>2056.0</ele>
        <time>2017-07-28T15:01:31Z</time>
      </trkpt>
      <trkpt lat="44.9574650" lon="6.8707270">
        <ele>2056.4</ele>
        <time>2017-07-28T15:01:35Z</time>
      </trkpt>
      <trkpt lat="44.9577760" lon="6.8711450">
        <ele>2057.0</ele>
        <time>2017-07-28T15:01:41Z</time>
      </trkpt>
      <trkpt lat="44.9578710" lon="6.8712970">
        <ele>2057.0</ele>
        <time>2017-07-28T15:01:43Z</time>
      </trkpt>
      <trkpt lat="44.9580820" lon="6.8717290">
        <ele>2057.4</ele>
        <time>2017-07-28T15:01:48Z</time>
      </trkpt>
      <trkpt lat="44.9581990" lon="6.8719890">
        <ele>2057.2</ele>
        <time>2017-07-28T15:01:51Z</time>
      </trkpt>
      <trkpt lat="44.9585480" lon="6.8726700">
        <ele>2057.2</ele>
        <time>2017-07-28T15:01:59Z</time>
      </trkpt>
      <trkpt lat="44.9585960" lon="6.8727530">
        <ele>2057.2</ele>
        <time>2017-07-28T15:02:00Z</time>
      </trkpt>
      <trkpt lat="44.9589060" lon="6.8733900">
        <ele>2057.2</ele>
        <time>2017-07-28T15:02:07Z</time>
      </trkpt>
      <trkpt lat="44.9589470" lon="6.8734890">
        <ele>2057.0</ele>
        <time>2017-07-28T15:02:08Z</time>
      </trkpt>
      <trkpt lat="44.9591870" lon="6.8742120">
        <ele>2056.6</ele>
        <time>2017-07-28T15:02:15Z</time>
      </trkpt>
      <trkpt lat="44.9592190" lon="6.8743120">
        <ele>2056.6</ele>
        <time>2017-07-28T15:02:16Z</time>
      </trkpt>
      <trkpt lat="44.9594290" lon="6.8750260">
        <ele>2057.0</ele>
        <time>2017-07-28T15:02:23Z</time>
      </trkpt>
      <trkpt lat="44.9594650" lon="6.8751190">
        <ele>2057.0</ele>
        <time>2017-07-28T15:02:24Z</time>
      </trkpt>
      <trkpt lat="44.9596930" lon="6.8755300">
        <ele>2057.2</ele>
        <time>2017-07-28T15:02:29Z</time>
      </trkpt>
      <trkpt lat="44.9599160" lon="6.8759880">
        <ele>2057.4</ele>
        <time>2017-07-28T15:02:34Z</time>
      </trkpt>
      <trkpt lat="44.9600270" lon="6.8763570">
        <ele>2057.2</ele>
        <time>2017-07-28T15:02:37Z</time>
      </trkpt>
      <trkpt lat="44.9600390" lon="6.8764990">
        <ele>2057.0</ele>
        <time>2017-07-28T15:02:38Z</time>
      </trkpt>
      <trkpt lat="44.9599930" lon="6.8767700">
        <ele>2056.4</ele>
        <time>2017-07-28T15:02:40Z</time>
      </trkpt>
      <trkpt lat="44.9599350" lon="6.8768940">
        <ele>2055.8</ele>
        <time>2017-07-28T15:02:41Z</time>
      </trkpt>
      <trkpt lat="44.9598550" lon="6.8770020">
        <ele>2055.4</ele>
        <time>2017-07-28T15:02:42Z</time>
      </trkpt>
      <trkpt lat="44.9596660" lon="6.8771810">
        <ele>2054.4</ele>
        <time>2017-07-28T15:02:44Z</time>
      </trkpt>
      <trkpt lat="44.9594720" lon="6.8773500">
        <ele>2053.2</ele>
        <time>2017-07-28T15:02:46Z</time>
      </trkpt>
      <trkpt lat="44.9591970" lon="6.8775760">
        <ele>2051.8</ele>
        <time>2017-07-28T15:02:49Z</time>
      </trkpt>
      <trkpt lat="44.9591200" lon="6.8776660">
        <ele>2051.2</ele>
        <time>2017-07-28T15:02:50Z</time>
      </trkpt>
      <trkpt lat="44.9590560" lon="6.8777690">
        <ele>2050.6</ele>
        <time>2017-07-28T15:02:51Z</time>
      </trkpt>
      <trkpt lat="44.9590170" lon="6.8778850">
        <ele>2050.2</ele>
        <time>2017-07-28T15:02:52Z</time>
      </trkpt>
      <trkpt lat="44.9590310" lon="6.8781090">
        <ele>2049.4</ele>
        <time>2017-07-28T15:02:54Z</time>
      </trkpt>
      <trkpt lat="44.9591750" lon="6.8783560">
        <ele>2048.4</ele>
        <time>2017-07-28T15:02:57Z</time>
      </trkpt>
      <trkpt lat="44.9592180" lon="6.8785370">
        <ele>2047.8</ele>
        <time>2017-07-28T15:02:59Z</time>
      </trkpt>
      <trkpt lat="44.9592150" lon="6.8787120">
        <ele>2048.0</ele>
        <time>2017-07-28T15:03:01Z</time>
      </trkpt>
      <trkpt lat="44.9592030" lon="6.8788660">
        <ele>2048.4</ele>
        <time>2017-07-28T15:03:03Z</time>
      </trkpt>
      <trkpt lat="44.9591940" lon="6.8789420">
        <ele>2048.4</ele>
        <time>2017-07-28T15:03:04Z</time>
      </trkpt>
      <trkpt lat="44.9590930" lon="6.8791240">
        <ele>2048.2</ele>
        <time>2017-07-28T15:03:07Z</time>
      </trkpt>
      <trkpt lat="44.9587910" lon="6.8789790">
        <ele>2047.8</ele>
        <time>2017-07-28T15:03:10Z</time>
      </trkpt>
      <trkpt lat="44.9586830" lon="6.8789140">
        <ele>2047.6</ele>
        <time>2017-07-28T15:03:11Z</time>
      </trkpt>
      <trkpt lat="44.9586200" lon="6.8788600">
        <ele>2047.4</ele>
        <time>2017-07-28T15:03:12Z</time>
      </trkpt>
      <trkpt lat="44.9585780" lon="6.8787940">
        <ele>2046.8</ele>
        <time>2017-07-28T15:03:13Z</time>
      </trkpt>
      <trkpt lat="44.9585120" lon="6.8787150">
        <ele>2046.0</ele>
        <time>2017-07-28T15:03:15Z</time>
      </trkpt>
      <trkpt lat="44.9584800" lon="6.8787230">
        <ele>2045.8</ele>
        <time>2017-07-28T15:03:16Z</time>
      </trkpt>
      <trkpt lat="44.9584540" lon="6.8788100">
        <ele>2045.4</ele>
        <time>2017-07-28T15:03:19Z</time>
      </trkpt>
      <trkpt lat="44.9584720" lon="6.8788110">
        <ele>2044.8</ele>
        <time>2017-07-28T15:03:20Z</time>
      </trkpt>
      <trkpt lat="44.9585020" lon="6.8787730">
        <ele>2043.8</ele>
        <time>2017-07-28T15:03:22Z</time>
      </trkpt>
      <trkpt lat="44.9585150" lon="6.8787500">
        <ele>2043.6</ele>
        <time>2017-07-28T15:03:23Z</time>
      </trkpt>
      <trkpt lat="44.9585310" lon="6.8787100">
        <ele>2043.0</ele>
        <time>2017-07-28T15:03:25Z</time>
      </trkpt>
      <trkpt lat="44.9585390" lon="6.8786640">
        <ele>2042.2</ele>
        <time>2017-07-28T15:03:27Z</time>
      </trkpt>
      <trkpt lat="44.9585480" lon="6.8786460">
        <ele>2042.0</ele>
        <time>2017-07-28T15:03:28Z</time>
      </trkpt>
      <trkpt lat="44.9593610" lon="6.8778210">
        <ele>2046.0</ele>
        <time>2017-07-29T06:22:31Z</time>
      </trkpt>
      <trkpt lat="44.9593050" lon="6.8779100">
        <ele>2046.2</ele>
        <time>2017-07-29T06:27:26Z</time>
      </trkpt>
      <trkpt lat="44.9592920" lon="6.8779290">
        <ele>2046.2</ele>
        <time>2017-07-29T06:27:27Z</time>
      </trkpt>
      <trkpt lat="44.9592530" lon="6.8779680">
        <ele>2046.2</ele>
        <time>2017-07-29T06:27:28Z</time>
      </trkpt>
      <trkpt lat="44.9590670" lon="6.8779570">
        <ele>2046.6</ele>
        <time>2017-07-29T06:27:32Z</time>
      </trkpt>
      <trkpt lat="44.9589480" lon="6.8778220">
        <ele>2047.0</ele>
        <time>2017-07-29T06:27:35Z</time>
      </trkpt>
      <trkpt lat="44.9588920" lon="6.8778260">
        <ele>2047.2</ele>
        <time>2017-07-29T06:27:36Z</time>
      </trkpt>
      <trkpt lat="44.9587920" lon="6.8779170">
        <ele>2047.2</ele>
        <time>2017-07-29T06:27:38Z</time>
      </trkpt>
      <trkpt lat="44.9587420" lon="6.8779580">
        <ele>2047.4</ele>
        <time>2017-07-29T06:27:39Z</time>
      </trkpt>
      <trkpt lat="44.9586860" lon="6.8779660">
        <ele>2047.6</ele>
        <time>2017-07-29T06:27:40Z</time>
      </trkpt>
      <trkpt lat="44.9586050" lon="6.8779180">
        <ele>2048.0</ele>
        <time>2017-07-29T06:27:42Z</time>
      </trkpt>
      <trkpt lat="44.9585860" lon="6.8778500">
        <ele>2048.2</ele>
        <time>2017-07-29T06:27:43Z</time>
      </trkpt>
      <trkpt lat="44.9585710" lon="6.8777750">
        <ele>2048.4</ele>
        <time>2017-07-29T06:27:44Z</time>
      </trkpt>
      <trkpt lat="44.9585490" lon="6.8777010">
        <ele>2048.6</ele>
        <time>2017-07-29T06:27:45Z</time>
      </trkpt>
      <trkpt lat="44.9584270" lon="6.8773900">
        <ele>2049.2</ele>
        <time>2017-07-29T06:27:49Z</time>
      </trkpt>
      <trkpt lat="44.9583880" lon="6.8773090">
        <ele>2050.0</ele>
        <time>2017-07-29T06:27:50Z</time>
      </trkpt>
      <trkpt lat="44.9583380" lon="6.8772410">
        <ele>2050.0</ele>
        <time>2017-07-29T06:27:51Z</time>
      </trkpt>
      <trkpt lat="44.9581930" lon="6.8771480">
        <ele>2049.0</ele>
        <time>2017-07-29T06:27:53Z</time>
      </trkpt>
      <trkpt lat="44.9581040" lon="6.8771480">
        <ele>2048.8</ele>
        <time>2017-07-29T06:27:54Z</time>
      </trkpt>
      <trkpt lat="44.9580160" lon="6.8771920">
        <ele>2048.6</ele>
        <time>2017-07-29T06:27:55Z</time>
      </trkpt>
      <trkpt lat="44.9578750" lon="6.8774100">
        <ele>2048.0</ele>
        <time>2017-07-29T06:27:57Z</time>
      </trkpt>
      <trkpt lat="44.9578080" lon="6.8774980">
        <ele>2047.6</ele>
        <time>2017-07-29T06:27:58Z</time>
      </trkpt>
      <trkpt lat="44.9575530" lon="6.8776130">
        <ele>2046.4</ele>
        <time>2017-07-29T06:28:01Z</time>
      </trkpt>
      <trkpt lat="44.9573610" lon="6.8774960">
        <ele>2045.2</ele>
        <time>2017-07-29T06:28:03Z</time>
      </trkpt>
      <trkpt lat="44.9572660" lon="6.8774370">
        <ele>2044.6</ele>
        <time>2017-07-29T06:28:04Z</time>
      </trkpt>
      <trkpt lat="44.9571830" lon="6.8773740">
        <ele>2044.0</ele>
        <time>2017-07-29T06:28:05Z</time>
      </trkpt>
      <trkpt lat="44.9571200" lon="6.8773050">
        <ele>2043.2</ele>
        <time>2017-07-29T06:28:06Z</time>
      </trkpt>
      <trkpt lat="44.9570660" lon="6.8772350">
        <ele>2042.4</ele>
        <time>2017-07-29T06:28:07Z</time>
      </trkpt>
      <trkpt lat="44.9570590" lon="6.8770410">
        <ele>2041.2</ele>
        <time>2017-07-29T06:28:09Z</time>
      </trkpt>
      <trkpt lat="44.9570580" lon="6.8768300">
        <ele>2039.8</ele>
        <time>2017-07-29T06:28:11Z</time>
      </trkpt>
      <trkpt lat="44.9570430" lon="6.8767160">
        <ele>2039.0</ele>
        <time>2017-07-29T06:28:12Z</time>
      </trkpt>
      <trkpt lat="44.9570210" lon="6.8765850">
        <ele>2038.4</ele>
        <time>2017-07-29T06:28:13Z</time>
      </trkpt>
      <trkpt lat="44.9569970" lon="6.8764480">
        <ele>2037.0</ele>
        <time>2017-07-29T06:28:14Z</time>
      </trkpt>
      <trkpt lat="44.9569350" lon="6.8761650">
        <ele>2035.6</ele>
        <time>2017-07-29T06:28:16Z</time>
      </trkpt>
      <trkpt lat="44.9568640" lon="6.8758550">
        <ele>2034.0</ele>
        <time>2017-07-29T06:28:18Z</time>
      </trkpt>
      <trkpt lat="44.9567910" lon="6.8755240">
        <ele>2032.4</ele>
        <time>2017-07-29T06:28:20Z</time>
      </trkpt>
      <trkpt lat="44.9567550" lon="6.8753500">
        <ele>2031.6</ele>
        <time>2017-07-29T06:28:21Z</time>
      </trkpt>
      <trkpt lat="44.9567130" lon="6.8751780">
        <ele>2030.8</ele>
        <time>2017-07-29T06:28:22Z</time>
      </trkpt>
      <trkpt lat="44.9566540" lon="6.8748310">
        <ele>2029.2</ele>
        <time>2017-07-29T06:28:24Z</time>
      </trkpt>
      <trkpt lat="44.9566500" lon="6.8746540">
        <ele>2028.2</ele>
        <time>2017-07-29T06:28:25Z</time>
      </trkpt>
      <trkpt lat="44.9566810" lon="6.8744980">
        <ele>2027.4</ele>
        <time>2017-07-29T06:28:26Z</time>
      </trkpt>
      <trkpt lat="44.9567320" lon="6.8743510">
        <ele>2026.6</ele>
        <time>2017-07-29T06:28:27Z</time>
      </trkpt>
      <trkpt lat="44.9567830" lon="6.8742070">
        <ele>2025.8</ele>
        <time>2017-07-29T06:28:28Z</time>
      </trkpt>
      <trkpt lat="44.9568270" lon="6.8740590">
        <ele>2024.8</ele>
        <time>2017-07-29T06:28:29Z</time>
      </trkpt>
      <trkpt lat="44.9568660" lon="6.8739110">
        <ele>2024.0</ele>
        <time>2017-07-29T06:28:30Z</time>
      </trkpt>
      <trkpt lat="44.9568740" lon="6.8737540">
        <ele>2023.0</ele>
        <time>2017-07-29T06:28:31Z</time>
      </trkpt>
      <trkpt lat="44.9568490" lon="6.8736010">
        <ele>2022.0</ele>
        <time>2017-07-29T06:28:32Z</time>
      </trkpt>
      <trkpt lat="44.9568020" lon="6.8734590">
        <ele>2021.2</ele>
        <time>2017-07-29T06:28:33Z</time>
      </trkpt>
      <trkpt lat="44.9567310" lon="6.8733350">
        <ele>2020.2</ele>
        <time>2017-07-29T06:28:34Z</time>
      </trkpt>
      <trkpt lat="44.9566490" lon="6.8732260">
        <ele>2019.4</ele>
        <time>2017-07-29T06:28:35Z</time>
      </trkpt>
      <trkpt lat="44.9565620" lon="6.8731270">
        <ele>2018.6</ele>
        <time>2017-07-29T06:28:36Z</time>
      </trkpt>
      <trkpt lat="44.9564750" lon="6.8730150">
        <ele>2017.8</ele>
        <time>2017-07-29T06:28:37Z</time>
      </trkpt>
      <trkpt lat="44.9563870" lon="6.8729080">
        <ele>2016.0</ele>
        <time>2017-07-29T06:28:38Z</time>
      </trkpt>
      <trkpt lat="44.9562930" lon="6.8728050">
        <ele>2015.0</ele>
        <time>2017-07-29T06:28:39Z</time>
      </trkpt>
      <trkpt lat="44.9561970" lon="6.8726990">
        <ele>2014.2</ele>
        <time>2017-07-29T06:28:40Z</time>
      </trkpt>
      <trkpt lat="44.9560060" lon="6.8724890">
        <ele>2012.6</ele>
        <time>2017-07-29T06:28:42Z</time>
      </trkpt>
      <trkpt lat="44.9558310" lon="6.8723070">
        <ele>2010.8</ele>
        <time>2017-07-29T06:28:44Z</time>
      </trkpt>
      <trkpt lat="44.9557520" lon="6.8722280">
        <ele>2010.2</ele>
        <time>2017-07-29T06:28:45Z</time>
      </trkpt>
      <trkpt lat="44.9556840" lon="6.8721770">
        <ele>2009.2</ele>
        <time>2017-07-29T06:28:46Z</time>
      </trkpt>
      <trkpt lat="44.9555710" lon="6.8721810">
        <ele>2007.4</ele>
        <time>2017-07-29T06:28:48Z</time>
      </trkpt>
      <trkpt lat="44.9554880" lon="6.8723240">
        <ele>2005.6</ele>
        <time>2017-07-29T06:28:50Z</time>
      </trkpt>
      <trkpt lat="44.9554570" lon="6.8725500">
        <ele>2003.8</ele>
        <time>2017-07-29T06:28:52Z</time>
      </trkpt>
      <trkpt lat="44.9554270" lon="6.8726780">
        <ele>2002.8</ele>
        <time>2017-07-29T06:28:53Z</time>
      </trkpt>
      <trkpt lat="44.9553860" lon="6.8728130">
        <ele>2002.0</ele>
        <time>2017-07-29T06:28:54Z</time>
      </trkpt>
      <trkpt lat="44.9552840" lon="6.8730730">
        <ele>2000.0</ele>
        <time>2017-07-29T06:28:56Z</time>
      </trkpt>
      <trkpt lat="44.9551720" lon="6.8733320">
        <ele>1998.4</ele>
        <time>2017-07-29T06:28:58Z</time>
      </trkpt>
      <trkpt lat="44.9550760" lon="6.8735500">
        <ele>1997.0</ele>
        <time>2017-07-29T06:29:00Z</time>
      </trkpt>
      <trkpt lat="44.9550290" lon="6.8736520">
        <ele>1996.4</ele>
        <time>2017-07-29T06:29:01Z</time>
      </trkpt>
      <trkpt lat="44.9549800" lon="6.8737520">
        <ele>1995.6</ele>
        <time>2017-07-29T06:29:02Z</time>
      </trkpt>
      <trkpt lat="44.9548460" lon="6.8740410">
        <ele>1994.4</ele>
        <time>2017-07-29T06:29:05Z</time>
      </trkpt>
      <trkpt lat="44.9547210" lon="6.8743220">
        <ele>1993.4</ele>
        <time>2017-07-29T06:29:08Z</time>
      </trkpt>
      <trkpt lat="44.9546290" lon="6.8744890">
        <ele>1993.2</ele>
        <time>2017-07-29T06:29:10Z</time>
      </trkpt>
      <trkpt lat="44.9544380" lon="6.8748130">
        <ele>1992.6</ele>
        <time>2017-07-29T06:29:14Z</time>
      </trkpt>
      <trkpt lat="44.9542700" lon="6.8749940">
        <ele>1992.4</ele>
        <time>2017-07-29T06:29:17Z</time>
      </trkpt>
      <trkpt lat="44.9542250" lon="6.8750060">
        <ele>1992.4</ele>
        <time>2017-07-29T06:29:18Z</time>
      </trkpt>
      <trkpt lat="44.9541830" lon="6.8749460">
        <ele>1992.6</ele>
        <time>2017-07-29T06:29:20Z</time>
      </trkpt>
      <trkpt lat="44.9541590" lon="6.8748760">
        <ele>1992.6</ele>
        <time>2017-07-29T06:29:22Z</time>
      </trkpt>
      <trkpt lat="44.9541370" lon="6.8747500">
        <ele>1992.4</ele>
        <time>2017-07-29T06:29:25Z</time>
      </trkpt>
      <trkpt lat="44.9540840" lon="6.8746080">
        <ele>1992.4</ele>
        <time>2017-07-29T06:29:28Z</time>
      </trkpt>
      <trkpt lat="44.9540360" lon="6.8745640">
        <ele>1992.4</ele>
        <time>2017-07-29T06:29:29Z</time>
      </trkpt>
      <trkpt lat="44.9538310" lon="6.8744610">
        <ele>1992.2</ele>
        <time>2017-07-29T06:29:33Z</time>
      </trkpt>
      <trkpt lat="44.9538070" lon="6.8744080">
        <ele>1992.2</ele>
        <time>2017-07-29T06:29:34Z</time>
      </trkpt>
      <trkpt lat="44.9538100" lon="6.8743460">
        <ele>1992.2</ele>
        <time>2017-07-29T06:29:35Z</time>
      </trkpt>
      <trkpt lat="44.9538330" lon="6.8742730">
        <ele>1992.6</ele>
        <time>2017-07-29T06:29:38Z</time>
      </trkpt>
      <trkpt lat="44.9764830" lon="6.8606140">
        <ele>2660.8</ele>
        <time>2017-07-29T06:43:05Z</time>
      </trkpt>
      <trkpt lat="44.9764750" lon="6.8606650">
        <ele>2660.6</ele>
        <time>2017-07-29T06:43:06Z</time>
      </trkpt>
      <trkpt lat="44.9764280" lon="6.8609760">
        <ele>2660.6</ele>
        <time>2017-07-29T06:43:10Z</time>
      </trkpt>
      <trkpt lat="44.9762820" lon="6.8612450">
        <ele>2660.4</ele>
        <time>2017-07-29T06:43:13Z</time>
      </trkpt>
      <trkpt lat="44.9762320" lon="6.8613490">
        <ele>2660.0</ele>
        <time>2017-07-29T06:43:14Z</time>
      </trkpt>
      <trkpt lat="44.9761780" lon="6.8614560">
        <ele>2659.6</ele>
        <time>2017-07-29T06:43:15Z</time>
      </trkpt>
      <trkpt lat="44.9761230" lon="6.8615620">
        <ele>2659.4</ele>
        <time>2017-07-29T06:43:16Z</time>
      </trkpt>
      <trkpt lat="44.9760280" lon="6.8617560">
        <ele>2658.2</ele>
        <time>2017-07-29T06:43:18Z</time>
      </trkpt>
      <trkpt lat="44.9759840" lon="6.8618220">
        <ele>2657.8</ele>
        <time>2017-07-29T06:43:19Z</time>
      </trkpt>
      <trkpt lat="44.9759440" lon="6.8618620">
        <ele>2657.2</ele>
        <time>2017-07-29T06:43:20Z</time>
      </trkpt>
      <trkpt lat="44.9758650" lon="6.8618720">
        <ele>2656.0</ele>
        <time>2017-07-29T06:43:22Z</time>
      </trkpt>
      <trkpt lat="44.9758330" lon="6.8618920">
        <ele>2655.4</ele>
        <time>2017-07-29T06:43:23Z</time>
      </trkpt>
      <trkpt lat="44.9758080" lon="6.8619420">
        <ele>2654.6</ele>
        <time>2017-07-29T06:43:24Z</time>
      </trkpt>
      <trkpt lat="44.9757730" lon="6.8620030">
        <ele>2654.0</ele>
        <time>2017-07-29T06:43:25Z</time>
      </trkpt>
      <trkpt lat="44.9757200" lon="6.8620630">
        <ele>2653.0</ele>
        <time>2017-07-29T06:43:26Z</time>
      </trkpt>
      <trkpt lat="44.9756550" lon="6.8621230">
        <ele>2651.4</ele>
        <time>2017-07-29T06:43:27Z</time>
      </trkpt>
      <trkpt lat="44.9755880" lon="6.8621930">
        <ele>2650.6</ele>
        <time>2017-07-29T06:43:28Z</time>
      </trkpt>
      <trkpt lat="44.9755120" lon="6.8622660">
        <ele>2649.8</ele>
        <time>2017-07-29T06:43:29Z</time>
      </trkpt>
      <trkpt lat="44.9754340" lon="6.8623400">
        <ele>2648.8</ele>
        <time>2017-07-29T06:43:30Z</time>
      </trkpt>
      <trkpt lat="44.9753520" lon="6.8624060">
        <ele>2648.0</ele>
        <time>2017-07-29T06:43:31Z</time>
      </trkpt>
      <trkpt lat="44.9752670" lon="6.8624700">
        <ele>2647.0</ele>
        <time>2017-07-29T06:43:32Z</time>
      </trkpt>
      <trkpt lat="44.9751780" lon="6.8625250">
        <ele>2646.2</ele>
        <time>2017-07-29T06:43:33Z</time>
      </trkpt>
      <trkpt lat="44.9750860" lon="6.8625750">
        <ele>2645.6</ele>
        <time>2017-07-29T06:43:34Z</time>
      </trkpt>
      <trkpt lat="44.9749120" lon="6.8626360">
        <ele>2643.8</ele>
        <time>2017-07-29T06:43:36Z</time>
      </trkpt>
      <trkpt lat="44.9747380" lon="6.8626570">
        <ele>2642.0</ele>
        <time>2017-07-29T06:43:38Z</time>
      </trkpt>
      <trkpt lat="44.9746520" lon="6.8626800">
        <ele>2641.2</ele>
        <time>2017-07-29T06:43:39Z</time>
      </trkpt>
      <trkpt lat="44.9745640" lon="6.8627020">
        <ele>2639.8</ele>
        <time>2017-07-29T06:43:40Z</time>
      </trkpt>
      <trkpt lat="44.9744680" lon="6.8627160">
        <ele>2638.6</ele>
        <time>2017-07-29T06:43:41Z</time>
      </trkpt>
      <trkpt lat="44.9743710" lon="6.8627310">
        <ele>2637.4</ele>
        <time>2017-07-29T06:43:42Z</time>
      </trkpt>
      <trkpt lat="44.9741690" lon="6.8628050">
        <ele>2635.4</ele>
        <time>2017-07-29T06:43:44Z</time>
      </trkpt>
      <trkpt lat="44.9740730" lon="6.8628640">
        <ele>2634.2</ele>
        <time>2017-07-29T06:43:45Z</time>
      </trkpt>
      <trkpt lat="44.9739800" lon="6.8629270">
        <ele>2632.8</ele>
        <time>2017-07-29T06:43:46Z</time>
      </trkpt>
      <trkpt lat="44.9738860" lon="6.8629880">
        <ele>2631.6</ele>
        <time>2017-07-29T06:43:47Z</time>
      </trkpt>
      <trkpt lat="44.9737260" lon="6.8631060">
        <ele>2629.8</ele>
        <time>2017-07-29T06:43:49Z</time>
      </trkpt>
      <trkpt lat="44.9736760" lon="6.8631730">
        <ele>2629.0</ele>
        <time>2017-07-29T06:43:50Z</time>
      </trkpt>
      <trkpt lat="44.9736410" lon="6.8632440">
        <ele>2626.2</ele>
        <time>2017-07-29T06:43:51Z</time>
      </trkpt>
      <trkpt lat="44.9736160" lon="6.8633170">
        <ele>2625.0</ele>
        <time>2017-07-29T06:43:52Z</time>
      </trkpt>
      <trkpt lat="44.9735940" lon="6.8633940">
        <ele>2624.2</ele>
        <time>2017-07-29T06:43:53Z</time>
      </trkpt>
      <trkpt lat="44.9735660" lon="6.8634870">
        <ele>2623.2</ele>
        <time>2017-07-29T06:43:54Z</time>
      </trkpt>
      <trkpt lat="44.9735370" lon="6.8635940">
        <ele>2622.2</ele>
        <time>2017-07-29T06:43:55Z</time>
      </trkpt>
      <trkpt lat="44.9735060" lon="6.8636980">
        <ele>2621.4</ele>
        <time>2017-07-29T06:43:56Z</time>
      </trkpt>
      <trkpt lat="44.9734620" lon="6.8637930">
        <ele>2620.4</ele>
        <time>2017-07-29T06:43:57Z</time>
      </trkpt>
      <trkpt lat="44.9734110" lon="6.8638730">
        <ele>2619.4</ele>
        <time>2017-07-29T06:43:58Z</time>
      </trkpt>
      <trkpt lat="44.9733640" lon="6.8639460">
        <ele>2618.2</ele>
        <time>2017-07-29T06:43:59Z</time>
      </trkpt>
      <trkpt lat="44.9733190" lon="6.8640140">
        <ele>2617.2</ele>
        <time>2017-07-29T06:44:00Z</time>
      </trkpt>
      <trkpt lat="44.9732860" lon="6.8640780">
        <ele>2615.8</ele>
        <time>2017-07-29T06:44:01Z</time>
      </trkpt>
      <trkpt lat="44.9732680" lon="6.8641390">
        <ele>2614.6</ele>
        <time>2017-07-29T06:44:02Z</time>
      </trkpt>
      <trkpt lat="44.9732520" lon="6.8641920">
        <ele>2613.2</ele>
        <time>2017-07-29T06:44:03Z</time>
      </trkpt>
      <trkpt lat="44.9732250" lon="6.8642220">
        <ele>2612.0</ele>
        <time>2017-07-29T06:44:04Z</time>
      </trkpt>
      <trkpt lat="44.9731840" lon="6.8642230">
        <ele>2610.8</ele>
        <time>2017-07-29T06:44:05Z</time>
      </trkpt>
      <trkpt lat="44.9731070" lon="6.8641440">
        <ele>2609.0</ele>
        <time>2017-07-29T06:44:07Z</time>
      </trkpt>
      <trkpt lat="44.9730750" lon="6.8641000">
        <ele>2608.0</ele>
        <time>2017-07-29T06:44:08Z</time>
      </trkpt>
      <trkpt lat="44.9730370" lon="6.8640900">
        <ele>2606.6</ele>
        <time>2017-07-29T06:44:09Z</time>
      </trkpt>
      <trkpt lat="44.9729980" lon="6.8641160">
        <ele>2605.4</ele>
        <time>2017-07-29T06:44:10Z</time>
      </trkpt>
      <trkpt lat="44.9729720" lon="6.8641580">
        <ele>2604.0</ele>
        <time>2017-07-29T06:44:11Z</time>
      </trkpt>
      <trkpt lat="44.9729590" lon="6.8642090">
        <ele>2602.6</ele>
        <time>2017-07-29T06:44:12Z</time>
      </trkpt>
      <trkpt lat="44.9729380" lon="6.8642500">
        <ele>2601.4</ele>
        <time>2017-07-29T06:44:13Z</time>
      </trkpt>
      <trkpt lat="44.9729040" lon="6.8642680">
        <ele>2600.0</ele>
        <time>2017-07-29T06:44:14Z</time>
      </trkpt>
      <trkpt lat="44.9728610" lon="6.8642710">
        <ele>2597.8</ele>
        <time>2017-07-29T06:44:15Z</time>
      </trkpt>
      <trkpt lat="44.9728120" lon="6.8642600">
        <ele>2596.8</ele>
        <time>2017-07-29T06:44:16Z</time>
      </trkpt>
      <trkpt lat="44.9727620" lon="6.8642480">
        <ele>2595.6</ele>
        <time>2017-07-29T06:44:17Z</time>
      </trkpt>
      <trkpt lat="44.9727190" lon="6.8642280">
        <ele>2594.6</ele>
        <time>2017-07-29T06:44:18Z</time>
      </trkpt>
      <trkpt lat="44.9726860" lon="6.8641960">
        <ele>2593.6</ele>
        <time>2017-07-29T06:44:19Z</time>
      </trkpt>
      <trkpt lat="44.9726590" lon="6.8641560">
        <ele>2592.4</ele>
        <time>2017-07-29T06:44:20Z</time>
      </trkpt>
      <trkpt lat="44.9726330" lon="6.8641100">
        <ele>2591.2</ele>
        <time>2017-07-29T06:44:21Z</time>
      </trkpt>
      <trkpt lat="44.9726030" lon="6.8640700">
        <ele>2590.2</ele>
        <time>2017-07-29T06:44:22Z</time>
      </trkpt>
      <trkpt lat="44.9725580" lon="6.8640510">
        <ele>2589.2</ele>
        <time>2017-07-29T06:44:23Z</time>
      </trkpt>
      <trkpt lat="44.9724950" lon="6.8640410">
        <ele>2587.8</ele>
        <time>2017-07-29T06:44:24Z</time>
      </trkpt>
      <trkpt lat="44.9724150" lon="6.8640360">
        <ele>2586.6</ele>
        <time>2017-07-29T06:44:25Z</time>
      </trkpt>
      <trkpt lat="44.9723260" lon="6.8640400">
        <ele>2585.6</ele>
        <time>2017-07-29T06:44:26Z</time>
      </trkpt>
      <trkpt lat="44.9722340" lon="6.8640440">
        <ele>2584.6</ele>
        <time>2017-07-29T06:44:27Z</time>
      </trkpt>
      <trkpt lat="44.9721430" lon="6.8640460">
        <ele>2583.6</ele>
        <time>2017-07-29T06:44:28Z</time>
      </trkpt>
      <trkpt lat="44.9719890" lon="6.8640680">
        <ele>2581.4</ele>
        <time>2017-07-29T06:44:30Z</time>
      </trkpt>
      <trkpt lat="44.9719190" lon="6.8640970">
        <ele>2580.4</ele>
        <time>2017-07-29T06:44:31Z</time>
      </trkpt>
      <trkpt lat="44.9718490" lon="6.8641270">
        <ele>2579.0</ele>
        <time>2017-07-29T06:44:32Z</time>
      </trkpt>
      <trkpt lat="44.9717830" lon="6.8641490">
        <ele>2577.8</ele>
        <time>2017-07-29T06:44:33Z</time>
      </trkpt>
      <trkpt lat="44.9717250" lon="6.8641680">
        <ele>2576.6</ele>
        <time>2017-07-29T06:44:34Z</time>
      </trkpt>
      <trkpt lat="44.9716770" lon="6.8641930">
        <ele>2575.4</ele>
        <time>2017-07-29T06:44:35Z</time>
      </trkpt>
      <trkpt lat="44.9716540" lon="6.8642400">
        <ele>2574.2</ele>
        <time>2017-07-29T06:44:36Z</time>
      </trkpt>
      <trkpt lat="44.9716560" lon="6.8643010">
        <ele>2572.8</ele>
        <time>2017-07-29T06:44:37Z</time>
      </trkpt>
      <trkpt lat="44.9716810" lon="6.8643610">
        <ele>2571.4</ele>
        <time>2017-07-29T06:44:38Z</time>
      </trkpt>
      <trkpt lat="44.9717280" lon="6.8644180">
        <ele>2568.8</ele>
        <time>2017-07-29T06:44:39Z</time>
      </trkpt>
      <trkpt lat="44.9717850" lon="6.8644860">
        <ele>2567.4</ele>
        <time>2017-07-29T06:44:40Z</time>
      </trkpt>
      <trkpt lat="44.9718410" lon="6.8645700">
        <ele>2565.8</ele>
        <time>2017-07-29T06:44:41Z</time>
      </trkpt>
      <trkpt lat="44.9718960" lon="6.8646600">
        <ele>2564.4</ele>
        <time>2017-07-29T06:44:42Z</time>
      </trkpt>
      <trkpt lat="44.9719490" lon="6.8647410">
        <ele>2562.8</ele>
        <time>2017-07-29T06:44:43Z</time>
      </trkpt>
      <trkpt lat="44.9720020" lon="6.8647990">
        <ele>2561.2</ele>
        <time>2017-07-29T06:44:44Z</time>
      </trkpt>
      <trkpt lat="44.9720360" lon="6.8648530">
        <ele>2559.8</ele>
        <time>2017-07-29T06:44:45Z</time>
      </trkpt>
      <trkpt lat="44.9720360" lon="6.8649070">
        <ele>2558.4</ele>
        <time>2017-07-29T06:44:46Z</time>
      </trkpt>
      <trkpt lat="44.9720060" lon="6.8649420">
        <ele>2557.0</ele>
        <time>2017-07-29T06:44:47Z</time>
      </trkpt>
      <trkpt lat="44.9719640" lon="6.8649530">
        <ele>2555.6</ele>
        <time>2017-07-29T06:44:48Z</time>
      </trkpt>
      <trkpt lat="44.9719150" lon="6.8649480">
        <ele>2554.4</ele>
        <time>2017-07-29T06:44:49Z</time>
      </trkpt>
      <trkpt lat="44.9718520" lon="6.8649360">
        <ele>2553.2</ele>
        <time>2017-07-29T06:44:50Z</time>
      </trkpt>
      <trkpt lat="44.9717130" lon="6.8649130">
        <ele>2551.2</ele>
        <time>2017-07-29T06:44:52Z</time>
      </trkpt>
      <trkpt lat="44.9715560" lon="6.8648820">
        <ele>2549.2</ele>
        <time>2017-07-29T06:44:54Z</time>
      </trkpt>
      <trkpt lat="44.9714790" lon="6.8648860">
        <ele>2547.8</ele>
        <time>2017-07-29T06:44:55Z</time>
      </trkpt>
      <trkpt lat="44.9714040" lon="6.8648960">
        <ele>2546.2</ele>
        <time>2017-07-29T06:44:56Z</time>
      </trkpt>
      <trkpt lat="44.9713230" lon="6.8649060">
        <ele>2545.0</ele>
        <time>2017-07-29T06:44:57Z</time>
      </trkpt>
      <trkpt lat="44.9712370" lon="6.8649290">
        <ele>2543.8</ele>
        <time>2017-07-29T06:44:58Z</time>
      </trkpt>
      <trkpt lat="44.9711490" lon="6.8649650">
        <ele>2542.6</ele>
        <time>2017-07-29T06:44:59Z</time>
      </trkpt>
      <trkpt lat="44.9710670" lon="6.8649910">
        <ele>2541.4</ele>
        <time>2017-07-29T06:45:00Z</time>
      </trkpt>
      <trkpt lat="44.9709870" lon="6.8650130">
        <ele>2540.2</ele>
        <time>2017-07-29T06:45:01Z</time>
      </trkpt>
      <trkpt lat="44.9709080" lon="6.8650490">
        <ele>2538.8</ele>
        <time>2017-07-29T06:45:02Z</time>
      </trkpt>
      <trkpt lat="44.9708310" lon="6.8651060">
        <ele>2536.2</ele>
        <time>2017-07-29T06:45:03Z</time>
      </trkpt>
      <trkpt lat="44.9707560" lon="6.8651690">
        <ele>2534.8</ele>
        <time>2017-07-29T06:45:04Z</time>
      </trkpt>
      <trkpt lat="44.9706940" lon="6.8652170">
        <ele>2533.4</ele>
        <time>2017-07-29T06:45:05Z</time>
      </trkpt>
      <trkpt lat="44.9706380" lon="6.8652400">
        <ele>2532.2</ele>
        <time>2017-07-29T06:45:06Z</time>
      </trkpt>
      <trkpt lat="44.9705860" lon="6.8652340">
        <ele>2531.2</ele>
        <time>2017-07-29T06:45:07Z</time>
      </trkpt>
      <trkpt lat="44.9704750" lon="6.8651950">
        <ele>2529.2</ele>
        <time>2017-07-29T06:45:09Z</time>
      </trkpt>
      <trkpt lat="44.9704110" lon="6.8651910">
        <ele>2528.2</ele>
        <time>2017-07-29T06:45:10Z</time>
      </trkpt>
      <trkpt lat="44.9703390" lon="6.8652080">
        <ele>2526.8</ele>
        <time>2017-07-29T06:45:11Z</time>
      </trkpt>
      <trkpt lat="44.9702600" lon="6.8652480">
        <ele>2525.4</ele>
        <time>2017-07-29T06:45:12Z</time>
      </trkpt>
      <trkpt lat="44.9701720" lon="6.8653070">
        <ele>2524.0</ele>
        <time>2017-07-29T06:45:13Z</time>
      </trkpt>
      <trkpt lat="44.9700740" lon="6.8653760">
        <ele>2522.4</ele>
        <time>2017-07-29T06:45:14Z</time>
      </trkpt>
      <trkpt lat="44.9699820" lon="6.8654420">
        <ele>2520.8</ele>
        <time>2017-07-29T06:45:15Z</time>
      </trkpt>
      <trkpt lat="44.9698950" lon="6.8654790">
        <ele>2519.4</ele>
        <time>2017-07-29T06:45:16Z</time>
      </trkpt>
      <trkpt lat="44.9698050" lon="6.8654980">
        <ele>2518.0</ele>
        <time>2017-07-29T06:45:17Z</time>
      </trkpt>
      <trkpt lat="44.9697300" lon="6.8655430">
        <ele>2516.8</ele>
        <time>2017-07-29T06:45:18Z</time>
      </trkpt>
      <trkpt lat="44.9696750" lon="6.8655990">
        <ele>2515.6</ele>
        <time>2017-07-29T06:45:19Z</time>
      </trkpt>
      <trkpt lat="44.9696190" lon="6.8656440">
        <ele>2514.6</ele>
        <time>2017-07-29T06:45:20Z</time>
      </trkpt>
      <trkpt lat="44.9695140" lon="6.8656520">
        <ele>2512.6</ele>
        <time>2017-07-29T06:45:22Z</time>
      </trkpt>
      <trkpt lat="44.9694670" lon="6.8656210">
        <ele>2511.6</ele>
        <time>2017-07-29T06:45:23Z</time>
      </trkpt>
      <trkpt lat="44.9693950" lon="6.8656570">
        <ele>2509.4</ele>
        <time>2017-07-29T06:45:25Z</time>
      </trkpt>
      <trkpt lat="44.9693860" lon="6.8657310">
        <ele>2508.2</ele>
        <time>2017-07-29T06:45:26Z</time>
      </trkpt>
      <trkpt lat="44.9693970" lon="6.8658160">
        <ele>2506.2</ele>
        <time>2017-07-29T06:45:27Z</time>
      </trkpt>
      <trkpt lat="44.9694150" lon="6.8659020">
        <ele>2505.2</ele>
        <time>2017-07-29T06:45:28Z</time>
      </trkpt>
      <trkpt lat="44.9694170" lon="6.8659920">
        <ele>2504.0</ele>
        <time>2017-07-29T06:45:29Z</time>
      </trkpt>
      <trkpt lat="44.9694050" lon="6.8660750">
        <ele>2502.8</ele>
        <time>2017-07-29T06:45:30Z</time>
      </trkpt>
      <trkpt lat="44.9693800" lon="6.8661420">
        <ele>2501.6</ele>
        <time>2017-07-29T06:45:31Z</time>
      </trkpt>
      <trkpt lat="44.9693370" lon="6.8661990">
        <ele>2500.4</ele>
        <time>2017-07-29T06:45:32Z</time>
      </trkpt>
      <trkpt lat="44.9692890" lon="6.8662430">
        <ele>2499.2</ele>
        <time>2017-07-29T06:45:33Z</time>
      </trkpt>
      <trkpt lat="44.9692390" lon="6.8662550">
        <ele>2498.2</ele>
        <time>2017-07-29T06:45:34Z</time>
      </trkpt>
      <trkpt lat="44.9691880" lon="6.8662440">
        <ele>2497.0</ele>
        <time>2017-07-29T06:45:35Z</time>
      </trkpt>
      <trkpt lat="44.9690970" lon="6.8661930">
        <ele>2495.2</ele>
        <time>2017-07-29T06:45:37Z</time>
      </trkpt>
      <trkpt lat="44.9690710" lon="6.8662150">
        <ele>2494.0</ele>
        <time>2017-07-29T06:45:38Z</time>
      </trkpt>
      <trkpt lat="44.9690620" lon="6.8662760">
        <ele>2492.6</ele>
        <time>2017-07-29T06:45:39Z</time>
      </trkpt>
      <trkpt lat="44.9690680" lon="6.8663580">
        <ele>2491.0</ele>
        <time>2017-07-29T06:45:40Z</time>
      </trkpt>
      <trkpt lat="44.9690850" lon="6.8664390">
        <ele>2490.0</ele>
        <time>2017-07-29T06:45:41Z</time>
      </trkpt>
      <trkpt lat="44.9691150" lon="6.8665140">
        <ele>2488.8</ele>
        <time>2017-07-29T06:45:42Z</time>
      </trkpt>
      <trkpt lat="44.9691420" lon="6.8665860">
        <ele>2487.6</ele>
        <time>2017-07-29T06:45:43Z</time>
      </trkpt>
      <trkpt lat="44.9691430" lon="6.8666470">
        <ele>2486.4</ele>
        <time>2017-07-29T06:45:44Z</time>
      </trkpt>
      <trkpt lat="44.9691220" lon="6.8666820">
        <ele>2485.0</ele>
        <time>2017-07-29T06:45:45Z</time>
      </trkpt>
      <trkpt lat="44.9690850" lon="6.8666850">
        <ele>2483.8</ele>
        <time>2017-07-29T06:45:46Z</time>
      </trkpt>
      <trkpt lat="44.9690390" lon="6.8666710">
        <ele>2482.8</ele>
        <time>2017-07-29T06:45:47Z</time>
      </trkpt>
      <trkpt lat="44.9689840" lon="6.8666490">
        <ele>2481.8</ele>
        <time>2017-07-29T06:45:48Z</time>
      </trkpt>
      <trkpt lat="44.9689250" lon="6.8666280">
        <ele>2480.8</ele>
        <time>2017-07-29T06:45:49Z</time>
      </trkpt>
      <trkpt lat="44.9688610" lon="6.8666180">
        <ele>2479.8</ele>
        <time>2017-07-29T06:45:50Z</time>
      </trkpt>
      <trkpt lat="44.9687960" lon="6.8666200">
        <ele>2477.8</ele>
        <time>2017-07-29T06:45:51Z</time>
      </trkpt>
      <trkpt lat="44.9687350" lon="6.8666120">
        <ele>2476.6</ele>
        <time>2017-07-29T06:45:52Z</time>
      </trkpt>
      <trkpt lat="44.9686380" lon="6.8665610">
        <ele>2474.8</ele>
        <time>2017-07-29T06:45:54Z</time>
      </trkpt>
      <trkpt lat="44.9685930" lon="6.8666530">
        <ele>2472.6</ele>
        <time>2017-07-29T06:45:56Z</time>
      </trkpt>
      <trkpt lat="44.9686080" lon="6.8667210">
        <ele>2471.2</ele>
        <time>2017-07-29T06:45:57Z</time>
      </trkpt>
      <trkpt lat="44.9686310" lon="6.8667780">
        <ele>2470.0</ele>
        <time>2017-07-29T06:45:58Z</time>
      </trkpt>
      <trkpt lat="44.9686550" lon="6.8668270">
        <ele>2468.8</ele>
        <time>2017-07-29T06:45:59Z</time>
      </trkpt>
      <trkpt lat="44.9686500" lon="6.8668700">
        <ele>2467.8</ele>
        <time>2017-07-29T06:46:00Z</time>
      </trkpt>
      <trkpt lat="44.9686170" lon="6.8668970">
        <ele>2466.6</ele>
        <time>2017-07-29T06:46:01Z</time>
      </trkpt>
      <trkpt lat="44.9685710" lon="6.8669120">
        <ele>2465.6</ele>
        <time>2017-07-29T06:46:02Z</time>
      </trkpt>
      <trkpt lat="44.9684900" lon="6.8669150">
        <ele>2463.6</ele>
        <time>2017-07-29T06:46:04Z</time>
      </trkpt>
      <trkpt lat="44.9684450" lon="6.8669240">
        <ele>2462.2</ele>
        <time>2017-07-29T06:46:05Z</time>
      </trkpt>
      <trkpt lat="44.9683990" lon="6.8669530">
        <ele>2460.8</ele>
        <time>2017-07-29T06:46:06Z</time>
      </trkpt>
      <trkpt lat="44.9683600" lon="6.8670100">
        <ele>2459.4</ele>
        <time>2017-07-29T06:46:07Z</time>
      </trkpt>
      <trkpt lat="44.9683370" lon="6.8670810">
        <ele>2458.0</ele>
        <time>2017-07-29T06:46:08Z</time>
      </trkpt>
      <trkpt lat="44.9683230" lon="6.8671620">
        <ele>2456.6</ele>
        <time>2017-07-29T06:46:09Z</time>
      </trkpt>
      <trkpt lat="44.9683020" lon="6.8672490">
        <ele>2455.2</ele>
        <time>2017-07-29T06:46:10Z</time>
      </trkpt>
      <trkpt lat="44.9682740" lon="6.8673400">
        <ele>2453.8</ele>
        <time>2017-07-29T06:46:11Z</time>
      </trkpt>
      <trkpt lat="44.9682410" lon="6.8674350">
        <ele>2452.6</ele>
        <time>2017-07-29T06:46:12Z</time>
      </trkpt>
      <trkpt lat="44.9682050" lon="6.8675320">
        <ele>2451.2</ele>
        <time>2017-07-29T06:46:13Z</time>
      </trkpt>
      <trkpt lat="44.9681680" lon="6.8676280">
        <ele>2450.0</ele>
        <time>2017-07-29T06:46:14Z</time>
      </trkpt>
      <trkpt lat="44.9681300" lon="6.8677160">
        <ele>2447.0</ele>
        <time>2017-07-29T06:46:15Z</time>
      </trkpt>
      <trkpt lat="44.9680890" lon="6.8677910">
        <ele>2445.6</ele>
        <time>2017-07-29T06:46:16Z</time>
      </trkpt>
      <trkpt lat="44.9680410" lon="6.8678520">
        <ele>2444.0</ele>
        <time>2017-07-29T06:46:17Z</time>
      </trkpt>
      <trkpt lat="44.9679840" lon="6.8679100">
        <ele>2442.8</ele>
        <time>2017-07-29T06:46:18Z</time>
      </trkpt>
      <trkpt lat="44.9679220" lon="6.8679560">
        <ele>2441.4</ele>
        <time>2017-07-29T06:46:19Z</time>
      </trkpt>
      <trkpt lat="44.9678650" lon="6.8679950">
        <ele>2440.0</ele>
        <time>2017-07-29T06:46:20Z</time>
      </trkpt>
      <trkpt lat="44.9678090" lon="6.8680250">
        <ele>2438.6</ele>
        <time>2017-07-29T06:46:21Z</time>
      </trkpt>
      <trkpt lat="44.9677560" lon="6.8680530">
        <ele>2436.8</ele>
        <time>2017-07-29T06:46:22Z</time>
      </trkpt>
      <trkpt lat="44.9676930" lon="6.8680910">
        <ele>2435.4</ele>
        <time>2017-07-29T06:46:23Z</time>
      </trkpt>
      <trkpt lat="44.9676190" lon="6.8681500">
        <ele>2433.6</ele>
        <time>2017-07-29T06:46:24Z</time>
      </trkpt>
      <trkpt lat="44.9675490" lon="6.8682310">
        <ele>2432.0</ele>
        <time>2017-07-29T06:46:25Z</time>
      </trkpt>
      <trkpt lat="44.9674850" lon="6.8683200">
        <ele>2430.6</ele>
        <time>2017-07-29T06:46:26Z</time>
      </trkpt>
      <trkpt lat="44.9674240" lon="6.8684080">
        <ele>2429.2</ele>
        <time>2017-07-29T06:46:27Z</time>
      </trkpt>
      <trkpt lat="44.9673580" lon="6.8684910">
        <ele>2428.2</ele>
        <time>2017-07-29T06:46:28Z</time>
      </trkpt>
      <trkpt lat="44.9672900" lon="6.8685810">
        <ele>2426.6</ele>
        <time>2017-07-29T06:46:29Z</time>
      </trkpt>
      <trkpt lat="44.9672280" lon="6.8686630">
        <ele>2425.4</ele>
        <time>2017-07-29T06:46:30Z</time>
      </trkpt>
      <trkpt lat="44.9671750" lon="6.8687290">
        <ele>2424.4</ele>
        <time>2017-07-29T06:46:31Z</time>
      </trkpt>
      <trkpt lat="44.9671210" lon="6.8687700">
        <ele>2423.4</ele>
        <time>2017-07-29T06:46:32Z</time>
      </trkpt>
      <trkpt lat="44.9670590" lon="6.8687980">
        <ele>2422.4</ele>
        <time>2017-07-29T06:46:33Z</time>
      </trkpt>
      <trkpt lat="44.9669960" lon="6.8688150">
        <ele>2421.2</ele>
        <time>2017-07-29T06:46:34Z</time>
      </trkpt>
      <trkpt lat="44.9669310" lon="6.8688260">
        <ele>2420.2</ele>
        <time>2017-07-29T06:46:35Z</time>
      </trkpt>
      <trkpt lat="44.9668700" lon="6.8688470">
        <ele>2419.0</ele>
        <time>2017-07-29T06:46:36Z</time>
      </trkpt>
      <trkpt lat="44.9668240" lon="6.8688900">
        <ele>2417.8</ele>
        <time>2017-07-29T06:46:37Z</time>
      </trkpt>
      <trkpt lat="44.9667930" lon="6.8689580">
        <ele>2416.4</ele>
        <time>2017-07-29T06:46:38Z</time>
      </trkpt>
      <trkpt lat="44.9667800" lon="6.8690480">
        <ele>2413.6</ele>
        <time>2017-07-29T06:46:39Z</time>
      </trkpt>
      <trkpt lat="44.9667850" lon="6.8691480">
        <ele>2412.2</ele>
        <time>2017-07-29T06:46:40Z</time>
      </trkpt>
      <trkpt lat="44.9668010" lon="6.8692430">
        <ele>2410.8</ele>
        <time>2017-07-29T06:46:41Z</time>
      </trkpt>
      <trkpt lat="44.9668240" lon="6.8693240">
        <ele>2409.6</ele>
        <time>2017-07-29T06:46:42Z</time>
      </trkpt>
      <trkpt lat="44.9668460" lon="6.8693870">
        <ele>2408.6</ele>
        <time>2017-07-29T06:46:43Z</time>
      </trkpt>
      <trkpt lat="44.9668460" lon="6.8694410">
        <ele>2407.4</ele>
        <time>2017-07-29T06:46:44Z</time>
      </trkpt>
      <trkpt lat="44.9668250" lon="6.8694850">
        <ele>2406.2</ele>
        <time>2017-07-29T06:46:45Z</time>
      </trkpt>
      <trkpt lat="44.9667850" lon="6.8695040">
        <ele>2405.0</ele>
        <time>2017-07-29T06:46:46Z</time>
      </trkpt>
      <trkpt lat="44.9667350" lon="6.8694930">
        <ele>2404.0</ele>
        <time>2017-07-29T06:46:47Z</time>
      </trkpt>
      <trkpt lat="44.9666780" lon="6.8694620">
        <ele>2403.0</ele>
        <time>2017-07-29T06:46:48Z</time>
      </trkpt>
      <trkpt lat="44.9666190" lon="6.8694340">
        <ele>2401.8</ele>
        <time>2017-07-29T06:46:49Z</time>
      </trkpt>
      <trkpt lat="44.9665700" lon="6.8694010">
        <ele>2400.6</ele>
        <time>2017-07-29T06:46:50Z</time>
      </trkpt>
      <trkpt lat="44.9664980" lon="6.8693220">
        <ele>2398.6</ele>
        <time>2017-07-29T06:46:52Z</time>
      </trkpt>
      <trkpt lat="44.9664660" lon="6.8693350">
        <ele>2397.6</ele>
        <time>2017-07-29T06:46:53Z</time>
      </trkpt>
      <trkpt lat="44.9664520" lon="6.8693830">
        <ele>2396.6</ele>
        <time>2017-07-29T06:46:54Z</time>
      </trkpt>
      <trkpt lat="44.9664520" lon="6.8694520">
        <ele>2395.6</ele>
        <time>2017-07-29T06:46:55Z</time>
      </trkpt>
      <trkpt lat="44.9664710" lon="6.8695350">
        <ele>2394.6</ele>
        <time>2017-07-29T06:46:56Z</time>
      </trkpt>
      <trkpt lat="44.9665050" lon="6.8696230">
        <ele>2393.4</ele>
        <time>2017-07-29T06:46:57Z</time>
      </trkpt>
      <trkpt lat="44.9665520" lon="6.8697140">
        <ele>2392.6</ele>
        <time>2017-07-29T06:46:58Z</time>
      </trkpt>
      <trkpt lat="44.9666140" lon="6.8698000">
        <ele>2391.6</ele>
        <time>2017-07-29T06:46:59Z</time>
      </trkpt>
      <trkpt lat="44.9667440" lon="6.8699630">
        <ele>2389.6</ele>
        <time>2017-07-29T06:47:01Z</time>
      </trkpt>
      <trkpt lat="44.9668060" lon="6.8700510">
        <ele>2388.2</ele>
        <time>2017-07-29T06:47:02Z</time>
      </trkpt>
      <trkpt lat="44.9668690" lon="6.8701300">
        <ele>2385.8</ele>
        <time>2017-07-29T06:47:03Z</time>
      </trkpt>
      <trkpt lat="44.9669340" lon="6.8701890">
        <ele>2384.8</ele>
        <time>2017-07-29T06:47:04Z</time>
      </trkpt>
      <trkpt lat="44.9669950" lon="6.8702300">
        <ele>2384.0</ele>
        <time>2017-07-29T06:47:05Z</time>
      </trkpt>
      <trkpt lat="44.9670420" lon="6.8702790">
        <ele>2382.8</ele>
        <time>2017-07-29T06:47:06Z</time>
      </trkpt>
      <trkpt lat="44.9670610" lon="6.8703380">
        <ele>2381.2</ele>
        <time>2017-07-29T06:47:07Z</time>
      </trkpt>
      <trkpt lat="44.9670520" lon="6.8704020">
        <ele>2379.6</ele>
        <time>2017-07-29T06:47:08Z</time>
      </trkpt>
      <trkpt lat="44.9670220" lon="6.8704510">
        <ele>2378.4</ele>
        <time>2017-07-29T06:47:09Z</time>
      </trkpt>
      <trkpt lat="44.9669730" lon="6.8704780">
        <ele>2377.6</ele>
        <time>2017-07-29T06:47:10Z</time>
      </trkpt>
      <trkpt lat="44.9669140" lon="6.8705020">
        <ele>2376.6</ele>
        <time>2017-07-29T06:47:11Z</time>
      </trkpt>
      <trkpt lat="44.9668460" lon="6.8705160">
        <ele>2375.6</ele>
        <time>2017-07-29T06:47:12Z</time>
      </trkpt>
      <trkpt lat="44.9667740" lon="6.8705190">
        <ele>2374.6</ele>
        <time>2017-07-29T06:47:13Z</time>
      </trkpt>
      <trkpt lat="44.9667010" lon="6.8705140">
        <ele>2373.6</ele>
        <time>2017-07-29T06:47:14Z</time>
      </trkpt>
      <trkpt lat="44.9666320" lon="6.8704980">
        <ele>2372.4</ele>
        <time>2017-07-29T06:47:15Z</time>
      </trkpt>
      <trkpt lat="44.9665240" lon="6.8704620">
        <ele>2370.4</ele>
        <time>2017-07-29T06:47:17Z</time>
      </trkpt>
      <trkpt lat="44.9664830" lon="6.8704720">
        <ele>2369.6</ele>
        <time>2017-07-29T06:47:18Z</time>
      </trkpt>
      <trkpt lat="44.9664770" lon="6.8705310">
        <ele>2368.4</ele>
        <time>2017-07-29T06:47:19Z</time>
      </trkpt>
      <trkpt lat="44.9665130" lon="6.8705990">
        <ele>2367.4</ele>
        <time>2017-07-29T06:47:20Z</time>
      </trkpt>
      <trkpt lat="44.9665690" lon="6.8706610">
        <ele>2366.2</ele>
        <time>2017-07-29T06:47:21Z</time>
      </trkpt>
      <trkpt lat="44.9666810" lon="6.8707680">
        <ele>2364.6</ele>
        <time>2017-07-29T06:47:23Z</time>
      </trkpt>
      <trkpt lat="44.9668010" lon="6.8708280">
        <ele>2363.2</ele>
        <time>2017-07-29T06:47:25Z</time>
      </trkpt>
      <trkpt lat="44.9668110" lon="6.8709570">
        <ele>2361.2</ele>
        <time>2017-07-29T06:47:27Z</time>
      </trkpt>
      <trkpt lat="44.9667170" lon="6.8709560">
        <ele>2360.4</ele>
        <time>2017-07-29T06:47:29Z</time>
      </trkpt>
      <trkpt lat="44.9666600" lon="6.8709190">
        <ele>2359.8</ele>
        <time>2017-07-29T06:47:30Z</time>
      </trkpt>
      <trkpt lat="44.9666070" lon="6.8708670">
        <ele>2359.2</ele>
        <time>2017-07-29T06:47:31Z</time>
      </trkpt>
      <trkpt lat="44.9665630" lon="6.8708240">
        <ele>2358.8</ele>
        <time>2017-07-29T06:47:32Z</time>
      </trkpt>
      <trkpt lat="44.9665240" lon="6.8708460">
        <ele>2358.2</ele>
        <time>2017-07-29T06:47:33Z</time>
      </trkpt>
      <trkpt lat="44.9665140" lon="6.8709250">
        <ele>2357.6</ele>
        <time>2017-07-29T06:47:34Z</time>
      </trkpt>
      <trkpt lat="44.9665290" lon="6.8710220">
        <ele>2357.0</ele>
        <time>2017-07-29T06:47:35Z</time>
      </trkpt>
      <trkpt lat="44.9665230" lon="6.8711970">
        <ele>2355.6</ele>
        <time>2017-07-29T06:47:37Z</time>
      </trkpt>
      <trkpt lat="44.9664700" lon="6.8713720">
        <ele>2354.2</ele>
        <time>2017-07-29T06:47:39Z</time>
      </trkpt>
      <trkpt lat="44.9664660" lon="6.8714790">
        <ele>2353.2</ele>
        <time>2017-07-29T06:47:40Z</time>
      </trkpt>
      <trkpt lat="44.9664900" lon="6.8715860">
        <ele>2352.0</ele>
        <time>2017-07-29T06:47:41Z</time>
      </trkpt>
      <trkpt lat="44.9665350" lon="6.8716670">
        <ele>2350.8</ele>
        <time>2017-07-29T06:47:42Z</time>
      </trkpt>
      <trkpt lat="44.9665760" lon="6.8717280">
        <ele>2350.0</ele>
        <time>2017-07-29T06:47:43Z</time>
      </trkpt>
      <trkpt lat="44.9665980" lon="6.8717910">
        <ele>2349.6</ele>
        <time>2017-07-29T06:47:44Z</time>
      </trkpt>
      <trkpt lat="44.9665970" lon="6.8718340">
        <ele>2349.0</ele>
        <time>2017-07-29T06:47:45Z</time>
      </trkpt>
      <trkpt lat="44.9665770" lon="6.8718370">
        <ele>2348.4</ele>
        <time>2017-07-29T06:47:46Z</time>
      </trkpt>
      <trkpt lat="44.9665360" lon="6.8717870">
        <ele>2347.6</ele>
        <time>2017-07-29T06:47:47Z</time>
      </trkpt>
      <trkpt lat="44.9664980" lon="6.8717280">
        <ele>2347.0</ele>
        <time>2017-07-29T06:47:48Z</time>
      </trkpt>
      <trkpt lat="44.9663980" lon="6.8715780">
        <ele>2345.8</ele>
        <time>2017-07-29T06:47:50Z</time>
      </trkpt>
      <trkpt lat="44.9663560" lon="6.8714950">
        <ele>2344.6</ele>
        <time>2017-07-29T06:47:51Z</time>
      </trkpt>
      <trkpt lat="44.9663200" lon="6.8714220">
        <ele>2343.6</ele>
        <time>2017-07-29T06:47:52Z</time>
      </trkpt>
      <trkpt lat="44.9662920" lon="6.8713550">
        <ele>2342.8</ele>
        <time>2017-07-29T06:47:53Z</time>
      </trkpt>
      <trkpt lat="44.9662560" lon="6.8713140">
        <ele>2342.0</ele>
        <time>2017-07-29T06:47:54Z</time>
      </trkpt>
      <trkpt lat="44.9662370" lon="6.8714100">
        <ele>2340.8</ele>
        <time>2017-07-29T06:47:56Z</time>
      </trkpt>
      <trkpt lat="44.9662360" lon="6.8715330">
        <ele>2339.4</ele>
        <time>2017-07-29T06:47:58Z</time>
      </trkpt>
      <trkpt lat="44.9662120" lon="6.8715520">
        <ele>2338.6</ele>
        <time>2017-07-29T06:47:59Z</time>
      </trkpt>
      <trkpt lat="44.9661800" lon="6.8715320">
        <ele>2337.8</ele>
        <time>2017-07-29T06:48:00Z</time>
      </trkpt>
      <trkpt lat="44.9661270" lon="6.8715050">
        <ele>2337.0</ele>
        <time>2017-07-29T06:48:01Z</time>
      </trkpt>
      <trkpt lat="44.9660640" lon="6.8714800">
        <ele>2336.4</ele>
        <time>2017-07-29T06:48:02Z</time>
      </trkpt>
      <trkpt lat="44.9659720" lon="6.8714600">
        <ele>2334.6</ele>
        <time>2017-07-29T06:48:04Z</time>
      </trkpt>
      <trkpt lat="44.9659650" lon="6.8715340">
        <ele>2333.6</ele>
        <time>2017-07-29T06:48:05Z</time>
      </trkpt>
      <trkpt lat="44.9659860" lon="6.8716110">
        <ele>2332.8</ele>
        <time>2017-07-29T06:48:06Z</time>
      </trkpt>
      <trkpt lat="44.9660100" lon="6.8716900">
        <ele>2331.6</ele>
        <time>2017-07-29T06:48:07Z</time>
      </trkpt>
      <trkpt lat="44.9660550" lon="6.8718710">
        <ele>2329.8</ele>
        <time>2017-07-29T06:48:09Z</time>
      </trkpt>
      <trkpt lat="44.9660790" lon="6.8720280">
        <ele>2328.0</ele>
        <time>2017-07-29T06:48:11Z</time>
      </trkpt>
      <trkpt lat="44.9661130" lon="6.8722490">
        <ele>2325.8</ele>
        <time>2017-07-29T06:48:13Z</time>
      </trkpt>
      <trkpt lat="44.9661420" lon="6.8723690">
        <ele>2324.8</ele>
        <time>2017-07-29T06:48:14Z</time>
      </trkpt>
      <trkpt lat="44.9661600" lon="6.8724470">
        <ele>2322.6</ele>
        <time>2017-07-29T06:48:15Z</time>
      </trkpt>
      <trkpt lat="44.9661710" lon="6.8725050">
        <ele>2321.6</ele>
        <time>2017-07-29T06:48:16Z</time>
      </trkpt>
      <trkpt lat="44.9661820" lon="6.8725370">
        <ele>2320.6</ele>
        <time>2017-07-29T06:48:17Z</time>
      </trkpt>
      <trkpt lat="44.9661370" lon="6.8724400">
        <ele>2318.2</ele>
        <time>2017-07-29T06:48:20Z</time>
      </trkpt>
      <trkpt lat="44.9661140" lon="6.8723960">
        <ele>2317.0</ele>
        <time>2017-07-29T06:48:21Z</time>
      </trkpt>
      <trkpt lat="44.9660510" lon="6.8722080">
        <ele>2315.4</ele>
        <time>2017-07-29T06:48:23Z</time>
      </trkpt>
      <trkpt lat="44.9660060" lon="6.8721350">
        <ele>2314.6</ele>
        <time>2017-07-29T06:48:24Z</time>
      </trkpt>
      <trkpt lat="44.9659360" lon="6.8720710">
        <ele>2313.8</ele>
        <time>2017-07-29T06:48:25Z</time>
      </trkpt>
      <trkpt lat="44.9657920" lon="6.8719450">
        <ele>2312.0</ele>
        <time>2017-07-29T06:48:27Z</time>
      </trkpt>
      <trkpt lat="44.9657430" lon="6.8718560">
        <ele>2311.0</ele>
        <time>2017-07-29T06:48:28Z</time>
      </trkpt>
      <trkpt lat="44.9657010" lon="6.8717760">
        <ele>2310.4</ele>
        <time>2017-07-29T06:48:29Z</time>
      </trkpt>
      <trkpt lat="44.9656570" lon="6.8717070">
        <ele>2309.8</ele>
        <time>2017-07-29T06:48:30Z</time>
      </trkpt>
      <trkpt lat="44.9656030" lon="6.8716810">
        <ele>2309.0</ele>
        <time>2017-07-29T06:48:31Z</time>
      </trkpt>
      <trkpt lat="44.9655650" lon="6.8717690">
        <ele>2307.6</ele>
        <time>2017-07-29T06:48:33Z</time>
      </trkpt>
      <trkpt lat="44.9655940" lon="6.8718310">
        <ele>2307.2</ele>
        <time>2017-07-29T06:48:34Z</time>
      </trkpt>
      <trkpt lat="44.9656090" lon="6.8719030">
        <ele>2306.4</ele>
        <time>2017-07-29T06:48:35Z</time>
      </trkpt>
      <trkpt lat="44.9656160" lon="6.8719760">
        <ele>2305.8</ele>
        <time>2017-07-29T06:48:36Z</time>
      </trkpt>
      <trkpt lat="44.9655810" lon="6.8720150">
        <ele>2304.8</ele>
        <time>2017-07-29T06:48:37Z</time>
      </trkpt>
      <trkpt lat="44.9655330" lon="6.8720150">
        <ele>2304.2</ele>
        <time>2017-07-29T06:48:38Z</time>
      </trkpt>
      <trkpt lat="44.9654900" lon="6.8719940">
        <ele>2302.8</ele>
        <time>2017-07-29T06:48:39Z</time>
      </trkpt>
      <trkpt lat="44.9653740" lon="6.8719640">
        <ele>2301.2</ele>
        <time>2017-07-29T06:48:41Z</time>
      </trkpt>
      <trkpt lat="44.9652480" lon="6.8718310">
        <ele>2299.8</ele>
        <time>2017-07-29T06:48:43Z</time>
      </trkpt>
      <trkpt lat="44.9651800" lon="6.8717840">
        <ele>2299.2</ele>
        <time>2017-07-29T06:48:44Z</time>
      </trkpt>
      <trkpt lat="44.9651010" lon="6.8717530">
        <ele>2298.4</ele>
        <time>2017-07-29T06:48:45Z</time>
      </trkpt>
      <trkpt lat="44.9649300" lon="6.8717140">
        <ele>2297.2</ele>
        <time>2017-07-29T06:48:47Z</time>
      </trkpt>
      <trkpt lat="44.9647720" lon="6.8716600">
        <ele>2296.4</ele>
        <time>2017-07-29T06:48:49Z</time>
      </trkpt>
      <trkpt lat="44.9647090" lon="6.8716150">
        <ele>2295.8</ele>
        <time>2017-07-29T06:48:50Z</time>
      </trkpt>
      <trkpt lat="44.9646190" lon="6.8715480">
        <ele>2294.4</ele>
        <time>2017-07-29T06:48:52Z</time>
      </trkpt>
      <trkpt lat="44.9645990" lon="6.8715230">
        <ele>2293.6</ele>
        <time>2017-07-29T06:48:53Z</time>
      </trkpt>
      <trkpt lat="44.9645740" lon="6.8715020">
        <ele>2293.0</ele>
        <time>2017-07-29T06:48:54Z</time>
      </trkpt>
      <trkpt lat="44.9645190" lon="6.8714520">
        <ele>2291.8</ele>
        <time>2017-07-29T06:48:56Z</time>
      </trkpt>
      <trkpt lat="44.9644840" lon="6.8714080">
        <ele>2291.2</ele>
        <time>2017-07-29T06:48:57Z</time>
      </trkpt>
      <trkpt lat="44.9644460" lon="6.8713570">
        <ele>2290.8</ele>
        <time>2017-07-29T06:48:58Z</time>
      </trkpt>
      <trkpt lat="44.9644090" lon="6.8712960">
        <ele>2290.4</ele>
        <time>2017-07-29T06:48:59Z</time>
      </trkpt>
      <trkpt lat="44.9642710" lon="6.8711130">
        <ele>2289.4</ele>
        <time>2017-07-29T06:49:02Z</time>
      </trkpt>
      <trkpt lat="44.9642320" lon="6.8710560">
        <ele>2288.6</ele>
        <time>2017-07-29T06:49:03Z</time>
      </trkpt>
      <trkpt lat="44.9640970" lon="6.8708820">
        <ele>2287.8</ele>
        <time>2017-07-29T06:49:06Z</time>
      </trkpt>
      <trkpt lat="44.9639900" lon="6.8707920">
        <ele>2287.2</ele>
        <time>2017-07-29T06:49:08Z</time>
      </trkpt>
      <trkpt lat="44.9639110" lon="6.8706620">
        <ele>2286.6</ele>
        <time>2017-07-29T06:49:10Z</time>
      </trkpt>
      <trkpt lat="44.9638790" lon="6.8704730">
        <ele>2286.2</ele>
        <time>2017-07-29T06:49:12Z</time>
      </trkpt>
      <trkpt lat="44.9638700" lon="6.8703740">
        <ele>2285.8</ele>
        <time>2017-07-29T06:49:13Z</time>
      </trkpt>
      <trkpt lat="44.9638510" lon="6.8702720">
        <ele>2285.4</ele>
        <time>2017-07-29T06:49:14Z</time>
      </trkpt>
      <trkpt lat="44.9638180" lon="6.8701750">
        <ele>2285.2</ele>
        <time>2017-07-29T06:49:15Z</time>
      </trkpt>
      <trkpt lat="44.9637720" lon="6.8700990">
        <ele>2285.0</ele>
        <time>2017-07-29T06:49:16Z</time>
      </trkpt>
      <trkpt lat="44.9636850" lon="6.8699430">
        <ele>2284.2</ele>
        <time>2017-07-29T06:49:18Z</time>
      </trkpt>
      <trkpt lat="44.9636670" lon="6.8698540">
        <ele>2283.6</ele>
        <time>2017-07-29T06:49:19Z</time>
      </trkpt>
      <trkpt lat="44.9636440" lon="6.8697860">
        <ele>2283.2</ele>
        <time>2017-07-29T06:49:20Z</time>
      </trkpt>
      <trkpt lat="44.9636070" lon="6.8697680">
        <ele>2282.6</ele>
        <time>2017-07-29T06:49:21Z</time>
      </trkpt>
      <trkpt lat="44.9635790" lon="6.8698170">
        <ele>2282.2</ele>
        <time>2017-07-29T06:49:22Z</time>
      </trkpt>
      <trkpt lat="44.9635710" lon="6.8699780">
        <ele>2281.0</ele>
        <time>2017-07-29T06:49:24Z</time>
      </trkpt>
      <trkpt lat="44.9635540" lon="6.8700450">
        <ele>2280.4</ele>
        <time>2017-07-29T06:49:25Z</time>
      </trkpt>
      <trkpt lat="44.9635380" lon="6.8700970">
        <ele>2280.0</ele>
        <time>2017-07-29T06:49:26Z</time>
      </trkpt>
      <trkpt lat="44.9634890" lon="6.8701250">
        <ele>2277.8</ele>
        <time>2017-07-29T06:49:29Z</time>
      </trkpt>
      <trkpt lat="44.9634000" lon="6.8701360">
        <ele>2276.2</ele>
        <time>2017-07-29T06:49:31Z</time>
      </trkpt>
      <trkpt lat="44.9633080" lon="6.8700790">
        <ele>2274.4</ele>
        <time>2017-07-29T06:49:33Z</time>
      </trkpt>
      <trkpt lat="44.9632650" lon="6.8699380">
        <ele>2273.2</ele>
        <time>2017-07-29T06:49:35Z</time>
      </trkpt>
      <trkpt lat="44.9632440" lon="6.8698340">
        <ele>2272.4</ele>
        <time>2017-07-29T06:49:36Z</time>
      </trkpt>
      <trkpt lat="44.9632310" lon="6.8697240">
        <ele>2271.6</ele>
        <time>2017-07-29T06:49:37Z</time>
      </trkpt>
      <trkpt lat="44.9631780" lon="6.8695700">
        <ele>2270.4</ele>
        <time>2017-07-29T06:49:39Z</time>
      </trkpt>
      <trkpt lat="44.9631600" lon="6.8695420">
        <ele>2269.6</ele>
        <time>2017-07-29T06:49:40Z</time>
      </trkpt>
      <trkpt lat="44.9631330" lon="6.8695380">
        <ele>2269.0</ele>
        <time>2017-07-29T06:49:41Z</time>
      </trkpt>
      <trkpt lat="44.9630680" lon="6.8696130">
        <ele>2267.8</ele>
        <time>2017-07-29T06:49:43Z</time>
      </trkpt>
      <trkpt lat="44.9630310" lon="6.8696550">
        <ele>2267.0</ele>
        <time>2017-07-29T06:49:44Z</time>
      </trkpt>
      <trkpt lat="44.9629710" lon="6.8696650">
        <ele>2266.4</ele>
        <time>2017-07-29T06:49:45Z</time>
      </trkpt>
      <trkpt lat="44.9629050" lon="6.8696590">
        <ele>2265.8</ele>
        <time>2017-07-29T06:49:46Z</time>
      </trkpt>
      <trkpt lat="44.9628460" lon="6.8696400">
        <ele>2265.0</ele>
        <time>2017-07-29T06:49:47Z</time>
      </trkpt>
      <trkpt lat="44.9627980" lon="6.8695700">
        <ele>2263.4</ele>
        <time>2017-07-29T06:49:49Z</time>
      </trkpt>
      <trkpt lat="44.9627420" lon="6.8694980">
        <ele>2260.8</ele>
        <time>2017-07-29T06:49:51Z</time>
      </trkpt>
      <trkpt lat="44.9627210" lon="6.8694310">
        <ele>2260.0</ele>
        <time>2017-07-29T06:49:52Z</time>
      </trkpt>
      <trkpt lat="44.9627030" lon="6.8693600">
        <ele>2259.2</ele>
        <time>2017-07-29T06:49:53Z</time>
      </trkpt>
      <trkpt lat="44.9627000" lon="6.8692590">
        <ele>2258.0</ele>
        <time>2017-07-29T06:49:54Z</time>
      </trkpt>
      <trkpt lat="44.9626970" lon="6.8691850">
        <ele>2257.0</ele>
        <time>2017-07-29T06:49:55Z</time>
      </trkpt>
      <trkpt lat="44.9627010" lon="6.8690360">
        <ele>2255.6</ele>
        <time>2017-07-29T06:49:57Z</time>
      </trkpt>
      <trkpt lat="44.9626930" lon="6.8688700">
        <ele>2254.0</ele>
        <time>2017-07-29T06:49:59Z</time>
      </trkpt>
      <trkpt lat="44.9626960" lon="6.8687700">
        <ele>2253.2</ele>
        <time>2017-07-29T06:50:00Z</time>
      </trkpt>
      <trkpt lat="44.9626900" lon="6.8686720">
        <ele>2252.2</ele>
        <time>2017-07-29T06:50:01Z</time>
      </trkpt>
      <trkpt lat="44.9626740" lon="6.8685200">
        <ele>2250.2</ele>
        <time>2017-07-29T06:50:03Z</time>
      </trkpt>
      <trkpt lat="44.9626090" lon="6.8685060">
        <ele>2248.6</ele>
        <time>2017-07-29T06:50:05Z</time>
      </trkpt>
      <trkpt lat="44.9624980" lon="6.8685880">
        <ele>2246.6</ele>
        <time>2017-07-29T06:50:07Z</time>
      </trkpt>
      <trkpt lat="44.9624320" lon="6.8686590">
        <ele>2245.6</ele>
        <time>2017-07-29T06:50:08Z</time>
      </trkpt>
      <trkpt lat="44.9623590" lon="6.8687310">
        <ele>2244.4</ele>
        <time>2017-07-29T06:50:09Z</time>
      </trkpt>
      <trkpt lat="44.9622830" lon="6.8688170">
        <ele>2243.2</ele>
        <time>2017-07-29T06:50:10Z</time>
      </trkpt>
      <trkpt lat="44.9622090" lon="6.8689040">
        <ele>2242.2</ele>
        <time>2017-07-29T06:50:11Z</time>
      </trkpt>
      <trkpt lat="44.9621470" lon="6.8689910">
        <ele>2241.0</ele>
        <time>2017-07-29T06:50:12Z</time>
      </trkpt>
      <trkpt lat="44.9620920" lon="6.8690740">
        <ele>2240.2</ele>
        <time>2017-07-29T06:50:13Z</time>
      </trkpt>
      <trkpt lat="44.9620380" lon="6.8691490">
        <ele>2239.4</ele>
        <time>2017-07-29T06:50:14Z</time>
      </trkpt>
      <trkpt lat="44.9619990" lon="6.8692290">
        <ele>2237.2</ele>
        <time>2017-07-29T06:50:15Z</time>
      </trkpt>
      <trkpt lat="44.9619560" lon="6.8692930">
        <ele>2236.2</ele>
        <time>2017-07-29T06:50:16Z</time>
      </trkpt>
      <trkpt lat="44.9619080" lon="6.8693280">
        <ele>2235.4</ele>
        <time>2017-07-29T06:50:17Z</time>
      </trkpt>
      <trkpt lat="44.9618580" lon="6.8693460">
        <ele>2234.2</ele>
        <time>2017-07-29T06:50:18Z</time>
      </trkpt>
      <trkpt lat="44.9618040" lon="6.8693490">
        <ele>2233.0</ele>
        <time>2017-07-29T06:50:19Z</time>
      </trkpt>
      <trkpt lat="44.9617520" lon="6.8693310">
        <ele>2231.8</ele>
        <time>2017-07-29T06:50:20Z</time>
      </trkpt>
      <trkpt lat="44.9617110" lon="6.8692990">
        <ele>2230.6</ele>
        <time>2017-07-29T06:50:21Z</time>
      </trkpt>
      <trkpt lat="44.9616800" lon="6.8692500">
        <ele>2229.8</ele>
        <time>2017-07-29T06:50:22Z</time>
      </trkpt>
      <trkpt lat="44.9616510" lon="6.8691920">
        <ele>2228.6</ele>
        <time>2017-07-29T06:50:23Z</time>
      </trkpt>
      <trkpt lat="44.9616580" lon="6.8690520">
        <ele>2226.8</ele>
        <time>2017-07-29T06:50:25Z</time>
      </trkpt>
      <trkpt lat="44.9617060" lon="6.8689000">
        <ele>2225.2</ele>
        <time>2017-07-29T06:50:27Z</time>
      </trkpt>
      <trkpt lat="44.9617600" lon="6.8687500">
        <ele>2223.6</ele>
        <time>2017-07-29T06:50:29Z</time>
      </trkpt>
      <trkpt lat="44.9618280" lon="6.8685750">
        <ele>2222.8</ele>
        <time>2017-07-29T06:50:31Z</time>
      </trkpt>
      <trkpt lat="44.9618770" lon="6.8684880">
        <ele>2222.2</ele>
        <time>2017-07-29T06:50:32Z</time>
      </trkpt>
      <trkpt lat="44.9620450" lon="6.8682170">
        <ele>2221.0</ele>
        <time>2017-07-29T06:50:35Z</time>
      </trkpt>
      <trkpt lat="44.9621640" lon="6.8680230">
        <ele>2220.4</ele>
        <time>2017-07-29T06:50:37Z</time>
      </trkpt>
      <trkpt lat="44.9623100" lon="6.8677040">
        <ele>2219.8</ele>
        <time>2017-07-29T06:50:40Z</time>
      </trkpt>
      <trkpt lat="44.9623850" lon="6.8675280">
        <ele>2219.2</ele>
        <time>2017-07-29T06:50:42Z</time>
      </trkpt>
      <trkpt lat="44.9624690" lon="6.8673740">
        <ele>2219.0</ele>
        <time>2017-07-29T06:50:45Z</time>
      </trkpt>
      <trkpt lat="44.9624940" lon="6.8673090">
        <ele>2218.8</ele>
        <time>2017-07-29T06:50:46Z</time>
      </trkpt>
      <trkpt lat="44.9625420" lon="6.8671820">
        <ele>2218.8</ele>
        <time>2017-07-29T06:50:48Z</time>
      </trkpt>
      <trkpt lat="44.9625770" lon="6.8671440">
        <ele>2218.6</ele>
        <time>2017-07-29T06:50:49Z</time>
      </trkpt>
      <trkpt lat="44.9627160" lon="6.8669730">
        <ele>2218.8</ele>
        <time>2017-07-29T06:50:53Z</time>
      </trkpt>
      <trkpt lat="44.9627770" lon="6.8668550">
        <ele>2219.0</ele>
        <time>2017-07-29T06:50:55Z</time>
      </trkpt>
      <trkpt lat="44.9628380" lon="6.8667460">
        <ele>2219.2</ele>
        <time>2017-07-29T06:50:57Z</time>
      </trkpt>
      <trkpt lat="44.9628770" lon="6.8667000">
        <ele>2219.4</ele>
        <time>2017-07-29T06:50:58Z</time>
      </trkpt>
      <trkpt lat="44.9629590" lon="6.8666120">
        <ele>2220.0</ele>
        <time>2017-07-29T06:51:00Z</time>
      </trkpt>
      <trkpt lat="44.9630320" lon="6.8664930">
        <ele>2220.4</ele>
        <time>2017-07-29T06:51:02Z</time>
      </trkpt>
      <trkpt lat="44.9630680" lon="6.8664310">
        <ele>2220.8</ele>
        <time>2017-07-29T06:51:03Z</time>
      </trkpt>
      <trkpt lat="44.9631070" lon="6.8663680">
        <ele>2221.0</ele>
        <time>2017-07-29T06:51:04Z</time>
      </trkpt>
      <trkpt lat="44.9631940" lon="6.8662350">
        <ele>2221.4</ele>
        <time>2017-07-29T06:51:06Z</time>
      </trkpt>
      <trkpt lat="44.9632930" lon="6.8661180">
        <ele>2221.8</ele>
        <time>2017-07-29T06:51:08Z</time>
      </trkpt>
      <trkpt lat="44.9633120" lon="6.8660370">
        <ele>2222.2</ele>
        <time>2017-07-29T06:51:09Z</time>
      </trkpt>
      <trkpt lat="44.9633160" lon="6.8659480">
        <ele>2222.2</ele>
        <time>2017-07-29T06:51:10Z</time>
      </trkpt>
      <trkpt lat="44.9633930" lon="6.8656600">
        <ele>2222.4</ele>
        <time>2017-07-29T06:51:13Z</time>
      </trkpt>
      <trkpt lat="44.9634160" lon="6.8654830">
        <ele>2222.6</ele>
        <time>2017-07-29T06:51:15Z</time>
      </trkpt>
      <trkpt lat="44.9634420" lon="6.8653080">
        <ele>2222.8</ele>
        <time>2017-07-29T06:51:17Z</time>
      </trkpt>
      <trkpt lat="44.9635020" lon="6.8649700">
        <ele>2223.2</ele>
        <time>2017-07-29T06:51:21Z</time>
      </trkpt>
      <trkpt lat="44.9635240" lon="6.8648960">
        <ele>2223.4</ele>
        <time>2017-07-29T06:51:22Z</time>
      </trkpt>
      <trkpt lat="44.9636200" lon="6.8646110">
        <ele>2224.0</ele>
        <time>2017-07-29T06:51:26Z</time>
      </trkpt>
      <trkpt lat="44.9636390" lon="6.8645310">
        <ele>2224.4</ele>
        <time>2017-07-29T06:51:27Z</time>
      </trkpt>
      <trkpt lat="44.9637190" lon="6.8643030">
        <ele>2225.2</ele>
        <time>2017-07-29T06:51:30Z</time>
      </trkpt>
      <trkpt lat="44.9637570" lon="6.8642270">
        <ele>2225.4</ele>
        <time>2017-07-29T06:51:31Z</time>
      </trkpt>
      <trkpt lat="44.9638540" lon="6.8640070">
        <ele>2226.0</ele>
        <time>2017-07-29T06:51:34Z</time>
      </trkpt>
      <trkpt lat="44.9639660" lon="6.8638090">
        <ele>2226.6</ele>
        <time>2017-07-29T06:51:37Z</time>
      </trkpt>
      <trkpt lat="44.9640280" lon="6.8636760">
        <ele>2227.0</ele>
        <time>2017-07-29T06:51:39Z</time>
      </trkpt>
      <trkpt lat="44.9640310" lon="6.8636030">
        <ele>2227.2</ele>
        <time>2017-07-29T06:51:40Z</time>
      </trkpt>
      <trkpt lat="44.9640040" lon="6.8633740">
        <ele>2227.6</ele>
        <time>2017-07-29T06:51:43Z</time>
      </trkpt>
      <trkpt lat="44.9640040" lon="6.8632900">
        <ele>2227.8</ele>
        <time>2017-07-29T06:51:44Z</time>
      </trkpt>
      <trkpt lat="44.9640750" lon="6.8631450">
        <ele>2228.2</ele>
        <time>2017-07-29T06:51:47Z</time>
      </trkpt>
      <trkpt lat="44.9642230" lon="6.8630170">
        <ele>2228.6</ele>
        <time>2017-07-29T06:51:50Z</time>
      </trkpt>
      <trkpt lat="44.9642640" lon="6.8629630">
        <ele>2229.0</ele>
        <time>2017-07-29T06:51:51Z</time>
      </trkpt>
      <trkpt lat="44.9643760" lon="6.8627490">
        <ele>2229.8</ele>
        <time>2017-07-29T06:51:55Z</time>
      </trkpt>
      <trkpt lat="44.9643870" lon="6.8626860">
        <ele>2230.0</ele>
        <time>2017-07-29T06:51:56Z</time>
      </trkpt>
      <trkpt lat="44.9644390" lon="6.8624010">
        <ele>2230.8</ele>
        <time>2017-07-29T06:52:00Z</time>
      </trkpt>
      <trkpt lat="44.9644680" lon="6.8622570">
        <ele>2231.2</ele>
        <time>2017-07-29T06:52:02Z</time>
      </trkpt>
      <trkpt lat="44.9645130" lon="6.8620790">
        <ele>2231.8</ele>
        <time>2017-07-29T06:52:05Z</time>
      </trkpt>
      <trkpt lat="44.9645290" lon="6.8620270">
        <ele>2232.0</ele>
        <time>2017-07-29T06:52:06Z</time>
      </trkpt>
      <trkpt lat="44.9645370" lon="6.8619810">
        <ele>2232.4</ele>
        <time>2017-07-29T06:52:07Z</time>
      </trkpt>
      <trkpt lat="44.9645260" lon="6.8618990">
        <ele>2233.0</ele>
        <time>2017-07-29T06:52:09Z</time>
      </trkpt>
      <trkpt lat="44.9645020" lon="6.8618710">
        <ele>2233.2</ele>
        <time>2017-07-29T06:52:10Z</time>
      </trkpt>
      <trkpt lat="44.9644680" lon="6.8618560">
        <ele>2233.2</ele>
        <time>2017-07-29T06:52:11Z</time>
      </trkpt>
      <trkpt lat="44.9643080" lon="6.8619070">
        <ele>2233.4</ele>
        <time>2017-07-29T06:52:15Z</time>
      </trkpt>
      <trkpt lat="44.9641650" lon="6.8620800">
        <ele>2233.2</ele>
        <time>2017-07-29T06:52:18Z</time>
      </trkpt>
      <trkpt lat="44.9640960" lon="6.8622250">
        <ele>2233.0</ele>
        <time>2017-07-29T06:52:20Z</time>
      </trkpt>
      <trkpt lat="44.9640580" lon="6.8622940">
        <ele>2233.0</ele>
        <time>2017-07-29T06:52:21Z</time>
      </trkpt>
      <trkpt lat="44.9639570" lon="6.8624020">
        <ele>2232.8</ele>
        <time>2017-07-29T06:52:23Z</time>
      </trkpt>
      <trkpt lat="44.9637610" lon="6.8625310">
        <ele>2232.6</ele>
        <time>2017-07-29T06:52:26Z</time>
      </trkpt>
      <trkpt lat="44.9636880" lon="6.8625580">
        <ele>2232.4</ele>
        <time>2017-07-29T06:52:27Z</time>
      </trkpt>
      <trkpt lat="44.9634090" lon="6.8625580">
        <ele>2232.2</ele>
        <time>2017-07-29T06:52:31Z</time>
      </trkpt>
      <trkpt lat="44.9631880" lon="6.8623950">
        <ele>2232.2</ele>
        <time>2017-07-29T06:52:34Z</time>
      </trkpt>
      <trkpt lat="44.9631370" lon="6.8622990">
        <ele>2232.0</ele>
        <time>2017-07-29T06:52:35Z</time>
      </trkpt>
      <trkpt lat="44.9630450" lon="6.8621170">
        <ele>2231.6</ele>
        <time>2017-07-29T06:52:37Z</time>
      </trkpt>
      <trkpt lat="44.9629380" lon="6.8620660">
        <ele>2231.0</ele>
        <time>2017-07-29T06:52:39Z</time>
      </trkpt>
      <trkpt lat="44.9628840" lon="6.8621180">
        <ele>2230.8</ele>
        <time>2017-07-29T06:52:40Z</time>
      </trkpt>
      <trkpt lat="44.9628300" lon="6.8621880">
        <ele>2230.6</ele>
        <time>2017-07-29T06:52:41Z</time>
      </trkpt>
      <trkpt lat="44.9625930" lon="6.8623670">
        <ele>2230.2</ele>
        <time>2017-07-29T06:52:45Z</time>
      </trkpt>
      <trkpt lat="44.9625170" lon="6.8623580">
        <ele>2229.8</ele>
        <time>2017-07-29T06:52:46Z</time>
      </trkpt>
      <trkpt lat="44.9624450" lon="6.8623100">
        <ele>2229.8</ele>
        <time>2017-07-29T06:52:47Z</time>
      </trkpt>
      <trkpt lat="44.9623650" lon="6.8622570">
        <ele>2229.2</ele>
        <time>2017-07-29T06:52:48Z</time>
      </trkpt>
      <trkpt lat="44.9620160" lon="6.8620700">
        <ele>2228.0</ele>
        <time>2017-07-29T06:52:52Z</time>
      </trkpt>
      <trkpt lat="44.9619360" lon="6.8620230">
        <ele>2227.6</ele>
        <time>2017-07-29T06:52:53Z</time>
      </trkpt>
      <trkpt lat="44.9617780" lon="6.8619430">
        <ele>2226.8</ele>
        <time>2017-07-29T06:52:55Z</time>
      </trkpt>
      <trkpt lat="44.9616140" lon="6.8618410">
        <ele>2225.8</ele>
        <time>2017-07-29T06:52:57Z</time>
      </trkpt>
      <trkpt lat="44.9614600" lon="6.8617070">
        <ele>2224.4</ele>
        <time>2017-07-29T06:52:59Z</time>
      </trkpt>
      <trkpt lat="44.9612860" lon="6.8615670">
        <ele>2223.0</ele>
        <time>2017-07-29T06:53:01Z</time>
      </trkpt>
      <trkpt lat="44.9611120" lon="6.8614780">
        <ele>2220.0</ele>
        <time>2017-07-29T06:53:03Z</time>
      </trkpt>
      <trkpt lat="44.9610230" lon="6.8614400">
        <ele>2219.0</ele>
        <time>2017-07-29T06:53:04Z</time>
      </trkpt>
      <trkpt lat="44.9609330" lon="6.8614070">
        <ele>2218.2</ele>
        <time>2017-07-29T06:53:05Z</time>
      </trkpt>
      <trkpt lat="44.9608420" lon="6.8613750">
        <ele>2217.2</ele>
        <time>2017-07-29T06:53:06Z</time>
      </trkpt>
      <trkpt lat="44.9607530" lon="6.8613410">
        <ele>2215.8</ele>
        <time>2017-07-29T06:53:07Z</time>
      </trkpt>
      <trkpt lat="44.9606630" lon="6.8612890">
        <ele>2215.0</ele>
        <time>2017-07-29T06:53:08Z</time>
      </trkpt>
      <trkpt lat="44.9605680" lon="6.8612450">
        <ele>2214.0</ele>
        <time>2017-07-29T06:53:09Z</time>
      </trkpt>
      <trkpt lat="44.9604700" lon="6.8612040">
        <ele>2213.4</ele>
        <time>2017-07-29T06:53:10Z</time>
      </trkpt>
      <trkpt lat="44.9603720" lon="6.8611610">
        <ele>2211.6</ele>
        <time>2017-07-29T06:53:11Z</time>
      </trkpt>
      <trkpt lat="44.9602780" lon="6.8611200">
        <ele>2210.4</ele>
        <time>2017-07-29T06:53:12Z</time>
      </trkpt>
      <trkpt lat="44.9601910" lon="6.8610820">
        <ele>2209.2</ele>
        <time>2017-07-29T06:53:13Z</time>
      </trkpt>
      <trkpt lat="44.9600180" lon="6.8610240">
        <ele>2207.6</ele>
        <time>2017-07-29T06:53:15Z</time>
      </trkpt>
      <trkpt lat="44.9599370" lon="6.8610010">
        <ele>2206.6</ele>
        <time>2017-07-29T06:53:16Z</time>
      </trkpt>
      <trkpt lat="44.9598670" lon="6.8609720">
        <ele>2205.4</ele>
        <time>2017-07-29T06:53:17Z</time>
      </trkpt>
      <trkpt lat="44.9598160" lon="6.8609310">
        <ele>2204.0</ele>
        <time>2017-07-29T06:53:18Z</time>
      </trkpt>
      <trkpt lat="44.9597810" lon="6.8608800">
        <ele>2203.0</ele>
        <time>2017-07-29T06:53:19Z</time>
      </trkpt>
      <trkpt lat="44.9597540" lon="6.8608120">
        <ele>2202.2</ele>
        <time>2017-07-29T06:53:20Z</time>
      </trkpt>
      <trkpt lat="44.9596780" lon="6.8606120">
        <ele>2200.2</ele>
        <time>2017-07-29T06:53:22Z</time>
      </trkpt>
      <trkpt lat="44.9596280" lon="6.8605260">
        <ele>2199.0</ele>
        <time>2017-07-29T06:53:23Z</time>
      </trkpt>
      <trkpt lat="44.9595910" lon="6.8604360">
        <ele>2197.8</ele>
        <time>2017-07-29T06:53:24Z</time>
      </trkpt>
      <trkpt lat="44.9595580" lon="6.8603400">
        <ele>2196.4</ele>
        <time>2017-07-29T06:53:25Z</time>
      </trkpt>
      <trkpt lat="44.9595440" lon="6.8602400">
        <ele>2195.2</ele>
        <time>2017-07-29T06:53:26Z</time>
      </trkpt>
      <trkpt lat="44.9595420" lon="6.8601320">
        <ele>2192.8</ele>
        <time>2017-07-29T06:53:27Z</time>
      </trkpt>
      <trkpt lat="44.9595500" lon="6.8600080">
        <ele>2191.8</ele>
        <time>2017-07-29T06:53:28Z</time>
      </trkpt>
      <trkpt lat="44.9595550" lon="6.8598750">
        <ele>2190.4</ele>
        <time>2017-07-29T06:53:29Z</time>
      </trkpt>
      <trkpt lat="44.9595650" lon="6.8597330">
        <ele>2189.2</ele>
        <time>2017-07-29T06:53:30Z</time>
      </trkpt>
      <trkpt lat="44.9595890" lon="6.8595790">
        <ele>2187.8</ele>
        <time>2017-07-29T06:53:31Z</time>
      </trkpt>
      <trkpt lat="44.9596080" lon="6.8594330">
        <ele>2186.2</ele>
        <time>2017-07-29T06:53:32Z</time>
      </trkpt>
      <trkpt lat="44.9596210" lon="6.8592930">
        <ele>2184.8</ele>
        <time>2017-07-29T06:53:33Z</time>
      </trkpt>
      <trkpt lat="44.9596340" lon="6.8591560">
        <ele>2183.4</ele>
        <time>2017-07-29T06:53:34Z</time>
      </trkpt>
      <trkpt lat="44.9596410" lon="6.8590230">
        <ele>2182.0</ele>
        <time>2017-07-29T06:53:35Z</time>
      </trkpt>
      <trkpt lat="44.9596380" lon="6.8588970">
        <ele>2180.6</ele>
        <time>2017-07-29T06:53:36Z</time>
      </trkpt>
      <trkpt lat="44.9596280" lon="6.8587750">
        <ele>2178.8</ele>
        <time>2017-07-29T06:53:37Z</time>
      </trkpt>
      <trkpt lat="44.9596140" lon="6.8586480">
        <ele>2177.6</ele>
        <time>2017-07-29T06:53:38Z</time>
      </trkpt>
      <trkpt lat="44.9596000" lon="6.8585190">
        <ele>2176.4</ele>
        <time>2017-07-29T06:53:39Z</time>
      </trkpt>
      <trkpt lat="44.9595740" lon="6.8583980">
        <ele>2175.2</ele>
        <time>2017-07-29T06:53:40Z</time>
      </trkpt>
      <trkpt lat="44.9595330" lon="6.8582680">
        <ele>2173.6</ele>
        <time>2017-07-29T06:53:41Z</time>
      </trkpt>
      <trkpt lat="44.9594960" lon="6.8581330">
        <ele>2172.2</ele>
        <time>2017-07-29T06:53:42Z</time>
      </trkpt>
      <trkpt lat="44.9594560" lon="6.8580000">
        <ele>2171.0</ele>
        <time>2017-07-29T06:53:43Z</time>
      </trkpt>
      <trkpt lat="44.9594140" lon="6.8578650">
        <ele>2169.8</ele>
        <time>2017-07-29T06:53:44Z</time>
      </trkpt>
      <trkpt lat="44.9593780" lon="6.8577290">
        <ele>2168.6</ele>
        <time>2017-07-29T06:53:45Z</time>
      </trkpt>
      <trkpt lat="44.9593430" lon="6.8575930">
        <ele>2167.6</ele>
        <time>2017-07-29T06:53:46Z</time>
      </trkpt>
      <trkpt lat="44.9592880" lon="6.8573050">
        <ele>2165.8</ele>
        <time>2017-07-29T06:53:48Z</time>
      </trkpt>
      <trkpt lat="44.9592420" lon="6.8569970">
        <ele>2163.6</ele>
        <time>2017-07-29T06:53:50Z</time>
      </trkpt>
      <trkpt lat="44.9592250" lon="6.8568670">
        <ele>2161.2</ele>
        <time>2017-07-29T06:53:51Z</time>
      </trkpt>
      <trkpt lat="44.9592120" lon="6.8567480">
        <ele>2160.0</ele>
        <time>2017-07-29T06:53:52Z</time>
      </trkpt>
      <trkpt lat="44.9592010" lon="6.8566320">
        <ele>2159.0</ele>
        <time>2017-07-29T06:53:53Z</time>
      </trkpt>
      <trkpt lat="44.9591870" lon="6.8565150">
        <ele>2157.8</ele>
        <time>2017-07-29T06:53:54Z</time>
      </trkpt>
      <trkpt lat="44.9591680" lon="6.8563980">
        <ele>2156.6</ele>
        <time>2017-07-29T06:53:55Z</time>
      </trkpt>
      <trkpt lat="44.9591360" lon="6.8562870">
        <ele>2155.2</ele>
        <time>2017-07-29T06:53:56Z</time>
      </trkpt>
      <trkpt lat="44.9590900" lon="6.8561810">
        <ele>2154.0</ele>
        <time>2017-07-29T06:53:57Z</time>
      </trkpt>
      <trkpt lat="44.9590390" lon="6.8560780">
        <ele>2152.8</ele>
        <time>2017-07-29T06:53:58Z</time>
      </trkpt>
      <trkpt lat="44.9589730" lon="6.8559970">
        <ele>2151.6</ele>
        <time>2017-07-29T06:53:59Z</time>
      </trkpt>
      <trkpt lat="44.9589000" lon="6.8559210">
        <ele>2150.4</ele>
        <time>2017-07-29T06:54:00Z</time>
      </trkpt>
      <trkpt lat="44.9588190" lon="6.8558380">
        <ele>2149.2</ele>
        <time>2017-07-29T06:54:01Z</time>
      </trkpt>
      <trkpt lat="44.9587310" lon="6.8557520">
        <ele>2148.2</ele>
        <time>2017-07-29T06:54:02Z</time>
      </trkpt>
      <trkpt lat="44.9585500" lon="6.8556080">
        <ele>2146.4</ele>
        <time>2017-07-29T06:54:04Z</time>
      </trkpt>
      <trkpt lat="44.9583740" lon="6.8554600">
        <ele>2144.6</ele>
        <time>2017-07-29T06:54:06Z</time>
      </trkpt>
      <trkpt lat="44.9581910" lon="6.8553040">
        <ele>2143.0</ele>
        <time>2017-07-29T06:54:08Z</time>
      </trkpt>
      <trkpt lat="44.9581010" lon="6.8552250">
        <ele>2142.2</ele>
        <time>2017-07-29T06:54:09Z</time>
      </trkpt>
      <trkpt lat="44.9580190" lon="6.8551370">
        <ele>2141.2</ele>
        <time>2017-07-29T06:54:10Z</time>
      </trkpt>
      <trkpt lat="44.9578610" lon="6.8549520">
        <ele>2139.8</ele>
        <time>2017-07-29T06:54:12Z</time>
      </trkpt>
      <trkpt lat="44.9577880" lon="6.8548550">
        <ele>2138.8</ele>
        <time>2017-07-29T06:54:13Z</time>
      </trkpt>
      <trkpt lat="44.9577150" lon="6.8547400">
        <ele>2137.6</ele>
        <time>2017-07-29T06:54:14Z</time>
      </trkpt>
      <trkpt lat="44.9576470" lon="6.8546070">
        <ele>2135.2</ele>
        <time>2017-07-29T06:54:15Z</time>
      </trkpt>
      <trkpt lat="44.9575750" lon="6.8544720">
        <ele>2134.0</ele>
        <time>2017-07-29T06:54:16Z</time>
      </trkpt>
      <trkpt lat="44.9574210" lon="6.8542130">
        <ele>2132.2</ele>
        <time>2017-07-29T06:54:18Z</time>
      </trkpt>
      <trkpt lat="44.9573410" lon="6.8541180">
        <ele>2130.6</ele>
        <time>2017-07-29T06:54:19Z</time>
      </trkpt>
      <trkpt lat="44.9572670" lon="6.8540360">
        <ele>2129.0</ele>
        <time>2017-07-29T06:54:20Z</time>
      </trkpt>
      <trkpt lat="44.9571970" lon="6.8539620">
        <ele>2127.6</ele>
        <time>2017-07-29T06:54:21Z</time>
      </trkpt>
      <trkpt lat="44.9571340" lon="6.8539020">
        <ele>2126.4</ele>
        <time>2017-07-29T06:54:22Z</time>
      </trkpt>
      <trkpt lat="44.9570600" lon="6.8539060">
        <ele>2125.0</ele>
        <time>2017-07-29T06:54:23Z</time>
      </trkpt>
      <trkpt lat="44.9569830" lon="6.8539450">
        <ele>2123.2</ele>
        <time>2017-07-29T06:54:24Z</time>
      </trkpt>
      <trkpt lat="44.9569670" lon="6.8539970">
        <ele>2121.6</ele>
        <time>2017-07-29T06:54:25Z</time>
      </trkpt>
      <trkpt lat="44.9569530" lon="6.8540120">
        <ele>2120.2</ele>
        <time>2017-07-29T06:54:26Z</time>
      </trkpt>
      <trkpt lat="44.9569530" lon="6.8540060">
        <ele>2119.2</ele>
        <time>2017-07-29T06:54:27Z</time>
      </trkpt>
      <trkpt lat="44.9569620" lon="6.8539790">
        <ele>2118.0</ele>
        <time>2017-07-29T06:54:28Z</time>
      </trkpt>
      <trkpt lat="44.9569840" lon="6.8539010">
        <ele>2116.2</ele>
        <time>2017-07-29T06:54:30Z</time>
      </trkpt>
      <trkpt lat="44.9570160" lon="6.8538550">
        <ele>2115.0</ele>
        <time>2017-07-29T06:54:31Z</time>
      </trkpt>
      <trkpt lat="44.9570530" lon="6.8537900">
        <ele>2114.2</ele>
        <time>2017-07-29T06:54:32Z</time>
      </trkpt>
      <trkpt lat="44.9570850" lon="6.8537230">
        <ele>2113.2</ele>
        <time>2017-07-29T06:54:33Z</time>
      </trkpt>
      <trkpt lat="44.9571020" lon="6.8536660">
        <ele>2112.6</ele>
        <time>2017-07-29T06:54:34Z</time>
      </trkpt>
      <trkpt lat="44.9570970" lon="6.8535870">
        <ele>2112.0</ele>
        <time>2017-07-29T06:54:35Z</time>
      </trkpt>
      <trkpt lat="44.9570620" lon="6.8533870">
        <ele>2110.8</ele>
        <time>2017-07-29T06:54:37Z</time>
      </trkpt>
      <trkpt lat="44.9570370" lon="6.8532760">
        <ele>2110.2</ele>
        <time>2017-07-29T06:54:38Z</time>
      </trkpt>
      <trkpt lat="44.9569900" lon="6.8531780">
        <ele>2108.4</ele>
        <time>2017-07-29T06:54:39Z</time>
      </trkpt>
      <trkpt lat="44.9569240" lon="6.8530860">
        <ele>2107.4</ele>
        <time>2017-07-29T06:54:40Z</time>
      </trkpt>
      <trkpt lat="44.9568540" lon="6.8530020">
        <ele>2106.2</ele>
        <time>2017-07-29T06:54:41Z</time>
      </trkpt>
      <trkpt lat="44.9567760" lon="6.8529770">
        <ele>2105.0</ele>
        <time>2017-07-29T06:54:42Z</time>
      </trkpt>
      <trkpt lat="44.9566940" lon="6.8529370">
        <ele>2104.0</ele>
        <time>2017-07-29T06:54:43Z</time>
      </trkpt>
      <trkpt lat="44.9566090" lon="6.8528690">
        <ele>2102.8</ele>
        <time>2017-07-29T06:54:44Z</time>
      </trkpt>
      <trkpt lat="44.9565200" lon="6.8527870">
        <ele>2101.6</ele>
        <time>2017-07-29T06:54:45Z</time>
      </trkpt>
      <trkpt lat="44.9564290" lon="6.8527040">
        <ele>2100.4</ele>
        <time>2017-07-29T06:54:46Z</time>
      </trkpt>
      <trkpt lat="44.9563380" lon="6.8526280">
        <ele>2099.2</ele>
        <time>2017-07-29T06:54:47Z</time>
      </trkpt>
      <trkpt lat="44.9562640" lon="6.8525530">
        <ele>2097.8</ele>
        <time>2017-07-29T06:54:48Z</time>
      </trkpt>
      <trkpt lat="44.9561940" lon="6.8524810">
        <ele>2096.2</ele>
        <time>2017-07-29T06:54:49Z</time>
      </trkpt>
      <trkpt lat="44.9561460" lon="6.8524110">
        <ele>2094.8</ele>
        <time>2017-07-29T06:54:50Z</time>
      </trkpt>
      <trkpt lat="44.9561180" lon="6.8523290">
        <ele>2093.2</ele>
        <time>2017-07-29T06:54:51Z</time>
      </trkpt>
      <trkpt lat="44.9561120" lon="6.8522360">
        <ele>2091.6</ele>
        <time>2017-07-29T06:54:52Z</time>
      </trkpt>
      <trkpt lat="44.9561170" lon="6.8521370">
        <ele>2090.4</ele>
        <time>2017-07-29T06:54:53Z</time>
      </trkpt>
      <trkpt lat="44.9561330" lon="6.8520260">
        <ele>2089.2</ele>
        <time>2017-07-29T06:54:54Z</time>
      </trkpt>
      <trkpt lat="44.9561540" lon="6.8519110">
        <ele>2088.4</ele>
        <time>2017-07-29T06:54:55Z</time>
      </trkpt>
      <trkpt lat="44.9561760" lon="6.8517910">
        <ele>2087.4</ele>
        <time>2017-07-29T06:54:56Z</time>
      </trkpt>
      <trkpt lat="44.9561940" lon="6.8516720">
        <ele>2086.6</ele>
        <time>2017-07-29T06:54:57Z</time>
      </trkpt>
      <trkpt lat="44.9561920" lon="6.8515520">
        <ele>2085.8</ele>
        <time>2017-07-29T06:54:58Z</time>
      </trkpt>
      <trkpt lat="44.9561770" lon="6.8514280">
        <ele>2085.2</ele>
        <time>2017-07-29T06:54:59Z</time>
      </trkpt>
      <trkpt lat="44.9561630" lon="6.8512980">
        <ele>2084.2</ele>
        <time>2017-07-29T06:55:00Z</time>
      </trkpt>
      <trkpt lat="44.9561470" lon="6.8510540">
        <ele>2082.8</ele>
        <time>2017-07-29T06:55:02Z</time>
      </trkpt>
      <trkpt lat="44.9561400" lon="6.8509450">
        <ele>2081.4</ele>
        <time>2017-07-29T06:55:03Z</time>
      </trkpt>
      <trkpt lat="44.9561330" lon="6.8508500">
        <ele>2080.6</ele>
        <time>2017-07-29T06:55:04Z</time>
      </trkpt>
      <trkpt lat="44.9561360" lon="6.8507680">
        <ele>2080.0</ele>
        <time>2017-07-29T06:55:05Z</time>
      </trkpt>
      <trkpt lat="44.9561760" lon="6.8506150">
        <ele>2078.4</ele>
        <time>2017-07-29T06:55:07Z</time>
      </trkpt>
      <trkpt lat="44.9562780" lon="6.8504570">
        <ele>2077.0</ele>
        <time>2017-07-29T06:55:09Z</time>
      </trkpt>
      <trkpt lat="44.9563060" lon="6.8503840">
        <ele>2076.6</ele>
        <time>2017-07-29T06:55:10Z</time>
      </trkpt>
      <trkpt lat="44.9563160" lon="6.8503140">
        <ele>2076.0</ele>
        <time>2017-07-29T06:55:11Z</time>
      </trkpt>
      <trkpt lat="44.9563060" lon="6.8502370">
        <ele>2075.6</ele>
        <time>2017-07-29T06:55:12Z</time>
      </trkpt>
      <trkpt lat="44.9562530" lon="6.8499890">
        <ele>2074.6</ele>
        <time>2017-07-29T06:55:15Z</time>
      </trkpt>
      <trkpt lat="44.9562140" lon="6.8498990">
        <ele>2074.6</ele>
        <time>2017-07-29T06:55:16Z</time>
      </trkpt>
      <trkpt lat="44.9561690" lon="6.8498160">
        <ele>2074.2</ele>
        <time>2017-07-29T06:55:17Z</time>
      </trkpt>
      <trkpt lat="44.9560590" lon="6.8496370">
        <ele>2073.6</ele>
        <time>2017-07-29T06:55:19Z</time>
      </trkpt>
      <trkpt lat="44.9559810" lon="6.8494000">
        <ele>2072.8</ele>
        <time>2017-07-29T06:55:21Z</time>
      </trkpt>
      <trkpt lat="44.9559430" lon="6.8492630">
        <ele>2072.8</ele>
        <time>2017-07-29T06:55:22Z</time>
      </trkpt>
      <trkpt lat="44.9559100" lon="6.8491100">
        <ele>2072.6</ele>
        <time>2017-07-29T06:55:23Z</time>
      </trkpt>
      <trkpt lat="44.9558860" lon="6.8489590">
        <ele>2072.6</ele>
        <time>2017-07-29T06:55:24Z</time>
      </trkpt>
      <trkpt lat="44.9558720" lon="6.8488020">
        <ele>2072.4</ele>
        <time>2017-07-29T06:55:25Z</time>
      </trkpt>
      <trkpt lat="44.9558440" lon="6.8483640">
        <ele>2071.8</ele>
        <time>2017-07-29T06:55:28Z</time>
      </trkpt>
      <trkpt lat="44.9558530" lon="6.8482310">
        <ele>2071.8</ele>
        <time>2017-07-29T06:55:29Z</time>
      </trkpt>
      <trkpt lat="44.9558850" lon="6.8479760">
        <ele>2071.6</ele>
        <time>2017-07-29T06:55:31Z</time>
      </trkpt>
      <trkpt lat="44.9558860" lon="6.8478660">
        <ele>2071.2</ele>
        <time>2017-07-29T06:55:32Z</time>
      </trkpt>
      <trkpt lat="44.9558370" lon="6.8476780">
        <ele>2071.0</ele>
        <time>2017-07-29T06:55:34Z</time>
      </trkpt>
      <trkpt lat="44.9557170" lon="6.8474950">
        <ele>2070.8</ele>
        <time>2017-07-29T06:55:37Z</time>
      </trkpt>
      <trkpt lat="44.9555230" lon="6.8472410">
        <ele>2070.6</ele>
        <time>2017-07-29T06:55:41Z</time>
      </trkpt>
      <trkpt lat="44.9554590" lon="6.8471940">
        <ele>2070.6</ele>
        <time>2017-07-29T06:55:42Z</time>
      </trkpt>
      <trkpt lat="44.9552720" lon="6.8471130">
        <ele>2069.8</ele>
        <time>2017-07-29T06:55:45Z</time>
      </trkpt>
      <trkpt lat="44.9551440" lon="6.8470110">
        <ele>2068.6</ele>
        <time>2017-07-29T06:55:48Z</time>
      </trkpt>
      <trkpt lat="44.9550530" lon="6.8469590">
        <ele>2067.4</ele>
        <time>2017-07-29T06:55:50Z</time>
      </trkpt>
      <trkpt lat="44.9550040" lon="6.8469390">
        <ele>2066.2</ele>
        <time>2017-07-29T06:55:51Z</time>
      </trkpt>
      <trkpt lat="44.9549660" lon="6.8469280">
        <ele>2065.2</ele>
        <time>2017-07-29T06:55:52Z</time>
      </trkpt>
      <trkpt lat="44.9549330" lon="6.8469170">
        <ele>2064.4</ele>
        <time>2017-07-29T06:55:53Z</time>
      </trkpt>
      <trkpt lat="44.9548920" lon="6.8469020">
        <ele>2063.6</ele>
        <time>2017-07-29T06:55:54Z</time>
      </trkpt>
      <trkpt lat="44.9548540" lon="6.8468870">
        <ele>2063.0</ele>
        <time>2017-07-29T06:55:55Z</time>
      </trkpt>
      <trkpt lat="44.9548380" lon="6.8468500">
        <ele>2062.4</ele>
        <time>2017-07-29T06:55:56Z</time>
      </trkpt>
      <trkpt lat="44.9548460" lon="6.8467990">
        <ele>2061.8</ele>
        <time>2017-07-29T06:55:57Z</time>
      </trkpt>
      <trkpt lat="44.9548700" lon="6.8467380">
        <ele>2061.2</ele>
        <time>2017-07-29T06:55:58Z</time>
      </trkpt>
      <trkpt lat="44.9548970" lon="6.8466710">
        <ele>2060.6</ele>
        <time>2017-07-29T06:55:59Z</time>
      </trkpt>
      <trkpt lat="44.9549110" lon="6.8466000">
        <ele>2059.8</ele>
        <time>2017-07-29T06:56:00Z</time>
      </trkpt>
      <trkpt lat="44.9549020" lon="6.8465160">
        <ele>2059.0</ele>
        <time>2017-07-29T06:56:01Z</time>
      </trkpt>
      <trkpt lat="44.9548750" lon="6.8463180">
        <ele>2057.6</ele>
        <time>2017-07-29T06:56:03Z</time>
      </trkpt>
      <trkpt lat="44.9548680" lon="6.8462140">
        <ele>2056.8</ele>
        <time>2017-07-29T06:56:04Z</time>
      </trkpt>
      <trkpt lat="44.9548650" lon="6.8461280">
        <ele>2055.8</ele>
        <time>2017-07-29T06:56:05Z</time>
      </trkpt>
      <trkpt lat="44.9548500" lon="6.8460670">
        <ele>2055.0</ele>
        <time>2017-07-29T06:56:06Z</time>
      </trkpt>
      <trkpt lat="44.9548200" lon="6.8460260">
        <ele>2054.0</ele>
        <time>2017-07-29T06:56:07Z</time>
      </trkpt>
      <trkpt lat="44.9547810" lon="6.8459900">
        <ele>2053.4</ele>
        <time>2017-07-29T06:56:08Z</time>
      </trkpt>
      <trkpt lat="44.9547370" lon="6.8459660">
        <ele>2052.8</ele>
        <time>2017-07-29T06:56:09Z</time>
      </trkpt>
      <trkpt lat="44.9546860" lon="6.8459390">
        <ele>2052.2</ele>
        <time>2017-07-29T06:56:11Z</time>
      </trkpt>
      <trkpt lat="44.9546380" lon="6.8459030">
        <ele>2051.6</ele>
        <time>2017-07-29T06:56:12Z</time>
      </trkpt>
      <trkpt lat="44.9545910" lon="6.8458710">
        <ele>2050.6</ele>
        <time>2017-07-29T06:56:13Z</time>
      </trkpt>
      <trkpt lat="44.9545470" lon="6.8458710">
        <ele>2049.8</ele>
        <time>2017-07-29T06:56:14Z</time>
      </trkpt>
      <trkpt lat="44.9545030" lon="6.8458840">
        <ele>2048.8</ele>
        <time>2017-07-29T06:56:15Z</time>
      </trkpt>
      <trkpt lat="44.9544590" lon="6.8459190">
        <ele>2046.2</ele>
        <time>2017-07-29T06:56:16Z</time>
      </trkpt>
      <trkpt lat="44.9544200" lon="6.8459420">
        <ele>2044.8</ele>
        <time>2017-07-29T06:56:17Z</time>
      </trkpt>
      <trkpt lat="44.9543800" lon="6.8459340">
        <ele>2043.6</ele>
        <time>2017-07-29T06:56:18Z</time>
      </trkpt>
      <trkpt lat="44.9543400" lon="6.8459060">
        <ele>2042.2</ele>
        <time>2017-07-29T06:56:19Z</time>
      </trkpt>
      <trkpt lat="44.9543010" lon="6.8458640">
        <ele>2041.0</ele>
        <time>2017-07-29T06:56:20Z</time>
      </trkpt>
      <trkpt lat="44.9542720" lon="6.8458090">
        <ele>2039.6</ele>
        <time>2017-07-29T06:56:21Z</time>
      </trkpt>
      <trkpt lat="44.9542570" lon="6.8457350">
        <ele>2038.2</ele>
        <time>2017-07-29T06:56:22Z</time>
      </trkpt>
      <trkpt lat="44.9542360" lon="6.8456700">
        <ele>2037.2</ele>
        <time>2017-07-29T06:56:23Z</time>
      </trkpt>
      <trkpt lat="44.9542000" lon="6.8456390">
        <ele>2036.0</ele>
        <time>2017-07-29T06:56:24Z</time>
      </trkpt>
      <trkpt lat="44.9541560" lon="6.8456310">
        <ele>2034.8</ele>
        <time>2017-07-29T06:56:25Z</time>
      </trkpt>
      <trkpt lat="44.9541020" lon="6.8456370">
        <ele>2033.6</ele>
        <time>2017-07-29T06:56:26Z</time>
      </trkpt>
      <trkpt lat="44.9540530" lon="6.8456380">
        <ele>2032.6</ele>
        <time>2017-07-29T06:56:27Z</time>
      </trkpt>
      <trkpt lat="44.9540120" lon="6.8456390">
        <ele>2031.4</ele>
        <time>2017-07-29T06:56:28Z</time>
      </trkpt>
      <trkpt lat="44.9539800" lon="6.8456570">
        <ele>2030.2</ele>
        <time>2017-07-29T06:56:29Z</time>
      </trkpt>
      <trkpt lat="44.9539500" lon="6.8456960">
        <ele>2028.8</ele>
        <time>2017-07-29T06:56:30Z</time>
      </trkpt>
      <trkpt lat="44.9539190" lon="6.8457220">
        <ele>2027.6</ele>
        <time>2017-07-29T06:56:31Z</time>
      </trkpt>
      <trkpt lat="44.9538960" lon="6.8456990">
        <ele>2026.4</ele>
        <time>2017-07-29T06:56:32Z</time>
      </trkpt>
      <trkpt lat="44.9538630" lon="6.8456700">
        <ele>2025.4</ele>
        <time>2017-07-29T06:56:33Z</time>
      </trkpt>
      <trkpt lat="44.9537850" lon="6.8456880">
        <ele>2023.2</ele>
        <time>2017-07-29T06:56:35Z</time>
      </trkpt>
      <trkpt lat="44.9537310" lon="6.8456950">
        <ele>2022.0</ele>
        <time>2017-07-29T06:56:36Z</time>
      </trkpt>
      <trkpt lat="44.9536670" lon="6.8457030">
        <ele>2020.4</ele>
        <time>2017-07-29T06:56:37Z</time>
      </trkpt>
      <trkpt lat="44.9535930" lon="6.8457160">
        <ele>2019.4</ele>
        <time>2017-07-29T06:56:38Z</time>
      </trkpt>
      <trkpt lat="44.9535220" lon="6.8457250">
        <ele>2017.8</ele>
        <time>2017-07-29T06:56:39Z</time>
      </trkpt>
      <trkpt lat="44.9534620" lon="6.8457400">
        <ele>2015.4</ele>
        <time>2017-07-29T06:56:40Z</time>
      </trkpt>
      <trkpt lat="44.9534150" lon="6.8457560">
        <ele>2014.2</ele>
        <time>2017-07-29T06:56:41Z</time>
      </trkpt>
      <trkpt lat="44.9533700" lon="6.8457880">
        <ele>2012.6</ele>
        <time>2017-07-29T06:56:42Z</time>
      </trkpt>
      <trkpt lat="44.9533220" lon="6.8458070">
        <ele>2011.0</ele>
        <time>2017-07-29T06:56:43Z</time>
      </trkpt>
      <trkpt lat="44.9532720" lon="6.8458310">
        <ele>2009.6</ele>
        <time>2017-07-29T06:56:44Z</time>
      </trkpt>
      <trkpt lat="44.9532170" lon="6.8458470">
        <ele>2007.8</ele>
        <time>2017-07-29T06:56:45Z</time>
      </trkpt>
      <trkpt lat="44.9531590" lon="6.8458510">
        <ele>2006.2</ele>
        <time>2017-07-29T06:56:46Z</time>
      </trkpt>
      <trkpt lat="44.9531050" lon="6.8458410">
        <ele>2004.8</ele>
        <time>2017-07-29T06:56:47Z</time>
      </trkpt>
      <trkpt lat="44.9530500" lon="6.8458290">
        <ele>2003.6</ele>
        <time>2017-07-29T06:56:48Z</time>
      </trkpt>
      <trkpt lat="44.9530010" lon="6.8458080">
        <ele>2002.2</ele>
        <time>2017-07-29T06:56:49Z</time>
      </trkpt>
      <trkpt lat="44.9529550" lon="6.8457770">
        <ele>2000.6</ele>
        <time>2017-07-29T06:56:50Z</time>
      </trkpt>
      <trkpt lat="44.9529100" lon="6.8457710">
        <ele>1999.2</ele>
        <time>2017-07-29T06:56:51Z</time>
      </trkpt>
      <trkpt lat="44.9528660" lon="6.8457870">
        <ele>1998.0</ele>
        <time>2017-07-29T06:56:52Z</time>
      </trkpt>
      <trkpt lat="44.9528190" lon="6.8457860">
        <ele>1996.4</ele>
        <time>2017-07-29T06:56:53Z</time>
      </trkpt>
      <trkpt lat="44.9527680" lon="6.8457810">
        <ele>1995.0</ele>
        <time>2017-07-29T06:56:54Z</time>
      </trkpt>
      <trkpt lat="44.9527140" lon="6.8457810">
        <ele>1993.2</ele>
        <time>2017-07-29T06:56:55Z</time>
      </trkpt>
      <trkpt lat="44.9526610" lon="6.8457810">
        <ele>1991.8</ele>
        <time>2017-07-29T06:56:56Z</time>
      </trkpt>
      <trkpt lat="44.9526060" lon="6.8457660">
        <ele>1990.2</ele>
        <time>2017-07-29T06:56:57Z</time>
      </trkpt>
      <trkpt lat="44.9525520" lon="6.8457560">
        <ele>1989.0</ele>
        <time>2017-07-29T06:56:58Z</time>
      </trkpt>
      <trkpt lat="44.9525020" lon="6.8457500">
        <ele>1987.4</ele>
        <time>2017-07-29T06:56:59Z</time>
      </trkpt>
      <trkpt lat="44.9524630" lon="6.8457200">
        <ele>1985.8</ele>
        <time>2017-07-29T06:57:00Z</time>
      </trkpt>
      <trkpt lat="44.9524260" lon="6.8456660">
        <ele>1984.4</ele>
        <time>2017-07-29T06:57:01Z</time>
      </trkpt>
      <trkpt lat="44.9523930" lon="6.8456100">
        <ele>1983.0</ele>
        <time>2017-07-29T06:57:02Z</time>
      </trkpt>
      <trkpt lat="44.9523650" lon="6.8455710">
        <ele>1981.6</ele>
        <time>2017-07-29T06:57:03Z</time>
      </trkpt>
      <trkpt lat="44.9523310" lon="6.8455430">
        <ele>1978.4</ele>
        <time>2017-07-29T06:57:04Z</time>
      </trkpt>
      <trkpt lat="44.9522730" lon="6.8455370">
        <ele>1976.6</ele>
        <time>2017-07-29T06:57:05Z</time>
      </trkpt>
      <trkpt lat="44.9522120" lon="6.8455280">
        <ele>1975.2</ele>
        <time>2017-07-29T06:57:06Z</time>
      </trkpt>
      <trkpt lat="44.9521450" lon="6.8455330">
        <ele>1973.6</ele>
        <time>2017-07-29T06:57:07Z</time>
      </trkpt>
      <trkpt lat="44.9520710" lon="6.8455340">
        <ele>1972.4</ele>
        <time>2017-07-29T06:57:08Z</time>
      </trkpt>
      <trkpt lat="44.9520010" lon="6.8455560">
        <ele>1970.6</ele>
        <time>2017-07-29T06:57:09Z</time>
      </trkpt>
      <trkpt lat="44.9519400" lon="6.8455870">
        <ele>1969.0</ele>
        <time>2017-07-29T06:57:10Z</time>
      </trkpt>
      <trkpt lat="44.9518910" lon="6.8455970">
        <ele>1967.4</ele>
        <time>2017-07-29T06:57:11Z</time>
      </trkpt>
      <trkpt lat="44.9518380" lon="6.8455880">
        <ele>1966.2</ele>
        <time>2017-07-29T06:57:12Z</time>
      </trkpt>
      <trkpt lat="44.9517880" lon="6.8455770">
        <ele>1964.8</ele>
        <time>2017-07-29T06:57:13Z</time>
      </trkpt>
      <trkpt lat="44.9517300" lon="6.8455580">
        <ele>1963.6</ele>
        <time>2017-07-29T06:57:14Z</time>
      </trkpt>
      <trkpt lat="44.9516790" lon="6.8455430">
        <ele>1962.4</ele>
        <time>2017-07-29T06:57:15Z</time>
      </trkpt>
      <trkpt lat="44.9516330" lon="6.8455380">
        <ele>1961.2</ele>
        <time>2017-07-29T06:57:16Z</time>
      </trkpt>
      <trkpt lat="44.9515870" lon="6.8455410">
        <ele>1959.8</ele>
        <time>2017-07-29T06:57:17Z</time>
      </trkpt>
      <trkpt lat="44.9515420" lon="6.8455440">
        <ele>1958.6</ele>
        <time>2017-07-29T06:57:18Z</time>
      </trkpt>
      <trkpt lat="44.9514940" lon="6.8455410">
        <ele>1957.4</ele>
        <time>2017-07-29T06:57:19Z</time>
      </trkpt>
      <trkpt lat="44.9514440" lon="6.8455350">
        <ele>1956.2</ele>
        <time>2017-07-29T06:57:20Z</time>
      </trkpt>
      <trkpt lat="44.9513970" lon="6.8455300">
        <ele>1955.2</ele>
        <time>2017-07-29T06:57:21Z</time>
      </trkpt>
      <trkpt lat="44.9513020" lon="6.8455260">
        <ele>1953.0</ele>
        <time>2017-07-29T06:57:23Z</time>
      </trkpt>
      <trkpt lat="44.9512480" lon="6.8455290">
        <ele>1951.6</ele>
        <time>2017-07-29T06:57:24Z</time>
      </trkpt>
      <trkpt lat="44.9511880" lon="6.8455380">
        <ele>1950.2</ele>
        <time>2017-07-29T06:57:25Z</time>
      </trkpt>
      <trkpt lat="44.9511270" lon="6.8455510">
        <ele>1948.8</ele>
        <time>2017-07-29T06:57:26Z</time>
      </trkpt>
      <trkpt lat="44.9510580" lon="6.8455760">
        <ele>1947.6</ele>
        <time>2017-07-29T06:57:27Z</time>
      </trkpt>
      <trkpt lat="44.9509860" lon="6.8455990">
        <ele>1944.6</ele>
        <time>2017-07-29T06:57:28Z</time>
      </trkpt>
      <trkpt lat="44.9509120" lon="6.8456260">
        <ele>1942.6</ele>
        <time>2017-07-29T06:57:29Z</time>
      </trkpt>
      <trkpt lat="44.9508380" lon="6.8456600">
        <ele>1941.4</ele>
        <time>2017-07-29T06:57:30Z</time>
      </trkpt>
      <trkpt lat="44.9507680" lon="6.8456920">
        <ele>1940.0</ele>
        <time>2017-07-29T06:57:31Z</time>
      </trkpt>
      <trkpt lat="44.9507060" lon="6.8457380">
        <ele>1938.4</ele>
        <time>2017-07-29T06:57:32Z</time>
      </trkpt>
      <trkpt lat="44.9506480" lon="6.8457920">
        <ele>1937.0</ele>
        <time>2017-07-29T06:57:33Z</time>
      </trkpt>
      <trkpt lat="44.9505940" lon="6.8458520">
        <ele>1935.4</ele>
        <time>2017-07-29T06:57:34Z</time>
      </trkpt>
      <trkpt lat="44.9505660" lon="6.8459250">
        <ele>1934.0</ele>
        <time>2017-07-29T06:57:35Z</time>
      </trkpt>
      <trkpt lat="44.9505440" lon="6.8460060">
        <ele>1932.4</ele>
        <time>2017-07-29T06:57:36Z</time>
      </trkpt>
      <trkpt lat="44.9505360" lon="6.8460990">
        <ele>1930.8</ele>
        <time>2017-07-29T06:57:37Z</time>
      </trkpt>
      <trkpt lat="44.9505360" lon="6.8461850">
        <ele>1929.4</ele>
        <time>2017-07-29T06:57:38Z</time>
      </trkpt>
      <trkpt lat="44.9505310" lon="6.8462670">
        <ele>1928.2</ele>
        <time>2017-07-29T06:57:39Z</time>
      </trkpt>
      <trkpt lat="44.9505180" lon="6.8463480">
        <ele>1926.6</ele>
        <time>2017-07-29T06:57:40Z</time>
      </trkpt>
      <trkpt lat="44.9504940" lon="6.8464300">
        <ele>1925.2</ele>
        <time>2017-07-29T06:57:41Z</time>
      </trkpt>
      <trkpt lat="44.9504570" lon="6.8465200">
        <ele>1923.8</ele>
        <time>2017-07-29T06:57:42Z</time>
      </trkpt>
      <trkpt lat="44.9503990" lon="6.8466090">
        <ele>1922.2</ele>
        <time>2017-07-29T06:57:43Z</time>
      </trkpt>
      <trkpt lat="44.9503420" lon="6.8467160">
        <ele>1920.6</ele>
        <time>2017-07-29T06:57:44Z</time>
      </trkpt>
      <trkpt lat="44.9502790" lon="6.8468210">
        <ele>1919.0</ele>
        <time>2017-07-29T06:57:45Z</time>
      </trkpt>
      <trkpt lat="44.9502240" lon="6.8469150">
        <ele>1917.6</ele>
        <time>2017-07-29T06:57:46Z</time>
      </trkpt>
      <trkpt lat="44.9501860" lon="6.8470210">
        <ele>1916.2</ele>
        <time>2017-07-29T06:57:47Z</time>
      </trkpt>
      <trkpt lat="44.9501640" lon="6.8471430">
        <ele>1914.6</ele>
        <time>2017-07-29T06:57:48Z</time>
      </trkpt>
      <trkpt lat="44.9501500" lon="6.8472720">
        <ele>1913.4</ele>
        <time>2017-07-29T06:57:49Z</time>
      </trkpt>
      <trkpt lat="44.9501360" lon="6.8474030">
        <ele>1912.0</ele>
        <time>2017-07-29T06:57:50Z</time>
      </trkpt>
      <trkpt lat="44.9501140" lon="6.8475350">
        <ele>1910.8</ele>
        <time>2017-07-29T06:57:51Z</time>
      </trkpt>
      <trkpt lat="44.9500800" lon="6.8476580">
        <ele>1908.8</ele>
        <time>2017-07-29T06:57:52Z</time>
      </trkpt>
      <trkpt lat="44.9500360" lon="6.8477630">
        <ele>1907.8</ele>
        <time>2017-07-29T06:57:53Z</time>
      </trkpt>
      <trkpt lat="44.9499930" lon="6.8478630">
        <ele>1907.0</ele>
        <time>2017-07-29T06:57:54Z</time>
      </trkpt>
      <trkpt lat="44.9499620" lon="6.8479720">
        <ele>1906.0</ele>
        <time>2017-07-29T06:57:55Z</time>
      </trkpt>
      <trkpt lat="44.9499530" lon="6.8480920">
        <ele>1905.0</ele>
        <time>2017-07-29T06:57:56Z</time>
      </trkpt>
      <trkpt lat="44.9499700" lon="6.8482240">
        <ele>1904.0</ele>
        <time>2017-07-29T06:57:57Z</time>
      </trkpt>
      <trkpt lat="44.9499920" lon="6.8483490">
        <ele>1902.8</ele>
        <time>2017-07-29T06:57:58Z</time>
      </trkpt>
      <trkpt lat="44.9500750" lon="6.8485260">
        <ele>1901.0</ele>
        <time>2017-07-29T06:58:00Z</time>
      </trkpt>
      <trkpt lat="44.9501600" lon="6.8486210">
        <ele>1898.8</ele>
        <time>2017-07-29T06:58:02Z</time>
      </trkpt>
      <trkpt lat="44.9501650" lon="6.8486850">
        <ele>1897.8</ele>
        <time>2017-07-29T06:58:03Z</time>
      </trkpt>
      <trkpt lat="44.9501450" lon="6.8487450">
        <ele>1896.8</ele>
        <time>2017-07-29T06:58:04Z</time>
      </trkpt>
      <trkpt lat="44.9501210" lon="6.8487980">
        <ele>1895.6</ele>
        <time>2017-07-29T06:58:05Z</time>
      </trkpt>
      <trkpt lat="44.9500860" lon="6.8488510">
        <ele>1894.2</ele>
        <time>2017-07-29T06:58:06Z</time>
      </trkpt>
      <trkpt lat="44.9500490" lon="6.8489090">
        <ele>1892.8</ele>
        <time>2017-07-29T06:58:07Z</time>
      </trkpt>
      <trkpt lat="44.9500030" lon="6.8489620">
        <ele>1891.6</ele>
        <time>2017-07-29T06:58:08Z</time>
      </trkpt>
      <trkpt lat="44.9499600" lon="6.8490170">
        <ele>1890.2</ele>
        <time>2017-07-29T06:58:09Z</time>
      </trkpt>
      <trkpt lat="44.9499170" lon="6.8490680">
        <ele>1888.6</ele>
        <time>2017-07-29T06:58:10Z</time>
      </trkpt>
      <trkpt lat="44.9498700" lon="6.8491190">
        <ele>1887.0</ele>
        <time>2017-07-29T06:58:11Z</time>
      </trkpt>
      <trkpt lat="44.9498060" lon="6.8491590">
        <ele>1885.4</ele>
        <time>2017-07-29T06:58:12Z</time>
      </trkpt>
      <trkpt lat="44.9497420" lon="6.8491980">
        <ele>1884.0</ele>
        <time>2017-07-29T06:58:13Z</time>
      </trkpt>
      <trkpt lat="44.9496750" lon="6.8492480">
        <ele>1882.4</ele>
        <time>2017-07-29T06:58:14Z</time>
      </trkpt>
      <trkpt lat="44.9496100" lon="6.8492950">
        <ele>1880.8</ele>
        <time>2017-07-29T06:58:15Z</time>
      </trkpt>
      <trkpt lat="44.9495400" lon="6.8493270">
        <ele>1878.0</ele>
        <time>2017-07-29T06:58:16Z</time>
      </trkpt>
      <trkpt lat="44.9494620" lon="6.8493370">
        <ele>1876.6</ele>
        <time>2017-07-29T06:58:17Z</time>
      </trkpt>
      <trkpt lat="44.9493780" lon="6.8493410">
        <ele>1875.0</ele>
        <time>2017-07-29T06:58:18Z</time>
      </trkpt>
      <trkpt lat="44.9492940" lon="6.8493460">
        <ele>1873.2</ele>
        <time>2017-07-29T06:58:19Z</time>
      </trkpt>
      <trkpt lat="44.9492120" lon="6.8493540">
        <ele>1871.4</ele>
        <time>2017-07-29T06:58:20Z</time>
      </trkpt>
      <trkpt lat="44.9491330" lon="6.8493710">
        <ele>1869.6</ele>
        <time>2017-07-29T06:58:21Z</time>
      </trkpt>
      <trkpt lat="44.9490640" lon="6.8493860">
        <ele>1867.8</ele>
        <time>2017-07-29T06:58:22Z</time>
      </trkpt>
      <trkpt lat="44.9490060" lon="6.8494300">
        <ele>1866.2</ele>
        <time>2017-07-29T06:58:23Z</time>
      </trkpt>
      <trkpt lat="44.9489610" lon="6.8494980">
        <ele>1864.2</ele>
        <time>2017-07-29T06:58:24Z</time>
      </trkpt>
      <trkpt lat="44.9489190" lon="6.8495660">
        <ele>1862.4</ele>
        <time>2017-07-29T06:58:25Z</time>
      </trkpt>
      <trkpt lat="44.9488860" lon="6.8496320">
        <ele>1860.8</ele>
        <time>2017-07-29T06:58:26Z</time>
      </trkpt>
      <trkpt lat="44.9488770" lon="6.8497040">
        <ele>1859.2</ele>
        <time>2017-07-29T06:58:27Z</time>
      </trkpt>
      <trkpt lat="44.9488820" lon="6.8497890">
        <ele>1857.4</ele>
        <time>2017-07-29T06:58:28Z</time>
      </trkpt>
      <trkpt lat="44.9488890" lon="6.8498800">
        <ele>1855.6</ele>
        <time>2017-07-29T06:58:29Z</time>
      </trkpt>
      <trkpt lat="44.9488760" lon="6.8499780">
        <ele>1853.8</ele>
        <time>2017-07-29T06:58:30Z</time>
      </trkpt>
      <trkpt lat="44.9488430" lon="6.8500790">
        <ele>1852.4</ele>
        <time>2017-07-29T06:58:31Z</time>
      </trkpt>
      <trkpt lat="44.9488040" lon="6.8501700">
        <ele>1850.6</ele>
        <time>2017-07-29T06:58:32Z</time>
      </trkpt>
      <trkpt lat="44.9487580" lon="6.8502530">
        <ele>1848.8</ele>
        <time>2017-07-29T06:58:33Z</time>
      </trkpt>
      <trkpt lat="44.9487110" lon="6.8503380">
        <ele>1846.6</ele>
        <time>2017-07-29T06:58:34Z</time>
      </trkpt>
      <trkpt lat="44.9486620" lon="6.8504510">
        <ele>1844.8</ele>
        <time>2017-07-29T06:58:35Z</time>
      </trkpt>
      <trkpt lat="44.9486180" lon="6.8505780">
        <ele>1843.0</ele>
        <time>2017-07-29T06:58:36Z</time>
      </trkpt>
      <trkpt lat="44.9485800" lon="6.8507180">
        <ele>1841.2</ele>
        <time>2017-07-29T06:58:37Z</time>
      </trkpt>
      <trkpt lat="44.9485530" lon="6.8508610">
        <ele>1839.6</ele>
        <time>2017-07-29T06:58:38Z</time>
      </trkpt>
      <trkpt lat="44.9485310" lon="6.8510010">
        <ele>1838.0</ele>
        <time>2017-07-29T06:58:39Z</time>
      </trkpt>
      <trkpt lat="44.9485210" lon="6.8511370">
        <ele>1834.6</ele>
        <time>2017-07-29T06:58:40Z</time>
      </trkpt>
      <trkpt lat="44.9485140" lon="6.8512680">
        <ele>1832.6</ele>
        <time>2017-07-29T06:58:41Z</time>
      </trkpt>
      <trkpt lat="44.9485020" lon="6.8513840">
        <ele>1830.4</ele>
        <time>2017-07-29T06:58:42Z</time>
      </trkpt>
      <trkpt lat="44.9484870" lon="6.8514980">
        <ele>1828.8</ele>
        <time>2017-07-29T06:58:43Z</time>
      </trkpt>
      <trkpt lat="44.9484580" lon="6.8516250">
        <ele>1826.6</ele>
        <time>2017-07-29T06:58:44Z</time>
      </trkpt>
      <trkpt lat="44.9484200" lon="6.8517590">
        <ele>1824.6</ele>
        <time>2017-07-29T06:58:45Z</time>
      </trkpt>
      <trkpt lat="44.9483800" lon="6.8519050">
        <ele>1822.4</ele>
        <time>2017-07-29T06:58:46Z</time>
      </trkpt>
      <trkpt lat="44.9483370" lon="6.8520540">
        <ele>1820.6</ele>
        <time>2017-07-29T06:58:47Z</time>
      </trkpt>
      <trkpt lat="44.9482990" lon="6.8522060">
        <ele>1818.4</ele>
        <time>2017-07-29T06:58:48Z</time>
      </trkpt>
      <trkpt lat="44.9482550" lon="6.8523480">
        <ele>1816.4</ele>
        <time>2017-07-29T06:58:49Z</time>
      </trkpt>
      <trkpt lat="44.9482000" lon="6.8524630">
        <ele>1814.8</ele>
        <time>2017-07-29T06:58:50Z</time>
      </trkpt>
      <trkpt lat="44.9481320" lon="6.8525520">
        <ele>1813.2</ele>
        <time>2017-07-29T06:58:51Z</time>
      </trkpt>
      <trkpt lat="44.9480660" lon="6.8526350">
        <ele>1812.0</ele>
        <time>2017-07-29T06:58:52Z</time>
      </trkpt>
      <trkpt lat="44.9480040" lon="6.8527250">
        <ele>1810.6</ele>
        <time>2017-07-29T06:58:53Z</time>
      </trkpt>
      <trkpt lat="44.9479420" lon="6.8528150">
        <ele>1809.2</ele>
        <time>2017-07-29T06:58:54Z</time>
      </trkpt>
      <trkpt lat="44.9478920" lon="6.8528960">
        <ele>1807.8</ele>
        <time>2017-07-29T06:58:55Z</time>
      </trkpt>
      <trkpt lat="44.9478440" lon="6.8529660">
        <ele>1806.2</ele>
        <time>2017-07-29T06:58:56Z</time>
      </trkpt>
      <trkpt lat="44.9477920" lon="6.8530010">
        <ele>1805.0</ele>
        <time>2017-07-29T06:58:57Z</time>
      </trkpt>
      <trkpt lat="44.9477310" lon="6.8530260">
        <ele>1803.8</ele>
        <time>2017-07-29T06:58:58Z</time>
      </trkpt>
      <trkpt lat="44.9476730" lon="6.8530510">
        <ele>1802.8</ele>
        <time>2017-07-29T06:58:59Z</time>
      </trkpt>
      <trkpt lat="44.9476070" lon="6.8530680">
        <ele>1801.6</ele>
        <time>2017-07-29T06:59:00Z</time>
      </trkpt>
      <trkpt lat="44.9475360" lon="6.8530790">
        <ele>1800.6</ele>
        <time>2017-07-29T06:59:01Z</time>
      </trkpt>
      <trkpt lat="44.9474600" lon="6.8530820">
        <ele>1799.8</ele>
        <time>2017-07-29T06:59:02Z</time>
      </trkpt>
      <trkpt lat="44.9473350" lon="6.8530140">
        <ele>1798.2</ele>
        <time>2017-07-29T06:59:04Z</time>
      </trkpt>
      <trkpt lat="44.9472880" lon="6.8529390">
        <ele>1796.6</ele>
        <time>2017-07-29T06:59:05Z</time>
      </trkpt>
      <trkpt lat="44.9472230" lon="6.8528860">
        <ele>1795.8</ele>
        <time>2017-07-29T06:59:06Z</time>
      </trkpt>
      <trkpt lat="44.9471790" lon="6.8527800">
        <ele>1795.2</ele>
        <time>2017-07-29T06:59:07Z</time>
      </trkpt>
      <trkpt lat="44.9470770" lon="6.8525690">
        <ele>1793.8</ele>
        <time>2017-07-29T06:59:09Z</time>
      </trkpt>
      <trkpt lat="44.9470260" lon="6.8524620">
        <ele>1793.0</ele>
        <time>2017-07-29T06:59:10Z</time>
      </trkpt>
      <trkpt lat="44.9469850" lon="6.8523280">
        <ele>1792.0</ele>
        <time>2017-07-29T06:59:11Z</time>
      </trkpt>
      <trkpt lat="44.9469360" lon="6.8522250">
        <ele>1790.8</ele>
        <time>2017-07-29T06:59:12Z</time>
      </trkpt>
      <trkpt lat="44.9468900" lon="6.8520990">
        <ele>1789.8</ele>
        <time>2017-07-29T06:59:13Z</time>
      </trkpt>
      <trkpt lat="44.9467930" lon="6.8518260">
        <ele>1787.8</ele>
        <time>2017-07-29T06:59:15Z</time>
      </trkpt>
      <trkpt lat="44.9467520" lon="6.8516620">
        <ele>1786.6</ele>
        <time>2017-07-29T06:59:16Z</time>
      </trkpt>
      <trkpt lat="44.9467040" lon="6.8515220">
        <ele>1785.2</ele>
        <time>2017-07-29T06:59:17Z</time>
      </trkpt>
      <trkpt lat="44.9466630" lon="6.8513820">
        <ele>1783.8</ele>
        <time>2017-07-29T06:59:18Z</time>
      </trkpt>
      <trkpt lat="44.9466310" lon="6.8512290">
        <ele>1782.4</ele>
        <time>2017-07-29T06:59:19Z</time>
      </trkpt>
      <trkpt lat="44.9466080" lon="6.8510280">
        <ele>1781.0</ele>
        <time>2017-07-29T06:59:20Z</time>
      </trkpt>
      <trkpt lat="44.9465970" lon="6.8508010">
        <ele>1779.6</ele>
        <time>2017-07-29T06:59:21Z</time>
      </trkpt>
      <trkpt lat="44.9465690" lon="6.8506370">
        <ele>1778.0</ele>
        <time>2017-07-29T06:59:22Z</time>
      </trkpt>
      <trkpt lat="44.9465340" lon="6.8505140">
        <ele>1776.6</ele>
        <time>2017-07-29T06:59:23Z</time>
      </trkpt>
      <trkpt lat="44.9464890" lon="6.8503910">
        <ele>1775.0</ele>
        <time>2017-07-29T06:59:24Z</time>
      </trkpt>
      <trkpt lat="44.9464430" lon="6.8502810">
        <ele>1773.4</ele>
        <time>2017-07-29T06:59:25Z</time>
      </trkpt>
      <trkpt lat="44.9463990" lon="6.8501950">
        <ele>1772.0</ele>
        <time>2017-07-29T06:59:26Z</time>
      </trkpt>
      <trkpt lat="44.9463540" lon="6.8501090">
        <ele>1770.6</ele>
        <time>2017-07-29T06:59:27Z</time>
      </trkpt>
      <trkpt lat="44.9462840" lon="6.8500520">
        <ele>1769.0</ele>
        <time>2017-07-29T06:59:28Z</time>
      </trkpt>
      <trkpt lat="44.9462080" lon="6.8499920">
        <ele>1766.2</ele>
        <time>2017-07-29T06:59:29Z</time>
      </trkpt>
      <trkpt lat="44.9461270" lon="6.8499330">
        <ele>1764.6</ele>
        <time>2017-07-29T06:59:30Z</time>
      </trkpt>
      <trkpt lat="44.9460430" lon="6.8498760">
        <ele>1763.0</ele>
        <time>2017-07-29T06:59:31Z</time>
      </trkpt>
      <trkpt lat="44.9459550" lon="6.8498100">
        <ele>1761.2</ele>
        <time>2017-07-29T06:59:32Z</time>
      </trkpt>
      <trkpt lat="44.9458760" lon="6.8497010">
        <ele>1759.4</ele>
        <time>2017-07-29T06:59:33Z</time>
      </trkpt>
      <trkpt lat="44.9457900" lon="6.8495910">
        <ele>1757.4</ele>
        <time>2017-07-29T06:59:34Z</time>
      </trkpt>
      <trkpt lat="44.9457170" lon="6.8494920">
        <ele>1755.6</ele>
        <time>2017-07-29T06:59:35Z</time>
      </trkpt>
      <trkpt lat="44.9456490" lon="6.8494070">
        <ele>1753.6</ele>
        <time>2017-07-29T06:59:36Z</time>
      </trkpt>
      <trkpt lat="44.9455860" lon="6.8493680">
        <ele>1751.8</ele>
        <time>2017-07-29T06:59:37Z</time>
      </trkpt>
      <trkpt lat="44.9455330" lon="6.8493390">
        <ele>1749.8</ele>
        <time>2017-07-29T06:59:38Z</time>
      </trkpt>
      <trkpt lat="44.9454750" lon="6.8493290">
        <ele>1747.8</ele>
        <time>2017-07-29T06:59:39Z</time>
      </trkpt>
      <trkpt lat="44.9454120" lon="6.8493430">
        <ele>1746.2</ele>
        <time>2017-07-29T06:59:40Z</time>
      </trkpt>
      <trkpt lat="44.9453320" lon="6.8493760">
        <ele>1744.4</ele>
        <time>2017-07-29T06:59:41Z</time>
      </trkpt>
      <trkpt lat="44.9452440" lon="6.8494460">
        <ele>1742.4</ele>
        <time>2017-07-29T06:59:42Z</time>
      </trkpt>
      <trkpt lat="44.9451630" lon="6.8495110">
        <ele>1740.4</ele>
        <time>2017-07-29T06:59:43Z</time>
      </trkpt>
      <trkpt lat="44.9450960" lon="6.8495660">
        <ele>1738.4</ele>
        <time>2017-07-29T06:59:44Z</time>
      </trkpt>
      <trkpt lat="44.9450330" lon="6.8496170">
        <ele>1736.6</ele>
        <time>2017-07-29T06:59:45Z</time>
      </trkpt>
      <trkpt lat="44.9449730" lon="6.8496620">
        <ele>1734.8</ele>
        <time>2017-07-29T06:59:46Z</time>
      </trkpt>
      <trkpt lat="44.9449160" lon="6.8497060">
        <ele>1732.8</ele>
        <time>2017-07-29T06:59:47Z</time>
      </trkpt>
      <trkpt lat="44.9448480" lon="6.8497290">
        <ele>1731.0</ele>
        <time>2017-07-29T06:59:48Z</time>
      </trkpt>
      <trkpt lat="44.9447780" lon="6.8497440">
        <ele>1728.8</ele>
        <time>2017-07-29T06:59:49Z</time>
      </trkpt>
      <trkpt lat="44.9447060" lon="6.8497300">
        <ele>1727.0</ele>
        <time>2017-07-29T06:59:50Z</time>
      </trkpt>
      <trkpt lat="44.9446250" lon="6.8497220">
        <ele>1725.0</ele>
        <time>2017-07-29T06:59:51Z</time>
      </trkpt>
      <trkpt lat="44.9445440" lon="6.8497200">
        <ele>1723.2</ele>
        <time>2017-07-29T06:59:52Z</time>
      </trkpt>
      <trkpt lat="44.9444620" lon="6.8497190">
        <ele>1719.4</ele>
        <time>2017-07-29T06:59:53Z</time>
      </trkpt>
      <trkpt lat="44.9443840" lon="6.8497030">
        <ele>1717.2</ele>
        <time>2017-07-29T06:59:54Z</time>
      </trkpt>
      <trkpt lat="44.9443130" lon="6.8496990">
        <ele>1715.4</ele>
        <time>2017-07-29T06:59:55Z</time>
      </trkpt>
      <trkpt lat="44.9442470" lon="6.8497340">
        <ele>1713.6</ele>
        <time>2017-07-29T06:59:56Z</time>
      </trkpt>
      <trkpt lat="44.9441850" lon="6.8497790">
        <ele>1711.8</ele>
        <time>2017-07-29T06:59:57Z</time>
      </trkpt>
      <trkpt lat="44.9441390" lon="6.8498500">
        <ele>1709.6</ele>
        <time>2017-07-29T06:59:58Z</time>
      </trkpt>
      <trkpt lat="44.9440970" lon="6.8499270">
        <ele>1707.2</ele>
        <time>2017-07-29T06:59:59Z</time>
      </trkpt>
      <trkpt lat="44.9440710" lon="6.8500180">
        <ele>1705.2</ele>
        <time>2017-07-29T07:00:00Z</time>
      </trkpt>
      <trkpt lat="44.9440540" lon="6.8501120">
        <ele>1703.2</ele>
        <time>2017-07-29T07:00:01Z</time>
      </trkpt>
      <trkpt lat="44.9440330" lon="6.8502250">
        <ele>1701.2</ele>
        <time>2017-07-29T07:00:02Z</time>
      </trkpt>
      <trkpt lat="44.9439890" lon="6.8503260">
        <ele>1699.2</ele>
        <time>2017-07-29T07:00:03Z</time>
      </trkpt>
      <trkpt lat="44.9439380" lon="6.8504330">
        <ele>1697.4</ele>
        <time>2017-07-29T07:00:04Z</time>
      </trkpt>
      <trkpt lat="44.9438870" lon="6.8505340">
        <ele>1695.2</ele>
        <time>2017-07-29T07:00:05Z</time>
      </trkpt>
      <trkpt lat="44.9438310" lon="6.8506190">
        <ele>1693.2</ele>
        <time>2017-07-29T07:00:06Z</time>
      </trkpt>
      <trkpt lat="44.9437710" lon="6.8506770">
        <ele>1691.0</ele>
        <time>2017-07-29T07:00:07Z</time>
      </trkpt>
      <trkpt lat="44.9437100" lon="6.8507330">
        <ele>1689.2</ele>
        <time>2017-07-29T07:00:08Z</time>
      </trkpt>
      <trkpt lat="44.9436440" lon="6.8507810">
        <ele>1687.0</ele>
        <time>2017-07-29T07:00:09Z</time>
      </trkpt>
      <trkpt lat="44.9435510" lon="6.8508020">
        <ele>1685.4</ele>
        <time>2017-07-29T07:00:10Z</time>
      </trkpt>
      <trkpt lat="44.9434590" lon="6.8508290">
        <ele>1683.4</ele>
        <time>2017-07-29T07:00:11Z</time>
      </trkpt>
      <trkpt lat="44.9433740" lon="6.8508640">
        <ele>1681.4</ele>
        <time>2017-07-29T07:00:12Z</time>
      </trkpt>
      <trkpt lat="44.9432830" lon="6.8509010">
        <ele>1679.2</ele>
        <time>2017-07-29T07:00:13Z</time>
      </trkpt>
      <trkpt lat="44.9431930" lon="6.8509320">
        <ele>1677.4</ele>
        <time>2017-07-29T07:00:14Z</time>
      </trkpt>
      <trkpt lat="44.9431160" lon="6.8509300">
        <ele>1675.6</ele>
        <time>2017-07-29T07:00:15Z</time>
      </trkpt>
      <trkpt lat="44.9430410" lon="6.8509210">
        <ele>1673.6</ele>
        <time>2017-07-29T07:00:16Z</time>
      </trkpt>
      <trkpt lat="44.9429610" lon="6.8509130">
        <ele>1670.4</ele>
        <time>2017-07-29T07:00:17Z</time>
      </trkpt>
      <trkpt lat="44.9428800" lon="6.8508940">
        <ele>1668.8</ele>
        <time>2017-07-29T07:00:18Z</time>
      </trkpt>
      <trkpt lat="44.9428170" lon="6.8508990">
        <ele>1667.2</ele>
        <time>2017-07-29T07:00:19Z</time>
      </trkpt>
      <trkpt lat="44.9427610" lon="6.8508730">
        <ele>1665.6</ele>
        <time>2017-07-29T07:00:20Z</time>
      </trkpt>
      <trkpt lat="44.9427200" lon="6.8508170">
        <ele>1663.8</ele>
        <time>2017-07-29T07:00:21Z</time>
      </trkpt>
      <trkpt lat="44.9426800" lon="6.8507480">
        <ele>1662.4</ele>
        <time>2017-07-29T07:00:22Z</time>
      </trkpt>
      <trkpt lat="44.9426440" lon="6.8506700">
        <ele>1660.8</ele>
        <time>2017-07-29T07:00:23Z</time>
      </trkpt>
      <trkpt lat="44.9426060" lon="6.8505880">
        <ele>1659.6</ele>
        <time>2017-07-29T07:00:24Z</time>
      </trkpt>
      <trkpt lat="44.9425590" lon="6.8505110">
        <ele>1657.8</ele>
        <time>2017-07-29T07:00:25Z</time>
      </trkpt>
      <trkpt lat="44.9425060" lon="6.8504440">
        <ele>1656.2</ele>
        <time>2017-07-29T07:00:26Z</time>
      </trkpt>
      <trkpt lat="44.9424580" lon="6.8504140">
        <ele>1654.2</ele>
        <time>2017-07-29T07:00:27Z</time>
      </trkpt>
      <trkpt lat="44.9424020" lon="6.8504580">
        <ele>1652.2</ele>
        <time>2017-07-29T07:00:28Z</time>
      </trkpt>
      <trkpt lat="44.9423550" lon="6.8505250">
        <ele>1650.2</ele>
        <time>2017-07-29T07:00:29Z</time>
      </trkpt>
      <trkpt lat="44.9423110" lon="6.8505950">
        <ele>1648.6</ele>
        <time>2017-07-29T07:00:30Z</time>
      </trkpt>
      <trkpt lat="44.9422710" lon="6.8506790">
        <ele>1647.0</ele>
        <time>2017-07-29T07:00:31Z</time>
      </trkpt>
      <trkpt lat="44.9422340" lon="6.8507610">
        <ele>1645.4</ele>
        <time>2017-07-29T07:00:32Z</time>
      </trkpt>
      <trkpt lat="44.9421870" lon="6.8508360">
        <ele>1643.4</ele>
        <time>2017-07-29T07:00:33Z</time>
      </trkpt>
      <trkpt lat="44.9421430" lon="6.8509030">
        <ele>1641.6</ele>
        <time>2017-07-29T07:00:34Z</time>
      </trkpt>
      <trkpt lat="44.9421180" lon="6.8509870">
        <ele>1639.8</ele>
        <time>2017-07-29T07:00:35Z</time>
      </trkpt>
      <trkpt lat="44.9421200" lon="6.8510900">
        <ele>1638.0</ele>
        <time>2017-07-29T07:00:36Z</time>
      </trkpt>
      <trkpt lat="44.9421320" lon="6.8511880">
        <ele>1636.6</ele>
        <time>2017-07-29T07:00:37Z</time>
      </trkpt>
      <trkpt lat="44.9421320" lon="6.8512780">
        <ele>1635.0</ele>
        <time>2017-07-29T07:00:38Z</time>
      </trkpt>
      <trkpt lat="44.9420980" lon="6.8513500">
        <ele>1633.4</ele>
        <time>2017-07-29T07:00:39Z</time>
      </trkpt>
      <trkpt lat="44.9420610" lon="6.8514220">
        <ele>1631.8</ele>
        <time>2017-07-29T07:00:40Z</time>
      </trkpt>
      <trkpt lat="44.9420150" lon="6.8514980">
        <ele>1629.0</ele>
        <time>2017-07-29T07:00:41Z</time>
      </trkpt>
      <trkpt lat="44.9419670" lon="6.8515640">
        <ele>1627.6</ele>
        <time>2017-07-29T07:00:42Z</time>
      </trkpt>
      <trkpt lat="44.9419200" lon="6.8516120">
        <ele>1625.8</ele>
        <time>2017-07-29T07:00:43Z</time>
      </trkpt>
      <trkpt lat="44.9418970" lon="6.8516320">
        <ele>1624.2</ele>
        <time>2017-07-29T07:00:44Z</time>
      </trkpt>
      <trkpt lat="44.9418900" lon="6.8516390">
        <ele>1622.6</ele>
        <time>2017-07-29T07:00:45Z</time>
      </trkpt>
      <trkpt lat="44.9418910" lon="6.8516240">
        <ele>1621.4</ele>
        <time>2017-07-29T07:00:46Z</time>
      </trkpt>
      <trkpt lat="44.9419130" lon="6.8515610">
        <ele>1606.6</ele>
        <time>2017-07-29T07:04:15Z</time>
      </trkpt>
      <trkpt lat="44.9419060" lon="6.8515980">
        <ele>1606.4</ele>
        <time>2017-07-29T07:04:16Z</time>
      </trkpt>
      <trkpt lat="44.9418890" lon="6.8516420">
        <ele>1605.8</ele>
        <time>2017-07-29T07:04:17Z</time>
      </trkpt>
      <trkpt lat="44.9418580" lon="6.8517100">
        <ele>1605.6</ele>
        <time>2017-07-29T07:04:18Z</time>
      </trkpt>
      <trkpt lat="44.9417730" lon="6.8518600">
        <ele>1604.8</ele>
        <time>2017-07-29T07:04:20Z</time>
      </trkpt>
      <trkpt lat="44.9417210" lon="6.8519390">
        <ele>1604.4</ele>
        <time>2017-07-29T07:04:21Z</time>
      </trkpt>
      <trkpt lat="44.9415320" lon="6.8522440">
        <ele>1603.4</ele>
        <time>2017-07-29T07:04:24Z</time>
      </trkpt>
      <trkpt lat="44.9414110" lon="6.8525050">
        <ele>1602.4</ele>
        <time>2017-07-29T07:04:26Z</time>
      </trkpt>
      <trkpt lat="44.9413670" lon="6.8526540">
        <ele>1601.4</ele>
        <time>2017-07-29T07:04:27Z</time>
      </trkpt>
      <trkpt lat="44.9413360" lon="6.8528120">
        <ele>1600.8</ele>
        <time>2017-07-29T07:04:28Z</time>
      </trkpt>
      <trkpt lat="44.9413220" lon="6.8531000">
        <ele>1599.2</ele>
        <time>2017-07-29T07:04:30Z</time>
      </trkpt>
      <trkpt lat="44.9413440" lon="6.8532310">
        <ele>1598.2</ele>
        <time>2017-07-29T07:04:31Z</time>
      </trkpt>
      <trkpt lat="44.9414430" lon="6.8534670">
        <ele>1596.2</ele>
        <time>2017-07-29T07:04:33Z</time>
      </trkpt>
      <trkpt lat="44.9415760" lon="6.8536860">
        <ele>1594.2</ele>
        <time>2017-07-29T07:04:35Z</time>
      </trkpt>
      <trkpt lat="44.9416090" lon="6.8538210">
        <ele>1593.4</ele>
        <time>2017-07-29T07:04:36Z</time>
      </trkpt>
      <trkpt lat="44.9416270" lon="6.8539340">
        <ele>1592.2</ele>
        <time>2017-07-29T07:04:37Z</time>
      </trkpt>
      <trkpt lat="44.9416080" lon="6.8541120">
        <ele>1590.4</ele>
        <time>2017-07-29T07:04:39Z</time>
      </trkpt>
      <trkpt lat="44.9415150" lon="6.8542390">
        <ele>1588.0</ele>
        <time>2017-07-29T07:04:41Z</time>
      </trkpt>
      <trkpt lat="44.9414630" lon="6.8543020">
        <ele>1587.4</ele>
        <time>2017-07-29T07:04:42Z</time>
      </trkpt>
      <trkpt lat="44.9414070" lon="6.8543690">
        <ele>1586.8</ele>
        <time>2017-07-29T07:04:43Z</time>
      </trkpt>
      <trkpt lat="44.9412350" lon="6.8545720">
        <ele>1585.6</ele>
        <time>2017-07-29T07:04:46Z</time>
      </trkpt>
      <trkpt lat="44.9411900" lon="6.8546580">
        <ele>1585.2</ele>
        <time>2017-07-29T07:04:47Z</time>
      </trkpt>
      <trkpt lat="44.9411600" lon="6.8547590">
        <ele>1584.8</ele>
        <time>2017-07-29T07:04:48Z</time>
      </trkpt>
      <trkpt lat="44.9411330" lon="6.8548700">
        <ele>1584.4</ele>
        <time>2017-07-29T07:04:49Z</time>
      </trkpt>
      <trkpt lat="44.9410290" lon="6.8552350">
        <ele>1583.0</ele>
        <time>2017-07-29T07:04:52Z</time>
      </trkpt>
      <trkpt lat="44.9408900" lon="6.8556040">
        <ele>1581.6</ele>
        <time>2017-07-29T07:04:55Z</time>
      </trkpt>
      <trkpt lat="44.9408170" lon="6.8558620">
        <ele>1580.4</ele>
        <time>2017-07-29T07:04:57Z</time>
      </trkpt>
      <trkpt lat="44.9407940" lon="6.8559930">
        <ele>1579.8</ele>
        <time>2017-07-29T07:04:58Z</time>
      </trkpt>
      <trkpt lat="44.9407760" lon="6.8561220">
        <ele>1579.0</ele>
        <time>2017-07-29T07:04:59Z</time>
      </trkpt>
      <trkpt lat="44.9407990" lon="6.8563710">
        <ele>1577.8</ele>
        <time>2017-07-29T07:05:01Z</time>
      </trkpt>
      <trkpt lat="44.9408590" lon="6.8566030">
        <ele>1576.8</ele>
        <time>2017-07-29T07:05:03Z</time>
      </trkpt>
      <trkpt lat="44.9409060" lon="6.8568300">
        <ele>1575.0</ele>
        <time>2017-07-29T07:05:05Z</time>
      </trkpt>
      <trkpt lat="44.9409380" lon="6.8570380">
        <ele>1574.2</ele>
        <time>2017-07-29T07:05:07Z</time>
      </trkpt>
      <trkpt lat="44.9409330" lon="6.8571440">
        <ele>1573.8</ele>
        <time>2017-07-29T07:05:08Z</time>
      </trkpt>
      <trkpt lat="44.9409300" lon="6.8572420">
        <ele>1573.4</ele>
        <time>2017-07-29T07:05:09Z</time>
      </trkpt>
      <trkpt lat="44.9409380" lon="6.8573290">
        <ele>1573.0</ele>
        <time>2017-07-29T07:05:10Z</time>
      </trkpt>
      <trkpt lat="44.9409470" lon="6.8575010">
        <ele>1572.6</ele>
        <time>2017-07-29T07:05:12Z</time>
      </trkpt>
      <trkpt lat="44.9409500" lon="6.8575810">
        <ele>1572.6</ele>
        <time>2017-07-29T07:05:13Z</time>
      </trkpt>
      <trkpt lat="44.9409490" lon="6.8578670">
        <ele>1572.0</ele>
        <time>2017-07-29T07:05:17Z</time>
      </trkpt>
      <trkpt lat="44.9409390" lon="6.8580070">
        <ele>1572.2</ele>
        <time>2017-07-29T07:05:19Z</time>
      </trkpt>
      <trkpt lat="44.9409290" lon="6.8582670">
        <ele>1572.6</ele>
        <time>2017-07-29T07:05:23Z</time>
      </trkpt>
      <trkpt lat="44.9409190" lon="6.8584070">
        <ele>1572.6</ele>
        <time>2017-07-29T07:05:25Z</time>
      </trkpt>
      <trkpt lat="44.9409290" lon="6.8587960">
        <ele>1572.8</ele>
        <time>2017-07-29T07:05:31Z</time>
      </trkpt>
      <trkpt lat="44.9409350" lon="6.8590960">
        <ele>1573.6</ele>
        <time>2017-07-29T07:05:36Z</time>
      </trkpt>
      <trkpt lat="44.9409410" lon="6.8592140">
        <ele>1573.8</ele>
        <time>2017-07-29T07:05:38Z</time>
      </trkpt>
      <trkpt lat="44.9409240" lon="6.8594610">
        <ele>1574.6</ele>
        <time>2017-07-29T07:05:42Z</time>
      </trkpt>
      <trkpt lat="44.9409080" lon="6.8595230">
        <ele>1570.8</ele>
        <time>2017-07-29T07:05:43Z</time>
      </trkpt>
      <trkpt lat="44.9408880" lon="6.8595790">
        <ele>1570.4</ele>
        <time>2017-07-29T07:05:44Z</time>
      </trkpt>
      <trkpt lat="44.9408370" lon="6.8596910">
        <ele>1573.8</ele>
        <time>2017-07-29T07:05:46Z</time>
      </trkpt>
      <trkpt lat="44.9407750" lon="6.8597950">
        <ele>1573.8</ele>
        <time>2017-07-29T07:05:48Z</time>
      </trkpt>
      <trkpt lat="44.9407120" lon="6.8598870">
        <ele>1574.0</ele>
        <time>2017-07-29T07:05:50Z</time>
      </trkpt>
      <trkpt lat="44.9405980" lon="6.8600680">
        <ele>1574.8</ele>
        <time>2017-07-29T07:05:55Z</time>
      </trkpt>
      <trkpt lat="44.9404990" lon="6.8602150">
        <ele>1576.0</ele>
        <time>2017-07-29T07:06:00Z</time>
      </trkpt>
      <trkpt lat="44.9404500" lon="6.8602800">
        <ele>1577.0</ele>
        <time>2017-07-29T07:06:03Z</time>
      </trkpt>
      <trkpt lat="44.9404120" lon="6.8603290">
        <ele>1578.0</ele>
        <time>2017-07-29T07:06:06Z</time>
      </trkpt>
      <trkpt lat="44.9403910" lon="6.8603770">
        <ele>1582.2</ele>
        <time>2017-07-29T07:07:17Z</time>
      </trkpt>
      <trkpt lat="44.9403730" lon="6.8604060">
        <ele>1582.0</ele>
        <time>2017-07-29T07:07:18Z</time>
      </trkpt>
      <trkpt lat="44.9402320" lon="6.8606080">
        <ele>1581.2</ele>
        <time>2017-07-29T07:07:23Z</time>
      </trkpt>
      <trkpt lat="44.9401990" lon="6.8606470">
        <ele>1581.0</ele>
        <time>2017-07-29T07:07:24Z</time>
      </trkpt>
      <trkpt lat="44.9401630" lon="6.8606780">
        <ele>1581.0</ele>
        <time>2017-07-29T07:07:25Z</time>
      </trkpt>
      <trkpt lat="44.9400150" lon="6.8608200">
        <ele>1581.0</ele>
        <time>2017-07-29T07:07:28Z</time>
      </trkpt>
      <trkpt lat="44.9398180" lon="6.8610510">
        <ele>1580.2</ele>
        <time>2017-07-29T07:07:31Z</time>
      </trkpt>
      <trkpt lat="44.9397460" lon="6.8611080">
        <ele>1579.8</ele>
        <time>2017-07-29T07:07:32Z</time>
      </trkpt>
      <trkpt lat="44.9395550" lon="6.8611920">
        <ele>1579.2</ele>
        <time>2017-07-29T07:07:34Z</time>
      </trkpt>
      <trkpt lat="44.9394550" lon="6.8612220">
        <ele>1578.8</ele>
        <time>2017-07-29T07:07:35Z</time>
      </trkpt>
      <trkpt lat="44.9393510" lon="6.8612260">
        <ele>1578.2</ele>
        <time>2017-07-29T07:07:36Z</time>
      </trkpt>
      <trkpt lat="44.9392520" lon="6.8612350">
        <ele>1577.6</ele>
        <time>2017-07-29T07:07:37Z</time>
      </trkpt>
      <trkpt lat="44.9391770" lon="6.8612370">
        <ele>1577.0</ele>
        <time>2017-07-29T07:07:38Z</time>
      </trkpt>
      <trkpt lat="44.9391150" lon="6.8612940">
        <ele>1576.2</ele>
        <time>2017-07-29T07:07:39Z</time>
      </trkpt>
      <trkpt lat="44.9390690" lon="6.8613880">
        <ele>1575.6</ele>
        <time>2017-07-29T07:07:40Z</time>
      </trkpt>
      <trkpt lat="44.9390330" lon="6.8614970">
        <ele>1574.8</ele>
        <time>2017-07-29T07:07:41Z</time>
      </trkpt>
      <trkpt lat="44.9389600" lon="6.8617240">
        <ele>1573.2</ele>
        <time>2017-07-29T07:07:43Z</time>
      </trkpt>
      <trkpt lat="44.9388600" lon="6.8619100">
        <ele>1571.4</ele>
        <time>2017-07-29T07:07:45Z</time>
      </trkpt>
      <trkpt lat="44.9387660" lon="6.8620970">
        <ele>1570.0</ele>
        <time>2017-07-29T07:07:47Z</time>
      </trkpt>
      <trkpt lat="44.9387260" lon="6.8621950">
        <ele>1569.4</ele>
        <time>2017-07-29T07:07:48Z</time>
      </trkpt>
      <trkpt lat="44.9386820" lon="6.8622940">
        <ele>1568.8</ele>
        <time>2017-07-29T07:07:49Z</time>
      </trkpt>
      <trkpt lat="44.9385940" lon="6.8624700">
        <ele>1567.6</ele>
        <time>2017-07-29T07:07:51Z</time>
      </trkpt>
      <trkpt lat="44.9385030" lon="6.8626320">
        <ele>1566.6</ele>
        <time>2017-07-29T07:07:53Z</time>
      </trkpt>
      <trkpt lat="44.9384600" lon="6.8627130">
        <ele>1566.0</ele>
        <time>2017-07-29T07:07:54Z</time>
      </trkpt>
      <trkpt lat="44.9383500" lon="6.8628630">
        <ele>1565.4</ele>
        <time>2017-07-29T07:07:56Z</time>
      </trkpt>
      <trkpt lat="44.9382270" lon="6.8629990">
        <ele>1565.0</ele>
        <time>2017-07-29T07:07:58Z</time>
      </trkpt>
      <trkpt lat="44.9381530" lon="6.8630330">
        <ele>1564.6</ele>
        <time>2017-07-29T07:07:59Z</time>
      </trkpt>
      <trkpt lat="44.9380140" lon="6.8630930">
        <ele>1564.2</ele>
        <time>2017-07-29T07:08:01Z</time>
      </trkpt>
      <trkpt lat="44.9379420" lon="6.8631110">
        <ele>1564.2</ele>
        <time>2017-07-29T07:08:02Z</time>
      </trkpt>
      <trkpt lat="44.9377570" lon="6.8630620">
        <ele>1564.2</ele>
        <time>2017-07-29T07:08:05Z</time>
      </trkpt>
      <trkpt lat="44.9376270" lon="6.8629070">
        <ele>1564.4</ele>
        <time>2017-07-29T07:08:08Z</time>
      </trkpt>
      <trkpt lat="44.9375470" lon="6.8628060">
        <ele>1564.2</ele>
        <time>2017-07-29T07:08:10Z</time>
      </trkpt>
      <trkpt lat="44.9374140" lon="6.8626640">
        <ele>1564.2</ele>
        <time>2017-07-29T07:08:13Z</time>
      </trkpt>
      <trkpt lat="44.9372890" lon="6.8624770">
        <ele>1564.6</ele>
        <time>2017-07-29T07:08:16Z</time>
      </trkpt>
      <trkpt lat="44.9372810" lon="6.8623930">
        <ele>1565.0</ele>
        <time>2017-07-29T07:08:17Z</time>
      </trkpt>
      <trkpt lat="44.9372900" lon="6.8622360">
        <ele>1565.4</ele>
        <time>2017-07-29T07:08:19Z</time>
      </trkpt>
      <trkpt lat="44.9373000" lon="6.8621590">
        <ele>1565.4</ele>
        <time>2017-07-29T07:08:20Z</time>
      </trkpt>
      <trkpt lat="44.9373200" lon="6.8621090">
        <ele>1565.6</ele>
        <time>2017-07-29T07:08:21Z</time>
      </trkpt>
      <trkpt lat="44.9373610" lon="6.8618840">
        <ele>1566.6</ele>
        <time>2017-07-29T07:08:25Z</time>
      </trkpt>
      <trkpt lat="44.9373850" lon="6.8616710">
        <ele>1567.6</ele>
        <time>2017-07-29T07:08:29Z</time>
      </trkpt>
      <trkpt lat="44.9374120" lon="6.8615860">
        <ele>1568.2</ele>
        <time>2017-07-29T07:08:31Z</time>
      </trkpt>
      <trkpt lat="44.9374290" lon="6.8615390">
        <ele>1568.6</ele>
        <time>2017-07-29T07:08:32Z</time>
      </trkpt>
      <trkpt lat="44.9374980" lon="6.8613390">
        <ele>1569.6</ele>
        <time>2017-07-29T07:08:36Z</time>
      </trkpt>
      <trkpt lat="44.9375160" lon="6.8612820">
        <ele>1570.0</ele>
        <time>2017-07-29T07:08:37Z</time>
      </trkpt>
      <trkpt lat="44.9375650" lon="6.8611240">
        <ele>1570.6</ele>
        <time>2017-07-29T07:08:40Z</time>
      </trkpt>
      <trkpt lat="44.9375810" lon="6.8610740">
        <ele>1571.2</ele>
        <time>2017-07-29T07:08:41Z</time>
      </trkpt>
      <trkpt lat="44.9376070" lon="6.8609840">
        <ele>1571.8</ele>
        <time>2017-07-29T07:08:43Z</time>
      </trkpt>
      <trkpt lat="44.9376320" lon="6.8609100">
        <ele>1572.2</ele>
        <time>2017-07-29T07:08:45Z</time>
      </trkpt>
      <trkpt lat="44.9376580" lon="6.8607870">
        <ele>1573.2</ele>
        <time>2017-07-29T07:08:48Z</time>
      </trkpt>
      <trkpt lat="44.9376650" lon="6.8607420">
        <ele>1573.6</ele>
        <time>2017-07-29T07:08:49Z</time>
      </trkpt>
      <trkpt lat="44.9376730" lon="6.8606100">
        <ele>1574.4</ele>
        <time>2017-07-29T07:08:52Z</time>
      </trkpt>
      <trkpt lat="44.9376560" lon="6.8604440">
        <ele>1575.2</ele>
        <time>2017-07-29T07:08:56Z</time>
      </trkpt>
      <trkpt lat="44.9376510" lon="6.8604050">
        <ele>1575.4</ele>
        <time>2017-07-29T07:08:57Z</time>
      </trkpt>
      <trkpt lat="44.9376260" lon="6.8602440">
        <ele>1576.4</ele>
        <time>2017-07-29T07:09:01Z</time>
      </trkpt>
      <trkpt lat="44.9376330" lon="6.8600920">
        <ele>1577.6</ele>
        <time>2017-07-29T07:09:05Z</time>
      </trkpt>
      <trkpt lat="44.9376620" lon="6.8598800">
        <ele>1578.6</ele>
        <time>2017-07-29T07:09:11Z</time>
      </trkpt>
      <trkpt lat="44.9376710" lon="6.8598060">
        <ele>1579.0</ele>
        <time>2017-07-29T07:09:13Z</time>
      </trkpt>
      <trkpt lat="44.9376940" lon="6.8596210">
        <ele>1579.8</ele>
        <time>2017-07-29T07:09:18Z</time>
      </trkpt>
      <trkpt lat="44.9377200" lon="6.8595220">
        <ele>1580.0</ele>
        <time>2017-07-29T07:09:21Z</time>
      </trkpt>
      <trkpt lat="44.9377550" lon="6.8593480">
        <ele>1580.8</ele>
        <time>2017-07-29T07:09:25Z</time>
      </trkpt>
      <trkpt lat="44.9377970" lon="6.8591950">
        <ele>1582.0</ele>
        <time>2017-07-29T07:09:29Z</time>
      </trkpt>
      <trkpt lat="44.9378630" lon="6.8589670">
        <ele>1583.2</ele>
        <time>2017-07-29T07:09:35Z</time>
      </trkpt>
      <trkpt lat="44.9378700" lon="6.8587630">
        <ele>1584.2</ele>
        <time>2017-07-29T07:09:40Z</time>
      </trkpt>
      <trkpt lat="44.9378730" lon="6.8587010">
        <ele>1584.6</ele>
        <time>2017-07-29T07:09:42Z</time>
      </trkpt>
      <trkpt lat="44.9378560" lon="6.8585900">
        <ele>1585.4</ele>
        <time>2017-07-29T07:09:45Z</time>
      </trkpt>
      <trkpt lat="44.9378430" lon="6.8584500">
        <ele>1585.0</ele>
        <time>2017-07-29T07:09:49Z</time>
      </trkpt>
      <trkpt lat="44.9378430" lon="6.8583450">
        <ele>1586.8</ele>
        <time>2017-07-29T07:09:52Z</time>
      </trkpt>
      <trkpt lat="44.9378550" lon="6.8582350">
        <ele>1588.0</ele>
        <time>2017-07-29T07:09:55Z</time>
      </trkpt>
      <trkpt lat="44.9378610" lon="6.8581960">
        <ele>1588.4</ele>
        <time>2017-07-29T07:09:56Z</time>
      </trkpt>
      <trkpt lat="44.9378970" lon="6.8580000">
        <ele>1589.2</ele>
        <time>2017-07-29T07:10:01Z</time>
      </trkpt>
      <trkpt lat="44.9378990" lon="6.8579630">
        <ele>1589.6</ele>
        <time>2017-07-29T07:10:02Z</time>
      </trkpt>
      <trkpt lat="44.9378580" lon="6.8578600">
        <ele>1590.2</ele>
        <time>2017-07-29T07:10:05Z</time>
      </trkpt>
      <trkpt lat="44.9378400" lon="6.8578320">
        <ele>1590.4</ele>
        <time>2017-07-29T07:10:06Z</time>
      </trkpt>
      <trkpt lat="44.9377390" lon="6.8577750">
        <ele>1591.4</ele>
        <time>2017-07-29T07:10:10Z</time>
      </trkpt>
      <trkpt lat="44.9377110" lon="6.8577730">
        <ele>1591.6</ele>
        <time>2017-07-29T07:10:11Z</time>
      </trkpt>
      <trkpt lat="44.9375780" lon="6.8577300">
        <ele>1592.8</ele>
        <time>2017-07-29T07:10:16Z</time>
      </trkpt>
      <trkpt lat="44.9375370" lon="6.8576710">
        <ele>1593.0</ele>
        <time>2017-07-29T07:10:18Z</time>
      </trkpt>
      <trkpt lat="44.9375030" lon="6.8575530">
        <ele>1593.8</ele>
        <time>2017-07-29T07:10:21Z</time>
      </trkpt>
      <trkpt lat="44.9375060" lon="6.8574270">
        <ele>1594.2</ele>
        <time>2017-07-29T07:10:24Z</time>
      </trkpt>
      <trkpt lat="44.9375140" lon="6.8573490">
        <ele>1594.8</ele>
        <time>2017-07-29T07:10:26Z</time>
      </trkpt>
      <trkpt lat="44.9375220" lon="6.8571410">
        <ele>1595.8</ele>
        <time>2017-07-29T07:10:31Z</time>
      </trkpt>
      <trkpt lat="44.9375300" lon="6.8568970">
        <ele>1597.0</ele>
        <time>2017-07-29T07:10:37Z</time>
      </trkpt>
      <trkpt lat="44.9375150" lon="6.8567420">
        <ele>1598.4</ele>
        <time>2017-07-29T07:10:41Z</time>
      </trkpt>
      <trkpt lat="44.9375190" lon="6.8566440">
        <ele>1598.8</ele>
        <time>2017-07-29T07:10:44Z</time>
      </trkpt>
      <trkpt lat="44.9375270" lon="6.8565980">
        <ele>1599.4</ele>
        <time>2017-07-29T07:10:46Z</time>
      </trkpt>
      <trkpt lat="44.9375850" lon="6.8564710">
        <ele>1600.2</ele>
        <time>2017-07-29T07:10:51Z</time>
      </trkpt>
      <trkpt lat="44.9376000" lon="6.8564470">
        <ele>1600.4</ele>
        <time>2017-07-29T07:10:52Z</time>
      </trkpt>
      <trkpt lat="44.9376680" lon="6.8562780">
        <ele>1601.6</ele>
        <time>2017-07-29T07:10:58Z</time>
      </trkpt>
      <trkpt lat="44.9376290" lon="6.8561320">
        <ele>1602.8</ele>
        <time>2017-07-29T07:11:03Z</time>
      </trkpt>
      <trkpt lat="44.9375930" lon="6.8560380">
        <ele>1603.8</ele>
        <time>2017-07-29T07:11:07Z</time>
      </trkpt>
      <trkpt lat="44.9375680" lon="6.8559550">
        <ele>1604.4</ele>
        <time>2017-07-29T07:11:10Z</time>
      </trkpt>
      <trkpt lat="44.9375510" lon="6.8559000">
        <ele>1604.8</ele>
        <time>2017-07-29T07:11:12Z</time>
      </trkpt>
      <trkpt lat="44.9375250" lon="6.8557300">
        <ele>1606.0</ele>
        <time>2017-07-29T07:11:17Z</time>
      </trkpt>
      <trkpt lat="44.9375270" lon="6.8556480">
        <ele>1606.6</ele>
        <time>2017-07-29T07:11:20Z</time>
      </trkpt>
      <trkpt lat="44.9375460" lon="6.8555750">
        <ele>1607.0</ele>
        <time>2017-07-29T07:11:22Z</time>
      </trkpt>
      <trkpt lat="44.9375550" lon="6.8555360">
        <ele>1607.2</ele>
        <time>2017-07-29T07:11:23Z</time>
      </trkpt>
      <trkpt lat="44.9375700" lon="6.8553700">
        <ele>1608.0</ele>
        <time>2017-07-29T07:11:27Z</time>
      </trkpt>
      <trkpt lat="44.9375630" lon="6.8552890">
        <ele>1608.8</ele>
        <time>2017-07-29T07:11:29Z</time>
      </trkpt>
      <trkpt lat="44.9375420" lon="6.8552340">
        <ele>1609.2</ele>
        <time>2017-07-29T07:11:31Z</time>
      </trkpt>
      <trkpt lat="44.9374770" lon="6.8551770">
        <ele>1610.0</ele>
        <time>2017-07-29T07:11:34Z</time>
      </trkpt>
      <trkpt lat="44.9374230" lon="6.8551360">
        <ele>1610.4</ele>
        <time>2017-07-29T07:11:36Z</time>
      </trkpt>
      <trkpt lat="44.9373080" lon="6.8550190">
        <ele>1611.6</ele>
        <time>2017-07-29T07:11:40Z</time>
      </trkpt>
      <trkpt lat="44.9372090" lon="6.8549150">
        <ele>1612.8</ele>
        <time>2017-07-29T07:11:44Z</time>
      </trkpt>
      <trkpt lat="44.9371660" lon="6.8548410">
        <ele>1613.6</ele>
        <time>2017-07-29T07:11:46Z</time>
      </trkpt>
      <trkpt lat="44.9371340" lon="6.8547570">
        <ele>1614.0</ele>
        <time>2017-07-29T07:11:48Z</time>
      </trkpt>
      <trkpt lat="44.9371340" lon="6.8547020">
        <ele>1614.0</ele>
        <time>2017-07-29T07:11:49Z</time>
      </trkpt>
      <trkpt lat="44.9371410" lon="6.8546570">
        <ele>1614.4</ele>
        <time>2017-07-29T07:11:50Z</time>
      </trkpt>
      <trkpt lat="44.9371840" lon="6.8545540">
        <ele>1615.2</ele>
        <time>2017-07-29T07:11:53Z</time>
      </trkpt>
      <trkpt lat="44.9372030" lon="6.8545150">
        <ele>1615.6</ele>
        <time>2017-07-29T07:11:54Z</time>
      </trkpt>
      <trkpt lat="44.9372240" lon="6.8544760">
        <ele>1615.8</ele>
        <time>2017-07-29T07:11:55Z</time>
      </trkpt>
      <trkpt lat="44.9372590" lon="6.8544030">
        <ele>1616.2</ele>
        <time>2017-07-29T07:11:57Z</time>
      </trkpt>
      <trkpt lat="44.9373000" lon="6.8542340">
        <ele>1617.2</ele>
        <time>2017-07-29T07:12:01Z</time>
      </trkpt>
      <trkpt lat="44.9373060" lon="6.8541960">
        <ele>1617.4</ele>
        <time>2017-07-29T07:12:02Z</time>
      </trkpt>
      <trkpt lat="44.9372740" lon="6.8540460">
        <ele>1618.4</ele>
        <time>2017-07-29T07:12:06Z</time>
      </trkpt>
      <trkpt lat="44.9372690" lon="6.8540070">
        <ele>1618.6</ele>
        <time>2017-07-29T07:12:07Z</time>
      </trkpt>
      <trkpt lat="44.9372240" lon="6.8537260">
        <ele>1619.8</ele>
        <time>2017-07-29T07:12:13Z</time>
      </trkpt>
      <trkpt lat="44.9372090" lon="6.8535440">
        <ele>1621.0</ele>
        <time>2017-07-29T07:12:17Z</time>
      </trkpt>
      <trkpt lat="44.9371850" lon="6.8533850">
        <ele>1622.0</ele>
        <time>2017-07-29T07:12:21Z</time>
      </trkpt>
      <trkpt lat="44.9371800" lon="6.8533480">
        <ele>1622.2</ele>
        <time>2017-07-29T07:12:22Z</time>
      </trkpt>
      <trkpt lat="44.9371400" lon="6.8531450">
        <ele>1623.6</ele>
        <time>2017-07-29T07:12:27Z</time>
      </trkpt>
      <trkpt lat="44.9371260" lon="6.8531090">
        <ele>1623.8</ele>
        <time>2017-07-29T07:12:28Z</time>
      </trkpt>
      <trkpt lat="44.9370670" lon="6.8530110">
        <ele>1624.6</ele>
        <time>2017-07-29T07:12:31Z</time>
      </trkpt>
      <trkpt lat="44.9370110" lon="6.8529340">
        <ele>1625.4</ele>
        <time>2017-07-29T07:12:34Z</time>
      </trkpt>
      <trkpt lat="44.9369730" lon="6.8528650">
        <ele>1626.0</ele>
        <time>2017-07-29T07:12:36Z</time>
      </trkpt>
      <trkpt lat="44.9369090" lon="6.8527830">
        <ele>1626.8</ele>
        <time>2017-07-29T07:12:39Z</time>
      </trkpt>
      <trkpt lat="44.9368720" lon="6.8527340">
        <ele>1627.6</ele>
        <time>2017-07-29T07:12:41Z</time>
      </trkpt>
      <trkpt lat="44.9367830" lon="6.8525830">
        <ele>1629.0</ele>
        <time>2017-07-29T07:12:46Z</time>
      </trkpt>
      <trkpt lat="44.9367290" lon="6.8524350">
        <ele>1630.2</ele>
        <time>2017-07-29T07:12:50Z</time>
      </trkpt>
      <trkpt lat="44.9367200" lon="6.8523960">
        <ele>1630.4</ele>
        <time>2017-07-29T07:12:51Z</time>
      </trkpt>
      <trkpt lat="44.9366810" lon="6.8522900">
        <ele>1631.2</ele>
        <time>2017-07-29T07:12:54Z</time>
      </trkpt>
      <trkpt lat="44.9366360" lon="6.8521360">
        <ele>1632.4</ele>
        <time>2017-07-29T07:12:58Z</time>
      </trkpt>
      <trkpt lat="44.9366120" lon="6.8521070">
        <ele>1632.6</ele>
        <time>2017-07-29T07:12:59Z</time>
      </trkpt>
      <trkpt lat="44.9365220" lon="6.8520460">
        <ele>1633.4</ele>
        <time>2017-07-29T07:13:02Z</time>
      </trkpt>
      <trkpt lat="44.9364470" lon="6.8520140">
        <ele>1634.6</ele>
        <time>2017-07-29T07:13:05Z</time>
      </trkpt>
      <trkpt lat="44.9363920" lon="6.8519200">
        <ele>1635.6</ele>
        <time>2017-07-29T07:13:09Z</time>
      </trkpt>
      <trkpt lat="44.9363740" lon="6.8518880">
        <ele>1636.0</ele>
        <time>2017-07-29T07:13:10Z</time>
      </trkpt>
      <trkpt lat="44.9363180" lon="6.8517780">
        <ele>1636.8</ele>
        <time>2017-07-29T07:13:14Z</time>
      </trkpt>
      <trkpt lat="44.9362760" lon="6.8516840">
        <ele>1637.4</ele>
        <time>2017-07-29T07:13:17Z</time>
      </trkpt>
      <trkpt lat="44.9362370" lon="6.8516410">
        <ele>1638.0</ele>
        <time>2017-07-29T07:13:19Z</time>
      </trkpt>
      <trkpt lat="44.9361420" lon="6.8515470">
        <ele>1638.8</ele>
        <time>2017-07-29T07:13:23Z</time>
      </trkpt>
      <trkpt lat="44.9361160" lon="6.8515320">
        <ele>1639.2</ele>
        <time>2017-07-29T07:13:24Z</time>
      </trkpt>
      <trkpt lat="44.9359970" lon="6.8514670">
        <ele>1640.4</ele>
        <time>2017-07-29T07:13:29Z</time>
      </trkpt>
      <trkpt lat="44.9359560" lon="6.8514360">
        <ele>1640.8</ele>
        <time>2017-07-29T07:13:31Z</time>
      </trkpt>
      <trkpt lat="44.9358780" lon="6.8513810">
        <ele>1641.4</ele>
        <time>2017-07-29T07:13:35Z</time>
      </trkpt>
      <trkpt lat="44.9358540" lon="6.8513490">
        <ele>1641.8</ele>
        <time>2017-07-29T07:13:37Z</time>
      </trkpt>
      <trkpt lat="44.9358080" lon="6.8513120">
        <ele>1642.4</ele>
        <time>2017-07-29T07:13:40Z</time>
      </trkpt>
      <trkpt lat="44.9357620" lon="6.8512750">
        <ele>1642.8</ele>
        <time>2017-07-29T07:13:43Z</time>
      </trkpt>
      <trkpt lat="44.9357100" lon="6.8512350">
        <ele>1643.6</ele>
        <time>2017-07-29T07:13:46Z</time>
      </trkpt>
      <trkpt lat="44.9356700" lon="6.8511790">
        <ele>1644.2</ele>
        <time>2017-07-29T07:13:49Z</time>
      </trkpt>
      <trkpt lat="44.9356360" lon="6.8511140">
        <ele>1644.8</ele>
        <time>2017-07-29T07:13:52Z</time>
      </trkpt>
      <trkpt lat="44.9355860" lon="6.8510590">
        <ele>1645.6</ele>
        <time>2017-07-29T07:13:55Z</time>
      </trkpt>
      <trkpt lat="44.9355440" lon="6.8510220">
        <ele>1646.0</ele>
        <time>2017-07-29T07:13:57Z</time>
      </trkpt>
      <trkpt lat="44.9354650" lon="6.8509610">
        <ele>1646.6</ele>
        <time>2017-07-29T07:14:01Z</time>
      </trkpt>
      <trkpt lat="44.9354510" lon="6.8509390">
        <ele>1647.0</ele>
        <time>2017-07-29T07:14:02Z</time>
      </trkpt>
      <trkpt lat="44.9353760" lon="6.8508310">
        <ele>1648.0</ele>
        <time>2017-07-29T07:14:07Z</time>
      </trkpt>
      <trkpt lat="44.9353100" lon="6.8506890">
        <ele>1649.0</ele>
        <time>2017-07-29T07:14:13Z</time>
      </trkpt>
      <trkpt lat="44.9353000" lon="6.8506570">
        <ele>1649.2</ele>
        <time>2017-07-29T07:14:14Z</time>
      </trkpt>
      <trkpt lat="44.9352750" lon="6.8504830">
        <ele>1650.4</ele>
        <time>2017-07-29T07:14:19Z</time>
      </trkpt>
      <trkpt lat="44.9352760" lon="6.8502970">
        <ele>1651.4</ele>
        <time>2017-07-29T07:14:24Z</time>
      </trkpt>
      <trkpt lat="44.9352780" lon="6.8501880">
        <ele>1652.2</ele>
        <time>2017-07-29T07:14:27Z</time>
      </trkpt>
      <trkpt lat="44.9352760" lon="6.8501220">
        <ele>1652.6</ele>
        <time>2017-07-29T07:14:29Z</time>
      </trkpt>
      <trkpt lat="44.9352510" lon="6.8498990">
        <ele>1653.8</ele>
        <time>2017-07-29T07:14:35Z</time>
      </trkpt>
      <trkpt lat="44.9351490" lon="6.8497500">
        <ele>1655.0</ele>
        <time>2017-07-29T07:14:40Z</time>
      </trkpt>
      <trkpt lat="44.9351200" lon="6.8497240">
        <ele>1655.2</ele>
        <time>2017-07-29T07:14:41Z</time>
      </trkpt>
      <trkpt lat="44.9350470" lon="6.8496640">
        <ele>1656.0</ele>
        <time>2017-07-29T07:14:44Z</time>
      </trkpt>
      <trkpt lat="44.9349460" lon="6.8495620">
        <ele>1657.0</ele>
        <time>2017-07-29T07:14:48Z</time>
      </trkpt>
      <trkpt lat="44.9349180" lon="6.8495400">
        <ele>1657.4</ele>
        <time>2017-07-29T07:14:49Z</time>
      </trkpt>
      <trkpt lat="44.9348360" lon="6.8493780">
        <ele>1658.6</ele>
        <time>2017-07-29T07:14:54Z</time>
      </trkpt>
      <trkpt lat="44.9348440" lon="6.8491280">
        <ele>1659.8</ele>
        <time>2017-07-29T07:14:59Z</time>
      </trkpt>
      <trkpt lat="44.9348350" lon="6.8490890">
        <ele>1659.8</ele>
        <time>2017-07-29T07:15:00Z</time>
      </trkpt>
      <trkpt lat="44.9347800" lon="6.8489570">
        <ele>1661.0</ele>
        <time>2017-07-29T07:15:04Z</time>
      </trkpt>
      <trkpt lat="44.9347610" lon="6.8489240">
        <ele>1661.2</ele>
        <time>2017-07-29T07:15:05Z</time>
      </trkpt>
      <trkpt lat="44.9347090" lon="6.8488250">
        <ele>1662.2</ele>
        <time>2017-07-29T07:15:08Z</time>
      </trkpt>
      <trkpt lat="44.9346730" lon="6.8486740">
        <ele>1663.2</ele>
        <time>2017-07-29T07:15:12Z</time>
      </trkpt>
      <trkpt lat="44.9346860" lon="6.8485290">
        <ele>1664.2</ele>
        <time>2017-07-29T07:15:16Z</time>
      </trkpt>
      <trkpt lat="44.9346850" lon="6.8484560">
        <ele>1664.8</ele>
        <time>2017-07-29T07:15:18Z</time>
      </trkpt>
      <trkpt lat="44.9346830" lon="6.8483450">
        <ele>1665.4</ele>
        <time>2017-07-29T07:15:21Z</time>
      </trkpt>
      <trkpt lat="44.9346950" lon="6.8482070">
        <ele>1666.4</ele>
        <time>2017-07-29T07:15:25Z</time>
      </trkpt>
      <trkpt lat="44.9347350" lon="6.8480460">
        <ele>1667.4</ele>
        <time>2017-07-29T07:15:30Z</time>
      </trkpt>
      <trkpt lat="44.9347430" lon="6.8479650">
        <ele>1668.0</ele>
        <time>2017-07-29T07:15:32Z</time>
      </trkpt>
      <trkpt lat="44.9347520" lon="6.8478730">
        <ele>1668.6</ele>
        <time>2017-07-29T07:15:34Z</time>
      </trkpt>
      <trkpt lat="44.9347470" lon="6.8477010">
        <ele>1669.4</ele>
        <time>2017-07-29T07:15:38Z</time>
      </trkpt>
      <trkpt lat="44.9347390" lon="6.8476650">
        <ele>1669.8</ele>
        <time>2017-07-29T07:15:39Z</time>
      </trkpt>
      <trkpt lat="44.9347330" lon="6.8474770">
        <ele>1671.0</ele>
        <time>2017-07-29T07:15:44Z</time>
      </trkpt>
      <trkpt lat="44.9347240" lon="6.8473360">
        <ele>1672.0</ele>
        <time>2017-07-29T07:15:48Z</time>
      </trkpt>
      <trkpt lat="44.9347160" lon="6.8472670">
        <ele>1672.6</ele>
        <time>2017-07-29T07:15:50Z</time>
      </trkpt>
      <trkpt lat="44.9346960" lon="6.8471360">
        <ele>1673.2</ele>
        <time>2017-07-29T07:15:53Z</time>
      </trkpt>
      <trkpt lat="44.9346760" lon="6.8469720">
        <ele>1674.4</ele>
        <time>2017-07-29T07:15:57Z</time>
      </trkpt>
      <trkpt lat="44.9346450" lon="6.8467630">
        <ele>1675.6</ele>
        <time>2017-07-29T07:16:02Z</time>
      </trkpt>
      <trkpt lat="44.9346200" lon="6.8466910">
        <ele>1676.2</ele>
        <time>2017-07-29T07:16:04Z</time>
      </trkpt>
      <trkpt lat="44.9345860" lon="6.8466300">
        <ele>1676.6</ele>
        <time>2017-07-29T07:16:06Z</time>
      </trkpt>
      <trkpt lat="44.9344750" lon="6.8464920">
        <ele>1677.8</ele>
        <time>2017-07-29T07:16:11Z</time>
      </trkpt>
      <trkpt lat="44.9343900" lon="6.8463610">
        <ele>1678.8</ele>
        <time>2017-07-29T07:16:16Z</time>
      </trkpt>
      <trkpt lat="44.9342870" lon="6.8462720">
        <ele>1680.0</ele>
        <time>2017-07-29T07:16:20Z</time>
      </trkpt>
      <trkpt lat="44.9342340" lon="6.8462620">
        <ele>1680.4</ele>
        <time>2017-07-29T07:16:22Z</time>
      </trkpt>
      <trkpt lat="44.9341290" lon="6.8462410">
        <ele>1681.0</ele>
        <time>2017-07-29T07:16:25Z</time>
      </trkpt>
      <trkpt lat="44.9340400" lon="6.8461970">
        <ele>1681.6</ele>
        <time>2017-07-29T07:16:28Z</time>
      </trkpt>
      <trkpt lat="44.9339680" lon="6.8461250">
        <ele>1682.2</ele>
        <time>2017-07-29T07:16:31Z</time>
      </trkpt>
      <trkpt lat="44.9339050" lon="6.8460080">
        <ele>1682.8</ele>
        <time>2017-07-29T07:16:34Z</time>
      </trkpt>
      <trkpt lat="44.9338460" lon="6.8457480">
        <ele>1683.2</ele>
        <time>2017-07-29T07:16:39Z</time>
      </trkpt>
      <trkpt lat="44.9337650" lon="6.8455220">
        <ele>1684.2</ele>
        <time>2017-07-29T07:16:43Z</time>
      </trkpt>
      <trkpt lat="44.9337520" lon="6.8454570">
        <ele>1684.4</ele>
        <time>2017-07-29T07:16:44Z</time>
      </trkpt>
      <trkpt lat="44.9336630" lon="6.8452750">
        <ele>1684.6</ele>
        <time>2017-07-29T07:16:48Z</time>
      </trkpt>
      <trkpt lat="44.9336260" lon="6.8452710">
        <ele>1684.8</ele>
        <time>2017-07-29T07:16:49Z</time>
      </trkpt>
      <trkpt lat="44.9335600" lon="6.8452990">
        <ele>1685.2</ele>
        <time>2017-07-29T07:16:51Z</time>
      </trkpt>
      <trkpt lat="44.9335120" lon="6.8453570">
        <ele>1685.4</ele>
        <time>2017-07-29T07:16:53Z</time>
      </trkpt>
      <trkpt lat="44.9334980" lon="6.8454280">
        <ele>1685.6</ele>
        <time>2017-07-29T07:16:55Z</time>
      </trkpt>
      <trkpt lat="44.9335690" lon="6.8456000">
        <ele>1686.0</ele>
        <time>2017-07-29T07:16:58Z</time>
      </trkpt>
      <trkpt lat="44.9336320" lon="6.8457070">
        <ele>1686.6</ele>
        <time>2017-07-29T07:17:00Z</time>
      </trkpt>
      <trkpt lat="44.9336850" lon="6.8458240">
        <ele>1686.8</ele>
        <time>2017-07-29T07:17:02Z</time>
      </trkpt>
      <trkpt lat="44.9337260" lon="6.8459440">
        <ele>1687.2</ele>
        <time>2017-07-29T07:17:04Z</time>
      </trkpt>
      <trkpt lat="44.9337900" lon="6.8461050">
        <ele>1687.6</ele>
        <time>2017-07-29T07:17:07Z</time>
      </trkpt>
      <trkpt lat="44.9338470" lon="6.8461840">
        <ele>1688.0</ele>
        <time>2017-07-29T07:17:09Z</time>
      </trkpt>
      <trkpt lat="44.9340510" lon="6.8464170">
        <ele>1688.6</ele>
        <time>2017-07-29T07:17:15Z</time>
      </trkpt>
      <trkpt lat="44.9340910" lon="6.8464470">
        <ele>1688.8</ele>
        <time>2017-07-29T07:17:16Z</time>
      </trkpt>
      <trkpt lat="44.9342240" lon="6.8465870">
        <ele>1689.2</ele>
        <time>2017-07-29T07:17:20Z</time>
      </trkpt>
      <trkpt lat="44.9342580" lon="6.8466330">
        <ele>1689.4</ele>
        <time>2017-07-29T07:17:21Z</time>
      </trkpt>
      <trkpt lat="44.9343190" lon="6.8467140">
        <ele>1689.6</ele>
        <time>2017-07-29T07:17:23Z</time>
      </trkpt>
      <trkpt lat="44.9343590" lon="6.8467910">
        <ele>1690.2</ele>
        <time>2017-07-29T07:17:25Z</time>
      </trkpt>
      <trkpt lat="44.9343770" lon="6.8469190">
        <ele>1690.8</ele>
        <time>2017-07-29T07:17:28Z</time>
      </trkpt>
      <trkpt lat="44.9343680" lon="6.8470020">
        <ele>1691.4</ele>
        <time>2017-07-29T07:17:30Z</time>
      </trkpt>
      <trkpt lat="44.9343600" lon="6.8470920">
        <ele>1692.0</ele>
        <time>2017-07-29T07:17:32Z</time>
      </trkpt>
      <trkpt lat="44.9343390" lon="6.8472620">
        <ele>1692.8</ele>
        <time>2017-07-29T07:17:36Z</time>
      </trkpt>
      <trkpt lat="44.9343390" lon="6.8473590">
        <ele>1693.2</ele>
        <time>2017-07-29T07:17:38Z</time>
      </trkpt>
      <trkpt lat="44.9343280" lon="6.8475400">
        <ele>1694.2</ele>
        <time>2017-07-29T07:17:42Z</time>
      </trkpt>
      <trkpt lat="44.9343290" lon="6.8475890">
        <ele>1694.4</ele>
        <time>2017-07-29T07:17:43Z</time>
      </trkpt>
      <trkpt lat="44.9343190" lon="6.8477680">
        <ele>1695.4</ele>
        <time>2017-07-29T07:17:47Z</time>
      </trkpt>
      <trkpt lat="44.9343150" lon="6.8479070">
        <ele>1696.2</ele>
        <time>2017-07-29T07:17:50Z</time>
      </trkpt>
      <trkpt lat="44.9343120" lon="6.8479490">
        <ele>1696.6</ele>
        <time>2017-07-29T07:17:51Z</time>
      </trkpt>
      <trkpt lat="44.9342730" lon="6.8481110">
        <ele>1697.8</ele>
        <time>2017-07-29T07:17:55Z</time>
      </trkpt>
      <trkpt lat="44.9342610" lon="6.8481480">
        <ele>1698.2</ele>
        <time>2017-07-29T07:17:56Z</time>
      </trkpt>
      <trkpt lat="44.9342270" lon="6.8482700">
        <ele>1698.8</ele>
        <time>2017-07-29T07:17:59Z</time>
      </trkpt>
      <trkpt lat="44.9342060" lon="6.8483930">
        <ele>1699.6</ele>
        <time>2017-07-29T07:18:02Z</time>
      </trkpt>
      <trkpt lat="44.9341810" lon="6.8484650">
        <ele>1700.2</ele>
        <time>2017-07-29T07:18:04Z</time>
      </trkpt>
      <trkpt lat="44.9341360" lon="6.8486150">
        <ele>1701.2</ele>
        <time>2017-07-29T07:18:08Z</time>
      </trkpt>
      <trkpt lat="44.9341180" lon="6.8486850">
        <ele>1701.8</ele>
        <time>2017-07-29T07:18:10Z</time>
      </trkpt>
      <trkpt lat="44.9341030" lon="6.8487420">
        <ele>1702.4</ele>
        <time>2017-07-29T07:18:12Z</time>
      </trkpt>
      <trkpt lat="44.9340630" lon="6.8488830">
        <ele>1703.4</ele>
        <time>2017-07-29T07:18:16Z</time>
      </trkpt>
      <trkpt lat="44.9340320" lon="6.8489920">
        <ele>1704.6</ele>
        <time>2017-07-29T07:18:19Z</time>
      </trkpt>
      <trkpt lat="44.9340220" lon="6.8490590">
        <ele>1705.2</ele>
        <time>2017-07-29T07:18:21Z</time>
      </trkpt>
      <trkpt lat="44.9340150" lon="6.8491120">
        <ele>1705.6</ele>
        <time>2017-07-29T07:18:23Z</time>
      </trkpt>
      <trkpt lat="44.9339710" lon="6.8491760">
        <ele>1706.8</ele>
        <time>2017-07-29T07:18:27Z</time>
      </trkpt>
      <trkpt lat="44.9339130" lon="6.8492630">
        <ele>1708.0</ele>
        <time>2017-07-29T07:18:31Z</time>
      </trkpt>
      <trkpt lat="44.9338850" lon="6.8493190">
        <ele>1708.6</ele>
        <time>2017-07-29T07:18:33Z</time>
      </trkpt>
      <trkpt lat="44.9338620" lon="6.8493820">
        <ele>1709.2</ele>
        <time>2017-07-29T07:18:35Z</time>
      </trkpt>
      <trkpt lat="44.9338320" lon="6.8495220">
        <ele>1710.4</ele>
        <time>2017-07-29T07:18:39Z</time>
      </trkpt>
      <trkpt lat="44.9338280" lon="6.8495630">
        <ele>1710.6</ele>
        <time>2017-07-29T07:18:40Z</time>
      </trkpt>
      <trkpt lat="44.9338230" lon="6.8496450">
        <ele>1711.4</ele>
        <time>2017-07-29T07:18:42Z</time>
      </trkpt>
      <trkpt lat="44.9338140" lon="6.8498020">
        <ele>1712.6</ele>
        <time>2017-07-29T07:18:46Z</time>
      </trkpt>
      <trkpt lat="44.9338020" lon="6.8499010">
        <ele>1713.6</ele>
        <time>2017-07-29T07:18:49Z</time>
      </trkpt>
      <trkpt lat="44.9337980" lon="6.8499410">
        <ele>1713.8</ele>
        <time>2017-07-29T07:18:50Z</time>
      </trkpt>
      <trkpt lat="44.9337730" lon="6.8500390">
        <ele>1715.0</ele>
        <time>2017-07-29T07:18:53Z</time>
      </trkpt>
      <trkpt lat="44.9337570" lon="6.8501010">
        <ele>1715.4</ele>
        <time>2017-07-29T07:18:55Z</time>
      </trkpt>
      <trkpt lat="44.9337490" lon="6.8501660">
        <ele>1716.2</ele>
        <time>2017-07-29T07:18:57Z</time>
      </trkpt>
      <trkpt lat="44.9337550" lon="6.8503180">
        <ele>1717.2</ele>
        <time>2017-07-29T07:19:01Z</time>
      </trkpt>
      <trkpt lat="44.9337680" lon="6.8503570">
        <ele>1717.6</ele>
        <time>2017-07-29T07:19:02Z</time>
      </trkpt>
      <trkpt lat="44.9338070" lon="6.8504130">
        <ele>1718.4</ele>
        <time>2017-07-29T07:19:04Z</time>
      </trkpt>
      <trkpt lat="44.9338680" lon="6.8505020">
        <ele>1719.4</ele>
        <time>2017-07-29T07:19:07Z</time>
      </trkpt>
      <trkpt lat="44.9339550" lon="6.8506450">
        <ele>1720.8</ele>
        <time>2017-07-29T07:19:11Z</time>
      </trkpt>
      <trkpt lat="44.9340290" lon="6.8507960">
        <ele>1721.8</ele>
        <time>2017-07-29T07:19:15Z</time>
      </trkpt>
      <trkpt lat="44.9340430" lon="6.8508380">
        <ele>1722.0</ele>
        <time>2017-07-29T07:19:16Z</time>
      </trkpt>
      <trkpt lat="44.9340430" lon="6.8509420">
        <ele>1722.8</ele>
        <time>2017-07-29T07:19:19Z</time>
      </trkpt>
      <trkpt lat="44.9340380" lon="6.8510140">
        <ele>1723.4</ele>
        <time>2017-07-29T07:19:21Z</time>
      </trkpt>
      <trkpt lat="44.9340290" lon="6.8510740">
        <ele>1724.0</ele>
        <time>2017-07-29T07:19:23Z</time>
      </trkpt>
      <trkpt lat="44.9340260" lon="6.8512040">
        <ele>1725.0</ele>
        <time>2017-07-29T07:19:27Z</time>
      </trkpt>
      <trkpt lat="44.9340280" lon="6.8512410">
        <ele>1725.2</ele>
        <time>2017-07-29T07:19:28Z</time>
      </trkpt>
      <trkpt lat="44.9340330" lon="6.8513100">
        <ele>1726.0</ele>
        <time>2017-07-29T07:19:30Z</time>
      </trkpt>
      <trkpt lat="44.9340360" lon="6.8515000">
        <ele>1727.2</ele>
        <time>2017-07-29T07:19:35Z</time>
      </trkpt>
      <trkpt lat="44.9340590" lon="6.8516410">
        <ele>1728.4</ele>
        <time>2017-07-29T07:19:39Z</time>
      </trkpt>
      <trkpt lat="44.9340720" lon="6.8517050">
        <ele>1728.8</ele>
        <time>2017-07-29T07:19:41Z</time>
      </trkpt>
      <trkpt lat="44.9340770" lon="6.8517680">
        <ele>1729.4</ele>
        <time>2017-07-29T07:19:43Z</time>
      </trkpt>
      <trkpt lat="44.9340840" lon="6.8518960">
        <ele>1730.4</ele>
        <time>2017-07-29T07:19:47Z</time>
      </trkpt>
      <trkpt lat="44.9340880" lon="6.8519250">
        <ele>1730.8</ele>
        <time>2017-07-29T07:19:48Z</time>
      </trkpt>
      <trkpt lat="44.9340970" lon="6.8520350">
        <ele>1731.6</ele>
        <time>2017-07-29T07:19:51Z</time>
      </trkpt>
      <trkpt lat="44.9341080" lon="6.8521350">
        <ele>1732.6</ele>
        <time>2017-07-29T07:19:54Z</time>
      </trkpt>
      <trkpt lat="44.9341080" lon="6.8521640">
        <ele>1732.8</ele>
        <time>2017-07-29T07:19:55Z</time>
      </trkpt>
      <trkpt lat="44.9341150" lon="6.8523050">
        <ele>1734.0</ele>
        <time>2017-07-29T07:19:59Z</time>
      </trkpt>
      <trkpt lat="44.9341130" lon="6.8523370">
        <ele>1734.4</ele>
        <time>2017-07-29T07:20:00Z</time>
      </trkpt>
      <trkpt lat="44.9341270" lon="6.8524410">
        <ele>1735.0</ele>
        <time>2017-07-29T07:20:03Z</time>
      </trkpt>
      <trkpt lat="44.9341580" lon="6.8526500">
        <ele>1736.0</ele>
        <time>2017-07-29T07:20:08Z</time>
      </trkpt>
      <trkpt lat="44.9342380" lon="6.8528320">
        <ele>1737.0</ele>
        <time>2017-07-29T07:20:13Z</time>
      </trkpt>
      <trkpt lat="44.9342900" lon="6.8529520">
        <ele>1737.8</ele>
        <time>2017-07-29T07:20:17Z</time>
      </trkpt>
      <trkpt lat="44.9343100" lon="6.8529900">
        <ele>1738.2</ele>
        <time>2017-07-29T07:20:18Z</time>
      </trkpt>
      <trkpt lat="44.9343350" lon="6.8531430">
        <ele>1739.2</ele>
        <time>2017-07-29T07:20:22Z</time>
      </trkpt>
      <trkpt lat="44.9343390" lon="6.8531800">
        <ele>1739.4</ele>
        <time>2017-07-29T07:20:23Z</time>
      </trkpt>
      <trkpt lat="44.9343840" lon="6.8533680">
        <ele>1740.4</ele>
        <time>2017-07-29T07:20:28Z</time>
      </trkpt>
      <trkpt lat="44.9344110" lon="6.8534960">
        <ele>1741.6</ele>
        <time>2017-07-29T07:20:32Z</time>
      </trkpt>
      <trkpt lat="44.9344280" lon="6.8535790">
        <ele>1742.0</ele>
        <time>2017-07-29T07:20:34Z</time>
      </trkpt>
      <trkpt lat="44.9344600" lon="6.8536950">
        <ele>1742.8</ele>
        <time>2017-07-29T07:20:37Z</time>
      </trkpt>
      <trkpt lat="44.9344860" lon="6.8538010">
        <ele>1743.4</ele>
        <time>2017-07-29T07:20:40Z</time>
      </trkpt>
      <trkpt lat="44.9344900" lon="6.8538840">
        <ele>1744.4</ele>
        <time>2017-07-29T07:20:42Z</time>
      </trkpt>
      <trkpt lat="44.9345130" lon="6.8540210">
        <ele>1745.4</ele>
        <time>2017-07-29T07:20:46Z</time>
      </trkpt>
      <trkpt lat="44.9345100" lon="6.8540460">
        <ele>1745.6</ele>
        <time>2017-07-29T07:20:47Z</time>
      </trkpt>
      <trkpt lat="44.9345120" lon="6.8541610">
        <ele>1746.6</ele>
        <time>2017-07-29T07:20:50Z</time>
      </trkpt>
      <trkpt lat="44.9345350" lon="6.8542510">
        <ele>1747.2</ele>
        <time>2017-07-29T07:20:52Z</time>
      </trkpt>
      <trkpt lat="44.9345310" lon="6.8543320">
        <ele>1747.6</ele>
        <time>2017-07-29T07:20:54Z</time>
      </trkpt>
      <trkpt lat="44.9344900" lon="6.8545230">
        <ele>1748.8</ele>
        <time>2017-07-29T07:20:58Z</time>
      </trkpt>
      <trkpt lat="44.9344550" lon="6.8546700">
        <ele>1749.8</ele>
        <time>2017-07-29T07:21:02Z</time>
      </trkpt>
      <trkpt lat="44.9344370" lon="6.8547870">
        <ele>1750.6</ele>
        <time>2017-07-29T07:21:05Z</time>
      </trkpt>
      <trkpt lat="44.9344350" lon="6.8548310">
        <ele>1751.2</ele>
        <time>2017-07-29T07:21:06Z</time>
      </trkpt>
      <trkpt lat="44.9343830" lon="6.8549880">
        <ele>1752.2</ele>
        <time>2017-07-29T07:21:10Z</time>
      </trkpt>
      <trkpt lat="44.9343580" lon="6.8550630">
        <ele>1753.0</ele>
        <time>2017-07-29T07:21:12Z</time>
      </trkpt>
      <trkpt lat="44.9343300" lon="6.8551400">
        <ele>1753.4</ele>
        <time>2017-07-29T07:21:14Z</time>
      </trkpt>
      <trkpt lat="44.9342900" lon="6.8552870">
        <ele>1754.4</ele>
        <time>2017-07-29T07:21:18Z</time>
      </trkpt>
      <trkpt lat="44.9342990" lon="6.8554890">
        <ele>1755.6</ele>
        <time>2017-07-29T07:21:23Z</time>
      </trkpt>
      <trkpt lat="44.9343140" lon="6.8555620">
        <ele>1756.2</ele>
        <time>2017-07-29T07:21:25Z</time>
      </trkpt>
      <trkpt lat="44.9343240" lon="6.8556410">
        <ele>1756.6</ele>
        <time>2017-07-29T07:21:27Z</time>
      </trkpt>
      <trkpt lat="44.9343430" lon="6.8557180">
        <ele>1757.4</ele>
        <time>2017-07-29T07:21:29Z</time>
      </trkpt>
      <trkpt lat="44.9343540" lon="6.8557540">
        <ele>1757.8</ele>
        <time>2017-07-29T07:21:30Z</time>
      </trkpt>
      <trkpt lat="44.9343630" lon="6.8558670">
        <ele>1758.8</ele>
        <time>2017-07-29T07:21:33Z</time>
      </trkpt>
      <trkpt lat="44.9343630" lon="6.8559490">
        <ele>1759.4</ele>
        <time>2017-07-29T07:21:35Z</time>
      </trkpt>
      <trkpt lat="44.9343680" lon="6.8560260">
        <ele>1760.0</ele>
        <time>2017-07-29T07:21:37Z</time>
      </trkpt>
      <trkpt lat="44.9343800" lon="6.8561960">
        <ele>1761.0</ele>
        <time>2017-07-29T07:21:41Z</time>
      </trkpt>
      <trkpt lat="44.9343860" lon="6.8562710">
        <ele>1761.8</ele>
        <time>2017-07-29T07:21:43Z</time>
      </trkpt>
      <trkpt lat="44.9343930" lon="6.8563060">
        <ele>1762.2</ele>
        <time>2017-07-29T07:21:44Z</time>
      </trkpt>
      <trkpt lat="44.9344020" lon="6.8564930">
        <ele>1763.4</ele>
        <time>2017-07-29T07:21:49Z</time>
      </trkpt>
      <trkpt lat="44.9343940" lon="6.8565290">
        <ele>1763.6</ele>
        <time>2017-07-29T07:21:50Z</time>
      </trkpt>
      <trkpt lat="44.9343660" lon="6.8566240">
        <ele>1764.6</ele>
        <time>2017-07-29T07:21:53Z</time>
      </trkpt>
      <trkpt lat="44.9343300" lon="6.8567250">
        <ele>1765.6</ele>
        <time>2017-07-29T07:21:56Z</time>
      </trkpt>
      <trkpt lat="44.9343160" lon="6.8567610">
        <ele>1765.8</ele>
        <time>2017-07-29T07:21:57Z</time>
      </trkpt>
      <trkpt lat="44.9342590" lon="6.8569280">
        <ele>1766.8</ele>
        <time>2017-07-29T07:22:01Z</time>
      </trkpt>
      <trkpt lat="44.9342040" lon="6.8570800">
        <ele>1768.0</ele>
        <time>2017-07-29T07:22:05Z</time>
      </trkpt>
      <trkpt lat="44.9341300" lon="6.8572840">
        <ele>1769.0</ele>
        <time>2017-07-29T07:22:10Z</time>
      </trkpt>
      <trkpt lat="44.9341070" lon="6.8573710">
        <ele>1769.6</ele>
        <time>2017-07-29T07:22:12Z</time>
      </trkpt>
      <trkpt lat="44.9340840" lon="6.8574490">
        <ele>1770.2</ele>
        <time>2017-07-29T07:22:14Z</time>
      </trkpt>
      <trkpt lat="44.9340300" lon="6.8576110">
        <ele>1771.4</ele>
        <time>2017-07-29T07:22:18Z</time>
      </trkpt>
      <trkpt lat="44.9340300" lon="6.8577930">
        <ele>1772.6</ele>
        <time>2017-07-29T07:22:22Z</time>
      </trkpt>
      <trkpt lat="44.9340310" lon="6.8578740">
        <ele>1773.2</ele>
        <time>2017-07-29T07:22:24Z</time>
      </trkpt>
      <trkpt lat="44.9340150" lon="6.8580090">
        <ele>1773.8</ele>
        <time>2017-07-29T07:22:27Z</time>
      </trkpt>
      <trkpt lat="44.9340180" lon="6.8581350">
        <ele>1775.0</ele>
        <time>2017-07-29T07:22:30Z</time>
      </trkpt>
      <trkpt lat="44.9340250" lon="6.8581740">
        <ele>1775.2</ele>
        <time>2017-07-29T07:22:31Z</time>
      </trkpt>
      <trkpt lat="44.9340390" lon="6.8582970">
        <ele>1776.0</ele>
        <time>2017-07-29T07:22:34Z</time>
      </trkpt>
      <trkpt lat="44.9340510" lon="6.8584840">
        <ele>1777.2</ele>
        <time>2017-07-29T07:22:38Z</time>
      </trkpt>
      <trkpt lat="44.9340250" lon="6.8586590">
        <ele>1778.6</ele>
        <time>2017-07-29T07:22:42Z</time>
      </trkpt>
      <trkpt lat="44.9339880" lon="6.8587820">
        <ele>1779.6</ele>
        <time>2017-07-29T07:22:45Z</time>
      </trkpt>
      <trkpt lat="44.9339740" lon="6.8588210">
        <ele>1779.8</ele>
        <time>2017-07-29T07:22:46Z</time>
      </trkpt>
      <trkpt lat="44.9339230" lon="6.8589850">
        <ele>1781.0</ele>
        <time>2017-07-29T07:22:51Z</time>
      </trkpt>
      <trkpt lat="44.9338950" lon="6.8590530">
        <ele>1781.6</ele>
        <time>2017-07-29T07:22:53Z</time>
      </trkpt>
      <trkpt lat="44.9338290" lon="6.8591450">
        <ele>1782.2</ele>
        <time>2017-07-29T07:22:56Z</time>
      </trkpt>
      <trkpt lat="44.9337660" lon="6.8592000">
        <ele>1783.0</ele>
        <time>2017-07-29T07:22:59Z</time>
      </trkpt>
      <trkpt lat="44.9337290" lon="6.8592370">
        <ele>1783.2</ele>
        <time>2017-07-29T07:23:01Z</time>
      </trkpt>
      <trkpt lat="44.9336680" lon="6.8593240">
        <ele>1784.2</ele>
        <time>2017-07-29T07:23:05Z</time>
      </trkpt>
      <trkpt lat="44.9336540" lon="6.8593450">
        <ele>1784.6</ele>
        <time>2017-07-29T07:23:06Z</time>
      </trkpt>
      <trkpt lat="44.9336060" lon="6.8594500">
        <ele>1785.8</ele>
        <time>2017-07-29T07:23:10Z</time>
      </trkpt>
      <trkpt lat="44.9335750" lon="6.8595080">
        <ele>1786.4</ele>
        <time>2017-07-29T07:23:12Z</time>
      </trkpt>
      <trkpt lat="44.9335470" lon="6.8595770">
        <ele>1787.0</ele>
        <time>2017-07-29T07:23:14Z</time>
      </trkpt>
      <trkpt lat="44.9334940" lon="6.8597090">
        <ele>1788.0</ele>
        <time>2017-07-29T07:23:18Z</time>
      </trkpt>
      <trkpt lat="44.9334810" lon="6.8597410">
        <ele>1788.4</ele>
        <time>2017-07-29T07:23:19Z</time>
      </trkpt>
      <trkpt lat="44.9334430" lon="6.8598430">
        <ele>1789.0</ele>
        <time>2017-07-29T07:23:22Z</time>
      </trkpt>
      <trkpt lat="44.9334040" lon="6.8599370">
        <ele>1789.8</ele>
        <time>2017-07-29T07:23:25Z</time>
      </trkpt>
      <trkpt lat="44.9333920" lon="6.8599660">
        <ele>1790.0</ele>
        <time>2017-07-29T07:23:26Z</time>
      </trkpt>
      <trkpt lat="44.9333400" lon="6.8600810">
        <ele>1791.4</ele>
        <time>2017-07-29T07:23:30Z</time>
      </trkpt>
      <trkpt lat="44.9333310" lon="6.8601430">
        <ele>1792.2</ele>
        <time>2017-07-29T07:23:32Z</time>
      </trkpt>
      <trkpt lat="44.9333170" lon="6.8602100">
        <ele>1792.6</ele>
        <time>2017-07-29T07:23:34Z</time>
      </trkpt>
      <trkpt lat="44.9332700" lon="6.8603820">
        <ele>1793.6</ele>
        <time>2017-07-29T07:23:39Z</time>
      </trkpt>
      <trkpt lat="44.9332310" lon="6.8605340">
        <ele>1795.0</ele>
        <time>2017-07-29T07:23:44Z</time>
      </trkpt>
      <trkpt lat="44.9332230" lon="6.8605630">
        <ele>1795.2</ele>
        <time>2017-07-29T07:23:45Z</time>
      </trkpt>
      <trkpt lat="44.9331940" lon="6.8606440">
        <ele>1796.0</ele>
        <time>2017-07-29T07:23:48Z</time>
      </trkpt>
      <trkpt lat="44.9331480" lon="6.8607560">
        <ele>1797.0</ele>
        <time>2017-07-29T07:23:52Z</time>
      </trkpt>
      <trkpt lat="44.9331380" lon="6.8609230">
        <ele>1798.0</ele>
        <time>2017-07-29T07:23:57Z</time>
      </trkpt>
      <trkpt lat="44.9331370" lon="6.8609940">
        <ele>1798.6</ele>
        <time>2017-07-29T07:23:59Z</time>
      </trkpt>
      <trkpt lat="44.9331410" lon="6.8610590">
        <ele>1799.2</ele>
        <time>2017-07-29T07:24:01Z</time>
      </trkpt>
      <trkpt lat="44.9331500" lon="6.8612120">
        <ele>1800.2</ele>
        <time>2017-07-29T07:24:06Z</time>
      </trkpt>
      <trkpt lat="44.9331370" lon="6.8613330">
        <ele>1801.2</ele>
        <time>2017-07-29T07:24:10Z</time>
      </trkpt>
      <trkpt lat="44.9331360" lon="6.8614680">
        <ele>1802.2</ele>
        <time>2017-07-29T07:24:14Z</time>
      </trkpt>
      <trkpt lat="44.9331350" lon="6.8615040">
        <ele>1802.4</ele>
        <time>2017-07-29T07:24:15Z</time>
      </trkpt>
      <trkpt lat="44.9331570" lon="6.8616220">
        <ele>1803.4</ele>
        <time>2017-07-29T07:24:18Z</time>
      </trkpt>
      <trkpt lat="44.9331850" lon="6.8616850">
        <ele>1804.0</ele>
        <time>2017-07-29T07:24:20Z</time>
      </trkpt>
      <trkpt lat="44.9332120" lon="6.8617420">
        <ele>1804.4</ele>
        <time>2017-07-29T07:24:22Z</time>
      </trkpt>
      <trkpt lat="44.9332560" lon="6.8618450">
        <ele>1805.4</ele>
        <time>2017-07-29T07:24:26Z</time>
      </trkpt>
      <trkpt lat="44.9332640" lon="6.8619690">
        <ele>1806.6</ele>
        <time>2017-07-29T07:24:30Z</time>
      </trkpt>
      <trkpt lat="44.9332590" lon="6.8620000">
        <ele>1806.8</ele>
        <time>2017-07-29T07:24:31Z</time>
      </trkpt>
      <trkpt lat="44.9332470" lon="6.8620230">
        <ele>1807.2</ele>
        <time>2017-07-29T07:24:32Z</time>
      </trkpt>
      <trkpt lat="44.9331950" lon="6.8620760">
        <ele>1807.8</ele>
        <time>2017-07-29T07:24:35Z</time>
      </trkpt>
      <trkpt lat="44.9331770" lon="6.8620940">
        <ele>1808.0</ele>
        <time>2017-07-29T07:24:36Z</time>
      </trkpt>
      <trkpt lat="44.9331160" lon="6.8621730">
        <ele>1809.0</ele>
        <time>2017-07-29T07:24:40Z</time>
      </trkpt>
      <trkpt lat="44.9330380" lon="6.8622550">
        <ele>1810.0</ele>
        <time>2017-07-29T07:24:44Z</time>
      </trkpt>
      <trkpt lat="44.9328980" lon="6.8623610">
        <ele>1811.2</ele>
        <time>2017-07-29T07:24:49Z</time>
      </trkpt>
      <trkpt lat="44.9328470" lon="6.8624080">
        <ele>1811.8</ele>
        <time>2017-07-29T07:24:51Z</time>
      </trkpt>
      <trkpt lat="44.9327950" lon="6.8624510">
        <ele>1812.4</ele>
        <time>2017-07-29T07:24:53Z</time>
      </trkpt>
      <trkpt lat="44.9326970" lon="6.8625010">
        <ele>1813.4</ele>
        <time>2017-07-29T07:24:57Z</time>
      </trkpt>
      <trkpt lat="44.9326700" lon="6.8625150">
        <ele>1813.6</ele>
        <time>2017-07-29T07:24:58Z</time>
      </trkpt>
      <trkpt lat="44.9325520" lon="6.8625500">
        <ele>1814.4</ele>
        <time>2017-07-29T07:25:02Z</time>
      </trkpt>
      <trkpt lat="44.9325260" lon="6.8625500">
        <ele>1814.6</ele>
        <time>2017-07-29T07:25:03Z</time>
      </trkpt>
      <trkpt lat="44.9324000" lon="6.8625830">
        <ele>1815.6</ele>
        <time>2017-07-29T07:25:07Z</time>
      </trkpt>
      <trkpt lat="44.9323030" lon="6.8627270">
        <ele>1817.0</ele>
        <time>2017-07-29T07:25:12Z</time>
      </trkpt>
      <trkpt lat="44.9322110" lon="6.8628730">
        <ele>1818.0</ele>
        <time>2017-07-29T07:25:17Z</time>
      </trkpt>
      <trkpt lat="44.9321760" lon="6.8629420">
        <ele>1818.6</ele>
        <time>2017-07-29T07:25:19Z</time>
      </trkpt>
      <trkpt lat="44.9321290" lon="6.8630370">
        <ele>1819.2</ele>
        <time>2017-07-29T07:25:22Z</time>
      </trkpt>
      <trkpt lat="44.9320940" lon="6.8630960">
        <ele>1819.8</ele>
        <time>2017-07-29T07:25:24Z</time>
      </trkpt>
      <trkpt lat="44.9320240" lon="6.8631520">
        <ele>1820.4</ele>
        <time>2017-07-29T07:25:27Z</time>
      </trkpt>
      <trkpt lat="44.9319710" lon="6.8631690">
        <ele>1821.0</ele>
        <time>2017-07-29T07:25:29Z</time>
      </trkpt>
      <trkpt lat="44.9319220" lon="6.8631810">
        <ele>1821.8</ele>
        <time>2017-07-29T07:25:31Z</time>
      </trkpt>
      <trkpt lat="44.9317560" lon="6.8632250">
        <ele>1823.0</ele>
        <time>2017-07-29T07:25:37Z</time>
      </trkpt>
      <trkpt lat="44.9316280" lon="6.8633340">
        <ele>1824.2</ele>
        <time>2017-07-29T07:25:42Z</time>
      </trkpt>
      <trkpt lat="44.9315850" lon="6.8633630">
        <ele>1824.6</ele>
        <time>2017-07-29T07:25:44Z</time>
      </trkpt>
      <trkpt lat="44.9315160" lon="6.8633760">
        <ele>1825.4</ele>
        <time>2017-07-29T07:25:47Z</time>
      </trkpt>
      <trkpt lat="44.9314350" lon="6.8633720">
        <ele>1826.2</ele>
        <time>2017-07-29T07:25:50Z</time>
      </trkpt>
      <trkpt lat="44.9314100" lon="6.8633670">
        <ele>1826.4</ele>
        <time>2017-07-29T07:25:51Z</time>
      </trkpt>
      <trkpt lat="44.9312800" lon="6.8634210">
        <ele>1827.4</ele>
        <time>2017-07-29T07:25:56Z</time>
      </trkpt>
      <trkpt lat="44.9311410" lon="6.8635110">
        <ele>1828.4</ele>
        <time>2017-07-29T07:26:01Z</time>
      </trkpt>
      <trkpt lat="44.9311160" lon="6.8635280">
        <ele>1828.8</ele>
        <time>2017-07-29T07:26:02Z</time>
      </trkpt>
      <trkpt lat="44.9310060" lon="6.8635870">
        <ele>1829.6</ele>
        <time>2017-07-29T07:26:07Z</time>
      </trkpt>
      <trkpt lat="44.9309790" lon="6.8636080">
        <ele>1829.8</ele>
        <time>2017-07-29T07:26:08Z</time>
      </trkpt>
      <trkpt lat="44.9308670" lon="6.8636840">
        <ele>1830.8</ele>
        <time>2017-07-29T07:26:12Z</time>
      </trkpt>
      <trkpt lat="44.9308170" lon="6.8637230">
        <ele>1831.6</ele>
        <time>2017-07-29T07:26:14Z</time>
      </trkpt>
      <trkpt lat="44.9307720" lon="6.8637730">
        <ele>1832.0</ele>
        <time>2017-07-29T07:26:16Z</time>
      </trkpt>
      <trkpt lat="44.9307010" lon="6.8638550">
        <ele>1833.2</ele>
        <time>2017-07-29T07:26:19Z</time>
      </trkpt>
      <trkpt lat="44.9306800" lon="6.8638790">
        <ele>1833.4</ele>
        <time>2017-07-29T07:26:20Z</time>
      </trkpt>
      <trkpt lat="44.9306290" lon="6.8639580">
        <ele>1834.4</ele>
        <time>2017-07-29T07:26:23Z</time>
      </trkpt>
      <trkpt lat="44.9305800" lon="6.8640190">
        <ele>1835.4</ele>
        <time>2017-07-29T07:26:26Z</time>
      </trkpt>
      <trkpt lat="44.9305230" lon="6.8641200">
        <ele>1836.8</ele>
        <time>2017-07-29T07:26:30Z</time>
      </trkpt>
      <trkpt lat="44.9304970" lon="6.8641710">
        <ele>1837.2</ele>
        <time>2017-07-29T07:26:32Z</time>
      </trkpt>
      <trkpt lat="44.9304740" lon="6.8642240">
        <ele>1838.0</ele>
        <time>2017-07-29T07:26:34Z</time>
      </trkpt>
      <trkpt lat="44.9303970" lon="6.8643420">
        <ele>1839.2</ele>
        <time>2017-07-29T07:26:38Z</time>
      </trkpt>
      <trkpt lat="44.9303760" lon="6.8643640">
        <ele>1839.4</ele>
        <time>2017-07-29T07:26:39Z</time>
      </trkpt>
      <trkpt lat="44.9303100" lon="6.8644270">
        <ele>1840.4</ele>
        <time>2017-07-29T07:26:42Z</time>
      </trkpt>
      <trkpt lat="44.9302480" lon="6.8644790">
        <ele>1841.6</ele>
        <time>2017-07-29T07:26:45Z</time>
      </trkpt>
      <trkpt lat="44.9302320" lon="6.8645020">
        <ele>1841.8</ele>
        <time>2017-07-29T07:26:46Z</time>
      </trkpt>
      <trkpt lat="44.9301850" lon="6.8645710">
        <ele>1842.6</ele>
        <time>2017-07-29T07:26:49Z</time>
      </trkpt>
      <trkpt lat="44.9301460" lon="6.8646360">
        <ele>1843.4</ele>
        <time>2017-07-29T07:26:51Z</time>
      </trkpt>
      <trkpt lat="44.9301240" lon="6.8646670">
        <ele>1843.8</ele>
        <time>2017-07-29T07:26:52Z</time>
      </trkpt>
      <trkpt lat="44.9300360" lon="6.8647690">
        <ele>1844.6</ele>
        <time>2017-07-29T07:26:56Z</time>
      </trkpt>
      <trkpt lat="44.9300140" lon="6.8647850">
        <ele>1844.8</ele>
        <time>2017-07-29T07:26:57Z</time>
      </trkpt>
      <trkpt lat="44.9299250" lon="6.8648570">
        <ele>1845.8</ele>
        <time>2017-07-29T07:27:01Z</time>
      </trkpt>
      <trkpt lat="44.9299000" lon="6.8648770">
        <ele>1846.0</ele>
        <time>2017-07-29T07:27:02Z</time>
      </trkpt>
      <trkpt lat="44.9298070" lon="6.8649070">
        <ele>1847.4</ele>
        <time>2017-07-29T07:27:06Z</time>
      </trkpt>
      <trkpt lat="44.9297830" lon="6.8649130">
        <ele>1847.6</ele>
        <time>2017-07-29T07:27:07Z</time>
      </trkpt>
      <trkpt lat="44.9296950" lon="6.8649650">
        <ele>1848.4</ele>
        <time>2017-07-29T07:27:11Z</time>
      </trkpt>
      <trkpt lat="44.9296300" lon="6.8650200">
        <ele>1849.0</ele>
        <time>2017-07-29T07:27:14Z</time>
      </trkpt>
      <trkpt lat="44.9295800" lon="6.8650420">
        <ele>1849.4</ele>
        <time>2017-07-29T07:27:16Z</time>
      </trkpt>
      <trkpt lat="44.9295090" lon="6.8650090">
        <ele>1850.2</ele>
        <time>2017-07-29T07:27:19Z</time>
      </trkpt>
      <trkpt lat="44.9294620" lon="6.8649800">
        <ele>1850.6</ele>
        <time>2017-07-29T07:27:21Z</time>
      </trkpt>
      <trkpt lat="44.9293950" lon="6.8649280">
        <ele>1851.2</ele>
        <time>2017-07-29T07:27:24Z</time>
      </trkpt>
      <trkpt lat="44.9293490" lon="6.8649080">
        <ele>1851.6</ele>
        <time>2017-07-29T07:27:26Z</time>
      </trkpt>
      <trkpt lat="44.9292470" lon="6.8648960">
        <ele>1852.8</ele>
        <time>2017-07-29T07:27:30Z</time>
      </trkpt>
      <trkpt lat="44.9292220" lon="6.8649010">
        <ele>1852.8</ele>
        <time>2017-07-29T07:27:31Z</time>
      </trkpt>
      <trkpt lat="44.9290900" lon="6.8649530">
        <ele>1854.0</ele>
        <time>2017-07-29T07:27:36Z</time>
      </trkpt>
      <trkpt lat="44.9290400" lon="6.8649870">
        <ele>1854.0</ele>
        <time>2017-07-29T07:27:38Z</time>
      </trkpt>
      <trkpt lat="44.9289440" lon="6.8650560">
        <ele>1855.2</ele>
        <time>2017-07-29T07:27:42Z</time>
      </trkpt>
      <trkpt lat="44.9288770" lon="6.8650960">
        <ele>1855.8</ele>
        <time>2017-07-29T07:27:45Z</time>
      </trkpt>
      <trkpt lat="44.9288550" lon="6.8651140">
        <ele>1856.2</ele>
        <time>2017-07-29T07:27:46Z</time>
      </trkpt>
      <trkpt lat="44.9287570" lon="6.8651610">
        <ele>1857.4</ele>
        <time>2017-07-29T07:27:50Z</time>
      </trkpt>
      <trkpt lat="44.9287340" lon="6.8651760">
        <ele>1857.8</ele>
        <time>2017-07-29T07:27:51Z</time>
      </trkpt>
      <trkpt lat="44.9286780" lon="6.8652340">
        <ele>1858.8</ele>
        <time>2017-07-29T07:27:54Z</time>
      </trkpt>
      <trkpt lat="44.9286380" lon="6.8652580">
        <ele>1859.2</ele>
        <time>2017-07-29T07:27:56Z</time>
      </trkpt>
      <trkpt lat="44.9285700" lon="6.8653030">
        <ele>1859.8</ele>
        <time>2017-07-29T07:27:59Z</time>
      </trkpt>
      <trkpt lat="44.9285060" lon="6.8653440">
        <ele>1860.8</ele>
        <time>2017-07-29T07:28:02Z</time>
      </trkpt>
      <trkpt lat="44.9284830" lon="6.8653560">
        <ele>1861.2</ele>
        <time>2017-07-29T07:28:03Z</time>
      </trkpt>
      <trkpt lat="44.9283890" lon="6.8653560">
        <ele>1862.2</ele>
        <time>2017-07-29T07:28:07Z</time>
      </trkpt>
      <trkpt lat="44.9283690" lon="6.8653400">
        <ele>1862.4</ele>
        <time>2017-07-29T07:28:08Z</time>
      </trkpt>
      <trkpt lat="44.9283050" lon="6.8652960">
        <ele>1863.4</ele>
        <time>2017-07-29T07:28:11Z</time>
      </trkpt>
      <trkpt lat="44.9282410" lon="6.8652730">
        <ele>1864.2</ele>
        <time>2017-07-29T07:28:14Z</time>
      </trkpt>
      <trkpt lat="44.9282200" lon="6.8652640">
        <ele>1864.6</ele>
        <time>2017-07-29T07:28:15Z</time>
      </trkpt>
      <trkpt lat="44.9281370" lon="6.8652010">
        <ele>1865.6</ele>
        <time>2017-07-29T07:28:19Z</time>
      </trkpt>
      <trkpt lat="44.9280940" lon="6.8651670">
        <ele>1866.0</ele>
        <time>2017-07-29T07:28:21Z</time>
      </trkpt>
      <trkpt lat="44.9280520" lon="6.8651450">
        <ele>1866.6</ele>
        <time>2017-07-29T07:28:23Z</time>
      </trkpt>
      <trkpt lat="44.9279380" lon="6.8651080">
        <ele>1867.8</ele>
        <time>2017-07-29T07:28:28Z</time>
      </trkpt>
      <trkpt lat="44.9278030" lon="6.8650810">
        <ele>1868.8</ele>
        <time>2017-07-29T07:28:33Z</time>
      </trkpt>
      <trkpt lat="44.9277370" lon="6.8650790">
        <ele>1869.6</ele>
        <time>2017-07-29T07:28:36Z</time>
      </trkpt>
      <trkpt lat="44.9276890" lon="6.8650790">
        <ele>1870.0</ele>
        <time>2017-07-29T07:28:38Z</time>
      </trkpt>
      <trkpt lat="44.9275920" lon="6.8650690">
        <ele>1870.8</ele>
        <time>2017-07-29T07:28:42Z</time>
      </trkpt>
      <trkpt lat="44.9275690" lon="6.8650730">
        <ele>1871.2</ele>
        <time>2017-07-29T07:28:43Z</time>
      </trkpt>
      <trkpt lat="44.9274710" lon="6.8650980">
        <ele>1872.2</ele>
        <time>2017-07-29T07:28:47Z</time>
      </trkpt>
      <trkpt lat="44.9273660" lon="6.8651360">
        <ele>1873.6</ele>
        <time>2017-07-29T07:28:52Z</time>
      </trkpt>
      <trkpt lat="44.9272490" lon="6.8652160">
        <ele>1874.8</ele>
        <time>2017-07-29T07:28:56Z</time>
      </trkpt>
      <trkpt lat="44.9271740" lon="6.8652820">
        <ele>1875.4</ele>
        <time>2017-07-29T07:28:59Z</time>
      </trkpt>
      <trkpt lat="44.9271270" lon="6.8653260">
        <ele>1875.8</ele>
        <time>2017-07-29T07:29:01Z</time>
      </trkpt>
      <trkpt lat="44.9270600" lon="6.8653850">
        <ele>1876.6</ele>
        <time>2017-07-29T07:29:04Z</time>
      </trkpt>
      <trkpt lat="44.9270360" lon="6.8654040">
        <ele>1877.0</ele>
        <time>2017-07-29T07:29:05Z</time>
      </trkpt>
      <trkpt lat="44.9269820" lon="6.8654510">
        <ele>1878.0</ele>
        <time>2017-07-29T07:29:07Z</time>
      </trkpt>
      <trkpt lat="44.9269000" lon="6.8655350">
        <ele>1879.2</ele>
        <time>2017-07-29T07:29:11Z</time>
      </trkpt>
      <trkpt lat="44.9268450" lon="6.8656120">
        <ele>1880.2</ele>
        <time>2017-07-29T07:29:15Z</time>
      </trkpt>
      <trkpt lat="44.9268300" lon="6.8656250">
        <ele>1880.6</ele>
        <time>2017-07-29T07:29:16Z</time>
      </trkpt>
      <trkpt lat="44.9267790" lon="6.8656560">
        <ele>1881.6</ele>
        <time>2017-07-29T07:29:19Z</time>
      </trkpt>
      <trkpt lat="44.9267170" lon="6.8656770">
        <ele>1882.6</ele>
        <time>2017-07-29T07:29:22Z</time>
      </trkpt>
      <trkpt lat="44.9266940" lon="6.8656850">
        <ele>1883.0</ele>
        <time>2017-07-29T07:29:23Z</time>
      </trkpt>
      <trkpt lat="44.9266250" lon="6.8657080">
        <ele>1884.0</ele>
        <time>2017-07-29T07:29:26Z</time>
      </trkpt>
      <trkpt lat="44.9265350" lon="6.8657340">
        <ele>1885.2</ele>
        <time>2017-07-29T07:29:30Z</time>
      </trkpt>
      <trkpt lat="44.9264580" lon="6.8657470">
        <ele>1886.4</ele>
        <time>2017-07-29T07:29:33Z</time>
      </trkpt>
      <trkpt lat="44.9263890" lon="6.8657480">
        <ele>1887.4</ele>
        <time>2017-07-29T07:29:36Z</time>
      </trkpt>
      <trkpt lat="44.9263440" lon="6.8657440">
        <ele>1887.8</ele>
        <time>2017-07-29T07:29:38Z</time>
      </trkpt>
      <trkpt lat="44.9262920" lon="6.8657390">
        <ele>1888.4</ele>
        <time>2017-07-29T07:29:41Z</time>
      </trkpt>
      <trkpt lat="44.9262210" lon="6.8657100">
        <ele>1889.6</ele>
        <time>2017-07-29T07:29:45Z</time>
      </trkpt>
      <trkpt lat="44.9262050" lon="6.8656960">
        <ele>1889.6</ele>
        <time>2017-07-29T07:29:46Z</time>
      </trkpt>
      <trkpt lat="44.9261420" lon="6.8656360">
        <ele>1890.8</ele>
        <time>2017-07-29T07:29:50Z</time>
      </trkpt>
      <trkpt lat="44.9261320" lon="6.8655910">
        <ele>1891.0</ele>
        <time>2017-07-29T07:29:52Z</time>
      </trkpt>
      <trkpt lat="44.9261260" lon="6.8655480">
        <ele>1891.6</ele>
        <time>2017-07-29T07:29:54Z</time>
      </trkpt>
      <trkpt lat="44.9261270" lon="6.8655270">
        <ele>1892.2</ele>
        <time>2017-07-29T07:29:55Z</time>
      </trkpt>
      <trkpt lat="44.9261370" lon="6.8655070">
        <ele>1892.4</ele>
        <time>2017-07-29T07:29:56Z</time>
      </trkpt>
      <trkpt lat="44.9261660" lon="6.8654880">
        <ele>1893.2</ele>
        <time>2017-07-29T07:29:58Z</time>
      </trkpt>
      <trkpt lat="44.9262010" lon="6.8654940">
        <ele>1893.8</ele>
        <time>2017-07-29T07:30:00Z</time>
      </trkpt>
      <trkpt lat="44.9262330" lon="6.8654910">
        <ele>1894.2</ele>
        <time>2017-07-29T07:30:02Z</time>
      </trkpt>
      <trkpt lat="44.9262630" lon="6.8654830">
        <ele>1894.8</ele>
        <time>2017-07-29T07:30:04Z</time>
      </trkpt>
      <trkpt lat="44.9262990" lon="6.8654770">
        <ele>1895.4</ele>
        <time>2017-07-29T07:30:06Z</time>
      </trkpt>
      <trkpt lat="44.9263690" lon="6.8654440">
        <ele>1896.4</ele>
        <time>2017-07-29T07:30:10Z</time>
      </trkpt>
      <trkpt lat="44.9263870" lon="6.8654360">
        <ele>1896.6</ele>
        <time>2017-07-29T07:30:11Z</time>
      </trkpt>
      <trkpt lat="44.9264510" lon="6.8653990">
        <ele>1897.4</ele>
        <time>2017-07-29T07:30:14Z</time>
      </trkpt>
      <trkpt lat="44.9265240" lon="6.8653140">
        <ele>1898.2</ele>
        <time>2017-07-29T07:30:18Z</time>
      </trkpt>
      <trkpt lat="44.9265360" lon="6.8652960">
        <ele>1898.8</ele>
        <time>2017-07-29T07:30:19Z</time>
      </trkpt>
      <trkpt lat="44.9266040" lon="6.8652110">
        <ele>1899.6</ele>
        <time>2017-07-29T07:30:23Z</time>
      </trkpt>
      <trkpt lat="44.9266230" lon="6.8651840">
        <ele>1899.8</ele>
        <time>2017-07-29T07:30:24Z</time>
      </trkpt>
      <trkpt lat="44.9267050" lon="6.8650430">
        <ele>1901.0</ele>
        <time>2017-07-29T07:30:29Z</time>
      </trkpt>
      <trkpt lat="44.9267710" lon="6.8648900">
        <ele>1902.0</ele>
        <time>2017-07-29T07:30:34Z</time>
      </trkpt>
      <trkpt lat="44.9268000" lon="6.8648220">
        <ele>1902.6</ele>
        <time>2017-07-29T07:30:36Z</time>
      </trkpt>
      <trkpt lat="44.9268450" lon="6.8647220">
        <ele>1903.2</ele>
        <time>2017-07-29T07:30:39Z</time>
      </trkpt>
      <trkpt lat="44.9268890" lon="6.8646080">
        <ele>1904.6</ele>
        <time>2017-07-29T07:30:43Z</time>
      </trkpt>
      <trkpt lat="44.9269320" lon="6.8645060">
        <ele>1905.8</ele>
        <time>2017-07-29T07:30:47Z</time>
      </trkpt>
      <trkpt lat="44.9269530" lon="6.8644520">
        <ele>1906.4</ele>
        <time>2017-07-29T07:30:49Z</time>
      </trkpt>
      <trkpt lat="44.9269930" lon="6.8643700">
        <ele>1907.0</ele>
        <time>2017-07-29T07:30:52Z</time>
      </trkpt>
      <trkpt lat="44.9270460" lon="6.8643010">
        <ele>1907.8</ele>
        <time>2017-07-29T07:30:55Z</time>
      </trkpt>
      <trkpt lat="44.9270680" lon="6.8642870">
        <ele>1908.0</ele>
        <time>2017-07-29T07:30:56Z</time>
      </trkpt>
      <trkpt lat="44.9271470" lon="6.8642590">
        <ele>1909.0</ele>
        <time>2017-07-29T07:31:00Z</time>
      </trkpt>
      <trkpt lat="44.9271680" lon="6.8642570">
        <ele>1909.2</ele>
        <time>2017-07-29T07:31:01Z</time>
      </trkpt>
      <trkpt lat="44.9272780" lon="6.8642700">
        <ele>1909.8</ele>
        <time>2017-07-29T07:31:05Z</time>
      </trkpt>
      <trkpt lat="44.9273360" lon="6.8642760">
        <ele>1910.6</ele>
        <time>2017-07-29T07:31:07Z</time>
      </trkpt>
      <trkpt lat="44.9274120" lon="6.8642870">
        <ele>1911.0</ele>
        <time>2017-07-29T07:31:10Z</time>
      </trkpt>
      <trkpt lat="44.9274620" lon="6.8642780">
        <ele>1911.6</ele>
        <time>2017-07-29T07:31:12Z</time>
      </trkpt>
      <trkpt lat="44.9275650" lon="6.8642460">
        <ele>1912.8</ele>
        <time>2017-07-29T07:31:16Z</time>
      </trkpt>
      <trkpt lat="44.9276090" lon="6.8642340">
        <ele>1913.2</ele>
        <time>2017-07-29T07:31:18Z</time>
      </trkpt>
      <trkpt lat="44.9276750" lon="6.8642570">
        <ele>1913.8</ele>
        <time>2017-07-29T07:31:21Z</time>
      </trkpt>
      <trkpt lat="44.9277430" lon="6.8642840">
        <ele>1914.2</ele>
        <time>2017-07-29T07:31:24Z</time>
      </trkpt>
      <trkpt lat="44.9278130" lon="6.8642930">
        <ele>1914.8</ele>
        <time>2017-07-29T07:31:27Z</time>
      </trkpt>
      <trkpt lat="44.9279090" lon="6.8642960">
        <ele>1916.0</ele>
        <time>2017-07-29T07:31:31Z</time>
      </trkpt>
      <trkpt lat="44.9280340" lon="6.8642880">
        <ele>1917.0</ele>
        <time>2017-07-29T07:31:36Z</time>
      </trkpt>
      <trkpt lat="44.9280610" lon="6.8642800">
        <ele>1917.2</ele>
        <time>2017-07-29T07:31:37Z</time>
      </trkpt>
      <trkpt lat="44.9281610" lon="6.8642780">
        <ele>1918.2</ele>
        <time>2017-07-29T07:31:41Z</time>
      </trkpt>
      <trkpt lat="44.9282100" lon="6.8642740">
        <ele>1918.6</ele>
        <time>2017-07-29T07:31:43Z</time>
      </trkpt>
      <trkpt lat="44.9282890" lon="6.8642580">
        <ele>1919.4</ele>
        <time>2017-07-29T07:31:46Z</time>
      </trkpt>
      <trkpt lat="44.9283630" lon="6.8642590">
        <ele>1920.2</ele>
        <time>2017-07-29T07:31:49Z</time>
      </trkpt>
      <trkpt lat="44.9283860" lon="6.8642530">
        <ele>1920.4</ele>
        <time>2017-07-29T07:31:50Z</time>
      </trkpt>
      <trkpt lat="44.9284520" lon="6.8642470">
        <ele>1921.4</ele>
        <time>2017-07-29T07:31:53Z</time>
      </trkpt>
      <trkpt lat="44.9284960" lon="6.8642370">
        <ele>1922.2</ele>
        <time>2017-07-29T07:31:55Z</time>
      </trkpt>
      <trkpt lat="44.9285180" lon="6.8642250">
        <ele>1922.6</ele>
        <time>2017-07-29T07:31:56Z</time>
      </trkpt>
      <trkpt lat="44.9286020" lon="6.8641580">
        <ele>1923.8</ele>
        <time>2017-07-29T07:32:00Z</time>
      </trkpt>
      <trkpt lat="44.9286240" lon="6.8641420">
        <ele>1924.0</ele>
        <time>2017-07-29T07:32:01Z</time>
      </trkpt>
      <trkpt lat="44.9286880" lon="6.8640830">
        <ele>1924.8</ele>
        <time>2017-07-29T07:32:04Z</time>
      </trkpt>
      <trkpt lat="44.9287540" lon="6.8640230">
        <ele>1925.4</ele>
        <time>2017-07-29T07:32:07Z</time>
      </trkpt>
      <trkpt lat="44.9287740" lon="6.8640090">
        <ele>1925.8</ele>
        <time>2017-07-29T07:32:08Z</time>
      </trkpt>
      <trkpt lat="44.9288460" lon="6.8639460">
        <ele>1927.0</ele>
        <time>2017-07-29T07:32:12Z</time>
      </trkpt>
      <trkpt lat="44.9288650" lon="6.8639270">
        <ele>1927.4</ele>
        <time>2017-07-29T07:32:13Z</time>
      </trkpt>
      <trkpt lat="44.9289230" lon="6.8638560">
        <ele>1928.4</ele>
        <time>2017-07-29T07:32:16Z</time>
      </trkpt>
      <trkpt lat="44.9289770" lon="6.8637760">
        <ele>1929.6</ele>
        <time>2017-07-29T07:32:19Z</time>
      </trkpt>
      <trkpt lat="44.9289950" lon="6.8637510">
        <ele>1929.8</ele>
        <time>2017-07-29T07:32:20Z</time>
      </trkpt>
      <trkpt lat="44.9290400" lon="6.8636790">
        <ele>1930.6</ele>
        <time>2017-07-29T07:32:23Z</time>
      </trkpt>
      <trkpt lat="44.9290900" lon="6.8635770">
        <ele>1931.8</ele>
        <time>2017-07-29T07:32:27Z</time>
      </trkpt>
      <trkpt lat="44.9291390" lon="6.8634600">
        <ele>1933.0</ele>
        <time>2017-07-29T07:32:31Z</time>
      </trkpt>
      <trkpt lat="44.9291710" lon="6.8634060">
        <ele>1933.6</ele>
        <time>2017-07-29T07:32:33Z</time>
      </trkpt>
      <trkpt lat="44.9291850" lon="6.8633790">
        <ele>1934.0</ele>
        <time>2017-07-29T07:32:34Z</time>
      </trkpt>
      <trkpt lat="44.9292640" lon="6.8632360">
        <ele>1935.0</ele>
        <time>2017-07-29T07:32:39Z</time>
      </trkpt>
      <trkpt lat="44.9292920" lon="6.8631720">
        <ele>1935.6</ele>
        <time>2017-07-29T07:32:41Z</time>
      </trkpt>
      <trkpt lat="44.9293200" lon="6.8631040">
        <ele>1936.2</ele>
        <time>2017-07-29T07:32:43Z</time>
      </trkpt>
      <trkpt lat="44.9293630" lon="6.8629870">
        <ele>1937.4</ele>
        <time>2017-07-29T07:32:47Z</time>
      </trkpt>
      <trkpt lat="44.9293770" lon="6.8629590">
        <ele>1937.6</ele>
        <time>2017-07-29T07:32:48Z</time>
      </trkpt>
      <trkpt lat="44.9294420" lon="6.8628490">
        <ele>1938.4</ele>
        <time>2017-07-29T07:32:52Z</time>
      </trkpt>
      <trkpt lat="44.9294810" lon="6.8628010">
        <ele>1939.2</ele>
        <time>2017-07-29T07:32:54Z</time>
      </trkpt>
      <trkpt lat="44.9295080" lon="6.8627360">
        <ele>1939.6</ele>
        <time>2017-07-29T07:32:56Z</time>
      </trkpt>
      <trkpt lat="44.9295540" lon="6.8626270">
        <ele>1940.6</ele>
        <time>2017-07-29T07:33:00Z</time>
      </trkpt>
      <trkpt lat="44.9295650" lon="6.8626060">
        <ele>1940.8</ele>
        <time>2017-07-29T07:33:01Z</time>
      </trkpt>
      <trkpt lat="44.9296210" lon="6.8624870">
        <ele>1941.6</ele>
        <time>2017-07-29T07:33:06Z</time>
      </trkpt>
      <trkpt lat="44.9296340" lon="6.8624610">
        <ele>1942.2</ele>
        <time>2017-07-29T07:33:07Z</time>
      </trkpt>
      <trkpt lat="44.9297020" lon="6.8623220">
        <ele>1943.2</ele>
        <time>2017-07-29T07:33:12Z</time>
      </trkpt>
      <trkpt lat="44.9297170" lon="6.8622960">
        <ele>1943.4</ele>
        <time>2017-07-29T07:33:13Z</time>
      </trkpt>
      <trkpt lat="44.9297800" lon="6.8622160">
        <ele>1944.4</ele>
        <time>2017-07-29T07:33:17Z</time>
      </trkpt>
      <trkpt lat="44.9298140" lon="6.8621750">
        <ele>1944.6</ele>
        <time>2017-07-29T07:33:19Z</time>
      </trkpt>
      <trkpt lat="44.9298930" lon="6.8620900">
        <ele>1945.4</ele>
        <time>2017-07-29T07:33:23Z</time>
      </trkpt>
      <trkpt lat="44.9299490" lon="6.8620350">
        <ele>1946.2</ele>
        <time>2017-07-29T07:33:26Z</time>
      </trkpt>
      <trkpt lat="44.9299700" lon="6.8620150">
        <ele>1946.4</ele>
        <time>2017-07-29T07:33:27Z</time>
      </trkpt>
      <trkpt lat="44.9300710" lon="6.8619230">
        <ele>1947.6</ele>
        <time>2017-07-29T07:33:32Z</time>
      </trkpt>
      <trkpt lat="44.9301110" lon="6.8618870">
        <ele>1948.0</ele>
        <time>2017-07-29T07:33:34Z</time>
      </trkpt>
      <trkpt lat="44.9301630" lon="6.8618250">
        <ele>1948.6</ele>
        <time>2017-07-29T07:33:37Z</time>
      </trkpt>
      <trkpt lat="44.9302410" lon="6.8617440">
        <ele>1949.4</ele>
        <time>2017-07-29T07:33:41Z</time>
      </trkpt>
      <trkpt lat="44.9302620" lon="6.8617200">
        <ele>1949.8</ele>
        <time>2017-07-29T07:33:42Z</time>
      </trkpt>
      <trkpt lat="44.9303620" lon="6.8615900">
        <ele>1951.0</ele>
        <time>2017-07-29T07:33:47Z</time>
      </trkpt>
      <trkpt lat="44.9304430" lon="6.8614770">
        <ele>1952.0</ele>
        <time>2017-07-29T07:33:52Z</time>
      </trkpt>
      <trkpt lat="44.9304970" lon="6.8614070">
        <ele>1952.8</ele>
        <time>2017-07-29T07:33:55Z</time>
      </trkpt>
      <trkpt lat="44.9305120" lon="6.8613850">
        <ele>1953.0</ele>
        <time>2017-07-29T07:33:56Z</time>
      </trkpt>
      <trkpt lat="44.9305920" lon="6.8612870">
        <ele>1954.2</ele>
        <time>2017-07-29T07:34:01Z</time>
      </trkpt>
      <trkpt lat="44.9306090" lon="6.8612650">
        <ele>1954.4</ele>
        <time>2017-07-29T07:34:02Z</time>
      </trkpt>
      <trkpt lat="44.9306720" lon="6.8611780">
        <ele>1955.4</ele>
        <time>2017-07-29T07:34:06Z</time>
      </trkpt>
      <trkpt lat="44.9307050" lon="6.8611240">
        <ele>1956.0</ele>
        <time>2017-07-29T07:34:08Z</time>
      </trkpt>
      <trkpt lat="44.9307580" lon="6.8610400">
        <ele>1956.4</ele>
        <time>2017-07-29T07:34:11Z</time>
      </trkpt>
      <trkpt lat="44.9308170" lon="6.8609530">
        <ele>1957.2</ele>
        <time>2017-07-29T07:34:14Z</time>
      </trkpt>
      <trkpt lat="44.9308560" lon="6.8608940">
        <ele>1957.6</ele>
        <time>2017-07-29T07:34:16Z</time>
      </trkpt>
      <trkpt lat="44.9309390" lon="6.8607490">
        <ele>1959.0</ele>
        <time>2017-07-29T07:34:21Z</time>
      </trkpt>
      <trkpt lat="44.9309540" lon="6.8607160">
        <ele>1959.2</ele>
        <time>2017-07-29T07:34:22Z</time>
      </trkpt>
      <trkpt lat="44.9310040" lon="6.8605930">
        <ele>1960.2</ele>
        <time>2017-07-29T07:34:26Z</time>
      </trkpt>
      <trkpt lat="44.9310400" lon="6.8604990">
        <ele>1960.8</ele>
        <time>2017-07-29T07:34:29Z</time>
      </trkpt>
      <trkpt lat="44.9310510" lon="6.8604660">
        <ele>1961.2</ele>
        <time>2017-07-29T07:34:30Z</time>
      </trkpt>
      <trkpt lat="44.9310920" lon="6.8603310">
        <ele>1962.4</ele>
        <time>2017-07-29T07:34:34Z</time>
      </trkpt>
      <trkpt lat="44.9311080" lon="6.8602370">
        <ele>1963.0</ele>
        <time>2017-07-29T07:34:37Z</time>
      </trkpt>
      <trkpt lat="44.9311180" lon="6.8601690">
        <ele>1963.6</ele>
        <time>2017-07-29T07:34:39Z</time>
      </trkpt>
      <trkpt lat="44.9311070" lon="6.8601180">
        <ele>1964.2</ele>
        <time>2017-07-29T07:34:41Z</time>
      </trkpt>
      <trkpt lat="44.9310940" lon="6.8601180">
        <ele>1964.2</ele>
        <time>2017-07-29T07:34:42Z</time>
      </trkpt>
      <trkpt lat="44.9310800" lon="6.8601320">
        <ele>1964.6</ele>
        <time>2017-07-29T07:34:43Z</time>
      </trkpt>
      <trkpt lat="44.9310430" lon="6.8602090">
        <ele>1965.2</ele>
        <time>2017-07-29T07:34:46Z</time>
      </trkpt>
      <trkpt lat="44.9310300" lon="6.8602400">
        <ele>1965.4</ele>
        <time>2017-07-29T07:34:47Z</time>
      </trkpt>
      <trkpt lat="44.9310120" lon="6.8603140">
        <ele>1966.0</ele>
        <time>2017-07-29T07:34:49Z</time>
      </trkpt>
      <trkpt lat="44.9309870" lon="6.8604240">
        <ele>1966.4</ele>
        <time>2017-07-29T07:34:52Z</time>
      </trkpt>
      <trkpt lat="44.9309070" lon="6.8605430">
        <ele>1967.0</ele>
        <time>2017-07-29T07:34:56Z</time>
      </trkpt>
      <trkpt lat="44.9308580" lon="6.8605820">
        <ele>1967.4</ele>
        <time>2017-07-29T07:34:58Z</time>
      </trkpt>
      <trkpt lat="44.9307650" lon="6.8606360">
        <ele>1968.2</ele>
        <time>2017-07-29T07:35:02Z</time>
      </trkpt>
      <trkpt lat="44.9307200" lon="6.8606640">
        <ele>1968.4</ele>
        <time>2017-07-29T07:35:04Z</time>
      </trkpt>
      <trkpt lat="44.9306530" lon="6.8607140">
        <ele>1969.4</ele>
        <time>2017-07-29T07:35:07Z</time>
      </trkpt>
      <trkpt lat="44.9305450" lon="6.8607950">
        <ele>1970.4</ele>
        <time>2017-07-29T07:35:12Z</time>
      </trkpt>
      <trkpt lat="44.9305250" lon="6.8608110">
        <ele>1970.6</ele>
        <time>2017-07-29T07:35:13Z</time>
      </trkpt>
      <trkpt lat="44.9304540" lon="6.8608840">
        <ele>1971.6</ele>
        <time>2017-07-29T07:35:17Z</time>
      </trkpt>
      <trkpt lat="44.9304160" lon="6.8609160">
        <ele>1971.8</ele>
        <time>2017-07-29T07:35:19Z</time>
      </trkpt>
      <trkpt lat="44.9303520" lon="6.8609650">
        <ele>1972.6</ele>
        <time>2017-07-29T07:35:22Z</time>
      </trkpt>
      <trkpt lat="44.9302870" lon="6.8610150">
        <ele>1973.2</ele>
        <time>2017-07-29T07:35:25Z</time>
      </trkpt>
      <trkpt lat="44.9302500" lon="6.8610580">
        <ele>1973.8</ele>
        <time>2017-07-29T07:35:27Z</time>
      </trkpt>
      <trkpt lat="44.9301590" lon="6.8611490">
        <ele>1974.8</ele>
        <time>2017-07-29T07:35:32Z</time>
      </trkpt>
      <trkpt lat="44.9300630" lon="6.8612040">
        <ele>1976.2</ele>
        <time>2017-07-29T07:35:37Z</time>
      </trkpt>
      <trkpt lat="44.9299150" lon="6.8612590">
        <ele>1977.2</ele>
        <time>2017-07-29T07:35:43Z</time>
      </trkpt>
      <trkpt lat="44.9298100" lon="6.8612980">
        <ele>1978.4</ele>
        <time>2017-07-29T07:35:48Z</time>
      </trkpt>
      <trkpt lat="44.9297920" lon="6.8613070">
        <ele>1978.6</ele>
        <time>2017-07-29T07:35:49Z</time>
      </trkpt>
      <trkpt lat="44.9296920" lon="6.8613630">
        <ele>1979.4</ele>
        <time>2017-07-29T07:35:53Z</time>
      </trkpt>
      <trkpt lat="44.9296460" lon="6.8613900">
        <ele>1980.0</ele>
        <time>2017-07-29T07:35:55Z</time>
      </trkpt>
      <trkpt lat="44.9295730" lon="6.8614190">
        <ele>1980.6</ele>
        <time>2017-07-29T07:35:58Z</time>
      </trkpt>
      <trkpt lat="44.9294670" lon="6.8614860">
        <ele>1981.4</ele>
        <time>2017-07-29T07:36:02Z</time>
      </trkpt>
      <trkpt lat="44.9294430" lon="6.8615070">
        <ele>1981.8</ele>
        <time>2017-07-29T07:36:03Z</time>
      </trkpt>
      <trkpt lat="44.9293640" lon="6.8615870">
        <ele>1982.8</ele>
        <time>2017-07-29T07:36:07Z</time>
      </trkpt>
      <trkpt lat="44.9293230" lon="6.8616210">
        <ele>1983.4</ele>
        <time>2017-07-29T07:36:09Z</time>
      </trkpt>
      <trkpt lat="44.9292790" lon="6.8616470">
        <ele>1984.0</ele>
        <time>2017-07-29T07:36:11Z</time>
      </trkpt>
      <trkpt lat="44.9291910" lon="6.8617040">
        <ele>1985.2</ele>
        <time>2017-07-29T07:36:15Z</time>
      </trkpt>
      <trkpt lat="44.9291640" lon="6.8617180">
        <ele>1985.4</ele>
        <time>2017-07-29T07:36:16Z</time>
      </trkpt>
      <trkpt lat="44.9290930" lon="6.8617520">
        <ele>1986.6</ele>
        <time>2017-07-29T07:36:19Z</time>
      </trkpt>
      <trkpt lat="44.9289980" lon="6.8618210">
        <ele>1987.4</ele>
        <time>2017-07-29T07:36:23Z</time>
      </trkpt>
      <trkpt lat="44.9289810" lon="6.8618440">
        <ele>1987.6</ele>
        <time>2017-07-29T07:36:24Z</time>
      </trkpt>
      <trkpt lat="44.9289050" lon="6.8619250">
        <ele>1988.8</ele>
        <time>2017-07-29T07:36:28Z</time>
      </trkpt>
      <trkpt lat="44.9288570" lon="6.8619510">
        <ele>1989.6</ele>
        <time>2017-07-29T07:36:30Z</time>
      </trkpt>
      <trkpt lat="44.9288330" lon="6.8619670">
        <ele>1990.0</ele>
        <time>2017-07-29T07:36:31Z</time>
      </trkpt>
      <trkpt lat="44.9287280" lon="6.8620750">
        <ele>1991.0</ele>
        <time>2017-07-29T07:36:36Z</time>
      </trkpt>
      <trkpt lat="44.9286390" lon="6.8621720">
        <ele>1992.0</ele>
        <time>2017-07-29T07:36:41Z</time>
      </trkpt>
      <trkpt lat="44.9286220" lon="6.8621940">
        <ele>1992.2</ele>
        <time>2017-07-29T07:36:42Z</time>
      </trkpt>
      <trkpt lat="44.9285690" lon="6.8622550">
        <ele>1993.4</ele>
        <time>2017-07-29T07:36:45Z</time>
      </trkpt>
      <trkpt lat="44.9284890" lon="6.8623240">
        <ele>1994.2</ele>
        <time>2017-07-29T07:36:49Z</time>
      </trkpt>
      <trkpt lat="44.9284690" lon="6.8623520">
        <ele>1994.6</ele>
        <time>2017-07-29T07:36:50Z</time>
      </trkpt>
      <trkpt lat="44.9283770" lon="6.8624250">
        <ele>1995.8</ele>
        <time>2017-07-29T07:36:54Z</time>
      </trkpt>
      <trkpt lat="44.9283550" lon="6.8624470">
        <ele>1996.0</ele>
        <time>2017-07-29T07:36:55Z</time>
      </trkpt>
      <trkpt lat="44.9282700" lon="6.8624990">
        <ele>1996.8</ele>
        <time>2017-07-29T07:36:59Z</time>
      </trkpt>
      <trkpt lat="44.9282250" lon="6.8625060">
        <ele>1997.2</ele>
        <time>2017-07-29T07:37:01Z</time>
      </trkpt>
      <trkpt lat="44.9281500" lon="6.8625060">
        <ele>1997.8</ele>
        <time>2017-07-29T07:37:04Z</time>
      </trkpt>
      <trkpt lat="44.9281220" lon="6.8625010">
        <ele>1998.0</ele>
        <time>2017-07-29T07:37:05Z</time>
      </trkpt>
      <trkpt lat="44.9280740" lon="6.8624930">
        <ele>1998.4</ele>
        <time>2017-07-29T07:37:07Z</time>
      </trkpt>
      <trkpt lat="44.9280050" lon="6.8624880">
        <ele>1998.8</ele>
        <time>2017-07-29T07:37:10Z</time>
      </trkpt>
      <trkpt lat="44.9279490" lon="6.8624500">
        <ele>1999.4</ele>
        <time>2017-07-29T07:37:13Z</time>
      </trkpt>
      <trkpt lat="44.9278840" lon="6.8623610">
        <ele>2000.0</ele>
        <time>2017-07-29T07:37:17Z</time>
      </trkpt>
      <trkpt lat="44.9278470" lon="6.8623190">
        <ele>2000.4</ele>
        <time>2017-07-29T07:37:19Z</time>
      </trkpt>
      <trkpt lat="44.9276960" lon="6.8622560">
        <ele>2001.0</ele>
        <time>2017-07-29T07:37:25Z</time>
      </trkpt>
      <trkpt lat="44.9276700" lon="6.8622500">
        <ele>2001.2</ele>
        <time>2017-07-29T07:37:26Z</time>
      </trkpt>
      <trkpt lat="44.9275550" lon="6.8622150">
        <ele>2002.4</ele>
        <time>2017-07-29T07:37:31Z</time>
      </trkpt>
      <trkpt lat="44.9275330" lon="6.8622010">
        <ele>2002.6</ele>
        <time>2017-07-29T07:37:32Z</time>
      </trkpt>
      <trkpt lat="44.9274340" lon="6.8621400">
        <ele>2003.6</ele>
        <time>2017-07-29T07:37:37Z</time>
      </trkpt>
      <trkpt lat="44.9273800" lon="6.8621250">
        <ele>2004.2</ele>
        <time>2017-07-29T07:37:40Z</time>
      </trkpt>
      <trkpt lat="44.9273410" lon="6.8621280">
        <ele>2004.6</ele>
        <time>2017-07-29T07:37:42Z</time>
      </trkpt>
      <trkpt lat="44.9272420" lon="6.8621490">
        <ele>2005.8</ele>
        <time>2017-07-29T07:37:46Z</time>
      </trkpt>
      <trkpt lat="44.9271730" lon="6.8621630">
        <ele>2006.8</ele>
        <time>2017-07-29T07:37:49Z</time>
      </trkpt>
      <trkpt lat="44.9270930" lon="6.8621910">
        <ele>2008.0</ele>
        <time>2017-07-29T07:37:52Z</time>
      </trkpt>
      <trkpt lat="44.9270690" lon="6.8621960">
        <ele>2008.2</ele>
        <time>2017-07-29T07:37:53Z</time>
      </trkpt>
      <trkpt lat="44.9270220" lon="6.8622070">
        <ele>2009.2</ele>
        <time>2017-07-29T07:37:55Z</time>
      </trkpt>
      <trkpt lat="44.9269320" lon="6.8621960">
        <ele>2010.4</ele>
        <time>2017-07-29T07:37:59Z</time>
      </trkpt>
      <trkpt lat="44.9269080" lon="6.8621870">
        <ele>2010.6</ele>
        <time>2017-07-29T07:38:00Z</time>
      </trkpt>
      <trkpt lat="44.9268190" lon="6.8621580">
        <ele>2011.6</ele>
        <time>2017-07-29T07:38:04Z</time>
      </trkpt>
      <trkpt lat="44.9267950" lon="6.8621580">
        <ele>2011.8</ele>
        <time>2017-07-29T07:38:05Z</time>
      </trkpt>
      <trkpt lat="44.9267680" lon="6.8621670">
        <ele>2012.0</ele>
        <time>2017-07-29T07:38:06Z</time>
      </trkpt>
      <trkpt lat="44.9266930" lon="6.8621840">
        <ele>2012.6</ele>
        <time>2017-07-29T07:38:09Z</time>
      </trkpt>
      <trkpt lat="44.9266170" lon="6.8621820">
        <ele>2013.8</ele>
        <time>2017-07-29T07:38:12Z</time>
      </trkpt>
      <trkpt lat="44.9265260" lon="6.8621570">
        <ele>2015.0</ele>
        <time>2017-07-29T07:38:17Z</time>
      </trkpt>
      <trkpt lat="44.9264860" lon="6.8621390">
        <ele>2015.8</ele>
        <time>2017-07-29T07:38:19Z</time>
      </trkpt>
      <trkpt lat="44.9264510" lon="6.8621160">
        <ele>2016.2</ele>
        <time>2017-07-29T07:38:21Z</time>
      </trkpt>
      <trkpt lat="44.9263720" lon="6.8620730">
        <ele>2016.8</ele>
        <time>2017-07-29T07:38:25Z</time>
      </trkpt>
      <trkpt lat="44.9263030" lon="6.8620860">
        <ele>2017.4</ele>
        <time>2017-07-29T07:38:27Z</time>
      </trkpt>
      <trkpt lat="44.9262170" lon="6.8621320">
        <ele>2017.6</ele>
        <time>2017-07-29T07:38:30Z</time>
      </trkpt>
      <trkpt lat="44.9261430" lon="6.8621650">
        <ele>2018.6</ele>
        <time>2017-07-29T07:38:33Z</time>
      </trkpt>
      <trkpt lat="44.9260630" lon="6.8621960">
        <ele>2019.4</ele>
        <time>2017-07-29T07:38:36Z</time>
      </trkpt>
      <trkpt lat="44.9260390" lon="6.8622130">
        <ele>2019.6</ele>
        <time>2017-07-29T07:38:37Z</time>
      </trkpt>
      <trkpt lat="44.9259290" lon="6.8623130">
        <ele>2020.8</ele>
        <time>2017-07-29T07:38:42Z</time>
      </trkpt>
      <trkpt lat="44.9259090" lon="6.8623240">
        <ele>2021.2</ele>
        <time>2017-07-29T07:38:43Z</time>
      </trkpt>
      <trkpt lat="44.9258570" lon="6.8623320">
        <ele>2021.8</ele>
        <time>2017-07-29T07:38:45Z</time>
      </trkpt>
      <trkpt lat="44.9258040" lon="6.8623230">
        <ele>2022.4</ele>
        <time>2017-07-29T07:38:47Z</time>
      </trkpt>
      <trkpt lat="44.9257820" lon="6.8623170">
        <ele>2022.6</ele>
        <time>2017-07-29T07:38:48Z</time>
      </trkpt>
      <trkpt lat="44.9257620" lon="6.8623160">
        <ele>2022.8</ele>
        <time>2017-07-29T07:38:49Z</time>
      </trkpt>
      <trkpt lat="44.9256810" lon="6.8623370">
        <ele>2024.0</ele>
        <time>2017-07-29T07:38:53Z</time>
      </trkpt>
      <trkpt lat="44.9256610" lon="6.8623460">
        <ele>2024.4</ele>
        <time>2017-07-29T07:38:54Z</time>
      </trkpt>
      <trkpt lat="44.9255870" lon="6.8623750">
        <ele>2025.2</ele>
        <time>2017-07-29T07:38:57Z</time>
      </trkpt>
      <trkpt lat="44.9254710" lon="6.8623820">
        <ele>2026.2</ele>
        <time>2017-07-29T07:39:01Z</time>
      </trkpt>
      <trkpt lat="44.9254360" lon="6.8623900">
        <ele>2026.4</ele>
        <time>2017-07-29T07:39:02Z</time>
      </trkpt>
      <trkpt lat="44.9252840" lon="6.8624380">
        <ele>2027.4</ele>
        <time>2017-07-29T07:39:07Z</time>
      </trkpt>
      <trkpt lat="44.9252550" lon="6.8624580">
        <ele>2027.6</ele>
        <time>2017-07-29T07:39:08Z</time>
      </trkpt>
      <trkpt lat="44.9251770" lon="6.8624900">
        <ele>2028.0</ele>
        <time>2017-07-29T07:39:11Z</time>
      </trkpt>
      <trkpt lat="44.9251070" lon="6.8625060">
        <ele>2028.8</ele>
        <time>2017-07-29T07:39:14Z</time>
      </trkpt>
      <trkpt lat="44.9250440" lon="6.8624770">
        <ele>2029.6</ele>
        <time>2017-07-29T07:39:17Z</time>
      </trkpt>
      <trkpt lat="44.9250060" lon="6.8624430">
        <ele>2030.2</ele>
        <time>2017-07-29T07:39:19Z</time>
      </trkpt>
      <trkpt lat="44.9249180" lon="6.8624310">
        <ele>2031.2</ele>
        <time>2017-07-29T07:39:23Z</time>
      </trkpt>
      <trkpt lat="44.9247820" lon="6.8624690">
        <ele>2032.4</ele>
        <time>2017-07-29T07:39:28Z</time>
      </trkpt>
      <trkpt lat="44.9247560" lon="6.8624680">
        <ele>2032.6</ele>
        <time>2017-07-29T07:39:29Z</time>
      </trkpt>
      <trkpt lat="44.9246880" lon="6.8624460">
        <ele>2033.4</ele>
        <time>2017-07-29T07:39:32Z</time>
      </trkpt>
      <trkpt lat="44.9246220" lon="6.8623880">
        <ele>2034.0</ele>
        <time>2017-07-29T07:39:35Z</time>
      </trkpt>
      <trkpt lat="44.9245600" lon="6.8623600">
        <ele>2034.6</ele>
        <time>2017-07-29T07:39:38Z</time>
      </trkpt>
      <trkpt lat="44.9244870" lon="6.8623320">
        <ele>2035.0</ele>
        <time>2017-07-29T07:39:41Z</time>
      </trkpt>
      <trkpt lat="44.9244170" lon="6.8623400">
        <ele>2036.0</ele>
        <time>2017-07-29T07:39:44Z</time>
      </trkpt>
      <trkpt lat="44.9243500" lon="6.8623730">
        <ele>2036.6</ele>
        <time>2017-07-29T07:39:47Z</time>
      </trkpt>
      <trkpt lat="44.9243060" lon="6.8624010">
        <ele>2037.2</ele>
        <time>2017-07-29T07:39:49Z</time>
      </trkpt>
      <trkpt lat="44.9242460" lon="6.8624420">
        <ele>2038.2</ele>
        <time>2017-07-29T07:39:52Z</time>
      </trkpt>
      <trkpt lat="44.9242240" lon="6.8624560">
        <ele>2038.4</ele>
        <time>2017-07-29T07:39:53Z</time>
      </trkpt>
      <trkpt lat="44.9241840" lon="6.8624870">
        <ele>2039.4</ele>
        <time>2017-07-29T07:39:55Z</time>
      </trkpt>
      <trkpt lat="44.9240770" lon="6.8625340">
        <ele>2040.6</ele>
        <time>2017-07-29T07:39:59Z</time>
      </trkpt>
      <trkpt lat="44.9240510" lon="6.8625390">
        <ele>2040.8</ele>
        <time>2017-07-29T07:40:00Z</time>
      </trkpt>
      <trkpt lat="44.9239270" lon="6.8625870">
        <ele>2041.8</ele>
        <time>2017-07-29T07:40:04Z</time>
      </trkpt>
      <trkpt lat="44.9238660" lon="6.8626080">
        <ele>2042.4</ele>
        <time>2017-07-29T07:40:06Z</time>
      </trkpt>
      <trkpt lat="44.9238020" lon="6.8626310">
        <ele>2042.8</ele>
        <time>2017-07-29T07:40:08Z</time>
      </trkpt>
      <trkpt lat="44.9236490" lon="6.8626590">
        <ele>2043.8</ele>
        <time>2017-07-29T07:40:13Z</time>
      </trkpt>
      <trkpt lat="44.9236180" lon="6.8626620">
        <ele>2044.0</ele>
        <time>2017-07-29T07:40:14Z</time>
      </trkpt>
      <trkpt lat="44.9234040" lon="6.8626750">
        <ele>2045.4</ele>
        <time>2017-07-29T07:40:20Z</time>
      </trkpt>
      <trkpt lat="44.9232710" lon="6.8626590">
        <ele>2046.6</ele>
        <time>2017-07-29T07:40:24Z</time>
      </trkpt>
      <trkpt lat="44.9231810" lon="6.8626460">
        <ele>2047.4</ele>
        <time>2017-07-29T07:40:27Z</time>
      </trkpt>
      <trkpt lat="44.9231540" lon="6.8626410">
        <ele>2047.6</ele>
        <time>2017-07-29T07:40:28Z</time>
      </trkpt>
      <trkpt lat="44.9230430" lon="6.8626180">
        <ele>2049.0</ele>
        <time>2017-07-29T07:40:32Z</time>
      </trkpt>
      <trkpt lat="44.9230170" lon="6.8626050">
        <ele>2049.2</ele>
        <time>2017-07-29T07:40:33Z</time>
      </trkpt>
      <trkpt lat="44.9229650" lon="6.8625430">
        <ele>2050.2</ele>
        <time>2017-07-29T07:40:36Z</time>
      </trkpt>
      <trkpt lat="44.9228960" lon="6.8624930">
        <ele>2051.0</ele>
        <time>2017-07-29T07:40:39Z</time>
      </trkpt>
      <trkpt lat="44.9228500" lon="6.8624630">
        <ele>2051.4</ele>
        <time>2017-07-29T07:40:41Z</time>
      </trkpt>
      <trkpt lat="44.9227600" lon="6.8624150">
        <ele>2052.6</ele>
        <time>2017-07-29T07:40:45Z</time>
      </trkpt>
      <trkpt lat="44.9227120" lon="6.8623970">
        <ele>2052.8</ele>
        <time>2017-07-29T07:40:47Z</time>
      </trkpt>
      <trkpt lat="44.9226050" lon="6.8624070">
        <ele>2053.6</ele>
        <time>2017-07-29T07:40:51Z</time>
      </trkpt>
      <trkpt lat="44.9225530" lon="6.8624380">
        <ele>2054.2</ele>
        <time>2017-07-29T07:40:53Z</time>
      </trkpt>
      <trkpt lat="44.9224990" lon="6.8624670">
        <ele>2054.6</ele>
        <time>2017-07-29T07:40:55Z</time>
      </trkpt>
      <trkpt lat="44.9223870" lon="6.8625010">
        <ele>2055.6</ele>
        <time>2017-07-29T07:40:59Z</time>
      </trkpt>
      <trkpt lat="44.9223520" lon="6.8624970">
        <ele>2055.8</ele>
        <time>2017-07-29T07:41:00Z</time>
      </trkpt>
      <trkpt lat="44.9221640" lon="6.8624630">
        <ele>2055.8</ele>
        <time>2017-07-29T07:41:05Z</time>
      </trkpt>
      <trkpt lat="44.9219340" lon="6.8625090">
        <ele>2054.6</ele>
        <time>2017-07-29T07:41:11Z</time>
      </trkpt>
      <trkpt lat="44.9218170" lon="6.8625230">
        <ele>2054.2</ele>
        <time>2017-07-29T07:41:14Z</time>
      </trkpt>
      <trkpt lat="44.9217670" lon="6.8624830">
        <ele>2054.4</ele>
        <time>2017-07-29T07:41:16Z</time>
      </trkpt>
      <trkpt lat="44.9217590" lon="6.8624560">
        <ele>2054.4</ele>
        <time>2017-07-29T07:41:17Z</time>
      </trkpt>
      <trkpt lat="44.9218200" lon="6.8624070">
        <ele>2055.0</ele>
        <time>2017-07-29T07:41:20Z</time>
      </trkpt>
      <trkpt lat="44.9219040" lon="6.8623980">
        <ele>2055.2</ele>
        <time>2017-07-29T07:41:23Z</time>
      </trkpt>
      <trkpt lat="44.9219590" lon="6.8623800">
        <ele>2055.8</ele>
        <time>2017-07-29T07:41:25Z</time>
      </trkpt>
      <trkpt lat="44.9219840" lon="6.8623680">
        <ele>2056.2</ele>
        <time>2017-07-29T07:41:26Z</time>
      </trkpt>
      <trkpt lat="44.9220580" lon="6.8623350">
        <ele>2057.0</ele>
        <time>2017-07-29T07:41:29Z</time>
      </trkpt>
      <trkpt lat="44.9221340" lon="6.8622970">
        <ele>2058.4</ele>
        <time>2017-07-29T07:41:32Z</time>
      </trkpt>
      <trkpt lat="44.9222370" lon="6.8622640">
        <ele>2059.6</ele>
        <time>2017-07-29T07:41:36Z</time>
      </trkpt>
      <trkpt lat="44.9223370" lon="6.8622390">
        <ele>2060.8</ele>
        <time>2017-07-29T07:41:40Z</time>
      </trkpt>
      <trkpt lat="44.9223590" lon="6.8622260">
        <ele>2061.2</ele>
        <time>2017-07-29T07:41:41Z</time>
      </trkpt>
      <trkpt lat="44.9224190" lon="6.8622050">
        <ele>2062.0</ele>
        <time>2017-07-29T07:41:44Z</time>
      </trkpt>
      <trkpt lat="44.9224680" lon="6.8621610">
        <ele>2063.4</ele>
        <time>2017-07-29T07:41:47Z</time>
      </trkpt>
      <trkpt lat="44.9225390" lon="6.8620930">
        <ele>2064.6</ele>
        <time>2017-07-29T07:41:51Z</time>
      </trkpt>
      <trkpt lat="44.9225890" lon="6.8620530">
        <ele>2065.6</ele>
        <time>2017-07-29T07:41:54Z</time>
      </trkpt>
      <trkpt lat="44.9226420" lon="6.8620010">
        <ele>2066.8</ele>
        <time>2017-07-29T07:41:57Z</time>
      </trkpt>
      <trkpt lat="44.9226810" lon="6.8619730">
        <ele>2067.4</ele>
        <time>2017-07-29T07:41:59Z</time>
      </trkpt>
      <trkpt lat="44.9227630" lon="6.8619080">
        <ele>2068.0</ele>
        <time>2017-07-29T07:42:03Z</time>
      </trkpt>
      <trkpt lat="44.9227840" lon="6.8618970">
        <ele>2068.2</ele>
        <time>2017-07-29T07:42:04Z</time>
      </trkpt>
      <trkpt lat="44.9228640" lon="6.8618620">
        <ele>2069.0</ele>
        <time>2017-07-29T07:42:08Z</time>
      </trkpt>
      <trkpt lat="44.9229100" lon="6.8618440">
        <ele>2069.4</ele>
        <time>2017-07-29T07:42:10Z</time>
      </trkpt>
      <trkpt lat="44.9230060" lon="6.8618070">
        <ele>2070.0</ele>
        <time>2017-07-29T07:42:14Z</time>
      </trkpt>
      <trkpt lat="44.9230690" lon="6.8617760">
        <ele>2070.6</ele>
        <time>2017-07-29T07:42:17Z</time>
      </trkpt>
      <trkpt lat="44.9231410" lon="6.8617570">
        <ele>2071.2</ele>
        <time>2017-07-29T07:42:20Z</time>
      </trkpt>
      <trkpt lat="44.9232020" lon="6.8617180">
        <ele>2071.8</ele>
        <time>2017-07-29T07:42:23Z</time>
      </trkpt>
      <trkpt lat="44.9232570" lon="6.8616770">
        <ele>2072.2</ele>
        <time>2017-07-29T07:42:26Z</time>
      </trkpt>
      <trkpt lat="44.9233450" lon="6.8616430">
        <ele>2072.8</ele>
        <time>2017-07-29T07:42:30Z</time>
      </trkpt>
      <trkpt lat="44.9234040" lon="6.8616020">
        <ele>2073.4</ele>
        <time>2017-07-29T07:42:33Z</time>
      </trkpt>
      <trkpt lat="44.9235030" lon="6.8615530">
        <ele>2074.4</ele>
        <time>2017-07-29T07:42:38Z</time>
      </trkpt>
      <trkpt lat="44.9235780" lon="6.8615170">
        <ele>2075.6</ele>
        <time>2017-07-29T07:42:42Z</time>
      </trkpt>
      <trkpt lat="44.9236360" lon="6.8614990">
        <ele>2076.8</ele>
        <time>2017-07-29T07:42:45Z</time>
      </trkpt>
      <trkpt lat="44.9236490" lon="6.8614860">
        <ele>2077.0</ele>
        <time>2017-07-29T07:42:46Z</time>
      </trkpt>
      <trkpt lat="44.9236830" lon="6.8614450">
        <ele>2077.8</ele>
        <time>2017-07-29T07:42:48Z</time>
      </trkpt>
      <trkpt lat="44.9236990" lon="6.8614290">
        <ele>2078.2</ele>
        <time>2017-07-29T07:42:49Z</time>
      </trkpt>
      <trkpt lat="44.9237160" lon="6.8614180">
        <ele>2078.6</ele>
        <time>2017-07-29T07:42:50Z</time>
      </trkpt>
      <trkpt lat="44.9237540" lon="6.8613940">
        <ele>2079.2</ele>
        <time>2017-07-29T07:42:52Z</time>
      </trkpt>
      <trkpt lat="44.9238580" lon="6.8613420">
        <ele>2080.2</ele>
        <time>2017-07-29T07:42:57Z</time>
      </trkpt>
      <trkpt lat="44.9238760" lon="6.8613340">
        <ele>2080.4</ele>
        <time>2017-07-29T07:42:58Z</time>
      </trkpt>
      <trkpt lat="44.9239310" lon="6.8613090">
        <ele>2081.4</ele>
        <time>2017-07-29T07:43:01Z</time>
      </trkpt>
      <trkpt lat="44.9239710" lon="6.8612890">
        <ele>2081.6</ele>
        <time>2017-07-29T07:43:03Z</time>
      </trkpt>
      <trkpt lat="44.9240530" lon="6.8612370">
        <ele>2082.6</ele>
        <time>2017-07-29T07:43:07Z</time>
      </trkpt>
      <trkpt lat="44.9240980" lon="6.8612050">
        <ele>2083.6</ele>
        <time>2017-07-29T07:43:09Z</time>
      </trkpt>
      <trkpt lat="44.9241480" lon="6.8611790">
        <ele>2084.2</ele>
        <time>2017-07-29T07:43:11Z</time>
      </trkpt>
      <trkpt lat="44.9242090" lon="6.8611510">
        <ele>2084.8</ele>
        <time>2017-07-29T07:43:13Z</time>
      </trkpt>
      <trkpt lat="44.9243070" lon="6.8610860">
        <ele>2085.8</ele>
        <time>2017-07-29T07:43:17Z</time>
      </trkpt>
      <trkpt lat="44.9243300" lon="6.8610690">
        <ele>2086.0</ele>
        <time>2017-07-29T07:43:18Z</time>
      </trkpt>
      <trkpt lat="44.9244090" lon="6.8610420">
        <ele>2087.0</ele>
        <time>2017-07-29T07:43:21Z</time>
      </trkpt>
      <trkpt lat="44.9244940" lon="6.8610380">
        <ele>2087.6</ele>
        <time>2017-07-29T07:43:24Z</time>
      </trkpt>
      <trkpt lat="44.9245590" lon="6.8610400">
        <ele>2088.0</ele>
        <time>2017-07-29T07:43:26Z</time>
      </trkpt>
      <trkpt lat="44.9247300" lon="6.8610310">
        <ele>2088.8</ele>
        <time>2017-07-29T07:43:32Z</time>
      </trkpt>
      <trkpt lat="44.9247550" lon="6.8610350">
        <ele>2089.0</ele>
        <time>2017-07-29T07:43:33Z</time>
      </trkpt>
      <trkpt lat="44.9249140" lon="6.8610100">
        <ele>2089.8</ele>
        <time>2017-07-29T07:43:39Z</time>
      </trkpt>
      <trkpt lat="44.9249680" lon="6.8609800">
        <ele>2090.2</ele>
        <time>2017-07-29T07:43:41Z</time>
      </trkpt>
      <trkpt lat="44.9251120" lon="6.8609260">
        <ele>2091.4</ele>
        <time>2017-07-29T07:43:48Z</time>
      </trkpt>
      <trkpt lat="44.9252570" lon="6.8609010">
        <ele>2092.8</ele>
        <time>2017-07-29T07:43:53Z</time>
      </trkpt>
      <trkpt lat="44.9253240" lon="6.8608560">
        <ele>2093.6</ele>
        <time>2017-07-29T07:43:56Z</time>
      </trkpt>
      <trkpt lat="44.9253430" lon="6.8608440">
        <ele>2093.8</ele>
        <time>2017-07-29T07:43:57Z</time>
      </trkpt>
      <trkpt lat="44.9254680" lon="6.8607720">
        <ele>2094.2</ele>
        <time>2017-07-29T07:44:03Z</time>
      </trkpt>
      <trkpt lat="44.9256030" lon="6.8607990">
        <ele>2095.0</ele>
        <time>2017-07-29T07:44:09Z</time>
      </trkpt>
      <trkpt lat="44.9256710" lon="6.8608510">
        <ele>2096.2</ele>
        <time>2017-07-29T07:44:12Z</time>
      </trkpt>
      <trkpt lat="44.9257390" lon="6.8608970">
        <ele>2097.6</ele>
        <time>2017-07-29T07:44:15Z</time>
      </trkpt>
      <trkpt lat="44.9258050" lon="6.8608810">
        <ele>2098.6</ele>
        <time>2017-07-29T07:44:18Z</time>
      </trkpt>
      <trkpt lat="44.9258390" lon="6.8608460">
        <ele>2099.6</ele>
        <time>2017-07-29T07:44:20Z</time>
      </trkpt>
      <trkpt lat="44.9258540" lon="6.8608260">
        <ele>2100.6</ele>
        <time>2017-07-29T07:44:21Z</time>
      </trkpt>
      <trkpt lat="44.9259030" lon="6.8607550">
        <ele>2101.8</ele>
        <time>2017-07-29T07:44:24Z</time>
      </trkpt>
      <trkpt lat="44.9259460" lon="6.8606680">
        <ele>2103.0</ele>
        <time>2017-07-29T07:44:27Z</time>
      </trkpt>
      <trkpt lat="44.9259980" lon="6.8605630">
        <ele>2104.2</ele>
        <time>2017-07-29T07:44:31Z</time>
      </trkpt>
      <trkpt lat="44.9260230" lon="6.8605070">
        <ele>2105.0</ele>
        <time>2017-07-29T07:44:33Z</time>
      </trkpt>
      <trkpt lat="44.9260370" lon="6.8604800">
        <ele>2105.4</ele>
        <time>2017-07-29T07:44:34Z</time>
      </trkpt>
      <trkpt lat="44.9261080" lon="6.8603970">
        <ele>2106.4</ele>
        <time>2017-07-29T07:44:38Z</time>
      </trkpt>
      <trkpt lat="44.9261240" lon="6.8603860">
        <ele>2106.4</ele>
        <time>2017-07-29T07:44:39Z</time>
      </trkpt>
      <trkpt lat="44.9262060" lon="6.8603530">
        <ele>2107.4</ele>
        <time>2017-07-29T07:44:43Z</time>
      </trkpt>
      <trkpt lat="44.9262540" lon="6.8603360">
        <ele>2108.2</ele>
        <time>2017-07-29T07:44:45Z</time>
      </trkpt>
      <trkpt lat="44.9263030" lon="6.8603240">
        <ele>2106.2</ele>
        <time>2017-07-29T07:44:47Z</time>
      </trkpt>
      <trkpt lat="44.9263750" lon="6.8602970">
        <ele>2109.0</ele>
        <time>2017-07-29T07:44:50Z</time>
      </trkpt>
      <trkpt lat="44.9264240" lon="6.8602740">
        <ele>2109.4</ele>
        <time>2017-07-29T07:44:52Z</time>
      </trkpt>
      <trkpt lat="44.9264690" lon="6.8602590">
        <ele>2110.0</ele>
        <time>2017-07-29T07:44:54Z</time>
      </trkpt>
      <trkpt lat="44.9265540" lon="6.8601970">
        <ele>2111.2</ele>
        <time>2017-07-29T07:44:58Z</time>
      </trkpt>
      <trkpt lat="44.9266650" lon="6.8601840">
        <ele>2112.4</ele>
        <time>2017-07-29T07:45:03Z</time>
      </trkpt>
      <trkpt lat="44.9267080" lon="6.8601750">
        <ele>2112.8</ele>
        <time>2017-07-29T07:45:05Z</time>
      </trkpt>
      <trkpt lat="44.9267980" lon="6.8601450">
        <ele>2113.6</ele>
        <time>2017-07-29T07:45:09Z</time>
      </trkpt>
      <trkpt lat="44.9268900" lon="6.8600820">
        <ele>2114.4</ele>
        <time>2017-07-29T07:45:13Z</time>
      </trkpt>
      <trkpt lat="44.9270120" lon="6.8600220">
        <ele>2114.8</ele>
        <time>2017-07-29T07:45:19Z</time>
      </trkpt>
      <trkpt lat="44.9270300" lon="6.8600160">
        <ele>2116.0</ele>
        <time>2017-07-29T07:45:20Z</time>
      </trkpt>
      <trkpt lat="44.9272030" lon="6.8599460">
        <ele>2116.2</ele>
        <time>2017-07-29T07:45:28Z</time>
      </trkpt>
      <trkpt lat="44.9272280" lon="6.8599330">
        <ele>2117.6</ele>
        <time>2017-07-29T07:45:29Z</time>
      </trkpt>
      <trkpt lat="44.9273260" lon="6.8598820">
        <ele>2119.0</ele>
        <time>2017-07-29T07:45:33Z</time>
      </trkpt>
      <trkpt lat="44.9274010" lon="6.8598480">
        <ele>2119.8</ele>
        <time>2017-07-29T07:45:36Z</time>
      </trkpt>
      <trkpt lat="44.9274270" lon="6.8598410">
        <ele>2120.2</ele>
        <time>2017-07-29T07:45:37Z</time>
      </trkpt>
      <trkpt lat="44.9275210" lon="6.8597920">
        <ele>2121.2</ele>
        <time>2017-07-29T07:45:41Z</time>
      </trkpt>
      <trkpt lat="44.9275640" lon="6.8597790">
        <ele>2122.0</ele>
        <time>2017-07-29T07:45:43Z</time>
      </trkpt>
      <trkpt lat="44.9275860" lon="6.8597720">
        <ele>2122.2</ele>
        <time>2017-07-29T07:45:44Z</time>
      </trkpt>
      <trkpt lat="44.9277190" lon="6.8596570">
        <ele>2123.4</ele>
        <time>2017-07-29T07:45:49Z</time>
      </trkpt>
      <trkpt lat="44.9278180" lon="6.8595370">
        <ele>2124.4</ele>
        <time>2017-07-29T07:45:53Z</time>
      </trkpt>
      <trkpt lat="44.9279280" lon="6.8594160">
        <ele>2126.0</ele>
        <time>2017-07-29T07:45:57Z</time>
      </trkpt>
      <trkpt lat="44.9281280" lon="6.8592640">
        <ele>2126.8</ele>
        <time>2017-07-29T07:46:03Z</time>
      </trkpt>
      <trkpt lat="44.9281640" lon="6.8592410">
        <ele>2127.0</ele>
        <time>2017-07-29T07:46:04Z</time>
      </trkpt>
      <trkpt lat="44.9282740" lon="6.8591290">
        <ele>2127.2</ele>
        <time>2017-07-29T07:46:08Z</time>
      </trkpt>
      <trkpt lat="44.9283890" lon="6.8589280">
        <ele>2128.0</ele>
        <time>2017-07-29T07:46:13Z</time>
      </trkpt>
      <trkpt lat="44.9284460" lon="6.8588480">
        <ele>2128.2</ele>
        <time>2017-07-29T07:46:15Z</time>
      </trkpt>
      <trkpt lat="44.9285330" lon="6.8587460">
        <ele>2129.2</ele>
        <time>2017-07-29T07:46:18Z</time>
      </trkpt>
      <trkpt lat="44.9286380" lon="6.8586680">
        <ele>2129.4</ele>
        <time>2017-07-29T07:46:21Z</time>
      </trkpt>
      <trkpt lat="44.9288000" lon="6.8585910">
        <ele>2129.4</ele>
        <time>2017-07-29T07:46:26Z</time>
      </trkpt>
      <trkpt lat="44.9288700" lon="6.8585240">
        <ele>2130.0</ele>
        <time>2017-07-29T07:46:29Z</time>
      </trkpt>
      <trkpt lat="44.9288790" lon="6.8584920">
        <ele>2130.2</ele>
        <time>2017-07-29T07:46:30Z</time>
      </trkpt>
      <trkpt lat="44.9288760" lon="6.8584650">
        <ele>2130.2</ele>
        <time>2017-07-29T07:46:31Z</time>
      </trkpt>
      <trkpt lat="44.9287760" lon="6.8585180">
        <ele>2130.6</ele>
        <time>2017-07-29T07:46:34Z</time>
      </trkpt>
      <trkpt lat="44.9286320" lon="6.8585570">
        <ele>2131.4</ele>
        <time>2017-07-29T07:46:39Z</time>
      </trkpt>
      <trkpt lat="44.9286040" lon="6.8585720">
        <ele>2131.6</ele>
        <time>2017-07-29T07:46:40Z</time>
      </trkpt>
      <trkpt lat="44.9284710" lon="6.8586580">
        <ele>2132.8</ele>
        <time>2017-07-29T07:46:45Z</time>
      </trkpt>
      <trkpt lat="44.9284480" lon="6.8586760">
        <ele>2132.8</ele>
        <time>2017-07-29T07:46:46Z</time>
      </trkpt>
      <trkpt lat="44.9283330" lon="6.8587530">
        <ele>2134.0</ele>
        <time>2017-07-29T07:46:51Z</time>
      </trkpt>
      <trkpt lat="44.9282840" lon="6.8587860">
        <ele>2134.0</ele>
        <time>2017-07-29T07:46:53Z</time>
      </trkpt>
      <trkpt lat="44.9282120" lon="6.8588360">
        <ele>2135.0</ele>
        <time>2017-07-29T07:46:56Z</time>
      </trkpt>
      <trkpt lat="44.9281450" lon="6.8588810">
        <ele>2136.0</ele>
        <time>2017-07-29T07:46:59Z</time>
      </trkpt>
      <trkpt lat="44.9281220" lon="6.8588890">
        <ele>2136.4</ele>
        <time>2017-07-29T07:47:00Z</time>
      </trkpt>
      <trkpt lat="44.9280560" lon="6.8589290">
        <ele>2137.4</ele>
        <time>2017-07-29T07:47:03Z</time>
      </trkpt>
      <trkpt lat="44.9279610" lon="6.8589770">
        <ele>2138.0</ele>
        <time>2017-07-29T07:47:07Z</time>
      </trkpt>
      <trkpt lat="44.9279400" lon="6.8589910">
        <ele>2138.4</ele>
        <time>2017-07-29T07:47:08Z</time>
      </trkpt>
      <trkpt lat="44.9278730" lon="6.8590350">
        <ele>2139.6</ele>
        <time>2017-07-29T07:47:11Z</time>
      </trkpt>
      <trkpt lat="44.9278260" lon="6.8590670">
        <ele>2140.2</ele>
        <time>2017-07-29T07:47:13Z</time>
      </trkpt>
      <trkpt lat="44.9277920" lon="6.8591080">
        <ele>2141.0</ele>
        <time>2017-07-29T07:47:15Z</time>
      </trkpt>
      <trkpt lat="44.9277420" lon="6.8591710">
        <ele>2142.2</ele>
        <time>2017-07-29T07:47:18Z</time>
      </trkpt>
      <trkpt lat="44.9277300" lon="6.8591940">
        <ele>2142.6</ele>
        <time>2017-07-29T07:47:19Z</time>
      </trkpt>
      <trkpt lat="44.9277020" lon="6.8592360">
        <ele>2143.2</ele>
        <time>2017-07-29T07:47:21Z</time>
      </trkpt>
      <trkpt lat="44.9276600" lon="6.8592650">
        <ele>2144.4</ele>
        <time>2017-07-29T07:47:24Z</time>
      </trkpt>
      <trkpt lat="44.9276230" lon="6.8592870">
        <ele>2145.0</ele>
        <time>2017-07-29T07:47:26Z</time>
      </trkpt>
      <trkpt lat="44.9275840" lon="6.8593080">
        <ele>2145.6</ele>
        <time>2017-07-29T07:47:28Z</time>
      </trkpt>
      <trkpt lat="44.9274870" lon="6.8593150">
        <ele>2145.4</ele>
        <time>2017-07-29T07:47:32Z</time>
      </trkpt>
      <trkpt lat="44.9274410" lon="6.8593150">
        <ele>2147.2</ele>
        <time>2017-07-29T07:47:34Z</time>
      </trkpt>
      <trkpt lat="44.9273730" lon="6.8593390">
        <ele>2148.0</ele>
        <time>2017-07-29T07:47:37Z</time>
      </trkpt>
      <trkpt lat="44.9273490" lon="6.8593420">
        <ele>2148.2</ele>
        <time>2017-07-29T07:47:38Z</time>
      </trkpt>
      <trkpt lat="44.9272390" lon="6.8593340">
        <ele>2149.4</ele>
        <time>2017-07-29T07:47:43Z</time>
      </trkpt>
      <trkpt lat="44.9271880" lon="6.8593300">
        <ele>2149.8</ele>
        <time>2017-07-29T07:47:45Z</time>
      </trkpt>
      <trkpt lat="44.9271270" lon="6.8593090">
        <ele>2150.6</ele>
        <time>2017-07-29T07:47:48Z</time>
      </trkpt>
      <trkpt lat="44.9270630" lon="6.8592850">
        <ele>2151.6</ele>
        <time>2017-07-29T07:47:51Z</time>
      </trkpt>
      <trkpt lat="44.9269850" lon="6.8592400">
        <ele>2152.8</ele>
        <time>2017-07-29T07:47:55Z</time>
      </trkpt>
      <trkpt lat="44.9269590" lon="6.8592100">
        <ele>2153.8</ele>
        <time>2017-07-29T07:47:57Z</time>
      </trkpt>
      <trkpt lat="44.9269400" lon="6.8592030">
        <ele>2154.0</ele>
        <time>2017-07-29T07:47:58Z</time>
      </trkpt>
      <trkpt lat="44.9268790" lon="6.8591660">
        <ele>2155.0</ele>
        <time>2017-07-29T07:48:01Z</time>
      </trkpt>
      <trkpt lat="44.9268610" lon="6.8591550">
        <ele>2155.4</ele>
        <time>2017-07-29T07:48:02Z</time>
      </trkpt>
      <trkpt lat="44.9268130" lon="6.8591040">
        <ele>2156.2</ele>
        <time>2017-07-29T07:48:05Z</time>
      </trkpt>
      <trkpt lat="44.9267410" lon="6.8590410">
        <ele>2157.2</ele>
        <time>2017-07-29T07:48:09Z</time>
      </trkpt>
      <trkpt lat="44.9267220" lon="6.8590220">
        <ele>2157.6</ele>
        <time>2017-07-29T07:48:10Z</time>
      </trkpt>
      <trkpt lat="44.9266520" lon="6.8589790">
        <ele>2158.4</ele>
        <time>2017-07-29T07:48:13Z</time>
      </trkpt>
      <trkpt lat="44.9265690" lon="6.8589360">
        <ele>2159.6</ele>
        <time>2017-07-29T07:48:17Z</time>
      </trkpt>
      <trkpt lat="44.9265490" lon="6.8589250">
        <ele>2159.8</ele>
        <time>2017-07-29T07:48:18Z</time>
      </trkpt>
      <trkpt lat="44.9264820" lon="6.8589220">
        <ele>2161.2</ele>
        <time>2017-07-29T07:48:21Z</time>
      </trkpt>
      <trkpt lat="44.9264110" lon="6.8589190">
        <ele>2162.0</ele>
        <time>2017-07-29T07:48:24Z</time>
      </trkpt>
      <trkpt lat="44.9263820" lon="6.8589190">
        <ele>2162.4</ele>
        <time>2017-07-29T07:48:25Z</time>
      </trkpt>
      <trkpt lat="44.9262320" lon="6.8589430">
        <ele>2163.4</ele>
        <time>2017-07-29T07:48:31Z</time>
      </trkpt>
      <trkpt lat="44.9261370" lon="6.8589400">
        <ele>2164.6</ele>
        <time>2017-07-29T07:48:35Z</time>
      </trkpt>
      <trkpt lat="44.9260920" lon="6.8589320">
        <ele>2165.2</ele>
        <time>2017-07-29T07:48:37Z</time>
      </trkpt>
      <trkpt lat="44.9260300" lon="6.8589260">
        <ele>2165.6</ele>
        <time>2017-07-29T07:48:40Z</time>
      </trkpt>
      <trkpt lat="44.9259370" lon="6.8589270">
        <ele>2166.4</ele>
        <time>2017-07-29T07:48:44Z</time>
      </trkpt>
      <trkpt lat="44.9259140" lon="6.8589270">
        <ele>2166.8</ele>
        <time>2017-07-29T07:48:45Z</time>
      </trkpt>
      <trkpt lat="44.9258150" lon="6.8589310">
        <ele>2168.0</ele>
        <time>2017-07-29T07:48:50Z</time>
      </trkpt>
      <trkpt lat="44.9257960" lon="6.8589320">
        <ele>2168.4</ele>
        <time>2017-07-29T07:48:51Z</time>
      </trkpt>
      <trkpt lat="44.9257340" lon="6.8589300">
        <ele>2169.2</ele>
        <time>2017-07-29T07:48:54Z</time>
      </trkpt>
      <trkpt lat="44.9256400" lon="6.8589200">
        <ele>2170.0</ele>
        <time>2017-07-29T07:48:58Z</time>
      </trkpt>
      <trkpt lat="44.9255960" lon="6.8589040">
        <ele>2170.4</ele>
        <time>2017-07-29T07:49:00Z</time>
      </trkpt>
      <trkpt lat="44.9254800" lon="6.8588570">
        <ele>2171.4</ele>
        <time>2017-07-29T07:49:06Z</time>
      </trkpt>
      <trkpt lat="44.9254610" lon="6.8588440">
        <ele>2171.6</ele>
        <time>2017-07-29T07:49:07Z</time>
      </trkpt>
      <trkpt lat="44.9253810" lon="6.8587880">
        <ele>2172.6</ele>
        <time>2017-07-29T07:49:11Z</time>
      </trkpt>
      <trkpt lat="44.9253580" lon="6.8587790">
        <ele>2172.8</ele>
        <time>2017-07-29T07:49:12Z</time>
      </trkpt>
      <trkpt lat="44.9252670" lon="6.8587370">
        <ele>2173.6</ele>
        <time>2017-07-29T07:49:16Z</time>
      </trkpt>
      <trkpt lat="44.9251960" lon="6.8587370">
        <ele>2174.2</ele>
        <time>2017-07-29T07:49:19Z</time>
      </trkpt>
      <trkpt lat="44.9251470" lon="6.8587350">
        <ele>2174.6</ele>
        <time>2017-07-29T07:49:21Z</time>
      </trkpt>
      <trkpt lat="44.9250460" lon="6.8587160">
        <ele>2175.2</ele>
        <time>2017-07-29T07:49:25Z</time>
      </trkpt>
      <trkpt lat="44.9249920" lon="6.8587080">
        <ele>2175.6</ele>
        <time>2017-07-29T07:49:27Z</time>
      </trkpt>
      <trkpt lat="44.9248760" lon="6.8587390">
        <ele>2176.6</ele>
        <time>2017-07-29T07:49:31Z</time>
      </trkpt>
      <trkpt lat="44.9248430" lon="6.8587550">
        <ele>2176.8</ele>
        <time>2017-07-29T07:49:32Z</time>
      </trkpt>
      <trkpt lat="44.9247280" lon="6.8588150">
        <ele>2177.6</ele>
        <time>2017-07-29T07:49:36Z</time>
      </trkpt>
      <trkpt lat="44.9246990" lon="6.8588260">
        <ele>2177.8</ele>
        <time>2017-07-29T07:49:37Z</time>
      </trkpt>
      <trkpt lat="44.9245590" lon="6.8588580">
        <ele>2179.0</ele>
        <time>2017-07-29T07:49:42Z</time>
      </trkpt>
      <trkpt lat="44.9245080" lon="6.8588620">
        <ele>2179.4</ele>
        <time>2017-07-29T07:49:44Z</time>
      </trkpt>
      <trkpt lat="44.9244520" lon="6.8588390">
        <ele>2180.0</ele>
        <time>2017-07-29T07:49:46Z</time>
      </trkpt>
      <trkpt lat="44.9243840" lon="6.8588420">
        <ele>2180.8</ele>
        <time>2017-07-29T07:49:49Z</time>
      </trkpt>
      <trkpt lat="44.9243670" lon="6.8588590">
        <ele>2181.2</ele>
        <time>2017-07-29T07:49:50Z</time>
      </trkpt>
      <trkpt lat="44.9243100" lon="6.8589050">
        <ele>2182.4</ele>
        <time>2017-07-29T07:49:53Z</time>
      </trkpt>
      <trkpt lat="44.9242660" lon="6.8589290">
        <ele>2183.0</ele>
        <time>2017-07-29T07:49:55Z</time>
      </trkpt>
      <trkpt lat="44.9242270" lon="6.8589480">
        <ele>2183.6</ele>
        <time>2017-07-29T07:49:57Z</time>
      </trkpt>
      <trkpt lat="44.9241170" lon="6.8589770">
        <ele>2184.8</ele>
        <time>2017-07-29T07:50:02Z</time>
      </trkpt>
      <trkpt lat="44.9239230" lon="6.8590150">
        <ele>2185.8</ele>
        <time>2017-07-29T07:50:10Z</time>
      </trkpt>
      <trkpt lat="44.9238060" lon="6.8589990">
        <ele>2186.8</ele>
        <time>2017-07-29T07:50:15Z</time>
      </trkpt>
      <trkpt lat="44.9237780" lon="6.8589930">
        <ele>2187.0</ele>
        <time>2017-07-29T07:50:16Z</time>
      </trkpt>
      <trkpt lat="44.9236270" lon="6.8589620">
        <ele>2188.4</ele>
        <time>2017-07-29T07:50:21Z</time>
      </trkpt>
      <trkpt lat="44.9235980" lon="6.8589510">
        <ele>2188.6</ele>
        <time>2017-07-29T07:50:22Z</time>
      </trkpt>
      <trkpt lat="44.9235110" lon="6.8589300">
        <ele>2189.4</ele>
        <time>2017-07-29T07:50:25Z</time>
      </trkpt>
      <trkpt lat="44.9234150" lon="6.8588950">
        <ele>2189.8</ele>
        <time>2017-07-29T07:50:28Z</time>
      </trkpt>
      <trkpt lat="44.9232760" lon="6.8588510">
        <ele>2190.6</ele>
        <time>2017-07-29T07:50:32Z</time>
      </trkpt>
      <trkpt lat="44.9231960" lon="6.8588120">
        <ele>2191.0</ele>
        <time>2017-07-29T07:50:35Z</time>
      </trkpt>
      <trkpt lat="44.9229850" lon="6.8587290">
        <ele>2191.8</ele>
        <time>2017-07-29T07:50:42Z</time>
      </trkpt>
      <trkpt lat="44.9228110" lon="6.8587880">
        <ele>2192.6</ele>
        <time>2017-07-29T07:50:48Z</time>
      </trkpt>
      <trkpt lat="44.9227800" lon="6.8588040">
        <ele>2192.8</ele>
        <time>2017-07-29T07:50:49Z</time>
      </trkpt>
      <trkpt lat="44.9226690" lon="6.8588900">
        <ele>2193.8</ele>
        <time>2017-07-29T07:50:53Z</time>
      </trkpt>
      <trkpt lat="44.9226440" lon="6.8589140">
        <ele>2194.2</ele>
        <time>2017-07-29T07:50:54Z</time>
      </trkpt>
      <trkpt lat="44.9225410" lon="6.8590010">
        <ele>2195.4</ele>
        <time>2017-07-29T07:50:58Z</time>
      </trkpt>
      <trkpt lat="44.9224930" lon="6.8590610">
        <ele>2196.2</ele>
        <time>2017-07-29T07:51:00Z</time>
      </trkpt>
      <trkpt lat="44.9224680" lon="6.8590910">
        <ele>2196.6</ele>
        <time>2017-07-29T07:51:01Z</time>
      </trkpt>
      <trkpt lat="44.9223570" lon="6.8591440">
        <ele>2197.6</ele>
        <time>2017-07-29T07:51:05Z</time>
      </trkpt>
      <trkpt lat="44.9222410" lon="6.8591720">
        <ele>2198.8</ele>
        <time>2017-07-29T07:51:09Z</time>
      </trkpt>
      <trkpt lat="44.9221430" lon="6.8592050">
        <ele>2199.6</ele>
        <time>2017-07-29T07:51:12Z</time>
      </trkpt>
      <trkpt lat="44.9221100" lon="6.8592170">
        <ele>2199.8</ele>
        <time>2017-07-29T07:51:13Z</time>
      </trkpt>
      <trkpt lat="44.9219830" lon="6.8592200">
        <ele>2200.8</ele>
        <time>2017-07-29T07:51:17Z</time>
      </trkpt>
      <trkpt lat="44.9219530" lon="6.8592130">
        <ele>2201.0</ele>
        <time>2017-07-29T07:51:18Z</time>
      </trkpt>
      <trkpt lat="44.9218280" lon="6.8591820">
        <ele>2201.6</ele>
        <time>2017-07-29T07:51:22Z</time>
      </trkpt>
      <trkpt lat="44.9217460" lon="6.8591920">
        <ele>2202.0</ele>
        <time>2017-07-29T07:51:25Z</time>
      </trkpt>
      <trkpt lat="44.9216650" lon="6.8592580">
        <ele>2202.4</ele>
        <time>2017-07-29T07:51:28Z</time>
      </trkpt>
      <trkpt lat="44.9215050" lon="6.8593340">
        <ele>2202.6</ele>
        <time>2017-07-29T07:51:33Z</time>
      </trkpt>
      <trkpt lat="44.9213960" lon="6.8593920">
        <ele>2203.2</ele>
        <time>2017-07-29T07:51:38Z</time>
      </trkpt>
      <trkpt lat="44.9213770" lon="6.8594060">
        <ele>2203.6</ele>
        <time>2017-07-29T07:51:39Z</time>
      </trkpt>
      <trkpt lat="44.9212180" lon="6.8594180">
        <ele>2204.2</ele>
        <time>2017-07-29T07:51:45Z</time>
      </trkpt>
      <trkpt lat="44.9210400" lon="6.8594420">
        <ele>2204.0</ele>
        <time>2017-07-29T07:51:51Z</time>
      </trkpt>
      <trkpt lat="44.9208740" lon="6.8595630">
        <ele>2204.8</ele>
        <time>2017-07-29T07:51:57Z</time>
      </trkpt>
      <trkpt lat="44.9208470" lon="6.8595690">
        <ele>2205.2</ele>
        <time>2017-07-29T07:51:58Z</time>
      </trkpt>
      <trkpt lat="44.9207450" lon="6.8596050">
        <ele>2206.0</ele>
        <time>2017-07-29T07:52:02Z</time>
      </trkpt>
      <trkpt lat="44.9206140" lon="6.8596340">
        <ele>2207.2</ele>
        <time>2017-07-29T07:52:06Z</time>
      </trkpt>
      <trkpt lat="44.9204520" lon="6.8596900">
        <ele>2208.4</ele>
        <time>2017-07-29T07:52:11Z</time>
      </trkpt>
      <trkpt lat="44.9203580" lon="6.8596950">
        <ele>2209.4</ele>
        <time>2017-07-29T07:52:14Z</time>
      </trkpt>
      <trkpt lat="44.9203260" lon="6.8596890">
        <ele>2209.6</ele>
        <time>2017-07-29T07:52:15Z</time>
      </trkpt>
      <trkpt lat="44.9201930" lon="6.8596890">
        <ele>2211.0</ele>
        <time>2017-07-29T07:52:19Z</time>
      </trkpt>
      <trkpt lat="44.9201360" lon="6.8597040">
        <ele>2211.6</ele>
        <time>2017-07-29T07:52:21Z</time>
      </trkpt>
      <trkpt lat="44.9200850" lon="6.8597410">
        <ele>2212.0</ele>
        <time>2017-07-29T07:52:23Z</time>
      </trkpt>
      <trkpt lat="44.9199990" lon="6.8598030">
        <ele>2212.8</ele>
        <time>2017-07-29T07:52:26Z</time>
      </trkpt>
      <trkpt lat="44.9199130" lon="6.8599060">
        <ele>2213.0</ele>
        <time>2017-07-29T07:52:29Z</time>
      </trkpt>
      <trkpt lat="44.9198590" lon="6.8599540">
        <ele>2213.4</ele>
        <time>2017-07-29T07:52:31Z</time>
      </trkpt>
      <trkpt lat="44.9198270" lon="6.8599480">
        <ele>2213.4</ele>
        <time>2017-07-29T07:52:32Z</time>
      </trkpt>
      <trkpt lat="44.9197800" lon="6.8599110">
        <ele>2214.0</ele>
        <time>2017-07-29T07:52:34Z</time>
      </trkpt>
      <trkpt lat="44.9197900" lon="6.8598820">
        <ele>2214.2</ele>
        <time>2017-07-29T07:52:35Z</time>
      </trkpt>
      <trkpt lat="44.9198210" lon="6.8598360">
        <ele>2214.8</ele>
        <time>2017-07-29T07:52:37Z</time>
      </trkpt>
      <trkpt lat="44.9198390" lon="6.8598130">
        <ele>2215.2</ele>
        <time>2017-07-29T07:52:38Z</time>
      </trkpt>
      <trkpt lat="44.9198620" lon="6.8597890">
        <ele>2215.4</ele>
        <time>2017-07-29T07:52:39Z</time>
      </trkpt>
      <trkpt lat="44.9199740" lon="6.8596940">
        <ele>2216.6</ele>
        <time>2017-07-29T07:52:43Z</time>
      </trkpt>
      <trkpt lat="44.9200000" lon="6.8596680">
        <ele>2216.6</ele>
        <time>2017-07-29T07:52:44Z</time>
      </trkpt>
      <trkpt lat="44.9200900" lon="6.8595810">
        <ele>2217.6</ele>
        <time>2017-07-29T07:52:47Z</time>
      </trkpt>
      <trkpt lat="44.9201520" lon="6.8595310">
        <ele>2218.0</ele>
        <time>2017-07-29T07:52:49Z</time>
      </trkpt>
      <trkpt lat="44.9202700" lon="6.8594580">
        <ele>2218.8</ele>
        <time>2017-07-29T07:52:53Z</time>
      </trkpt>
      <trkpt lat="44.9203810" lon="6.8594090">
        <ele>2219.2</ele>
        <time>2017-07-29T07:52:57Z</time>
      </trkpt>
      <trkpt lat="44.9205090" lon="6.8593710">
        <ele>2219.8</ele>
        <time>2017-07-29T07:53:01Z</time>
      </trkpt>
      <trkpt lat="44.9205900" lon="6.8593650">
        <ele>2220.4</ele>
        <time>2017-07-29T07:53:04Z</time>
      </trkpt>
      <trkpt lat="44.9206580" lon="6.8593460">
        <ele>2220.8</ele>
        <time>2017-07-29T07:53:07Z</time>
      </trkpt>
      <trkpt lat="44.9207190" lon="6.8592980">
        <ele>2222.0</ele>
        <time>2017-07-29T07:53:10Z</time>
      </trkpt>
      <trkpt lat="44.9207400" lon="6.8592770">
        <ele>2222.2</ele>
        <time>2017-07-29T07:53:11Z</time>
      </trkpt>
      <trkpt lat="44.9208050" lon="6.8591770">
        <ele>2223.2</ele>
        <time>2017-07-29T07:53:15Z</time>
      </trkpt>
      <trkpt lat="44.9208370" lon="6.8591390">
        <ele>2223.6</ele>
        <time>2017-07-29T07:53:17Z</time>
      </trkpt>
      <trkpt lat="44.9208740" lon="6.8591040">
        <ele>2224.2</ele>
        <time>2017-07-29T07:53:19Z</time>
      </trkpt>
      <trkpt lat="44.9209520" lon="6.8590750">
        <ele>2224.8</ele>
        <time>2017-07-29T07:53:22Z</time>
      </trkpt>
      <trkpt lat="44.9210200" lon="6.8590550">
        <ele>2225.4</ele>
        <time>2017-07-29T07:53:25Z</time>
      </trkpt>
      <trkpt lat="44.9210850" lon="6.8590120">
        <ele>2226.0</ele>
        <time>2017-07-29T07:53:28Z</time>
      </trkpt>
      <trkpt lat="44.9211680" lon="6.8589460">
        <ele>2226.4</ele>
        <time>2017-07-29T07:53:31Z</time>
      </trkpt>
      <trkpt lat="44.9212580" lon="6.8588980">
        <ele>2227.8</ele>
        <time>2017-07-29T07:53:35Z</time>
      </trkpt>
      <trkpt lat="44.9213480" lon="6.8588260">
        <ele>2228.8</ele>
        <time>2017-07-29T07:53:39Z</time>
      </trkpt>
      <trkpt lat="44.9213940" lon="6.8587920">
        <ele>2229.2</ele>
        <time>2017-07-29T07:53:41Z</time>
      </trkpt>
      <trkpt lat="44.9214240" lon="6.8587560">
        <ele>2229.8</ele>
        <time>2017-07-29T07:53:43Z</time>
      </trkpt>
      <trkpt lat="44.9214860" lon="6.8587060">
        <ele>2230.8</ele>
        <time>2017-07-29T07:53:46Z</time>
      </trkpt>
      <trkpt lat="44.9215050" lon="6.8586880">
        <ele>2231.0</ele>
        <time>2017-07-29T07:53:47Z</time>
      </trkpt>
      <trkpt lat="44.9215710" lon="6.8586050">
        <ele>2231.8</ele>
        <time>2017-07-29T07:53:51Z</time>
      </trkpt>
      <trkpt lat="44.9216210" lon="6.8585510">
        <ele>2232.8</ele>
        <time>2017-07-29T07:53:54Z</time>
      </trkpt>
      <trkpt lat="44.9216420" lon="6.8585300">
        <ele>2233.0</ele>
        <time>2017-07-29T07:53:55Z</time>
      </trkpt>
      <trkpt lat="44.9217070" lon="6.8584500">
        <ele>2234.2</ele>
        <time>2017-07-29T07:53:59Z</time>
      </trkpt>
      <trkpt lat="44.9217440" lon="6.8584160">
        <ele>2234.8</ele>
        <time>2017-07-29T07:54:01Z</time>
      </trkpt>
      <trkpt lat="44.9218450" lon="6.8583540">
        <ele>2235.4</ele>
        <time>2017-07-29T07:54:05Z</time>
      </trkpt>
      <trkpt lat="44.9218860" lon="6.8583190">
        <ele>2235.6</ele>
        <time>2017-07-29T07:54:07Z</time>
      </trkpt>
      <trkpt lat="44.9219330" lon="6.8582530">
        <ele>2236.6</ele>
        <time>2017-07-29T07:54:10Z</time>
      </trkpt>
      <trkpt lat="44.9219930" lon="6.8582020">
        <ele>2237.4</ele>
        <time>2017-07-29T07:54:13Z</time>
      </trkpt>
      <trkpt lat="44.9220450" lon="6.8581730">
        <ele>2237.8</ele>
        <time>2017-07-29T07:54:15Z</time>
      </trkpt>
      <trkpt lat="44.9221150" lon="6.8580970">
        <ele>2239.0</ele>
        <time>2017-07-29T07:54:19Z</time>
      </trkpt>
      <trkpt lat="44.9221320" lon="6.8580810">
        <ele>2239.2</ele>
        <time>2017-07-29T07:54:20Z</time>
      </trkpt>
      <trkpt lat="44.9221730" lon="6.8580520">
        <ele>2240.0</ele>
        <time>2017-07-29T07:54:22Z</time>
      </trkpt>
      <trkpt lat="44.9222540" lon="6.8579760">
        <ele>2240.8</ele>
        <time>2017-07-29T07:54:26Z</time>
      </trkpt>
      <trkpt lat="44.9223010" lon="6.8579540">
        <ele>2241.2</ele>
        <time>2017-07-29T07:54:28Z</time>
      </trkpt>
      <trkpt lat="44.9224090" lon="6.8578940">
        <ele>2241.6</ele>
        <time>2017-07-29T07:54:33Z</time>
      </trkpt>
      <trkpt lat="44.9224880" lon="6.8578320">
        <ele>2242.2</ele>
        <time>2017-07-29T07:54:37Z</time>
      </trkpt>
      <trkpt lat="44.9225440" lon="6.8577820">
        <ele>2242.4</ele>
        <time>2017-07-29T07:54:40Z</time>
      </trkpt>
      <trkpt lat="44.9226050" lon="6.8577020">
        <ele>2243.2</ele>
        <time>2017-07-29T07:54:44Z</time>
      </trkpt>
      <trkpt lat="44.9226430" lon="6.8576740">
        <ele>2243.0</ele>
        <time>2017-07-29T07:54:46Z</time>
      </trkpt>
      <trkpt lat="44.9227780" lon="6.8575730">
        <ele>2242.4</ele>
        <time>2017-07-29T07:54:53Z</time>
      </trkpt>
      <trkpt lat="44.9229150" lon="6.8574870">
        <ele>2243.0</ele>
        <time>2017-07-29T07:54:59Z</time>
      </trkpt>
      <trkpt lat="44.9230640" lon="6.8574550">
        <ele>2243.8</ele>
        <time>2017-07-29T07:55:04Z</time>
      </trkpt>
      <trkpt lat="44.9231530" lon="6.8574230">
        <ele>2244.2</ele>
        <time>2017-07-29T07:55:07Z</time>
      </trkpt>
      <trkpt lat="44.9232430" lon="6.8573990">
        <ele>2245.2</ele>
        <time>2017-07-29T07:55:10Z</time>
      </trkpt>
      <trkpt lat="44.9232700" lon="6.8573970">
        <ele>2245.4</ele>
        <time>2017-07-29T07:55:11Z</time>
      </trkpt>
      <trkpt lat="44.9233840" lon="6.8574410">
        <ele>2246.4</ele>
        <time>2017-07-29T07:55:15Z</time>
      </trkpt>
      <trkpt lat="44.9234120" lon="6.8574520">
        <ele>2246.8</ele>
        <time>2017-07-29T07:55:16Z</time>
      </trkpt>
      <trkpt lat="44.9234660" lon="6.8574460">
        <ele>2247.4</ele>
        <time>2017-07-29T07:55:18Z</time>
      </trkpt>
      <trkpt lat="44.9235270" lon="6.8574150">
        <ele>2248.2</ele>
        <time>2017-07-29T07:55:21Z</time>
      </trkpt>
      <trkpt lat="44.9235530" lon="6.8573970">
        <ele>2248.6</ele>
        <time>2017-07-29T07:55:23Z</time>
      </trkpt>
      <trkpt lat="44.9236230" lon="6.8574020">
        <ele>2249.8</ele>
        <time>2017-07-29T07:55:27Z</time>
      </trkpt>
      <trkpt lat="44.9237250" lon="6.8573870">
        <ele>2251.0</ele>
        <time>2017-07-29T07:55:32Z</time>
      </trkpt>
      <trkpt lat="44.9237470" lon="6.8573750">
        <ele>2251.2</ele>
        <time>2017-07-29T07:55:33Z</time>
      </trkpt>
      <trkpt lat="44.9237930" lon="6.8573490">
        <ele>2252.0</ele>
        <time>2017-07-29T07:55:35Z</time>
      </trkpt>
      <trkpt lat="44.9238750" lon="6.8573100">
        <ele>2253.2</ele>
        <time>2017-07-29T07:55:39Z</time>
      </trkpt>
      <trkpt lat="44.9238950" lon="6.8573010">
        <ele>2253.6</ele>
        <time>2017-07-29T07:55:40Z</time>
      </trkpt>
      <trkpt lat="44.9239400" lon="6.8572840">
        <ele>2254.4</ele>
        <time>2017-07-29T07:55:42Z</time>
      </trkpt>
      <trkpt lat="44.9240240" lon="6.8572540">
        <ele>2255.8</ele>
        <time>2017-07-29T07:55:46Z</time>
      </trkpt>
      <trkpt lat="44.9240630" lon="6.8572350">
        <ele>2256.6</ele>
        <time>2017-07-29T07:55:48Z</time>
      </trkpt>
      <trkpt lat="44.9240820" lon="6.8572190">
        <ele>2256.8</ele>
        <time>2017-07-29T07:55:49Z</time>
      </trkpt>
      <trkpt lat="44.9241940" lon="6.8571060">
        <ele>2257.8</ele>
        <time>2017-07-29T07:55:54Z</time>
      </trkpt>
      <trkpt lat="44.9242170" lon="6.8570820">
        <ele>2258.0</ele>
        <time>2017-07-29T07:55:55Z</time>
      </trkpt>
      <trkpt lat="44.9243680" lon="6.8569550">
        <ele>2258.2</ele>
        <time>2017-07-29T07:56:01Z</time>
      </trkpt>
      <trkpt lat="44.9245610" lon="6.8568980">
        <ele>2258.2</ele>
        <time>2017-07-29T07:56:09Z</time>
      </trkpt>
      <trkpt lat="44.9247370" lon="6.8568750">
        <ele>2259.0</ele>
        <time>2017-07-29T07:56:16Z</time>
      </trkpt>
      <trkpt lat="44.9249110" lon="6.8568960">
        <ele>2260.4</ele>
        <time>2017-07-29T07:56:22Z</time>
      </trkpt>
      <trkpt lat="44.9249710" lon="6.8569110">
        <ele>2260.6</ele>
        <time>2017-07-29T07:56:24Z</time>
      </trkpt>
      <trkpt lat="44.9251470" lon="6.8569880">
        <ele>2261.4</ele>
        <time>2017-07-29T07:56:30Z</time>
      </trkpt>
      <trkpt lat="44.9251730" lon="6.8570020">
        <ele>2261.6</ele>
        <time>2017-07-29T07:56:31Z</time>
      </trkpt>
      <trkpt lat="44.9252810" lon="6.8570200">
        <ele>2262.0</ele>
        <time>2017-07-29T07:56:35Z</time>
      </trkpt>
      <trkpt lat="44.9253070" lon="6.8570150">
        <ele>2262.4</ele>
        <time>2017-07-29T07:56:36Z</time>
      </trkpt>
      <trkpt lat="44.9253280" lon="6.8570070">
        <ele>2262.8</ele>
        <time>2017-07-29T07:56:37Z</time>
      </trkpt>
      <trkpt lat="44.9253720" lon="6.8569830">
        <ele>2263.6</ele>
        <time>2017-07-29T07:56:39Z</time>
      </trkpt>
      <trkpt lat="44.9254140" lon="6.8569550">
        <ele>2264.8</ele>
        <time>2017-07-29T07:56:41Z</time>
      </trkpt>
      <trkpt lat="44.9254750" lon="6.8569180">
        <ele>2266.2</ele>
        <time>2017-07-29T07:56:44Z</time>
      </trkpt>
      <trkpt lat="44.9255010" lon="6.8569060">
        <ele>2266.4</ele>
        <time>2017-07-29T07:56:45Z</time>
      </trkpt>
      <trkpt lat="44.9255430" lon="6.8568790">
        <ele>2267.4</ele>
        <time>2017-07-29T07:56:47Z</time>
      </trkpt>
      <trkpt lat="44.9256350" lon="6.8568230">
        <ele>2268.8</ele>
        <time>2017-07-29T07:56:51Z</time>
      </trkpt>
      <trkpt lat="44.9256560" lon="6.8568110">
        <ele>2269.0</ele>
        <time>2017-07-29T07:56:52Z</time>
      </trkpt>
      <trkpt lat="44.9258390" lon="6.8566950">
        <ele>2267.6</ele>
        <time>2017-07-29T07:57:00Z</time>
      </trkpt>
      <trkpt lat="44.9258620" lon="6.8566890">
        <ele>2268.6</ele>
        <time>2017-07-29T07:57:01Z</time>
      </trkpt>
      <trkpt lat="44.9259040" lon="6.8566640">
        <ele>2270.6</ele>
        <time>2017-07-29T07:57:03Z</time>
      </trkpt>
      <trkpt lat="44.9260200" lon="6.8566190">
        <ele>2271.8</ele>
        <time>2017-07-29T07:57:08Z</time>
      </trkpt>
      <trkpt lat="44.9261120" lon="6.8565770">
        <ele>2272.8</ele>
        <time>2017-07-29T07:57:12Z</time>
      </trkpt>
      <trkpt lat="44.9262090" lon="6.8565460">
        <ele>2274.2</ele>
        <time>2017-07-29T07:57:16Z</time>
      </trkpt>
      <trkpt lat="44.9262330" lon="6.8565370">
        <ele>2274.6</ele>
        <time>2017-07-29T07:57:17Z</time>
      </trkpt>
      <trkpt lat="44.9263150" lon="6.8565290">
        <ele>2275.2</ele>
        <time>2017-07-29T07:57:20Z</time>
      </trkpt>
      <trkpt lat="44.9264220" lon="6.8565310">
        <ele>2276.4</ele>
        <time>2017-07-29T07:57:24Z</time>
      </trkpt>
      <trkpt lat="44.9264450" lon="6.8565380">
        <ele>2276.6</ele>
        <time>2017-07-29T07:57:25Z</time>
      </trkpt>
      <trkpt lat="44.9265740" lon="6.8565250">
        <ele>2277.4</ele>
        <time>2017-07-29T07:57:30Z</time>
      </trkpt>
      <trkpt lat="44.9265990" lon="6.8565220">
        <ele>2277.6</ele>
        <time>2017-07-29T07:57:31Z</time>
      </trkpt>
      <trkpt lat="44.9267560" lon="6.8564650">
        <ele>2278.6</ele>
        <time>2017-07-29T07:57:37Z</time>
      </trkpt>
      <trkpt lat="44.9267880" lon="6.8564240">
        <ele>2279.2</ele>
        <time>2017-07-29T07:57:39Z</time>
      </trkpt>
      <trkpt lat="44.9267820" lon="6.8563450">
        <ele>2280.0</ele>
        <time>2017-07-29T07:57:41Z</time>
      </trkpt>
      <trkpt lat="44.9267150" lon="6.8563160">
        <ele>2280.4</ele>
        <time>2017-07-29T07:57:44Z</time>
      </trkpt>
      <trkpt lat="44.9266620" lon="6.8563380">
        <ele>2280.4</ele>
        <time>2017-07-29T07:57:46Z</time>
      </trkpt>
      <trkpt lat="44.9266090" lon="6.8563540">
        <ele>2281.0</ele>
        <time>2017-07-29T07:57:48Z</time>
      </trkpt>
      <trkpt lat="44.9265520" lon="6.8563590">
        <ele>2281.2</ele>
        <time>2017-07-29T07:57:50Z</time>
      </trkpt>
      <trkpt lat="44.9264070" lon="6.8563490">
        <ele>2281.8</ele>
        <time>2017-07-29T07:57:55Z</time>
      </trkpt>
      <trkpt lat="44.9263510" lon="6.8563360">
        <ele>2282.2</ele>
        <time>2017-07-29T07:57:57Z</time>
      </trkpt>
      <trkpt lat="44.9262290" lon="6.8562990">
        <ele>2283.2</ele>
        <time>2017-07-29T07:58:02Z</time>
      </trkpt>
      <trkpt lat="44.9260810" lon="6.8562460">
        <ele>2284.2</ele>
        <time>2017-07-29T07:58:08Z</time>
      </trkpt>
      <trkpt lat="44.9259040" lon="6.8562510">
        <ele>2285.4</ele>
        <time>2017-07-29T07:58:15Z</time>
      </trkpt>
      <trkpt lat="44.9257790" lon="6.8562640">
        <ele>2286.6</ele>
        <time>2017-07-29T07:58:20Z</time>
      </trkpt>
      <trkpt lat="44.9257290" lon="6.8562550">
        <ele>2287.4</ele>
        <time>2017-07-29T07:58:22Z</time>
      </trkpt>
      <trkpt lat="44.9257040" lon="6.8562510">
        <ele>2287.6</ele>
        <time>2017-07-29T07:58:23Z</time>
      </trkpt>
      <trkpt lat="44.9256280" lon="6.8562340">
        <ele>2288.8</ele>
        <time>2017-07-29T07:58:26Z</time>
      </trkpt>
      <trkpt lat="44.9255030" lon="6.8562340">
        <ele>2290.6</ele>
        <time>2017-07-29T07:58:31Z</time>
      </trkpt>
      <trkpt lat="44.9254350" lon="6.8562270">
        <ele>2291.8</ele>
        <time>2017-07-29T07:58:34Z</time>
      </trkpt>
      <trkpt lat="44.9253600" lon="6.8562230">
        <ele>2293.0</ele>
        <time>2017-07-29T07:58:37Z</time>
      </trkpt>
      <trkpt lat="44.9252880" lon="6.8562280">
        <ele>2294.0</ele>
        <time>2017-07-29T07:58:40Z</time>
      </trkpt>
      <trkpt lat="44.9251990" lon="6.8562750">
        <ele>2295.0</ele>
        <time>2017-07-29T07:58:44Z</time>
      </trkpt>
      <trkpt lat="44.9251430" lon="6.8562760">
        <ele>2296.0</ele>
        <time>2017-07-29T07:58:46Z</time>
      </trkpt>
      <trkpt lat="44.9250860" lon="6.8562150">
        <ele>2297.0</ele>
        <time>2017-07-29T07:58:49Z</time>
      </trkpt>
      <trkpt lat="44.9251020" lon="6.8561740">
        <ele>2297.2</ele>
        <time>2017-07-29T07:58:50Z</time>
      </trkpt>
      <trkpt lat="44.9251600" lon="6.8561510">
        <ele>2298.0</ele>
        <time>2017-07-29T07:58:52Z</time>
      </trkpt>
      <trkpt lat="44.9252390" lon="6.8561320">
        <ele>2298.4</ele>
        <time>2017-07-29T07:58:55Z</time>
      </trkpt>
      <trkpt lat="44.9252640" lon="6.8561220">
        <ele>2298.8</ele>
        <time>2017-07-29T07:58:56Z</time>
      </trkpt>
      <trkpt lat="44.9253170" lon="6.8560910">
        <ele>2299.8</ele>
        <time>2017-07-29T07:58:58Z</time>
      </trkpt>
      <trkpt lat="44.9254060" lon="6.8560750">
        <ele>2300.8</ele>
        <time>2017-07-29T07:59:01Z</time>
      </trkpt>
      <trkpt lat="44.9254980" lon="6.8560590">
        <ele>2301.6</ele>
        <time>2017-07-29T07:59:04Z</time>
      </trkpt>
      <trkpt lat="44.9256330" lon="6.8560220">
        <ele>2302.0</ele>
        <time>2017-07-29T07:59:09Z</time>
      </trkpt>
      <trkpt lat="44.9257020" lon="6.8560080">
        <ele>2302.2</ele>
        <time>2017-07-29T07:59:12Z</time>
      </trkpt>
      <trkpt lat="44.9258770" lon="6.8559540">
        <ele>2303.2</ele>
        <time>2017-07-29T07:59:20Z</time>
      </trkpt>
      <trkpt lat="44.9260340" lon="6.8559210">
        <ele>2304.2</ele>
        <time>2017-07-29T07:59:27Z</time>
      </trkpt>
      <trkpt lat="44.9260560" lon="6.8559210">
        <ele>2304.4</ele>
        <time>2017-07-29T07:59:28Z</time>
      </trkpt>
      <trkpt lat="44.9261360" lon="6.8558790">
        <ele>2305.6</ele>
        <time>2017-07-29T07:59:32Z</time>
      </trkpt>
      <trkpt lat="44.9261630" lon="6.8558780">
        <ele>2306.0</ele>
        <time>2017-07-29T07:59:33Z</time>
      </trkpt>
      <trkpt lat="44.9261860" lon="6.8558750">
        <ele>2306.6</ele>
        <time>2017-07-29T07:59:34Z</time>
      </trkpt>
      <trkpt lat="44.9262480" lon="6.8558650">
        <ele>2307.6</ele>
        <time>2017-07-29T07:59:37Z</time>
      </trkpt>
      <trkpt lat="44.9262860" lon="6.8558500">
        <ele>2308.8</ele>
        <time>2017-07-29T07:59:39Z</time>
      </trkpt>
      <trkpt lat="44.9263330" lon="6.8558180">
        <ele>2309.8</ele>
        <time>2017-07-29T07:59:42Z</time>
      </trkpt>
      <trkpt lat="44.9263400" lon="6.8557960">
        <ele>2310.4</ele>
        <time>2017-07-29T07:59:43Z</time>
      </trkpt>
      <trkpt lat="44.9263400" lon="6.8557770">
        <ele>2311.0</ele>
        <time>2017-07-29T07:59:44Z</time>
      </trkpt>
      <trkpt lat="44.9263210" lon="6.8557470">
        <ele>2311.6</ele>
        <time>2017-07-29T07:59:46Z</time>
      </trkpt>
      <trkpt lat="44.9262860" lon="6.8557440">
        <ele>2312.4</ele>
        <time>2017-07-29T07:59:48Z</time>
      </trkpt>
      <trkpt lat="44.9262710" lon="6.8557390">
        <ele>2313.0</ele>
        <time>2017-07-29T07:59:49Z</time>
      </trkpt>
      <trkpt lat="44.9262560" lon="6.8557340">
        <ele>2313.2</ele>
        <time>2017-07-29T07:59:50Z</time>
      </trkpt>
      <trkpt lat="44.9262170" lon="6.8557130">
        <ele>2314.4</ele>
        <time>2017-07-29T07:59:53Z</time>
      </trkpt>
      <trkpt lat="44.9261880" lon="6.8556810">
        <ele>2315.6</ele>
        <time>2017-07-29T07:59:56Z</time>
      </trkpt>
      <trkpt lat="44.9261610" lon="6.8556800">
        <ele>2316.6</ele>
        <time>2017-07-29T07:59:58Z</time>
      </trkpt>
      <trkpt lat="44.9261240" lon="6.8556800">
        <ele>2318.0</ele>
        <time>2017-07-29T08:00:01Z</time>
      </trkpt>
      <trkpt lat="44.9260990" lon="6.8556740">
        <ele>2318.8</ele>
        <time>2017-07-29T08:00:03Z</time>
      </trkpt>
      <trkpt lat="44.9260880" lon="6.8556700">
        <ele>2319.2</ele>
        <time>2017-07-29T08:00:04Z</time>
      </trkpt>
      <trkpt lat="44.9260460" lon="6.8556600">
        <ele>2320.4</ele>
        <time>2017-07-29T08:00:07Z</time>
      </trkpt>
      <trkpt lat="44.9259980" lon="6.8556450">
        <ele>2321.8</ele>
        <time>2017-07-29T08:00:10Z</time>
      </trkpt>
      <trkpt lat="44.9259690" lon="6.8556440">
        <ele>2322.4</ele>
        <time>2017-07-29T08:00:12Z</time>
      </trkpt>
      <trkpt lat="44.9259430" lon="6.8556460">
        <ele>2323.2</ele>
        <time>2017-07-29T08:00:14Z</time>
      </trkpt>
      <trkpt lat="44.9259040" lon="6.8556350">
        <ele>2324.2</ele>
        <time>2017-07-29T08:00:17Z</time>
      </trkpt>
      <trkpt lat="44.9258680" lon="6.8556250">
        <ele>2325.2</ele>
        <time>2017-07-29T08:00:20Z</time>
      </trkpt>
      <trkpt lat="44.9258540" lon="6.8556140">
        <ele>2325.4</ele>
        <time>2017-07-29T08:00:21Z</time>
      </trkpt>
      <trkpt lat="44.9258150" lon="6.8555870">
        <ele>2326.4</ele>
        <time>2017-07-29T08:00:24Z</time>
      </trkpt>
      <trkpt lat="44.9257890" lon="6.8555850">
        <ele>2327.0</ele>
        <time>2017-07-29T08:00:26Z</time>
      </trkpt>
      <trkpt lat="44.9257750" lon="6.8555800">
        <ele>2327.2</ele>
        <time>2017-07-29T08:00:27Z</time>
      </trkpt>
      <trkpt lat="44.9257510" lon="6.8555760">
        <ele>2327.8</ele>
        <time>2017-07-29T08:00:29Z</time>
      </trkpt>
      <trkpt lat="44.9257090" lon="6.8555640">
        <ele>2328.8</ele>
        <time>2017-07-29T08:00:33Z</time>
      </trkpt>
      <trkpt lat="44.9256970" lon="6.8555620">
        <ele>2329.2</ele>
        <time>2017-07-29T08:00:34Z</time>
      </trkpt>
      <trkpt lat="44.9256770" lon="6.8555580">
        <ele>2330.0</ele>
        <time>2017-07-29T08:00:36Z</time>
      </trkpt>
      <trkpt lat="44.9256280" lon="6.8555440">
        <ele>2331.0</ele>
        <time>2017-07-29T08:00:40Z</time>
      </trkpt>
      <trkpt lat="44.9255730" lon="6.8555340">
        <ele>2332.0</ele>
        <time>2017-07-29T08:00:44Z</time>
      </trkpt>
      <trkpt lat="44.9255240" lon="6.8555290">
        <ele>2333.0</ele>
        <time>2017-07-29T08:00:47Z</time>
      </trkpt>
      <trkpt lat="44.9254110" lon="6.8555100">
        <ele>2334.2</ele>
        <time>2017-07-29T08:00:54Z</time>
      </trkpt>
      <trkpt lat="44.9253650" lon="6.8554940">
        <ele>2334.8</ele>
        <time>2017-07-29T08:00:57Z</time>
      </trkpt>
      <trkpt lat="44.9253380" lon="6.8554720">
        <ele>2335.2</ele>
        <time>2017-07-29T08:00:59Z</time>
      </trkpt>
      <trkpt lat="44.9252820" lon="6.8554430">
        <ele>2336.4</ele>
        <time>2017-07-29T08:01:03Z</time>
      </trkpt>
      <trkpt lat="44.9252700" lon="6.8554410">
        <ele>2336.6</ele>
        <time>2017-07-29T08:01:04Z</time>
      </trkpt>
      <trkpt lat="44.9252290" lon="6.8554330">
        <ele>2337.4</ele>
        <time>2017-07-29T08:01:07Z</time>
      </trkpt>
      <trkpt lat="44.9252180" lon="6.8554420">
        <ele>2337.6</ele>
        <time>2017-07-29T08:01:08Z</time>
      </trkpt>
      <trkpt lat="44.9251890" lon="6.8554420">
        <ele>2338.6</ele>
        <time>2017-07-29T08:01:10Z</time>
      </trkpt>
      <trkpt lat="44.9251680" lon="6.8554260">
        <ele>2339.2</ele>
        <time>2017-07-29T08:01:12Z</time>
      </trkpt>
      <trkpt lat="44.9251380" lon="6.8554100">
        <ele>2339.8</ele>
        <time>2017-07-29T08:01:14Z</time>
      </trkpt>
      <trkpt lat="44.9251140" lon="6.8553960">
        <ele>2340.6</ele>
        <time>2017-07-29T08:01:16Z</time>
      </trkpt>
      <trkpt lat="44.9251000" lon="6.8553910">
        <ele>2340.8</ele>
        <time>2017-07-29T08:01:17Z</time>
      </trkpt>
      <trkpt lat="44.9250610" lon="6.8553750">
        <ele>2341.8</ele>
        <time>2017-07-29T08:01:20Z</time>
      </trkpt>
      <trkpt lat="44.9250170" lon="6.8553520">
        <ele>2343.2</ele>
        <time>2017-07-29T08:01:24Z</time>
      </trkpt>
      <trkpt lat="44.9249980" lon="6.8553580">
        <ele>2343.6</ele>
        <time>2017-07-29T08:01:26Z</time>
      </trkpt>
      <trkpt lat="44.9249530" lon="6.8553800">
        <ele>2344.4</ele>
        <time>2017-07-29T08:01:29Z</time>
      </trkpt>
      <trkpt lat="44.9249380" lon="6.8553870">
        <ele>2344.6</ele>
        <time>2017-07-29T08:01:30Z</time>
      </trkpt>
      <trkpt lat="44.9248950" lon="6.8554110">
        <ele>2345.6</ele>
        <time>2017-07-29T08:01:33Z</time>
      </trkpt>
      <trkpt lat="44.9248630" lon="6.8554240">
        <ele>2346.6</ele>
        <time>2017-07-29T08:01:35Z</time>
      </trkpt>
      <trkpt lat="44.9248250" lon="6.8554410">
        <ele>2347.2</ele>
        <time>2017-07-29T08:01:37Z</time>
      </trkpt>
      <trkpt lat="44.9247600" lon="6.8554530">
        <ele>2347.8</ele>
        <time>2017-07-29T08:01:40Z</time>
      </trkpt>
      <trkpt lat="44.9246740" lon="6.8554250">
        <ele>2348.8</ele>
        <time>2017-07-29T08:01:44Z</time>
      </trkpt>
      <trkpt lat="44.9246570" lon="6.8554160">
        <ele>2349.2</ele>
        <time>2017-07-29T08:01:45Z</time>
      </trkpt>
      <trkpt lat="44.9245790" lon="6.8553430">
        <ele>2350.4</ele>
        <time>2017-07-29T08:01:50Z</time>
      </trkpt>
      <trkpt lat="44.9245620" lon="6.8553380">
        <ele>2350.6</ele>
        <time>2017-07-29T08:01:51Z</time>
      </trkpt>
      <trkpt lat="44.9244970" lon="6.8553150">
        <ele>2351.4</ele>
        <time>2017-07-29T08:01:54Z</time>
      </trkpt>
      <trkpt lat="44.9244190" lon="6.8552680">
        <ele>2352.2</ele>
        <time>2017-07-29T08:01:57Z</time>
      </trkpt>
      <trkpt lat="44.9243930" lon="6.8552570">
        <ele>2352.8</ele>
        <time>2017-07-29T08:01:58Z</time>
      </trkpt>
      <trkpt lat="44.9243710" lon="6.8552260">
        <ele>2353.0</ele>
        <time>2017-07-29T08:01:59Z</time>
      </trkpt>
      <trkpt lat="44.9243750" lon="6.8551210">
        <ele>2353.6</ele>
        <time>2017-07-29T08:02:01Z</time>
      </trkpt>
      <trkpt lat="44.9243420" lon="6.8549730">
        <ele>2353.8</ele>
        <time>2017-07-29T08:02:03Z</time>
      </trkpt>
      <trkpt lat="44.9243200" lon="6.8549000">
        <ele>2353.6</ele>
        <time>2017-07-29T08:02:04Z</time>
      </trkpt>
      <trkpt lat="44.9242920" lon="6.8548190">
        <ele>2353.8</ele>
        <time>2017-07-29T08:02:05Z</time>
      </trkpt>
      <trkpt lat="44.9242270" lon="6.8545850">
        <ele>2354.0</ele>
        <time>2017-07-29T08:02:08Z</time>
      </trkpt>
      <trkpt lat="44.9242200" lon="6.8545290">
        <ele>2354.0</ele>
        <time>2017-07-29T08:02:09Z</time>
      </trkpt>
      <trkpt lat="44.9242780" lon="6.8544850">
        <ele>2353.4</ele>
        <time>2017-07-29T08:02:11Z</time>
      </trkpt>
      <trkpt lat="44.9243780" lon="6.8544680">
        <ele>2352.8</ele>
        <time>2017-07-29T08:02:13Z</time>
      </trkpt>
      <trkpt lat="44.9244420" lon="6.8544500">
        <ele>2352.4</ele>
        <time>2017-07-29T08:02:14Z</time>
      </trkpt>
      <trkpt lat="44.9246360" lon="6.8543960">
        <ele>2351.4</ele>
        <time>2017-07-29T08:02:17Z</time>
      </trkpt>
      <trkpt lat="44.9246810" lon="6.8543790">
        <ele>2350.6</ele>
        <time>2017-07-29T08:02:18Z</time>
      </trkpt>
      <trkpt lat="44.9247060" lon="6.8543290">
        <ele>2350.0</ele>
        <time>2017-07-29T08:02:19Z</time>
      </trkpt>
      <trkpt lat="44.9247230" lon="6.8542710">
        <ele>2349.6</ele>
        <time>2017-07-29T08:02:20Z</time>
      </trkpt>
      <trkpt lat="44.9247120" lon="6.8541910">
        <ele>2348.8</ele>
        <time>2017-07-29T08:02:21Z</time>
      </trkpt>
      <trkpt lat="44.9246930" lon="6.8541020">
        <ele>2347.8</ele>
        <time>2017-07-29T08:02:22Z</time>
      </trkpt>
      <trkpt lat="44.9246580" lon="6.8540110">
        <ele>2347.2</ele>
        <time>2017-07-29T08:02:23Z</time>
      </trkpt>
      <trkpt lat="44.9246360" lon="6.8539320">
        <ele>2346.4</ele>
        <time>2017-07-29T08:02:24Z</time>
      </trkpt>
      <trkpt lat="44.9246040" lon="6.8537790">
        <ele>2344.6</ele>
        <time>2017-07-29T08:02:26Z</time>
      </trkpt>
      <trkpt lat="44.9245550" lon="6.8536000">
        <ele>2342.8</ele>
        <time>2017-07-29T08:02:28Z</time>
      </trkpt>
      <trkpt lat="44.9245190" lon="6.8535030">
        <ele>2341.8</ele>
        <time>2017-07-29T08:02:29Z</time>
      </trkpt>
      <trkpt lat="44.9244860" lon="6.8534110">
        <ele>2340.6</ele>
        <time>2017-07-29T08:02:30Z</time>
      </trkpt>
      <trkpt lat="44.9244510" lon="6.8533420">
        <ele>2339.4</ele>
        <time>2017-07-29T08:02:31Z</time>
      </trkpt>
      <trkpt lat="44.9244200" lon="6.8533060">
        <ele>2338.0</ele>
        <time>2017-07-29T08:02:32Z</time>
      </trkpt>
      <trkpt lat="44.9244150" lon="6.8532760">
        <ele>2337.0</ele>
        <time>2017-07-29T08:02:33Z</time>
      </trkpt>
      <trkpt lat="44.9244160" lon="6.8532360">
        <ele>2335.0</ele>
        <time>2017-07-29T08:02:35Z</time>
      </trkpt>
      <trkpt lat="44.9244240" lon="6.8532200">
        <ele>2334.0</ele>
        <time>2017-07-29T08:02:36Z</time>
      </trkpt>
      <trkpt lat="44.9244770" lon="6.8531570">
        <ele>2332.0</ele>
        <time>2017-07-29T08:02:38Z</time>
      </trkpt>
      <trkpt lat="44.9245210" lon="6.8531160">
        <ele>2331.0</ele>
        <time>2017-07-29T08:02:39Z</time>
      </trkpt>
      <trkpt lat="44.9245950" lon="6.8531000">
        <ele>2329.6</ele>
        <time>2017-07-29T08:02:40Z</time>
      </trkpt>
      <trkpt lat="44.9246540" lon="6.8530850">
        <ele>2328.4</ele>
        <time>2017-07-29T08:02:41Z</time>
      </trkpt>
      <trkpt lat="44.9247040" lon="6.8530690">
        <ele>2327.2</ele>
        <time>2017-07-29T08:02:42Z</time>
      </trkpt>
      <trkpt lat="44.9247240" lon="6.8530540">
        <ele>2326.2</ele>
        <time>2017-07-29T08:02:43Z</time>
      </trkpt>
      <trkpt lat="44.9247250" lon="6.8530180">
        <ele>2325.2</ele>
        <time>2017-07-29T08:02:44Z</time>
      </trkpt>
      <trkpt lat="44.9247150" lon="6.8529690">
        <ele>2324.0</ele>
        <time>2017-07-29T08:02:45Z</time>
      </trkpt>
      <trkpt lat="44.9246960" lon="6.8529090">
        <ele>2322.0</ele>
        <time>2017-07-29T08:02:46Z</time>
      </trkpt>
      <trkpt lat="44.9246730" lon="6.8528330">
        <ele>2321.0</ele>
        <time>2017-07-29T08:02:47Z</time>
      </trkpt>
      <trkpt lat="44.9246490" lon="6.8527490">
        <ele>2320.0</ele>
        <time>2017-07-29T08:02:48Z</time>
      </trkpt>
      <trkpt lat="44.9245830" lon="6.8525700">
        <ele>2318.0</ele>
        <time>2017-07-29T08:02:50Z</time>
      </trkpt>
      <trkpt lat="44.9245060" lon="6.8524120">
        <ele>2315.6</ele>
        <time>2017-07-29T08:02:52Z</time>
      </trkpt>
      <trkpt lat="44.9244640" lon="6.8523520">
        <ele>2314.4</ele>
        <time>2017-07-29T08:02:53Z</time>
      </trkpt>
      <trkpt lat="44.9244210" lon="6.8522910">
        <ele>2313.4</ele>
        <time>2017-07-29T08:02:54Z</time>
      </trkpt>
      <trkpt lat="44.9243140" lon="6.8521380">
        <ele>2311.4</ele>
        <time>2017-07-29T08:02:56Z</time>
      </trkpt>
      <trkpt lat="44.9242570" lon="6.8520580">
        <ele>2310.0</ele>
        <time>2017-07-29T08:02:57Z</time>
      </trkpt>
      <trkpt lat="44.9241970" lon="6.8519810">
        <ele>2309.0</ele>
        <time>2017-07-29T08:02:58Z</time>
      </trkpt>
      <trkpt lat="44.9241320" lon="6.8518970">
        <ele>2307.8</ele>
        <time>2017-07-29T08:02:59Z</time>
      </trkpt>
      <trkpt lat="44.9240640" lon="6.8518160">
        <ele>2306.6</ele>
        <time>2017-07-29T08:03:00Z</time>
      </trkpt>
      <trkpt lat="44.9239940" lon="6.8517420">
        <ele>2305.4</ele>
        <time>2017-07-29T08:03:01Z</time>
      </trkpt>
      <trkpt lat="44.9239350" lon="6.8516840">
        <ele>2304.0</ele>
        <time>2017-07-29T08:03:02Z</time>
      </trkpt>
      <trkpt lat="44.9238940" lon="6.8516590">
        <ele>2303.2</ele>
        <time>2017-07-29T08:03:03Z</time>
      </trkpt>
      <trkpt lat="44.9238730" lon="6.8516360">
        <ele>2302.0</ele>
        <time>2017-07-29T08:03:04Z</time>
      </trkpt>
      <trkpt lat="44.9238920" lon="6.8516060">
        <ele>2300.8</ele>
        <time>2017-07-29T08:03:05Z</time>
      </trkpt>
      <trkpt lat="44.9239070" lon="6.8515750">
        <ele>2299.8</ele>
        <time>2017-07-29T08:03:06Z</time>
      </trkpt>
      <trkpt lat="44.9239630" lon="6.8515250">
        <ele>2297.8</ele>
        <time>2017-07-29T08:03:08Z</time>
      </trkpt>
      <trkpt lat="44.9239590" lon="6.8514820">
        <ele>2296.8</ele>
        <time>2017-07-29T08:03:09Z</time>
      </trkpt>
      <trkpt lat="44.9239800" lon="6.8514460">
        <ele>2294.2</ele>
        <time>2017-07-29T08:03:10Z</time>
      </trkpt>
      <trkpt lat="44.9239760" lon="6.8514010">
        <ele>2293.0</ele>
        <time>2017-07-29T08:03:11Z</time>
      </trkpt>
      <trkpt lat="44.9239630" lon="6.8513600">
        <ele>2292.0</ele>
        <time>2017-07-29T08:03:12Z</time>
      </trkpt>
      <trkpt lat="44.9239450" lon="6.8513260">
        <ele>2291.0</ele>
        <time>2017-07-29T08:03:13Z</time>
      </trkpt>
      <trkpt lat="44.9239120" lon="6.8512450">
        <ele>2288.8</ele>
        <time>2017-07-29T08:03:15Z</time>
      </trkpt>
      <trkpt lat="44.9238960" lon="6.8511990">
        <ele>2287.6</ele>
        <time>2017-07-29T08:03:16Z</time>
      </trkpt>
      <trkpt lat="44.9238920" lon="6.8511610">
        <ele>2286.4</ele>
        <time>2017-07-29T08:03:17Z</time>
      </trkpt>
      <trkpt lat="44.9238980" lon="6.8511260">
        <ele>2285.4</ele>
        <time>2017-07-29T08:03:18Z</time>
      </trkpt>
      <trkpt lat="44.9239120" lon="6.8510980">
        <ele>2284.2</ele>
        <time>2017-07-29T08:03:19Z</time>
      </trkpt>
      <trkpt lat="44.9239380" lon="6.8510670">
        <ele>2283.2</ele>
        <time>2017-07-29T08:03:20Z</time>
      </trkpt>
      <trkpt lat="44.9240110" lon="6.8509980">
        <ele>2281.2</ele>
        <time>2017-07-29T08:03:22Z</time>
      </trkpt>
      <trkpt lat="44.9240630" lon="6.8509820">
        <ele>2280.0</ele>
        <time>2017-07-29T08:03:23Z</time>
      </trkpt>
      <trkpt lat="44.9241070" lon="6.8509550">
        <ele>2279.0</ele>
        <time>2017-07-29T08:03:24Z</time>
      </trkpt>
      <trkpt lat="44.9241520" lon="6.8509280">
        <ele>2278.0</ele>
        <time>2017-07-29T08:03:25Z</time>
      </trkpt>
      <trkpt lat="44.9242430" lon="6.8509160">
        <ele>2276.0</ele>
        <time>2017-07-29T08:03:27Z</time>
      </trkpt>
      <trkpt lat="44.9242670" lon="6.8508930">
        <ele>2275.0</ele>
        <time>2017-07-29T08:03:28Z</time>
      </trkpt>
      <trkpt lat="44.9242260" lon="6.8508400">
        <ele>2273.0</ele>
        <time>2017-07-29T08:03:30Z</time>
      </trkpt>
      <trkpt lat="44.9241730" lon="6.8507490">
        <ele>2271.4</ele>
        <time>2017-07-29T08:03:32Z</time>
      </trkpt>
      <trkpt lat="44.9241130" lon="6.8506500">
        <ele>2268.0</ele>
        <time>2017-07-29T08:03:34Z</time>
      </trkpt>
      <trkpt lat="44.9240850" lon="6.8506090">
        <ele>2266.8</ele>
        <time>2017-07-29T08:03:35Z</time>
      </trkpt>
      <trkpt lat="44.9240930" lon="6.8505660">
        <ele>2266.0</ele>
        <time>2017-07-29T08:03:36Z</time>
      </trkpt>
      <trkpt lat="44.9241000" lon="6.8505270">
        <ele>2265.0</ele>
        <time>2017-07-29T08:03:37Z</time>
      </trkpt>
      <trkpt lat="44.9241100" lon="6.8504920">
        <ele>2264.0</ele>
        <time>2017-07-29T08:03:38Z</time>
      </trkpt>
      <trkpt lat="44.9241270" lon="6.8504660">
        <ele>2263.0</ele>
        <time>2017-07-29T08:03:39Z</time>
      </trkpt>
      <trkpt lat="44.9242030" lon="6.8504660">
        <ele>2261.8</ele>
        <time>2017-07-29T08:03:40Z</time>
      </trkpt>
      <trkpt lat="44.9242580" lon="6.8504570">
        <ele>2260.8</ele>
        <time>2017-07-29T08:03:41Z</time>
      </trkpt>
      <trkpt lat="44.9242990" lon="6.8504500">
        <ele>2260.0</ele>
        <time>2017-07-29T08:03:42Z</time>
      </trkpt>
      <trkpt lat="44.9243460" lon="6.8504410">
        <ele>2259.2</ele>
        <time>2017-07-29T08:03:43Z</time>
      </trkpt>
      <trkpt lat="44.9243830" lon="6.8503790">
        <ele>2257.4</ele>
        <time>2017-07-29T08:03:45Z</time>
      </trkpt>
      <trkpt lat="44.9243510" lon="6.8502880">
        <ele>2255.4</ele>
        <time>2017-07-29T08:03:47Z</time>
      </trkpt>
      <trkpt lat="44.9243190" lon="6.8502190">
        <ele>2254.4</ele>
        <time>2017-07-29T08:03:48Z</time>
      </trkpt>
      <trkpt lat="44.9242940" lon="6.8501550">
        <ele>2253.4</ele>
        <time>2017-07-29T08:03:49Z</time>
      </trkpt>
      <trkpt lat="44.9242320" lon="6.8500100">
        <ele>2251.6</ele>
        <time>2017-07-29T08:03:51Z</time>
      </trkpt>
      <trkpt lat="44.9242050" lon="6.8499400">
        <ele>2250.4</ele>
        <time>2017-07-29T08:03:52Z</time>
      </trkpt>
      <trkpt lat="44.9241560" lon="6.8497940">
        <ele>2248.4</ele>
        <time>2017-07-29T08:03:54Z</time>
      </trkpt>
      <trkpt lat="44.9241290" lon="6.8497260">
        <ele>2247.4</ele>
        <time>2017-07-29T08:03:55Z</time>
      </trkpt>
      <trkpt lat="44.9240990" lon="6.8496600">
        <ele>2245.8</ele>
        <time>2017-07-29T08:03:56Z</time>
      </trkpt>
      <trkpt lat="44.9240620" lon="6.8495980">
        <ele>2244.6</ele>
        <time>2017-07-29T08:03:57Z</time>
      </trkpt>
      <trkpt lat="44.9240270" lon="6.8495320">
        <ele>2242.4</ele>
        <time>2017-07-29T08:03:58Z</time>
      </trkpt>
      <trkpt lat="44.9239950" lon="6.8494740">
        <ele>2241.0</ele>
        <time>2017-07-29T08:03:59Z</time>
      </trkpt>
      <trkpt lat="44.9239470" lon="6.8494510">
        <ele>2239.6</ele>
        <time>2017-07-29T08:04:00Z</time>
      </trkpt>
      <trkpt lat="44.9238920" lon="6.8495200">
        <ele>2238.2</ele>
        <time>2017-07-29T08:04:01Z</time>
      </trkpt>
      <trkpt lat="44.9238430" lon="6.8495150">
        <ele>2237.0</ele>
        <time>2017-07-29T08:04:02Z</time>
      </trkpt>
      <trkpt lat="44.9237900" lon="6.8495360">
        <ele>2235.6</ele>
        <time>2017-07-29T08:04:03Z</time>
      </trkpt>
      <trkpt lat="44.9237390" lon="6.8495480">
        <ele>2234.2</ele>
        <time>2017-07-29T08:04:04Z</time>
      </trkpt>
      <trkpt lat="44.9236840" lon="6.8495790">
        <ele>2232.8</ele>
        <time>2017-07-29T08:04:05Z</time>
      </trkpt>
      <trkpt lat="44.9236310" lon="6.8496140">
        <ele>2231.8</ele>
        <time>2017-07-29T08:04:06Z</time>
      </trkpt>
      <trkpt lat="44.9235720" lon="6.8496350">
        <ele>2230.0</ele>
        <time>2017-07-29T08:04:07Z</time>
      </trkpt>
      <trkpt lat="44.9235180" lon="6.8496300">
        <ele>2228.4</ele>
        <time>2017-07-29T08:04:08Z</time>
      </trkpt>
      <trkpt lat="44.9234720" lon="6.8496390">
        <ele>2227.0</ele>
        <time>2017-07-29T08:04:09Z</time>
      </trkpt>
      <trkpt lat="44.9234390" lon="6.8496610">
        <ele>2225.8</ele>
        <time>2017-07-29T08:04:10Z</time>
      </trkpt>
      <trkpt lat="44.9233940" lon="6.8496980">
        <ele>2224.8</ele>
        <time>2017-07-29T08:04:11Z</time>
      </trkpt>
      <trkpt lat="44.9233360" lon="6.8497150">
        <ele>2223.4</ele>
        <time>2017-07-29T08:04:12Z</time>
      </trkpt>
      <trkpt lat="44.9232890" lon="6.8497330">
        <ele>2222.2</ele>
        <time>2017-07-29T08:04:13Z</time>
      </trkpt>
      <trkpt lat="44.9232360" lon="6.8497290">
        <ele>2221.0</ele>
        <time>2017-07-29T08:04:14Z</time>
      </trkpt>
      <trkpt lat="44.9231830" lon="6.8497110">
        <ele>2220.0</ele>
        <time>2017-07-29T08:04:15Z</time>
      </trkpt>
      <trkpt lat="44.9231220" lon="6.8497190">
        <ele>2218.8</ele>
        <time>2017-07-29T08:04:16Z</time>
      </trkpt>
      <trkpt lat="44.9230620" lon="6.8497920">
        <ele>2217.8</ele>
        <time>2017-07-29T08:04:17Z</time>
      </trkpt>
      <trkpt lat="44.9229300" lon="6.8498470">
        <ele>2215.6</ele>
        <time>2017-07-29T08:04:19Z</time>
      </trkpt>
      <trkpt lat="44.9228660" lon="6.8498670">
        <ele>2214.2</ele>
        <time>2017-07-29T08:04:20Z</time>
      </trkpt>
      <trkpt lat="44.9228210" lon="6.8498670">
        <ele>2212.6</ele>
        <time>2017-07-29T08:04:21Z</time>
      </trkpt>
      <trkpt lat="44.9228020" lon="6.8498470">
        <ele>2210.8</ele>
        <time>2017-07-29T08:04:22Z</time>
      </trkpt>
      <trkpt lat="44.9227670" lon="6.8498210">
        <ele>2209.0</ele>
        <time>2017-07-29T08:04:24Z</time>
      </trkpt>
      <trkpt lat="44.9227890" lon="6.8497650">
        <ele>2204.0</ele>
        <time>2017-07-29T08:04:31Z</time>
      </trkpt>
      <trkpt lat="44.9228200" lon="6.8497320">
        <ele>2203.2</ele>
        <time>2017-07-29T08:04:32Z</time>
      </trkpt>
      <trkpt lat="44.9228650" lon="6.8496940">
        <ele>2202.6</ele>
        <time>2017-07-29T08:04:33Z</time>
      </trkpt>
      <trkpt lat="44.9229320" lon="6.8495820">
        <ele>2201.0</ele>
        <time>2017-07-29T08:04:35Z</time>
      </trkpt>
      <trkpt lat="44.9229270" lon="6.8495070">
        <ele>2199.6</ele>
        <time>2017-07-29T08:04:37Z</time>
      </trkpt>
      <trkpt lat="44.9229060" lon="6.8495300">
        <ele>2199.0</ele>
        <time>2017-07-29T08:04:38Z</time>
      </trkpt>
      <trkpt lat="44.9228950" lon="6.8495670">
        <ele>2198.4</ele>
        <time>2017-07-29T08:04:39Z</time>
      </trkpt>
      <trkpt lat="44.9228820" lon="6.8496000">
        <ele>2197.6</ele>
        <time>2017-07-29T08:04:40Z</time>
      </trkpt>
      <trkpt lat="44.9228720" lon="6.8496170">
        <ele>2197.0</ele>
        <time>2017-07-29T08:04:41Z</time>
      </trkpt>
      <trkpt lat="44.9228520" lon="6.8496060">
        <ele>2192.8</ele>
        <time>2017-07-29T08:04:48Z</time>
      </trkpt>
      <trkpt lat="44.9227890" lon="6.8495700">
        <ele>2191.8</ele>
        <time>2017-07-29T08:04:50Z</time>
      </trkpt>
      <trkpt lat="44.9227470" lon="6.8495240">
        <ele>2191.2</ele>
        <time>2017-07-29T08:04:51Z</time>
      </trkpt>
      <trkpt lat="44.9226520" lon="6.8494340">
        <ele>2190.6</ele>
        <time>2017-07-29T08:04:53Z</time>
      </trkpt>
      <trkpt lat="44.9226130" lon="6.8493670">
        <ele>2190.0</ele>
        <time>2017-07-29T08:04:54Z</time>
      </trkpt>
      <trkpt lat="44.9225970" lon="6.8492890">
        <ele>2189.4</ele>
        <time>2017-07-29T08:04:55Z</time>
      </trkpt>
      <trkpt lat="44.9226000" lon="6.8492190">
        <ele>2188.6</ele>
        <time>2017-07-29T08:04:56Z</time>
      </trkpt>
      <trkpt lat="44.9225990" lon="6.8491660">
        <ele>2188.0</ele>
        <time>2017-07-29T08:04:57Z</time>
      </trkpt>
      <trkpt lat="44.9225960" lon="6.8491370">
        <ele>2187.6</ele>
        <time>2017-07-29T08:04:58Z</time>
      </trkpt>
      <trkpt lat="44.9226070" lon="6.8490960">
        <ele>2187.0</ele>
        <time>2017-07-29T08:04:59Z</time>
      </trkpt>
      <trkpt lat="44.9226490" lon="6.8489440">
        <ele>2185.6</ele>
        <time>2017-07-29T08:05:02Z</time>
      </trkpt>
      <trkpt lat="44.9226720" lon="6.8488810">
        <ele>2185.2</ele>
        <time>2017-07-29T08:05:03Z</time>
      </trkpt>
      <trkpt lat="44.9226850" lon="6.8488040">
        <ele>2184.4</ele>
        <time>2017-07-29T08:05:04Z</time>
      </trkpt>
      <trkpt lat="44.9227310" lon="6.8486570">
        <ele>2183.4</ele>
        <time>2017-07-29T08:05:06Z</time>
      </trkpt>
      <trkpt lat="44.9227670" lon="6.8485730">
        <ele>2183.0</ele>
        <time>2017-07-29T08:05:07Z</time>
      </trkpt>
      <trkpt lat="44.9227700" lon="6.8484860">
        <ele>2182.2</ele>
        <time>2017-07-29T08:05:08Z</time>
      </trkpt>
      <trkpt lat="44.9227560" lon="6.8484050">
        <ele>2180.8</ele>
        <time>2017-07-29T08:05:09Z</time>
      </trkpt>
      <trkpt lat="44.9227390" lon="6.8483330">
        <ele>2178.6</ele>
        <time>2017-07-29T08:05:10Z</time>
      </trkpt>
      <trkpt lat="44.9226710" lon="6.8482490">
        <ele>2176.8</ele>
        <time>2017-07-29T08:05:12Z</time>
      </trkpt>
      <trkpt lat="44.9226300" lon="6.8482070">
        <ele>2176.0</ele>
        <time>2017-07-29T08:05:13Z</time>
      </trkpt>
      <trkpt lat="44.9225880" lon="6.8481620">
        <ele>2174.8</ele>
        <time>2017-07-29T08:05:14Z</time>
      </trkpt>
      <trkpt lat="44.9225430" lon="6.8481250">
        <ele>2173.8</ele>
        <time>2017-07-29T08:05:15Z</time>
      </trkpt>
      <trkpt lat="44.9225100" lon="6.8481090">
        <ele>2173.0</ele>
        <time>2017-07-29T08:05:16Z</time>
      </trkpt>
      <trkpt lat="44.9224500" lon="6.8480970">
        <ele>2172.4</ele>
        <time>2017-07-29T08:05:17Z</time>
      </trkpt>
      <trkpt lat="44.9223420" lon="6.8480620">
        <ele>2170.6</ele>
        <time>2017-07-29T08:05:19Z</time>
      </trkpt>
      <trkpt lat="44.9222970" lon="6.8480560">
        <ele>2169.4</ele>
        <time>2017-07-29T08:05:20Z</time>
      </trkpt>
      <trkpt lat="44.9222510" lon="6.8480550">
        <ele>2168.4</ele>
        <time>2017-07-29T08:05:21Z</time>
      </trkpt>
      <trkpt lat="44.9221940" lon="6.8480660">
        <ele>2167.6</ele>
        <time>2017-07-29T08:05:22Z</time>
      </trkpt>
      <trkpt lat="44.9221350" lon="6.8480840">
        <ele>2166.4</ele>
        <time>2017-07-29T08:05:23Z</time>
      </trkpt>
      <trkpt lat="44.9220810" lon="6.8481100">
        <ele>2165.2</ele>
        <time>2017-07-29T08:05:24Z</time>
      </trkpt>
      <trkpt lat="44.9220090" lon="6.8480950">
        <ele>2164.2</ele>
        <time>2017-07-29T08:05:25Z</time>
      </trkpt>
      <trkpt lat="44.9218710" lon="6.8480570">
        <ele>2162.8</ele>
        <time>2017-07-29T08:05:27Z</time>
      </trkpt>
      <trkpt lat="44.9218080" lon="6.8480350">
        <ele>2161.8</ele>
        <time>2017-07-29T08:05:28Z</time>
      </trkpt>
      <trkpt lat="44.9217480" lon="6.8480110">
        <ele>2160.6</ele>
        <time>2017-07-29T08:05:29Z</time>
      </trkpt>
      <trkpt lat="44.9216540" lon="6.8479830">
        <ele>2159.2</ele>
        <time>2017-07-29T08:05:31Z</time>
      </trkpt>
      <trkpt lat="44.9215370" lon="6.8480410">
        <ele>2157.2</ele>
        <time>2017-07-29T08:05:33Z</time>
      </trkpt>
      <trkpt lat="44.9214840" lon="6.8480630">
        <ele>2155.0</ele>
        <time>2017-07-29T08:05:34Z</time>
      </trkpt>
      <trkpt lat="44.9214310" lon="6.8480870">
        <ele>2154.0</ele>
        <time>2017-07-29T08:05:35Z</time>
      </trkpt>
      <trkpt lat="44.9213680" lon="6.8481400">
        <ele>2152.8</ele>
        <time>2017-07-29T08:05:36Z</time>
      </trkpt>
      <trkpt lat="44.9213150" lon="6.8481840">
        <ele>2151.4</ele>
        <time>2017-07-29T08:05:37Z</time>
      </trkpt>
      <trkpt lat="44.9212590" lon="6.8482200">
        <ele>2150.4</ele>
        <time>2017-07-29T08:05:38Z</time>
      </trkpt>
      <trkpt lat="44.9212010" lon="6.8482430">
        <ele>2149.4</ele>
        <time>2017-07-29T08:05:39Z</time>
      </trkpt>
      <trkpt lat="44.9211450" lon="6.8482120">
        <ele>2148.4</ele>
        <time>2017-07-29T08:05:40Z</time>
      </trkpt>
      <trkpt lat="44.9211140" lon="6.8481400">
        <ele>2147.0</ele>
        <time>2017-07-29T08:05:41Z</time>
      </trkpt>
      <trkpt lat="44.9211000" lon="6.8480440">
        <ele>2146.0</ele>
        <time>2017-07-29T08:05:42Z</time>
      </trkpt>
      <trkpt lat="44.9210800" lon="6.8479530">
        <ele>2144.8</ele>
        <time>2017-07-29T08:05:43Z</time>
      </trkpt>
      <trkpt lat="44.9210600" lon="6.8478590">
        <ele>2144.0</ele>
        <time>2017-07-29T08:05:44Z</time>
      </trkpt>
      <trkpt lat="44.9210340" lon="6.8477390">
        <ele>2142.6</ele>
        <time>2017-07-29T08:05:45Z</time>
      </trkpt>
      <trkpt lat="44.9209790" lon="6.8475410">
        <ele>2140.4</ele>
        <time>2017-07-29T08:05:47Z</time>
      </trkpt>
      <trkpt lat="44.9209230" lon="6.8473480">
        <ele>2138.6</ele>
        <time>2017-07-29T08:05:49Z</time>
      </trkpt>
      <trkpt lat="44.9208980" lon="6.8472650">
        <ele>2137.2</ele>
        <time>2017-07-29T08:05:50Z</time>
      </trkpt>
      <trkpt lat="44.9208620" lon="6.8471960">
        <ele>2134.8</ele>
        <time>2017-07-29T08:05:52Z</time>
      </trkpt>
      <trkpt lat="44.9208460" lon="6.8471760">
        <ele>2133.8</ele>
        <time>2017-07-29T08:05:53Z</time>
      </trkpt>
      <trkpt lat="44.9208270" lon="6.8471390">
        <ele>2132.2</ele>
        <time>2017-07-29T08:05:54Z</time>
      </trkpt>
      <trkpt lat="44.9208600" lon="6.8470940">
        <ele>2131.0</ele>
        <time>2017-07-29T08:05:55Z</time>
      </trkpt>
      <trkpt lat="44.9209020" lon="6.8470460">
        <ele>2129.8</ele>
        <time>2017-07-29T08:05:56Z</time>
      </trkpt>
      <trkpt lat="44.9209400" lon="6.8470090">
        <ele>2128.6</ele>
        <time>2017-07-29T08:05:57Z</time>
      </trkpt>
      <trkpt lat="44.9209790" lon="6.8469710">
        <ele>2126.6</ele>
        <time>2017-07-29T08:05:58Z</time>
      </trkpt>
      <trkpt lat="44.9210210" lon="6.8469090">
        <ele>2125.6</ele>
        <time>2017-07-29T08:05:59Z</time>
      </trkpt>
      <trkpt lat="44.9211130" lon="6.8467530">
        <ele>2123.8</ele>
        <time>2017-07-29T08:06:01Z</time>
      </trkpt>
      <trkpt lat="44.9211910" lon="6.8466060">
        <ele>2122.0</ele>
        <time>2017-07-29T08:06:03Z</time>
      </trkpt>
      <trkpt lat="44.9212320" lon="6.8465390">
        <ele>2121.0</ele>
        <time>2017-07-29T08:06:04Z</time>
      </trkpt>
      <trkpt lat="44.9212840" lon="6.8464820">
        <ele>2120.0</ele>
        <time>2017-07-29T08:06:05Z</time>
      </trkpt>
      <trkpt lat="44.9213470" lon="6.8464240">
        <ele>2118.8</ele>
        <time>2017-07-29T08:06:06Z</time>
      </trkpt>
      <trkpt lat="44.9213990" lon="6.8463680">
        <ele>2117.8</ele>
        <time>2017-07-29T08:06:07Z</time>
      </trkpt>
      <trkpt lat="44.9215140" lon="6.8462760">
        <ele>2116.2</ele>
        <time>2017-07-29T08:06:09Z</time>
      </trkpt>
      <trkpt lat="44.9215690" lon="6.8462190">
        <ele>2115.0</ele>
        <time>2017-07-29T08:06:10Z</time>
      </trkpt>
      <trkpt lat="44.9216450" lon="6.8461400">
        <ele>2113.6</ele>
        <time>2017-07-29T08:06:11Z</time>
      </trkpt>
      <trkpt lat="44.9217160" lon="6.8460510">
        <ele>2112.2</ele>
        <time>2017-07-29T08:06:12Z</time>
      </trkpt>
      <trkpt lat="44.9217730" lon="6.8459480">
        <ele>2111.0</ele>
        <time>2017-07-29T08:06:13Z</time>
      </trkpt>
      <trkpt lat="44.9218550" lon="6.8457200">
        <ele>2109.2</ele>
        <time>2017-07-29T08:06:15Z</time>
      </trkpt>
      <trkpt lat="44.9219310" lon="6.8455130">
        <ele>2107.6</ele>
        <time>2017-07-29T08:06:17Z</time>
      </trkpt>
      <trkpt lat="44.9219540" lon="6.8454350">
        <ele>2106.8</ele>
        <time>2017-07-29T08:06:18Z</time>
      </trkpt>
      <trkpt lat="44.9219810" lon="6.8453760">
        <ele>2106.0</ele>
        <time>2017-07-29T08:06:19Z</time>
      </trkpt>
      <trkpt lat="44.9220340" lon="6.8453190">
        <ele>2105.0</ele>
        <time>2017-07-29T08:06:20Z</time>
      </trkpt>
      <trkpt lat="44.9220710" lon="6.8452700">
        <ele>2103.8</ele>
        <time>2017-07-29T08:06:21Z</time>
      </trkpt>
      <trkpt lat="44.9221120" lon="6.8452040">
        <ele>2102.2</ele>
        <time>2017-07-29T08:06:22Z</time>
      </trkpt>
      <trkpt lat="44.9221530" lon="6.8450390">
        <ele>2100.8</ele>
        <time>2017-07-29T08:06:24Z</time>
      </trkpt>
      <trkpt lat="44.9221620" lon="6.8449550">
        <ele>2100.2</ele>
        <time>2017-07-29T08:06:25Z</time>
      </trkpt>
      <trkpt lat="44.9221670" lon="6.8448650">
        <ele>2099.4</ele>
        <time>2017-07-29T08:06:26Z</time>
      </trkpt>
      <trkpt lat="44.9221780" lon="6.8447220">
        <ele>2098.2</ele>
        <time>2017-07-29T08:06:28Z</time>
      </trkpt>
      <trkpt lat="44.9221990" lon="6.8446810">
        <ele>2097.4</ele>
        <time>2017-07-29T08:06:29Z</time>
      </trkpt>
      <trkpt lat="44.9222200" lon="6.8446260">
        <ele>2096.8</ele>
        <time>2017-07-29T08:06:30Z</time>
      </trkpt>
      <trkpt lat="44.9222650" lon="6.8445230">
        <ele>2095.2</ele>
        <time>2017-07-29T08:06:32Z</time>
      </trkpt>
      <trkpt lat="44.9222840" lon="6.8444610">
        <ele>2094.4</ele>
        <time>2017-07-29T08:06:33Z</time>
      </trkpt>
      <trkpt lat="44.9223080" lon="6.8443850">
        <ele>2093.6</ele>
        <time>2017-07-29T08:06:34Z</time>
      </trkpt>
      <trkpt lat="44.9223670" lon="6.8442250">
        <ele>2091.8</ele>
        <time>2017-07-29T08:06:36Z</time>
      </trkpt>
      <trkpt lat="44.9224090" lon="6.8441620">
        <ele>2090.6</ele>
        <time>2017-07-29T08:06:37Z</time>
      </trkpt>
      <trkpt lat="44.9224870" lon="6.8440480">
        <ele>2089.4</ele>
        <time>2017-07-29T08:06:39Z</time>
      </trkpt>
      <trkpt lat="44.9225570" lon="6.8439340">
        <ele>2087.8</ele>
        <time>2017-07-29T08:06:41Z</time>
      </trkpt>
      <trkpt lat="44.9225950" lon="6.8438770">
        <ele>2087.0</ele>
        <time>2017-07-29T08:06:42Z</time>
      </trkpt>
      <trkpt lat="44.9226450" lon="6.8438120">
        <ele>2086.0</ele>
        <time>2017-07-29T08:06:43Z</time>
      </trkpt>
      <trkpt lat="44.9226960" lon="6.8437560">
        <ele>2085.4</ele>
        <time>2017-07-29T08:06:44Z</time>
      </trkpt>
      <trkpt lat="44.9227460" lon="6.8436940">
        <ele>2084.4</ele>
        <time>2017-07-29T08:06:45Z</time>
      </trkpt>
      <trkpt lat="44.9227960" lon="6.8436390">
        <ele>2082.6</ele>
        <time>2017-07-29T08:06:46Z</time>
      </trkpt>
      <trkpt lat="44.9228400" lon="6.8435510">
        <ele>2080.4</ele>
        <time>2017-07-29T08:06:48Z</time>
      </trkpt>
      <trkpt lat="44.9228280" lon="6.8435420">
        <ele>2079.6</ele>
        <time>2017-07-29T08:06:49Z</time>
      </trkpt>
      <trkpt lat="44.9228250" lon="6.8435350">
        <ele>2079.0</ele>
        <time>2017-07-29T08:06:50Z</time>
      </trkpt>
      <trkpt lat="44.9228240" lon="6.8435040">
        <ele>2077.8</ele>
        <time>2017-07-29T08:06:52Z</time>
      </trkpt>
      <trkpt lat="44.9228620" lon="6.8435380">
        <ele>2075.6</ele>
        <time>2017-07-29T08:06:57Z</time>
      </trkpt>
      <trkpt lat="44.9229440" lon="6.8435070">
        <ele>2074.4</ele>
        <time>2017-07-29T08:07:00Z</time>
      </trkpt>
      <trkpt lat="44.9229930" lon="6.8434550">
        <ele>2074.0</ele>
        <time>2017-07-29T08:07:01Z</time>
      </trkpt>
      <trkpt lat="44.9230840" lon="6.8432960">
        <ele>2073.0</ele>
        <time>2017-07-29T08:07:03Z</time>
      </trkpt>
      <trkpt lat="44.9232300" lon="6.8430640">
        <ele>2071.6</ele>
        <time>2017-07-29T08:07:06Z</time>
      </trkpt>
      <trkpt lat="44.9233420" lon="6.8429510">
        <ele>2070.2</ele>
        <time>2017-07-29T08:07:08Z</time>
      </trkpt>
      <trkpt lat="44.9234640" lon="6.8428650">
        <ele>2067.8</ele>
        <time>2017-07-29T08:07:10Z</time>
      </trkpt>
      <trkpt lat="44.9235150" lon="6.8428270">
        <ele>2066.6</ele>
        <time>2017-07-29T08:07:11Z</time>
      </trkpt>
      <trkpt lat="44.9235580" lon="6.8427920">
        <ele>2065.6</ele>
        <time>2017-07-29T08:07:12Z</time>
      </trkpt>
      <trkpt lat="44.9236030" lon="6.8427580">
        <ele>2064.4</ele>
        <time>2017-07-29T08:07:13Z</time>
      </trkpt>
      <trkpt lat="44.9236900" lon="6.8426780">
        <ele>2062.6</ele>
        <time>2017-07-29T08:07:15Z</time>
      </trkpt>
      <trkpt lat="44.9237000" lon="6.8426480">
        <ele>2061.6</ele>
        <time>2017-07-29T08:07:16Z</time>
      </trkpt>
      <trkpt lat="44.9237220" lon="6.8426230">
        <ele>2060.4</ele>
        <time>2017-07-29T08:07:17Z</time>
      </trkpt>
      <trkpt lat="44.9237370" lon="6.8425990">
        <ele>2059.4</ele>
        <time>2017-07-29T08:07:18Z</time>
      </trkpt>
      <trkpt lat="44.9237690" lon="6.8425360">
        <ele>2057.6</ele>
        <time>2017-07-29T08:07:20Z</time>
      </trkpt>
      <trkpt lat="44.9237620" lon="6.8425170">
        <ele>2056.8</ele>
        <time>2017-07-29T08:07:21Z</time>
      </trkpt>
      <trkpt lat="44.9237510" lon="6.8425080">
        <ele>2055.8</ele>
        <time>2017-07-29T08:07:22Z</time>
      </trkpt>
      <trkpt lat="44.9237540" lon="6.8424890">
        <ele>2054.4</ele>
        <time>2017-07-29T08:07:24Z</time>
      </trkpt>
      <trkpt lat="44.9237700" lon="6.8424770">
        <ele>2053.8</ele>
        <time>2017-07-29T08:07:25Z</time>
      </trkpt>
      <trkpt lat="44.9237800" lon="6.8424630">
        <ele>2053.0</ele>
        <time>2017-07-29T08:07:26Z</time>
      </trkpt>
      <trkpt lat="44.9237870" lon="6.8424440">
        <ele>2052.2</ele>
        <time>2017-07-29T08:07:27Z</time>
      </trkpt>
      <trkpt lat="44.9237980" lon="6.8424300">
        <ele>2051.4</ele>
        <time>2017-07-29T08:07:28Z</time>
      </trkpt>
      <trkpt lat="44.9238060" lon="6.8424250">
        <ele>2050.2</ele>
        <time>2017-07-29T08:07:30Z</time>
      </trkpt>
      <trkpt lat="44.9238380" lon="6.8424100">
        <ele>2044.4</ele>
        <time>2017-07-29T08:07:43Z</time>
      </trkpt>
      <trkpt lat="44.9238980" lon="6.8423150">
        <ele>2043.4</ele>
        <time>2017-07-29T08:07:45Z</time>
      </trkpt>
      <trkpt lat="44.9239390" lon="6.8422480">
        <ele>2043.4</ele>
        <time>2017-07-29T08:07:46Z</time>
      </trkpt>
      <trkpt lat="44.9239680" lon="6.8421800">
        <ele>2042.8</ele>
        <time>2017-07-29T08:07:47Z</time>
      </trkpt>
      <trkpt lat="44.9239840" lon="6.8421240">
        <ele>2042.2</ele>
        <time>2017-07-29T08:07:48Z</time>
      </trkpt>
      <trkpt lat="44.9240010" lon="6.8420770">
        <ele>2041.4</ele>
        <time>2017-07-29T08:07:49Z</time>
      </trkpt>
      <trkpt lat="44.9240090" lon="6.8420410">
        <ele>2040.8</ele>
        <time>2017-07-29T08:07:50Z</time>
      </trkpt>
      <trkpt lat="44.9239920" lon="6.8419200">
        <ele>2039.4</ele>
        <time>2017-07-29T08:07:53Z</time>
      </trkpt>
      <trkpt lat="44.9239900" lon="6.8417990">
        <ele>2038.2</ele>
        <time>2017-07-29T08:07:56Z</time>
      </trkpt>
      <trkpt lat="44.9240060" lon="6.8417190">
        <ele>2037.6</ele>
        <time>2017-07-29T08:07:58Z</time>
      </trkpt>
      <trkpt lat="44.9240000" lon="6.8415450">
        <ele>2037.2</ele>
        <time>2017-07-29T08:08:01Z</time>
      </trkpt>
      <trkpt lat="44.9239980" lon="6.8414150">
        <ele>2036.6</ele>
        <time>2017-07-29T08:08:03Z</time>
      </trkpt>
      <trkpt lat="44.9240110" lon="6.8413510">
        <ele>2036.2</ele>
        <time>2017-07-29T08:08:04Z</time>
      </trkpt>
      <trkpt lat="44.9240550" lon="6.8412230">
        <ele>2036.0</ele>
        <time>2017-07-29T08:08:06Z</time>
      </trkpt>
      <trkpt lat="44.9240940" lon="6.8410260">
        <ele>2035.8</ele>
        <time>2017-07-29T08:08:08Z</time>
      </trkpt>
      <trkpt lat="44.9241250" lon="6.8408590">
        <ele>2034.6</ele>
        <time>2017-07-29T08:08:10Z</time>
      </trkpt>
      <trkpt lat="44.9241480" lon="6.8407050">
        <ele>2033.4</ele>
        <time>2017-07-29T08:08:12Z</time>
      </trkpt>
      <trkpt lat="44.9241650" lon="6.8406190">
        <ele>2032.8</ele>
        <time>2017-07-29T08:08:13Z</time>
      </trkpt>
      <trkpt lat="44.9241640" lon="6.8405350">
        <ele>2032.2</ele>
        <time>2017-07-29T08:08:14Z</time>
      </trkpt>
      <trkpt lat="44.9241670" lon="6.8403800">
        <ele>2031.2</ele>
        <time>2017-07-29T08:08:16Z</time>
      </trkpt>
      <trkpt lat="44.9241400" lon="6.8401850">
        <ele>2029.4</ele>
        <time>2017-07-29T08:08:18Z</time>
      </trkpt>
      <trkpt lat="44.9241020" lon="6.8400370">
        <ele>2027.6</ele>
        <time>2017-07-29T08:08:20Z</time>
      </trkpt>
      <trkpt lat="44.9240940" lon="6.8399920">
        <ele>2026.6</ele>
        <time>2017-07-29T08:08:21Z</time>
      </trkpt>
      <trkpt lat="44.9240700" lon="6.8399540">
        <ele>2024.8</ele>
        <time>2017-07-29T08:08:22Z</time>
      </trkpt>
      <trkpt lat="44.9240230" lon="6.8399010">
        <ele>2023.0</ele>
        <time>2017-07-29T08:08:24Z</time>
      </trkpt>
      <trkpt lat="44.9240210" lon="6.8398850">
        <ele>2022.2</ele>
        <time>2017-07-29T08:08:25Z</time>
      </trkpt>
      <trkpt lat="44.9240390" lon="6.8398770">
        <ele>2021.4</ele>
        <time>2017-07-29T08:08:26Z</time>
      </trkpt>
      <trkpt lat="44.9240560" lon="6.8398970">
        <ele>2019.8</ele>
        <time>2017-07-29T08:08:28Z</time>
      </trkpt>
      <trkpt lat="44.9240890" lon="6.8399500">
        <ele>2012.8</ele>
        <time>2017-07-29T08:08:47Z</time>
      </trkpt>
      <trkpt lat="44.9241170" lon="6.8398840">
        <ele>2012.4</ele>
        <time>2017-07-29T08:08:49Z</time>
      </trkpt>
      <trkpt lat="44.9241650" lon="6.8397330">
        <ele>2011.8</ele>
        <time>2017-07-29T08:08:52Z</time>
      </trkpt>
      <trkpt lat="44.9241750" lon="6.8396510">
        <ele>2011.0</ele>
        <time>2017-07-29T08:08:54Z</time>
      </trkpt>
      <trkpt lat="44.9241730" lon="6.8396310">
        <ele>2010.6</ele>
        <time>2017-07-29T08:08:55Z</time>
      </trkpt>
      <trkpt lat="44.9226660" lon="6.8399630">
        <ele>2007.8</ele>
        <time>2017-07-29T08:09:06Z</time>
      </trkpt>
      <trkpt lat="44.9225360" lon="6.8399560">
        <ele>2006.4</ele>
        <time>2017-07-29T08:09:10Z</time>
      </trkpt>
      <trkpt lat="44.9224960" lon="6.8398790">
        <ele>2004.2</ele>
        <time>2017-07-29T08:09:18Z</time>
      </trkpt>
      <trkpt lat="44.9224940" lon="6.8398350">
        <ele>2003.6</ele>
        <time>2017-07-29T08:09:21Z</time>
      </trkpt>
      <trkpt lat="44.9225040" lon="6.8398310">
        <ele>2003.0</ele>
        <time>2017-07-29T08:09:24Z</time>
      </trkpt>
      <trkpt lat="44.9225210" lon="6.8398280">
        <ele>2002.4</ele>
        <time>2017-07-29T08:09:26Z</time>
      </trkpt>
      <trkpt lat="44.9225370" lon="6.8398160">
        <ele>2002.0</ele>
        <time>2017-07-29T08:09:28Z</time>
      </trkpt>
      <trkpt lat="44.9225190" lon="6.8396900">
        <ele>1998.8</ele>
        <time>2017-07-29T08:09:46Z</time>
      </trkpt>
      <trkpt lat="44.9224850" lon="6.8396360">
        <ele>1997.2</ele>
        <time>2017-07-29T08:09:53Z</time>
      </trkpt>
      <trkpt lat="44.9224350" lon="6.8395640">
        <ele>1996.8</ele>
        <time>2017-07-29T08:09:55Z</time>
      </trkpt>
      <trkpt lat="44.9223950" lon="6.8394100">
        <ele>1997.2</ele>
        <time>2017-07-29T08:10:11Z</time>
      </trkpt>
      <trkpt lat="44.9223000" lon="6.8392600">
        <ele>1996.8</ele>
        <time>2017-07-29T08:10:16Z</time>
      </trkpt>
      <trkpt lat="44.9222490" lon="6.8391740">
        <ele>1996.2</ele>
        <time>2017-07-29T08:10:18Z</time>
      </trkpt>
      <trkpt lat="44.9221540" lon="6.8389820">
        <ele>1995.6</ele>
        <time>2017-07-29T08:10:22Z</time>
      </trkpt>
      <trkpt lat="44.9220850" lon="6.8388710">
        <ele>1995.0</ele>
        <time>2017-07-29T08:10:24Z</time>
      </trkpt>
      <trkpt lat="44.9220000" lon="6.8387470">
        <ele>1994.6</ele>
        <time>2017-07-29T08:10:27Z</time>
      </trkpt>
      <trkpt lat="44.9218980" lon="6.8385730">
        <ele>1993.8</ele>
        <time>2017-07-29T08:10:31Z</time>
      </trkpt>
      <trkpt lat="44.9218140" lon="6.8384440">
        <ele>1992.4</ele>
        <time>2017-07-29T08:10:34Z</time>
      </trkpt>
      <trkpt lat="44.9217500" lon="6.8383720">
        <ele>1991.4</ele>
        <time>2017-07-29T08:10:36Z</time>
      </trkpt>
      <trkpt lat="44.9216930" lon="6.8383040">
        <ele>1990.6</ele>
        <time>2017-07-29T08:10:38Z</time>
      </trkpt>
      <trkpt lat="44.9216690" lon="6.8382720">
        <ele>1990.2</ele>
        <time>2017-07-29T08:10:39Z</time>
      </trkpt>
      <trkpt lat="44.9216280" lon="6.8382240">
        <ele>1988.8</ele>
        <time>2017-07-29T08:10:41Z</time>
      </trkpt>
      <trkpt lat="44.9215980" lon="6.8382160">
        <ele>1986.8</ele>
        <time>2017-07-29T08:10:43Z</time>
      </trkpt>
      <trkpt lat="44.9215510" lon="6.8382080">
        <ele>1981.8</ele>
        <time>2017-07-29T08:10:48Z</time>
      </trkpt>
      <trkpt lat="44.9215200" lon="6.8381740">
        <ele>1980.4</ele>
        <time>2017-07-29T08:10:50Z</time>
      </trkpt>
      <trkpt lat="44.9214910" lon="6.8381530">
        <ele>1979.0</ele>
        <time>2017-07-29T08:10:52Z</time>
      </trkpt>
      <trkpt lat="44.9214750" lon="6.8381540">
        <ele>1978.2</ele>
        <time>2017-07-29T08:10:53Z</time>
      </trkpt>
      <trkpt lat="44.9214550" lon="6.8381620">
        <ele>1977.4</ele>
        <time>2017-07-29T08:10:54Z</time>
      </trkpt>
      <trkpt lat="44.9214220" lon="6.8381760">
        <ele>1976.4</ele>
        <time>2017-07-29T08:10:56Z</time>
      </trkpt>
      <trkpt lat="44.9214070" lon="6.8381800">
        <ele>1976.0</ele>
        <time>2017-07-29T08:10:57Z</time>
      </trkpt>
      <trkpt lat="44.9213770" lon="6.8381780">
        <ele>1975.0</ele>
        <time>2017-07-29T08:10:59Z</time>
      </trkpt>
      <trkpt lat="44.9213380" lon="6.8381080">
        <ele>1973.8</ele>
        <time>2017-07-29T08:11:02Z</time>
      </trkpt>
      <trkpt lat="44.9213320" lon="6.8380680">
        <ele>1973.2</ele>
        <time>2017-07-29T08:11:03Z</time>
      </trkpt>
      <trkpt lat="44.9213300" lon="6.8380250">
        <ele>1972.8</ele>
        <time>2017-07-29T08:11:04Z</time>
      </trkpt>
      <trkpt lat="44.9213280" lon="6.8379760">
        <ele>1972.2</ele>
        <time>2017-07-29T08:11:05Z</time>
      </trkpt>
      <trkpt lat="44.9213150" lon="6.8378740">
        <ele>1971.2</ele>
        <time>2017-07-29T08:11:07Z</time>
      </trkpt>
      <trkpt lat="44.9213030" lon="6.8378130">
        <ele>1971.0</ele>
        <time>2017-07-29T08:11:08Z</time>
      </trkpt>
      <trkpt lat="44.9212860" lon="6.8377570">
        <ele>1970.0</ele>
        <time>2017-07-29T08:11:09Z</time>
      </trkpt>
      <trkpt lat="44.9212680" lon="6.8377060">
        <ele>1968.2</ele>
        <time>2017-07-29T08:11:10Z</time>
      </trkpt>
      <trkpt lat="44.9212490" lon="6.8376540">
        <ele>1967.6</ele>
        <time>2017-07-29T08:11:11Z</time>
      </trkpt>
      <trkpt lat="44.9212390" lon="6.8376030">
        <ele>1967.0</ele>
        <time>2017-07-29T08:11:12Z</time>
      </trkpt>
      <trkpt lat="44.9212300" lon="6.8375510">
        <ele>1966.6</ele>
        <time>2017-07-29T08:11:13Z</time>
      </trkpt>
      <trkpt lat="44.9212260" lon="6.8374930">
        <ele>1965.8</ele>
        <time>2017-07-29T08:11:14Z</time>
      </trkpt>
      <trkpt lat="44.9212380" lon="6.8374090">
        <ele>1964.6</ele>
        <time>2017-07-29T08:11:16Z</time>
      </trkpt>
      <trkpt lat="44.9212410" lon="6.8373730">
        <ele>1963.2</ele>
        <time>2017-07-29T08:11:18Z</time>
      </trkpt>
      <trkpt lat="44.9212230" lon="6.8373550">
        <ele>1962.2</ele>
        <time>2017-07-29T08:11:20Z</time>
      </trkpt>
      <trkpt lat="44.9212220" lon="6.8373470">
        <ele>1961.2</ele>
        <time>2017-07-29T08:11:22Z</time>
      </trkpt>
      <trkpt lat="44.9212350" lon="6.8373410">
        <ele>1960.8</ele>
        <time>2017-07-29T08:11:23Z</time>
      </trkpt>
      <trkpt lat="44.9212560" lon="6.8373330">
        <ele>1959.8</ele>
        <time>2017-07-29T08:11:24Z</time>
      </trkpt>
      <trkpt lat="44.9212780" lon="6.8373210">
        <ele>1959.2</ele>
        <time>2017-07-29T08:11:25Z</time>
      </trkpt>
      <trkpt lat="44.9212960" lon="6.8372500">
        <ele>1958.4</ele>
        <time>2017-07-29T08:11:27Z</time>
      </trkpt>
      <trkpt lat="44.9212990" lon="6.8372060">
        <ele>1958.0</ele>
        <time>2017-07-29T08:11:28Z</time>
      </trkpt>
      <trkpt lat="44.9212790" lon="6.8370940">
        <ele>1956.6</ele>
        <time>2017-07-29T08:11:30Z</time>
      </trkpt>
      <trkpt lat="44.9212640" lon="6.8370150">
        <ele>1956.0</ele>
        <time>2017-07-29T08:11:31Z</time>
      </trkpt>
      <trkpt lat="44.9212410" lon="6.8369220">
        <ele>1955.4</ele>
        <time>2017-07-29T08:11:32Z</time>
      </trkpt>
      <trkpt lat="44.9212270" lon="6.8368300">
        <ele>1954.8</ele>
        <time>2017-07-29T08:11:33Z</time>
      </trkpt>
      <trkpt lat="44.9212160" lon="6.8367410">
        <ele>1952.8</ele>
        <time>2017-07-29T08:11:34Z</time>
      </trkpt>
      <trkpt lat="44.9211870" lon="6.8365410">
        <ele>1951.2</ele>
        <time>2017-07-29T08:11:36Z</time>
      </trkpt>
      <trkpt lat="44.9211750" lon="6.8363540">
        <ele>1949.4</ele>
        <time>2017-07-29T08:11:38Z</time>
      </trkpt>
      <trkpt lat="44.9211650" lon="6.8361940">
        <ele>1947.6</ele>
        <time>2017-07-29T08:11:40Z</time>
      </trkpt>
      <trkpt lat="44.9211580" lon="6.8361280">
        <ele>1946.4</ele>
        <time>2017-07-29T08:11:41Z</time>
      </trkpt>
      <trkpt lat="44.9211510" lon="6.8360610">
        <ele>1945.4</ele>
        <time>2017-07-29T08:11:42Z</time>
      </trkpt>
      <trkpt lat="44.9211360" lon="6.8359200">
        <ele>1943.2</ele>
        <time>2017-07-29T08:11:44Z</time>
      </trkpt>
      <trkpt lat="44.9211450" lon="6.8358390">
        <ele>1942.2</ele>
        <time>2017-07-29T08:11:45Z</time>
      </trkpt>
      <trkpt lat="44.9211500" lon="6.8357590">
        <ele>1940.8</ele>
        <time>2017-07-29T08:11:46Z</time>
      </trkpt>
      <trkpt lat="44.9211530" lon="6.8356760">
        <ele>1939.4</ele>
        <time>2017-07-29T08:11:47Z</time>
      </trkpt>
      <trkpt lat="44.9211500" lon="6.8355800">
        <ele>1938.0</ele>
        <time>2017-07-29T08:11:48Z</time>
      </trkpt>
      <trkpt lat="44.9211580" lon="6.8354700">
        <ele>1936.6</ele>
        <time>2017-07-29T08:11:49Z</time>
      </trkpt>
      <trkpt lat="44.9211840" lon="6.8353400">
        <ele>1935.2</ele>
        <time>2017-07-29T08:11:50Z</time>
      </trkpt>
      <trkpt lat="44.9212080" lon="6.8352170">
        <ele>1933.8</ele>
        <time>2017-07-29T08:11:51Z</time>
      </trkpt>
      <trkpt lat="44.9212190" lon="6.8350800">
        <ele>1932.6</ele>
        <time>2017-07-29T08:11:52Z</time>
      </trkpt>
      <trkpt lat="44.9212340" lon="6.8349350">
        <ele>1931.2</ele>
        <time>2017-07-29T08:11:53Z</time>
      </trkpt>
      <trkpt lat="44.9212370" lon="6.8347980">
        <ele>1930.2</ele>
        <time>2017-07-29T08:11:54Z</time>
      </trkpt>
      <trkpt lat="44.9212260" lon="6.8346670">
        <ele>1928.8</ele>
        <time>2017-07-29T08:11:55Z</time>
      </trkpt>
      <trkpt lat="44.9212070" lon="6.8345410">
        <ele>1927.4</ele>
        <time>2017-07-29T08:11:56Z</time>
      </trkpt>
      <trkpt lat="44.9211860" lon="6.8344220">
        <ele>1925.6</ele>
        <time>2017-07-29T08:11:57Z</time>
      </trkpt>
      <trkpt lat="44.9211620" lon="6.8343120">
        <ele>1922.6</ele>
        <time>2017-07-29T08:11:58Z</time>
      </trkpt>
      <trkpt lat="44.9210960" lon="6.8342430">
        <ele>1921.4</ele>
        <time>2017-07-29T08:11:59Z</time>
      </trkpt>
      <trkpt lat="44.9210400" lon="6.8341930">
        <ele>1920.0</ele>
        <time>2017-07-29T08:12:00Z</time>
      </trkpt>
      <trkpt lat="44.9210020" lon="6.8341520">
        <ele>1918.4</ele>
        <time>2017-07-29T08:12:01Z</time>
      </trkpt>
      <trkpt lat="44.9210040" lon="6.8340920">
        <ele>1916.8</ele>
        <time>2017-07-29T08:12:02Z</time>
      </trkpt>
      <trkpt lat="44.9210190" lon="6.8340250">
        <ele>1915.2</ele>
        <time>2017-07-29T08:12:03Z</time>
      </trkpt>
      <trkpt lat="44.9210340" lon="6.8339430">
        <ele>1913.8</ele>
        <time>2017-07-29T08:12:04Z</time>
      </trkpt>
      <trkpt lat="44.9210520" lon="6.8338590">
        <ele>1912.4</ele>
        <time>2017-07-29T08:12:05Z</time>
      </trkpt>
      <trkpt lat="44.9210700" lon="6.8337660">
        <ele>1911.0</ele>
        <time>2017-07-29T08:12:06Z</time>
      </trkpt>
      <trkpt lat="44.9210980" lon="6.8336720">
        <ele>1909.8</ele>
        <time>2017-07-29T08:12:07Z</time>
      </trkpt>
      <trkpt lat="44.9211310" lon="6.8335750">
        <ele>1908.4</ele>
        <time>2017-07-29T08:12:08Z</time>
      </trkpt>
      <trkpt lat="44.9211670" lon="6.8334680">
        <ele>1907.0</ele>
        <time>2017-07-29T08:12:09Z</time>
      </trkpt>
      <trkpt lat="44.9212000" lon="6.8333530">
        <ele>1905.0</ele>
        <time>2017-07-29T08:12:10Z</time>
      </trkpt>
      <trkpt lat="44.9212310" lon="6.8332380">
        <ele>1903.0</ele>
        <time>2017-07-29T08:12:11Z</time>
      </trkpt>
      <trkpt lat="44.9212850" lon="6.8331190">
        <ele>1901.2</ele>
        <time>2017-07-29T08:12:12Z</time>
      </trkpt>
      <trkpt lat="44.9213390" lon="6.8330010">
        <ele>1899.6</ele>
        <time>2017-07-29T08:12:13Z</time>
      </trkpt>
      <trkpt lat="44.9213820" lon="6.8328850">
        <ele>1898.0</ele>
        <time>2017-07-29T08:12:14Z</time>
      </trkpt>
      <trkpt lat="44.9214320" lon="6.8327660">
        <ele>1896.0</ele>
        <time>2017-07-29T08:12:15Z</time>
      </trkpt>
      <trkpt lat="44.9214680" lon="6.8326450">
        <ele>1894.0</ele>
        <time>2017-07-29T08:12:16Z</time>
      </trkpt>
      <trkpt lat="44.9215010" lon="6.8325390">
        <ele>1892.4</ele>
        <time>2017-07-29T08:12:17Z</time>
      </trkpt>
      <trkpt lat="44.9215150" lon="6.8324240">
        <ele>1890.6</ele>
        <time>2017-07-29T08:12:18Z</time>
      </trkpt>
      <trkpt lat="44.9215350" lon="6.8323090">
        <ele>1888.8</ele>
        <time>2017-07-29T08:12:19Z</time>
      </trkpt>
      <trkpt lat="44.9215750" lon="6.8321850">
        <ele>1886.6</ele>
        <time>2017-07-29T08:12:20Z</time>
      </trkpt>
      <trkpt lat="44.9216080" lon="6.8320770">
        <ele>1885.2</ele>
        <time>2017-07-29T08:12:21Z</time>
      </trkpt>
      <trkpt lat="44.9216530" lon="6.8319940">
        <ele>1881.6</ele>
        <time>2017-07-29T08:12:22Z</time>
      </trkpt>
      <trkpt lat="44.9216960" lon="6.8319140">
        <ele>1880.0</ele>
        <time>2017-07-29T08:12:23Z</time>
      </trkpt>
      <trkpt lat="44.9217430" lon="6.8318510">
        <ele>1878.6</ele>
        <time>2017-07-29T08:12:24Z</time>
      </trkpt>
      <trkpt lat="44.9217850" lon="6.8317880">
        <ele>1877.2</ele>
        <time>2017-07-29T08:12:25Z</time>
      </trkpt>
      <trkpt lat="44.9218210" lon="6.8317350">
        <ele>1875.4</ele>
        <time>2017-07-29T08:12:26Z</time>
      </trkpt>
      <trkpt lat="44.9218530" lon="6.8316710">
        <ele>1873.8</ele>
        <time>2017-07-29T08:12:27Z</time>
      </trkpt>
      <trkpt lat="44.9218870" lon="6.8316280">
        <ele>1872.0</ele>
        <time>2017-07-29T08:12:28Z</time>
      </trkpt>
      <trkpt lat="44.9219120" lon="6.8315700">
        <ele>1870.4</ele>
        <time>2017-07-29T08:12:29Z</time>
      </trkpt>
      <trkpt lat="44.9219330" lon="6.8315070">
        <ele>1868.8</ele>
        <time>2017-07-29T08:12:30Z</time>
      </trkpt>
      <trkpt lat="44.9219510" lon="6.8314460">
        <ele>1867.4</ele>
        <time>2017-07-29T08:12:31Z</time>
      </trkpt>
      <trkpt lat="44.9219500" lon="6.8313930">
        <ele>1865.8</ele>
        <time>2017-07-29T08:12:32Z</time>
      </trkpt>
      <trkpt lat="44.9219340" lon="6.8313410">
        <ele>1864.2</ele>
        <time>2017-07-29T08:12:33Z</time>
      </trkpt>
      <trkpt lat="44.9219100" lon="6.8312920">
        <ele>1862.8</ele>
        <time>2017-07-29T08:12:34Z</time>
      </trkpt>
      <trkpt lat="44.9218820" lon="6.8312370">
        <ele>1861.4</ele>
        <time>2017-07-29T08:12:35Z</time>
      </trkpt>
      <trkpt lat="44.9218350" lon="6.8311900">
        <ele>1859.8</ele>
        <time>2017-07-29T08:12:36Z</time>
      </trkpt>
      <trkpt lat="44.9217860" lon="6.8311500">
        <ele>1858.4</ele>
        <time>2017-07-29T08:12:37Z</time>
      </trkpt>
      <trkpt lat="44.9217380" lon="6.8311170">
        <ele>1857.0</ele>
        <time>2017-07-29T08:12:38Z</time>
      </trkpt>
      <trkpt lat="44.9217290" lon="6.8310700">
        <ele>1855.6</ele>
        <time>2017-07-29T08:12:39Z</time>
      </trkpt>
      <trkpt lat="44.9217020" lon="6.8310360">
        <ele>1854.0</ele>
        <time>2017-07-29T08:12:40Z</time>
      </trkpt>
      <trkpt lat="44.9217030" lon="6.8310030">
        <ele>1852.8</ele>
        <time>2017-07-29T08:12:41Z</time>
      </trkpt>
      <trkpt lat="44.9217180" lon="6.8309610">
        <ele>1851.4</ele>
        <time>2017-07-29T08:12:42Z</time>
      </trkpt>
      <trkpt lat="44.9217450" lon="6.8309060">
        <ele>1849.8</ele>
        <time>2017-07-29T08:12:43Z</time>
      </trkpt>
      <trkpt lat="44.9217890" lon="6.8308310">
        <ele>1848.0</ele>
        <time>2017-07-29T08:12:44Z</time>
      </trkpt>
      <trkpt lat="44.9218120" lon="6.8307750">
        <ele>1846.6</ele>
        <time>2017-07-29T08:12:45Z</time>
      </trkpt>
      <trkpt lat="44.9218320" lon="6.8307170">
        <ele>1843.6</ele>
        <time>2017-07-29T08:12:46Z</time>
      </trkpt>
      <trkpt lat="44.9218410" lon="6.8306720">
        <ele>1841.8</ele>
        <time>2017-07-29T08:12:47Z</time>
      </trkpt>
      <trkpt lat="44.9218620" lon="6.8305950">
        <ele>1840.2</ele>
        <time>2017-07-29T08:12:48Z</time>
      </trkpt>
      <trkpt lat="44.9218770" lon="6.8304830">
        <ele>1838.4</ele>
        <time>2017-07-29T08:12:49Z</time>
      </trkpt>
      <trkpt lat="44.9218710" lon="6.8303870">
        <ele>1836.8</ele>
        <time>2017-07-29T08:12:50Z</time>
      </trkpt>
      <trkpt lat="44.9218680" lon="6.8303110">
        <ele>1835.0</ele>
        <time>2017-07-29T08:12:51Z</time>
      </trkpt>
      <trkpt lat="44.9218620" lon="6.8302330">
        <ele>1833.2</ele>
        <time>2017-07-29T08:12:52Z</time>
      </trkpt>
      <trkpt lat="44.9218410" lon="6.8301240">
        <ele>1831.6</ele>
        <time>2017-07-29T08:12:53Z</time>
      </trkpt>
      <trkpt lat="44.9218170" lon="6.8300180">
        <ele>1829.8</ele>
        <time>2017-07-29T08:12:54Z</time>
      </trkpt>
      <trkpt lat="44.9217960" lon="6.8299070">
        <ele>1828.2</ele>
        <time>2017-07-29T08:12:55Z</time>
      </trkpt>
      <trkpt lat="44.9217880" lon="6.8298070">
        <ele>1826.2</ele>
        <time>2017-07-29T08:12:56Z</time>
      </trkpt>
      <trkpt lat="44.9217320" lon="6.8297760">
        <ele>1824.6</ele>
        <time>2017-07-29T08:12:57Z</time>
      </trkpt>
      <trkpt lat="44.9217050" lon="6.8297330">
        <ele>1823.0</ele>
        <time>2017-07-29T08:12:58Z</time>
      </trkpt>
      <trkpt lat="44.9217260" lon="6.8296610">
        <ele>1821.6</ele>
        <time>2017-07-29T08:12:59Z</time>
      </trkpt>
      <trkpt lat="44.9217340" lon="6.8295980">
        <ele>1820.2</ele>
        <time>2017-07-29T08:13:00Z</time>
      </trkpt>
      <trkpt lat="44.9217290" lon="6.8295450">
        <ele>1818.8</ele>
        <time>2017-07-29T08:13:01Z</time>
      </trkpt>
      <trkpt lat="44.9217210" lon="6.8295340">
        <ele>1817.2</ele>
        <time>2017-07-29T08:13:02Z</time>
      </trkpt>
      <trkpt lat="44.9217090" lon="6.8295270">
        <ele>1815.6</ele>
        <time>2017-07-29T08:13:03Z</time>
      </trkpt>
      <trkpt lat="44.9216890" lon="6.8294970">
        <ele>1814.4</ele>
        <time>2017-07-29T08:13:04Z</time>
      </trkpt>
      <trkpt lat="44.9216660" lon="6.8294770">
        <ele>1813.0</ele>
        <time>2017-07-29T08:13:05Z</time>
      </trkpt>
      <trkpt lat="44.9216020" lon="6.8295180">
        <ele>1811.2</ele>
        <time>2017-07-29T08:13:06Z</time>
      </trkpt>
      <trkpt lat="44.9215790" lon="6.8295150">
        <ele>1809.6</ele>
        <time>2017-07-29T08:13:07Z</time>
      </trkpt>
      <trkpt lat="44.9215410" lon="6.8295170">
        <ele>1808.4</ele>
        <time>2017-07-29T08:13:08Z</time>
      </trkpt>
      <trkpt lat="44.9214490" lon="6.8295080">
        <ele>1807.2</ele>
        <time>2017-07-29T08:13:09Z</time>
      </trkpt>
      <trkpt lat="44.9213630" lon="6.8295160">
        <ele>1806.0</ele>
        <time>2017-07-29T08:13:10Z</time>
      </trkpt>
      <trkpt lat="44.9212780" lon="6.8295040">
        <ele>1803.0</ele>
        <time>2017-07-29T08:13:11Z</time>
      </trkpt>
      <trkpt lat="44.9211990" lon="6.8294890">
        <ele>1801.6</ele>
        <time>2017-07-29T08:13:12Z</time>
      </trkpt>
      <trkpt lat="44.9211190" lon="6.8294710">
        <ele>1800.2</ele>
        <time>2017-07-29T08:13:13Z</time>
      </trkpt>
      <trkpt lat="44.9210480" lon="6.8294490">
        <ele>1799.2</ele>
        <time>2017-07-29T08:13:14Z</time>
      </trkpt>
      <trkpt lat="44.9209880" lon="6.8294070">
        <ele>1797.8</ele>
        <time>2017-07-29T08:13:15Z</time>
      </trkpt>
      <trkpt lat="44.9209280" lon="6.8293570">
        <ele>1796.6</ele>
        <time>2017-07-29T08:13:16Z</time>
      </trkpt>
      <trkpt lat="44.9208620" lon="6.8293060">
        <ele>1795.2</ele>
        <time>2017-07-29T08:13:17Z</time>
      </trkpt>
      <trkpt lat="44.9207830" lon="6.8292480">
        <ele>1794.0</ele>
        <time>2017-07-29T08:13:18Z</time>
      </trkpt>
      <trkpt lat="44.9207020" lon="6.8291860">
        <ele>1793.0</ele>
        <time>2017-07-29T08:13:19Z</time>
      </trkpt>
      <trkpt lat="44.9206250" lon="6.8291110">
        <ele>1791.6</ele>
        <time>2017-07-29T08:13:20Z</time>
      </trkpt>
      <trkpt lat="44.9205460" lon="6.8290280">
        <ele>1790.6</ele>
        <time>2017-07-29T08:13:21Z</time>
      </trkpt>
      <trkpt lat="44.9204840" lon="6.8289300">
        <ele>1789.0</ele>
        <time>2017-07-29T08:13:22Z</time>
      </trkpt>
      <trkpt lat="44.9204270" lon="6.8288310">
        <ele>1787.8</ele>
        <time>2017-07-29T08:13:23Z</time>
      </trkpt>
      <trkpt lat="44.9203800" lon="6.8287170">
        <ele>1786.2</ele>
        <time>2017-07-29T08:13:24Z</time>
      </trkpt>
      <trkpt lat="44.9203370" lon="6.8286000">
        <ele>1785.2</ele>
        <time>2017-07-29T08:13:25Z</time>
      </trkpt>
      <trkpt lat="44.9202890" lon="6.8284900">
        <ele>1783.8</ele>
        <time>2017-07-29T08:13:26Z</time>
      </trkpt>
      <trkpt lat="44.9202420" lon="6.8283720">
        <ele>1782.8</ele>
        <time>2017-07-29T08:13:27Z</time>
      </trkpt>
      <trkpt lat="44.9201970" lon="6.8282640">
        <ele>1781.4</ele>
        <time>2017-07-29T08:13:28Z</time>
      </trkpt>
      <trkpt lat="44.9201510" lon="6.8281640">
        <ele>1780.2</ele>
        <time>2017-07-29T08:13:29Z</time>
      </trkpt>
      <trkpt lat="44.9201210" lon="6.8280680">
        <ele>1778.8</ele>
        <time>2017-07-29T08:13:30Z</time>
      </trkpt>
      <trkpt lat="44.9200790" lon="6.8279840">
        <ele>1777.6</ele>
        <time>2017-07-29T08:13:31Z</time>
      </trkpt>
      <trkpt lat="44.9200380" lon="6.8279120">
        <ele>1775.8</ele>
        <time>2017-07-29T08:13:32Z</time>
      </trkpt>
      <trkpt lat="44.9200100" lon="6.8278420">
        <ele>1774.2</ele>
        <time>2017-07-29T08:13:33Z</time>
      </trkpt>
      <trkpt lat="44.9199930" lon="6.8277920">
        <ele>1772.4</ele>
        <time>2017-07-29T08:13:34Z</time>
      </trkpt>
      <trkpt lat="44.9199540" lon="6.8277440">
        <ele>1769.0</ele>
        <time>2017-07-29T08:13:35Z</time>
      </trkpt>
      <trkpt lat="44.9199030" lon="6.8277220">
        <ele>1767.2</ele>
        <time>2017-07-29T08:13:36Z</time>
      </trkpt>
      <trkpt lat="44.9198540" lon="6.8277360">
        <ele>1765.6</ele>
        <time>2017-07-29T08:13:37Z</time>
      </trkpt>
      <trkpt lat="44.9198100" lon="6.8277420">
        <ele>1764.0</ele>
        <time>2017-07-29T08:13:38Z</time>
      </trkpt>
      <trkpt lat="44.9197570" lon="6.8277020">
        <ele>1762.0</ele>
        <time>2017-07-29T08:13:39Z</time>
      </trkpt>
      <trkpt lat="44.9197060" lon="6.8276640">
        <ele>1760.2</ele>
        <time>2017-07-29T08:13:40Z</time>
      </trkpt>
      <trkpt lat="44.9196480" lon="6.8276780">
        <ele>1758.4</ele>
        <time>2017-07-29T08:13:41Z</time>
      </trkpt>
      <trkpt lat="44.9195930" lon="6.8276520">
        <ele>1756.6</ele>
        <time>2017-07-29T08:13:42Z</time>
      </trkpt>
      <trkpt lat="44.9195320" lon="6.8276230">
        <ele>1754.8</ele>
        <time>2017-07-29T08:13:43Z</time>
      </trkpt>
      <trkpt lat="44.9194700" lon="6.8275940">
        <ele>1753.0</ele>
        <time>2017-07-29T08:13:44Z</time>
      </trkpt>
      <trkpt lat="44.9194080" lon="6.8275260">
        <ele>1751.4</ele>
        <time>2017-07-29T08:13:45Z</time>
      </trkpt>
      <trkpt lat="44.9193270" lon="6.8275400">
        <ele>1749.8</ele>
        <time>2017-07-29T08:13:46Z</time>
      </trkpt>
      <trkpt lat="44.9192590" lon="6.8274770">
        <ele>1748.2</ele>
        <time>2017-07-29T08:13:47Z</time>
      </trkpt>
      <trkpt lat="44.9191950" lon="6.8273860">
        <ele>1746.2</ele>
        <time>2017-07-29T08:13:48Z</time>
      </trkpt>
      <trkpt lat="44.9191330" lon="6.8272980">
        <ele>1744.0</ele>
        <time>2017-07-29T08:13:49Z</time>
      </trkpt>
      <trkpt lat="44.9190240" lon="6.8273180">
        <ele>1742.2</ele>
        <time>2017-07-29T08:13:50Z</time>
      </trkpt>
      <trkpt lat="44.9189250" lon="6.8273290">
        <ele>1740.6</ele>
        <time>2017-07-29T08:13:51Z</time>
      </trkpt>
      <trkpt lat="44.9188370" lon="6.8273310">
        <ele>1739.2</ele>
        <time>2017-07-29T08:13:52Z</time>
      </trkpt>
      <trkpt lat="44.9187620" lon="6.8273210">
        <ele>1737.6</ele>
        <time>2017-07-29T08:13:53Z</time>
      </trkpt>
      <trkpt lat="44.9187050" lon="6.8272730">
        <ele>1736.0</ele>
        <time>2017-07-29T08:13:54Z</time>
      </trkpt>
      <trkpt lat="44.9186530" lon="6.8272480">
        <ele>1734.4</ele>
        <time>2017-07-29T08:13:55Z</time>
      </trkpt>
      <trkpt lat="44.9186140" lon="6.8272120">
        <ele>1733.2</ele>
        <time>2017-07-29T08:13:56Z</time>
      </trkpt>
      <trkpt lat="44.9185950" lon="6.8271720">
        <ele>1731.8</ele>
        <time>2017-07-29T08:13:57Z</time>
      </trkpt>
      <trkpt lat="44.9185950" lon="6.8271440">
        <ele>1730.6</ele>
        <time>2017-07-29T08:13:58Z</time>
      </trkpt>
      <trkpt lat="44.9186010" lon="6.8271110">
        <ele>1728.0</ele>
        <time>2017-07-29T08:13:59Z</time>
      </trkpt>
      <trkpt lat="44.9186160" lon="6.8270760">
        <ele>1726.8</ele>
        <time>2017-07-29T08:14:00Z</time>
      </trkpt>
      <trkpt lat="44.9186510" lon="6.8270560">
        <ele>1725.8</ele>
        <time>2017-07-29T08:14:01Z</time>
      </trkpt>
      <trkpt lat="44.9186920" lon="6.8270400">
        <ele>1724.8</ele>
        <time>2017-07-29T08:14:02Z</time>
      </trkpt>
      <trkpt lat="44.9188670" lon="6.8269870">
        <ele>1723.0</ele>
        <time>2017-07-29T08:14:04Z</time>
      </trkpt>
      <trkpt lat="44.9189290" lon="6.8269610">
        <ele>1722.2</ele>
        <time>2017-07-29T08:14:05Z</time>
      </trkpt>
      <trkpt lat="44.9189840" lon="6.8269160">
        <ele>1721.2</ele>
        <time>2017-07-29T08:14:06Z</time>
      </trkpt>
      <trkpt lat="44.9190840" lon="6.8268050">
        <ele>1719.4</ele>
        <time>2017-07-29T08:14:08Z</time>
      </trkpt>
      <trkpt lat="44.9192240" lon="6.8266920">
        <ele>1718.0</ele>
        <time>2017-07-29T08:14:10Z</time>
      </trkpt>
      <trkpt lat="44.9193840" lon="6.8265550">
        <ele>1716.2</ele>
        <time>2017-07-29T08:14:12Z</time>
      </trkpt>
      <trkpt lat="44.9195660" lon="6.8263580">
        <ele>1714.8</ele>
        <time>2017-07-29T08:14:14Z</time>
      </trkpt>
      <trkpt lat="44.9196840" lon="6.8261850">
        <ele>1713.0</ele>
        <time>2017-07-29T08:14:16Z</time>
      </trkpt>
      <trkpt lat="44.9198520" lon="6.8260510">
        <ele>1711.2</ele>
        <time>2017-07-29T08:14:18Z</time>
      </trkpt>
      <trkpt lat="44.9199410" lon="6.8259850">
        <ele>1710.2</ele>
        <time>2017-07-29T08:14:19Z</time>
      </trkpt>
      <trkpt lat="44.9200460" lon="6.8259310">
        <ele>1709.0</ele>
        <time>2017-07-29T08:14:20Z</time>
      </trkpt>
      <trkpt lat="44.9201520" lon="6.8258730">
        <ele>1707.8</ele>
        <time>2017-07-29T08:14:21Z</time>
      </trkpt>
      <trkpt lat="44.9202390" lon="6.8258120">
        <ele>1706.8</ele>
        <time>2017-07-29T08:14:22Z</time>
      </trkpt>
      <trkpt lat="44.9203260" lon="6.8257570">
        <ele>1704.4</ele>
        <time>2017-07-29T08:14:23Z</time>
      </trkpt>
      <trkpt lat="44.9204100" lon="6.8256990">
        <ele>1703.2</ele>
        <time>2017-07-29T08:14:24Z</time>
      </trkpt>
      <trkpt lat="44.9204910" lon="6.8256450">
        <ele>1702.0</ele>
        <time>2017-07-29T08:14:25Z</time>
      </trkpt>
      <trkpt lat="44.9205760" lon="6.8256030">
        <ele>1701.0</ele>
        <time>2017-07-29T08:14:26Z</time>
      </trkpt>
      <trkpt lat="44.9206940" lon="6.8255900">
        <ele>1699.8</ele>
        <time>2017-07-29T08:14:27Z</time>
      </trkpt>
      <trkpt lat="44.9208180" lon="6.8255670">
        <ele>1698.6</ele>
        <time>2017-07-29T08:14:28Z</time>
      </trkpt>
      <trkpt lat="44.9209350" lon="6.8255730">
        <ele>1697.4</ele>
        <time>2017-07-29T08:14:29Z</time>
      </trkpt>
      <trkpt lat="44.9210580" lon="6.8255230">
        <ele>1696.2</ele>
        <time>2017-07-29T08:14:30Z</time>
      </trkpt>
      <trkpt lat="44.9211730" lon="6.8254600">
        <ele>1695.0</ele>
        <time>2017-07-29T08:14:31Z</time>
      </trkpt>
      <trkpt lat="44.9213680" lon="6.8252460">
        <ele>1693.0</ele>
        <time>2017-07-29T08:14:33Z</time>
      </trkpt>
      <trkpt lat="44.9214600" lon="6.8251370">
        <ele>1692.2</ele>
        <time>2017-07-29T08:14:34Z</time>
      </trkpt>
      <trkpt lat="44.9215660" lon="6.8250320">
        <ele>1691.0</ele>
        <time>2017-07-29T08:14:35Z</time>
      </trkpt>
      <trkpt lat="44.9216430" lon="6.8249330">
        <ele>1690.0</ele>
        <time>2017-07-29T08:14:36Z</time>
      </trkpt>
      <trkpt lat="44.9217230" lon="6.8248180">
        <ele>1688.8</ele>
        <time>2017-07-29T08:14:37Z</time>
      </trkpt>
      <trkpt lat="44.9217830" lon="6.8246940">
        <ele>1687.8</ele>
        <time>2017-07-29T08:14:38Z</time>
      </trkpt>
      <trkpt lat="44.9218620" lon="6.8245830">
        <ele>1687.0</ele>
        <time>2017-07-29T08:14:39Z</time>
      </trkpt>
      <trkpt lat="44.9220190" lon="6.8243550">
        <ele>1685.4</ele>
        <time>2017-07-29T08:14:41Z</time>
      </trkpt>
      <trkpt lat="44.9221540" lon="6.8241290">
        <ele>1683.8</ele>
        <time>2017-07-29T08:14:43Z</time>
      </trkpt>
      <trkpt lat="44.9222630" lon="6.8239180">
        <ele>1682.4</ele>
        <time>2017-07-29T08:14:45Z</time>
      </trkpt>
      <trkpt lat="44.9223820" lon="6.8237570">
        <ele>1680.0</ele>
        <time>2017-07-29T08:14:47Z</time>
      </trkpt>
      <trkpt lat="44.9224780" lon="6.8236200">
        <ele>1678.2</ele>
        <time>2017-07-29T08:14:49Z</time>
      </trkpt>
      <trkpt lat="44.9225040" lon="6.8235770">
        <ele>1677.4</ele>
        <time>2017-07-29T08:14:50Z</time>
      </trkpt>
      <trkpt lat="44.9225140" lon="6.8235720">
        <ele>1676.4</ele>
        <time>2017-07-29T08:14:51Z</time>
      </trkpt>
      <trkpt lat="44.9225050" lon="6.8235910">
        <ele>1675.6</ele>
        <time>2017-07-29T08:14:52Z</time>
      </trkpt>
      <trkpt lat="44.9224800" lon="6.8236250">
        <ele>1674.6</ele>
        <time>2017-07-29T08:14:53Z</time>
      </trkpt>
      <trkpt lat="44.9224550" lon="6.8236590">
        <ele>1673.6</ele>
        <time>2017-07-29T08:14:54Z</time>
      </trkpt>
      <trkpt lat="44.9224250" lon="6.8236930">
        <ele>1672.8</ele>
        <time>2017-07-29T08:14:55Z</time>
      </trkpt>
      <trkpt lat="44.9223500" lon="6.8237650">
        <ele>1671.2</ele>
        <time>2017-07-29T08:14:57Z</time>
      </trkpt>
      <trkpt lat="44.9222050" lon="6.8239020">
        <ele>1669.8</ele>
        <time>2017-07-29T08:14:59Z</time>
      </trkpt>
      <trkpt lat="44.9220530" lon="6.8241100">
        <ele>1668.0</ele>
        <time>2017-07-29T08:15:01Z</time>
      </trkpt>
      <trkpt lat="44.9219500" lon="6.8242010">
        <ele>1667.2</ele>
        <time>2017-07-29T08:15:02Z</time>
      </trkpt>
      <trkpt lat="44.9218610" lon="6.8242690">
        <ele>1666.4</ele>
        <time>2017-07-29T08:15:03Z</time>
      </trkpt>
      <trkpt lat="44.9217040" lon="6.8243860">
        <ele>1664.8</ele>
        <time>2017-07-29T08:15:05Z</time>
      </trkpt>
      <trkpt lat="44.9215540" lon="6.8244810">
        <ele>1663.2</ele>
        <time>2017-07-29T08:15:07Z</time>
      </trkpt>
      <trkpt lat="44.9214780" lon="6.8245090">
        <ele>1662.8</ele>
        <time>2017-07-29T08:15:08Z</time>
      </trkpt>
      <trkpt lat="44.9213910" lon="6.8245200">
        <ele>1661.6</ele>
        <time>2017-07-29T08:15:09Z</time>
      </trkpt>
      <trkpt lat="44.9212120" lon="6.8244950">
        <ele>1659.6</ele>
        <time>2017-07-29T08:15:11Z</time>
      </trkpt>
      <trkpt lat="44.9210270" lon="6.8243420">
        <ele>1657.6</ele>
        <time>2017-07-29T08:15:13Z</time>
      </trkpt>
      <trkpt lat="44.9209510" lon="6.8242800">
        <ele>1656.6</ele>
        <time>2017-07-29T08:15:14Z</time>
      </trkpt>
      <trkpt lat="44.9208790" lon="6.8242280">
        <ele>1655.6</ele>
        <time>2017-07-29T08:15:15Z</time>
      </trkpt>
      <trkpt lat="44.9208250" lon="6.8242030">
        <ele>1654.8</ele>
        <time>2017-07-29T08:15:16Z</time>
      </trkpt>
      <trkpt lat="44.9207800" lon="6.8241840">
        <ele>1654.2</ele>
        <time>2017-07-29T08:15:17Z</time>
      </trkpt>
      <trkpt lat="44.9207510" lon="6.8241670">
        <ele>1653.4</ele>
        <time>2017-07-29T08:15:18Z</time>
      </trkpt>
      <trkpt lat="44.9207270" lon="6.8241310">
        <ele>1652.8</ele>
        <time>2017-07-29T08:15:19Z</time>
      </trkpt>
      <trkpt lat="44.9207130" lon="6.8240920">
        <ele>1652.2</ele>
        <time>2017-07-29T08:15:20Z</time>
      </trkpt>
      <trkpt lat="44.9207160" lon="6.8240000">
        <ele>1651.0</ele>
        <time>2017-07-29T08:15:22Z</time>
      </trkpt>
      <trkpt lat="44.9207240" lon="6.8239450">
        <ele>1650.4</ele>
        <time>2017-07-29T08:15:23Z</time>
      </trkpt>
      <trkpt lat="44.9207400" lon="6.8238850">
        <ele>1649.6</ele>
        <time>2017-07-29T08:15:24Z</time>
      </trkpt>
      <trkpt lat="44.9208400" lon="6.8237540">
        <ele>1648.0</ele>
        <time>2017-07-29T08:15:26Z</time>
      </trkpt>
      <trkpt lat="44.9210740" lon="6.8236250">
        <ele>1646.6</ele>
        <time>2017-07-29T08:15:28Z</time>
      </trkpt>
      <trkpt lat="44.9212120" lon="6.8235600">
        <ele>1646.2</ele>
        <time>2017-07-29T08:15:29Z</time>
      </trkpt>
      <trkpt lat="44.9213280" lon="6.8234770">
        <ele>1645.6</ele>
        <time>2017-07-29T08:15:30Z</time>
      </trkpt>
      <trkpt lat="44.9214330" lon="6.8233650">
        <ele>1645.0</ele>
        <time>2017-07-29T08:15:31Z</time>
      </trkpt>
      <trkpt lat="44.9215220" lon="6.8232490">
        <ele>1643.8</ele>
        <time>2017-07-29T08:15:32Z</time>
      </trkpt>
      <trkpt lat="44.9215990" lon="6.8231430">
        <ele>1642.8</ele>
        <time>2017-07-29T08:15:33Z</time>
      </trkpt>
      <trkpt lat="44.9216590" lon="6.8229980">
        <ele>1641.8</ele>
        <time>2017-07-29T08:15:34Z</time>
      </trkpt>
      <trkpt lat="44.9217440" lon="6.8228820">
        <ele>1640.6</ele>
        <time>2017-07-29T08:15:35Z</time>
      </trkpt>
      <trkpt lat="44.9219070" lon="6.8226540">
        <ele>1638.4</ele>
        <time>2017-07-29T08:15:37Z</time>
      </trkpt>
      <trkpt lat="44.9220120" lon="6.8225710">
        <ele>1637.6</ele>
        <time>2017-07-29T08:15:38Z</time>
      </trkpt>
      <trkpt lat="44.9221110" lon="6.8225240">
        <ele>1636.6</ele>
        <time>2017-07-29T08:15:39Z</time>
      </trkpt>
      <trkpt lat="44.9222320" lon="6.8225130">
        <ele>1635.4</ele>
        <time>2017-07-29T08:15:40Z</time>
      </trkpt>
      <trkpt lat="44.9223600" lon="6.8225200">
        <ele>1634.4</ele>
        <time>2017-07-29T08:15:41Z</time>
      </trkpt>
      <trkpt lat="44.9224770" lon="6.8225310">
        <ele>1633.4</ele>
        <time>2017-07-29T08:15:42Z</time>
      </trkpt>
      <trkpt lat="44.9225950" lon="6.8224730">
        <ele>1632.8</ele>
        <time>2017-07-29T08:15:43Z</time>
      </trkpt>
      <trkpt lat="44.9227750" lon="6.8223110">
        <ele>1631.0</ele>
        <time>2017-07-29T08:15:45Z</time>
      </trkpt>
      <trkpt lat="44.9228710" lon="6.8222460">
        <ele>1629.8</ele>
        <time>2017-07-29T08:15:46Z</time>
      </trkpt>
      <trkpt lat="44.9229760" lon="6.8221930">
        <ele>1628.8</ele>
        <time>2017-07-29T08:15:47Z</time>
      </trkpt>
      <trkpt lat="44.9230840" lon="6.8221520">
        <ele>1627.8</ele>
        <time>2017-07-29T08:15:48Z</time>
      </trkpt>
      <trkpt lat="44.9231910" lon="6.8221130">
        <ele>1626.8</ele>
        <time>2017-07-29T08:15:49Z</time>
      </trkpt>
      <trkpt lat="44.9233420" lon="6.8220930">
        <ele>1625.8</ele>
        <time>2017-07-29T08:15:50Z</time>
      </trkpt>
      <trkpt lat="44.9236230" lon="6.8221070">
        <ele>1624.0</ele>
        <time>2017-07-29T08:15:52Z</time>
      </trkpt>
      <trkpt lat="44.9238670" lon="6.8222090">
        <ele>1622.0</ele>
        <time>2017-07-29T08:15:54Z</time>
      </trkpt>
      <trkpt lat="44.9239620" lon="6.8222690">
        <ele>1621.0</ele>
        <time>2017-07-29T08:15:55Z</time>
      </trkpt>
      <trkpt lat="44.9240820" lon="6.8222770">
        <ele>1619.8</ele>
        <time>2017-07-29T08:15:56Z</time>
      </trkpt>
      <trkpt lat="44.9242390" lon="6.8222340">
        <ele>1618.8</ele>
        <time>2017-07-29T08:15:57Z</time>
      </trkpt>
      <trkpt lat="44.9243920" lon="6.8221770">
        <ele>1617.6</ele>
        <time>2017-07-29T08:15:58Z</time>
      </trkpt>
      <trkpt lat="44.9245460" lon="6.8221250">
        <ele>1616.2</ele>
        <time>2017-07-29T08:15:59Z</time>
      </trkpt>
      <trkpt lat="44.9248330" lon="6.8220440">
        <ele>1614.2</ele>
        <time>2017-07-29T08:16:01Z</time>
      </trkpt>
      <trkpt lat="44.9249510" lon="6.8220510">
        <ele>1613.0</ele>
        <time>2017-07-29T08:16:02Z</time>
      </trkpt>
      <trkpt lat="44.9250610" lon="6.8220950">
        <ele>1611.8</ele>
        <time>2017-07-29T08:16:03Z</time>
      </trkpt>
      <trkpt lat="44.9251780" lon="6.8221370">
        <ele>1610.8</ele>
        <time>2017-07-29T08:16:04Z</time>
      </trkpt>
      <trkpt lat="44.9254120" lon="6.8221600">
        <ele>1608.8</ele>
        <time>2017-07-29T08:16:06Z</time>
      </trkpt>
      <trkpt lat="44.9257590" lon="6.8218570">
        <ele>1606.8</ele>
        <time>2017-07-29T08:16:08Z</time>
      </trkpt>
      <trkpt lat="44.9259010" lon="6.8217860">
        <ele>1605.6</ele>
        <time>2017-07-29T08:16:09Z</time>
      </trkpt>
      <trkpt lat="44.9260460" lon="6.8217470">
        <ele>1604.4</ele>
        <time>2017-07-29T08:16:10Z</time>
      </trkpt>
      <trkpt lat="44.9261630" lon="6.8217280">
        <ele>1603.0</ele>
        <time>2017-07-29T08:16:11Z</time>
      </trkpt>
      <trkpt lat="44.9263190" lon="6.8216800">
        <ele>1601.8</ele>
        <time>2017-07-29T08:16:12Z</time>
      </trkpt>
      <trkpt lat="44.9264540" lon="6.8216830">
        <ele>1600.4</ele>
        <time>2017-07-29T08:16:13Z</time>
      </trkpt>
      <trkpt lat="44.9265820" lon="6.8216930">
        <ele>1599.0</ele>
        <time>2017-07-29T08:16:14Z</time>
      </trkpt>
      <trkpt lat="44.9267000" lon="6.8217370">
        <ele>1597.4</ele>
        <time>2017-07-29T08:16:15Z</time>
      </trkpt>
      <trkpt lat="44.9267900" lon="6.8218110">
        <ele>1596.2</ele>
        <time>2017-07-29T08:16:16Z</time>
      </trkpt>
      <trkpt lat="44.9268680" lon="6.8219190">
        <ele>1595.0</ele>
        <time>2017-07-29T08:16:17Z</time>
      </trkpt>
      <trkpt lat="44.9269250" lon="6.8220740">
        <ele>1594.0</ele>
        <time>2017-07-29T08:16:18Z</time>
      </trkpt>
      <trkpt lat="44.9270110" lon="6.8221600">
        <ele>1592.8</ele>
        <time>2017-07-29T08:16:19Z</time>
      </trkpt>
      <trkpt lat="44.9271050" lon="6.8222930">
        <ele>1591.8</ele>
        <time>2017-07-29T08:16:20Z</time>
      </trkpt>
      <trkpt lat="44.9272070" lon="6.8223970">
        <ele>1590.6</ele>
        <time>2017-07-29T08:16:21Z</time>
      </trkpt>
      <trkpt lat="44.9273300" lon="6.8224580">
        <ele>1589.4</ele>
        <time>2017-07-29T08:16:22Z</time>
      </trkpt>
      <trkpt lat="44.9274500" lon="6.8224630">
        <ele>1587.0</ele>
        <time>2017-07-29T08:16:23Z</time>
      </trkpt>
      <trkpt lat="44.9275690" lon="6.8224510">
        <ele>1586.0</ele>
        <time>2017-07-29T08:16:24Z</time>
      </trkpt>
      <trkpt lat="44.9278080" lon="6.8224070">
        <ele>1584.4</ele>
        <time>2017-07-29T08:16:26Z</time>
      </trkpt>
      <trkpt lat="44.9279340" lon="6.8223860">
        <ele>1583.6</ele>
        <time>2017-07-29T08:16:27Z</time>
      </trkpt>
      <trkpt lat="44.9280570" lon="6.8223700">
        <ele>1582.6</ele>
        <time>2017-07-29T08:16:28Z</time>
      </trkpt>
      <trkpt lat="44.9282890" lon="6.8223590">
        <ele>1580.8</ele>
        <time>2017-07-29T08:16:30Z</time>
      </trkpt>
      <trkpt lat="44.9284090" lon="6.8223750">
        <ele>1579.8</ele>
        <time>2017-07-29T08:16:31Z</time>
      </trkpt>
      <trkpt lat="44.9285160" lon="6.8224260">
        <ele>1578.6</ele>
        <time>2017-07-29T08:16:32Z</time>
      </trkpt>
      <trkpt lat="44.9286040" lon="6.8224960">
        <ele>1577.8</ele>
        <time>2017-07-29T08:16:33Z</time>
      </trkpt>
      <trkpt lat="44.9287250" lon="6.8226040">
        <ele>1576.6</ele>
        <time>2017-07-29T08:16:34Z</time>
      </trkpt>
      <trkpt lat="44.9288410" lon="6.8227310">
        <ele>1575.6</ele>
        <time>2017-07-29T08:16:35Z</time>
      </trkpt>
      <trkpt lat="44.9289670" lon="6.8228460">
        <ele>1574.2</ele>
        <time>2017-07-29T08:16:36Z</time>
      </trkpt>
      <trkpt lat="44.9291000" lon="6.8229420">
        <ele>1573.2</ele>
        <time>2017-07-29T08:16:37Z</time>
      </trkpt>
      <trkpt lat="44.9292560" lon="6.8230120">
        <ele>1572.0</ele>
        <time>2017-07-29T08:16:38Z</time>
      </trkpt>
      <trkpt lat="44.9294070" lon="6.8230130">
        <ele>1571.0</ele>
        <time>2017-07-29T08:16:39Z</time>
      </trkpt>
      <trkpt lat="44.9295580" lon="6.8229940">
        <ele>1569.8</ele>
        <time>2017-07-29T08:16:40Z</time>
      </trkpt>
      <trkpt lat="44.9296940" lon="6.8229860">
        <ele>1568.8</ele>
        <time>2017-07-29T08:16:41Z</time>
      </trkpt>
      <trkpt lat="44.9298210" lon="6.8229910">
        <ele>1567.6</ele>
        <time>2017-07-29T08:16:42Z</time>
      </trkpt>
      <trkpt lat="44.9299570" lon="6.8230190">
        <ele>1566.6</ele>
        <time>2017-07-29T08:16:43Z</time>
      </trkpt>
      <trkpt lat="44.9300960" lon="6.8230310">
        <ele>1565.2</ele>
        <time>2017-07-29T08:16:44Z</time>
      </trkpt>
      <trkpt lat="44.9302070" lon="6.8230950">
        <ele>1564.0</ele>
        <time>2017-07-29T08:16:45Z</time>
      </trkpt>
      <trkpt lat="44.9303010" lon="6.8232020">
        <ele>1563.0</ele>
        <time>2017-07-29T08:16:46Z</time>
      </trkpt>
      <trkpt lat="44.9303530" lon="6.8234620">
        <ele>1560.8</ele>
        <time>2017-07-29T08:16:47Z</time>
      </trkpt>
      <trkpt lat="44.9304580" lon="6.8236400">
        <ele>1559.6</ele>
        <time>2017-07-29T08:16:48Z</time>
      </trkpt>
      <trkpt lat="44.9305380" lon="6.8238750">
        <ele>1558.6</ele>
        <time>2017-07-29T08:16:49Z</time>
      </trkpt>
      <trkpt lat="44.9306050" lon="6.8240950">
        <ele>1557.4</ele>
        <time>2017-07-29T08:16:50Z</time>
      </trkpt>
      <trkpt lat="44.9306870" lon="6.8242940">
        <ele>1556.2</ele>
        <time>2017-07-29T08:16:51Z</time>
      </trkpt>
      <trkpt lat="44.9307560" lon="6.8245150">
        <ele>1555.0</ele>
        <time>2017-07-29T08:16:52Z</time>
      </trkpt>
      <trkpt lat="44.9308240" lon="6.8247440">
        <ele>1553.6</ele>
        <time>2017-07-29T08:16:53Z</time>
      </trkpt>
      <trkpt lat="44.9308910" lon="6.8249650">
        <ele>1552.4</ele>
        <time>2017-07-29T08:16:54Z</time>
      </trkpt>
      <trkpt lat="44.9309520" lon="6.8251750">
        <ele>1551.2</ele>
        <time>2017-07-29T08:16:55Z</time>
      </trkpt>
      <trkpt lat="44.9310380" lon="6.8255460">
        <ele>1548.6</ele>
        <time>2017-07-29T08:16:57Z</time>
      </trkpt>
      <trkpt lat="44.9310910" lon="6.8257010">
        <ele>1547.6</ele>
        <time>2017-07-29T08:16:58Z</time>
      </trkpt>
      <trkpt lat="44.9311590" lon="6.8258350">
        <ele>1546.2</ele>
        <time>2017-07-29T08:16:59Z</time>
      </trkpt>
      <trkpt lat="44.9312720" lon="6.8259510">
        <ele>1545.2</ele>
        <time>2017-07-29T08:17:00Z</time>
      </trkpt>
      <trkpt lat="44.9313830" lon="6.8260370">
        <ele>1543.8</ele>
        <time>2017-07-29T08:17:01Z</time>
      </trkpt>
      <trkpt lat="44.9314950" lon="6.8261420">
        <ele>1542.2</ele>
        <time>2017-07-29T08:17:02Z</time>
      </trkpt>
      <trkpt lat="44.9316190" lon="6.8262400">
        <ele>1540.8</ele>
        <time>2017-07-29T08:17:03Z</time>
      </trkpt>
      <trkpt lat="44.9317200" lon="6.8263780">
        <ele>1539.4</ele>
        <time>2017-07-29T08:17:04Z</time>
      </trkpt>
      <trkpt lat="44.9318150" lon="6.8264850">
        <ele>1538.2</ele>
        <time>2017-07-29T08:17:05Z</time>
      </trkpt>
      <trkpt lat="44.9319160" lon="6.8266010">
        <ele>1536.8</ele>
        <time>2017-07-29T08:17:06Z</time>
      </trkpt>
      <trkpt lat="44.9320050" lon="6.8266940">
        <ele>1535.6</ele>
        <time>2017-07-29T08:17:07Z</time>
      </trkpt>
      <trkpt lat="44.9320790" lon="6.8267720">
        <ele>1534.2</ele>
        <time>2017-07-29T08:17:08Z</time>
      </trkpt>
      <trkpt lat="44.9321550" lon="6.8268040">
        <ele>1532.8</ele>
        <time>2017-07-29T08:17:09Z</time>
      </trkpt>
      <trkpt lat="44.9322250" lon="6.8267480">
        <ele>1531.4</ele>
        <time>2017-07-29T08:17:10Z</time>
      </trkpt>
      <trkpt lat="44.9322360" lon="6.8266610">
        <ele>1529.0</ele>
        <time>2017-07-29T08:17:11Z</time>
      </trkpt>
      <trkpt lat="44.9322060" lon="6.8265890">
        <ele>1527.8</ele>
        <time>2017-07-29T08:17:12Z</time>
      </trkpt>
      <trkpt lat="44.9321830" lon="6.8265130">
        <ele>1526.8</ele>
        <time>2017-07-29T08:17:13Z</time>
      </trkpt>
      <trkpt lat="44.9321560" lon="6.8263250">
        <ele>1524.8</ele>
        <time>2017-07-29T08:17:15Z</time>
      </trkpt>
      <trkpt lat="44.9321520" lon="6.8262030">
        <ele>1524.2</ele>
        <time>2017-07-29T08:17:16Z</time>
      </trkpt>
      <trkpt lat="44.9321590" lon="6.8260630">
        <ele>1523.4</ele>
        <time>2017-07-29T08:17:17Z</time>
      </trkpt>
      <trkpt lat="44.9321600" lon="6.8259370">
        <ele>1522.6</ele>
        <time>2017-07-29T08:17:18Z</time>
      </trkpt>
      <trkpt lat="44.9321640" lon="6.8258180">
        <ele>1521.8</ele>
        <time>2017-07-29T08:17:19Z</time>
      </trkpt>
      <trkpt lat="44.9321800" lon="6.8256970">
        <ele>1521.0</ele>
        <time>2017-07-29T08:17:20Z</time>
      </trkpt>
      <trkpt lat="44.9322220" lon="6.8255380">
        <ele>1520.2</ele>
        <time>2017-07-29T08:17:21Z</time>
      </trkpt>
      <trkpt lat="44.9322710" lon="6.8251910">
        <ele>1518.6</ele>
        <time>2017-07-29T08:17:23Z</time>
      </trkpt>
      <trkpt lat="44.9322830" lon="6.8250150">
        <ele>1517.8</ele>
        <time>2017-07-29T08:17:24Z</time>
      </trkpt>
      <trkpt lat="44.9322880" lon="6.8248370">
        <ele>1517.0</ele>
        <time>2017-07-29T08:17:25Z</time>
      </trkpt>
      <trkpt lat="44.9322840" lon="6.8244780">
        <ele>1515.2</ele>
        <time>2017-07-29T08:17:27Z</time>
      </trkpt>
      <trkpt lat="44.9322920" lon="6.8242960">
        <ele>1514.2</ele>
        <time>2017-07-29T08:17:28Z</time>
      </trkpt>
      <trkpt lat="44.9323660" lon="6.8239820">
        <ele>1512.2</ele>
        <time>2017-07-29T08:17:30Z</time>
      </trkpt>
      <trkpt lat="44.9323970" lon="6.8238290">
        <ele>1511.2</ele>
        <time>2017-07-29T08:17:31Z</time>
      </trkpt>
      <trkpt lat="44.9324140" lon="6.8236800">
        <ele>1510.2</ele>
        <time>2017-07-29T08:17:32Z</time>
      </trkpt>
      <trkpt lat="44.9323640" lon="6.8235270">
        <ele>1509.2</ele>
        <time>2017-07-29T08:17:33Z</time>
      </trkpt>
      <trkpt lat="44.9323090" lon="6.8233940">
        <ele>1508.2</ele>
        <time>2017-07-29T08:17:34Z</time>
      </trkpt>
      <trkpt lat="44.9322380" lon="6.8232880">
        <ele>1506.2</ele>
        <time>2017-07-29T08:17:35Z</time>
      </trkpt>
      <trkpt lat="44.9321640" lon="6.8231860">
        <ele>1505.2</ele>
        <time>2017-07-29T08:17:36Z</time>
      </trkpt>
      <trkpt lat="44.9320100" lon="6.8229830">
        <ele>1503.4</ele>
        <time>2017-07-29T08:17:38Z</time>
      </trkpt>
      <trkpt lat="44.9319430" lon="6.8228810">
        <ele>1502.6</ele>
        <time>2017-07-29T08:17:39Z</time>
      </trkpt>
      <trkpt lat="44.9318790" lon="6.8228040">
        <ele>1501.6</ele>
        <time>2017-07-29T08:17:40Z</time>
      </trkpt>
      <trkpt lat="44.9318440" lon="6.8227270">
        <ele>1501.0</ele>
        <time>2017-07-29T08:17:41Z</time>
      </trkpt>
      <trkpt lat="44.9318330" lon="6.8226600">
        <ele>1500.4</ele>
        <time>2017-07-29T08:17:42Z</time>
      </trkpt>
      <trkpt lat="44.9318800" lon="6.8225440">
        <ele>1499.2</ele>
        <time>2017-07-29T08:17:44Z</time>
      </trkpt>
      <trkpt lat="44.9319480" lon="6.8224750">
        <ele>1497.8</ele>
        <time>2017-07-29T08:17:46Z</time>
      </trkpt>
      <trkpt lat="44.9320400" lon="6.8224640">
        <ele>1497.0</ele>
        <time>2017-07-29T08:17:47Z</time>
      </trkpt>
      <trkpt lat="44.9321430" lon="6.8224740">
        <ele>1496.2</ele>
        <time>2017-07-29T08:17:48Z</time>
      </trkpt>
      <trkpt lat="44.9323200" lon="6.8225290">
        <ele>1495.0</ele>
        <time>2017-07-29T08:17:50Z</time>
      </trkpt>
      <trkpt lat="44.9323890" lon="6.8225690">
        <ele>1494.4</ele>
        <time>2017-07-29T08:17:51Z</time>
      </trkpt>
      <trkpt lat="44.9324800" lon="6.8226080">
        <ele>1493.4</ele>
        <time>2017-07-29T08:17:52Z</time>
      </trkpt>
      <trkpt lat="44.9325730" lon="6.8226530">
        <ele>1492.4</ele>
        <time>2017-07-29T08:17:53Z</time>
      </trkpt>
      <trkpt lat="44.9326520" lon="6.8227020">
        <ele>1491.2</ele>
        <time>2017-07-29T08:17:54Z</time>
      </trkpt>
      <trkpt lat="44.9328160" lon="6.8228170">
        <ele>1489.6</ele>
        <time>2017-07-29T08:17:56Z</time>
      </trkpt>
      <trkpt lat="44.9329750" lon="6.8229560">
        <ele>1488.0</ele>
        <time>2017-07-29T08:17:58Z</time>
      </trkpt>
      <trkpt lat="44.9330530" lon="6.8230410">
        <ele>1486.0</ele>
        <time>2017-07-29T08:17:59Z</time>
      </trkpt>
      <trkpt lat="44.9331320" lon="6.8231340">
        <ele>1484.8</ele>
        <time>2017-07-29T08:18:00Z</time>
      </trkpt>
      <trkpt lat="44.9331980" lon="6.8232210">
        <ele>1483.8</ele>
        <time>2017-07-29T08:18:01Z</time>
      </trkpt>
      <trkpt lat="44.9332580" lon="6.8233260">
        <ele>1482.6</ele>
        <time>2017-07-29T08:18:02Z</time>
      </trkpt>
      <trkpt lat="44.9333190" lon="6.8234420">
        <ele>1481.4</ele>
        <time>2017-07-29T08:18:03Z</time>
      </trkpt>
      <trkpt lat="44.9333720" lon="6.8235380">
        <ele>1480.0</ele>
        <time>2017-07-29T08:18:04Z</time>
      </trkpt>
      <trkpt lat="44.9334270" lon="6.8235950">
        <ele>1479.0</ele>
        <time>2017-07-29T08:18:05Z</time>
      </trkpt>
      <trkpt lat="44.9334670" lon="6.8236090">
        <ele>1478.0</ele>
        <time>2017-07-29T08:18:06Z</time>
      </trkpt>
      <trkpt lat="44.9335380" lon="6.8235960">
        <ele>1475.8</ele>
        <time>2017-07-29T08:18:08Z</time>
      </trkpt>
      <trkpt lat="44.9335720" lon="6.8236020">
        <ele>1474.6</ele>
        <time>2017-07-29T08:18:09Z</time>
      </trkpt>
      <trkpt lat="44.9336200" lon="6.8236090">
        <ele>1473.4</ele>
        <time>2017-07-29T08:18:10Z</time>
      </trkpt>
      <trkpt lat="44.9336600" lon="6.8235960">
        <ele>1472.6</ele>
        <time>2017-07-29T08:18:11Z</time>
      </trkpt>
      <trkpt lat="44.9336670" lon="6.8234900">
        <ele>1471.4</ele>
        <time>2017-07-29T08:18:12Z</time>
      </trkpt>
      <trkpt lat="44.9337470" lon="6.8232900">
        <ele>1469.8</ele>
        <time>2017-07-29T08:18:14Z</time>
      </trkpt>
      <trkpt lat="44.9337740" lon="6.8231780">
        <ele>1469.0</ele>
        <time>2017-07-29T08:18:15Z</time>
      </trkpt>
      <trkpt lat="44.9338070" lon="6.8230540">
        <ele>1468.2</ele>
        <time>2017-07-29T08:18:16Z</time>
      </trkpt>
      <trkpt lat="44.9338560" lon="6.8227920">
        <ele>1467.0</ele>
        <time>2017-07-29T08:18:18Z</time>
      </trkpt>
      <trkpt lat="44.9338520" lon="6.8225100">
        <ele>1465.6</ele>
        <time>2017-07-29T08:18:20Z</time>
      </trkpt>
      <trkpt lat="44.9338000" lon="6.8222180">
        <ele>1464.6</ele>
        <time>2017-07-29T08:18:22Z</time>
      </trkpt>
      <trkpt lat="44.9337640" lon="6.8219290">
        <ele>1463.4</ele>
        <time>2017-07-29T08:18:24Z</time>
      </trkpt>
      <trkpt lat="44.9337640" lon="6.8214360">
        <ele>1462.0</ele>
        <time>2017-07-29T08:18:27Z</time>
      </trkpt>
      <trkpt lat="44.9337680" lon="6.8212700">
        <ele>1461.8</ele>
        <time>2017-07-29T08:18:28Z</time>
      </trkpt>
      <trkpt lat="44.9337690" lon="6.8208190">
        <ele>1460.8</ele>
        <time>2017-07-29T08:18:31Z</time>
      </trkpt>
      <trkpt lat="44.9337070" lon="6.8203090">
        <ele>1460.0</ele>
        <time>2017-07-29T08:18:35Z</time>
      </trkpt>
      <trkpt lat="44.9337190" lon="6.8201900">
        <ele>1459.8</ele>
        <time>2017-07-29T08:18:36Z</time>
      </trkpt>
      <trkpt lat="44.9336990" lon="6.8200740">
        <ele>1459.6</ele>
        <time>2017-07-29T08:18:37Z</time>
      </trkpt>
      <trkpt lat="44.9337120" lon="6.8198390">
        <ele>1459.2</ele>
        <time>2017-07-29T08:18:39Z</time>
      </trkpt>
      <trkpt lat="44.9337550" lon="6.8197320">
        <ele>1459.2</ele>
        <time>2017-07-29T08:18:40Z</time>
      </trkpt>
      <trkpt lat="44.9338870" lon="6.8195560">
        <ele>1458.8</ele>
        <time>2017-07-29T08:18:42Z</time>
      </trkpt>
      <trkpt lat="44.9339650" lon="6.8194780">
        <ele>1458.6</ele>
        <time>2017-07-29T08:18:43Z</time>
      </trkpt>
      <trkpt lat="44.9342530" lon="6.8191410">
        <ele>1457.4</ele>
        <time>2017-07-29T08:18:47Z</time>
      </trkpt>
      <trkpt lat="44.9342880" lon="6.8190240">
        <ele>1457.2</ele>
        <time>2017-07-29T08:18:48Z</time>
      </trkpt>
      <trkpt lat="44.9343150" lon="6.8188970">
        <ele>1457.0</ele>
        <time>2017-07-29T08:18:49Z</time>
      </trkpt>
      <trkpt lat="44.9343320" lon="6.8187640">
        <ele>1456.8</ele>
        <time>2017-07-29T08:18:50Z</time>
      </trkpt>
      <trkpt lat="44.9343370" lon="6.8184910">
        <ele>1456.2</ele>
        <time>2017-07-29T08:18:52Z</time>
      </trkpt>
      <trkpt lat="44.9343320" lon="6.8182150">
        <ele>1456.0</ele>
        <time>2017-07-29T08:18:54Z</time>
      </trkpt>
      <trkpt lat="44.9343260" lon="6.8180780">
        <ele>1455.8</ele>
        <time>2017-07-29T08:18:55Z</time>
      </trkpt>
      <trkpt lat="44.9343060" lon="6.8178090">
        <ele>1455.2</ele>
        <time>2017-07-29T08:18:57Z</time>
      </trkpt>
      <trkpt lat="44.9342980" lon="6.8174270">
        <ele>1454.2</ele>
        <time>2017-07-29T08:19:00Z</time>
      </trkpt>
      <trkpt lat="44.9343100" lon="6.8172950">
        <ele>1453.8</ele>
        <time>2017-07-29T08:19:01Z</time>
      </trkpt>
      <trkpt lat="44.9343130" lon="6.8171560">
        <ele>1453.4</ele>
        <time>2017-07-29T08:19:02Z</time>
      </trkpt>
      <trkpt lat="44.9342960" lon="6.8170180">
        <ele>1453.0</ele>
        <time>2017-07-29T08:19:03Z</time>
      </trkpt>
      <trkpt lat="44.9342730" lon="6.8168790">
        <ele>1452.6</ele>
        <time>2017-07-29T08:19:04Z</time>
      </trkpt>
      <trkpt lat="44.9342390" lon="6.8166030">
        <ele>1451.8</ele>
        <time>2017-07-29T08:19:06Z</time>
      </trkpt>
      <trkpt lat="44.9341740" lon="6.8162130">
        <ele>1451.0</ele>
        <time>2017-07-29T08:19:09Z</time>
      </trkpt>
      <trkpt lat="44.9341540" lon="6.8160900">
        <ele>1450.6</ele>
        <time>2017-07-29T08:19:10Z</time>
      </trkpt>
      <trkpt lat="44.9341330" lon="6.8159810">
        <ele>1449.6</ele>
        <time>2017-07-29T08:19:11Z</time>
      </trkpt>
      <trkpt lat="44.9341320" lon="6.8158640">
        <ele>1449.2</ele>
        <time>2017-07-29T08:19:12Z</time>
      </trkpt>
      <trkpt lat="44.9341640" lon="6.8156620">
        <ele>1448.2</ele>
        <time>2017-07-29T08:19:14Z</time>
      </trkpt>
      <trkpt lat="44.9342320" lon="6.8154040">
        <ele>1447.4</ele>
        <time>2017-07-29T08:19:17Z</time>
      </trkpt>
      <trkpt lat="44.9342460" lon="6.8153100">
        <ele>1446.8</ele>
        <time>2017-07-29T08:19:18Z</time>
      </trkpt>
      <trkpt lat="44.9342770" lon="6.8152220">
        <ele>1446.6</ele>
        <time>2017-07-29T08:19:19Z</time>
      </trkpt>
      <trkpt lat="44.9343380" lon="6.8150570">
        <ele>1445.8</ele>
        <time>2017-07-29T08:19:21Z</time>
      </trkpt>
      <trkpt lat="44.9343960" lon="6.8148970">
        <ele>1445.0</ele>
        <time>2017-07-29T08:19:23Z</time>
      </trkpt>
      <trkpt lat="44.9344900" lon="6.8146310">
        <ele>1444.6</ele>
        <time>2017-07-29T08:19:26Z</time>
      </trkpt>
      <trkpt lat="44.9345940" lon="6.8143540">
        <ele>1444.0</ele>
        <time>2017-07-29T08:19:29Z</time>
      </trkpt>
      <trkpt lat="44.9346870" lon="6.8140130">
        <ele>1443.6</ele>
        <time>2017-07-29T08:19:32Z</time>
      </trkpt>
      <trkpt lat="44.9347390" lon="6.8138990">
        <ele>1443.4</ele>
        <time>2017-07-29T08:19:33Z</time>
      </trkpt>
      <trkpt lat="44.9347690" lon="6.8137840">
        <ele>1443.2</ele>
        <time>2017-07-29T08:19:34Z</time>
      </trkpt>
      <trkpt lat="44.9348450" lon="6.8135670">
        <ele>1443.4</ele>
        <time>2017-07-29T08:19:36Z</time>
      </trkpt>
      <trkpt lat="44.9348640" lon="6.8133520">
        <ele>1442.6</ele>
        <time>2017-07-29T08:19:38Z</time>
      </trkpt>
      <trkpt lat="44.9348820" lon="6.8132470">
        <ele>1442.2</ele>
        <time>2017-07-29T08:19:39Z</time>
      </trkpt>
      <trkpt lat="44.9349510" lon="6.8130480">
        <ele>1442.2</ele>
        <time>2017-07-29T08:19:41Z</time>
      </trkpt>
      <trkpt lat="44.9349850" lon="6.8129600">
        <ele>1442.0</ele>
        <time>2017-07-29T08:19:42Z</time>
      </trkpt>
      <trkpt lat="44.9350670" lon="6.8127010">
        <ele>1441.8</ele>
        <time>2017-07-29T08:19:45Z</time>
      </trkpt>
      <trkpt lat="44.9350900" lon="6.8125230">
        <ele>1441.8</ele>
        <time>2017-07-29T08:19:47Z</time>
      </trkpt>
      <trkpt lat="44.9351640" lon="6.8122150">
        <ele>1441.4</ele>
        <time>2017-07-29T08:19:51Z</time>
      </trkpt>
      <trkpt lat="44.9351900" lon="6.8120190">
        <ele>1441.2</ele>
        <time>2017-07-29T08:19:53Z</time>
      </trkpt>
      <trkpt lat="44.9352220" lon="6.8117280">
        <ele>1441.0</ele>
        <time>2017-07-29T08:19:56Z</time>
      </trkpt>
      <trkpt lat="44.9352460" lon="6.8113230">
        <ele>1440.0</ele>
        <time>2017-07-29T08:20:00Z</time>
      </trkpt>
      <trkpt lat="44.9353030" lon="6.8111290">
        <ele>1439.6</ele>
        <time>2017-07-29T08:20:02Z</time>
      </trkpt>
      <trkpt lat="44.9354300" lon="6.8108650">
        <ele>1438.8</ele>
        <time>2017-07-29T08:20:05Z</time>
      </trkpt>
      <trkpt lat="44.9354630" lon="6.8107760">
        <ele>1438.6</ele>
        <time>2017-07-29T08:20:06Z</time>
      </trkpt>
      <trkpt lat="44.9354920" lon="6.8106850">
        <ele>1438.4</ele>
        <time>2017-07-29T08:20:07Z</time>
      </trkpt>
      <trkpt lat="44.9355640" lon="6.8104120">
        <ele>1437.8</ele>
        <time>2017-07-29T08:20:10Z</time>
      </trkpt>
      <trkpt lat="44.9356330" lon="6.8101240">
        <ele>1437.0</ele>
        <time>2017-07-29T08:20:13Z</time>
      </trkpt>
      <trkpt lat="44.9356770" lon="6.8099300">
        <ele>1436.8</ele>
        <time>2017-07-29T08:20:15Z</time>
      </trkpt>
      <trkpt lat="44.9356960" lon="6.8098260">
        <ele>1436.6</ele>
        <time>2017-07-29T08:20:16Z</time>
      </trkpt>
      <trkpt lat="44.9357330" lon="6.8096190">
        <ele>1436.4</ele>
        <time>2017-07-29T08:20:18Z</time>
      </trkpt>
      <trkpt lat="44.9356890" lon="6.8094570">
        <ele>1435.8</ele>
        <time>2017-07-29T08:20:20Z</time>
      </trkpt>
      <trkpt lat="44.9356730" lon="6.8091040">
        <ele>1435.4</ele>
        <time>2017-07-29T08:20:24Z</time>
      </trkpt>
      <trkpt lat="44.9357640" lon="6.8085280">
        <ele>1435.4</ele>
        <time>2017-07-29T08:20:30Z</time>
      </trkpt>
      <trkpt lat="44.9358530" lon="6.8082280">
        <ele>1434.6</ele>
        <time>2017-07-29T08:20:33Z</time>
      </trkpt>
      <trkpt lat="44.9358760" lon="6.8081270">
        <ele>1434.6</ele>
        <time>2017-07-29T08:20:34Z</time>
      </trkpt>
      <trkpt lat="44.9360820" lon="6.8074730">
        <ele>1433.4</ele>
        <time>2017-07-29T08:20:41Z</time>
      </trkpt>
      <trkpt lat="44.9361700" lon="6.8072470">
        <ele>1433.0</ele>
        <time>2017-07-29T08:20:44Z</time>
      </trkpt>
      <trkpt lat="44.9362030" lon="6.8071860">
        <ele>1432.8</ele>
        <time>2017-07-29T08:20:45Z</time>
      </trkpt>
      <trkpt lat="44.9362830" lon="6.8070670">
        <ele>1432.0</ele>
        <time>2017-07-29T08:20:47Z</time>
      </trkpt>
      <trkpt lat="44.9363840" lon="6.8068670">
        <ele>1431.2</ele>
        <time>2017-07-29T08:20:50Z</time>
      </trkpt>
      <trkpt lat="44.9363940" lon="6.8065300">
        <ele>1431.2</ele>
        <time>2017-07-29T08:20:54Z</time>
      </trkpt>
      <trkpt lat="44.9363870" lon="6.8064470">
        <ele>1430.8</ele>
        <time>2017-07-29T08:20:55Z</time>
      </trkpt>
      <trkpt lat="44.9363950" lon="6.8063780">
        <ele>1430.6</ele>
        <time>2017-07-29T08:20:56Z</time>
      </trkpt>
      <trkpt lat="44.9364180" lon="6.8062990">
        <ele>1430.0</ele>
        <time>2017-07-29T08:20:57Z</time>
      </trkpt>
      <trkpt lat="44.9364400" lon="6.8062150">
        <ele>1429.8</ele>
        <time>2017-07-29T08:20:58Z</time>
      </trkpt>
      <trkpt lat="44.9365240" lon="6.8059590">
        <ele>1429.2</ele>
        <time>2017-07-29T08:21:01Z</time>
      </trkpt>
      <trkpt lat="44.9365370" lon="6.8058640">
        <ele>1428.8</ele>
        <time>2017-07-29T08:21:02Z</time>
      </trkpt>
      <trkpt lat="44.9365410" lon="6.8055980">
        <ele>1428.6</ele>
        <time>2017-07-29T08:21:05Z</time>
      </trkpt>
      <trkpt lat="44.9365370" lon="6.8053010">
        <ele>1428.2</ele>
        <time>2017-07-29T08:21:08Z</time>
      </trkpt>
      <trkpt lat="44.9365370" lon="6.8051700">
        <ele>1427.6</ele>
        <time>2017-07-29T08:21:10Z</time>
      </trkpt>
      <trkpt lat="44.9365470" lon="6.8051280">
        <ele>1427.4</ele>
        <time>2017-07-29T08:21:11Z</time>
      </trkpt>
      <trkpt lat="44.9365930" lon="6.8050060">
        <ele>1427.0</ele>
        <time>2017-07-29T08:21:15Z</time>
      </trkpt>
      <trkpt lat="44.9366520" lon="6.8048970">
        <ele>1426.8</ele>
        <time>2017-07-29T08:21:18Z</time>
      </trkpt>
      <trkpt lat="44.9366800" lon="6.8048540">
        <ele>1426.4</ele>
        <time>2017-07-29T08:21:19Z</time>
      </trkpt>
      <trkpt lat="44.9367650" lon="6.8046580">
        <ele>1426.2</ele>
        <time>2017-07-29T08:21:22Z</time>
      </trkpt>
      <trkpt lat="44.9368520" lon="6.8045070">
        <ele>1425.6</ele>
        <time>2017-07-29T08:21:24Z</time>
      </trkpt>
      <trkpt lat="44.9368910" lon="6.8044170">
        <ele>1425.6</ele>
        <time>2017-07-29T08:21:25Z</time>
      </trkpt>
      <trkpt lat="44.9369310" lon="6.8043220">
        <ele>1425.4</ele>
        <time>2017-07-29T08:21:26Z</time>
      </trkpt>
      <trkpt lat="44.9369990" lon="6.8041480">
        <ele>1425.0</ele>
        <time>2017-07-29T08:21:28Z</time>
      </trkpt>
      <trkpt lat="44.9370810" lon="6.8040030">
        <ele>1424.4</ele>
        <time>2017-07-29T08:21:30Z</time>
      </trkpt>
      <trkpt lat="44.9372100" lon="6.8037340">
        <ele>1424.2</ele>
        <time>2017-07-29T08:21:34Z</time>
      </trkpt>
      <trkpt lat="44.9372410" lon="6.8036970">
        <ele>1423.6</ele>
        <time>2017-07-29T08:21:35Z</time>
      </trkpt>
      <trkpt lat="44.9372740" lon="6.8036660">
        <ele>1423.2</ele>
        <time>2017-07-29T08:21:36Z</time>
      </trkpt>
      <trkpt lat="44.9373920" lon="6.8034820">
        <ele>1422.2</ele>
        <time>2017-07-29T08:21:39Z</time>
      </trkpt>
      <trkpt lat="44.9374440" lon="6.8032730">
        <ele>1421.2</ele>
        <time>2017-07-29T08:21:41Z</time>
      </trkpt>
      <trkpt lat="44.9374530" lon="6.8031670">
        <ele>1420.6</ele>
        <time>2017-07-29T08:21:42Z</time>
      </trkpt>
      <trkpt lat="44.9375630" lon="6.8027760">
        <ele>1419.4</ele>
        <time>2017-07-29T08:21:46Z</time>
      </trkpt>
      <trkpt lat="44.9376540" lon="6.8025800">
        <ele>1418.4</ele>
        <time>2017-07-29T08:21:48Z</time>
      </trkpt>
      <trkpt lat="44.9377050" lon="6.8024750">
        <ele>1418.0</ele>
        <time>2017-07-29T08:21:49Z</time>
      </trkpt>
      <trkpt lat="44.9377550" lon="6.8023680">
        <ele>1417.6</ele>
        <time>2017-07-29T08:21:50Z</time>
      </trkpt>
      <trkpt lat="44.9378400" lon="6.8021800">
        <ele>1417.0</ele>
        <time>2017-07-29T08:21:52Z</time>
      </trkpt>
      <trkpt lat="44.9378670" lon="6.8020940">
        <ele>1416.6</ele>
        <time>2017-07-29T08:21:53Z</time>
      </trkpt>
      <trkpt lat="44.9378990" lon="6.8020210">
        <ele>1416.2</ele>
        <time>2017-07-29T08:21:54Z</time>
      </trkpt>
      <trkpt lat="44.9379400" lon="6.8019580">
        <ele>1415.8</ele>
        <time>2017-07-29T08:21:55Z</time>
      </trkpt>
      <trkpt lat="44.9380160" lon="6.8018270">
        <ele>1414.8</ele>
        <time>2017-07-29T08:21:57Z</time>
      </trkpt>
      <trkpt lat="44.9381060" lon="6.8017030">
        <ele>1414.2</ele>
        <time>2017-07-29T08:21:59Z</time>
      </trkpt>
      <trkpt lat="44.9381620" lon="6.8016750">
        <ele>1413.8</ele>
        <time>2017-07-29T08:22:00Z</time>
      </trkpt>
      <trkpt lat="44.9382770" lon="6.8016270">
        <ele>1413.0</ele>
        <time>2017-07-29T08:22:02Z</time>
      </trkpt>
      <trkpt lat="44.9383270" lon="6.8015890">
        <ele>1412.8</ele>
        <time>2017-07-29T08:22:03Z</time>
      </trkpt>
      <trkpt lat="44.9384790" lon="6.8014630">
        <ele>1412.0</ele>
        <time>2017-07-29T08:22:06Z</time>
      </trkpt>
      <trkpt lat="44.9385230" lon="6.8014040">
        <ele>1412.0</ele>
        <time>2017-07-29T08:22:07Z</time>
      </trkpt>
      <trkpt lat="44.9385930" lon="6.8012760">
        <ele>1411.8</ele>
        <time>2017-07-29T08:22:09Z</time>
      </trkpt>
      <trkpt lat="44.9387340" lon="6.8010050">
        <ele>1411.8</ele>
        <time>2017-07-29T08:22:13Z</time>
      </trkpt>
      <trkpt lat="44.9388130" lon="6.8008750">
        <ele>1411.6</ele>
        <time>2017-07-29T08:22:15Z</time>
      </trkpt>
      <trkpt lat="44.9389150" lon="6.8007600">
        <ele>1411.4</ele>
        <time>2017-07-29T08:22:17Z</time>
      </trkpt>
      <trkpt lat="44.9391140" lon="6.8006180">
        <ele>1410.4</ele>
        <time>2017-07-29T08:22:20Z</time>
      </trkpt>
      <trkpt lat="44.9392520" lon="6.8005000">
        <ele>1410.0</ele>
        <time>2017-07-29T08:22:22Z</time>
      </trkpt>
      <trkpt lat="44.9393030" lon="6.8004190">
        <ele>1409.6</ele>
        <time>2017-07-29T08:22:23Z</time>
      </trkpt>
      <trkpt lat="44.9394300" lon="6.8001710">
        <ele>1409.4</ele>
        <time>2017-07-29T08:22:26Z</time>
      </trkpt>
      <trkpt lat="44.9395020" lon="6.8000170">
        <ele>1409.2</ele>
        <time>2017-07-29T08:22:28Z</time>
      </trkpt>
      <trkpt lat="44.9397680" lon="6.7995210">
        <ele>1409.2</ele>
        <time>2017-07-29T08:22:35Z</time>
      </trkpt>
      <trkpt lat="44.9399070" lon="6.7992990">
        <ele>1409.0</ele>
        <time>2017-07-29T08:22:38Z</time>
      </trkpt>
      <trkpt lat="44.9399930" lon="6.7991220">
        <ele>1408.8</ele>
        <time>2017-07-29T08:22:40Z</time>
      </trkpt>
      <trkpt lat="44.9401290" lon="6.7989020">
        <ele>1408.8</ele>
        <time>2017-07-29T08:22:43Z</time>
      </trkpt>
      <trkpt lat="44.9402550" lon="6.7988160">
        <ele>1407.8</ele>
        <time>2017-07-29T08:22:45Z</time>
      </trkpt>
      <trkpt lat="44.9404230" lon="6.7986720">
        <ele>1406.2</ele>
        <time>2017-07-29T08:22:48Z</time>
      </trkpt>
      <trkpt lat="44.9405170" lon="6.7985780">
        <ele>1405.4</ele>
        <time>2017-07-29T08:22:50Z</time>
      </trkpt>
      <trkpt lat="44.9406200" lon="6.7984790">
        <ele>1405.0</ele>
        <time>2017-07-29T08:22:52Z</time>
      </trkpt>
      <trkpt lat="44.9408100" lon="6.7983530">
        <ele>1404.0</ele>
        <time>2017-07-29T08:22:55Z</time>
      </trkpt>
      <trkpt lat="44.9408940" lon="6.7983020">
        <ele>1403.6</ele>
        <time>2017-07-29T08:22:56Z</time>
      </trkpt>
      <trkpt lat="44.9409790" lon="6.7982640">
        <ele>1403.0</ele>
        <time>2017-07-29T08:22:57Z</time>
      </trkpt>
      <trkpt lat="44.9410540" lon="6.7982260">
        <ele>1402.6</ele>
        <time>2017-07-29T08:22:58Z</time>
      </trkpt>
      <trkpt lat="44.9411250" lon="6.7981840">
        <ele>1402.2</ele>
        <time>2017-07-29T08:22:59Z</time>
      </trkpt>
      <trkpt lat="44.9412690" lon="6.7981140">
        <ele>1401.2</ele>
        <time>2017-07-29T08:23:01Z</time>
      </trkpt>
      <trkpt lat="44.9414080" lon="6.7980480">
        <ele>1400.4</ele>
        <time>2017-07-29T08:23:03Z</time>
      </trkpt>
      <trkpt lat="44.9415550" lon="6.7979940">
        <ele>1399.8</ele>
        <time>2017-07-29T08:23:05Z</time>
      </trkpt>
      <trkpt lat="44.9418630" lon="6.7979160">
        <ele>1398.8</ele>
        <time>2017-07-29T08:23:09Z</time>
      </trkpt>
      <trkpt lat="44.9420260" lon="6.7978920">
        <ele>1398.2</ele>
        <time>2017-07-29T08:23:11Z</time>
      </trkpt>
      <trkpt lat="44.9421960" lon="6.7978560">
        <ele>1397.8</ele>
        <time>2017-07-29T08:23:13Z</time>
      </trkpt>
      <trkpt lat="44.9424430" lon="6.7977680">
        <ele>1397.4</ele>
        <time>2017-07-29T08:23:16Z</time>
      </trkpt>
      <trkpt lat="44.9426090" lon="6.7977250">
        <ele>1396.6</ele>
        <time>2017-07-29T08:23:18Z</time>
      </trkpt>
      <trkpt lat="44.9427620" lon="6.7976840">
        <ele>1396.0</ele>
        <time>2017-07-29T08:23:20Z</time>
      </trkpt>
      <trkpt lat="44.9428370" lon="6.7976750">
        <ele>1395.8</ele>
        <time>2017-07-29T08:23:21Z</time>
      </trkpt>
      <trkpt lat="44.9429190" lon="6.7976620">
        <ele>1395.6</ele>
        <time>2017-07-29T08:23:22Z</time>
      </trkpt>
      <trkpt lat="44.9432310" lon="6.7976060">
        <ele>1395.4</ele>
        <time>2017-07-29T08:23:26Z</time>
      </trkpt>
      <trkpt lat="44.9433940" lon="6.7975620">
        <ele>1394.8</ele>
        <time>2017-07-29T08:23:28Z</time>
      </trkpt>
      <trkpt lat="44.9434770" lon="6.7975370">
        <ele>1394.4</ele>
        <time>2017-07-29T08:23:29Z</time>
      </trkpt>
      <trkpt lat="44.9438740" lon="6.7973630">
        <ele>1393.6</ele>
        <time>2017-07-29T08:23:34Z</time>
      </trkpt>
      <trkpt lat="44.9439530" lon="6.7973210">
        <ele>1393.2</ele>
        <time>2017-07-29T08:23:35Z</time>
      </trkpt>
      <trkpt lat="44.9443590" lon="6.7971370">
        <ele>1392.0</ele>
        <time>2017-07-29T08:23:40Z</time>
      </trkpt>
      <trkpt lat="44.9445120" lon="6.7970680">
        <ele>1391.6</ele>
        <time>2017-07-29T08:23:42Z</time>
      </trkpt>
      <trkpt lat="44.9448300" lon="6.7968910">
        <ele>1391.6</ele>
        <time>2017-07-29T08:23:47Z</time>
      </trkpt>
      <trkpt lat="44.9448880" lon="6.7968800">
        <ele>1391.8</ele>
        <time>2017-07-29T08:23:48Z</time>
      </trkpt>
      <trkpt lat="44.9450550" lon="6.7968640">
        <ele>1392.0</ele>
        <time>2017-07-29T08:23:51Z</time>
      </trkpt>
      <trkpt lat="44.9452750" lon="6.7967600">
        <ele>1392.2</ele>
        <time>2017-07-29T08:23:55Z</time>
      </trkpt>
      <trkpt lat="44.9453380" lon="6.7967130">
        <ele>1392.2</ele>
        <time>2017-07-29T08:23:56Z</time>
      </trkpt>
      <trkpt lat="44.9457680" lon="6.7963490">
        <ele>1391.6</ele>
        <time>2017-07-29T08:24:02Z</time>
      </trkpt>
      <trkpt lat="44.9460790" lon="6.7961170">
        <ele>1390.8</ele>
        <time>2017-07-29T08:24:06Z</time>
      </trkpt>
      <trkpt lat="44.9461500" lon="6.7960370">
        <ele>1390.8</ele>
        <time>2017-07-29T08:24:07Z</time>
      </trkpt>
      <trkpt lat="44.9462150" lon="6.7959530">
        <ele>1390.8</ele>
        <time>2017-07-29T08:24:08Z</time>
      </trkpt>
      <trkpt lat="44.9464110" lon="6.7957460">
        <ele>1390.2</ele>
        <time>2017-07-29T08:24:11Z</time>
      </trkpt>
      <trkpt lat="44.9465590" lon="6.7956590">
        <ele>1389.8</ele>
        <time>2017-07-29T08:24:13Z</time>
      </trkpt>
      <trkpt lat="44.9468040" lon="6.7955730">
        <ele>1389.0</ele>
        <time>2017-07-29T08:24:16Z</time>
      </trkpt>
      <trkpt lat="44.9468930" lon="6.7955480">
        <ele>1388.8</ele>
        <time>2017-07-29T08:24:17Z</time>
      </trkpt>
      <trkpt lat="44.9469800" lon="6.7955210">
        <ele>1387.0</ele>
        <time>2017-07-29T08:24:18Z</time>
      </trkpt>
      <trkpt lat="44.9470700" lon="6.7954800">
        <ele>1386.6</ele>
        <time>2017-07-29T08:24:19Z</time>
      </trkpt>
      <trkpt lat="44.9473420" lon="6.7953390">
        <ele>1387.0</ele>
        <time>2017-07-29T08:24:22Z</time>
      </trkpt>
      <trkpt lat="44.9476890" lon="6.7951740">
        <ele>1385.8</ele>
        <time>2017-07-29T08:24:26Z</time>
      </trkpt>
      <trkpt lat="44.9479440" lon="6.7950610">
        <ele>1385.0</ele>
        <time>2017-07-29T08:24:29Z</time>
      </trkpt>
      <trkpt lat="44.9480280" lon="6.7950240">
        <ele>1384.8</ele>
        <time>2017-07-29T08:24:30Z</time>
      </trkpt>
      <trkpt lat="44.9483690" lon="6.7948580">
        <ele>1383.4</ele>
        <time>2017-07-29T08:24:34Z</time>
      </trkpt>
      <trkpt lat="44.9485370" lon="6.7947540">
        <ele>1383.0</ele>
        <time>2017-07-29T08:24:36Z</time>
      </trkpt>
      <trkpt lat="44.9486200" lon="6.7946980">
        <ele>1382.8</ele>
        <time>2017-07-29T08:24:37Z</time>
      </trkpt>
      <trkpt lat="44.9487860" lon="6.7945870">
        <ele>1382.2</ele>
        <time>2017-07-29T08:24:39Z</time>
      </trkpt>
      <trkpt lat="44.9491120" lon="6.7943490">
        <ele>1381.6</ele>
        <time>2017-07-29T08:24:43Z</time>
      </trkpt>
      <trkpt lat="44.9496390" lon="6.7939790">
        <ele>1381.8</ele>
        <time>2017-07-29T08:24:49Z</time>
      </trkpt>
      <trkpt lat="44.9500680" lon="6.7936730">
        <ele>1381.0</ele>
        <time>2017-07-29T08:24:54Z</time>
      </trkpt>
      <trkpt lat="44.9503150" lon="6.7934730">
        <ele>1380.6</ele>
        <time>2017-07-29T08:24:57Z</time>
      </trkpt>
      <trkpt lat="44.9508190" lon="6.7930720">
        <ele>1380.0</ele>
        <time>2017-07-29T08:25:03Z</time>
      </trkpt>
      <trkpt lat="44.9509040" lon="6.7930070">
        <ele>1379.8</ele>
        <time>2017-07-29T08:25:04Z</time>
      </trkpt>
      <trkpt lat="44.9509910" lon="6.7929420">
        <ele>1379.6</ele>
        <time>2017-07-29T08:25:05Z</time>
      </trkpt>
      <trkpt lat="44.9513380" lon="6.7926830">
        <ele>1378.8</ele>
        <time>2017-07-29T08:25:09Z</time>
      </trkpt>
      <trkpt lat="44.9517560" lon="6.7923610">
        <ele>1378.0</ele>
        <time>2017-07-29T08:25:14Z</time>
      </trkpt>
      <trkpt lat="44.9522300" lon="6.7920000">
        <ele>1378.2</ele>
        <time>2017-07-29T08:25:20Z</time>
      </trkpt>
      <trkpt lat="44.9526170" lon="6.7917290">
        <ele>1377.8</ele>
        <time>2017-07-29T08:25:25Z</time>
      </trkpt>
      <trkpt lat="44.9526920" lon="6.7916640">
        <ele>1377.8</ele>
        <time>2017-07-29T08:25:26Z</time>
      </trkpt>
      <trkpt lat="44.9532080" lon="6.7911720">
        <ele>1378.0</ele>
        <time>2017-07-29T08:25:33Z</time>
      </trkpt>
      <trkpt lat="44.9537250" lon="6.7906940">
        <ele>1378.0</ele>
        <time>2017-07-29T08:25:40Z</time>
      </trkpt>
      <trkpt lat="44.9537960" lon="6.7906280">
        <ele>1378.0</ele>
        <time>2017-07-29T08:25:41Z</time>
      </trkpt>
      <trkpt lat="44.9540910" lon="6.7904360">
        <ele>1377.4</ele>
        <time>2017-07-29T08:25:45Z</time>
      </trkpt>
      <trkpt lat="44.9541770" lon="6.7904310">
        <ele>1377.4</ele>
        <time>2017-07-29T08:25:46Z</time>
      </trkpt>
      <trkpt lat="44.9544230" lon="6.7905530">
        <ele>1377.2</ele>
        <time>2017-07-29T08:25:49Z</time>
      </trkpt>
      <trkpt lat="44.9545620" lon="6.7906680">
        <ele>1376.6</ele>
        <time>2017-07-29T08:25:51Z</time>
      </trkpt>
      <trkpt lat="44.9547630" lon="6.7908760">
        <ele>1375.6</ele>
        <time>2017-07-29T08:25:54Z</time>
      </trkpt>
      <trkpt lat="44.9548080" lon="6.7909720">
        <ele>1375.4</ele>
        <time>2017-07-29T08:25:55Z</time>
      </trkpt>
      <trkpt lat="44.9547590" lon="6.7913260">
        <ele>1374.8</ele>
        <time>2017-07-29T08:25:57Z</time>
      </trkpt>
      <trkpt lat="44.9548020" lon="6.7915730">
        <ele>1374.6</ele>
        <time>2017-07-29T08:25:59Z</time>
      </trkpt>
      <trkpt lat="44.9547060" lon="6.7918020">
        <ele>1374.2</ele>
        <time>2017-07-29T08:26:00Z</time>
      </trkpt>
      <trkpt lat="44.9547170" lon="6.7919210">
        <ele>1374.0</ele>
        <time>2017-07-29T08:26:01Z</time>
      </trkpt>
      <trkpt lat="44.9547930" lon="6.7921090">
        <ele>1373.6</ele>
        <time>2017-07-29T08:26:03Z</time>
      </trkpt>
      <trkpt lat="44.9551210" lon="6.7925940">
        <ele>1372.6</ele>
        <time>2017-07-29T08:26:09Z</time>
      </trkpt>
      <trkpt lat="44.9551790" lon="6.7926720">
        <ele>1372.6</ele>
        <time>2017-07-29T08:26:10Z</time>
      </trkpt>
      <trkpt lat="44.9552870" lon="6.7928430">
        <ele>1372.4</ele>
        <time>2017-07-29T08:26:12Z</time>
      </trkpt>
      <trkpt lat="44.9553780" lon="6.7930170">
        <ele>1372.2</ele>
        <time>2017-07-29T08:26:14Z</time>
      </trkpt>
      <trkpt lat="44.9555170" lon="6.7930650">
        <ele>1372.2</ele>
        <time>2017-07-29T08:26:16Z</time>
      </trkpt>
      <trkpt lat="44.9556730" lon="6.7930500">
        <ele>1372.4</ele>
        <time>2017-07-29T08:26:18Z</time>
      </trkpt>
      <trkpt lat="44.9560030" lon="6.7930420">
        <ele>1373.0</ele>
        <time>2017-07-29T08:26:22Z</time>
      </trkpt>
      <trkpt lat="44.9561670" lon="6.7930560">
        <ele>1373.6</ele>
        <time>2017-07-29T08:26:24Z</time>
      </trkpt>
      <trkpt lat="44.9563290" lon="6.7931070">
        <ele>1373.8</ele>
        <time>2017-07-29T08:26:26Z</time>
      </trkpt>
      <trkpt lat="44.9564060" lon="6.7931530">
        <ele>1374.0</ele>
        <time>2017-07-29T08:26:27Z</time>
      </trkpt>
      <trkpt lat="44.9566000" lon="6.7933950">
        <ele>1374.4</ele>
        <time>2017-07-29T08:26:30Z</time>
      </trkpt>
      <trkpt lat="44.9566580" lon="6.7934840">
        <ele>1374.8</ele>
        <time>2017-07-29T08:26:31Z</time>
      </trkpt>
      <trkpt lat="44.9570020" lon="6.7939840">
        <ele>1375.4</ele>
        <time>2017-07-29T08:26:37Z</time>
      </trkpt>
      <trkpt lat="44.9573610" lon="6.7943040">
        <ele>1375.0</ele>
        <time>2017-07-29T08:26:42Z</time>
      </trkpt>
      <trkpt lat="44.9578420" lon="6.7946540">
        <ele>1374.4</ele>
        <time>2017-07-29T08:26:48Z</time>
      </trkpt>
      <trkpt lat="44.9580150" lon="6.7947820">
        <ele>1374.0</ele>
        <time>2017-07-29T08:26:50Z</time>
      </trkpt>
      <trkpt lat="44.9581940" lon="6.7949090">
        <ele>1373.8</ele>
        <time>2017-07-29T08:26:52Z</time>
      </trkpt>
      <trkpt lat="44.9586670" lon="6.7951900">
        <ele>1372.6</ele>
        <time>2017-07-29T08:26:57Z</time>
      </trkpt>
      <trkpt lat="44.9590700" lon="6.7953070">
        <ele>1371.4</ele>
        <time>2017-07-29T08:27:01Z</time>
      </trkpt>
      <trkpt lat="44.9591720" lon="6.7953260">
        <ele>1371.2</ele>
        <time>2017-07-29T08:27:02Z</time>
      </trkpt>
      <trkpt lat="44.9597760" lon="6.7954020">
        <ele>1370.4</ele>
        <time>2017-07-29T08:27:08Z</time>
      </trkpt>
      <trkpt lat="44.9598790" lon="6.7953940">
        <ele>1370.2</ele>
        <time>2017-07-29T08:27:09Z</time>
      </trkpt>
      <trkpt lat="44.9601830" lon="6.7953220">
        <ele>1369.8</ele>
        <time>2017-07-29T08:27:12Z</time>
      </trkpt>
      <trkpt lat="44.9607580" lon="6.7951520">
        <ele>1369.4</ele>
        <time>2017-07-29T08:27:18Z</time>
      </trkpt>
      <trkpt lat="44.9608530" lon="6.7951470">
        <ele>1369.2</ele>
        <time>2017-07-29T08:27:19Z</time>
      </trkpt>
      <trkpt lat="44.9611160" lon="6.7952610">
        <ele>1369.2</ele>
        <time>2017-07-29T08:27:22Z</time>
      </trkpt>
      <trkpt lat="44.9612770" lon="6.7953990">
        <ele>1369.0</ele>
        <time>2017-07-29T08:27:24Z</time>
      </trkpt>
      <trkpt lat="44.9614390" lon="6.7955680">
        <ele>1368.6</ele>
        <time>2017-07-29T08:27:26Z</time>
      </trkpt>
      <trkpt lat="44.9616010" lon="6.7957420">
        <ele>1368.2</ele>
        <time>2017-07-29T08:27:28Z</time>
      </trkpt>
      <trkpt lat="44.9619500" lon="6.7960220">
        <ele>1367.4</ele>
        <time>2017-07-29T08:27:32Z</time>
      </trkpt>
      <trkpt lat="44.9620470" lon="6.7960720">
        <ele>1367.0</ele>
        <time>2017-07-29T08:27:33Z</time>
      </trkpt>
      <trkpt lat="44.9623510" lon="6.7961660">
        <ele>1365.8</ele>
        <time>2017-07-29T08:27:36Z</time>
      </trkpt>
      <trkpt lat="44.9626620" lon="6.7961760">
        <ele>1364.6</ele>
        <time>2017-07-29T08:27:39Z</time>
      </trkpt>
      <trkpt lat="44.9628730" lon="6.7961620">
        <ele>1364.2</ele>
        <time>2017-07-29T08:27:41Z</time>
      </trkpt>
      <trkpt lat="44.9630820" lon="6.7961290">
        <ele>1363.4</ele>
        <time>2017-07-29T08:27:43Z</time>
      </trkpt>
      <trkpt lat="44.9634970" lon="6.7960420">
        <ele>1362.2</ele>
        <time>2017-07-29T08:27:47Z</time>
      </trkpt>
      <trkpt lat="44.9638090" lon="6.7959860">
        <ele>1361.2</ele>
        <time>2017-07-29T08:27:50Z</time>
      </trkpt>
      <trkpt lat="44.9640170" lon="6.7960040">
        <ele>1360.6</ele>
        <time>2017-07-29T08:27:52Z</time>
      </trkpt>
      <trkpt lat="44.9641210" lon="6.7960390">
        <ele>1360.0</ele>
        <time>2017-07-29T08:27:53Z</time>
      </trkpt>
      <trkpt lat="44.9643140" lon="6.7961450">
        <ele>1359.2</ele>
        <time>2017-07-29T08:27:55Z</time>
      </trkpt>
      <trkpt lat="44.9644040" lon="6.7962110">
        <ele>1359.0</ele>
        <time>2017-07-29T08:27:56Z</time>
      </trkpt>
      <trkpt lat="44.9644940" lon="6.7962830">
        <ele>1358.6</ele>
        <time>2017-07-29T08:27:57Z</time>
      </trkpt>
      <trkpt lat="44.9646710" lon="6.7964170">
        <ele>1357.6</ele>
        <time>2017-07-29T08:27:59Z</time>
      </trkpt>
      <trkpt lat="44.9647580" lon="6.7964790">
        <ele>1356.6</ele>
        <time>2017-07-29T08:28:00Z</time>
      </trkpt>
      <trkpt lat="44.9649300" lon="6.7965940">
        <ele>1355.4</ele>
        <time>2017-07-29T08:28:02Z</time>
      </trkpt>
      <trkpt lat="44.9650880" lon="6.7966910">
        <ele>1354.2</ele>
        <time>2017-07-29T08:28:04Z</time>
      </trkpt>
      <trkpt lat="44.9651440" lon="6.7967540">
        <ele>1353.6</ele>
        <time>2017-07-29T08:28:05Z</time>
      </trkpt>
      <trkpt lat="44.9651810" lon="6.7968380">
        <ele>1352.8</ele>
        <time>2017-07-29T08:28:06Z</time>
      </trkpt>
      <trkpt lat="44.9651840" lon="6.7969160">
        <ele>1352.2</ele>
        <time>2017-07-29T08:28:07Z</time>
      </trkpt>
      <trkpt lat="44.9651550" lon="6.7969880">
        <ele>1351.6</ele>
        <time>2017-07-29T08:28:08Z</time>
      </trkpt>
      <trkpt lat="44.9651190" lon="6.7970620">
        <ele>1351.2</ele>
        <time>2017-07-29T08:28:09Z</time>
      </trkpt>
      <trkpt lat="44.9650580" lon="6.7972260">
        <ele>1350.2</ele>
        <time>2017-07-29T08:28:11Z</time>
      </trkpt>
      <trkpt lat="44.9650450" lon="6.7973980">
        <ele>1349.6</ele>
        <time>2017-07-29T08:28:13Z</time>
      </trkpt>
      <trkpt lat="44.9651160" lon="6.7975060">
        <ele>1349.2</ele>
        <time>2017-07-29T08:28:15Z</time>
      </trkpt>
      <trkpt lat="44.9652210" lon="6.7975700">
        <ele>1349.0</ele>
        <time>2017-07-29T08:28:17Z</time>
      </trkpt>
      <trkpt lat="44.9653850" lon="6.7976610">
        <ele>1349.0</ele>
        <time>2017-07-29T08:28:20Z</time>
      </trkpt>
      <trkpt lat="44.9658210" lon="6.7979080">
        <ele>1349.2</ele>
        <time>2017-07-29T08:28:28Z</time>
      </trkpt>
      <trkpt lat="44.9660750" lon="6.7980560">
        <ele>1350.0</ele>
        <time>2017-07-29T08:28:33Z</time>
      </trkpt>
      <trkpt lat="44.9661200" lon="6.7980830">
        <ele>1350.2</ele>
        <time>2017-07-29T08:28:34Z</time>
      </trkpt>
      <trkpt lat="44.9661670" lon="6.7981100">
        <ele>1350.4</ele>
        <time>2017-07-29T08:28:35Z</time>
      </trkpt>
      <trkpt lat="44.9662990" lon="6.7982030">
        <ele>1351.6</ele>
        <time>2017-07-29T08:28:38Z</time>
      </trkpt>
      <trkpt lat="44.9663870" lon="6.7982660">
        <ele>1352.2</ele>
        <time>2017-07-29T08:28:40Z</time>
      </trkpt>
      <trkpt lat="44.9664290" lon="6.7983010">
        <ele>1352.6</ele>
        <time>2017-07-29T08:28:41Z</time>
      </trkpt>
      <trkpt lat="44.9665590" lon="6.7983980">
        <ele>1353.8</ele>
        <time>2017-07-29T08:28:44Z</time>
      </trkpt>
      <trkpt lat="44.9666680" lon="6.7984870">
        <ele>1355.2</ele>
        <time>2017-07-29T08:28:47Z</time>
      </trkpt>
      <trkpt lat="44.9667410" lon="6.7985400">
        <ele>1356.4</ele>
        <time>2017-07-29T08:28:49Z</time>
      </trkpt>
      <trkpt lat="44.9668300" lon="6.7986310">
        <ele>1357.6</ele>
        <time>2017-07-29T08:28:52Z</time>
      </trkpt>
      <trkpt lat="44.9668600" lon="6.7986660">
        <ele>1358.2</ele>
        <time>2017-07-29T08:28:53Z</time>
      </trkpt>
      <trkpt lat="44.9668880" lon="6.7986940">
        <ele>1358.6</ele>
        <time>2017-07-29T08:28:54Z</time>
      </trkpt>
      <trkpt lat="44.9669700" lon="6.7988040">
        <ele>1360.0</ele>
        <time>2017-07-29T08:28:57Z</time>
      </trkpt>
      <trkpt lat="44.9669990" lon="6.7988410">
        <ele>1360.4</ele>
        <time>2017-07-29T08:28:58Z</time>
      </trkpt>
      <trkpt lat="44.9670760" lon="6.7989570">
        <ele>1361.0</ele>
        <time>2017-07-29T08:29:01Z</time>
      </trkpt>
      <trkpt lat="44.9671740" lon="6.7991210">
        <ele>1362.2</ele>
        <time>2017-07-29T08:29:05Z</time>
      </trkpt>
      <trkpt lat="44.9672010" lon="6.7991580">
        <ele>1362.6</ele>
        <time>2017-07-29T08:29:06Z</time>
      </trkpt>
      <trkpt lat="44.9672520" lon="6.7992400">
        <ele>1363.2</ele>
        <time>2017-07-29T08:29:08Z</time>
      </trkpt>
      <trkpt lat="44.9673700" lon="6.7994150">
        <ele>1364.8</ele>
        <time>2017-07-29T08:29:13Z</time>
      </trkpt>
      <trkpt lat="44.9675250" lon="6.7996190">
        <ele>1366.0</ele>
        <time>2017-07-29T08:29:19Z</time>
      </trkpt>
      <trkpt lat="44.9675490" lon="6.7996530">
        <ele>1366.2</ele>
        <time>2017-07-29T08:29:20Z</time>
      </trkpt>
      <trkpt lat="44.9676210" lon="6.7997510">
        <ele>1367.0</ele>
        <time>2017-07-29T08:29:23Z</time>
      </trkpt>
      <trkpt lat="44.9676940" lon="6.7998460">
        <ele>1367.6</ele>
        <time>2017-07-29T08:29:26Z</time>
      </trkpt>
      <trkpt lat="44.9678040" lon="6.7999850">
        <ele>1368.4</ele>
        <time>2017-07-29T08:29:30Z</time>
      </trkpt>
      <trkpt lat="44.9678910" lon="6.8001340">
        <ele>1369.4</ele>
        <time>2017-07-29T08:29:34Z</time>
      </trkpt>
      <trkpt lat="44.9679100" lon="6.8001730">
        <ele>1369.6</ele>
        <time>2017-07-29T08:29:35Z</time>
      </trkpt>
      <trkpt lat="44.9679760" lon="6.8002870">
        <ele>1370.8</ele>
        <time>2017-07-29T08:29:38Z</time>
      </trkpt>
      <trkpt lat="44.9680810" lon="6.8004160">
        <ele>1371.4</ele>
        <time>2017-07-29T08:29:42Z</time>
      </trkpt>
      <trkpt lat="44.9681420" lon="6.8004570">
        <ele>1372.0</ele>
        <time>2017-07-29T08:29:44Z</time>
      </trkpt>
      <trkpt lat="44.9682470" lon="6.8004830">
        <ele>1372.6</ele>
        <time>2017-07-29T08:29:47Z</time>
      </trkpt>
      <trkpt lat="44.9683110" lon="6.8004950">
        <ele>1373.2</ele>
        <time>2017-07-29T08:29:49Z</time>
      </trkpt>
      <trkpt lat="44.9684050" lon="6.8004950">
        <ele>1374.6</ele>
        <time>2017-07-29T08:29:52Z</time>
      </trkpt>
      <trkpt lat="44.9684680" lon="6.8004990">
        <ele>1375.4</ele>
        <time>2017-07-29T08:29:54Z</time>
      </trkpt>
      <trkpt lat="44.9684980" lon="6.8005030">
        <ele>1375.6</ele>
        <time>2017-07-29T08:29:55Z</time>
      </trkpt>
      <trkpt lat="44.9685820" lon="6.8005200">
        <ele>1377.2</ele>
        <time>2017-07-29T08:29:58Z</time>
      </trkpt>
      <trkpt lat="44.9686440" lon="6.8005310">
        <ele>1378.4</ele>
        <time>2017-07-29T08:30:00Z</time>
      </trkpt>
      <trkpt lat="44.9687030" lon="6.8005420">
        <ele>1379.6</ele>
        <time>2017-07-29T08:30:02Z</time>
      </trkpt>
      <trkpt lat="44.9687640" lon="6.8005490">
        <ele>1380.8</ele>
        <time>2017-07-29T08:30:04Z</time>
      </trkpt>
      <trkpt lat="44.9689080" lon="6.8005490">
        <ele>1382.2</ele>
        <time>2017-07-29T08:30:08Z</time>
      </trkpt>
      <trkpt lat="44.9689370" lon="6.8006090">
        <ele>1382.6</ele>
        <time>2017-07-29T08:30:09Z</time>
      </trkpt>
      <trkpt lat="44.9690000" lon="6.8007400">
        <ele>1382.8</ele>
        <time>2017-07-29T08:30:11Z</time>
      </trkpt>
      <trkpt lat="44.9690230" lon="6.8008150">
        <ele>1382.8</ele>
        <time>2017-07-29T08:30:12Z</time>
      </trkpt>
      <trkpt lat="44.9691080" lon="6.8010150">
        <ele>1383.0</ele>
        <time>2017-07-29T08:30:15Z</time>
      </trkpt>
      <trkpt lat="44.9692130" lon="6.8011520">
        <ele>1383.4</ele>
        <time>2017-07-29T08:30:18Z</time>
      </trkpt>
      <trkpt lat="44.9692580" lon="6.8011850">
        <ele>1383.6</ele>
        <time>2017-07-29T08:30:19Z</time>
      </trkpt>
      <trkpt lat="44.9692980" lon="6.8012180">
        <ele>1384.0</ele>
        <time>2017-07-29T08:30:20Z</time>
      </trkpt>
      <trkpt lat="44.9693760" lon="6.8012780">
        <ele>1384.2</ele>
        <time>2017-07-29T08:30:22Z</time>
      </trkpt>
      <trkpt lat="44.9694160" lon="6.8012980">
        <ele>1384.6</ele>
        <time>2017-07-29T08:30:23Z</time>
      </trkpt>
      <trkpt lat="44.9695240" lon="6.8013410">
        <ele>1385.2</ele>
        <time>2017-07-29T08:30:26Z</time>
      </trkpt>
      <trkpt lat="44.9696170" lon="6.8013650">
        <ele>1385.6</ele>
        <time>2017-07-29T08:30:28Z</time>
      </trkpt>
      <trkpt lat="44.9697100" lon="6.8013900">
        <ele>1386.0</ele>
        <time>2017-07-29T08:30:30Z</time>
      </trkpt>
      <trkpt lat="44.9698230" lon="6.8013910">
        <ele>1386.0</ele>
        <time>2017-07-29T08:30:32Z</time>
      </trkpt>
      <trkpt lat="44.9699330" lon="6.8013460">
        <ele>1386.6</ele>
        <time>2017-07-29T08:30:34Z</time>
      </trkpt>
      <trkpt lat="44.9700420" lon="6.8012750">
        <ele>1386.6</ele>
        <time>2017-07-29T08:30:36Z</time>
      </trkpt>
      <trkpt lat="44.9701510" lon="6.8011980">
        <ele>1386.8</ele>
        <time>2017-07-29T08:30:38Z</time>
      </trkpt>
      <trkpt lat="44.9702050" lon="6.8011620">
        <ele>1387.0</ele>
        <time>2017-07-29T08:30:39Z</time>
      </trkpt>
      <trkpt lat="44.9702620" lon="6.8011330">
        <ele>1387.2</ele>
        <time>2017-07-29T08:30:40Z</time>
      </trkpt>
      <trkpt lat="44.9704930" lon="6.8010310">
        <ele>1388.0</ele>
        <time>2017-07-29T08:30:44Z</time>
      </trkpt>
      <trkpt lat="44.9705420" lon="6.8010550">
        <ele>1388.2</ele>
        <time>2017-07-29T08:30:45Z</time>
      </trkpt>
      <trkpt lat="44.9705900" lon="6.8010820">
        <ele>1388.4</ele>
        <time>2017-07-29T08:30:46Z</time>
      </trkpt>
      <trkpt lat="44.9707770" lon="6.8011540">
        <ele>1389.0</ele>
        <time>2017-07-29T08:30:50Z</time>
      </trkpt>
      <trkpt lat="44.9708340" lon="6.8011630">
        <ele>1389.0</ele>
        <time>2017-07-29T08:30:51Z</time>
      </trkpt>
      <trkpt lat="44.9709010" lon="6.8011780">
        <ele>1388.8</ele>
        <time>2017-07-29T08:30:52Z</time>
      </trkpt>
      <trkpt lat="44.9711900" lon="6.8012550">
        <ele>1388.4</ele>
        <time>2017-07-29T08:30:56Z</time>
      </trkpt>
      <trkpt lat="44.9712520" lon="6.8013000">
        <ele>1388.2</ele>
        <time>2017-07-29T08:30:57Z</time>
      </trkpt>
      <trkpt lat="44.9714370" lon="6.8014570">
        <ele>1388.4</ele>
        <time>2017-07-29T08:31:00Z</time>
      </trkpt>
      <trkpt lat="44.9715100" lon="6.8014820">
        <ele>1388.4</ele>
        <time>2017-07-29T08:31:01Z</time>
      </trkpt>
      <trkpt lat="44.9715820" lon="6.8014970">
        <ele>1388.0</ele>
        <time>2017-07-29T08:31:02Z</time>
      </trkpt>
      <trkpt lat="44.9717200" lon="6.8015040">
        <ele>1387.6</ele>
        <time>2017-07-29T08:31:04Z</time>
      </trkpt>
      <trkpt lat="44.9717860" lon="6.8015160">
        <ele>1387.8</ele>
        <time>2017-07-29T08:31:05Z</time>
      </trkpt>
      <trkpt lat="44.9720910" lon="6.8015690">
        <ele>1387.4</ele>
        <time>2017-07-29T08:31:09Z</time>
      </trkpt>
      <trkpt lat="44.9723910" lon="6.8014680">
        <ele>1387.6</ele>
        <time>2017-07-29T08:31:13Z</time>
      </trkpt>
      <trkpt lat="44.9724540" lon="6.8014310">
        <ele>1387.4</ele>
        <time>2017-07-29T08:31:14Z</time>
      </trkpt>
      <trkpt lat="44.9726450" lon="6.8013290">
        <ele>1386.8</ele>
        <time>2017-07-29T08:31:18Z</time>
      </trkpt>
      <trkpt lat="44.9727180" lon="6.8013000">
        <ele>1386.8</ele>
        <time>2017-07-29T08:31:19Z</time>
      </trkpt>
      <trkpt lat="44.9728620" lon="6.8012690">
        <ele>1386.4</ele>
        <time>2017-07-29T08:31:21Z</time>
      </trkpt>
      <trkpt lat="44.9730040" lon="6.8013000">
        <ele>1386.0</ele>
        <time>2017-07-29T08:31:23Z</time>
      </trkpt>
      <trkpt lat="44.9730610" lon="6.8013320">
        <ele>1385.8</ele>
        <time>2017-07-29T08:31:24Z</time>
      </trkpt>
      <trkpt lat="44.9731120" lon="6.8013610">
        <ele>1385.8</ele>
        <time>2017-07-29T08:31:25Z</time>
      </trkpt>
      <trkpt lat="44.9731660" lon="6.8013920">
        <ele>1386.0</ele>
        <time>2017-07-29T08:31:26Z</time>
      </trkpt>
      <trkpt lat="44.9732220" lon="6.8014170">
        <ele>1385.8</ele>
        <time>2017-07-29T08:31:27Z</time>
      </trkpt>
      <trkpt lat="44.9734300" lon="6.8014980">
        <ele>1385.8</ele>
        <time>2017-07-29T08:31:30Z</time>
      </trkpt>
      <trkpt lat="44.9736920" lon="6.8016160">
        <ele>1385.8</ele>
        <time>2017-07-29T08:31:34Z</time>
      </trkpt>
      <trkpt lat="44.9741150" lon="6.8018180">
        <ele>1385.2</ele>
        <time>2017-07-29T08:31:40Z</time>
      </trkpt>
      <trkpt lat="44.9742450" lon="6.8019010">
        <ele>1384.8</ele>
        <time>2017-07-29T08:31:42Z</time>
      </trkpt>
      <trkpt lat="44.9743760" lon="6.8020090">
        <ele>1384.6</ele>
        <time>2017-07-29T08:31:44Z</time>
      </trkpt>
      <trkpt lat="44.9744430" lon="6.8020530">
        <ele>1384.4</ele>
        <time>2017-07-29T08:31:45Z</time>
      </trkpt>
      <trkpt lat="44.9745800" lon="6.8020720">
        <ele>1384.2</ele>
        <time>2017-07-29T08:31:47Z</time>
      </trkpt>
      <trkpt lat="44.9747950" lon="6.8019640">
        <ele>1383.6</ele>
        <time>2017-07-29T08:31:50Z</time>
      </trkpt>
      <trkpt lat="44.9749190" lon="6.8019140">
        <ele>1383.2</ele>
        <time>2017-07-29T08:31:52Z</time>
      </trkpt>
      <trkpt lat="44.9749790" lon="6.8019030">
        <ele>1382.8</ele>
        <time>2017-07-29T08:31:53Z</time>
      </trkpt>
      <trkpt lat="44.9750180" lon="6.8019290">
        <ele>1382.6</ele>
        <time>2017-07-29T08:31:54Z</time>
      </trkpt>
      <trkpt lat="44.9750490" lon="6.8019850">
        <ele>1382.4</ele>
        <time>2017-07-29T08:31:55Z</time>
      </trkpt>
      <trkpt lat="44.9751140" lon="6.8021190">
        <ele>1382.0</ele>
        <time>2017-07-29T08:31:57Z</time>
      </trkpt>
      <trkpt lat="44.9751850" lon="6.8022830">
        <ele>1381.6</ele>
        <time>2017-07-29T08:31:59Z</time>
      </trkpt>
      <trkpt lat="44.9753850" lon="6.8027870">
        <ele>1381.4</ele>
        <time>2017-07-29T08:32:05Z</time>
      </trkpt>
      <trkpt lat="44.9754030" lon="6.8028660">
        <ele>1381.4</ele>
        <time>2017-07-29T08:32:06Z</time>
      </trkpt>
      <trkpt lat="44.9754040" lon="6.8030100">
        <ele>1381.8</ele>
        <time>2017-07-29T08:32:08Z</time>
      </trkpt>
      <trkpt lat="44.9754130" lon="6.8031570">
        <ele>1382.0</ele>
        <time>2017-07-29T08:32:10Z</time>
      </trkpt>
      <trkpt lat="44.9754530" lon="6.8033200">
        <ele>1381.8</ele>
        <time>2017-07-29T08:32:12Z</time>
      </trkpt>
      <trkpt lat="44.9754850" lon="6.8034090">
        <ele>1382.0</ele>
        <time>2017-07-29T08:32:13Z</time>
      </trkpt>
      <trkpt lat="44.9755720" lon="6.8036590">
        <ele>1382.2</ele>
        <time>2017-07-29T08:32:16Z</time>
      </trkpt>
      <trkpt lat="44.9756100" lon="6.8038170">
        <ele>1382.6</ele>
        <time>2017-07-29T08:32:18Z</time>
      </trkpt>
      <trkpt lat="44.9756410" lon="6.8039650">
        <ele>1383.0</ele>
        <time>2017-07-29T08:32:20Z</time>
      </trkpt>
      <trkpt lat="44.9756440" lon="6.8040510">
        <ele>1383.4</ele>
        <time>2017-07-29T08:32:21Z</time>
      </trkpt>
      <trkpt lat="44.9756310" lon="6.8041880">
        <ele>1383.8</ele>
        <time>2017-07-29T08:32:23Z</time>
      </trkpt>
      <trkpt lat="44.9756290" lon="6.8042420">
        <ele>1384.0</ele>
        <time>2017-07-29T08:32:24Z</time>
      </trkpt>
      <trkpt lat="44.9756690" lon="6.8043820">
        <ele>1385.0</ele>
        <time>2017-07-29T08:32:27Z</time>
      </trkpt>
      <trkpt lat="44.9757060" lon="6.8044420">
        <ele>1386.4</ele>
        <time>2017-07-29T08:32:44Z</time>
      </trkpt>
      <trkpt lat="44.9757170" lon="6.8044640">
        <ele>1386.6</ele>
        <time>2017-07-29T08:32:45Z</time>
      </trkpt>
      <trkpt lat="44.9757850" lon="6.8045910">
        <ele>1387.6</ele>
        <time>2017-07-29T08:32:50Z</time>
      </trkpt>
      <trkpt lat="44.9758550" lon="6.8047080">
        <ele>1388.8</ele>
        <time>2017-07-29T08:32:54Z</time>
      </trkpt>
      <trkpt lat="44.9758780" lon="6.8048240">
        <ele>1389.8</ele>
        <time>2017-07-29T08:32:57Z</time>
      </trkpt>
      <trkpt lat="44.9759010" lon="6.8049150">
        <ele>1391.2</ele>
        <time>2017-07-29T08:33:00Z</time>
      </trkpt>
      <trkpt lat="44.9759210" lon="6.8050040">
        <ele>1392.6</ele>
        <time>2017-07-29T08:33:03Z</time>
      </trkpt>
      <trkpt lat="44.9759510" lon="6.8050930">
        <ele>1393.8</ele>
        <time>2017-07-29T08:33:06Z</time>
      </trkpt>
      <trkpt lat="44.9759720" lon="6.8051670">
        <ele>1394.8</ele>
        <time>2017-07-29T08:33:08Z</time>
      </trkpt>
      <trkpt lat="44.9759850" lon="6.8051980">
        <ele>1395.2</ele>
        <time>2017-07-29T08:33:09Z</time>
      </trkpt>
      <trkpt lat="44.9760870" lon="6.8053470">
        <ele>1396.2</ele>
        <time>2017-07-29T08:33:13Z</time>
      </trkpt>
      <trkpt lat="44.9762760" lon="6.8056210">
        <ele>1397.2</ele>
        <time>2017-07-29T08:33:19Z</time>
      </trkpt>
      <trkpt lat="44.9762920" lon="6.8056600">
        <ele>1397.4</ele>
        <time>2017-07-29T08:33:20Z</time>
      </trkpt>
      <trkpt lat="44.9763190" lon="6.8057500">
        <ele>1398.2</ele>
        <time>2017-07-29T08:33:23Z</time>
      </trkpt>
      <trkpt lat="44.9763230" lon="6.8057790">
        <ele>1398.4</ele>
        <time>2017-07-29T08:33:24Z</time>
      </trkpt>
      <trkpt lat="44.9763490" lon="6.8059060">
        <ele>1399.4</ele>
        <time>2017-07-29T08:33:28Z</time>
      </trkpt>
      <trkpt lat="44.9763620" lon="6.8059690">
        <ele>1400.0</ele>
        <time>2017-07-29T08:33:30Z</time>
      </trkpt>
      <trkpt lat="44.9763760" lon="6.8060220">
        <ele>1400.6</ele>
        <time>2017-07-29T08:33:32Z</time>
      </trkpt>
      <trkpt lat="44.9764130" lon="6.8061800">
        <ele>1401.8</ele>
        <time>2017-07-29T08:33:37Z</time>
      </trkpt>
      <trkpt lat="44.9764400" lon="6.8062660">
        <ele>1403.0</ele>
        <time>2017-07-29T08:33:40Z</time>
      </trkpt>
      <trkpt lat="44.9764770" lon="6.8063480">
        <ele>1404.0</ele>
        <time>2017-07-29T08:33:44Z</time>
      </trkpt>
      <trkpt lat="44.9765240" lon="6.8064020">
        <ele>1405.2</ele>
        <time>2017-07-29T08:33:47Z</time>
      </trkpt>
      <trkpt lat="44.9765580" lon="6.8064700">
        <ele>1406.2</ele>
        <time>2017-07-29T08:33:50Z</time>
      </trkpt>
      <trkpt lat="44.9765860" lon="6.8065300">
        <ele>1407.6</ele>
        <time>2017-07-29T08:33:53Z</time>
      </trkpt>
      <trkpt lat="44.9766280" lon="6.8065720">
        <ele>1408.8</ele>
        <time>2017-07-29T08:33:56Z</time>
      </trkpt>
      <trkpt lat="44.9766350" lon="6.8065850">
        <ele>1409.2</ele>
        <time>2017-07-29T08:33:57Z</time>
      </trkpt>
      <trkpt lat="44.9766600" lon="6.8066130">
        <ele>1410.2</ele>
        <time>2017-07-29T08:33:59Z</time>
      </trkpt>
      <trkpt lat="44.9766700" lon="6.8066280">
        <ele>1410.4</ele>
        <time>2017-07-29T08:34:00Z</time>
      </trkpt>
      <trkpt lat="44.9767030" lon="6.8066510">
        <ele>1411.6</ele>
        <time>2017-07-29T08:34:02Z</time>
      </trkpt>
      <trkpt lat="44.9767350" lon="6.8066800">
        <ele>1412.2</ele>
        <time>2017-07-29T08:34:04Z</time>
      </trkpt>
      <trkpt lat="44.9767760" lon="6.8067180">
        <ele>1412.8</ele>
        <time>2017-07-29T08:34:06Z</time>
      </trkpt>
      <trkpt lat="44.9768680" lon="6.8068120">
        <ele>1413.6</ele>
        <time>2017-07-29T08:34:09Z</time>
      </trkpt>
      <trkpt lat="44.9769110" lon="6.8069160">
        <ele>1413.8</ele>
        <time>2017-07-29T08:34:11Z</time>
      </trkpt>
      <trkpt lat="44.9769800" lon="6.8070190">
        <ele>1414.4</ele>
        <time>2017-07-29T08:34:14Z</time>
      </trkpt>
      <trkpt lat="44.9770380" lon="6.8071640">
        <ele>1415.0</ele>
        <time>2017-07-29T08:34:17Z</time>
      </trkpt>
      <trkpt lat="44.9770620" lon="6.8072190">
        <ele>1415.0</ele>
        <time>2017-07-29T08:34:18Z</time>
      </trkpt>
      <trkpt lat="44.9770830" lon="6.8072810">
        <ele>1415.0</ele>
        <time>2017-07-29T08:34:19Z</time>
      </trkpt>
      <trkpt lat="44.9771060" lon="6.8074730">
        <ele>1415.6</ele>
        <time>2017-07-29T08:34:22Z</time>
      </trkpt>
      <trkpt lat="44.9771190" lon="6.8075370">
        <ele>1415.8</ele>
        <time>2017-07-29T08:34:23Z</time>
      </trkpt>
      <trkpt lat="44.9771490" lon="6.8076560">
        <ele>1416.0</ele>
        <time>2017-07-29T08:34:25Z</time>
      </trkpt>
      <trkpt lat="44.9771810" lon="6.8077650">
        <ele>1416.2</ele>
        <time>2017-07-29T08:34:27Z</time>
      </trkpt>
      <trkpt lat="44.9772920" lon="6.8080090">
        <ele>1416.8</ele>
        <time>2017-07-29T08:34:32Z</time>
      </trkpt>
      <trkpt lat="44.9773090" lon="6.8080870">
        <ele>1416.8</ele>
        <time>2017-07-29T08:34:33Z</time>
      </trkpt>
      <trkpt lat="44.9772980" lon="6.8082080">
        <ele>1417.0</ele>
        <time>2017-07-29T08:34:35Z</time>
      </trkpt>
      <trkpt lat="44.9772820" lon="6.8082330">
        <ele>1417.0</ele>
        <time>2017-07-29T08:34:36Z</time>
      </trkpt>
      <trkpt lat="44.9772470" lon="6.8082730">
        <ele>1417.4</ele>
        <time>2017-07-29T08:34:38Z</time>
      </trkpt>
      <trkpt lat="44.9771850" lon="6.8084040">
        <ele>1417.8</ele>
        <time>2017-07-29T08:34:41Z</time>
      </trkpt>
      <trkpt lat="44.9771690" lon="6.8084620">
        <ele>1417.6</ele>
        <time>2017-07-29T08:34:42Z</time>
      </trkpt>
      <trkpt lat="44.9771320" lon="6.8085700">
        <ele>1418.2</ele>
        <time>2017-07-29T08:34:45Z</time>
      </trkpt>
      <trkpt lat="44.9771120" lon="6.8085960">
        <ele>1418.4</ele>
        <time>2017-07-29T08:34:46Z</time>
      </trkpt>
      <trkpt lat="44.9770850" lon="6.8086770">
        <ele>1418.8</ele>
        <time>2017-07-29T08:34:48Z</time>
      </trkpt>
      <trkpt lat="44.9770820" lon="6.8087890">
        <ele>1419.2</ele>
        <time>2017-07-29T08:34:50Z</time>
      </trkpt>
      <trkpt lat="44.9771540" lon="6.8089900">
        <ele>1418.6</ele>
        <time>2017-07-29T08:34:53Z</time>
      </trkpt>
      <trkpt lat="44.9771950" lon="6.8090850">
        <ele>1418.8</ele>
        <time>2017-07-29T08:34:55Z</time>
      </trkpt>
      <trkpt lat="44.9771940" lon="6.8091620">
        <ele>1418.8</ele>
        <time>2017-07-29T08:34:57Z</time>
      </trkpt>
      <trkpt lat="44.9772050" lon="6.8092440">
        <ele>1419.4</ele>
        <time>2017-07-29T08:35:00Z</time>
      </trkpt>
      <trkpt lat="44.9772370" lon="6.8093320">
        <ele>1420.4</ele>
        <time>2017-07-29T08:35:04Z</time>
      </trkpt>
      <trkpt lat="44.9772560" lon="6.8093590">
        <ele>1420.8</ele>
        <time>2017-07-29T08:35:05Z</time>
      </trkpt>
      <trkpt lat="44.9773050" lon="6.8094060">
        <ele>1421.8</ele>
        <time>2017-07-29T08:35:08Z</time>
      </trkpt>
      <trkpt lat="44.9773340" lon="6.8094140">
        <ele>1422.6</ele>
        <time>2017-07-29T08:35:10Z</time>
      </trkpt>
      <trkpt lat="44.9773620" lon="6.8094210">
        <ele>1423.2</ele>
        <time>2017-07-29T08:35:12Z</time>
      </trkpt>
      <trkpt lat="44.9773970" lon="6.8094160">
        <ele>1424.2</ele>
        <time>2017-07-29T08:35:14Z</time>
      </trkpt>
      <trkpt lat="44.9774240" lon="6.8094100">
        <ele>1424.4</ele>
        <time>2017-07-29T08:35:15Z</time>
      </trkpt>
      <trkpt lat="44.9775870" lon="6.8093680">
        <ele>1425.4</ele>
        <time>2017-07-29T08:35:19Z</time>
      </trkpt>
      <trkpt lat="44.9777650" lon="6.8093480">
        <ele>1425.8</ele>
        <time>2017-07-29T08:35:23Z</time>
      </trkpt>
      <trkpt lat="44.9780370" lon="6.8093340">
        <ele>1426.2</ele>
        <time>2017-07-29T08:35:29Z</time>
      </trkpt>
      <trkpt lat="44.9780850" lon="6.8093050">
        <ele>1426.0</ele>
        <time>2017-07-29T08:35:30Z</time>
      </trkpt>
      <trkpt lat="44.9782410" lon="6.8092500">
        <ele>1425.8</ele>
        <time>2017-07-29T08:35:33Z</time>
      </trkpt>
      <trkpt lat="44.9783090" lon="6.8092260">
        <ele>1425.6</ele>
        <time>2017-07-29T08:35:34Z</time>
      </trkpt>
      <trkpt lat="44.9784450" lon="6.8092040">
        <ele>1425.2</ele>
        <time>2017-07-29T08:35:36Z</time>
      </trkpt>
      <trkpt lat="44.9785150" lon="6.8092100">
        <ele>1424.8</ele>
        <time>2017-07-29T08:35:37Z</time>
      </trkpt>
      <trkpt lat="44.9786240" lon="6.8092240">
        <ele>1424.6</ele>
        <time>2017-07-29T08:35:40Z</time>
      </trkpt>
      <trkpt lat="44.9787790" lon="6.8091370">
        <ele>1424.6</ele>
        <time>2017-07-29T08:35:44Z</time>
      </trkpt>
      <trkpt lat="44.9788290" lon="6.8091230">
        <ele>1424.2</ele>
        <time>2017-07-29T08:35:45Z</time>
      </trkpt>
      <trkpt lat="44.9789260" lon="6.8091400">
        <ele>1424.2</ele>
        <time>2017-07-29T08:35:47Z</time>
      </trkpt>
      <trkpt lat="44.9790300" lon="6.8091790">
        <ele>1424.4</ele>
        <time>2017-07-29T08:35:49Z</time>
      </trkpt>
      <trkpt lat="44.9791830" lon="6.8092360">
        <ele>1425.0</ele>
        <time>2017-07-29T08:35:52Z</time>
      </trkpt>
      <trkpt lat="44.9792380" lon="6.8092440">
        <ele>1425.2</ele>
        <time>2017-07-29T08:35:53Z</time>
      </trkpt>
      <trkpt lat="44.9793620" lon="6.8093430">
        <ele>1425.8</ele>
        <time>2017-07-29T08:35:56Z</time>
      </trkpt>
      <trkpt lat="44.9793960" lon="6.8093970">
        <ele>1426.0</ele>
        <time>2017-07-29T08:35:57Z</time>
      </trkpt>
      <trkpt lat="44.9794320" lon="6.8094490">
        <ele>1426.2</ele>
        <time>2017-07-29T08:35:58Z</time>
      </trkpt>
      <trkpt lat="44.9795090" lon="6.8095610">
        <ele>1426.8</ele>
        <time>2017-07-29T08:36:00Z</time>
      </trkpt>
      <trkpt lat="44.9796320" lon="6.8097410">
        <ele>1426.8</ele>
        <time>2017-07-29T08:36:03Z</time>
      </trkpt>
      <trkpt lat="44.9797980" lon="6.8099880">
        <ele>1426.8</ele>
        <time>2017-07-29T08:36:07Z</time>
      </trkpt>
      <trkpt lat="44.9798410" lon="6.8100480">
        <ele>1426.6</ele>
        <time>2017-07-29T08:36:08Z</time>
      </trkpt>
      <trkpt lat="44.9799660" lon="6.8101540">
        <ele>1426.0</ele>
        <time>2017-07-29T08:36:10Z</time>
      </trkpt>
      <trkpt lat="44.9801020" lon="6.8102770">
        <ele>1425.8</ele>
        <time>2017-07-29T08:36:12Z</time>
      </trkpt>
      <trkpt lat="44.9802440" lon="6.8103750">
        <ele>1425.2</ele>
        <time>2017-07-29T08:36:14Z</time>
      </trkpt>
      <trkpt lat="44.9803140" lon="6.8104390">
        <ele>1425.2</ele>
        <time>2017-07-29T08:36:15Z</time>
      </trkpt>
      <trkpt lat="44.9803750" lon="6.8105080">
        <ele>1424.8</ele>
        <time>2017-07-29T08:36:16Z</time>
      </trkpt>
      <trkpt lat="44.9804260" lon="6.8106000">
        <ele>1424.4</ele>
        <time>2017-07-29T08:36:17Z</time>
      </trkpt>
      <trkpt lat="44.9805300" lon="6.8107570">
        <ele>1424.2</ele>
        <time>2017-07-29T08:36:19Z</time>
      </trkpt>
      <trkpt lat="44.9805610" lon="6.8108550">
        <ele>1424.0</ele>
        <time>2017-07-29T08:36:20Z</time>
      </trkpt>
      <trkpt lat="44.9805750" lon="6.8110870">
        <ele>1423.6</ele>
        <time>2017-07-29T08:36:22Z</time>
      </trkpt>
      <trkpt lat="44.9805800" lon="6.8113280">
        <ele>1423.2</ele>
        <time>2017-07-29T08:36:24Z</time>
      </trkpt>
      <trkpt lat="44.9805960" lon="6.8115360">
        <ele>1421.0</ele>
        <time>2017-07-29T08:36:26Z</time>
      </trkpt>
      <trkpt lat="44.9805910" lon="6.8117120">
        <ele>1419.6</ele>
        <time>2017-07-29T08:36:28Z</time>
      </trkpt>
      <trkpt lat="44.9805470" lon="6.8118420">
        <ele>1417.6</ele>
        <time>2017-07-29T08:36:30Z</time>
      </trkpt>
      <trkpt lat="44.9805100" lon="6.8118950">
        <ele>1416.4</ele>
        <time>2017-07-29T08:36:31Z</time>
      </trkpt>
      <trkpt lat="44.9804680" lon="6.8119520">
        <ele>1415.6</ele>
        <time>2017-07-29T08:36:32Z</time>
      </trkpt>
      <trkpt lat="44.9804260" lon="6.8120320">
        <ele>1414.4</ele>
        <time>2017-07-29T08:36:33Z</time>
      </trkpt>
      <trkpt lat="44.9803800" lon="6.8121240">
        <ele>1413.4</ele>
        <time>2017-07-29T08:36:34Z</time>
      </trkpt>
      <trkpt lat="44.9803360" lon="6.8122150">
        <ele>1412.6</ele>
        <time>2017-07-29T08:36:35Z</time>
      </trkpt>
      <trkpt lat="44.9803080" lon="6.8123110">
        <ele>1412.0</ele>
        <time>2017-07-29T08:36:36Z</time>
      </trkpt>
      <trkpt lat="44.9803060" lon="6.8124100">
        <ele>1411.4</ele>
        <time>2017-07-29T08:36:37Z</time>
      </trkpt>
      <trkpt lat="44.9803080" lon="6.8124720">
        <ele>1410.8</ele>
        <time>2017-07-29T08:36:38Z</time>
      </trkpt>
      <trkpt lat="44.9803170" lon="6.8125210">
        <ele>1410.2</ele>
        <time>2017-07-29T08:36:39Z</time>
      </trkpt>
      <trkpt lat="44.9803360" lon="6.8126320">
        <ele>1409.4</ele>
        <time>2017-07-29T08:36:41Z</time>
      </trkpt>
      <trkpt lat="44.9803550" lon="6.8126760">
        <ele>1409.0</ele>
        <time>2017-07-29T08:36:42Z</time>
      </trkpt>
      <trkpt lat="44.9803930" lon="6.8127840">
        <ele>1408.4</ele>
        <time>2017-07-29T08:36:44Z</time>
      </trkpt>
      <trkpt lat="44.9804300" lon="6.8129250">
        <ele>1407.8</ele>
        <time>2017-07-29T08:36:46Z</time>
      </trkpt>
      <trkpt lat="44.9804760" lon="6.8129720">
        <ele>1407.6</ele>
        <time>2017-07-29T08:36:47Z</time>
      </trkpt>
      <trkpt lat="44.9805660" lon="6.8130340">
        <ele>1407.2</ele>
        <time>2017-07-29T08:36:49Z</time>
      </trkpt>
      <trkpt lat="44.9806210" lon="6.8130090">
        <ele>1406.8</ele>
        <time>2017-07-29T08:36:50Z</time>
      </trkpt>
      <trkpt lat="44.9807140" lon="6.8129640">
        <ele>1406.4</ele>
        <time>2017-07-29T08:36:52Z</time>
      </trkpt>
      <trkpt lat="44.9808620" lon="6.8128880">
        <ele>1406.0</ele>
        <time>2017-07-29T08:36:56Z</time>
      </trkpt>
      <trkpt lat="44.9809040" lon="6.8128830">
        <ele>1406.0</ele>
        <time>2017-07-29T08:36:57Z</time>
      </trkpt>
      <trkpt lat="44.9809890" lon="6.8128770">
        <ele>1406.0</ele>
        <time>2017-07-29T08:36:59Z</time>
      </trkpt>
      <trkpt lat="44.9810580" lon="6.8128930">
        <ele>1406.0</ele>
        <time>2017-07-29T08:37:01Z</time>
      </trkpt>
      <trkpt lat="44.9812300" lon="6.8129620">
        <ele>1407.0</ele>
        <time>2017-07-29T08:37:06Z</time>
      </trkpt>
      <trkpt lat="44.9813110" lon="6.8129780">
        <ele>1407.0</ele>
        <time>2017-07-29T08:37:08Z</time>
      </trkpt>
      <trkpt lat="44.9815120" lon="6.8129390">
        <ele>1408.2</ele>
        <time>2017-07-29T08:37:12Z</time>
      </trkpt>
      <trkpt lat="44.9815670" lon="6.8129420">
        <ele>1408.6</ele>
        <time>2017-07-29T08:37:13Z</time>
      </trkpt>
      <trkpt lat="44.9817000" lon="6.8129260">
        <ele>1409.0</ele>
        <time>2017-07-29T08:37:16Z</time>
      </trkpt>
      <trkpt lat="44.9817390" lon="6.8129080">
        <ele>1409.4</ele>
        <time>2017-07-29T08:37:17Z</time>
      </trkpt>
      <trkpt lat="44.9817750" lon="6.8128940">
        <ele>1409.6</ele>
        <time>2017-07-29T08:37:18Z</time>
      </trkpt>
      <trkpt lat="44.9818320" lon="6.8128510">
        <ele>1409.8</ele>
        <time>2017-07-29T08:37:20Z</time>
      </trkpt>
      <trkpt lat="44.9818970" lon="6.8127800">
        <ele>1410.4</ele>
        <time>2017-07-29T08:37:23Z</time>
      </trkpt>
      <trkpt lat="44.9819220" lon="6.8127530">
        <ele>1410.4</ele>
        <time>2017-07-29T08:37:24Z</time>
      </trkpt>
      <trkpt lat="44.9820310" lon="6.8126800">
        <ele>1411.0</ele>
        <time>2017-07-29T08:37:28Z</time>
      </trkpt>
      <trkpt lat="44.9820680" lon="6.8126440">
        <ele>1411.8</ele>
        <time>2017-07-29T08:37:30Z</time>
      </trkpt>
      <trkpt lat="44.9821370" lon="6.8125970">
        <ele>1412.4</ele>
        <time>2017-07-29T08:37:33Z</time>
      </trkpt>
      <trkpt lat="44.9821610" lon="6.8125880">
        <ele>1412.6</ele>
        <time>2017-07-29T08:37:34Z</time>
      </trkpt>
      <trkpt lat="44.9821790" lon="6.8125750">
        <ele>1413.0</ele>
        <time>2017-07-29T08:37:35Z</time>
      </trkpt>
      <trkpt lat="44.9822370" lon="6.8125580">
        <ele>1414.2</ele>
        <time>2017-07-29T08:37:38Z</time>
      </trkpt>
      <trkpt lat="44.9822830" lon="6.8125140">
        <ele>1415.8</ele>
        <time>2017-07-29T08:37:42Z</time>
      </trkpt>
      <trkpt lat="44.9823700" lon="6.8124290">
        <ele>1416.4</ele>
        <time>2017-07-29T08:37:46Z</time>
      </trkpt>
      <trkpt lat="44.9824510" lon="6.8123600">
        <ele>1416.8</ele>
        <time>2017-07-29T08:37:48Z</time>
      </trkpt>
      <trkpt lat="44.9825220" lon="6.8123000">
        <ele>1417.0</ele>
        <time>2017-07-29T08:37:50Z</time>
      </trkpt>
      <trkpt lat="44.9825460" lon="6.8122600">
        <ele>1416.8</ele>
        <time>2017-07-29T08:37:51Z</time>
      </trkpt>
      <trkpt lat="44.9825810" lon="6.8121730">
        <ele>1417.0</ele>
        <time>2017-07-29T08:37:53Z</time>
      </trkpt>
      <trkpt lat="44.9827610" lon="6.8120780">
        <ele>1416.2</ele>
        <time>2017-07-29T08:37:57Z</time>
      </trkpt>
      <trkpt lat="44.9828120" lon="6.8120660">
        <ele>1416.0</ele>
        <time>2017-07-29T08:37:58Z</time>
      </trkpt>
      <trkpt lat="44.9828620" lon="6.8120500">
        <ele>1415.8</ele>
        <time>2017-07-29T08:37:59Z</time>
      </trkpt>
      <trkpt lat="44.9830470" lon="6.8119580">
        <ele>1415.8</ele>
        <time>2017-07-29T08:38:03Z</time>
      </trkpt>
      <trkpt lat="44.9831720" lon="6.8119430">
        <ele>1416.0</ele>
        <time>2017-07-29T08:38:07Z</time>
      </trkpt>
      <trkpt lat="44.9833470" lon="6.8119960">
        <ele>1416.0</ele>
        <time>2017-07-29T08:38:13Z</time>
      </trkpt>
      <trkpt lat="44.9834550" lon="6.8120620">
        <ele>1416.8</ele>
        <time>2017-07-29T08:38:18Z</time>
      </trkpt>
      <trkpt lat="44.9834750" lon="6.8120800">
        <ele>1417.2</ele>
        <time>2017-07-29T08:38:19Z</time>
      </trkpt>
      <trkpt lat="44.9835310" lon="6.8121230">
        <ele>1418.2</ele>
        <time>2017-07-29T08:38:22Z</time>
      </trkpt>
      <trkpt lat="44.9835860" lon="6.8121740">
        <ele>1419.4</ele>
        <time>2017-07-29T08:38:25Z</time>
      </trkpt>
      <trkpt lat="44.9836040" lon="6.8121880">
        <ele>1420.4</ele>
        <time>2017-07-29T08:38:26Z</time>
      </trkpt>
      <trkpt lat="44.9836500" lon="6.8122300">
        <ele>1421.8</ele>
        <time>2017-07-29T08:38:29Z</time>
      </trkpt>
      <trkpt lat="44.9837000" lon="6.8122710">
        <ele>1423.2</ele>
        <time>2017-07-29T08:38:32Z</time>
      </trkpt>
      <trkpt lat="44.9837330" lon="6.8122990">
        <ele>1424.0</ele>
        <time>2017-07-29T08:38:34Z</time>
      </trkpt>
      <trkpt lat="44.9837500" lon="6.8123110">
        <ele>1424.4</ele>
        <time>2017-07-29T08:38:35Z</time>
      </trkpt>
      <trkpt lat="44.9838180" lon="6.8123630">
        <ele>1425.6</ele>
        <time>2017-07-29T08:38:39Z</time>
      </trkpt>
      <trkpt lat="44.9838300" lon="6.8123780">
        <ele>1425.8</ele>
        <time>2017-07-29T08:38:40Z</time>
      </trkpt>
      <trkpt lat="44.9838370" lon="6.8123980">
        <ele>1426.4</ele>
        <time>2017-07-29T08:38:41Z</time>
      </trkpt>
      <trkpt lat="44.9838420" lon="6.8124180">
        <ele>1426.8</ele>
        <time>2017-07-29T08:38:42Z</time>
      </trkpt>
      <trkpt lat="44.9838230" lon="6.8124630">
        <ele>1427.8</ele>
        <time>2017-07-29T08:38:45Z</time>
      </trkpt>
      <trkpt lat="44.9837980" lon="6.8124600">
        <ele>1428.6</ele>
        <time>2017-07-29T08:38:47Z</time>
      </trkpt>
      <trkpt lat="44.9837850" lon="6.8124560">
        <ele>1429.0</ele>
        <time>2017-07-29T08:38:48Z</time>
      </trkpt>
      <trkpt lat="44.9837580" lon="6.8124560">
        <ele>1430.0</ele>
        <time>2017-07-29T08:38:50Z</time>
      </trkpt>
      <trkpt lat="44.9836910" lon="6.8124740">
        <ele>1431.2</ele>
        <time>2017-07-29T08:38:54Z</time>
      </trkpt>
      <trkpt lat="44.9836360" lon="6.8124910">
        <ele>1431.4</ele>
        <time>2017-07-29T08:38:57Z</time>
      </trkpt>
      <trkpt lat="44.9834860" lon="6.8125780">
        <ele>1431.4</ele>
        <time>2017-07-29T08:39:05Z</time>
      </trkpt>
      <trkpt lat="44.9834140" lon="6.8125930">
        <ele>1432.4</ele>
        <time>2017-07-29T08:39:09Z</time>
      </trkpt>
      <trkpt lat="44.9833660" lon="6.8126260">
        <ele>1432.8</ele>
        <time>2017-07-29T08:39:12Z</time>
      </trkpt>
      <trkpt lat="44.9833370" lon="6.8126560">
        <ele>1433.4</ele>
        <time>2017-07-29T08:39:14Z</time>
      </trkpt>
      <trkpt lat="44.9833410" lon="6.8127250">
        <ele>1433.8</ele>
        <time>2017-07-29T08:39:17Z</time>
      </trkpt>
      <trkpt lat="44.9833660" lon="6.8127650">
        <ele>1434.2</ele>
        <time>2017-07-29T08:39:19Z</time>
      </trkpt>
      <trkpt lat="44.9833840" lon="6.8127740">
        <ele>1434.4</ele>
        <time>2017-07-29T08:39:20Z</time>
      </trkpt>
      <trkpt lat="44.9834190" lon="6.8127790">
        <ele>1435.2</ele>
        <time>2017-07-29T08:39:22Z</time>
      </trkpt>
      <trkpt lat="44.9834490" lon="6.8128050">
        <ele>1435.6</ele>
        <time>2017-07-29T08:39:24Z</time>
      </trkpt>
      <trkpt lat="44.9834990" lon="6.8128320">
        <ele>1436.8</ele>
        <time>2017-07-29T08:39:27Z</time>
      </trkpt>
      <trkpt lat="44.9835130" lon="6.8128450">
        <ele>1437.0</ele>
        <time>2017-07-29T08:39:28Z</time>
      </trkpt>
      <trkpt lat="44.9835420" lon="6.8128750">
        <ele>1437.8</ele>
        <time>2017-07-29T08:39:30Z</time>
      </trkpt>
      <trkpt lat="44.9835830" lon="6.8129540">
        <ele>1439.0</ele>
        <time>2017-07-29T08:39:34Z</time>
      </trkpt>
      <trkpt lat="44.9836050" lon="6.8129920">
        <ele>1439.6</ele>
        <time>2017-07-29T08:39:36Z</time>
      </trkpt>
      <trkpt lat="44.9836320" lon="6.8130340">
        <ele>1440.0</ele>
        <time>2017-07-29T08:39:38Z</time>
      </trkpt>
      <trkpt lat="44.9836790" lon="6.8131030">
        <ele>1440.6</ele>
        <time>2017-07-29T08:39:42Z</time>
      </trkpt>
      <trkpt lat="44.9836980" lon="6.8131280">
        <ele>1441.4</ele>
        <time>2017-07-29T08:39:44Z</time>
      </trkpt>
      <trkpt lat="44.9837250" lon="6.8131730">
        <ele>1442.4</ele>
        <time>2017-07-29T08:39:47Z</time>
      </trkpt>
      <trkpt lat="44.9837560" lon="6.8132020">
        <ele>1443.4</ele>
        <time>2017-07-29T08:39:49Z</time>
      </trkpt>
      <trkpt lat="44.9837720" lon="6.8132140">
        <ele>1443.6</ele>
        <time>2017-07-29T08:39:50Z</time>
      </trkpt>
      <trkpt lat="44.9838640" lon="6.8132520">
        <ele>1444.8</ele>
        <time>2017-07-29T08:39:55Z</time>
      </trkpt>
      <trkpt lat="44.9839020" lon="6.8132590">
        <ele>1445.4</ele>
        <time>2017-07-29T08:39:57Z</time>
      </trkpt>
      <trkpt lat="44.9839390" lon="6.8132500">
        <ele>1445.8</ele>
        <time>2017-07-29T08:39:59Z</time>
      </trkpt>
      <trkpt lat="44.9839940" lon="6.8132520">
        <ele>1446.8</ele>
        <time>2017-07-29T08:40:02Z</time>
      </trkpt>
      <trkpt lat="44.9840140" lon="6.8132580">
        <ele>1447.2</ele>
        <time>2017-07-29T08:40:03Z</time>
      </trkpt>
      <trkpt lat="44.9840470" lon="6.8132690">
        <ele>1448.0</ele>
        <time>2017-07-29T08:40:05Z</time>
      </trkpt>
      <trkpt lat="44.9841050" lon="6.8132910">
        <ele>1449.2</ele>
        <time>2017-07-29T08:40:08Z</time>
      </trkpt>
      <trkpt lat="44.9841670" lon="6.8133160">
        <ele>1450.4</ele>
        <time>2017-07-29T08:40:11Z</time>
      </trkpt>
      <trkpt lat="44.9842370" lon="6.8133420">
        <ele>1451.6</ele>
        <time>2017-07-29T08:40:14Z</time>
      </trkpt>
      <trkpt lat="44.9843130" lon="6.8133610">
        <ele>1453.0</ele>
        <time>2017-07-29T08:40:17Z</time>
      </trkpt>
      <trkpt lat="44.9843880" lon="6.8133840">
        <ele>1454.2</ele>
        <time>2017-07-29T08:40:20Z</time>
      </trkpt>
      <trkpt lat="44.9844770" lon="6.8134190">
        <ele>1455.4</ele>
        <time>2017-07-29T08:40:24Z</time>
      </trkpt>
      <trkpt lat="44.9844970" lon="6.8134250">
        <ele>1455.8</ele>
        <time>2017-07-29T08:40:25Z</time>
      </trkpt>
      <trkpt lat="44.9845350" lon="6.8134420">
        <ele>1456.8</ele>
        <time>2017-07-29T08:40:27Z</time>
      </trkpt>
      <trkpt lat="44.9845880" lon="6.8134750">
        <ele>1457.8</ele>
        <time>2017-07-29T08:40:30Z</time>
      </trkpt>
      <trkpt lat="44.9846350" lon="6.8135290">
        <ele>1458.8</ele>
        <time>2017-07-29T08:40:33Z</time>
      </trkpt>
      <trkpt lat="44.9847060" lon="6.8135860">
        <ele>1460.2</ele>
        <time>2017-07-29T08:40:37Z</time>
      </trkpt>
      <trkpt lat="44.9847400" lon="6.8136160">
        <ele>1460.8</ele>
        <time>2017-07-29T08:40:39Z</time>
      </trkpt>
      <trkpt lat="44.9847620" lon="6.8136260">
        <ele>1461.2</ele>
        <time>2017-07-29T08:40:40Z</time>
      </trkpt>
      <trkpt lat="44.9848620" lon="6.8136810">
        <ele>1462.2</ele>
        <time>2017-07-29T08:40:45Z</time>
      </trkpt>
      <trkpt lat="44.9848790" lon="6.8136870">
        <ele>1462.6</ele>
        <time>2017-07-29T08:40:46Z</time>
      </trkpt>
      <trkpt lat="44.9849310" lon="6.8136920">
        <ele>1463.2</ele>
        <time>2017-07-29T08:40:49Z</time>
      </trkpt>
      <trkpt lat="44.9849800" lon="6.8136810">
        <ele>1464.0</ele>
        <time>2017-07-29T08:40:52Z</time>
      </trkpt>
      <trkpt lat="44.9849890" lon="6.8136740">
        <ele>1464.4</ele>
        <time>2017-07-29T08:40:53Z</time>
      </trkpt>
      <trkpt lat="44.9850500" lon="6.8136720">
        <ele>1465.6</ele>
        <time>2017-07-29T08:40:57Z</time>
      </trkpt>
      <trkpt lat="44.9850680" lon="6.8136720">
        <ele>1465.8</ele>
        <time>2017-07-29T08:40:58Z</time>
      </trkpt>
      <trkpt lat="44.9851190" lon="6.8136820">
        <ele>1466.8</ele>
        <time>2017-07-29T08:41:01Z</time>
      </trkpt>
      <trkpt lat="44.9851830" lon="6.8136920">
        <ele>1467.6</ele>
        <time>2017-07-29T08:41:05Z</time>
      </trkpt>
      <trkpt lat="44.9852350" lon="6.8137020">
        <ele>1467.8</ele>
        <time>2017-07-29T08:41:08Z</time>
      </trkpt>
      <trkpt lat="44.9852860" lon="6.8137120">
        <ele>1468.6</ele>
        <time>2017-07-29T08:41:11Z</time>
      </trkpt>
      <trkpt lat="44.9853040" lon="6.8137140">
        <ele>1468.8</ele>
        <time>2017-07-29T08:41:12Z</time>
      </trkpt>
      <trkpt lat="44.9853580" lon="6.8137210">
        <ele>1470.0</ele>
        <time>2017-07-29T08:41:15Z</time>
      </trkpt>
      <trkpt lat="44.9854310" lon="6.8137400">
        <ele>1471.2</ele>
        <time>2017-07-29T08:41:19Z</time>
      </trkpt>
      <trkpt lat="44.9854470" lon="6.8137420">
        <ele>1471.6</ele>
        <time>2017-07-29T08:41:20Z</time>
      </trkpt>
      <trkpt lat="44.9854950" lon="6.8137580">
        <ele>1472.2</ele>
        <time>2017-07-29T08:41:23Z</time>
      </trkpt>
      <trkpt lat="44.9855600" lon="6.8137730">
        <ele>1473.2</ele>
        <time>2017-07-29T08:41:27Z</time>
      </trkpt>
      <trkpt lat="44.9856160" lon="6.8137970">
        <ele>1474.4</ele>
        <time>2017-07-29T08:41:31Z</time>
      </trkpt>
      <trkpt lat="44.9856660" lon="6.8138310">
        <ele>1475.4</ele>
        <time>2017-07-29T08:41:35Z</time>
      </trkpt>
      <trkpt lat="44.9856850" lon="6.8138410">
        <ele>1475.8</ele>
        <time>2017-07-29T08:41:36Z</time>
      </trkpt>
      <trkpt lat="44.9857160" lon="6.8138580">
        <ele>1477.2</ele>
        <time>2017-07-29T08:41:38Z</time>
      </trkpt>
      <trkpt lat="44.9857270" lon="6.8138770">
        <ele>1477.4</ele>
        <time>2017-07-29T08:41:39Z</time>
      </trkpt>
      <trkpt lat="44.9857610" lon="6.8139180">
        <ele>1478.2</ele>
        <time>2017-07-29T08:41:42Z</time>
      </trkpt>
      <trkpt lat="44.9857730" lon="6.8139280">
        <ele>1478.6</ele>
        <time>2017-07-29T08:41:43Z</time>
      </trkpt>
      <trkpt lat="44.9857980" lon="6.8139410">
        <ele>1479.2</ele>
        <time>2017-07-29T08:41:45Z</time>
      </trkpt>
      <trkpt lat="44.9858350" lon="6.8139670">
        <ele>1480.2</ele>
        <time>2017-07-29T08:41:48Z</time>
      </trkpt>
      <trkpt lat="44.9858490" lon="6.8139690">
        <ele>1480.6</ele>
        <time>2017-07-29T08:41:49Z</time>
      </trkpt>
      <trkpt lat="44.9858860" lon="6.8139740">
        <ele>1481.4</ele>
        <time>2017-07-29T08:41:52Z</time>
      </trkpt>
      <trkpt lat="44.9859260" lon="6.8139950">
        <ele>1482.4</ele>
        <time>2017-07-29T08:41:55Z</time>
      </trkpt>
      <trkpt lat="44.9859490" lon="6.8140160">
        <ele>1483.2</ele>
        <time>2017-07-29T08:41:57Z</time>
      </trkpt>
      <trkpt lat="44.9859630" lon="6.8140180">
        <ele>1483.4</ele>
        <time>2017-07-29T08:41:58Z</time>
      </trkpt>
      <trkpt lat="44.9859890" lon="6.8140420">
        <ele>1484.2</ele>
        <time>2017-07-29T08:42:00Z</time>
      </trkpt>
      <trkpt lat="44.9860040" lon="6.8140470">
        <ele>1484.6</ele>
        <time>2017-07-29T08:42:01Z</time>
      </trkpt>
      <trkpt lat="44.9860180" lon="6.8140560">
        <ele>1485.2</ele>
        <time>2017-07-29T08:42:02Z</time>
      </trkpt>
      <trkpt lat="44.9860490" lon="6.8140750">
        <ele>1485.6</ele>
        <time>2017-07-29T08:42:04Z</time>
      </trkpt>
      <trkpt lat="44.9860630" lon="6.8140840">
        <ele>1486.0</ele>
        <time>2017-07-29T08:42:05Z</time>
      </trkpt>
      <trkpt lat="44.9861000" lon="6.8141110">
        <ele>1486.6</ele>
        <time>2017-07-29T08:42:08Z</time>
      </trkpt>
      <trkpt lat="44.9861230" lon="6.8141280">
        <ele>1487.4</ele>
        <time>2017-07-29T08:42:10Z</time>
      </trkpt>
      <trkpt lat="44.9861370" lon="6.8141360">
        <ele>1487.8</ele>
        <time>2017-07-29T08:42:11Z</time>
      </trkpt>
      <trkpt lat="44.9861760" lon="6.8141600">
        <ele>1488.4</ele>
        <time>2017-07-29T08:42:14Z</time>
      </trkpt>
      <trkpt lat="44.9862010" lon="6.8141640">
        <ele>1488.8</ele>
        <time>2017-07-29T08:42:16Z</time>
      </trkpt>
      <trkpt lat="44.9862490" lon="6.8141890">
        <ele>1490.0</ele>
        <time>2017-07-29T08:42:20Z</time>
      </trkpt>
      <trkpt lat="44.9862770" lon="6.8142000">
        <ele>1490.4</ele>
        <time>2017-07-29T08:42:22Z</time>
      </trkpt>
      <trkpt lat="44.9863260" lon="6.8142150">
        <ele>1491.2</ele>
        <time>2017-07-29T08:42:25Z</time>
      </trkpt>
      <trkpt lat="44.9863840" lon="6.8142480">
        <ele>1492.4</ele>
        <time>2017-07-29T08:42:29Z</time>
      </trkpt>
      <trkpt lat="44.9864120" lon="6.8142670">
        <ele>1493.0</ele>
        <time>2017-07-29T08:42:31Z</time>
      </trkpt>
      <trkpt lat="44.9864280" lon="6.8142880">
        <ele>1493.6</ele>
        <time>2017-07-29T08:42:33Z</time>
      </trkpt>
      <trkpt lat="44.9864450" lon="6.8145160">
        <ele>1499.0</ele>
        <time>2017-07-29T08:42:52Z</time>
      </trkpt>
      <trkpt lat="44.9864330" lon="6.8145210">
        <ele>1499.2</ele>
        <time>2017-07-29T08:42:53Z</time>
      </trkpt>
      <trkpt lat="44.9863700" lon="6.8145300">
        <ele>1500.2</ele>
        <time>2017-07-29T08:42:58Z</time>
      </trkpt>
      <trkpt lat="44.9863450" lon="6.8145460">
        <ele>1500.6</ele>
        <time>2017-07-29T08:43:00Z</time>
      </trkpt>
      <trkpt lat="44.9863080" lon="6.8145790">
        <ele>1501.4</ele>
        <time>2017-07-29T08:43:03Z</time>
      </trkpt>
      <trkpt lat="44.9862590" lon="6.8146050">
        <ele>1502.4</ele>
        <time>2017-07-29T08:43:07Z</time>
      </trkpt>
      <trkpt lat="44.9862150" lon="6.8146300">
        <ele>1503.8</ele>
        <time>2017-07-29T08:43:11Z</time>
      </trkpt>
      <trkpt lat="44.9861730" lon="6.8146540">
        <ele>1504.4</ele>
        <time>2017-07-29T08:43:14Z</time>
      </trkpt>
      <trkpt lat="44.9861470" lon="6.8146750">
        <ele>1504.8</ele>
        <time>2017-07-29T08:43:16Z</time>
      </trkpt>
      <trkpt lat="44.9860980" lon="6.8147290">
        <ele>1506.0</ele>
        <time>2017-07-29T08:43:21Z</time>
      </trkpt>
      <trkpt lat="44.9860870" lon="6.8147350">
        <ele>1506.4</ele>
        <time>2017-07-29T08:43:22Z</time>
      </trkpt>
      <trkpt lat="44.9860620" lon="6.8147510">
        <ele>1506.6</ele>
        <time>2017-07-29T08:43:24Z</time>
      </trkpt>
      <trkpt lat="44.9860340" lon="6.8147740">
        <ele>1507.2</ele>
        <time>2017-07-29T08:43:26Z</time>
      </trkpt>
      <trkpt lat="44.9859950" lon="6.8148020">
        <ele>1508.0</ele>
        <time>2017-07-29T08:43:29Z</time>
      </trkpt>
      <trkpt lat="44.9859680" lon="6.8148260">
        <ele>1508.4</ele>
        <time>2017-07-29T08:43:31Z</time>
      </trkpt>
      <trkpt lat="44.9858990" lon="6.8148610">
        <ele>1509.6</ele>
        <time>2017-07-29T08:43:36Z</time>
      </trkpt>
      <trkpt lat="44.9858240" lon="6.8149080">
        <ele>1510.6</ele>
        <time>2017-07-29T08:43:42Z</time>
      </trkpt>
      <trkpt lat="44.9858150" lon="6.8149560">
        <ele>1510.8</ele>
        <time>2017-07-29T08:43:44Z</time>
      </trkpt>
      <trkpt lat="44.9858360" lon="6.8150470">
        <ele>1511.6</ele>
        <time>2017-07-29T08:43:49Z</time>
      </trkpt>
      <trkpt lat="44.9858500" lon="6.8150450">
        <ele>1511.8</ele>
        <time>2017-07-29T08:43:50Z</time>
      </trkpt>
      <trkpt lat="44.9859430" lon="6.8150290">
        <ele>1512.4</ele>
        <time>2017-07-29T08:43:56Z</time>
      </trkpt>
      <trkpt lat="44.9859740" lon="6.8150390">
        <ele>1512.6</ele>
        <time>2017-07-29T08:43:58Z</time>
      </trkpt>
      <trkpt lat="44.9860550" lon="6.8150540">
        <ele>1513.2</ele>
        <time>2017-07-29T08:44:03Z</time>
      </trkpt>
      <trkpt lat="44.9860840" lon="6.8150670">
        <ele>1513.8</ele>
        <time>2017-07-29T08:44:05Z</time>
      </trkpt>
      <trkpt lat="44.9861260" lon="6.8150850">
        <ele>1514.8</ele>
        <time>2017-07-29T08:44:08Z</time>
      </trkpt>
      <trkpt lat="44.9861410" lon="6.8150920">
        <ele>1515.2</ele>
        <time>2017-07-29T08:44:09Z</time>
      </trkpt>
      <trkpt lat="44.9861850" lon="6.8151090">
        <ele>1516.4</ele>
        <time>2017-07-29T08:44:12Z</time>
      </trkpt>
      <trkpt lat="44.9862090" lon="6.8151240">
        <ele>1517.4</ele>
        <time>2017-07-29T08:44:14Z</time>
      </trkpt>
      <trkpt lat="44.9862230" lon="6.8151260">
        <ele>1518.0</ele>
        <time>2017-07-29T08:44:15Z</time>
      </trkpt>
      <trkpt lat="44.9862530" lon="6.8151290">
        <ele>1518.6</ele>
        <time>2017-07-29T08:44:17Z</time>
      </trkpt>
      <trkpt lat="44.9863010" lon="6.8151470">
        <ele>1520.0</ele>
        <time>2017-07-29T08:44:20Z</time>
      </trkpt>
      <trkpt lat="44.9863170" lon="6.8151550">
        <ele>1520.2</ele>
        <time>2017-07-29T08:44:21Z</time>
      </trkpt>
      <trkpt lat="44.9863630" lon="6.8151820">
        <ele>1521.4</ele>
        <time>2017-07-29T08:44:24Z</time>
      </trkpt>
      <trkpt lat="44.9864110" lon="6.8152080">
        <ele>1522.8</ele>
        <time>2017-07-29T08:44:27Z</time>
      </trkpt>
      <trkpt lat="44.9864560" lon="6.8152370">
        <ele>1524.0</ele>
        <time>2017-07-29T08:44:30Z</time>
      </trkpt>
      <trkpt lat="44.9864990" lon="6.8152730">
        <ele>1525.0</ele>
        <time>2017-07-29T08:44:33Z</time>
      </trkpt>
      <trkpt lat="44.9865380" lon="6.8153160">
        <ele>1526.0</ele>
        <time>2017-07-29T08:44:36Z</time>
      </trkpt>
      <trkpt lat="44.9865660" lon="6.8153920">
        <ele>1527.4</ele>
        <time>2017-07-29T08:44:40Z</time>
      </trkpt>
      <trkpt lat="44.9865910" lon="6.8154620">
        <ele>1528.4</ele>
        <time>2017-07-29T08:44:43Z</time>
      </trkpt>
      <trkpt lat="44.9865910" lon="6.8155140">
        <ele>1529.0</ele>
        <time>2017-07-29T08:44:45Z</time>
      </trkpt>
      <trkpt lat="44.9865780" lon="6.8155560">
        <ele>1529.4</ele>
        <time>2017-07-29T08:44:47Z</time>
      </trkpt>
      <trkpt lat="44.9865420" lon="6.8156240">
        <ele>1530.6</ele>
        <time>2017-07-29T08:44:51Z</time>
      </trkpt>
      <trkpt lat="44.9865360" lon="6.8156350">
        <ele>1530.8</ele>
        <time>2017-07-29T08:44:52Z</time>
      </trkpt>
      <trkpt lat="44.9864710" lon="6.8156920">
        <ele>1531.8</ele>
        <time>2017-07-29T08:44:57Z</time>
      </trkpt>
      <trkpt lat="44.9864510" lon="6.8157040">
        <ele>1532.0</ele>
        <time>2017-07-29T08:44:58Z</time>
      </trkpt>
      <trkpt lat="44.9863890" lon="6.8157250">
        <ele>1532.8</ele>
        <time>2017-07-29T08:45:02Z</time>
      </trkpt>
      <trkpt lat="44.9863290" lon="6.8157410">
        <ele>1533.8</ele>
        <time>2017-07-29T08:45:06Z</time>
      </trkpt>
      <trkpt lat="44.9863120" lon="6.8157460">
        <ele>1534.0</ele>
        <time>2017-07-29T08:45:07Z</time>
      </trkpt>
      <trkpt lat="44.9862150" lon="6.8157880">
        <ele>1535.0</ele>
        <time>2017-07-29T08:45:12Z</time>
      </trkpt>
      <trkpt lat="44.9861750" lon="6.8158050">
        <ele>1536.0</ele>
        <time>2017-07-29T08:45:15Z</time>
      </trkpt>
      <trkpt lat="44.9861520" lon="6.8158300">
        <ele>1536.6</ele>
        <time>2017-07-29T08:45:17Z</time>
      </trkpt>
      <trkpt lat="44.9861260" lon="6.8158530">
        <ele>1537.2</ele>
        <time>2017-07-29T08:45:19Z</time>
      </trkpt>
      <trkpt lat="44.9860820" lon="6.8159090">
        <ele>1538.4</ele>
        <time>2017-07-29T08:45:23Z</time>
      </trkpt>
      <trkpt lat="44.9860530" lon="6.8159480">
        <ele>1539.4</ele>
        <time>2017-07-29T08:45:26Z</time>
      </trkpt>
      <trkpt lat="44.9860430" lon="6.8159600">
        <ele>1539.6</ele>
        <time>2017-07-29T08:45:27Z</time>
      </trkpt>
      <trkpt lat="44.9860160" lon="6.8160280">
        <ele>1540.8</ele>
        <time>2017-07-29T08:45:31Z</time>
      </trkpt>
      <trkpt lat="44.9860120" lon="6.8160920">
        <ele>1541.8</ele>
        <time>2017-07-29T08:45:34Z</time>
      </trkpt>
      <trkpt lat="44.9860120" lon="6.8161130">
        <ele>1542.2</ele>
        <time>2017-07-29T08:45:35Z</time>
      </trkpt>
      <trkpt lat="44.9860150" lon="6.8161330">
        <ele>1542.4</ele>
        <time>2017-07-29T08:45:36Z</time>
      </trkpt>
      <trkpt lat="44.9860410" lon="6.8161680">
        <ele>1543.8</ele>
        <time>2017-07-29T08:45:39Z</time>
      </trkpt>
      <trkpt lat="44.9860520" lon="6.8161810">
        <ele>1544.2</ele>
        <time>2017-07-29T08:45:40Z</time>
      </trkpt>
      <trkpt lat="44.9860780" lon="6.8162090">
        <ele>1545.2</ele>
        <time>2017-07-29T08:45:42Z</time>
      </trkpt>
      <trkpt lat="44.9861180" lon="6.8162290">
        <ele>1546.2</ele>
        <time>2017-07-29T08:45:45Z</time>
      </trkpt>
      <trkpt lat="44.9861420" lon="6.8162470">
        <ele>1546.8</ele>
        <time>2017-07-29T08:45:47Z</time>
      </trkpt>
      <trkpt lat="44.9861680" lon="6.8162600">
        <ele>1547.4</ele>
        <time>2017-07-29T08:45:49Z</time>
      </trkpt>
      <trkpt lat="44.9862190" lon="6.8162960">
        <ele>1548.4</ele>
        <time>2017-07-29T08:45:53Z</time>
      </trkpt>
      <trkpt lat="44.9862440" lon="6.8163190">
        <ele>1549.0</ele>
        <time>2017-07-29T08:45:55Z</time>
      </trkpt>
      <trkpt lat="44.9862670" lon="6.8163370">
        <ele>1549.6</ele>
        <time>2017-07-29T08:45:57Z</time>
      </trkpt>
      <trkpt lat="44.9863120" lon="6.8163860">
        <ele>1550.6</ele>
        <time>2017-07-29T08:46:01Z</time>
      </trkpt>
      <trkpt lat="44.9863220" lon="6.8163990">
        <ele>1550.8</ele>
        <time>2017-07-29T08:46:02Z</time>
      </trkpt>
      <trkpt lat="44.9863890" lon="6.8164570">
        <ele>1551.6</ele>
        <time>2017-07-29T08:46:07Z</time>
      </trkpt>
      <trkpt lat="44.9864030" lon="6.8164650">
        <ele>1551.8</ele>
        <time>2017-07-29T08:46:08Z</time>
      </trkpt>
      <trkpt lat="44.9864200" lon="6.8164900">
        <ele>1552.4</ele>
        <time>2017-07-29T08:46:10Z</time>
      </trkpt>
      <trkpt lat="44.9864270" lon="6.8165200">
        <ele>1552.8</ele>
        <time>2017-07-29T08:46:12Z</time>
      </trkpt>
      <trkpt lat="44.9864240" lon="6.8165500">
        <ele>1553.2</ele>
        <time>2017-07-29T08:46:14Z</time>
      </trkpt>
      <trkpt lat="44.9864020" lon="6.8165670">
        <ele>1553.8</ele>
        <time>2017-07-29T08:46:16Z</time>
      </trkpt>
      <trkpt lat="44.9863890" lon="6.8165720">
        <ele>1554.0</ele>
        <time>2017-07-29T08:46:17Z</time>
      </trkpt>
      <trkpt lat="44.9863680" lon="6.8165750">
        <ele>1554.4</ele>
        <time>2017-07-29T08:46:19Z</time>
      </trkpt>
      <trkpt lat="44.9863120" lon="6.8166020">
        <ele>1555.2</ele>
        <time>2017-07-29T08:46:23Z</time>
      </trkpt>
      <trkpt lat="44.9862640" lon="6.8166220">
        <ele>1555.8</ele>
        <time>2017-07-29T08:46:26Z</time>
      </trkpt>
      <trkpt lat="44.9862070" lon="6.8166560">
        <ele>1556.2</ele>
        <time>2017-07-29T08:46:29Z</time>
      </trkpt>
      <trkpt lat="44.9861460" lon="6.8166780">
        <ele>1557.0</ele>
        <time>2017-07-29T08:46:32Z</time>
      </trkpt>
      <trkpt lat="44.9861280" lon="6.8166880">
        <ele>1557.2</ele>
        <time>2017-07-29T08:46:33Z</time>
      </trkpt>
      <trkpt lat="44.9861160" lon="6.8166980">
        <ele>1557.6</ele>
        <time>2017-07-29T08:46:34Z</time>
      </trkpt>
      <trkpt lat="44.9860600" lon="6.8167310">
        <ele>1558.6</ele>
        <time>2017-07-29T08:46:38Z</time>
      </trkpt>
      <trkpt lat="44.9860440" lon="6.8167400">
        <ele>1559.0</ele>
        <time>2017-07-29T08:46:39Z</time>
      </trkpt>
      <trkpt lat="44.9859970" lon="6.8167550">
        <ele>1559.8</ele>
        <time>2017-07-29T08:46:42Z</time>
      </trkpt>
      <trkpt lat="44.9859280" lon="6.8167890">
        <ele>1561.0</ele>
        <time>2017-07-29T08:46:47Z</time>
      </trkpt>
      <trkpt lat="44.9859170" lon="6.8167990">
        <ele>1561.2</ele>
        <time>2017-07-29T08:46:48Z</time>
      </trkpt>
      <trkpt lat="44.9858750" lon="6.8168210">
        <ele>1562.4</ele>
        <time>2017-07-29T08:46:51Z</time>
      </trkpt>
      <trkpt lat="44.9858050" lon="6.8168640">
        <ele>1563.4</ele>
        <time>2017-07-29T08:46:56Z</time>
      </trkpt>
      <trkpt lat="44.9857950" lon="6.8168770">
        <ele>1563.6</ele>
        <time>2017-07-29T08:46:57Z</time>
      </trkpt>
      <trkpt lat="44.9857480" lon="6.8169180">
        <ele>1564.6</ele>
        <time>2017-07-29T08:47:01Z</time>
      </trkpt>
      <trkpt lat="44.9856970" lon="6.8169310">
        <ele>1565.2</ele>
        <time>2017-07-29T08:47:04Z</time>
      </trkpt>
      <trkpt lat="44.9856560" lon="6.8169720">
        <ele>1565.8</ele>
        <time>2017-07-29T08:47:07Z</time>
      </trkpt>
      <trkpt lat="44.9856400" lon="6.8169790">
        <ele>1566.0</ele>
        <time>2017-07-29T08:47:08Z</time>
      </trkpt>
      <trkpt lat="44.9856060" lon="6.8169880">
        <ele>1566.6</ele>
        <time>2017-07-29T08:47:10Z</time>
      </trkpt>
      <trkpt lat="44.9855900" lon="6.8169960">
        <ele>1567.0</ele>
        <time>2017-07-29T08:47:11Z</time>
      </trkpt>
      <trkpt lat="44.9855340" lon="6.8170240">
        <ele>1568.2</ele>
        <time>2017-07-29T08:47:15Z</time>
      </trkpt>
      <trkpt lat="44.9854990" lon="6.8170520">
        <ele>1569.0</ele>
        <time>2017-07-29T08:47:18Z</time>
      </trkpt>
      <trkpt lat="44.9854840" lon="6.8170650">
        <ele>1569.2</ele>
        <time>2017-07-29T08:47:19Z</time>
      </trkpt>
      <trkpt lat="44.9854140" lon="6.8170920">
        <ele>1570.2</ele>
        <time>2017-07-29T08:47:23Z</time>
      </trkpt>
      <trkpt lat="44.9853990" lon="6.8170950">
        <ele>1570.6</ele>
        <time>2017-07-29T08:47:24Z</time>
      </trkpt>
      <trkpt lat="44.9853830" lon="6.8171020">
        <ele>1570.8</ele>
        <time>2017-07-29T08:47:25Z</time>
      </trkpt>
      <trkpt lat="44.9853450" lon="6.8171400">
        <ele>1571.6</ele>
        <time>2017-07-29T08:47:28Z</time>
      </trkpt>
      <trkpt lat="44.9852950" lon="6.8171640">
        <ele>1572.4</ele>
        <time>2017-07-29T08:47:32Z</time>
      </trkpt>
      <trkpt lat="44.9852800" lon="6.8171640">
        <ele>1572.8</ele>
        <time>2017-07-29T08:47:33Z</time>
      </trkpt>
      <trkpt lat="44.9852620" lon="6.8171660">
        <ele>1573.0</ele>
        <time>2017-07-29T08:47:34Z</time>
      </trkpt>
      <trkpt lat="44.9852100" lon="6.8171750">
        <ele>1574.0</ele>
        <time>2017-07-29T08:47:38Z</time>
      </trkpt>
      <trkpt lat="44.9845670" lon="6.8173550">
        <ele>1587.2</ele>
        <time>2017-07-29T08:48:28Z</time>
      </trkpt>
      <trkpt lat="44.9845150" lon="6.8173730">
        <ele>1588.0</ele>
        <time>2017-07-29T08:48:31Z</time>
      </trkpt>
      <trkpt lat="44.9844540" lon="6.8173920">
        <ele>1588.4</ele>
        <time>2017-07-29T08:48:34Z</time>
      </trkpt>
      <trkpt lat="44.9843280" lon="6.8174200">
        <ele>1589.4</ele>
        <time>2017-07-29T08:48:38Z</time>
      </trkpt>
      <trkpt lat="44.9842780" lon="6.8174290">
        <ele>1589.8</ele>
        <time>2017-07-29T08:48:40Z</time>
      </trkpt>
      <trkpt lat="44.9842320" lon="6.8174510">
        <ele>1590.6</ele>
        <time>2017-07-29T08:48:43Z</time>
      </trkpt>
      <trkpt lat="44.9841660" lon="6.8175060">
        <ele>1591.6</ele>
        <time>2017-07-29T08:48:48Z</time>
      </trkpt>
      <trkpt lat="44.9841510" lon="6.8175080">
        <ele>1591.8</ele>
        <time>2017-07-29T08:48:49Z</time>
      </trkpt>
      <trkpt lat="44.9841020" lon="6.8175510">
        <ele>1593.0</ele>
        <time>2017-07-29T08:48:52Z</time>
      </trkpt>
      <trkpt lat="44.9840660" lon="6.8176030">
        <ele>1593.6</ele>
        <time>2017-07-29T08:48:55Z</time>
      </trkpt>
      <trkpt lat="44.9840480" lon="6.8176350">
        <ele>1594.0</ele>
        <time>2017-07-29T08:48:57Z</time>
      </trkpt>
      <trkpt lat="44.9840060" lon="6.8176980">
        <ele>1595.0</ele>
        <time>2017-07-29T08:49:01Z</time>
      </trkpt>
      <trkpt lat="44.9840010" lon="6.8177140">
        <ele>1595.2</ele>
        <time>2017-07-29T08:49:02Z</time>
      </trkpt>
      <trkpt lat="44.9839760" lon="6.8177870">
        <ele>1596.2</ele>
        <time>2017-07-29T08:49:06Z</time>
      </trkpt>
      <trkpt lat="44.9839480" lon="6.8178510">
        <ele>1596.8</ele>
        <time>2017-07-29T08:49:09Z</time>
      </trkpt>
      <trkpt lat="44.9839150" lon="6.8179140">
        <ele>1597.2</ele>
        <time>2017-07-29T08:49:12Z</time>
      </trkpt>
      <trkpt lat="44.9839210" lon="6.8179580">
        <ele>1597.8</ele>
        <time>2017-07-29T08:49:14Z</time>
      </trkpt>
      <trkpt lat="44.9839290" lon="6.8179690">
        <ele>1598.4</ele>
        <time>2017-07-29T08:49:15Z</time>
      </trkpt>
      <trkpt lat="44.9839770" lon="6.8179480">
        <ele>1599.2</ele>
        <time>2017-07-29T08:49:19Z</time>
      </trkpt>
      <trkpt lat="44.9839890" lon="6.8179450">
        <ele>1599.4</ele>
        <time>2017-07-29T08:49:20Z</time>
      </trkpt>
      <trkpt lat="44.9840340" lon="6.8179390">
        <ele>1600.8</ele>
        <time>2017-07-29T08:49:24Z</time>
      </trkpt>
      <trkpt lat="44.9840610" lon="6.8179350">
        <ele>1601.6</ele>
        <time>2017-07-29T08:49:26Z</time>
      </trkpt>
      <trkpt lat="44.9840770" lon="6.8179330">
        <ele>1601.8</ele>
        <time>2017-07-29T08:49:27Z</time>
      </trkpt>
      <trkpt lat="44.9841450" lon="6.8179420">
        <ele>1603.0</ele>
        <time>2017-07-29T08:49:31Z</time>
      </trkpt>
      <trkpt lat="44.9841960" lon="6.8179650">
        <ele>1603.6</ele>
        <time>2017-07-29T08:49:34Z</time>
      </trkpt>
      <trkpt lat="44.9842310" lon="6.8179810">
        <ele>1604.0</ele>
        <time>2017-07-29T08:49:36Z</time>
      </trkpt>
      <trkpt lat="44.9842900" lon="6.8179870">
        <ele>1605.0</ele>
        <time>2017-07-29T08:49:40Z</time>
      </trkpt>
      <trkpt lat="44.9843000" lon="6.8179910">
        <ele>1605.2</ele>
        <time>2017-07-29T08:49:41Z</time>
      </trkpt>
      <trkpt lat="44.9843520" lon="6.8179880">
        <ele>1606.2</ele>
        <time>2017-07-29T08:49:45Z</time>
      </trkpt>
      <trkpt lat="44.9843920" lon="6.8180090">
        <ele>1607.2</ele>
        <time>2017-07-29T08:49:49Z</time>
      </trkpt>
      <trkpt lat="44.9844020" lon="6.8180220">
        <ele>1607.4</ele>
        <time>2017-07-29T08:49:50Z</time>
      </trkpt>
      <trkpt lat="44.9844160" lon="6.8180690">
        <ele>1608.0</ele>
        <time>2017-07-29T08:49:53Z</time>
      </trkpt>
      <trkpt lat="44.9844110" lon="6.8181070">
        <ele>1608.4</ele>
        <time>2017-07-29T08:49:55Z</time>
      </trkpt>
      <trkpt lat="44.9843890" lon="6.8181500">
        <ele>1609.8</ele>
        <time>2017-07-29T08:50:00Z</time>
      </trkpt>
      <trkpt lat="44.9843740" lon="6.8181690">
        <ele>1610.0</ele>
        <time>2017-07-29T08:50:02Z</time>
      </trkpt>
      <trkpt lat="44.9843330" lon="6.8182400">
        <ele>1610.8</ele>
        <time>2017-07-29T08:50:07Z</time>
      </trkpt>
      <trkpt lat="44.9843240" lon="6.8182550">
        <ele>1610.8</ele>
        <time>2017-07-29T08:50:08Z</time>
      </trkpt>
      <trkpt lat="44.9842610" lon="6.8183410">
        <ele>1611.8</ele>
        <time>2017-07-29T08:50:13Z</time>
      </trkpt>
      <trkpt lat="44.9842360" lon="6.8183760">
        <ele>1612.4</ele>
        <time>2017-07-29T08:50:15Z</time>
      </trkpt>
      <trkpt lat="44.9842150" lon="6.8183970">
        <ele>1613.0</ele>
        <time>2017-07-29T08:50:17Z</time>
      </trkpt>
      <trkpt lat="44.9841800" lon="6.8184450">
        <ele>1614.2</ele>
        <time>2017-07-29T08:50:21Z</time>
      </trkpt>
      <trkpt lat="44.9841520" lon="6.8184950">
        <ele>1615.4</ele>
        <time>2017-07-29T08:50:25Z</time>
      </trkpt>
      <trkpt lat="44.9841290" lon="6.8185290">
        <ele>1616.2</ele>
        <time>2017-07-29T08:50:28Z</time>
      </trkpt>
      <trkpt lat="44.9841200" lon="6.8185400">
        <ele>1616.6</ele>
        <time>2017-07-29T08:50:29Z</time>
      </trkpt>
      <trkpt lat="44.9840660" lon="6.8185890">
        <ele>1617.8</ele>
        <time>2017-07-29T08:50:34Z</time>
      </trkpt>
      <trkpt lat="44.9840240" lon="6.8186420">
        <ele>1618.8</ele>
        <time>2017-07-29T08:50:38Z</time>
      </trkpt>
      <trkpt lat="44.9839730" lon="6.8187220">
        <ele>1620.0</ele>
        <time>2017-07-29T08:50:43Z</time>
      </trkpt>
      <trkpt lat="44.9839530" lon="6.8187580">
        <ele>1620.6</ele>
        <time>2017-07-29T08:50:45Z</time>
      </trkpt>
      <trkpt lat="44.9839160" lon="6.8188090">
        <ele>1621.2</ele>
        <time>2017-07-29T08:50:48Z</time>
      </trkpt>
      <trkpt lat="44.9838610" lon="6.8188810">
        <ele>1622.2</ele>
        <time>2017-07-29T08:50:52Z</time>
      </trkpt>
      <trkpt lat="44.9837890" lon="6.8189630">
        <ele>1623.2</ele>
        <time>2017-07-29T08:50:57Z</time>
      </trkpt>
      <trkpt lat="44.9837560" lon="6.8189930">
        <ele>1623.6</ele>
        <time>2017-07-29T08:50:59Z</time>
      </trkpt>
      <trkpt lat="44.9836870" lon="6.8190610">
        <ele>1624.4</ele>
        <time>2017-07-29T08:51:03Z</time>
      </trkpt>
      <trkpt lat="44.9836380" lon="6.8191060">
        <ele>1624.6</ele>
        <time>2017-07-29T08:51:06Z</time>
      </trkpt>
      <trkpt lat="44.9835720" lon="6.8191740">
        <ele>1625.6</ele>
        <time>2017-07-29T08:51:11Z</time>
      </trkpt>
      <trkpt lat="44.9835410" lon="6.8192150">
        <ele>1626.0</ele>
        <time>2017-07-29T08:51:14Z</time>
      </trkpt>
      <trkpt lat="44.9835130" lon="6.8192470">
        <ele>1626.8</ele>
        <time>2017-07-29T08:51:16Z</time>
      </trkpt>
      <trkpt lat="44.9834820" lon="6.8193140">
        <ele>1627.6</ele>
        <time>2017-07-29T08:51:20Z</time>
      </trkpt>
      <trkpt lat="44.9834700" lon="6.8193230">
        <ele>1628.0</ele>
        <time>2017-07-29T08:51:21Z</time>
      </trkpt>
      <trkpt lat="44.9833920" lon="6.8193940">
        <ele>1629.0</ele>
        <time>2017-07-29T08:51:26Z</time>
      </trkpt>
      <trkpt lat="44.9833810" lon="6.8194080">
        <ele>1629.2</ele>
        <time>2017-07-29T08:51:27Z</time>
      </trkpt>
      <trkpt lat="44.9833390" lon="6.8194770">
        <ele>1630.0</ele>
        <time>2017-07-29T08:51:31Z</time>
      </trkpt>
      <trkpt lat="44.9833080" lon="6.8195220">
        <ele>1630.8</ele>
        <time>2017-07-29T08:51:34Z</time>
      </trkpt>
      <trkpt lat="44.9832980" lon="6.8195340">
        <ele>1631.2</ele>
        <time>2017-07-29T08:51:35Z</time>
      </trkpt>
      <trkpt lat="44.9832720" lon="6.8195970">
        <ele>1632.4</ele>
        <time>2017-07-29T08:51:39Z</time>
      </trkpt>
      <trkpt lat="44.9832500" lon="6.8196330">
        <ele>1633.4</ele>
        <time>2017-07-29T08:51:42Z</time>
      </trkpt>
      <trkpt lat="44.9832430" lon="6.8196430">
        <ele>1633.6</ele>
        <time>2017-07-29T08:51:43Z</time>
      </trkpt>
      <trkpt lat="44.9832170" lon="6.8196990">
        <ele>1634.6</ele>
        <time>2017-07-29T08:51:47Z</time>
      </trkpt>
      <trkpt lat="44.9832030" lon="6.8197400">
        <ele>1635.2</ele>
        <time>2017-07-29T08:51:50Z</time>
      </trkpt>
      <trkpt lat="44.9831950" lon="6.8197670">
        <ele>1635.6</ele>
        <time>2017-07-29T08:51:52Z</time>
      </trkpt>
      <trkpt lat="44.9831690" lon="6.8198330">
        <ele>1636.8</ele>
        <time>2017-07-29T08:51:57Z</time>
      </trkpt>
      <trkpt lat="44.9831590" lon="6.8198600">
        <ele>1637.4</ele>
        <time>2017-07-29T08:51:59Z</time>
      </trkpt>
      <trkpt lat="44.9831370" lon="6.8198970">
        <ele>1638.0</ele>
        <time>2017-07-29T08:52:02Z</time>
      </trkpt>
      <trkpt lat="44.9831160" lon="6.8199410">
        <ele>1639.2</ele>
        <time>2017-07-29T08:52:05Z</time>
      </trkpt>
      <trkpt lat="44.9831110" lon="6.8199580">
        <ele>1639.4</ele>
        <time>2017-07-29T08:52:06Z</time>
      </trkpt>
      <trkpt lat="44.9830990" lon="6.8200000">
        <ele>1640.2</ele>
        <time>2017-07-29T08:52:09Z</time>
      </trkpt>
      <trkpt lat="44.9830750" lon="6.8200650">
        <ele>1641.2</ele>
        <time>2017-07-29T08:52:13Z</time>
      </trkpt>
      <trkpt lat="44.9830680" lon="6.8200920">
        <ele>1641.6</ele>
        <time>2017-07-29T08:52:15Z</time>
      </trkpt>
      <trkpt lat="44.9830610" lon="6.8201180">
        <ele>1642.2</ele>
        <time>2017-07-29T08:52:17Z</time>
      </trkpt>
      <trkpt lat="44.9830530" lon="6.8201810">
        <ele>1643.6</ele>
        <time>2017-07-29T08:52:21Z</time>
      </trkpt>
      <trkpt lat="44.9830400" lon="6.8202080">
        <ele>1644.2</ele>
        <time>2017-07-29T08:52:23Z</time>
      </trkpt>
      <trkpt lat="44.9830260" lon="6.8202330">
        <ele>1644.8</ele>
        <time>2017-07-29T08:52:25Z</time>
      </trkpt>
      <trkpt lat="44.9829510" lon="6.8204000">
        <ele>1649.0</ele>
        <time>2017-07-29T08:52:38Z</time>
      </trkpt>
      <trkpt lat="44.9829420" lon="6.8204500">
        <ele>1649.8</ele>
        <time>2017-07-29T08:52:41Z</time>
      </trkpt>
      <trkpt lat="44.9829410" lon="6.8204630">
        <ele>1650.0</ele>
        <time>2017-07-29T08:52:42Z</time>
      </trkpt>
      <trkpt lat="44.9829350" lon="6.8206210">
        <ele>1653.0</ele>
        <time>2017-07-29T08:52:54Z</time>
      </trkpt>
      <trkpt lat="44.9829680" lon="6.8206370">
        <ele>1653.4</ele>
        <time>2017-07-29T08:52:56Z</time>
      </trkpt>
      <trkpt lat="44.9830330" lon="6.8206850">
        <ele>1654.0</ele>
        <time>2017-07-29T08:53:00Z</time>
      </trkpt>
      <trkpt lat="44.9830730" lon="6.8206900">
        <ele>1654.4</ele>
        <time>2017-07-29T08:53:02Z</time>
      </trkpt>
      <trkpt lat="44.9831240" lon="6.8206850">
        <ele>1654.8</ele>
        <time>2017-07-29T08:53:04Z</time>
      </trkpt>
      <trkpt lat="44.9831710" lon="6.8206890">
        <ele>1655.2</ele>
        <time>2017-07-29T08:53:06Z</time>
      </trkpt>
      <trkpt lat="44.9832220" lon="6.8206850">
        <ele>1655.8</ele>
        <time>2017-07-29T08:53:08Z</time>
      </trkpt>
      <trkpt lat="44.9832880" lon="6.8206540">
        <ele>1656.2</ele>
        <time>2017-07-29T08:53:10Z</time>
      </trkpt>
      <trkpt lat="44.9833700" lon="6.8205940">
        <ele>1656.0</ele>
        <time>2017-07-29T08:53:12Z</time>
      </trkpt>
      <trkpt lat="44.9836430" lon="6.8204110">
        <ele>1655.8</ele>
        <time>2017-07-29T08:53:17Z</time>
      </trkpt>
      <trkpt lat="44.9837950" lon="6.8203200">
        <ele>1655.6</ele>
        <time>2017-07-29T08:53:20Z</time>
      </trkpt>
      <trkpt lat="44.9839020" lon="6.8202810">
        <ele>1655.2</ele>
        <time>2017-07-29T08:53:22Z</time>
      </trkpt>
      <trkpt lat="44.9840190" lon="6.8202300">
        <ele>1655.0</ele>
        <time>2017-07-29T08:53:24Z</time>
      </trkpt>
      <trkpt lat="44.9841510" lon="6.8201450">
        <ele>1654.8</ele>
        <time>2017-07-29T08:53:26Z</time>
      </trkpt>
      <trkpt lat="44.9842220" lon="6.8200650">
        <ele>1654.4</ele>
        <time>2017-07-29T08:53:27Z</time>
      </trkpt>
      <trkpt lat="44.9842970" lon="6.8199890">
        <ele>1654.0</ele>
        <time>2017-07-29T08:53:28Z</time>
      </trkpt>
      <trkpt lat="44.9843630" lon="6.8199070">
        <ele>1653.6</ele>
        <time>2017-07-29T08:53:29Z</time>
      </trkpt>
      <trkpt lat="44.9844140" lon="6.8198160">
        <ele>1653.4</ele>
        <time>2017-07-29T08:53:30Z</time>
      </trkpt>
      <trkpt lat="44.9845080" lon="6.8196830">
        <ele>1652.8</ele>
        <time>2017-07-29T08:53:32Z</time>
      </trkpt>
      <trkpt lat="44.9845900" lon="6.8195810">
        <ele>1652.2</ele>
        <time>2017-07-29T08:53:34Z</time>
      </trkpt>
      <trkpt lat="44.9846800" lon="6.8194750">
        <ele>1651.8</ele>
        <time>2017-07-29T08:53:36Z</time>
      </trkpt>
      <trkpt lat="44.9847270" lon="6.8194160">
        <ele>1651.6</ele>
        <time>2017-07-29T08:53:37Z</time>
      </trkpt>
      <trkpt lat="44.9847810" lon="6.8193670">
        <ele>1651.4</ele>
        <time>2017-07-29T08:53:38Z</time>
      </trkpt>
      <trkpt lat="44.9848990" lon="6.8193360">
        <ele>1650.8</ele>
        <time>2017-07-29T08:53:40Z</time>
      </trkpt>
      <trkpt lat="44.9849490" lon="6.8193540">
        <ele>1650.6</ele>
        <time>2017-07-29T08:53:42Z</time>
      </trkpt>
      <trkpt lat="44.9849660" lon="6.8193640">
        <ele>1650.6</ele>
        <time>2017-07-29T08:53:43Z</time>
      </trkpt>
      <trkpt lat="44.9851060" lon="6.8193270">
        <ele>1650.4</ele>
        <time>2017-07-29T08:53:47Z</time>
      </trkpt>
      <trkpt lat="44.9853960" lon="6.8192320">
        <ele>1650.4</ele>
        <time>2017-07-29T08:53:53Z</time>
      </trkpt>
      <trkpt lat="44.9854850" lon="6.8192230">
        <ele>1650.4</ele>
        <time>2017-07-29T08:53:55Z</time>
      </trkpt>
      <trkpt lat="44.9855940" lon="6.8193370">
        <ele>1650.6</ele>
        <time>2017-07-29T08:53:57Z</time>
      </trkpt>
      <trkpt lat="44.9857290" lon="6.8195100">
        <ele>1650.6</ele>
        <time>2017-07-29T08:54:01Z</time>
      </trkpt>
      <trkpt lat="44.9857950" lon="6.8196110">
        <ele>1651.8</ele>
        <time>2017-07-29T08:54:05Z</time>
      </trkpt>
      <trkpt lat="44.9858060" lon="6.8196300">
        <ele>1652.0</ele>
        <time>2017-07-29T08:54:06Z</time>
      </trkpt>
      <trkpt lat="44.9858560" lon="6.8196920">
        <ele>1652.6</ele>
        <time>2017-07-29T08:54:09Z</time>
      </trkpt>
      <trkpt lat="44.9858950" lon="6.8197290">
        <ele>1653.0</ele>
        <time>2017-07-29T08:54:11Z</time>
      </trkpt>
      <trkpt lat="44.9859190" lon="6.8197420">
        <ele>1653.2</ele>
        <time>2017-07-29T08:54:12Z</time>
      </trkpt>
      <trkpt lat="44.9860040" lon="6.8197730">
        <ele>1654.2</ele>
        <time>2017-07-29T08:54:15Z</time>
      </trkpt>
      <trkpt lat="44.9861130" lon="6.8198150">
        <ele>1655.0</ele>
        <time>2017-07-29T08:54:19Z</time>
      </trkpt>
      <trkpt lat="44.9861420" lon="6.8198370">
        <ele>1655.2</ele>
        <time>2017-07-29T08:54:20Z</time>
      </trkpt>
      <trkpt lat="44.9862350" lon="6.8198460">
        <ele>1656.2</ele>
        <time>2017-07-29T08:54:24Z</time>
      </trkpt>
      <trkpt lat="44.9862550" lon="6.8198480">
        <ele>1656.4</ele>
        <time>2017-07-29T08:54:25Z</time>
      </trkpt>
      <trkpt lat="44.9863400" lon="6.8198500">
        <ele>1657.4</ele>
        <time>2017-07-29T08:54:28Z</time>
      </trkpt>
      <trkpt lat="44.9864040" lon="6.8198490">
        <ele>1657.8</ele>
        <time>2017-07-29T08:54:30Z</time>
      </trkpt>
      <trkpt lat="44.9865190" lon="6.8198610">
        <ele>1658.6</ele>
        <time>2017-07-29T08:54:34Z</time>
      </trkpt>
      <trkpt lat="44.9866120" lon="6.8198650">
        <ele>1659.4</ele>
        <time>2017-07-29T08:54:37Z</time>
      </trkpt>
      <trkpt lat="44.9866410" lon="6.8198660">
        <ele>1659.8</ele>
        <time>2017-07-29T08:54:38Z</time>
      </trkpt>
      <trkpt lat="44.9867800" lon="6.8198670">
        <ele>1660.8</ele>
        <time>2017-07-29T08:54:43Z</time>
      </trkpt>
      <trkpt lat="44.9868400" lon="6.8198700">
        <ele>1661.2</ele>
        <time>2017-07-29T08:54:45Z</time>
      </trkpt>
      <trkpt lat="44.9868930" lon="6.8198780">
        <ele>1662.0</ele>
        <time>2017-07-29T08:54:47Z</time>
      </trkpt>
      <trkpt lat="44.9869740" lon="6.8198480">
        <ele>1662.4</ele>
        <time>2017-07-29T08:54:50Z</time>
      </trkpt>
      <trkpt lat="44.9870340" lon="6.8198360">
        <ele>1663.0</ele>
        <time>2017-07-29T08:54:52Z</time>
      </trkpt>
      <trkpt lat="44.9871980" lon="6.8198250">
        <ele>1664.4</ele>
        <time>2017-07-29T08:54:58Z</time>
      </trkpt>
      <trkpt lat="44.9872960" lon="6.8198300">
        <ele>1665.6</ele>
        <time>2017-07-29T08:55:02Z</time>
      </trkpt>
      <trkpt lat="44.9873760" lon="6.8198420">
        <ele>1666.6</ele>
        <time>2017-07-29T08:55:05Z</time>
      </trkpt>
      <trkpt lat="44.9874050" lon="6.8198430">
        <ele>1667.0</ele>
        <time>2017-07-29T08:55:06Z</time>
      </trkpt>
      <trkpt lat="44.9875000" lon="6.8198500">
        <ele>1668.2</ele>
        <time>2017-07-29T08:55:10Z</time>
      </trkpt>
      <trkpt lat="44.9875770" lon="6.8198730">
        <ele>1669.0</ele>
        <time>2017-07-29T08:55:13Z</time>
      </trkpt>
      <trkpt lat="44.9876020" lon="6.8198820">
        <ele>1669.2</ele>
        <time>2017-07-29T08:55:14Z</time>
      </trkpt>
      <trkpt lat="44.9877490" lon="6.8198750">
        <ele>1670.4</ele>
        <time>2017-07-29T08:55:18Z</time>
      </trkpt>
      <trkpt lat="44.9879150" lon="6.8198770">
        <ele>1671.0</ele>
        <time>2017-07-29T08:55:22Z</time>
      </trkpt>
      <trkpt lat="44.9879690" lon="6.8198710">
        <ele>1671.0</ele>
        <time>2017-07-29T08:55:23Z</time>
      </trkpt>
      <trkpt lat="44.9880650" lon="6.8198600">
        <ele>1671.0</ele>
        <time>2017-07-29T08:55:25Z</time>
      </trkpt>
      <trkpt lat="44.9881540" lon="6.8198920">
        <ele>1671.2</ele>
        <time>2017-07-29T08:55:27Z</time>
      </trkpt>
      <trkpt lat="44.9881970" lon="6.8199110">
        <ele>1671.2</ele>
        <time>2017-07-29T08:55:28Z</time>
      </trkpt>
      <trkpt lat="44.9882240" lon="6.8199460">
        <ele>1671.4</ele>
        <time>2017-07-29T08:55:29Z</time>
      </trkpt>
      <trkpt lat="44.9883150" lon="6.8200110">
        <ele>1671.8</ele>
        <time>2017-07-29T08:55:32Z</time>
      </trkpt>
      <trkpt lat="44.9884540" lon="6.8200570">
        <ele>1672.6</ele>
        <time>2017-07-29T08:55:37Z</time>
      </trkpt>
      <trkpt lat="44.9884750" lon="6.8200640">
        <ele>1672.8</ele>
        <time>2017-07-29T08:55:38Z</time>
      </trkpt>
      <trkpt lat="44.9884940" lon="6.8200690">
        <ele>1673.4</ele>
        <time>2017-07-29T08:55:39Z</time>
      </trkpt>
      <trkpt lat="44.9885140" lon="6.8200720">
        <ele>1673.6</ele>
        <time>2017-07-29T08:55:40Z</time>
      </trkpt>
      <trkpt lat="44.9885530" lon="6.8200920">
        <ele>1674.8</ele>
        <time>2017-07-29T08:55:43Z</time>
      </trkpt>
      <trkpt lat="44.9886350" lon="6.8201090">
        <ele>1675.4</ele>
        <time>2017-07-29T08:55:46Z</time>
      </trkpt>
      <trkpt lat="44.9886820" lon="6.8201060">
        <ele>1676.0</ele>
        <time>2017-07-29T08:55:48Z</time>
      </trkpt>
      <trkpt lat="44.9887830" lon="6.8200880">
        <ele>1676.4</ele>
        <time>2017-07-29T08:55:52Z</time>
      </trkpt>
      <trkpt lat="44.9888470" lon="6.8200560">
        <ele>1677.0</ele>
        <time>2017-07-29T08:55:55Z</time>
      </trkpt>
      <trkpt lat="44.9889340" lon="6.8200050">
        <ele>1677.8</ele>
        <time>2017-07-29T08:55:59Z</time>
      </trkpt>
      <trkpt lat="44.9889760" lon="6.8199740">
        <ele>1678.2</ele>
        <time>2017-07-29T08:56:01Z</time>
      </trkpt>
      <trkpt lat="44.9890510" lon="6.8199220">
        <ele>1679.4</ele>
        <time>2017-07-29T08:56:06Z</time>
      </trkpt>
      <trkpt lat="44.9890670" lon="6.8199100">
        <ele>1679.6</ele>
        <time>2017-07-29T08:56:07Z</time>
      </trkpt>
      <trkpt lat="44.9891580" lon="6.8198330">
        <ele>1680.8</ele>
        <time>2017-07-29T08:56:12Z</time>
      </trkpt>
      <trkpt lat="44.9892350" lon="6.8197540">
        <ele>1681.4</ele>
        <time>2017-07-29T08:56:16Z</time>
      </trkpt>
      <trkpt lat="44.9892890" lon="6.8197260">
        <ele>1681.8</ele>
        <time>2017-07-29T08:56:18Z</time>
      </trkpt>
      <trkpt lat="44.9894060" lon="6.8196990">
        <ele>1682.6</ele>
        <time>2017-07-29T08:56:22Z</time>
      </trkpt>
      <trkpt lat="44.9894360" lon="6.8196970">
        <ele>1682.8</ele>
        <time>2017-07-29T08:56:23Z</time>
      </trkpt>
      <trkpt lat="44.9896080" lon="6.8196580">
        <ele>1683.8</ele>
        <time>2017-07-29T08:56:29Z</time>
      </trkpt>
      <trkpt lat="44.9897530" lon="6.8195900">
        <ele>1684.8</ele>
        <time>2017-07-29T08:56:35Z</time>
      </trkpt>
      <trkpt lat="44.9897700" lon="6.8195830">
        <ele>1685.0</ele>
        <time>2017-07-29T08:56:36Z</time>
      </trkpt>
      <trkpt lat="44.9898090" lon="6.8195680">
        <ele>1685.6</ele>
        <time>2017-07-29T08:56:39Z</time>
      </trkpt>
      <trkpt lat="44.9900020" lon="6.8196380">
        <ele>1693.0</ele>
        <time>2017-07-29T08:57:09Z</time>
      </trkpt>
      <trkpt lat="44.9901060" lon="6.8196180">
        <ele>1694.2</ele>
        <time>2017-07-29T08:57:15Z</time>
      </trkpt>
      <trkpt lat="44.9901640" lon="6.8195950">
        <ele>1694.4</ele>
        <time>2017-07-29T08:57:18Z</time>
      </trkpt>
      <trkpt lat="44.9902490" lon="6.8195950">
        <ele>1695.4</ele>
        <time>2017-07-29T08:57:23Z</time>
      </trkpt>
      <trkpt lat="44.9902610" lon="6.8195930">
        <ele>1695.6</ele>
        <time>2017-07-29T08:57:24Z</time>
      </trkpt>
      <trkpt lat="44.9902990" lon="6.8196050">
        <ele>1696.6</ele>
        <time>2017-07-29T08:57:27Z</time>
      </trkpt>
      <trkpt lat="44.9903130" lon="6.8195960">
        <ele>1697.0</ele>
        <time>2017-07-29T08:57:28Z</time>
      </trkpt>
      <trkpt lat="44.9903440" lon="6.8195910">
        <ele>1697.8</ele>
        <time>2017-07-29T08:57:30Z</time>
      </trkpt>
      <trkpt lat="44.9904330" lon="6.8195430">
        <ele>1698.8</ele>
        <time>2017-07-29T08:57:35Z</time>
      </trkpt>
      <trkpt lat="44.9904770" lon="6.8195180">
        <ele>1699.4</ele>
        <time>2017-07-29T08:57:37Z</time>
      </trkpt>
      <trkpt lat="44.9905390" lon="6.8194790">
        <ele>1700.2</ele>
        <time>2017-07-29T08:57:39Z</time>
      </trkpt>
      <trkpt lat="44.9906320" lon="6.8194420">
        <ele>1700.6</ele>
        <time>2017-07-29T08:57:42Z</time>
      </trkpt>
      <trkpt lat="44.9906890" lon="6.8194230">
        <ele>1701.2</ele>
        <time>2017-07-29T08:57:44Z</time>
      </trkpt>
      <trkpt lat="44.9907430" lon="6.8194190">
        <ele>1701.6</ele>
        <time>2017-07-29T08:57:46Z</time>
      </trkpt>
      <trkpt lat="44.9908000" lon="6.8194470">
        <ele>1702.0</ele>
        <time>2017-07-29T08:57:48Z</time>
      </trkpt>
      <trkpt lat="44.9908490" lon="6.8194960">
        <ele>1702.4</ele>
        <time>2017-07-29T08:57:50Z</time>
      </trkpt>
      <trkpt lat="44.9908710" lon="6.8195230">
        <ele>1702.6</ele>
        <time>2017-07-29T08:57:51Z</time>
      </trkpt>
      <trkpt lat="44.9909050" lon="6.8195800">
        <ele>1703.0</ele>
        <time>2017-07-29T08:57:53Z</time>
      </trkpt>
      <trkpt lat="44.9909330" lon="6.8196380">
        <ele>1703.6</ele>
        <time>2017-07-29T08:57:55Z</time>
      </trkpt>
      <trkpt lat="44.9910070" lon="6.8197150">
        <ele>1704.4</ele>
        <time>2017-07-29T08:57:58Z</time>
      </trkpt>
      <trkpt lat="44.9910280" lon="6.8197380">
        <ele>1704.6</ele>
        <time>2017-07-29T08:57:59Z</time>
      </trkpt>
      <trkpt lat="44.9910560" lon="6.8197590">
        <ele>1701.0</ele>
        <time>2017-07-29T08:58:00Z</time>
      </trkpt>
      <trkpt lat="44.9911370" lon="6.8197960">
        <ele>1705.0</ele>
        <time>2017-07-29T08:58:03Z</time>
      </trkpt>
      <trkpt lat="44.9911620" lon="6.8197990">
        <ele>1705.2</ele>
        <time>2017-07-29T08:58:04Z</time>
      </trkpt>
      <trkpt lat="44.9911940" lon="6.8198100">
        <ele>1705.4</ele>
        <time>2017-07-29T08:58:05Z</time>
      </trkpt>
      <trkpt lat="44.9912770" lon="6.8199020">
        <ele>1705.0</ele>
        <time>2017-07-29T08:58:08Z</time>
      </trkpt>
      <trkpt lat="44.9913180" lon="6.8199380">
        <ele>1704.8</ele>
        <time>2017-07-29T08:58:09Z</time>
      </trkpt>
      <trkpt lat="44.9914100" lon="6.8200410">
        <ele>1704.4</ele>
        <time>2017-07-29T08:58:11Z</time>
      </trkpt>
      <trkpt lat="44.9914600" lon="6.8201110">
        <ele>1704.2</ele>
        <time>2017-07-29T08:58:12Z</time>
      </trkpt>
      <trkpt lat="44.9915270" lon="6.8201750">
        <ele>1703.8</ele>
        <time>2017-07-29T08:58:13Z</time>
      </trkpt>
      <trkpt lat="44.9916740" lon="6.8202400">
        <ele>1702.6</ele>
        <time>2017-07-29T08:58:15Z</time>
      </trkpt>
      <trkpt lat="44.9919710" lon="6.8202110">
        <ele>1701.2</ele>
        <time>2017-07-29T08:58:18Z</time>
      </trkpt>
      <trkpt lat="44.9920740" lon="6.8201940">
        <ele>1700.6</ele>
        <time>2017-07-29T08:58:19Z</time>
      </trkpt>
      <trkpt lat="44.9922770" lon="6.8201770">
        <ele>1699.8</ele>
        <time>2017-07-29T08:58:21Z</time>
      </trkpt>
      <trkpt lat="44.9923790" lon="6.8201860">
        <ele>1699.0</ele>
        <time>2017-07-29T08:58:22Z</time>
      </trkpt>
      <trkpt lat="44.9924780" lon="6.8202100">
        <ele>1698.0</ele>
        <time>2017-07-29T08:58:23Z</time>
      </trkpt>
      <trkpt lat="44.9926710" lon="6.8202730">
        <ele>1696.6</ele>
        <time>2017-07-29T08:58:25Z</time>
      </trkpt>
      <trkpt lat="44.9928820" lon="6.8202970">
        <ele>1694.2</ele>
        <time>2017-07-29T08:58:27Z</time>
      </trkpt>
      <trkpt lat="44.9930790" lon="6.8203150">
        <ele>1692.4</ele>
        <time>2017-07-29T08:58:29Z</time>
      </trkpt>
      <trkpt lat="44.9931700" lon="6.8203430">
        <ele>1691.4</ele>
        <time>2017-07-29T08:58:30Z</time>
      </trkpt>
      <trkpt lat="44.9932650" lon="6.8203710">
        <ele>1690.6</ele>
        <time>2017-07-29T08:58:31Z</time>
      </trkpt>
      <trkpt lat="44.9933590" lon="6.8203840">
        <ele>1689.4</ele>
        <time>2017-07-29T08:58:32Z</time>
      </trkpt>
      <trkpt lat="44.9934460" lon="6.8203860">
        <ele>1688.4</ele>
        <time>2017-07-29T08:58:33Z</time>
      </trkpt>
      <trkpt lat="44.9935320" lon="6.8203800">
        <ele>1687.4</ele>
        <time>2017-07-29T08:58:34Z</time>
      </trkpt>
      <trkpt lat="44.9937230" lon="6.8203580">
        <ele>1685.8</ele>
        <time>2017-07-29T08:58:36Z</time>
      </trkpt>
      <trkpt lat="44.9938220" lon="6.8203610">
        <ele>1685.0</ele>
        <time>2017-07-29T08:58:37Z</time>
      </trkpt>
      <trkpt lat="44.9939180" lon="6.8203730">
        <ele>1684.2</ele>
        <time>2017-07-29T08:58:38Z</time>
      </trkpt>
      <trkpt lat="44.9940950" lon="6.8203970">
        <ele>1683.0</ele>
        <time>2017-07-29T08:58:40Z</time>
      </trkpt>
      <trkpt lat="44.9942460" lon="6.8204020">
        <ele>1682.2</ele>
        <time>2017-07-29T08:58:42Z</time>
      </trkpt>
      <trkpt lat="44.9943060" lon="6.8204040">
        <ele>1682.0</ele>
        <time>2017-07-29T08:58:43Z</time>
      </trkpt>
      <trkpt lat="44.9945190" lon="6.8204370">
        <ele>1681.6</ele>
        <time>2017-07-29T08:58:47Z</time>
      </trkpt>
      <trkpt lat="44.9946580" lon="6.8204920">
        <ele>1681.6</ele>
        <time>2017-07-29T08:58:50Z</time>
      </trkpt>
      <trkpt lat="44.9947570" lon="6.8205390">
        <ele>1682.0</ele>
        <time>2017-07-29T08:58:52Z</time>
      </trkpt>
      <trkpt lat="44.9949080" lon="6.8207290">
        <ele>1682.8</ele>
        <time>2017-07-29T08:58:56Z</time>
      </trkpt>
      <trkpt lat="44.9949560" lon="6.8208280">
        <ele>1683.2</ele>
        <time>2017-07-29T08:58:58Z</time>
      </trkpt>
      <trkpt lat="44.9950070" lon="6.8208900">
        <ele>1683.6</ele>
        <time>2017-07-29T08:59:00Z</time>
      </trkpt>
      <trkpt lat="44.9950340" lon="6.8209240">
        <ele>1684.0</ele>
        <time>2017-07-29T08:59:01Z</time>
      </trkpt>
      <trkpt lat="44.9950900" lon="6.8210070">
        <ele>1684.4</ele>
        <time>2017-07-29T08:59:03Z</time>
      </trkpt>
      <trkpt lat="44.9951550" lon="6.8211970">
        <ele>1684.8</ele>
        <time>2017-07-29T08:59:06Z</time>
      </trkpt>
      <trkpt lat="44.9952320" lon="6.8215410">
        <ele>1685.4</ele>
        <time>2017-07-29T08:59:11Z</time>
      </trkpt>
      <trkpt lat="44.9952480" lon="6.8218790">
        <ele>1684.6</ele>
        <time>2017-07-29T08:59:15Z</time>
      </trkpt>
      <trkpt lat="44.9952710" lon="6.8222050">
        <ele>1685.0</ele>
        <time>2017-07-29T08:59:20Z</time>
      </trkpt>
      <trkpt lat="44.9952820" lon="6.8223450">
        <ele>1685.4</ele>
        <time>2017-07-29T08:59:23Z</time>
      </trkpt>
      <trkpt lat="44.9952870" lon="6.8223930">
        <ele>1685.6</ele>
        <time>2017-07-29T08:59:24Z</time>
      </trkpt>
      <trkpt lat="44.9952940" lon="6.8224330">
        <ele>1685.8</ele>
        <time>2017-07-29T08:59:25Z</time>
      </trkpt>
      <trkpt lat="44.9953420" lon="6.8226410">
        <ele>1686.8</ele>
        <time>2017-07-29T08:59:30Z</time>
      </trkpt>
      <trkpt lat="44.9953870" lon="6.8227840">
        <ele>1687.8</ele>
        <time>2017-07-29T08:59:34Z</time>
      </trkpt>
      <trkpt lat="44.9954370" lon="6.8229150">
        <ele>1689.0</ele>
        <time>2017-07-29T08:59:38Z</time>
      </trkpt>
      <trkpt lat="44.9954520" lon="6.8229490">
        <ele>1689.8</ele>
        <time>2017-07-29T08:59:39Z</time>
      </trkpt>
      <trkpt lat="44.9954670" lon="6.8229860">
        <ele>1690.0</ele>
        <time>2017-07-29T08:59:40Z</time>
      </trkpt>
      <trkpt lat="44.9954900" lon="6.8230530">
        <ele>1690.6</ele>
        <time>2017-07-29T08:59:42Z</time>
      </trkpt>
      <trkpt lat="44.9955070" lon="6.8231350">
        <ele>1691.0</ele>
        <time>2017-07-29T08:59:44Z</time>
      </trkpt>
      <trkpt lat="44.9955130" lon="6.8231900">
        <ele>1691.4</ele>
        <time>2017-07-29T08:59:45Z</time>
      </trkpt>
      <trkpt lat="44.9955860" lon="6.8235170">
        <ele>1692.2</ele>
        <time>2017-07-29T08:59:51Z</time>
      </trkpt>
      <trkpt lat="44.9955800" lon="6.8238170">
        <ele>1693.2</ele>
        <time>2017-07-29T08:59:58Z</time>
      </trkpt>
      <trkpt lat="44.9955750" lon="6.8238610">
        <ele>1693.2</ele>
        <time>2017-07-29T08:59:59Z</time>
      </trkpt>
      <trkpt lat="44.9955670" lon="6.8239490">
        <ele>1693.2</ele>
        <time>2017-07-29T09:00:01Z</time>
      </trkpt>
      <trkpt lat="44.9955270" lon="6.8242250">
        <ele>1693.6</ele>
        <time>2017-07-29T09:00:06Z</time>
      </trkpt>
      <trkpt lat="44.9954970" lon="6.8245080">
        <ele>1692.8</ele>
        <time>2017-07-29T09:00:09Z</time>
      </trkpt>
      <trkpt lat="44.9954930" lon="6.8246230">
        <ele>1692.6</ele>
        <time>2017-07-29T09:00:10Z</time>
      </trkpt>
      <trkpt lat="44.9954930" lon="6.8247340">
        <ele>1692.2</ele>
        <time>2017-07-29T09:00:11Z</time>
      </trkpt>
      <trkpt lat="44.9955000" lon="6.8249200">
        <ele>1692.0</ele>
        <time>2017-07-29T09:00:13Z</time>
      </trkpt>
      <trkpt lat="44.9954860" lon="6.8253640">
        <ele>1691.2</ele>
        <time>2017-07-29T09:00:18Z</time>
      </trkpt>
      <trkpt lat="44.9954550" lon="6.8255900">
        <ele>1691.2</ele>
        <time>2017-07-29T09:00:22Z</time>
      </trkpt>
      <trkpt lat="44.9953960" lon="6.8258710">
        <ele>1691.6</ele>
        <time>2017-07-29T09:00:27Z</time>
      </trkpt>
      <trkpt lat="44.9953870" lon="6.8260070">
        <ele>1691.8</ele>
        <time>2017-07-29T09:00:29Z</time>
      </trkpt>
      <trkpt lat="44.9953880" lon="6.8261600">
        <ele>1691.6</ele>
        <time>2017-07-29T09:00:31Z</time>
      </trkpt>
      <trkpt lat="44.9954390" lon="6.8264010">
        <ele>1691.6</ele>
        <time>2017-07-29T09:00:34Z</time>
      </trkpt>
      <trkpt lat="44.9954670" lon="6.8266890">
        <ele>1691.4</ele>
        <time>2017-07-29T09:00:38Z</time>
      </trkpt>
      <trkpt lat="44.9954700" lon="6.8267500">
        <ele>1691.6</ele>
        <time>2017-07-29T09:00:39Z</time>
      </trkpt>
      <trkpt lat="44.9954730" lon="6.8268570">
        <ele>1692.2</ele>
        <time>2017-07-29T09:00:41Z</time>
      </trkpt>
      <trkpt lat="44.9954600" lon="6.8270670">
        <ele>1692.8</ele>
        <time>2017-07-29T09:00:45Z</time>
      </trkpt>
      <trkpt lat="44.9954380" lon="6.8272200">
        <ele>1693.4</ele>
        <time>2017-07-29T09:00:48Z</time>
      </trkpt>
      <trkpt lat="44.9954150" lon="6.8273070">
        <ele>1694.2</ele>
        <time>2017-07-29T09:00:50Z</time>
      </trkpt>
      <trkpt lat="44.9954060" lon="6.8273480">
        <ele>1694.6</ele>
        <time>2017-07-29T09:00:51Z</time>
      </trkpt>
      <trkpt lat="44.9953690" lon="6.8275550">
        <ele>1695.6</ele>
        <time>2017-07-29T09:00:55Z</time>
      </trkpt>
      <trkpt lat="44.9953490" lon="6.8278370">
        <ele>1696.8</ele>
        <time>2017-07-29T09:01:00Z</time>
      </trkpt>
      <trkpt lat="44.9953540" lon="6.8281320">
        <ele>1697.8</ele>
        <time>2017-07-29T09:01:06Z</time>
      </trkpt>
      <trkpt lat="44.9953540" lon="6.8282240">
        <ele>1698.0</ele>
        <time>2017-07-29T09:01:08Z</time>
      </trkpt>
      <trkpt lat="44.9954090" lon="6.8284950">
        <ele>1699.0</ele>
        <time>2017-07-29T09:01:13Z</time>
      </trkpt>
      <trkpt lat="44.9954310" lon="6.8286040">
        <ele>1700.2</ele>
        <time>2017-07-29T09:01:17Z</time>
      </trkpt>
      <trkpt lat="44.9954410" lon="6.8286820">
        <ele>1700.6</ele>
        <time>2017-07-29T09:01:19Z</time>
      </trkpt>
      <trkpt lat="44.9955120" lon="6.8288070">
        <ele>1701.4</ele>
        <time>2017-07-29T09:01:22Z</time>
      </trkpt>
      <trkpt lat="44.9955510" lon="6.8288880">
        <ele>1702.0</ele>
        <time>2017-07-29T09:01:24Z</time>
      </trkpt>
      <trkpt lat="44.9956780" lon="6.8291020">
        <ele>1702.4</ele>
        <time>2017-07-29T09:01:28Z</time>
      </trkpt>
      <trkpt lat="44.9957030" lon="6.8291670">
        <ele>1702.2</ele>
        <time>2017-07-29T09:01:29Z</time>
      </trkpt>
      <trkpt lat="44.9957230" lon="6.8292340">
        <ele>1702.4</ele>
        <time>2017-07-29T09:01:30Z</time>
      </trkpt>
      <trkpt lat="44.9957960" lon="6.8293730">
        <ele>1703.0</ele>
        <time>2017-07-29T09:01:33Z</time>
      </trkpt>
      <trkpt lat="44.9958670" lon="6.8295840">
        <ele>1703.4</ele>
        <time>2017-07-29T09:01:37Z</time>
      </trkpt>
      <trkpt lat="44.9958850" lon="6.8296490">
        <ele>1703.6</ele>
        <time>2017-07-29T09:01:38Z</time>
      </trkpt>
      <trkpt lat="44.9960220" lon="6.8299670">
        <ele>1703.8</ele>
        <time>2017-07-29T09:01:42Z</time>
      </trkpt>
      <trkpt lat="44.9960780" lon="6.8301880">
        <ele>1704.0</ele>
        <time>2017-07-29T09:01:45Z</time>
      </trkpt>
      <trkpt lat="44.9961430" lon="6.8306190">
        <ele>1704.4</ele>
        <time>2017-07-29T09:01:51Z</time>
      </trkpt>
      <trkpt lat="44.9961400" lon="6.8307600">
        <ele>1704.2</ele>
        <time>2017-07-29T09:01:53Z</time>
      </trkpt>
      <trkpt lat="44.9961300" lon="6.8308920">
        <ele>1704.0</ele>
        <time>2017-07-29T09:01:55Z</time>
      </trkpt>
      <trkpt lat="44.9961380" lon="6.8311390">
        <ele>1704.4</ele>
        <time>2017-07-29T09:01:59Z</time>
      </trkpt>
      <trkpt lat="44.9961590" lon="6.8312100">
        <ele>1704.4</ele>
        <time>2017-07-29T09:02:00Z</time>
      </trkpt>
      <trkpt lat="44.9962200" lon="6.8314380">
        <ele>1704.2</ele>
        <time>2017-07-29T09:02:03Z</time>
      </trkpt>
      <trkpt lat="44.9962280" lon="6.8315150">
        <ele>1704.6</ele>
        <time>2017-07-29T09:02:04Z</time>
      </trkpt>
      <trkpt lat="44.9962420" lon="6.8315810">
        <ele>1704.8</ele>
        <time>2017-07-29T09:02:05Z</time>
      </trkpt>
      <trkpt lat="44.9963370" lon="6.8318050">
        <ele>1704.8</ele>
        <time>2017-07-29T09:02:09Z</time>
      </trkpt>
      <trkpt lat="44.9963660" lon="6.8318880">
        <ele>1704.8</ele>
        <time>2017-07-29T09:02:10Z</time>
      </trkpt>
      <trkpt lat="44.9964220" lon="6.8320780">
        <ele>1704.8</ele>
        <time>2017-07-29T09:02:12Z</time>
      </trkpt>
      <trkpt lat="44.9964530" lon="6.8322590">
        <ele>1704.2</ele>
        <time>2017-07-29T09:02:14Z</time>
      </trkpt>
      <trkpt lat="44.9965160" lon="6.8325620">
        <ele>1704.0</ele>
        <time>2017-07-29T09:02:18Z</time>
      </trkpt>
      <trkpt lat="44.9965350" lon="6.8326150">
        <ele>1704.0</ele>
        <time>2017-07-29T09:02:19Z</time>
      </trkpt>
      <trkpt lat="44.9966140" lon="6.8327140">
        <ele>1704.0</ele>
        <time>2017-07-29T09:02:23Z</time>
      </trkpt>
      <trkpt lat="44.9967590" lon="6.8328330">
        <ele>1704.6</ele>
        <time>2017-07-29T09:02:29Z</time>
      </trkpt>
      <trkpt lat="44.9969320" lon="6.8329600">
        <ele>1705.6</ele>
        <time>2017-07-29T09:02:36Z</time>
      </trkpt>
      <trkpt lat="44.9971340" lon="6.8331680">
        <ele>1706.4</ele>
        <time>2017-07-29T09:02:42Z</time>
      </trkpt>
      <trkpt lat="44.9971700" lon="6.8333640">
        <ele>1705.4</ele>
        <time>2017-07-29T09:02:45Z</time>
      </trkpt>
      <trkpt lat="44.9971860" lon="6.8335180">
        <ele>1704.4</ele>
        <time>2017-07-29T09:02:47Z</time>
      </trkpt>
      <trkpt lat="44.9971700" lon="6.8336260">
        <ele>1703.6</ele>
        <time>2017-07-29T09:02:48Z</time>
      </trkpt>
      <trkpt lat="44.9971600" lon="6.8337390">
        <ele>1702.6</ele>
        <time>2017-07-29T09:02:49Z</time>
      </trkpt>
      <trkpt lat="44.9971510" lon="6.8338520">
        <ele>1701.4</ele>
        <time>2017-07-29T09:02:50Z</time>
      </trkpt>
      <trkpt lat="44.9971440" lon="6.8340690">
        <ele>1698.8</ele>
        <time>2017-07-29T09:02:52Z</time>
      </trkpt>
      <trkpt lat="44.9971290" lon="6.8341800">
        <ele>1697.8</ele>
        <time>2017-07-29T09:02:53Z</time>
      </trkpt>
      <trkpt lat="44.9971080" lon="6.8342900">
        <ele>1696.8</ele>
        <time>2017-07-29T09:02:54Z</time>
      </trkpt>
      <trkpt lat="44.9970910" lon="6.8343870">
        <ele>1695.8</ele>
        <time>2017-07-29T09:02:55Z</time>
      </trkpt>
      <trkpt lat="44.9970830" lon="6.8344610">
        <ele>1695.0</ele>
        <time>2017-07-29T09:02:56Z</time>
      </trkpt>
      <trkpt lat="44.9970840" lon="6.8345310">
        <ele>1693.8</ele>
        <time>2017-07-29T09:02:57Z</time>
      </trkpt>
      <trkpt lat="44.9971220" lon="6.8346610">
        <ele>1691.6</ele>
        <time>2017-07-29T09:02:59Z</time>
      </trkpt>
      <trkpt lat="44.9971550" lon="6.8347370">
        <ele>1690.4</ele>
        <time>2017-07-29T09:03:00Z</time>
      </trkpt>
      <trkpt lat="44.9971870" lon="6.8348260">
        <ele>1688.6</ele>
        <time>2017-07-29T09:03:01Z</time>
      </trkpt>
      <trkpt lat="44.9972160" lon="6.8349200">
        <ele>1687.4</ele>
        <time>2017-07-29T09:03:02Z</time>
      </trkpt>
      <trkpt lat="44.9972470" lon="6.8350060">
        <ele>1686.0</ele>
        <time>2017-07-29T09:03:03Z</time>
      </trkpt>
      <trkpt lat="44.9972730" lon="6.8350730">
        <ele>1684.6</ele>
        <time>2017-07-29T09:03:04Z</time>
      </trkpt>
      <trkpt lat="44.9972920" lon="6.8351250">
        <ele>1683.4</ele>
        <time>2017-07-29T09:03:05Z</time>
      </trkpt>
      <trkpt lat="44.9973070" lon="6.8351870">
        <ele>1681.2</ele>
        <time>2017-07-29T09:03:07Z</time>
      </trkpt>
      <trkpt lat="44.9973240" lon="6.8351830">
        <ele>1677.2</ele>
        <time>2017-07-29T09:03:10Z</time>
      </trkpt>
      <trkpt lat="44.9973370" lon="6.8351720">
        <ele>1675.4</ele>
        <time>2017-07-29T09:03:11Z</time>
      </trkpt>
      <trkpt lat="44.9973550" lon="6.8351600">
        <ele>1673.8</ele>
        <time>2017-07-29T09:03:12Z</time>
      </trkpt>
      <trkpt lat="44.9973940" lon="6.8351470">
        <ele>1672.4</ele>
        <time>2017-07-29T09:03:13Z</time>
      </trkpt>
      <trkpt lat="44.9974530" lon="6.8351280">
        <ele>1671.0</ele>
        <time>2017-07-29T09:03:14Z</time>
      </trkpt>
      <trkpt lat="44.9975230" lon="6.8351130">
        <ele>1669.6</ele>
        <time>2017-07-29T09:03:15Z</time>
      </trkpt>
      <trkpt lat="44.9975930" lon="6.8350980">
        <ele>1667.2</ele>
        <time>2017-07-29T09:03:16Z</time>
      </trkpt>
      <trkpt lat="44.9976690" lon="6.8351030">
        <ele>1666.0</ele>
        <time>2017-07-29T09:03:17Z</time>
      </trkpt>
      <trkpt lat="44.9977530" lon="6.8351080">
        <ele>1664.6</ele>
        <time>2017-07-29T09:03:18Z</time>
      </trkpt>
      <trkpt lat="44.9978410" lon="6.8351060">
        <ele>1663.2</ele>
        <time>2017-07-29T09:03:19Z</time>
      </trkpt>
      <trkpt lat="44.9979340" lon="6.8350940">
        <ele>1661.6</ele>
        <time>2017-07-29T09:03:20Z</time>
      </trkpt>
      <trkpt lat="44.9980290" lon="6.8350650">
        <ele>1660.2</ele>
        <time>2017-07-29T09:03:21Z</time>
      </trkpt>
      <trkpt lat="44.9981230" lon="6.8350020">
        <ele>1658.8</ele>
        <time>2017-07-29T09:03:22Z</time>
      </trkpt>
      <trkpt lat="44.9982130" lon="6.8349070">
        <ele>1657.6</ele>
        <time>2017-07-29T09:03:23Z</time>
      </trkpt>
      <trkpt lat="44.9983090" lon="6.8348310">
        <ele>1656.0</ele>
        <time>2017-07-29T09:03:24Z</time>
      </trkpt>
      <trkpt lat="44.9983960" lon="6.8347330">
        <ele>1654.6</ele>
        <time>2017-07-29T09:03:25Z</time>
      </trkpt>
      <trkpt lat="44.9984890" lon="6.8346270">
        <ele>1653.4</ele>
        <time>2017-07-29T09:03:26Z</time>
      </trkpt>
      <trkpt lat="44.9985610" lon="6.8345180">
        <ele>1652.0</ele>
        <time>2017-07-29T09:03:27Z</time>
      </trkpt>
      <trkpt lat="44.9986170" lon="6.8344110">
        <ele>1650.4</ele>
        <time>2017-07-29T09:03:28Z</time>
      </trkpt>
      <trkpt lat="44.9986650" lon="6.8343140">
        <ele>1649.2</ele>
        <time>2017-07-29T09:03:29Z</time>
      </trkpt>
      <trkpt lat="44.9986830" lon="6.8342280">
        <ele>1647.0</ele>
        <time>2017-07-29T09:03:31Z</time>
      </trkpt>
      <trkpt lat="44.9986910" lon="6.8341300">
        <ele>1645.6</ele>
        <time>2017-07-29T09:03:32Z</time>
      </trkpt>
      <trkpt lat="44.9987290" lon="6.8340490">
        <ele>1644.0</ele>
        <time>2017-07-29T09:03:33Z</time>
      </trkpt>
      <trkpt lat="44.9987460" lon="6.8339430">
        <ele>1642.6</ele>
        <time>2017-07-29T09:03:34Z</time>
      </trkpt>
      <trkpt lat="44.9987920" lon="6.8338460">
        <ele>1641.2</ele>
        <time>2017-07-29T09:03:35Z</time>
      </trkpt>
      <trkpt lat="44.9988220" lon="6.8337360">
        <ele>1639.8</ele>
        <time>2017-07-29T09:03:36Z</time>
      </trkpt>
      <trkpt lat="44.9988610" lon="6.8336420">
        <ele>1638.2</ele>
        <time>2017-07-29T09:03:37Z</time>
      </trkpt>
      <trkpt lat="44.9989040" lon="6.8335560">
        <ele>1636.4</ele>
        <time>2017-07-29T09:03:38Z</time>
      </trkpt>
      <trkpt lat="44.9989470" lon="6.8334890">
        <ele>1634.8</ele>
        <time>2017-07-29T09:03:39Z</time>
      </trkpt>
      <trkpt lat="44.9989880" lon="6.8334400">
        <ele>1632.4</ele>
        <time>2017-07-29T09:03:40Z</time>
      </trkpt>
      <trkpt lat="44.9990390" lon="6.8334050">
        <ele>1631.4</ele>
        <time>2017-07-29T09:03:41Z</time>
      </trkpt>
      <trkpt lat="44.9991110" lon="6.8333890">
        <ele>1630.4</ele>
        <time>2017-07-29T09:03:42Z</time>
      </trkpt>
      <trkpt lat="44.9991930" lon="6.8333900">
        <ele>1629.4</ele>
        <time>2017-07-29T09:03:43Z</time>
      </trkpt>
      <trkpt lat="44.9992840" lon="6.8334060">
        <ele>1628.0</ele>
        <time>2017-07-29T09:03:44Z</time>
      </trkpt>
      <trkpt lat="44.9993710" lon="6.8334380">
        <ele>1627.0</ele>
        <time>2017-07-29T09:03:45Z</time>
      </trkpt>
      <trkpt lat="44.9994630" lon="6.8334870">
        <ele>1625.8</ele>
        <time>2017-07-29T09:03:46Z</time>
      </trkpt>
      <trkpt lat="44.9995180" lon="6.8335960">
        <ele>1625.0</ele>
        <time>2017-07-29T09:03:47Z</time>
      </trkpt>
      <trkpt lat="44.9994720" lon="6.8338540">
        <ele>1624.4</ele>
        <time>2017-07-29T09:03:48Z</time>
      </trkpt>
      <trkpt lat="44.9994540" lon="6.8340480">
        <ele>1623.6</ele>
        <time>2017-07-29T09:03:49Z</time>
      </trkpt>
      <trkpt lat="44.9994520" lon="6.8342180">
        <ele>1623.0</ele>
        <time>2017-07-29T09:03:50Z</time>
      </trkpt>
      <trkpt lat="44.9994870" lon="6.8345050">
        <ele>1621.2</ele>
        <time>2017-07-29T09:03:52Z</time>
      </trkpt>
      <trkpt lat="44.9995360" lon="6.8347280">
        <ele>1619.8</ele>
        <time>2017-07-29T09:03:54Z</time>
      </trkpt>
      <trkpt lat="44.9995540" lon="6.8348080">
        <ele>1619.4</ele>
        <time>2017-07-29T09:03:55Z</time>
      </trkpt>
      <trkpt lat="44.9995920" lon="6.8349130">
        <ele>1618.6</ele>
        <time>2017-07-29T09:03:57Z</time>
      </trkpt>
      <trkpt lat="44.9995990" lon="6.8349480">
        <ele>1618.0</ele>
        <time>2017-07-29T09:03:58Z</time>
      </trkpt>
      <trkpt lat="44.9996140" lon="6.8349930">
        <ele>1617.6</ele>
        <time>2017-07-29T09:03:59Z</time>
      </trkpt>
      <trkpt lat="44.9996510" lon="6.8350770">
        <ele>1616.4</ele>
        <time>2017-07-29T09:04:01Z</time>
      </trkpt>
      <trkpt lat="44.9996760" lon="6.8351240">
        <ele>1615.8</ele>
        <time>2017-07-29T09:04:02Z</time>
      </trkpt>
      <trkpt lat="44.9996990" lon="6.8351700">
        <ele>1615.2</ele>
        <time>2017-07-29T09:04:03Z</time>
      </trkpt>
      <trkpt lat="44.9997450" lon="6.8352870">
        <ele>1613.8</ele>
        <time>2017-07-29T09:04:05Z</time>
      </trkpt>
      <trkpt lat="44.9997900" lon="6.8353790">
        <ele>1613.0</ele>
        <time>2017-07-29T09:04:07Z</time>
      </trkpt>
      <trkpt lat="44.9998260" lon="6.8354450">
        <ele>1612.6</ele>
        <time>2017-07-29T09:04:09Z</time>
      </trkpt>
      <trkpt lat="44.9998720" lon="6.8355460">
        <ele>1611.6</ele>
        <time>2017-07-29T09:04:11Z</time>
      </trkpt>
      <trkpt lat="44.9998880" lon="6.8355940">
        <ele>1611.0</ele>
        <time>2017-07-29T09:04:12Z</time>
      </trkpt>
      <trkpt lat="44.9999370" lon="6.8356930">
        <ele>1610.2</ele>
        <time>2017-07-29T09:04:14Z</time>
      </trkpt>
      <trkpt lat="44.9999820" lon="6.8357960">
        <ele>1609.0</ele>
        <time>2017-07-29T09:04:16Z</time>
      </trkpt>
      <trkpt lat="45.0001060" lon="6.8359640">
        <ele>1608.2</ele>
        <time>2017-07-29T09:04:18Z</time>
      </trkpt>
      <trkpt lat="45.0002000" lon="6.8360650">
        <ele>1607.8</ele>
        <time>2017-07-29T09:04:19Z</time>
      </trkpt>
      <trkpt lat="45.0003580" lon="6.8363350">
        <ele>1607.2</ele>
        <time>2017-07-29T09:04:22Z</time>
      </trkpt>
      <trkpt lat="45.0004270" lon="6.8363960">
        <ele>1607.2</ele>
        <time>2017-07-29T09:04:23Z</time>
      </trkpt>
      <trkpt lat="45.0006380" lon="6.8365050">
        <ele>1606.8</ele>
        <time>2017-07-29T09:04:27Z</time>
      </trkpt>
      <trkpt lat="45.0006880" lon="6.8365260">
        <ele>1606.8</ele>
        <time>2017-07-29T09:04:28Z</time>
      </trkpt>
      <trkpt lat="45.0008290" lon="6.8366210">
        <ele>1606.6</ele>
        <time>2017-07-29T09:04:31Z</time>
      </trkpt>
      <trkpt lat="45.0009500" lon="6.8367220">
        <ele>1606.2</ele>
        <time>2017-07-29T09:04:33Z</time>
      </trkpt>
      <trkpt lat="45.0010850" lon="6.8369000">
        <ele>1605.6</ele>
        <time>2017-07-29T09:04:36Z</time>
      </trkpt>
      <trkpt lat="45.0011550" lon="6.8370230">
        <ele>1605.2</ele>
        <time>2017-07-29T09:04:38Z</time>
      </trkpt>
      <trkpt lat="45.0012710" lon="6.8370420">
        <ele>1605.2</ele>
        <time>2017-07-29T09:04:41Z</time>
      </trkpt>
      <trkpt lat="45.0013180" lon="6.8370380">
        <ele>1605.0</ele>
        <time>2017-07-29T09:04:42Z</time>
      </trkpt>
      <trkpt lat="45.0013610" lon="6.8370810">
        <ele>1604.8</ele>
        <time>2017-07-29T09:04:43Z</time>
      </trkpt>
      <trkpt lat="45.0014380" lon="6.8371860">
        <ele>1604.2</ele>
        <time>2017-07-29T09:04:45Z</time>
      </trkpt>
      <trkpt lat="45.0015640" lon="6.8373110">
        <ele>1603.0</ele>
        <time>2017-07-29T09:04:47Z</time>
      </trkpt>
      <trkpt lat="45.0016380" lon="6.8373670">
        <ele>1602.8</ele>
        <time>2017-07-29T09:04:48Z</time>
      </trkpt>
      <trkpt lat="45.0018810" lon="6.8375210">
        <ele>1602.0</ele>
        <time>2017-07-29T09:04:51Z</time>
      </trkpt>
      <trkpt lat="45.0019160" lon="6.8376190">
        <ele>1600.6</ele>
        <time>2017-07-29T09:04:52Z</time>
      </trkpt>
      <trkpt lat="45.0019240" lon="6.8379500">
        <ele>1599.2</ele>
        <time>2017-07-29T09:04:55Z</time>
      </trkpt>
      <trkpt lat="45.0019350" lon="6.8382400">
        <ele>1598.0</ele>
        <time>2017-07-29T09:04:58Z</time>
      </trkpt>
      <trkpt lat="45.0019670" lon="6.8384440">
        <ele>1597.2</ele>
        <time>2017-07-29T09:05:00Z</time>
      </trkpt>
      <trkpt lat="45.0019700" lon="6.8385770">
        <ele>1597.0</ele>
        <time>2017-07-29T09:05:01Z</time>
      </trkpt>
      <trkpt lat="45.0019870" lon="6.8388240">
        <ele>1595.0</ele>
        <time>2017-07-29T09:05:03Z</time>
      </trkpt>
      <trkpt lat="45.0019850" lon="6.8389550">
        <ele>1594.0</ele>
        <time>2017-07-29T09:05:04Z</time>
      </trkpt>
      <trkpt lat="45.0019970" lon="6.8391660">
        <ele>1592.6</ele>
        <time>2017-07-29T09:05:06Z</time>
      </trkpt>
      <trkpt lat="45.0020150" lon="6.8392490">
        <ele>1591.6</ele>
        <time>2017-07-29T09:05:07Z</time>
      </trkpt>
      <trkpt lat="45.0020420" lon="6.8393180">
        <ele>1590.8</ele>
        <time>2017-07-29T09:05:08Z</time>
      </trkpt>
      <trkpt lat="45.0021080" lon="6.8393920">
        <ele>1589.4</ele>
        <time>2017-07-29T09:05:10Z</time>
      </trkpt>
      <trkpt lat="45.0021990" lon="6.8393780">
        <ele>1588.0</ele>
        <time>2017-07-29T09:05:12Z</time>
      </trkpt>
      <trkpt lat="45.0022560" lon="6.8393370">
        <ele>1587.2</ele>
        <time>2017-07-29T09:05:13Z</time>
      </trkpt>
      <trkpt lat="45.0023150" lon="6.8392880">
        <ele>1586.8</ele>
        <time>2017-07-29T09:05:14Z</time>
      </trkpt>
      <trkpt lat="45.0024390" lon="6.8391650">
        <ele>1581.8</ele>
        <time>2017-07-29T09:05:16Z</time>
      </trkpt>
      <trkpt lat="45.0025330" lon="6.8390150">
        <ele>1583.0</ele>
        <time>2017-07-29T09:05:18Z</time>
      </trkpt>
      <trkpt lat="45.0026520" lon="6.8387530">
        <ele>1581.6</ele>
        <time>2017-07-29T09:05:21Z</time>
      </trkpt>
      <trkpt lat="45.0027190" lon="6.8386850">
        <ele>1581.2</ele>
        <time>2017-07-29T09:05:22Z</time>
      </trkpt>
      <trkpt lat="45.0027890" lon="6.8386250">
        <ele>1580.4</ele>
        <time>2017-07-29T09:05:23Z</time>
      </trkpt>
      <trkpt lat="45.0029260" lon="6.8384890">
        <ele>1579.6</ele>
        <time>2017-07-29T09:05:25Z</time>
      </trkpt>
      <trkpt lat="45.0029910" lon="6.8383960">
        <ele>1579.2</ele>
        <time>2017-07-29T09:05:26Z</time>
      </trkpt>
      <trkpt lat="45.0031070" lon="6.8382120">
        <ele>1577.6</ele>
        <time>2017-07-29T09:05:28Z</time>
      </trkpt>
      <trkpt lat="45.0031610" lon="6.8381250">
        <ele>1576.4</ele>
        <time>2017-07-29T09:05:29Z</time>
      </trkpt>
      <trkpt lat="45.0032110" lon="6.8380430">
        <ele>1575.4</ele>
        <time>2017-07-29T09:05:30Z</time>
      </trkpt>
      <trkpt lat="45.0032630" lon="6.8379630">
        <ele>1574.8</ele>
        <time>2017-07-29T09:05:31Z</time>
      </trkpt>
      <trkpt lat="45.0033150" lon="6.8378830">
        <ele>1574.0</ele>
        <time>2017-07-29T09:05:32Z</time>
      </trkpt>
      <trkpt lat="45.0034480" lon="6.8377270">
        <ele>1572.0</ele>
        <time>2017-07-29T09:05:34Z</time>
      </trkpt>
      <trkpt lat="45.0035790" lon="6.8375810">
        <ele>1570.6</ele>
        <time>2017-07-29T09:05:36Z</time>
      </trkpt>
      <trkpt lat="45.0036400" lon="6.8375260">
        <ele>1569.6</ele>
        <time>2017-07-29T09:05:37Z</time>
      </trkpt>
      <trkpt lat="45.0036950" lon="6.8374900">
        <ele>1569.0</ele>
        <time>2017-07-29T09:05:38Z</time>
      </trkpt>
      <trkpt lat="45.0037480" lon="6.8374660">
        <ele>1568.0</ele>
        <time>2017-07-29T09:05:39Z</time>
      </trkpt>
      <trkpt lat="45.0037860" lon="6.8374330">
        <ele>1566.4</ele>
        <time>2017-07-29T09:05:40Z</time>
      </trkpt>
      <trkpt lat="45.0038720" lon="6.8373800">
        <ele>1565.2</ele>
        <time>2017-07-29T09:05:42Z</time>
      </trkpt>
      <trkpt lat="45.0039460" lon="6.8373140">
        <ele>1563.8</ele>
        <time>2017-07-29T09:05:44Z</time>
      </trkpt>
      <trkpt lat="45.0040270" lon="6.8372140">
        <ele>1562.2</ele>
        <time>2017-07-29T09:05:47Z</time>
      </trkpt>
      <trkpt lat="45.0040960" lon="6.8371280">
        <ele>1560.6</ele>
        <time>2017-07-29T09:05:49Z</time>
      </trkpt>
      <trkpt lat="45.0041570" lon="6.8370620">
        <ele>1560.2</ele>
        <time>2017-07-29T09:05:50Z</time>
      </trkpt>
      <trkpt lat="45.0042240" lon="6.8369870">
        <ele>1559.6</ele>
        <time>2017-07-29T09:05:51Z</time>
      </trkpt>
      <trkpt lat="45.0043620" lon="6.8368240">
        <ele>1558.4</ele>
        <time>2017-07-29T09:05:53Z</time>
      </trkpt>
      <trkpt lat="45.0045000" lon="6.8366780">
        <ele>1556.4</ele>
        <time>2017-07-29T09:05:55Z</time>
      </trkpt>
      <trkpt lat="45.0046440" lon="6.8365450">
        <ele>1554.6</ele>
        <time>2017-07-29T09:05:57Z</time>
      </trkpt>
      <trkpt lat="45.0047890" lon="6.8364070">
        <ele>1553.2</ele>
        <time>2017-07-29T09:05:59Z</time>
      </trkpt>
      <trkpt lat="45.0048540" lon="6.8363420">
        <ele>1552.2</ele>
        <time>2017-07-29T09:06:00Z</time>
      </trkpt>
      <trkpt lat="45.0049710" lon="6.8362250">
        <ele>1550.2</ele>
        <time>2017-07-29T09:06:02Z</time>
      </trkpt>
      <trkpt lat="45.0050070" lon="6.8361400">
        <ele>1547.4</ele>
        <time>2017-07-29T09:06:04Z</time>
      </trkpt>
      <trkpt lat="45.0049970" lon="6.8361270">
        <ele>1546.4</ele>
        <time>2017-07-29T09:06:05Z</time>
      </trkpt>
      <trkpt lat="45.0049640" lon="6.8361720">
        <ele>1545.0</ele>
        <time>2017-07-29T09:06:07Z</time>
      </trkpt>
      <trkpt lat="45.0049400" lon="6.8361910">
        <ele>1544.0</ele>
        <time>2017-07-29T09:06:08Z</time>
      </trkpt>
      <trkpt lat="45.0049100" lon="6.8362040">
        <ele>1543.4</ele>
        <time>2017-07-29T09:06:09Z</time>
      </trkpt>
      <trkpt lat="45.0048770" lon="6.8362160">
        <ele>1542.6</ele>
        <time>2017-07-29T09:06:10Z</time>
      </trkpt>
      <trkpt lat="45.0048090" lon="6.8362290">
        <ele>1542.0</ele>
        <time>2017-07-29T09:06:11Z</time>
      </trkpt>
      <trkpt lat="45.0047520" lon="6.8362230">
        <ele>1541.0</ele>
        <time>2017-07-29T09:06:12Z</time>
      </trkpt>
      <trkpt lat="45.0046550" lon="6.8361770">
        <ele>1538.8</ele>
        <time>2017-07-29T09:06:14Z</time>
      </trkpt>
      <trkpt lat="45.0046260" lon="6.8361600">
        <ele>1538.0</ele>
        <time>2017-07-29T09:06:15Z</time>
      </trkpt>
      <trkpt lat="45.0046220" lon="6.8361450">
        <ele>1535.4</ele>
        <time>2017-07-29T09:06:18Z</time>
      </trkpt>
      <trkpt lat="45.0046540" lon="6.8361130">
        <ele>1534.6</ele>
        <time>2017-07-29T09:06:19Z</time>
      </trkpt>
      <trkpt lat="45.0046990" lon="6.8360620">
        <ele>1534.0</ele>
        <time>2017-07-29T09:06:20Z</time>
      </trkpt>
      <trkpt lat="45.0047350" lon="6.8359950">
        <ele>1533.0</ele>
        <time>2017-07-29T09:06:21Z</time>
      </trkpt>
      <trkpt lat="45.0047740" lon="6.8359150">
        <ele>1532.6</ele>
        <time>2017-07-29T09:06:22Z</time>
      </trkpt>
      <trkpt lat="45.0048180" lon="6.8358180">
        <ele>1531.4</ele>
        <time>2017-07-29T09:06:23Z</time>
      </trkpt>
      <trkpt lat="45.0048600" lon="6.8357090">
        <ele>1530.4</ele>
        <time>2017-07-29T09:06:24Z</time>
      </trkpt>
      <trkpt lat="45.0049000" lon="6.8355950">
        <ele>1529.0</ele>
        <time>2017-07-29T09:06:25Z</time>
      </trkpt>
      <trkpt lat="45.0049200" lon="6.8354970">
        <ele>1527.8</ele>
        <time>2017-07-29T09:06:26Z</time>
      </trkpt>
      <trkpt lat="45.0049970" lon="6.8353270">
        <ele>1524.6</ele>
        <time>2017-07-29T09:06:28Z</time>
      </trkpt>
      <trkpt lat="45.0050610" lon="6.8352470">
        <ele>1523.4</ele>
        <time>2017-07-29T09:06:29Z</time>
      </trkpt>
      <trkpt lat="45.0051160" lon="6.8351630">
        <ele>1522.2</ele>
        <time>2017-07-29T09:06:30Z</time>
      </trkpt>
      <trkpt lat="45.0051580" lon="6.8350840">
        <ele>1521.0</ele>
        <time>2017-07-29T09:06:31Z</time>
      </trkpt>
      <trkpt lat="45.0051950" lon="6.8350100">
        <ele>1519.8</ele>
        <time>2017-07-29T09:06:32Z</time>
      </trkpt>
      <trkpt lat="45.0052320" lon="6.8349430">
        <ele>1518.6</ele>
        <time>2017-07-29T09:06:33Z</time>
      </trkpt>
      <trkpt lat="45.0052710" lon="6.8348900">
        <ele>1517.4</ele>
        <time>2017-07-29T09:06:34Z</time>
      </trkpt>
      <trkpt lat="45.0053190" lon="6.8348440">
        <ele>1516.4</ele>
        <time>2017-07-29T09:06:35Z</time>
      </trkpt>
      <trkpt lat="45.0053740" lon="6.8348090">
        <ele>1515.2</ele>
        <time>2017-07-29T09:06:36Z</time>
      </trkpt>
      <trkpt lat="45.0054400" lon="6.8347710">
        <ele>1514.2</ele>
        <time>2017-07-29T09:06:37Z</time>
      </trkpt>
      <trkpt lat="45.0055150" lon="6.8347280">
        <ele>1512.6</ele>
        <time>2017-07-29T09:06:38Z</time>
      </trkpt>
      <trkpt lat="45.0055730" lon="6.8346840">
        <ele>1511.4</ele>
        <time>2017-07-29T09:06:39Z</time>
      </trkpt>
      <trkpt lat="45.0056260" lon="6.8346150">
        <ele>1510.4</ele>
        <time>2017-07-29T09:06:40Z</time>
      </trkpt>
      <trkpt lat="45.0056570" lon="6.8345300">
        <ele>1509.8</ele>
        <time>2017-07-29T09:06:41Z</time>
      </trkpt>
      <trkpt lat="45.0057130" lon="6.8343470">
        <ele>1507.4</ele>
        <time>2017-07-29T09:06:43Z</time>
      </trkpt>
      <trkpt lat="45.0057440" lon="6.8342590">
        <ele>1505.8</ele>
        <time>2017-07-29T09:06:44Z</time>
      </trkpt>
      <trkpt lat="45.0057800" lon="6.8341640">
        <ele>1504.4</ele>
        <time>2017-07-29T09:06:45Z</time>
      </trkpt>
      <trkpt lat="45.0058190" lon="6.8340740">
        <ele>1502.8</ele>
        <time>2017-07-29T09:06:46Z</time>
      </trkpt>
      <trkpt lat="45.0058580" lon="6.8339790">
        <ele>1501.4</ele>
        <time>2017-07-29T09:06:47Z</time>
      </trkpt>
      <trkpt lat="45.0059010" lon="6.8338890">
        <ele>1500.0</ele>
        <time>2017-07-29T09:06:48Z</time>
      </trkpt>
      <trkpt lat="45.0059470" lon="6.8337980">
        <ele>1499.0</ele>
        <time>2017-07-29T09:06:49Z</time>
      </trkpt>
      <trkpt lat="45.0059970" lon="6.8337090">
        <ele>1498.0</ele>
        <time>2017-07-29T09:06:50Z</time>
      </trkpt>
      <trkpt lat="45.0061490" lon="6.8335560">
        <ele>1495.0</ele>
        <time>2017-07-29T09:06:52Z</time>
      </trkpt>
      <trkpt lat="45.0062360" lon="6.8334810">
        <ele>1493.8</ele>
        <time>2017-07-29T09:06:53Z</time>
      </trkpt>
      <trkpt lat="45.0063200" lon="6.8334240">
        <ele>1492.8</ele>
        <time>2017-07-29T09:06:54Z</time>
      </trkpt>
      <trkpt lat="45.0063910" lon="6.8333790">
        <ele>1491.4</ele>
        <time>2017-07-29T09:06:55Z</time>
      </trkpt>
      <trkpt lat="45.0064620" lon="6.8333300">
        <ele>1490.2</ele>
        <time>2017-07-29T09:06:56Z</time>
      </trkpt>
      <trkpt lat="45.0065280" lon="6.8332700">
        <ele>1488.8</ele>
        <time>2017-07-29T09:06:57Z</time>
      </trkpt>
      <trkpt lat="45.0065850" lon="6.8332430">
        <ele>1487.4</ele>
        <time>2017-07-29T09:06:58Z</time>
      </trkpt>
      <trkpt lat="45.0066160" lon="6.8332490">
        <ele>1486.2</ele>
        <time>2017-07-29T09:06:59Z</time>
      </trkpt>
      <trkpt lat="45.0066260" lon="6.8332730">
        <ele>1485.4</ele>
        <time>2017-07-29T09:07:00Z</time>
      </trkpt>
      <trkpt lat="45.0066290" lon="6.8333330">
        <ele>1484.2</ele>
        <time>2017-07-29T09:07:01Z</time>
      </trkpt>
      <trkpt lat="45.0066020" lon="6.8336210">
        <ele>1482.2</ele>
        <time>2017-07-29T09:07:03Z</time>
      </trkpt>
      <trkpt lat="45.0066080" lon="6.8337290">
        <ele>1480.4</ele>
        <time>2017-07-29T09:07:05Z</time>
      </trkpt>
      <trkpt lat="45.0066060" lon="6.8338380">
        <ele>1478.8</ele>
        <time>2017-07-29T09:07:07Z</time>
      </trkpt>
      <trkpt lat="45.0066020" lon="6.8338910">
        <ele>1477.8</ele>
        <time>2017-07-29T09:07:08Z</time>
      </trkpt>
      <trkpt lat="45.0064870" lon="6.8338760">
        <ele>1474.4</ele>
        <time>2017-07-29T09:07:11Z</time>
      </trkpt>
      <trkpt lat="45.0064130" lon="6.8338760">
        <ele>1473.6</ele>
        <time>2017-07-29T09:07:12Z</time>
      </trkpt>
      <trkpt lat="45.0063500" lon="6.8338640">
        <ele>1472.6</ele>
        <time>2017-07-29T09:07:13Z</time>
      </trkpt>
      <trkpt lat="45.0060530" lon="6.8337440">
        <ele>1470.8</ele>
        <time>2017-07-29T09:07:15Z</time>
      </trkpt>
      <trkpt lat="45.0059810" lon="6.8336950">
        <ele>1469.0</ele>
        <time>2017-07-29T09:07:16Z</time>
      </trkpt>
      <trkpt lat="45.0059190" lon="6.8336550">
        <ele>1468.2</ele>
        <time>2017-07-29T09:07:17Z</time>
      </trkpt>
      <trkpt lat="45.0058630" lon="6.8336080">
        <ele>1467.2</ele>
        <time>2017-07-29T09:07:18Z</time>
      </trkpt>
      <trkpt lat="45.0058050" lon="6.8335230">
        <ele>1465.6</ele>
        <time>2017-07-29T09:07:20Z</time>
      </trkpt>
      <trkpt lat="45.0057800" lon="6.8334260">
        <ele>1464.0</ele>
        <time>2017-07-29T09:07:22Z</time>
      </trkpt>
      <trkpt lat="45.0057690" lon="6.8333430">
        <ele>1463.0</ele>
        <time>2017-07-29T09:07:23Z</time>
      </trkpt>
      <trkpt lat="45.0057850" lon="6.8332390">
        <ele>1462.0</ele>
        <time>2017-07-29T09:07:24Z</time>
      </trkpt>
      <trkpt lat="45.0057740" lon="6.8331150">
        <ele>1461.2</ele>
        <time>2017-07-29T09:07:25Z</time>
      </trkpt>
      <trkpt lat="45.0059660" lon="6.8328040">
        <ele>1460.4</ele>
        <time>2017-07-29T09:07:26Z</time>
      </trkpt>
      <trkpt lat="45.0061570" lon="6.8324920">
        <ele>1459.4</ele>
        <time>2017-07-29T09:07:27Z</time>
      </trkpt>
      <trkpt lat="45.0062850" lon="6.8322760">
        <ele>1458.4</ele>
        <time>2017-07-29T09:07:28Z</time>
      </trkpt>
      <trkpt lat="45.0064360" lon="6.8322040">
        <ele>1457.4</ele>
        <time>2017-07-29T09:07:29Z</time>
      </trkpt>
      <trkpt lat="45.0065750" lon="6.8320080">
        <ele>1455.8</ele>
        <time>2017-07-29T09:07:31Z</time>
      </trkpt>
      <trkpt lat="45.0066950" lon="6.8319900">
        <ele>1455.4</ele>
        <time>2017-07-29T09:07:32Z</time>
      </trkpt>
      <trkpt lat="45.0067880" lon="6.8319480">
        <ele>1454.4</ele>
        <time>2017-07-29T09:07:33Z</time>
      </trkpt>
      <trkpt lat="45.0069050" lon="6.8319170">
        <ele>1453.4</ele>
        <time>2017-07-29T09:07:34Z</time>
      </trkpt>
      <trkpt lat="45.0069890" lon="6.8318660">
        <ele>1452.2</ele>
        <time>2017-07-29T09:07:35Z</time>
      </trkpt>
      <trkpt lat="45.0070830" lon="6.8318060">
        <ele>1451.0</ele>
        <time>2017-07-29T09:07:36Z</time>
      </trkpt>
      <trkpt lat="45.0071680" lon="6.8317590">
        <ele>1449.8</ele>
        <time>2017-07-29T09:07:37Z</time>
      </trkpt>
      <trkpt lat="45.0072890" lon="6.8317070">
        <ele>1449.2</ele>
        <time>2017-07-29T09:07:38Z</time>
      </trkpt>
      <trkpt lat="45.0073980" lon="6.8316570">
        <ele>1448.2</ele>
        <time>2017-07-29T09:07:39Z</time>
      </trkpt>
      <trkpt lat="45.0074850" lon="6.8316000">
        <ele>1446.0</ele>
        <time>2017-07-29T09:07:40Z</time>
      </trkpt>
      <trkpt lat="45.0075640" lon="6.8315430">
        <ele>1445.4</ele>
        <time>2017-07-29T09:07:41Z</time>
      </trkpt>
      <trkpt lat="45.0076560" lon="6.8315660">
        <ele>1444.6</ele>
        <time>2017-07-29T09:07:42Z</time>
      </trkpt>
      <trkpt lat="45.0077140" lon="6.8315790">
        <ele>1443.8</ele>
        <time>2017-07-29T09:07:43Z</time>
      </trkpt>
      <trkpt lat="45.0077660" lon="6.8316110">
        <ele>1442.8</ele>
        <time>2017-07-29T09:07:44Z</time>
      </trkpt>
      <trkpt lat="45.0078940" lon="6.8317600">
        <ele>1441.6</ele>
        <time>2017-07-29T09:07:46Z</time>
      </trkpt>
      <trkpt lat="45.0079600" lon="6.8318630">
        <ele>1441.2</ele>
        <time>2017-07-29T09:07:47Z</time>
      </trkpt>
      <trkpt lat="45.0080290" lon="6.8319730">
        <ele>1440.6</ele>
        <time>2017-07-29T09:07:48Z</time>
      </trkpt>
      <trkpt lat="45.0082020" lon="6.8322650">
        <ele>1439.6</ele>
        <time>2017-07-29T09:07:51Z</time>
      </trkpt>
      <trkpt lat="45.0082570" lon="6.8323580">
        <ele>1438.6</ele>
        <time>2017-07-29T09:07:52Z</time>
      </trkpt>
      <trkpt lat="45.0083150" lon="6.8324530">
        <ele>1437.6</ele>
        <time>2017-07-29T09:07:53Z</time>
      </trkpt>
      <trkpt lat="45.0083630" lon="6.8325380">
        <ele>1436.4</ele>
        <time>2017-07-29T09:07:54Z</time>
      </trkpt>
      <trkpt lat="45.0088180" lon="6.8329840">
        <ele>1434.8</ele>
        <time>2017-07-29T09:07:56Z</time>
      </trkpt>
      <trkpt lat="45.0090420" lon="6.8332390">
        <ele>1433.4</ele>
        <time>2017-07-29T09:07:58Z</time>
      </trkpt>
      <trkpt lat="45.0092420" lon="6.8334860">
        <ele>1432.0</ele>
        <time>2017-07-29T09:08:00Z</time>
      </trkpt>
      <trkpt lat="45.0093380" lon="6.8336080">
        <ele>1430.8</ele>
        <time>2017-07-29T09:08:01Z</time>
      </trkpt>
      <trkpt lat="45.0095250" lon="6.8338540">
        <ele>1429.2</ele>
        <time>2017-07-29T09:08:03Z</time>
      </trkpt>
      <trkpt lat="45.0096300" lon="6.8339750">
        <ele>1426.8</ele>
        <time>2017-07-29T09:08:04Z</time>
      </trkpt>
      <trkpt lat="45.0097350" lon="6.8340910">
        <ele>1425.6</ele>
        <time>2017-07-29T09:08:05Z</time>
      </trkpt>
      <trkpt lat="45.0098380" lon="6.8342040">
        <ele>1424.4</ele>
        <time>2017-07-29T09:08:06Z</time>
      </trkpt>
      <trkpt lat="45.0100200" lon="6.8344380">
        <ele>1422.2</ele>
        <time>2017-07-29T09:08:08Z</time>
      </trkpt>
      <trkpt lat="45.0101910" lon="6.8346400">
        <ele>1420.0</ele>
        <time>2017-07-29T09:08:10Z</time>
      </trkpt>
      <trkpt lat="45.0102760" lon="6.8347190">
        <ele>1419.0</ele>
        <time>2017-07-29T09:08:11Z</time>
      </trkpt>
      <trkpt lat="45.0103560" lon="6.8348040">
        <ele>1418.0</ele>
        <time>2017-07-29T09:08:12Z</time>
      </trkpt>
      <trkpt lat="45.0104260" lon="6.8348960">
        <ele>1416.8</ele>
        <time>2017-07-29T09:08:13Z</time>
      </trkpt>
      <trkpt lat="45.0104870" lon="6.8350010">
        <ele>1415.6</ele>
        <time>2017-07-29T09:08:14Z</time>
      </trkpt>
      <trkpt lat="45.0105360" lon="6.8351080">
        <ele>1414.6</ele>
        <time>2017-07-29T09:08:15Z</time>
      </trkpt>
      <trkpt lat="45.0105880" lon="6.8352250">
        <ele>1413.6</ele>
        <time>2017-07-29T09:08:16Z</time>
      </trkpt>
      <trkpt lat="45.0106740" lon="6.8354830">
        <ele>1411.4</ele>
        <time>2017-07-29T09:08:18Z</time>
      </trkpt>
      <trkpt lat="45.0107100" lon="6.8356200">
        <ele>1410.2</ele>
        <time>2017-07-29T09:08:19Z</time>
      </trkpt>
      <trkpt lat="45.0107470" lon="6.8357550">
        <ele>1409.0</ele>
        <time>2017-07-29T09:08:20Z</time>
      </trkpt>
      <trkpt lat="45.0107860" lon="6.8358880">
        <ele>1408.0</ele>
        <time>2017-07-29T09:08:21Z</time>
      </trkpt>
      <trkpt lat="45.0108660" lon="6.8361520">
        <ele>1406.6</ele>
        <time>2017-07-29T09:08:23Z</time>
      </trkpt>
      <trkpt lat="45.0108990" lon="6.8362840">
        <ele>1405.8</ele>
        <time>2017-07-29T09:08:24Z</time>
      </trkpt>
      <trkpt lat="45.0109160" lon="6.8364110">
        <ele>1405.0</ele>
        <time>2017-07-29T09:08:25Z</time>
      </trkpt>
      <trkpt lat="45.0109630" lon="6.8366070">
        <ele>1404.2</ele>
        <time>2017-07-29T09:08:27Z</time>
      </trkpt>
      <trkpt lat="45.0109850" lon="6.8366810">
        <ele>1403.8</ele>
        <time>2017-07-29T09:08:28Z</time>
      </trkpt>
      <trkpt lat="45.0110740" lon="6.8368710">
        <ele>1403.8</ele>
        <time>2017-07-29T09:08:32Z</time>
      </trkpt>
      <trkpt lat="45.0111020" lon="6.8369280">
        <ele>1404.2</ele>
        <time>2017-07-29T09:08:34Z</time>
      </trkpt>
      <trkpt lat="45.0111210" lon="6.8370020">
        <ele>1404.6</ele>
        <time>2017-07-29T09:08:37Z</time>
      </trkpt>
      <trkpt lat="45.0111220" lon="6.8370250">
        <ele>1405.0</ele>
        <time>2017-07-29T09:08:38Z</time>
      </trkpt>
      <trkpt lat="45.0111250" lon="6.8370970">
        <ele>1406.0</ele>
        <time>2017-07-29T09:08:41Z</time>
      </trkpt>
      <trkpt lat="45.0111500" lon="6.8371690">
        <ele>1407.2</ele>
        <time>2017-07-29T09:08:44Z</time>
      </trkpt>
      <trkpt lat="45.0110390" lon="6.8373400">
        <ele>1408.4</ele>
        <time>2017-07-29T09:08:47Z</time>
      </trkpt>
      <trkpt lat="45.0110220" lon="6.8374500">
        <ele>1409.6</ele>
        <time>2017-07-29T09:08:50Z</time>
      </trkpt>
      <trkpt lat="45.0110230" lon="6.8374860">
        <ele>1410.0</ele>
        <time>2017-07-29T09:08:51Z</time>
      </trkpt>
      <trkpt lat="45.0110170" lon="6.8375220">
        <ele>1410.8</ele>
        <time>2017-07-29T09:08:52Z</time>
      </trkpt>
      <trkpt lat="45.0109860" lon="6.8375440">
        <ele>1411.0</ele>
        <time>2017-07-29T09:08:53Z</time>
      </trkpt>
      <trkpt lat="45.0109060" lon="6.8376320">
        <ele>1411.8</ele>
        <time>2017-07-29T09:08:56Z</time>
      </trkpt>
      <trkpt lat="45.0108650" lon="6.8377070">
        <ele>1412.6</ele>
        <time>2017-07-29T09:08:58Z</time>
      </trkpt>
      <trkpt lat="45.0108560" lon="6.8377360">
        <ele>1413.0</ele>
        <time>2017-07-29T09:08:59Z</time>
      </trkpt>
      <trkpt lat="45.0108320" lon="6.8377750">
        <ele>1413.6</ele>
        <time>2017-07-29T09:09:01Z</time>
      </trkpt>
      <trkpt lat="45.0108140" lon="6.8378130">
        <ele>1414.4</ele>
        <time>2017-07-29T09:09:03Z</time>
      </trkpt>
      <trkpt lat="45.0107920" lon="6.8378680">
        <ele>1415.4</ele>
        <time>2017-07-29T09:09:07Z</time>
      </trkpt>
      <trkpt lat="45.0107890" lon="6.8378860">
        <ele>1415.6</ele>
        <time>2017-07-29T09:09:08Z</time>
      </trkpt>
      <trkpt lat="45.0107850" lon="6.8379030">
        <ele>1415.8</ele>
        <time>2017-07-29T09:09:09Z</time>
      </trkpt>
      <trkpt lat="45.0107810" lon="6.8379850">
        <ele>1416.6</ele>
        <time>2017-07-29T09:09:13Z</time>
      </trkpt>
      <trkpt lat="45.0107830" lon="6.8380590">
        <ele>1417.8</ele>
        <time>2017-07-29T09:09:16Z</time>
      </trkpt>
      <trkpt lat="45.0107840" lon="6.8380810">
        <ele>1418.2</ele>
        <time>2017-07-29T09:09:17Z</time>
      </trkpt>
      <trkpt lat="45.0107780" lon="6.8381230">
        <ele>1419.0</ele>
        <time>2017-07-29T09:09:19Z</time>
      </trkpt>
      <trkpt lat="45.0107740" lon="6.8381820">
        <ele>1419.6</ele>
        <time>2017-07-29T09:09:22Z</time>
      </trkpt>
      <trkpt lat="45.0107720" lon="6.8382150">
        <ele>1420.0</ele>
        <time>2017-07-29T09:09:23Z</time>
      </trkpt>
      <trkpt lat="45.0107630" lon="6.8382560">
        <ele>1420.2</ele>
        <time>2017-07-29T09:09:24Z</time>
      </trkpt>
      <trkpt lat="45.0107250" lon="6.8384270">
        <ele>1421.0</ele>
        <time>2017-07-29T09:09:29Z</time>
      </trkpt>
      <trkpt lat="45.0106990" lon="6.8384880">
        <ele>1421.6</ele>
        <time>2017-07-29T09:09:31Z</time>
      </trkpt>
      <trkpt lat="45.0106730" lon="6.8385360">
        <ele>1422.2</ele>
        <time>2017-07-29T09:09:33Z</time>
      </trkpt>
      <trkpt lat="45.0106440" lon="6.8386360">
        <ele>1422.6</ele>
        <time>2017-07-29T09:09:35Z</time>
      </trkpt>
      <trkpt lat="45.0105970" lon="6.8386870">
        <ele>1422.4</ele>
        <time>2017-07-29T09:09:38Z</time>
      </trkpt>
      <trkpt lat="45.0105810" lon="6.8386780">
        <ele>1422.6</ele>
        <time>2017-07-29T09:09:39Z</time>
      </trkpt>
      <trkpt lat="45.0105650" lon="6.8387330">
        <ele>1423.0</ele>
        <time>2017-07-29T09:09:43Z</time>
      </trkpt>
      <trkpt lat="45.0105660" lon="6.8387590">
        <ele>1423.2</ele>
        <time>2017-07-29T09:09:44Z</time>
      </trkpt>
      <trkpt lat="45.0105690" lon="6.8387780">
        <ele>1423.2</ele>
        <time>2017-07-29T09:09:45Z</time>
      </trkpt>
      <trkpt lat="45.0105860" lon="6.8388110">
        <ele>1423.4</ele>
        <time>2017-07-29T09:09:49Z</time>
      </trkpt>
      <trkpt lat="45.0106030" lon="6.8387880">
        <ele>1423.4</ele>
        <time>2017-07-29T09:09:50Z</time>
      </trkpt>
      <trkpt lat="45.0106670" lon="6.8386660">
        <ele>1423.8</ele>
        <time>2017-07-29T09:09:55Z</time>
      </trkpt>
      <trkpt lat="45.0107060" lon="6.8384940">
        <ele>1423.4</ele>
        <time>2017-07-29T09:09:59Z</time>
      </trkpt>
      <trkpt lat="45.0107490" lon="6.8383150">
        <ele>1422.8</ele>
        <time>2017-07-29T09:10:03Z</time>
      </trkpt>
      <trkpt lat="45.0107640" lon="6.8382920">
        <ele>1421.8</ele>
        <time>2017-07-29T09:10:04Z</time>
      </trkpt>
      <trkpt lat="45.0107950" lon="6.8382550">
        <ele>1420.8</ele>
        <time>2017-07-29T09:10:06Z</time>
      </trkpt>
      <trkpt lat="45.0108060" lon="6.8382310">
        <ele>1420.4</ele>
        <time>2017-07-29T09:10:07Z</time>
      </trkpt>
      <trkpt lat="45.0110460" lon="6.8381450">
        <ele>1418.8</ele>
        <time>2017-07-29T09:10:10Z</time>
      </trkpt>
      <trkpt lat="45.0112050" lon="6.8380860">
        <ele>1417.2</ele>
        <time>2017-07-29T09:10:12Z</time>
      </trkpt>
      <trkpt lat="45.0113200" lon="6.8380520">
        <ele>1416.8</ele>
        <time>2017-07-29T09:10:13Z</time>
      </trkpt>
      <trkpt lat="45.0114380" lon="6.8380340">
        <ele>1416.4</ele>
        <time>2017-07-29T09:10:14Z</time>
      </trkpt>
      <trkpt lat="45.0115450" lon="6.8380210">
        <ele>1416.0</ele>
        <time>2017-07-29T09:10:15Z</time>
      </trkpt>
      <trkpt lat="45.0116430" lon="6.8380130">
        <ele>1415.6</ele>
        <time>2017-07-29T09:10:16Z</time>
      </trkpt>
      <trkpt lat="45.0117270" lon="6.8379910">
        <ele>1415.2</ele>
        <time>2017-07-29T09:10:17Z</time>
      </trkpt>
      <trkpt lat="45.0118090" lon="6.8379510">
        <ele>1414.8</ele>
        <time>2017-07-29T09:10:18Z</time>
      </trkpt>
      <trkpt lat="45.0118830" lon="6.8379080">
        <ele>1414.4</ele>
        <time>2017-07-29T09:10:19Z</time>
      </trkpt>
      <trkpt lat="45.0119760" lon="6.8378810">
        <ele>1414.0</ele>
        <time>2017-07-29T09:10:20Z</time>
      </trkpt>
      <trkpt lat="45.0120670" lon="6.8378640">
        <ele>1413.6</ele>
        <time>2017-07-29T09:10:21Z</time>
      </trkpt>
      <trkpt lat="45.0122490" lon="6.8378590">
        <ele>1413.0</ele>
        <time>2017-07-29T09:10:22Z</time>
      </trkpt>
      <trkpt lat="45.0124300" lon="6.8378530">
        <ele>1412.4</ele>
        <time>2017-07-29T09:10:23Z</time>
      </trkpt>
      <trkpt lat="45.0128140" lon="6.8378500">
        <ele>1411.4</ele>
        <time>2017-07-29T09:10:26Z</time>
      </trkpt>
      <trkpt lat="45.0129100" lon="6.8378490">
        <ele>1411.0</ele>
        <time>2017-07-29T09:10:27Z</time>
      </trkpt>
      <trkpt lat="45.0130620" lon="6.8378270">
        <ele>1410.0</ele>
        <time>2017-07-29T09:10:29Z</time>
      </trkpt>
      <trkpt lat="45.0132280" lon="6.8378070">
        <ele>1409.4</ele>
        <time>2017-07-29T09:10:31Z</time>
      </trkpt>
      <trkpt lat="45.0133780" lon="6.8378030">
        <ele>1408.8</ele>
        <time>2017-07-29T09:10:33Z</time>
      </trkpt>
      <trkpt lat="45.0135180" lon="6.8378080">
        <ele>1407.6</ele>
        <time>2017-07-29T09:10:35Z</time>
      </trkpt>
      <trkpt lat="45.0135780" lon="6.8378030">
        <ele>1407.2</ele>
        <time>2017-07-29T09:10:36Z</time>
      </trkpt>
      <trkpt lat="45.0136360" lon="6.8378030">
        <ele>1406.4</ele>
        <time>2017-07-29T09:10:37Z</time>
      </trkpt>
      <trkpt lat="45.0137690" lon="6.8378200">
        <ele>1405.2</ele>
        <time>2017-07-29T09:10:39Z</time>
      </trkpt>
      <trkpt lat="45.0138330" lon="6.8378380">
        <ele>1404.8</ele>
        <time>2017-07-29T09:10:40Z</time>
      </trkpt>
      <trkpt lat="45.0138940" lon="6.8378690">
        <ele>1404.2</ele>
        <time>2017-07-29T09:10:41Z</time>
      </trkpt>
      <trkpt lat="45.0139530" lon="6.8379080">
        <ele>1403.8</ele>
        <time>2017-07-29T09:10:42Z</time>
      </trkpt>
      <trkpt lat="45.0140820" lon="6.8379950">
        <ele>1402.4</ele>
        <time>2017-07-29T09:10:44Z</time>
      </trkpt>
      <trkpt lat="45.0142130" lon="6.8380790">
        <ele>1401.6</ele>
        <time>2017-07-29T09:10:46Z</time>
      </trkpt>
      <trkpt lat="45.0142880" lon="6.8381290">
        <ele>1401.2</ele>
        <time>2017-07-29T09:10:47Z</time>
      </trkpt>
      <trkpt lat="45.0145360" lon="6.8383090">
        <ele>1400.2</ele>
        <time>2017-07-29T09:10:50Z</time>
      </trkpt>
      <trkpt lat="45.0146120" lon="6.8383630">
        <ele>1399.8</ele>
        <time>2017-07-29T09:10:51Z</time>
      </trkpt>
      <trkpt lat="45.0146860" lon="6.8384140">
        <ele>1399.0</ele>
        <time>2017-07-29T09:10:52Z</time>
      </trkpt>
      <trkpt lat="45.0147490" lon="6.8384860">
        <ele>1398.6</ele>
        <time>2017-07-29T09:10:53Z</time>
      </trkpt>
      <trkpt lat="45.0148220" lon="6.8386580">
        <ele>1398.2</ele>
        <time>2017-07-29T09:10:55Z</time>
      </trkpt>
      <trkpt lat="45.0148540" lon="6.8387540">
        <ele>1397.8</ele>
        <time>2017-07-29T09:10:56Z</time>
      </trkpt>
      <trkpt lat="45.0149470" lon="6.8388970">
        <ele>1397.2</ele>
        <time>2017-07-29T09:10:58Z</time>
      </trkpt>
      <trkpt lat="45.0150470" lon="6.8389890">
        <ele>1396.8</ele>
        <time>2017-07-29T09:11:00Z</time>
      </trkpt>
      <trkpt lat="45.0151040" lon="6.8390580">
        <ele>1396.6</ele>
        <time>2017-07-29T09:11:01Z</time>
      </trkpt>
      <trkpt lat="45.0152160" lon="6.8392080">
        <ele>1396.4</ele>
        <time>2017-07-29T09:11:03Z</time>
      </trkpt>
      <trkpt lat="45.0154050" lon="6.8393930">
        <ele>1395.6</ele>
        <time>2017-07-29T09:11:06Z</time>
      </trkpt>
      <trkpt lat="45.0155310" lon="6.8394960">
        <ele>1395.0</ele>
        <time>2017-07-29T09:11:08Z</time>
      </trkpt>
      <trkpt lat="45.0156550" lon="6.8396100">
        <ele>1394.6</ele>
        <time>2017-07-29T09:11:10Z</time>
      </trkpt>
      <trkpt lat="45.0158520" lon="6.8397900">
        <ele>1393.4</ele>
        <time>2017-07-29T09:11:13Z</time>
      </trkpt>
      <trkpt lat="45.0159280" lon="6.8398590">
        <ele>1393.0</ele>
        <time>2017-07-29T09:11:14Z</time>
      </trkpt>
      <trkpt lat="45.0160710" lon="6.8399990">
        <ele>1392.0</ele>
        <time>2017-07-29T09:11:16Z</time>
      </trkpt>
      <trkpt lat="45.0162680" lon="6.8402100">
        <ele>1391.2</ele>
        <time>2017-07-29T09:11:19Z</time>
      </trkpt>
      <trkpt lat="45.0163160" lon="6.8402930">
        <ele>1391.0</ele>
        <time>2017-07-29T09:11:20Z</time>
      </trkpt>
      <trkpt lat="45.0165280" lon="6.8406710">
        <ele>1389.8</ele>
        <time>2017-07-29T09:11:24Z</time>
      </trkpt>
      <trkpt lat="45.0165680" lon="6.8407650">
        <ele>1389.6</ele>
        <time>2017-07-29T09:11:25Z</time>
      </trkpt>
      <trkpt lat="45.0166870" lon="6.8410550">
        <ele>1388.6</ele>
        <time>2017-07-29T09:11:28Z</time>
      </trkpt>
      <trkpt lat="45.0168120" lon="6.8413060">
        <ele>1388.2</ele>
        <time>2017-07-29T09:11:31Z</time>
      </trkpt>
      <trkpt lat="45.0169360" lon="6.8415050">
        <ele>1388.4</ele>
        <time>2017-07-29T09:11:34Z</time>
      </trkpt>
      <trkpt lat="45.0169780" lon="6.8415470">
        <ele>1388.4</ele>
        <time>2017-07-29T09:11:35Z</time>
      </trkpt>
      <trkpt lat="45.0171490" lon="6.8416790">
        <ele>1387.8</ele>
        <time>2017-07-29T09:11:39Z</time>
      </trkpt>
      <trkpt lat="45.0172000" lon="6.8417190">
        <ele>1387.6</ele>
        <time>2017-07-29T09:11:40Z</time>
      </trkpt>
      <trkpt lat="45.0172500" lon="6.8417570">
        <ele>1387.4</ele>
        <time>2017-07-29T09:11:41Z</time>
      </trkpt>
      <trkpt lat="45.0173420" lon="6.8418440">
        <ele>1386.2</ele>
        <time>2017-07-29T09:11:43Z</time>
      </trkpt>
      <trkpt lat="45.0173870" lon="6.8418940">
        <ele>1386.0</ele>
        <time>2017-07-29T09:11:44Z</time>
      </trkpt>
      <trkpt lat="45.0174830" lon="6.8420130">
        <ele>1386.0</ele>
        <time>2017-07-29T09:11:46Z</time>
      </trkpt>
      <trkpt lat="45.0176210" lon="6.8421990">
        <ele>1385.4</ele>
        <time>2017-07-29T09:11:49Z</time>
      </trkpt>
      <trkpt lat="45.0176760" lon="6.8422570">
        <ele>1385.2</ele>
        <time>2017-07-29T09:11:50Z</time>
      </trkpt>
      <trkpt lat="45.0177130" lon="6.8423110">
        <ele>1385.0</ele>
        <time>2017-07-29T09:11:51Z</time>
      </trkpt>
      <trkpt lat="45.0179080" lon="6.8425850">
        <ele>1384.0</ele>
        <time>2017-07-29T09:11:55Z</time>
      </trkpt>
      <trkpt lat="45.0179980" lon="6.8427280">
        <ele>1383.8</ele>
        <time>2017-07-29T09:11:57Z</time>
      </trkpt>
      <trkpt lat="45.0182660" lon="6.8430880">
        <ele>1384.6</ele>
        <time>2017-07-29T09:12:03Z</time>
      </trkpt>
      <trkpt lat="45.0183560" lon="6.8431900">
        <ele>1385.0</ele>
        <time>2017-07-29T09:12:05Z</time>
      </trkpt>
      <trkpt lat="45.0184130" lon="6.8432570">
        <ele>1385.2</ele>
        <time>2017-07-29T09:12:06Z</time>
      </trkpt>
      <trkpt lat="45.0185900" lon="6.8434380">
        <ele>1386.0</ele>
        <time>2017-07-29T09:12:09Z</time>
      </trkpt>
      <trkpt lat="45.0186320" lon="6.8434970">
        <ele>1386.2</ele>
        <time>2017-07-29T09:12:10Z</time>
      </trkpt>
      <trkpt lat="45.0188390" lon="6.8437230">
        <ele>1386.8</ele>
        <time>2017-07-29T09:12:14Z</time>
      </trkpt>
      <trkpt lat="45.0188920" lon="6.8437590">
        <ele>1387.0</ele>
        <time>2017-07-29T09:12:15Z</time>
      </trkpt>
      <trkpt lat="45.0189890" lon="6.8438160">
        <ele>1387.4</ele>
        <time>2017-07-29T09:12:17Z</time>
      </trkpt>
      <trkpt lat="45.0191370" lon="6.8439020">
        <ele>1388.2</ele>
        <time>2017-07-29T09:12:21Z</time>
      </trkpt>
      <trkpt lat="45.0191750" lon="6.8439270">
        <ele>1388.4</ele>
        <time>2017-07-29T09:12:22Z</time>
      </trkpt>
      <trkpt lat="45.0192850" lon="6.8440560">
        <ele>1389.4</ele>
        <time>2017-07-29T09:12:26Z</time>
      </trkpt>
      <trkpt lat="45.0193060" lon="6.8441160">
        <ele>1390.6</ele>
        <time>2017-07-29T09:12:28Z</time>
      </trkpt>
      <trkpt lat="45.0193810" lon="6.8442510">
        <ele>1391.4</ele>
        <time>2017-07-29T09:12:32Z</time>
      </trkpt>
      <trkpt lat="45.0194110" lon="6.8442990">
        <ele>1391.8</ele>
        <time>2017-07-29T09:12:33Z</time>
      </trkpt>
      <trkpt lat="45.0194800" lon="6.8443910">
        <ele>1392.0</ele>
        <time>2017-07-29T09:12:35Z</time>
      </trkpt>
      <trkpt lat="45.0195170" lon="6.8444350">
        <ele>1392.0</ele>
        <time>2017-07-29T09:12:36Z</time>
      </trkpt>
      <trkpt lat="45.0195550" lon="6.8444790">
        <ele>1392.0</ele>
        <time>2017-07-29T09:12:37Z</time>
      </trkpt>
      <trkpt lat="45.0195920" lon="6.8445290">
        <ele>1392.0</ele>
        <time>2017-07-29T09:12:38Z</time>
      </trkpt>
      <trkpt lat="45.0196270" lon="6.8445880">
        <ele>1392.0</ele>
        <time>2017-07-29T09:12:39Z</time>
      </trkpt>
      <trkpt lat="45.0196580" lon="6.8446480">
        <ele>1392.2</ele>
        <time>2017-07-29T09:12:40Z</time>
      </trkpt>
      <trkpt lat="45.0196910" lon="6.8447060">
        <ele>1392.4</ele>
        <time>2017-07-29T09:12:41Z</time>
      </trkpt>
      <trkpt lat="45.0197280" lon="6.8447610">
        <ele>1392.4</ele>
        <time>2017-07-29T09:12:42Z</time>
      </trkpt>
      <trkpt lat="45.0197620" lon="6.8448240">
        <ele>1392.2</ele>
        <time>2017-07-29T09:12:43Z</time>
      </trkpt>
      <trkpt lat="45.0198020" lon="6.8448720">
        <ele>1392.0</ele>
        <time>2017-07-29T09:12:44Z</time>
      </trkpt>
      <trkpt lat="45.0198950" lon="6.8448850">
        <ele>1391.6</ele>
        <time>2017-07-29T09:12:46Z</time>
      </trkpt>
      <trkpt lat="45.0200060" lon="6.8448660">
        <ele>1391.2</ele>
        <time>2017-07-29T09:12:48Z</time>
      </trkpt>
      <trkpt lat="45.0201230" lon="6.8448670">
        <ele>1391.2</ele>
        <time>2017-07-29T09:12:50Z</time>
      </trkpt>
      <trkpt lat="45.0201860" lon="6.8448740">
        <ele>1391.0</ele>
        <time>2017-07-29T09:12:51Z</time>
      </trkpt>
      <trkpt lat="45.0202440" lon="6.8448720">
        <ele>1390.8</ele>
        <time>2017-07-29T09:12:52Z</time>
      </trkpt>
      <trkpt lat="45.0203170" lon="6.8448670">
        <ele>1390.6</ele>
        <time>2017-07-29T09:12:53Z</time>
      </trkpt>
      <trkpt lat="45.0203860" lon="6.8448670">
        <ele>1390.8</ele>
        <time>2017-07-29T09:12:54Z</time>
      </trkpt>
      <trkpt lat="45.0205260" lon="6.8448610">
        <ele>1391.0</ele>
        <time>2017-07-29T09:12:56Z</time>
      </trkpt>
      <trkpt lat="45.0206480" lon="6.8448710">
        <ele>1391.0</ele>
        <time>2017-07-29T09:12:58Z</time>
      </trkpt>
      <trkpt lat="45.0207800" lon="6.8449340">
        <ele>1390.4</ele>
        <time>2017-07-29T09:13:00Z</time>
      </trkpt>
      <trkpt lat="45.0208450" lon="6.8449640">
        <ele>1390.2</ele>
        <time>2017-07-29T09:13:01Z</time>
      </trkpt>
      <trkpt lat="45.0209990" lon="6.8450390">
        <ele>1390.4</ele>
        <time>2017-07-29T09:13:03Z</time>
      </trkpt>
      <trkpt lat="45.0211340" lon="6.8451350">
        <ele>1390.4</ele>
        <time>2017-07-29T09:13:05Z</time>
      </trkpt>
      <trkpt lat="45.0211930" lon="6.8451890">
        <ele>1390.2</ele>
        <time>2017-07-29T09:13:06Z</time>
      </trkpt>
      <trkpt lat="45.0213520" lon="6.8453590">
        <ele>1390.2</ele>
        <time>2017-07-29T09:13:09Z</time>
      </trkpt>
      <trkpt lat="45.0214480" lon="6.8454450">
        <ele>1390.4</ele>
        <time>2017-07-29T09:13:11Z</time>
      </trkpt>
      <trkpt lat="45.0214970" lon="6.8454820">
        <ele>1390.6</ele>
        <time>2017-07-29T09:13:12Z</time>
      </trkpt>
      <trkpt lat="45.0216470" lon="6.8455750">
        <ele>1391.0</ele>
        <time>2017-07-29T09:13:15Z</time>
      </trkpt>
      <trkpt lat="45.0217540" lon="6.8456680">
        <ele>1391.2</ele>
        <time>2017-07-29T09:13:17Z</time>
      </trkpt>
      <trkpt lat="45.0219140" lon="6.8457990">
        <ele>1391.0</ele>
        <time>2017-07-29T09:13:20Z</time>
      </trkpt>
      <trkpt lat="45.0219590" lon="6.8458450">
        <ele>1391.0</ele>
        <time>2017-07-29T09:13:21Z</time>
      </trkpt>
      <trkpt lat="45.0220770" lon="6.8459760">
        <ele>1390.4</ele>
        <time>2017-07-29T09:13:24Z</time>
      </trkpt>
      <trkpt lat="45.0221490" lon="6.8460910">
        <ele>1392.0</ele>
        <time>2017-07-29T09:13:26Z</time>
      </trkpt>
      <trkpt lat="45.0222050" lon="6.8462420">
        <ele>1391.8</ele>
        <time>2017-07-29T09:13:28Z</time>
      </trkpt>
      <trkpt lat="45.0222240" lon="6.8463340">
        <ele>1390.6</ele>
        <time>2017-07-29T09:13:29Z</time>
      </trkpt>
      <trkpt lat="45.0222740" lon="6.8466240">
        <ele>1391.4</ele>
        <time>2017-07-29T09:13:32Z</time>
      </trkpt>
      <trkpt lat="45.0223050" lon="6.8468090">
        <ele>1391.6</ele>
        <time>2017-07-29T09:13:34Z</time>
      </trkpt>
      <trkpt lat="45.0223450" lon="6.8470240">
        <ele>1391.4</ele>
        <time>2017-07-29T09:13:37Z</time>
      </trkpt>
      <trkpt lat="45.0223220" lon="6.8472230">
        <ele>1392.4</ele>
        <time>2017-07-29T09:13:41Z</time>
      </trkpt>
      <trkpt lat="45.0223100" lon="6.8472670">
        <ele>1392.8</ele>
        <time>2017-07-29T09:13:42Z</time>
      </trkpt>
      <trkpt lat="45.0222640" lon="6.8474130">
        <ele>1393.8</ele>
        <time>2017-07-29T09:13:46Z</time>
      </trkpt>
      <trkpt lat="45.0222570" lon="6.8474840">
        <ele>1394.6</ele>
        <time>2017-07-29T09:13:48Z</time>
      </trkpt>
      <trkpt lat="45.0222540" lon="6.8475220">
        <ele>1395.0</ele>
        <time>2017-07-29T09:13:49Z</time>
      </trkpt>
      <trkpt lat="45.0222690" lon="6.8476570">
        <ele>1396.0</ele>
        <time>2017-07-29T09:13:52Z</time>
      </trkpt>
      <trkpt lat="45.0222720" lon="6.8477040">
        <ele>1396.2</ele>
        <time>2017-07-29T09:13:53Z</time>
      </trkpt>
      <trkpt lat="45.0222730" lon="6.8477520">
        <ele>1396.6</ele>
        <time>2017-07-29T09:13:54Z</time>
      </trkpt>
      <trkpt lat="45.0222860" lon="6.8478430">
        <ele>1397.2</ele>
        <time>2017-07-29T09:13:56Z</time>
      </trkpt>
      <trkpt lat="45.0222990" lon="6.8479520">
        <ele>1398.2</ele>
        <time>2017-07-29T09:13:59Z</time>
      </trkpt>
      <trkpt lat="45.0222980" lon="6.8479810">
        <ele>1398.8</ele>
        <time>2017-07-29T09:14:00Z</time>
      </trkpt>
      <trkpt lat="45.0222990" lon="6.8480890">
        <ele>1399.8</ele>
        <time>2017-07-29T09:14:03Z</time>
      </trkpt>
      <trkpt lat="45.0223140" lon="6.8482100">
        <ele>1401.0</ele>
        <time>2017-07-29T09:14:06Z</time>
      </trkpt>
      <trkpt lat="45.0223440" lon="6.8483210">
        <ele>1401.8</ele>
        <time>2017-07-29T09:14:09Z</time>
      </trkpt>
      <trkpt lat="45.0223450" lon="6.8483600">
        <ele>1402.0</ele>
        <time>2017-07-29T09:14:10Z</time>
      </trkpt>
      <trkpt lat="45.0223620" lon="6.8483890">
        <ele>1402.4</ele>
        <time>2017-07-29T09:14:11Z</time>
      </trkpt>
      <trkpt lat="45.0224040" lon="6.8484580">
        <ele>1403.2</ele>
        <time>2017-07-29T09:14:14Z</time>
      </trkpt>
      <trkpt lat="45.0224250" lon="6.8485800">
        <ele>1404.0</ele>
        <time>2017-07-29T09:14:18Z</time>
      </trkpt>
      <trkpt lat="45.0224480" lon="6.8486800">
        <ele>1404.4</ele>
        <time>2017-07-29T09:14:20Z</time>
      </trkpt>
      <trkpt lat="45.0225040" lon="6.8488260">
        <ele>1405.2</ele>
        <time>2017-07-29T09:14:24Z</time>
      </trkpt>
      <trkpt lat="45.0225580" lon="6.8488920">
        <ele>1405.6</ele>
        <time>2017-07-29T09:14:27Z</time>
      </trkpt>
      <trkpt lat="45.0226110" lon="6.8489110">
        <ele>1406.0</ele>
        <time>2017-07-29T09:14:29Z</time>
      </trkpt>
      <trkpt lat="45.0226600" lon="6.8489210">
        <ele>1406.4</ele>
        <time>2017-07-29T09:14:31Z</time>
      </trkpt>
      <trkpt lat="45.0226770" lon="6.8489470">
        <ele>1406.8</ele>
        <time>2017-07-29T09:14:32Z</time>
      </trkpt>
      <trkpt lat="45.0226920" lon="6.8489670">
        <ele>1407.0</ele>
        <time>2017-07-29T09:14:33Z</time>
      </trkpt>
      <trkpt lat="45.0227990" lon="6.8492560">
        <ele>1412.4</ele>
        <time>2017-07-29T09:15:05Z</time>
      </trkpt>
      <trkpt lat="45.0228040" lon="6.8492660">
        <ele>1412.4</ele>
        <time>2017-07-29T09:15:06Z</time>
      </trkpt>
    </trkseg>
  </trk>
</gpx>
